/* DATA DESCRIPTION:
Citation:	Vuilleumier, Laurent (2026): Radiosonde measurements from station Payerne (2025-11) [dataset]. Federal Office of Meteorology and Climatology MeteoSwiss, Payerne, PANGAEA, https://doi.org/10.1594/PANGAEA.992996
Other version:	Vuilleumier, Laurent (2026): BSRN Station-to-archive file for station Payerne (2025-11) [dataset]. ftp://ftp.bsrn.awi.de/pay/pay1125.dat.gz
Project(s):	Baseline Surface Radiation Network (BSRN) (URI: https://bsrn.awi.de/)
Coverage:	LATITUDE: 46.812300 * LONGITUDE: 6.942200
	DATE/TIME START: 2025-11-01T00:00:00 * DATE/TIME END: 2025-11-30T12:00:00
	MINIMUM ALTITUDE: 491 m * MAXIMUM ALTITUDE: 37850 m
Event(s):	PAY (Payerne) * LATITUDE: 46.812300 * LONGITUDE: 6.942200 * DATE/TIME: 1992-09-01T00:00:00 * ELEVATION: 491.0 m * LOCATION: Switzerland * METHOD/DEVICE: Monitoring station (MONS) * COMMENT: BSRN station no: 21; Surface type: cultivated; Topography type: hilly, rural; Horizon: doi:10.1594/PANGAEA.947035; Station scientist: Laurent Vuilleumier (laurent.vuilleumier@meteoswiss.ch)
Parameter(s):	DATE/TIME (Date/Time) * GEOCODE * PI: Vuilleumier, Laurent (https://orcid.org/0000-0003-0222-2566, laurent.vuilleumier@meteoswiss.ch)
	ALTITUDE [m] (Altitude) * GEOCODE * PI: Vuilleumier, Laurent (https://orcid.org/0000-0003-0222-2566, laurent.vuilleumier@meteoswiss.ch)
	Pressure, at given altitude [hPa] (PPPP) * PI: Vuilleumier, Laurent (https://orcid.org/0000-0003-0222-2566, laurent.vuilleumier@meteoswiss.ch) * METHOD/DEVICE: Radiosonde, Vaisala, RS41 (URI: http://www.vaisala.com/en/products/soundingsystemsandradiosondes/radiosondes/Pages/RS41.aspx)
	Temperature, air [°C] (TTT) * PI: Vuilleumier, Laurent (https://orcid.org/0000-0003-0222-2566, laurent.vuilleumier@meteoswiss.ch) * METHOD/DEVICE: Radiosonde, Vaisala, RS41 (URI: http://www.vaisala.com/en/products/soundingsystemsandradiosondes/radiosondes/Pages/RS41.aspx)
	Dew/frost point [°C] (TdTdTd) * PI: Vuilleumier, Laurent (https://orcid.org/0000-0003-0222-2566, laurent.vuilleumier@meteoswiss.ch) * METHOD/DEVICE: Radiosonde, Vaisala, RS41 (URI: http://www.vaisala.com/en/products/soundingsystemsandradiosondes/radiosondes/Pages/RS41.aspx)
	Wind direction [deg] (dd) * PI: Vuilleumier, Laurent (https://orcid.org/0000-0003-0222-2566, laurent.vuilleumier@meteoswiss.ch) * METHOD/DEVICE: Radiosonde, Vaisala, RS41 (URI: http://www.vaisala.com/en/products/soundingsystemsandradiosondes/radiosondes/Pages/RS41.aspx)
	Wind speed [m/s] (ff) * PI: Vuilleumier, Laurent (https://orcid.org/0000-0003-0222-2566, laurent.vuilleumier@meteoswiss.ch) * METHOD/DEVICE: Radiosonde, Vaisala, RS41 (URI: http://www.vaisala.com/en/products/soundingsystemsandradiosondes/radiosondes/Pages/RS41.aspx)
	Ozone, partial pressure [mPa] (pO3) * PI: Vuilleumier, Laurent (https://orcid.org/0000-0003-0222-2566, laurent.vuilleumier@meteoswiss.ch) * METHOD/DEVICE: Radiosonde, Vaisala, RS41 (URI: http://www.vaisala.com/en/products/soundingsystemsandradiosondes/radiosondes/Pages/RS41.aspx)
License:	Baseline Surface Radiation Network License 1.0 (BSRN-1.0) (URI: https://bsrn.awi.de/data/conditions-of-data-release/)
Status:	Curation Level: Enhanced curation (URI: https://wiki.pangaea.de/wiki/Curation_levels)
Size:	279166 data points
*/
Date/Time	Altitude [m]	PPPP [hPa]	TTT [°C]	TdTdTd [°C]	dd [deg]	ff [m/s]	pO3 [mPa]
2025-11-01T00:00	491	959	9.1	8.8	243	0	
2025-11-01T00:00	501	958	9.4	9.0	218	1	
2025-11-01T00:00	520	956	9.9	9.3	216	1	
2025-11-01T00:00	540	954	10.4	9.0	217	1	
2025-11-01T00:00	560	951	10.6	9.0	219	1	
2025-11-01T00:00	580	949	10.6	9.1	221	1	
2025-11-01T00:00	600	947	10.6	9.2	222	1	
2025-11-01T00:00	620	945	10.8	9.2	222	1	
2025-11-01T00:00	640	942	10.8	9.1	220	1	
2025-11-01T00:00	660	940	10.7	8.9	217	1	
2025-11-01T00:00	680	938	11.3	8.8	209	1	
2025-11-01T00:00	700	935	11.8	9.0	202	1	
2025-11-01T00:00	720	933	11.7	8.9	203	1	
2025-11-01T00:00	740	931	11.7	8.9	206	1	
2025-11-01T00:00	760	929	11.7	9.0	210	1	
2025-11-01T00:00	780	927	11.6	8.9	217	1	
2025-11-01T00:00	800	925	11.6	8.9	226	1	
2025-11-01T00:00	820	922	11.5	9.0	238	1	
2025-11-01T00:00	840	920	11.5	9.1	249	1	
2025-11-01T00:00	860	918	11.4	9.1	254	1	
2025-11-01T00:00	880	916	11.2	9.1	254	1	
2025-11-01T00:00	900	913	11.1	9.0	251	2	
2025-11-01T00:00	920	911	11.0	9.1	245	2	
2025-11-01T00:00	940	909	10.9	9.2	238	2	
2025-11-01T00:00	960	907	10.7	9.1	231	2	
2025-11-01T00:00	980	905	10.5	9.2	227	2	
2025-11-01T00:00	1000	903	10.3	9.1	223	3	
2025-11-01T00:00	1020	900	10.3	9.2	220	3	
2025-11-01T00:00	1040	898	10.2	9.2	218	3	
2025-11-01T00:00	1060	896	10.2	8.8	218	3	
2025-11-01T00:00	1080	894	10.3	8.2	219	4	
2025-11-01T00:00	1100	892	10.5	7.9	219	4	
2025-11-01T00:00	1120	890	10.6	8.3	220	4	
2025-11-01T00:00	1140	888	10.5	8.6	221	5	
2025-11-01T00:00	1160	885	10.3	8.7	221	5	
2025-11-01T00:00	1180	883	10.2	9.0	221	5	
2025-11-01T00:00	1200	881	10.1	9.1	221	6	
2025-11-01T00:00	1220	879	10.0	9.1	220	6	
2025-11-01T00:00	1240	877	9.9	8.8	220	6	
2025-11-01T00:00	1260	875	9.9	8.3	221	7	
2025-11-01T00:00	1280	873	9.9	7.9	221	7	
2025-11-01T00:00	1300	871	10.0	8.0	222	7	
2025-11-01T00:00	1320	869	9.9	8.2	223	7	
2025-11-01T00:00	1340	867	9.7	8.3	224	7	
2025-11-01T00:00	1360	865	9.6	8.3	224	7	
2025-11-01T00:00	1380	862	9.4	8.4	223	7	
2025-11-01T00:00	1400	860	9.2	8.3	222	7	
2025-11-01T00:00	1420	858	9.2	7.8	221	6	
2025-11-01T00:00	1440	856	9.1	7.5	220	6	
2025-11-01T00:00	1460	854	9.0	7.1	218	6	
2025-11-01T00:00	1480	852	9.0	6.9	217	6	
2025-11-01T00:00	1500	850	8.8	6.4	215	6	
2025-11-01T00:00	1520	848	8.6	6.4	214	5	
2025-11-01T00:00	1540	846	8.5	6.3	213	6	
2025-11-01T00:00	1560	844	8.3	6.2	211	6	
2025-11-01T00:00	1580	842	8.1	6.1	209	6	
2025-11-01T00:00	1600	840	8.0	5.7	207	6	
2025-11-01T00:00	1620	838	7.9	5.3	205	7	
2025-11-01T00:00	1640	836	7.9	4.8	204	7	
2025-11-01T00:00	1660	834	7.7	4.6	201	8	
2025-11-01T00:00	1680	832	7.6	4.3	200	8	
2025-11-01T00:00	1700	830	7.6	4.0	198	9	
2025-11-01T00:00	1720	828	7.4	3.9	197	10	
2025-11-01T00:00	1740	826	7.3	3.8	197	10	
2025-11-01T00:00	1760	824	7.3	3.4	196	11	
2025-11-01T00:00	1780	822	7.5	2.8	196	11	
2025-11-01T00:00	1800	820	7.5	2.5	196	11	
2025-11-01T00:00	1820	818	7.6	2.3	197	12	
2025-11-01T00:00	1840	816	7.7	2.1	197	12	
2025-11-01T00:00	1860	814	7.5	2.1	197	12	
2025-11-01T00:00	1880	812	7.4	2.0	198	12	
2025-11-01T00:00	1900	810	7.3	1.8	197	12	
2025-11-01T00:00	1920	808	7.3	1.5	197	12	
2025-11-01T00:00	1940	806	7.2	1.5	196	13	
2025-11-01T00:00	1960	804	7.1	1.3	196	13	
2025-11-01T00:00	1980	802	7.2	0.9	196	13	
2025-11-01T00:00	2000	800	7.3	0.7	196	12	
2025-11-01T00:00	2020	798	7.3	0.4	196	12	
2025-11-01T00:00	2040	796	7.6	-0.1	197	11	
2025-11-01T00:00	2060	794	7.8	-0.4	198	10	
2025-11-01T00:00	2080	792	7.9	-0.8	198	10	
2025-11-01T00:00	2100	790	7.9	-1.6	199	9	
2025-11-01T00:00	2120	788	8.3	-2.8	198	9	
2025-11-01T00:00	2140	787	8.2	-2.8	198	8	
2025-11-01T00:00	2160	785	8.1	-2.9	197	8	
2025-11-01T00:00	2180	783	8.1	-3.6	197	8	
2025-11-01T00:00	2200	781	8.1	-4.1	198	8	
2025-11-01T00:00	2220	779	8.0	-4.4	199	8	
2025-11-01T00:00	2240	777	8.0	-4.7	200	8	
2025-11-01T00:00	2260	775	7.9	-4.9	201	9	
2025-11-01T00:00	2280	773	7.7	-4.9	203	9	
2025-11-01T00:00	2300	771	7.5	-5.0	205	9	
2025-11-01T00:00	2320	770	7.4	-5.1	207	9	
2025-11-01T00:00	2340	768	7.3	-5.3	209	9	
2025-11-01T00:00	2360	766	7.2	-5.6	210	9	
2025-11-01T00:00	2380	764	7.1	-5.8	212	9	
2025-11-01T00:00	2400	762	6.9	-5.9	213	9	
2025-11-01T00:00	2420	760	6.7	-5.9	214	9	
2025-11-01T00:00	2440	758	6.5	-6.0	216	9	
2025-11-01T00:00	2460	757	6.5	-6.3	217	9	
2025-11-01T00:00	2480	755	6.3	-6.4	217	9	
2025-11-01T00:00	2500	753	6.2	-6.4	218	9	
2025-11-01T00:00	2520	751	6.0	-6.8	218	10	
2025-11-01T00:00	2540	749	5.9	-7.3	217	10	
2025-11-01T00:00	2560	747	5.8	-7.3	217	11	
2025-11-01T00:00	2580	746	5.6	-7.4	216	11	
2025-11-01T00:00	2600	744	5.6	-7.7	214	12	
2025-11-01T00:00	2620	742	5.4	-7.9	214	12	
2025-11-01T00:00	2640	740	5.5	-8.1	213	13	
2025-11-01T00:00	2660	738	5.3	-8.1	213	13	
2025-11-01T00:00	2680	736	5.2	-8.9	213	14	
2025-11-01T00:00	2700	735	5.2	-10.0	214	14	
2025-11-01T00:00	2720	733	5.2	-10.5	215	14	
2025-11-01T00:00	2740	731	5.0	-10.5	216	14	
2025-11-01T00:00	2760	729	4.8	-10.7	217	14	
2025-11-01T00:00	2780	727	4.7	-11.4	217	14	
2025-11-01T00:00	2800	726	4.6	-12.2	218	14	
2025-11-01T00:00	2820	724	4.4	-12.2	218	14	
2025-11-01T00:00	2840	722	4.2	-12.3	218	14	
2025-11-01T00:00	2860	720	4.0	-12.4	218	14	
2025-11-01T00:00	2880	719	3.9	-12.5	218	14	
2025-11-01T00:00	2900	717	3.7	-12.8	218	14	
2025-11-01T00:00	2920	715	3.6	-13.0	218	14	
2025-11-01T00:00	2940	713	3.4	-13.0	219	14	
2025-11-01T00:00	2960	712	3.2	-12.9	218	14	
2025-11-01T00:00	2980	710	3.2	-12.5	218	14	
2025-11-01T00:00	3000	708	3.1	-12.2	217	13	
2025-11-01T00:00	3020	706	2.9	-11.7	215	13	
2025-11-01T00:00	3040	705	2.8	-11.3	213	12	
2025-11-01T00:00	3060	703	2.6	-11.2	212	12	
2025-11-01T00:00	3080	701	2.6	-11.6	211	12	
2025-11-01T00:00	3100	699	2.6	-12.3	210	12	
2025-11-01T00:00	3120	697	2.6	-14.8	210	12	
2025-11-01T00:00	3140	696	2.6	-16.3	209	12	
2025-11-01T00:00	3160	694	2.6	-17.1	209	13	
2025-11-01T00:00	3180	692	2.4	-17.6	208	13	
2025-11-01T00:00	3200	691	2.3	-17.8	208	13	
2025-11-01T00:00	3220	689	2.2	-16.6	207	13	
2025-11-01T00:00	3240	687	2.0	-16.2	207	14	
2025-11-01T00:00	3260	686	1.9	-15.8	207	14	
2025-11-01T00:00	3280	684	1.8	-17.3	208	14	
2025-11-01T00:00	3300	682	1.7	-17.4	208	14	
2025-11-01T00:00	3320	680	1.6	-14.0	210	13	
2025-11-01T00:00	3340	679	1.6	-12.5	212	13	
2025-11-01T00:00	3360	677	1.5	-12.6	214	13	
2025-11-01T00:00	3380	675	1.3	-12.9	216	13	
2025-11-01T00:00	3400	674	1.2	-13.1	217	13	
2025-11-01T00:00	3420	672	1.0	-13.3	218	13	
2025-11-01T00:00	3440	671	0.8	-13.4	218	12	
2025-11-01T00:00	3460	669	0.6	-13.7	218	12	
2025-11-01T00:00	3480	667	0.4	-14.0	216	12	
2025-11-01T00:00	3500	665	0.2	-14.3	215	12	
2025-11-01T00:00	3520	664	0.1	-14.8	214	12	
2025-11-01T00:00	3540	662	-0.1	-15.3	213	12	
2025-11-01T00:00	3560	660	-0.3	-15.7	213	12	
2025-11-01T00:00	3580	659	-0.5	-16.2	213	12	
2025-11-01T00:00	3600	657	-0.6	-17.0	214	12	
2025-11-01T00:00	3620	655	-0.8	-17.7	216	12	
2025-11-01T00:00	3640	654	-0.9	-21.5	218	12	
2025-11-01T00:00	3660	652	-0.8	-29.2	220	12	
2025-11-01T00:00	3680	651	-0.9	-31.5	221	12	
2025-11-01T00:00	3700	649	-1.1	-32.8	223	12	
2025-11-01T00:00	3720	647	-1.2	-34.5	225	12	
2025-11-01T00:00	3740	646	-1.4	-35.8	226	12	
2025-11-01T00:00	3760	644	-1.5	-35.1	227	12	
2025-11-01T00:00	3780	643	-1.6	-31.3	228	12	
2025-11-01T00:00	3800	641	-1.8	-29.1	229	12	
2025-11-01T00:00	3820	639	-1.9	-27.2	231	12	
2025-11-01T00:00	3840	638	-2.2	-27.2	232	12	
2025-11-01T00:00	3860	636	-2.3	-23.7	232	13	
2025-11-01T00:00	3880	634	-2.5	-22.4	232	13	
2025-11-01T00:00	3900	633	-2.7	-17.5	232	14	
2025-11-01T00:00	3920	631	-2.8	-13.0	232	14	
2025-11-01T00:00	3940	630	-3.0	-11.8	232	15	
2025-11-01T00:00	3960	628	-3.1	-11.9	232	16	
2025-11-01T00:00	3980	626	-3.2	-13.1	233	16	
2025-11-01T00:00	4000	625	-3.2	-15.8	233	16	
2025-11-01T00:00	4020	624	-3.2	-20.1	234	17	
2025-11-01T00:00	4040	622	-3.1	-29.8	234	17	
2025-11-01T00:00	4060	620	-3.2	-32.9	234	17	
2025-11-01T00:00	4080	619	-3.4	-32.7	234	17	
2025-11-01T00:00	4100	617	-3.5	-33.7	233	17	
2025-11-01T00:00	4120	615	-3.6	-34.3	233	17	
2025-11-01T00:00	4140	614	-3.8	-34.5	233	17	
2025-11-01T00:00	4160	612	-3.9	-34.7	233	17	
2025-11-01T00:00	4180	611	-4.0	-34.9	233	17	
2025-11-01T00:00	4200	609	-4.2	-34.1	233	17	
2025-11-01T00:00	4220	608	-4.3	-32.2	233	17	
2025-11-01T00:00	4240	606	-4.5	-21.5	233	17	
2025-11-01T00:00	4260	605	-4.7	-15.7	233	17	
2025-11-01T00:00	4280	603	-4.9	-17.3	234	17	
2025-11-01T00:00	4300	602	-5.0	-18.0	234	18	
2025-11-01T00:00	4320	600	-5.1	-22.1	234	18	
2025-11-01T00:00	4340	599	-5.2	-26.4	234	18	
2025-11-01T00:00	4360	597	-5.2	-30.1	234	18	
2025-11-01T00:00	4380	595	-5.2	-31.4	234	18	
2025-11-01T00:00	4400	594	-5.4	-31.4	234	18	
2025-11-01T00:00	4420	593	-5.5	-31.8	234	18	
2025-11-01T00:00	4440	591	-5.6	-31.6	234	19	
2025-11-01T00:00	4460	589	-5.7	-29.9	235	19	
2025-11-01T00:00	4480	588	-5.9	-23.3	235	19	
2025-11-01T00:00	4500	586	-6.0	-17.9	235	19	
2025-11-01T00:00	4520	585	-6.2	-14.8	236	19	
2025-11-01T00:00	4540	583	-6.4	-15.0	236	20	
2025-11-01T00:00	4560	582	-6.5	-13.0	237	20	
2025-11-01T00:00	4580	581	-6.6	-9.8	237	20	
2025-11-01T00:00	4600	579	-6.6	-9.0	237	20	
2025-11-01T00:00	4620	578	-6.7	-9.7	237	20	
2025-11-01T00:00	4640	576	-6.7	-8.7	237	20	
2025-11-01T00:00	4660	574	-6.8	-8.8	237	20	
2025-11-01T00:00	4680	573	-7.0	-8.7	237	20	
2025-11-01T00:00	4700	572	-7.2	-8.8	237	19	
2025-11-01T00:00	4720	570	-7.3	-8.9	237	19	
2025-11-01T00:00	4740	569	-7.5	-9.0	238	19	
2025-11-01T00:00	4760	567	-7.7	-9.0	239	19	
2025-11-01T00:00	4780	566	-7.9	-9.1	239	19	
2025-11-01T00:00	4800	564	-8.1	-9.1	240	20	
2025-11-01T00:00	4820	563	-8.3	-9.2	240	19	
2025-11-01T00:00	4840	561	-8.4	-9.2	241	20	
2025-11-01T00:00	4860	560	-8.6	-9.3	241	20	
2025-11-01T00:00	4880	559	-8.9	-9.3	241	19	
2025-11-01T00:00	4900	557	-9.0	-9.5	240	20	
2025-11-01T00:00	4920	556	-9.2	-9.5	240	20	
2025-11-01T00:00	4940	554	-9.4	-9.5	240	20	
2025-11-01T00:00	4960	553	-9.5	-9.7	240	20	
2025-11-01T00:00	4980	551	-9.7	-9.8	240	20	
2025-11-01T00:00	5000	550	-9.9	-9.9	240	20	
2025-11-01T00:00	5020	549	-10.0	-10.0	241	20	
2025-11-01T00:00	5040	547	-10.1	-10.1	241	20	
2025-11-01T00:00	5060	546	-10.2	-10.2	242	20	
2025-11-01T00:00	5080	544	-10.3	-10.3	243	20	
2025-11-01T00:00	5100	543	-10.5	-10.5	244	19	
2025-11-01T00:00	5120	541	-10.7	-11.0	245	19	
2025-11-01T00:00	5140	540	-9.6	-13.1	246	19	
2025-11-01T00:00	5160	539	-9.3	-13.7	246	19	
2025-11-01T00:00	5180	537	-9.4	-13.7	247	19	
2025-11-01T00:00	5200	536	-9.5	-13.6	247	18	
2025-11-01T00:00	5220	534	-9.7	-13.6	246	18	
2025-11-01T00:00	5240	533	-9.8	-13.7	246	18	
2025-11-01T00:00	5260	532	-10.0	-13.8	246	19	
2025-11-01T00:00	5280	530	-10.2	-13.8	246	19	
2025-11-01T00:00	5300	529	-10.4	-13.9	246	19	
2025-11-01T00:00	5320	528	-10.5	-14.0	246	19	
2025-11-01T00:00	5340	526	-10.6	-14.0	245	19	
2025-11-01T00:00	5360	525	-10.8	-14.0	245	19	
2025-11-01T00:00	5380	524	-10.8	-14.3	245	19	
2025-11-01T00:00	5400	522	-10.9	-14.6	245	19	
2025-11-01T00:00	5420	521	-11.1	-15.1	245	19	
2025-11-01T00:00	5440	520	-11.2	-15.2	245	18	
2025-11-01T00:00	5460	518	-11.4	-15.2	247	18	
2025-11-01T00:00	5480	517	-11.6	-15.3	248	18	
2025-11-01T00:00	5500	515	-11.7	-15.3	249	18	
2025-11-01T00:00	5520	514	-11.8	-15.4	249	18	
2025-11-01T00:00	5540	513	-12.0	-15.6	249	18	
2025-11-01T00:00	5560	511	-12.1	-15.7	248	18	
2025-11-01T00:00	5580	510	-12.1	-16.2	248	18	
2025-11-01T00:00	5600	509	-12.1	-16.7	247	18	
2025-11-01T00:00	5620	507	-12.2	-17.2	247	18	
2025-11-01T00:00	5640	506	-12.2	-17.7	248	18	
2025-11-01T00:00	5660	505	-12.2	-18.6	249	18	
2025-11-01T00:00	5680	503	-12.3	-19.6	250	18	
2025-11-01T00:00	5700	502	-12.4	-20.1	251	18	
2025-11-01T00:00	5720	501	-12.6	-20.1	251	19	
2025-11-01T00:00	5740	500	-12.8	-20.1	251	19	
2025-11-01T00:00	5760	498	-12.9	-20.1	250	19	
2025-11-01T00:00	5780	497	-13.1	-20.3	250	19	
2025-11-01T00:00	5800	496	-13.2	-20.5	248	19	
2025-11-01T00:00	5820	494	-13.3	-20.6	248	19	
2025-11-01T00:00	5840	493	-13.4	-20.5	247	19	
2025-11-01T00:00	5860	492	-13.6	-20.5	246	19	
2025-11-01T00:00	5880	490	-13.8	-20.6	246	20	
2025-11-01T00:00	5900	489	-14.0	-20.7	246	20	
2025-11-01T00:00	5920	488	-14.2	-20.7	247	20	
2025-11-01T00:00	5940	487	-14.4	-20.7	249	21	
2025-11-01T00:00	5960	485	-14.6	-20.7	250	21	
2025-11-01T00:00	5980	484	-14.8	-20.7	251	21	
2025-11-01T00:00	6000	483	-15.0	-20.8	252	21	
2025-11-01T00:00	6020	481	-15.1	-20.8	253	20	
2025-11-01T00:00	6040	480	-15.3	-20.9	253	20	
2025-11-01T00:00	6060	479	-15.5	-21.0	254	20	
2025-11-01T00:00	6080	478	-15.7	-21.2	253	19	
2025-11-01T00:00	6100	476	-15.8	-21.7	252	19	
2025-11-01T00:00	6120	475	-16.0	-22.5	251	19	
2025-11-01T00:00	6140	474	-16.1	-22.6	250	19	
2025-11-01T00:00	6160	473	-16.3	-23.0	250	20	
2025-11-01T00:00	6180	471	-16.4	-23.4	250	20	
2025-11-01T00:00	6200	470	-16.6	-23.9	250	20	
2025-11-01T00:00	6220	469	-16.7	-24.5	250	20	
2025-11-01T00:00	6240	467	-16.9	-25.0	250	20	
2025-11-01T00:00	6260	466	-17.1	-25.8	251	20	
2025-11-01T00:00	6280	465	-17.2	-27.0	251	19	
2025-11-01T00:00	6300	464	-17.3	-29.8	251	19	
2025-11-01T00:00	6320	463	-17.3	-30.2	252	19	
2025-11-01T00:00	6340	461	-17.3	-31.7	253	19	
2025-11-01T00:00	6360	460	-17.3	-33.4	254	19	
2025-11-01T00:00	6380	459	-17.5	-33.5	254	19	
2025-11-01T00:00	6400	458	-17.7	-33.4	255	19	
2025-11-01T00:00	6420	456	-17.8	-33.5	255	19	
2025-11-01T00:00	6440	455	-18.0	-33.8	255	19	
2025-11-01T00:00	6460	454	-18.1	-34.8	255	19	
2025-11-01T00:00	6480	453	-18.2	-35.3	255	20	
2025-11-01T00:00	6500	452	-18.4	-34.5	255	20	
2025-11-01T00:00	6520	450	-18.5	-36.0	256	20	
2025-11-01T00:00	6540	449	-18.6	-37.0	257	20	
2025-11-01T00:00	6560	448	-18.8	-36.6	258	20	
2025-11-01T00:00	6580	447	-18.9	-36.0	259	20	
2025-11-01T00:00	6600	446	-19.0	-35.3	260	20	
2025-11-01T00:00	6620	445	-19.1	-34.5	261	20	
2025-11-01T00:00	6640	443	-19.3	-34.2	262	20	
2025-11-01T00:00	6660	442	-19.5	-33.8	262	21	
2025-11-01T00:00	6680	441	-19.6	-32.9	263	21	
2025-11-01T00:00	6700	440	-19.8	-32.8	263	21	
2025-11-01T00:00	6720	438	-20.0	-32.3	263	22	
2025-11-01T00:00	6740	437	-20.2	-31.6	263	22	
2025-11-01T00:00	6760	436	-20.4	-31.3	263	23	
2025-11-01T00:00	6780	435	-20.6	-30.6	264	23	
2025-11-01T00:00	6800	434	-20.8	-29.5	264	23	
2025-11-01T00:00	6820	433	-21.0	-29.5	264	24	
2025-11-01T00:00	6840	431	-21.2	-29.4	264	24	
2025-11-01T00:00	6860	430	-21.4	-29.3	265	24	
2025-11-01T00:00	6880	429	-21.6	-29.3	265	24	
2025-11-01T00:00	6900	428	-21.8	-29.2	265	24	
2025-11-01T00:00	6920	427	-21.9	-28.9	265	24	
2025-11-01T00:00	6940	426	-22.2	-28.6	265	24	
2025-11-01T00:00	6960	424	-22.3	-28.1	265	24	
2025-11-01T00:00	6980	423	-22.5	-27.8	265	24	
2025-11-01T00:00	7000	422	-22.7	-28.0	264	25	
2025-11-01T00:00	7020	421	-22.8	-27.8	264	25	
2025-11-01T00:00	7040	420	-23.0	-27.3	263	26	
2025-11-01T00:00	7060	419	-23.2	-27.2	262	26	
2025-11-01T00:00	7080	418	-23.3	-26.8	261	26	
2025-11-01T00:00	7100	416	-23.4	-26.4	260	26	
2025-11-01T00:00	7120	415	-23.5	-25.8	260	26	
2025-11-01T00:00	7140	414	-23.7	-25.8	259	26	
2025-11-01T00:00	7160	413	-23.8	-25.9	258	26	
2025-11-01T00:00	7180	412	-23.9	-25.9	257	26	
2025-11-01T00:00	7200	411	-24.0	-25.9	257	26	
2025-11-01T00:00	7220	410	-24.2	-26.0	256	27	
2025-11-01T00:00	7240	408	-24.3	-26.2	256	27	
2025-11-01T00:00	7260	407	-24.4	-26.5	257	28	
2025-11-01T00:00	7280	406	-24.4	-26.9	257	28	
2025-11-01T00:00	7300	405	-24.6	-26.9	258	28	
2025-11-01T00:00	7320	404	-24.7	-27.0	258	28	
2025-11-01T00:00	7340	403	-24.9	-27.1	259	29	
2025-11-01T00:00	7360	402	-25.0	-27.2	260	29	
2025-11-01T00:00	7380	401	-25.2	-27.6	260	29	
2025-11-01T00:00	7400	400	-25.2	-28.0	260	29	
2025-11-01T00:00	7420	398	-25.4	-28.5	261	30	
2025-11-01T00:00	7440	397	-25.5	-29.5	261	30	
2025-11-01T00:00	7460	396	-25.5	-30.4	261	30	
2025-11-01T00:00	7480	395	-25.4	-33.1	261	31	
2025-11-01T00:00	7500	394	-25.4	-33.2	261	31	
2025-11-01T00:00	7520	393	-25.6	-32.9	261	31	
2025-11-01T00:00	7540	392	-25.7	-32.8	262	31	
2025-11-01T00:00	7560	391	-25.9	-32.9	262	31	
2025-11-01T00:00	7580	390	-26.2	-33.0	262	31	
2025-11-01T00:00	7600	389	-26.3	-33.0	262	31	
2025-11-01T00:00	7620	388	-26.5	-33.1	262	30	
2025-11-01T00:00	7640	387	-26.7	-33.1	262	30	
2025-11-01T00:00	7660	386	-26.9	-33.3	262	30	
2025-11-01T00:00	7680	384	-27.1	-33.5	262	30	
2025-11-01T00:00	7700	383	-27.2	-33.6	262	30	
2025-11-01T00:00	7720	382	-27.4	-33.7	262	30	
2025-11-01T00:00	7740	381	-27.6	-33.9	262	31	
2025-11-01T00:00	7760	380	-27.8	-34.2	262	31	
2025-11-01T00:00	7780	379	-28.0	-34.3	263	31	
2025-11-01T00:00	7800	378	-28.2	-34.3	263	31	
2025-11-01T00:00	7820	377	-28.4	-34.3	263	31	
2025-11-01T00:00	7840	376	-28.6	-34.3	263	31	
2025-11-01T00:00	7860	375	-28.8	-34.5	264	31	
2025-11-01T00:00	7880	374	-28.9	-35.3	264	30	
2025-11-01T00:00	7900	373	-29.1	-35.6	265	30	
2025-11-01T00:00	7920	372	-29.3	-35.8	266	30	
2025-11-01T00:00	7940	371	-29.5	-36.2	266	30	
2025-11-01T00:00	7960	370	-29.6	-36.8	267	29	
2025-11-01T00:00	7980	369	-29.8	-37.1	267	29	
2025-11-01T00:00	8000	368	-29.9	-37.2	267	29	
2025-11-01T00:00	8020	367	-30.1	-37.5	268	29	
2025-11-01T00:00	8040	366	-30.2	-37.7	268	30	
2025-11-01T00:00	8060	364	-30.4	-38.1	268	30	
2025-11-01T00:00	8080	363	-30.5	-38.8	268	30	
2025-11-01T00:00	8100	362	-30.6	-39.7	268	31	
2025-11-01T00:00	8120	361	-30.7	-40.4	268	31	
2025-11-01T00:00	8140	360	-30.9	-40.2	268	32	
2025-11-01T00:00	8160	359	-31.0	-40.5	268	32	
2025-11-01T00:00	8180	358	-31.1	-41.2	268	32	
2025-11-01T00:00	8200	357	-31.2	-41.1	268	32	
2025-11-01T00:00	8220	356	-31.3	-40.7	267	32	
2025-11-01T00:00	8240	355	-31.5	-41.4	267	32	
2025-11-01T00:00	8260	354	-31.6	-42.2	266	31	
2025-11-01T00:00	8280	353	-31.7	-42.9	266	31	
2025-11-01T00:00	8300	352	-31.9	-42.9	266	31	
2025-11-01T00:00	8320	351	-32.0	-43.1	266	31	
2025-11-01T00:00	8340	350	-32.2	-43.1	266	31	
2025-11-01T00:00	8360	349	-32.4	-43.2	266	31	
2025-11-01T00:00	8380	348	-32.6	-42.9	266	31	
2025-11-01T00:00	8400	347	-32.8	-43.1	266	31	
2025-11-01T00:00	8420	346	-33.0	-43.8	266	31	
2025-11-01T00:00	8440	345	-33.1	-43.9	266	31	
2025-11-01T00:00	8460	345	-33.3	-43.9	266	32	
2025-11-01T00:00	8480	344	-33.5	-43.7	266	32	
2025-11-01T00:00	8500	342	-33.7	-43.4	267	32	
2025-11-01T00:00	8520	341	-33.9	-43.2	267	32	
2025-11-01T00:00	8540	341	-34.1	-43.2	267	32	
2025-11-01T00:00	8560	340	-34.2	-43.4	267	32	
2025-11-01T00:00	8580	339	-34.4	-43.3	267	32	
2025-11-01T00:00	8600	338	-34.6	-43.0	266	32	
2025-11-01T00:00	8620	337	-34.8	-42.9	266	32	
2025-11-01T00:00	8640	336	-35.0	-42.8	266	32	
2025-11-01T00:00	8660	335	-35.2	-42.8	266	32	
2025-11-01T00:00	8680	334	-35.4	-42.8	267	32	
2025-11-01T00:00	8700	333	-35.5	-43.0	267	32	
2025-11-01T00:00	8720	332	-35.7	-43.3	267	32	
2025-11-01T00:00	8740	331	-35.9	-43.4	267	31	
2025-11-01T00:00	8760	330	-36.1	-43.3	267	31	
2025-11-01T00:00	8780	329	-36.3	-43.3	267	31	
2025-11-01T00:00	8800	328	-36.5	-43.9	267	31	
2025-11-01T00:00	8820	327	-36.7	-44.4	267	31	
2025-11-01T00:00	8840	326	-36.8	-44.3	267	31	
2025-11-01T00:00	8860	325	-37.0	-44.3	267	31	
2025-11-01T00:00	8880	324	-37.2	-44.7	267	30	
2025-11-01T00:00	8900	323	-37.3	-45.2	267	30	
2025-11-01T00:00	8920	322	-37.5	-45.0	267	30	
2025-11-01T00:00	8940	321	-37.7	-45.2	267	30	
2025-11-01T00:00	8960	321	-37.8	-45.7	267	30	
2025-11-01T00:00	8980	320	-37.9	-46.2	267	31	
2025-11-01T00:00	9000	319	-38.1	-46.3	267	31	
2025-11-01T00:00	9020	318	-38.3	-46.3	267	31	
2025-11-01T00:00	9040	317	-38.5	-46.2	267	31	
2025-11-01T00:00	9060	316	-38.6	-46.2	267	31	
2025-11-01T00:00	9080	315	-38.8	-46.2	267	31	
2025-11-01T00:00	9100	314	-39.0	-46.0	267	31	
2025-11-01T00:00	9120	313	-39.2	-46.1	267	31	
2025-11-01T00:00	9140	312	-39.4	-46.6	267	31	
2025-11-01T00:00	9160	311	-39.6	-46.6	267	31	
2025-11-01T00:00	9180	310	-39.8	-46.4	266	31	
2025-11-01T00:00	9200	310	-39.9	-46.4	266	31	
2025-11-01T00:00	9220	309	-40.1	-46.5	267	31	
2025-11-01T00:00	9240	308	-40.3	-46.8	267	31	
2025-11-01T00:00	9260	307	-40.5	-46.8	267	31	
2025-11-01T00:00	9280	306	-40.7	-46.7	267	31	
2025-11-01T00:00	9300	305	-40.9	-46.9	267	31	
2025-11-01T00:00	9320	304	-41.1	-46.9	267	31	
2025-11-01T00:00	9340	303	-41.2	-46.8	268	31	
2025-11-01T00:00	9360	302	-41.4	-46.9	268	31	
2025-11-01T00:00	9380	301	-41.6	-47.1	268	31	
2025-11-01T00:00	9400	301	-41.8	-47.7	268	31	
2025-11-01T00:00	9420	300	-41.9	-48.1	268	31	
2025-11-01T00:00	9440	299	-42.1	-48.0	268	31	
2025-11-01T00:00	9460	298	-42.3	-48.0	268	32	
2025-11-01T00:00	9480	297	-42.5	-47.8	268	31	
2025-11-01T00:00	9500	296	-42.7	-47.8	267	32	
2025-11-01T00:00	9520	295	-42.9	-48.1	267	32	
2025-11-01T00:00	9540	294	-43.0	-48.3	267	32	
2025-11-01T00:00	9560	294	-43.2	-48.4	266	32	
2025-11-01T00:00	9580	293	-43.4	-48.4	266	32	
2025-11-01T00:00	9600	292	-43.5	-48.3	266	32	
2025-11-01T00:00	9620	291	-43.7	-48.2	266	32	
2025-11-01T00:00	9640	290	-43.9	-48.3	266	32	
2025-11-01T00:00	9660	289	-44.1	-48.3	266	32	
2025-11-01T00:00	9680	288	-44.3	-48.3	267	32	
2025-11-01T00:00	9700	287	-44.5	-48.7	267	32	
2025-11-01T00:00	9720	287	-44.7	-49.0	267	32	
2025-11-01T00:00	9740	286	-44.9	-49.1	268	32	
2025-11-01T00:00	9760	285	-45.1	-49.5	268	31	
2025-11-01T00:00	9780	284	-45.2	-49.7	268	31	
2025-11-01T00:00	9800	283	-45.4	-49.8	268	31	
2025-11-01T00:00	9820	282	-45.6	-49.9	268	31	
2025-11-01T00:00	9840	281	-45.8	-49.9	268	31	
2025-11-01T00:00	9860	281	-45.9	-49.9	268	31	
2025-11-01T00:00	9880	280	-46.1	-50.2	268	31	
2025-11-01T00:00	9900	279	-46.3	-50.6	268	31	
2025-11-01T00:00	9920	278	-46.4	-51.0	268	31	
2025-11-01T00:00	9940	277	-46.6	-51.1	268	31	
2025-11-01T00:00	9960	276	-46.8	-51.2	268	31	
2025-11-01T00:00	9980	276	-46.9	-51.5	268	31	
2025-11-01T00:00	10000	275	-47.1	-51.5	268	31	
2025-11-01T00:00	10018	274	-47.3	-51.5	267	31	
2025-11-01T00:00	10050	273	-47.6	-51.6	267	32	
2025-11-01T00:00	10100	271	-48.0	-52.3	267	32	
2025-11-01T00:00	10150	269	-48.5	-52.3	267	33	
2025-11-01T00:00	10200	267	-48.9	-52.8	266	33	
2025-11-01T00:00	10250	265	-49.4	-53.3	265	33	
2025-11-01T00:00	10300	263	-49.8	-53.5	264	33	
2025-11-01T00:00	10350	261	-50.3	-53.8	265	33	
2025-11-01T00:00	10400	259	-50.7	-54.1	266	33	
2025-11-01T00:00	10450	257	-51.2	-54.8	266	33	
2025-11-01T00:00	10500	255	-51.6	-55.4	265	32	
2025-11-01T00:00	10550	253	-52.0	-55.9	265	33	
2025-11-01T00:00	10600	251	-52.5	-56.3	265	33	
2025-11-01T00:00	10650	249	-52.9	-56.7	265	33	
2025-11-01T00:00	10700	247	-53.4	-57.2	265	33	
2025-11-01T00:00	10750	245	-53.8	-57.6	265	32	
2025-11-01T00:00	10800	243	-54.3	-58.3	265	32	
2025-11-01T00:00	10850	241	-54.8	-58.6	265	32	
2025-11-01T00:00	10900	239	-55.2	-58.9	265	32	
2025-11-01T00:00	10950	237	-55.7	-59.1	265	32	
2025-11-01T00:00	11000	236	-56.2	-59.5	265	32	
2025-11-01T00:00	11050	234	-56.7	-60.1	265	32	
2025-11-01T00:00	11100	232	-57.1	-60.7	266	32	
2025-11-01T00:00	11150	230	-57.6	-61.2	266	32	
2025-11-01T00:00	11200	228	-58.1	-61.9	267	32	
2025-11-01T00:00	11250	226	-58.5	-62.6	268	32	
2025-11-01T00:00	11300	225	-58.9	-63.1	269	31	
2025-11-01T00:00	11350	223	-59.3	-63.5	270	31	
2025-11-01T00:00	11400	221	-59.6	-64.1	270	30	
2025-11-01T00:00	11450	219	-60.0	-64.8	269	30	
2025-11-01T00:00	11500	218	-60.4	-65.3	269	29	
2025-11-01T00:00	11550	216	-60.7	-65.5	271	29	
2025-11-01T00:00	11600	214	-60.9	-65.8	272	28	
2025-11-01T00:00	11650	212	-61.3	-66.4	273	29	
2025-11-01T00:00	11700	211	-61.7	-66.7	274	29	
2025-11-01T00:00	11750	209	-62.1	-67.2	276	30	
2025-11-01T00:00	11800	207	-62.5	-67.7	278	30	
2025-11-01T00:00	11850	206	-62.9	-68.0	278	31	
2025-11-01T00:00	11900	204	-63.1	-68.1	277	30	
2025-11-01T00:00	11950	202	-63.3	-68.4	276	29	
2025-11-01T00:00	12000	200	-63.6	-68.6	277	28	
2025-11-01T00:00	12050	199	-63.9	-69.0	277	27	
2025-11-01T00:00	12100	197	-64.2	-69.2	277	26	
2025-11-01T00:00	12150	196	-64.6	-69.4	275	26	
2025-11-01T00:00	12200	194	-64.9	-69.9	272	26	
2025-11-01T00:00	12250	193	-65.3	-70.4	269	26	
2025-11-01T00:00	12300	191	-65.5	-70.7	266	26	
2025-11-01T00:00	12350	189	-65.7	-70.8	265	26	
2025-11-01T00:00	12400	188	-65.9	-70.9	263	26	
2025-11-01T00:00	12450	186	-66.3	-70.8	263	26	
2025-11-01T00:00	12500	185	-66.5	-70.9	263	26	
2025-11-01T00:00	12550	183	-66.4	-71.1	265	26	
2025-11-01T00:00	12600	182	-66.2	-71.3	266	25	
2025-11-01T00:00	12650	180	-66.4	-71.8	266	24	
2025-11-01T00:00	12700	179	-66.3	-72.7	267	23	
2025-11-01T00:00	12750	177	-65.9	-73.3	267	22	
2025-11-01T00:00	12800	176	-65.7	-74.1	267	22	
2025-11-01T00:00	12850	174	-66.0	-74.8	267	22	
2025-11-01T00:00	12900	173	-66.2	-74.8	265	22	
2025-11-01T00:00	12950	172	-66.5	-75.0	263	23	
2025-11-01T00:00	13000	170	-66.7	-75.2	261	24	
2025-11-01T00:00	13050	169	-67.0	-75.2	260	25	
2025-11-01T00:00	13100	167	-67.2	-75.4	257	26	
2025-11-01T00:00	13150	166	-67.3	-75.3	255	26	
2025-11-01T00:00	13200	165	-67.6	-75.4	254	26	
2025-11-01T00:00	13250	163	-68.1	-75.6	254	27	
2025-11-01T00:00	13300	162	-68.5	-75.6	255	28	
2025-11-01T00:00	13350	161	-68.8	-75.7	256	29	
2025-11-01T00:00	13400	159	-68.8	-76.1	258	31	
2025-11-01T00:00	13450	158	-68.6	-76.4	260	31	
2025-11-01T00:00	13500	157	-68.6	-76.8	262	31	
2025-11-01T00:00	13550	155	-68.5	-77.3	264	31	
2025-11-01T00:00	13600	154	-68.2	-77.7	265	31	
2025-11-01T00:00	13650	153	-67.9	-78.4	266	31	
2025-11-01T00:00	13700	151	-67.6	-79.1	268	31	
2025-11-01T00:00	13750	150	-67.3	-79.6	269	30	
2025-11-01T00:00	13800	149	-66.9	-80.2	269	29	
2025-11-01T00:00	13850	148	-66.8	-80.9	269	27	
2025-11-01T00:00	13900	147	-66.9	-81.7	269	25	
2025-11-01T00:00	13950	145	-66.3	-81.7	268	23	
2025-11-01T00:00	14000	144	-66.3	-82.2	268	21	
2025-11-01T00:00	14050	143	-66.1	-82.4	268	21	
2025-11-01T00:00	14100	142	-66.0	-82.5	270	22	
2025-11-01T00:00	14150	141	-66.0	-82.6	272	23	
2025-11-01T00:00	14200	139	-66.1	-82.5	273	25	
2025-11-01T00:00	14250	138	-66.2	-82.7	274	25	
2025-11-01T00:00	14300	137	-66.2	-82.8	275	26	
2025-11-01T00:00	14350	136	-66.0	-82.9	276	25	
2025-11-01T00:00	14400	135	-65.9	-83.1	275	23	
2025-11-01T00:00	14450	134	-65.3	-83.1	273	22	
2025-11-01T00:00	14500	133	-64.9	-83.1	270	20	
2025-11-01T00:00	14550	132	-64.9	-83.3	267	19	
2025-11-01T00:00	14600	131	-65.1	-83.4	263	18	
2025-11-01T00:00	14650	130	-65.4	-83.4	260	17	
2025-11-01T00:00	14700	128	-65.8	-83.4	258	17	
2025-11-01T00:00	14750	127	-66.2	-83.4	257	17	
2025-11-01T00:00	14800	126	-66.7	-83.4	256	17	
2025-11-01T00:00	14850	125	-67.1	-83.4	254	18	
2025-11-01T00:00	14900	124	-67.5	-83.5	253	18	
2025-11-01T00:00	14950	123	-68.0	-83.8	250	19	
2025-11-01T00:00	15000	122	-67.8	-83.9	248	19	
2025-11-01T00:00	15050	121	-66.9	-83.7	248	20	
2025-11-01T00:00	15100	120	-66.6	-83.9	249	21	
2025-11-01T00:00	15150	119	-66.5	-84.1	249	23	
2025-11-01T00:00	15200	118	-66.1	-84.2	251	24	
2025-11-01T00:00	15250	117	-66.0	-84.3	254	24	
2025-11-01T00:00	15300	116	-65.7	-84.4	258	24	
2025-11-01T00:00	15350	115	-65.5	-84.5	262	25	
2025-11-01T00:00	15400	114	-64.9	-84.5	263	26	
2025-11-01T00:00	15450	113	-64.5	-84.5	265	25	
2025-11-01T00:00	15500	113	-64.4	-84.6	268	23	
2025-11-01T00:00	15550	112	-64.4	-84.7	270	21	
2025-11-01T00:00	15600	111	-64.1	-84.6	271	19	
2025-11-01T00:00	15650	110	-64.1	-84.7	271	18	
2025-11-01T00:00	15700	109	-63.9	-84.7	268	17	
2025-11-01T00:00	15750	108	-63.9	-84.7	264	17	
2025-11-01T00:00	15800	107	-64.1	-84.8	260	16	
2025-11-01T00:00	15850	106	-64.3	-84.8	259	17	
2025-11-01T00:00	15900	105	-64.2	-84.9	263	18	
2025-11-01T00:00	15950	105	-63.8	-84.8	268	19	
2025-11-01T00:00	16000	104	-63.7	-85.0	271	18	
2025-11-01T00:00	16050	103	-63.4	-84.9	271	17	
2025-11-01T00:00	16100	102	-63.4	-84.8	270	15	
2025-11-01T00:00	16150	101	-63.7	-84.8	268	14	
2025-11-01T00:00	16200	100	-64.2	-84.9	266	13	
2025-11-01T00:00	16250	100	-64.6	-85.0	265	13	
2025-11-01T00:00	16300	99	-64.6	-85.1	264	13	
2025-11-01T00:00	16350	98	-64.4	-85.2	262	13	
2025-11-01T00:00	16400	97	-64.2	-85.3	257	12	
2025-11-01T00:00	16450	96	-64.6	-85.5	253	11	
2025-11-01T00:00	16500	96	-64.9	-85.5	251	12	
2025-11-01T00:00	16550	95	-65.2	-85.7	250	13	
2025-11-01T00:00	16600	94	-65.1	-85.9	250	15	
2025-11-01T00:00	16650	93	-64.6	-85.8	252	16	
2025-11-01T00:00	16700	92	-64.5	-86.0	254	17	
2025-11-01T00:00	16750	92	-64.6	-86.1	253	17	
2025-11-01T00:00	16800	91	-64.8	-86.0	253	18	
2025-11-01T00:00	16850	90	-65.1	-86.1	254	19	
2025-11-01T00:00	16900	89	-65.3	-86.3	257	19	
2025-11-01T00:00	16950	89	-64.8	-86.5	260	18	
2025-11-01T00:00	17000	88	-63.6	-86.4	260	16	
2025-11-01T00:00	17050	87	-63.0	-86.2	258	15	
2025-11-01T00:00	17100	87	-62.8	-86.3	258	15	
2025-11-01T00:00	17150	86	-62.7	-86.2	261	15	
2025-11-01T00:00	17200	85	-62.9	-86.3	265	15	
2025-11-01T00:00	17250	85	-63.0	-86.2	268	15	
2025-11-01T00:00	17300	84	-63.3	-86.3	272	16	
2025-11-01T00:00	17350	83	-63.4	-86.4	274	17	
2025-11-01T00:00	17400	82	-63.5	-86.7	275	17	
2025-11-01T00:00	17450	82	-62.7	-86.3	274	16	
2025-11-01T00:00	17500	81	-62.8	-86.4	272	15	
2025-11-01T00:00	17550	80	-63.2	-86.4	270	14	
2025-11-01T00:00	17600	80	-63.5	-86.5	266	13	
2025-11-01T00:00	17650	79	-63.8	-86.6	264	14	
2025-11-01T00:00	17700	79	-64.1	-86.7	264	15	
2025-11-01T00:00	17750	78	-64.3	-86.9	264	15	
2025-11-01T00:00	17800	77	-64.3	-87.0	263	15	
2025-11-01T00:00	17850	77	-64.0	-86.9	262	14	
2025-11-01T00:00	17900	76	-63.8	-87.0	262	14	
2025-11-01T00:00	17950	75	-63.7	-87.0	263	14	
2025-11-01T00:00	18000	75	-63.8	-87.0	265	14	
2025-11-01T00:00	18050	74	-63.9	-87.1	264	14	
2025-11-01T00:00	18100	74	-64.0	-87.1	261	14	
2025-11-01T00:00	18150	73	-64.0	-87.2	256	15	
2025-11-01T00:00	18200	72	-63.8	-87.4	251	15	
2025-11-01T00:00	18250	72	-63.2	-87.3	244	14	
2025-11-01T00:00	18300	71	-62.8	-87.1	236	13	
2025-11-01T00:00	18350	71	-63.1	-87.2	232	13	
2025-11-01T00:00	18400	70	-63.2	-87.1	233	14	
2025-11-01T00:00	18450	70	-63.5	-87.2	238	14	
2025-11-01T00:00	18500	69	-63.8	-87.5	241	16	
2025-11-01T00:00	18550	68	-62.9	-87.1	242	17	
2025-11-01T00:00	18600	68	-63.0	-87.2	242	18	
2025-11-01T00:00	18650	67	-63.3	-87.2	244	19	
2025-11-01T00:00	18700	67	-63.7	-87.3	247	20	
2025-11-01T00:00	18750	66	-63.9	-87.5	250	21	
2025-11-01T00:00	18800	66	-63.6	-87.4	251	21	
2025-11-01T00:00	18850	65	-63.4	-87.4	251	20	
2025-11-01T00:00	18900	65	-63.5	-87.5	249	20	
2025-11-01T00:00	18950	64	-63.7	-87.5	247	20	
2025-11-01T00:00	19000	64	-64.1	-87.8	245	20	
2025-11-01T00:00	19050	63	-63.6	-87.7	246	20	
2025-11-01T00:00	19100	63	-63.2	-87.7	249	19	
2025-11-01T00:00	19150	62	-63.1	-87.9	254	19	
2025-11-01T00:00	19200	62	-62.3	-87.5	258	18	
2025-11-01T00:00	19250	61	-62.1	-87.4	263	18	
2025-11-01T00:00	19300	61	-62.2	-87.3	267	17	
2025-11-01T00:00	19350	60	-62.5	-87.4	271	16	
2025-11-01T00:00	19400	60	-62.4	-87.4	273	15	
2025-11-01T00:00	19450	59	-62.1	-87.3	272	13	
2025-11-01T00:00	19500	59	-62.1	-87.4	267	11	
2025-11-01T00:00	19550	58	-62.0	-87.3	259	11	
2025-11-01T00:00	19600	58	-62.1	-87.4	255	11	
2025-11-01T00:00	19650	57	-62.1	-87.3	255	10	
2025-11-01T00:00	19700	57	-62.3	-87.2	257	9	
2025-11-01T00:00	19750	56	-62.6	-87.3	261	8	
2025-11-01T00:00	19800	56	-62.9	-87.3	265	7	
2025-11-01T00:00	19850	55	-63.2	-87.4	267	7	
2025-11-01T00:00	19900	55	-63.4	-87.6	267	8	
2025-11-01T00:00	19950	54	-63.6	-87.7	266	9	
2025-11-01T00:00	20000	54	-63.7	-87.6	263	10	
2025-11-01T00:00	20050	54	-64.1		261	11	
2025-11-01T00:00	20100	53	-64.4		257	13	
2025-11-01T00:00	20150	53	-64.6		255	15	
2025-11-01T00:00	20200	52	-64.9		255	17	
2025-11-01T00:00	20250	52	-64.9		258	18	
2025-11-01T00:00	20300	51	-64.9		261	19	
2025-11-01T00:00	20350	51	-64.8		264	20	
2025-11-01T00:00	20400	51	-64.6		265	21	
2025-11-01T00:00	20450	50	-64.0		265	21	
2025-11-01T00:00	20500	50	-64.0		267	21	
2025-11-01T00:00	20550	49	-63.8		270	22	
2025-11-01T00:00	20600	49	-64.0		274	22	
2025-11-01T00:00	20650	49	-64.2		277	22	
2025-11-01T00:00	20700	48	-64.3		279	21	
2025-11-01T00:00	20750	48	-64.2		281	20	
2025-11-01T00:00	20800	47	-64.1		284	20	
2025-11-01T00:00	20850	47	-64.4		288	20	
2025-11-01T00:00	20900	47	-64.1		289	19	
2025-11-01T00:00	20950	46	-63.9		288	18	
2025-11-01T00:00	21000	46	-64.2		283	16	
2025-11-01T00:00	21050	45	-64.4		278	15	
2025-11-01T00:00	21100	45	-64.6		271	15	
2025-11-01T00:00	21150	45	-64.7		265	14	
2025-11-01T00:00	21200	44	-64.9		259	14	
2025-11-01T00:00	21250	44	-65.0		256	14	
2025-11-01T00:00	21300	44	-65.1		254	15	
2025-11-01T00:00	21350	43	-65.3		253	16	
2025-11-01T00:00	21400	43	-65.6		253	16	
2025-11-01T00:00	21450	43	-65.9		254	17	
2025-11-01T00:00	21500	42	-65.8		255	18	
2025-11-01T00:00	21550	42	-65.6		256	19	
2025-11-01T00:00	21600	42	-65.6		257	19	
2025-11-01T00:00	21650	41	-65.7		260	20	
2025-11-01T00:00	21700	41	-65.8		263	20	
2025-11-01T00:00	21750	41	-66.1		266	20	
2025-11-01T00:00	21800	40	-66.2		271	20	
2025-11-01T00:00	21850	40	-65.9		276	21	
2025-11-01T00:00	21900	40	-65.6		281	21	
2025-11-01T00:00	21950	39	-64.8		284	21	
2025-11-01T00:00	22000	39	-64.9		287	20	
2025-11-01T00:00	22050	39	-64.7		290	20	
2025-11-01T00:00	22100	38	-64.4		292	18	
2025-11-01T00:00	22150	38	-64.2		292	17	
2025-11-01T00:00	22200	38	-64.2		291	15	
2025-11-01T00:00	22250	37	-64.1		290	14	
2025-11-01T00:00	22300	37	-63.6		289	12	
2025-11-01T00:00	22350	37	-63.0		282	12	
2025-11-01T00:00	22400	36	-62.6		275	11	
2025-11-01T00:00	22450	36	-62.0		273	11	
2025-11-01T00:00	22500	36	-61.9		274	10	
2025-11-01T00:00	22550	36	-62.1		276	10	
2025-11-01T00:00	22600	35	-62.2		276	10	
2025-11-01T00:00	22650	35	-62.4		275	10	
2025-11-01T00:00	22700	35	-62.8		273	11	
2025-11-01T00:00	22750	34	-63.1		270	12	
2025-11-01T00:00	22800	34	-63.3		270	12	
2025-11-01T00:00	22850	34	-63.3		270	13	
2025-11-01T00:00	22900	34	-63.3		270	14	
2025-11-01T00:00	22950	33	-63.5		268	15	
2025-11-01T00:00	23000	33	-63.7		267	16	
2025-11-01T00:00	23050	33	-63.9		265	17	
2025-11-01T00:00	23100	33	-64.3		265	17	
2025-11-01T00:00	23150	32	-64.3		267	16	
2025-11-01T00:00	23200	32	-64.4		269	15	
2025-11-01T00:00	23250	32	-64.5		270	14	
2025-11-01T00:00	23300	31	-64.8		272	13	
2025-11-01T00:00	23350	31	-64.9		271	13	
2025-11-01T00:00	23400	31	-65.0		269	13	
2025-11-01T00:00	23450	31	-64.7		265	15	
2025-11-01T00:00	23500	30	-64.9		264	16	
2025-11-01T00:00	23550	30	-64.8		265	18	
2025-11-01T00:00	23600	30	-64.6		267	20	
2025-11-01T00:00	23650	30	-64.6		268	20	
2025-11-01T00:00	23700	29	-64.4		269	21	
2025-11-01T00:00	23750	29	-64.2		271	20	
2025-11-01T00:00	23800	29	-64.3		271	18	
2025-11-01T00:00	23850	29	-64.5		269	17	
2025-11-01T00:00	23900	29	-64.5		265	16	
2025-11-01T00:00	23950	28	-64.5		261	17	
2025-11-01T00:00	24000	28	-64.1		257	19	
2025-11-01T00:00	24050	28	-64.0		252	20	
2025-11-01T00:00	24100	28	-64.0		248	22	
2025-11-01T00:00	24150	27	-64.0		246	23	
2025-11-01T00:00	24200	27	-63.9		247	25	
2025-11-01T00:00	24250	27	-63.6		250	26	
2025-11-01T00:00	24300	27	-63.5		250	28	
2025-11-01T00:00	24350	27	-63.0		251	29	
2025-11-01T00:00	24400	26	-62.9		253	30	
2025-11-01T00:00	24450	26	-62.7		255	31	
2025-11-01T00:00	24500	26	-62.6		257	32	
2025-11-01T00:00	24550	26	-62.6		258	33	
2025-11-01T00:00	24600	25	-62.9		259	33	
2025-11-01T00:00	24650	25	-63.0		260	33	
2025-11-01T00:00	24700	25	-63.1		262	33	
2025-11-01T00:00	24750	25	-63.2		264	33	
2025-11-01T00:00	24800	25	-63.4		266	32	
2025-11-01T00:00	24850	24	-63.6		268	32	
2025-11-01T00:00	24900	24	-63.8		269	32	
2025-11-01T00:00	24950	24	-63.9		270	31	
2025-11-01T00:00	25000	24	-63.8		270	30	
2025-11-01T00:00	25050	24	-63.9		272	29	
2025-11-01T00:00	25100	23	-64.2		274	28	
2025-11-01T00:00	25150	23	-64.4		276	27	
2025-11-01T00:00	25200	23	-64.2		278	27	
2025-11-01T00:00	25250	23	-63.7		279	26	
2025-11-01T00:00	25300	23	-63.8		278	26	
2025-11-01T00:00	25350	23	-63.6		277	26	
2025-11-01T00:00	25400	22	-63.6		276	26	
2025-11-01T00:00	25450	22	-63.8		276	27	
2025-11-01T00:00	25500	22	-64.0		276	28	
2025-11-01T00:00	25550	22	-64.2		277	29	
2025-11-01T00:00	25600	22	-64.4		278	31	
2025-11-01T00:00	25650	21	-64.4		278	32	
2025-11-01T00:00	25700	21	-64.4		278	32	
2025-11-01T00:00	25750	21	-64.7		278	32	
2025-11-01T00:00	25800	21	-64.5		279	32	
2025-11-01T00:00	25850	21	-64.4		280	32	
2025-11-01T00:00	25900	21	-64.8		280	31	
2025-11-01T00:00	25950	20	-65.1		281	30	
2025-11-01T00:00	26000	20	-65.2		282	30	
2025-11-01T00:00	26050	20	-65.2		283	29	
2025-11-01T00:00	26100	20	-65.4		283	29	
2025-11-01T00:00	26150	20	-65.1		283	29	
2025-11-01T00:00	26200	20	-65.1		282	30	
2025-11-01T00:00	26250	19	-64.9		282	30	
2025-11-01T00:00	26300	19	-64.6		282	30	
2025-11-01T00:00	26350	19	-64.3		282	30	
2025-11-01T00:00	26400	19	-64.2		281	30	
2025-11-01T00:00	26450	19	-64.3		279	29	
2025-11-01T00:00	26500	19	-64.2		276	29	
2025-11-01T00:00	26550	19	-64.1		274	29	
2025-11-01T00:00	26600	18	-64.0		273	30	
2025-11-01T00:00	26650	18	-63.8		272	31	
2025-11-01T00:00	26700	18	-63.8		270	32	
2025-11-01T00:00	26750	18	-64.1		268	33	
2025-11-01T00:00	26800	18	-63.9		267	33	
2025-11-01T00:00	26850	18	-63.7		267	34	
2025-11-01T00:00	26900	17	-64.1		267	34	
2025-11-01T00:00	26950	17	-64.4		268	34	
2025-11-01T00:00	27000	17	-64.5		268	34	
2025-11-01T00:00	27050	17	-64.7		268	34	
2025-11-01T00:00	27100	17	-64.6		269	34	
2025-11-01T00:00	27150	17	-64.6		270	35	
2025-11-01T00:00	27200	17	-64.8		272	35	
2025-11-01T00:00	27250	17	-64.9		273	34	
2025-11-01T00:00	27300	16	-64.8		273	33	
2025-11-01T00:00	27350	16	-64.9		273	33	
2025-11-01T00:00	27400	16	-64.9		274	32	
2025-11-01T00:00	27450	16	-64.6		274	31	
2025-11-01T00:00	27500	16	-64.4		274	30	
2025-11-01T00:00	27550	16	-64.1		272	28	
2025-11-01T00:00	27600	16	-63.9		270	28	
2025-11-01T00:00	27650	15	-63.2		268	28	
2025-11-01T00:00	27700	15	-63.3		268	29	
2025-11-01T00:00	27750	15	-62.9		268	29	
2025-11-01T00:00	27800	15	-62.5		267	29	
2025-11-01T00:00	27850	15	-62.5		265	28	
2025-11-01T00:00	27900	15	-62.7		265	27	
2025-11-01T00:00	27950	15	-63.1		264	27	
2025-11-01T00:00	28000	15	-63.2		264	26	
2025-11-01T00:00	28050	14	-63.4		263	26	
2025-11-01T00:00	28100	14	-63.7		263	27	
2025-11-01T00:00	28150	14	-63.7		263	28	
2025-11-01T00:00	28200	14	-63.5		263	28	
2025-11-01T12:00	491	958	11.7	9.9	286	0	
2025-11-01T12:00	520	955	11.5	10.5	263	0	
2025-11-01T12:00	540	953	11.4	10.4	258	0	
2025-11-01T12:00	560	951	11.1	10.1	256	0	
2025-11-01T12:00	580	948	11.0	9.9	250	1	
2025-11-01T12:00	600	946	11.6	8.4	241	1	
2025-11-01T12:00	620	944	11.8	8.2	231	1	
2025-11-01T12:00	640	942	11.8	8.5	222	1	
2025-11-01T12:00	660	939	11.8	8.5	216	2	
2025-11-01T12:00	680	937	11.7	8.4	213	2	
2025-11-01T12:00	700	935	12.0	8.2	211	3	
2025-11-01T12:00	720	933	12.1	8.2	210	4	
2025-11-01T12:00	740	930	12.1	8.0	211	5	
2025-11-01T12:00	760	928	12.6	7.7	212	6	
2025-11-01T12:00	780	926	12.6	7.7	213	6	
2025-11-01T12:00	800	924	12.7	7.5	215	7	
2025-11-01T12:00	820	922	12.7	7.4	217	7	
2025-11-01T12:00	840	920	12.6	7.4	218	8	
2025-11-01T12:00	860	917	12.8	7.2	220	9	
2025-11-01T12:00	880	915	13.0	7.0	221	9	
2025-11-01T12:00	900	913	12.9	6.8	223	9	
2025-11-01T12:00	920	911	12.7	6.9	224	9	
2025-11-01T12:00	940	908	12.4	6.8	226	10	
2025-11-01T12:00	960	906	12.3	6.8	227	10	
2025-11-01T12:00	980	904	12.1	6.8	228	10	
2025-11-01T12:00	1000	902	12.0	6.6	229	11	
2025-11-01T12:00	1020	900	11.8	6.6	230	12	
2025-11-01T12:00	1040	898	11.8	6.2	230	12	
2025-11-01T12:00	1060	896	11.8	6.0	230	13	
2025-11-01T12:00	1080	893	11.8	5.9	229	14	
2025-11-01T12:00	1100	892	11.7	5.8	228	14	
2025-11-01T12:00	1120	889	11.8	5.5	227	15	
2025-11-01T12:00	1140	887	12.0	5.2	226	15	
2025-11-01T12:00	1160	885	11.8	5.2	226	16	
2025-11-01T12:00	1180	883	11.8	5.1	225	16	
2025-11-01T12:00	1200	881	12.0	4.9	224	17	
2025-11-01T12:00	1220	879	12.0	4.9	224	17	
2025-11-01T12:00	1240	876	11.8	5.0	224	17	
2025-11-01T12:00	1260	874	11.7	5.1	224	17	
2025-11-01T12:00	1280	872	11.5	5.1	224	18	
2025-11-01T12:00	1300	870	11.3	5.3	224	18	
2025-11-01T12:00	1320	868	11.2	5.2	224	18	
2025-11-01T12:00	1340	866	11.0	5.2	223	18	
2025-11-01T12:00	1360	864	10.9	5.1	222	18	
2025-11-01T12:00	1380	862	10.8	5.0	221	18	
2025-11-01T12:00	1400	860	10.7	5.0	220	18	
2025-11-01T12:00	1420	858	10.6	5.0	219	18	
2025-11-01T12:00	1440	856	10.5	4.9	219	18	
2025-11-01T12:00	1460	854	10.5	4.8	218	18	
2025-11-01T12:00	1480	852	10.5	4.7	219	18	
2025-11-01T12:00	1500	850	10.4	4.8	219	18	
2025-11-01T12:00	1520	848	10.2	4.8	220	19	
2025-11-01T12:00	1540	846	10.1	4.8	221	19	
2025-11-01T12:00	1560	844	9.9	4.8	221	19	
2025-11-01T12:00	1580	842	9.7	4.8	222	20	
2025-11-01T12:00	1600	839	9.6	4.7	223	20	
2025-11-01T12:00	1620	837	9.4	4.7	223	20	
2025-11-01T12:00	1640	835	9.3	4.7	223	20	
2025-11-01T12:00	1660	833	9.1	4.7	223	20	
2025-11-01T12:00	1680	831	8.9	4.7	223	21	
2025-11-01T12:00	1700	830	8.7	4.8	223	21	
2025-11-01T12:00	1720	828	8.5	5.0	223	21	
2025-11-01T12:00	1740	825	8.4	5.1	222	21	
2025-11-01T12:00	1760	823	8.3	4.9	222	21	
2025-11-01T12:00	1780	821	8.2	4.8	222	21	
2025-11-01T12:00	1800	819	8.1	4.8	222	21	
2025-11-01T12:00	1820	818	7.9	4.8	222	21	
2025-11-01T12:00	1840	816	7.8	4.8	222	21	
2025-11-01T12:00	1860	814	7.6	4.9	222	21	
2025-11-01T12:00	1880	812	7.5	4.9	223	22	
2025-11-01T12:00	1900	810	7.4	4.9	224	22	
2025-11-01T12:00	1920	808	7.4	4.7	225	22	
2025-11-01T12:00	1940	806	7.3	4.5	226	22	
2025-11-01T12:00	1960	804	7.5	4.6	226	23	
2025-11-01T12:00	1980	802	7.6	4.7	227	23	
2025-11-01T12:00	2000	800	7.4	4.7	228	23	
2025-11-01T12:00	2020	798	7.2	4.6	228	23	
2025-11-01T12:00	2040	796	7.0	4.6	229	23	
2025-11-01T12:00	2060	794	6.8	4.7	229	23	
2025-11-01T12:00	2080	792	6.6	4.6	229	23	
2025-11-01T12:00	2100	790	6.5	4.6	229	23	
2025-11-01T12:00	2120	788	6.3	4.6	230	22	
2025-11-01T12:00	2140	786	6.1	4.6	230	22	
2025-11-01T12:00	2160	784	5.9	4.5	230	21	
2025-11-01T12:00	2180	783	5.8	4.5	231	21	
2025-11-01T12:00	2200	780	5.7	4.5	231	21	
2025-11-01T12:00	2220	779	5.8	4.3	231	20	
2025-11-01T12:00	2240	777	5.8	4.3	232	20	
2025-11-01T12:00	2260	775	5.8	3.7	231	19	
2025-11-01T12:00	2280	773	5.7	3.4	231	19	
2025-11-01T12:00	2300	771	5.6	2.8	231	19	
2025-11-01T12:00	2320	769	5.7	2.4	231	19	
2025-11-01T12:00	2340	768	5.7	2.4	231	19	
2025-11-01T12:00	2360	766	5.6	2.3	231	19	
2025-11-01T12:00	2380	764	5.6	2.2	231	19	
2025-11-01T12:00	2400	762	5.4	2.2	232	18	
2025-11-01T12:00	2420	760	5.3	2.2	232	18	
2025-11-01T12:00	2440	758	5.1	2.0	233	19	
2025-11-01T12:00	2460	756	4.9	2.0	233	19	
2025-11-01T12:00	2480	754	4.8	2.0	234	19	
2025-11-01T12:00	2500	753	4.6	2.0	234	19	
2025-11-01T12:00	2520	751	4.5	2.0	235	19	
2025-11-01T12:00	2540	749	4.3	1.9	235	19	
2025-11-01T12:00	2560	747	4.1	1.9	235	19	
2025-11-01T12:00	2580	745	4.0	1.9	235	19	
2025-11-01T12:00	2600	743	3.9	1.9	235	19	
2025-11-01T12:00	2620	742	3.7	1.8	235	19	
2025-11-01T12:00	2640	740	3.6	1.8	235	19	
2025-11-01T12:00	2660	738	3.6	1.9	236	19	
2025-11-01T12:00	2680	736	3.6	1.9	237	19	
2025-11-01T12:00	2700	735	3.5	1.9	238	19	
2025-11-01T12:00	2720	733	3.4	1.9	239	20	
2025-11-01T12:00	2740	731	3.3	1.8	240	20	
2025-11-01T12:00	2760	729	3.1	1.7	240	20	
2025-11-01T12:00	2780	727	3.0	1.5	241	20	
2025-11-01T12:00	2800	725	3.0	1.4	242	20	
2025-11-01T12:00	2820	724	2.9	1.2	242	20	
2025-11-01T12:00	2840	722	2.7	1.1	243	20	
2025-11-01T12:00	2860	720	2.6	1.0	244	20	
2025-11-01T12:00	2880	718	2.4	0.9	244	20	
2025-11-01T12:00	2900	716	2.3	0.8	245	20	
2025-11-01T12:00	2920	714	2.2	0.7	246	20	
2025-11-01T12:00	2940	713	2.1	0.7	246	21	
2025-11-01T12:00	2960	711	2.0	0.5	247	21	
2025-11-01T12:00	2980	709	1.9	0.4	247	21	
2025-11-01T12:00	3000	707	1.8	0.4	247	22	
2025-11-01T12:00	3020	706	1.7	0.4	247	22	
2025-11-01T12:00	3040	704	1.6	0.4	247	22	
2025-11-01T12:00	3060	702	1.5	0.4	247	22	
2025-11-01T12:00	3080	700	1.4	0.2	247	22	
2025-11-01T12:00	3100	699	1.4	-0.1	247	23	
2025-11-01T12:00	3120	697	1.4	-0.2	247	23	
2025-11-01T12:00	3140	695	1.3	-0.2	246	23	
2025-11-01T12:00	3160	694	1.2	-0.3	246	23	
2025-11-01T12:00	3180	692	1.0	-0.3	246	23	
2025-11-01T12:00	3200	690	0.9	-0.4	246	23	
2025-11-01T12:00	3220	688	0.8	-0.5	245	22	
2025-11-01T12:00	3240	687	0.7	-0.6	245	22	
2025-11-01T12:00	3260	685	0.6	-0.8	244	22	
2025-11-01T12:00	3280	684	0.5	-0.9	244	21	
2025-11-01T12:00	3300	682	0.3	-0.9	244	21	
2025-11-01T12:00	3320	680	0.2	-1.0	243	21	
2025-11-01T12:00	3340	678	0.0	-1.1	242	21	
2025-11-01T12:00	3360	677	-0.1	-1.3	241	20	
2025-11-01T12:00	3380	675	-0.2	-1.4	241	20	
2025-11-01T12:00	3400	673	-0.2	-1.5	240	20	
2025-11-01T12:00	3420	672	-0.3	-1.6	239	20	
2025-11-01T12:00	3440	670	-0.4	-1.6	237	20	
2025-11-01T12:00	3460	668	-0.5	-1.8	237	20	
2025-11-01T12:00	3480	667	-0.6	-1.8	236	20	
2025-11-01T12:00	3500	665	-0.8	-1.8	235	19	
2025-11-01T12:00	3520	663	-0.9	-1.7	235	19	
2025-11-01T12:00	3540	662	-0.9	-1.9	235	19	
2025-11-01T12:00	3560	660	-0.9	-2.2	235	19	
2025-11-01T12:00	3580	658	-0.9	-2.3	235	19	
2025-11-01T12:00	3600	657	-1.0	-2.4	235	19	
2025-11-01T12:00	3620	655	-1.2	-2.4	235	19	
2025-11-01T12:00	3640	653	-1.4	-2.5	236	19	
2025-11-01T12:00	3660	652	-1.5	-2.6	236	19	
2025-11-01T12:00	3680	650	-1.5	-2.6	236	19	
2025-11-01T12:00	3700	648	-1.6	-2.6	237	19	
2025-11-01T12:00	3720	647	-1.8	-2.6	237	19	
2025-11-01T12:00	3740	645	-2.0	-2.7	237	19	
2025-11-01T12:00	3760	644	-2.1	-2.7	237	20	
2025-11-01T12:00	3780	642	-2.3	-2.8	237	20	
2025-11-01T12:00	3800	640	-2.5	-2.9	237	20	
2025-11-01T12:00	3820	639	-2.6	-3.0	237	20	
2025-11-01T12:00	3840	637	-2.7	-3.1	237	20	
2025-11-01T12:00	3860	636	-2.8	-3.2	237	20	
2025-11-01T12:00	3880	634	-2.9	-3.4	237	20	
2025-11-01T12:00	3900	632	-3.0	-3.5	237	20	
2025-11-01T12:00	3920	631	-3.1	-3.7	236	20	
2025-11-01T12:00	3940	629	-3.2	-3.8	236	20	
2025-11-01T12:00	3960	627	-3.3	-3.9	236	20	
2025-11-01T12:00	3980	626	-3.4	-4.1	236	20	
2025-11-01T12:00	4000	624	-3.5	-4.2	236	20	
2025-11-01T12:00	4020	623	-3.6	-4.3	236	20	
2025-11-01T12:00	4040	621	-3.7	-4.4	236	20	
2025-11-01T12:00	4060	620	-3.8	-4.5	236	20	
2025-11-01T12:00	4080	618	-3.8	-4.7	236	20	
2025-11-01T12:00	4100	617	-4.0	-4.6	236	20	
2025-11-01T12:00	4120	615	-4.3	-4.6	236	21	
2025-11-01T12:00	4140	613	-4.5	-4.7	237	21	
2025-11-01T12:00	4160	612	-4.6	-4.8	237	21	
2025-11-01T12:00	4180	610	-4.8	-4.9	237	21	
2025-11-01T12:00	4200	609	-4.9	-5.0	238	21	
2025-11-01T12:00	4220	607	-5.1	-5.1	238	21	
2025-11-01T12:00	4240	606	-5.2	-5.2	238	20	
2025-11-01T12:00	4260	604	-5.3	-5.4	239	20	
2025-11-01T12:00	4280	603	-5.3	-5.7	239	20	
2025-11-01T12:00	4300	601	-5.3	-5.9	240	20	
2025-11-01T12:00	4320	600	-5.2	-6.4	240	21	
2025-11-01T12:00	4340	598	-5.2	-6.6	241	21	
2025-11-01T12:00	4360	597	-5.4	-6.6	241	21	
2025-11-01T12:00	4380	595	-5.5	-6.8	241	21	
2025-11-01T12:00	4400	593	-5.6	-7.0	242	22	
2025-11-01T12:00	4420	592	-5.7	-7.2	242	22	
2025-11-01T12:00	4440	591	-5.8	-7.3	242	22	
2025-11-01T12:00	4460	589	-6.0	-7.4	242	22	
2025-11-01T12:00	4480	588	-6.1	-7.7	242	23	
2025-11-01T12:00	4500	586	-6.2	-7.8	243	23	
2025-11-01T12:00	4520	584	-6.3	-7.9	243	23	
2025-11-01T12:00	4540	583	-6.5	-8.0	243	23	
2025-11-01T12:00	4560	582	-6.6	-8.1	243	23	
2025-11-01T12:00	4580	580	-6.8	-8.2	243	23	
2025-11-01T12:00	4600	579	-7.0	-8.2	244	23	
2025-11-01T12:00	4620	577	-7.2	-8.3	244	24	
2025-11-01T12:00	4640	576	-7.3	-8.5	244	24	
2025-11-01T12:00	4660	574	-7.4	-8.6	245	24	
2025-11-01T12:00	4680	573	-7.5	-8.8	245	24	
2025-11-01T12:00	4700	571	-7.6	-9.0	246	25	
2025-11-01T12:00	4720	570	-7.7	-9.2	246	25	
2025-11-01T12:00	4740	568	-7.8	-9.2	246	25	
2025-11-01T12:00	4760	567	-7.9	-9.6	245	25	
2025-11-01T12:00	4780	566	-8.1	-9.8	245	25	
2025-11-01T12:00	4800	564	-8.2	-9.8	244	25	
2025-11-01T12:00	4820	563	-8.4	-9.8	244	26	
2025-11-01T12:00	4840	561	-8.6	-10.0	244	26	
2025-11-01T12:00	4860	560	-8.7	-10.1	244	26	
2025-11-01T12:00	4880	558	-8.8	-10.2	244	27	
2025-11-01T12:00	4900	557	-9.0	-10.4	244	27	
2025-11-01T12:00	4920	555	-9.1	-10.8	244	28	
2025-11-01T12:00	4940	554	-9.1	-11.0	245	28	
2025-11-01T12:00	4960	552	-9.2	-11.1	245	28	
2025-11-01T12:00	4980	551	-9.3	-11.4	245	28	
2025-11-01T12:00	5000	550	-9.4	-11.6	245	28	
2025-11-01T12:00	5020	548	-9.5	-11.7	245	28	
2025-11-01T12:00	5040	547	-9.7	-11.7	245	28	
2025-11-01T12:00	5060	545	-9.8	-11.9	246	28	
2025-11-01T12:00	5080	544	-9.9	-12.0	246	27	
2025-11-01T12:00	5100	543	-10.0	-12.1	247	27	
2025-11-01T12:00	5120	541	-10.2	-12.2	248	27	
2025-11-01T12:00	5140	540	-10.3	-12.3	248	27	
2025-11-01T12:00	5160	538	-10.3	-12.7	249	26	
2025-11-01T12:00	5180	537	-10.4	-12.8	249	26	
2025-11-01T12:00	5200	535	-10.5	-13.1	250	26	
2025-11-01T12:00	5220	534	-10.5	-13.6	250	26	
2025-11-01T12:00	5240	533	-10.6	-13.7	250	26	
2025-11-01T12:00	5260	531	-10.7	-13.6	250	26	
2025-11-01T12:00	5280	530	-10.8	-13.4	250	25	
2025-11-01T12:00	5300	529	-10.9	-13.2	250	25	
2025-11-01T12:00	5320	527	-11.0	-13.1	250	25	
2025-11-01T12:00	5340	526	-11.2	-13.1	250	25	
2025-11-01T12:00	5360	524	-11.4	-13.0	250	25	
2025-11-01T12:00	5380	523	-11.5	-13.1	250	25	
2025-11-01T12:00	5400	522	-11.7	-13.0	251	25	
2025-11-01T12:00	5420	520	-11.9	-12.9	251	25	
2025-11-01T12:00	5440	519	-12.1	-13.0	252	25	
2025-11-01T12:00	5460	518	-12.2	-13.1	252	25	
2025-11-01T12:00	5480	516	-12.3	-13.2	252	25	
2025-11-01T12:00	5500	515	-12.5	-13.2	252	24	
2025-11-01T12:00	5520	514	-12.6	-13.3	252	24	
2025-11-01T12:00	5540	512	-12.7	-13.5	251	24	
2025-11-01T12:00	5560	511	-12.9	-13.7	251	24	
2025-11-01T12:00	5580	510	-13.0	-13.8	251	24	
2025-11-01T12:00	5600	508	-13.1	-14.0	251	24	
2025-11-01T12:00	5620	507	-13.3	-14.0	252	24	
2025-11-01T12:00	5640	506	-13.5	-14.1	252	24	
2025-11-01T12:00	5660	504	-13.6	-14.2	253	23	
2025-11-01T12:00	5680	503	-13.8	-14.4	253	23	
2025-11-01T12:00	5700	502	-14.0	-14.3	254	23	
2025-11-01T12:00	5720	500	-14.2	-14.5	255	22	
2025-11-01T12:00	5740	499	-14.4	-14.5	256	22	
2025-11-01T12:00	5760	498	-14.5	-14.6	256	22	
2025-11-01T12:00	5780	496	-14.6	-14.6	257	22	
2025-11-01T12:00	5800	495	-14.8	-14.8	257	22	
2025-11-01T12:00	5820	494	-14.9	-14.9	257	23	
2025-11-01T12:00	5840	492	-15.1	-15.1	257	23	
2025-11-01T12:00	5860	491	-15.3	-15.3	256	23	
2025-11-01T12:00	5880	490	-15.4	-15.4	256	23	
2025-11-01T12:00	5900	488	-15.5	-15.5	256	23	
2025-11-01T12:00	5920	487	-15.7	-15.7	255	22	
2025-11-01T12:00	5940	486	-15.9	-15.9	254	22	
2025-11-01T12:00	5960	485	-16.1	-16.1	253	22	
2025-11-01T12:00	5980	483	-16.1	-16.1	253	21	
2025-11-01T12:00	6000	482	-16.3	-16.3	251	21	
2025-11-01T12:00	6020	481	-16.3	-16.3	249	21	
2025-11-01T12:00	6040	480	-16.3	-16.3	248	21	
2025-11-01T12:00	6060	478	-16.3	-16.3	247	22	
2025-11-01T12:00	6080	477	-16.4	-16.5	247	22	
2025-11-01T12:00	6100	476	-16.6	-16.8	246	22	
2025-11-01T12:00	6120	474	-16.7	-16.8	246	23	
2025-11-01T12:00	6140	473	-16.9	-17.0	246	23	
2025-11-01T12:00	6160	472	-17.0	-17.2	246	23	
2025-11-01T12:00	6180	471	-17.0	-17.4	245	24	
2025-11-01T12:00	6200	469	-17.1	-17.5	245	24	
2025-11-01T12:00	6220	468	-17.3	-17.6	245	24	
2025-11-01T12:00	6240	467	-17.5	-17.8	244	24	
2025-11-01T12:00	6260	466	-17.6	-18.0	244	24	
2025-11-01T12:00	6280	464	-17.7	-18.3	243	24	
2025-11-01T12:00	6300	463	-17.7	-18.8	242	24	
2025-11-01T12:00	6320	462	-17.5	-19.2	241	24	
2025-11-01T12:00	6340	461	-17.4	-19.5	241	23	
2025-11-01T12:00	6360	460	-17.5	-19.5	240	23	
2025-11-01T12:00	6380	458	-17.6	-19.6	240	23	
2025-11-01T12:00	6400	457	-17.8	-19.4	240	23	
2025-11-01T12:00	6420	456	-17.9	-19.4	239	23	
2025-11-01T12:00	6440	455	-18.0	-19.3	239	24	
2025-11-01T12:00	6460	453	-18.2	-19.3	239	24	
2025-11-01T12:00	6480	452	-18.3	-19.6	238	24	
2025-11-01T12:00	6500	451	-18.5	-19.8	238	24	
2025-11-01T12:00	6520	450	-18.6	-20.0	237	24	
2025-11-01T12:00	6540	449	-18.7	-20.0	237	23	
2025-11-01T12:00	6560	447	-18.9	-20.1	237	23	
2025-11-01T12:00	6580	446	-19.0	-20.3	238	23	
2025-11-01T12:00	6600	445	-19.1	-20.8	238	23	
2025-11-01T12:00	6620	444	-19.3	-21.0	238	23	
2025-11-01T12:00	6640	443	-19.4	-21.1	238	23	
2025-11-01T12:00	6660	441	-19.6	-21.1	238	23	
2025-11-01T12:00	6680	440	-19.7	-21.2	238	23	
2025-11-01T12:00	6700	439	-19.9	-21.2	239	23	
2025-11-01T12:00	6720	438	-20.0	-21.6	239	23	
2025-11-01T12:00	6740	437	-20.1	-21.8	239	23	
2025-11-01T12:00	6760	436	-20.2	-22.0	240	23	
2025-11-01T12:00	6780	434	-20.4	-22.4	241	23	
2025-11-01T12:00	6800	433	-20.4	-22.6	242	24	
2025-11-01T12:00	6820	432	-20.5	-22.9	242	24	
2025-11-01T12:00	6840	431	-20.7	-23.0	242	24	
2025-11-01T12:00	6860	430	-20.8	-23.2	243	24	
2025-11-01T12:00	6880	428	-20.9	-23.4	243	24	
2025-11-01T12:00	6900	427	-21.0	-23.6	243	24	
2025-11-01T12:00	6920	426	-21.1	-23.8	243	24	
2025-11-01T12:00	6940	425	-21.2	-24.1	243	24	
2025-11-01T12:00	6960	424	-21.2	-24.8	243	24	
2025-11-01T12:00	6980	423	-21.1	-25.3	243	23	
2025-11-01T12:00	7000	422	-21.1	-25.4	243	23	
2025-11-01T12:00	7020	420	-21.2	-25.4	243	23	
2025-11-01T12:00	7040	419	-21.3	-25.9	243	23	
2025-11-01T12:00	7060	418	-21.4	-26.2	243	23	
2025-11-01T12:00	7080	417	-21.5	-26.4	244	23	
2025-11-01T12:00	7100	416	-21.6	-26.7	244	23	
2025-11-01T12:00	7120	415	-21.7	-27.0	244	23	
2025-11-01T12:00	7140	414	-21.8	-27.2	244	23	
2025-11-01T12:00	7160	413	-22.0	-27.3	245	22	
2025-11-01T12:00	7180	411	-22.2	-27.3	245	22	
2025-11-01T12:00	7200	410	-22.3	-27.3	245	22	
2025-11-01T12:00	7220	409	-22.5	-27.4	246	22	
2025-11-01T12:00	7240	408	-22.6	-27.7	246	22	
2025-11-01T12:00	7260	407	-22.8	-28.2	246	22	
2025-11-01T12:00	7280	406	-22.9	-28.3	245	22	
2025-11-01T12:00	7300	405	-23.1	-28.1	245	22	
2025-11-01T12:00	7320	404	-23.3	-28.0	244	22	
2025-11-01T12:00	7340	403	-23.4	-28.3	244	21	
2025-11-01T12:00	7360	401	-23.6	-29.0	243	21	
2025-11-01T12:00	7380	400	-23.6	-29.6	243	21	
2025-11-01T12:00	7400	399	-23.8	-29.2	242	21	
2025-11-01T12:00	7420	398	-24.0	-29.1	243	21	
2025-11-01T12:00	7440	397	-24.1	-29.2	243	21	
2025-11-01T12:00	7460	396	-24.3	-29.3	243	21	
2025-11-01T12:00	7480	395	-24.5	-29.2	243	20	
2025-11-01T12:00	7500	394	-24.6	-29.3	244	20	
2025-11-01T12:00	7520	393	-24.8	-29.5	243	20	
2025-11-01T12:00	7540	392	-25.0	-29.6	243	20	
2025-11-01T12:00	7560	391	-25.2	-29.6	242	20	
2025-11-01T12:00	7580	389	-25.4	-29.8	241	20	
2025-11-01T12:00	7600	388	-25.5	-30.2	239	20	
2025-11-01T12:00	7620	387	-25.6	-30.9	238	20	
2025-11-01T12:00	7640	386	-25.6	-31.5	237	19	
2025-11-01T12:00	7660	385	-25.7	-31.8	237	19	
2025-11-01T12:00	7680	384	-25.8	-32.2	237	19	
2025-11-01T12:00	7700	383	-25.9	-32.3	237	19	
2025-11-01T12:00	7720	382	-26.1	-32.4	237	19	
2025-11-01T12:00	7740	381	-26.3	-32.4	238	20	
2025-11-01T12:00	7760	380	-26.4	-32.3	238	20	
2025-11-01T12:00	7780	379	-26.6	-32.4	239	20	
2025-11-01T12:00	7800	378	-26.7	-32.4	239	20	
2025-11-01T12:00	7820	377	-26.8	-32.6	239	20	
2025-11-01T12:00	7840	376	-26.8	-32.6	239	20	
2025-11-01T12:00	7860	375	-26.9	-32.9	239	20	
2025-11-01T12:00	7880	374	-27.0	-33.2	239	20	
2025-11-01T12:00	7900	373	-27.1	-34.0	239	20	
2025-11-01T12:00	7920	372	-27.1	-34.5	239	20	
2025-11-01T12:00	7940	371	-27.2	-34.7	239	21	
2025-11-01T12:00	7960	370	-27.4	-35.0	240	21	
2025-11-01T12:00	7980	369	-27.5	-35.5	240	21	
2025-11-01T12:00	8000	368	-27.7	-36.1	240	21	
2025-11-01T12:00	8020	367	-27.8	-36.4	241	22	
2025-11-01T12:00	8040	366	-28.0	-36.7	241	22	
2025-11-01T12:00	8060	364	-28.2	-36.8	241	22	
2025-11-01T12:00	8080	363	-28.4	-37.1	241	22	
2025-11-01T12:00	8100	362	-28.5	-37.3	240	22	
2025-11-01T12:00	8120	361	-28.7	-37.7	240	22	
2025-11-01T12:00	8140	360	-28.8	-38.1	239	22	
2025-11-01T12:00	8160	359	-29.0	-38.2	238	22	
2025-11-01T12:00	8180	358	-29.2	-38.2	238	22	
2025-11-01T12:00	8200	357	-29.4	-38.5	237	21	
2025-11-01T12:00	8220	356	-29.6	-38.6	236	21	
2025-11-01T12:00	8240	355	-29.8	-39.2	236	22	
2025-11-01T12:00	8260	354	-29.9	-39.3	235	22	
2025-11-01T12:00	8280	353	-30.1	-39.4	235	22	
2025-11-01T12:00	8300	352	-30.3	-39.8	234	21	
2025-11-01T12:00	8320	351	-30.4	-39.9	234	21	
2025-11-01T12:00	8340	351	-30.6	-39.4	233	21	
2025-11-01T12:00	8360	349	-30.8	-38.9	232	21	
2025-11-01T12:00	8380	348	-31.1	-39.2	231	21	
2025-11-01T12:00	8400	347	-31.3	-39.1	230	21	
2025-11-01T12:00	8420	346	-31.5	-38.9	230	21	
2025-11-01T12:00	8440	345	-31.6	-39.5	230	21	
2025-11-01T12:00	8460	344	-31.7	-39.8	230	21	
2025-11-01T12:00	8480	344	-31.9	-39.8	231	21	
2025-11-01T12:00	8500	343	-32.1	-39.9	231	21	
2025-11-01T12:00	8520	342	-32.3	-40.8	232	21	
2025-11-01T12:00	8540	341	-32.5	-41.1	232	21	
2025-11-01T12:00	8560	340	-32.7	-41.2	232	22	
2025-11-01T12:00	8580	339	-32.8	-41.5	232	22	
2025-11-01T12:00	8600	338	-32.9	-41.3	232	22	
2025-11-01T12:00	8620	337	-33.1	-40.9	232	22	
2025-11-01T12:00	8640	336	-33.3	-41.1	232	22	
2025-11-01T12:00	8660	335	-33.3	-42.1	232	22	
2025-11-01T12:00	8680	334	-33.4	-42.7	233	23	
2025-11-01T12:00	8700	333	-33.6	-42.9	233	23	
2025-11-01T12:00	8720	332	-33.8	-43.1	234	23	
2025-11-01T12:00	8740	331	-33.9	-43.2	234	22	
2025-11-01T12:00	8760	330	-34.1	-43.6	234	22	
2025-11-01T12:00	8780	329	-34.3	-43.7	234	22	
2025-11-01T12:00	8800	328	-34.5	-43.7	234	22	
2025-11-01T12:00	8820	327	-34.7	-43.7	234	22	
2025-11-01T12:00	8840	326	-34.9	-43.7	234	22	
2025-11-01T12:00	8860	325	-35.1	-43.9	235	22	
2025-11-01T12:00	8880	324	-35.2	-44.1	235	22	
2025-11-01T12:00	8900	324	-35.4	-44.3	236	22	
2025-11-01T12:00	8920	323	-35.6	-44.4	236	22	
2025-11-01T12:00	8940	322	-35.8	-44.5	236	23	
2025-11-01T12:00	8960	321	-35.9	-44.6	236	23	
2025-11-01T12:00	8980	320	-36.1	-44.5	236	23	
2025-11-01T12:00	9000	319	-36.3	-44.5	236	23	
2025-11-01T12:00	9020	318	-36.5	-44.6	236	23	
2025-11-01T12:00	9040	317	-36.7	-44.8	236	23	
2025-11-01T12:00	9060	316	-36.9	-44.7	236	23	
2025-11-01T12:00	9080	315	-37.1	-45.0	236	23	
2025-11-01T12:00	9100	314	-37.2	-45.1	237	23	
2025-11-01T12:00	9120	314	-37.4	-45.0	238	23	
2025-11-01T12:00	9140	313	-37.6	-45.2	238	23	
2025-11-01T12:00	9160	312	-37.8	-45.5	239	23	
2025-11-01T12:00	9180	311	-37.9	-45.7	239	23	
2025-11-01T12:00	9200	310	-38.1	-45.6	239	23	
2025-11-01T12:00	9220	309	-38.3	-45.6	240	23	
2025-11-01T12:00	9240	308	-38.5	-46.0	240	23	
2025-11-01T12:00	9260	307	-38.7	-46.1	240	23	
2025-11-01T12:00	9280	306	-38.9	-46.3	240	23	
2025-11-01T12:00	9300	305	-39.1	-47.0	240	23	
2025-11-01T12:00	9320	304	-39.2	-47.8	240	22	
2025-11-01T12:00	9340	304	-39.4	-47.7	240	23	
2025-11-01T12:00	9360	303	-39.6	-47.6	240	23	
2025-11-01T12:00	9380	302	-39.7	-47.9	240	23	
2025-11-01T12:00	9400	301	-39.9	-48.6	240	23	
2025-11-01T12:00	9420	300	-40.0	-49.2	239	23	
2025-11-01T12:00	9440	299	-40.2	-49.4	239	23	
2025-11-01T12:00	9460	298	-40.4	-49.6	239	23	
2025-11-01T12:00	9480	297	-40.5	-50.3	239	24	
2025-11-01T12:00	9500	297	-40.7	-50.6	238	24	
2025-11-01T12:00	9520	296	-40.9	-50.6	238	24	
2025-11-01T12:00	9540	295	-41.1	-50.6	238	24	
2025-11-01T12:00	9560	294	-41.3	-50.8	238	24	
2025-11-01T12:00	9580	293	-41.5	-50.9	238	24	
2025-11-01T12:00	9600	292	-41.7	-50.7	238	24	
2025-11-01T12:00	9620	291	-41.9	-50.7	237	24	
2025-11-01T12:00	9640	290	-42.1	-50.7	237	24	
2025-11-01T12:00	9660	290	-42.3	-50.8	236	24	
2025-11-01T12:00	9680	289	-42.4	-51.1	235	24	
2025-11-01T12:00	9700	288	-42.6	-51.3	235	24	
2025-11-01T12:00	9720	287	-42.8	-51.4	234	24	
2025-11-01T12:00	9740	286	-43.0	-51.5	234	24	
2025-11-01T12:00	9760	285	-43.2	-51.7	233	24	
2025-11-01T12:00	9780	285	-43.4	-52.1	233	24	
2025-11-01T12:00	9800	284	-43.6	-52.6	233	24	
2025-11-01T12:00	9820	283	-43.7	-53.2	233	23	
2025-11-01T12:00	9840	282	-43.9	-54.1	233	23	
2025-11-01T12:00	9860	281	-44.0	-55.1	233	23	
2025-11-01T12:00	9880	280	-44.1	-55.6	234	23	
2025-11-01T12:00	9900	280	-44.3	-55.3	234	23	
2025-11-01T12:00	9920	279	-44.5	-55.0	234	24	
2025-11-01T12:00	9940	278	-44.7	-55.0	234	24	
2025-11-01T12:00	9960	277	-44.9	-55.1	234	24	
2025-11-01T12:00	9980	276	-45.0	-55.1	234	24	
2025-11-01T12:00	10000	275	-45.2	-55.2	235	24	
2025-11-01T12:00	10018	275	-45.4	-55.1	235	24	
2025-11-01T12:00	10050	273	-45.7	-55.0	235	24	
2025-11-01T12:00	10100	271	-46.2	-55.3	236	24	
2025-11-01T12:00	10150	269	-46.7	-55.5	236	24	
2025-11-01T12:00	10200	267	-47.1	-56.3	235	24	
2025-11-01T12:00	10250	265	-47.6	-56.1	234	25	
2025-11-01T12:00	10300	263	-48.1	-55.1	233	25	
2025-11-01T12:00	10350	261	-48.5	-54.8	233	25	
2025-11-01T12:00	10400	259	-49.0	-55.1	235	25	
2025-11-01T12:00	10450	257	-49.5	-55.5	235	25	
2025-11-01T12:00	10500	255	-50.0	-55.7	236	26	
2025-11-01T12:00	10550	253	-50.4	-56.3	236	25	
2025-11-01T12:00	10600	251	-50.9	-57.0	237	25	
2025-11-01T12:00	10650	249	-51.3	-57.2	238	25	
2025-11-01T12:00	10700	248	-51.8	-57.4	238	25	
2025-11-01T12:00	10750	246	-52.3	-57.4	240	25	
2025-11-01T12:00	10800	244	-52.8	-57.6	242	25	
2025-11-01T12:00	10850	242	-53.3	-57.9	244	26	
2025-11-01T12:00	10900	240	-53.8	-58.8	245	28	
2025-11-01T12:00	10950	238	-54.2	-59.2	245	28	
2025-11-01T12:00	11000	236	-54.7	-59.5	245	28	
2025-11-01T12:00	11050	235	-55.1	-60.0	244	29	
2025-11-01T12:00	11100	233	-55.6	-60.1	243	29	
2025-11-01T12:00	11150	231	-56.1	-60.3	242	30	
2025-11-01T12:00	11200	229	-56.6	-60.7	242	31	
2025-11-01T12:00	11250	227	-57.0	-61.2	243	31	
2025-11-01T12:00	11300	225	-57.5	-61.8	244	31	
2025-11-01T12:00	11350	224	-57.9	-62.3	244	31	
2025-11-01T12:00	11400	222	-58.4	-62.7	244	31	
2025-11-01T12:00	11450	220	-58.9	-63.1	245	31	
2025-11-01T12:00	11500	218	-59.3	-63.7	245	31	
2025-11-01T12:00	11550	217	-59.8	-64.3	245	31	
2025-11-01T12:00	11600	215	-60.3	-64.8	246	30	
2025-11-01T12:00	11650	213	-60.8	-65.3	247	30	
2025-11-01T12:00	11700	211	-61.2	-65.7	247	30	
2025-11-01T12:00	11750	210	-61.7	-66.1	247	30	
2025-11-01T12:00	11800	208	-62.1	-66.4	246	31	
2025-11-01T12:00	11850	206	-62.6	-66.8	246	31	
2025-11-01T12:00	11900	205	-63.0	-67.2	247	32	
2025-11-01T12:00	11950	203	-63.5	-67.6	248	32	
2025-11-01T12:00	12000	201	-63.9	-68.0	249	32	
2025-11-01T12:00	12050	200	-64.3	-68.4	249	32	
2025-11-01T12:00	12100	198	-64.8	-68.7	249	32	
2025-11-01T12:00	12150	196	-65.3	-69.2	250	31	
2025-11-01T12:00	12200	195	-65.7	-70.0	250	31	
2025-11-01T12:00	12250	193	-66.0	-70.7	250	31	
2025-11-01T12:00	12300	192	-66.4	-71.3	250	31	
2025-11-01T12:00	12350	190	-66.9	-71.6	250	31	
2025-11-01T12:00	12400	189	-67.3	-72.0	249	31	
2025-11-01T12:00	12450	187	-67.6	-72.4	249	32	
2025-11-01T12:00	12500	185	-68.0	-72.8	248	32	
2025-11-01T12:00	12550	184	-68.1	-73.1	248	33	
2025-11-01T12:00	12600	182	-68.5	-73.4	248	33	
2025-11-01T12:00	12650	181	-68.9	-73.7	248	33	
2025-11-01T12:00	12700	179	-69.3	-74.0	248	34	
2025-11-01T12:00	12750	178	-69.4	-74.0	250	35	
2025-11-01T12:00	12800	176	-69.6	-74.1	252	37	
2025-11-01T12:00	12850	175	-69.6	-74.2	254	38	
2025-11-01T12:00	12900	173	-69.4	-73.8	256	40	
2025-11-01T12:00	12950	172	-69.0	-73.5	258	41	
2025-11-01T12:00	13000	170	-69.0	-73.5	260	41	
2025-11-01T12:00	13050	169	-69.3	-73.7	261	40	
2025-11-01T12:00	13100	168	-69.3	-73.9	262	38	
2025-11-01T12:00	13150	166	-68.8	-74.3	261	36	
2025-11-01T12:00	13200	165	-68.1	-74.9	259	34	
2025-11-01T12:00	13250	163	-67.1	-76.6	256	31	
2025-11-01T12:00	13300	162	-66.2	-79.3	253	29	
2025-11-01T12:00	13350	161	-65.9	-81.6	249	28	
2025-11-01T12:00	13400	160	-65.5	-82.3	245	28	
2025-11-01T12:00	13450	158	-65.6	-82.8	242	28	
2025-11-01T12:00	13500	157	-65.8	-82.4	240	29	
2025-11-01T12:00	13550	156	-65.9	-81.6	238	30	
2025-11-01T12:00	13600	154	-66.1	-81.4	239	30	
2025-11-01T12:00	13650	153	-66.3	-81.5	240	30	
2025-11-01T12:00	13700	152	-66.3	-81.3	243	30	
2025-11-01T12:00	13750	151	-66.4	-81.5	245	30	
2025-11-01T12:00	13800	149	-66.6	-81.6	247	31	
2025-11-01T12:00	13850	148	-66.5	-81.7	250	32	
2025-11-01T12:00	13900	147	-66.2	-81.8	252	33	
2025-11-01T12:00	13950	146	-66.2	-82.1	254	32	
2025-11-01T12:00	14000	145	-66.1	-82.4	255	31	
2025-11-01T12:00	14050	143	-65.8	-82.3	256	31	
2025-11-01T12:00	14100	142	-65.7	-82.3	257	30	
2025-11-01T12:00	14150	141	-65.6	-82.3	259	30	
2025-11-01T12:00	14200	140	-65.8	-82.5	260	29	
2025-11-01T12:00	14250	139	-66.1	-82.5	260	28	
2025-11-01T12:00	14300	138	-66.3	-82.6	260	28	
2025-11-01T12:00	14350	136	-66.2	-82.6	259	28	
2025-11-01T12:00	14400	135	-66.1	-82.6	258	28	
2025-11-01T12:00	14450	134	-66.1	-82.7	257	28	
2025-11-01T12:00	14500	133	-66.0	-82.7	255	28	
2025-11-01T12:00	14550	132	-66.3	-82.8	253	28	
2025-11-01T12:00	14600	131	-66.7	-82.9	250	28	
2025-11-01T12:00	14650	130	-66.8	-83.1	248	28	
2025-11-01T12:00	14700	129	-66.5	-83.0	247	29	
2025-11-01T12:00	14750	128	-66.3	-83.2	250	29	
2025-11-01T12:00	14800	127	-65.8	-83.1	254	30	
2025-11-01T12:00	14850	126	-65.6	-83.4	257	30	
2025-11-01T12:00	14900	125	-65.2	-83.5	258	30	
2025-11-01T12:00	14950	124	-64.7	-83.5	258	29	
2025-11-01T12:00	15000	123	-64.7	-83.6	258	29	
2025-11-01T12:00	15050	122	-64.7	-83.6	256	28	
2025-11-01T12:00	15100	121	-64.9	-83.7	257	27	
2025-11-01T12:00	15150	120	-65.2	-83.7	257	26	
2025-11-01T12:00	15200	119	-65.4	-83.8	255	26	
2025-11-01T12:00	15250	118	-65.6	-83.9	251	26	
2025-11-01T12:00	15300	117	-65.6	-83.9	250	26	
2025-11-01T12:00	15350	116	-65.5	-84.0	251	26	
2025-11-01T12:00	15400	115	-65.5	-84.2	252	26	
2025-11-01T12:00	15450	114	-64.9	-84.0	252	25	
2025-11-01T12:00	15500	113	-64.8	-84.1	253	24	
2025-11-01T12:00	15550	112	-65.2	-84.3	253	23	
2025-11-01T12:00	15600	111	-65.4	-84.4	252	23	
2025-11-01T12:00	15650	110	-65.4	-84.4	250	22	
2025-11-01T12:00	15700	109	-65.3	-84.4	249	23	
2025-11-01T12:00	15750	108	-65.2	-84.4	247	23	
2025-11-01T12:00	15800	107	-65.1	-84.4	245	23	
2025-11-01T12:00	15850	107	-65.4	-84.5	243	23	
2025-11-01T12:00	15900	106	-65.8	-84.6	242	23	
2025-11-01T12:00	15950	105	-66.0	-84.8	243	24	
2025-11-01T12:00	16000	104	-65.9	-84.8	246	25	
2025-11-01T12:00	16050	103	-65.4	-84.8	248	25	
2025-11-01T12:00	16100	102	-65.0	-84.9	249	25	
2025-11-01T12:00	16150	101	-64.9	-84.8	250	25	
2025-11-01T12:00	16200	101	-65.2	-84.9	252	26	
2025-11-01T12:00	16250	100	-65.4	-84.9	255	25	
2025-11-01T12:00	16300	99	-65.2	-85.0	255	23	
2025-11-01T12:00	16350	98	-64.8	-85.0	255	21	
2025-11-01T12:00	16400	97	-64.8	-84.9	254	19	
2025-11-01T12:00	16450	97	-65.1	-85.1	250	18	
2025-11-01T12:00	16500	96	-65.0	-85.1	243	17	
2025-11-01T12:00	16550	95	-64.7	-85.2	240	18	
2025-11-01T12:00	16600	94	-64.7	-85.2	238	19	
2025-11-01T12:00	16650	93	-65.1	-85.2	238	19	
2025-11-01T12:00	16700	93	-65.4	-85.3	240	20	
2025-11-01T12:00	16750	92	-65.8	-85.3	241	21	
2025-11-01T12:00	16800	91	-66.1	-85.4	241	22	
2025-11-01T12:00	16850	90	-66.3	-85.5	242	23	
2025-11-01T12:00	16900	90	-66.5	-85.8	245	24	
2025-11-01T12:00	16950	89	-65.8	-85.6	248	24	
2025-11-01T12:00	17000	88	-65.4	-85.8	250	24	
2025-11-01T12:00	17050	87	-65.0	-85.8	252	24	
2025-11-01T12:00	17100	87	-64.6	-85.9	254	24	
2025-11-01T12:00	17150	86	-64.6	-85.9	256	24	
2025-11-01T12:00	17200	85	-64.6	-85.9	259	23	
2025-11-01T12:00	17250	85	-64.8	-86.0	261	23	
2025-11-01T12:00	17300	84	-65.0	-86.2	262	21	
2025-11-01T12:00	17350	83	-64.7	-86.2	262	20	
2025-11-01T12:00	17400	83	-64.4	-86.2	262	18	
2025-11-01T12:00	17450	82	-64.6	-86.3	260	18	
2025-11-01T12:00	17500	81	-64.9	-86.4	258	18	
2025-11-01T12:00	17550	81	-65.0	-86.5	256	18	
2025-11-01T12:00	17600	80	-65.0	-86.4	255	19	
2025-11-01T12:00	17650	79	-65.2	-86.6	256	19	
2025-11-01T12:00	17700	79	-65.4	-86.6	257	21	
2025-11-01T12:00	17750	78	-65.6	-86.8	258	21	
2025-11-01T12:00	17800	77	-65.5	-87.0	256	21	
2025-11-01T12:00	17850	77	-64.8	-86.9	253	20	
2025-11-01T12:00	17900	76	-64.6	-86.8	250	19	
2025-11-01T12:00	17950	75	-64.7	-86.9	248	18	
2025-11-01T12:00	18000	75	-64.8	-87.0	248	19	
2025-11-01T12:00	18050	74	-64.5	-87.0	250	20	
2025-11-01T12:00	18100	74	-64.0	-87.2	252	21	
2025-11-01T12:00	18150	73	-63.2	-86.9	255	20	
2025-11-01T12:00	18200	72	-63.0	-86.9	258	20	
2025-11-01T12:00	18250	72	-62.8	-86.9	260	20	
2025-11-01T12:00	18300	71	-62.8	-86.8	259	20	
2025-11-01T12:00	18350	71	-62.7	-86.8	257	19	
2025-11-01T12:00	18400	70	-62.7	-86.9	257	19	
2025-11-01T12:00	18450	70	-62.5	-86.9	259	20	
2025-11-01T12:00	18500	69	-62.0	-86.7	263	20	
2025-11-01T12:00	18550	68	-61.7	-86.7	269	20	
2025-11-01T12:00	18600	68	-61.5	-86.8	275	19	
2025-11-01T12:00	18650	67	-61.4	-86.9	280	18	
2025-11-01T12:00	18700	67	-60.4	-86.3	284	17	
2025-11-01T12:00	18750	66	-60.5	-86.2	287	15	
2025-11-01T12:00	18800	66	-60.9	-86.2	289	14	
2025-11-01T12:00	18850	65	-61.3	-86.3	293	12	
2025-11-01T12:00	18900	65	-61.7	-86.3	295	11	
2025-11-01T12:00	18950	64	-62.1	-86.4	296	10	
2025-11-01T12:00	19000	64	-62.6	-86.5	296	10	
2025-11-01T12:00	19050	63	-63.1	-86.5	295	9	
2025-11-01T12:00	19100	63	-63.5	-86.7	295	8	
2025-11-01T12:00	19150	62	-64.0	-86.9	293	7	
2025-11-01T12:00	19200	62	-64.4	-87.0	288	6	
2025-11-01T12:00	19250	61	-64.7	-87.2	280	6	
2025-11-01T12:00	19300	61	-64.9	-87.4	275	7	
2025-11-01T12:00	19350	60	-64.8	-87.4	274	9	
2025-11-01T12:00	19400	60	-64.8	-87.5	271	10	
2025-11-01T12:00	19450	59	-64.6	-87.5	265	10	
2025-11-01T12:00	19500	59	-64.5	-87.4	257	11	
2025-11-01T12:00	19550	58	-64.8	-87.4	248	12	
2025-11-01T12:00	19600	58	-65.0	-87.4	242	13	
2025-11-01T12:00	19650	57	-65.4	-87.4	239	14	
2025-11-01T12:00	19700	57	-65.7	-87.5	238	15	
2025-11-01T12:00	19750	56	-65.9	-87.6	237	17	
2025-11-01T12:00	19800	56	-66.2	-87.8	237	18	
2025-11-01T12:00	19850	55	-66.4	-88.2	239	18	
2025-11-01T12:00	19900	55	-65.7	-88.0	241	18	
2025-11-01T12:00	19950	54	-65.4	-88.3	244	18	
2025-11-01T12:00	20000	54	-64.8	-88.3	247	19	
2025-11-01T12:00	20050	54	-64.0		250	20	
2025-11-01T12:00	20100	53	-64.1		253	20	
2025-11-01T12:00	20150	53	-64.3		256	21	
2025-11-01T12:00	20200	52	-64.4		258	22	
2025-11-01T12:00	20250	52	-64.6		260	22	
2025-11-01T12:00	20300	51	-64.6		261	21	
2025-11-01T12:00	20350	51	-64.3		262	19	
2025-11-01T12:00	20400	51	-64.3		259	18	
2025-11-01T12:00	20450	50	-64.5		254	17	
2025-11-01T12:00	20500	50	-64.4		251	17	
2025-11-01T12:00	20550	49	-64.4		251	17	
2025-11-01T12:00	20600	49	-64.0		253	17	
2025-11-01T12:00	20650	49	-63.0		257	17	
2025-11-01T12:00	20700	48	-62.8		259	17	
2025-11-01T12:00	20750	48	-63.0		260	16	
2025-11-01T12:00	20800	47	-63.2		260	15	
2025-11-01T12:00	20850	47	-63.5		262	14	
2025-11-01T12:00	20900	47	-63.5		267	14	
2025-11-01T12:00	20950	46	-62.9		274	13	
2025-11-01T12:00	21000	46	-62.5		279	13	
2025-11-01T12:00	21050	46	-62.5		282	13	
2025-11-01T12:00	21100	45	-62.8		281	15	
2025-11-01T12:00	21150	45	-63.1		279	15	
2025-11-01T12:00	21200	44	-63.3		277	15	
2025-11-01T12:00	21250	44	-62.9		276	14	
2025-11-01T12:00	21300	44	-62.8		275	13	
2025-11-01T12:00	21350	43	-62.9		270	11	
2025-11-01T12:00	21400	43	-63.1		263	10	
2025-11-01T12:00	21450	43	-63.4		256	10	
2025-11-01T12:00	21500	42	-63.7		251	10	
2025-11-01T12:00	21550	42	-64.1		248	11	
2025-11-01T12:00	21600	42	-64.5		248	11	
2025-11-01T12:00	21650	41	-64.6		250	12	
2025-11-01T12:00	21700	41	-64.5		251	12	
2025-11-01T12:00	21750	41	-64.5		249	13	
2025-11-01T12:00	21800	40	-64.8		245	14	
2025-11-01T12:00	21850	40	-65.1		243	15	
2025-11-01T12:00	21900	40	-65.5		243	17	
2025-11-01T12:00	21950	39	-65.6		246	17	
2025-11-01T12:00	22000	39	-65.4		249	17	
2025-11-01T12:00	22050	39	-65.5		251	17	
2025-11-01T12:00	22100	38	-65.7		252	16	
2025-11-01T12:00	22150	38	-65.7		253	16	
2025-11-01T12:00	22200	38	-65.9		253	17	
2025-11-01T12:00	22250	37	-65.8		254	18	
2025-11-01T12:00	22300	37	-65.8		256	20	
2025-11-01T12:00	22350	37	-65.6		259	22	
2025-11-01T12:00	22400	36	-65.6		261	23	
2025-11-01T12:00	22450	36	-65.4		263	22	
2025-11-01T12:00	22500	36	-65.0		264	22	
2025-11-01T12:00	22550	36	-64.9		265	21	
2025-11-01T12:00	22600	35	-65.2		267	21	
2025-11-01T12:00	22650	35	-65.7		268	21	
2025-11-01T12:00	22700	35	-66.1		268	21	
2025-11-01T12:00	22750	34	-66.0		266	21	
2025-11-01T12:00	22800	34	-65.5		265	22	
2025-11-01T12:00	22850	34	-65.8		264	23	
2025-11-01T12:00	22900	34	-65.8		266	24	
2025-11-01T12:00	22950	33	-65.6		268	24	
2025-11-01T12:00	23000	33	-65.6		272	24	
2025-11-01T12:00	23050	33	-65.3		276	24	
2025-11-01T12:00	23100	33	-65.0		279	23	
2025-11-01T12:00	23150	32	-65.1		279	23	
2025-11-01T12:00	23200	32	-65.4		279	23	
2025-11-01T12:00	23250	32	-65.3		279	23	
2025-11-01T12:00	23300	31	-65.1		280	23	
2025-11-01T12:00	23350	31	-64.8		282	23	
2025-11-01T12:00	23400	31	-64.9		283	23	
2025-11-01T12:00	23450	31	-65.0		282	23	
2025-11-01T12:00	23500	30	-65.2		281	22	
2025-11-01T12:00	23550	30	-65.2		280	21	
2025-11-01T12:00	23600	30	-64.8		281	20	
2025-11-01T12:00	23650	30	-64.0		286	19	
2025-11-01T12:00	23700	29	-63.9		291	17	
2025-11-01T12:00	23750	29	-63.7		295	16	
2025-11-01T12:00	23800	29	-63.8		297	15	
2025-11-01T12:00	23850	29	-63.9		295	15	
2025-11-01T12:00	23900	29	-64.2		291	15	
2025-11-01T12:00	23950	28	-64.4		285	16	
2025-11-01T12:00	24000	28	-64.4		280	16	
2025-11-01T12:00	24050	28	-64.3		278	16	
2025-11-01T12:00	24100	28	-64.0		279	16	
2025-11-01T12:00	24150	27	-64.1		281	16	
2025-11-01T12:00	24200	27	-64.1		282	15	
2025-11-01T12:00	24250	27	-64.2		283	15	
2025-11-01T12:00	24300	27	-64.5		283	15	
2025-11-01T12:00	24350	27	-64.8		283	15	
2025-11-01T12:00	24400	26	-65.0		284	17	
2025-11-01T12:00	24450	26	-65.3		284	18	
2025-11-01T12:00	24500	26	-65.6		284	19	
2025-11-01T12:00	24550	26	-65.6		281	18	
2025-11-01T12:00	24600	25	-65.5		277	16	
2025-11-01T12:00	24650	25	-65.5		271	14	
2025-11-01T12:00	24700	25	-65.4		265	13	
2025-11-01T12:00	24750	25	-65.5		260	13	
2025-11-01T12:00	24800	25	-65.2		258	14	
2025-11-01T12:00	24850	24	-65.0		259	16	
2025-11-01T12:00	24900	24	-64.9		262	17	
2025-11-01T12:00	24950	24	-64.5		265	17	
2025-11-01T12:00	25000	24	-64.3		268	17	
2025-11-01T12:00	25050	24	-64.2		268	18	
2025-11-01T12:00	25100	23	-63.8		268	19	
2025-11-01T12:00	25150	23	-63.2		266	19	
2025-11-01T12:00	25200	23	-62.8		261	20	
2025-11-01T12:00	25250	23	-62.8		256	21	
2025-11-01T12:00	25300	23	-62.9		254	22	
2025-11-01T12:00	25350	23	-62.5		258	22	
2025-11-01T12:00	25400	22	-62.4		263	22	
2025-11-01T12:00	25450	22	-62.3		268	21	
2025-11-01T12:00	25500	22	-62.1		270	20	
2025-11-01T12:00	25550	22	-62.0		270	21	
2025-11-01T12:00	25600	22	-61.9		270	21	
2025-11-01T12:00	25650	21	-62.0		270	21	
2025-11-01T12:00	25700	21	-62.1		272	20	
2025-11-01T12:00	25750	21	-62.4		273	19	
2025-11-01T12:00	25800	21	-62.8		273	19	
2025-11-01T12:00	25850	21	-62.9		272	18	
2025-11-01T12:00	25900	21	-62.5		270	18	
2025-11-01T12:00	25950	20	-62.4		267	18	
2025-11-01T12:00	26000	20	-62.7		264	18	
2025-11-01T12:00	26050	20	-62.8		261	18	
2025-11-01T12:00	26100	20	-62.5		259	19	
2025-11-01T12:00	26150	20	-62.3		258	20	
2025-11-01T12:00	26200	20	-62.5		258	21	
2025-11-01T12:00	26250	19	-62.7		258	22	
2025-11-01T12:00	26300	19	-63.0		258	23	
2025-11-01T12:00	26350	19	-63.4		258	24	
2025-11-01T12:00	26400	19	-63.7		260	25	
2025-11-01T12:00	26450	19	-63.4		262	25	
2025-11-01T12:00	26500	19	-63.1		264	26	
2025-11-01T12:00	26550	19	-63.1		264	26	
2025-11-01T12:00	26600	18	-63.0		263	26	
2025-11-01T12:00	26650	18	-63.0		262	26	
2025-11-01T12:00	26700	18	-63.3		262	25	
2025-11-01T12:00	26750	18	-63.3		262	25	
2025-11-01T12:00	26800	18	-63.4		263	24	
2025-11-01T12:00	26850	18	-63.3		264	24	
2025-11-01T12:00	26900	17	-63.5		266	24	
2025-11-01T12:00	26950	17	-63.7		267	23	
2025-11-01T12:00	27000	17	-63.6		269	24	
2025-11-01T12:00	27050	17	-63.2		271	24	
2025-11-01T12:00	27100	17	-62.7		273	25	
2025-11-01T12:00	27150	17	-62.4		275	26	
2025-11-01T12:00	27200	17	-62.5		276	26	
2025-11-01T12:00	27250	17	-62.8		275	26	
2025-11-01T12:00	27300	16	-62.8		273	25	
2025-11-01T12:00	27350	16	-62.6		271	24	
2025-11-01T12:00	27400	16	-62.8		268	23	
2025-11-01T12:00	27450	16	-62.9		265	23	
2025-11-01T12:00	27500	16	-63.1		261	24	
2025-11-01T12:00	27550	16	-63.2		259	25	
2025-11-01T12:00	27600	16	-63.1		258	26	
2025-11-01T12:00	27650	15	-63.0		258	28	
2025-11-01T12:00	27700	15	-63.1		259	29	
2025-11-01T12:00	27750	15	-63.4		260	30	
2025-11-01T12:00	27800	15	-63.5		260	31	
2025-11-01T12:00	27850	15	-63.4		261	31	
2025-11-01T12:00	27900	15	-63.4		262	31	
2025-11-01T12:00	27950	15	-63.3		263	31	
2025-11-01T12:00	28000	15	-63.0		264	31	
2025-11-01T12:00	28050	15	-62.5		264	30	
2025-11-01T12:00	28100	14	-62.1		264	30	
2025-11-01T12:00	28150	14	-61.9		265	30	
2025-11-01T12:00	28200	14	-62.1		268	30	
2025-11-01T12:00	28250	14	-62.4		270	30	
2025-11-01T12:00	28300	14	-62.5		272	30	
2025-11-01T12:00	28350	14	-62.5		272	30	
2025-11-01T12:00	28400	14	-62.4		271	30	
2025-11-01T12:00	28450	14	-62.5		270	30	
2025-11-01T12:00	28500	13	-62.6		270	31	
2025-11-01T12:00	28550	13	-62.6		271	31	
2025-11-01T12:00	28600	13	-62.8		273	32	
2025-11-01T12:00	28650	13	-63.0		273	31	
2025-11-01T12:00	28700	13	-63.1		273	31	
2025-11-01T12:00	28750	13	-63.1		271	32	
2025-11-01T12:00	28800	13	-62.6		269	33	
2025-11-01T12:00	28850	13	-61.7		266	34	
2025-11-01T12:00	28900	13	-60.7		264	35	
2025-11-01T12:00	28950	13	-60.6		264	36	
2025-11-01T12:00	29000	12	-60.4		267	38	
2025-11-01T12:00	29050	12	-60.2		269	38	
2025-11-01T12:00	29100	12	-59.8		272	38	
2025-11-01T12:00	29150	12	-59.6		274	37	
2025-11-01T12:00	29200	12	-59.3		276	37	
2025-11-01T12:00	29250	12	-58.9		277	37	
2025-11-01T12:00	29300	12	-59.2		276	37	
2025-11-01T12:00	29350	12	-59.4		275	37	
2025-11-01T12:00	29400	12	-59.6		275	37	
2025-11-01T12:00	29450	12	-59.8		275	37	
2025-11-01T12:00	29500	11	-60.0		276	36	
2025-11-01T12:00	29550	11	-59.9		277	36	
2025-11-01T12:00	29600	11	-60.1		277	35	
2025-11-01T12:00	29650	11	-60.3		278	35	
2025-11-01T12:00	29700	11	-60.6		278	35	
2025-11-01T12:00	29750	11	-61.0		279	34	
2025-11-01T12:00	29800	11	-61.1		279	34	
2025-11-01T12:00	29850	11	-61.3		279	33	
2025-11-01T12:00	29900	11	-61.7		278	32	
2025-11-01T12:00	29950	11	-61.9		278	31	
2025-11-01T12:00	30000	11	-61.9		278	31	
2025-11-01T12:00	30050	11	-61.5		277	32	
2025-11-01T12:00	30100	10	-61.2		276	32	
2025-11-01T12:00	30150	10	-61.2		275	33	
2025-11-01T12:00	30200	10	-61.3		274	33	
2025-11-01T12:00	30250	10	-61.6		274	33	
2025-11-01T12:00	30300	10	-61.9		274	33	
2025-11-01T12:00	30350	10	-62.1		275	34	
2025-11-01T12:00	30400	10	-62.4		275	34	
2025-11-01T12:00	30450	10	-62.4		277	36	
2025-11-01T12:00	30500	10	-62.4		278	37	
2025-11-01T12:00	30550	10	-62.4		279	37	
2025-11-01T12:00	30600	10	-62.2		279	38	
2025-11-01T12:00	30650	10	-62.1		279	38	
2025-11-01T12:00	30700	9	-62.1		279	38	
2025-11-01T12:00	30750	9	-62.3		279	38	
2025-11-01T12:00	30800	9	-62.2		280	38	
2025-11-01T12:00	30850	9	-61.6		281	37	
2025-11-01T12:00	30900	9	-61.3		281	37	
2025-11-01T12:00	30950	9	-61.2		281	36	
2025-11-01T12:00	31000	9	-61.4		279	36	
2025-11-01T12:00	31050	9	-61.5		278	37	
2025-11-01T12:00	31100	9	-61.6		277	38	
2025-11-01T12:00	31150	9	-61.4		276	39	
2025-11-01T12:00	31200	9	-60.0		275	41	
2025-11-01T12:00	31250	9	-59.4		273	43	
2025-11-01T12:00	31300	9	-58.6		271	45	
2025-11-01T12:00	31350	9	-57.8		270	47	
2025-11-01T12:00	31400	8	-57.4		269	49	
2025-11-01T12:00	31450	8	-57.4		268	51	
2025-11-01T12:00	31500	8	-57.4		268	51	
2025-11-01T12:00	31550	8	-57.1		268	52	
2025-11-01T12:00	31600	8	-57.0		269	51	
2025-11-01T12:00	31650	8	-57.1		269	51	
2025-11-01T12:00	31700	8	-57.4		270	50	
2025-11-01T12:00	31750	8	-57.6		270	51	
2025-11-01T12:00	31800	8	-57.6		271	51	
2025-11-01T12:00	31850	8	-57.1		272	52	
2025-11-01T12:00	31900	8	-56.9		273	52	
2025-11-01T12:00	31950	8	-56.9		273	53	
2025-11-01T12:00	32000	8	-57.0		273	54	
2025-11-01T12:00	32050	8	-57.0		273	55	
2025-11-01T12:00	32100	8	-56.9		273	56	
2025-11-01T12:00	32150	8	-56.5		274	56	
2025-11-01T12:00	32200	7	-56.1		274	57	
2025-11-01T12:00	32250	7	-56.0		275	57	
2025-11-01T12:00	32300	7	-56.2		276	57	
2025-11-01T12:00	32350	7	-56.4		276	57	
2025-11-01T12:00	32400	7	-56.7		277	57	
2025-11-01T12:00	32450	7	-57.0		278	57	
2025-11-01T12:00	32500	7	-57.3		278	56	
2025-11-01T12:00	32550	7	-57.5		278	55	
2025-11-01T12:00	32600	7	-57.7		278	54	
2025-11-01T12:00	32650	7	-58.0		278	53	
2025-11-01T12:00	32700	7	-58.2		277	51	
2025-11-01T12:00	32750	7	-58.3		277	50	
2025-11-01T12:00	32800	7	-58.3		276	50	
2025-11-01T12:00	32850	7	-58.2		275	50	
2025-11-01T12:00	32900	7	-58.1		275	51	
2025-11-01T12:00	32950	7	-58.1		274	52	
2025-11-01T12:00	33000	7	-58.0		274	53	
2025-11-01T12:00	33050	7	-58.0		275	54	
2025-11-01T12:00	33100	6	-57.9		276	54	
2025-11-01T12:00	33150	6	-58.0		277	54	
2025-11-01T12:00	33200	6	-57.9		278	53	
2025-11-01T12:00	33250	6	-57.4		278	54	
2025-11-01T12:00	33300	6	-56.6		276	54	
2025-11-01T12:00	33350	6	-56.0		274	54	
2025-11-01T12:00	33400	6	-55.9		273	54	
2025-11-01T12:00	33450	6	-56.1		271	54	
2025-11-01T12:00	33500	6	-56.3		272	55	
2025-11-01T12:00	33550	6	-56.1		273	56	
2025-11-01T12:00	33600	6	-55.1		274	56	
2025-11-01T12:00	33650	6	-53.4		275	55	
2025-11-01T12:00	33700	6	-51.9		274	54	
2025-11-01T12:00	33750	6	-51.0		272	55	
2025-11-01T12:00	33800	6	-50.2		269	57	
2025-11-01T12:00	33850	6	-49.7		268	58	
2025-11-01T12:00	33900	6	-49.8		267	59	
2025-11-01T12:00	33950	6	-49.8		267	59	
2025-11-01T12:00	34000	6	-49.8		268	59	
2025-11-01T12:00	34050	6	-49.5		269	58	
2025-11-01T12:00	34100	6	-49.2		270	58	
2025-11-01T12:00	34150	5	-49.4		270	57	
2025-11-01T12:00	34200	5	-49.5		271	56	
2025-11-01T12:00	34250	5	-49.7		270	56	
2025-11-01T12:00	34300	5	-49.7		270	57	
2025-11-01T12:00	34350	5	-49.7		269	57	
2025-11-01T12:00	34400	5	-49.8		269	58	
2025-11-01T12:00	34450	5	-49.9		268	58	
2025-11-01T12:00	34500	5	-50.0		268	58	
2025-11-01T12:00	34550	5	-49.9		267	57	
2025-11-01T12:00	34600	5	-49.8		267	57	
2025-11-01T12:00	34650	5	-49.3		266	57	
2025-11-01T12:00	34700	5	-48.9		265	58	
2025-11-01T12:00	34750	5	-48.6		264	59	
2025-11-01T12:00	34800	5	-48.2		264	61	
2025-11-01T12:00	34850	5	-47.9		264	62	
2025-11-01T12:00	34900	5	-47.9		264	63	
2025-11-01T12:00	34950	5	-47.7		265	63	
2025-11-01T12:00	35000	5	-47.5		265	63	
2025-11-02T00:00	491	959	12.5	12.0	188	2	
2025-11-02T00:00	520	956	12.6	12.1	216	3	
2025-11-02T00:00	540	953	12.8	11.9	222	4	
2025-11-02T00:00	560	951	13.0	11.9	224	5	
2025-11-02T00:00	580	949	13.0	11.9	227	6	
2025-11-02T00:00	600	946	12.9	11.8	229	7	
2025-11-02T00:00	620	944	12.9	11.6	230	7	
2025-11-02T00:00	640	942	13.1	11.7	230	8	
2025-11-02T00:00	660	940	13.0	11.6	230	8	
2025-11-02T00:00	680	937	13.0	11.4	231	8	
2025-11-02T00:00	700	935	12.9	11.4	232	8	
2025-11-02T00:00	720	933	12.7	11.3	233	9	
2025-11-02T00:00	740	931	12.7	11.2	235	9	
2025-11-02T00:00	760	928	12.6	11.1	237	9	
2025-11-02T00:00	780	926	12.5	11.1	238	9	
2025-11-02T00:00	800	924	12.3	11.1	239	9	
2025-11-02T00:00	820	922	12.2	12.1	240	9	
2025-11-02T00:00	840	920	12.0	12.0	240	9	
2025-11-02T00:00	860	918	11.8	11.8	240	9	
2025-11-02T00:00	880	915	11.7	11.7	239	9	
2025-11-02T00:00	900	913	11.6	11.6	238	9	
2025-11-02T00:00	920	911	11.5	11.5	238	10	
2025-11-02T00:00	940	909	11.4	11.4	237	10	
2025-11-02T00:00	960	907	11.3	11.3	237	10	
2025-11-02T00:00	980	905	11.2	11.2	236	11	
2025-11-02T00:00	1000	903	11.1	11.1	236	11	
2025-11-02T00:00	1020	900	11.0	11.0	236	11	
2025-11-02T00:00	1040	898	10.9	10.9	236	12	
2025-11-02T00:00	1060	896	10.8	10.8	237	13	
2025-11-02T00:00	1080	894	10.6	10.6	237	13	
2025-11-02T00:00	1100	891	10.5	10.5	236	14	
2025-11-02T00:00	1120	889	10.4	10.4	236	14	
2025-11-02T00:00	1140	888	10.3	10.3	235	14	
2025-11-02T00:00	1160	885	10.2	10.2	234	14	
2025-11-02T00:00	1180	883	10.1	10.1	234	14	
2025-11-02T00:00	1200	881	10.0	10.0	235	13	
2025-11-02T00:00	1220	879	9.9	9.9	238	13	
2025-11-02T00:00	1240	877	9.8	9.8	241	13	
2025-11-02T00:00	1260	875	9.6	9.6	244	13	
2025-11-02T00:00	1280	873	9.5	9.5	247	12	
2025-11-02T00:00	1300	870	9.4	9.4	249	12	
2025-11-02T00:00	1320	868	9.3	9.3	250	12	
2025-11-02T00:00	1340	866	9.2	9.2	251	12	
2025-11-02T00:00	1360	864	9.0	9.0	250	12	
2025-11-02T00:00	1380	862	8.9	8.9	249	12	
2025-11-02T00:00	1400	860	8.8	8.8	248	11	
2025-11-02T00:00	1420	858	8.7	8.7	246	11	
2025-11-02T00:00	1440	856	8.5	8.5	244	11	
2025-11-02T00:00	1460	854	8.4	8.4	243	11	
2025-11-02T00:00	1480	852	8.3	8.3	242	11	
2025-11-02T00:00	1500	850	8.1	8.1	240	12	
2025-11-02T00:00	1520	848	8.0	8.0	239	12	
2025-11-02T00:00	1540	846	7.8	7.8	238	12	
2025-11-02T00:00	1560	844	7.7	7.7	239	13	
2025-11-02T00:00	1580	842	7.5	7.5	240	13	
2025-11-02T00:00	1600	839	7.4	7.4	240	13	
2025-11-02T00:00	1620	837	7.3	7.3	240	14	
2025-11-02T00:00	1640	835	7.3	7.3	240	14	
2025-11-02T00:00	1660	833	7.2	7.2	240	14	
2025-11-02T00:00	1680	832	7.1	7.1	240	15	
2025-11-02T00:00	1700	829	6.9	6.9	240	15	
2025-11-02T00:00	1720	827	6.8	6.8	240	16	
2025-11-02T00:00	1740	825	6.7	6.5	239	16	
2025-11-02T00:00	1760	823	6.6	6.3	239	17	
2025-11-02T00:00	1780	821	6.4	6.1	239	17	
2025-11-02T00:00	1800	819	6.2	6.1	240	17	
2025-11-02T00:00	1820	817	6.0	6.0	241	17	
2025-11-02T00:00	1840	815	5.9	5.9	243	17	
2025-11-02T00:00	1860	813	5.7	5.4	245	17	
2025-11-02T00:00	1880	811	5.6	4.9	246	17	
2025-11-02T00:00	1900	809	5.5	4.3	247	17	
2025-11-02T00:00	1920	807	5.4	4.0	247	17	
2025-11-02T00:00	1940	805	5.3	3.8	246	17	
2025-11-02T00:00	1960	804	5.2	3.7	246	17	
2025-11-02T00:00	1980	802	5.2	3.5	246	17	
2025-11-02T00:00	2000	800	5.1	3.4	246	17	
2025-11-02T00:00	2020	798	5.0	3.3	247	17	
2025-11-02T00:00	2040	796	4.9	3.3	247	17	
2025-11-02T00:00	2060	794	4.7	3.3	247	16	
2025-11-02T00:00	2080	792	4.6	3.3	247	16	
2025-11-02T00:00	2100	790	4.5	3.2	248	16	
2025-11-02T00:00	2120	788	4.3	3.2	249	16	
2025-11-02T00:00	2140	786	4.2	3.1	248	16	
2025-11-02T00:00	2160	784	4.0	3.1	247	16	
2025-11-02T00:00	2180	782	3.9	3.1	245	16	
2025-11-02T00:00	2200	780	3.7	3.0	244	16	
2025-11-02T00:00	2220	778	3.6	2.9	243	16	
2025-11-02T00:00	2240	776	3.4	2.8	243	16	
2025-11-02T00:00	2260	775	3.3	2.5	242	16	
2025-11-02T00:00	2280	772	3.2	2.1	242	16	
2025-11-02T00:00	2300	771	3.0	2.0	240	16	
2025-11-02T00:00	2320	769	2.8	1.9	239	15	
2025-11-02T00:00	2340	767	2.6	1.9	238	15	
2025-11-02T00:00	2360	765	2.4	1.9	238	15	
2025-11-02T00:00	2380	763	2.3	1.9	239	15	
2025-11-02T00:00	2400	761	2.0	1.9	240	15	
2025-11-02T00:00	2420	759	1.9	1.9	241	16	
2025-11-02T00:00	2440	757	1.7	1.7	241	16	
2025-11-02T00:00	2460	756	1.6	1.6	241	16	
2025-11-02T00:00	2480	754	1.5	1.5	240	16	
2025-11-02T00:00	2500	752	1.4	1.4	240	16	
2025-11-02T00:00	2520	750	1.2	1.2	241	16	
2025-11-02T00:00	2540	748	1.1	1.1	241	17	
2025-11-02T00:00	2560	746	1.0	1.0	242	17	
2025-11-02T00:00	2580	745	1.0	1.0	243	17	
2025-11-02T00:00	2600	742	0.8	0.8	243	17	
2025-11-02T00:00	2620	741	0.8	0.8	241	17	
2025-11-02T00:00	2640	739	0.8	0.8	239	17	
2025-11-02T00:00	2660	737	0.9	0.9	238	17	
2025-11-02T12:00	491	959	10.6	8.9	195	2	
2025-11-02T12:00	501	958	10.5	9.1	201	3	
2025-11-02T12:00	520	956	10.3	8.7	202	4	
2025-11-02T12:00	540	954	10.2	8.4	202	4	
2025-11-02T12:00	560	952	10.2	7.8	203	5	
2025-11-02T12:00	580	949	10.4	7.4	204	6	
2025-11-02T12:00	600	947	10.3	7.2	205	7	
2025-11-02T12:00	620	945	10.1	7.2	206	8	
2025-11-02T12:00	640	942	10.0	7.1	207	9	
2025-11-02T12:00	660	940	9.8	7.0	208	10	
2025-11-02T12:00	680	938	9.7	6.9	209	11	
2025-11-02T12:00	700	935	9.5	6.8	209	11	
2025-11-02T12:00	720	933	9.3	6.7	209	12	
2025-11-02T12:00	740	931	9.2	6.6	209	12	
2025-11-02T12:00	760	929	9.1	6.2	209	12	
2025-11-02T12:00	780	926	9.0	6.0	209	12	
2025-11-02T12:00	800	924	8.8	6.0	210	12	
2025-11-02T12:00	820	922	8.6	6.0	210	13	
2025-11-02T12:00	840	920	8.4	6.0	211	12	
2025-11-02T12:00	860	918	8.2	5.9	212	12	
2025-11-02T12:00	880	916	8.0	5.9	213	12	
2025-11-02T12:00	900	913	7.8	5.9	215	12	
2025-11-02T12:00	920	911	7.8	5.8	217	12	
2025-11-02T12:00	940	909	7.8	5.6	220	12	
2025-11-02T12:00	960	906	7.9	5.4	222	12	
2025-11-02T12:00	980	904	7.7	5.4	224	12	
2025-11-02T12:00	1000	902	7.6	5.6	226	11	
2025-11-02T12:00	1020	900	7.4	5.4	228	12	
2025-11-02T12:00	1040	898	7.3	5.4	229	12	
2025-11-02T12:00	1060	896	7.1	5.4	230	12	
2025-11-02T12:00	1080	894	7.0	5.5	231	12	
2025-11-02T12:00	1100	892	6.8	5.5	232	11	
2025-11-02T12:00	1120	889	6.6	5.3	233	11	
2025-11-02T12:00	1140	887	6.7	3.8	234	11	
2025-11-02T12:00	1160	885	6.6	3.5	235	11	
2025-11-02T12:00	1180	883	6.4	3.5	236	10	
2025-11-02T12:00	1200	881	6.2	3.3	237	10	
2025-11-02T12:00	1220	878	6.1	3.0	239	10	
2025-11-02T12:00	1240	876	5.9	2.9	240	10	
2025-11-02T12:00	1260	874	5.7	2.8	241	10	
2025-11-02T12:00	1280	872	5.5	2.7	242	10	
2025-11-02T12:00	1300	870	5.4	2.7	242	10	
2025-11-02T12:00	1320	868	5.3	2.4	243	10	
2025-11-02T12:00	1340	866	5.2	2.2	243	10	
2025-11-02T12:00	1360	864	5.0	2.2	243	10	
2025-11-02T12:00	1380	861	4.8	2.1	243	10	
2025-11-02T12:00	1400	859	4.7	2.0	243	10	
2025-11-02T12:00	1420	857	4.5	2.0	243	10	
2025-11-02T12:00	1440	855	4.3	1.9	243	10	
2025-11-02T12:00	1460	853	4.1	1.9	244	10	
2025-11-02T12:00	1480	851	3.9	1.8	244	10	
2025-11-02T12:00	1500	849	3.7	1.7	245	10	
2025-11-02T12:00	1520	847	3.6	1.7	245	10	
2025-11-02T12:00	1540	845	3.4	1.6	245	10	
2025-11-02T12:00	1560	842	3.2	1.5	245	10	
2025-11-02T12:00	1580	840	3.1	1.4	245	10	
2025-11-02T12:00	1600	839	2.9	1.3	246	10	
2025-11-02T12:00	1620	836	2.8	1.2	246	10	
2025-11-02T12:00	1640	834	2.6	1.2	247	10	
2025-11-02T12:00	1660	832	2.5	1.0	248	10	
2025-11-02T12:00	1680	830	2.3	0.9	248	10	
2025-11-02T12:00	1700	828	2.2	0.8	249	11	
2025-11-02T12:00	1720	826	2.1	0.6	249	11	
2025-11-02T12:00	1740	824	2.0	0.5	249	11	
2025-11-02T12:00	1760	822	1.8	0.4	249	11	
2025-11-02T12:00	1780	820	1.6	0.4	249	11	
2025-11-02T12:00	1800	818	1.5	0.3	249	11	
2025-11-02T12:00	1820	816	1.3	0.2	249	11	
2025-11-02T12:00	1840	814	1.2	-0.1	248	11	
2025-11-02T12:00	1860	812	1.1	-0.4	248	11	
2025-11-02T12:00	1880	810	0.9	-0.5	248	11	
2025-11-02T12:00	1900	808	0.8	-0.5	248	11	
2025-11-02T12:00	1920	806	0.6	-0.6	247	11	
2025-11-02T12:00	1940	804	0.5	-0.6	247	11	
2025-11-02T12:00	1960	802	0.3	-0.5	246	11	
2025-11-02T12:00	1980	800	0.1	-0.5	246	11	
2025-11-02T12:00	2000	798	-0.1	-0.6	246	11	
2025-11-02T12:00	2020	796	-0.3	-0.9	245	11	
2025-11-02T12:00	2040	794	-0.4	-1.0	245	11	
2025-11-02T12:00	2060	792	-0.6	-1.2	245	11	
2025-11-02T12:00	2080	790	-0.6	-1.6	245	11	
2025-11-02T12:00	2100	788	-0.7	-1.8	245	11	
2025-11-02T12:00	2120	786	-0.9	-2.1	245	10	
2025-11-02T12:00	2140	784	-1.0	-2.3	245	10	
2025-11-02T12:00	2160	782	-1.2	-2.3	246	10	
2025-11-02T12:00	2180	780	-1.3	-2.4	246	10	
2025-11-02T12:00	2200	778	-1.4	-2.5	247	10	
2025-11-02T12:00	2220	776	-1.5	-2.6	247	11	
2025-11-02T12:00	2240	774	-1.6	-2.9	248	11	
2025-11-02T12:00	2260	772	-1.7	-3.1	250	11	
2025-11-02T12:00	2280	770	-1.8	-3.3	251	11	
2025-11-02T12:00	2300	768	-2.0	-3.4	253	11	
2025-11-02T12:00	2320	767	-2.1	-3.5	254	11	
2025-11-02T12:00	2340	765	-2.3	-3.5	255	11	
2025-11-02T12:00	2360	763	-2.4	-3.1	256	11	
2025-11-02T12:00	2380	761	-2.5	-3.0	256	11	
2025-11-02T12:00	2400	759	-2.6	-3.2	256	11	
2025-11-02T12:00	2420	757	-2.8	-3.3	256	11	
2025-11-02T12:00	2440	755	-2.9	-3.8	257	11	
2025-11-02T12:00	2460	753	-2.8	-4.3	257	11	
2025-11-02T12:00	2480	751	-2.9	-4.5	257	12	
2025-11-02T12:00	2500	749	-3.0	-4.9	258	12	
2025-11-02T12:00	2520	747	-3.1	-5.0	258	12	
2025-11-02T12:00	2540	745	-3.1	-5.3	259	12	
2025-11-02T12:00	2560	744	-2.9	-5.9	260	12	
2025-11-02T12:00	2580	742	-2.9	-6.2	261	12	
2025-11-02T12:00	2600	740	-3.0	-6.3	262	12	
2025-11-02T12:00	2620	738	-3.2	-6.4	263	12	
2025-11-02T12:00	2640	736	-3.3	-6.5	264	12	
2025-11-02T12:00	2660	734	-3.5	-7.0	265	12	
2025-11-02T12:00	2680	732	-3.5	-7.4	266	11	
2025-11-02T12:00	2700	731	-3.6	-7.4	266	11	
2025-11-02T12:00	2720	729	-3.8	-7.4	267	11	
2025-11-02T12:00	2740	727	-3.9	-7.3	267	11	
2025-11-02T12:00	2760	725	-4.0	-7.5	267	11	
2025-11-02T12:00	2780	723	-4.2	-7.8	267	11	
2025-11-02T12:00	2800	721	-4.4	-7.8	266	11	
2025-11-02T12:00	2820	720	-4.5	-7.6	266	11	
2025-11-02T12:00	2840	718	-4.7	-7.7	266	12	
2025-11-02T12:00	2860	716	-4.9	-7.8	265	12	
2025-11-02T12:00	2880	714	-5.1	-7.9	265	12	
2025-11-02T12:00	2900	712	-5.2	-7.9	265	12	
2025-11-02T12:00	2920	710	-5.3	-7.8	265	12	
2025-11-02T12:00	2940	709	-5.4	-7.9	266	12	
2025-11-02T12:00	2960	707	-5.6	-8.0	267	12	
2025-11-02T12:00	2980	705	-5.8	-8.0	268	12	
2025-11-02T12:00	3000	703	-6.0	-8.4	269	12	
2025-11-02T12:00	3020	701	-6.2	-8.5	270	12	
2025-11-02T12:00	3040	700	-6.4	-8.6	271	12	
2025-11-02T12:00	3060	698	-6.6	-8.6	271	12	
2025-11-02T12:00	3080	696	-6.8	-8.6	271	12	
2025-11-02T12:00	3100	694	-6.9	-8.8	271	12	
2025-11-02T12:00	3120	693	-7.1	-8.7	270	12	
2025-11-02T12:00	3140	691	-7.2	-8.9	269	12	
2025-11-02T12:00	3160	689	-7.4	-9.1	268	13	
2025-11-02T12:00	3180	687	-7.5	-9.1	266	13	
2025-11-02T12:00	3200	685	-7.6	-9.2	266	14	
2025-11-02T12:00	3220	684	-7.7	-9.2	265	14	
2025-11-02T12:00	3240	682	-7.6	-9.3	265	15	
2025-11-02T12:00	3260	680	-7.5	-9.2	264	15	
2025-11-02T12:00	3280	679	-7.6	-9.2	264	16	
2025-11-02T12:00	3300	677	-7.5	-9.2	264	16	
2025-11-02T12:00	3320	675	-7.5	-9.1	264	16	
2025-11-02T12:00	3340	673	-7.5	-9.1	264	16	
2025-11-02T12:00	3360	671	-7.5	-9.2	264	17	
2025-11-02T12:00	3380	670	-7.6	-9.3	264	17	
2025-11-02T12:00	3400	668	-7.7	-9.4	265	17	
2025-11-02T12:00	3420	666	-7.7	-9.6	265	17	
2025-11-02T12:00	3440	665	-7.8	-9.7	266	18	
2025-11-02T12:00	3460	663	-7.8	-9.8	266	18	
2025-11-02T12:00	3480	661	-7.9	-9.9	267	18	
2025-11-02T12:00	3500	660	-8.1	-10.0	267	19	
2025-11-02T12:00	3520	658	-8.2	-10.2	267	19	
2025-11-02T12:00	3540	656	-8.3	-10.4	266	19	
2025-11-02T12:00	3560	654	-8.5	-10.6	266	19	
2025-11-02T12:00	3580	653	-8.6	-10.7	265	19	
2025-11-02T12:00	3600	651	-8.8	-10.8	265	19	
2025-11-02T12:00	3620	650	-9.0	-10.9	264	20	
2025-11-02T12:00	3640	648	-9.1	-11.2	264	20	
2025-11-02T12:00	3660	646	-9.3	-11.5	263	20	
2025-11-02T12:00	3680	644	-9.5	-11.8	263	20	
2025-11-02T12:00	3700	643	-9.7	-11.6	263	21	
2025-11-02T12:00	3720	641	-9.8	-11.7	262	21	
2025-11-02T12:00	3740	639	-10.0	-11.6	262	22	
2025-11-02T12:00	3760	638	-10.2	-12.2	262	22	
2025-11-02T12:00	3780	636	-10.3	-12.9	262	23	
2025-11-02T12:00	3800	634	-10.4	-13.3	262	24	
2025-11-02T12:00	3820	633	-10.5	-13.5	262	24	
2025-11-02T12:00	3840	631	-10.6	-13.5	262	25	
2025-11-02T12:00	3860	630	-10.6	-13.6	261	25	
2025-11-02T12:00	3880	628	-10.6	-13.6	260	25	
2025-11-02T12:00	3900	626	-10.7	-13.6	259	25	
2025-11-02T12:00	3920	625	-10.8	-13.8	258	25	
2025-11-02T12:00	3940	623	-10.8	-13.8	257	26	
2025-11-02T12:00	3960	621	-10.5	-13.5	256	26	
2025-11-02T12:00	3980	620	-10.3	-13.1	255	26	
2025-11-02T12:00	4000	618	-10.3	-13.0	254	26	
2025-11-02T12:00	4020	617	-10.5	-13.1	253	26	
2025-11-02T12:00	4040	615	-10.7	-13.3	252	26	
2025-11-02T12:00	4060	613	-10.8	-13.4	251	26	
2025-11-02T12:00	4080	612	-11.0	-13.4	250	25	
2025-11-02T12:00	4100	610	-11.2	-13.4	249	25	
2025-11-02T12:00	4120	609	-11.4	-13.5	248	26	
2025-11-02T12:00	4140	607	-11.4	-13.4	246	26	
2025-11-02T12:00	4160	606	-11.3	-13.4	245	26	
2025-11-02T12:00	4180	604	-11.3	-13.4	243	26	
2025-11-02T12:00	4200	602	-11.6	-13.4	241	26	
2025-11-02T12:00	4220	600	-11.8	-13.5	239	25	
2025-11-02T12:00	4240	599	-12.1	-13.6	237	25	
2025-11-02T12:00	4260	598	-11.8	-13.5	236	25	
2025-11-02T12:00	4280	596	-11.5	-13.6	234	25	
2025-11-02T12:00	4300	594	-11.6	-13.7	233	25	
2025-11-02T12:00	4320	593	-11.7	-13.8	233	25	
2025-11-02T12:00	4340	591	-11.8	-13.9	232	25	
2025-11-02T12:00	4360	590	-11.9	-14.0	232	25	
2025-11-02T12:00	4380	588	-12.0	-14.0	231	24	
2025-11-02T12:00	4400	587	-12.2	-14.1	231	24	
2025-11-02T12:00	4420	585	-12.3	-14.1	230	23	
2025-11-02T12:00	4440	584	-12.5	-14.2	229	23	
2025-11-02T12:00	4460	582	-12.7	-14.2	229	22	
2025-11-02T12:00	4480	581	-12.7	-14.3	228	21	
2025-11-02T12:00	4500	579	-12.9	-14.3	228	21	
2025-11-02T12:00	4520	578	-13.1	-14.4	227	20	
2025-11-02T12:00	4540	576	-13.1	-14.6	225	20	
2025-11-02T12:00	4560	575	-12.9	-14.8	224	20	
2025-11-02T12:00	4580	573	-13.0	-14.9	222	19	
2025-11-02T12:00	4600	572	-13.2	-15.0	220	19	
2025-11-02T12:00	4620	570	-13.2	-15.0	218	19	
2025-11-02T12:00	4640	569	-13.4	-15.1	217	19	
2025-11-02T12:00	4660	567	-13.5	-15.1	215	19	
2025-11-02T12:00	4680	566	-13.6	-15.2	213	19	
2025-11-02T12:00	4700	564	-13.8	-15.3	212	19	
2025-11-02T12:00	4720	563	-13.9	-15.5	211	18	
2025-11-02T12:00	4740	561	-14.1	-15.5	211	18	
2025-11-02T12:00	4760	560	-14.2	-15.7	210	18	
2025-11-02T12:00	4780	558	-14.4	-15.8	210	18	
2025-11-02T12:00	4800	557	-14.5	-15.8	210	18	
2025-11-02T12:00	4820	555	-14.7	-15.9	210	18	
2025-11-02T12:00	4840	554	-14.9	-16.1	210	18	
2025-11-02T12:00	4860	553	-15.0	-16.1	210	18	
2025-11-02T12:00	4880	551	-15.2	-16.3	210	18	
2025-11-02T12:00	4900	549	-15.4	-16.4	210	18	
2025-11-02T12:00	4920	548	-15.5	-16.6	210	18	
2025-11-02T12:00	4940	547	-15.7	-16.8	210	18	
2025-11-02T12:00	4960	545	-15.8	-17.0	210	18	
2025-11-02T12:00	4980	544	-16.0	-17.0	210	17	
2025-11-02T12:00	5000	542	-16.1	-17.1	209	17	
2025-11-02T12:00	5020	541	-16.3	-17.2	209	17	
2025-11-02T12:00	5040	539	-16.5	-17.2	208	17	
2025-11-02T12:00	5060	538	-16.6	-17.4	208	17	
2025-11-02T12:00	5080	537	-16.8	-17.5	208	17	
2025-11-02T12:00	5100	535	-16.9	-18.1	207	17	
2025-11-02T12:00	5120	534	-17.1	-18.3	207	17	
2025-11-02T12:00	5140	532	-17.3	-18.5	207	17	
2025-11-02T12:00	5160	531	-17.4	-18.6	206	17	
2025-11-02T12:00	5180	529	-17.6	-18.6	206	17	
2025-11-02T12:00	5200	528	-17.7	-18.9	205	17	
2025-11-02T12:00	5220	527	-17.9	-19.0	204	17	
2025-11-02T12:00	5240	525	-18.0	-19.0	202	16	
2025-11-02T12:00	5260	524	-18.2	-19.1	201	16	
2025-11-02T12:00	5280	522	-18.3	-19.3	199	16	
2025-11-02T12:00	5300	521	-18.3	-19.3	198	16	
2025-11-02T12:00	5320	520	-18.4	-19.3	197	16	
2025-11-02T12:00	5340	518	-18.4	-19.4	196	16	
2025-11-02T12:00	5360	517	-18.5	-19.5	196	16	
2025-11-02T12:00	5380	515	-18.6	-19.5	195	16	
2025-11-02T12:00	5400	514	-18.8	-19.8	195	16	
2025-11-02T12:00	5420	513	-18.9	-19.9	195	16	
2025-11-02T12:00	5440	511	-19.1	-20.0	195	16	
2025-11-02T12:00	5460	510	-19.2	-20.1	195	16	
2025-11-02T12:00	5480	509	-19.3	-20.2	195	16	
2025-11-02T12:00	5500	507	-19.5	-20.3	195	16	
2025-11-02T12:00	5520	506	-19.6	-20.5	195	16	
2025-11-02T12:00	5540	504	-19.7	-20.7	196	16	
2025-11-02T12:00	5560	503	-19.8	-20.7	196	16	
2025-11-02T12:00	5580	502	-19.9	-20.8	196	16	
2025-11-02T12:00	5600	500	-20.0	-20.9	195	16	
2025-11-02T12:00	5620	499	-20.1	-21.1	195	16	
2025-11-02T12:00	5640	498	-20.3	-21.3	194	16	
2025-11-02T12:00	5660	496	-20.4	-21.5	194	16	
2025-11-02T12:00	5680	495	-20.5	-21.5	193	16	
2025-11-02T12:00	5700	494	-20.6	-21.7	193	16	
2025-11-02T12:00	5720	492	-20.7	-21.8	192	16	
2025-11-02T12:00	5740	491	-20.9	-22.0	192	16	
2025-11-02T12:00	5760	490	-21.0	-22.1	193	16	
2025-11-02T12:00	5780	488	-21.2	-22.3	194	16	
2025-11-02T12:00	5800	487	-21.3	-22.5	195	16	
2025-11-02T12:00	5820	486	-21.4	-22.6	196	16	
2025-11-02T12:00	5840	484	-21.5	-22.7	198	17	
2025-11-02T12:00	5860	483	-21.6	-23.0	199	17	
2025-11-02T12:00	5880	482	-21.7	-23.0	200	17	
2025-11-02T12:00	5900	481	-21.9	-23.1	201	18	
2025-11-02T12:00	5920	479	-22.0	-23.3	202	18	
2025-11-02T12:00	5940	478	-22.1	-23.5	203	18	
2025-11-02T12:00	5960	477	-22.2	-23.7	203	19	
2025-11-02T12:00	5980	475	-22.5	-24.0	203	19	
2025-11-02T12:00	6000	474	-22.6	-24.2	204	19	
2025-11-02T12:00	6020	473	-22.8	-24.4	204	19	
2025-11-02T12:00	6040	471	-22.9	-24.6	204	20	
2025-11-02T12:00	6060	470	-23.1	-24.6	205	20	
2025-11-02T12:00	6080	469	-23.2	-24.8	205	20	
2025-11-02T12:00	6100	468	-23.4	-25.2	206	20	
2025-11-02T12:00	6120	466	-23.5	-25.3	206	20	
2025-11-02T12:00	6140	465	-23.6	-25.5	206	20	
2025-11-02T12:00	6160	464	-23.8	-25.6	206	20	
2025-11-02T12:00	6180	462	-24.0	-25.8	206	20	
2025-11-02T12:00	6200	461	-24.1	-26.0	205	20	
2025-11-02T12:00	6220	460	-24.2	-26.1	205	20	
2025-11-02T12:00	6240	459	-24.3	-26.1	204	20	
2025-11-02T12:00	6260	457	-24.5	-26.3	203	20	
2025-11-02T12:00	6280	456	-24.6	-26.3	203	21	
2025-11-02T12:00	6300	455	-24.8	-26.4	203	21	
2025-11-02T12:00	6320	454	-24.9	-26.5	202	21	
2025-11-02T12:00	6340	452	-25.1	-26.9	202	21	
2025-11-02T12:00	6360	451	-25.3	-27.1	201	21	
2025-11-02T12:00	6380	450	-25.5	-27.1	201	21	
2025-11-02T12:00	6400	449	-25.6	-27.2	201	21	
2025-11-02T12:00	6420	447	-25.8	-27.5	200	21	
2025-11-02T12:00	6440	446	-25.9	-27.7	200	21	
2025-11-02T12:00	6460	445	-26.0	-27.8	200	22	
2025-11-02T12:00	6480	444	-26.2	-28.0	199	22	
2025-11-02T12:00	6500	443	-26.3	-28.1	199	22	
2025-11-02T12:00	6520	441	-26.5	-28.4	199	22	
2025-11-02T12:00	6540	440	-26.7	-28.5	198	22	
2025-11-02T12:00	6560	439	-26.8	-28.5	197	22	
2025-11-02T12:00	6580	438	-27.0	-28.7	196	22	
2025-11-02T12:00	6600	436	-27.1	-29.0	195	22	
2025-11-02T12:00	6620	435	-27.2	-29.2	195	22	
2025-11-02T12:00	6640	434	-27.2	-29.2	195	22	
2025-11-02T12:00	6660	433	-27.4	-29.3	195	22	
2025-11-02T12:00	6680	432	-27.5	-29.4	195	22	
2025-11-02T12:00	6700	430	-27.6	-29.6	196	23	
2025-11-02T12:00	6720	429	-27.8	-29.8	196	23	
2025-11-02T12:00	6740	428	-27.9	-30.0	197	23	
2025-11-02T12:00	6760	427	-28.1	-30.0	198	23	
2025-11-02T12:00	6780	426	-28.2	-30.1	198	23	
2025-11-02T12:00	6800	425	-28.4	-30.6	198	23	
2025-11-02T12:00	6820	423	-28.6	-30.8	199	23	
2025-11-02T12:00	6840	422	-28.7	-31.1	199	23	
2025-11-02T12:00	6860	421	-28.9	-31.1	199	23	
2025-11-02T12:00	6880	420	-29.0	-31.2	200	24	
2025-11-02T12:00	6900	419	-29.2	-31.3	200	24	
2025-11-02T12:00	6920	417	-29.3	-31.7	201	24	
2025-11-02T12:00	6940	416	-29.5	-31.8	201	24	
2025-11-02T12:00	6960	415	-29.6	-31.8	202	24	
2025-11-02T12:00	6980	414	-29.7	-32.0	202	24	
2025-11-02T12:00	7000	413	-29.8	-32.2	202	24	
2025-11-02T12:00	7020	412	-30.0	-32.4	203	25	
2025-11-02T12:00	7040	410	-30.1	-32.5	203	25	
2025-11-02T12:00	7060	409	-30.2	-32.6	203	25	
2025-11-02T12:00	7080	408	-30.4	-32.7	203	25	
2025-11-02T12:00	7100	407	-30.5	-32.9	202	25	
2025-11-02T12:00	7120	406	-30.6	-32.9	202	25	
2025-11-02T12:00	7140	405	-30.8	-33.2	202	25	
2025-11-02T12:00	7160	404	-30.9	-33.4	203	25	
2025-11-02T12:00	7180	402	-31.0	-33.5	203	25	
2025-11-02T12:00	7200	401	-31.1	-33.6	204	25	
2025-11-02T12:00	7220	400	-31.2	-33.7	204	25	
2025-11-02T12:00	7240	399	-31.3	-33.8	204	25	
2025-11-02T12:00	7260	398	-31.5	-34.0	204	25	
2025-11-02T12:00	7280	397	-31.6	-34.2	204	25	
2025-11-02T12:00	7300	396	-31.8	-34.3	203	25	
2025-11-02T12:00	7320	394	-32.0	-34.6	203	25	
2025-11-02T12:00	7340	393	-32.2	-34.7	202	26	
2025-11-02T12:00	7360	392	-32.3	-34.8	202	26	
2025-11-02T12:00	7380	391	-32.5	-35.1	203	26	
2025-11-02T12:00	7400	390	-32.6	-35.5	203	26	
2025-11-02T12:00	7420	389	-32.8	-35.5	203	26	
2025-11-02T12:00	7440	388	-32.9	-35.6	204	27	
2025-11-02T12:00	7460	387	-33.1	-35.8	204	27	
2025-11-02T12:00	7480	386	-33.2	-36.1	204	27	
2025-11-02T12:00	7500	385	-33.4	-36.1	204	28	
2025-11-02T12:00	7520	384	-33.5	-36.2	204	28	
2025-11-02T12:00	7540	382	-33.7	-36.4	204	29	
2025-11-02T12:00	7560	381	-33.8	-36.6	204	29	
2025-11-02T12:00	7580	380	-33.9	-36.7	205	29	
2025-11-02T12:00	7600	379	-34.0	-36.9	205	30	
2025-11-02T12:00	7620	378	-34.2	-37.2	206	30	
2025-11-02T12:00	7640	377	-34.4	-37.4	207	30	
2025-11-02T12:00	7660	376	-34.6	-37.4	207	30	
2025-11-02T12:00	7680	375	-34.7	-37.6	208	30	
2025-11-02T12:00	7700	374	-34.8	-38.2	209	30	
2025-11-02T12:00	7720	373	-35.0	-38.2	209	30	
2025-11-02T12:00	7740	372	-35.2	-38.5	209	30	
2025-11-02T12:00	7760	371	-35.4	-38.7	209	30	
2025-11-02T12:00	7780	370	-35.5	-38.8	210	30	
2025-11-02T12:00	7800	368	-35.7	-38.8	210	30	
2025-11-02T12:00	7820	367	-35.9	-39.0	210	30	
2025-11-02T12:00	7840	366	-36.1	-39.2	210	30	
2025-11-02T12:00	7860	365	-36.3	-39.3	210	30	
2025-11-02T12:00	7880	364	-36.4	-39.5	211	29	
2025-11-02T12:00	7900	363	-36.6	-39.7	211	29	
2025-11-02T12:00	7920	362	-36.8	-40.1	211	29	
2025-11-02T12:00	7940	361	-36.9	-40.4	212	29	
2025-11-02T12:00	7960	360	-37.1	-40.7	212	29	
2025-11-02T12:00	7980	359	-37.3	-40.8	213	29	
2025-11-02T12:00	8000	358	-37.4	-41.0	213	29	
2025-11-02T12:00	8020	357	-37.6	-41.2	214	29	
2025-11-02T12:00	8040	356	-37.8	-41.4	214	30	
2025-11-02T12:00	8060	355	-38.0	-41.4	214	30	
2025-11-02T12:00	8080	354	-38.2	-41.8	214	30	
2025-11-02T12:00	8100	353	-38.3	-42.7	213	30	
2025-11-02T12:00	8120	352	-38.5	-42.8	213	30	
2025-11-02T12:00	8140	351	-38.7	-43.1	213	30	
2025-11-02T12:00	8160	350	-38.9	-43.3	212	30	
2025-11-02T12:00	8180	349	-39.1	-43.2	212	30	
2025-11-02T12:00	8200	348	-39.3	-43.4	212	30	
2025-11-02T12:00	8220	347	-39.5	-43.8	211	30	
2025-11-02T12:00	8240	346	-39.6	-43.9	211	30	
2025-11-02T12:00	8260	345	-39.8	-44.0	211	30	
2025-11-02T12:00	8280	344	-40.0	-44.5	210	30	
2025-11-02T12:00	8300	343	-40.1	-44.7	210	30	
2025-11-02T12:00	8320	342	-40.3	-44.6	210	30	
2025-11-02T12:00	8340	341	-40.5	-44.8	210	30	
2025-11-02T12:00	8360	340	-40.6	-44.6	210	30	
2025-11-02T12:00	8380	339	-40.8	-44.6	210	30	
2025-11-02T12:00	8400	338	-41.0	-45.0	211	30	
2025-11-02T12:00	8420	337	-41.2	-46.0	211	30	
2025-11-02T12:00	8440	336	-41.4	-45.9	213	30	
2025-11-02T12:00	8460	335	-41.6	-46.8	214	31	
2025-11-02T12:00	8480	334	-41.8	-47.4	216	31	
2025-11-02T12:00	8500	333	-42.0	-47.3	217	32	
2025-11-02T12:00	8520	332	-42.2	-47.4	218	32	
2025-11-02T12:00	8540	331	-42.3	-47.3	219	33	
2025-11-02T12:00	8560	330	-42.5	-47.4	219	34	
2025-11-02T12:00	8580	329	-42.7	-47.9	219	34	
2025-11-02T12:00	8600	328	-42.9	-47.6	219	35	
2025-11-02T12:00	8620	327	-43.1	-47.3	219	35	
2025-11-02T12:00	8640	326	-43.3	-47.5	219	35	
2025-11-02T12:00	8660	325	-43.5	-47.0	219	35	
2025-11-02T12:00	8680	324	-43.7	-46.9	219	35	
2025-11-02T12:00	8700	323	-43.8	-48.4	219	36	
2025-11-02T12:00	8720	322	-44.1	-49.3	220	36	
2025-11-02T12:00	8740	321	-44.2	-49.6	221	36	
2025-11-02T12:00	8760	320	-44.5	-50.1	221	36	
2025-11-02T12:00	8780	319	-44.6	-50.3	221	36	
2025-11-02T12:00	8800	318	-44.8	-50.1	222	36	
2025-11-02T12:00	8820	317	-45.0	-49.5	222	36	
2025-11-02T12:00	8840	316	-45.2	-49.5	222	36	
2025-11-02T12:00	8860	315	-45.4	-49.6	222	36	
2025-11-02T12:00	8880	315	-45.5	-49.3	222	36	
2025-11-02T12:00	8900	314	-45.7	-49.4	222	36	
2025-11-02T12:00	8920	312	-45.9	-49.6	222	36	
2025-11-02T12:00	8940	312	-46.1	-49.7	222	36	
2025-11-02T12:00	8960	311	-46.3	-49.7	222	35	
2025-11-02T12:00	8980	310	-46.5	-49.6	221	35	
2025-11-02T12:00	9000	309	-46.7	-49.8	221	35	
2025-11-02T12:00	9020	308	-46.9	-51.2	221	35	
2025-11-02T12:00	9040	307	-47.1	-51.5	220	35	
2025-11-02T12:00	9060	306	-47.3	-51.0	220	35	
2025-11-02T12:00	9080	305	-47.5	-51.2	220	35	
2025-11-02T12:00	9100	304	-47.7	-51.3	219	35	
2025-11-02T12:00	9120	303	-47.9	-51.3	219	35	
2025-11-02T12:00	9140	302	-48.1	-51.5	219	36	
2025-11-02T12:00	9160	301	-48.2	-51.8	218	36	
2025-11-02T12:00	9180	300	-48.5	-51.8	218	36	
2025-11-02T12:00	9200	300	-48.6	-51.8	218	36	
2025-11-02T12:00	9220	299	-48.8	-52.1	217	35	
2025-11-02T12:00	9240	298	-49.0	-52.6	217	35	
2025-11-02T12:00	9260	297	-49.2	-52.7	217	35	
2025-11-02T12:00	9280	296	-49.4	-52.8	217	35	
2025-11-02T12:00	9300	295	-49.5	-53.0	217	35	
2025-11-02T12:00	9320	294	-49.8	-52.9	217	35	
2025-11-02T12:00	9340	293	-49.9	-52.7	217	35	
2025-11-02T12:00	9360	292	-50.1	-53.6	216	35	
2025-11-02T12:00	9380	291	-50.4	-54.8	216	35	
2025-11-02T12:00	9400	291	-50.6	-55.0	216	35	
2025-11-02T12:00	9420	290	-50.7	-54.9	217	35	
2025-11-02T12:00	9440	289	-50.9	-55.3	217	35	
2025-11-02T12:00	9460	288	-51.1	-55.5	217	35	
2025-11-02T12:00	9480	287	-51.3	-55.6	218	35	
2025-11-02T12:00	9500	286	-51.5	-55.6	219	35	
2025-11-02T12:00	9520	285	-51.7	-55.6	219	35	
2025-11-02T12:00	9540	284	-51.9	-55.7	219	35	
2025-11-02T12:00	9560	284	-52.0	-55.8	219	35	
2025-11-02T12:00	9580	283	-52.3	-56.0	219	36	
2025-11-02T12:00	9600	282	-52.5	-56.2	218	36	
2025-11-02T12:00	9620	281	-52.7	-56.3	218	36	
2025-11-02T12:00	9640	280	-52.9	-56.5	217	36	
2025-11-02T12:00	9660	279	-53.1	-56.6	217	36	
2025-11-02T12:00	9680	278	-53.2	-56.8	216	37	
2025-11-02T12:00	9700	277	-53.4	-56.9	216	37	
2025-11-02T12:00	9720	277	-53.6	-57.0	216	37	
2025-11-02T12:00	9740	276	-53.8	-57.3	216	37	
2025-11-02T12:00	9760	275	-54.0	-57.6	215	38	
2025-11-02T12:00	9780	274	-54.2	-57.9	215	38	
2025-11-02T12:00	9800	273	-54.4	-58.5	215	38	
2025-11-02T12:00	9820	272	-54.6	-59.3	215	38	
2025-11-02T12:00	9840	271	-54.8	-59.9	215	38	
2025-11-02T12:00	9860	271	-55.0	-60.3	215	38	
2025-11-02T12:00	9880	270	-55.2	-60.3	215	38	
2025-11-02T12:00	9900	269	-55.4	-60.2	215	38	
2025-11-02T12:00	9920	268	-55.6	-60.3	215	38	
2025-11-02T12:00	9940	267	-55.8	-60.5	215	38	
2025-11-02T12:00	9960	266	-56.0	-60.6	215	38	
2025-11-02T12:00	9980	265	-56.1	-60.7	215	38	
2025-11-02T12:00	10000	265	-56.4	-60.8	216	39	
2025-11-02T12:00	10018	264	-56.6	-60.7	216	39	
2025-11-02T12:00	10050	263	-56.8	-60.6	217	40	
2025-11-02T12:00	10100	260	-57.1	-62.2	218	41	
2025-11-02T12:00	10150	258	-55.3	-68.0	219	40	
2025-11-02T12:00	10200	257	-54.4	-78.2	220	38	
2025-11-02T12:00	10250	254	-53.9	-80.7	221	37	
2025-11-02T12:00	10300	253	-53.4	-76.9	221	37	
2025-11-02T12:00	10350	250	-53.5	-75.7	220	37	
2025-11-02T12:00	10400	249	-53.9	-75.0	220	37	
2025-11-02T12:00	10450	247	-53.9	-74.7	219	37	
2025-11-02T12:00	10500	245	-53.6	-74.5	218	37	
2025-11-02T12:00	10550	243	-53.9	-74.5	216	36	
2025-11-02T12:00	10600	241	-53.9	-74.5	214	36	
2025-11-02T12:00	10650	239	-53.7	-74.7	213	35	
2025-11-02T12:00	10700	237	-53.6	-75.1	213	35	
2025-11-02T12:00	10750	235	-53.9	-75.2	214	35	
2025-11-02T12:00	10800	233	-54.4	-75.2	215	35	
2025-11-02T12:00	10850	232	-54.8	-75.2	218	35	
2025-11-02T12:00	10900	230	-54.9	-75.4	220	34	
2025-11-02T12:00	10950	228	-54.4	-75.8	222	33	
2025-11-02T12:00	11000	226	-54.3	-76.1	223	33	
2025-11-02T12:00	11050	225	-54.4	-76.2	224	33	
2025-11-02T12:00	11100	223	-54.5	-76.9	225	32	
2025-11-02T12:00	11150	221	-54.4	-77.4	226	32	
2025-11-02T12:00	11200	219	-54.4	-77.5	227	32	
2025-11-02T12:00	11250	218	-54.3	-77.6	228	31	
2025-11-02T12:00	11300	216	-54.3	-78.2	229	30	
2025-11-02T12:00	11350	214	-54.2	-78.5	230	30	
2025-11-02T12:00	11400	213	-54.4	-78.4	230	29	
2025-11-02T12:00	11450	211	-54.6	-78.2	230	29	
2025-11-02T12:00	11500	209	-54.8	-78.3	230	29	
2025-11-02T12:00	11550	208	-54.8	-78.8	231	30	
2025-11-02T12:00	11600	206	-55.1	-79.0	233	30	
2025-11-02T12:00	11650	205	-55.5	-78.8	234	31	
2025-11-02T12:00	11700	203	-55.7	-79.0	233	31	
2025-11-02T12:00	11750	201	-55.8	-79.1	233	31	
2025-11-02T12:00	11800	200	-55.8	-79.3	233	31	
2025-11-02T12:00	11850	198	-55.8	-79.4	234	30	
2025-11-02T12:00	11900	197	-55.8	-79.4	235	29	
2025-11-02T12:00	11950	195	-55.7	-79.4	237	29	
2025-11-02T12:00	12000	194	-55.8	-79.5	238	29	
2025-11-02T12:00	12050	192	-55.9	-79.6	238	30	
2025-11-02T12:00	12100	191	-55.9	-79.7	240	30	
2025-11-02T12:00	12150	189	-56.0	-79.8	241	29	
2025-11-02T12:00	12200	188	-55.9	-79.9	241	29	
2025-11-02T12:00	12250	186	-55.8	-79.9	239	29	
2025-11-02T12:00	12300	185	-56.0	-79.9	238	29	
2025-11-02T12:00	12350	183	-56.1	-80.0	237	29	
2025-11-02T12:00	12400	182	-55.8	-80.1	238	29	
2025-11-02T12:00	12450	180	-55.3	-80.1	239	29	
2025-11-02T12:00	12500	179	-55.6	-80.1	241	29	
2025-11-02T12:00	12550	178	-55.9	-80.3	243	28	
2025-11-02T12:00	12600	176	-56.0	-80.3	244	28	
2025-11-02T12:00	12650	175	-56.1	-80.4	245	27	
2025-11-02T12:00	12700	173	-56.3	-80.5	246	27	
2025-11-02T12:00	12750	172	-56.3	-80.7	246	26	
2025-11-02T12:00	12800	171	-56.2	-80.6	245	26	
2025-11-02T12:00	12850	169	-56.6	-80.7	244	26	
2025-11-02T12:00	12900	168	-57.0	-80.8	244	26	
2025-11-02T12:00	12950	167	-57.2	-80.9	243	26	
2025-11-02T12:00	13000	165	-57.4	-81.0	244	26	
2025-11-02T12:00	13050	164	-57.3	-81.2	245	26	
2025-11-02T12:00	13100	163	-56.8	-81.3	245	26	
2025-11-02T12:00	13150	162	-56.8	-81.4	245	26	
2025-11-02T12:00	13200	160	-57.0	-81.5	246	26	
2025-11-02T12:00	13250	159	-56.9	-81.6	246	25	
2025-11-02T12:00	13300	158	-57.1	-81.6	247	25	
2025-11-02T12:00	13350	157	-57.2	-81.7	248	25	
2025-11-02T12:00	13400	155	-57.0	-81.7	250	26	
2025-11-02T12:00	13450	154	-57.2	-81.8	252	26	
2025-11-02T12:00	13500	153	-57.4	-81.8	254	27	
2025-11-02T12:00	13550	152	-57.6	-81.9	256	26	
2025-11-02T12:00	13600	150	-57.3	-82.0	256	26	
2025-11-02T12:00	13650	149	-57.0	-82.1	254	25	
2025-11-02T12:00	13700	148	-57.1	-82.2	253	23	
2025-11-02T12:00	13750	147	-56.9	-82.1	252	22	
2025-11-02T12:00	13800	146	-57.2	-82.2	250	22	
2025-11-02T12:00	13850	145	-57.4	-82.3	249	21	
2025-11-02T12:00	13900	143	-57.8	-82.4	247	21	
2025-11-02T12:00	13950	142	-58.1	-82.3	246	21	
2025-11-02T12:00	14000	141	-58.5	-82.5	247	21	
2025-11-02T12:00	14050	140	-58.6	-82.6	250	22	
2025-11-02T12:00	14100	139	-58.6	-82.6	254	22	
2025-11-02T12:00	14150	138	-58.9	-82.8	257	23	
2025-11-02T12:00	14200	137	-58.8	-82.8	259	23	
2025-11-02T12:00	14250	136	-58.5	-82.9	259	22	
2025-11-02T12:00	14300	135	-58.7	-82.9	258	22	
2025-11-02T12:00	14350	134	-59.1	-83.0	257	22	
2025-11-02T12:00	14400	132	-59.4	-83.0	257	22	
2025-11-02T12:00	14450	131	-59.7	-83.2	255	22	
2025-11-02T12:00	14500	130	-59.9	-83.3	252	22	
2025-11-02T12:00	14550	129	-60.0	-83.4	251	23	
2025-11-02T12:00	14600	128	-59.5	-83.4	252	23	
2025-11-02T12:00	14650	127	-59.4	-83.5	253	24	
2025-11-02T12:00	14700	126	-59.6	-83.6	253	25	
2025-11-02T12:00	14750	125	-59.9	-83.5	253	25	
2025-11-02T12:00	14800	124	-60.2	-83.6	254	25	
2025-11-02T12:00	14850	123	-60.5	-83.7	255	25	
2025-11-02T12:00	14900	122	-60.8	-83.7	257	25	
2025-11-02T12:00	14950	121	-61.0	-84.0	258	25	
2025-11-02T12:00	15000	120	-60.4	-83.9	258	25	
2025-11-02T12:00	15050	119	-60.0	-83.9	257	25	
2025-11-02T12:00	15100	118	-59.5	-83.9	256	26	
2025-11-02T12:00	15150	117	-58.8	-84.0	257	27	
2025-11-02T12:00	15200	117	-57.9	-83.9	258	27	
2025-11-02T12:00	15250	116	-57.5	-83.9	260	26	
2025-11-02T12:00	15300	115	-57.4	-83.9	262	25	
2025-11-02T12:00	15350	114	-56.9	-83.8	263	23	
2025-11-02T12:00	15400	113	-56.7	-83.8	265	22	
2025-11-02T12:00	15450	112	-56.2	-83.6	264	20	
2025-11-02T12:00	15500	111	-55.5	-83.3	262	18	
2025-11-02T12:00	15550	110	-55.5	-83.2	261	16	
2025-11-02T12:00	15600	109	-55.7	-83.3	258	15	
2025-11-02T12:00	15650	109	-56.0	-83.4	254	14	
2025-11-02T12:00	15700	108	-56.3	-83.4	249	14	
2025-11-02T12:00	15750	107	-56.5	-83.5	244	14	
2025-11-02T12:00	15800	106	-56.7	-83.6	241	14	
2025-11-02T12:00	15850	105	-57.1	-83.7	240	15	
2025-11-02T12:00	15900	104	-57.6	-83.8	239	15	
2025-11-02T12:00	15950	104	-58.0	-83.8	238	15	
2025-11-02T12:00	16000	103	-58.5	-83.9	238	15	
2025-11-02T12:00	16050	102	-58.8	-84.0	239	16	
2025-11-02T12:00	16100	101	-59.1	-84.2	241	16	
2025-11-02T12:00	16150	100	-59.5	-84.4	243	17	
2025-11-02T12:00	16200	100	-59.9	-84.5	246	17	
2025-11-02T12:00	16250	99	-60.1	-84.5	249	16	
2025-11-02T12:00	16300	98	-60.5	-84.6	252	17	
2025-11-02T12:00	16350	97	-60.9	-84.7	254	17	
2025-11-02T12:00	16400	96	-61.2	-84.9	254	17	
2025-11-02T12:00	16450	96	-61.4	-85.0	253	18	
2025-11-02T12:00	16500	95	-61.7	-85.2	251	19	
2025-11-02T12:00	16550	94	-62.0	-85.4	250	21	
2025-11-02T12:00	16600	93	-61.9	-85.5	250	22	
2025-11-02T12:00	16650	93	-61.4	-85.4	251	22	
2025-11-02T12:00	16700	92	-61.2	-85.5	253	22	
2025-11-02T12:00	16750	91	-61.0	-85.6	257	21	
2025-11-02T12:00	16800	90	-60.8	-85.6	260	20	
2025-11-02T12:00	16850	90	-60.4	-85.5	262	19	
2025-11-02T12:00	16900	89	-60.0	-85.5	263	17	
2025-11-02T12:00	16950	88	-59.8	-85.6	264	17	
2025-11-02T12:00	17000	87	-59.5	-85.4	266	17	
2025-11-02T12:00	17050	87	-59.6	-85.3	268	18	
2025-11-02T12:00	17100	86	-59.9	-85.3	268	19	
2025-11-02T12:00	17150	85	-60.2	-85.4	269	19	
2025-11-02T12:00	17200	85	-60.4	-85.5	269	18	
2025-11-02T12:00	17250	84	-60.3	-85.4	270	18	
2025-11-02T12:00	17300	83	-60.6	-85.5	271	18	
2025-11-02T12:00	17350	83	-60.9	-85.6	272	18	
2025-11-02T12:00	17400	82	-61.3	-85.6	273	18	
2025-11-02T12:00	17450	81	-61.6	-85.8	273	19	
2025-11-02T12:00	17500	81	-61.6	-86.0	274	18	
2025-11-02T12:00	17550	80	-61.7	-86.1	275	17	
2025-11-02T12:00	17600	79	-61.7	-86.1	278	15	
2025-11-02T12:00	17650	79	-61.9	-86.1	279	14	
2025-11-02T12:00	17700	78	-62.2	-86.1	279	13	
2025-11-02T12:00	17750	78	-62.2	-86.2	279	13	
2025-11-03T00:00	491	963	7.6	5.6	211	1	
2025-11-03T00:00	520	960	7.9	5.6	225	2	
2025-11-03T00:00	540	958	8.0	5.4	222	3	
2025-11-03T00:00	560	955	7.9	5.3	219	4	
2025-11-03T00:00	580	953	7.9	5.1	215	5	
2025-11-03T00:00	600	951	7.8	5.1	213	5	
2025-11-03T00:00	620	948	7.7	4.9	211	6	
2025-11-03T00:00	640	946	7.9	4.8	210	6	
2025-11-03T00:00	660	944	7.9	4.7	209	7	
2025-11-03T00:00	680	942	7.7	4.7	209	7	
2025-11-03T00:00	700	939	7.6	4.6	210	8	
2025-11-03T00:00	720	937	7.5	4.5	211	8	
2025-11-03T00:00	740	935	7.3	4.5	213	8	
2025-11-03T00:00	760	933	7.1	4.5	215	9	
2025-11-03T00:00	780	930	6.9	4.4	217	9	
2025-11-03T00:00	800	928	6.8	4.4	220	9	
2025-11-03T00:00	820	926	6.5	4.3	222	10	
2025-11-03T00:00	840	924	6.4	4.3	225	10	
2025-11-03T00:00	860	921	6.2	4.1	227	10	
2025-11-03T00:00	880	919	6.0	4.2	230	10	
2025-11-03T00:00	900	917	5.8	4.3	233	10	
2025-11-03T00:00	920	915	5.6	4.2	236	10	
2025-11-03T00:00	940	912	5.5	3.5	240	10	
2025-11-03T00:00	960	910	6.1	1.6	244	10	
2025-11-03T00:00	980	908	6.0	1.5	248	10	
2025-11-03T00:00	1000	906	5.8	1.4	250	10	
2025-11-03T00:00	1020	904	5.6	1.3	251	10	
2025-11-03T00:00	1040	901	5.5	1.2	252	9	
2025-11-03T00:00	1060	899	5.3	1.1	252	9	
2025-11-03T00:00	1080	897	5.1	1.1	252	9	
2025-11-03T00:00	1100	895	4.9	1.0	251	9	
2025-11-03T00:00	1120	892	4.7	1.0	251	9	
2025-11-03T00:00	1140	890	4.5	0.9	251	9	
2025-11-03T00:00	1160	888	4.3	0.9	251	9	
2025-11-03T00:00	1180	886	4.1	0.8	253	8	
2025-11-03T00:00	1200	884	3.9	0.6	255	8	
2025-11-03T00:00	1220	882	3.8	0.4	257	8	
2025-11-03T00:00	1240	879	3.7	0.3	260	8	
2025-11-03T00:00	1260	877	3.5	0.0	261	8	
2025-11-03T00:00	1280	875	3.3	0.0	261	7	
2025-11-03T00:00	1300	873	3.1	-0.1	261	7	
2025-11-03T00:00	1320	871	2.9	-0.3	260	7	
2025-11-03T00:00	1340	869	2.8	-0.6	260	7	
2025-11-03T00:00	1360	867	2.6	-0.6	261	7	
2025-11-03T00:00	1380	864	2.5	-1.0	263	7	
2025-11-03T00:00	1400	862	2.3	-1.3	266	7	
2025-11-03T00:00	1420	860	2.1	-1.2	272	7	
2025-11-03T00:00	1440	858	2.0	-1.3	275	7	
2025-11-03T00:00	1460	856	1.8	-1.6	279	7	
2025-11-03T00:00	1480	854	1.9	-2.5	281	7	
2025-11-03T00:00	1500	852	1.8	-2.7	282	8	
2025-11-03T00:00	1520	850	1.7	-2.7	282	8	
2025-11-03T00:00	1540	847	1.5	-2.9	282	8	
2025-11-03T00:00	1560	845	1.3	-2.8	281	8	
2025-11-03T00:00	1580	843	1.1	-2.8	279	8	
2025-11-03T00:00	1600	841	1.0	-3.0	277	7	
2025-11-03T00:00	1620	839	0.8	-3.0	276	7	
2025-11-03T00:00	1640	837	0.6	-3.1	275	7	
2025-11-03T00:00	1660	835	0.5	-3.1	275	7	
2025-11-03T00:00	1680	833	0.3	-3.3	277	7	
2025-11-03T00:00	1700	831	0.1	-3.4	279	7	
2025-11-03T00:00	1720	829	0.0	-3.5	282	7	
2025-11-03T00:00	1740	826	-0.2	-3.6	284	7	
2025-11-03T00:00	1760	824	-0.4	-3.7	285	7	
2025-11-03T00:00	1780	822	-0.6	-3.9	286	7	
2025-11-03T00:00	1800	820	-0.7	-4.5	287	7	
2025-11-03T00:00	1820	818	-0.8	-5.0	285	6	
2025-11-03T00:00	1840	816	-0.9	-5.3	283	6	
2025-11-03T00:00	1860	814	-1.0	-5.5	280	6	
2025-11-03T00:00	1880	812	-1.2	-5.7	277	6	
2025-11-03T00:00	1900	810	-1.4	-5.7	274	6	
2025-11-03T00:00	1920	808	-1.6	-5.6	273	6	
2025-11-03T00:00	1940	806	-1.7	-5.8	273	6	
2025-11-03T00:00	1960	804	-1.8	-6.0	274	6	
2025-11-03T00:00	1980	802	-2.0	-5.9	277	6	
2025-11-03T00:00	2000	800	-2.2	-6.0	279	6	
2025-11-03T00:00	2020	798	-2.4	-6.0	282	6	
2025-11-03T00:00	2040	796	-2.5	-6.2	283	6	
2025-11-03T00:00	2060	794	-2.6	-6.4	285	6	
2025-11-03T00:00	2080	792	-2.9	-6.4	286	6	
2025-11-03T00:00	2100	790	-2.9	-7.3	287	6	
2025-11-03T00:00	2120	788	-3.1	-7.2	288	7	
2025-11-03T00:00	2140	786	-3.3	-7.3	288	7	
2025-11-03T00:00	2160	784	-3.5	-7.4	288	7	
2025-11-03T00:00	2180	782	-3.7	-7.4	286	7	
2025-11-03T00:00	2200	780	-3.9	-7.3	284	7	
2025-11-03T00:00	2220	778	-4.1	-7.4	281	7	
2025-11-03T00:00	2240	776	-4.2	-7.7	279	8	
2025-11-03T00:00	2260	774	-4.3	-7.8	276	8	
2025-11-03T00:00	2280	772	-4.3	-8.6	275	9	
2025-11-03T00:00	2300	770	-4.1	-9.7	274	9	
2025-11-03T00:00	2320	768	-4.2	-9.7	274	9	
2025-11-03T00:00	2340	766	-4.3	-9.6	275	10	
2025-11-03T00:00	2360	764	-4.4	-9.7	276	10	
2025-11-03T00:00	2380	763	-4.6	-10.1	277	10	
2025-11-03T00:00	2400	761	-4.7	-10.9	278	10	
2025-11-03T00:00	2420	759	-4.8	-11.3	279	10	
2025-11-03T00:00	2440	757	-4.8	-11.4	280	9	
2025-11-03T00:00	2460	755	-5.0	-11.6	280	9	
2025-11-03T00:00	2480	753	-5.1	-11.9	280	9	
2025-11-03T00:00	2500	751	-5.2	-12.5	279	9	
2025-11-03T00:00	2520	749	-5.4	-12.7	277	9	
2025-11-03T00:00	2540	747	-5.5	-12.8	276	8	
2025-11-03T00:00	2560	745	-5.7	-12.7	274	9	
2025-11-03T00:00	2580	743	-5.8	-12.8	274	9	
2025-11-03T00:00	2600	741	-6.0	-12.7	276	9	
2025-11-03T00:00	2620	740	-6.2	-12.5	278	9	
2025-11-03T00:00	2640	738	-6.4	-12.5	280	9	
2025-11-03T00:00	2660	736	-6.6	-12.2	283	10	
2025-11-03T00:00	2680	734	-6.8	-12.1	286	10	
2025-11-03T00:00	2700	732	-6.9	-11.9	287	10	
2025-11-03T00:00	2720	730	-7.0	-11.9	288	10	
2025-11-03T00:00	2740	728	-7.2	-12.0	288	10	
2025-11-03T00:00	2760	726	-7.4	-12.0	288	11	
2025-11-03T00:00	2780	725	-7.6	-11.9	288	11	
2025-11-03T00:00	2800	723	-7.7	-11.8	288	11	
2025-11-03T00:00	2820	721	-7.9	-11.7	288	11	
2025-11-03T00:00	2840	719	-8.0	-11.5	288	11	
2025-11-03T00:00	2860	717	-8.2	-11.3	290	11	
2025-11-03T00:00	2880	715	-8.4	-11.1	291	11	
2025-11-03T00:00	2900	714	-8.5	-11.2	291	11	
2025-11-03T00:00	2920	712	-8.7	-11.1	290	11	
2025-11-03T00:00	2940	710	-8.9	-11.2	289	11	
2025-11-03T00:00	2960	708	-9.1	-11.3	287	11	
2025-11-03T00:00	2980	706	-9.2	-11.4	284	11	
2025-11-03T00:00	3000	704	-9.4	-11.6	281	12	
2025-11-03T00:00	3020	702	-9.6	-11.7	278	12	
2025-11-03T00:00	3040	700	-9.8	-11.8	277	12	
2025-11-03T00:00	3060	699	-9.9	-11.9	277	12	
2025-11-03T00:00	3080	697	-10.1	-11.9	277	12	
2025-11-03T00:00	3100	695	-10.2	-12.2	279	12	
2025-11-03T00:00	3120	693	-10.4	-12.3	281	12	
2025-11-03T00:00	3140	692	-10.6	-12.4	284	12	
2025-11-03T00:00	3160	690	-10.7	-12.8	286	12	
2025-11-03T00:00	3180	688	-10.8	-13.2	288	12	
2025-11-03T00:00	3200	686	-10.8	-13.8	289	12	
2025-11-03T00:00	3220	685	-10.9	-14.7	288	13	
2025-11-03T00:00	3240	683	-10.9	-15.2	287	12	
2025-11-03T00:00	3260	681	-11.0	-15.9	286	12	
2025-11-03T00:00	3280	679	-11.1	-15.8	285	12	
2025-11-03T00:00	3300	677	-11.3	-14.3	285	12	
2025-11-03T00:00	3320	676	-11.4	-14.5	286	12	
2025-11-03T00:00	3340	674	-11.5	-16.7	286	12	
2025-11-03T00:00	3360	672	-11.6	-17.5	287	12	
2025-11-03T00:00	3380	670	-11.7	-17.3	287	12	
2025-11-03T00:00	3400	669	-11.5	-18.7	285	12	
2025-11-03T00:00	3420	667	-11.6	-17.5	283	12	
2025-11-03T00:00	3440	665	-11.6	-18.4	280	12	
2025-11-03T00:00	3460	663	-11.7	-19.4	276	11	
2025-11-03T00:00	3480	662	-11.1	-23.5	272	11	
2025-11-03T00:00	3500	660	-11.0	-25.6	271	11	
2025-11-03T00:00	3520	658	-11.1	-23.7	270	10	
2025-11-03T00:00	3540	657	-11.3	-20.8	270	10	
2025-11-03T00:00	3560	655	-11.4	-22.8	272	10	
2025-11-03T00:00	3580	653	-11.5	-26.3	274	9	
2025-11-03T00:00	3600	651	-11.6	-26.5	274	9	
2025-11-03T00:00	3620	650	-11.7	-27.0	274	9	
2025-11-03T00:00	3640	648	-11.8	-27.7	274	9	
2025-11-03T00:00	3660	646	-11.9	-27.3	273	10	
2025-11-03T00:00	3680	645	-12.1	-24.6	272	10	
2025-11-03T00:00	3700	643	-12.2	-24.7	271	10	
2025-11-03T00:00	3720	641	-12.2	-25.4	272	10	
2025-11-03T00:00	3740	640	-12.3	-29.0	272	10	
2025-11-03T00:00	3760	638	-12.3	-32.9	273	10	
2025-11-03T00:00	3780	636	-12.4	-32.2	275	10	
2025-11-03T00:00	3800	634	-12.6	-32.4	277	10	
2025-11-03T00:00	3820	633	-12.7	-32.2	279	9	
2025-11-03T00:00	3840	631	-12.9	-31.2	280	9	
2025-11-03T00:00	3860	629	-13.1	-30.9	280	9	
2025-11-03T00:00	3880	628	-13.2	-30.9	279	8	
2025-11-03T00:00	3900	626	-13.4	-30.9	277	8	
2025-11-03T00:00	3920	625	-13.5	-31.9	275	8	
2025-11-03T00:00	3940	623	-13.4	-34.2	273	8	
2025-11-03T00:00	3960	621	-13.2	-38.6	271	8	
2025-11-03T00:00	3980	620	-13.1	-40.1	270	8	
2025-11-03T00:00	4000	618	-13.1	-40.8	269	9	
2025-11-03T00:00	4020	616	-13.2	-40.7	269	9	
2025-11-03T00:00	4040	615	-13.4	-39.9	267	9	
2025-11-03T00:00	4060	613	-13.6	-38.8	264	10	
2025-11-03T00:00	4080	612	-13.7	-36.2	261	10	
2025-11-03T00:00	4100	610	-13.9	-35.2	259	10	
2025-11-03T00:00	4120	608	-14.1	-34.5	259	10	
2025-11-03T00:00	4140	607	-14.2	-33.5	260	10	
2025-11-03T00:00	4160	605	-14.4	-32.7	262	10	
2025-11-03T00:00	4180	604	-14.6	-32.2	265	10	
2025-11-03T00:00	4200	602	-14.8	-31.2	269	9	
2025-11-03T00:00	4220	600	-15.0	-30.0	274	9	
2025-11-03T00:00	4240	599	-15.0	-29.2	277	9	
2025-11-03T00:00	4260	597	-15.0	-27.5	278	8	
2025-11-03T00:00	4280	596	-14.9	-29.4	278	8	
2025-11-03T00:00	4300	594	-14.7	-35.4	276	8	
2025-11-03T00:00	4320	593	-14.8	-37.3	275	8	
2025-11-03T00:00	4340	591	-14.9	-37.2	274	8	
2025-11-03T00:00	4360	589	-15.1	-36.6	273	8	
2025-11-03T00:00	4380	588	-15.2	-36.4	273	9	
2025-11-03T00:00	4400	586	-15.4	-36.4	274	9	
2025-11-03T00:00	4420	585	-15.6	-36.6	274	9	
2025-11-03T00:00	4440	583	-15.7	-36.8	274	8	
2025-11-03T00:00	4460	582	-15.9	-36.8	274	8	
2025-11-03T00:00	4480	580	-16.0	-37.0	275	8	
2025-11-03T00:00	4500	579	-16.2	-37.1	275	8	
2025-11-03T00:00	4520	577	-16.4	-37.4	276	8	
2025-11-03T00:00	4540	575	-16.6	-37.5	277	8	
2025-11-03T00:00	4560	574	-16.8	-38.1	277	8	
2025-11-03T00:00	4580	572	-17.0	-38.3	278	9	
2025-11-03T00:00	4600	571	-17.1	-37.0	279	9	
2025-11-03T00:00	4620	569	-17.3	-34.4	280	9	
2025-11-03T00:00	4640	568	-17.4	-33.3	281	9	
2025-11-03T00:00	4660	566	-17.6	-34.0	282	8	
2025-11-03T00:00	4680	565	-17.8	-33.2	283	8	
2025-11-03T00:00	4700	563	-18.0	-32.9	285	8	
2025-11-03T00:00	4720	562	-18.2	-32.4	287	8	
2025-11-03T00:00	4740	560	-18.3	-32.2	290	7	
2025-11-03T00:00	4760	559	-18.4	-34.5	291	8	
2025-11-03T00:00	4780	557	-18.6	-36.0	292	8	
2025-11-03T00:00	4800	556	-18.7	-36.9	292	8	
2025-11-03T00:00	4820	554	-18.8	-38.1	292	9	
2025-11-03T00:00	4840	553	-18.9	-36.0	292	9	
2025-11-03T00:00	4860	551	-19.1	-33.9	292	10	
2025-11-03T00:00	4880	550	-19.2	-36.8	293	10	
2025-11-03T00:00	4900	548	-19.2	-39.4	294	10	
2025-11-03T00:00	4920	547	-19.4	-39.0	296	10	
2025-11-03T00:00	4940	546	-19.5	-39.0	299	10	
2025-11-03T00:00	4960	544	-19.7	-39.0	300	10	
2025-11-03T00:00	4980	543	-19.9	-39.0	300	10	
2025-11-03T00:00	5000	541	-20.0	-39.1	300	10	
2025-11-03T00:00	5020	540	-20.2	-39.7	297	10	
2025-11-03T00:00	5040	538	-20.4	-40.3	295	10	
2025-11-03T00:00	5060	537	-20.5	-40.9	293	10	
2025-11-03T00:00	5080	535	-20.6	-43.4	291	10	
2025-11-03T00:00	5100	534	-20.7	-44.5	290	10	
2025-11-03T00:00	5120	532	-20.8	-44.6	289	10	
2025-11-03T00:00	5140	531	-20.9	-44.9	290	10	
2025-11-03T00:00	5160	530	-21.0	-45.9	291	10	
2025-11-03T00:00	5180	528	-21.0	-46.5	292	10	
2025-11-03T00:00	5200	527	-21.2	-46.8	292	10	
2025-11-03T00:00	5220	525	-21.3	-46.6	292	10	
2025-11-03T00:00	5240	524	-21.4	-45.6	290	10	
2025-11-03T00:00	5260	522	-21.5	-45.8	288	10	
2025-11-03T00:00	5280	521	-21.7	-45.9	287	10	
2025-11-03T00:00	5300	520	-21.8	-44.9	286	9	
2025-11-03T00:00	5320	518	-22.0	-44.8	285	9	
2025-11-03T00:00	5340	517	-22.2	-44.6	286	9	
2025-11-03T00:00	5360	515	-22.3	-44.7	287	10	
2025-11-03T00:00	5380	514	-22.5	-45.0	288	10	
2025-11-03T00:00	5400	512	-22.7	-44.8	289	10	
2025-11-03T00:00	5420	511	-22.8	-46.8	291	10	
2025-11-03T00:00	5440	510	-23.0	-45.3	293	11	
2025-11-03T00:00	5460	508	-23.1	-44.9	295	11	
2025-11-03T00:00	5480	507	-23.2	-45.8	296	12	
2025-11-03T00:00	5500	505	-23.3	-47.0	298	12	
2025-11-03T00:00	5520	504	-23.2	-47.8	299	13	
2025-11-03T00:00	5540	503	-23.0	-49.2	301	13	
2025-11-03T00:00	5560	501	-22.9	-49.2	302	13	
2025-11-03T00:00	5580	500	-22.9	-49.5	303	13	
2025-11-03T00:00	5600	499	-23.0	-50.2	304	14	
2025-11-03T00:00	5620	497	-23.1	-50.8	305	14	
2025-11-03T00:00	5640	496	-23.1	-51.5	306	14	
2025-11-03T00:00	5660	495	-23.2	-51.8	307	14	
2025-11-03T00:00	5680	493	-23.3	-52.1	307	14	
2025-11-03T00:00	5700	492	-23.3	-53.0	308	15	
2025-11-03T00:00	5720	490	-23.2	-53.7	308	15	
2025-11-03T00:00	5740	489	-23.2	-53.9	308	15	
2025-11-03T00:00	5760	488	-23.3	-54.1	308	15	
2025-11-03T00:00	5780	487	-23.4	-54.2	308	16	
2025-11-03T00:00	5800	485	-23.4	-54.5	308	17	
2025-11-03T00:00	5820	484	-23.4	-54.7	309	17	
2025-11-03T00:00	5840	483	-23.3	-54.1	309	18	
2025-11-03T00:00	5860	481	-23.5	-54.2	310	19	
2025-11-03T00:00	5880	480	-23.6	-53.8	311	20	
2025-11-03T00:00	5900	479	-23.7	-53.6	312	20	
2025-11-03T00:00	5920	477	-23.6	-53.3	314	21	
2025-11-03T00:00	5940	476	-23.5	-53.1	316	21	
2025-11-03T00:00	5960	475	-23.6	-53.1	317	22	
2025-11-03T00:00	5980	473	-23.8	-53.2	318	22	
2025-11-03T00:00	6000	472	-23.9	-53.3	318	22	
2025-11-03T00:00	6020	471	-24.0	-53.6	318	23	
2025-11-03T00:00	6040	469	-24.0	-54.1	317	23	
2025-11-03T00:00	6060	468	-24.1	-54.4	317	24	
2025-11-03T00:00	6080	467	-24.1	-54.6	316	25	
2025-11-03T00:00	6100	466	-24.2	-54.8	315	25	
2025-11-03T00:00	6120	464	-24.2	-54.9	315	26	
2025-11-03T00:00	6140	463	-24.1	-54.9	315	26	
2025-11-03T00:00	6160	462	-24.1	-54.9	315	26	
2025-11-03T00:00	6180	461	-24.1	-54.9	316	27	
2025-11-03T00:00	6200	459	-24.3	-55.0	317	27	
2025-11-03T00:00	6220	458	-24.4	-55.0	318	27	
2025-11-03T00:00	6240	457	-24.5	-55.1	319	27	
2025-11-03T00:00	6260	456	-24.7	-55.2	320	27	
2025-11-03T00:00	6280	455	-24.8	-55.3	320	27	
2025-11-03T00:00	6300	453	-24.9	-55.4	320	27	
2025-11-03T00:00	6320	452	-25.1	-55.6	319	27	
2025-11-03T00:00	6340	451	-25.2	-55.6	318	27	
2025-11-03T00:00	6360	449	-25.3	-55.4	318	28	
2025-11-03T00:00	6380	448	-25.5	-55.5	317	28	
2025-11-03T00:00	6400	447	-25.7	-55.7	317	28	
2025-11-03T00:00	6420	446	-25.9	-55.7	317	29	
2025-11-03T00:00	6440	444	-26.0	-55.8	317	29	
2025-11-03T00:00	6460	443	-26.0	-55.8	317	30	
2025-11-03T00:00	6480	442	-25.9	-55.9	317	30	
2025-11-03T00:00	6500	441	-26.0	-55.9	317	30	
2025-11-03T00:00	6520	440	-26.1	-56.0	317	30	
2025-11-03T00:00	6540	438	-26.1	-56.3	317	30	
2025-11-03T00:00	6560	437	-26.2	-56.4	316	30	
2025-11-03T00:00	6580	436	-26.2	-56.6	315	31	
2025-11-03T00:00	6600	435	-26.2	-55.6	314	31	
2025-11-03T00:00	6620	433	-26.3	-55.4	313	31	
2025-11-03T00:00	6640	432	-26.3	-55.8	313	31	
2025-11-03T00:00	6660	431	-26.1	-55.6	312	31	
2025-11-03T00:00	6680	430	-26.1	-54.3	311	31	
2025-11-03T00:00	6700	429	-26.2	-54.7	311	31	
2025-11-03T00:00	6720	427	-26.2	-56.4	311	32	
2025-11-03T00:00	6740	426	-26.1	-57.0	312	32	
2025-11-03T00:00	6760	425	-26.1	-57.0	314	32	
2025-11-03T00:00	6780	424	-25.9	-56.0	315	32	
2025-11-03T00:00	6800	423	-25.8	-55.5	315	32	
2025-11-03T00:00	6820	422	-25.9	-55.3	316	32	
2025-11-03T00:00	6840	420	-26.0	-55.5	317	32	
2025-11-03T00:00	6860	419	-26.1	-56.0	317	32	
2025-11-03T00:00	6880	418	-26.2	-56.4	318	32	
2025-11-03T00:00	6900	417	-26.2	-56.2	319	32	
2025-11-03T00:00	6920	416	-26.2	-54.9	320	33	
2025-11-03T00:00	6940	415	-26.2	-53.5	320	33	
2025-11-03T00:00	6960	414	-26.1	-51.3	321	33	
2025-11-03T00:00	6980	413	-26.0	-49.5	321	34	
2025-11-03T00:00	7000	411	-26.1	-47.9	321	34	
2025-11-03T00:00	7020	410	-26.2	-46.9	322	34	
2025-11-03T00:00	7040	409	-26.4	-46.0	322	34	
2025-11-03T00:00	7060	408	-26.6	-45.4	322	34	
2025-11-03T00:00	7080	407	-26.7	-44.8	323	34	
2025-11-03T00:00	7100	406	-26.9	-44.5	323	34	
2025-11-03T00:00	7120	405	-27.1	-43.9	323	34	
2025-11-03T00:00	7140	404	-27.2	-43.3	323	34	
2025-11-03T00:00	7160	402	-27.4	-43.2	323	34	
2025-11-03T00:00	7180	401	-27.6	-43.7	323	34	
2025-11-03T00:00	7200	400	-27.8	-43.8	323	34	
2025-11-03T00:00	7220	399	-28.0	-43.6	323	34	
2025-11-03T00:00	7240	398	-28.2	-43.2	323	34	
2025-11-03T00:00	7260	397	-28.3	-42.9	324	34	
2025-11-03T00:00	7280	396	-28.4	-43.3	324	34	
2025-11-03T00:00	7300	394	-28.6	-43.7	325	34	
2025-11-03T00:00	7320	393	-28.8	-43.2	326	34	
2025-11-03T00:00	7340	392	-28.9	-42.8	326	34	
2025-11-03T00:00	7360	391	-29.1	-42.9	327	34	
2025-11-03T00:00	7380	390	-29.2	-43.1	328	34	
2025-11-03T00:00	7400	389	-29.4	-43.5	328	34	
2025-11-03T00:00	7420	388	-29.5	-43.6	329	33	
2025-11-03T00:00	7440	387	-29.5	-43.7	329	33	
2025-11-03T00:00	7460	386	-29.6	-44.0	329	33	
2025-11-03T00:00	7480	385	-29.7	-44.2	329	33	
2025-11-03T00:00	7500	384	-29.9	-44.2	329	32	
2025-11-03T00:00	7520	383	-30.0	-44.3	329	32	
2025-11-03T00:00	7540	381	-30.1	-43.9	329	32	
2025-11-03T00:00	7560	380	-30.2	-44.2	329	32	
2025-11-03T00:00	7580	379	-30.4	-44.2	329	32	
2025-11-03T00:00	7600	378	-30.6	-44.2	329	32	
2025-11-03T00:00	7620	377	-30.6	-45.5	329	32	
2025-11-03T00:00	7640	376	-30.7	-46.4	329	32	
2025-11-03T00:00	7660	375	-30.9	-46.2	328	32	
2025-11-03T00:00	7680	374	-31.1	-46.3	328	33	
2025-11-03T00:00	7700	373	-31.2	-46.4	328	33	
2025-11-03T00:00	7720	372	-31.4	-46.6	327	33	
2025-11-03T00:00	7740	371	-31.6	-46.7	327	33	
2025-11-03T00:00	7760	370	-31.7	-46.7	327	33	
2025-11-03T00:00	7780	369	-31.9	-47.1	327	33	
2025-11-03T00:00	7800	368	-32.0	-47.5	327	33	
2025-11-03T00:00	7820	367	-32.2	-47.6	327	33	
2025-11-03T00:00	7840	366	-32.3	-47.7	327	33	
2025-11-03T00:00	7860	365	-32.5	-47.7	327	33	
2025-11-03T00:00	7880	364	-32.7	-47.5	327	33	
2025-11-03T00:00	7900	363	-32.8	-47.5	327	33	
2025-11-03T00:00	7920	362	-33.0	-47.4	326	33	
2025-11-03T00:00	7940	360	-33.1	-47.5	325	33	
2025-11-03T00:00	7960	359	-33.3	-47.2	325	34	
2025-11-03T00:00	7980	358	-33.4	-46.3	324	34	
2025-11-03T00:00	8000	357	-33.5	-45.9	323	34	
2025-11-03T00:00	8020	356	-33.6	-45.6	322	34	
2025-11-03T00:00	8040	355	-33.6	-45.5	322	34	
2025-11-03T00:00	8060	354	-33.8	-45.9	322	34	
2025-11-03T00:00	8080	353	-33.9	-45.9	321	34	
2025-11-03T00:00	8100	352	-34.1	-45.9	321	34	
2025-11-03T00:00	8120	351	-34.2	-45.9	321	34	
2025-11-03T00:00	8140	350	-34.4	-45.9	321	34	
2025-11-03T00:00	8160	349	-34.6	-46.0	321	34	
2025-11-03T00:00	8180	348	-34.7	-45.6	321	34	
2025-11-03T00:00	8200	347	-34.9	-45.2	321	34	
2025-11-03T00:00	8220	346	-35.0	-45.2	320	34	
2025-11-03T00:00	8240	345	-35.1	-45.6	320	35	
2025-11-03T00:00	8260	344	-35.2	-46.7	319	35	
2025-11-03T00:00	8280	343	-35.2	-46.1	318	35	
2025-11-03T00:00	8300	342	-35.4	-45.8	318	35	
2025-11-03T00:00	8320	341	-35.5	-46.6	317	35	
2025-11-03T00:00	8340	340	-35.4	-48.1	315	35	
2025-11-03T00:00	8360	339	-35.5	-47.3	314	35	
2025-11-03T00:00	8380	338	-35.6	-46.4	314	34	
2025-11-03T00:00	8400	337	-35.7	-46.3	313	34	
2025-11-03T00:00	8420	337	-35.6	-48.2	312	34	
2025-11-03T00:00	8440	336	-35.5	-51.1	311	34	
2025-11-03T00:00	8460	335	-35.6	-51.4	311	34	
2025-11-03T00:00	8480	334	-35.8	-50.6	311	34	
2025-11-03T00:00	8500	333	-36.0	-49.8	311	34	
2025-11-03T00:00	8520	332	-36.2	-49.5	311	34	
2025-11-03T00:00	8540	331	-36.3	-50.0	311	34	
2025-11-03T00:00	8560	330	-36.5	-52.7	311	34	
2025-11-03T00:00	8580	329	-36.6	-57.4	311	34	
2025-11-03T00:00	8600	328	-36.7	-57.9	311	34	
2025-11-03T00:00	8620	327	-36.9	-56.3	312	34	
2025-11-03T00:00	8640	326	-37.0	-55.6	312	34	
2025-11-03T00:00	8660	325	-37.1	-55.5	312	34	
2025-11-03T00:00	8680	324	-37.2	-55.8	312	34	
2025-11-03T00:00	8700	323	-37.4	-56.2	312	34	
2025-11-03T00:00	8720	322	-37.5	-56.5	312	34	
2025-11-03T00:00	8740	321	-37.6	-56.5	312	34	
2025-11-03T00:00	8760	320	-37.8	-56.4	312	34	
2025-11-03T00:00	8780	319	-38.0	-56.3	312	33	
2025-11-03T00:00	8800	319	-38.2	-56.3	312	33	
2025-11-03T00:00	8820	318	-38.3	-56.4	312	33	
2025-11-03T00:00	8840	317	-38.5	-56.6	312	33	
2025-11-03T00:00	8860	316	-38.7	-56.7	312	33	
2025-11-03T00:00	8880	315	-38.8	-56.7	312	33	
2025-11-03T00:00	8900	314	-39.0	-56.7	312	33	
2025-11-03T00:00	8920	313	-39.1	-56.9	312	33	
2025-11-03T00:00	8940	312	-39.3	-57.0	313	33	
2025-11-03T00:00	8960	311	-39.4	-57.2	313	33	
2025-11-03T00:00	8980	310	-39.4	-57.5	313	33	
2025-11-03T00:00	9000	310	-39.5	-57.7	313	33	
2025-11-03T00:00	9020	309	-39.7	-57.7	313	33	
2025-11-03T00:00	9040	308	-39.8	-57.9	313	33	
2025-11-03T00:00	9060	307	-40.0	-58.1	313	33	
2025-11-03T00:00	9080	306	-40.0	-58.3	313	32	
2025-11-03T00:00	9100	305	-40.1	-58.6	313	32	
2025-11-03T00:00	9120	304	-40.2	-58.9	313	32	
2025-11-03T00:00	9140	303	-40.3	-59.0	313	32	
2025-11-03T00:00	9160	302	-40.5	-59.6	312	32	
2025-11-03T00:00	9180	301	-40.5	-59.9	312	32	
2025-11-03T00:00	9200	301	-40.6	-59.8	313	33	
2025-11-03T00:00	9220	300	-40.8	-59.8	313	33	
2025-11-03T00:00	9240	299	-40.9	-59.6	313	33	
2025-11-03T00:00	9260	298	-41.0	-59.8	313	34	
2025-11-03T00:00	9280	297	-41.1	-60.8	312	34	
2025-11-03T00:00	9300	296	-41.2	-62.0	312	34	
2025-11-03T00:00	9320	295	-41.3	-62.0	312	34	
2025-11-03T00:00	9340	294	-41.5	-61.7	312	34	
2025-11-03T00:00	9360	294	-41.7	-61.5	312	34	
2025-11-03T00:00	9380	293	-41.8	-61.3	312	34	
2025-11-03T00:00	9400	292	-42.0	-61.0	312	34	
2025-11-03T00:00	9420	291	-42.2	-60.7	313	35	
2025-11-03T00:00	9440	290	-42.3	-60.5	313	35	
2025-11-03T00:00	9460	289	-42.4	-60.5	313	35	
2025-11-03T00:00	9480	288	-42.6	-60.5	314	35	
2025-11-03T00:00	9500	287	-42.8	-60.4	314	35	
2025-11-03T00:00	9520	287	-43.0	-60.5	314	34	
2025-11-03T00:00	9540	286	-43.2	-60.6	313	34	
2025-11-03T00:00	9560	285	-43.3	-60.7	313	34	
2025-11-03T00:00	9580	284	-43.5	-60.4	313	34	
2025-11-03T00:00	9600	283	-43.6	-60.0	313	34	
2025-11-03T00:00	9620	282	-43.8	-59.9	313	35	
2025-11-03T00:00	9640	282	-44.0	-60.1	313	35	
2025-11-03T00:00	9660	281	-44.1	-60.6	313	35	
2025-11-03T00:00	9680	280	-44.3	-61.0	313	35	
2025-11-03T00:00	9700	279	-44.4	-61.6	313	35	
2025-11-03T00:00	9720	278	-44.7	-61.8	313	35	
2025-11-03T00:00	9740	277	-44.8	-61.8	312	35	
2025-11-03T00:00	9760	277	-44.8	-61.9	312	34	
2025-11-03T00:00	9780	276	-44.9	-62.1	312	34	
2025-11-03T00:00	9800	275	-45.0	-62.2	312	34	
2025-11-03T00:00	9820	274	-45.1	-62.4	311	34	
2025-11-03T00:00	9840	273	-45.2	-62.2	311	34	
2025-11-03T00:00	9860	272	-45.3	-61.9	311	34	
2025-11-03T00:00	9880	272	-45.5	-61.8	311	34	
2025-11-03T00:00	9900	271	-45.7	-62.1	311	34	
2025-11-03T00:00	9920	270	-45.7	-62.7	311	34	
2025-11-03T00:00	9940	269	-45.7	-63.1	311	34	
2025-11-03T00:00	9960	268	-45.8	-63.2	311	34	
2025-11-03T00:00	9980	268	-45.9	-63.2	311	34	
2025-11-03T00:00	10000	267	-46.0	-63.2	311	34	
2025-11-03T00:00	10018	266	-46.2	-63.3	311	34	
2025-11-03T00:00	10050	265	-46.4	-63.5	311	34	
2025-11-03T00:00	10100	263	-46.7	-63.8	311	34	
2025-11-03T00:00	10150	261	-47.1	-63.9	312	34	
2025-11-03T00:00	10200	259	-47.5	-64.1	312	34	
2025-11-03T00:00	10250	257	-47.9	-64.4	312	34	
2025-11-03T00:00	10300	255	-48.2	-64.7	311	34	
2025-11-03T00:00	10350	253	-48.3	-65.3	311	34	
2025-11-03T00:00	10400	251	-48.6	-65.6	309	34	
2025-11-03T00:00	10450	249	-48.9	-65.7	308	34	
2025-11-03T00:00	10500	247	-49.0	-66.0	308	34	
2025-11-03T00:00	10550	245	-48.9	-66.6	308	35	
2025-11-03T00:00	10600	244	-49.1	-67.0	309	35	
2025-11-03T00:00	10650	242	-49.5	-67.0	311	36	
2025-11-03T00:00	10700	240	-49.8	-67.5	312	37	
2025-11-03T00:00	10750	238	-50.2	-68.0	312	37	
2025-11-03T00:00	10800	236	-49.9	-69.6	311	37	
2025-11-03T00:00	10850	234	-49.8	-70.2	311	36	
2025-11-03T00:00	10900	233	-49.6	-70.6	311	36	
2025-11-03T00:00	10950	231	-49.6	-70.6	313	35	
2025-11-03T00:00	11000	229	-49.6	-70.9	314	36	
2025-11-03T00:00	11050	227	-49.6	-71.8	315	36	
2025-11-03T00:00	11100	226	-49.6	-71.7	314	37	
2025-11-03T00:00	11150	224	-49.7	-71.3	313	36	
2025-11-03T00:00	11200	222	-49.9	-71.3	312	36	
2025-11-03T00:00	11250	220	-50.0	-71.4	311	36	
2025-11-03T00:00	11300	219	-50.1	-71.5	312	36	
2025-11-03T00:00	11350	217	-50.4	-71.7	312	36	
2025-11-03T00:00	11400	215	-50.8	-71.9	312	37	
2025-11-03T00:00	11450	214	-51.2	-71.9	312	37	
2025-11-03T00:00	11500	212	-51.5	-72.1	311	37	
2025-11-03T00:00	11550	211	-51.8	-72.2	310	37	
2025-11-03T00:00	11600	209	-52.0	-72.4	310	38	
2025-11-03T00:00	11650	207	-52.1	-72.8	311	38	
2025-11-03T00:00	11700	206	-52.2	-73.3	312	38	
2025-11-03T00:00	11750	204	-52.3	-73.5	313	38	
2025-11-03T00:00	11800	203	-52.4	-73.8	314	38	
2025-11-03T00:00	11850	201	-52.7	-74.5	315	39	
2025-11-03T00:00	11900	200	-53.0	-75.0	316	38	
2025-11-03T00:00	11950	198	-53.2	-75.0	317	37	
2025-11-03T00:00	12000	196	-53.5	-75.2	318	36	
2025-11-03T00:00	12050	195	-53.9	-75.4	319	35	
2025-11-03T00:00	12100	193	-54.3	-75.5	318	35	
2025-11-03T00:00	12150	192	-54.7	-75.6	317	35	
2025-11-03T00:00	12200	190	-55.2	-75.6	317	34	
2025-11-03T00:00	12250	189	-55.6	-75.4	317	34	
2025-11-03T00:00	12300	187	-55.9	-75.4	317	34	
2025-11-03T00:00	12350	186	-56.2	-75.5	317	34	
2025-11-03T00:00	12400	184	-56.5	-75.9	318	34	
2025-11-03T00:00	12450	183	-56.5	-76.3	318	34	
2025-11-03T00:00	12500	182	-56.6	-76.7	318	34	
2025-11-03T00:00	12550	180	-56.8	-77.1	318	33	
2025-11-03T00:00	12600	179	-57.1	-77.3	317	33	
2025-11-03T00:00	12650	177	-57.4	-77.4	317	33	
2025-11-03T00:00	12700	176	-57.7	-77.6	316	34	
2025-11-03T00:00	12750	175	-57.8	-77.9	316	34	
2025-11-03T00:00	12800	173	-58.0	-78.0	315	33	
2025-11-03T00:00	12850	172	-58.3	-78.3	315	33	
2025-11-03T00:00	12900	170	-58.6	-78.6	317	33	
2025-11-03T00:00	12950	169	-58.4	-79.3	320	33	
2025-11-03T00:00	13000	168	-58.2	-79.6	323	32	
2025-11-03T00:00	13050	166	-58.2	-79.9	325	31	
2025-11-03T00:00	13100	165	-58.5	-80.1	324	29	
2025-11-03T00:00	13150	164	-58.9	-80.2	324	28	
2025-11-03T00:00	13200	162	-59.1	-80.4	324	27	
2025-11-03T00:00	13250	161	-59.5	-80.5	324	27	
2025-11-03T00:00	13300	160	-59.9	-80.5	322	26	
2025-11-03T00:00	13350	159	-60.3	-80.8	321	24	
2025-11-03T00:00	13400	157	-60.7	-81.2	318	23	
2025-11-03T00:00	13450	156	-60.8	-81.6	315	23	
2025-11-03T00:00	13500	155	-60.8	-81.8	313	23	
2025-11-03T00:00	13550	154	-60.9	-81.8	311	23	
2025-11-03T00:00	13600	152	-61.1	-81.9	310	23	
2025-11-03T00:00	13650	151	-61.3	-82.1	309	24	
2025-11-03T00:00	13700	150	-61.3	-82.3	308	24	
2025-11-03T00:00	13750	149	-61.3	-82.4	307	25	
2025-11-03T00:00	13800	148	-61.5	-82.6	306	26	
2025-11-03T00:00	13850	146	-61.7	-82.7	306	27	
2025-11-03T00:00	13900	145	-61.8	-82.9	305	27	
2025-11-03T00:00	13950	144	-61.7	-83.0	305	27	
2025-11-03T00:00	14000	143	-61.6	-83.2	305	26	
2025-11-03T00:00	14050	142	-61.6	-83.3	306	25	
2025-11-03T00:00	14100	141	-61.8	-83.3	306	25	
2025-11-03T00:00	14150	139	-62.0	-83.4	306	24	
2025-11-03T00:00	14200	138	-62.1	-83.4	305	24	
2025-11-03T00:00	14250	137	-62.2	-83.5	305	24	
2025-11-03T00:00	14300	136	-62.3	-83.6	304	24	
2025-11-03T00:00	14350	135	-62.3	-83.7	303	23	
2025-11-03T00:00	14400	134	-62.5	-83.8	302	23	
2025-11-03T00:00	14450	133	-62.8	-83.9	301	23	
2025-11-03T00:00	14500	132	-62.9	-83.8	301	23	
2025-11-03T00:00	14550	131	-63.0	-83.8	300	23	
2025-11-03T00:00	14600	130	-63.2	-83.8	298	23	
2025-11-03T00:00	14650	129	-63.6	-84.0	296	23	
2025-11-03T00:00	14700	128	-64.0	-84.1	295	24	
2025-11-03T00:00	14750	127	-64.1	-84.1	294	24	
2025-11-03T00:00	14800	125	-64.2	-84.0	294	25	
2025-11-03T00:00	14850	124	-64.5	-84.1	293	25	
2025-11-03T00:00	14900	123	-64.5	-84.1	292	26	
2025-11-03T00:00	14950	122	-64.6	-84.2	291	26	
2025-11-03T00:00	15000	121	-64.7	-84.4	293	26	
2025-11-03T00:00	15050	120	-64.6	-84.7	297	26	
2025-11-03T00:00	15100	119	-63.9	-84.6	302	25	
2025-11-03T00:00	15150	118	-63.9	-84.8	304	25	
2025-11-03T00:00	15200	118	-63.9	-84.8	305	25	
2025-11-03T00:00	15250	117	-63.8	-84.8	304	23	
2025-11-03T00:00	15300	116	-63.8	-84.8	304	22	
2025-11-03T00:00	15350	115	-63.8	-84.9	304	22	
2025-11-03T00:00	15400	114	-63.9	-85.1	304	23	
2025-11-03T00:00	15450	113	-63.8	-85.2	304	24	
2025-11-03T00:00	15500	112	-63.6	-85.2	304	24	
2025-11-03T00:00	15550	111	-63.1	-85.1	305	22	
2025-11-03T00:00	15600	110	-62.5	-84.9	304	21	
2025-11-03T00:00	15650	109	-62.7	-85.0	302	20	
2025-11-03T00:00	15700	108	-62.9	-85.2	300	20	
2025-11-03T00:00	15750	107	-62.3	-85.0	298	20	
2025-11-03T00:00	15800	107	-62.1	-85.2	300	20	
2025-11-03T00:00	15850	106	-61.6	-85.3	304	20	
2025-11-03T00:00	15900	105	-61.0	-85.2	308	20	
2025-11-03T00:00	15950	104	-60.7	-85.3	310	20	
2025-11-03T00:00	16000	103	-60.3	-85.3	310	19	
2025-11-03T00:00	16050	102	-60.0	-85.4	310	18	
2025-11-03T00:00	16100	101	-59.2	-85.1	310	16	
2025-11-03T00:00	16150	101	-59.1	-85.0	309	15	
2025-11-03T00:00	16200	100	-59.1	-84.9	307	14	
2025-11-03T00:00	16250	99	-59.3	-84.9	303	14	
2025-11-03T00:00	16300	98	-59.7	-85.1	301	14	
2025-11-03T00:00	16350	98	-59.7	-84.9	299	15	
2025-11-03T00:00	16400	97	-60.0	-85.0	298	15	
2025-11-03T00:00	16450	96	-60.3	-85.1	299	15	
2025-11-03T00:00	16500	95	-60.6	-85.2	300	15	
2025-11-03T00:00	16550	95	-60.8	-85.2	302	15	
2025-11-03T12:00	491	968	12.1	5.7	202	2	
2025-11-03T12:00	501	967	11.6	5.3	209	3	
2025-11-03T12:00	520	965	11.4	5.4	209	3	
2025-11-03T12:00	540	962	11.0	5.0	208	3	
2025-11-03T12:00	560	960	10.8	4.9	208	4	
2025-11-03T12:00	580	957	10.6	4.8	208	4	
2025-11-03T12:00	600	955	10.4	4.8	208	4	
2025-11-03T12:00	620	953	10.2	4.8	208	4	
2025-11-03T12:00	640	951	9.9	4.6	208	4	
2025-11-03T12:00	660	948	9.7	4.5	208	4	
2025-11-03T12:00	680	946	9.5	4.4	208	4	
2025-11-03T12:00	700	944	9.2	4.3	209	4	
2025-11-03T12:00	720	941	9.0	4.2	212	4	
2025-11-03T12:00	740	939	8.8	4.3	215	4	
2025-11-03T12:00	760	937	8.6	4.3	219	4	
2025-11-03T12:00	780	935	8.4	4.0	223	4	
2025-11-03T12:00	800	932	8.2	3.8	226	4	
2025-11-03T12:00	820	930	8.1	3.4	227	4	
2025-11-03T12:00	840	928	8.0	3.1	228	4	
2025-11-03T12:00	860	926	7.8	3.1	228	4	
2025-11-03T12:00	880	923	7.6	3.3	229	4	
2025-11-03T12:00	900	921	7.4	3.5	230	4	
2025-11-03T12:00	920	919	7.2	3.2	231	4	
2025-11-03T12:00	940	917	7.0	3.4	233	4	
2025-11-03T12:00	960	915	6.8	3.2	235	4	
2025-11-03T12:00	980	912	6.6	3.2	238	4	
2025-11-03T12:00	1000	910	6.4	3.1	239	4	
2025-11-03T12:00	1020	908	6.2	3.1	239	4	
2025-11-03T12:00	1040	906	6.0	3.3	239	4	
2025-11-03T12:00	1060	903	5.8	3.1	239	4	
2025-11-03T12:00	1080	901	5.7	2.8	239	4	
2025-11-03T12:00	1100	899	5.5	2.7	239	5	
2025-11-03T12:00	1120	897	5.3	2.6	239	5	
2025-11-03T12:00	1140	895	5.1	2.6	240	5	
2025-11-03T12:00	1160	892	5.0	2.6	241	5	
2025-11-03T12:00	1180	890	4.7	2.6	242	5	
2025-11-03T12:00	1200	888	4.5	2.6	243	5	
2025-11-03T12:00	1220	886	4.3	2.7	244	5	
2025-11-03T12:00	1240	884	4.2	2.6	246	5	
2025-11-03T12:00	1260	882	4.0	2.2	246	5	
2025-11-03T12:00	1280	879	3.9	2.0	247	5	
2025-11-03T12:00	1300	877	3.7	2.0	247	4	
2025-11-03T12:00	1320	875	3.6	2.0	247	4	
2025-11-03T12:00	1340	873	3.4	1.9	248	4	
2025-11-03T12:00	1360	871	3.2	1.9	250	4	
2025-11-03T12:00	1380	869	3.0	2.0	252	5	
2025-11-03T12:00	1400	867	2.8	2.0	254	5	
2025-11-03T12:00	1420	864	2.6	1.9	256	5	
2025-11-03T12:00	1440	862	2.4	1.8	258	5	
2025-11-03T12:00	1460	860	2.2	1.7	260	5	
2025-11-03T12:00	1480	858	2.0	1.7	263	5	
2025-11-03T12:00	1500	856	1.8	1.7	265	5	
2025-11-03T12:00	1520	854	1.7	1.4	269	5	
2025-11-03T12:00	1540	852	1.6	1.3	273	4	
2025-11-03T12:00	1560	850	1.5	0.5	276	4	
2025-11-03T12:00	1580	847	1.6	-0.5	278	4	
2025-11-03T12:00	1600	845	1.5	-0.6	278	4	
2025-11-03T12:00	1620	843	1.4	-0.8	279	4	
2025-11-03T12:00	1640	841	1.4	-1.3	279	4	
2025-11-03T12:00	1660	839	1.6	-1.9	279	4	
2025-11-03T12:00	1680	837	1.6	-2.2	279	4	
2025-11-03T12:00	1700	835	1.4	-2.3	278	4	
2025-11-03T12:00	1720	833	1.2	-2.4	275	4	
2025-11-03T12:00	1740	831	1.1	-2.6	272	4	
2025-11-03T12:00	1760	829	0.9	-2.7	268	4	
2025-11-03T12:00	1780	827	0.7	-2.7	264	4	
2025-11-03T12:00	1800	824	0.6	-2.9	261	4	
2025-11-03T12:00	1820	822	0.6	-3.1	259	4	
2025-11-03T12:00	1840	820	0.4	-3.1	258	4	
2025-11-03T12:00	1860	818	0.1	-3.1	258	4	
2025-11-03T12:00	1880	816	0.0	-3.2	257	4	
2025-11-03T12:00	1900	814	-0.1	-3.4	257	4	
2025-11-03T12:00	1920	812	-0.2	-3.5	257	4	
2025-11-03T12:00	1940	810	-0.3	-3.5	256	4	
2025-11-03T12:00	1960	808	-0.5	-3.6	257	4	
2025-11-03T12:00	1980	806	-0.7	-3.9	258	4	
2025-11-03T12:00	2000	804	-0.9	-3.9	260	4	
2025-11-03T12:00	2020	802	-1.0	-4.0	263	4	
2025-11-03T12:00	2040	800	-1.2	-4.1	266	4	
2025-11-03T12:00	2060	798	-1.5	-4.3	270	4	
2025-11-03T12:00	2080	796	-1.7	-4.4	272	4	
2025-11-03T12:00	2100	794	-1.9	-4.6	275	4	
2025-11-03T12:00	2120	792	-2.0	-4.7	276	4	
2025-11-03T12:00	2140	790	-2.1	-4.9	276	4	
2025-11-03T12:00	2160	788	-2.0	-5.3	275	4	
2025-11-03T12:00	2180	786	-2.0	-5.7	274	4	
2025-11-03T12:00	2200	784	-2.0	-5.9	274	4	
2025-11-03T12:00	2220	782	-2.2	-6.0	274	4	
2025-11-03T12:00	2240	780	-2.4	-6.0	276	4	
2025-11-03T12:00	2260	778	-2.5	-6.4	278	4	
2025-11-03T12:00	2280	776	-2.5	-7.0	281	4	
2025-11-03T12:00	2300	774	-2.6	-7.5	284	4	
2025-11-03T12:00	2320	772	-2.6	-8.1	288	4	
2025-11-03T12:00	2340	771	-2.7	-9.0	292	4	
2025-11-03T12:00	2360	769	-2.8	-9.2	296	4	
2025-11-03T12:00	2380	767	-3.0	-9.2	302	4	
2025-11-03T12:00	2400	765	-3.2	-9.3	305	4	
2025-11-03T12:00	2420	763	-3.4	-9.7	309	5	
2025-11-03T12:00	2440	761	-3.6	-9.9	311	5	
2025-11-03T12:00	2460	759	-3.7	-10.1	313	5	
2025-11-03T12:00	2480	757	-3.9	-10.3	314	5	
2025-11-03T12:00	2500	755	-4.0	-10.6	314	5	
2025-11-03T12:00	2520	753	-4.2	-11.1	315	6	
2025-11-03T12:00	2540	751	-4.0	-14.8	315	6	
2025-11-03T12:00	2560	749	-3.7	-18.4	315	6	
2025-11-03T12:00	2580	747	-3.8	-16.7	314	6	
2025-11-03T12:00	2600	746	-3.8	-18.3	314	6	
2025-11-03T12:00	2620	744	-3.9	-19.7	313	6	
2025-11-03T12:00	2640	742	-4.0	-21.0	313	6	
2025-11-03T12:00	2660	740	-4.1	-23.0	313	7	
2025-11-03T12:00	2680	738	-4.1	-24.9	315	7	
2025-11-03T12:00	2700	736	-4.0	-27.1	316	7	
2025-11-03T12:00	2720	734	-4.0	-27.9	319	7	
2025-11-03T12:00	2740	732	-3.9	-30.5	322	8	
2025-11-03T12:00	2760	730	-3.8	-34.7	325	8	
2025-11-03T12:00	2780	729	-3.6	-36.3	327	8	
2025-11-03T12:00	2800	727	-3.7	-37.1	330	8	
2025-11-03T12:00	2820	725	-3.6	-39.2	333	9	
2025-11-03T12:00	2840	723	-3.5	-41.4	335	9	
2025-11-03T12:00	2860	721	-3.4	-42.4	337	10	
2025-11-03T12:00	2880	720	-3.5	-41.9	339	10	
2025-11-03T12:00	2900	718	-3.6	-41.8	341	10	
2025-11-03T12:00	2920	716	-3.6	-45.2	342	11	
2025-11-03T12:00	2940	714	-3.4	-48.4	343	11	
2025-11-03T12:00	2960	712	-3.0	-45.0	344	12	
2025-11-03T12:00	2980	710	-3.1	-42.4	344	12	
2025-11-03T12:00	3000	709	-3.1	-43.0	344	12	
2025-11-03T12:00	3020	707	-3.1	-43.1	343	12	
2025-11-03T12:00	3040	705	-3.1	-44.7	343	12	
2025-11-03T12:00	3060	703	-3.3	-45.7	341	12	
2025-11-03T12:00	3080	702	-3.3	-46.0	340	12	
2025-11-03T12:00	3100	700	-3.5	-47.8	339	12	
2025-11-03T12:00	3120	698	-3.5	-50.0	339	13	
2025-11-03T12:00	3140	696	-3.6	-50.1	338	13	
2025-11-03T12:00	3160	694	-3.7	-50.5	338	13	
2025-11-03T12:00	3180	693	-3.3	-46.6	338	14	
2025-11-03T12:00	3200	691	-3.0	-40.3	339	14	
2025-11-03T12:00	3220	689	-2.9	-40.2	340	14	
2025-11-03T12:00	3240	687	-2.9	-38.8	340	14	
2025-11-03T12:00	3260	686	-3.0	-34.9	341	14	
2025-11-03T12:00	3280	684	-3.1	-34.3	341	14	
2025-11-03T12:00	3300	682	-3.1	-34.8	342	14	
2025-11-03T12:00	3320	681	-3.1	-36.9	342	14	
2025-11-03T12:00	3340	679	-3.1	-41.6	342	14	
2025-11-03T12:00	3360	677	-3.2	-44.8	341	14	
2025-11-03T12:00	3380	675	-3.3	-46.4	341	14	
2025-11-03T12:00	3400	674	-3.3	-45.9	341	14	
2025-11-03T12:00	3420	672	-3.3	-43.1	341	13	
2025-11-03T12:00	3440	670	-3.5	-41.8	341	13	
2025-11-03T12:00	3460	669	-3.5	-41.9	341	13	
2025-11-03T12:00	3480	667	-3.5	-44.4	341	13	
2025-11-03T12:00	3500	665	-3.6	-44.6	341	12	
2025-11-03T12:00	3520	664	-3.8	-44.1	340	12	
2025-11-03T12:00	3540	662	-3.9	-43.1	340	12	
2025-11-03T12:00	3560	660	-4.1	-42.4	340	12	
2025-11-03T12:00	3580	659	-4.1	-42.1	339	12	
2025-11-03T12:00	3600	657	-4.2	-41.9	339	12	
2025-11-03T12:00	3620	655	-4.4	-41.7	338	12	
2025-11-03T12:00	3640	654	-4.6	-41.6	338	12	
2025-11-03T12:00	3660	652	-4.7	-41.5	338	12	
2025-11-03T12:00	3680	650	-4.9	-41.0	338	12	
2025-11-03T12:00	3700	649	-5.0	-40.5	337	12	
2025-11-03T12:00	3720	647	-5.1	-40.8	337	12	
2025-11-03T12:00	3740	645	-5.1	-42.5	337	12	
2025-11-03T12:00	3760	644	-5.1	-43.7	337	12	
2025-11-03T12:00	3780	642	-5.1	-42.0	337	12	
2025-11-03T12:00	3800	640	-5.1	-39.0	337	12	
2025-11-03T12:00	3820	639	-5.2	-38.4	337	12	
2025-11-03T12:00	3840	637	-5.3	-37.6	337	12	
2025-11-03T12:00	3860	636	-5.4	-31.0	338	12	
2025-11-03T12:00	3880	634	-5.5	-23.2	339	12	
2025-11-03T12:00	3900	632	-5.5	-20.8	340	12	
2025-11-03T12:00	3920	631	-5.6	-21.4	341	12	
2025-11-03T12:00	3940	629	-5.8	-22.0	342	12	
2025-11-03T12:00	3960	628	-5.8	-23.1	343	12	
2025-11-03T12:00	3980	626	-5.7	-25.0	344	12	
2025-11-03T12:00	4000	624	-5.5	-24.3	345	12	
2025-11-03T12:00	4020	622	-5.3	-24.2	346	12	
2025-11-03T12:00	4040	621	-5.3	-22.0	347	12	
2025-11-03T12:00	4060	619	-5.3	-20.4	348	12	
2025-11-03T12:00	4080	618	-5.4	-20.2	348	13	
2025-11-03T12:00	4100	616	-5.5	-20.1	348	13	
2025-11-03T12:00	4120	615	-5.5	-19.7	347	13	
2025-11-03T12:00	4140	613	-5.7	-19.4	347	13	
2025-11-03T12:00	4160	612	-5.8	-19.3	346	13	
2025-11-03T12:00	4180	610	-6.0	-19.3	345	14	
2025-11-03T12:00	4200	608	-6.2	-19.4	344	14	
2025-11-03T12:00	4220	607	-6.3	-19.5	344	14	
2025-11-03T12:00	4240	605	-6.4	-19.7	343	15	
2025-11-03T12:00	4260	604	-6.5	-19.7	342	15	
2025-11-03T12:00	4280	602	-6.5	-19.8	342	15	
2025-11-03T12:00	4300	601	-6.6	-19.6	342	15	
2025-11-03T12:00	4320	599	-6.6	-19.3	342	16	
2025-11-03T12:00	4340	598	-6.7	-19.2	342	16	
2025-11-03T12:00	4360	596	-6.9	-19.0	342	16	
2025-11-03T12:00	4380	595	-7.1	-18.7	342	15	
2025-11-03T12:00	4400	593	-7.2	-18.5	343	15	
2025-11-03T12:00	4420	592	-7.4	-18.7	344	15	
2025-11-03T12:00	4440	590	-7.6	-18.6	344	15	
2025-11-03T12:00	4460	589	-7.7	-18.7	344	15	
2025-11-03T12:00	4480	587	-7.8	-20.2	344	15	
2025-11-03T12:00	4500	586	-7.8	-22.8	344	15	
2025-11-03T12:00	4520	584	-7.9	-22.3	343	15	
2025-11-03T12:00	4540	583	-8.0	-22.9	343	15	
2025-11-03T12:00	4560	581	-7.9	-22.4	343	14	
2025-11-03T12:00	4580	580	-8.0	-22.0	343	14	
2025-11-03T12:00	4600	578	-8.2	-21.8	344	14	
2025-11-03T12:00	4620	576	-8.0	-24.3	345	13	
2025-11-03T12:00	4640	575	-7.8	-26.8	346	13	
2025-11-03T12:00	4660	574	-7.6	-27.0	347	13	
2025-11-03T12:00	4680	572	-7.5	-24.5	348	13	
2025-11-03T12:00	4700	571	-7.6	-23.8	348	12	
2025-11-03T12:00	4720	569	-7.8	-23.5	348	12	
2025-11-03T12:00	4740	568	-8.0	-23.2	348	12	
2025-11-03T12:00	4760	566	-8.2	-23.2	347	12	
2025-11-03T12:00	4780	565	-8.4	-23.3	345	12	
2025-11-03T12:00	4800	564	-8.5	-23.2	344	12	
2025-11-03T12:00	4820	562	-8.7	-23.3	343	12	
2025-11-03T12:00	4840	561	-8.8	-23.3	342	12	
2025-11-03T12:00	4860	559	-9.0	-23.3	341	12	
2025-11-03T12:00	4880	558	-9.2	-23.5	340	12	
2025-11-03T12:00	4900	556	-9.4	-23.6	338	12	
2025-11-03T12:00	4920	555	-9.6	-23.8	336	12	
2025-11-03T12:00	4940	553	-9.7	-23.7	335	12	
2025-11-03T12:00	4960	552	-9.9	-24.4	333	12	
2025-11-03T12:00	4980	551	-10.0	-24.4	332	12	
2025-11-03T12:00	5000	549	-10.1	-24.7	331	12	
2025-11-03T12:00	5020	548	-10.2	-25.1	330	12	
2025-11-03T12:00	5040	546	-10.4	-24.8	329	12	
2025-11-03T12:00	5060	545	-10.6	-24.6	328	12	
2025-11-03T12:00	5080	543	-10.7	-25.1	328	12	
2025-11-03T12:00	5100	542	-10.9	-26.0	327	12	
2025-11-03T12:00	5120	541	-11.1	-26.7	326	12	
2025-11-03T12:00	5140	539	-11.3	-27.7	325	12	
2025-11-03T12:00	5160	538	-11.4	-28.3	325	12	
2025-11-03T12:00	5180	536	-11.6	-28.0	323	12	
2025-11-03T12:00	5200	535	-11.8	-28.0	322	12	
2025-11-03T12:00	5220	533	-12.0	-28.8	321	12	
2025-11-03T12:00	5240	532	-12.1	-31.1	319	12	
2025-11-03T12:00	5260	531	-12.2	-30.9	318	12	
2025-11-03T12:00	5280	529	-12.4	-27.9	317	12	
2025-11-03T12:00	5300	528	-12.5	-26.3	315	12	
2025-11-03T12:00	5320	526	-12.7	-26.1	314	12	
2025-11-03T12:00	5340	525	-12.8	-26.2	313	12	
2025-11-03T12:00	5360	524	-13.1	-26.4	312	12	
2025-11-03T12:00	5380	522	-13.2	-26.9	312	12	
2025-11-03T12:00	5400	521	-13.4	-27.1	311	12	
2025-11-03T12:00	5420	520	-13.6	-27.5	311	12	
2025-11-03T12:00	5440	518	-13.7	-28.7	310	12	
2025-11-03T12:00	5460	517	-13.9	-28.8	310	13	
2025-11-03T12:00	5480	516	-14.0	-28.9	310	13	
2025-11-03T12:00	5500	514	-14.2	-29.3	310	13	
2025-11-03T12:00	5520	513	-14.4	-29.4	310	13	
2025-11-03T12:00	5540	512	-14.5	-29.3	310	13	
2025-11-03T12:00	5560	510	-14.7	-29.3	310	14	
2025-11-03T12:00	5580	509	-14.8	-29.9	311	14	
2025-11-03T12:00	5600	507	-15.0	-28.6	311	14	
2025-11-03T12:00	5620	506	-15.1	-28.7	312	14	
2025-11-03T12:00	5640	505	-15.3	-29.0	313	15	
2025-11-03T12:00	5660	504	-15.4	-29.6	314	15	
2025-11-03T12:00	5680	502	-15.5	-30.6	315	15	
2025-11-03T12:00	5700	501	-15.6	-31.8	316	16	
2025-11-03T12:00	5720	500	-15.7	-33.1	317	16	
2025-11-03T12:00	5740	498	-15.8	-35.0	318	17	
2025-11-03T12:00	5760	497	-15.9	-39.3	318	17	
2025-11-03T12:00	5780	495	-15.9	-46.8	319	18	
2025-11-03T12:00	5800	494	-16.0	-50.4	320	18	
2025-11-03T12:00	5820	493	-16.1	-50.0	320	18	
2025-11-03T12:00	5840	491	-16.3	-50.1	321	18	
2025-11-03T12:00	5860	490	-16.4	-50.4	321	18	
2025-11-03T12:00	5880	489	-16.6	-50.9	322	18	
2025-11-03T12:00	5900	488	-16.8	-51.2	322	18	
2025-11-03T12:00	5920	486	-17.0	-51.7	323	18	
2025-11-03T12:00	5940	485	-17.1	-51.9	324	19	
2025-11-03T12:00	5960	484	-17.3	-52.2	324	19	
2025-11-03T12:00	5980	482	-17.5	-52.1	325	19	
2025-11-03T12:00	6000	481	-17.6	-51.9	325	19	
2025-11-03T12:00	6020	480	-17.7	-51.9	326	19	
2025-11-03T12:00	6040	479	-17.9	-52.0	326	19	
2025-11-03T12:00	6060	477	-18.1	-52.0	326	19	
2025-11-03T12:00	6080	476	-18.3	-52.0	326	19	
2025-11-03T12:00	6100	475	-18.5	-52.1	326	20	
2025-11-03T12:00	6120	474	-18.6	-52.3	325	20	
2025-11-03T12:00	6140	472	-18.7	-52.3	325	20	
2025-11-03T12:00	6160	471	-18.9	-52.1	325	20	
2025-11-03T12:00	6180	470	-19.1	-51.5	325	20	
2025-11-03T12:00	6200	468	-19.2	-50.7	325	20	
2025-11-03T12:00	6220	467	-19.3	-49.9	325	20	
2025-11-03T12:00	6240	466	-19.5	-49.2	325	20	
2025-11-03T12:00	6260	465	-19.7	-47.4	325	20	
2025-11-03T12:00	6280	464	-19.8	-43.4	325	20	
2025-11-03T12:00	6300	462	-20.0	-41.0	325	20	
2025-11-03T12:00	6320	461	-20.2	-41.0	325	20	
2025-11-03T12:00	6340	460	-20.4	-41.9	325	20	
2025-11-03T12:00	6360	458	-20.5	-42.6	325	20	
2025-11-03T12:00	6380	457	-20.7	-42.2	325	20	
2025-11-03T12:00	6400	456	-20.9	-40.4	325	20	
2025-11-03T12:00	6420	455	-21.0	-40.0	325	20	
2025-11-03T12:00	6440	453	-21.1	-40.5	326	20	
2025-11-03T12:00	6460	452	-21.3	-40.9	326	20	
2025-11-03T12:00	6480	451	-21.5	-40.9	326	20	
2025-11-03T12:00	6500	450	-21.6	-40.6	326	21	
2025-11-03T12:00	6520	449	-21.8	-40.5	325	21	
2025-11-03T12:00	6540	447	-22.0	-39.9	325	21	
2025-11-03T12:00	6560	446	-22.2	-40.3	325	21	
2025-11-03T12:00	6580	445	-22.3	-41.5	325	21	
2025-11-03T12:00	6600	444	-22.4	-43.6	325	21	
2025-11-03T12:00	6620	443	-22.6	-44.5	324	21	
2025-11-03T12:00	6640	441	-22.8	-45.5	324	21	
2025-11-03T12:00	6660	440	-23.0	-46.7	324	22	
2025-11-03T12:00	6680	439	-23.1	-46.8	323	22	
2025-11-03T12:00	6700	438	-23.3	-45.7	323	22	
2025-11-03T12:00	6720	437	-23.4	-43.3	323	22	
2025-11-03T12:00	6740	435	-23.6	-42.4	323	22	
2025-11-03T12:00	6760	434	-23.7	-43.0	322	22	
2025-11-03T12:00	6780	433	-23.9	-43.5	322	22	
2025-11-03T12:00	6800	432	-24.0	-43.9	322	22	
2025-11-03T12:00	6820	431	-24.1	-43.7	322	22	
2025-11-03T12:00	6840	429	-24.3	-42.8	322	22	
2025-11-03T12:00	6860	428	-24.4	-41.9	322	22	
2025-11-03T12:00	6880	427	-24.6	-40.8	321	22	
2025-11-03T12:00	6900	426	-24.8	-42.0	321	23	
2025-11-03T12:00	6920	425	-25.0	-42.9	321	23	
2025-11-03T12:00	6940	424	-25.2	-43.9	321	23	
2025-11-03T12:00	6960	422	-25.3	-43.8	321	23	
2025-11-03T12:00	6980	421	-25.5	-43.9	321	23	
2025-11-03T12:00	7000	420	-25.7	-44.2	321	23	
2025-11-03T12:00	7020	419	-25.9	-45.0	320	23	
2025-11-03T12:00	7040	418	-26.0	-45.2	320	23	
2025-11-03T12:00	7060	417	-26.2	-45.5	320	23	
2025-11-03T12:00	7080	415	-26.4	-45.0	319	23	
2025-11-03T12:00	7100	414	-26.5	-44.9	319	23	
2025-11-03T12:00	7120	413	-26.7	-44.9	319	23	
2025-11-03T12:00	7140	412	-26.9	-44.1	318	23	
2025-11-03T12:00	7160	411	-27.0	-43.2	318	23	
2025-11-03T12:00	7180	410	-27.2	-44.3	318	23	
2025-11-03T12:00	7200	409	-27.4	-43.6	318	23	
2025-11-03T12:00	7220	407	-27.6	-43.5	318	23	
2025-11-03T12:00	7240	406	-27.7	-43.3	317	23	
2025-11-03T12:00	7260	405	-28.0	-42.5	317	23	
2025-11-03T12:00	7280	404	-28.1	-41.1	317	23	
2025-11-03T12:00	7300	403	-28.2	-40.8	317	23	
2025-11-03T12:00	7320	402	-28.4	-39.6	316	23	
2025-11-03T12:00	7340	401	-28.6	-38.1	316	23	
2025-11-03T12:00	7360	400	-28.7	-38.9	316	23	
2025-11-03T12:00	7380	398	-28.8	-38.2	316	23	
2025-11-03T12:00	7400	397	-28.9	-38.8	316	23	
2025-11-03T12:00	7420	396	-29.2	-38.9	316	23	
2025-11-03T12:00	7440	395	-29.3	-38.3	316	23	
2025-11-03T12:00	7460	394	-29.5	-37.8	316	23	
2025-11-03T12:00	7480	393	-29.6	-37.9	316	23	
2025-11-03T12:00	7500	392	-29.8	-38.0	316	23	
2025-11-03T12:00	7520	391	-30.0	-37.8	316	23	
2025-11-03T12:00	7540	390	-30.2	-37.9	316	23	
2025-11-03T12:00	7560	389	-30.4	-38.3	316	23	
2025-11-03T12:00	7580	388	-30.5	-38.5	316	23	
2025-11-03T12:00	7600	386	-30.7	-38.9	316	23	
2025-11-03T12:00	7620	385	-30.9	-39.3	315	22	
2025-11-03T12:00	7640	384	-31.1	-40.3	315	22	
2025-11-03T12:00	7660	383	-31.3	-41.2	315	22	
2025-11-03T12:00	7680	382	-31.5	-40.7	315	22	
2025-11-03T12:00	7700	381	-31.7	-40.8	315	22	
2025-11-03T12:00	7720	380	-31.8	-40.7	315	23	
2025-11-03T12:00	7740	379	-32.0	-40.7	315	23	
2025-11-03T12:00	7760	378	-32.2	-41.0	315	23	
2025-11-03T12:00	7780	377	-32.4	-41.4	315	23	
2025-11-03T12:00	7800	376	-32.6	-40.5	315	23	
2025-11-03T12:00	7820	374	-32.8	-39.2	315	23	
2025-11-03T12:00	7840	373	-33.0	-38.5	315	23	
2025-11-03T12:00	7860	373	-33.2	-38.4	315	23	
2025-11-03T12:00	7880	371	-33.3	-38.4	315	23	
2025-11-03T12:00	7900	370	-33.5	-38.4	315	23	
2025-11-03T12:00	7920	369	-33.7	-38.5	315	23	
2025-11-03T12:00	7940	368	-33.8	-38.7	315	23	
2025-11-03T12:00	7960	367	-34.0	-38.7	315	23	
2025-11-03T12:00	7980	366	-34.2	-38.4	316	23	
2025-11-03T12:00	8000	365	-34.2	-38.5	316	23	
2025-11-03T12:00	8020	364	-34.3	-38.8	316	23	
2025-11-03T12:00	8040	363	-34.5	-38.8	316	23	
2025-11-03T12:00	8060	362	-34.6	-39.0	316	23	
2025-11-03T12:00	8080	361	-34.8	-39.0	317	23	
2025-11-03T12:00	8100	360	-34.9	-39.0	317	23	
2025-11-03T12:00	8120	359	-35.1	-39.3	317	23	
2025-11-03T12:00	8140	358	-35.3	-39.6	317	23	
2025-11-03T12:00	8160	357	-35.5	-39.7	318	23	
2025-11-03T12:00	8180	356	-35.6	-39.9	318	23	
2025-11-03T12:00	8200	355	-35.8	-40.0	318	23	
2025-11-03T12:00	8220	354	-36.0	-40.0	318	23	
2025-11-03T12:00	8240	353	-36.2	-40.0	318	23	
2025-11-03T12:00	8260	352	-36.4	-40.1	318	23	
2025-11-03T12:00	8280	351	-36.6	-40.2	318	23	
2025-11-03T12:00	8300	350	-36.8	-40.3	318	22	
2025-11-03T12:00	8320	349	-37.0	-40.3	318	22	
2025-11-03T12:00	8340	348	-37.2	-40.5	319	22	
2025-11-03T12:00	8360	347	-37.4	-40.6	319	22	
2025-11-03T12:00	8380	346	-37.5	-40.7	319	22	
2025-11-03T12:00	8400	345	-37.7	-40.7	319	22	
2025-11-03T12:00	8420	344	-38.0	-40.6	319	22	
2025-11-03T12:00	8440	343	-38.1	-40.7	320	22	
2025-11-03T12:00	8460	342	-38.3	-41.1	320	22	
2025-11-03T12:00	8480	341	-38.5	-41.4	320	22	
2025-11-03T12:00	8500	340	-38.7	-41.4	320	22	
2025-11-03T12:00	8520	339	-38.9	-41.3	320	22	
2025-11-03T12:00	8540	338	-39.1	-41.4	320	23	
2025-11-03T12:00	8560	337	-39.3	-41.5	320	23	
2025-11-03T12:00	8580	336	-39.5	-41.6	320	23	
2025-11-03T12:00	8600	335	-39.6	-41.8	320	23	
2025-11-03T12:00	8620	334	-39.8	-42.0	320	23	
2025-11-03T12:00	8640	333	-40.0	-42.1	320	23	
2025-11-03T12:00	8660	332	-40.2	-42.5	320	23	
2025-11-03T12:00	8680	331	-40.3	-42.8	320	23	
2025-11-03T12:00	8700	330	-40.6	-42.8	320	23	
2025-11-03T12:00	8720	329	-40.7	-42.9	319	24	
2025-11-03T12:00	8740	328	-40.8	-43.3	319	24	
2025-11-03T12:00	8760	327	-41.0	-44.0	319	24	
2025-11-03T12:00	8780	326	-41.1	-44.5	319	24	
2025-11-03T12:00	8800	325	-41.3	-44.8	318	24	
2025-11-03T12:00	8820	324	-41.4	-45.2	318	25	
2025-11-03T12:00	8840	323	-41.5	-45.5	318	25	
2025-11-03T12:00	8860	322	-41.7	-45.7	318	25	
2025-11-03T12:00	8880	321	-41.8	-45.8	317	25	
2025-11-03T12:00	8900	320	-42.0	-46.1	317	25	
2025-11-03T12:00	8920	319	-42.1	-46.3	317	25	
2025-11-03T12:00	8940	318	-42.2	-46.3	317	25	
2025-11-03T12:00	8960	317	-42.5	-46.5	316	26	
2025-11-03T12:00	8980	316	-42.7	-47.3	316	26	
2025-11-03T12:00	9000	316	-42.8	-48.9	316	26	
2025-11-03T12:00	9020	315	-42.9	-49.2	316	26	
2025-11-03T12:00	9040	314	-43.1	-48.6	315	26	
2025-11-03T12:00	9060	313	-43.3	-47.9	315	26	
2025-11-03T12:00	9080	312	-43.4	-47.6	314	26	
2025-11-03T12:00	9100	311	-43.6	-47.5	314	26	
2025-11-03T12:00	9120	310	-43.7	-47.4	314	26	
2025-11-03T12:00	9140	309	-44.0	-47.2	313	26	
2025-11-03T12:00	9160	308	-44.1	-47.3	313	26	
2025-11-03T12:00	9180	307	-44.3	-47.6	312	26	
2025-11-03T12:00	9200	306	-44.4	-47.8	312	26	
2025-11-03T12:00	9220	305	-44.6	-47.8	311	26	
2025-11-03T12:00	9240	305	-44.7	-47.8	311	26	
2025-11-03T12:00	9260	304	-44.9	-48.0	310	26	
2025-11-03T12:00	9280	303	-45.1	-48.2	310	26	
2025-11-03T12:00	9300	302	-45.2	-48.2	310	26	
2025-11-03T12:00	9320	301	-45.4	-48.2	310	26	
2025-11-03T12:00	9340	300	-45.6	-48.5	309	26	
2025-11-03T12:00	9360	299	-45.8	-49.2	309	26	
2025-11-03T12:00	9380	298	-46.0	-49.7	309	26	
2025-11-03T12:00	9400	297	-46.1	-49.8	309	26	
2025-11-03T12:00	9420	296	-46.2	-49.9	309	26	
2025-11-03T12:00	9440	295	-46.4	-50.0	308	26	
2025-11-03T12:00	9460	295	-46.6	-50.1	308	26	
2025-11-03T12:00	9480	294	-46.8	-50.1	308	26	
2025-11-03T12:00	9500	293	-46.9	-50.3	308	27	
2025-11-03T12:00	9520	292	-47.1	-50.6	308	27	
2025-11-03T12:00	9540	291	-47.3	-50.8	307	27	
2025-11-03T12:00	9560	290	-47.5	-51.0	307	27	
2025-11-03T12:00	9580	289	-47.6	-51.3	307	27	
2025-11-03T12:00	9600	288	-47.8	-51.7	307	27	
2025-11-03T12:00	9620	288	-48.0	-51.7	307	27	
2025-11-03T12:00	9640	287	-48.3	-51.7	307	27	
2025-11-03T12:00	9660	286	-48.4	-51.8	307	28	
2025-11-03T12:00	9680	285	-48.5	-51.9	307	28	
2025-11-03T12:00	9700	284	-48.8	-52.2	307	28	
2025-11-03T12:00	9720	283	-49.0	-52.4	307	28	
2025-11-03T12:00	9740	282	-49.2	-52.6	307	28	
2025-11-03T12:00	9760	281	-49.4	-53.1	307	28	
2025-11-03T12:00	9780	281	-49.5	-53.6	306	28	
2025-11-03T12:00	9800	280	-49.8	-53.9	306	28	
2025-11-03T12:00	9820	279	-49.9	-53.8	306	28	
2025-11-03T12:00	9840	278	-50.1	-53.7	306	28	
2025-11-03T12:00	9860	277	-50.3	-53.7	306	28	
2025-11-03T12:00	9880	276	-50.5	-53.7	306	28	
2025-11-03T12:00	9900	276	-50.7	-53.7	306	28	
2025-11-03T12:00	9920	275	-50.9	-53.8	306	28	
2025-11-03T12:00	9940	274	-51.1	-54.3	306	28	
2025-11-03T12:00	9960	273	-51.3	-54.7	307	28	
2025-11-03T12:00	9980	272	-51.5	-54.8	308	28	
2025-11-03T12:00	10000	271	-51.6	-54.7	308	28	
2025-11-03T12:00	10018	270	-51.8	-54.7	309	28	
2025-11-03T12:00	10050	269	-52.1	-54.9	310	28	
2025-11-03T12:00	10100	267	-52.6	-55.1	311	28	
2025-11-03T12:00	10150	265	-53.0	-56.1	313	28	
2025-11-03T12:00	10200	263	-53.1	-59.7	314	28	
2025-11-03T12:00	10250	261	-53.2	-63.7	315	28	
2025-11-03T12:00	10300	259	-52.7	-66.7	316	28	
2025-11-03T12:00	10350	257	-52.9	-66.5	318	27	
2025-11-03T12:00	10400	255	-53.3	-65.6	320	26	
2025-11-03T12:00	10450	253	-53.3	-66.0	322	26	
2025-11-03T12:00	10500	251	-53.2	-67.4	322	26	
2025-11-03T12:00	10550	249	-52.9	-68.4	321	26	
2025-11-03T12:00	10600	247	-53.0	-68.8	320	27	
2025-11-03T12:00	10650	245	-52.9	-68.7	319	27	
2025-11-03T12:00	10700	243	-53.2	-68.6	318	26	
2025-11-03T12:00	10750	241	-53.4	-68.6	316	26	
2025-11-03T12:00	10800	240	-53.8	-68.6	315	26	
2025-11-03T12:00	10850	238	-54.1	-68.4	313	26	
2025-11-03T12:00	10900	236	-54.1	-68.7	311	26	
2025-11-03T12:00	10950	234	-54.1	-69.1	308	26	
2025-11-03T12:00	11000	232	-54.0	-69.7	306	26	
2025-11-03T12:00	11050	230	-53.6	-69.7	304	27	
2025-11-03T12:00	11100	229	-53.4	-67.9	302	28	
2025-11-03T12:00	11150	227	-52.9	-67.0	300	28	
2025-11-03T12:00	11200	225	-53.1	-67.2	298	29	
2025-11-03T12:00	11250	223	-53.3	-67.5	298	30	
2025-11-03T12:00	11300	222	-53.6	-68.0	298	30	
2025-11-03T12:00	11350	220	-53.8	-68.8	300	31	
2025-11-03T12:00	11400	218	-54.1	-69.1	301	32	
2025-11-03T12:00	11450	217	-54.5	-69.2	302	33	
2025-11-03T12:00	11500	215	-54.7	-69.6	303	33	
2025-11-03T12:00	11550	213	-54.8	-70.5	305	33	
2025-11-03T12:00	11600	212	-54.3	-71.8	306	33	
2025-11-03T12:00	11650	210	-53.4	-72.6	307	32	
2025-11-03T12:00	11700	208	-52.8	-72.6	307	32	
2025-11-03T12:00	11750	207	-53.0	-72.7	308	33	
2025-11-03T12:00	11800	205	-53.1	-72.8	308	33	
2025-11-03T12:00	11850	203	-53.2	-73.3	310	32	
2025-11-03T12:00	11900	202	-53.0	-74.2	311	31	
2025-11-03T12:00	11950	200	-52.4	-75.6	310	29	
2025-11-03T12:00	12000	199	-52.3	-76.1	310	28	
2025-11-03T12:00	12050	197	-52.2	-76.3	309	28	
2025-11-03T12:00	12100	196	-52.0	-76.7	309	27	
2025-11-03T12:00	12150	194	-52.1	-76.9	311	27	
2025-11-03T12:00	12200	193	-52.4	-77.0	313	27	
2025-11-03T12:00	12250	191	-52.6	-77.1	314	27	
2025-11-03T12:00	12300	190	-52.8	-77.3	315	27	
2025-11-03T12:00	12350	188	-52.9	-77.6	315	27	
2025-11-03T12:00	12400	187	-53.1	-77.6	314	26	
2025-11-03T12:00	12450	185	-53.4	-77.5	313	25	
2025-11-03T12:00	12500	184	-53.9	-77.5	312	23	
2025-11-03T12:00	12550	183	-54.2	-77.4	311	22	
2025-11-03T12:00	12600	181	-54.5	-77.4	310	21	
2025-11-03T12:00	12650	180	-54.7	-77.5	309	20	
2025-11-03T12:00	12700	178	-55.0	-77.6	306	19	
2025-11-03T12:00	12750	177	-55.4	-77.7	303	19	
2025-11-03T12:00	12800	176	-55.8	-77.9	300	20	
2025-11-03T12:00	12850	174	-56.2	-78.0	298	20	
2025-11-03T12:00	12900	173	-56.5	-78.3	295	21	
2025-11-03T12:00	12950	171	-56.7	-78.5	294	21	
2025-11-03T12:00	13000	170	-57.0	-78.7	294	22	
2025-11-03T12:00	13050	169	-57.2	-78.8	294	23	
2025-11-03T12:00	13100	167	-57.6	-79.1	294	24	
2025-11-03T12:00	13150	166	-57.7	-79.2	294	25	
2025-11-03T12:00	13200	165	-57.9	-79.4	295	26	
2025-11-03T12:00	13250	164	-58.1	-79.7	297	27	
2025-11-03T12:00	13300	162	-58.1	-79.7	299	27	
2025-11-03T12:00	13350	161	-58.3	-79.9	301	28	
2025-11-03T12:00	13400	160	-58.5	-80.0	302	28	
2025-11-03T12:00	13450	158	-58.8	-80.2	303	28	
2025-11-03T12:00	13500	157	-59.0	-80.2	304	27	
2025-11-03T12:00	13550	156	-59.3	-80.4	305	26	
2025-11-03T12:00	13600	155	-59.5	-80.5	306	25	
2025-11-03T12:00	13650	153	-59.6	-80.7	307	24	
2025-11-03T12:00	13700	152	-59.8	-80.9	307	23	
2025-11-03T12:00	13750	151	-59.9	-81.1	306	23	
2025-11-03T12:00	13800	150	-60.1	-81.4	304	23	
2025-11-03T12:00	13850	149	-60.1	-81.8	302	23	
2025-11-03T12:00	13900	147	-59.9	-82.0	301	23	
2025-11-03T12:00	13950	146	-60.0	-82.3	299	23	
2025-11-03T12:00	14000	145	-60.3	-82.4	298	24	
2025-11-03T12:00	14050	144	-60.6	-82.5	297	24	
2025-11-03T12:00	14100	143	-60.9	-82.4	296	25	
2025-11-03T12:00	14150	142	-61.3	-82.6	296	26	
2025-11-03T12:00	14200	140	-61.4	-82.4	296	28	
2025-11-03T12:00	14250	139	-61.9	-82.4	296	29	
2025-11-03T12:00	14300	138	-62.2	-82.5	298	29	
2025-11-03T12:00	14350	137	-62.5	-82.5	300	29	
2025-11-03T12:00	14400	136	-62.6	-82.6	303	28	
2025-11-03T12:00	14450	135	-62.6	-82.6	306	28	
2025-11-03T12:00	14500	134	-62.7	-82.8	310	27	
2025-11-03T12:00	14550	133	-62.6	-82.8	314	27	
2025-11-03T12:00	14600	132	-62.6	-83.0	317	26	
2025-11-03T12:00	14650	131	-62.5	-83.0	319	25	
2025-11-03T12:00	14700	130	-62.8	-83.0	320	23	
2025-11-03T12:00	14750	129	-63.0	-83.1	321	22	
2025-11-03T12:00	14800	127	-63.3	-83.3	321	20	
2025-11-03T12:00	14850	126	-63.5	-83.3	320	18	
2025-11-03T12:00	14900	125	-63.8	-83.3	318	17	
2025-11-03T12:00	14950	124	-64.2	-83.5	316	17	
2025-11-03T12:00	15000	123	-64.3	-83.5	313	17	
2025-11-03T12:00	15050	122	-64.7	-83.7	310	18	
2025-11-03T12:00	15100	121	-64.9	-83.8	309	18	
2025-11-03T12:00	15150	120	-64.8	-84.0	311	18	
2025-11-03T12:00	15200	119	-64.6	-84.1	313	17	
2025-11-03T12:00	15250	118	-64.6	-84.1	315	16	
2025-11-03T12:00	15300	117	-64.8	-84.2	315	15	
2025-11-03T12:00	15350	116	-64.9	-84.1	312	14	
2025-11-03T12:00	15400	116	-65.3	-84.3	307	14	
2025-11-03T12:00	15450	115	-65.6	-84.4	303	14	
2025-11-03T12:00	15500	114	-65.6	-84.4	300	15	
2025-11-03T12:00	15550	113	-65.8	-84.4	301	16	
2025-11-03T12:00	15600	112	-65.9	-84.5	303	17	
2025-11-03T12:00	15650	111	-66.1	-84.5	307	18	
2025-11-03T12:00	15700	110	-66.3	-84.7	311	20	
2025-11-03T12:00	15750	109	-66.2	-84.7	314	21	
2025-11-03T12:00	15800	108	-66.2	-84.8	317	22	
2025-11-03T12:00	15850	107	-66.1	-84.9	320	21	
2025-11-03T12:00	15900	106	-66.1	-85.1	322	21	
2025-11-03T12:00	15950	105	-65.8	-85.1	325	20	
2025-11-03T12:00	16000	105	-65.7	-85.1	328	19	
2025-11-03T12:00	16050	104	-65.8	-85.4	332	19	
2025-11-03T12:00	16100	103	-65.4	-85.2	335	18	
2025-11-03T12:00	16150	102	-65.5	-85.2	337	17	
2025-11-03T12:00	16200	101	-65.9	-85.3	338	15	
2025-11-03T12:00	16250	100	-66.4	-85.4	338	15	
2025-11-03T12:00	16300	100	-66.7	-85.4	336	14	
2025-11-03T12:00	16350	99	-67.2	-85.7	332	13	
2025-11-03T12:00	16400	98	-67.3	-85.8	328	13	
2025-11-03T12:00	16450	97	-67.1	-85.8	326	13	
2025-11-03T12:00	16500	96	-67.0	-86.0	326	13	
2025-11-03T12:00	16550	96	-66.3	-85.9	327	13	
2025-11-03T12:00	16600	95	-66.2	-86.0	326	12	
2025-11-03T12:00	16650	94	-66.2	-86.0	323	12	
2025-11-03T12:00	16700	93	-66.4	-86.1	321	11	
2025-11-03T12:00	16750	92	-66.7	-86.5	321	10	
2025-11-03T12:00	16800	92	-65.9	-86.3	321	10	
2025-11-03T12:00	16850	91	-65.6	-86.4	320	10	
2025-11-03T12:00	16900	90	-65.7	-86.5	320	9	
2025-11-03T12:00	16950	89	-65.5	-86.5	319	9	
2025-11-03T12:00	17000	89	-65.6	-86.6	316	9	
2025-11-03T12:00	17050	88	-65.2	-86.6	316	10	
2025-11-03T12:00	17100	87	-65.0	-86.6	319	9	
2025-11-03T12:00	17150	87	-64.9	-86.6	321	9	
2025-11-03T12:00	17200	86	-64.7	-86.6	319	9	
2025-11-03T12:00	17250	85	-64.6	-86.6	314	9	
2025-11-03T12:00	17300	84	-64.7	-86.6	307	9	
2025-11-03T12:00	17350	84	-64.8	-86.6	299	8	
2025-11-03T12:00	17400	83	-65.2	-86.7	290	6	
2025-11-03T12:00	17450	82	-65.4	-86.7	276	5	
2025-11-03T12:00	17500	82	-65.5	-86.7	260	5	
2025-11-03T12:00	17550	81	-65.8	-86.8	249	7	
2025-11-03T12:00	17600	80	-66.0	-87.0	248	8	
2025-11-03T12:00	17650	80	-66.1	-87.1	252	8	
2025-11-03T12:00	17700	79	-66.1	-87.1	261	8	
2025-11-03T12:00	17750	78	-66.3	-87.2	268	9	
2025-11-03T12:00	17800	78	-66.4	-87.2	275	9	
2025-11-03T12:00	17850	77	-66.6	-87.4	281	9	
2025-11-03T12:00	17900	76	-66.3	-87.4	280	8	
2025-11-03T12:00	17950	76	-66.2	-87.3	275	8	
2025-11-03T12:00	18000	75	-66.4	-87.4	274	8	
2025-11-03T12:00	18050	75	-66.3	-87.4	272	9	
2025-11-03T12:00	18100	74	-66.5	-87.4	271	9	
2025-11-03T12:00	18150	73	-66.9	-87.6	273	11	
2025-11-03T12:00	18200	73	-66.9	-87.7	276	12	
2025-11-03T12:00	18250	72	-66.5	-87.7	279	14	
2025-11-03T12:00	18300	72	-66.3	-87.9	281	14	
2025-11-03T12:00	18350	71	-65.5	-87.8	285	14	
2025-11-03T12:00	18400	70	-65.1	-87.7	289	13	
2025-11-03T12:00	18450	70	-64.7	-87.6	288	12	
2025-11-03T12:00	18500	69	-64.5	-87.4	282	12	
2025-11-03T12:00	18550	69	-64.6	-87.5	282	13	
2025-11-03T12:00	18600	68	-64.5	-87.5	288	14	
2025-11-03T12:00	18650	68	-64.0	-87.5	296	14	
2025-11-03T12:00	18700	67	-63.5	-87.5	300	15	
2025-11-03T12:00	18750	67	-63.4	-87.6	301	14	
2025-11-03T12:00	18800	66	-62.6	-87.3	301	14	
2025-11-03T12:00	18850	65	-62.2	-87.3	303	14	
2025-11-03T12:00	18900	65	-62.3	-87.3	307	13	
2025-11-03T12:00	18950	64	-62.2	-87.3	312	12	
2025-11-03T12:00	19000	64	-62.3	-87.3	315	12	
2025-11-03T12:00	19050	63	-62.3	-87.2	319	11	
2025-11-03T12:00	19100	63	-62.4	-87.2	324	9	
2025-11-03T12:00	19150	62	-62.5	-87.4	327	7	
2025-11-03T12:00	19200	62	-62.2	-87.3	325	6	
2025-11-03T12:00	19250	61	-62.2	-87.2	321	5	
2025-11-03T12:00	19300	61	-62.4	-87.2	317	4	
2025-11-03T12:00	19350	60	-62.8	-87.3	313	3	
2025-11-03T12:00	19400	60	-63.0	-87.3	289	2	
2025-11-03T12:00	19450	59	-63.1	-87.4	247	3	
2025-11-03T12:00	19500	59	-63.1	-87.2	219	4	
2025-11-03T12:00	19550	58	-63.4	-87.4	206	6	
2025-11-03T12:00	19600	58	-63.7	-87.6	197	7	
2025-11-03T12:00	19650	57	-63.8	-87.6	192	9	
2025-11-03T12:00	19700	57	-63.9	-87.7	191	9	
2025-11-03T12:00	19750	57	-63.9	-87.8	194	9	
2025-11-03T12:00	19800	56	-63.7	-87.7	200	8	
2025-11-03T12:00	19850	56	-64.1	-87.8	207	8	
2025-11-03T12:00	19900	55	-64.4	-87.8	215	7	
2025-11-03T12:00	19950	55	-64.7	-87.8	224	7	
2025-11-03T12:00	20000	54	-65.0	-87.9	232	6	
2025-11-03T12:00	20050	54	-65.4		242	6	
2025-11-03T12:00	20100	53	-65.8		254	6	
2025-11-03T12:00	20150	53	-66.2		261	7	
2025-11-03T12:00	20200	53	-66.3		262	7	
2025-11-03T12:00	20250	52	-66.2		258	7	
2025-11-03T12:00	20300	52	-66.2		252	7	
2025-11-03T12:00	20350	51	-66.5		248	7	
2025-11-03T12:00	20400	51	-67.0		247	8	
2025-11-03T12:00	20450	50	-67.3		250	8	
2025-11-03T12:00	20500	50	-67.2		254	8	
2025-11-03T12:00	20550	50	-66.9		260	8	
2025-11-03T12:00	20600	49	-67.0		266	8	
2025-11-03T12:00	20650	49	-67.2		269	8	
2025-11-03T12:00	20700	48	-67.2		267	9	
2025-11-03T12:00	20750	48	-66.6		268	12	
2025-11-03T12:00	20800	48	-65.0		270	14	
2025-11-03T12:00	20850	47	-64.8		272	16	
2025-11-03T12:00	20900	47	-64.9		272	17	
2025-11-03T12:00	20950	46	-64.8		273	17	
2025-11-03T12:00	21000	46	-64.5		275	16	
2025-11-03T12:00	21050	46	-64.0		276	14	
2025-11-03T12:00	21100	45	-64.1		277	12	
2025-11-03T12:00	21150	45	-64.4		278	11	
2025-11-03T12:00	21200	45	-64.6		280	10	
2025-11-03T12:00	21250	44	-64.1		279	9	
2025-11-03T12:00	21300	44	-63.7		274	9	
2025-11-03T12:00	21350	43	-64.0		265	10	
2025-11-03T12:00	21400	43	-64.1		259	10	
2025-11-03T12:00	21450	43	-64.2		258	11	
2025-11-03T12:00	21500	42	-64.2		263	12	
2025-11-03T12:00	21550	42	-64.2		269	13	
2025-11-03T12:00	21600	42	-64.2		274	14	
2025-11-03T12:00	21650	41	-64.2		279	14	
2025-11-03T12:00	21700	41	-64.1		281	13	
2025-11-03T12:00	21750	41	-63.9		282	11	
2025-11-03T12:00	21800	40	-63.7		281	9	
2025-11-03T12:00	21850	40	-63.9		280	8	
2025-11-03T12:00	21900	40	-64.1		275	6	
2025-11-03T12:00	21950	39	-64.2		266	5	
2025-11-03T12:00	22000	39	-63.9		257	5	
2025-11-03T12:00	22050	39	-63.9		251	6	
2025-11-03T12:00	22100	38	-64.0		244	6	
2025-11-03T12:00	22150	38	-64.3		240	6	
2025-11-03T12:00	22200	38	-64.5		238	7	
2025-11-03T12:00	22250	38	-64.8		237	7	
2025-11-03T12:00	22300	37	-64.9		235	8	
2025-11-03T12:00	22350	37	-65.2		234	9	
2025-11-03T12:00	22400	37	-65.6		236	9	
2025-11-03T12:00	22450	36	-65.5		240	8	
2025-11-03T12:00	22500	36	-65.3		242	8	
2025-11-04T00:00	491	968	3.3	2.9	205	1	
2025-11-04T00:00	501	966	4.6	3.0	201	1	
2025-11-04T00:00	520	965	6.4	3.6	199	1	
2025-11-04T00:00	540	962	7.0	3.4	198	2	
2025-11-04T00:00	560	960	7.1	3.5	197	2	
2025-11-04T00:00	580	957	7.0	3.7	195	2	
2025-11-04T00:00	600	955	7.1	4.1	193	2	
2025-11-04T00:00	620	952	7.3	4.8	189	1	
2025-11-04T00:00	640	950	7.2	5.2	176	1	
2025-11-04T00:00	660	948	7.2	5.4	141	0	
2025-11-04T00:00	680	946	7.4	5.1	89	0	
2025-11-04T00:00	700	944	7.6	5.0	62	1	
2025-11-04T00:00	720	941	7.6	4.2	54	1	
2025-11-04T00:00	740	939	7.5	4.2	56	1	
2025-11-04T00:00	760	936	7.4	3.9	66	1	
2025-11-04T00:00	780	934	7.3	3.7	85	1	
2025-11-04T00:00	800	932	7.2	3.9	108	1	
2025-11-04T00:00	820	930	7.1	4.4	125	1	
2025-11-04T00:00	840	928	7.3	4.3	133	1	
2025-11-04T00:00	860	925	7.4	3.7	135	1	
2025-11-04T00:00	880	923	7.5	4.1	132	1	
2025-11-04T00:00	900	921	7.5	4.1	125	1	
2025-11-04T00:00	920	919	7.3	4.1	115	1	
2025-11-04T00:00	940	916	7.3	3.7	107	1	
2025-11-04T00:00	960	914	7.2	3.2	101	1	
2025-11-04T00:00	980	912	7.2	2.6	97	2	
2025-11-04T00:00	1000	910	7.2	2.4	94	2	
2025-11-04T00:00	1020	907	7.2	2.0	93	2	
2025-11-04T00:00	1040	905	7.2	1.6	92	2	
2025-11-04T00:00	1060	903	7.1	1.4	93	2	
2025-11-04T00:00	1080	901	6.9	1.4	95	2	
2025-11-04T00:00	1100	899	6.8	1.3	98	2	
2025-11-04T00:00	1120	896	6.6	1.1	100	2	
2025-11-04T00:00	1140	894	6.4	1.1	102	2	
2025-11-04T00:00	1160	892	6.3	1.6	104	2	
2025-11-04T00:00	1180	890	6.3	0.7	103	2	
2025-11-04T00:00	1200	888	6.3	-0.1	100	2	
2025-11-04T00:00	1220	886	6.2	-0.8	94	1	
2025-11-04T00:00	1240	883	6.1	-2.2	83	1	
2025-11-04T00:00	1260	881	6.1	-1.9	69	1	
2025-11-04T00:00	1280	879	6.1	-2.3	38	1	
2025-11-04T00:00	1300	877	6.1	-3.0	359	1	
2025-11-04T00:00	1320	875	6.0	-2.8	337	1	
2025-11-04T00:00	1340	873	5.8	-2.4	329	1	
2025-11-04T00:00	1360	871	5.8	-1.9	330	1	
2025-11-04T00:00	1380	869	5.9	-3.2	338	1	
2025-11-04T00:00	1400	866	5.9	-4.3	352	1	
2025-11-04T00:00	1420	864	6.0	-3.6	7	2	
2025-11-04T00:00	1440	862	6.2	-3.7	20	2	
2025-11-04T00:00	1460	860	6.5	-6.1	33	2	
2025-11-04T00:00	1480	858	6.7	-7.1	48	2	
2025-11-04T00:00	1500	856	6.8	-5.8	60	2	
2025-11-04T00:00	1520	854	6.8	-5.5	67	2	
2025-11-04T00:00	1540	852	6.9	-5.7	70	2	
2025-11-04T00:00	1560	850	6.9	-4.0	68	2	
2025-11-04T00:00	1580	848	6.8	-3.5	60	2	
2025-11-04T00:00	1600	846	6.7	-3.7	45	2	
2025-11-04T00:00	1620	843	6.6	-3.5	26	2	
2025-11-04T00:00	1640	841	6.7	-3.6	7	2	
2025-11-04T00:00	1660	839	6.9	-3.7	349	2	
2025-11-04T00:00	1680	837	7.1	-4.0	332	2	
2025-11-04T00:00	1700	835	7.3	-4.3	315	2	
2025-11-04T00:00	1720	833	7.4	-4.4	301	2	
2025-11-04T00:00	1740	831	7.4	-4.6	293	2	
2025-11-04T00:00	1760	829	7.4	-5.2	289	2	
2025-11-04T00:00	1780	827	7.4	-6.0	288	2	
2025-11-04T00:00	1800	825	7.4	-6.0	290	2	
2025-11-04T00:00	1820	823	7.4	-6.2	292	2	
2025-11-04T00:00	1840	821	7.5	-6.5	291	2	
2025-11-04T00:00	1860	819	7.7	-7.8	285	2	
2025-11-04T00:00	1880	817	7.9	-9.0	274	2	
2025-11-04T00:00	1900	815	7.9	-9.8	258	2	
2025-11-04T00:00	1920	813	7.8	-8.2	231	1	
2025-11-04T00:00	1940	811	7.8	-8.2	193	1	
2025-11-04T00:00	1960	809	7.8	-8.2	160	1	
2025-11-04T00:00	1980	807	7.7	-7.7	142	2	
2025-11-04T00:00	2000	805	7.6	-7.2	135	2	
2025-11-04T00:00	2020	803	7.6	-6.8	133	2	
2025-11-04T00:00	2040	801	7.5	-6.6	135	2	
2025-11-04T00:00	2060	799	7.4	-6.5	141	2	
2025-11-04T00:00	2080	798	7.4	-6.4	155	2	
2025-11-04T00:00	2100	795	7.3	-6.5	171	2	
2025-11-04T00:00	2120	794	7.2	-6.8	184	2	
2025-11-04T00:00	2140	792	7.2	-7.2	191	2	
2025-11-04T00:00	2160	790	7.2	-7.3	194	2	
2025-11-04T00:00	2180	788	7.1	-7.3	191	2	
2025-11-04T00:00	2200	786	6.9	-7.4	181	2	
2025-11-04T00:00	2220	784	6.8	-7.5	161	1	
2025-11-04T00:00	2240	782	6.6	-7.6	142	1	
2025-11-04T00:00	2260	780	6.5	-7.7	128	2	
2025-11-04T00:00	2280	778	6.4	-7.6	120	2	
2025-11-04T00:00	2300	777	6.3	-7.5	117	2	
2025-11-04T00:00	2320	775	6.2	-7.4	117	3	
2025-11-04T00:00	2340	773	6.1	-7.3	117	3	
2025-11-04T00:00	2360	771	6.0	-7.0	118	3	
2025-11-04T00:00	2380	769	5.9	-6.9	119	3	
2025-11-04T00:00	2400	767	5.7	-6.2	120	3	
2025-11-04T00:00	2420	765	5.6	-6.2	122	2	
2025-11-04T00:00	2440	763	5.6	-6.9	123	2	
2025-11-04T00:00	2460	761	5.5	-7.2	123	2	
2025-11-04T00:00	2480	760	5.6	-6.8	123	2	
2025-11-04T00:00	2500	758	5.6	-6.4	123	2	
2025-11-04T00:00	2520	756	5.5	-6.7	123	2	
2025-11-04T00:00	2540	754	5.4	-7.1	125	1	
2025-11-04T00:00	2560	752	5.3	-7.2	129	1	
2025-11-04T00:00	2580	750	5.2	-7.5	134	1	
2025-11-04T00:00	2600	749	5.1	-7.8	139	1	
2025-11-04T00:00	2620	747	4.9	-7.9	142	1	
2025-11-04T00:00	2640	745	4.8	-8.5	118	0	
2025-11-04T00:00	2660	743	4.7	-8.6	13	0	
2025-11-04T00:00	2680	741	4.5	-8.4	4	1	
2025-11-04T00:00	2700	739	4.4	-8.5	4	1	
2025-11-04T00:00	2720	737	4.3	-8.4	4	2	
2025-11-04T00:00	2740	736	4.1	-8.5	3	2	
2025-11-04T00:00	2760	734	3.9	-8.5	1	2	
2025-11-04T00:00	2780	732	3.8	-9.0	359	2	
2025-11-04T00:00	2800	730	3.6	-8.9	356	2	
2025-11-04T00:00	2820	729	3.4	-8.7	353	2	
2025-11-04T00:00	2840	727	3.2	-8.6	352	2	
2025-11-04T00:00	2860	725	3.0	-8.7	354	2	
2025-11-04T00:00	2880	723	2.8	-8.6	359	2	
2025-11-04T00:00	2900	721	2.6	-8.3	5	2	
2025-11-04T00:00	2920	720	2.4	-8.3	10	2	
2025-11-04T00:00	2940	718	2.3	-8.3	13	2	
2025-11-04T00:00	2960	716	2.1	-8.9	16	3	
2025-11-04T00:00	2980	714	2.0	-9.0	18	3	
2025-11-04T00:00	3000	712	1.8	-8.7	20	3	
2025-11-04T00:00	3020	711	1.6	-8.7	21	3	
2025-11-04T00:00	3040	709	1.5	-9.0	21	2	
2025-11-04T00:00	3060	707	1.3	-8.7	20	2	
2025-11-04T00:00	3080	706	1.2	-8.8	18	2	
2025-11-04T00:00	3100	704	1.1	-9.0	13	2	
2025-11-04T00:00	3120	702	1.0	-9.0	7	2	
2025-11-04T00:00	3140	700	0.8	-9.3	358	1	
2025-11-04T00:00	3160	699	0.7	-9.4	338	1	
2025-11-04T00:00	3180	697	0.6	-10.6	282	1	
2025-11-04T00:00	3200	695	0.5	-11.7	223	1	
2025-11-04T00:00	3220	693	0.4	-11.7	207	1	
2025-11-04T00:00	3240	692	0.2	-10.4	198	2	
2025-11-04T00:00	3260	690	0.1	-10.8	194	2	
2025-11-04T00:00	3280	688	0.0	-11.4	194	1	
2025-11-04T00:00	3300	686	-0.1	-11.7	207	1	
2025-11-04T00:00	3320	685	-0.3	-12.1	325	0	
2025-11-04T00:00	3340	683	-0.4	-12.5	342	1	
2025-11-04T00:00	3360	682	-0.5	-12.9	339	2	
2025-11-04T00:00	3380	680	-0.7	-13.4	334	2	
2025-11-04T00:00	3400	678	-0.8	-14.0	327	2	
2025-11-04T00:00	3420	676	-0.9	-14.1	323	2	
2025-11-04T00:00	3440	674	-1.0	-14.2	325	3	
2025-11-04T00:00	3460	673	-1.2	-14.5	332	3	
2025-11-04T00:00	3480	671	-1.3	-15.0	342	3	
2025-11-04T00:00	3500	669	-1.3	-15.9	352	4	
2025-11-04T00:00	3520	668	-1.3	-14.6	358	5	
2025-11-04T00:00	3540	666	-1.3	-11.7	358	5	
2025-11-04T00:00	3560	664	-1.5	-10.3	356	5	
2025-11-04T00:00	3580	663	-1.6	-10.0	351	5	
2025-11-04T00:00	3600	661	-1.8	-9.6	345	5	
2025-11-04T00:00	3620	659	-1.8	-9.5	339	5	
2025-11-04T00:00	3640	658	-1.7	-9.3	334	5	
2025-11-04T00:00	3660	656	-1.8	-8.3	332	5	
2025-11-04T00:00	3680	654	-1.9	-8.0	331	5	
2025-11-04T00:00	3700	653	-2.1	-8.3	332	4	
2025-11-04T00:00	3720	651	-2.3	-8.7	334	4	
2025-11-04T00:00	3740	649	-2.5	-8.3	336	4	
2025-11-04T00:00	3760	648	-2.7	-8.2	337	4	
2025-11-04T00:00	3780	646	-2.8	-8.6	337	4	
2025-11-04T00:00	3800	645	-2.9	-8.5	335	4	
2025-11-04T00:00	3820	643	-3.0	-8.1	332	4	
2025-11-04T00:00	3840	641	-3.1	-8.7	330	4	
2025-11-04T00:00	3860	640	-3.2	-9.1	326	3	
2025-11-04T00:00	3880	638	-3.4	-9.0	323	3	
2025-11-04T00:00	3900	636	-3.6	-9.4	321	3	
2025-11-04T00:00	3920	635	-3.7	-9.3	318	3	
2025-11-04T00:00	3940	633	-3.9	-9.3	317	2	
2025-11-04T00:00	3960	632	-4.0	-9.3	318	2	
2025-11-04T00:00	3980	630	-4.2	-9.9	319	2	
2025-11-04T00:00	4000	628	-4.2	-10.0	320	2	
2025-11-04T00:00	4020	627	-4.4	-10.1	320	2	
2025-11-04T00:00	4040	625	-4.5	-10.2	320	2	
2025-11-04T00:00	4060	624	-4.5	-10.3	318	3	
2025-11-04T00:00	4080	622	-4.6	-10.5	317	3	
2025-11-04T00:00	4100	621	-4.7	-10.7	316	3	
2025-11-04T00:00	4120	619	-4.7	-11.4	316	3	
2025-11-04T00:00	4140	617	-4.8	-11.4	317	3	
2025-11-04T00:00	4160	616	-4.9	-11.6	318	3	
2025-11-04T00:00	4180	614	-5.0	-11.8	319	2	
2025-11-04T00:00	4200	613	-5.1	-11.7	317	2	
2025-11-04T00:00	4220	611	-5.3	-11.7	312	3	
2025-11-04T00:00	4240	610	-5.4	-11.9	308	3	
2025-11-04T00:00	4260	608	-5.6	-12.2	305	3	
2025-11-04T00:00	4280	607	-5.7	-12.4	302	3	
2025-11-04T00:00	4300	605	-5.8	-12.7	301	4	
2025-11-04T00:00	4320	603	-5.9	-12.9	301	4	
2025-11-04T00:00	4340	602	-6.0	-13.0	301	4	
2025-11-04T00:00	4360	600	-6.2	-13.1	301	4	
2025-11-04T00:00	4380	599	-6.4	-13.2	301	4	
2025-11-04T00:00	4400	597	-6.5	-13.3	302	4	
2025-11-04T00:00	4420	596	-6.7	-13.6	302	4	
2025-11-04T00:00	4440	594	-6.7	-13.9	304	4	
2025-11-04T00:00	4460	593	-6.8	-14.3	306	4	
2025-11-04T00:00	4480	591	-6.9	-14.2	308	4	
2025-11-04T00:00	4500	590	-7.0	-13.9	311	5	
2025-11-04T00:00	4520	588	-7.2	-13.8	314	5	
2025-11-04T00:00	4540	587	-7.3	-13.9	315	5	
2025-11-04T00:00	4560	585	-7.5	-14.0	315	5	
2025-11-04T00:00	4580	584	-7.6	-14.1	314	5	
2025-11-04T00:00	4600	582	-7.8	-14.1	312	5	
2025-11-04T00:00	4620	581	-8.0	-14.3	310	5	
2025-11-04T00:00	4640	579	-8.2	-14.5	307	5	
2025-11-04T00:00	4660	578	-8.3	-14.6	305	5	
2025-11-04T00:00	4680	576	-8.5	-14.6	303	5	
2025-11-04T00:00	4700	575	-8.6	-14.9	302	5	
2025-11-04T00:00	4720	573	-8.6	-15.9	301	5	
2025-11-04T00:00	4740	572	-8.6	-16.0	301	5	
2025-11-04T00:00	4760	570	-8.7	-16.2	302	5	
2025-11-04T00:00	4780	569	-8.8	-16.5	304	5	
2025-11-04T00:00	4800	567	-8.8	-17.1	306	6	
2025-11-04T00:00	4820	566	-8.8	-17.5	308	6	
2025-11-04T00:00	4840	564	-9.0	-17.5	311	6	
2025-11-04T00:00	4860	563	-9.1	-17.4	312	6	
2025-11-04T00:00	4880	561	-9.3	-17.5	312	6	
2025-11-04T00:00	4900	560	-9.5	-17.9	311	6	
2025-11-04T00:00	4920	559	-9.6	-18.7	308	6	
2025-11-04T00:00	4940	557	-9.7	-19.6	306	6	
2025-11-04T00:00	4960	556	-9.8	-20.1	303	7	
2025-11-04T00:00	4980	554	-10.0	-19.9	300	7	
2025-11-04T00:00	5000	553	-10.1	-19.8	300	7	
2025-11-04T00:00	5020	551	-10.2	-20.0	301	7	
2025-11-04T00:00	5040	550	-10.3	-20.1	303	8	
2025-11-04T00:00	5060	549	-10.4	-20.2	305	8	
2025-11-04T00:00	5080	547	-10.5	-20.6	308	8	
2025-11-04T00:00	5100	546	-10.4	-21.4	309	8	
2025-11-04T00:00	5120	544	-10.4	-22.6	310	8	
2025-11-04T00:00	5140	543	-10.5	-22.8	312	8	
2025-11-04T00:00	5160	541	-10.7	-23.0	312	8	
2025-11-04T00:00	5180	540	-10.9	-23.1	314	8	
2025-11-04T00:00	5200	539	-11.1	-23.5	317	8	
2025-11-04T00:00	5220	537	-11.2	-24.1	320	8	
2025-11-04T00:00	5240	536	-11.3	-26.4	323	7	
2025-11-04T00:00	5260	535	-11.2	-29.8	325	7	
2025-11-04T00:00	5280	533	-11.1	-33.5	326	7	
2025-11-04T00:00	5300	532	-10.9	-34.9	324	7	
2025-11-04T00:00	5320	530	-10.9	-35.7	321	7	
2025-11-04T00:00	5340	529	-11.0	-37.8	318	7	
2025-11-04T00:00	5360	528	-10.9	-39.6	313	7	
2025-11-04T00:00	5380	526	-11.0	-39.5	311	7	
2025-11-04T00:00	5400	525	-11.0	-40.0	310	7	
2025-11-04T00:00	5420	523	-11.2	-40.3	310	7	
2025-11-04T00:00	5440	522	-11.3	-40.6	311	8	
2025-11-04T00:00	5460	521	-11.4	-40.8	313	8	
2025-11-04T00:00	5480	519	-11.6	-40.9	313	8	
2025-11-04T00:00	5500	518	-11.7	-41.0	313	9	
2025-11-04T00:00	5520	517	-11.9	-40.9	312	9	
2025-11-04T00:00	5540	515	-12.0	-40.7	311	9	
2025-11-04T00:00	5560	514	-12.2	-40.5	311	9	
2025-11-04T00:00	5580	513	-12.4	-40.4	310	9	
2025-11-04T00:00	5600	511	-12.6	-40.4	310	9	
2025-11-04T00:00	5620	510	-12.8	-40.3	312	9	
2025-11-04T00:00	5640	508	-13.0	-40.3	314	9	
2025-11-04T00:00	5660	507	-13.2	-40.3	315	10	
2025-11-04T00:00	5680	506	-13.4	-40.3	315	10	
2025-11-04T00:00	5700	505	-13.5	-40.3	316	10	
2025-11-04T00:00	5720	503	-13.7	-39.9	314	9	
2025-11-04T00:00	5740	502	-13.8	-39.6	312	9	
2025-11-04T00:00	5760	501	-14.0	-39.6	310	8	
2025-11-04T00:00	5780	499	-14.1	-39.4	308	8	
2025-11-04T00:00	5800	498	-14.3	-39.3	307	8	
2025-11-04T00:00	5820	497	-14.5	-39.3	305	8	
2025-11-04T00:00	5840	495	-14.7	-39.2	304	7	
2025-11-04T00:00	5860	494	-14.8	-39.2	302	7	
2025-11-04T00:00	5880	493	-15.0	-39.0	299	7	
2025-11-04T00:00	5900	491	-15.1	-39.0	296	7	
2025-11-04T00:00	5920	490	-15.3	-38.9	295	7	
2025-11-04T00:00	5940	489	-15.4	-39.1	295	7	
2025-11-04T00:00	5960	488	-15.5	-40.2	296	7	
2025-11-04T00:00	5980	486	-15.6	-41.2	297	7	
2025-11-04T00:00	6000	485	-15.7	-41.5	298	7	
2025-11-04T00:00	6020	484	-15.8	-41.0	298	7	
2025-11-04T00:00	6040	482	-16.0	-40.5	297	8	
2025-11-04T00:00	6060	481	-16.1	-40.6	295	8	
2025-11-04T00:00	6080	480	-16.3	-40.7	291	8	
2025-11-04T00:00	6100	479	-16.5	-40.7	288	8	
2025-11-04T00:00	6120	477	-16.6	-41.0	286	8	
2025-11-04T00:00	6140	476	-16.8	-42.0	283	8	
2025-11-04T00:00	6160	475	-17.0	-42.4	281	8	
2025-11-04T00:00	6180	474	-17.1	-43.9	280	8	
2025-11-04T00:00	6200	472	-17.1	-46.8	280	7	
2025-11-04T00:00	6220	471	-17.1	-46.3	280	7	
2025-11-04T00:00	6240	470	-17.2	-44.5	280	7	
2025-11-04T00:00	6260	468	-17.3	-43.2	280	7	
2025-11-04T00:00	6280	467	-17.5	-40.3	281	7	
2025-11-04T00:00	6300	466	-17.7	-38.5	281	8	
2025-11-04T00:00	6320	465	-17.9	-37.4	282	8	
2025-11-04T00:00	6340	463	-18.1	-36.9	282	8	
2025-11-04T00:00	6360	462	-18.3	-36.7	282	8	
2025-11-04T00:00	6380	461	-18.4	-36.7	280	8	
2025-11-04T00:00	6400	460	-18.7	-36.4	278	8	
2025-11-04T00:00	6420	459	-18.8	-35.9	276	7	
2025-11-04T00:00	6440	458	-19.0	-35.9	274	7	
2025-11-04T00:00	6460	456	-19.2	-35.8	274	7	
2025-11-04T00:00	6480	455	-19.4	-35.8	275	7	
2025-11-04T00:00	6500	454	-19.6	-35.1	279	7	
2025-11-04T00:00	6520	452	-19.8	-35.2	284	6	
2025-11-04T00:00	6540	451	-20.0	-35.2	289	7	
2025-11-04T00:00	6560	450	-20.1	-35.0	294	7	
2025-11-04T00:00	6580	449	-20.1	-36.6	296	7	
2025-11-04T00:00	6600	448	-20.1	-38.4	298	7	
2025-11-04T00:00	6620	447	-20.2	-37.6	300	7	
2025-11-04T00:00	6640	445	-20.3	-36.1	303	7	
2025-11-04T00:00	6660	444	-20.5	-34.8	305	7	
2025-11-04T00:00	6680	443	-20.6	-34.1	308	7	
2025-11-04T00:00	6700	442	-20.7	-34.9	310	8	
2025-11-04T00:00	6720	440	-20.8	-35.2	313	8	
2025-11-04T00:00	6740	439	-20.9	-35.2	316	8	
2025-11-04T00:00	6760	438	-21.0	-35.9	317	8	
2025-11-04T00:00	6780	437	-21.1	-35.1	318	8	
2025-11-04T00:00	6800	436	-21.3	-35.0	318	9	
2025-11-04T00:00	6820	435	-21.5	-35.4	319	9	
2025-11-04T00:00	6840	433	-21.7	-35.3	319	9	
2025-11-04T00:00	6860	432	-21.9	-35.9	319	9	
2025-11-04T00:00	6880	431	-22.1	-37.1	319	9	
2025-11-04T00:00	6900	430	-22.2	-38.0	320	9	
2025-11-04T00:00	6920	429	-22.4	-38.0	320	9	
2025-11-04T00:00	6940	427	-22.6	-38.1	320	9	
2025-11-04T00:00	6960	426	-22.7	-38.2	320	9	
2025-11-04T00:00	6980	425	-22.9	-38.6	320	9	
2025-11-04T00:00	7000	424	-23.1	-38.6	321	9	
2025-11-04T00:00	7020	423	-23.3	-38.6	321	9	
2025-11-04T00:00	7040	422	-23.4	-38.3	321	9	
2025-11-04T00:00	7060	421	-23.6	-38.0	321	9	
2025-11-04T00:00	7080	419	-23.7	-39.5	320	9	
2025-11-04T00:00	7100	418	-23.9	-39.8	319	10	
2025-11-04T00:00	7120	417	-24.0	-39.8	318	10	
2025-11-04T00:00	7140	416	-24.2	-40.0	317	10	
2025-11-04T00:00	7160	415	-24.4	-40.4	315	10	
2025-11-04T00:00	7180	414	-24.5	-40.3	314	11	
2025-11-04T00:00	7200	412	-24.7	-40.3	313	11	
2025-11-04T00:00	7220	411	-24.8	-40.2	313	11	
2025-11-04T00:00	7240	410	-25.0	-40.7	313	11	
2025-11-04T00:00	7260	409	-25.1	-41.0	313	10	
2025-11-04T00:00	7280	408	-25.3	-41.2	313	10	
2025-11-04T00:00	7300	407	-25.5	-41.0	313	10	
2025-11-04T00:00	7320	406	-25.7	-41.1	313	11	
2025-11-04T00:00	7340	405	-25.8	-42.0	313	11	
2025-11-04T00:00	7360	404	-26.0	-42.9	312	11	
2025-11-04T00:00	7380	402	-26.1	-43.0	311	11	
2025-11-04T00:00	7400	401	-26.3	-43.0	311	11	
2025-11-04T00:00	7420	400	-26.4	-43.3	311	12	
2025-11-04T00:00	7440	399	-26.6	-43.0	312	12	
2025-11-04T00:00	7460	398	-26.8	-42.8	312	12	
2025-11-04T00:00	7480	397	-27.0	-42.6	313	12	
2025-11-04T00:00	7500	396	-27.2	-42.6	314	13	
2025-11-04T00:00	7520	395	-27.4	-42.8	314	13	
2025-11-04T00:00	7540	394	-27.6	-42.6	314	13	
2025-11-04T00:00	7560	393	-27.7	-42.5	314	13	
2025-11-04T00:00	7580	391	-27.9	-42.8	313	13	
2025-11-04T00:00	7600	390	-28.1	-42.9	313	13	
2025-11-04T00:00	7620	389	-28.3	-43.1	312	13	
2025-11-04T00:00	7640	388	-28.5	-43.2	312	13	
2025-11-04T00:00	7660	387	-28.7	-42.9	313	13	
2025-11-04T00:00	7680	386	-28.9	-42.8	313	13	
2025-11-04T00:00	7700	385	-29.1	-43.2	314	12	
2025-11-04T00:00	7720	384	-29.2	-43.3	315	12	
2025-11-04T00:00	7740	383	-29.4	-43.1	316	12	
2025-11-04T00:00	7760	382	-29.6	-42.8	316	12	
2025-11-04T00:00	7780	381	-29.7	-42.5	315	12	
2025-11-04T00:00	7800	380	-29.9	-42.0	314	11	
2025-11-04T00:00	7820	378	-30.1	-41.4	312	11	
2025-11-04T00:00	7840	377	-30.3	-41.4	310	11	
2025-11-04T00:00	7860	376	-30.5	-41.4	308	11	
2025-11-04T00:00	7880	375	-30.7	-41.4	306	12	
2025-11-04T00:00	7900	374	-30.9	-41.7	305	12	
2025-11-04T00:00	7920	373	-31.0	-42.2	305	12	
2025-11-04T00:00	7940	372	-31.2	-42.4	305	13	
2025-11-04T00:00	7960	371	-31.4	-43.2	305	13	
2025-11-04T00:00	7980	370	-31.5	-43.8	305	13	
2025-11-04T00:00	8000	369	-31.6	-44.4	304	13	
2025-11-04T00:00	8020	368	-31.7	-45.1	304	13	
2025-11-04T00:00	8040	367	-31.8	-45.9	303	13	
2025-11-04T00:00	8060	366	-31.9	-45.9	302	13	
2025-11-04T00:00	8080	365	-32.1	-46.0	302	13	
2025-11-04T00:00	8100	364	-32.3	-46.2	302	14	
2025-11-04T00:00	8120	363	-32.4	-46.4	301	14	
2025-11-04T00:00	8140	362	-32.7	-46.5	301	14	
2025-11-04T00:00	8160	361	-32.8	-46.6	301	14	
2025-11-04T00:00	8180	360	-33.0	-46.6	301	14	
2025-11-04T00:00	8200	359	-33.2	-46.6	301	14	
2025-11-04T00:00	8220	358	-33.4	-46.6	301	14	
2025-11-04T00:00	8240	357	-33.6	-46.6	301	14	
2025-11-04T00:00	8260	356	-33.8	-46.4	302	14	
2025-11-04T00:00	8280	355	-33.9	-46.9	302	14	
2025-11-04T00:00	8300	354	-34.1	-47.2	303	13	
2025-11-04T00:00	8320	353	-34.2	-48.6	304	13	
2025-11-04T00:00	8340	351	-34.4	-49.5	305	13	
2025-11-04T00:00	8360	350	-34.6	-49.5	306	13	
2025-11-04T00:00	8380	349	-34.8	-49.2	307	13	
2025-11-04T00:00	8400	349	-34.9	-49.2	307	13	
2025-11-04T00:00	8420	348	-35.1	-49.0	308	13	
2025-11-04T00:00	8440	347	-35.3	-48.6	308	14	
2025-11-04T00:00	8460	346	-35.5	-48.8	308	14	
2025-11-04T00:00	8480	344	-35.7	-49.0	308	14	
2025-11-04T00:00	8500	344	-35.8	-49.4	307	14	
2025-11-04T00:00	8520	343	-36.0	-49.4	306	14	
2025-11-04T00:00	8540	342	-36.1	-49.2	306	14	
2025-11-04T00:00	8560	340	-36.3	-48.6	305	14	
2025-11-04T00:00	8580	340	-36.5	-48.1	304	14	
2025-11-04T00:00	8600	339	-36.7	-48.1	304	14	
2025-11-04T00:00	8620	338	-36.9	-48.1	304	14	
2025-11-04T00:00	8640	337	-37.1	-48.3	304	14	
2025-11-04T00:00	8660	336	-37.2	-48.3	304	14	
2025-11-04T00:00	8680	335	-37.4	-48.3	304	14	
2025-11-04T00:00	8700	334	-37.6	-48.3	304	14	
2025-11-04T00:00	8720	333	-37.8	-48.4	304	14	
2025-11-04T00:00	8740	332	-38.0	-48.5	304	14	
2025-11-04T00:00	8760	331	-38.2	-48.4	304	14	
2025-11-04T00:00	8780	330	-38.4	-48.2	304	14	
2025-11-04T00:00	8800	329	-38.6	-48.3	305	14	
2025-11-04T00:00	8820	328	-38.8	-48.3	306	14	
2025-11-04T00:00	8840	327	-39.0	-48.3	307	14	
2025-11-04T00:00	8860	326	-39.1	-48.8	308	14	
2025-11-04T00:00	8880	325	-39.2	-50.0	309	14	
2025-11-04T00:00	8900	324	-39.4	-50.4	310	14	
2025-11-04T00:00	8920	323	-39.6	-50.3	310	14	
2025-11-04T00:00	8940	322	-39.8	-50.3	311	15	
2025-11-04T00:00	8960	321	-40.0	-50.4	311	15	
2025-11-04T00:00	8980	320	-40.1	-50.4	311	15	
2025-11-04T00:00	9000	319	-40.3	-50.6	311	15	
2025-11-04T00:00	9020	318	-40.5	-50.7	311	16	
2025-11-04T00:00	9040	317	-40.6	-50.9	311	16	
2025-11-04T00:00	9060	317	-40.7	-51.3	310	16	
2025-11-04T00:00	9080	316	-40.9	-51.8	310	16	
2025-11-04T00:00	9100	315	-41.0	-52.1	310	16	
2025-11-04T00:00	9120	314	-41.2	-51.9	310	16	
2025-11-04T00:00	9140	313	-41.4	-52.0	309	16	
2025-11-04T00:00	9160	312	-41.6	-52.2	309	16	
2025-11-04T00:00	9180	311	-41.7	-52.1	309	16	
2025-11-04T00:00	9200	310	-41.9	-52.1	308	16	
2025-11-04T00:00	9220	309	-42.0	-52.3	308	16	
2025-11-04T00:00	9240	308	-42.1	-52.7	308	16	
2025-11-04T00:00	9260	308	-42.2	-53.2	307	16	
2025-11-04T00:00	9280	307	-42.3	-53.4	307	17	
2025-11-04T00:00	9300	306	-42.5	-53.3	308	17	
2025-11-04T00:00	9320	305	-42.7	-53.1	308	17	
2025-11-04T00:00	9340	304	-42.8	-52.8	309	18	
2025-11-04T00:00	9360	303	-43.0	-52.8	310	18	
2025-11-04T00:00	9380	302	-43.2	-52.9	310	18	
2025-11-04T00:00	9400	301	-43.4	-53.0	310	18	
2025-11-04T00:00	9420	300	-43.6	-53.2	310	18	
2025-11-04T00:00	9440	299	-43.8	-53.2	310	17	
2025-11-04T00:00	9460	299	-43.9	-53.5	310	17	
2025-11-04T00:00	9480	298	-44.1	-53.6	309	17	
2025-11-04T00:00	9500	297	-44.2	-53.4	308	17	
2025-11-04T00:00	9520	296	-44.4	-53.3	308	17	
2025-11-04T00:00	9540	295	-44.5	-53.3	308	17	
2025-11-04T00:00	9560	294	-44.7	-53.5	307	17	
2025-11-04T00:00	9580	293	-44.8	-53.8	308	18	
2025-11-04T00:00	9600	292	-45.0	-53.7	308	18	
2025-11-04T00:00	9620	291	-45.1	-53.9	308	18	
2025-11-04T00:00	9640	291	-45.3	-53.9	308	18	
2025-11-04T00:00	9660	290	-45.5	-54.3	308	18	
2025-11-04T00:00	9680	289	-45.7	-54.7	308	18	
2025-11-04T00:00	9700	288	-45.8	-54.8	308	18	
2025-11-04T00:00	9720	287	-46.0	-54.6	308	18	
2025-11-04T00:00	9740	286	-46.1	-54.5	309	18	
2025-11-04T00:00	9760	285	-46.3	-54.5	310	18	
2025-11-04T00:00	9780	284	-46.4	-54.7	310	18	
2025-11-04T00:00	9800	284	-46.5	-55.0	311	18	
2025-11-04T00:00	9820	283	-46.6	-55.3	311	18	
2025-11-04T00:00	9840	282	-46.8	-55.4	311	17	
2025-11-04T00:00	9860	281	-47.0	-55.7	311	17	
2025-11-04T00:00	9880	280	-47.1	-56.0	311	17	
2025-11-04T00:00	9900	279	-47.2	-55.9	311	17	
2025-11-04T00:00	9920	279	-47.3	-55.8	311	17	
2025-11-04T00:00	9940	278	-47.4	-55.7	311	17	
2025-11-04T00:00	9960	277	-47.5	-56.0	311	17	
2025-11-04T00:00	9980	276	-47.6	-56.6	312	17	
2025-11-04T00:00	10000	275	-47.7	-57.0	312	17	
2025-11-04T00:00	10018	274	-47.8	-57.1	313	17	
2025-11-04T00:00	10050	273	-48.0	-57.5	313	17	
2025-11-04T00:00	10100	271	-48.2	-57.9	314	16	
2025-11-04T00:00	10150	269	-48.6	-58.0	314	16	
2025-11-04T00:00	10200	267	-49.0	-58.1	314	16	
2025-11-04T00:00	10250	265	-49.4	-57.7	313	16	
2025-11-04T00:00	10300	263	-49.9	-57.9	313	16	
2025-11-04T00:00	10350	261	-50.3	-58.2	312	15	
2025-11-04T00:00	10400	259	-50.8	-58.5	311	15	
2025-11-04T00:00	10450	257	-51.2	-58.8	312	15	
2025-11-04T00:00	10500	255	-51.7	-59.1	314	15	
2025-11-04T00:00	10550	253	-51.9	-60.8	315	15	
2025-11-04T00:00	10600	251	-52.0	-61.6	315	15	
2025-11-04T00:00	10650	249	-52.2	-61.4	315	15	
2025-11-04T00:00	10700	247	-52.6	-61.5	314	16	
2025-11-04T00:00	10750	245	-53.1	-61.5	312	16	
2025-11-04T00:00	10800	243	-53.5	-61.5	312	16	
2025-11-04T00:00	10850	241	-54.0	-61.4	312	16	
2025-11-04T00:00	10900	240	-54.3	-61.4	311	16	
2025-11-04T00:00	10950	238	-54.6	-61.4	311	17	
2025-11-04T00:00	11000	236	-55.0	-61.5	311	17	
2025-11-04T00:00	11050	234	-55.3	-62.1	310	17	
2025-11-04T00:00	11100	232	-55.5	-63.0	309	18	
2025-11-04T00:00	11150	231	-55.7	-63.4	310	18	
2025-11-04T00:00	11200	229	-56.1	-64.2	311	19	
2025-11-04T00:00	11250	227	-56.3	-65.7	313	20	
2025-11-04T00:00	11300	225	-56.5	-66.4	315	20	
2025-11-04T00:00	11350	223	-56.6	-66.7	316	20	
2025-11-04T00:00	11400	222	-56.9	-66.3	317	20	
2025-11-04T00:00	11450	220	-57.2	-66.1	317	20	
2025-11-04T00:00	11500	218	-57.6	-65.9	317	20	
2025-11-04T00:00	11550	216	-58.0	-65.6	317	21	
2025-11-04T00:00	11600	215	-58.3	-65.9	316	22	
2025-11-04T00:00	11650	213	-58.4	-66.6	315	22	
2025-11-04T00:00	11700	211	-58.7	-67.0	314	23	
2025-11-04T00:00	11750	210	-59.1	-67.1	314	24	
2025-11-04T00:00	11800	208	-59.4	-67.6	314	24	
2025-11-04T00:00	11850	206	-59.4	-67.6	313	25	
2025-11-04T00:00	11900	205	-59.5	-66.2	312	26	
2025-11-04T00:00	11950	203	-59.5	-67.3	311	27	
2025-11-04T00:00	12000	201	-59.4	-69.9	309	27	
2025-11-04T00:00	12050	200	-59.2	-73.0	309	27	
2025-11-04T00:00	12100	198	-59.1	-74.5	309	27	
2025-11-04T00:00	12150	197	-59.1	-73.1	310	27	
2025-11-04T00:00	12200	195	-59.0	-72.2	309	28	
2025-11-04T00:00	12250	193	-58.9	-72.1	308	29	
2025-11-04T00:00	12300	192	-59.0	-71.7	308	29	
2025-11-04T00:00	12350	190	-59.1	-72.1	309	29	
2025-11-04T00:00	12400	189	-58.9	-73.1	310	29	
2025-11-04T00:00	12450	187	-58.7	-74.1	309	29	
2025-11-04T00:00	12500	186	-58.7	-74.6	309	28	
2025-11-04T00:00	12550	184	-58.7	-75.4	308	28	
2025-11-04T00:00	12600	183	-58.4	-76.5	309	27	
2025-11-04T00:00	12650	181	-58.0	-77.5	310	27	
2025-11-04T00:00	12700	180	-58.1	-77.8	311	27	
2025-11-04T00:00	12750	179	-58.1	-78.0	311	26	
2025-11-04T00:00	12800	177	-58.2	-78.3	310	26	
2025-11-04T00:00	12850	176	-58.3	-78.3	310	26	
2025-11-04T00:00	12900	174	-58.5	-78.4	310	26	
2025-11-04T00:00	12950	173	-58.1	-78.1	312	25	
2025-11-04T00:00	13000	172	-58.1	-77.8	312	26	
2025-11-04T00:00	13050	170	-58.4	-77.9	312	26	
2025-11-04T00:00	13100	169	-58.6	-78.1	313	25	
2025-11-04T00:00	13150	168	-58.7	-78.5	315	25	
2025-11-04T00:00	13200	166	-58.7	-79.3	317	24	
2025-11-04T00:00	13250	165	-58.7	-79.9	319	23	
2025-11-04T00:00	13300	164	-58.4	-80.1	319	22	
2025-11-04T00:00	13350	162	-58.7	-79.9	318	21	
2025-11-04T00:00	13400	161	-58.9	-79.9	317	21	
2025-11-04T00:00	13450	160	-58.9	-80.0	316	21	
2025-11-04T00:00	13500	159	-59.2	-80.3	316	22	
2025-11-04T00:00	13550	157	-59.2	-80.6	316	21	
2025-11-04T00:00	13600	156	-59.2	-80.8	315	21	
2025-11-04T00:00	13650	155	-59.2	-81.1	314	21	
2025-11-04T00:00	13700	154	-59.2	-81.2	312	22	
2025-11-04T00:00	13750	152	-59.4	-81.1	311	23	
2025-11-04T00:00	13800	151	-59.7	-81.0	311	24	
2025-11-04T00:00	13850	150	-59.8	-80.9	311	24	
2025-11-04T00:00	13900	149	-60.0	-80.9	313	23	
2025-11-04T00:00	13950	148	-60.2	-81.1	315	22	
2025-11-04T00:00	14000	146	-60.0	-81.2	317	21	
2025-11-04T00:00	14050	145	-60.1	-81.4	318	19	
2025-11-04T00:00	14100	144	-60.2	-81.6	319	17	
2025-11-04T00:00	14150	143	-60.3	-81.6	318	16	
2025-11-04T00:00	14200	142	-60.3	-81.7	314	14	
2025-11-04T00:00	14250	141	-60.3	-81.9	310	14	
2025-11-04T00:00	14300	140	-60.5	-82.1	305	13	
2025-11-04T00:00	14350	138	-60.4	-82.3	300	12	
2025-11-04T00:00	14400	137	-60.6	-82.4	296	12	
2025-11-04T00:00	14450	136	-60.9	-82.5	294	11	
2025-11-04T00:00	14500	135	-61.4	-82.5	292	11	
2025-11-04T00:00	14550	134	-61.8	-82.6	289	11	
2025-11-04T00:00	14600	133	-62.3	-82.6	284	11	
2025-11-04T00:00	14650	132	-62.7	-82.7	278	10	
2025-11-04T00:00	14700	131	-62.9	-82.7	271	10	
2025-11-04T00:00	14750	130	-63.2	-82.8	268	10	
2025-11-04T00:00	14800	129	-63.4	-82.8	268	11	
2025-11-04T00:00	14850	128	-63.8	-82.9	269	12	
2025-11-04T00:00	14900	127	-64.1	-83.0	271	13	
2025-11-04T00:00	14950	126	-64.2	-83.1	274	14	
2025-11-04T00:00	15000	124	-64.2	-83.2	277	15	
2025-11-04T00:00	15050	124	-64.3	-83.2	280	15	
2025-11-04T00:00	15100	123	-64.7	-83.4	284	15	
2025-11-04T00:00	15150	122	-65.1	-83.5	287	16	
2025-11-04T00:00	15200	121	-65.2	-83.7	289	16	
2025-11-04T00:00	15250	120	-65.2	-83.7	289	17	
2025-11-04T00:00	15300	119	-65.4	-83.7	288	18	
2025-11-04T00:00	15350	118	-65.8	-83.8	288	18	
2025-11-04T00:00	15400	117	-66.2	-83.9	290	19	
2025-11-04T00:00	15450	116	-66.7	-84.2	292	19	
2025-11-04T00:00	15500	115	-66.5	-84.2	295	18	
2025-11-04T00:00	15550	114	-66.1	-84.0	297	17	
2025-11-04T00:00	15600	113	-66.3	-84.2	297	16	
2025-11-04T00:00	15650	112	-66.8	-84.4	297	15	
2025-11-04T00:00	15700	111	-67.0	-84.4	295	14	
2025-11-04T00:00	15750	110	-67.2	-84.5	292	14	
2025-11-04T00:00	15800	109	-67.5	-84.7	291	15	
2025-11-04T00:00	15850	108	-67.4	-84.8	292	16	
2025-11-04T00:00	15900	107	-67.6	-84.9	295	16	
2025-11-04T00:00	15950	106	-68.0	-85.0	298	16	
2025-11-04T00:00	16000	106	-68.3	-85.1	302	16	
2025-11-04T00:00	16050	105	-68.3	-85.2	305	16	
2025-11-04T00:00	16100	104	-68.0	-85.1	307	16	
2025-11-04T00:00	16150	103	-67.9	-85.1	307	15	
2025-11-04T00:00	16200	102	-68.0	-85.1	306	15	
2025-11-04T00:00	16250	101	-68.3	-85.3	304	15	
2025-11-04T00:00	16300	100	-68.3	-85.3	304	15	
2025-11-04T00:00	16350	100	-68.4	-85.4	308	15	
2025-11-04T00:00	16400	99	-68.4	-85.5	310	15	
2025-11-04T00:00	16450	98	-68.4	-85.6	308	14	
2025-11-04T00:00	16500	97	-68.2	-85.7	303	13	
2025-11-04T00:00	16550	96	-68.0	-85.7	302	13	
2025-11-04T00:00	16600	96	-67.8	-85.8	304	12	
2025-11-04T00:00	16650	95	-67.5	-85.7	301	12	
2025-11-04T00:00	16700	94	-67.8	-85.9	298	12	
2025-11-04T00:00	16750	93	-67.7	-85.9	297	12	
2025-11-04T00:00	16800	92	-67.5	-85.8	298	12	
2025-11-04T00:00	16850	92	-67.7	-85.8	299	13	
2025-11-04T00:00	16900	91	-68.1	-85.8	301	13	
2025-11-04T00:00	16950	90	-68.4	-85.9	303	13	
2025-11-04T00:00	17000	89	-68.7	-85.9	306	13	
2025-11-04T00:00	17050	89	-68.9	-86.0	310	13	
2025-11-04T00:00	17100	88	-68.6	-86.0	313	12	
2025-11-04T00:00	17150	87	-68.1	-85.8	316	11	
2025-11-04T00:00	17200	86	-68.3	-86.1	316	10	
2025-11-04T00:00	17250	86	-68.4	-86.3	314	10	
2025-11-04T00:00	17300	85	-68.4	-86.4	310	10	
2025-11-04T00:00	17350	84	-68.7	-86.6	303	10	
2025-11-04T00:00	17400	84	-68.8	-86.6	299	10	
2025-11-04T00:00	17450	83	-68.8	-86.6	301	11	
2025-11-04T00:00	17500	82	-68.7	-86.5	307	12	
2025-11-04T00:00	17550	82	-68.7	-86.6	313	12	
2025-11-04T00:00	17600	81	-68.4	-86.6	317	12	
2025-11-04T00:00	17650	80	-68.3	-86.9	318	11	
2025-11-04T00:00	17700	80	-67.9	-86.9	318	11	
2025-11-04T00:00	17750	79	-67.9	-87.2	320	12	
2025-11-04T00:00	17800	78	-68.0	-87.4	320	11	
2025-11-04T00:00	17850	78	-67.7	-87.4	317	11	
2025-11-04T00:00	17900	77	-67.4	-87.5	317	10	
2025-11-04T00:00	17950	76	-66.9	-87.5	326	9	
2025-11-04T00:00	18000	76	-66.3	-87.2	340	8	
2025-11-04T00:00	18050	75	-66.5	-87.3	350	8	
2025-11-04T00:00	18100	74	-66.6	-87.3	355	7	
2025-11-04T00:00	18150	74	-66.9	-87.4	351	6	
2025-11-04T00:00	18200	73	-66.8	-87.4	336	6	
2025-11-04T00:00	18250	73	-67.0	-87.5	322	7	
2025-11-04T00:00	18300	72	-67.1	-87.7	315	8	
2025-11-04T00:00	18350	71	-66.9	-87.7	313	9	
2025-11-04T00:00	18400	71	-66.5	-87.7	313	8	
2025-11-04T00:00	18450	70	-65.9	-87.4	314	6	
2025-11-04T00:00	18500	70	-66.1	-87.6	311	4	
2025-11-04T00:00	18550	69	-66.2	-87.6	297	3	
2025-11-04T00:00	18600	68	-66.0	-87.5	270	2	
2025-11-04T00:00	18650	68	-66.0	-87.4	243	2	
2025-11-04T00:00	18700	67	-66.3	-87.5	226	3	
2025-11-04T00:00	18750	67	-66.6	-87.6	224	4	
2025-11-04T00:00	18800	66	-66.6	-87.6	226	4	
2025-11-04T00:00	18850	66	-66.6	-87.6	226	5	
2025-11-04T00:00	18900	65	-66.8	-87.7	224	6	
2025-11-04T00:00	18950	65	-66.9	-87.7	223	6	
2025-11-04T00:00	19000	64	-67.1	-87.8	226	6	
2025-11-04T00:00	19050	64	-66.9	-87.7	231	7	
2025-11-04T00:00	19100	63	-67.3	-87.9	240	8	
2025-11-04T00:00	19150	63	-67.5	-88.2	250	8	
2025-11-04T00:00	19200	62	-67.0	-88.1	261	8	
2025-11-04T00:00	19250	62	-66.6	-88.0	267	9	
2025-11-04T00:00	19300	61	-66.6	-88.2	268	10	
2025-11-04T00:00	19350	61	-65.9	-87.9	265	11	
2025-11-04T00:00	19400	60	-65.7	-87.9	263	13	
2025-11-04T00:00	19450	60	-65.5	-87.7	261	14	
2025-11-04T00:00	19500	59	-65.8	-87.9	262	15	
2025-11-04T00:00	19550	59	-65.9	-87.9	264	16	
2025-11-04T00:00	19600	58	-66.0	-88.0	266	16	
2025-11-04T00:00	19650	58	-66.2	-88.0	268	16	
2025-11-04T00:00	19700	57	-66.1	-88.0	271	15	
2025-11-04T00:00	19750	57	-66.1	-88.1	274	14	
2025-11-04T00:00	19800	56	-66.2	-88.3	278	12	
2025-11-04T00:00	19850	56	-66.0	-88.4	280	11	
2025-11-04T00:00	19900	55	-65.3	-88.3	281	9	
2025-11-04T00:00	19950	55	-64.8	-88.0	282	8	
2025-11-04T00:00	20000	54	-64.8	-88.0	281	7	
2025-11-04T00:00	20050	54	-64.7		278	7	
2025-11-04T00:00	20100	53	-64.3		269	5	
2025-11-04T00:00	20150	53	-63.9		256	5	
2025-11-04T00:00	20200	53	-64.0		252	5	
2025-11-04T00:00	20250	52	-63.6		258	5	
2025-11-04T00:00	20300	52	-63.5		263	6	
2025-11-04T00:00	20350	51	-63.5		259	6	
2025-11-04T00:00	20400	51	-63.6		248	7	
2025-11-04T00:00	20450	51	-62.9		242	8	
2025-11-04T00:00	20500	50	-62.5		241	9	
2025-11-04T00:00	20550	50	-62.8		241	10	
2025-11-04T00:00	20600	49	-63.2		242	10	
2025-11-04T00:00	20650	49	-63.4		243	10	
2025-11-04T00:00	20700	49	-63.4		247	10	
2025-11-04T00:00	20750	48	-63.7		255	10	
2025-11-04T00:00	20800	48	-63.8		261	10	
2025-11-04T00:00	20850	47	-63.9		265	10	
2025-11-04T00:00	20900	47	-64.2		268	10	
2025-11-04T00:00	20950	47	-64.5		271	9	
2025-11-04T00:00	21000	46	-64.8		275	9	
2025-11-04T00:00	21050	46	-64.9		279	8	
2025-11-04T00:00	21100	45	-65.4		283	7	
2025-11-04T00:00	21150	45	-65.7		289	7	
2025-11-04T00:00	21200	45	-66.1		292	6	
2025-11-04T00:00	21250	44	-66.2		288	5	
2025-11-04T00:00	21300	44	-66.3		279	5	
2025-11-04T00:00	21350	44	-66.1		271	5	
2025-11-04T00:00	21400	43	-66.2		266	6	
2025-11-04T00:00	21450	43	-66.5		262	7	
2025-11-04T00:00	21500	43	-66.9		261	8	
2025-11-04T00:00	21550	42	-66.9		264	8	
2025-11-04T00:00	21600	42	-66.7		268	8	
2025-11-04T00:00	21650	41	-66.4		270	8	
2025-11-04T00:00	21700	41	-66.6		270	7	
2025-11-04T00:00	21750	41	-66.5		270	7	
2025-11-04T00:00	21800	40	-66.6		272	6	
2025-11-04T00:00	21850	40	-66.7		273	5	
2025-11-04T00:00	21900	40	-66.9		271	5	
2025-11-04T00:00	21950	39	-67.1		269	5	
2025-11-04T00:00	22000	39	-66.9		270	5	
2025-11-04T00:00	22050	39	-66.8		272	6	
2025-11-04T00:00	22100	39	-66.3		273	7	
2025-11-04T00:00	22150	38	-65.9		273	8	
2025-11-04T00:00	22200	38	-66.0		269	8	
2025-11-04T00:00	22250	38	-65.3		259	7	
2025-11-04T00:00	22300	37	-65.1		251	7	
2025-11-04T00:00	22350	37	-64.9		246	7	
2025-11-04T00:00	22400	37	-64.2		243	7	
2025-11-04T00:00	22450	36	-63.6		240	8	
2025-11-04T00:00	22500	36	-62.7		237	8	
2025-11-04T00:00	22550	36	-63.0		232	7	
2025-11-04T00:00	22600	35	-63.4		224	8	
2025-11-04T00:00	22650	35	-63.4		219	8	
2025-11-04T00:00	22700	35	-63.4		219	9	
2025-11-04T00:00	22750	35	-63.5		226	9	
2025-11-04T00:00	22800	34	-63.5		236	9	
2025-11-04T00:00	22850	34	-63.6		245	10	
2025-11-04T00:00	22900	34	-63.4		251	12	
2025-11-04T00:00	22950	34	-63.5		254	13	
2025-11-04T00:00	23000	33	-63.1		255	15	
2025-11-04T00:00	23050	33	-62.7		258	15	
2025-11-04T00:00	23100	33	-62.9		261	15	
2025-11-04T00:00	23150	32	-62.8		264	14	
2025-11-04T00:00	23200	32	-63.1		268	15	
2025-11-04T00:00	23250	32	-63.3		274	15	
2025-11-04T00:00	23300	32	-63.2		278	16	
2025-11-04T00:00	23350	31	-62.9		279	17	
2025-11-04T00:00	23400	31	-62.6		280	18	
2025-11-04T00:00	23450	31	-62.8		280	18	
2025-11-04T00:00	23500	31	-63.2		281	18	
2025-11-04T00:00	23550	30	-63.4		283	17	
2025-11-04T00:00	23600	30	-63.3		285	17	
2025-11-04T00:00	23650	30	-63.7		287	16	
2025-11-04T00:00	23700	30	-63.8		288	15	
2025-11-04T00:00	23750	29	-63.7		288	14	
2025-11-04T00:00	23800	29	-63.8		287	14	
2025-11-04T00:00	23850	29	-63.8		285	14	
2025-11-04T00:00	23900	29	-63.9		282	13	
2025-11-04T00:00	23950	28	-63.9		280	13	
2025-11-04T00:00	24000	28	-63.9		280	12	
2025-11-04T00:00	24050	28	-63.8		282	12	
2025-11-04T00:00	24100	28	-63.9		285	13	
2025-11-04T00:00	24150	28	-63.9		285	13	
2025-11-04T00:00	24200	27	-63.6		281	14	
2025-11-04T00:00	24250	27	-63.1		278	14	
2025-11-04T00:00	24300	27	-63.2		276	16	
2025-11-04T00:00	24350	27	-62.9		276	16	
2025-11-04T00:00	24400	26	-62.8		278	16	
2025-11-04T00:00	24450	26	-62.6		282	15	
2025-11-04T00:00	24500	26	-62.4		284	13	
2025-11-04T00:00	24550	26	-62.3		284	12	
2025-11-04T00:00	24600	26	-62.4		282	12	
2025-11-04T00:00	24650	25	-62.3		280	12	
2025-11-04T00:00	24700	25	-62.4		281	11	
2025-11-04T00:00	24750	25	-62.4		284	11	
2025-11-04T00:00	24800	25	-62.5		288	11	
2025-11-04T00:00	24850	25	-62.6		292	10	
2025-11-04T00:00	24900	24	-62.9		296	10	
2025-11-04T00:00	24950	24	-62.9		302	10	
2025-11-04T00:00	25000	24	-63.1		308	11	
2025-11-04T00:00	25050	24	-63.1		311	10	
2025-11-04T00:00	25100	24	-62.9		309	9	
2025-11-04T00:00	25150	23	-63.0		304	8	
2025-11-04T00:00	25200	23	-63.1		296	6	
2025-11-04T00:00	25250	23	-63.5		282	5	
2025-11-04T00:00	25300	23	-63.8		258	5	
2025-11-04T00:00	25350	23	-63.7		235	5	
2025-11-04T00:00	25400	22	-63.5		225	7	
2025-11-04T00:00	25450	22	-63.7		225	7	
2025-11-04T00:00	25500	22	-63.7		227	8	
2025-11-04T00:00	25550	22	-63.8		228	9	
2025-11-04T00:00	25600	22	-63.4		228	10	
2025-11-04T00:00	25650	22	-62.9		231	11	
2025-11-04T00:00	25700	21	-62.4		237	11	
2025-11-04T00:00	25750	21	-62.3		244	11	
2025-11-04T00:00	25800	21	-62.3		249	12	
2025-11-04T00:00	25850	21	-62.5		252	12	
2025-11-04T00:00	25900	21	-62.2		255	11	
2025-11-04T00:00	25950	21	-62.2		258	10	
2025-11-04T00:00	26000	20	-62.3		262	10	
2025-11-04T00:00	26050	20	-62.5		267	10	
2025-11-04T00:00	26100	20	-62.8		272	10	
2025-11-04T00:00	26150	20	-63.1		275	10	
2025-11-04T00:00	26200	20	-63.2		278	10	
2025-11-04T00:00	26250	20	-63.4		279	10	
2025-11-04T00:00	26300	19	-63.7		280	9	
2025-11-04T00:00	26350	19	-64.0		278	8	
2025-11-04T00:00	26400	19	-64.2		273	7	
2025-11-04T00:00	26450	19	-64.4		270	7	
2025-11-04T00:00	26500	19	-64.5		273	7	
2025-11-04T00:00	26550	19	-64.7		279	8	
2025-11-04T00:00	26600	19	-64.7		286	8	
2025-11-04T00:00	26650	18	-64.6		291	9	
2025-11-04T00:00	26700	18	-64.5		294	10	
2025-11-04T00:00	26750	18	-64.4		295	10	
2025-11-04T00:00	26800	18	-64.1		294	10	
2025-11-04T00:00	26850	18	-64.1		293	9	
2025-11-04T00:00	26900	18	-63.9		291	8	
2025-11-04T00:00	26950	17	-63.6		289	7	
2025-11-04T00:00	27000	17	-63.5		286	7	
2025-11-04T00:00	27050	17	-63.6		283	7	
2025-11-04T00:00	27100	17	-63.6		280	7	
2025-11-04T00:00	27150	17	-63.5		275	7	
2025-11-04T00:00	27200	17	-63.5		265	8	
2025-11-04T00:00	27250	17	-63.5		255	9	
2025-11-04T00:00	27300	17	-63.4		247	11	
2025-11-04T00:00	27350	16	-63.2		242	12	
2025-11-04T00:00	27400	16	-63.3		238	14	
2025-11-04T00:00	27450	16	-63.0		238	14	
2025-11-04T00:00	27500	16	-63.0		242	13	
2025-11-04T00:00	27550	16	-62.8		247	13	
2025-11-04T00:00	27600	16	-63.1		251	14	
2025-11-04T00:00	27650	16	-63.3		253	14	
2025-11-04T00:00	27700	15	-63.6		254	15	
2025-11-04T00:00	27750	15	-63.8		255	16	
2025-11-04T00:00	27800	15	-63.8		258	17	
2025-11-04T00:00	27850	15	-63.8		262	17	
2025-11-04T00:00	27900	15	-63.8		267	18	
2025-11-04T00:00	27950	15	-63.7		272	18	
2025-11-04T00:00	28000	15	-63.7		274	18	
2025-11-04T00:00	28050	15	-63.6		277	17	
2025-11-04T00:00	28100	14	-63.6		281	17	
2025-11-04T00:00	28150	14	-63.8		285	17	
2025-11-04T00:00	28200	14	-63.7		287	18	
2025-11-04T00:00	28250	14	-63.4		287	19	
2025-11-04T00:00	28300	14	-63.3		285	20	
2025-11-04T00:00	28350	14	-63.3		283	20	
2025-11-04T00:00	28400	14	-63.0		281	21	
2025-11-04T00:00	28450	14	-62.9		280	20	
2025-11-04T00:00	28500	14	-62.6		281	20	
2025-11-04T00:00	28550	13	-62.7		282	20	
2025-11-04T00:00	28600	13	-62.5		283	21	
2025-11-04T00:00	28650	13	-62.6		286	21	
2025-11-04T00:00	28700	13	-62.3		288	21	
2025-11-04T00:00	28750	13	-61.9		289	21	
2025-11-04T00:00	28800	13	-61.5		290	21	
2025-11-04T00:00	28850	13	-61.2		289	22	
2025-11-04T00:00	28900	13	-60.9		287	22	
2025-11-04T00:00	28950	13	-61.0		283	22	
2025-11-04T00:00	29000	13	-61.2		280	22	
2025-11-04T00:00	29050	12	-61.2		276	22	
2025-11-04T00:00	29100	12	-60.9		272	22	
2025-11-04T00:00	29150	12	-60.5		270	23	
2025-11-04T00:00	29200	12	-60.4		270	23	
2025-11-04T00:00	29250	12	-60.0		272	22	
2025-11-04T00:00	29300	12	-59.7		275	21	
2025-11-04T00:00	29350	12	-59.9		278	20	
2025-11-04T00:00	29400	12	-60.3		280	20	
2025-11-04T00:00	29450	12	-60.6		280	20	
2025-11-04T00:00	29500	12	-60.3		278	20	
2025-11-04T00:00	29550	11	-60.1		277	20	
2025-11-04T00:00	29600	11	-60.1		276	20	
2025-11-04T00:00	29650	11	-60.3		276	21	
2025-11-04T00:00	29700	11	-60.5		276	21	
2025-11-04T00:00	29750	11	-60.1		274	21	
2025-11-04T00:00	29800	11	-59.5		274	21	
2025-11-04T00:00	29850	11	-59.5		275	20	
2025-11-04T00:00	29900	11	-59.5		278	19	
2025-11-04T00:00	29950	11	-59.5		281	18	
2025-11-04T00:00	30000	11	-59.7		284	17	
2025-11-04T00:00	30050	11	-59.9		283	17	
2025-11-04T00:00	30100	10	-59.4		280	17	
2025-11-04T00:00	30150	10	-58.8		274	17	
2025-11-04T00:00	30200	10	-59.0		268	19	
2025-11-04T00:00	30250	10	-59.1		263	20	
2025-11-04T00:00	30300	10	-58.7		261	22	
2025-11-04T00:00	30350	10	-58.2		259	23	
2025-11-04T00:00	30400	10	-57.7		258	23	
2025-11-04T00:00	30450	10	-57.5		256	23	
2025-11-04T00:00	30500	10	-57.5		255	23	
2025-11-04T00:00	30550	10	-57.8		253	23	
2025-11-04T00:00	30600	10	-58.2		251	23	
2025-11-04T00:00	30650	10	-58.4		249	22	
2025-11-04T00:00	30700	10	-58.5		246	22	
2025-11-04T00:00	30750	9	-58.6		244	22	
2025-11-04T00:00	30800	9	-58.7		244	22	
2025-11-04T00:00	30850	9	-59.0		244	21	
2025-11-04T00:00	30900	9	-58.9		245	22	
2025-11-04T00:00	30950	9	-59.0		245	22	
2025-11-04T00:00	31000	9	-59.2		244	23	
2025-11-04T00:00	31050	9	-59.3		244	24	
2025-11-04T00:00	31100	9	-58.6		243	25	
2025-11-04T00:00	31150	9	-58.3		244	27	
2025-11-04T00:00	31200	9	-58.2		245	28	
2025-11-04T00:00	31250	9	-58.4		247	29	
2025-11-04T00:00	31300	9	-58.6		250	30	
2025-11-04T00:00	31350	9	-58.6		252	30	
2025-11-04T00:00	31400	9	-58.5		254	30	
2025-11-04T00:00	31450	8	-58.5		257	30	
2025-11-04T00:00	31500	8	-58.4		260	31	
2025-11-04T00:00	31550	8	-58.4		262	32	
2025-11-04T00:00	31600	8	-58.5		265	33	
2025-11-04T00:00	31650	8	-58.5		267	34	
2025-11-04T00:00	31700	8	-57.9		270	34	
2025-11-04T00:00	31750	8	-57.3		271	33	
2025-11-04T00:00	31800	8	-57.3		272	32	
2025-11-04T00:00	31850	8	-57.3		271	31	
2025-11-04T00:00	31900	8	-57.5		270	31	
2025-11-04T00:00	31950	8	-57.1		270	32	
2025-11-04T00:00	32000	8	-56.9		269	33	
2025-11-04T00:00	32050	8	-57.0		268	34	
2025-11-04T00:00	32100	8	-56.9		267	34	
2025-11-04T00:00	32150	8	-56.6		266	33	
2025-11-04T00:00	32200	8	-56.4		264	33	
2025-11-04T00:00	32250	7	-56.1		263	33	
2025-11-04T00:00	32300	7	-56.2		264	33	
2025-11-04T00:00	32350	7	-55.8		265	34	
2025-11-04T00:00	32400	7	-55.6		268	34	
2025-11-04T00:00	32450	7	-55.5		271	34	
2025-11-04T00:00	32500	7	-55.2		275	33	
2025-11-04T00:00	32550	7	-55.1		277	32	
2025-11-04T00:00	32600	7	-54.8		279	31	
2025-11-04T00:00	32650	7	-54.7		280	30	
2025-11-04T00:00	32700	7	-54.6		279	30	
2025-11-04T00:00	32750	7	-54.6		278	31	
2025-11-04T00:00	32800	7	-54.5		276	31	
2025-11-04T00:00	32850	7	-54.1		273	32	
2025-11-04T00:00	32900	7	-53.9		271	33	
2025-11-04T00:00	32950	7	-53.4		270	34	
2025-11-04T00:00	33000	7	-53.3		270	35	
2025-11-04T00:00	33050	7	-53.5		270	36	
2025-11-04T00:00	33100	7	-53.6		270	38	
2025-11-04T00:00	33150	6	-53.7		271	39	
2025-11-04T00:00	33200	6	-54.0		271	39	
2025-11-04T00:00	33250	6	-54.3		270	39	
2025-11-04T00:00	33300	6	-54.3		270	39	
2025-11-04T00:00	33350	6	-54.3		269	38	
2025-11-04T00:00	33400	6	-54.6		268	37	
2025-11-04T00:00	33450	6	-55.0		268	36	
2025-11-04T00:00	33500	6	-55.2		267	36	
2025-11-04T00:00	33550	6	-55.1		268	35	
2025-11-04T00:00	33600	6	-54.9		269	35	
2025-11-04T00:00	33650	6	-54.5		269	36	
2025-11-04T00:00	33700	6	-54.4		270	37	
2025-11-04T00:00	33750	6	-54.6		270	37	
2025-11-04T00:00	33800	6	-54.5		269	38	
2025-11-04T00:00	33850	6	-54.3		268	38	
2025-11-04T00:00	33900	6	-54.2		269	38	
2025-11-04T00:00	33950	6	-54.2		269	39	
2025-11-04T00:00	34000	6	-54.5		271	40	
2025-11-04T00:00	34050	6	-54.7		272	40	
2025-11-04T00:00	34100	6	-54.8		273	41	
2025-11-04T00:00	34150	6	-54.7		274	42	
2025-11-04T00:00	34200	6	-54.6		275	42	
2025-11-04T00:00	34250	5	-54.7		276	41	
2025-11-04T00:00	34300	5	-54.3		276	41	
2025-11-04T00:00	34350	5	-53.9		277	42	
2025-11-04T00:00	34400	5	-53.2		278	42	
2025-11-04T00:00	34450	5	-52.2		279	41	
2025-11-04T00:00	34500	5	-51.9		280	41	
2025-11-04T00:00	34550	5	-51.7		282	42	
2025-11-04T00:00	34600	5	-51.8		283	42	
2025-11-04T00:00	34650	5	-51.7		283	42	
2025-11-04T00:00	34700	5	-51.2		282	42	
2025-11-04T00:00	34750	5	-50.5		280	41	
2025-11-04T00:00	34800	5	-50.3		278	40	
2025-11-04T00:00	34850	5	-50.2		277	39	
2025-11-04T00:00	34900	5	-50.2		277	39	
2025-11-04T00:00	34950	5	-50.0		277	39	
2025-11-04T00:00	35000	5	-49.8		276	39	
2025-11-04T00:00	35050	5	-49.6		276	39	
2025-11-04T00:00	35100	5	-49.7		276	39	
2025-11-04T00:00	35150	5	-49.6		276	38	
2025-11-04T00:00	35200	5	-49.3		275	38	
2025-11-04T00:00	35250	5	-49.0		275	38	
2025-11-04T00:00	35300	5	-48.7		275	37	
2025-11-04T00:00	35350	5	-48.4		275	37	
2025-11-04T00:00	35400	5	-48.1		276	37	
2025-11-04T00:00	35450	5	-47.7		277	37	
2025-11-04T00:00	35500	5	-47.5		278	38	
2025-11-04T00:00	35550	4	-47.6		279	39	
2025-11-04T00:00	35600	4	-47.8		281	39	
2025-11-04T00:00	35650	4	-47.4		282	39	
2025-11-04T00:00	35700	4	-46.7		282	38	
2025-11-04T00:00	35750	4	-46.3		279	38	
2025-11-04T00:00	35800	4	-46.1		277	38	
2025-11-04T00:00	35850	4	-46.3		273	38	
2025-11-04T00:00	35900	4	-46.2		270	37	
2025-11-04T00:00	35950	4	-46.0		266	37	
2025-11-04T00:00	36000	4	-46.0		263	38	
2025-11-04T00:00	36050	4	-46.1		261	38	
2025-11-04T00:00	36100	4	-46.0		261	38	
2025-11-04T00:00	36150	4	-46.1		262	38	
2025-11-04T00:00	36200	4	-46.2		263	38	
2025-11-04T00:00	36250	4	-46.3		263	39	
2025-11-04T00:00	36300	4	-46.4		264	39	
2025-11-04T00:00	36350	4	-46.1		265	39	
2025-11-04T00:00	36400	4	-45.9		268	39	
2025-11-04T00:00	36450	4	-46.1		271	38	
2025-11-04T00:00	36500	4	-45.8		273	38	
2025-11-04T00:00	36550	4	-45.6		275	37	
2025-11-04T00:00	36600	4	-45.6		275	37	
2025-11-04T00:00	36650	4	-45.7		275	36	
2025-11-04T00:00	36700	4	-45.4		273	37	
2025-11-04T00:00	36750	4	-45.3		272	37	
2025-11-04T00:00	36800	4	-45.1		271	38	
2025-11-04T00:00	36850	4	-45.1		270	38	
2025-11-04T00:00	36900	4	-45.1		269	38	
2025-11-04T00:00	36950	4	-45.0		267	38	
2025-11-04T00:00	37000	4	-44.8		265	38	
2025-11-04T00:00	37050	4	-44.5		264	38	
2025-11-04T00:00	37100	4	-44.6		264	38	
2025-11-04T00:00	37150	4	-44.4		265	39	
2025-11-04T00:00	37200	3	-43.9		266	39	
2025-11-04T00:00	37250	3	-43.8		267	39	
2025-11-04T00:00	37300	3	-43.8		268	39	
2025-11-04T00:00	37350	3	-43.2		268	39	
2025-11-04T00:00	37400	3	-42.7		266	39	
2025-11-04T00:00	37450	3	-42.6		263	39	
2025-11-04T00:00	37500	3	-42.5		261	39	
2025-11-04T00:00	37550	3	-42.4		259	40	
2025-11-04T00:00	37600	3	-42.0		258	40	
2025-11-04T00:00	37650	3	-41.8		258	41	
2025-11-04T00:00	37700	3	-41.2		257	41	
2025-11-04T00:00	37750	3	-41.3		256	42	
2025-11-04T00:00	37800	3	-41.6		256	43	
2025-11-04T00:00	37850	3	-41.8		256	44	
2025-11-04T12:00	491	967	9.1	4.9	350	1	1.4
2025-11-04T12:00	501	966	8.9	5.1	25	1	1.4
2025-11-04T12:00	520	964	8.8	4.9	15	1	1.5
2025-11-04T12:00	540	961	8.6	5.0	4	1	1.6
2025-11-04T12:00	560	959	8.0	4.4	360	0	1.6
2025-11-04T12:00	580	957	7.8	4.2	5	1	1.7
2025-11-04T12:00	600	954	7.5	4.1	16	1	1.8
2025-11-04T12:00	620	952	7.5	4.0	21	1	1.9
2025-11-04T12:00	640	950	7.3	4.1	21	1	1.9
2025-11-04T12:00	660	948	7.5	3.5	19	1	1.9
2025-11-04T12:00	680	945	7.2	3.8	17	1	2.0
2025-11-04T12:00	700	943	6.7	3.8	17	1	2.1
2025-11-04T12:00	720	941	6.8	3.1	21	0	2.1
2025-11-04T12:00	740	938	6.9	2.7	22	0	2.1
2025-11-04T12:00	760	936	7.0	2.8	357	0	2.2
2025-11-04T12:00	780	934	6.8	2.8	247	0	2.3
2025-11-04T12:00	800	932	6.7	3.1	233	1	2.3
2025-11-04T12:00	820	929	6.5	3.4	229	1	2.4
2025-11-04T12:00	840	927	6.4	3.9	227	2	2.4
2025-11-04T12:00	860	925	6.4	4.0	225	2	2.4
2025-11-04T12:00	880	923	6.4	4.0	223	3	2.4
2025-11-04T12:00	900	920	6.6	3.6	221	3	2.3
2025-11-04T12:00	920	918	6.7	2.4	218	4	2.3
2025-11-04T12:00	940	916	6.8	1.2	216	4	2.3
2025-11-04T12:00	960	914	6.8	1.6	216	5	2.4
2025-11-04T12:00	980	911	7.0	1.9	217	5	2.4
2025-11-04T12:00	1000	909	7.1	1.8	218	6	2.5
2025-11-04T12:00	1020	907	7.2	0.9	220	6	2.5
2025-11-04T12:00	1040	905	7.5	-1.3	223	7	2.6
2025-11-04T12:00	1060	902	8.1	-2.0	226	8	2.7
2025-11-04T12:00	1080	900	8.6	-2.8	228	8	2.9
2025-11-04T12:00	1100	898	8.6	-2.2	231	9	3.1
2025-11-04T12:00	1120	896	8.6	-2.2	232	9	3.2
2025-11-04T12:00	1140	894	8.7	-2.8	233	9	3.3
2025-11-04T12:00	1160	892	8.8	-3.6	233	9	3.4
2025-11-04T12:00	1180	890	9.0	-4.4	233	9	3.5
2025-11-04T12:00	1200	887	9.2	-5.4	232	9	3.6
2025-11-04T12:00	1220	885	9.3	-6.0	231	9	3.6
2025-11-04T12:00	1240	883	9.3	-6.3	230	9	3.7
2025-11-04T12:00	1260	881	9.2	-6.3	229	9	3.8
2025-11-04T12:00	1280	879	9.4	-6.2	229	9	3.8
2025-11-04T12:00	1300	877	9.6	-6.8	230	10	3.9
2025-11-04T12:00	1320	874	10.0	-8.1	231	10	4.0
2025-11-04T12:00	1340	872	10.2	-8.6	231	11	4.0
2025-11-04T12:00	1360	870	10.2	-8.9	232	11	4.1
2025-11-04T12:00	1380	868	10.0	-9.2	232	11	4.1
2025-11-04T12:00	1400	866	9.9	-9.5	232	11	4.2
2025-11-04T12:00	1420	864	9.7	-9.5	231	11	4.2
2025-11-04T12:00	1440	862	9.6	-9.6	231	11	4.2
2025-11-04T12:00	1460	860	9.5	-9.5	231	11	4.2
2025-11-04T12:00	1480	858	9.6	-9.6	230	10	4.2
2025-11-04T12:00	1500	856	9.8	-10.3	230	10	4.2
2025-11-04T12:00	1520	854	9.8	-11.4	229	9	4.2
2025-11-04T12:00	1540	852	9.8	-12.6	229	9	4.3
2025-11-04T12:00	1560	850	9.9	-12.4	229	8	4.3
2025-11-04T12:00	1580	847	10.1	-11.9	229	8	4.4
2025-11-04T12:00	1600	846	10.1	-11.5	229	7	4.4
2025-11-04T12:00	1620	843	10.0	-11.1	230	7	4.4
2025-11-04T12:00	1640	841	10.0	-11.0	230	6	4.4
2025-11-04T12:00	1660	839	9.8	-10.8	231	6	4.4
2025-11-04T12:00	1680	837	9.8	-10.6	230	5	4.4
2025-11-04T12:00	1700	836	9.7	-10.4	229	4	4.4
2025-11-04T12:00	1720	834	9.6	-10.2	228	4	4.4
2025-11-04T12:00	1740	831	9.5	-10.1	225	3	4.4
2025-11-04T12:00	1760	829	9.5	-9.9	221	3	4.4
2025-11-04T12:00	1780	827	9.4	-9.7	215	2	4.3
2025-11-04T12:00	1800	825	9.5	-9.1	208	2	4.3
2025-11-04T12:00	1820	824	9.4	-8.7	199	2	4.3
2025-11-04T12:00	1840	822	9.3	-8.2	187	1	4.3
2025-11-04T12:00	1860	819	9.2	-7.8	173	1	4.2
2025-11-04T12:00	1880	817	9.0	-7.8	163	1	4.2
2025-11-04T12:00	1900	815	9.0	-9.0	158	1	4.2
2025-11-04T12:00	1920	813	8.9	-8.6	158	1	4.2
2025-11-04T12:00	1940	811	8.9	-7.9	160	2	4.2
2025-11-04T12:00	1960	810	8.8	-9.2	164	2	4.1
2025-11-04T12:00	1980	808	8.8	-11.2	168	2	4.1
2025-11-04T12:00	2000	806	8.7	-11.6	173	2	4.1
2025-11-04T12:00	2020	804	8.7	-12.1	179	2	4.2
2025-11-04T12:00	2040	802	8.9	-12.6	183	3	4.2
2025-11-04T12:00	2060	800	9.1	-13.6	186	3	4.2
2025-11-04T12:00	2080	798	9.2	-13.7	190	3	4.2
2025-11-04T12:00	2100	796	9.1	-13.7	192	3	4.2
2025-11-04T12:00	2120	794	9.1	-13.5	193	4	4.2
2025-11-04T12:00	2140	792	9.0	-13.5	194	4	4.2
2025-11-04T12:00	2160	790	8.9	-13.6	195	4	4.2
2025-11-04T12:00	2180	788	8.7	-13.6	196	4	4.2
2025-11-04T12:00	2200	786	8.6	-13.6	198	4	4.2
2025-11-04T12:00	2220	785	8.5	-13.6	199	4	4.2
2025-11-04T12:00	2240	783	8.3	-13.8	199	4	4.2
2025-11-04T12:00	2260	781	8.2	-13.9	200	3	4.2
2025-11-04T12:00	2280	779	8.0	-14.0	200	3	4.3
2025-11-04T12:00	2300	777	7.8	-14.0	200	3	4.2
2025-11-04T12:00	2320	775	7.7	-13.6	201	3	4.2
2025-11-04T12:00	2340	773	7.6	-13.3	204	3	4.2
2025-11-04T12:00	2360	771	7.5	-13.3	207	3	4.2
2025-11-04T12:00	2380	769	7.4	-13.3	210	3	4.2
2025-11-04T12:00	2400	768	7.3	-13.5	212	3	4.2
2025-11-04T12:00	2420	766	7.2	-13.4	213	3	4.2
2025-11-04T12:00	2440	764	7.3	-13.4	213	3	4.2
2025-11-04T12:00	2460	762	7.1	-14.2	210	2	4.2
2025-11-04T12:00	2480	760	6.9	-14.4	206	2	4.2
2025-11-04T12:00	2500	758	6.8	-14.3	204	2	4.2
2025-11-04T12:00	2520	757	6.6	-14.0	202	2	4.2
2025-11-04T12:00	2540	755	6.4	-14.1	202	2	4.2
2025-11-04T12:00	2560	753	6.3	-14.0	204	2	4.2
2025-11-04T12:00	2580	751	6.2	-13.6	208	2	4.2
2025-11-04T12:00	2600	749	6.1	-12.6	213	2	4.2
2025-11-04T12:00	2620	747	6.0	-12.2	218	2	4.2
2025-11-04T12:00	2640	746	5.9	-11.7	222	2	4.1
2025-11-04T12:00	2660	744	5.8	-11.9	227	2	4.1
2025-11-04T12:00	2680	742	5.6	-12.0	228	3	4.0
2025-11-04T12:00	2700	740	5.4	-12.2	226	3	4.0
2025-11-04T12:00	2720	738	5.3	-12.6	224	3	4.0
2025-11-04T12:00	2740	736	5.2	-13.0	221	3	3.9
2025-11-04T12:00	2760	735	5.2	-14.0	219	4	3.9
2025-11-04T12:00	2780	733	5.1	-14.0	216	4	3.9
2025-11-04T12:00	2800	731	5.0	-13.9	214	4	3.9
2025-11-04T12:00	2820	729	4.9	-13.9	213	5	3.9
2025-11-04T12:00	2840	727	4.7	-13.6	211	5	3.9
2025-11-04T12:00	2860	726	4.5	-13.4	209	5	3.8
2025-11-04T12:00	2880	724	4.3	-13.3	208	5	3.8
2025-11-04T12:00	2900	722	4.2	-13.3	207	5	3.8
2025-11-04T12:00	2920	720	4.0	-13.5	207	5	3.8
2025-11-04T12:00	2940	718	3.9	-13.7	207	5	3.8
2025-11-04T12:00	2960	717	3.8	-13.9	208	5	3.8
2025-11-04T12:00	2980	715	3.6	-14.5	207	5	3.7
2025-11-04T12:00	3000	713	3.6	-14.6	205	5	3.7
2025-11-04T12:00	3020	711	3.4	-14.5	202	5	3.7
2025-11-04T12:00	3040	710	3.2	-15.3	197	5	3.7
2025-11-04T12:00	3060	708	3.3	-17.9	193	5	3.8
2025-11-04T12:00	3080	706	3.4	-18.3	190	5	3.8
2025-11-04T12:00	3100	704	3.3	-17.4	187	6	3.8
2025-11-04T12:00	3120	703	3.1	-17.6	187	6	3.8
2025-11-04T12:00	3140	701	2.9	-18.5	186	6	3.8
2025-11-04T12:00	3160	699	3.0	-18.7	186	6	3.9
2025-11-04T12:00	3180	697	3.0	-18.3	185	6	3.9
2025-11-04T12:00	3200	696	2.7	-14.9	184	6	3.9
2025-11-04T12:00	3220	694	2.5	-10.7	182	6	3.9
2025-11-04T12:00	3240	692	2.4	-10.1	181	6	3.8
2025-11-04T12:00	3260	691	2.4	-10.0	180	6	3.8
2025-11-04T12:00	3280	689	2.2	-9.8	179	6	3.7
2025-11-04T12:00	3300	687	2.2	-10.1	178	6	3.6
2025-11-04T12:00	3320	686	2.2	-10.3	177	7	3.6
2025-11-04T12:00	3340	684	2.1	-10.3	176	6	3.5
2025-11-04T12:00	3360	682	2.0	-10.9	175	6	3.4
2025-11-04T12:00	3380	680	1.8	-11.4	174	7	3.4
2025-11-04T12:00	3400	679	1.6	-11.5	173	7	3.4
2025-11-04T12:00	3420	677	1.4	-11.7	172	7	3.3
2025-11-04T12:00	3440	675	1.3	-12.1	171	7	3.3
2025-11-04T12:00	3460	674	1.2	-12.7	170	6	3.3
2025-11-04T12:00	3480	672	1.1	-14.8	169	6	3.3
2025-11-04T12:00	3500	670	0.9	-15.9	168	6	3.3
2025-11-04T12:00	3520	669	0.8	-17.3	166	6	3.4
2025-11-04T12:00	3540	667	0.7	-20.0	164	6	3.4
2025-11-04T12:00	3560	666	0.6	-21.8	161	6	3.4
2025-11-04T12:00	3580	664	0.5	-21.8	158	6	3.5
2025-11-04T12:00	3600	662	0.3	-21.7	155	5	3.5
2025-11-04T12:00	3620	660	0.2	-22.0	153	5	3.5
2025-11-04T12:00	3640	659	0.0	-22.2	152	5	3.6
2025-11-04T12:00	3660	657	-0.1	-22.4	151	6	3.6
2025-11-04T12:00	3680	655	-0.2	-22.9	151	6	3.6
2025-11-04T12:00	3700	654	-0.1	-23.2	151	6	3.6
2025-11-04T12:00	3720	652	-0.3	-23.2	152	5	3.7
2025-11-04T12:00	3740	650	-0.5	-23.1	152	5	3.7
2025-11-04T12:00	3760	649	-0.7	-23.2	153	5	3.6
2025-11-04T12:00	3780	647	-0.8	-23.5	154	5	3.7
2025-11-04T12:00	3800	646	-0.9	-24.0	157	4	3.7
2025-11-04T12:00	3820	644	-1.1	-24.3	160	4	3.7
2025-11-04T12:00	3840	642	-1.1	-24.7	164	3	3.7
2025-11-04T12:00	3860	641	-1.3	-25.2	169	3	3.7
2025-11-04T12:00	3880	639	-1.5	-25.5	175	3	3.7
2025-11-04T12:00	3900	638	-1.7	-25.6	182	3	3.7
2025-11-04T12:00	3920	636	-1.9	-25.8	189	3	3.7
2025-11-04T12:00	3940	634	-2.0	-25.8	196	2	3.7
2025-11-04T12:00	3960	633	-2.2	-25.8	204	2	3.8
2025-11-04T12:00	3980	631	-2.3	-25.9	211	2	3.8
2025-11-04T12:00	4000	630	-2.4	-26.3	218	2	3.8
2025-11-04T12:00	4020	628	-2.5	-27.0	224	2	3.8
2025-11-04T12:00	4040	626	-2.6	-27.9	228	2	3.8
2025-11-04T12:00	4060	625	-2.6	-28.3	232	2	3.8
2025-11-04T12:00	4080	623	-2.7	-28.6	232	2	3.8
2025-11-04T12:00	4100	622	-2.8	-28.7	230	1	3.8
2025-11-04T12:00	4120	620	-2.9	-29.1	223	1	3.8
2025-11-04T12:00	4140	619	-2.9	-30.2	218	2	3.8
2025-11-04T12:00	4160	617	-2.9	-30.5	213	2	3.9
2025-11-04T12:00	4180	615	-3.1	-30.7	211	2	3.9
2025-11-04T12:00	4200	614	-3.3	-30.8	211	2	3.9
2025-11-04T12:00	4220	612	-3.4	-30.9	213	2	3.9
2025-11-04T12:00	4240	611	-3.6	-31.1	215	2	3.9
2025-11-04T12:00	4260	609	-3.8	-31.5	218	2	3.9
2025-11-04T12:00	4280	608	-3.8	-32.4	222	3	3.9
2025-11-04T12:00	4300	606	-3.9	-32.8	226	3	3.9
2025-11-04T12:00	4320	605	-4.0	-33.1	230	3	3.9
2025-11-04T12:00	4340	603	-4.0	-34.1	231	3	3.9
2025-11-04T12:00	4360	602	-4.0	-34.5	233	3	3.9
2025-11-04T12:00	4380	600	-4.0	-35.3	234	3	3.9
2025-11-04T12:00	4400	599	-4.0	-35.8	235	3	3.9
2025-11-04T12:00	4420	597	-4.2	-36.4	237	4	3.9
2025-11-04T12:00	4440	595	-3.9	-39.2	239	4	3.9
2025-11-04T12:00	4460	594	-3.6	-41.2	241	4	3.9
2025-11-04T12:00	4480	593	-3.5	-41.4	244	4	3.9
2025-11-04T12:00	4500	591	-3.5	-41.4	246	4	3.9
2025-11-04T12:00	4520	590	-3.7	-41.3	247	4	3.9
2025-11-04T12:00	4540	588	-3.8	-41.3	247	5	3.9
2025-11-04T12:00	4560	587	-4.0	-41.2	247	5	3.9
2025-11-04T12:00	4580	585	-4.2	-41.1	246	5	3.9
2025-11-04T12:00	4600	584	-4.3	-40.9	244	5	3.9
2025-11-04T12:00	4620	582	-4.5	-40.5	242	4	3.9
2025-11-04T12:00	4640	581	-4.6	-39.8	240	4	3.9
2025-11-04T12:00	4660	579	-4.7	-40.4	239	4	3.8
2025-11-04T12:00	4680	578	-4.7	-40.5	238	4	3.8
2025-11-04T12:00	4700	576	-4.8	-40.1	238	4	3.8
2025-11-04T12:00	4720	575	-5.0	-39.0	239	4	3.8
2025-11-04T12:00	4740	573	-5.1	-36.8	240	4	3.8
2025-11-04T12:00	4760	572	-5.1	-36.8	240	4	3.7
2025-11-04T12:00	4780	570	-5.2	-37.0	239	4	3.7
2025-11-04T12:00	4800	569	-5.2	-37.6	238	5	3.7
2025-11-04T12:00	4820	568	-5.2	-38.6	238	5	3.7
2025-11-04T12:00	4840	566	-5.3	-39.7	238	5	3.7
2025-11-04T12:00	4860	565	-5.5	-40.2	240	5	3.6
2025-11-04T12:00	4880	563	-5.6	-40.3	242	5	3.6
2025-11-04T12:00	4900	562	-5.8	-40.8	245	5	3.6
2025-11-04T12:00	4920	560	-5.9	-41.1	248	4	3.6
2025-11-04T12:00	4940	559	-6.0	-41.0	250	4	3.6
2025-11-04T12:00	4960	557	-6.2	-40.8	250	4	3.6
2025-11-04T12:00	4980	556	-6.4	-40.7	249	4	3.6
2025-11-04T12:00	5000	554	-6.5	-40.9	248	4	3.6
2025-11-04T12:00	5020	553	-6.7	-41.1	247	3	3.6
2025-11-04T12:00	5040	552	-6.8	-41.6	249	3	3.6
2025-11-04T12:00	5060	550	-6.9	-43.1	254	4	3.6
2025-11-04T12:00	5080	549	-7.1	-44.0	257	4	3.6
2025-11-04T12:00	5100	547	-7.2	-42.4	260	4	3.6
2025-11-04T12:00	5120	546	-7.3	-35.8	262	4	3.5
2025-11-04T12:00	5140	545	-7.4	-30.9	263	4	3.5
2025-11-04T12:00	5160	543	-7.6	-30.2	262	4	3.4
2025-11-04T12:00	5180	542	-7.7	-30.2	261	4	3.3
2025-11-04T12:00	5200	540	-7.8	-32.1	258	4	3.3
2025-11-04T12:00	5220	539	-7.9	-32.2	255	4	3.2
2025-11-04T12:00	5240	538	-8.1	-29.8	253	4	3.2
2025-11-04T12:00	5260	536	-8.3	-29.4	251	4	3.1
2025-11-04T12:00	5280	535	-8.4	-28.8	251	4	3.1
2025-11-04T12:00	5300	534	-8.6	-29.6	251	5	3.1
2025-11-04T12:00	5320	532	-8.8	-30.3	251	5	3.0
2025-11-04T12:00	5340	531	-9.0	-30.4	253	5	3.0
2025-11-04T12:00	5360	529	-9.2	-30.4	254	4	3.0
2025-11-04T12:00	5380	528	-9.3	-30.3	257	4	3.0
2025-11-04T12:00	5400	527	-9.4	-28.7	259	4	3.0
2025-11-04T12:00	5420	525	-9.6	-27.5	263	4	3.0
2025-11-04T12:00	5440	524	-9.8	-26.8	267	4	2.9
2025-11-04T12:00	5460	523	-10.0	-26.3	272	4	2.9
2025-11-04T12:00	5480	521	-10.1	-26.1	277	4	2.9
2025-11-04T12:00	5500	520	-10.4	-26.0	282	4	2.9
2025-11-04T12:00	5520	519	-10.7	-25.9	286	4	2.8
2025-11-04T12:00	5540	517	-10.9	-25.7	289	4	2.8
2025-11-04T12:00	5560	516	-11.1	-25.7	292	4	2.8
2025-11-04T12:00	5580	514	-11.3	-25.6	295	4	2.8
2025-11-04T12:00	5600	513	-11.4	-25.5	298	4	2.8
2025-11-04T12:00	5620	512	-11.6	-25.3	301	4	2.8
2025-11-04T12:00	5640	511	-11.8	-25.3	303	4	2.8
2025-11-04T12:00	5660	509	-11.9	-25.2	304	4	2.8
2025-11-04T12:00	5680	508	-12.2	-25.0	306	4	2.8
2025-11-04T12:00	5700	507	-12.4	-24.3	308	4	2.8
2025-11-04T12:00	5720	505	-12.5	-23.9	309	4	2.8
2025-11-04T12:00	5740	504	-12.7	-24.2	310	4	2.8
2025-11-04T12:00	5760	503	-12.9	-24.9	310	5	2.8
2025-11-04T12:00	5780	501	-13.1	-25.1	310	5	2.8
2025-11-04T12:00	5800	500	-13.2	-25.4	308	5	2.8
2025-11-04T12:00	5820	499	-13.4	-25.4	306	5	2.8
2025-11-04T12:00	5840	497	-13.6	-24.7	302	5	2.8
2025-11-04T12:00	5860	496	-13.7	-24.6	298	5	2.8
2025-11-04T12:00	5880	495	-13.8	-24.6	294	5	2.8
2025-11-04T12:00	5900	493	-14.1	-24.6	290	4	2.8
2025-11-04T12:00	5920	492	-14.3	-24.6	287	4	2.8
2025-11-04T12:00	5940	491	-14.5	-24.7	284	4	2.7
2025-11-04T12:00	5960	490	-14.7	-24.8	280	5	2.7
2025-11-04T12:00	5980	488	-14.9	-25.2	276	5	2.7
2025-11-04T12:00	6000	487	-15.1	-25.5	272	5	2.7
2025-11-04T12:00	6020	486	-15.2	-25.6	269	5	2.7
2025-11-04T12:00	6040	484	-15.3	-25.8	268	5	2.7
2025-11-04T12:00	6060	483	-15.5	-26.1	266	5	2.7
2025-11-04T12:00	6080	482	-15.6	-26.4	264	5	2.7
2025-11-04T12:00	6100	481	-15.7	-27.2	262	5	2.7
2025-11-04T12:00	6120	479	-15.8	-27.8	260	5	2.7
2025-11-04T12:00	6140	478	-16.0	-29.2	258	4	2.7
2025-11-04T12:00	6160	477	-16.2	-30.3	256	4	2.7
2025-11-04T12:00	6180	475	-16.3	-30.2	254	4	2.7
2025-11-04T12:00	6200	474	-16.4	-29.5	252	4	2.7
2025-11-04T12:00	6220	473	-16.7	-29.1	251	3	2.6
2025-11-04T12:00	6240	472	-16.9	-28.2	252	3	2.6
2025-11-04T12:00	6260	470	-17.0	-27.6	253	3	2.6
2025-11-04T12:00	6280	469	-17.1	-27.2	255	3	2.6
2025-11-04T12:00	6300	468	-17.3	-26.9	257	3	2.6
2025-11-04T12:00	6320	467	-17.5	-26.8	259	3	2.6
2025-11-04T12:00	6340	465	-17.7	-27.0	260	3	2.6
2025-11-04T12:00	6360	464	-17.9	-26.8	261	3	2.6
2025-11-04T12:00	6380	463	-17.9	-26.8	263	3	2.5
2025-11-04T12:00	6400	462	-18.2	-26.7	265	3	2.5
2025-11-04T12:00	6420	460	-18.4	-26.6	269	3	2.5
2025-11-04T12:00	6440	459	-18.6	-26.6	273	3	2.5
2025-11-04T12:00	6460	458	-18.8	-26.6	277	3	2.5
2025-11-04T12:00	6480	457	-19.0	-26.6	281	3	2.5
2025-11-04T12:00	6500	456	-19.2	-26.7	284	3	2.4
2025-11-04T12:00	6520	454	-19.4	-26.9	288	3	2.4
2025-11-04T12:00	6540	453	-19.6	-26.8	292	3	2.4
2025-11-04T12:00	6560	452	-19.7	-26.9	294	3	2.4
2025-11-04T12:00	6580	451	-19.9	-27.0	296	4	2.4
2025-11-04T12:00	6600	450	-20.1	-27.1	299	4	2.4
2025-11-04T12:00	6620	448	-20.4	-27.3	301	4	2.3
2025-11-04T12:00	6640	447	-20.5	-27.6	304	4	2.3
2025-11-04T12:00	6660	446	-20.6	-27.6	306	4	2.3
2025-11-04T12:00	6680	445	-20.7	-27.5	309	4	2.3
2025-11-04T12:00	6700	443	-20.9	-27.6	312	4	2.3
2025-11-04T12:00	6720	442	-21.0	-28.2	313	4	2.3
2025-11-04T12:00	6740	441	-21.1	-28.4	313	4	2.2
2025-11-04T12:00	6760	440	-21.3	-28.6	313	4	2.2
2025-11-04T12:00	6780	439	-21.5	-28.7	314	4	2.2
2025-11-04T12:00	6800	437	-21.6	-29.0	314	4	2.2
2025-11-04T12:00	6820	436	-21.8	-29.1	314	4	2.2
2025-11-04T12:00	6840	435	-21.9	-29.2	312	4	2.2
2025-11-04T12:00	6860	434	-22.1	-29.5	308	4	2.2
2025-11-04T12:00	6880	433	-22.1	-29.9	305	4	2.1
2025-11-04T12:00	6900	432	-22.4	-29.7	303	4	2.1
2025-11-04T12:00	6920	430	-22.6	-30.2	302	5	2.1
2025-11-04T12:00	6940	429	-22.7	-30.1	300	5	2.1
2025-11-04T12:00	6960	428	-22.8	-29.8	297	5	2.1
2025-11-04T12:00	6980	427	-23.0	-29.7	294	5	2.1
2025-11-04T12:00	7000	426	-23.2	-29.7	289	6	2.1
2025-11-04T12:00	7020	425	-23.2	-29.8	285	6	2.1
2025-11-04T12:00	7040	423	-23.4	-30.2	282	6	2.1
2025-11-04T12:00	7060	422	-23.5	-30.6	280	6	2.1
2025-11-04T12:00	7080	421	-23.5	-31.0	279	6	2.1
2025-11-04T12:00	7100	420	-23.6	-31.8	278	6	2.1
2025-11-04T12:00	7120	419	-23.4	-32.7	276	6	2.1
2025-11-04T12:00	7140	418	-23.4	-32.7	275	6	2.1
2025-11-04T12:00	7160	417	-23.6	-33.1	275	6	2.1
2025-11-04T12:00	7180	415	-23.8	-33.7	274	6	2.1
2025-11-04T12:00	7200	414	-23.9	-33.9	275	7	2.2
2025-11-04T12:00	7220	413	-24.0	-33.9	277	7	2.2
2025-11-04T12:00	7240	412	-24.1	-34.0	279	7	2.2
2025-11-04T12:00	7260	411	-24.3	-34.0	280	7	2.2
2025-11-04T12:00	7280	410	-24.6	-33.9	282	8	2.2
2025-11-04T12:00	7300	409	-24.7	-34.3	283	8	2.2
2025-11-04T12:00	7320	408	-24.9	-34.2	283	8	2.2
2025-11-04T12:00	7340	406	-25.2	-33.9	282	9	2.2
2025-11-04T12:00	7360	405	-25.3	-33.7	280	9	2.2
2025-11-04T12:00	7380	404	-25.5	-33.8	278	9	2.2
2025-11-04T12:00	7400	403	-25.7	-34.0	277	9	2.1
2025-11-04T12:00	7420	402	-25.8	-34.3	277	9	2.1
2025-11-04T12:00	7440	401	-26.0	-34.2	277	9	2.1
2025-11-04T12:00	7460	400	-26.2	-34.1	277	9	2.1
2025-11-04T12:00	7480	399	-26.4	-34.4	278	8	2.1
2025-11-04T12:00	7500	397	-26.6	-34.3	278	8	2.1
2025-11-04T12:00	7520	396	-26.8	-34.3	279	8	2.1
2025-11-04T12:00	7540	395	-26.8	-34.6	280	8	2.1
2025-11-04T12:00	7560	394	-27.0	-35.0	282	8	2.0
2025-11-04T12:00	7580	393	-27.2	-35.3	283	8	2.0
2025-11-04T12:00	7600	392	-27.4	-35.7	285	8	2.0
2025-11-04T12:00	7620	391	-27.5	-36.1	287	8	2.0
2025-11-04T12:00	7640	390	-27.6	-36.1	289	8	2.0
2025-11-04T12:00	7660	389	-27.8	-36.1	291	8	1.9
2025-11-04T12:00	7680	388	-28.0	-36.3	293	8	1.9
2025-11-04T12:00	7700	387	-28.1	-36.5	296	8	1.9
2025-11-04T12:00	7720	385	-28.1	-37.3	298	8	1.8
2025-11-04T12:00	7740	384	-28.2	-39.5	299	8	1.8
2025-11-04T12:00	7760	383	-28.2	-39.3	299	8	1.8
2025-11-04T12:00	7780	382	-28.3	-38.9	298	8	1.7
2025-11-04T12:00	7800	381	-28.2	-37.6	297	8	1.7
2025-11-04T12:00	7820	380	-28.4	-37.2	296	8	1.6
2025-11-04T12:00	7840	379	-28.7	-37.6	295	8	1.6
2025-11-04T12:00	7860	378	-28.7	-37.9	294	8	1.6
2025-11-04T12:00	7880	377	-28.8	-38.9	293	9	1.5
2025-11-04T12:00	7900	376	-28.9	-39.0	293	9	1.5
2025-11-04T12:00	7920	375	-29.0	-38.7	293	9	1.5
2025-11-04T12:00	7940	374	-29.1	-39.1	294	9	1.5
2025-11-04T12:00	7960	373	-29.4	-39.0	295	9	1.5
2025-11-04T12:00	7980	372	-29.6	-39.4	296	9	1.5
2025-11-04T12:00	8000	371	-29.8	-41.1	298	9	1.5
2025-11-04T12:00	8020	370	-29.9	-42.2	300	9	1.5
2025-11-04T12:00	8040	369	-30.1	-43.2	302	9	1.5
2025-11-04T12:00	8060	368	-30.1	-43.1	304	8	1.5
2025-11-04T12:00	8080	366	-30.4	-42.3	305	8	1.6
2025-11-04T12:00	8100	365	-30.5	-40.8	306	8	1.6
2025-11-04T12:00	8120	364	-30.7	-39.3	305	8	1.6
2025-11-04T12:00	8140	363	-30.8	-39.6	304	8	1.6
2025-11-04T12:00	8160	362	-31.0	-40.0	302	8	1.6
2025-11-04T12:00	8180	361	-31.1	-39.5	298	8	1.6
2025-11-04T12:00	8200	360	-31.3	-39.3	295	8	1.5
2025-11-04T12:00	8220	359	-31.5	-39.6	292	8	1.5
2025-11-04T12:00	8240	358	-31.7	-39.9	290	8	1.5
2025-11-04T12:00	8260	357	-31.9	-40.1	288	8	1.5
2025-11-04T12:00	8280	356	-32.0	-40.5	286	8	1.5
2025-11-04T12:00	8300	355	-32.1	-40.8	285	7	1.4
2025-11-04T12:00	8320	354	-32.3	-40.6	283	7	1.4
2025-11-04T12:00	8340	353	-32.6	-40.7	283	7	1.4
2025-11-04T12:00	8360	352	-32.7	-40.9	283	7	1.4
2025-11-04T12:00	8380	351	-32.9	-41.1	284	6	1.4
2025-11-04T12:00	8400	350	-33.1	-41.0	285	7	1.4
2025-11-04T12:00	8420	349	-33.3	-40.9	286	7	1.4
2025-11-04T12:00	8440	348	-33.4	-41.2	287	7	1.4
2025-11-04T12:00	8460	347	-33.6	-41.7	288	7	1.4
2025-11-04T12:00	8480	346	-33.7	-42.1	289	7	1.4
2025-11-04T12:00	8500	345	-33.9	-41.9	291	7	1.3
2025-11-04T12:00	8520	344	-34.1	-41.6	293	6	1.3
2025-11-04T12:00	8540	343	-34.2	-41.6	295	6	1.3
2025-11-04T12:00	8560	342	-34.4	-41.8	296	6	1.3
2025-11-04T12:00	8580	341	-34.5	-41.4	296	6	1.3
2025-11-04T12:00	8600	340	-34.7	-41.7	295	6	1.3
2025-11-04T12:00	8620	339	-34.8	-41.7	293	6	1.3
2025-11-04T12:00	8640	338	-35.1	-41.3	291	7	1.3
2025-11-04T12:00	8660	338	-35.2	-42.0	289	7	1.3
2025-11-04T12:00	8680	337	-35.4	-42.3	288	7	1.3
2025-11-04T12:00	8700	336	-35.5	-42.6	286	7	1.4
2025-11-04T12:00	8720	335	-35.7	-42.6	285	7	1.4
2025-11-04T12:00	8740	334	-35.8	-42.7	285	7	1.4
2025-11-04T12:00	8760	333	-36.1	-42.7	284	7	1.4
2025-11-04T12:00	8780	332	-36.2	-43.0	284	7	1.4
2025-11-04T12:00	8800	331	-36.5	-42.9	283	7	1.4
2025-11-04T12:00	8820	330	-36.7	-42.9	282	7	1.4
2025-11-04T12:00	8840	329	-36.9	-42.9	281	7	1.4
2025-11-04T12:00	8860	328	-37.1	-43.3	279	7	1.4
2025-11-04T12:00	8880	327	-37.2	-43.5	278	7	1.4
2025-11-04T12:00	8900	326	-37.4	-43.6	278	7	1.4
2025-11-04T12:00	8920	325	-37.5	-43.5	277	7	1.4
2025-11-04T12:00	8940	324	-37.6	-43.6	278	7	1.4
2025-11-04T12:00	8960	323	-37.9	-43.7	278	7	1.3
2025-11-04T12:00	8980	322	-38.0	-44.0	279	7	1.3
2025-11-04T12:00	9000	321	-38.3	-44.6	281	7	1.3
2025-11-04T12:00	9020	320	-38.5	-44.6	283	7	1.3
2025-11-04T12:00	9040	319	-38.7	-45.0	284	7	1.4
2025-11-04T12:00	9060	319	-38.9	-45.2	284	7	1.4
2025-11-04T12:00	9080	318	-39.1	-45.6	284	7	1.4
2025-11-04T12:00	9100	317	-39.3	-46.3	284	7	1.4
2025-11-04T12:00	9120	316	-39.4	-46.0	284	7	1.4
2025-11-04T12:00	9140	315	-39.4	-46.0	284	7	1.4
2025-11-04T12:00	9160	314	-39.6	-45.6	284	7	1.4
2025-11-04T12:00	9180	313	-39.8	-45.5	284	8	1.4
2025-11-04T12:00	9200	312	-40.0	-45.8	284	8	1.4
2025-11-04T12:00	9220	311	-40.3	-45.6	284	8	1.4
2025-11-04T12:00	9240	310	-40.4	-45.5	284	8	1.4
2025-11-04T12:00	9260	309	-40.6	-45.6	284	9	1.4
2025-11-04T12:00	9280	309	-40.6	-46.1	284	9	1.4
2025-11-04T12:00	9300	308	-40.8	-46.4	284	9	1.4
2025-11-04T12:00	9320	307	-41.0	-46.3	284	9	1.4
2025-11-04T12:00	9340	306	-41.2	-46.5	285	9	1.4
2025-11-04T12:00	9360	305	-41.3	-46.5	286	10	1.5
2025-11-04T12:00	9380	304	-41.4	-46.3	287	10	1.5
2025-11-04T12:00	9400	303	-41.6	-46.5	288	10	1.5
2025-11-04T12:00	9420	302	-41.8	-47.0	289	9	1.5
2025-11-04T12:00	9440	301	-41.9	-47.1	291	9	1.5
2025-11-04T12:00	9460	300	-42.0	-47.1	293	9	1.5
2025-11-04T12:00	9480	299	-42.3	-47.1	294	8	1.5
2025-11-04T12:00	9500	299	-42.6	-47.0	296	8	1.5
2025-11-04T12:00	9520	298	-42.7	-47.1	298	8	1.5
2025-11-04T12:00	9540	297	-42.9	-47.7	300	8	1.5
2025-11-04T12:00	9560	296	-43.0	-48.6	302	8	1.5
2025-11-04T12:00	9580	295	-43.3	-48.7	304	8	1.5
2025-11-04T12:00	9600	294	-43.6	-48.1	305	8	1.5
2025-11-04T12:00	9620	293	-43.7	-48.6	306	9	1.5
2025-11-04T12:00	9640	292	-43.9	-49.3	305	9	1.5
2025-11-04T12:00	9660	292	-44.1	-49.3	304	9	1.5
2025-11-04T12:00	9680	291	-44.2	-50.1	303	9	1.5
2025-11-04T12:00	9700	290	-44.4	-51.3	302	9	1.5
2025-11-04T12:00	9720	289	-44.5	-52.2	300	8	1.5
2025-11-04T12:00	9740	288	-44.5	-52.5	299	8	1.5
2025-11-04T12:00	9760	287	-44.7	-52.7	298	8	1.5
2025-11-04T12:00	9780	286	-44.8	-52.6	298	7	1.5
2025-11-04T12:00	9800	286	-44.8	-52.8	299	7	1.5
2025-11-04T12:00	9820	285	-45.0	-52.7	300	7	1.5
2025-11-04T12:00	9840	284	-45.0	-53.4	300	7	1.5
2025-11-04T12:00	9860	283	-45.3	-53.9	301	7	1.5
2025-11-04T12:00	9880	282	-45.6	-53.7	300	7	1.5
2025-11-04T12:00	9900	281	-45.7	-53.9	299	7	1.5
2025-11-04T12:00	9920	280	-45.8	-54.2	297	7	1.5
2025-11-04T12:00	9940	280	-45.9	-53.9	295	7	1.5
2025-11-04T12:00	9960	279	-46.1	-53.4	293	7	1.5
2025-11-04T12:00	9980	278	-46.2	-53.1	290	7	1.5
2025-11-04T12:00	10000	277	-46.5	-53.6	288	7	1.5
2025-11-04T12:00	10018	276	-46.7	-53.5	288	7	1.5
2025-11-04T12:00	10050	275	-47.0	-53.8	287	7	1.5
2025-11-04T12:00	10100	273	-47.4	-54.4	286	8	1.5
2025-11-04T12:00	10150	271	-47.9	-54.4	283	8	1.4
2025-11-04T12:00	10200	269	-48.2	-54.3	283	8	1.4
2025-11-04T12:00	10250	267	-48.4	-54.2	284	9	1.5
2025-11-04T12:00	10300	265	-48.6	-53.2	282	10	1.6
2025-11-04T12:00	10350	263	-48.9	-53.3	284	10	1.6
2025-11-04T12:00	10400	261	-49.3	-53.6	287	11	1.6
2025-11-04T12:00	10450	259	-49.6	-54.0	288	11	1.6
2025-11-04T12:00	10500	257	-50.0	-54.6	291	11	1.5
2025-11-04T12:00	10550	255	-50.4	-55.1	296	11	1.5
2025-11-04T12:00	10600	253	-50.8	-55.4	299	11	1.4
2025-11-04T12:00	10650	251	-51.2	-56.1	299	12	1.3
2025-11-04T12:00	10700	249	-51.5	-56.4	297	12	1.3
2025-11-04T12:00	10750	247	-52.0	-56.7	294	13	1.3
2025-11-04T12:00	10800	245	-52.4	-57.3	294	13	1.2
2025-11-04T12:00	10850	243	-53.0	-57.8	295	13	1.2
2025-11-04T12:00	10900	242	-53.4	-58.3	296	14	1.2
2025-11-04T12:00	10950	240	-53.5	-58.9	296	14	1.1
2025-11-04T12:00	11000	238	-54.2	-58.9	295	15	1.0
2025-11-04T12:00	11050	236	-54.5	-59.1	295	14	1.0
2025-11-04T12:00	11100	234	-54.7	-59.8	294	14	0.9
2025-11-04T12:00	11150	232	-55.2	-60.5	294	14	0.9
2025-11-04T12:00	11200	230	-55.7	-61.0	293	14	0.9
2025-11-04T12:00	11250	229	-56.2	-61.2	292	15	0.9
2025-11-04T12:00	11300	227	-56.7	-61.3	291	15	0.9
2025-11-04T12:00	11350	225	-57.1	-61.6	291	15	0.9
2025-11-04T12:00	11400	223	-57.4	-61.9	291	15	0.9
2025-11-04T12:00	11450	222	-57.8	-62.5	292	15	0.9
2025-11-04T12:00	11500	220	-58.1	-62.5	296	15	0.9
2025-11-04T12:00	11550	218	-58.2	-62.2	301	15	0.9
2025-11-04T12:00	11600	216	-58.5	-61.9	302	15	1.0
2025-11-04T12:00	11650	215	-58.7	-61.7	300	15	1.1
2025-11-04T12:00	11700	213	-59.0	-62.7	299	15	1.2
2025-11-04T12:00	11750	211	-59.0	-64.2	298	16	1.3
2025-11-04T12:00	11800	209	-59.0	-64.5	298	17	1.2
2025-11-04T12:00	11850	208	-59.0	-65.0	299	18	1.1
2025-11-04T12:00	11900	206	-59.0	-64.9	300	18	1.1
2025-11-04T12:00	11950	205	-59.5	-64.6	301	18	1.1
2025-11-04T12:00	12000	203	-59.9	-64.7	302	18	1.1
2025-11-04T12:00	12050	201	-60.2	-64.8	301	19	1.1
2025-11-04T12:00	12100	200	-60.5	-64.8	302	19	1.0
2025-11-04T12:00	12150	198	-60.8	-65.4	301	19	1.0
2025-11-04T12:00	12200	196	-61.1	-65.9	300	19	1.0
2025-11-04T12:00	12250	195	-61.3	-66.1	298	19	1.0
2025-11-04T12:00	12300	193	-61.5	-67.4	296	20	1.1
2025-11-04T12:00	12350	192	-61.5	-68.9	296	20	1.2
2025-11-04T12:00	12400	190	-61.4	-71.5	297	19	1.4
2025-11-04T12:00	12450	189	-61.4	-72.3	297	18	1.6
2025-11-04T12:00	12500	187	-61.1	-71.4	296	18	1.8
2025-11-04T12:00	12550	186	-60.7	-69.6	294	18	1.8
2025-11-04T12:00	12600	184	-60.9	-67.3	291	18	1.9
2025-11-04T12:00	12650	183	-60.8	-67.6	287	18	1.9
2025-11-04T12:00	12700	181	-60.7	-70.8	283	18	1.9
2025-11-04T12:00	12750	180	-60.5	-74.0	281	17	2.0
2025-11-04T12:00	12800	178	-60.6	-75.4	280	16	2.0
2025-11-04T12:00	12850	177	-60.6	-75.3	281	17	2.1
2025-11-04T12:00	12900	176	-60.7	-75.4	284	17	2.1
2025-11-04T12:00	12950	174	-60.9	-75.6	287	17	2.2
2025-11-04T12:00	13000	173	-61.0	-75.9	289	17	2.2
2025-11-04T12:00	13050	171	-61.0	-76.3	289	17	2.2
2025-11-04T12:00	13100	170	-61.1	-76.7	289	18	2.1
2025-11-04T12:00	13150	169	-61.1	-77.3	290	18	2.2
2025-11-04T12:00	13200	167	-61.2	-77.6	290	18	2.1
2025-11-04T12:00	13250	166	-61.5	-77.7	290	18	2.1
2025-11-04T12:00	13300	165	-61.6	-78.0	289	18	2.1
2025-11-04T12:00	13350	163	-61.6	-78.4	289	18	2.1
2025-11-04T12:00	13400	162	-61.8	-78.6	286	17	2.1
2025-11-04T12:00	13450	161	-62.0	-78.7	284	17	2.0
2025-11-04T12:00	13500	159	-62.3	-78.9	283	17	2.0
2025-11-04T12:00	13550	158	-62.4	-79.0	283	17	2.0
2025-11-04T12:00	13600	157	-62.4	-79.2	282	17	1.9
2025-11-04T12:00	13650	156	-62.5	-79.3	282	18	1.9
2025-11-04T12:00	13700	154	-62.7	-79.6	283	18	1.9
2025-11-04T12:00	13750	153	-62.5	-80.0	284	19	1.9
2025-11-04T12:00	13800	152	-62.4	-80.4	283	19	1.9
2025-11-04T12:00	13850	151	-62.5	-80.7	283	20	1.9
2025-11-04T12:00	13900	149	-62.4	-80.9	283	20	1.9
2025-11-04T12:00	13950	148	-62.5	-81.1	284	21	2.0
2025-11-04T12:00	14000	147	-62.7	-81.3	286	22	2.0
2025-11-04T12:00	14050	146	-62.6	-81.4	288	22	2.1
2025-11-04T12:00	14100	145	-62.6	-81.5	290	21	2.0
2025-11-04T12:00	14150	143	-62.7	-81.6	292	21	2.0
2025-11-04T12:00	14200	142	-62.9	-81.6	293	20	1.9
2025-11-04T12:00	14250	141	-63.0	-81.6	292	19	1.9
2025-11-04T12:00	14300	140	-62.9	-81.6	292	18	1.8
2025-11-04T12:00	14350	139	-62.8	-81.8	290	17	1.8
2025-11-04T12:00	14400	138	-62.9	-82.0	287	17	1.8
2025-11-04T12:00	14450	137	-63.0	-82.2	284	17	1.8
2025-11-04T12:00	14500	135	-63.0	-82.4	283	18	1.8
2025-11-04T12:00	14550	134	-63.2	-82.9	283	19	1.8
2025-11-04T12:00	14600	133	-62.9	-82.8	282	19	1.8
2025-11-04T12:00	14650	132	-63.3	-82.9	283	19	1.8
2025-11-04T12:00	14700	131	-63.6	-82.7	286	18	1.8
2025-11-04T12:00	14750	130	-63.8	-82.7	288	16	1.9
2025-11-04T12:00	14800	129	-64.0	-82.8	288	15	1.9
2025-11-04T12:00	14850	128	-64.3	-82.9	286	14	1.9
2025-11-04T12:00	14900	127	-64.7	-82.9	283	15	1.9
2025-11-04T12:00	14950	126	-65.1	-82.9	282	15	1.9
2025-11-04T12:00	15000	125	-65.5	-83.0	282	16	1.9
2025-11-04T12:00	15050	124	-65.6	-83.3	284	16	1.9
2025-11-04T12:00	15100	123	-65.5	-83.5	288	16	1.8
2025-11-04T12:00	15150	122	-65.6	-83.6	292	16	1.8
2025-11-04T12:00	15200	121	-65.5	-83.9	292	15	1.8
2025-11-04T12:00	15250	120	-65.1	-84.1	288	13	1.8
2025-11-04T12:00	15300	119	-64.8	-84.1	285	13	1.8
2025-11-04T12:00	15350	118	-64.8	-84.3	283	13	1.8
2025-11-04T12:00	15400	117	-65.0	-84.4	281	13	1.8
2025-11-04T12:00	15450	116	-65.3	-84.4	281	13	1.8
2025-11-04T12:00	15500	115	-65.7	-84.5	283	13	1.8
2025-11-04T12:00	15550	114	-65.8	-84.6	284	14	1.8
2025-11-04T12:00	15600	113	-65.8	-84.6	286	14	1.8
2025-11-04T12:00	15650	112	-66.1	-84.6	288	13	1.8
2025-11-04T12:00	15700	111	-66.3	-84.7	290	12	1.8
2025-11-04T12:00	15750	110	-66.3	-84.9	286	11	1.8
2025-11-04T12:00	15800	109	-66.2	-84.9	281	10	1.8
2025-11-04T12:00	15850	109	-66.3	-85.0	274	8	1.8
2025-11-04T12:00	15900	108	-66.1	-84.9	261	7	1.8
2025-11-04T12:00	15950	107	-66.0	-84.8	248	7	1.9
2025-11-04T12:00	16000	106	-66.2	-84.8	244	8	1.9
2025-11-04T12:00	16050	105	-66.4	-84.9	250	7	1.9
2025-11-04T12:00	16100	104	-66.6	-85.0	261	6	2.0
2025-11-04T12:00	16150	103	-66.9	-85.0	268	6	2.0
2025-11-04T12:00	16200	102	-67.1	-85.1	265	6	2.0
2025-11-04T12:00	16250	102	-66.9	-85.0	253	6	2.1
2025-11-04T12:00	16300	101	-66.9	-85.0	246	7	2.2
2025-11-04T12:00	16350	100	-67.3	-85.1	249	8	2.3
2025-11-04T12:00	16400	99	-67.4	-85.2	253	9	2.3
2025-11-04T12:00	16450	98	-67.1	-85.4	256	9	2.4
2025-11-04T12:00	16500	97	-66.9	-85.3	255	9	2.5
2025-11-04T12:00	16550	97	-67.3	-85.5	255	9	2.6
2025-11-04T12:00	16600	96	-67.7	-85.5	259	10	2.7
2025-11-04T12:00	16650	95	-68.0	-85.6	265	10	2.7
2025-11-04T12:00	16700	94	-67.9	-85.7	272	11	2.7
2025-11-04T12:00	16750	94	-67.6	-85.6	279	11	2.9
2025-11-04T12:00	16800	93	-67.5	-85.6	285	12	3.4
2025-11-04T12:00	16850	92	-67.7	-85.7	289	12	3.9
2025-11-04T12:00	16900	91	-68.0	-85.8	293	12	4.3
2025-11-04T12:00	16950	90	-68.2	-86.0	298	11	4.6
2025-11-04T12:00	17000	90	-68.1	-86.0	302	9	4.8
2025-11-04T12:00	17050	89	-68.0	-86.0	306	7	5.0
2025-11-04T12:00	17100	88	-68.0	-86.0	305	5	5.1
2025-11-04T12:00	17150	88	-68.1	-86.0	302	4	5.2
2025-11-04T12:00	17200	87	-68.5	-86.0	295	4	5.1
2025-11-04T12:00	17250	86	-68.5	-86.0	279	3	5.0
2025-11-04T12:00	17300	85	-68.6	-86.1	264	4	4.9
2025-11-04T12:00	17350	85	-68.4	-86.0	261	5	4.9
2025-11-04T12:00	17400	84	-68.6	-86.1	263	5	4.8
2025-11-04T12:00	17450	83	-68.6	-86.1	258	5	4.8
2025-11-04T12:00	17500	83	-68.6	-86.1	245	4	4.6
2025-11-04T12:00	17550	82	-68.8	-86.4	240	4	4.5
2025-11-04T12:00	17600	81	-68.5	-86.4	250	5	4.6
2025-11-04T12:00	17650	80	-68.4	-86.5	261	6	4.9
2025-11-04T12:00	17700	80	-68.6	-86.7	265	7	5.3
2025-11-04T12:00	17750	79	-68.8	-86.7	264	7	5.5
2025-11-04T12:00	17800	78	-68.9	-86.6	260	7	5.3
2025-11-04T12:00	17850	78	-69.1	-86.6	254	7	5.1
2025-11-04T12:00	17900	77	-69.3	-86.7	248	7	5.0
2025-11-04T12:00	17950	77	-69.5	-86.7	245	7	4.9
2025-11-04T12:00	18000	76	-69.8	-86.8	245	7	4.8
2025-11-04T12:00	18050	75	-69.8	-86.9	250	7	4.8
2025-11-04T12:00	18100	75	-69.8	-87.2	260	8	4.8
2025-11-04T12:00	18150	74	-69.3	-87.2	274	9	5.0
2025-11-04T12:00	18200	73	-69.0	-87.4	287	9	5.7
2025-11-04T12:00	18250	73	-68.5	-87.5	298	8	6.6
2025-11-04T12:00	18300	72	-67.9	-87.5	305	7	7.5
2025-11-04T12:00	18350	72	-67.6	-87.5	303	6	8.2
2025-11-04T12:00	18400	71	-67.7	-87.6	296	7	8.7
2025-11-04T12:00	18450	70	-67.6	-87.5	292	7	8.9
2025-11-04T12:00	18500	70	-67.5	-87.7	294	7	8.9
2025-11-04T12:00	18550	69	-66.9	-87.6	292	6	8.8
2025-11-04T12:00	18600	69	-66.4	-87.6	282	6	8.9
2025-11-04T12:00	18650	68	-66.0	-87.6	274	7	8.9
2025-11-04T12:00	18700	68	-65.5	-87.5	274	7	8.9
2025-11-04T12:00	18750	67	-65.2	-87.4	277	6	8.9
2025-11-04T12:00	18800	66	-65.0	-87.4	280	4	9.2
2025-11-04T12:00	18850	66	-64.9	-87.4	288	3	9.5
2025-11-04T12:00	18900	65	-64.5	-87.1	294	3	9.7
2025-11-04T12:00	18950	65	-64.6	-87.1	279	2	10.1
2025-11-04T12:00	19000	64	-64.4	-86.9	230	1	10.3
2025-11-04T12:00	19050	64	-64.6	-86.9	213	2	10.7
2025-11-04T12:00	19100	63	-65.0	-87.0	222	3	11.1
2025-11-04T12:00	19150	63	-65.4	-87.1	233	4	11.4
2025-11-04T12:00	19200	62	-65.5	-87.1	240	5	11.5
2025-11-04T12:00	19250	62	-65.7	-87.2	247	6	11.5
2025-11-04T12:00	19300	61	-65.9	-87.2	253	7	11.5
2025-11-04T12:00	19350	61	-66.0	-87.3	255	8	11.5
2025-11-04T12:00	19400	60	-66.3	-87.4	254	8	11.4
2025-11-04T12:00	19450	60	-66.4	-87.5	252	7	11.4
2025-11-04T12:00	19500	59	-66.3	-87.6	252	7	11.4
2025-11-04T12:00	19550	59	-66.4	-87.7	255	7	11.2
2025-11-04T12:00	19600	58	-66.5	-87.7	257	7	11.0
2025-11-04T12:00	19650	58	-66.4	-87.7	255	7	10.9
2025-11-04T12:00	19700	57	-66.4	-87.6	248	7	10.9
2025-11-04T12:00	19750	57	-66.6	-87.7	242	6	10.9
2025-11-04T12:00	19800	56	-66.8	-87.8	242	6	11.0
2025-11-04T12:00	19850	56	-66.7	-87.6	246	7	11.1
2025-11-04T12:00	19900	55	-67.0	-87.8	251	7	11.1
2025-11-04T12:00	19950	55	-67.3	-87.9	257	7	11.1
2025-11-04T12:00	20000	55	-67.4	-87.9	264	7	11.1
2025-11-04T12:00	20050	54	-67.6		270	8	11.0
2025-11-04T12:00	20100	54	-67.6		275	8	11.1
2025-11-04T12:00	20150	53	-67.4		274	8	11.1
2025-11-04T12:00	20200	53	-67.1		268	8	11.1
2025-11-04T12:00	20250	52	-67.1		261	8	11.0
2025-11-04T12:00	20300	52	-67.3		256	9	11.0
2025-11-04T12:00	20350	51	-67.6		252	9	11.0
2025-11-04T12:00	20400	51	-67.7		252	9	11.2
2025-11-04T12:00	20450	51	-67.3		260	9	11.4
2025-11-04T12:00	20500	50	-67.2		272	9	11.5
2025-11-04T12:00	20550	50	-66.6		280	10	11.5
2025-11-04T12:00	20600	49	-66.5		282	9	11.4
2025-11-04T12:00	20650	49	-66.3		274	8	11.3
2025-11-04T12:00	20700	49	-65.8		260	8	11.2
2025-11-04T12:00	20750	48	-65.6		252	9	11.0
2025-11-04T12:00	20800	48	-65.3		254	9	11.0
2025-11-04T12:00	20850	47	-64.9		262	8	11.2
2025-11-04T12:00	20900	47	-64.8		270	8	11.3
2025-11-04T12:00	20950	47	-64.4		274	8	11.4
2025-11-04T12:00	21000	46	-64.2		277	7	11.6
2025-11-04T12:00	21050	46	-64.3		280	7	11.7
2025-11-04T12:00	21100	45	-64.4		281	7	11.8
2025-11-04T12:00	21150	45	-64.5		278	6	11.9
2025-11-04T12:00	21200	45	-64.6		272	6	12.0
2025-11-04T12:00	21250	44	-64.6		266	6	12.1
2025-11-04T12:00	21300	44	-64.7		262	7	12.2
2025-11-04T12:00	21350	44	-64.9		260	7	12.3
2025-11-04T12:00	21400	43	-65.1		257	7	12.3
2025-11-04T12:00	21450	43	-65.2		255	7	12.2
2025-11-04T12:00	21500	43	-65.3		255	7	12.1
2025-11-04T12:00	21550	42	-65.3		255	7	12.0
2025-11-04T12:00	21600	42	-64.9		257	8	11.9
2025-11-04T12:00	21650	42	-64.4		263	9	11.9
2025-11-04T12:00	21700	41	-64.4		269	9	12.0
2025-11-04T12:00	21750	41	-64.3		273	10	12.1
2025-11-04T12:00	21800	41	-63.8		273	11	12.2
2025-11-04T12:00	21850	40	-63.7		272	11	12.3
2025-11-04T12:00	21900	40	-63.9		274	11	12.5
2025-11-04T12:00	21950	40	-63.6		279	10	12.6
2025-11-04T12:00	22000	39	-63.6		285	9	12.7
2025-11-04T12:00	22050	39	-63.4		291	7	12.8
2025-11-04T12:00	22100	39	-63.7		297	6	12.9
2025-11-04T12:00	22150	38	-64.0		305	5	13.0
2025-11-04T12:00	22200	38	-64.3		309	4	12.9
2025-11-04T12:00	22250	38	-64.4		301	3	12.9
2025-11-04T12:00	22300	37	-64.2		279	3	12.9
2025-11-04T12:00	22350	37	-64.3		259	4	13.0
2025-11-04T12:00	22400	37	-64.4		249	6	13.0
2025-11-04T12:00	22450	36	-64.4		244	7	13.1
2025-11-04T12:00	22500	36	-64.2		243	8	13.2
2025-11-04T12:00	22550	36	-63.7		245	9	13.3
2025-11-04T12:00	22600	36	-63.5		247	10	13.4
2025-11-04T12:00	22650	35	-63.6		249	11	13.5
2025-11-04T12:00	22700	35	-63.7		249	12	13.6
2025-11-04T12:00	22750	35	-64.1		248	13	13.7
2025-11-04T12:00	22800	34	-64.3		248	14	13.7
2025-11-04T12:00	22850	34	-64.3		249	15	13.7
2025-11-04T12:00	22900	34	-64.3		250	14	13.7
2025-11-04T12:00	22950	34	-64.5		252	14	13.7
2025-11-04T12:00	23000	33	-64.7		256	13	13.7
2025-11-04T12:00	23050	33	-64.7		259	13	13.7
2025-11-04T12:00	23100	33	-64.7		262	13	13.7
2025-11-04T12:00	23150	33	-64.8		267	13	13.7
2025-11-04T12:00	23200	32	-64.4		270	13	13.8
2025-11-04T12:00	23250	32	-64.2		270	14	13.9
2025-11-04T12:00	23300	32	-64.2		270	15	14.0
2025-11-04T12:00	23350	31	-64.4		270	15	13.8
2025-11-04T12:00	23400	31	-64.5		270	15	13.8
2025-11-04T12:00	23450	31	-64.5		269	15	13.8
2025-11-04T12:00	23500	31	-64.8		270	14	13.8
2025-11-04T12:00	23550	30	-65.0		272	12	13.7
2025-11-04T12:00	23600	30	-65.1		272	11	13.7
2025-11-04T12:00	23650	30	-65.0		273	10	13.6
2025-11-04T12:00	23700	30	-65.3		276	9	13.6
2025-11-04T12:00	23750	29	-65.5		277	9	13.5
2025-11-04T12:00	23800	29	-65.4		275	9	13.5
2025-11-04T12:00	23850	29	-65.0		272	9	13.5
2025-11-04T12:00	23900	29	-64.7		269	9	13.6
2025-11-04T12:00	23950	29	-64.4		267	8	13.6
2025-11-04T12:00	24000	28	-64.0		266	6	13.7
2025-11-04T12:00	24050	28	-64.2		259	5	13.7
2025-11-04T12:00	24100	28	-64.5		249	5	13.6
2025-11-04T12:00	24150	28	-64.7		247	4	13.6
2025-11-04T12:00	24200	27	-64.7		255	5	13.6
2025-11-04T12:00	24250	27	-64.8		262	7	13.5
2025-11-04T12:00	24300	27	-65.1		263	8	13.4
2025-11-04T12:00	24350	27	-65.2		259	9	13.4
2025-11-04T12:00	24400	26	-64.6		249	8	13.3
2025-11-04T12:00	24450	26	-64.3		235	8	13.3
2025-11-04T12:00	24500	26	-64.5		222	8	13.3
2025-11-04T12:00	24550	26	-64.5		218	8	13.3
2025-11-04T12:00	24600	26	-64.5		222	8	13.3
2025-11-04T12:00	24650	25	-64.5		228	9	13.4
2025-11-04T12:00	24700	25	-64.7		235	10	13.4
2025-11-04T12:00	24750	25	-64.9		242	11	13.5
2025-11-04T12:00	24800	25	-64.6		250	12	13.6
2025-11-04T12:00	24850	25	-64.5		256	12	13.6
2025-11-04T12:00	24900	24	-64.7		264	13	13.6
2025-11-04T12:00	24950	24	-64.6		268	13	13.4
2025-11-04T12:00	25000	24	-64.2		268	14	13.3
2025-11-04T12:00	25050	24	-63.9		269	15	13.2
2025-11-04T12:00	25100	24	-63.7		273	15	13.1
2025-11-04T12:00	25150	23	-63.6		280	15	13.0
2025-11-04T12:00	25200	23	-63.3		287	14	12.8
2025-11-04T12:00	25250	23	-63.2		293	13	12.8
2025-11-04T12:00	25300	23	-63.2		294	13	12.7
2025-11-04T12:00	25350	23	-63.0		290	12	12.6
2025-11-04T12:00	25400	22	-62.9		286	11	12.6
2025-11-04T12:00	25450	22	-62.8		287	10	12.6
2025-11-04T12:00	25500	22	-62.5		295	10	12.6
2025-11-04T12:00	25550	22	-62.3		301	10	12.5
2025-11-04T12:00	25600	22	-62.3		302	9	12.5
2025-11-04T12:00	25650	22	-62.1		295	9	12.5
2025-11-04T12:00	25700	21	-61.6		284	8	12.5
2025-11-04T12:00	25750	21	-61.5		271	8	12.4
2025-11-04T12:00	25800	21	-61.6		261	8	12.3
2025-11-04T12:00	25850	21	-61.6		256	9	12.1
2025-11-04T12:00	25900	21	-61.8		254	10	11.9
2025-11-04T12:00	25950	21	-61.8		258	10	11.8
2025-11-04T12:00	26000	20	-61.7		264	11	11.6
2025-11-04T12:00	26050	20	-61.8		267	12	11.5
2025-11-04T12:00	26100	20	-61.9		269	13	11.3
2025-11-04T12:00	26150	20	-62.1		272	13	11.2
2025-11-04T12:00	26200	20	-62.4		275	13	11.1
2025-11-04T12:00	26250	20	-62.5		277	13	10.9
2025-11-04T12:00	26300	19	-62.3		278	12	10.8
2025-11-04T12:00	26350	19	-62.5		278	11	10.7
2025-11-04T12:00	26400	19	-62.8		279	10	10.6
2025-11-04T12:00	26450	19	-63.0		283	9	10.5
2025-11-04T12:00	26500	19	-63.1		289	9	10.4
2025-11-04T12:00	26550	19	-63.1		293	9	10.4
2025-11-04T12:00	26600	19	-63.0		294	9	10.3
2025-11-04T12:00	26650	18	-62.7		294	8	10.3
2025-11-04T12:00	26700	18	-62.9		293	7	10.2
2025-11-04T12:00	26750	18	-62.8		286	7	10.1
2025-11-04T12:00	26800	18	-62.4		273	7	10.1
2025-11-04T12:00	26850	18	-62.3		259	7	10.1
2025-11-04T12:00	26900	18	-62.5		250	8	10.1
2025-11-04T12:00	26950	18	-62.6		246	9	10.1
2025-11-04T12:00	27000	17	-62.6		249	9	10.1
2025-11-04T12:00	27050	17	-62.6		255	10	10.0
2025-11-04T12:00	27100	17	-62.7		259	11	10.0
2025-11-04T12:00	27150	17	-62.8		261	12	10.0
2025-11-04T12:00	27200	17	-62.9		265	13	10.0
2025-11-04T12:00	27250	17	-63.0		271	13	10.0
2025-11-04T12:00	27300	17	-63.0		276	14	10.0
2025-11-04T12:00	27350	16	-62.9		279	14	9.9
2025-11-04T12:00	27400	16	-63.0		279	13	9.9
2025-11-04T12:00	27450	16	-63.0		275	14	9.9
2025-11-04T12:00	27500	16	-63.0		270	14	9.9
2025-11-04T12:00	27550	16	-63.0		267	15	9.9
2025-11-04T12:00	27600	16	-62.9		266	15	9.8
2025-11-04T12:00	27650	16	-62.7		267	15	9.8
2025-11-04T12:00	27700	15	-62.3		268	16	9.8
2025-11-04T12:00	27750	15	-62.0		268	16	9.7
2025-11-04T12:00	27800	15	-62.2		267	17	9.6
2025-11-04T12:00	27850	15	-62.5		268	17	9.6
2025-11-04T12:00	27900	15	-62.5		269	17	9.6
2025-11-04T12:00	27950	15	-62.6		271	16	9.5
2025-11-04T12:00	28000	15	-62.7		274	16	9.4
2025-11-04T12:00	28050	15	-62.5		276	15	9.3
2025-11-04T12:00	28100	15	-62.1		275	15	9.2
2025-11-04T12:00	28150	14	-62.0		270	15	9.1
2025-11-04T12:00	28200	14	-61.4		263	15	9.0
2025-11-04T12:00	28250	14	-61.2		255	16	8.9
2025-11-04T12:00	28300	14	-60.9		251	17	8.8
2025-11-04T12:00	28350	14	-60.8		249	18	8.7
2025-11-04T12:00	28400	14	-61.0		248	18	8.6
2025-11-04T12:00	28450	14	-61.2		249	19	8.6
2025-11-04T12:00	28500	14	-61.2		251	20	8.7
2025-11-04T12:00	28550	14	-61.4		253	20	8.4
2025-11-04T12:00	28600	13	-61.5		255	21	8.3
2025-11-04T12:00	28650	13	-61.7		258	21	8.2
2025-11-04T12:00	28700	13	-61.5		259	21	8.2
2025-11-04T12:00	28750	13	-61.1		262	20	8.2
2025-11-04T12:00	28800	13	-60.5		265	19	8.1
2025-11-04T12:00	28850	13	-60.5		269	18	8.1
2025-11-04T12:00	28900	13	-60.5		271	18	8.1
2025-11-04T12:00	28950	13	-60.5		271	18	7.8
2025-11-04T12:00	29000	13	-60.2		272	19	7.5
2025-11-04T12:00	29050	12	-59.5		274	18	7.5
2025-11-04T12:00	29100	12	-59.1		278	18	7.2
2025-11-04T12:00	29150	12	-59.0		282	17	7.1
2025-11-04T12:00	29200	12	-59.2		286	16	7.1
2025-11-04T12:00	29250	12	-59.3		288	16	6.9
2025-11-04T12:00	29300	12	-59.3		287	16	6.7
2025-11-04T12:00	29350	12	-59.0		285	17	6.7
2025-11-04T12:00	29400	12	-58.8		284	17	6.7
2025-11-04T12:00	29450	12	-58.7		281	16	6.8
2025-11-04T12:00	29500	12	-58.8		276	15	6.6
2025-11-04T12:00	29550	12	-58.8		273	15	6.6
2025-11-04T12:00	29600	11	-58.7		269	15	6.5
2025-11-04T12:00	29650	11	-58.4		268	15	6.4
2025-11-04T12:00	29700	11	-57.8		267	15	6.5
2025-11-04T12:00	29750	11	-57.8		267	16	6.4
2025-11-04T12:00	29800	11	-57.9		268	16	6.4
2025-11-04T12:00	29850	11	-58.0		269	17	6.3
2025-11-04T12:00	29900	11	-58.0		271	17	6.3
2025-11-04T12:00	29950	11	-58.1		272	17	6.2
2025-11-04T12:00	30000	11	-58.3		271	17	6.1
2025-11-04T12:00	30050	11	-58.5		270	17	6.1
2025-11-04T12:00	30100	11	-58.6		268	17	6.1
2025-11-04T12:00	30150	10	-58.6		265	18	6.0
2025-11-04T12:00	30200	10	-58.5		261	18	5.8
2025-11-04T12:00	30250	10	-58.7		258	19	5.9
2025-11-04T12:00	30300	10	-59.0		255	20	5.8
2025-11-04T12:00	30350	10	-59.2		253	20	5.8
2025-11-04T12:00	30400	10	-59.4		251	21	5.7
2025-11-04T12:00	30450	10	-59.6		249	22	5.5
2025-11-04T12:00	30500	10	-59.3		247	24	
2025-11-04T12:00	30550	10	-58.8		247	25	
2025-11-04T12:00	30600	10	-58.6		248	26	
2025-11-04T12:00	30650	10	-58.6		252	27	
2025-11-04T12:00	30700	10	-58.7		256	27	
2025-11-04T12:00	30750	10	-58.9		261	27	
2025-11-04T12:00	30800	9	-58.9		265	27	
2025-11-04T12:00	30850	9	-58.9		269	28	
2025-11-04T12:00	30900	9	-58.8		272	29	
2025-11-04T12:00	30950	9	-58.7		274	29	
2025-11-04T12:00	31000	9	-58.6		276	28	
2025-11-04T12:00	31050	9	-58.3		276	27	
2025-11-04T12:00	31100	9	-58.4		275	25	
2025-11-04T12:00	31150	9	-58.4		273	24	
2025-11-04T12:00	31200	9	-58.4		270	24	
2025-11-04T12:00	31250	9	-58.5		267	24	
2025-11-04T12:00	31300	9	-58.5		265	24	
2025-11-04T12:00	31350	9	-58.2		263	24	
2025-11-04T12:00	31400	9	-58.1		262	25	
2025-11-04T12:00	31450	9	-57.9		261	25	
2025-11-04T12:00	31500	8	-57.6		261	26	
2025-11-04T12:00	31550	8	-57.4		261	28	
2025-11-04T12:00	31600	8	-57.2		262	29	
2025-11-04T12:00	31650	8	-56.8		263	30	
2025-11-04T12:00	31700	8	-56.4		264	29	
2025-11-04T12:00	31750	8	-56.1		265	29	
2025-11-04T12:00	31800	8	-56.0		268	27	
2025-11-04T12:00	31850	8	-56.0		270	27	
2025-11-04T12:00	31900	8	-55.8		271	27	
2025-11-04T12:00	31950	8	-55.5		269	28	
2025-11-04T12:00	32000	8	-55.2		267	30	
2025-11-04T12:00	32050	8	-54.9		268	31	
2025-11-04T12:00	32100	8	-54.9		269	31	
2025-11-04T12:00	32150	8	-54.8		269	31	
2025-11-04T12:00	32200	8	-54.6		268	31	
2025-11-04T12:00	32250	7	-54.6		267	31	
2025-11-04T12:00	32300	7	-54.3		265	31	
2025-11-04T12:00	32350	7	-54.2		264	32	
2025-11-04T12:00	32400	7	-53.6		263	34	
2025-11-04T12:00	32450	7	-52.9		263	36	
2025-11-04T12:00	32500	7	-52.5		263	38	
2025-11-04T12:00	32550	7	-52.4		263	39	
2025-11-04T12:00	32600	7	-52.5		265	40	
2025-11-04T12:00	32650	7	-52.4		266	40	
2025-11-04T12:00	32700	7	-52.1		267	39	
2025-11-04T12:00	32750	7	-52.1		267	37	
2025-11-04T12:00	32800	7	-52.3		267	36	
2025-11-04T12:00	32850	7	-52.6		267	34	
2025-11-04T12:00	32900	7	-52.9		267	32	
2025-11-04T12:00	32950	7	-52.5		268	30	
2025-11-04T12:00	33000	7	-51.6		269	30	
2025-11-04T12:00	33050	7	-51.2		270	31	
2025-11-04T12:00	33100	7	-51.2		269	33	
2025-11-04T12:00	33150	7	-51.3		268	34	
2025-11-04T12:00	33200	6	-51.3		267	35	
2025-11-04T12:00	33250	6	-51.3		266	35	
2025-11-04T12:00	33300	6	-51.7		265	35	
2025-11-04T12:00	33350	6	-52.1		264	36	
2025-11-04T12:00	33400	6	-52.4		264	36	
2025-11-04T12:00	33450	6	-52.7		264	36	
2025-11-04T12:00	33500	6	-53.0		265	37	
2025-11-04T12:00	33550	6	-53.3		266	37	
2025-11-04T12:00	33600	6	-53.6		267	38	
2025-11-04T12:00	33650	6	-53.9		268	38	
2025-11-04T12:00	33700	6	-54.2		268	38	
2025-11-04T12:00	33750	6	-54.2		268	38	
2025-11-04T12:00	33800	6	-54.3		268	37	
2025-11-04T12:00	33850	6	-54.5		267	37	
2025-11-04T12:00	33900	6	-54.6		265	37	
2025-11-04T12:00	33950	6	-54.6		264	37	
2025-11-04T12:00	34000	6	-54.4		263	38	
2025-11-04T12:00	34050	6	-54.2		265	39	
2025-11-04T12:00	34100	6	-54.1		267	40	
2025-11-04T12:00	34150	6	-54.1		269	40	
2025-11-04T12:00	34200	6	-54.2		269	39	
2025-11-04T12:00	34250	5	-54.0		268	39	
2025-11-04T12:00	34300	5	-53.8		267	39	
2025-11-04T12:00	34350	5	-53.3		267	40	
2025-11-04T12:00	34400	5	-52.6		266	42	
2025-11-04T12:00	34450	5	-52.2		266	44	
2025-11-04T12:00	34500	5	-52.1		266	46	
2025-11-04T12:00	34550	5	-52.3		267	46	
2025-11-04T12:00	34600	5	-52.1		268	44	
2025-11-04T12:00	34650	5	-51.7		268	43	
2025-11-04T12:00	34700	5	-51.2		269	43	
2025-11-04T12:00	34750	5	-50.6		270	44	
2025-11-04T12:00	34800	5	-50.3		270	43	
2025-11-04T12:00	34850	5	-50.2		269	42	
2025-11-04T12:00	34900	5	-50.3		268	41	
2025-11-04T12:00	34950	5	-50.3		267	41	
2025-11-04T12:00	35000	5	-50.0		267	41	
2025-11-04T12:00	35050	5	-49.7		268	40	
2025-11-04T12:00	35100	5	-49.4		269	40	
2025-11-04T12:00	35150	5	-49.3		269	41	
2025-11-04T12:00	35200	5	-49.5		270	42	
2025-11-04T12:00	35250	5	-49.7		270	42	
2025-11-04T12:00	35300	5	-50.0		271	43	
2025-11-04T12:00	35350	5	-50.3		273	45	
2025-11-04T12:00	35400	5	-50.0		275	46	
2025-11-04T12:00	35450	5	-49.5		277	47	
2025-11-04T12:00	35500	5	-49.4		279	46	
2025-11-04T12:00	35550	4	-49.4		279	45	
2025-11-04T12:00	35600	4	-48.8		277	43	
2025-11-04T12:00	35650	4	-48.3		275	42	
2025-11-04T12:00	35700	4	-48.2		272	41	
2025-11-04T12:00	35750	4	-47.9		268	40	
2025-11-04T12:00	35800	4	-47.1		266	40	
2025-11-04T12:00	35850	4	-46.5		266	42	
2025-11-04T12:00	35900	4	-46.2		265	43	
2025-11-04T12:00	35950	4	-46.0		266	44	
2025-11-04T12:00	36000	4	-45.8		267	45	
2025-11-04T12:00	36050	4	-45.7		267	46	
2025-11-04T12:00	36100	4	-45.8		268	47	
2025-11-04T12:00	36150	4	-46.0		268	48	
2025-11-04T12:00	36200	4	-46.2		269	48	
2025-11-04T12:00	36250	4	-46.4		271	48	
2025-11-04T12:00	36300	4	-46.5		272	48	
2025-11-04T12:00	36350	4	-46.6		273	47	
2025-11-04T12:00	36400	4	-46.5		274	47	
2025-11-04T12:00	36450	4	-46.5		274	47	
2025-11-04T12:00	36500	4	-46.6		273	47	
2025-11-04T12:00	36550	4	-46.7		272	48	
2025-11-04T12:00	36600	4	-46.7		272	49	
2025-11-04T12:00	36650	4	-46.7		271	49	
2025-11-04T12:00	36700	4	-46.7		270	49	
2025-11-04T12:00	36750	4	-46.5		269	49	
2025-11-04T12:00	36800	4	-46.7		269	49	
2025-11-04T12:00	36850	4	-46.8		269	49	
2025-11-04T12:00	36900	4	-47.0		268	49	
2025-11-04T12:00	36950	4	-47.2		266	48	
2025-11-04T12:00	37000	4	-46.9		266	49	
2025-11-04T12:00	37050	4	-46.4		267	49	
2025-11-04T12:00	37100	4	-46.4		268	50	
2025-11-04T12:00	37150	4	-46.2		269	51	
2025-11-05T00:00	491	966	3.0	2.9	133	1	
2025-11-05T00:00	501	964	4.4	3.9	183	1	
2025-11-05T00:00	520	962	5.0	4.1	193	2	
2025-11-05T00:00	540	960	6.6	3.4	198	3	
2025-11-05T00:00	560	958	7.2	3.7	202	3	
2025-11-05T00:00	580	955	7.1	4.0	208	3	
2025-11-05T00:00	600	953	7.9	4.3	214	3	
2025-11-05T00:00	620	951	8.7	4.2	221	3	
2025-11-05T00:00	640	948	8.5	4.3	227	3	
2025-11-05T00:00	660	946	8.4	4.2	233	3	
2025-11-05T00:00	680	944	8.4	4.2	239	2	
2025-11-05T00:00	700	942	8.5	4.7	244	2	
2025-11-05T00:00	720	939	8.8	5.4	247	2	
2025-11-05T00:00	740	937	8.6	5.4	248	3	
2025-11-05T00:00	760	935	8.5	5.4	248	3	
2025-11-05T00:00	780	933	8.4	5.3	247	3	
2025-11-05T00:00	800	930	8.5	4.9	245	3	
2025-11-05T00:00	820	928	8.6	4.4	243	4	
2025-11-05T00:00	840	925	9.0	0.9	242	4	
2025-11-05T00:00	860	923	9.1	-0.2	241	4	
2025-11-05T00:00	880	921	8.9	0.2	241	5	
2025-11-05T00:00	900	919	8.8	0.6	240	5	
2025-11-05T00:00	920	917	8.7	1.1	240	5	
2025-11-05T00:00	940	915	8.8	0.1	240	6	
2025-11-05T00:00	960	912	8.9	0.0	239	6	
2025-11-05T00:00	980	910	8.9	2.1	238	7	
2025-11-05T00:00	1000	908	8.8	2.4	236	7	
2025-11-05T00:00	1020	906	8.6	2.4	234	8	
2025-11-05T00:00	1040	903	8.5	2.3	232	8	
2025-11-05T00:00	1060	901	8.4	2.0	231	8	
2025-11-05T00:00	1080	899	8.4	1.4	229	8	
2025-11-05T00:00	1100	897	8.4	1.2	229	9	
2025-11-05T00:00	1120	895	8.4	0.9	230	9	
2025-11-05T00:00	1140	893	8.3	0.7	230	9	
2025-11-05T00:00	1160	891	8.2	0.8	232	9	
2025-11-05T00:00	1180	889	8.1	1.0	233	9	
2025-11-05T00:00	1200	886	7.9	1.3	234	9	
2025-11-05T00:00	1220	884	7.9	1.1	233	9	
2025-11-05T00:00	1240	882	8.2	0.1	233	8	
2025-11-05T00:00	1260	880	8.4	-0.6	232	8	
2025-11-05T00:00	1280	878	8.6	-1.4	230	8	
2025-11-05T00:00	1300	876	8.6	-1.7	229	7	
2025-11-05T00:00	1320	874	8.6	-2.2	227	7	
2025-11-05T00:00	1340	871	8.8	-2.6	225	6	
2025-11-05T00:00	1360	869	9.1	-3.1	224	6	
2025-11-05T00:00	1380	867	9.4	-3.5	223	6	
2025-11-05T00:00	1400	865	9.6	-3.4	224	7	
2025-11-05T00:00	1420	863	9.7	-4.0	225	7	
2025-11-05T00:00	1440	861	9.6	-3.8	226	7	
2025-11-05T00:00	1460	859	9.5	-3.6	227	7	
2025-11-05T00:00	1480	857	9.5	-3.9	227	7	
2025-11-05T00:00	1500	855	9.4	-3.8	227	7	
2025-11-05T00:00	1520	853	9.3	-4.0	227	6	
2025-11-05T00:00	1540	851	9.3	-4.5	225	6	
2025-11-05T00:00	1560	849	9.1	-4.7	223	6	
2025-11-05T00:00	1580	847	9.0	-4.8	220	6	
2025-11-05T00:00	1600	844	8.8	-4.9	217	6	
2025-11-05T00:00	1620	842	9.0	-5.5	214	6	
2025-11-05T00:00	1640	840	9.4	-6.1	212	6	
2025-11-05T00:00	1660	838	9.5	-6.2	208	5	
2025-11-05T00:00	1680	836	9.4	-6.4	204	5	
2025-11-05T00:00	1700	835	9.6	-6.7	200	5	
2025-11-05T00:00	1720	832	10.5	-8.4	194	4	
2025-11-05T00:00	1740	830	11.0	-9.5	185	3	
2025-11-05T00:00	1760	828	10.9	-9.7	174	3	
2025-11-05T00:00	1780	826	11.0	-11.0	165	3	
2025-11-05T00:00	1800	825	11.1	-12.2	154	3	
2025-11-05T00:00	1820	823	11.0	-13.2	144	3	
2025-11-05T00:00	1840	820	10.9	-14.4	137	3	
2025-11-05T00:00	1860	818	10.8	-15.8	133	4	
2025-11-05T00:00	1880	816	10.7	-18.3	130	4	
2025-11-05T00:00	1900	814	10.9	-24.4	127	4	
2025-11-05T00:00	1920	812	10.9	-27.6	124	4	
2025-11-05T00:00	1940	811	10.7	-27.4	121	4	
2025-11-05T00:00	1960	809	10.6	-30.8	118	4	
2025-11-05T00:00	1980	807	10.6	-33.9	117	3	
2025-11-05T00:00	2000	805	10.5	-32.5	116	3	
2025-11-05T00:00	2020	803	10.4	-32.5	117	3	
2025-11-05T00:00	2040	801	10.4	-33.4	119	3	
2025-11-05T00:00	2060	799	10.4	-33.5	122	3	
2025-11-05T00:00	2080	797	10.3	-32.0	125	2	
2025-11-05T00:00	2100	795	10.2	-28.4	131	2	
2025-11-05T00:00	2120	793	10.0	-22.6	140	2	
2025-11-05T00:00	2140	791	9.8	-17.8	151	2	
2025-11-05T00:00	2160	789	9.6	-13.4	162	2	
2025-11-05T00:00	2180	787	9.5	-13.4	171	2	
2025-11-05T00:00	2200	785	9.4	-13.6	179	3	
2025-11-05T00:00	2220	784	9.3	-13.8	186	3	
2025-11-05T00:00	2240	782	9.1	-13.9	194	3	
2025-11-05T00:00	2260	780	8.9	-13.9	203	4	
2025-11-05T00:00	2280	778	8.9	-13.8	214	4	
2025-11-05T00:00	2300	776	8.7	-13.9	226	4	
2025-11-05T00:00	2320	774	8.6	-14.3	236	3	
2025-11-05T00:00	2340	772	8.6	-15.1	241	3	
2025-11-05T00:00	2360	771	8.6	-15.7	245	3	
2025-11-05T00:00	2380	769	8.4	-15.9	245	3	
2025-11-05T00:00	2400	767	8.3	-16.6	244	2	
2025-11-05T00:00	2420	765	8.1	-17.2	243	3	
2025-11-05T00:00	2440	763	8.0	-17.7	242	3	
2025-11-05T00:00	2460	761	7.8	-18.2	241	3	
2025-11-05T00:00	2480	759	7.6	-18.6	240	4	
2025-11-05T00:00	2500	757	7.5	-19.1	239	4	
2025-11-05T00:00	2520	756	7.4	-19.6	239	5	
2025-11-05T00:00	2540	754	7.2	-19.8	239	5	
2025-11-05T00:00	2560	752	7.1	-21.3	239	5	
2025-11-05T00:00	2580	750	7.0	-22.5	238	5	
2025-11-05T00:00	2600	748	6.8	-23.3	236	5	
2025-11-05T00:00	2620	747	6.6	-23.4	233	5	
2025-11-05T00:00	2640	745	6.4	-23.6	229	5	
2025-11-05T00:00	2660	743	6.2	-24.0	227	5	
2025-11-05T00:00	2680	741	6.1	-24.1	226	4	
2025-11-05T00:00	2700	739	5.9	-24.3	230	5	
2025-11-05T00:00	2720	738	5.7	-24.6	234	5	
2025-11-05T00:00	2740	736	5.5	-25.0	239	5	
2025-11-05T00:00	2760	734	5.3	-25.5	242	6	
2025-11-05T00:00	2780	732	5.1	-25.5	243	6	
2025-11-05T00:00	2800	730	4.9	-25.9	242	7	
2025-11-05T00:00	2820	728	4.8	-27.0	239	7	
2025-11-05T00:00	2840	727	4.6	-27.7	235	8	
2025-11-05T00:00	2860	725	4.4	-27.8	229	8	
2025-11-05T00:00	2880	723	4.3	-28.5	223	8	
2025-11-05T00:00	2900	721	4.1	-30.9	218	8	
2025-11-05T00:00	2920	720	4.1	-30.4	212	8	
2025-11-05T00:00	2940	718	4.0	-28.9	209	8	
2025-11-05T00:00	2960	716	3.9	-27.3	205	7	
2025-11-05T00:00	2980	714	3.9	-25.9	203	7	
2025-11-05T00:00	3000	713	3.8	-25.1	201	7	
2025-11-05T00:00	3020	711	3.7	-24.0	198	7	
2025-11-05T00:00	3040	709	3.6	-21.3	194	7	
2025-11-05T00:00	3060	707	3.7	-22.7	191	6	
2025-11-05T00:00	3080	705	3.7	-23.6	190	6	
2025-11-05T00:00	3100	704	3.6	-24.6	191	6	
2025-11-05T00:00	3120	702	3.5	-25.2	196	6	
2025-11-05T00:00	3140	700	3.4	-25.6	201	6	
2025-11-05T00:00	3160	699	3.3	-25.8	207	7	
2025-11-05T00:00	3180	697	3.1	-26.1	211	8	
2025-11-05T00:00	3200	695	3.0	-27.2	214	8	
2025-11-05T00:00	3220	693	2.9	-27.9	215	9	
2025-11-05T00:00	3240	691	2.9	-29.3	215	9	
2025-11-05T00:00	3260	690	3.0	-30.5	215	9	
2025-11-05T00:00	3280	688	2.9	-31.4	215	8	
2025-11-05T00:00	3300	687	2.7	-31.7	215	8	
2025-11-05T00:00	3320	685	2.6	-33.1	213	7	
2025-11-05T00:00	3340	683	2.4	-34.4	210	7	
2025-11-05T00:00	3360	681	2.4	-36.9	208	7	
2025-11-05T00:00	3380	680	2.4	-38.0	208	7	
2025-11-05T00:00	3400	678	2.3	-38.2	209	7	
2025-11-05T00:00	3420	676	2.2	-38.2	213	7	
2025-11-05T00:00	3440	675	2.1	-38.8	215	7	
2025-11-05T00:00	3460	673	2.1	-39.4	218	7	
2025-11-05T00:00	3480	671	2.1	-39.7	219	7	
2025-11-05T00:00	3500	670	2.1	-40.2	219	8	
2025-11-05T00:00	3520	668	2.0	-40.6	218	8	
2025-11-05T00:00	3540	667	1.9	-41.0	216	8	
2025-11-05T00:00	3560	665	1.9	-41.6	214	8	
2025-11-05T00:00	3580	663	1.8	-41.6	213	8	
2025-11-05T00:00	3600	662	1.7	-41.5	212	8	
2025-11-05T00:00	3620	660	1.5	-41.5	213	7	
2025-11-05T00:00	3640	658	1.3	-41.6	215	7	
2025-11-05T00:00	3660	657	1.2	-41.3	218	7	
2025-11-05T00:00	3680	655	1.2	-41.4	220	7	
2025-11-05T00:00	3700	653	1.1	-41.5	220	7	
2025-11-05T00:00	3720	652	1.1	-41.6	220	7	
2025-11-05T00:00	3740	650	1.0	-41.5	218	7	
2025-11-05T00:00	3760	648	0.9	-40.9	217	7	
2025-11-05T00:00	3780	647	0.9	-39.5	215	6	
2025-11-05T00:00	3800	645	0.9	-37.2	212	6	
2025-11-05T00:00	3820	644	0.7	-35.8	210	6	
2025-11-05T00:00	3840	642	0.5	-33.0	207	6	
2025-11-05T00:00	3860	640	0.3	-32.3	204	6	
2025-11-05T00:00	3880	639	0.2	-31.6	199	6	
2025-11-05T00:00	3900	637	0.0	-31.3	196	6	
2025-11-05T00:00	3920	636	-0.1	-31.9	193	6	
2025-11-05T00:00	3940	634	-0.3	-31.6	191	7	
2025-11-05T00:00	3960	633	-0.5	-30.5	190	7	
2025-11-05T00:00	3980	631	-0.7	-28.3	191	7	
2025-11-05T00:00	4000	629	-0.9	-28.2	191	7	
2025-11-05T00:00	4020	628	-1.1	-25.9	192	7	
2025-11-05T00:00	4040	626	-1.2	-26.6	194	8	
2025-11-05T00:00	4060	625	-1.4	-22.6	196	8	
2025-11-05T00:00	4080	623	-1.6	-23.7	198	8	
2025-11-05T00:00	4100	621	-1.7	-24.1	200	8	
2025-11-05T00:00	4120	620	-1.8	-24.6	203	8	
2025-11-05T00:00	4140	618	-1.9	-25.5	204	8	
2025-11-05T00:00	4160	617	-2.1	-24.1	204	8	
2025-11-05T00:00	4180	615	-2.2	-23.0	204	8	
2025-11-05T00:00	4200	614	-2.4	-23.1	202	8	
2025-11-05T00:00	4220	612	-2.5	-23.7	199	8	
2025-11-05T00:00	4240	611	-2.6	-24.7	197	8	
2025-11-05T00:00	4260	609	-2.7	-27.2	194	8	
2025-11-05T00:00	4280	607	-2.6	-29.6	190	8	
2025-11-05T00:00	4300	606	-2.6	-30.1	186	8	
2025-11-05T00:00	4320	604	-2.6	-30.7	182	7	
2025-11-05T00:00	4340	603	-2.4	-31.5	178	7	
2025-11-05T00:00	4360	601	-2.3	-32.0	176	7	
2025-11-05T00:00	4380	600	-2.3	-31.6	175	7	
2025-11-05T00:00	4400	598	-2.4	-31.3	174	7	
2025-11-05T00:00	4420	597	-2.4	-31.1	175	8	
2025-11-05T00:00	4440	595	-2.5	-31.4	176	8	
2025-11-05T00:00	4460	594	-2.6	-31.7	176	9	
2025-11-05T00:00	4480	592	-2.7	-32.3	176	9	
2025-11-05T00:00	4500	591	-2.9	-32.2	175	9	
2025-11-05T00:00	4520	589	-3.0	-32.4	175	9	
2025-11-05T00:00	4540	588	-3.2	-32.5	177	8	
2025-11-05T00:00	4560	586	-3.3	-32.8	179	8	
2025-11-05T00:00	4580	585	-3.4	-33.3	182	8	
2025-11-05T00:00	4600	584	-3.5	-33.7	185	8	
2025-11-05T00:00	4620	582	-3.7	-34.0	188	9	
2025-11-05T00:00	4640	581	-3.8	-34.2	189	9	
2025-11-05T00:00	4660	579	-3.9	-34.3	190	10	
2025-11-05T00:00	4680	578	-4.1	-34.6	189	10	
2025-11-05T00:00	4700	576	-4.2	-35.3	188	11	
2025-11-05T00:00	4720	574	-4.3	-35.6	186	11	
2025-11-05T00:00	4740	573	-4.4	-36.1	183	11	
2025-11-05T00:00	4760	572	-4.5	-36.4	180	11	
2025-11-05T00:00	4780	570	-4.7	-36.6	177	11	
2025-11-05T00:00	4800	569	-4.8	-36.8	173	11	
2025-11-05T00:00	4820	567	-4.9	-37.2	170	11	
2025-11-05T00:00	4840	566	-5.0	-37.2	166	11	
2025-11-05T00:00	4860	564	-5.1	-36.8	164	11	
2025-11-05T00:00	4880	563	-5.3	-36.7	163	10	
2025-11-05T00:00	4900	562	-5.5	-36.7	163	10	
2025-11-05T00:00	4920	560	-5.6	-36.7	164	10	
2025-11-05T00:00	4940	559	-5.8	-36.7	165	9	
2025-11-05T00:00	4960	557	-6.0	-36.8	167	9	
2025-11-05T00:00	4980	556	-6.1	-36.9	170	9	
2025-11-05T00:00	5000	555	-6.3	-36.9	172	10	
2025-11-05T00:00	5020	553	-6.5	-36.9	175	10	
2025-11-05T00:00	5040	552	-6.7	-37.0	176	11	
2025-11-05T00:00	5060	550	-6.9	-37.1	176	11	
2025-11-05T00:00	5080	549	-7.1	-37.1	175	11	
2025-11-05T00:00	5100	548	-7.2	-37.1	174	11	
2025-11-05T00:00	5120	546	-7.4	-37.2	173	11	
2025-11-05T00:00	5140	545	-7.6	-37.2	172	10	
2025-11-05T00:00	5160	543	-7.8	-37.3	171	10	
2025-11-05T00:00	5180	542	-8.0	-37.3	172	10	
2025-11-05T00:00	5200	540	-8.2	-37.4	173	10	
2025-11-05T00:00	5220	539	-8.4	-37.4	174	10	
2025-11-05T00:00	5240	538	-8.6	-37.5	175	10	
2025-11-05T00:00	5260	536	-8.8	-37.5	177	9	
2025-11-05T00:00	5280	535	-8.9	-37.4	178	9	
2025-11-05T00:00	5300	533	-9.2	-37.4	179	9	
2025-11-05T00:00	5320	532	-9.3	-37.4	180	9	
2025-11-05T00:00	5340	531	-9.5	-37.4	181	10	
2025-11-05T00:00	5360	529	-9.7	-37.5	181	10	
2025-11-05T00:00	5380	528	-9.8	-37.6	181	10	
2025-11-05T00:00	5400	527	-10.0	-37.7	182	10	
2025-11-05T00:00	5420	525	-10.2	-37.8	183	10	
2025-11-05T00:00	5440	524	-10.4	-37.8	184	10	
2025-11-05T00:00	5460	522	-10.5	-37.8	185	10	
2025-11-05T00:00	5480	521	-10.7	-38.0	185	10	
2025-11-05T00:00	5500	520	-10.8	-38.3	185	10	
2025-11-05T00:00	5520	519	-10.9	-38.8	183	10	
2025-11-05T00:00	5540	517	-10.9	-39.1	181	10	
2025-11-05T00:00	5560	516	-11.1	-39.1	179	9	
2025-11-05T00:00	5580	515	-11.3	-39.2	177	9	
2025-11-05T00:00	5600	513	-11.5	-39.2	177	9	
2025-11-05T00:00	5620	512	-11.7	-39.2	178	9	
2025-11-05T00:00	5640	510	-11.9	-39.2	179	8	
2025-11-05T00:00	5660	509	-12.1	-39.3	180	8	
2025-11-05T00:00	5680	508	-12.3	-39.3	181	8	
2025-11-05T00:00	5700	506	-12.5	-39.3	182	8	
2025-11-05T00:00	5720	505	-12.6	-39.5	183	7	
2025-11-05T00:00	5740	504	-12.7	-40.0	183	7	
2025-11-05T00:00	5760	502	-12.9	-40.6	183	7	
2025-11-05T00:00	5780	501	-12.9	-41.5	184	7	
2025-11-05T00:00	5800	500	-13.1	-42.0	185	7	
2025-11-05T00:00	5820	498	-13.3	-42.7	186	6	
2025-11-05T00:00	5840	497	-13.4	-43.2	187	6	
2025-11-05T00:00	5860	496	-13.6	-43.4	188	7	
2025-11-05T00:00	5880	495	-13.7	-43.7	189	7	
2025-11-05T00:00	5900	493	-13.8	-44.1	189	7	
2025-11-05T00:00	5920	492	-13.9	-44.5	189	7	
2025-11-05T00:00	5940	491	-14.1	-43.9	188	7	
2025-11-05T00:00	5960	489	-14.3	-43.0	187	7	
2025-11-05T00:00	5980	488	-14.4	-42.1	186	7	
2025-11-05T00:00	6000	487	-14.5	-40.7	183	7	
2025-11-05T00:00	6020	486	-14.7	-39.5	181	7	
2025-11-05T00:00	6040	484	-14.9	-39.0	180	6	
2025-11-05T00:00	6060	483	-15.0	-38.8	181	6	
2025-11-05T00:00	6080	482	-15.2	-37.5	182	6	
2025-11-05T00:00	6100	480	-15.4	-33.8	183	6	
2025-11-05T00:00	6120	479	-15.6	-32.5	186	5	
2025-11-05T00:00	6140	478	-15.8	-33.1	189	5	
2025-11-05T00:00	6160	477	-15.9	-32.0	192	5	
2025-11-05T00:00	6180	475	-16.1	-32.3	194	5	
2025-11-05T00:00	6200	474	-16.2	-31.8	195	5	
2025-11-05T00:00	6220	473	-16.4	-31.7	197	5	
2025-11-05T00:00	6240	472	-16.5	-30.9	198	5	
2025-11-05T00:00	6260	470	-16.7	-29.5	199	5	
2025-11-05T00:00	6280	469	-16.8	-29.3	198	5	
2025-11-05T00:00	6300	468	-17.0	-29.2	197	5	
2025-11-05T00:00	6320	467	-17.2	-29.2	196	5	
2025-11-05T00:00	6340	465	-17.4	-29.5	195	5	
2025-11-05T00:00	6360	464	-17.5	-30.4	196	5	
2025-11-05T00:00	6380	463	-17.6	-30.9	196	6	
2025-11-05T00:00	6400	462	-17.8	-29.7	197	5	
2025-11-05T00:00	6420	460	-18.0	-29.7	198	6	
2025-11-05T00:00	6440	459	-18.1	-29.6	198	6	
2025-11-05T00:00	6460	458	-18.3	-29.4	199	6	
2025-11-05T00:00	6480	457	-18.4	-29.1	199	6	
2025-11-05T00:00	6500	455	-18.5	-29.2	200	6	
2025-11-05T00:00	6520	454	-18.6	-29.6	200	6	
2025-11-05T00:00	6540	453	-18.8	-29.8	201	6	
2025-11-05T00:00	6560	452	-18.9	-29.8	202	6	
2025-11-05T00:00	6580	451	-19.1	-29.8	204	6	
2025-11-05T00:00	6600	449	-19.3	-30.0	206	6	
2025-11-05T00:00	6620	448	-19.4	-30.1	208	6	
2025-11-05T00:00	6640	447	-19.6	-30.1	210	6	
2025-11-05T00:00	6660	446	-19.8	-30.2	212	6	
2025-11-05T00:00	6680	445	-20.0	-30.3	215	5	
2025-11-05T00:00	6700	443	-20.2	-30.4	218	5	
2025-11-05T00:00	6720	442	-20.4	-30.5	221	5	
2025-11-05T00:00	6740	441	-20.5	-30.5	223	5	
2025-11-05T00:00	6760	440	-20.7	-30.6	225	4	
2025-11-05T00:00	6780	439	-20.9	-30.8	225	4	
2025-11-05T00:00	6800	437	-21.1	-30.9	225	4	
2025-11-05T00:00	6820	436	-21.3	-31.1	224	4	
2025-11-05T00:00	6840	435	-21.5	-31.2	223	4	
2025-11-05T00:00	6860	434	-21.6	-31.3	222	4	
2025-11-05T00:00	6880	433	-21.8	-31.3	221	4	
2025-11-05T00:00	6900	432	-22.0	-31.6	219	5	
2025-11-05T00:00	6920	430	-22.2	-31.9	217	5	
2025-11-05T00:00	6940	429	-22.4	-31.9	215	5	
2025-11-05T00:00	6960	428	-22.6	-31.9	213	5	
2025-11-05T00:00	6980	427	-22.8	-32.1	212	5	
2025-11-05T00:00	7000	426	-22.9	-32.2	211	5	
2025-11-05T00:00	7020	425	-23.1	-32.2	210	6	
2025-11-05T00:00	7040	423	-23.2	-32.2	210	6	
2025-11-05T00:00	7060	422	-23.4	-32.2	210	6	
2025-11-05T00:00	7080	421	-23.5	-32.3	211	6	
2025-11-05T00:00	7100	420	-23.7	-32.6	212	6	
2025-11-05T00:00	7120	419	-23.9	-32.7	212	6	
2025-11-05T00:00	7140	418	-24.0	-33.0	213	7	
2025-11-05T00:00	7160	416	-24.2	-33.4	213	7	
2025-11-05T00:00	7180	415	-24.3	-33.7	214	7	
2025-11-05T00:00	7200	414	-24.5	-33.8	215	7	
2025-11-05T00:00	7220	413	-24.6	-34.0	217	8	
2025-11-05T00:00	7240	412	-24.8	-33.8	219	8	
2025-11-05T00:00	7260	411	-25.0	-33.6	220	8	
2025-11-05T00:00	7280	410	-25.2	-33.5	221	8	
2025-11-05T00:00	7300	409	-25.3	-33.5	223	8	
2025-11-05T00:00	7320	408	-25.5	-33.8	223	8	
2025-11-05T00:00	7340	406	-25.7	-33.7	223	8	
2025-11-05T00:00	7360	405	-25.8	-33.7	222	8	
2025-11-05T00:00	7380	404	-26.0	-33.8	222	8	
2025-11-05T00:00	7400	403	-26.1	-34.0	221	9	
2025-11-05T00:00	7420	402	-26.3	-34.1	221	9	
2025-11-05T00:00	7440	401	-26.4	-34.1	221	10	
2025-11-05T00:00	7460	400	-26.6	-34.2	222	10	
2025-11-05T00:00	7480	398	-26.8	-34.3	224	10	
2025-11-05T00:00	7500	397	-27.0	-34.3	226	11	
2025-11-05T00:00	7520	396	-27.1	-34.6	227	11	
2025-11-05T00:00	7540	395	-27.2	-35.2	229	11	
2025-11-05T00:00	7560	394	-27.3	-35.9	231	11	
2025-11-05T00:00	7580	393	-27.4	-36.0	231	11	
2025-11-05T00:00	7600	392	-27.6	-36.0	232	11	
2025-11-05T00:00	7620	391	-27.8	-36.1	232	11	
2025-11-05T00:00	7640	390	-28.0	-36.1	232	11	
2025-11-05T00:00	7660	389	-28.1	-35.8	232	11	
2025-11-05T00:00	7680	388	-28.3	-35.7	233	12	
2025-11-05T00:00	7700	386	-28.5	-35.6	233	12	
2025-11-05T00:00	7720	385	-28.6	-36.8	234	12	
2025-11-05T00:00	7740	384	-28.6	-38.2	235	13	
2025-11-05T00:00	7760	383	-28.7	-38.1	236	14	
2025-11-05T00:00	7780	382	-28.8	-38.2	236	15	
2025-11-05T00:00	7800	381	-28.9	-38.6	236	15	
2025-11-05T00:00	7820	380	-29.1	-39.5	236	16	
2025-11-05T00:00	7840	379	-29.2	-39.8	236	16	
2025-11-05T00:00	7860	378	-29.4	-39.7	235	16	
2025-11-05T00:00	7880	377	-29.5	-40.1	235	16	
2025-11-05T00:00	7900	376	-29.6	-40.8	234	15	
2025-11-05T00:00	7920	375	-29.7	-41.6	234	15	
2025-11-05T00:00	7940	374	-29.8	-41.6	234	15	
2025-11-05T00:00	7960	373	-29.8	-40.3	234	14	
2025-11-05T00:00	7980	372	-29.9	-42.7	234	14	
2025-11-05T00:00	8000	371	-30.0	-43.8	234	14	
2025-11-05T00:00	8020	370	-30.2	-44.7	234	13	
2025-11-05T00:00	8040	368	-30.3	-46.7	234	13	
2025-11-05T00:00	8060	367	-30.5	-47.7	233	13	
2025-11-05T00:00	8080	366	-30.6	-48.0	233	13	
2025-11-05T00:00	8100	365	-30.7	-48.3	233	13	
2025-11-05T00:00	8120	364	-30.9	-48.6	233	12	
2025-11-05T00:00	8140	363	-31.0	-49.3	232	12	
2025-11-05T00:00	8160	362	-31.2	-49.3	232	12	
2025-11-05T00:00	8180	361	-31.3	-49.1	232	12	
2025-11-05T00:00	8200	360	-31.5	-48.9	233	12	
2025-11-05T00:00	8220	359	-31.7	-48.7	233	12	
2025-11-05T00:00	8240	358	-31.8	-47.8	234	12	
2025-11-05T00:00	8260	357	-32.0	-47.3	235	11	
2025-11-05T00:00	8280	356	-32.1	-47.2	237	11	
2025-11-05T00:00	8300	355	-32.3	-47.1	239	11	
2025-11-05T00:00	8320	354	-32.5	-46.4	240	10	
2025-11-05T00:00	8340	353	-32.7	-46.2	241	10	
2025-11-05T00:00	8360	352	-32.8	-45.6	241	10	
2025-11-05T00:00	8380	351	-33.0	-45.1	241	10	
2025-11-05T00:00	8400	350	-33.2	-45.2	241	10	
2025-11-05T00:00	8420	349	-33.4	-45.3	241	10	
2025-11-05T00:00	8440	348	-33.6	-45.0	242	10	
2025-11-05T00:00	8460	347	-33.8	-44.4	242	9	
2025-11-05T00:00	8480	346	-34.0	-44.4	243	9	
2025-11-05T00:00	8500	345	-34.2	-44.4	243	9	
2025-11-05T00:00	8520	344	-34.3	-43.9	243	9	
2025-11-05T00:00	8540	343	-34.5	-44.0	242	9	
2025-11-05T00:00	8560	342	-34.7	-43.9	241	8	
2025-11-05T00:00	8580	341	-34.9	-43.6	240	8	
2025-11-05T00:00	8600	340	-35.1	-43.6	239	8	
2025-11-05T00:00	8620	339	-35.2	-43.4	238	8	
2025-11-05T00:00	8640	338	-35.4	-43.5	237	8	
2025-11-05T00:00	8660	337	-35.5	-43.7	235	8	
2025-11-05T00:00	8680	336	-35.7	-44.0	234	8	
2025-11-05T00:00	8700	335	-35.9	-44.1	232	8	
2025-11-05T00:00	8720	335	-36.0	-44.1	231	8	
2025-11-05T00:00	8740	334	-36.2	-44.3	230	8	
2025-11-05T00:00	8760	333	-36.4	-44.9	229	8	
2025-11-05T00:00	8780	332	-36.6	-45.7	229	8	
2025-11-05T00:00	8800	331	-36.7	-45.6	229	8	
2025-11-05T00:00	8820	330	-36.9	-45.7	230	8	
2025-11-05T00:00	8840	329	-37.1	-45.5	230	8	
2025-11-05T00:00	8860	328	-37.2	-45.4	230	8	
2025-11-05T00:00	8880	327	-37.4	-45.4	231	8	
2025-11-05T00:00	8900	326	-37.6	-45.5	231	7	
2025-11-05T00:00	8920	325	-37.8	-45.5	232	7	
2025-11-05T00:00	8940	324	-38.0	-45.5	234	8	
2025-11-05T00:00	8960	323	-38.2	-45.5	235	8	
2025-11-05T00:00	8980	322	-38.4	-45.4	237	8	
2025-11-05T00:00	9000	321	-38.6	-45.4	238	8	
2025-11-05T00:00	9020	320	-38.7	-45.6	240	8	
2025-11-05T00:00	9040	319	-38.9	-46.0	241	8	
2025-11-05T00:00	9060	318	-39.0	-46.4	241	8	
2025-11-05T00:00	9080	317	-39.2	-46.5	242	8	
2025-11-05T00:00	9100	317	-39.4	-46.5	242	8	
2025-11-05T00:00	9120	316	-39.6	-46.6	242	8	
2025-11-05T00:00	9140	315	-39.8	-46.5	242	8	
2025-11-05T00:00	9160	314	-40.0	-46.5	242	8	
2025-11-05T00:00	9180	313	-40.2	-46.6	243	8	
2025-11-05T00:00	9200	312	-40.4	-46.8	243	8	
2025-11-05T00:00	9220	311	-40.6	-46.7	243	8	
2025-11-05T00:00	9240	310	-40.8	-46.6	242	8	
2025-11-05T00:00	9260	309	-41.0	-46.7	241	8	
2025-11-05T00:00	9280	308	-41.2	-46.7	240	8	
2025-11-05T00:00	9300	307	-41.4	-46.8	240	8	
2025-11-05T00:00	9320	307	-41.6	-46.9	239	8	
2025-11-05T00:00	9340	306	-41.8	-46.9	239	8	
2025-11-05T00:00	9360	305	-42.0	-46.9	239	8	
2025-11-05T00:00	9380	304	-42.2	-46.9	238	8	
2025-11-05T00:00	9400	303	-42.4	-47.0	237	8	
2025-11-05T00:00	9420	302	-42.6	-47.0	236	8	
2025-11-05T00:00	9440	301	-42.7	-47.1	233	8	
2025-11-05T00:00	9460	300	-42.9	-47.4	230	8	
2025-11-05T00:00	9480	299	-43.0	-48.2	227	8	
2025-11-05T00:00	9500	298	-43.1	-49.2	224	8	
2025-11-05T00:00	9520	298	-43.1	-49.8	222	8	
2025-11-05T00:00	9540	297	-43.2	-50.0	221	8	
2025-11-05T00:00	9560	296	-43.3	-50.3	220	8	
2025-11-05T00:00	9580	295	-43.4	-50.7	219	8	
2025-11-05T00:00	9600	294	-43.5	-51.4	220	9	
2025-11-05T00:00	9620	293	-43.5	-51.9	220	9	
2025-11-05T00:00	9640	292	-43.7	-51.8	221	9	
2025-11-05T00:00	9660	291	-43.9	-51.6	223	10	
2025-11-05T00:00	9680	290	-44.0	-51.4	224	10	
2025-11-05T00:00	9700	290	-44.2	-51.3	225	10	
2025-11-05T00:00	9720	289	-44.4	-51.3	225	11	
2025-11-05T00:00	9740	288	-44.6	-51.5	225	11	
2025-11-05T00:00	9760	287	-44.7	-51.8	225	11	
2025-11-05T00:00	9780	286	-44.8	-52.1	224	11	
2025-11-05T00:00	9800	285	-45.0	-52.1	224	11	
2025-11-05T00:00	9820	285	-45.2	-52.0	224	10	
2025-11-05T00:00	9840	284	-45.3	-52.1	225	10	
2025-11-05T00:00	9860	283	-45.5	-52.3	226	10	
2025-11-05T00:00	9880	282	-45.6	-52.6	229	9	
2025-11-05T00:00	9900	281	-45.8	-52.9	231	9	
2025-11-05T00:00	9920	280	-45.9	-53.1	234	9	
2025-11-05T00:00	9940	280	-46.0	-53.2	236	9	
2025-11-05T00:00	9960	279	-46.2	-53.6	239	9	
2025-11-05T00:00	9980	278	-46.2	-53.9	243	9	
2025-11-05T00:00	10000	277	-46.3	-54.3	245	9	
2025-11-05T00:00	10018	276	-46.4	-54.6	249	9	
2025-11-05T00:00	10050	275	-46.5	-55.5	255	8	
2025-11-05T00:00	10100	273	-46.7	-56.6	264	8	
2025-11-05T00:00	10150	271	-46.7	-57.8	268	7	
2025-11-05T00:00	10200	269	-47.1	-57.8	268	6	
2025-11-05T00:00	10250	267	-47.5	-58.2	265	5	
2025-11-05T00:00	10300	265	-47.9	-58.4	262	5	
2025-11-05T00:00	10350	263	-48.2	-58.9	261	5	
2025-11-05T00:00	10400	261	-48.4	-59.3	262	6	
2025-11-05T00:00	10450	259	-48.7	-59.1	262	6	
2025-11-05T00:00	10500	257	-48.9	-58.9	262	7	
2025-11-05T00:00	10550	255	-49.3	-58.9	263	7	
2025-11-05T00:00	10600	253	-49.6	-59.5	265	7	
2025-11-05T00:00	10650	251	-49.9	-59.7	268	8	
2025-11-05T00:00	10700	249	-50.3	-59.6	269	8	
2025-11-05T00:00	10750	247	-50.7	-59.7	269	9	
2025-11-05T00:00	10800	245	-51.1	-60.0	266	9	
2025-11-05T00:00	10850	243	-51.5	-60.4	264	9	
2025-11-05T00:00	10900	241	-51.8	-60.5	262	9	
2025-11-05T00:00	10950	240	-52.2	-59.7	262	8	
2025-11-05T00:00	11000	238	-52.7	-59.4	263	8	
2025-11-05T00:00	11050	236	-53.1	-59.9	264	9	
2025-11-05T00:00	11100	234	-53.3	-61.1	263	9	
2025-11-05T00:00	11150	232	-53.6	-61.1	260	9	
2025-11-05T00:00	11200	231	-53.9	-60.1	256	9	
2025-11-05T00:00	11250	229	-54.3	-60.4	254	9	
2025-11-05T00:00	11300	227	-54.7	-61.0	253	9	
2025-11-05T00:00	11350	225	-54.9	-61.5	250	9	
2025-11-05T00:00	11400	223	-55.3	-61.8	248	9	
2025-11-05T00:00	11450	222	-55.7	-61.6	245	10	
2025-11-05T00:00	11500	220	-56.1	-62.3	243	11	
2025-11-05T00:00	11550	218	-56.4	-62.9	243	12	
2025-11-05T00:00	11600	217	-56.6	-63.7	245	13	
2025-11-05T00:00	11650	215	-56.9	-64.2	247	14	
2025-11-05T00:00	11700	213	-57.1	-64.0	250	14	
2025-11-05T00:00	11750	211	-57.4	-64.0	252	14	
2025-11-05T00:00	11800	210	-57.8	-64.2	253	14	
2025-11-05T00:00	11850	208	-58.0	-64.9	254	15	
2025-11-05T00:00	11900	206	-58.0	-65.9	254	15	
2025-11-05T00:00	11950	205	-58.1	-66.6	254	16	
2025-11-05T00:00	12000	203	-58.2	-67.3	256	16	
2025-11-05T00:00	12050	202	-58.3	-67.8	258	16	
2025-11-05T00:00	12100	200	-58.7	-67.9	260	16	
2025-11-05T00:00	12150	198	-59.1	-68.0	261	16	
2025-11-05T00:00	12200	197	-59.4	-68.2	262	17	
2025-11-05T00:00	12250	195	-59.7	-69.0	263	18	
2025-11-05T00:00	12300	194	-59.6	-70.6	264	18	
2025-11-05T00:00	12350	192	-59.6	-71.8	264	19	
2025-11-05T00:00	12400	191	-59.9	-71.7	265	18	
2025-11-05T00:00	12450	189	-60.4	-71.3	266	17	
2025-11-05T00:00	12500	188	-60.8	-70.8	267	17	
2025-11-05T00:00	12550	186	-61.2	-70.5	267	16	
2025-11-05T00:00	12600	185	-61.4	-70.7	265	15	
2025-11-05T00:00	12650	183	-61.6	-71.3	263	15	
2025-11-05T00:00	12700	182	-61.8	-71.8	261	16	
2025-11-05T00:00	12750	180	-62.1	-72.4	259	16	
2025-11-05T00:00	12800	179	-62.3	-73.2	259	16	
2025-11-05T00:00	12850	177	-62.2	-74.3	259	17	
2025-11-05T00:00	12900	176	-61.7	-75.3	258	17	
2025-11-05T00:00	12950	174	-61.4	-76.0	257	17	
2025-11-05T00:00	13000	173	-61.4	-76.4	258	17	
2025-11-05T00:00	13050	172	-61.2	-76.7	260	17	
2025-11-05T00:00	13100	170	-60.7	-77.6	261	18	
2025-11-05T00:00	13150	169	-60.6	-78.5	262	18	
2025-11-05T00:00	13200	168	-60.6	-78.4	262	18	
2025-11-05T00:00	13250	166	-60.7	-78.0	263	19	
2025-11-05T00:00	13300	165	-61.0	-78.0	265	19	
2025-11-05T00:00	13350	164	-61.0	-78.3	268	19	
2025-11-05T00:00	13400	162	-60.7	-78.8	270	20	
2025-11-05T00:00	13450	161	-60.7	-79.1	269	20	
2025-11-05T00:00	13500	160	-60.9	-79.4	267	20	
2025-11-05T00:00	13550	158	-61.2	-79.6	265	20	
2025-11-05T00:00	13600	157	-61.5	-79.7	265	20	
2025-11-05T00:00	13650	156	-61.7	-79.9	265	19	
2025-11-05T00:00	13700	155	-61.6	-80.3	266	18	
2025-11-05T00:00	13750	153	-61.6	-80.7	265	17	
2025-11-05T00:00	13800	152	-61.5	-80.8	264	16	
2025-11-05T00:00	13850	151	-61.3	-81.1	265	15	
2025-11-05T00:00	13900	150	-61.0	-81.2	266	15	
2025-11-05T00:00	13950	149	-61.3	-81.5	268	15	
2025-11-05T00:00	14000	147	-61.5	-81.6	268	14	
2025-11-05T00:00	14050	146	-61.7	-81.7	268	14	
2025-11-05T00:00	14100	145	-61.8	-81.9	266	14	
2025-11-05T00:00	14150	144	-61.8	-82.0	265	13	
2025-11-05T00:00	14200	143	-62.1	-82.2	262	12	
2025-11-05T00:00	14250	141	-62.1	-82.4	257	11	
2025-11-05T00:00	14300	140	-61.8	-82.6	250	11	
2025-11-05T00:00	14350	139	-61.9	-82.8	246	12	
2025-11-05T00:00	14400	138	-62.1	-82.9	245	12	
2025-11-05T00:00	14450	137	-62.3	-83.0	246	12	
2025-11-05T00:00	14500	136	-62.5	-83.0	248	13	
2025-11-05T00:00	14550	135	-62.8	-83.1	251	13	
2025-11-05T00:00	14600	134	-63.1	-83.1	253	13	
2025-11-05T00:00	14650	133	-63.5	-83.3	257	13	
2025-11-05T00:00	14700	131	-63.7	-83.4	263	14	
2025-11-05T00:00	14750	130	-63.7	-83.5	267	13	
2025-11-05T00:00	14800	129	-63.6	-83.5	270	13	
2025-11-05T00:00	14850	128	-63.8	-83.5	270	12	
2025-11-05T00:00	14900	127	-64.1	-83.6	267	12	
2025-11-05T00:00	14950	126	-64.5	-83.6	264	12	
2025-11-05T00:00	15000	125	-64.9	-83.6	264	12	
2025-11-05T00:00	15050	124	-65.3	-83.7	265	11	
2025-11-05T00:00	15100	123	-65.7	-83.7	265	11	
2025-11-05T00:00	15150	122	-66.1	-83.8	266	10	
2025-11-05T00:00	15200	121	-66.4	-83.9	265	9	
2025-11-05T00:00	15250	120	-66.4	-83.9	259	8	
2025-11-05T00:00	15300	119	-66.3	-83.9	251	8	
2025-11-05T00:00	15350	118	-66.5	-84.0	246	8	
2025-11-05T00:00	15400	117	-66.8	-84.1	245	9	
2025-11-05T00:00	15450	116	-67.0	-84.1	245	9	
2025-11-05T00:00	15500	115	-67.1	-84.1	244	9	
2025-11-05T00:00	15550	114	-67.4	-84.2	244	10	
2025-11-05T00:00	15600	113	-67.6	-84.3	245	11	
2025-11-05T00:00	15650	112	-67.9	-84.4	248	12	
2025-11-05T00:00	15700	112	-68.2	-84.6	252	12	
2025-11-05T00:00	15750	111	-68.5	-84.7	257	13	
2025-11-05T00:00	15800	110	-68.7	-84.8	262	13	
2025-11-05T00:00	15850	109	-68.7	-85.0	267	13	
2025-11-05T00:00	15900	108	-68.5	-85.1	272	12	
2025-11-05T00:00	15950	107	-68.0	-85.0	275	12	
2025-11-05T00:00	16000	106	-67.8	-85.1	279	11	
2025-11-05T00:00	16050	105	-67.9	-85.3	283	11	
2025-11-05T00:00	16100	104	-67.6	-85.2	285	10	
2025-11-05T00:00	16150	103	-67.2	-85.1	286	9	
2025-11-05T00:00	16200	103	-67.3	-85.1	287	9	
2025-11-05T00:00	16250	102	-67.1	-85.0	287	10	
2025-11-05T00:00	16300	101	-67.4	-85.2	287	9	
2025-11-05T00:00	16350	100	-67.3	-85.0	288	9	
2025-11-05T00:00	16400	99	-67.4	-85.0	286	9	
2025-11-05T00:00	16450	98	-67.6	-85.2	282	9	
2025-11-05T00:00	16500	98	-67.7	-85.3	276	9	
2025-11-05T00:00	16550	97	-67.5	-85.4	271	9	
2025-11-05T00:00	16600	96	-67.1	-85.4	267	9	
2025-11-05T00:00	16650	95	-67.3	-85.6	264	8	
2025-11-05T00:00	16700	94	-67.4	-85.6	262	8	
2025-11-05T00:00	16750	94	-67.4	-85.6	260	8	
2025-11-05T00:00	16800	93	-67.7	-85.6	255	9	
2025-11-05T00:00	16850	92	-68.1	-85.7	251	9	
2025-11-05T00:00	16900	91	-68.3	-85.8	251	10	
2025-11-05T00:00	16950	91	-68.6	-85.8	253	10	
2025-11-05T00:00	17000	90	-68.9	-85.9	255	11	
2025-11-05T00:00	17050	89	-69.1	-85.9	258	11	
2025-11-05T00:00	17100	88	-69.2	-85.9	261	11	
2025-11-05T00:00	17150	88	-69.5	-86.1	266	11	
2025-11-05T00:00	17200	87	-69.5	-86.2	272	10	
2025-11-05T00:00	17250	86	-69.3	-86.3	278	9	
2025-11-05T00:00	17300	85	-68.8	-86.3	280	9	
2025-11-05T00:00	17350	85	-68.1	-86.3	280	9	
2025-11-05T00:00	17400	84	-67.5	-86.4	281	8	
2025-11-05T00:00	17450	83	-67.0	-86.4	284	8	
2025-11-05T00:00	17500	83	-67.0	-86.5	287	8	
2025-11-05T00:00	17550	82	-67.1	-86.5	288	8	
2025-11-05T00:00	17600	81	-67.0	-86.4	291	8	
2025-11-05T00:00	17650	81	-67.1	-86.5	297	7	
2025-11-05T00:00	17700	80	-66.9	-86.4	302	7	
2025-11-05T00:00	17750	79	-66.9	-86.5	299	6	
2025-11-05T00:00	17800	79	-66.9	-86.5	292	4	
2025-11-05T00:00	17850	78	-67.1	-86.6	280	3	
2025-11-05T00:00	17900	77	-67.4	-86.8	268	3	
2025-11-05T00:00	17950	77	-67.6	-87.1	263	3	
2025-11-05T00:00	18000	76	-67.4	-87.1	265	3	
2025-11-05T00:00	18050	75	-67.6	-87.4	264	4	
2025-11-05T00:00	18100	75	-67.3	-87.4	257	4	
2025-11-05T00:00	18150	74	-67.1	-87.3	254	5	
2025-11-05T00:00	18200	74	-67.3	-87.4	255	5	
2025-11-05T00:00	18250	73	-67.3	-87.5	252	5	
2025-11-05T00:00	18300	72	-67.0	-87.4	245	5	
2025-11-05T00:00	18350	72	-67.1	-87.5	240	5	
2025-11-05T00:00	18400	71	-67.1	-87.5	244	5	
2025-11-05T00:00	18450	71	-67.2	-87.5	253	5	
2025-11-05T00:00	18500	70	-67.3	-87.7	257	4	
2025-11-05T00:00	18550	69	-67.2	-87.6	246	4	
2025-11-05T00:00	18600	69	-67.1	-87.6	227	4	
2025-11-05T00:00	18650	68	-67.2	-87.7	225	5	
2025-11-05T00:00	18700	68	-67.1	-87.7	237	6	
2025-11-05T00:00	18750	67	-67.0	-87.7	249	7	
2025-11-05T00:00	18800	67	-66.9	-87.7	255	8	
2025-11-05T00:00	18850	66	-66.9	-87.7	259	9	
2025-11-05T00:00	18900	66	-67.1	-87.8	263	10	
2025-11-05T00:00	18950	65	-67.0	-87.7	267	11	
2025-11-05T00:00	19000	64	-67.1	-87.9	270	11	
2025-11-05T00:00	19050	64	-67.0	-87.8	274	10	
2025-11-05T00:00	19100	63	-67.0	-87.9	276	9	
2025-11-05T00:00	19150	63	-66.9	-88.0	272	8	
2025-11-05T00:00	19200	62	-66.7	-87.9	269	9	
2025-11-05T00:00	19250	62	-66.8	-88.0	269	9	
2025-11-05T00:00	19300	61	-66.9	-88.1	272	10	
2025-11-05T00:00	19350	61	-66.6	-87.9	277	11	
2025-11-05T00:00	19400	60	-66.8	-88.1	285	11	
2025-11-05T00:00	19450	60	-66.7	-88.1	291	10	
2025-11-05T00:00	19500	59	-66.6	-88.1	292	8	
2025-11-05T00:00	19550	59	-66.1	-87.9	288	7	
2025-11-05T00:00	19600	58	-65.8	-87.9	287	7	
2025-11-05T00:00	19650	58	-65.6	-87.9	295	7	
2025-11-05T00:00	19700	57	-65.6	-87.9	304	7	
2025-11-05T00:00	19750	57	-65.4	-87.9	310	6	
2025-11-05T00:00	19800	56	-65.5	-88.0	304	5	
2025-11-05T00:00	19850	56	-65.3	-88.0	284	4	
2025-11-05T00:00	19900	56	-65.0	-87.9	266	5	
2025-11-05T00:00	19950	55	-64.8	-87.9	257	5	
2025-11-05T00:00	20000	55	-64.6	-87.7	252	6	
2025-11-05T00:00	20050	54	-65.0		249	6	
2025-11-05T00:00	20100	54	-65.3		251	7	
2025-11-05T00:00	20150	53	-65.5		257	7	
2025-11-05T00:00	20200	53	-65.1		265	7	
2025-11-05T00:00	20250	52	-65.1		272	8	
2025-11-05T00:00	20300	52	-65.2		275	8	
2025-11-05T00:00	20350	52	-65.4		277	8	
2025-11-05T00:00	20400	51	-65.6		278	7	
2025-11-05T00:00	20450	51	-65.7		277	6	
2025-11-05T00:00	20500	50	-65.8		274	6	
2025-11-05T00:00	20550	50	-66.1		271	6	
2025-11-05T00:00	20600	50	-66.3		272	7	
2025-11-05T00:00	20650	49	-66.1		279	7	
2025-11-05T00:00	20700	49	-65.8		290	6	
2025-11-05T00:00	20750	48	-65.3		298	6	
2025-11-05T00:00	20800	48	-64.8		297	5	
2025-11-05T00:00	20850	48	-64.7		289	4	
2025-11-05T00:00	20900	47	-64.9		277	4	
2025-11-05T00:00	20950	47	-65.1		274	4	
2025-11-05T00:00	21000	46	-65.4		281	5	
2025-11-05T00:00	21050	46	-65.3		285	6	
2025-11-05T00:00	21100	46	-65.4		282	7	
2025-11-05T00:00	21150	45	-65.2		279	8	
2025-11-05T00:00	21200	45	-65.1		280	8	
2025-11-05T00:00	21250	44	-65.2		282	7	
2025-11-05T00:00	21300	44	-65.6		282	7	
2025-11-05T00:00	21350	44	-65.8		282	6	
2025-11-05T00:00	21400	43	-65.9		281	6	
2025-11-05T00:00	21450	43	-66.1		281	6	
2025-11-05T00:00	21500	43	-66.2		281	7	
2025-11-05T00:00	21550	42	-66.2		279	8	
2025-11-05T00:00	21600	42	-66.0		276	9	
2025-11-05T00:00	21650	42	-66.1		276	9	
2025-11-05T00:00	21700	41	-66.2		281	9	
2025-11-05T00:00	21750	41	-66.3		288	9	
2025-11-05T00:00	21800	41	-66.2		292	8	
2025-11-05T00:00	21850	40	-65.7		292	6	
2025-11-05T00:00	21900	40	-65.3		288	5	
2025-11-05T00:00	21950	40	-65.0		287	4	
2025-11-05T00:00	22000	39	-65.1		284	4	
2025-11-05T00:00	22050	39	-65.3		272	4	
2025-11-05T00:00	22100	39	-65.4		260	5	
2025-11-05T00:00	22150	38	-65.5		258	6	
2025-11-05T00:00	22200	38	-65.6		259	8	
2025-11-05T00:00	22250	38	-65.6		261	10	
2025-11-05T00:00	22300	37	-65.7		263	11	
2025-11-05T00:00	22350	37	-65.7		266	12	
2025-11-05T00:00	22400	37	-65.4		270	12	
2025-11-05T00:00	22450	37	-65.2		274	12	
2025-11-05T00:00	22500	36	-65.1		277	11	
2025-11-05T00:00	22550	36	-64.7		281	11	
2025-11-05T00:00	22600	36	-64.7		285	10	
2025-11-05T00:00	22650	35	-64.4		288	9	
2025-11-05T00:00	22700	35	-64.0		289	8	
2025-11-05T00:00	22750	35	-64.0		288	7	
2025-11-05T00:00	22800	34	-63.9		281	6	
2025-11-05T00:00	22850	34	-63.7		270	6	
2025-11-05T00:00	22900	34	-63.7		263	7	
2025-11-05T00:00	22950	34	-63.5		263	7	
2025-11-05T00:00	23000	33	-63.3		269	7	
2025-11-05T00:00	23050	33	-63.3		274	7	
2025-11-05T00:00	23100	33	-63.5		275	6	
2025-11-05T00:00	23150	33	-63.5		269	6	
2025-11-05T00:00	23200	32	-63.6		259	5	
2025-11-05T00:00	23250	32	-63.8		248	5	
2025-11-05T00:00	23300	32	-64.1		237	5	
2025-11-05T00:00	23350	32	-64.3		231	6	
2025-11-05T00:00	23400	31	-64.3		230	6	
2025-11-05T00:00	23450	31	-63.8		231	6	
2025-11-05T00:00	23500	31	-64.0		234	6	
2025-11-05T00:00	23550	31	-64.2		240	6	
2025-11-05T00:00	23600	30	-64.4		246	6	
2025-11-05T00:00	23650	30	-64.5		250	7	
2025-11-05T00:00	23700	30	-64.5		251	7	
2025-11-05T00:00	23750	30	-64.7		252	8	
2025-11-05T00:00	23800	29	-64.8		255	9	
2025-11-05T00:00	23850	29	-65.0		261	10	
2025-11-05T00:00	23900	29	-65.2		269	11	
2025-11-05T00:00	23950	29	-65.0		276	12	
2025-11-05T00:00	24000	28	-64.8		281	14	
2025-11-05T00:00	24050	28	-64.5		285	14	
2025-11-05T00:00	24100	28	-64.5		287	14	
2025-11-05T00:00	24150	28	-64.3		290	13	
2025-11-05T00:00	24200	27	-64.6		292	11	
2025-11-05T00:00	24250	27	-64.3		294	10	
2025-11-05T00:00	24300	27	-63.8		295	9	
2025-11-05T00:00	24350	27	-63.4		296	8	
2025-11-05T00:00	24400	27	-63.3		299	7	
2025-11-05T00:00	24450	26	-63.2		302	6	
2025-11-05T00:00	24500	26	-63.4		301	5	
2025-11-05T00:00	24550	26	-63.2		294	5	
2025-11-05T00:00	24600	26	-63.2		290	4	
2025-11-05T00:00	24650	25	-62.9		297	3	
2025-11-05T00:00	24700	25	-62.9		305	2	
2025-11-05T00:00	24750	25	-62.6		287	2	
2025-11-05T00:00	24800	25	-62.4		257	2	
2025-11-05T00:00	24850	25	-62.7		241	4	
2025-11-05T00:00	24900	24	-63.0		233	5	
2025-11-05T00:00	24950	24	-62.9		228	7	
2025-11-05T00:00	25000	24	-62.3		225	8	
2025-11-05T00:00	25050	24	-62.0		224	9	
2025-11-05T00:00	25100	24	-62.1		224	11	
2025-11-05T00:00	25150	23	-62.4		224	12	
2025-11-05T00:00	25200	23	-62.7		227	13	
2025-11-05T00:00	25250	23	-62.9		231	14	
2025-11-05T00:00	25300	23	-62.9		236	14	
2025-11-05T00:00	25350	23	-63.0		240	13	
2025-11-05T00:00	25400	23	-63.2		245	12	
2025-11-05T00:00	25450	22	-63.4		249	12	
2025-11-05T00:00	25500	22	-63.3		253	12	
2025-11-05T00:00	25550	22	-63.5		255	12	
2025-11-05T00:00	25600	22	-63.3		255	12	
2025-11-05T00:00	25650	22	-63.4		255	13	
2025-11-05T00:00	25700	21	-63.6		258	13	
2025-11-05T00:00	25750	21	-63.7		263	14	
2025-11-05T00:00	25800	21	-63.5		266	15	
2025-11-05T00:00	25850	21	-63.4		269	15	
2025-11-05T00:00	25900	21	-63.5		271	15	
2025-11-05T00:00	25950	21	-63.2		275	15	
2025-11-05T00:00	26000	20	-63.3		281	14	
2025-11-05T00:00	26050	20	-63.1		286	14	
2025-11-05T00:00	26100	20	-62.9		290	14	
2025-11-05T00:00	26150	20	-63.0		292	14	
2025-11-05T00:00	26200	20	-63.3		294	14	
2025-11-05T00:00	26250	20	-63.3		296	14	
2025-11-05T00:00	26300	19	-63.0		297	13	
2025-11-05T00:00	26350	19	-63.0		298	13	
2025-11-05T00:00	26400	19	-63.3		299	12	
2025-11-05T00:00	26450	19	-63.5		297	12	
2025-11-05T00:00	26500	19	-63.6		293	11	
2025-11-05T00:00	26550	19	-63.5		288	10	
2025-11-05T00:00	26600	19	-63.4		283	10	
2025-11-05T00:00	26650	18	-63.6		279	9	
2025-11-05T00:00	26700	18	-63.6		274	10	
2025-11-05T00:00	26750	18	-63.6		270	11	
2025-11-05T00:00	26800	18	-63.2		267	12	
2025-11-05T00:00	26850	18	-62.4		265	13	
2025-11-05T00:00	26900	18	-61.8		266	14	
2025-11-05T00:00	26950	18	-61.3		268	16	
2025-11-05T00:00	27000	17	-61.3		269	17	
2025-11-05T00:00	27050	17	-61.1		269	18	
2025-11-05T00:00	27100	17	-60.8		269	18	
2025-11-05T00:00	27150	17	-60.7		272	18	
2025-11-05T00:00	27200	17	-60.5		275	18	
2025-11-05T00:00	27250	17	-60.6		277	18	
2025-11-05T00:00	27300	17	-60.5		277	18	
2025-11-05T00:00	27350	16	-60.3		278	18	
2025-11-05T00:00	27400	16	-60.0		281	18	
2025-11-05T00:00	27450	16	-60.0		285	17	
2025-11-05T00:00	27500	16	-60.2		288	17	
2025-11-05T00:00	27550	16	-60.5		289	16	
2025-11-05T00:00	27600	16	-60.8		288	15	
2025-11-05T00:00	27650	16	-60.8		288	14	
2025-11-05T00:00	27700	16	-61.0		288	13	
2025-11-05T00:00	27750	15	-61.3		285	13	
2025-11-05T00:00	27800	15	-61.3		281	13	
2025-11-05T00:00	27850	15	-61.0		277	13	
2025-11-05T00:00	27900	15	-60.8		274	13	
2025-11-05T00:00	27950	15	-60.9		270	12	
2025-11-05T00:00	28000	15	-60.7		267	12	
2025-11-05T00:00	28050	15	-60.3		263	12	
2025-11-05T00:00	28100	15	-60.0		261	12	
2025-11-05T00:00	28150	14	-60.1		260	13	
2025-11-05T00:00	28200	14	-60.1		260	14	
2025-11-05T00:00	28250	14	-60.3		260	14	
2025-11-05T00:00	28300	14	-60.5		259	15	
2025-11-05T00:00	28350	14	-60.7		258	15	
2025-11-05T00:00	28400	14	-61.0		256	16	
2025-11-05T00:00	28450	14	-61.3		254	17	
2025-11-05T00:00	28500	14	-61.5		250	17	
2025-11-05T00:00	28550	14	-61.3		247	18	
2025-11-05T00:00	28600	13	-60.6		246	18	
2025-11-05T00:00	28650	13	-60.1		246	18	
2025-11-05T00:00	28700	13	-59.8		248	18	
2025-11-05T00:00	28750	13	-60.1		252	18	
2025-11-05T00:00	28800	13	-60.3		257	18	
2025-11-05T00:00	28850	13	-60.4		262	19	
2025-11-05T00:00	28900	13	-60.5		265	19	
2025-11-05T00:00	28950	13	-60.3		269	20	
2025-11-05T00:00	29000	13	-60.0		272	20	
2025-11-05T00:00	29050	13	-60.2		274	19	
2025-11-05T00:00	29100	12	-60.2		276	19	
2025-11-05T00:00	29150	12	-60.1		277	19	
2025-11-05T00:00	29200	12	-59.7		280	18	
2025-11-05T00:00	29250	12	-59.9		282	18	
2025-11-05T00:00	29300	12	-60.0		282	18	
2025-11-05T00:00	29350	12	-59.9		282	18	
2025-11-05T00:00	29400	12	-59.5		281	17	
2025-11-05T00:00	29450	12	-59.3		281	16	
2025-11-05T00:00	29500	12	-59.2		281	15	
2025-11-05T00:00	29550	12	-59.3		281	15	
2025-11-05T00:00	29600	11	-59.3		280	14	
2025-11-05T00:00	29650	11	-59.5		279	14	
2025-11-05T00:00	29700	11	-59.4		278	14	
2025-11-05T00:00	29750	11	-59.3		276	15	
2025-11-05T00:00	29800	11	-59.1		275	16	
2025-11-05T00:00	29850	11	-59.3		274	17	
2025-11-05T00:00	29900	11	-59.3		272	18	
2025-11-05T00:00	29950	11	-59.4		272	20	
2025-11-05T00:00	30000	11	-59.5		272	21	
2025-11-05T00:00	30050	11	-59.6		272	22	
2025-11-05T00:00	30100	11	-59.8		273	22	
2025-11-05T00:00	30150	10	-60.1		273	22	
2025-11-05T00:00	30200	10	-60.2		273	21	
2025-11-05T00:00	30250	10	-60.3		273	21	
2025-11-05T00:00	30300	10	-60.5		272	21	
2025-11-05T00:00	30350	10	-60.7		272	21	
2025-11-05T00:00	30400	10	-61.0		271	21	
2025-11-05T00:00	30450	10	-61.2		269	21	
2025-11-05T00:00	30500	10	-61.4		269	22	
2025-11-05T00:00	30550	10	-61.5		271	23	
2025-11-05T00:00	30600	10	-61.6		274	24	
2025-11-05T00:00	30650	10	-61.3		276	25	
2025-11-05T00:00	30700	10	-61.1		278	25	
2025-11-05T00:00	30750	10	-60.9		278	24	
2025-11-05T00:00	30800	9	-60.7		277	23	
2025-11-05T00:00	30850	9	-60.5		275	22	
2025-11-05T00:00	30900	9	-60.2		273	22	
2025-11-05T00:00	30950	9	-60.2		271	22	
2025-11-05T00:00	31000	9	-60.0		270	21	
2025-11-05T00:00	31050	9	-59.5		270	21	
2025-11-05T00:00	31100	9	-59.3		270	20	
2025-11-05T00:00	31150	9	-59.1		270	20	
2025-11-05T00:00	31200	9	-58.8		271	21	
2025-11-05T00:00	31250	9	-58.6		271	21	
2025-11-05T00:00	31300	9	-58.4		271	22	
2025-11-05T00:00	31350	9	-58.5		271	22	
2025-11-05T00:00	31400	9	-58.4		272	22	
2025-11-05T00:00	31450	9	-58.2		272	21	
2025-11-05T00:00	31500	8	-58.0		271	21	
2025-11-05T00:00	31550	8	-58.0		269	21	
2025-11-05T00:00	31600	8	-57.7		266	22	
2025-11-05T00:00	31650	8	-57.1		264	24	
2025-11-05T00:00	31700	8	-56.4		263	25	
2025-11-05T00:00	31750	8	-55.8		263	27	
2025-11-05T00:00	31800	8	-55.6		262	28	
2025-11-05T00:00	31850	8	-55.8		261	29	
2025-11-05T00:00	31900	8	-55.7		259	30	
2025-11-05T00:00	31950	8	-55.8		258	31	
2025-11-05T00:00	32000	8	-55.9		257	32	
2025-11-05T00:00	32050	8	-56.0		257	33	
2025-11-05T00:00	32100	8	-56.1		258	33	
2025-11-05T00:00	32150	8	-55.8		259	33	
2025-11-05T00:00	32200	8	-55.7		260	32	
2025-11-05T00:00	32250	8	-55.8		262	31	
2025-11-05T00:00	32300	7	-56.2		263	30	
2025-11-05T00:00	32350	7	-56.3		265	30	
2025-11-05T00:00	32400	7	-56.0		267	30	
2025-11-05T00:00	32450	7	-56.0		269	30	
2025-11-05T00:00	32500	7	-56.0		270	31	
2025-11-05T00:00	32550	7	-55.6		270	31	
2025-11-05T00:00	32600	7	-55.4		269	31	
2025-11-05T00:00	32650	7	-55.3		267	32	
2025-11-05T00:00	32700	7	-55.3		265	32	
2025-11-05T00:00	32750	7	-55.4		263	32	
2025-11-05T00:00	32800	7	-55.7		261	33	
2025-11-05T00:00	32850	7	-55.8		260	34	
2025-11-05T00:00	32900	7	-55.7		259	35	
2025-11-05T00:00	32950	7	-55.8		259	36	
2025-11-05T00:00	33000	7	-56.1		260	37	
2025-11-05T00:00	33050	7	-56.5		261	38	
2025-11-05T00:00	33100	7	-56.9		262	38	
2025-11-05T00:00	33150	7	-57.4		264	39	
2025-11-05T00:00	33200	6	-57.4		267	39	
2025-11-05T00:00	33250	6	-57.1		270	39	
2025-11-05T00:00	33300	6	-57.3		273	40	
2025-11-05T00:00	33350	6	-57.2		274	40	
2025-11-05T00:00	33400	6	-56.7		275	40	
2025-11-05T00:00	33450	6	-56.2		274	40	
2025-11-05T00:00	33500	6	-55.9		275	39	
2025-11-05T00:00	33550	6	-56.0		275	38	
2025-11-05T00:00	33600	6	-55.8		276	38	
2025-11-05T00:00	33650	6	-55.7		276	38	
2025-11-05T00:00	33700	6	-55.8		276	38	
2025-11-05T00:00	33750	6	-55.5		277	38	
2025-11-05T00:00	33800	6	-55.3		279	38	
2025-11-05T00:00	33850	6	-54.7		281	38	
2025-11-05T00:00	33900	6	-54.3		283	38	
2025-11-05T00:00	33950	6	-54.2		282	37	
2025-11-05T00:00	34000	6	-53.7		281	37	
2025-11-05T00:00	34050	6	-53.4		279	37	
2025-11-05T00:00	34100	6	-53.1		277	36	
2025-11-05T00:00	34150	6	-52.9		276	36	
2025-11-05T00:00	34200	6	-53.0		274	35	
2025-11-05T00:00	34250	5	-52.9		271	36	
2025-11-05T00:00	34300	5	-52.7		270	37	
2025-11-05T00:00	34350	5	-52.2		269	39	
2025-11-05T00:00	34400	5	-52.1		269	40	
2025-11-05T00:00	34450	5	-51.9		270	40	
2025-11-05T00:00	34500	5	-51.8		269	40	
2025-11-05T00:00	34550	5	-51.5		269	40	
2025-11-05T00:00	34600	5	-51.3		268	39	
2025-11-05T00:00	34650	5	-51.1		269	40	
2025-11-05T00:00	34700	5	-50.9		271	40	
2025-11-05T00:00	34750	5	-50.9		272	40	
2025-11-05T00:00	34800	5	-51.1		274	41	
2025-11-05T00:00	34850	5	-51.1		276	40	
2025-11-05T00:00	34900	5	-50.7		276	40	
2025-11-05T00:00	34950	5	-50.3		274	39	
2025-11-05T00:00	35000	5	-50.1		272	39	
2025-11-05T00:00	35050	5	-50.0		271	39	
2025-11-05T00:00	35100	5	-50.1		271	38	
2025-11-05T00:00	35150	5	-50.1		272	38	
2025-11-05T00:00	35200	5	-50.3		273	39	
2025-11-05T00:00	35250	5	-50.3		275	39	
2025-11-05T00:00	35300	5	-49.3		277	39	
2025-11-05T00:00	35350	5	-48.8		279	38	
2025-11-05T00:00	35400	5	-48.6		280	38	
2025-11-05T00:00	35450	5	-48.2		280	38	
2025-11-05T00:00	35500	5	-48.1		280	39	
2025-11-05T00:00	35550	4	-48.3		280	39	
2025-11-05T00:00	35600	4	-48.2		280	39	
2025-11-05T00:00	35650	4	-48.1		280	39	
2025-11-05T00:00	35700	4	-47.2		278	39	
2025-11-05T00:00	35750	4	-47.0		277	38	
2025-11-05T00:00	35800	4	-47.1		276	38	
2025-11-05T00:00	35850	4	-47.3		274	38	
2025-11-05T00:00	35900	4	-47.2		271	38	
2025-11-05T00:00	35950	4	-46.5		269	39	
2025-11-05T00:00	36000	4	-46.1		268	40	
2025-11-05T00:00	36050	4	-45.7		268	42	
2025-11-05T00:00	36100	4	-45.6		269	43	
2025-11-05T00:00	36150	4	-45.7		270	43	
2025-11-05T00:00	36200	4	-45.9		269	45	
2025-11-05T00:00	36250	4	-46.1		269	45	
2025-11-05T00:00	36300	4	-46.5		268	46	
2025-11-05T00:00	36350	4	-46.8		267	46	
2025-11-05T00:00	36400	4	-46.9		268	46	
2025-11-05T00:00	36450	4	-47.0		270	46	
2025-11-05T00:00	36500	4	-46.9		271	46	
2025-11-05T00:00	36550	4	-46.8		272	46	
2025-11-05T00:00	36600	4	-46.7		273	46	
2025-11-05T00:00	36650	4	-46.6		274	46	
2025-11-05T00:00	36700	4	-46.3		276	46	
2025-11-05T00:00	36750	4	-46.2		277	46	
2025-11-05T00:00	36800	4	-46.4		278	46	
2025-11-05T00:00	36850	4	-46.2		279	46	
2025-11-05T00:00	36900	4	-45.8		280	47	
2025-11-05T12:00	491	963	8.0	6.1	5	2	1.0
2025-11-05T12:00	501	962	7.1	5.7	15	2	1.1
2025-11-05T12:00	520	960	6.9	5.6	12	2	1.2
2025-11-05T12:00	540	957	6.5	5.4	11	2	1.3
2025-11-05T12:00	560	955	6.4	5.3	11	2	1.4
2025-11-05T12:00	580	953	6.0	5.4	13	2	1.4
2025-11-05T12:00	600	950	5.8	5.2	17	2	1.5
2025-11-05T12:00	620	948	5.7	5.2	22	1	1.5
2025-11-05T12:00	640	946	5.3	5.2	27	1	1.6
2025-11-05T12:00	660	943	5.2	5.1	25	1	1.6
2025-11-05T12:00	680	941	5.1	5.0	316	0	1.6
2025-11-05T12:00	700	939	5.0	4.9	254	1	1.6
2025-11-05T12:00	720	937	5.9	3.8	249	2	1.7
2025-11-05T12:00	740	934	7.4	3.2	247	2	1.7
2025-11-05T12:00	760	932	8.1	2.5	244	3	1.9
2025-11-05T12:00	780	930	8.6	2.4	241	3	2.0
2025-11-05T12:00	800	928	8.7	2.9	238	4	2.1
2025-11-05T12:00	820	925	9.1	1.0	236	4	2.2
2025-11-05T12:00	840	923	9.3	-0.2	235	4	2.3
2025-11-05T12:00	860	921	9.5	-0.1	236	3	2.5
2025-11-05T12:00	880	919	9.7	-0.9	239	3	2.6
2025-11-05T12:00	900	916	9.7	-1.6	243	3	2.8
2025-11-05T12:00	920	914	9.6	-1.8	248	3	2.9
2025-11-05T12:00	940	912	9.5	-2.0	252	3	3.0
2025-11-05T12:00	960	910	9.4	-2.0	255	3	3.1
2025-11-05T12:00	980	908	9.3	-1.3	256	3	3.2
2025-11-05T12:00	1000	905	9.2	-0.7	256	4	3.3
2025-11-05T12:00	1020	903	9.3	-1.0	254	4	3.4
2025-11-05T12:00	1040	901	9.3	-1.3	251	4	3.5
2025-11-05T12:00	1060	899	9.4	-1.4	246	4	3.6
2025-11-05T12:00	1080	897	9.4	-1.7	240	4	3.6
2025-11-05T12:00	1100	895	9.4	-2.5	235	4	3.6
2025-11-05T12:00	1120	892	9.8	-3.8	228	4	3.7
2025-11-05T12:00	1140	890	10.1	-4.4	221	4	3.7
2025-11-05T12:00	1160	888	10.4	-5.4	216	4	3.8
2025-11-05T12:00	1180	886	10.8	-5.7	209	4	3.8
2025-11-05T12:00	1200	884	10.7	-5.7	203	4	3.9
2025-11-05T12:00	1220	882	10.7	-6.3	195	3	3.9
2025-11-05T12:00	1240	880	10.8	-7.3	189	3	4.0
2025-11-05T12:00	1260	878	10.9	-7.6	185	3	4.0
2025-11-05T12:00	1280	876	11.0	-7.4	183	3	4.1
2025-11-05T12:00	1300	873	11.1	-7.6	185	4	4.1
2025-11-05T12:00	1320	871	11.1	-7.7	187	4	4.1
2025-11-05T12:00	1340	869	10.9	-7.6	190	4	4.1
2025-11-05T12:00	1360	867	10.7	-7.6	194	4	4.2
2025-11-05T12:00	1380	865	10.5	-7.7	197	3	4.2
2025-11-05T12:00	1400	863	10.4	-7.8	200	3	4.2
2025-11-05T12:00	1420	861	10.3	-7.9	204	3	4.2
2025-11-05T12:00	1440	859	10.1	-7.9	210	3	4.2
2025-11-05T12:00	1460	857	9.9	-7.9	215	3	4.2
2025-11-05T12:00	1480	855	9.7	-8.0	220	3	4.2
2025-11-05T12:00	1500	853	9.7	-8.0	224	4	4.2
2025-11-05T12:00	1520	850	9.6	-7.8	226	4	4.2
2025-11-05T12:00	1540	848	9.6	-8.1	225	4	4.2
2025-11-05T12:00	1560	847	9.7	-8.8	225	4	4.2
2025-11-05T12:00	1580	844	9.9	-9.4	224	4	4.2
2025-11-05T12:00	1600	842	10.5	-10.3	222	4	4.2
2025-11-05T12:00	1620	840	11.1	-11.1	221	4	4.3
2025-11-05T12:00	1640	838	11.6	-11.8	219	4	4.3
2025-11-05T12:00	1660	836	12.1	-13.0	217	4	4.3
2025-11-05T12:00	1680	834	12.3	-13.9	215	3	4.4
2025-11-05T12:00	1700	832	12.3	-15.1	213	3	4.4
2025-11-05T12:00	1720	830	12.3	-16.9	211	3	4.4
2025-11-05T12:00	1740	828	12.4	-18.6	209	3	4.4
2025-11-05T12:00	1760	826	12.3	-18.5	208	4	4.5
2025-11-05T12:00	1780	824	12.3	-18.4	208	4	4.5
2025-11-05T12:00	1800	822	12.3	-18.7	208	4	4.6
2025-11-05T12:00	1820	820	12.1	-19.5	208	5	4.6
2025-11-05T12:00	1840	818	12.0	-20.1	208	5	4.6
2025-11-05T12:00	1860	816	11.9	-20.4	207	5	4.7
2025-11-05T12:00	1880	815	11.7	-20.8	206	5	4.7
2025-11-05T12:00	1900	813	11.5	-21.1	205	5	4.7
2025-11-05T12:00	1920	811	11.3	-21.5	205	6	4.7
2025-11-05T12:00	1940	809	11.2	-22.3	205	6	4.7
2025-11-05T12:00	1960	807	11.1	-22.3	206	6	4.7
2025-11-05T12:00	1980	805	10.8	-22.3	208	7	4.8
2025-11-05T12:00	2000	803	10.6	-22.8	209	7	4.8
2025-11-05T12:00	2020	801	10.6	-24.1	210	8	4.7
2025-11-05T12:00	2040	799	10.6	-24.3	211	8	4.8
2025-11-05T12:00	2060	797	10.7	-23.9	211	9	4.8
2025-11-05T12:00	2080	795	10.7	-24.3	212	9	4.8
2025-11-05T12:00	2100	793	10.5	-24.9	213	9	4.8
2025-11-05T12:00	2120	791	10.4	-24.7	213	10	4.8
2025-11-05T12:00	2140	790	10.2	-24.7	214	10	4.8
2025-11-05T12:00	2160	788	10.0	-24.9	215	10	4.7
2025-11-05T12:00	2180	786	9.9	-25.3	216	10	4.7
2025-11-05T12:00	2200	784	9.9	-24.5	216	10	4.7
2025-11-05T12:00	2220	782	9.7	-24.1	217	10	4.7
2025-11-05T12:00	2240	780	9.5	-23.3	217	10	4.7
2025-11-05T12:00	2260	778	9.3	-22.5	217	10	4.7
2025-11-05T12:00	2280	776	9.1	-22.3	217	10	4.7
2025-11-05T12:00	2300	774	8.9	-21.6	216	11	4.6
2025-11-05T12:00	2320	772	8.8	-20.8	216	11	4.6
2025-11-05T12:00	2340	771	8.6	-19.8	215	11	4.6
2025-11-05T12:00	2360	769	8.4	-18.4	215	11	4.5
2025-11-05T12:00	2380	767	8.2	-17.1	216	11	4.5
2025-11-05T12:00	2400	765	8.0	-14.2	217	11	4.5
2025-11-05T12:00	2420	763	8.0	-13.2	219	10	4.4
2025-11-05T12:00	2440	761	7.9	-11.7	221	10	4.4
2025-11-05T12:00	2460	760	8.0	-11.6	223	10	4.3
2025-11-05T12:00	2480	758	8.0	-11.9	226	9	4.2
2025-11-05T12:00	2500	756	7.9	-12.0	229	9	4.2
2025-11-05T12:00	2520	754	7.8	-12.8	231	9	4.1
2025-11-05T12:00	2540	752	7.9	-13.6	233	9	4.0
2025-11-05T12:00	2560	750	7.8	-14.1	234	8	4.0
2025-11-05T12:00	2580	748	7.8	-14.9	235	8	4.0
2025-11-05T12:00	2600	747	7.7	-15.6	234	8	4.0
2025-11-05T12:00	2620	745	7.7	-16.5	233	7	4.0
2025-11-05T12:00	2640	743	7.6	-16.9	232	7	4.0
2025-11-05T12:00	2660	741	7.4	-17.1	231	7	3.9
2025-11-05T12:00	2680	739	7.2	-17.0	230	7	3.9
2025-11-05T12:00	2700	738	7.0	-17.3	228	7	3.9
2025-11-05T12:00	2720	736	6.9	-17.8	227	7	3.9
2025-11-05T12:00	2740	734	6.8	-18.2	225	7	3.9
2025-11-05T12:00	2760	732	6.6	-19.2	223	7	3.9
2025-11-05T12:00	2780	730	6.5	-20.3	221	7	3.9
2025-11-05T12:00	2800	729	6.4	-21.7	218	7	3.9
2025-11-05T12:00	2820	727	6.4	-22.5	217	7	3.9
2025-11-05T12:00	2840	725	6.4	-24.3	216	7	3.9
2025-11-05T12:00	2860	723	6.4	-26.1	215	7	4.0
2025-11-05T12:00	2880	722	6.3	-25.8	216	7	4.0
2025-11-05T12:00	2900	720	6.2	-23.7	216	7	4.0
2025-11-05T12:00	2920	718	6.0	-19.5	217	7	4.0
2025-11-05T12:00	2940	716	5.8	-18.3	217	7	4.0
2025-11-05T12:00	2960	715	5.6	-18.0	217	7	3.9
2025-11-05T12:00	2980	713	5.5	-17.3	216	7	3.9
2025-11-05T12:00	3000	711	5.3	-16.8	216	7	3.9
2025-11-05T12:00	3020	709	5.1	-16.4	216	7	3.9
2025-11-05T12:00	3040	708	4.9	-16.2	216	7	3.9
2025-11-05T12:00	3060	706	4.7	-16.5	216	7	3.9
2025-11-05T12:00	3080	704	4.6	-17.1	216	6	3.9
2025-11-05T12:00	3100	703	4.4	-17.3	216	6	3.9
2025-11-05T12:00	3120	701	4.3	-18.4	215	6	3.9
2025-11-05T12:00	3140	699	4.2	-20.1	214	6	3.9
2025-11-05T12:00	3160	697	4.1	-19.7	212	6	3.9
2025-11-05T12:00	3180	695	4.0	-18.5	211	7	3.8
2025-11-05T12:00	3200	694	3.9	-18.7	211	7	3.9
2025-11-05T12:00	3220	692	3.7	-18.8	210	7	3.9
2025-11-05T12:00	3240	691	3.5	-18.8	210	7	3.9
2025-11-05T12:00	3260	689	3.4	-18.8	210	7	3.9
2025-11-05T12:00	3280	687	3.3	-18.9	210	7	3.9
2025-11-05T12:00	3300	685	3.1	-19.0	210	7	3.9
2025-11-05T12:00	3320	684	3.0	-19.0	210	7	3.9
2025-11-05T12:00	3340	682	2.8	-19.1	210	7	3.9
2025-11-05T12:00	3360	680	2.6	-19.1	211	7	3.9
2025-11-05T12:00	3380	678	2.5	-19.0	212	7	3.9
2025-11-05T12:00	3400	677	2.3	-18.9	213	7	3.9
2025-11-05T12:00	3420	675	2.1	-19.0	214	7	3.9
2025-11-05T12:00	3440	673	1.9	-19.0	215	7	3.9
2025-11-05T12:00	3460	672	1.8	-19.0	216	6	3.9
2025-11-05T12:00	3480	670	1.7	-19.1	216	6	3.9
2025-11-05T12:00	3500	668	1.4	-19.1	217	6	3.9
2025-11-05T12:00	3520	667	1.2	-19.1	217	6	3.8
2025-11-05T12:00	3540	665	1.0	-19.1	219	6	3.8
2025-11-05T12:00	3560	664	0.8	-19.2	221	6	3.8
2025-11-05T12:00	3580	662	0.7	-19.3	223	5	3.8
2025-11-05T12:00	3600	660	0.5	-19.5	227	5	3.8
2025-11-05T12:00	3620	659	0.4	-19.7	230	5	3.8
2025-11-05T12:00	3640	657	0.3	-19.8	234	4	3.8
2025-11-05T12:00	3660	655	0.1	-19.9	237	4	3.8
2025-11-05T12:00	3680	654	-0.1	-20.0	238	4	3.8
2025-11-05T12:00	3700	652	-0.2	-21.0	235	4	3.8
2025-11-05T12:00	3720	651	-0.1	-21.9	231	4	3.8
2025-11-05T12:00	3740	649	-0.3	-21.8	224	4	3.8
2025-11-05T12:00	3760	647	-0.4	-22.3	217	5	3.8
2025-11-05T12:00	3780	646	-0.4	-23.6	211	5	3.8
2025-11-05T12:00	3800	644	-0.3	-24.5	205	6	3.8
2025-11-05T12:00	3820	642	-0.5	-24.7	201	6	3.8
2025-11-05T12:00	3840	641	-0.6	-25.5	198	6	3.8
2025-11-05T12:00	3860	639	-0.6	-25.9	197	6	3.8
2025-11-05T12:00	3880	638	-0.8	-26.6	197	6	3.9
2025-11-05T12:00	3900	636	-0.9	-26.9	198	6	3.9
2025-11-05T12:00	3920	634	-1.0	-27.4	200	7	3.9
2025-11-05T12:00	3940	633	-1.2	-27.8	203	7	3.9
2025-11-05T12:00	3960	631	-1.2	-28.4	205	7	3.9
2025-11-05T12:00	3980	630	-1.3	-28.7	207	8	3.9
2025-11-05T12:00	4000	628	-1.3	-28.8	208	8	3.9
2025-11-05T12:00	4020	627	-1.4	-29.1	209	8	3.9
2025-11-05T12:00	4040	625	-1.5	-29.3	210	8	3.9
2025-11-05T12:00	4060	623	-1.5	-29.7	210	8	3.9
2025-11-05T12:00	4080	622	-1.5	-29.3	210	8	3.9
2025-11-05T12:00	4100	620	-1.6	-28.0	211	8	3.9
2025-11-05T12:00	4120	619	-1.8	-27.7	212	8	3.9
2025-11-05T12:00	4140	617	-1.8	-29.3	213	7	3.9
2025-11-05T12:00	4160	616	-2.0	-32.1	215	7	3.8
2025-11-05T12:00	4180	614	-2.2	-32.6	216	7	3.9
2025-11-05T12:00	4200	612	-2.3	-34.1	217	6	3.9
2025-11-05T12:00	4220	611	-2.3	-33.7	218	6	3.9
2025-11-05T12:00	4240	609	-2.5	-33.1	220	6	3.9
2025-11-05T12:00	4260	608	-2.6	-32.8	222	6	3.9
2025-11-05T12:00	4280	606	-2.7	-33.9	224	6	3.9
2025-11-05T12:00	4300	605	-2.8	-35.5	226	6	3.9
2025-11-05T12:00	4320	603	-2.9	-36.4	229	6	3.9
2025-11-05T12:00	4340	602	-3.0	-36.7	232	6	3.9
2025-11-05T12:00	4360	600	-3.1	-37.0	234	6	3.9
2025-11-05T12:00	4380	599	-3.3	-37.3	234	6	3.9
2025-11-05T12:00	4400	597	-3.3	-37.8	233	6	3.9
2025-11-05T12:00	4420	596	-3.3	-38.0	230	6	3.9
2025-11-05T12:00	4440	594	-3.4	-37.9	226	6	3.9
2025-11-05T12:00	4460	593	-3.5	-38.2	222	7	3.9
2025-11-05T12:00	4480	591	-3.6	-38.4	219	7	3.9
2025-11-05T12:00	4500	590	-3.6	-38.5	217	7	3.9
2025-11-05T12:00	4520	588	-3.7	-38.7	215	7	3.9
2025-11-05T12:00	4540	587	-3.9	-38.8	213	7	3.9
2025-11-05T12:00	4560	585	-4.1	-38.8	213	7	3.9
2025-11-05T12:00	4580	583	-4.3	-38.8	213	8	3.8
2025-11-05T12:00	4600	582	-4.5	-38.9	213	8	3.8
2025-11-05T12:00	4620	581	-4.7	-38.9	213	7	3.8
2025-11-05T12:00	4640	579	-4.9	-39.0	212	7	3.8
2025-11-05T12:00	4660	578	-5.1	-39.0	212	7	3.8
2025-11-05T12:00	4680	576	-5.2	-39.1	212	7	3.8
2025-11-05T12:00	4700	575	-5.3	-39.2	212	7	3.7
2025-11-05T12:00	4720	573	-5.5	-39.5	213	7	3.7
2025-11-05T12:00	4740	572	-5.4	-40.0	214	8	3.7
2025-11-05T12:00	4760	570	-5.5	-40.0	215	8	3.7
2025-11-05T12:00	4780	569	-5.7	-40.0	216	8	3.7
2025-11-05T12:00	4800	568	-5.8	-40.0	217	8	3.7
2025-11-05T12:00	4820	566	-5.9	-40.1	218	8	3.6
2025-11-05T12:00	4840	565	-6.0	-39.8	218	8	3.6
2025-11-05T12:00	4860	563	-6.1	-39.8	217	8	3.6
2025-11-05T12:00	4880	562	-6.2	-40.2	217	8	3.6
2025-11-05T12:00	4900	560	-6.5	-40.2	216	7	3.6
2025-11-05T12:00	4920	559	-6.7	-39.8	216	7	3.6
2025-11-05T12:00	4940	558	-6.8	-38.9	217	7	3.6
2025-11-05T12:00	4960	556	-6.9	-38.0	217	7	3.6
2025-11-05T12:00	4980	555	-7.1	-37.7	218	7	3.5
2025-11-05T12:00	5000	553	-7.2	-39.1	218	8	3.5
2025-11-05T12:00	5020	552	-7.4	-39.7	219	8	3.5
2025-11-05T12:00	5040	550	-7.5	-39.6	219	8	3.5
2025-11-05T12:00	5060	549	-7.6	-39.4	219	8	3.5
2025-11-05T12:00	5080	548	-7.6	-37.9	219	7	3.5
2025-11-05T12:00	5100	546	-7.8	-34.4	220	7	3.4
2025-11-05T12:00	5120	545	-7.9	-33.2	220	7	3.4
2025-11-05T12:00	5140	543	-8.0	-33.9	220	7	3.3
2025-11-05T12:00	5160	542	-8.2	-32.2	221	6	3.3
2025-11-05T12:00	5180	540	-8.4	-31.7	221	6	3.3
2025-11-05T12:00	5200	539	-8.7	-32.2	221	6	3.2
2025-11-05T12:00	5220	538	-8.8	-31.7	221	6	3.2
2025-11-05T12:00	5240	536	-9.0	-31.4	221	6	3.2
2025-11-05T12:00	5260	535	-9.1	-31.5	221	6	3.1
2025-11-05T12:00	5280	534	-9.3	-31.5	221	6	3.1
2025-11-05T12:00	5300	532	-9.5	-31.4	222	6	3.1
2025-11-05T12:00	5320	531	-9.6	-31.5	223	6	3.0
2025-11-05T12:00	5340	529	-9.7	-31.6	225	6	3.0
2025-11-05T12:00	5360	528	-10.0	-31.6	228	6	3.0
2025-11-05T12:00	5380	527	-10.1	-31.6	230	6	3.0
2025-11-05T12:00	5400	525	-10.2	-31.9	232	6	3.0
2025-11-05T12:00	5420	524	-10.5	-32.0	233	6	3.0
2025-11-05T12:00	5440	523	-10.7	-32.8	234	6	3.0
2025-11-05T12:00	5460	521	-10.9	-33.3	234	6	2.9
2025-11-05T12:00	5480	520	-11.1	-33.5	234	6	2.9
2025-11-05T12:00	5500	519	-11.3	-34.0	233	6	2.9
2025-11-05T12:00	5520	517	-11.5	-34.0	233	7	2.9
2025-11-05T12:00	5540	516	-11.7	-33.5	232	7	3.0
2025-11-05T12:00	5560	514	-11.8	-33.8	232	7	3.0
2025-11-05T12:00	5580	513	-12.0	-33.9	232	6	2.9
2025-11-05T12:00	5600	512	-12.1	-34.1	231	6	2.9
2025-11-05T12:00	5620	511	-12.4	-34.2	231	6	2.9
2025-11-05T12:00	5640	509	-12.6	-34.5	230	6	2.9
2025-11-05T12:00	5660	508	-12.8	-36.0	228	6	2.9
2025-11-05T12:00	5680	506	-12.8	-38.3	227	6	2.9
2025-11-05T12:00	5700	505	-12.9	-39.6	226	6	2.9
2025-11-05T12:00	5720	504	-13.0	-39.6	225	6	3.0
2025-11-05T12:00	5740	503	-13.1	-39.5	225	6	3.0
2025-11-05T12:00	5760	501	-13.4	-39.4	224	6	3.0
2025-11-05T12:00	5780	500	-13.6	-39.4	224	6	3.0
2025-11-05T12:00	5800	499	-13.7	-39.4	224	6	3.0
2025-11-05T12:00	5820	497	-13.8	-39.0	225	6	3.0
2025-11-05T12:00	5840	496	-13.8	-39.2	225	6	3.0
2025-11-05T12:00	5860	495	-14.0	-39.7	226	6	3.0
2025-11-05T12:00	5880	493	-14.2	-39.9	227	7	3.0
2025-11-05T12:00	5900	492	-14.3	-39.9	228	7	3.0
2025-11-05T12:00	5920	491	-14.5	-39.4	230	7	3.0
2025-11-05T12:00	5940	489	-14.6	-38.1	231	7	3.0
2025-11-05T12:00	5960	488	-14.7	-33.7	231	8	3.0
2025-11-05T12:00	5980	487	-14.8	-31.5	231	8	2.9
2025-11-05T12:00	6000	486	-15.0	-31.6	230	7	2.9
2025-11-05T12:00	6020	484	-15.3	-32.7	229	7	2.9
2025-11-05T12:00	6040	483	-15.4	-33.4	227	7	2.9
2025-11-05T12:00	6060	482	-15.5	-33.2	226	7	2.8
2025-11-05T12:00	6080	480	-15.8	-31.2	225	7	2.9
2025-11-05T12:00	6100	479	-16.0	-29.5	226	7	2.9
2025-11-05T12:00	6120	478	-16.1	-31.4	227	7	2.8
2025-11-05T12:00	6140	477	-16.3	-32.2	228	7	2.8
2025-11-05T12:00	6160	475	-16.5	-31.3	229	7	2.8
2025-11-05T12:00	6180	474	-16.6	-33.4	230	7	2.8
2025-11-05T12:00	6200	473	-16.7	-33.7	231	7	2.8
2025-11-05T12:00	6220	472	-17.0	-34.0	232	7	2.8
2025-11-05T12:00	6240	470	-17.1	-34.3	231	8	2.8
2025-11-05T12:00	6260	469	-17.3	-35.9	230	8	2.8
2025-11-05T12:00	6280	468	-17.5	-40.0	229	8	2.8
2025-11-05T12:00	6300	467	-17.6	-43.2	228	8	2.8
2025-11-05T12:00	6320	465	-17.7	-44.7	226	9	2.8
2025-11-05T12:00	6340	464	-17.9	-44.2	224	9	2.8
2025-11-05T12:00	6360	463	-18.1	-44.1	223	9	2.8
2025-11-05T12:00	6380	462	-18.2	-44.1	222	10	2.8
2025-11-05T12:00	6400	460	-18.3	-43.9	221	10	2.8
2025-11-05T12:00	6420	459	-18.6	-43.7	220	10	2.8
2025-11-05T12:00	6440	458	-18.7	-43.7	220	10	2.8
2025-11-05T12:00	6460	457	-18.8	-43.6	220	10	2.8
2025-11-05T12:00	6480	455	-19.1	-43.3	220	10	2.8
2025-11-05T12:00	6500	454	-19.3	-41.5	222	10	2.8
2025-11-05T12:00	6520	453	-19.4	-38.4	223	10	2.8
2025-11-05T12:00	6540	452	-19.6	-32.4	224	10	2.8
2025-11-05T12:00	6560	451	-19.8	-30.0	225	11	2.8
2025-11-05T12:00	6580	449	-20.0	-29.4	226	11	2.7
2025-11-05T12:00	6600	448	-20.2	-28.9	226	11	2.7
2025-11-05T12:00	6620	447	-20.3	-28.4	226	12	2.7
2025-11-05T12:00	6640	446	-20.4	-27.2	226	12	2.6
2025-11-05T12:00	6660	444	-20.7	-25.7	225	12	2.6
2025-11-05T12:00	6680	443	-20.9	-25.2	224	12	2.5
2025-11-05T12:00	6700	442	-21.0	-25.0	224	12	2.5
2025-11-05T12:00	6720	441	-21.0	-25.9	223	12	2.5
2025-11-05T12:00	6740	440	-21.2	-26.7	222	12	2.4
2025-11-05T12:00	6760	439	-21.3	-27.3	220	12	2.4
2025-11-05T12:00	6780	437	-21.3	-27.4	219	11	2.4
2025-11-05T12:00	6800	436	-21.5	-30.4	219	11	2.4
2025-11-05T12:00	6820	435	-21.6	-30.1	218	11	2.4
2025-11-05T12:00	6840	434	-21.6	-28.3	217	11	2.4
2025-11-05T12:00	6860	433	-21.7	-28.2	217	10	2.4
2025-11-05T12:00	6880	431	-21.9	-26.3	217	10	2.4
2025-11-05T12:00	6900	430	-21.9	-26.5	218	10	2.3
2025-11-05T12:00	6920	429	-21.9	-26.7	219	10	2.3
2025-11-05T12:00	6940	428	-22.0	-26.8	220	10	2.3
2025-11-05T12:00	6960	427	-22.1	-27.2	221	10	2.3
2025-11-05T12:00	6980	426	-22.2	-27.5	221	10	2.3
2025-11-05T12:00	7000	425	-22.2	-28.0	221	10	2.3
2025-11-05T12:00	7020	423	-22.4	-28.1	220	10	2.3
2025-11-05T12:00	7040	422	-22.6	-28.2	220	10	2.3
2025-11-05T12:00	7060	421	-22.8	-28.3	219	10	2.3
2025-11-05T12:00	7080	420	-22.9	-28.2	218	10	2.3
2025-11-05T12:00	7100	419	-23.1	-28.3	218	11	2.3
2025-11-05T12:00	7120	418	-23.3	-28.2	218	11	2.3
2025-11-05T12:00	7140	416	-23.5	-28.5	218	11	2.2
2025-11-05T12:00	7160	415	-23.6	-28.7	218	11	2.2
2025-11-05T12:00	7180	414	-23.9	-28.6	218	11	2.2
2025-11-05T12:00	7200	413	-24.1	-28.7	219	11	2.2
2025-11-05T12:00	7220	412	-24.2	-28.9	219	11	2.2
2025-11-05T12:00	7240	411	-24.4	-29.0	220	11	2.2
2025-11-05T12:00	7260	410	-24.6	-28.8	221	11	2.2
2025-11-05T12:00	7280	408	-24.8	-29.2	222	11	2.2
2025-11-05T12:00	7300	407	-24.9	-29.9	223	11	2.1
2025-11-05T12:00	7320	406	-25.1	-29.8	224	10	2.1
2025-11-05T12:00	7340	405	-25.3	-30.4	224	10	2.1
2025-11-05T12:00	7360	404	-25.4	-30.5	224	10	2.1
2025-11-05T12:00	7380	403	-25.6	-30.2	224	10	2.1
2025-11-05T12:00	7400	402	-25.8	-30.3	223	10	2.1
2025-11-05T12:00	7420	401	-25.8	-30.5	221	10	2.1
2025-11-05T12:00	7440	400	-26.1	-30.3	220	10	2.1
2025-11-05T12:00	7460	398	-26.3	-30.1	219	10	2.1
2025-11-05T12:00	7480	397	-26.4	-30.5	219	11	2.1
2025-11-05T12:00	7500	396	-26.5	-31.0	218	11	2.0
2025-11-05T12:00	7520	395	-26.6	-31.3	218	11	2.0
2025-11-05T12:00	7540	394	-26.8	-30.7	217	11	2.0
2025-11-05T12:00	7560	393	-27.0	-30.6	217	12	2.0
2025-11-05T12:00	7580	392	-27.2	-31.2	217	12	2.0
2025-11-05T12:00	7600	391	-27.3	-31.5	216	12	2.0
2025-11-05T12:00	7620	390	-27.4	-31.8	216	12	2.0
2025-11-05T12:00	7640	389	-27.6	-32.7	216	12	2.0
2025-11-05T12:00	7660	388	-27.7	-33.0	216	12	2.0
2025-11-05T12:00	7680	387	-28.0	-32.8	216	12	2.0
2025-11-05T12:00	7700	385	-28.2	-33.0	216	11	2.0
2025-11-05T12:00	7720	384	-28.2	-33.0	217	11	2.0
2025-11-05T12:00	7740	383	-28.5	-32.8	219	11	2.0
2025-11-05T12:00	7760	382	-28.6	-33.0	220	11	2.0
2025-11-05T12:00	7780	381	-28.8	-33.1	220	11	2.0
2025-11-05T12:00	7800	380	-29.0	-33.8	220	11	2.0
2025-11-05T12:00	7820	379	-29.2	-34.0	219	11	2.0
2025-11-05T12:00	7840	378	-29.3	-34.1	217	11	2.0
2025-11-05T12:00	7860	377	-29.4	-34.3	216	11	1.9
2025-11-05T12:00	7880	376	-29.5	-34.5	214	10	2.0
2025-11-05T12:00	7900	375	-29.8	-34.7	214	10	2.0
2025-11-05T12:00	7920	374	-29.9	-35.6	215	10	1.9
2025-11-05T12:00	7940	373	-30.0	-35.6	218	10	1.9
2025-11-05T12:00	7960	372	-30.3	-35.5	220	9	1.9
2025-11-05T12:00	7980	371	-30.4	-35.8	222	10	1.9
2025-11-05T12:00	8000	370	-30.6	-36.7	223	10	1.9
2025-11-05T12:00	8020	369	-30.7	-37.0	223	10	1.9
2025-11-05T12:00	8040	368	-30.8	-36.8	223	10	1.9
2025-11-05T12:00	8060	367	-30.9	-37.7	222	10	1.9
2025-11-05T12:00	8080	365	-31.2	-37.6	222	10	1.9
2025-11-05T12:00	8100	364	-31.3	-37.6	222	11	1.9
2025-11-05T12:00	8120	363	-31.5	-37.8	222	11	1.9
2025-11-05T12:00	8140	362	-31.8	-37.8	222	11	1.9
2025-11-05T12:00	8160	361	-31.9	-38.1	222	11	1.9
2025-11-05T12:00	8180	360	-32.1	-38.1	222	11	1.9
2025-11-05T12:00	8200	359	-32.3	-38.3	221	11	1.9
2025-11-05T12:00	8220	358	-32.4	-38.2	222	10	2.0
2025-11-05T12:00	8240	357	-32.7	-38.0	222	10	2.0
2025-11-05T12:00	8260	356	-32.9	-38.4	222	10	2.0
2025-11-05T12:00	8280	355	-33.0	-38.5	222	10	2.0
2025-11-05T12:00	8300	354	-33.2	-38.7	222	11	2.0
2025-11-05T12:00	8320	353	-33.4	-38.7	221	11	2.0
2025-11-05T12:00	8340	352	-33.6	-38.8	220	11	2.0
2025-11-05T12:00	8360	351	-33.8	-38.9	219	11	2.0
2025-11-05T12:00	8380	350	-34.0	-39.1	218	11	2.0
2025-11-05T12:00	8400	349	-34.1	-39.0	218	11	2.0
2025-11-05T12:00	8420	348	-34.3	-39.0	218	11	2.0
2025-11-05T12:00	8440	347	-34.6	-39.2	219	11	2.0
2025-11-05T12:00	8460	346	-34.7	-39.4	220	11	2.0
2025-11-05T12:00	8480	345	-34.9	-39.5	222	11	2.0
2025-11-05T12:00	8500	344	-35.0	-39.8	223	11	2.0
2025-11-05T12:00	8520	343	-35.2	-39.8	224	11	2.0
2025-11-05T12:00	8540	342	-35.4	-40.0	225	11	2.0
2025-11-05T12:00	8560	341	-35.6	-40.5	226	12	2.0
2025-11-05T12:00	8580	340	-35.6	-40.8	226	12	2.0
2025-11-05T12:00	8600	339	-35.8	-40.6	226	12	2.1
2025-11-05T12:00	8620	338	-36.0	-40.6	226	11	2.1
2025-11-05T12:00	8640	337	-36.2	-40.3	226	11	2.1
2025-11-05T12:00	8660	336	-36.5	-40.0	225	11	2.1
2025-11-05T12:00	8680	336	-36.7	-40.3	225	11	2.1
2025-11-05T12:00	8700	335	-36.9	-40.9	224	10	2.1
2025-11-05T12:00	8720	334	-37.0	-41.2	223	10	2.1
2025-11-05T12:00	8740	333	-37.2	-41.2	223	10	2.1
2025-11-05T12:00	8760	332	-37.3	-41.7	224	10	2.1
2025-11-05T12:00	8780	331	-37.6	-41.9	225	10	2.1
2025-11-05T12:00	8800	330	-37.8	-41.9	226	10	2.2
2025-11-05T12:00	8820	329	-37.9	-42.4	227	10	2.2
2025-11-05T12:00	8840	328	-38.1	-42.5	228	10	2.2
2025-11-05T12:00	8860	327	-38.3	-42.5	227	10	2.2
2025-11-05T12:00	8880	326	-38.5	-42.8	227	10	2.2
2025-11-05T12:00	8900	325	-38.7	-43.2	226	10	2.2
2025-11-05T12:00	8920	324	-38.8	-43.1	225	10	2.3
2025-11-05T12:00	8940	323	-39.1	-43.2	223	10	2.3
2025-11-05T12:00	8960	322	-39.2	-43.0	222	10	2.3
2025-11-05T12:00	8980	321	-39.4	-43.2	222	10	2.3
2025-11-05T12:00	9000	320	-39.6	-43.2	221	10	2.3
2025-11-05T12:00	9020	319	-39.7	-43.1	221	10	2.3
2025-11-05T12:00	9040	318	-39.9	-43.3	221	10	2.3
2025-11-05T12:00	9060	317	-40.1	-43.5	221	11	2.3
2025-11-05T12:00	9080	316	-40.2	-44.0	222	11	2.3
2025-11-05T12:00	9100	316	-40.3	-44.0	223	11	2.3
2025-11-05T12:00	9120	315	-40.5	-43.8	224	12	2.3
2025-11-05T12:00	9140	314	-40.7	-43.9	224	12	2.2
2025-11-05T12:00	9160	313	-40.9	-44.2	225	12	2.2
2025-11-05T12:00	9180	312	-41.1	-44.5	225	12	2.2
2025-11-05T12:00	9200	311	-41.2	-46.0	225	12	2.2
2025-11-05T12:00	9220	310	-41.3	-46.8	225	12	2.2
2025-11-05T12:00	9240	309	-41.4	-46.7	224	12	2.2
2025-11-05T12:00	9260	308	-41.6	-46.9	223	12	2.3
2025-11-05T12:00	9280	307	-41.8	-47.0	222	12	2.3
2025-11-05T12:00	9300	306	-41.9	-47.1	222	12	2.3
2025-11-05T12:00	9320	306	-42.0	-47.4	221	12	2.4
2025-11-05T12:00	9340	305	-42.1	-47.6	221	12	2.4
2025-11-05T12:00	9360	304	-42.4	-47.5	220	12	2.4
2025-11-05T12:00	9380	303	-42.6	-47.3	220	12	2.4
2025-11-05T12:00	9400	302	-42.7	-47.7	221	11	2.4
2025-11-05T12:00	9420	301	-42.9	-48.0	221	11	2.4
2025-11-05T12:00	9440	300	-43.1	-48.4	222	11	2.4
2025-11-05T12:00	9460	299	-43.1	-48.7	222	11	2.4
2025-11-05T12:00	9480	298	-43.3	-49.0	223	11	2.5
2025-11-05T12:00	9500	297	-43.5	-49.1	223	11	2.5
2025-11-05T12:00	9520	297	-43.5	-49.9	224	10	2.5
2025-11-05T12:00	9540	296	-43.7	-50.3	225	10	2.6
2025-11-05T12:00	9560	295	-43.9	-50.2	226	10	2.6
2025-11-05T12:00	9580	294	-44.0	-50.5	228	10	2.6
2025-11-05T12:00	9600	293	-44.0	-51.4	229	10	2.6
2025-11-05T12:00	9620	292	-44.0	-52.1	232	10	2.6
2025-11-05T12:00	9640	291	-44.1	-52.7	233	10	2.6
2025-11-05T12:00	9660	290	-44.1	-53.3	235	10	2.6
2025-11-05T12:00	9680	290	-44.1	-54.0	237	10	2.6
2025-11-05T12:00	9700	289	-44.1	-54.1	239	10	2.7
2025-11-05T12:00	9720	288	-44.0	-53.2	241	9	2.7
2025-11-05T12:00	9740	287	-44.2	-53.0	243	9	2.6
2025-11-05T12:00	9760	286	-44.4	-53.1	245	9	2.5
2025-11-05T12:00	9780	285	-44.6	-52.7	247	9	2.4
2025-11-05T12:00	9800	284	-44.7	-52.7	250	9	2.4
2025-11-05T12:00	9820	284	-44.8	-52.9	252	9	2.3
2025-11-05T12:00	9840	283	-45.1	-52.3	254	9	2.3
2025-11-05T12:00	9860	282	-45.3	-51.7	256	9	2.2
2025-11-05T12:00	9880	281	-45.4	-51.3	257	9	2.1
2025-11-05T12:00	9900	280	-45.6	-51.7	258	9	2.0
2025-11-05T12:00	9920	279	-45.8	-52.2	258	9	2.0
2025-11-05T12:00	9940	279	-45.9	-52.2	257	9	1.9
2025-11-05T12:00	9960	278	-46.1	-52.3	256	9	1.8
2025-11-05T12:00	9980	277	-46.3	-53.3	253	9	1.8
2025-11-05T12:00	10000	276	-46.4	-54.8	250	9	1.8
2025-11-05T12:00	10018	275	-46.5	-55.6	248	9	1.8
2025-11-05T12:00	10050	274	-46.8	-54.7	246	9	1.8
2025-11-05T12:00	10100	272	-47.2	-53.8	247	10	1.8
2025-11-05T12:00	10150	270	-47.7	-53.5	249	10	1.7
2025-11-05T12:00	10200	268	-48.1	-54.4	251	10	1.7
2025-11-05T12:00	10250	266	-48.4	-55.6	253	11	1.6
2025-11-05T12:00	10300	264	-48.9	-55.2	253	11	1.6
2025-11-05T12:00	10350	262	-49.3	-55.3	253	11	1.5
2025-11-05T12:00	10400	260	-49.8	-55.7	252	11	1.5
2025-11-05T12:00	10450	258	-50.0	-56.1	249	12	1.5
2025-11-05T12:00	10500	256	-50.5	-56.5	247	12	1.5
2025-11-05T12:00	10550	254	-50.8	-57.1	246	12	1.5
2025-11-05T12:00	10600	252	-51.2	-57.4	245	12	1.5
2025-11-05T12:00	10650	250	-51.5	-57.9	245	11	1.6
2025-11-05T12:00	10700	248	-52.0	-57.8	248	10	1.7
2025-11-05T12:00	10750	246	-52.4	-58.2	250	11	1.8
2025-11-05T12:00	10800	244	-52.8	-58.2	250	11	1.8
2025-11-05T12:00	10850	242	-53.4	-58.7	248	12	1.9
2025-11-05T12:00	10900	240	-53.7	-58.9	244	13	1.9
2025-11-05T12:00	10950	239	-54.1	-59.2	241	13	1.9
2025-11-05T12:00	11000	237	-54.6	-60.0	242	13	1.9
2025-11-05T12:00	11050	235	-54.9	-60.6	245	13	1.9
2025-11-05T12:00	11100	233	-55.3	-60.6	246	13	1.9
2025-11-05T12:00	11150	231	-55.5	-61.1	246	13	1.9
2025-11-05T12:00	11200	229	-56.0	-61.6	245	13	1.9
2025-11-05T12:00	11250	228	-56.5	-61.9	246	12	1.9
2025-11-05T12:00	11300	226	-56.9	-62.1	247	11	1.8
2025-11-05T12:00	11350	224	-57.2	-62.0	245	11	1.8
2025-11-05T12:00	11400	222	-57.4	-61.9	242	11	1.8
2025-11-05T12:00	11450	221	-57.4	-63.1	241	12	1.8
2025-11-05T12:00	11500	219	-57.0	-67.1	243	12	1.9
2025-11-05T12:00	11550	217	-57.0	-69.2	243	12	1.9
2025-11-05T12:00	11600	215	-57.2	-69.1	240	11	2.0
2025-11-05T12:00	11650	214	-57.0	-69.6	236	11	2.0
2025-11-05T12:00	11700	212	-57.1	-70.7	235	11	2.1
2025-11-05T12:00	11750	210	-57.3	-71.7	237	11	2.3
2025-11-05T12:00	11800	209	-57.5	-72.2	243	11	2.5
2025-11-05T12:00	11850	207	-57.8	-72.3	248	11	2.7
2025-11-05T12:00	11900	206	-58.0	-73.0	247	11	2.8
2025-11-05T12:00	11950	204	-58.2	-73.5	243	11	2.9
2025-11-05T12:00	12000	202	-58.3	-74.0	240	12	3.0
2025-11-05T12:00	12050	201	-58.5	-74.5	239	13	3.2
2025-11-05T12:00	12100	199	-58.5	-75.0	241	13	3.3
2025-11-05T12:00	12150	197	-58.6	-75.4	245	14	3.4
2025-11-05T12:00	12200	196	-58.4	-75.3	247	14	3.5
2025-11-05T12:00	12250	194	-58.2	-75.3	245	14	3.5
2025-11-05T12:00	12300	193	-57.5	-75.8	242	15	3.2
2025-11-05T12:00	12350	191	-57.2	-76.3	240	16	3.1
2025-11-05T12:00	12400	190	-56.9	-75.9	241	16	2.9
2025-11-05T12:00	12450	188	-56.9	-75.0	242	16	2.8
2025-11-05T12:00	12500	187	-57.2	-74.6	241	15	2.6
2025-11-05T12:00	12550	185	-57.6	-74.6	243	14	2.4
2025-11-05T12:00	12600	184	-57.8	-74.7	246	13	2.3
2025-11-05T12:00	12650	182	-58.1	-74.8	247	13	2.3
2025-11-05T12:00	12700	181	-58.4	-75.0	248	13	2.3
2025-11-05T12:00	12750	180	-58.6	-75.1	250	14	2.2
2025-11-05T12:00	12800	178	-59.0	-75.1	251	14	2.2
2025-11-05T12:00	12850	177	-59.5	-75.2	253	15	2.2
2025-11-05T12:00	12900	175	-60.0	-75.2	256	16	2.2
2025-11-05T12:00	12950	174	-60.4	-75.6	259	17	2.2
2025-11-05T12:00	13000	172	-60.4	-76.4	258	18	2.2
2025-11-05T12:00	13050	171	-59.5	-77.0	254	19	2.2
2025-11-05T12:00	13100	170	-59.1	-77.5	251	18	2.2
2025-11-05T12:00	13150	168	-59.0	-78.0	252	17	2.1
2025-11-05T12:00	13200	167	-59.0	-78.6	254	16	2.1
2025-11-05T12:00	13250	166	-58.8	-79.2	256	15	2.1
2025-11-05T12:00	13300	164	-59.0	-79.8	253	13	2.1
2025-11-05T12:00	13350	163	-58.9	-79.7	249	12	2.2
2025-11-05T12:00	13400	162	-59.1	-80.0	246	12	2.2
2025-11-05T12:00	13450	161	-59.2	-79.9	245	12	2.1
2025-11-05T12:00	13500	159	-59.4	-80.0	245	12	2.0
2025-11-05T12:00	13550	158	-59.3	-80.4	248	12	2.0
2025-11-05T12:00	13600	157	-59.2	-80.7	250	12	1.9
2025-11-05T12:00	13650	155	-59.2	-80.9	251	13	1.9
2025-11-05T12:00	13700	154	-59.3	-81.0	253	14	1.9
2025-11-05T12:00	13750	153	-59.7	-81.3	257	14	1.9
2025-11-05T12:00	13800	152	-59.7	-81.8	260	15	1.9
2025-11-05T12:00	13850	150	-59.0	-82.2	262	16	1.9
2025-11-05T12:00	13900	149	-58.9	-82.8	262	17	1.8
2025-11-05T12:00	13950	148	-58.9	-82.9	263	18	1.7
2025-11-05T12:00	14000	147	-59.0	-82.9	264	18	1.6
2025-11-05T12:00	14050	146	-59.3	-83.2	266	18	1.5
2025-11-05T12:00	14100	145	-59.3	-83.3	268	17	1.5
2025-11-05T12:00	14150	144	-59.1	-83.3	270	15	1.5
2025-11-05T12:00	14200	142	-59.4	-83.3	271	14	1.5
2025-11-05T12:00	14250	141	-59.7	-83.3	271	14	1.5
2025-11-05T12:00	14300	140	-60.1	-83.4	272	14	1.5
2025-11-05T12:00	14350	139	-60.6	-83.5	273	14	1.5
2025-11-05T12:00	14400	138	-61.0	-83.6	275	14	1.5
2025-11-05T12:00	14450	137	-61.4	-83.7	275	13	1.5
2025-11-05T12:00	14500	136	-61.8	-83.8	273	13	1.5
2025-11-05T12:00	14550	135	-62.2	-83.9	273	12	1.5
2025-11-05T12:00	14600	133	-62.6	-84.0	275	12	1.5
2025-11-05T12:00	14650	132	-62.9	-84.2	277	11	1.5
2025-11-05T12:00	14700	131	-63.3	-84.3	277	11	1.5
2025-11-05T12:00	14750	130	-63.6	-84.3	277	10	1.5
2025-11-05T12:00	14800	129	-63.9	-84.4	276	10	1.5
2025-11-05T12:00	14850	128	-64.3	-84.4	274	9	1.5
2025-11-05T12:00	14900	127	-64.6	-84.4	275	8	1.5
2025-11-05T12:00	14950	126	-64.8	-84.5	280	7	1.5
2025-11-05T12:00	15000	125	-65.0	-84.5	285	5	1.6
2025-11-05T12:00	15050	124	-64.8	-84.6	282	4	1.6
2025-11-05T12:00	15100	123	-64.8	-84.7	275	4	1.7
2025-11-05T12:00	15150	122	-64.9	-84.6	277	4	1.7
2025-11-05T12:00	15200	121	-65.2	-84.4	278	4	1.8
2025-11-05T12:00	15250	120	-65.5	-84.3	261	3	1.9
2025-11-05T12:00	15300	119	-65.7	-84.2	244	3	1.9
2025-11-05T12:00	15350	118	-66.0	-84.3	240	4	2.0
2025-11-05T12:00	15400	117	-66.3	-84.3	243	4	2.0
2025-11-05T12:00	15450	116	-66.6	-84.3	248	5	2.0
2025-11-05T12:00	15500	115	-66.9	-84.4	254	6	2.0
2025-11-05T12:00	15550	114	-67.2	-84.5	260	6	2.0
2025-11-05T12:00	15600	113	-67.3	-84.6	263	5	2.0
2025-11-05T12:00	15650	112	-67.2	-84.6	260	4	2.0
2025-11-05T12:00	15700	111	-67.1	-84.6	251	4	2.0
2025-11-05T12:00	15750	110	-67.2	-84.7	242	5	2.0
2025-11-05T12:00	15800	110	-67.1	-84.7	235	5	2.0
2025-11-05T12:00	15850	109	-66.7	-84.6	230	5	2.1
2025-11-05T12:00	15900	108	-66.9	-84.6	225	5	2.1
2025-11-05T12:00	15950	107	-67.3	-84.7	222	6	2.1
2025-11-05T12:00	16000	106	-67.7	-84.8	221	6	2.1
2025-11-05T12:00	16050	105	-67.9	-84.8	216	6	2.1
2025-11-05T12:00	16100	104	-68.1	-84.9	212	7	2.1
2025-11-05T12:00	16150	103	-68.2	-84.8	211	8	2.1
2025-11-05T12:00	16200	103	-68.6	-85.0	212	8	2.1
2025-11-05T12:00	16250	102	-68.4	-85.0	214	9	2.1
2025-11-05T12:00	16300	101	-68.3	-85.1	217	8	2.1
2025-11-05T12:00	16350	100	-68.3	-85.1	220	8	2.1
2025-11-05T12:00	16400	99	-68.3	-85.1	220	8	2.1
2025-11-05T12:00	16450	98	-68.5	-85.1	221	8	2.2
2025-11-05T12:00	16500	98	-68.7	-85.3	222	8	2.2
2025-11-05T12:00	16550	97	-68.4	-85.2	224	8	2.2
2025-11-05T12:00	16600	96	-68.4	-85.4	226	7	2.3
2025-11-05T12:00	16650	95	-67.9	-85.4	231	7	2.4
2025-11-05T12:00	16700	94	-67.4	-85.3	235	7	2.6
2025-11-05T12:00	16750	94	-67.7	-85.6	241	7	3.0
2025-11-05T12:00	16800	93	-67.9	-85.8	250	6	3.2
2025-11-05T12:00	16850	92	-67.5	-85.8	251	6	3.6
2025-11-05T12:00	16900	91	-67.3	-85.9	242	5	4.0
2025-11-05T12:00	16950	90	-67.1	-85.9	233	6	4.2
2025-11-05T12:00	17000	90	-67.1	-85.8	230	7	4.3
2025-11-05T12:00	17050	89	-67.4	-85.9	230	8	4.1
2025-11-05T12:00	17100	88	-67.8	-86.0	231	9	3.9
2025-11-05T12:00	17150	88	-67.8	-86.0	235	10	3.7
2025-11-05T12:00	17200	87	-67.6	-86.0	241	10	3.7
2025-11-05T12:00	17250	86	-67.8	-86.1	244	9	3.8
2025-11-05T12:00	17300	85	-67.9	-86.2	246	8	3.8
2025-11-05T12:00	17350	85	-67.9	-86.3	245	8	3.9
2025-11-05T12:00	17400	84	-67.8	-86.3	243	9	4.0
2025-11-05T12:00	17450	83	-67.8	-86.4	240	10	4.2
2025-11-05T12:00	17500	83	-67.9	-86.7	238	11	4.4
2025-11-05T12:00	17550	82	-67.6	-86.6	238	11	4.8
2025-11-05T12:00	17600	81	-67.8	-86.8	240	11	5.4
2025-11-05T12:00	17650	81	-68.0	-86.8	241	11	5.7
2025-11-05T12:00	17700	80	-68.3	-87.0	241	10	5.8
2025-11-05T12:00	17750	79	-68.0	-87.0	243	9	5.8
2025-11-05T12:00	17800	79	-67.7	-87.0	248	8	6.0
2025-11-05T12:00	17850	78	-67.6	-87.1	258	7	6.1
2025-11-05T12:00	17900	77	-67.6	-87.3	270	7	6.2
2025-11-05T12:00	17950	77	-67.2	-87.2	281	6	6.5
2025-11-05T12:00	18000	76	-67.1	-87.3	290	5	7.0
2025-11-05T12:00	18050	75	-67.2	-87.4	303	4	7.5
2025-11-05T12:00	18100	75	-67.3	-87.4	317	4	7.8
2025-11-05T12:00	18150	74	-67.3	-87.4	326	3	7.7
2025-11-05T12:00	18200	74	-67.6	-87.5	328	3	7.6
2025-11-05T12:00	18250	73	-67.8	-87.6	326	2	7.5
2025-11-05T12:00	18300	72	-67.7	-87.8	320	2	7.4
2025-11-05T12:00	18350	72	-67.3	-87.7	313	2	7.4
2025-11-05T12:00	18400	71	-67.2	-87.7	307	3	7.6
2025-11-05T12:00	18450	71	-67.2	-87.9	304	4	7.8
2025-11-05T12:00	18500	70	-66.9	-87.8	305	3	8.1
2025-11-05T12:00	18550	69	-66.6	-87.7	320	2	8.6
2025-11-05T12:00	18600	69	-66.6	-87.7	13	1	9.0
2025-11-05T12:00	18650	68	-66.5	-87.7	63	1	9.3
2025-11-05T12:00	18700	68	-66.6	-87.8	113	1	9.6
2025-11-05T12:00	18750	67	-66.7	-87.7	145	2	9.7
2025-11-05T12:00	18800	67	-66.6	-87.7	157	3	9.8
2025-11-05T12:00	18850	66	-66.7	-87.8	162	4	10.0
2025-11-05T12:00	18900	65	-66.7	-87.8	166	5	10.2
2025-11-05T12:00	18950	65	-66.8	-87.8	169	5	10.2
2025-11-05T12:00	19000	64	-66.9	-87.9	174	6	10.2
2025-11-05T12:00	19050	64	-67.1	-87.9	181	6	10.1
2025-11-05T12:00	19100	63	-67.1	-88.0	194	6	10.1
2025-11-05T12:00	19150	63	-67.2	-88.2	207	6	9.9
2025-11-05T12:00	19200	62	-67.0	-88.3	210	7	9.7
2025-11-05T12:00	19250	62	-66.5	-88.2	212	8	9.5
2025-11-05T12:00	19300	61	-66.3	-88.3	219	9	9.4
2025-11-05T12:00	19350	61	-65.8	-88.0	229	8	9.5
2025-11-05T12:00	19400	60	-65.9	-88.1	241	8	9.8
2025-11-05T12:00	19450	60	-66.0	-88.0	252	8	9.9
2025-11-05T12:00	19500	59	-66.1	-88.0	258	8	9.9
2025-11-05T12:00	19550	59	-66.1	-88.1	258	8	9.8
2025-11-05T12:00	19600	58	-66.1	-88.2	261	8	9.8
2025-11-05T12:00	19650	58	-66.0	-88.1	265	9	9.8
2025-11-05T12:00	19700	57	-66.1	-88.1	270	9	9.9
2025-11-05T12:00	19750	57	-66.2	-88.1	274	9	10.0
2025-11-05T12:00	19800	56	-66.3	-88.2	276	8	10.0
2025-11-05T12:00	19850	56	-66.5	-88.3	278	7	10.0
2025-11-05T12:00	19900	55	-66.5	-88.3	281	6	10.0
2025-11-05T12:00	19950	55	-66.4	-88.2	283	5	10.1
2025-11-05T12:00	20000	55	-66.7	-88.3	278	5	10.3
2025-11-05T12:00	20050	54	-66.8		268	5	10.4
2025-11-05T12:00	20100	54	-67.0		263	6	10.5
2025-11-05T12:00	20150	53	-67.0		264	7	10.6
2025-11-05T12:00	20200	53	-66.8		267	6	10.6
2025-11-05T12:00	20250	52	-66.7		268	5	10.5
2025-11-05T12:00	20300	52	-66.7		263	4	10.6
2025-11-05T12:00	20350	52	-66.7		249	4	10.6
2025-11-05T12:00	20400	51	-66.8		234	4	10.7
2025-11-05T12:00	20450	51	-66.6		227	5	10.6
2025-11-05T12:00	20500	50	-66.4		231	5	10.6
2025-11-05T12:00	20550	50	-66.0		241	6	10.6
2025-11-05T12:00	20600	49	-65.9		250	7	10.7
2025-11-05T12:00	20650	49	-65.8		255	8	10.7
2025-11-05T12:00	20700	49	-65.5		257	8	10.6
2025-11-05T12:00	20750	48	-65.3		259	8	10.6
2025-11-05T12:00	20800	48	-65.1		260	8	10.6
2025-11-05T12:00	20850	47	-64.9		264	7	10.8
2025-11-05T12:00	20900	47	-64.7		269	6	11.1
2025-11-05T12:00	20950	47	-64.9		272	7	11.4
2025-11-05T12:00	21000	46	-65.0		275	8	11.6
2025-11-05T12:00	21050	46	-65.3		280	9	11.7
2025-11-05T12:00	21100	46	-65.5		285	9	11.8
2025-11-05T12:00	21150	45	-65.4		288	9	11.8
2025-11-05T12:00	21200	45	-65.5		289	9	11.8
2025-11-05T12:00	21250	44	-65.9		291	9	11.8
2025-11-05T12:00	21300	44	-65.9		294	10	11.7
2025-11-05T12:00	21350	44	-65.9		300	9	11.6
2025-11-05T12:00	21400	43	-66.0		307	9	11.6
2025-11-05T12:00	21450	43	-66.2		314	8	11.6
2025-11-05T12:00	21500	43	-66.4		321	8	11.5
2025-11-05T12:00	21550	42	-66.5		330	7	11.5
2025-11-05T12:00	21600	42	-66.3		340	7	11.5
2025-11-05T12:00	21650	42	-65.8		349	5	11.6
2025-11-05T12:00	21700	41	-65.4		354	3	11.6
2025-11-05T12:00	21750	41	-65.1		330	2	11.6
2025-11-05T12:00	21800	41	-65.1		284	2	11.7
2025-11-05T12:00	21850	40	-65.0		275	2	11.8
2025-11-05T12:00	21900	40	-64.9		280	3	12.0
2025-11-05T12:00	21950	40	-64.8		281	3	12.0
2025-11-05T12:00	22000	39	-64.8		278	3	12.1
2025-11-05T12:00	22050	39	-64.9		282	4	12.1
2025-11-05T12:00	22100	39	-64.5		290	4	12.2
2025-11-05T12:00	22150	38	-64.6		299	4	12.4
2025-11-05T12:00	22200	38	-64.7		312	4	12.5
2025-11-05T12:00	22250	38	-64.7		328	4	12.6
2025-11-05T12:00	22300	37	-64.9		337	3	12.7
2025-11-05T12:00	22350	37	-65.0		309	1	12.6
2025-11-05T12:00	22400	37	-64.9		223	1	12.6
2025-11-05T12:00	22450	36	-64.6		206	2	12.7
2025-11-05T12:00	22500	36	-64.5		200	3	12.8
2025-11-05T12:00	22550	36	-64.6		195	3	12.8
2025-11-05T12:00	22600	36	-64.7		193	3	12.8
2025-11-05T12:00	22650	35	-64.4		200	3	12.9
2025-11-05T12:00	22700	35	-64.2		215	3	13.0
2025-11-05T12:00	22750	35	-64.2		232	3	13.0
2025-11-05T12:00	22800	34	-64.5		252	3	13.1
2025-11-05T12:00	22850	34	-64.7		263	3	13.1
2025-11-05T12:00	22900	34	-64.7		259	4	13.2
2025-11-05T12:00	22950	34	-64.6		242	3	13.3
2025-11-05T12:00	23000	33	-64.6		226	3	13.2
2025-11-05T12:00	23050	33	-64.6		226	3	13.3
2025-11-05T12:00	23100	33	-64.7		234	4	13.3
2025-11-05T12:00	23150	33	-64.6		241	4	13.3
2025-11-05T12:00	23200	32	-64.6		250	5	13.3
2025-11-05T12:00	23250	32	-64.5		261	5	13.4
2025-11-05T12:00	23300	32	-64.3		271	5	13.4
2025-11-05T12:00	23350	31	-63.9		283	6	13.5
2025-11-05T12:00	23400	31	-63.7		291	6	13.5
2025-11-05T12:00	23450	31	-63.4		292	6	13.5
2025-11-05T12:00	23500	31	-63.0		284	5	13.6
2025-11-05T12:00	23550	30	-63.1		271	4	13.6
2025-11-05T12:00	23600	30	-63.3		257	4	13.7
2025-11-05T12:00	23650	30	-63.5		241	3	13.7
2025-11-05T12:00	23700	30	-63.8		221	3	13.7
2025-11-05T12:00	23750	29	-63.8		218	4	13.6
2025-11-05T12:00	23800	29	-63.8		225	5	13.6
2025-11-05T12:00	23850	29	-63.9		232	5	13.6
2025-11-05T12:00	23900	29	-63.9		234	6	13.5
2025-11-05T12:00	23950	29	-63.9		234	6	13.5
2025-11-05T12:00	24000	28	-64.0		236	6	13.5
2025-11-05T12:00	24050	28	-64.0		240	7	13.5
2025-11-05T12:00	24100	28	-63.9		244	7	13.4
2025-11-05T12:00	24150	28	-63.8		248	8	13.4
2025-11-05T12:00	24200	27	-64.0		253	9	13.3
2025-11-05T12:00	24250	27	-64.4		257	10	13.3
2025-11-05T12:00	24300	27	-64.7		259	10	13.3
2025-11-05T12:00	24350	27	-65.0		260	9	13.2
2025-11-05T12:00	24400	27	-65.2		258	9	13.2
2025-11-05T12:00	24450	26	-65.3		257	8	13.2
2025-11-05T12:00	24500	26	-65.2		261	7	13.1
2025-11-05T12:00	24550	26	-65.1		265	7	13.1
2025-11-05T12:00	24600	26	-64.9		268	6	13.1
2025-11-05T12:00	24650	25	-65.0		267	6	13.1
2025-11-05T12:00	24700	25	-65.1		264	6	13.0
2025-11-05T12:00	24750	25	-64.8		260	6	13.0
2025-11-05T12:00	24800	25	-64.8		261	6	13.0
2025-11-05T12:00	24850	25	-64.5		266	6	12.9
2025-11-05T12:00	24900	24	-64.0		269	6	12.8
2025-11-05T12:00	24950	24	-63.7		266	6	12.8
2025-11-05T12:00	25000	24	-63.4		262	6	12.7
2025-11-05T12:00	25050	24	-63.3		256	6	12.7
2025-11-05T12:00	25100	24	-63.7		252	7	12.7
2025-11-05T12:00	25150	23	-64.0		253	8	12.7
2025-11-05T12:00	25200	23	-64.2		257	8	12.6
2025-11-05T12:00	25250	23	-64.3		262	9	12.5
2025-11-05T12:00	25300	23	-64.3		265	9	12.5
2025-11-05T12:00	25350	23	-64.1		267	10	12.4
2025-11-05T12:00	25400	23	-63.8		268	10	12.3
2025-11-05T12:00	25450	22	-63.8		271	10	12.3
2025-11-05T12:00	25500	22	-63.8		275	11	12.2
2025-11-05T12:00	25550	22	-63.8		278	11	12.1
2025-11-05T12:00	25600	22	-63.7		279	11	11.9
2025-11-05T12:00	25650	22	-63.6		280	10	11.8
2025-11-05T12:00	25700	21	-63.7		281	9	11.9
2025-11-05T12:00	25750	21	-63.7		281	9	11.8
2025-11-05T12:00	25800	21	-63.6		278	9	11.9
2025-11-05T12:00	25850	21	-63.5		274	10	11.9
2025-11-05T12:00	25900	21	-63.6		271	11	11.9
2025-11-05T12:00	25950	21	-63.9		269	12	11.8
2025-11-05T12:00	26000	20	-63.9		270	12	11.8
2025-11-05T12:00	26050	20	-64.0		271	12	11.7
2025-11-05T12:00	26100	20	-64.2		271	11	11.5
2025-11-05T12:00	26150	20	-64.3		272	11	11.4
2025-11-05T12:00	26200	20	-64.3		272	11	11.4
2025-11-05T12:00	26250	20	-64.5		271	10	11.3
2025-11-05T12:00	26300	19	-64.6		269	9	11.3
2025-11-05T12:00	26350	19	-64.4		268	9	11.3
2025-11-05T12:00	26400	19	-63.9		270	9	11.2
2025-11-05T12:00	26450	19	-63.7		270	10	11.2
2025-11-05T12:00	26500	19	-63.8		268	10	11.3
2025-11-05T12:00	26550	19	-63.7		265	11	11.2
2025-11-05T12:00	26600	19	-63.3		263	11	11.2
2025-11-05T12:00	26650	18	-62.9		263	12	11.1
2025-11-05T12:00	26700	18	-62.8		263	11	11.0
2025-11-05T12:00	26750	18	-62.7		263	11	11.0
2025-11-05T12:00	26800	18	-62.3		262	11	10.9
2025-11-05T12:00	26850	18	-62.2		263	10	10.8
2025-11-05T12:00	26900	18	-62.2		267	10	10.8
2025-11-05T12:00	26950	17	-62.1		273	9	10.6
2025-11-05T12:00	27000	17	-62.1		280	8	10.5
2025-11-05T12:00	27050	17	-62.3		288	7	10.5
2025-11-05T12:00	27100	17	-62.6		291	7	10.5
2025-11-05T12:00	27150	17	-62.8		288	6	10.4
2025-11-05T12:00	27200	17	-63.0		277	5	10.3
2025-11-05T12:00	27250	17	-62.8		262	5	10.2
2025-11-05T12:00	27300	17	-62.6		250	6	10.1
2025-11-05T12:00	27350	16	-62.7		243	7	10.0
2025-11-05T12:00	27400	16	-62.7		240	8	9.9
2025-11-05T12:00	27450	16	-62.6		240	10	9.8
2025-11-05T12:00	27500	16	-62.6		243	11	9.7
2025-11-05T12:00	27550	16	-62.6		249	12	9.6
2025-11-05T12:00	27600	16	-62.6		256	13	9.5
2025-11-05T12:00	27650	16	-62.6		261	14	9.4
2025-11-05T12:00	27700	15	-62.7		266	16	9.3
2025-11-05T12:00	27750	15	-62.9		268	17	9.2
2025-11-05T12:00	27800	15	-62.8		270	19	9.1
2025-11-05T12:00	27850	15	-62.8		270	20	8.9
2025-11-05T12:00	27900	15	-62.6		271	20	8.8
2025-11-05T12:00	27950	15	-62.1		273	18	8.7
2025-11-05T12:00	28000	15	-62.1		275	16	8.8
2025-11-05T12:00	28050	15	-62.2		277	15	8.8
2025-11-05T12:00	28100	15	-62.4		278	14	8.8
2025-11-05T12:00	28150	14	-62.7		279	14	8.8
2025-11-05T12:00	28200	14	-62.6		278	13	8.7
2025-11-05T12:00	28250	14	-62.4		273	12	8.5
2025-11-05T12:00	28300	14	-62.4		267	12	8.3
2025-11-05T12:00	28350	14	-62.1		264	12	8.1
2025-11-05T12:00	28400	14	-62.0		265	13	8.0
2025-11-05T12:00	28450	14	-62.0		268	14	7.9
2025-11-05T12:00	28500	14	-61.9		271	15	7.7
2025-11-05T12:00	28550	13	-61.5		274	16	7.6
2025-11-05T12:00	28600	13	-61.5		274	16	7.7
2025-11-05T12:00	28650	13	-61.4		273	16	7.7
2025-11-05T12:00	28700	13	-61.4		274	16	7.8
2025-11-05T12:00	28750	13	-61.4		277	15	7.9
2025-11-05T12:00	28800	13	-61.4		281	16	7.9
2025-11-05T12:00	28850	13	-61.3		284	16	7.8
2025-11-05T12:00	28900	13	-61.3		284	16	7.7
2025-11-05T12:00	28950	13	-61.4		283	16	7.6
2025-11-05T12:00	29000	13	-61.4		282	15	7.5
2025-11-05T12:00	29050	12	-61.2		281	14	7.4
2025-11-05T12:00	29100	12	-61.0		277	14	7.4
2025-11-05T12:00	29150	12	-60.7		272	14	7.2
2025-11-05T12:00	29200	12	-60.1		267	14	7.1
2025-11-05T12:00	29250	12	-59.4		266	15	7.0
2025-11-05T12:00	29300	12	-59.1		268	16	6.9
2025-11-05T12:00	29350	12	-59.0		270	18	6.8
2025-11-05T12:00	29400	12	-58.8		272	19	6.8
2025-11-05T12:00	29450	12	-58.4		273	18	6.7
2025-11-05T12:00	29500	12	-58.1		272	18	6.7
2025-11-05T12:00	29550	11	-58.0		271	17	6.6
2025-11-05T12:00	29600	11	-57.7		269	17	6.5
2025-11-05T12:00	29650	11	-57.5		267	17	6.5
2025-11-05T12:00	29700	11	-57.6		264	17	6.5
2025-11-05T12:00	29750	11	-58.0		261	17	6.4
2025-11-05T12:00	29800	11	-58.0		257	18	6.4
2025-11-05T12:00	29850	11	-57.8		255	19	6.4
2025-11-05T12:00	29900	11	-57.6		256	20	6.3
2025-11-05T12:00	29950	11	-57.5		257	21	6.3
2025-11-05T12:00	30000	11	-57.3		257	22	6.2
2025-11-05T12:00	30050	11	-56.9		255	23	6.1
2025-11-05T12:00	30100	11	-56.8		255	23	6.0
2025-11-05T12:00	30150	10	-56.9		257	25	5.9
2025-11-05T12:00	30200	10	-56.5		260	26	5.9
2025-11-05T12:00	30250	10	-56.0		264	27	5.8
2025-11-05T12:00	30300	10	-55.8		266	28	5.8
2025-11-05T12:00	30350	10	-55.8		268	29	5.7
2025-11-05T12:00	30400	10	-55.9		268	30	5.7
2025-11-05T12:00	30450	10	-56.1		269	30	5.7
2025-11-05T12:00	30500	10	-56.2		270	30	5.6
2025-11-05T12:00	30550	10	-56.2		272	29	5.6
2025-11-05T12:00	30600	10	-56.3		272	28	5.5
2025-11-05T12:00	30650	10	-56.5		272	27	5.5
2025-11-05T12:00	30700	10	-56.5		271	27	5.4
2025-11-05T12:00	30750	10	-56.4		269	27	5.3
2025-11-05T12:00	30800	9	-56.2		266	28	5.3
2025-11-05T12:00	30850	9	-56.0		263	29	5.2
2025-11-05T12:00	30900	9	-55.8		262	29	5.1
2025-11-05T12:00	30950	9	-55.6		261	30	5.1
2025-11-05T12:00	31000	9	-55.1		260	31	5.0
2025-11-06T00:00	491	958	2.6	2.5	178	1	
2025-11-06T00:00	501	956	3.6	3.3	175	1	
2025-11-06T00:00	520	955	4.6	4.0	176	2	
2025-11-06T00:00	540	952	4.7	4.4	180	2	
2025-11-06T00:00	560	950	4.7	4.7	183	2	
2025-11-06T00:00	580	948	4.9	4.9	186	2	
2025-11-06T00:00	600	946	5.3	5.3	188	2	
2025-11-06T00:00	620	943	5.7	5.7	189	2	
2025-11-06T00:00	640	941	6.1	6.0	189	2	
2025-11-06T00:00	660	939	6.5	5.1	187	1	
2025-11-06T00:00	680	936	7.8	3.1	186	1	
2025-11-06T00:00	700	934	8.2	3.4	186	1	
2025-11-06T00:00	720	932	8.2	3.6	189	1	
2025-11-06T00:00	740	930	8.2	3.7	194	1	
2025-11-06T00:00	760	927	8.2	3.6	201	1	
2025-11-06T00:00	780	925	8.4	3.4	209	1	
2025-11-06T00:00	800	923	8.6	4.1	216	1	
2025-11-06T00:00	820	921	8.7	4.0	219	1	
2025-11-06T00:00	840	918	8.9	1.5	219	1	
2025-11-06T00:00	860	916	9.4	-1.0	219	2	
2025-11-06T00:00	880	914	9.7	-1.0	222	2	
2025-11-06T00:00	900	912	9.5	-0.1	226	2	
2025-11-06T00:00	920	910	9.4	0.2	231	2	
2025-11-06T00:00	940	908	9.5	0.5	237	2	
2025-11-06T00:00	960	905	9.6	0.3	243	2	
2025-11-06T00:00	980	903	9.6	0.1	246	2	
2025-11-06T00:00	1000	901	9.5	0.0	248	3	
2025-11-06T00:00	1020	899	9.6	0.0	247	3	
2025-11-06T00:00	1040	896	9.6	0.3	246	3	
2025-11-06T00:00	1060	894	9.6	0.0	243	3	
2025-11-06T00:00	1080	892	10.0	-1.3	239	3	
2025-11-06T00:00	1100	890	10.0	-1.4	234	3	
2025-11-06T00:00	1120	888	9.9	-1.6	228	3	
2025-11-06T00:00	1140	886	9.8	-2.2	221	2	
2025-11-06T00:00	1160	884	9.8	-2.8	211	2	
2025-11-06T00:00	1180	881	9.7	-3.3	198	2	
2025-11-06T00:00	1200	879	9.7	-3.7	183	2	
2025-11-06T00:00	1220	877	9.8	-4.0	170	1	
2025-11-06T00:00	1240	875	9.8	-3.2	158	2	
2025-11-06T00:00	1260	873	9.6	-2.6	149	2	
2025-11-06T00:00	1280	871	9.8	-3.4	144	2	
2025-11-06T00:00	1300	869	10.3	-4.6	139	2	
2025-11-06T00:00	1320	867	10.6	-4.9	137	2	
2025-11-06T00:00	1340	865	10.7	-4.3	135	2	
2025-11-06T00:00	1360	863	11.3	-5.1	134	3	
2025-11-06T00:00	1380	861	11.8	-4.9	132	3	
2025-11-06T00:00	1400	859	12.2	-6.4	131	3	
2025-11-06T00:00	1420	857	12.3	-7.0	129	3	
2025-11-06T00:00	1440	854	12.6	-8.7	126	4	
2025-11-06T00:00	1460	853	13.0	-10.0	125	4	
2025-11-06T00:00	1480	850	13.4	-10.0	123	5	
2025-11-06T00:00	1500	848	13.3	-10.5	122	5	
2025-11-06T00:00	1520	846	13.5	-12.3	121	5	
2025-11-06T00:00	1540	844	14.5	-15.4	120	5	
2025-11-06T00:00	1560	843	15.1	-16.2	118	5	
2025-11-06T00:00	1580	841	15.3	-15.7	115	5	
2025-11-06T00:00	1600	838	15.4	-14.6	111	5	
2025-11-06T00:00	1620	836	15.3	-14.2	108	5	
2025-11-06T00:00	1640	834	15.2	-14.0	106	4	
2025-11-06T00:00	1660	833	15.1	-13.6	106	4	
2025-11-06T00:00	1680	830	14.9	-13.4	108	4	
2025-11-06T00:00	1700	828	14.8	-13.4	112	3	
2025-11-06T00:00	1720	827	14.6	-13.8	117	3	
2025-11-06T00:00	1740	824	14.4	-14.1	121	3	
2025-11-06T00:00	1760	823	14.2	-14.4	123	3	
2025-11-06T00:00	1780	821	14.1	-14.4	123	3	
2025-11-06T00:00	1800	819	13.9	-14.5	123	4	
2025-11-06T00:00	1820	817	13.8	-14.8	122	4	
2025-11-06T00:00	1840	815	13.7	-14.9	122	4	
2025-11-06T00:00	1860	813	13.6	-15.0	123	4	
2025-11-06T00:00	1880	811	13.4	-15.3	125	4	
2025-11-06T00:00	1900	809	13.2	-15.7	128	4	
2025-11-06T00:00	1920	807	13.1	-16.4	130	4	
2025-11-06T00:00	1940	805	13.0	-17.9	134	4	
2025-11-06T00:00	1960	803	12.9	-18.2	139	4	
2025-11-06T00:00	1980	802	12.7	-18.3	146	3	
2025-11-06T00:00	2000	800	12.6	-18.7	156	3	
2025-11-06T00:00	2020	797	12.4	-19.7	174	2	
2025-11-06T00:00	2040	795	12.3	-20.5	190	2	
2025-11-06T00:00	2060	794	12.2	-20.9	201	2	
2025-11-06T00:00	2080	792	12.0	-21.5	206	3	
2025-11-06T00:00	2100	790	12.0	-22.6	206	3	
2025-11-06T00:00	2120	788	11.9	-23.1	204	3	
2025-11-06T00:00	2140	786	11.8	-23.5	201	3	
2025-11-06T00:00	2160	784	11.7	-23.7	200	4	
2025-11-06T00:00	2180	783	11.6	-23.7	200	4	
2025-11-06T00:00	2200	780	11.4	-23.9	202	4	
2025-11-06T00:00	2220	778	11.2	-24.0	205	4	
2025-11-06T00:00	2240	777	11.0	-24.0	209	5	
2025-11-06T00:00	2260	775	10.9	-24.2	213	5	
2025-11-06T00:00	2280	773	10.8	-24.5	218	6	
2025-11-06T00:00	2300	771	10.7	-25.0	223	6	
2025-11-06T00:00	2320	769	10.7	-25.3	226	7	
2025-11-06T00:00	2340	768	10.7	-25.8	228	7	
2025-11-06T00:00	2360	766	10.6	-26.3	230	8	
2025-11-06T00:00	2380	764	10.5	-26.9	230	8	
2025-11-06T00:00	2400	762	10.4	-27.2	230	8	
2025-11-06T00:00	2420	760	10.2	-27.3	230	8	
2025-11-06T00:00	2440	759	10.1	-27.5	229	8	
2025-11-06T00:00	2460	757	9.9	-27.6	227	8	
2025-11-06T00:00	2480	755	9.7	-27.6	226	7	
2025-11-06T00:00	2500	753	9.5	-27.7	224	7	
2025-11-06T00:00	2520	751	9.3	-27.7	223	7	
2025-11-06T00:00	2540	749	9.2	-27.7	223	8	
2025-11-06T00:00	2560	748	9.0	-27.8	224	8	
2025-11-06T00:00	2580	746	8.8	-27.9	225	8	
2025-11-06T00:00	2600	744	8.6	-27.9	226	9	
2025-11-06T00:00	2620	742	8.4	-28.0	228	9	
2025-11-06T00:00	2640	740	8.2	-28.0	230	10	
2025-11-06T00:00	2660	738	8.0	-28.0	232	10	
2025-11-06T00:00	2680	737	7.9	-28.2	233	10	
2025-11-06T00:00	2700	735	7.7	-28.5	234	10	
2025-11-06T00:00	2720	733	7.7	-29.0	232	11	
2025-11-06T00:00	2740	731	7.6	-29.4	230	10	
2025-11-06T00:00	2760	730	7.5	-29.8	228	10	
2025-11-06T00:00	2780	728	7.5	-30.2	225	10	
2025-11-06T00:00	2800	726	7.3	-30.3	223	10	
2025-11-06T00:00	2820	724	7.2	-30.3	222	10	
2025-11-06T00:00	2840	722	7.0	-30.2	222	10	
2025-11-06T00:00	2860	721	6.8	-30.4	222	10	
2025-11-06T00:00	2880	719	6.6	-30.5	222	10	
2025-11-06T00:00	2900	717	6.5	-30.7	223	10	
2025-11-06T00:00	2920	715	6.3	-30.8	223	10	
2025-11-06T00:00	2940	714	6.2	-30.8	223	10	
2025-11-06T00:00	2960	712	6.0	-31.0	223	10	
2025-11-06T00:00	2980	710	5.8	-31.2	223	11	
2025-11-06T00:00	3000	708	5.7	-31.3	222	11	
2025-11-06T00:00	3020	707	5.5	-31.4	222	11	
2025-11-06T00:00	3040	705	5.4	-31.6	221	11	
2025-11-06T00:00	3060	703	5.2	-31.9	220	11	
2025-11-06T00:00	3080	702	5.1	-32.0	219	11	
2025-11-06T00:00	3100	700	4.9	-31.9	217	11	
2025-11-06T00:00	3120	698	4.7	-31.8	215	11	
2025-11-06T00:00	3140	697	4.5	-31.8	214	11	
2025-11-06T00:00	3160	695	4.3	-31.6	212	11	
2025-11-06T00:00	3180	693	4.2	-31.7	211	11	
2025-11-06T00:00	3200	691	4.0	-31.9	211	11	
2025-11-06T00:00	3220	689	3.8	-32.5	211	10	
2025-11-06T00:00	3240	688	3.7	-32.5	211	10	
2025-11-06T00:00	3260	686	3.6	-32.7	211	10	
2025-11-06T00:00	3280	685	3.4	-32.8	210	10	
2025-11-06T00:00	3300	683	3.2	-32.8	209	10	
2025-11-06T00:00	3320	681	3.1	-33.0	208	10	
2025-11-06T00:00	3340	679	2.9	-33.2	206	10	
2025-11-06T00:00	3360	678	2.8	-33.3	205	10	
2025-11-06T00:00	3380	676	2.7	-33.5	203	10	
2025-11-06T00:00	3400	674	2.6	-33.1	203	10	
2025-11-06T00:00	3420	673	2.5	-32.9	203	11	
2025-11-06T00:00	3440	671	2.3	-33.0	204	11	
2025-11-06T00:00	3460	669	2.2	-32.6	204	11	
2025-11-06T00:00	3480	668	2.0	-32.7	204	11	
2025-11-06T00:00	3500	666	1.9	-32.5	204	11	
2025-11-06T00:00	3520	664	1.8	-32.3	204	11	
2025-11-06T00:00	3540	663	1.7	-32.2	204	11	
2025-11-06T00:00	3560	661	1.6	-31.9	203	11	
2025-11-06T00:00	3580	659	1.5	-32.0	203	11	
2025-11-06T00:00	3600	658	1.4	-32.1	203	11	
2025-11-06T00:00	3620	656	1.2	-32.4	203	11	
2025-11-06T00:00	3640	655	1.0	-32.5	203	11	
2025-11-06T00:00	3660	653	0.9	-33.2	202	11	
2025-11-06T00:00	3680	651	0.8	-33.5	201	11	
2025-11-06T00:00	3700	650	0.6	-33.6	200	11	
2025-11-06T00:00	3720	648	0.4	-33.8	199	11	
2025-11-06T00:00	3740	646	0.2	-33.8	199	11	
2025-11-06T00:00	3760	645	0.0	-33.8	200	10	
2025-11-06T00:00	3780	643	-0.2	-34.1	203	10	
2025-11-06T00:00	3800	642	-0.3	-34.9	206	11	
2025-11-06T00:00	3820	640	-0.5	-35.5	210	11	
2025-11-06T00:00	3840	638	-0.6	-36.0	213	11	
2025-11-06T00:00	3860	637	-0.6	-36.3	216	12	
2025-11-06T00:00	3880	635	-0.8	-36.6	217	12	
2025-11-06T00:00	3900	634	-1.0	-36.7	218	13	
2025-11-06T00:00	3920	632	-1.1	-36.8	218	13	
2025-11-06T00:00	3940	630	-1.3	-36.8	218	13	
2025-11-06T00:00	3960	629	-1.4	-36.8	217	13	
2025-11-06T00:00	3980	627	-1.6	-36.8	217	14	
2025-11-06T00:00	4000	626	-1.8	-36.8	216	14	
2025-11-06T00:00	4020	624	-1.9	-36.7	216	14	
2025-11-06T00:00	4040	623	-2.0	-36.2	216	14	
2025-11-06T00:00	4060	621	-2.2	-35.6	216	14	
2025-11-06T00:00	4080	620	-2.3	-34.9	216	13	
2025-11-06T00:00	4100	618	-2.4	-34.6	215	13	
2025-11-06T00:00	4120	616	-2.6	-34.6	214	13	
2025-11-06T00:00	4140	615	-2.7	-34.3	213	12	
2025-11-06T00:00	4160	613	-2.9	-34.3	212	12	
2025-11-06T00:00	4180	612	-3.0	-34.1	211	12	
2025-11-06T00:00	4200	610	-3.2	-34.0	211	12	
2025-11-06T00:00	4220	608	-3.4	-34.0	211	12	
2025-11-06T00:00	4240	607	-3.5	-34.0	211	12	
2025-11-06T00:00	4260	606	-3.7	-34.0	211	12	
2025-11-06T00:00	4280	604	-3.9	-34.0	212	12	
2025-11-06T00:00	4300	602	-4.1	-33.9	211	12	
2025-11-06T00:00	4320	601	-4.2	-33.9	210	12	
2025-11-06T00:00	4340	599	-4.4	-33.9	209	12	
2025-11-06T00:00	4360	598	-4.5	-33.7	208	12	
2025-11-06T00:00	4380	596	-4.6	-34.2	207	12	
2025-11-06T00:00	4400	595	-4.7	-34.4	206	13	
2025-11-06T00:00	4420	593	-4.9	-34.3	206	13	
2025-11-06T00:00	4440	592	-5.0	-34.4	206	13	
2025-11-06T00:00	4460	590	-5.2	-34.7	206	13	
2025-11-06T00:00	4480	589	-5.4	-35.4	206	13	
2025-11-06T00:00	4500	587	-5.5	-36.5	206	13	
2025-11-06T00:00	4520	586	-5.6	-37.2	206	13	
2025-11-06T00:00	4540	584	-5.8	-37.4	206	13	
2025-11-06T00:00	4560	583	-5.9	-37.8	206	13	
2025-11-06T00:00	4580	581	-6.1	-39.3	207	13	
2025-11-06T00:00	4600	580	-6.2	-40.3	207	13	
2025-11-06T00:00	4620	578	-6.3	-40.7	207	13	
2025-11-06T00:00	4640	577	-6.4	-41.0	208	14	
2025-11-06T00:00	4660	575	-6.6	-41.3	208	14	
2025-11-06T00:00	4680	574	-6.7	-41.3	208	14	
2025-11-06T00:00	4700	573	-6.9	-41.2	208	14	
2025-11-06T00:00	4720	571	-7.1	-41.7	208	14	
2025-11-06T00:00	4740	570	-7.2	-42.9	207	14	
2025-11-06T00:00	4760	568	-7.2	-44.6	206	14	
2025-11-06T00:00	4780	566	-7.3	-45.5	206	14	
2025-11-06T00:00	4800	565	-7.3	-45.9	206	14	
2025-11-06T00:00	4820	564	-7.4	-46.0	206	14	
2025-11-06T00:00	4840	562	-7.5	-45.9	206	14	
2025-11-06T00:00	4860	561	-7.6	-45.8	205	14	
2025-11-06T00:00	4880	559	-7.7	-45.3	205	14	
2025-11-06T00:00	4900	558	-7.8	-45.0	204	14	
2025-11-06T00:00	4920	556	-7.9	-45.1	204	14	
2025-11-06T00:00	4940	555	-8.1	-45.1	203	13	
2025-11-06T00:00	4960	554	-8.2	-45.0	203	13	
2025-11-06T00:00	4980	552	-8.3	-44.8	204	13	
2025-11-06T00:00	5000	551	-8.5	-45.0	205	13	
2025-11-06T00:00	5020	549	-8.6	-45.2	205	13	
2025-11-06T00:00	5040	548	-8.7	-45.7	205	13	
2025-11-06T00:00	5060	547	-8.9	-45.8	205	13	
2025-11-06T00:00	5080	545	-9.0	-45.7	205	14	
2025-11-06T00:00	5100	544	-9.0	-44.4	204	14	
2025-11-06T00:00	5120	542	-9.1	-43.5	204	14	
2025-11-06T00:00	5140	541	-9.3	-43.2	204	14	
2025-11-06T00:00	5160	540	-9.4	-43.0	204	14	
2025-11-06T00:00	5180	538	-9.5	-43.0	205	14	
2025-11-06T00:00	5200	537	-9.7	-43.2	205	14	
2025-11-06T00:00	5220	535	-9.8	-43.2	206	13	
2025-11-06T00:00	5240	534	-9.9	-43.4	205	12	
2025-11-06T00:00	5260	533	-10.1	-43.5	205	11	
2025-11-06T00:00	5280	531	-10.3	-43.6	204	10	
2025-11-06T00:00	5300	530	-10.4	-44.2	204	10	
2025-11-06T00:00	5320	528	-10.6	-44.6	203	10	
2025-11-06T00:00	5340	527	-10.8	-44.6	203	9	
2025-11-06T00:00	5360	525	-10.9	-44.5	202	9	
2025-11-06T00:00	5380	524	-11.1	-44.8	202	9	
2025-11-06T00:00	5400	523	-11.2	-45.4	202	10	
2025-11-06T00:00	5420	522	-11.3	-46.2	201	10	
2025-11-06T00:00	5440	520	-11.4	-45.5	200	10	
2025-11-06T00:00	5460	519	-11.4	-38.6	198	11	
2025-11-06T00:00	5480	517	-11.5	-36.0	197	11	
2025-11-06T00:00	5500	516	-11.7	-35.1	197	12	
2025-11-06T00:00	5520	515	-11.8	-33.7	196	12	
2025-11-06T00:00	5540	513	-12.0	-31.0	197	12	
2025-11-06T00:00	5560	512	-12.1	-30.5	197	12	
2025-11-06T00:00	5580	511	-12.3	-30.0	199	12	
2025-11-06T00:00	5600	509	-12.6	-29.9	200	12	
2025-11-06T00:00	5620	508	-12.7	-30.0	201	11	
2025-11-06T00:00	5640	507	-12.9	-30.9	201	11	
2025-11-06T00:00	5660	505	-13.1	-32.0	200	11	
2025-11-06T00:00	5680	504	-13.2	-32.4	198	11	
2025-11-06T00:00	5700	503	-13.4	-33.0	196	11	
2025-11-06T00:00	5720	502	-13.6	-33.7	194	11	
2025-11-06T00:00	5740	500	-13.8	-34.6	191	11	
2025-11-06T00:00	5760	499	-14.0	-35.4	190	11	
2025-11-06T00:00	5780	498	-14.1	-37.8	190	12	
2025-11-06T00:00	5800	496	-14.2	-39.7	190	12	
2025-11-06T00:00	5820	495	-14.3	-40.9	189	12	
2025-11-06T00:00	5840	494	-14.3	-35.3	189	11	
2025-11-06T00:00	5860	492	-14.5	-28.9	188	11	
2025-11-06T00:00	5880	491	-14.6	-29.8	187	11	
2025-11-06T00:00	5900	490	-14.8	-33.5	186	11	
2025-11-06T00:00	5920	488	-15.0	-32.6	185	11	
2025-11-06T00:00	5940	487	-15.1	-32.1	185	11	
2025-11-06T00:00	5960	486	-15.3	-31.3	187	12	
2025-11-06T00:00	5980	485	-15.5	-30.6	189	12	
2025-11-06T00:00	6000	483	-15.7	-30.4	190	12	
2025-11-06T00:00	6020	482	-15.8	-30.4	192	12	
2025-11-06T00:00	6040	481	-16.0	-30.2	193	12	
2025-11-06T00:00	6060	479	-16.2	-30.8	194	12	
2025-11-06T00:00	6080	478	-16.2	-32.8	195	12	
2025-11-06T00:00	6100	477	-16.4	-32.7	194	11	
2025-11-06T00:00	6120	476	-16.5	-32.6	193	11	
2025-11-06T00:00	6140	474	-16.6	-34.0	191	11	
2025-11-06T00:00	6160	473	-16.6	-34.6	190	11	
2025-11-06T00:00	6180	472	-16.7	-34.9	190	11	
2025-11-06T00:00	6200	471	-16.8	-35.7	190	11	
2025-11-06T00:00	6220	469	-16.9	-33.1	191	11	
2025-11-06T00:00	6240	468	-17.0	-30.3	192	10	
2025-11-06T00:00	6260	467	-17.2	-30.3	193	10	
2025-11-06T00:00	6280	466	-17.3	-30.5	195	10	
2025-11-06T00:00	6300	464	-17.4	-30.8	196	10	
2025-11-06T00:00	6320	463	-17.6	-31.9	196	10	
2025-11-06T00:00	6340	462	-17.7	-30.8	196	11	
2025-11-06T00:00	6360	461	-17.9	-29.7	196	11	
2025-11-06T00:00	6380	460	-18.0	-28.8	195	11	
2025-11-06T00:00	6400	458	-18.2	-28.6	195	12	
2025-11-06T00:00	6420	457	-18.4	-26.5	195	12	
2025-11-06T00:00	6440	456	-18.6	-25.4	196	12	
2025-11-06T00:00	6460	454	-18.8	-25.2	195	13	
2025-11-06T00:00	6480	453	-19.0	-25.1	195	13	
2025-11-06T00:00	6500	452	-19.2	-25.0	194	12	
2025-11-06T00:00	6520	451	-19.3	-25.1	193	12	
2025-11-06T00:00	6540	450	-19.5	-25.5	192	12	
2025-11-06T00:00	6560	448	-19.7	-25.7	191	12	
2025-11-06T00:00	6580	447	-19.9	-25.8	191	11	
2025-11-06T00:00	6600	446	-20.1	-25.9	190	11	
2025-11-06T00:00	6620	445	-20.3	-26.0	191	11	
2025-11-06T00:00	6640	444	-20.5	-26.0	191	11	
2025-11-06T00:00	6660	442	-20.7	-26.2	192	12	
2025-11-06T00:00	6680	441	-20.9	-26.3	192	12	
2025-11-06T00:00	6700	440	-21.0	-26.7	193	12	
2025-11-06T00:00	6720	439	-21.2	-26.7	193	12	
2025-11-06T00:00	6740	438	-21.4	-26.6	193	12	
2025-11-06T00:00	6760	437	-21.6	-26.8	193	12	
2025-11-06T00:00	6780	435	-21.8	-27.0	193	12	
2025-11-06T00:00	6800	434	-22.0	-27.1	193	12	
2025-11-06T00:00	6820	433	-22.1	-26.9	193	12	
2025-11-06T00:00	6840	432	-22.4	-27.2	192	11	
2025-11-06T00:00	6860	431	-22.6	-27.3	192	11	
2025-11-06T00:00	6880	429	-22.7	-27.3	192	11	
2025-11-06T00:00	6900	428	-22.9	-27.4	192	11	
2025-11-06T00:00	6920	427	-23.1	-27.6	193	11	
2025-11-06T00:00	6940	426	-23.2	-27.5	193	11	
2025-11-06T00:00	6960	425	-23.5	-27.5	194	11	
2025-11-06T00:00	6980	424	-23.7	-27.6	194	12	
2025-11-06T00:00	7000	423	-23.8	-27.6	195	12	
2025-11-06T00:00	7020	421	-24.1	-27.6	196	12	
2025-11-06T00:00	7040	420	-24.3	-27.9	197	12	
2025-11-06T00:00	7060	419	-24.4	-28.0	198	12	
2025-11-06T00:00	7080	418	-24.6	-28.4	198	12	
2025-11-06T00:00	7100	417	-24.7	-29.1	199	12	
2025-11-06T00:00	7120	416	-24.8	-29.9	199	12	
2025-11-06T00:00	7140	414	-24.8	-32.6	199	12	
2025-11-06T00:00	7160	413	-24.6	-37.6	199	12	
2025-11-06T00:00	7180	412	-24.6	-40.0	198	12	
2025-11-06T00:00	7200	411	-24.6	-41.7	198	12	
2025-11-06T00:00	7220	410	-24.7	-41.1	197	12	
2025-11-06T00:00	7240	409	-24.9	-37.6	196	12	
2025-11-06T00:00	7260	408	-25.0	-36.4	195	12	
2025-11-06T00:00	7280	407	-25.0	-39.2	195	12	
2025-11-06T00:00	7300	405	-25.1	-38.9	194	11	
2025-11-06T00:00	7320	404	-25.2	-39.1	194	11	
2025-11-06T00:00	7340	403	-25.3	-39.0	194	11	
2025-11-06T00:00	7360	402	-25.5	-39.2	195	11	
2025-11-06T00:00	7380	401	-25.6	-38.0	195	11	
2025-11-06T00:00	7400	400	-25.8	-34.8	196	10	
2025-11-06T00:00	7420	399	-26.0	-33.7	197	10	
2025-11-06T00:00	7440	398	-26.2	-33.8	197	10	
2025-11-06T00:00	7460	397	-26.3	-34.3	198	10	
2025-11-06T00:00	7480	396	-26.4	-35.1	198	10	
2025-11-06T00:00	7500	394	-26.5	-35.5	199	11	
2025-11-06T00:00	7520	393	-26.7	-35.1	199	11	
2025-11-06T00:00	7540	392	-26.9	-35.2	198	11	
2025-11-06T00:00	7560	391	-27.1	-35.3	197	11	
2025-11-06T00:00	7580	390	-27.3	-35.6	196	11	
2025-11-06T00:00	7600	389	-27.5	-35.8	194	11	
2025-11-06T00:00	7620	388	-27.6	-35.8	192	11	
2025-11-06T00:00	7640	387	-27.8	-35.8	191	11	
2025-11-06T00:00	7660	386	-28.0	-36.0	190	11	
2025-11-06T00:00	7680	385	-28.2	-36.2	188	11	
2025-11-06T00:00	7700	383	-28.3	-36.7	187	11	
2025-11-06T00:00	7720	382	-28.5	-37.7	186	11	
2025-11-06T00:00	7740	381	-28.5	-38.5	185	11	
2025-11-06T00:00	7760	380	-28.6	-39.6	184	11	
2025-11-06T00:00	7780	379	-28.6	-41.1	183	11	
2025-11-06T00:00	7800	378	-28.7	-42.7	182	11	
2025-11-06T00:00	7820	377	-28.8	-44.2	181	10	
2025-11-06T00:00	7840	376	-28.8	-44.1	180	10	
2025-11-06T00:00	7860	375	-28.9	-43.6	179	10	
2025-11-06T00:00	7880	374	-29.0	-42.9	179	10	
2025-11-06T00:00	7900	373	-29.2	-42.8	179	10	
2025-11-06T00:00	7920	372	-29.4	-42.4	179	10	
2025-11-06T00:00	7940	371	-29.5	-42.0	181	9	
2025-11-06T00:00	7960	370	-29.7	-41.6	182	9	
2025-11-06T00:00	7980	369	-29.8	-41.5	185	9	
2025-11-06T00:00	8000	368	-30.0	-41.2	188	8	
2025-11-06T00:00	8020	367	-30.1	-40.8	191	7	
2025-11-06T00:00	8040	366	-30.3	-40.8	194	7	
2025-11-06T00:00	8060	365	-30.4	-40.6	195	7	
2025-11-06T00:00	8080	364	-30.4	-40.6	196	6	
2025-11-06T00:00	8100	363	-30.5	-41.5	196	6	
2025-11-06T00:00	8120	361	-30.6	-42.6	196	6	
2025-11-06T00:00	8140	360	-30.7	-42.6	194	6	
2025-11-06T00:00	8160	359	-30.9	-42.4	192	6	
2025-11-06T00:00	8180	358	-31.0	-42.6	190	6	
2025-11-06T00:00	8200	358	-31.1	-43.0	188	6	
2025-11-06T00:00	8220	357	-31.3	-42.9	187	6	
2025-11-06T00:00	8240	356	-31.5	-42.5	187	7	
2025-11-06T00:00	8260	355	-31.7	-42.1	187	7	
2025-11-06T00:00	8280	354	-31.9	-42.5	189	7	
2025-11-06T00:00	8300	353	-32.1	-42.9	190	7	
2025-11-06T00:00	8320	352	-32.3	-41.7	191	7	
2025-11-06T00:00	8340	350	-32.5	-40.9	192	7	
2025-11-06T00:00	8360	349	-32.7	-39.7	193	7	
2025-11-06T00:00	8380	349	-32.8	-39.4	193	7	
2025-11-06T00:00	8400	348	-33.0	-40.0	193	7	
2025-11-06T00:00	8420	346	-33.2	-39.0	194	7	
2025-11-06T00:00	8440	346	-33.3	-38.8	194	7	
2025-11-06T00:00	8460	345	-33.5	-38.9	195	7	
2025-11-06T00:00	8480	344	-33.6	-39.2	197	6	
2025-11-06T00:00	8500	343	-33.8	-39.3	199	6	
2025-11-06T00:00	8520	342	-34.0	-38.7	202	7	
2025-11-06T00:00	8540	341	-34.2	-38.7	204	7	
2025-11-06T00:00	8560	340	-34.3	-38.7	206	7	
2025-11-06T00:00	8580	339	-34.5	-38.7	207	7	
2025-11-06T00:00	8600	338	-34.7	-38.8	207	7	
2025-11-06T00:00	8620	337	-34.9	-38.8	206	8	
2025-11-06T00:00	8640	336	-35.0	-38.9	206	8	
2025-11-06T00:00	8660	335	-35.2	-39.0	205	8	
2025-11-06T00:00	8680	334	-35.4	-38.9	204	8	
2025-11-06T00:00	8700	333	-35.6	-38.9	204	8	
2025-11-06T00:00	8720	332	-35.8	-38.6	204	8	
2025-11-06T00:00	8740	331	-35.9	-38.6	204	8	
2025-11-06T00:00	8760	330	-36.1	-39.0	205	8	
2025-11-06T00:00	8780	329	-36.3	-39.6	206	8	
2025-11-06T00:00	8800	328	-36.5	-39.5	208	8	
2025-11-06T00:00	8820	327	-36.6	-39.4	209	9	
2025-11-06T00:00	8840	326	-36.8	-39.6	210	9	
2025-11-06T00:00	8860	325	-37.0	-39.8	210	9	
2025-11-06T00:00	8880	324	-37.1	-39.9	210	10	
2025-11-06T00:00	8900	323	-37.3	-40.2	210	10	
2025-11-06T00:00	8920	323	-37.4	-40.6	210	10	
2025-11-06T00:00	8940	322	-37.5	-40.6	210	10	
2025-11-06T00:00	8960	321	-37.6	-40.6	210	10	
2025-11-06T00:00	8980	320	-37.7	-40.6	210	10	
2025-11-06T00:00	9000	319	-37.8	-41.0	211	10	
2025-11-06T00:00	9020	318	-38.0	-41.5	211	10	
2025-11-06T00:00	9040	317	-38.0	-41.4	212	10	
2025-11-06T00:00	9060	316	-38.1	-41.0	212	10	
2025-11-06T00:00	9080	315	-38.3	-40.7	213	10	
2025-11-06T00:00	9100	314	-38.4	-41.0	214	10	
2025-11-06T00:00	9120	313	-38.6	-41.3	214	10	
2025-11-06T00:00	9140	312	-38.8	-41.8	215	10	
2025-11-06T00:00	9160	312	-38.9	-42.6	215	10	
2025-11-06T00:00	9180	310	-39.0	-43.2	215	10	
2025-11-06T00:00	9200	310	-39.0	-42.9	215	10	
2025-11-06T00:00	9220	309	-39.2	-42.8	214	10	
2025-11-06T00:00	9240	308	-39.3	-43.1	214	10	
2025-11-06T00:00	9260	307	-39.4	-43.5	214	11	
2025-11-06T00:00	9280	306	-39.6	-43.9	214	11	
2025-11-06T00:00	9300	305	-39.7	-44.1	214	11	
2025-11-06T00:00	9320	304	-39.8	-44.2	214	11	
2025-11-06T00:00	9340	303	-40.0	-44.4	214	11	
2025-11-06T00:00	9360	303	-40.1	-44.6	214	11	
2025-11-06T00:00	9380	302	-40.2	-44.7	214	11	
2025-11-06T00:00	9400	301	-40.4	-44.6	214	11	
2025-11-06T00:00	9420	300	-40.6	-44.7	215	11	
2025-11-06T00:00	9440	299	-40.7	-44.7	215	11	
2025-11-06T00:00	9460	298	-40.7	-44.7	216	12	
2025-11-06T00:00	9480	297	-40.8	-45.1	218	12	
2025-11-06T00:00	9500	296	-41.0	-45.2	219	12	
2025-11-06T00:00	9520	295	-41.1	-45.1	220	12	
2025-11-06T00:00	9540	295	-41.3	-45.2	220	13	
2025-11-06T00:00	9560	294	-41.5	-45.4	221	13	
2025-11-06T00:00	9580	293	-41.6	-45.8	221	13	
2025-11-06T00:00	9600	292	-41.7	-46.1	222	13	
2025-11-06T00:00	9620	291	-41.9	-46.2	222	12	
2025-11-06T00:00	9640	290	-42.1	-46.3	222	12	
2025-11-06T00:00	9660	289	-42.2	-46.3	223	12	
2025-11-06T00:00	9680	289	-42.4	-46.6	223	12	
2025-11-06T00:00	9700	288	-42.6	-46.9	224	12	
2025-11-06T00:00	9720	287	-42.8	-47.2	225	12	
2025-11-06T00:00	9740	286	-43.0	-47.2	226	12	
2025-11-06T00:00	9760	285	-43.2	-47.3	227	12	
2025-11-06T00:00	9780	284	-43.3	-47.5	228	13	
2025-11-06T00:00	9800	284	-43.5	-47.5	228	13	
2025-11-06T00:00	9820	283	-43.7	-47.6	228	14	
2025-11-06T00:00	9840	282	-43.9	-47.8	228	14	
2025-11-06T00:00	9860	281	-44.1	-47.8	228	15	
2025-11-06T00:00	9880	280	-44.3	-47.9	228	15	
2025-11-06T00:00	9900	279	-44.4	-48.1	228	15	
2025-11-06T00:00	9920	278	-44.5	-48.4	227	15	
2025-11-06T00:00	9940	278	-44.7	-48.8	227	16	
2025-11-06T00:00	9960	277	-44.8	-49.1	226	16	
2025-11-06T00:00	9980	276	-44.9	-49.1	226	16	
2025-11-06T00:00	10000	275	-45.1	-49.0	225	16	
2025-11-06T00:00	10018	274	-45.2	-49.0	224	16	
2025-11-06T00:00	10050	273	-45.5	-49.6	223	16	
2025-11-06T00:00	10100	271	-45.9	-50.2	223	16	
2025-11-06T00:00	10150	269	-46.3	-50.3	225	16	
2025-11-06T00:00	10200	267	-46.8	-50.7	226	15	
2025-11-06T00:00	10250	265	-47.3	-51.2	225	15	
2025-11-06T00:00	10300	263	-47.7	-51.9	225	14	
2025-11-06T00:00	10350	261	-48.2	-52.3	226	14	
2025-11-06T00:00	10400	259	-48.6	-53.2	228	14	
2025-11-06T00:00	10450	257	-49.1	-53.6	229	14	
2025-11-06T00:00	10500	255	-49.5	-53.9	231	14	
2025-11-06T00:00	10550	253	-49.9	-54.2	233	14	
2025-11-06T00:00	10600	251	-50.4	-54.8	232	14	
2025-11-06T00:00	10650	249	-50.8	-55.0	231	14	
2025-11-06T00:00	10700	247	-51.3	-55.4	231	14	
2025-11-06T00:00	10750	246	-51.8	-56.2	232	14	
2025-11-06T00:00	10800	244	-52.2	-56.6	234	14	
2025-11-06T00:00	10850	242	-52.7	-56.9	237	14	
2025-11-06T00:00	10900	240	-53.1	-57.2	239	14	
2025-11-06T00:00	10950	238	-53.4	-57.8	242	15	
2025-11-06T00:00	11000	236	-53.7	-58.4	245	15	
2025-11-06T00:00	11050	234	-54.1	-58.7	248	15	
2025-11-06T00:00	11100	232	-54.5	-59.2	249	16	
2025-11-06T00:00	11150	231	-54.9	-59.6	250	16	
2025-11-06T00:00	11200	229	-55.3	-60.2	251	17	
2025-11-06T00:00	11250	227	-55.6	-60.8	253	18	
2025-11-06T00:00	11300	225	-56.0	-61.2	255	18	
2025-11-06T00:00	11350	224	-56.4	-61.1	255	18	
2025-11-06T00:00	11400	222	-56.8	-61.3	254	18	
2025-11-06T00:00	11450	220	-57.2	-61.8	253	18	
2025-11-06T00:00	11500	218	-57.7	-62.2	253	18	
2025-11-06T00:00	11550	217	-58.0	-62.6	253	18	
2025-11-06T00:00	11600	215	-58.4	-63.0	254	19	
2025-11-06T00:00	11650	213	-58.8	-63.4	255	19	
2025-11-06T00:00	11700	211	-59.2	-63.7	255	19	
2025-11-06T00:00	11750	210	-59.6	-63.9	254	19	
2025-11-06T00:00	11800	208	-60.0	-64.3	251	19	
2025-11-06T00:00	11850	206	-60.1	-64.6	249	19	
2025-11-06T00:00	11900	205	-60.1	-64.9	247	19	
2025-11-06T00:00	11950	203	-60.5	-65.4	244	19	
2025-11-06T00:00	12000	202	-60.8	-65.9	240	19	
2025-11-06T00:00	12050	200	-61.1	-66.1	235	19	
2025-11-06T00:00	12100	198	-61.1	-65.7	231	20	
2025-11-06T00:00	12150	197	-61.1	-65.1	228	21	
2025-11-06T00:00	12200	195	-61.2	-65.4	228	22	
2025-11-06T00:00	12250	194	-60.9	-66.6	230	22	
2025-11-06T00:00	12300	192	-60.7	-68.0	233	22	
2025-11-06T00:00	12350	191	-60.6	-69.3	236	21	
2025-11-06T00:00	12400	189	-60.2	-70.6	238	19	
2025-11-06T00:00	12450	187	-59.3	-72.0	238	16	
2025-11-06T00:00	12500	186	-59.2	-73.1	238	14	
2025-11-06T00:00	12550	185	-59.2	-73.5	237	12	
2025-11-06T00:00	12600	183	-59.4	-73.6	235	11	
2025-11-06T00:00	12650	182	-59.6	-73.6	232	11	
2025-11-06T00:00	12700	180	-59.9	-73.5	228	10	
2025-11-06T00:00	12750	179	-60.3	-73.5	221	10	
2025-11-06T00:00	12800	177	-60.6	-73.5	212	10	
2025-11-06T00:00	12850	176	-61.0	-73.6	204	10	
2025-11-06T00:00	12900	174	-61.2	-73.6	197	11	
2025-11-06T00:00	12950	173	-61.4	-73.9	195	12	
2025-11-06T00:00	13000	172	-61.6	-74.1	197	13	
2025-11-06T00:00	13050	170	-62.0	-74.6	202	14	
2025-11-06T00:00	13100	169	-62.0	-75.4	208	15	
2025-11-06T00:00	13150	168	-61.7	-76.7	214	16	
2025-11-06T00:00	13200	166	-61.3	-78.4	218	17	
2025-11-06T00:00	13250	165	-60.7	-79.2	218	18	
2025-11-06T00:00	13300	164	-60.4	-79.7	219	19	
2025-11-06T00:00	13350	162	-60.4	-79.8	220	20	
2025-11-06T00:00	13400	161	-60.5	-79.8	220	21	
2025-11-06T00:00	13450	160	-60.6	-79.9	219	22	
2025-11-06T00:00	13500	158	-60.9	-80.1	217	23	
2025-11-06T00:00	13550	157	-61.2	-80.1	217	24	
2025-11-06T00:00	13600	156	-61.5	-80.1	218	24	
2025-11-06T00:00	13650	155	-61.8	-80.2	220	25	
2025-11-06T00:00	13700	153	-62.1	-80.4	223	25	
2025-11-06T00:00	13750	152	-62.3	-80.7	226	24	
2025-11-06T00:00	13800	151	-62.3	-80.9	229	23	
2025-11-06T00:00	13850	150	-62.3	-81.1	230	22	
2025-11-06T00:00	13900	148	-62.5	-81.3	232	21	
2025-11-06T00:00	13950	147	-62.7	-81.4	234	21	
2025-11-06T00:00	14000	146	-62.8	-81.5	235	20	
2025-11-06T00:00	14050	145	-62.8	-81.7	234	19	
2025-11-06T00:00	14100	144	-62.6	-82.2	232	17	
2025-11-06T00:00	14150	143	-62.6	-82.6	231	15	
2025-11-06T00:00	14200	141	-62.9	-82.8	229	14	
2025-11-06T00:00	14250	140	-63.2	-83.0	226	12	
2025-11-06T00:00	14300	139	-63.4	-83.3	219	11	
2025-11-06T00:00	14350	138	-63.5	-83.6	210	11	
2025-11-06T00:00	14400	137	-63.4	-84.1	203	11	
2025-11-06T00:00	14450	136	-63.3	-84.7	199	11	
2025-11-06T00:00	14500	135	-63.4	-85.0	198	12	
2025-11-06T00:00	14550	134	-63.8	-85.3	195	12	
2025-11-06T00:00	14600	132	-64.1	-85.3	192	13	
2025-11-06T00:00	14650	131	-64.4	-85.2	188	13	
2025-11-06T00:00	14700	130	-64.8	-85.3	185	13	
2025-11-06T00:00	14750	129	-65.2	-85.3	183	14	
2025-11-06T00:00	14800	128	-65.6	-85.3	183	15	
2025-11-06T00:00	14850	127	-65.8	-85.3	185	17	
2025-11-06T00:00	14900	126	-66.0	-85.1	187	18	
2025-11-06T00:00	14950	125	-66.4	-85.1	189	19	
2025-11-06T00:00	15000	124	-66.6	-84.9	192	19	
2025-11-06T00:00	15050	123	-66.6	-84.7	195	20	
2025-11-06T00:00	15100	122	-66.8	-84.7	198	20	
2025-11-06T00:00	15150	121	-66.9	-84.7	201	20	
2025-11-06T00:00	15200	120	-67.0	-84.7	203	19	
2025-11-06T00:00	15250	119	-66.9	-84.7	204	19	
2025-11-06T00:00	15300	118	-66.6	-84.6	204	18	
2025-11-06T00:00	15350	117	-65.9	-84.3	204	16	
2025-11-06T00:00	15400	116	-65.6	-84.3	203	15	
2025-11-06T00:00	15450	115	-65.6	-84.4	202	14	
2025-11-06T00:00	15500	114	-65.8	-84.6	202	14	
2025-11-06T00:00	15550	113	-65.7	-84.9	203	15	
2025-11-06T00:00	15600	112	-65.1	-85.0	203	15	
2025-11-06T00:00	15650	111	-64.6	-85.3	205	13	
2025-11-06T00:00	15700	111	-64.5	-85.4	209	13	
2025-11-06T00:00	15750	110	-64.2	-85.2	214	13	
2025-11-06T00:00	15800	109	-64.4	-85.2	220	13	
2025-11-06T00:00	15850	108	-64.7	-85.2	226	14	
2025-11-06T00:00	15900	107	-64.9	-85.2	233	14	
2025-11-06T00:00	15950	106	-64.8	-85.1	239	14	
2025-11-06T00:00	16000	105	-65.0	-85.1	243	14	
2025-11-06T00:00	16050	104	-65.3	-85.2	245	14	
2025-11-06T00:00	16100	103	-65.8	-85.3	248	12	
2025-11-06T00:00	16150	103	-66.0	-85.3	251	11	
2025-11-06T00:00	16200	102	-66.1	-85.3	251	10	
2025-11-06T00:00	16250	101	-66.2	-85.4	248	8	
2025-11-06T00:00	16300	100	-66.2	-85.4	243	7	
2025-11-06T00:00	16350	99	-66.3	-85.5	238	6	
2025-11-06T00:00	16400	99	-66.6	-85.7	228	5	
2025-11-06T00:00	16450	98	-66.5	-85.7	207	5	
2025-11-06T00:00	16500	97	-66.4	-85.9	183	5	
2025-11-06T00:00	16550	96	-66.0	-85.8	170	6	
2025-11-06T00:00	16600	95	-66.0	-85.8	163	7	
2025-11-06T00:00	16650	95	-66.3	-85.9	163	8	
2025-11-06T00:00	16700	94	-66.7	-86.0	169	9	
2025-11-06T00:00	16750	93	-66.7	-86.0	175	9	
2025-11-06T00:00	16800	92	-66.8	-86.1	180	10	
2025-11-06T00:00	16850	91	-66.8	-86.1	184	10	
2025-11-06T00:00	16900	91	-66.8	-86.4	187	10	
2025-11-06T00:00	16950	90	-66.2	-86.4	187	10	
2025-11-06T00:00	17000	89	-65.3	-86.4	191	10	
2025-11-06T00:00	17050	88	-65.0	-86.6	199	10	
2025-11-06T00:00	17100	88	-64.9	-86.6	205	11	
2025-11-06T00:00	17150	87	-65.1	-86.6	209	12	
2025-11-06T00:00	17200	86	-65.5	-86.7	212	12	
2025-11-06T00:00	17250	86	-65.8	-86.8	214	11	
2025-11-06T00:00	17300	85	-66.0	-86.9	211	10	
2025-11-06T00:00	17350	84	-65.7	-86.8	205	10	
2025-11-06T00:00	17400	83	-65.6	-86.7	199	9	
2025-11-06T00:00	17450	83	-65.9	-86.8	197	10	
2025-11-06T00:00	17500	82	-66.2	-86.9	199	10	
2025-11-06T00:00	17550	81	-66.1	-86.9	201	11	
2025-11-06T00:00	17600	81	-66.2	-87.1	203	12	
2025-11-06T00:00	17650	80	-66.2	-87.4	205	12	
2025-11-06T00:00	17700	79	-66.1	-87.5	208	11	
2025-11-06T00:00	17750	79	-66.0	-87.7	211	10	
2025-11-06T00:00	17800	78	-65.4	-87.6	215	10	
2025-11-06T00:00	17850	78	-65.0	-87.5	216	9	
2025-11-06T00:00	17900	77	-65.2	-87.6	217	9	
2025-11-06T00:00	17950	76	-65.5	-87.8	218	9	
2025-11-06T00:00	18000	76	-65.4	-87.8	220	8	
2025-11-06T00:00	18050	75	-65.1	-87.7	220	7	
2025-11-06T00:00	18100	74	-64.9	-87.8	222	7	
2025-11-06T00:00	18150	74	-64.7	-87.8	228	6	
2025-11-06T00:00	18200	73	-64.5	-87.8	237	6	
2025-11-06T00:00	18250	73	-64.4	-87.9	246	5	
2025-11-06T00:00	18300	72	-64.4	-87.8	255	4	
2025-11-06T00:00	18350	71	-64.5	-87.7	263	4	
2025-11-06T00:00	18400	71	-64.8	-87.8	270	4	
2025-11-06T00:00	18450	70	-65.2	-87.8	279	3	
2025-11-06T00:00	18500	70	-65.6	-87.9	292	3	
2025-11-06T00:00	18550	69	-65.8	-88.0	302	3	
2025-11-06T00:00	18600	69	-65.9	-88.1	304	3	
2025-11-06T00:00	18650	68	-65.7	-88.1	313	2	
2025-11-06T00:00	18700	67	-65.7	-88.1	354	2	
2025-11-06T00:00	18750	67	-65.8	-88.1	22	3	
2025-11-06T00:00	18800	66	-66.0	-88.1	33	4	
2025-11-06T00:00	18850	66	-66.3	-88.3	45	4	
2025-11-06T00:00	18900	65	-66.5	-88.4	64	4	
2025-11-06T00:00	18950	65	-66.6	-88.5	84	5	
2025-11-06T00:00	19000	64	-66.5	-88.7	99	5	
2025-11-06T00:00	19050	64	-65.8	-88.6	107	5	
2025-11-06T00:00	19100	63	-65.4	-88.5	116	5	
2025-11-06T00:00	19150	63	-65.5	-88.5	127	5	
2025-11-06T00:00	19200	62	-65.8	-88.5	138	5	
2025-11-06T00:00	19250	62	-65.9	-88.5	150	5	
2025-11-06T00:00	19300	61	-66.0	-88.7	165	5	
2025-11-06T00:00	19350	61	-65.7	-88.7	174	6	
2025-11-06T00:00	19400	60	-65.4	-88.7	178	6	
2025-11-06T00:00	19450	60	-65.2	-88.7	183	6	
2025-11-06T00:00	19500	59	-65.1	-88.7	190	4	
2025-11-06T00:00	19550	59	-65.1	-88.6	201	3	
2025-11-06T00:00	19600	58	-65.1	-88.5	211	2	
2025-11-06T00:00	19650	58	-65.6	-88.6	206	1	
2025-11-06T00:00	19700	57	-65.7	-88.8	106	1	
2025-11-06T00:00	19750	57	-65.5	-88.8	111	2	
2025-11-06T00:00	19800	56	-65.2	-88.9	126	3	
2025-11-06T00:00	19850	56	-64.7	-88.8	135	4	
2025-11-06T00:00	19900	55	-64.5	-88.8	151	3	
2025-11-06T00:00	19950	55	-64.4	-88.7	182	3	
2025-11-06T00:00	20000	54	-64.5	-88.7	204	4	
2025-11-06T00:00	20050	54	-64.5		219	5	
2025-11-06T00:00	20100	54	-64.6		237	5	
2025-11-06T00:00	20150	53	-64.4		256	6	
2025-11-06T00:00	20200	53	-64.4		272	6	
2025-11-06T00:00	20250	52	-64.4		285	7	
2025-11-06T00:00	20300	52	-64.6		294	7	
2025-11-06T00:00	20350	51	-64.7		298	7	
2025-11-06T00:00	20400	51	-64.9		298	5	
2025-11-06T00:00	20450	51	-64.8		287	3	
2025-11-06T00:00	20500	50	-64.8		241	2	
2025-11-06T00:00	20550	50	-65.0		205	3	
2025-11-06T00:00	20600	49	-65.1		201	4	
2025-11-06T00:00	20650	49	-65.2		209	5	
2025-11-06T00:00	20700	49	-65.3		219	5	
2025-11-06T00:00	20750	48	-65.5		231	6	
2025-11-06T00:00	20800	48	-65.1		238	7	
2025-11-06T00:00	20850	47	-65.2		243	8	
2025-11-06T00:00	20900	47	-65.4		247	8	
2025-11-06T00:00	20950	47	-65.2		251	9	
2025-11-06T00:00	21000	46	-65.1		252	9	
2025-11-06T00:00	21050	46	-65.2		255	9	
2025-11-06T00:00	21100	45	-65.3		261	8	
2025-11-06T00:00	21150	45	-65.6		268	7	
2025-11-06T00:00	21200	45	-65.8		275	6	
2025-11-06T00:00	21250	44	-65.9		275	4	
2025-11-06T00:00	21300	44	-65.8		263	4	
2025-11-06T00:00	21350	44	-65.6		247	4	
2025-11-06T00:00	21400	43	-65.5		238	4	
2025-11-06T00:00	21450	43	-65.9		233	5	
2025-11-06T00:00	21500	43	-65.9		232	5	
2025-11-06T00:00	21550	42	-66.1		236	6	
2025-11-06T00:00	21600	42	-66.2		245	6	
2025-11-06T00:00	21650	42	-66.2		254	6	
2025-11-06T00:00	21700	41	-66.1		264	6	
2025-11-06T00:00	21750	41	-65.7		271	6	
2025-11-06T00:00	21800	41	-65.3		276	6	
2025-11-06T00:00	21850	40	-65.1		279	5	
2025-11-06T00:00	21900	40	-65.0		280	4	
2025-11-06T00:00	21950	40	-65.1		273	4	
2025-11-06T00:00	22000	39	-65.1		263	4	
2025-11-06T00:00	22050	39	-65.0		261	5	
2025-11-06T00:00	22100	39	-64.8		266	6	
2025-11-06T00:00	22150	38	-64.8		271	7	
2025-11-06T00:00	22200	38	-64.4		277	7	
2025-11-06T00:00	22250	38	-64.1		288	8	
2025-11-06T00:00	22300	37	-64.0		299	8	
2025-11-06T00:00	22350	37	-63.9		306	8	
2025-11-06T00:00	22400	37	-63.9		310	8	
2025-11-06T00:00	22450	36	-63.9		311	7	
2025-11-06T00:00	22500	36	-63.8		312	6	
2025-11-06T00:00	22550	36	-64.1		310	5	
2025-11-06T00:00	22600	36	-64.5		305	4	
2025-11-06T00:00	22650	35	-64.8		297	4	
2025-11-06T00:00	22700	35	-64.9		294	5	
2025-11-06T00:00	22750	35	-64.9		293	6	
2025-11-06T00:00	22800	34	-65.3		291	6	
2025-11-06T00:00	22850	34	-65.3		289	6	
2025-11-06T00:00	22900	34	-65.2		287	5	
2025-11-06T00:00	22950	34	-65.2		285	4	
2025-11-06T00:00	23000	33	-65.1		279	4	
2025-11-06T00:00	23050	33	-65.1		264	3	
2025-11-06T00:00	23100	33	-64.9		234	3	
2025-11-06T00:00	23150	32	-64.7		211	4	
2025-11-06T00:00	23200	32	-64.8		202	5	
2025-11-06T00:00	23250	32	-64.7		199	5	
2025-11-06T00:00	23300	32	-64.9		198	6	
2025-11-06T00:00	23350	31	-65.0		199	6	
2025-11-06T00:00	23400	31	-65.1		204	7	
2025-11-06T00:00	23450	31	-65.0		213	6	
2025-11-06T00:00	23500	31	-65.1		220	7	
2025-11-06T00:00	23550	30	-65.1		225	7	
2025-11-06T00:00	23600	30	-64.7		229	7	
2025-11-06T00:00	23650	30	-64.5		235	7	
2025-11-06T00:00	23700	30	-64.7		244	7	
2025-11-06T00:00	23750	29	-64.9		255	7	
2025-11-06T00:00	23800	29	-64.8		263	7	
2025-11-06T00:00	23850	29	-64.6		266	8	
2025-11-06T00:00	23900	29	-64.5		266	9	
2025-11-06T00:00	23950	28	-64.7		267	9	
2025-11-06T00:00	24000	28	-64.7		270	9	
2025-11-06T00:00	24050	28	-64.8		275	9	
2025-11-06T00:00	24100	28	-65.1		280	9	
2025-11-06T00:00	24150	28	-65.3		285	8	
2025-11-06T00:00	24200	27	-65.5		289	8	
2025-11-06T00:00	24250	27	-65.7		295	7	
2025-11-06T00:00	24300	27	-65.9		301	6	
2025-11-06T00:00	24350	27	-66.0		306	5	
2025-11-06T00:00	24400	26	-65.7		304	4	
2025-11-06T00:00	24450	26	-65.5		292	3	
2025-11-06T00:00	24500	26	-64.8		280	4	
2025-11-06T00:00	24550	26	-64.5		274	4	
2025-11-06T00:00	24600	26	-64.6		273	5	
2025-11-06T00:00	24650	25	-64.8		277	5	
2025-11-06T00:00	24700	25	-65.0		286	5	
2025-11-06T00:00	24750	25	-65.1		294	4	
2025-11-06T00:00	24800	25	-65.1		292	5	
2025-11-06T00:00	24850	25	-65.1		288	6	
2025-11-06T00:00	24900	24	-65.1		285	6	
2025-11-06T00:00	24950	24	-65.2		282	6	
2025-11-06T00:00	25000	24	-65.5		280	6	
2025-11-06T00:00	25050	24	-65.9		279	6	
2025-11-06T00:00	25100	24	-66.2		282	6	
2025-11-06T00:00	25150	23	-66.3		287	6	
2025-11-06T00:00	25200	23	-66.4		290	5	
2025-11-06T00:00	25250	23	-66.5		284	5	
2025-11-06T00:00	25300	23	-65.7		271	5	
2025-11-06T00:00	25350	23	-64.4		263	6	
2025-11-06T00:00	25400	22	-63.0		261	8	
2025-11-06T00:00	25450	22	-62.3		260	9	
2025-11-06T00:00	25500	22	-62.3		257	10	
2025-11-06T00:00	25550	22	-62.2		254	10	
2025-11-06T00:00	25600	22	-62.4		254	10	
2025-11-06T00:00	25650	22	-62.5		258	10	
2025-11-06T00:00	25700	21	-62.6		264	11	
2025-11-06T00:00	25750	21	-62.5		268	12	
2025-11-06T00:00	25800	21	-62.1		269	12	
2025-11-06T00:00	25850	21	-62.2		268	12	
2025-11-06T00:00	25900	21	-62.2		266	11	
2025-11-06T00:00	25950	21	-62.1		267	11	
2025-11-06T00:00	26000	20	-62.3		271	11	
2025-11-06T00:00	26050	20	-62.6		277	12	
2025-11-06T00:00	26100	20	-62.8		284	13	
2025-11-06T00:00	26150	20	-62.8		290	13	
2025-11-06T00:00	26200	20	-62.9		295	12	
2025-11-06T00:00	26250	20	-63.1		299	12	
2025-11-06T00:00	26300	19	-63.4		302	11	
2025-11-06T00:00	26350	19	-63.7		303	10	
2025-11-06T00:00	26400	19	-63.8		304	9	
2025-11-06T00:00	26450	19	-63.9		303	9	
2025-11-06T00:00	26500	19	-63.9		300	8	
2025-11-06T00:00	26550	19	-63.8		293	8	
2025-11-06T00:00	26600	18	-63.1		283	8	
2025-11-06T00:00	26650	18	-62.8		273	8	
2025-11-06T00:00	26700	18	-62.6		266	8	
2025-11-06T00:00	26750	18	-62.4		261	9	
2025-11-06T00:00	26800	18	-62.3		262	10	
2025-11-06T00:00	26850	18	-62.1		266	11	
2025-11-06T00:00	26900	18	-62.2		270	12	
2025-11-06T00:00	26950	17	-62.4		272	13	
2025-11-06T00:00	27000	17	-62.4		273	13	
2025-11-06T00:00	27050	17	-62.2		275	13	
2025-11-06T00:00	27100	17	-62.0		279	13	
2025-11-06T00:00	27150	17	-62.3		285	14	
2025-11-06T00:00	27200	17	-62.6		292	14	
2025-11-06T00:00	27250	17	-62.9		297	14	
2025-11-06T00:00	27300	16	-63.1		299	14	
2025-11-06T00:00	27350	16	-63.2		297	13	
2025-11-06T00:00	27400	16	-63.1		293	13	
2025-11-06T00:00	27450	16	-63.2		289	12	
2025-11-06T00:00	27500	16	-63.2		284	12	
2025-11-06T00:00	27550	16	-62.8		279	11	
2025-11-06T00:00	27600	16	-62.7		274	11	
2025-11-06T00:00	27650	16	-62.8		270	11	
2025-11-06T00:00	27700	15	-62.8		269	11	
2025-11-06T00:00	27750	15	-62.7		271	11	
2025-11-06T00:00	27800	15	-62.6		271	12	
2025-11-06T00:00	27850	15	-62.8		269	12	
2025-11-06T00:00	27900	15	-62.7		265	12	
2025-11-06T00:00	27950	15	-62.7		262	12	
2025-11-06T00:00	28000	15	-62.7		260	12	
2025-11-06T00:00	28050	15	-62.2		259	11	
2025-11-06T00:00	28100	14	-62.3		258	11	
2025-11-06T00:00	28150	14	-62.1		259	10	
2025-11-06T00:00	28200	14	-61.9		263	10	
2025-11-06T00:00	28250	14	-61.7		270	10	
2025-11-06T00:00	28300	14	-61.6		277	10	
2025-11-06T00:00	28350	14	-61.6		282	11	
2025-11-06T00:00	28400	14	-61.5		284	11	
2025-11-06T00:00	28450	14	-61.0		282	11	
2025-11-06T00:00	28500	14	-60.7		277	11	
2025-11-06T00:00	28550	13	-60.4		268	12	
2025-11-06T00:00	28600	13	-60.3		259	14	
2025-11-06T00:00	28650	13	-60.2		253	15	
2025-11-06T00:00	28700	13	-60.1		250	17	
2025-11-06T00:00	28750	13	-59.8		251	18	
2025-11-06T00:00	28800	13	-58.4		255	18	
2025-11-06T00:00	28850	13	-58.0		260	17	
2025-11-06T00:00	28900	13	-58.1		264	16	
2025-11-06T00:00	28950	13	-58.4		266	15	
2025-11-06T00:00	29000	13	-58.4		264	15	
2025-11-06T00:00	29050	12	-58.1		262	17	
2025-11-06T00:00	29100	12	-57.5		260	20	
2025-11-06T00:00	29150	12	-57.1		259	22	
2025-11-06T00:00	29200	12	-57.0		260	24	
2025-11-06T00:00	29250	12	-57.2		262	25	
2025-11-06T00:00	29300	12	-57.3		265	26	
2025-11-06T00:00	29350	12	-57.6		266	27	
2025-11-06T00:00	29400	12	-57.8		266	27	
2025-11-06T00:00	29450	12	-57.9		266	26	
2025-11-06T00:00	29500	12	-58.2		266	26	
2025-11-06T00:00	29550	11	-58.3		268	26	
2025-11-06T00:00	29600	11	-58.3		269	27	
2025-11-06T00:00	29650	11	-58.7		271	27	
2025-11-06T00:00	29700	11	-59.0		273	28	
2025-11-06T00:00	29750	11	-59.3		275	28	
2025-11-06T00:00	29800	11	-59.7		276	28	
2025-11-06T00:00	29850	11	-60.0		277	28	
2025-11-06T00:00	29900	11	-60.4		278	26	
2025-11-06T00:00	29950	11	-60.6		277	25	
2025-11-06T00:00	30000	11	-60.7		276	24	
2025-11-06T00:00	30050	11	-60.4		273	24	
2025-11-06T00:00	30100	11	-60.4		269	24	
2025-11-06T00:00	30150	10	-60.7		266	24	
2025-11-06T00:00	30200	10	-60.9		264	25	
2025-11-06T00:00	30250	10	-61.2		263	25	
2025-11-06T00:00	30300	10	-61.4		264	25	
2025-11-06T00:00	30350	10	-60.8		267	24	
2025-11-06T00:00	30400	10	-60.7		270	23	
2025-11-06T00:00	30450	10	-60.9		273	23	
2025-11-06T00:00	30500	10	-61.0		276	22	
2025-11-06T00:00	30550	10	-60.9		276	22	
2025-11-06T00:00	30600	10	-60.5		274	22	
2025-11-06T00:00	30650	10	-60.0		270	23	
2025-11-06T00:00	30700	10	-59.7		268	24	
2025-11-06T00:00	30750	9	-59.4		266	26	
2025-11-06T00:00	30800	9	-59.3		266	27	
2025-11-06T00:00	30850	9	-59.3		267	27	
2025-11-06T00:00	30900	9	-59.4		269	27	
2025-11-06T00:00	30950	9	-59.5		271	27	
2025-11-06T00:00	31000	9	-59.5		272	26	
2025-11-06T00:00	31050	9	-59.4		272	25	
2025-11-06T00:00	31100	9	-59.1		271	24	
2025-11-06T00:00	31150	9	-59.4		270	25	
2025-11-06T00:00	31200	9	-59.4		269	25	
2025-11-06T00:00	31250	9	-59.6		269	26	
2025-11-06T00:00	31300	9	-59.7		269	27	
2025-11-06T00:00	31350	9	-59.6		269	28	
2025-11-06T00:00	31400	9	-59.5		268	29	
2025-11-06T00:00	31450	8	-59.8		267	29	
2025-11-06T00:00	31500	8	-60.1		267	28	
2025-11-06T00:00	31550	8	-60.3		265	27	
2025-11-06T00:00	31600	8	-60.5		263	27	
2025-11-06T00:00	31650	8	-60.4		263	28	
2025-11-06T00:00	31700	8	-60.1		264	29	
2025-11-06T00:00	31750	8	-59.8		266	30	
2025-11-06T00:00	31800	8	-59.8		267	29	
2025-11-06T00:00	31850	8	-59.6		266	29	
2025-11-06T00:00	31900	8	-59.4		264	29	
2025-11-06T00:00	31950	8	-59.0		261	29	
2025-11-06T00:00	32000	8	-58.7		259	29	
2025-11-06T00:00	32050	8	-58.6		260	29	
2025-11-06T00:00	32100	8	-58.3		261	30	
2025-11-06T00:00	32150	8	-58.2		262	31	
2025-11-06T00:00	32200	8	-58.0		262	33	
2025-11-06T00:00	32250	7	-57.6		262	34	
2025-11-06T00:00	32300	7	-57.7		262	36	
2025-11-06T00:00	32350	7	-57.8		263	37	
2025-11-06T00:00	32400	7	-57.9		264	38	
2025-11-06T00:00	32450	7	-58.1		265	39	
2025-11-06T00:00	32500	7	-58.2		267	41	
2025-11-06T00:00	32550	7	-58.4		269	42	
2025-11-06T00:00	32600	7	-58.6		271	42	
2025-11-06T00:00	32650	7	-58.6		272	42	
2025-11-06T00:00	32700	7	-58.6		274	42	
2025-11-06T00:00	32750	7	-58.6		276	40	
2025-11-06T00:00	32800	7	-58.3		278	39	
2025-11-06T00:00	32850	7	-57.6		279	37	
2025-11-06T00:00	32900	7	-57.0		281	36	
2025-11-06T00:00	32950	7	-56.9		281	35	
2025-11-06T00:00	33000	7	-57.2		282	35	
2025-11-06T00:00	33050	7	-56.8		284	34	
2025-11-06T00:00	33100	7	-56.5		286	34	
2025-11-06T00:00	33150	6	-56.6		286	34	
2025-11-06T00:00	33200	6	-56.7		286	35	
2025-11-06T00:00	33250	6	-56.8		285	36	
2025-11-06T00:00	33300	6	-56.8		284	37	
2025-11-06T00:00	33350	6	-56.1		284	38	
2025-11-06T00:00	33400	6	-55.8		285	38	
2025-11-06T12:00	491	956	6.5	5.8	352	1	
2025-11-06T12:00	501	954	6.6	6.2	0	1	
2025-11-06T12:00	520	952	6.1	5.9	0	1	
2025-11-06T12:00	540	950	5.9	5.6	356	1	
2025-11-06T12:00	560	947	5.6	5.4	350	1	
2025-11-06T12:00	580	946	5.4	5.3	340	1	
2025-11-06T12:00	600	943	5.3	5.0	298	0	
2025-11-06T12:00	620	941	5.3	4.6	235	1	
2025-11-06T12:00	640	938	5.6	4.3	222	1	
2025-11-06T12:00	660	936	5.9	3.6	220	1	
2025-11-06T12:00	680	934	6.3	3.1	221	2	
2025-11-06T12:00	700	931	6.9	3.3	225	2	
2025-11-06T12:00	720	929	7.6	4.2	229	3	
2025-11-06T12:00	740	927	7.6	4.5	232	3	
2025-11-06T12:00	760	925	7.7	4.5	235	4	
2025-11-06T12:00	780	923	8.1	4.1	236	4	
2025-11-06T12:00	800	920	8.3	3.7	236	4	
2025-11-06T12:00	820	918	8.4	3.3	235	5	
2025-11-06T12:00	840	916	8.5	3.2	233	5	
2025-11-06T12:00	860	914	8.8	2.7	230	5	
2025-11-06T12:00	880	912	8.8	2.5	228	6	
2025-11-06T12:00	900	909	8.9	2.0	227	6	
2025-11-06T12:00	920	907	9.1	1.2	227	7	
2025-11-06T12:00	940	905	9.4	0.0	227	7	
2025-11-06T12:00	960	903	9.8	-1.5	226	7	
2025-11-06T12:00	980	901	10.2	-4.4	226	7	
2025-11-06T12:00	1000	898	10.6	-7.0	224	7	
2025-11-06T12:00	1020	896	10.9	-7.9	222	7	
2025-11-06T12:00	1040	894	11.4	-9.3	220	7	
2025-11-06T12:00	1060	892	11.9	-8.7	219	7	
2025-11-06T12:00	1080	890	11.9	-8.4	220	7	
2025-11-06T12:00	1100	888	11.8	-8.3	225	7	
2025-11-06T12:00	1120	886	11.7	-8.3	230	6	
2025-11-06T12:00	1140	884	11.6	-8.5	237	6	
2025-11-06T12:00	1160	881	11.7	-8.9	243	6	
2025-11-06T12:00	1180	879	11.6	-9.1	249	6	
2025-11-06T12:00	1200	877	11.5	-9.4	255	6	
2025-11-06T12:00	1220	875	11.4	-9.5	259	6	
2025-11-06T12:00	1240	873	11.2	-9.8	262	6	
2025-11-06T12:00	1260	871	11.1	-10.3	265	6	
2025-11-06T12:00	1280	869	11.0	-10.5	268	6	
2025-11-06T12:00	1300	867	10.9	-10.5	271	6	
2025-11-06T12:00	1320	865	10.8	-9.8	275	5	
2025-11-06T12:00	1340	862	10.8	-8.9	280	5	
2025-11-06T12:00	1360	860	10.6	-8.7	285	5	
2025-11-06T12:00	1380	858	10.5	-8.1	289	6	
2025-11-06T12:00	1400	856	10.4	-7.9	292	6	
2025-11-06T12:00	1420	854	10.4	-7.5	296	6	
2025-11-06T12:00	1440	852	10.3	-7.4	299	6	
2025-11-06T12:00	1460	850	10.2	-7.8	301	6	
2025-11-06T12:00	1480	848	10.2	-9.1	303	7	
2025-11-06T12:00	1500	846	10.4	-11.1	303	7	
2025-11-06T12:00	1520	844	10.5	-12.3	302	7	
2025-11-06T12:00	1540	842	10.5	-13.5	299	7	
2025-11-06T12:00	1560	840	10.4	-14.4	296	7	
2025-11-06T12:00	1580	838	10.3	-15.3	292	7	
2025-11-06T12:00	1600	836	10.1	-15.5	288	7	
2025-11-06T12:00	1620	834	9.9	-15.6	286	7	
2025-11-06T12:00	1640	832	9.8	-15.6	285	7	
2025-11-06T12:00	1660	830	9.6	-15.8	285	7	
2025-11-06T12:00	1680	828	9.5	-15.8	288	6	
2025-11-06T12:00	1700	826	9.3	-15.7	290	6	
2025-11-06T12:00	1720	824	9.2	-15.6	293	6	
2025-11-06T12:00	1740	822	9.1	-15.6	294	6	
2025-11-06T12:00	1760	820	9.0	-15.4	293	6	
2025-11-06T12:00	1780	818	8.9	-15.4	291	6	
2025-11-06T12:00	1800	816	8.7	-15.5	287	6	
2025-11-06T12:00	1820	814	8.6	-15.6	283	6	
2025-11-06T12:00	1840	812	8.5	-15.6	278	6	
2025-11-06T12:00	1860	810	8.5	-15.6	273	6	
2025-11-06T12:00	1880	808	8.4	-15.7	267	6	
2025-11-06T12:00	1900	806	8.4	-15.9	260	6	
2025-11-06T12:00	1920	804	8.4	-16.1	254	6	
2025-11-06T12:00	1940	802	8.3	-16.2	247	6	
2025-11-06T12:00	1960	800	8.2	-16.2	240	7	
2025-11-06T12:00	1980	798	7.9	-16.3	234	7	
2025-11-06T12:00	2000	797	7.8	-16.6	228	7	
2025-11-06T12:00	2020	795	7.7	-16.6	223	7	
2025-11-06T12:00	2040	792	7.6	-16.7	218	8	
2025-11-06T12:00	2060	790	7.4	-16.9	216	8	
2025-11-06T12:00	2080	789	7.7	-17.9	214	8	
2025-11-06T12:00	2100	787	8.0	-18.5	215	7	
2025-11-06T12:00	2120	785	8.1	-18.8	219	7	
2025-11-06T12:00	2140	783	8.1	-19.0	224	6	
2025-11-06T12:00	2160	781	7.9	-19.0	232	6	
2025-11-06T12:00	2180	779	7.7	-19.0	240	5	
2025-11-06T12:00	2200	777	7.6	-19.1	246	5	
2025-11-06T12:00	2220	775	7.4	-19.1	251	5	
2025-11-06T12:00	2240	774	7.2	-19.1	254	5	
2025-11-06T12:00	2260	772	7.2	-19.1	257	5	
2025-11-06T12:00	2280	770	7.3	-19.5	258	6	
2025-11-06T12:00	2300	768	7.3	-19.7	258	6	
2025-11-06T12:00	2320	766	7.2	-19.8	254	6	
2025-11-06T12:00	2340	764	7.1	-20.1	249	6	
2025-11-06T12:00	2360	762	7.1	-20.3	243	6	
2025-11-06T12:00	2380	761	7.0	-20.6	238	6	
2025-11-06T12:00	2400	759	6.9	-20.8	234	6	
2025-11-06T12:00	2420	757	6.8	-21.1	230	6	
2025-11-06T12:00	2440	755	7.0	-21.8	228	5	
2025-11-06T12:00	2460	753	7.0	-22.0	229	5	
2025-11-06T12:00	2480	751	6.9	-22.1	230	5	
2025-11-06T12:00	2500	749	6.9	-22.3	232	4	
2025-11-06T12:00	2520	748	6.8	-22.4	233	4	
2025-11-06T12:00	2540	746	6.7	-22.4	232	4	
2025-11-06T12:00	2560	744	6.5	-22.4	228	4	
2025-11-06T12:00	2580	742	6.3	-22.5	223	5	
2025-11-06T12:00	2600	740	6.1	-22.5	219	5	
2025-11-06T12:00	2620	739	6.0	-22.7	216	5	
2025-11-06T12:00	2640	737	5.8	-22.7	214	5	
2025-11-06T12:00	2660	735	5.6	-22.8	214	5	
2025-11-06T12:00	2680	733	5.4	-22.7	216	5	
2025-11-06T12:00	2700	731	5.2	-22.8	219	5	
2025-11-06T12:00	2720	730	5.1	-23.0	223	4	
2025-11-06T12:00	2740	728	4.9	-23.1	230	4	
2025-11-06T12:00	2760	726	4.7	-23.1	237	4	
2025-11-06T12:00	2780	724	4.6	-23.4	245	3	
2025-11-06T12:00	2800	723	4.5	-23.7	252	3	
2025-11-06T12:00	2820	721	4.4	-23.8	256	3	
2025-11-06T12:00	2840	719	4.2	-23.8	254	3	
2025-11-06T12:00	2860	717	4.0	-23.9	247	3	
2025-11-06T12:00	2880	715	3.9	-23.9	240	3	
2025-11-06T12:00	2900	714	3.7	-23.9	236	3	
2025-11-06T12:00	2920	712	3.6	-23.8	236	4	
2025-11-06T12:00	2940	710	3.4	-23.9	238	4	
2025-11-06T12:00	2960	708	3.2	-24.0	240	4	
2025-11-06T12:00	2980	707	3.2	-24.2	243	5	
2025-11-06T12:00	3000	705	3.0	-24.2	246	5	
2025-11-06T12:00	3020	703	2.8	-24.3	249	5	
2025-11-06T12:00	3040	701	2.7	-24.5	251	5	
2025-11-06T12:00	3060	700	2.6	-24.5	254	5	
2025-11-06T12:00	3080	698	2.4	-24.6	256	5	
2025-11-06T12:00	3100	696	2.2	-24.6	257	4	
2025-11-06T12:00	3120	694	2.0	-24.8	257	4	
2025-11-06T12:00	3140	693	1.9	-24.9	257	4	
2025-11-06T12:00	3160	691	1.7	-25.0	257	3	
2025-11-06T12:00	3180	689	1.5	-25.0	255	3	
2025-11-06T12:00	3200	688	1.3	-25.0	253	3	
2025-11-06T12:00	3220	686	1.1	-25.1	249	3	
2025-11-06T12:00	3240	684	1.0	-25.3	244	3	
2025-11-06T12:00	3260	682	0.8	-25.4	238	3	
2025-11-06T12:00	3280	681	0.7	-25.6	230	3	
2025-11-06T12:00	3300	679	0.5	-25.6	223	3	
2025-11-06T12:00	3320	677	0.4	-25.9	218	3	
2025-11-06T12:00	3340	676	0.3	-26.0	216	3	
2025-11-06T12:00	3360	674	0.1	-26.1	216	3	
2025-11-06T12:00	3380	672	-0.1	-26.1	219	3	
2025-11-06T12:00	3400	671	-0.2	-26.1	224	2	
2025-11-06T12:00	3420	669	-0.4	-26.3	231	2	
2025-11-06T12:00	3440	667	-0.5	-26.4	241	2	
2025-11-06T12:00	3460	666	-0.7	-26.5	245	2	
2025-11-06T12:00	3480	664	-0.9	-26.6	244	2	
2025-11-06T12:00	3500	662	-1.0	-26.7	238	2	
2025-11-06T12:00	3520	661	-1.2	-26.8	228	2	
2025-11-06T12:00	3540	659	-1.3	-26.9	216	2	
2025-11-06T12:00	3560	657	-1.5	-26.9	200	2	
2025-11-06T12:00	3580	656	-1.7	-26.9	184	3	
2025-11-06T12:00	3600	654	-1.8	-27.1	174	3	
2025-11-06T12:00	3620	652	-1.9	-27.3	170	4	
2025-11-06T12:00	3640	651	-2.0	-27.4	169	4	
2025-11-06T12:00	3660	649	-2.1	-27.5	170	4	
2025-11-06T12:00	3680	647	-2.3	-27.7	172	4	
2025-11-06T12:00	3700	646	-2.4	-27.7	175	4	
2025-11-06T12:00	3720	644	-2.6	-27.7	179	4	
2025-11-06T12:00	3740	642	-2.8	-27.7	184	4	
2025-11-06T12:00	3760	641	-3.0	-27.7	190	4	
2025-11-06T12:00	3780	639	-3.1	-27.8	194	4	
2025-11-06T12:00	3800	638	-3.3	-27.8	196	4	
2025-11-06T12:00	3820	636	-3.5	-28.0	197	4	
2025-11-06T12:00	3840	635	-3.7	-27.8	197	4	
2025-11-06T12:00	3860	633	-3.9	-27.9	196	4	
2025-11-06T12:00	3880	631	-4.1	-27.9	194	4	
2025-11-06T12:00	3900	630	-4.3	-28.0	188	4	
2025-11-06T12:00	3920	628	-4.5	-28.0	182	4	
2025-11-06T12:00	3940	627	-4.6	-28.1	175	3	
2025-11-06T12:00	3960	625	-4.8	-28.1	168	3	
2025-11-06T12:00	3980	623	-5.0	-28.1	163	4	
2025-11-06T12:00	4000	622	-5.2	-28.1	161	4	
2025-11-06T12:00	4020	620	-5.4	-28.2	160	4	
2025-11-06T12:00	4040	618	-5.6	-28.2	159	4	
2025-11-06T12:00	4060	617	-5.7	-28.2	158	4	
2025-11-06T12:00	4080	615	-5.9	-28.3	155	4	
2025-11-06T12:00	4100	614	-6.0	-28.4	151	5	
2025-11-06T12:00	4120	612	-6.2	-28.4	148	5	
2025-11-06T12:00	4140	611	-6.4	-28.5	145	5	
2025-11-06T12:00	4160	609	-6.4	-28.8	143	5	
2025-11-06T12:00	4180	608	-6.4	-29.0	142	5	
2025-11-06T12:00	4200	606	-6.5	-29.1	141	6	
2025-11-06T12:00	4220	604	-6.7	-29.3	142	6	
2025-11-06T12:00	4240	603	-6.9	-29.4	144	6	
2025-11-06T12:00	4260	601	-7.0	-29.4	148	6	
2025-11-06T12:00	4280	600	-7.2	-29.4	150	7	
2025-11-06T12:00	4300	598	-7.3	-29.5	153	7	
2025-11-06T12:00	4320	597	-7.3	-30.0	156	8	
2025-11-06T12:00	4340	595	-7.0	-30.6	159	8	
2025-11-06T12:00	4360	594	-6.8	-30.9	161	9	
2025-11-06T12:00	4380	592	-6.7	-31.8	162	9	
2025-11-06T12:00	4400	590	-6.6	-32.2	162	10	
2025-11-06T12:00	4420	589	-6.8	-32.3	162	10	
2025-11-06T12:00	4440	588	-6.9	-32.4	161	10	
2025-11-06T12:00	4460	586	-7.1	-32.1	161	10	
2025-11-06T12:00	4480	585	-7.3	-31.9	162	10	
2025-11-06T12:00	4500	583	-7.5	-31.8	163	10	
2025-11-06T12:00	4520	582	-7.6	-31.6	165	10	
2025-11-06T12:00	4540	580	-7.7	-31.5	168	10	
2025-11-06T12:00	4560	579	-7.9	-31.4	172	10	
2025-11-06T12:00	4580	577	-8.1	-31.4	176	10	
2025-11-06T12:00	4600	576	-8.1	-32.8	180	11	
2025-11-06T12:00	4620	574	-8.3	-33.3	183	11	
2025-11-06T12:00	4640	573	-8.4	-33.3	185	11	
2025-11-06T12:00	4660	571	-8.4	-33.6	186	11	
2025-11-06T12:00	4680	570	-8.5	-33.2	187	12	
2025-11-06T12:00	4700	568	-8.6	-32.8	187	12	
2025-11-06T12:00	4720	567	-8.5	-31.4	188	12	
2025-11-06T12:00	4740	565	-8.4	-24.4	188	12	
2025-11-06T12:00	4760	564	-8.5	-22.9	188	13	
2025-11-06T12:00	4780	562	-8.7	-21.0	188	13	
2025-11-06T12:00	4800	561	-8.8	-20.7	187	13	
2025-11-06T12:00	4820	559	-9.0	-20.1	186	13	
2025-11-06T12:00	4840	558	-9.0	-19.1	186	13	
2025-11-06T12:00	4860	557	-9.1	-18.5	185	13	
2025-11-06T12:00	4880	555	-9.2	-17.3	184	13	
2025-11-06T12:00	4900	554	-9.4	-16.8	184	13	
2025-11-06T12:00	4920	552	-9.6	-16.5	184	14	
2025-11-06T12:00	4940	551	-9.8	-16.8	185	14	
2025-11-06T12:00	4960	549	-9.9	-17.4	185	14	
2025-11-06T12:00	4980	548	-10.1	-17.7	185	14	
2025-11-06T12:00	5000	547	-10.3	-17.9	184	14	
2025-11-06T12:00	5020	545	-10.4	-18.4	184	14	
2025-11-06T12:00	5040	544	-10.6	-19.0	184	14	
2025-11-06T12:00	5060	542	-10.7	-19.7	184	14	
2025-11-06T12:00	5080	541	-10.8	-19.7	183	14	
2025-11-06T12:00	5100	540	-11.0	-19.8	183	14	
2025-11-06T12:00	5120	538	-11.1	-20.1	183	15	
2025-11-06T12:00	5140	537	-11.2	-20.4	182	15	
2025-11-06T12:00	5160	535	-11.4	-20.6	182	15	
2025-11-06T12:00	5180	534	-11.5	-21.0	182	15	
2025-11-06T12:00	5200	532	-11.5	-21.5	182	16	
2025-11-06T12:00	5220	531	-11.5	-22.6	182	16	
2025-11-06T12:00	5240	530	-11.6	-23.3	182	16	
2025-11-06T12:00	5260	529	-11.7	-23.8	181	17	
2025-11-06T12:00	5280	527	-11.9	-24.4	181	17	
2025-11-06T12:00	5300	526	-12.0	-24.9	181	17	
2025-11-06T12:00	5320	524	-12.1	-24.9	180	18	
2025-11-06T12:00	5340	523	-12.1	-24.4	180	18	
2025-11-06T12:00	5360	522	-12.2	-24.1	180	18	
2025-11-06T12:00	5380	520	-12.4	-23.9	180	18	
2025-11-06T12:00	5400	519	-12.5	-23.5	179	18	
2025-11-06T12:00	5420	518	-12.7	-23.3	179	18	
2025-11-06T12:00	5440	516	-12.8	-23.2	178	18	
2025-11-06T12:00	5460	515	-12.9	-23.4	178	18	
2025-11-06T12:00	5480	513	-13.0	-23.9	177	18	
2025-11-06T12:00	5500	512	-13.1	-24.4	176	18	
2025-11-06T12:00	5520	511	-13.2	-23.9	176	18	
2025-11-06T12:00	5540	509	-13.4	-22.9	175	18	
2025-11-06T12:00	5560	508	-13.4	-22.6	175	18	
2025-11-06T12:00	5580	507	-13.5	-22.0	175	18	
2025-11-06T12:00	5600	505	-13.6	-23.1	175	17	
2025-11-06T12:00	5620	504	-13.8	-23.6	175	17	
2025-11-06T12:00	5640	503	-14.0	-24.2	174	16	
2025-11-06T12:00	5660	501	-14.1	-24.0	174	16	
2025-11-06T12:00	5680	500	-14.3	-24.0	174	16	
2025-11-06T12:00	5700	499	-14.4	-24.1	174	17	
2025-11-06T12:00	5720	498	-14.6	-23.6	174	17	
2025-11-06T12:00	5740	496	-14.7	-23.4	174	17	
2025-11-06T12:00	5760	495	-14.9	-22.8	174	17	
2025-11-06T12:00	5780	494	-15.1	-22.7	174	17	
2025-11-06T12:00	5800	492	-15.3	-22.6	174	18	
2025-11-06T12:00	5820	491	-15.4	-22.6	175	18	
2025-11-06T12:00	5840	490	-15.6	-22.2	175	18	
2025-11-06T12:00	5860	488	-15.8	-22.0	175	18	
2025-11-06T12:00	5880	487	-15.9	-21.8	174	18	
2025-11-06T12:00	5900	486	-16.1	-21.8	174	18	
2025-11-06T12:00	5920	485	-16.3	-21.9	174	19	
2025-11-06T12:00	5940	483	-16.5	-21.9	175	19	
2025-11-06T12:00	5960	482	-16.7	-21.8	176	19	
2025-11-06T12:00	5980	481	-16.8	-21.8	177	19	
2025-11-06T12:00	6000	479	-17.0	-22.2	177	19	
2025-11-06T12:00	6020	478	-17.1	-22.5	178	19	
2025-11-06T12:00	6040	477	-17.2	-22.7	178	19	
2025-11-06T12:00	6060	476	-17.3	-22.3	177	19	
2025-11-06T12:00	6080	474	-17.5	-22.5	177	19	
2025-11-06T12:00	6100	473	-17.7	-22.6	176	19	
2025-11-06T12:00	6120	472	-17.9	-22.9	176	19	
2025-11-06T12:00	6140	471	-18.1	-22.8	175	19	
2025-11-06T12:00	6160	469	-18.2	-22.9	174	19	
2025-11-06T12:00	6180	468	-18.4	-23.2	173	19	
2025-11-06T12:00	6200	467	-18.5	-23.4	172	19	
2025-11-06T12:00	6220	466	-18.7	-23.2	170	19	
2025-11-06T12:00	6240	464	-18.9	-23.3	169	20	
2025-11-06T12:00	6260	463	-19.1	-23.5	169	20	
2025-11-06T12:00	6280	462	-19.3	-23.6	169	20	
2025-11-06T12:00	6300	461	-19.4	-23.5	169	20	
2025-11-06T12:00	6320	459	-19.6	-23.6	171	20	
2025-11-06T12:00	6340	458	-19.8	-23.5	172	20	
2025-11-06T12:00	6360	457	-19.9	-23.4	174	20	
2025-11-06T12:00	6380	456	-20.0	-23.3	175	20	
2025-11-06T12:00	6400	454	-20.1	-23.0	175	20	
2025-11-06T12:00	6420	453	-20.2	-23.2	175	20	
2025-11-06T12:00	6440	452	-20.3	-23.6	175	20	
2025-11-06T12:00	6460	451	-20.4	-23.9	175	20	
2025-11-06T12:00	6480	450	-20.5	-23.9	175	20	
2025-11-06T12:00	6500	448	-20.7	-23.9	175	19	
2025-11-06T12:00	6520	447	-20.9	-24.0	175	19	
2025-11-06T12:00	6540	446	-21.1	-24.2	175	19	
2025-11-06T12:00	6560	445	-21.2	-24.7	174	20	
2025-11-06T12:00	6580	443	-21.3	-24.9	173	20	
2025-11-06T12:00	6600	442	-21.4	-25.0	173	20	
2025-11-06T12:00	6620	441	-21.5	-25.5	172	20	
2025-11-06T12:00	6640	440	-21.6	-25.8	171	20	
2025-11-06T12:00	6660	439	-21.7	-26.0	169	20	
2025-11-06T12:00	6680	437	-21.8	-26.1	168	20	
2025-11-06T12:00	6700	436	-21.9	-25.7	168	20	
2025-11-06T12:00	6720	435	-22.1	-25.7	168	20	
2025-11-06T12:00	6740	434	-22.3	-25.8	169	19	
2025-11-06T12:00	6760	433	-22.5	-26.0	169	19	
2025-11-06T12:00	6780	432	-22.6	-26.2	170	18	
2025-11-06T12:00	6800	430	-22.8	-26.3	170	18	
2025-11-06T12:00	6820	429	-22.9	-26.3	170	18	
2025-11-06T12:00	6840	428	-23.1	-26.3	169	18	
2025-11-06T12:00	6860	427	-23.2	-26.4	169	18	
2025-11-06T12:00	6880	426	-23.4	-26.6	168	19	
2025-11-06T12:00	6900	424	-23.6	-26.9	168	19	
2025-11-06T12:00	6920	423	-23.7	-27.0	167	19	
2025-11-06T12:00	6940	422	-23.9	-27.2	167	19	
2025-11-06T12:00	6960	421	-24.1	-27.3	167	20	
2025-11-06T12:00	6980	420	-24.3	-27.3	167	20	
2025-11-06T12:00	7000	419	-24.5	-27.5	167	19	
2025-11-06T12:00	7020	418	-24.6	-27.6	168	19	
2025-11-06T12:00	7040	416	-24.8	-27.6	168	19	
2025-11-06T12:00	7060	415	-25.0	-27.6	169	19	
2025-11-06T12:00	7080	414	-25.1	-27.7	169	19	
2025-11-06T12:00	7100	413	-25.3	-27.9	170	19	
2025-11-06T12:00	7120	412	-25.5	-28.2	170	19	
2025-11-06T12:00	7140	411	-25.6	-28.3	169	19	
2025-11-06T12:00	7160	410	-25.8	-28.3	168	19	
2025-11-06T12:00	7180	408	-26.0	-28.1	168	19	
2025-11-06T12:00	7200	407	-26.1	-28.5	167	19	
2025-11-06T12:00	7220	406	-26.2	-28.9	166	19	
2025-11-06T12:00	7240	405	-26.4	-29.0	166	19	
2025-11-06T12:00	7260	404	-26.5	-29.1	166	19	
2025-11-06T12:00	7280	403	-26.7	-29.0	166	19	
2025-11-06T12:00	7300	402	-26.9	-29.1	166	19	
2025-11-06T12:00	7320	401	-27.1	-29.1	167	18	
2025-11-06T12:00	7340	400	-27.3	-29.2	167	18	
2025-11-06T12:00	7360	398	-27.4	-29.9	167	18	
2025-11-06T12:00	7380	397	-27.5	-30.0	167	18	
2025-11-06T12:00	7400	396	-27.7	-30.6	167	18	
2025-11-06T12:00	7420	395	-27.9	-30.6	167	18	
2025-11-06T12:00	7440	394	-28.0	-31.0	167	18	
2025-11-06T12:00	7460	393	-28.2	-31.4	166	18	
2025-11-06T12:00	7480	392	-28.4	-31.3	166	18	
2025-11-06T12:00	7500	391	-28.5	-31.7	166	18	
2025-11-06T12:00	7520	390	-28.7	-31.9	166	18	
2025-11-06T12:00	7540	389	-28.9	-32.1	166	18	
2025-11-06T12:00	7560	387	-29.0	-32.3	166	18	
2025-11-06T12:00	7580	386	-29.2	-32.5	166	18	
2025-11-06T12:00	7600	385	-29.4	-32.6	166	18	
2025-11-06T12:00	7620	384	-29.5	-32.7	166	18	
2025-11-06T12:00	7640	383	-29.6	-32.9	167	18	
2025-11-06T12:00	7660	382	-29.8	-32.9	167	18	
2025-11-06T12:00	7680	381	-30.0	-32.9	167	18	
2025-11-06T12:00	7700	380	-30.2	-32.8	166	18	
2025-11-06T12:00	7720	379	-30.4	-33.1	166	18	
2025-11-06T12:00	7740	378	-30.6	-33.5	166	18	
2025-11-06T12:00	7760	377	-30.7	-33.7	166	18	
2025-11-06T12:00	7780	376	-30.9	-34.0	166	18	
2025-11-06T12:00	7800	375	-31.0	-34.3	166	19	
2025-11-06T12:00	7820	374	-31.2	-34.7	166	19	
2025-11-06T12:00	7840	372	-31.3	-35.4	166	19	
2025-11-06T12:00	7860	372	-31.4	-35.5	167	19	
2025-11-06T12:00	7880	370	-31.6	-36.1	168	19	
2025-11-06T12:00	7900	369	-31.7	-36.4	168	19	
2025-11-06T12:00	7920	368	-31.9	-36.5	169	20	
2025-11-06T12:00	7940	367	-32.1	-36.5	170	20	
2025-11-06T12:00	7960	366	-32.3	-36.5	170	20	
2025-11-06T12:00	7980	365	-32.5	-36.6	171	20	
2025-11-06T12:00	8000	364	-32.7	-36.6	172	20	
2025-11-06T12:00	8020	363	-32.8	-36.5	173	20	
2025-11-06T12:00	8040	362	-33.0	-36.6	174	20	
2025-11-06T12:00	8060	361	-33.2	-36.6	174	20	
2025-11-06T12:00	8080	360	-33.4	-36.5	175	20	
2025-11-06T12:00	8100	359	-33.6	-36.6	176	20	
2025-11-06T12:00	8120	358	-33.8	-36.6	176	20	
2025-11-06T12:00	8140	357	-34.0	-36.9	176	19	
2025-11-06T12:00	8160	356	-34.0	-37.5	176	19	
2025-11-06T12:00	8180	355	-34.2	-37.8	175	19	
2025-11-06T12:00	8200	354	-34.3	-37.9	174	19	
2025-11-06T12:00	8220	353	-34.4	-38.1	174	19	
2025-11-06T12:00	8240	352	-34.5	-38.8	173	19	
2025-11-06T12:00	8260	351	-34.6	-39.8	171	19	
2025-11-06T12:00	8280	350	-34.6	-40.3	170	19	
2025-11-06T12:00	8300	349	-34.6	-40.4	169	19	
2025-11-06T12:00	8320	348	-34.7	-40.4	168	19	
2025-11-06T12:00	8340	347	-34.9	-40.8	167	20	
2025-11-06T12:00	8360	346	-35.0	-41.3	166	19	
2025-11-06T12:00	8380	345	-35.2	-41.7	165	20	
2025-11-06T12:00	8400	344	-35.3	-42.0	164	19	
2025-11-06T12:00	8420	343	-35.3	-42.6	163	19	
2025-11-06T12:00	8440	342	-35.4	-43.1	163	19	
2025-11-06T12:00	8460	341	-35.4	-44.1	162	19	
2025-11-06T12:00	8480	340	-35.3	-45.3	162	19	
2025-11-06T12:00	8500	339	-35.3	-45.7	162	19	
2025-11-06T12:00	8520	338	-35.4	-45.5	162	19	
2025-11-06T12:00	8540	337	-35.6	-45.3	162	19	
2025-11-06T12:00	8560	336	-35.7	-45.1	162	19	
2025-11-06T12:00	8580	335	-35.9	-45.3	163	20	
2025-11-06T12:00	8600	334	-36.0	-45.4	163	20	
2025-11-06T12:00	8620	333	-36.2	-45.2	163	20	
2025-11-06T12:00	8640	332	-36.4	-45.0	164	20	
2025-11-06T12:00	8660	331	-36.5	-45.6	164	20	
2025-11-06T12:00	8680	330	-36.4	-48.3	164	20	
2025-11-06T12:00	8700	329	-36.4	-50.0	165	20	
2025-11-06T12:00	8720	328	-36.4	-51.1	165	20	
2025-11-06T12:00	8740	327	-36.5	-51.5	165	20	
2025-11-06T12:00	8760	326	-36.5	-51.6	165	20	
2025-11-06T12:00	8780	326	-36.6	-51.6	164	20	
2025-11-06T12:00	8800	325	-36.7	-51.8	164	20	
2025-11-06T12:00	8820	324	-36.8	-52.5	164	20	
2025-11-06T12:00	8840	323	-36.9	-53.1	163	21	
2025-11-06T12:00	8860	322	-37.0	-53.2	162	21	
2025-11-06T12:00	8880	321	-37.1	-53.2	161	21	
2025-11-06T12:00	8900	320	-37.3	-53.3	160	21	
2025-11-06T12:00	8920	319	-37.3	-53.4	159	21	
2025-11-06T12:00	8940	318	-37.5	-53.4	158	21	
2025-11-06T12:00	8960	317	-37.5	-53.6	157	21	
2025-11-06T12:00	8980	316	-37.6	-53.7	156	21	
2025-11-06T12:00	9000	315	-37.8	-53.7	155	21	
2025-11-06T12:00	9020	315	-37.9	-53.1	155	21	
2025-11-06T12:00	9040	314	-37.9	-52.1	155	21	
2025-11-06T12:00	9060	313	-38.0	-51.4	155	21	
2025-11-06T12:00	9080	312	-38.1	-51.6	155	21	
2025-11-06T12:00	9100	311	-38.3	-52.0	155	21	
2025-11-06T12:00	9120	310	-38.4	-51.9	156	21	
2025-11-06T12:00	9140	309	-38.5	-51.1	157	20	
2025-11-06T12:00	9160	308	-38.7	-51.8	157	20	
2025-11-06T12:00	9180	307	-38.8	-52.8	158	20	
2025-11-06T12:00	9200	306	-38.9	-54.2	158	20	
2025-11-06T12:00	9220	305	-39.1	-55.1	159	20	
2025-11-06T12:00	9240	305	-39.2	-53.3	159	20	
2025-11-06T12:00	9260	304	-39.4	-52.4	159	20	
2025-11-06T12:00	9280	303	-39.6	-52.3	159	20	
2025-11-06T12:00	9300	302	-39.8	-52.4	159	20	
2025-11-06T12:00	9320	301	-40.0	-52.2	159	20	
2025-11-06T12:00	9340	300	-40.2	-51.9	158	20	
2025-11-06T12:00	9360	299	-40.4	-52.0	158	19	
2025-11-06T12:00	9380	298	-40.6	-52.0	158	19	
2025-11-06T12:00	9400	298	-40.8	-52.3	158	19	
2025-11-06T12:00	9420	297	-41.0	-52.9	158	19	
2025-11-06T12:00	9440	296	-41.1	-52.0	158	19	
2025-11-06T12:00	9460	295	-41.3	-51.9	159	19	
2025-11-06T12:00	9480	294	-41.5	-52.0	159	19	
2025-11-06T12:00	9500	293	-41.6	-52.4	160	19	
2025-11-06T12:00	9520	292	-41.8	-52.8	160	19	
2025-11-06T12:00	9540	291	-42.0	-53.0	161	19	
2025-11-06T12:00	9560	291	-42.1	-53.1	161	19	
2025-11-06T12:00	9580	290	-42.2	-53.1	162	19	
2025-11-06T12:00	9600	289	-42.4	-54.1	162	19	
2025-11-06T12:00	9620	288	-42.5	-53.1	163	19	
2025-11-06T12:00	9640	287	-42.7	-52.3	163	19	
2025-11-06T12:00	9660	286	-42.7	-52.4	164	19	
2025-11-06T12:00	9680	285	-42.7	-54.1	164	19	
2025-11-06T12:00	9700	285	-42.8	-54.9	165	19	
2025-11-06T12:00	9720	284	-42.9	-53.6	165	19	
2025-11-06T12:00	9740	283	-43.1	-52.5	165	19	
2025-11-06T12:00	9760	282	-43.2	-51.9	166	19	
2025-11-06T12:00	9780	281	-43.4	-52.4	166	19	
2025-11-06T12:00	9800	280	-43.6	-53.9	165	18	
2025-11-06T12:00	9820	280	-43.7	-54.2	165	18	
2025-11-06T12:00	9840	279	-43.9	-53.3	165	19	
2025-11-06T12:00	9860	278	-44.0	-51.1	164	19	
2025-11-06T12:00	9880	277	-44.1	-49.1	164	19	
2025-11-06T12:00	9900	276	-44.2	-49.1	163	19	
2025-11-06T12:00	9920	275	-44.4	-49.9	162	19	
2025-11-06T12:00	9940	275	-44.6	-50.6	161	20	
2025-11-06T12:00	9960	274	-44.8	-50.8	160	20	
2025-11-06T12:00	9980	273	-44.9	-50.9	159	20	
2025-11-06T12:00	10000	272	-45.1	-50.8	159	20	
2025-11-06T12:00	10018	271	-45.3	-51.0	158	20	
2025-11-06T12:00	10050	270	-45.6	-51.3	157	20	
2025-11-06T12:00	10100	268	-46.1	-51.4	157	21	
2025-11-06T12:00	10150	266	-46.5	-51.9	157	21	
2025-11-06T12:00	10200	264	-47.0	-52.0	157	21	
2025-11-06T12:00	10250	262	-47.5	-52.4	156	21	
2025-11-06T12:00	10300	260	-48.0	-52.8	156	22	
2025-11-06T12:00	10350	258	-48.4	-53.4	155	22	
2025-11-06T12:00	10400	256	-48.9	-53.9	156	22	
2025-11-06T12:00	10450	254	-49.3	-54.4	157	22	
2025-11-06T12:00	10500	252	-49.6	-54.8	157	21	
2025-11-06T12:00	10550	250	-50.0	-55.5	156	21	
2025-11-06T12:00	10600	249	-50.3	-55.9	155	21	
2025-11-06T12:00	10650	247	-50.8	-56.6	155	21	
2025-11-06T12:00	10700	245	-51.1	-56.8	154	20	
2025-11-06T12:00	10750	243	-51.3	-57.1	154	20	
2025-11-06T12:00	10800	241	-51.7	-57.6	154	19	
2025-11-06T12:00	10850	239	-52.1	-58.0	155	19	
2025-11-06T12:00	10900	237	-52.5	-58.3	157	19	
2025-11-06T12:00	10950	235	-53.0	-58.1	158	19	
2025-11-06T12:00	11000	234	-53.4	-58.5	159	19	
2025-11-06T12:00	11050	232	-53.9	-58.7	160	19	
2025-11-06T12:00	11100	230	-54.3	-59.1	161	20	
2025-11-06T12:00	11150	228	-54.8	-60.5	161	20	
2025-11-06T12:00	11200	226	-55.2	-61.3	162	20	
2025-11-06T12:00	11250	225	-55.7	-61.3	163	20	
2025-11-06T12:00	11300	223	-56.1	-61.5	163	20	
2025-11-06T12:00	11350	221	-56.6	-62.0	163	20	
2025-11-06T12:00	11400	219	-57.0	-62.0	162	20	
2025-11-06T12:00	11450	218	-57.5	-62.1	161	19	
2025-11-06T12:00	11500	216	-57.9	-62.4	161	19	
2025-11-06T12:00	11550	214	-58.3	-62.9	161	19	
2025-11-06T12:00	11600	213	-58.8	-63.3	161	20	
2025-11-06T12:00	11650	211	-59.3	-63.8	162	20	
2025-11-06T12:00	11700	209	-59.7	-64.0	163	20	
2025-11-06T12:00	11750	208	-60.2	-64.2	164	19	
2025-11-06T12:00	11800	206	-60.5	-64.5	164	19	
2025-11-06T12:00	11850	204	-60.9	-64.9	162	18	
2025-11-06T12:00	11900	203	-61.3	-65.3	160	18	
2025-11-06T12:00	11950	201	-61.6	-65.5	158	18	
2025-11-06T12:00	12000	199	-61.8	-65.6	156	18	
2025-11-06T12:00	12050	198	-62.2	-65.8	155	18	
2025-11-06T12:00	12100	196	-62.6	-66.1	154	19	
2025-11-06T12:00	12150	195	-63.0	-66.4	154	19	
2025-11-06T12:00	12200	193	-63.5	-67.3	156	20	
2025-11-06T12:00	12250	191	-63.9	-68.3	159	21	
2025-11-06T12:00	12300	190	-64.1	-68.8	163	22	
2025-11-06T12:00	12350	188	-64.2	-68.9	166	22	
2025-11-06T12:00	12400	187	-64.5	-69.3	170	23	
2025-11-06T12:00	12450	185	-64.5	-69.3	174	24	
2025-11-06T12:00	12500	184	-64.9	-69.6	178	24	
2025-11-06T12:00	12550	182	-65.1	-69.8	178	25	
2025-11-06T12:00	12600	181	-64.8	-70.0	176	25	
2025-11-06T12:00	12650	179	-62.5	-71.3	175	25	
2025-11-06T12:00	12700	178	-60.5	-75.4	177	26	
2025-11-06T12:00	12750	176	-60.5	-78.5	181	26	
2025-11-06T12:00	12800	175	-60.1	-79.9	184	26	
2025-11-06T12:00	12850	174	-59.3	-80.5	186	26	
2025-11-06T12:00	12900	172	-59.5	-80.7	187	25	
2025-11-06T12:00	12950	171	-59.9	-80.0	188	24	
2025-11-06T12:00	13000	169	-60.2	-79.7	190	24	
2025-11-06T12:00	13050	168	-60.4	-79.8	192	24	
2025-11-06T12:00	13100	167	-60.3	-79.8	191	24	
2025-11-06T12:00	13150	165	-60.0	-80.0	189	23	
2025-11-06T12:00	13200	164	-59.9	-80.6	186	22	
2025-11-06T12:00	13250	163	-59.4	-80.9	185	22	
2025-11-06T12:00	13300	162	-58.8	-80.9	185	22	
2025-11-06T12:00	13350	160	-59.2	-81.0	184	23	
2025-11-06T12:00	13400	159	-59.7	-80.9	183	23	
2025-11-06T12:00	13450	158	-60.0	-81.0	182	23	
2025-11-06T12:00	13500	156	-59.9	-81.2	182	23	
2025-11-06T12:00	13550	155	-59.2	-81.3	183	23	
2025-11-06T12:00	13600	154	-58.7	-81.5	185	23	
2025-11-06T12:00	13650	153	-58.6	-81.6	186	23	
2025-11-06T12:00	13700	152	-58.8	-81.7	187	23	
2025-11-06T12:00	13750	150	-58.9	-82.1	186	23	
2025-11-06T12:00	13800	149	-59.1	-82.5	185	23	
2025-11-06T12:00	13850	148	-59.3	-82.7	183	23	
2025-11-06T12:00	13900	147	-59.6	-82.6	181	23	
2025-11-06T12:00	13950	146	-60.0	-82.6	181	23	
2025-11-06T12:00	14000	144	-60.4	-82.6	181	23	
2025-11-06T12:00	14050	143	-60.8	-82.7	182	23	
2025-11-06T12:00	14100	142	-61.2	-82.8	184	24	
2025-11-06T12:00	14150	141	-61.4	-82.9	184	24	
2025-11-06T12:00	14200	140	-61.7	-83.0	186	24	
2025-11-06T12:00	14250	139	-62.1	-83.1	188	23	
2025-11-06T12:00	14300	138	-62.4	-83.3	190	23	
2025-11-06T12:00	14350	137	-62.5	-83.4	192	22	
2025-11-06T12:00	14400	135	-62.8	-83.7	195	22	
2025-11-06T12:00	14450	134	-62.7	-83.8	197	23	
2025-11-06T12:00	14500	133	-62.8	-83.8	199	23	
2025-11-06T12:00	14550	132	-63.1	-84.0	201	24	
2025-11-06T12:00	14600	131	-63.4	-84.2	204	24	
2025-11-06T12:00	14650	130	-63.5	-84.3	207	23	
2025-11-06T12:00	14700	129	-63.6	-84.5	211	22	
2025-11-06T12:00	14750	128	-63.4	-84.7	216	21	
2025-11-06T12:00	14800	127	-63.2	-84.7	220	20	
2025-11-06T12:00	14850	126	-63.3	-84.8	223	18	
2025-11-06T12:00	14900	125	-63.3	-84.7	227	16	
2025-11-06T12:00	14950	124	-63.3	-84.7	230	15	
2025-11-06T12:00	15000	123	-63.1	-84.6	232	13	
2025-11-06T12:00	15050	122	-63.2	-84.7	234	11	
2025-11-06T12:00	15100	121	-63.1	-84.8	236	8	
2025-11-06T12:00	15150	120	-62.9	-84.6	235	6	
2025-11-06T12:00	15200	119	-63.0	-84.5	227	5	
2025-11-06T12:00	15250	118	-63.2	-84.6	207	4	
2025-11-06T12:00	15300	117	-63.3	-84.5	186	4	
2025-11-06T12:00	15350	116	-63.5	-84.5	173	5	
2025-11-06T12:00	15400	115	-63.6	-84.4	168	6	
2025-11-06T12:00	15450	114	-63.8	-84.4	165	7	
2025-11-06T12:00	15500	113	-64.2	-84.5	164	7	
2025-11-06T12:00	15550	112	-64.6	-84.5	163	8	
2025-11-06T12:00	15600	111	-65.1	-84.6	162	9	
2025-11-06T12:00	15650	110	-65.5	-84.6	161	9	
2025-11-06T12:00	15700	110	-65.8	-84.7	161	10	
2025-11-06T12:00	15750	109	-66.2	-84.7	161	11	
2025-11-06T12:00	15800	108	-66.6	-84.8	163	12	
2025-11-06T12:00	15850	107	-66.9	-84.8	164	13	
2025-11-06T12:00	15900	106	-67.2	-84.9	165	14	
2025-11-06T12:00	15950	105	-67.2	-85.0	167	15	
2025-11-06T12:00	16000	104	-67.0	-85.1	172	16	
2025-11-06T12:00	16050	103	-66.4	-85.0	178	16	
2025-11-06T12:00	16100	103	-66.1	-85.2	184	16	
2025-11-06T12:00	16150	102	-65.5	-85.2	190	16	
2025-11-06T12:00	16200	101	-65.1	-85.3	193	15	
2025-11-06T12:00	16250	100	-64.7	-85.3	194	13	
2025-11-06T12:00	16300	99	-64.8	-85.4	197	12	
2025-11-06T12:00	16350	98	-64.7	-85.3	200	11	
2025-11-06T12:00	16400	98	-64.5	-85.4	201	9	
2025-11-06T12:00	16450	97	-63.9	-85.3	199	7	
2025-11-06T12:00	16500	96	-63.6	-85.3	188	6	
2025-11-06T12:00	16550	95	-63.5	-85.5	176	5	
2025-11-06T12:00	16600	94	-63.4	-85.3	168	5	
2025-11-06T12:00	16650	94	-63.7	-85.4	166	6	
2025-11-06T12:00	16700	93	-64.0	-85.6	169	6	
2025-11-06T12:00	16750	92	-63.7	-85.4	177	6	
2025-11-06T12:00	16800	91	-63.6	-85.5	187	6	
2025-11-06T12:00	16850	91	-63.5	-85.5	197	5	
2025-11-06T12:00	16900	90	-63.5	-85.5	201	5	
2025-11-06T12:00	16950	89	-63.4	-85.5	197	5	
2025-11-06T12:00	17000	89	-63.5	-85.5	192	6	
2025-11-06T12:00	17050	88	-63.9	-85.7	190	7	
2025-11-06T12:00	17100	87	-64.3	-85.8	192	7	
2025-11-06T12:00	17150	86	-64.6	-86.0	195	8	
2025-11-06T12:00	17200	86	-64.7	-86.2	199	7	
2025-11-06T12:00	17250	85	-64.5	-86.2	203	6	
2025-11-06T12:00	17300	84	-64.6	-86.3	206	5	
2025-11-06T12:00	17350	84	-64.8	-86.4	214	4	
2025-11-06T12:00	17400	83	-64.8	-86.5	227	4	
2025-11-06T12:00	17450	82	-64.9	-86.7	240	4	
2025-11-06T12:00	17500	82	-64.2	-86.7	243	4	
2025-11-06T12:00	17550	81	-63.4	-86.6	235	4	
2025-11-06T12:00	17600	80	-63.6	-86.8	218	4	
2025-11-06T12:00	17650	80	-63.4	-86.6	196	4	
2025-11-06T12:00	17700	79	-63.5	-86.6	176	4	
2025-11-06T12:00	17750	78	-63.7	-86.6	167	5	
2025-11-06T12:00	17800	78	-64.0	-86.7	166	5	
2025-11-06T12:00	17850	77	-64.0	-86.8	168	6	
2025-11-06T12:00	17900	76	-63.9	-86.9	172	6	
2025-11-06T12:00	17950	76	-63.6	-86.8	180	6	
2025-11-06T12:00	18000	75	-63.4	-86.7	190	6	
2025-11-06T12:00	18050	75	-63.6	-86.8	198	6	
2025-11-06T12:00	18100	74	-63.9	-86.8	206	7	
2025-11-06T12:00	18150	73	-64.1	-86.9	215	6	
2025-11-06T12:00	18200	73	-64.1	-87.0	222	6	
2025-11-06T12:00	18250	72	-64.0	-87.1	227	7	
2025-11-06T12:00	18300	72	-63.8	-87.1	234	7	
2025-11-06T12:00	18350	71	-63.7	-87.1	243	7	
2025-11-06T12:00	18400	70	-63.7	-87.1	249	6	
2025-11-06T12:00	18450	70	-63.8	-87.1	249	5	
2025-11-06T12:00	18500	69	-64.0	-87.1	241	4	
2025-11-06T12:00	18550	69	-64.3	-87.2	233	4	
2025-11-06T12:00	18600	68	-64.4	-87.3	227	3	
2025-11-06T12:00	18650	68	-64.3	-87.4	235	1	
2025-11-06T12:00	18700	67	-64.0	-87.3	307	1	
2025-11-06T12:00	18750	66	-64.0	-87.4	337	2	
2025-11-06T12:00	18800	66	-64.0	-87.3	349	3	
2025-11-06T12:00	18850	65	-64.3	-87.5	357	4	
2025-11-06T12:00	18900	65	-64.3	-87.6	5	3	
2025-11-06T12:00	18950	64	-63.9	-87.5	22	2	
2025-11-06T12:00	19000	64	-63.6	-87.5	61	2	
2025-11-06T12:00	19050	63	-63.6	-87.3	87	2	
2025-11-06T12:00	19100	63	-63.9	-87.4	96	3	
2025-11-06T12:00	19150	62	-64.3	-87.6	99	2	
2025-11-06T12:00	19200	62	-63.9	-87.4	96	1	
2025-11-06T12:00	19250	61	-63.9	-87.5	67	0	
2025-11-06T12:00	19300	61	-63.9	-87.5	277	1	
2025-11-06T12:00	19350	60	-64.1	-87.5	293	1	
2025-11-06T12:00	19400	60	-64.2	-87.5	307	1	
2025-11-06T12:00	19450	59	-64.5	-87.7	301	2	
2025-11-06T12:00	19500	59	-64.6	-87.8	293	2	
2025-11-06T12:00	19550	58	-64.5	-87.8	299	2	
2025-11-06T12:00	19600	58	-64.4	-87.7	318	2	
2025-11-06T12:00	19650	57	-64.8	-87.8	344	2	
2025-11-06T12:00	19700	57	-65.0	-87.8	2	2	
2025-11-06T12:00	19750	56	-65.0	-87.8	13	2	
2025-11-06T12:00	19800	56	-65.3	-88.1	35	1	
2025-11-06T12:00	19850	56	-65.2	-88.2	124	1	
2025-11-06T12:00	19900	55	-64.9	-88.1	153	2	
2025-11-06T12:00	19950	55	-64.9	-88.0	159	3	
2025-11-06T12:00	20000	54	-65.0	-88.1	165	4	
2025-11-06T12:00	20050	54	-65.0		181	5	
2025-11-06T12:00	20100	53	-64.6		199	6	
2025-11-06T12:00	20150	53	-64.7		214	6	
2025-11-06T12:00	20200	52	-65.0		223	7	
2025-11-06T12:00	20250	52	-65.4		230	7	
2025-11-06T12:00	20300	52	-65.7		238	8	
2025-11-06T12:00	20350	51	-65.7		247	9	
2025-11-06T12:00	20400	51	-65.8		253	8	
2025-11-06T12:00	20450	50	-65.9		257	7	
2025-11-06T12:00	20500	50	-65.9		254	6	
2025-11-06T12:00	20550	50	-66.2		245	5	
2025-11-06T12:00	20600	49	-66.1		233	4	
2025-11-06T12:00	20650	49	-66.0		223	3	
2025-11-06T12:00	20700	48	-65.9		222	3	
2025-11-06T12:00	20750	48	-66.0		229	3	
2025-11-06T12:00	20800	48	-66.1		234	3	
2025-11-06T12:00	20850	47	-66.0		234	3	
2025-11-06T12:00	20900	47	-66.1		232	2	
2025-11-06T12:00	20950	46	-66.2		220	2	
2025-11-06T12:00	21000	46	-66.1		199	2	
2025-11-06T12:00	21050	46	-66.2		190	2	
2025-11-06T12:00	21100	45	-66.4		194	3	
2025-11-06T12:00	21150	45	-65.9		204	3	
2025-11-06T12:00	21200	44	-65.8		211	4	
2025-11-06T12:00	21250	44	-65.9		212	5	
2025-11-06T12:00	21300	44	-65.9		213	6	
2025-11-06T12:00	21350	43	-65.7		216	6	
2025-11-06T12:00	21400	43	-65.5		226	6	
2025-11-06T12:00	21450	43	-65.3		239	5	
2025-11-06T12:00	21500	42	-65.1		249	5	
2025-11-06T12:00	21550	42	-65.1		249	5	
2025-11-06T12:00	21600	42	-65.1		238	5	
2025-11-06T12:00	21650	41	-65.0		227	6	
2025-11-06T12:00	21700	41	-65.2		221	7	
2025-11-06T12:00	21750	41	-65.4		217	7	
2025-11-06T12:00	21800	40	-65.4		220	8	
2025-11-06T12:00	21850	40	-65.2		227	8	
2025-11-06T12:00	21900	40	-65.4		233	9	
2025-11-06T12:00	21950	39	-65.5		237	9	
2025-11-06T12:00	22000	39	-65.4		237	9	
2025-11-06T12:00	22050	39	-65.3		238	9	
2025-11-06T12:00	22100	38	-65.0		240	9	
2025-11-06T12:00	22150	38	-65.3		243	8	
2025-11-06T12:00	22200	38	-65.7		246	8	
2025-11-06T12:00	22250	37	-65.6		249	8	
2025-11-06T12:00	22300	37	-65.7		253	8	
2025-11-06T12:00	22350	37	-65.9		259	8	
2025-11-06T12:00	22400	37	-66.1		266	8	
2025-11-06T12:00	22450	36	-66.3		272	9	
2025-11-06T12:00	22500	36	-66.5		276	9	
2025-11-06T12:00	22550	36	-66.7		277	9	
2025-11-06T12:00	22600	35	-67.1		278	9	
2025-11-06T12:00	22650	35	-67.3		281	9	
2025-11-06T12:00	22700	35	-67.5		284	10	
2025-11-06T12:00	22750	34	-67.6		288	10	
2025-11-06T12:00	22800	34	-67.6		295	10	
2025-11-06T12:00	22850	34	-67.0		306	9	
2025-11-06T12:00	22900	34	-67.2		320	9	
2025-11-06T12:00	22950	33	-67.2		331	8	
2025-11-06T12:00	23000	33	-67.2		339	8	
2025-11-06T12:00	23050	33	-67.3		341	6	
2025-11-06T12:00	23100	33	-67.3		338	5	
2025-11-06T12:00	23150	32	-67.3		335	4	
2025-11-06T12:00	23200	32	-67.4		339	4	
2025-11-06T12:00	23250	32	-67.4		351	4	
2025-11-06T12:00	23300	31	-67.3		0	5	
2025-11-06T12:00	23350	31	-67.3		5	6	
2025-11-06T12:00	23400	31	-67.4		8	6	
2025-11-06T12:00	23450	31	-67.7		11	6	
2025-11-06T12:00	23500	30	-67.6		15	5	
2025-11-06T12:00	23550	30	-67.5		24	4	
2025-11-06T12:00	23600	30	-67.6		39	3	
2025-11-06T12:00	23650	30	-67.4		53	2	
2025-11-06T12:00	23700	29	-67.3		63	1	
2025-11-06T12:00	23750	29	-67.2		77	1	
2025-11-06T12:00	23800	29	-67.1		101	2	
2025-11-06T12:00	23850	29	-67.2		129	2	
2025-11-06T12:00	23900	28	-66.8		155	3	
2025-11-06T12:00	23950	28	-66.2		179	3	
2025-11-06T12:00	24000	28	-65.7		210	4	
2025-11-06T12:00	24050	28	-65.0		235	4	
2025-11-06T12:00	24100	28	-64.7		251	5	
2025-11-06T12:00	24150	27	-64.7		260	5	
2025-11-06T12:00	24200	27	-64.4		268	5	
2025-11-06T12:00	24250	27	-64.0		277	5	
2025-11-06T12:00	24300	27	-64.0		280	5	
2025-11-06T12:00	24350	26	-63.8		280	5	
2025-11-06T12:00	24400	26	-63.7		282	5	
2025-11-06T12:00	24450	26	-63.6		285	5	
2025-11-06T12:00	24500	26	-63.4		290	5	
2025-11-06T12:00	24550	26	-63.2		297	4	
2025-11-06T12:00	24600	25	-63.5		309	4	
2025-11-06T12:00	24650	25	-63.6		327	3	
2025-11-06T12:00	24700	25	-63.8		342	3	
2025-11-06T12:00	24750	25	-63.7		354	2	
2025-11-06T12:00	24800	25	-63.8		20	1	
2025-11-06T12:00	24850	24	-63.8		75	1	
2025-11-06T12:00	24900	24	-63.6		107	2	
2025-11-06T12:00	24950	24	-63.5		125	3	
2025-11-06T12:00	25000	24	-63.1		142	3	
2025-11-06T12:00	25050	24	-63.1		162	3	
2025-11-06T12:00	25100	23	-63.1		187	3	
2025-11-06T12:00	25150	23	-63.2		203	4	
2025-11-06T12:00	25200	23	-63.0		210	6	
2025-11-06T12:00	25250	23	-62.8		215	7	
2025-11-06T12:00	25300	23	-62.3		219	8	
2025-11-06T12:00	25350	22	-61.9		226	9	
2025-11-06T12:00	25400	22	-61.7		232	10	
2025-11-06T12:00	25450	22	-61.7		239	12	
2025-11-06T12:00	25500	22	-61.7		246	13	
2025-11-06T12:00	25550	22	-61.8		251	14	
2025-11-06T12:00	25600	22	-61.7		256	16	
2025-11-06T12:00	25650	21	-61.5		261	17	
2025-11-06T12:00	25700	21	-61.5		265	17	
2025-11-06T12:00	25750	21	-61.5		267	17	
2025-11-06T12:00	25800	21	-61.4		268	16	
2025-11-06T12:00	25850	21	-61.4		269	16	
2025-11-06T12:00	25900	21	-61.3		268	16	
2025-11-06T12:00	25950	20	-61.2		268	16	
2025-11-06T12:00	26000	20	-61.4		267	17	
2025-11-06T12:00	26050	20	-61.7		269	17	
2025-11-06T12:00	26100	20	-61.8		272	17	
2025-11-06T12:00	26150	20	-62.1		275	17	
2025-11-06T12:00	26200	20	-62.5		277	17	
2025-11-06T12:00	26250	19	-62.8		278	16	
2025-11-06T12:00	26300	19	-63.0		278	15	
2025-11-06T12:00	26350	19	-63.1		275	13	
2025-11-06T12:00	26400	19	-63.2		270	12	
2025-11-06T12:00	26450	19	-63.3		262	11	
2025-11-06T12:00	26500	19	-63.4		255	11	
2025-11-06T12:00	26550	19	-63.4		252	11	
2025-11-06T12:00	26600	18	-63.5		250	11	
2025-11-06T12:00	26650	18	-63.6		249	12	
2025-11-06T12:00	26700	18	-63.1		251	13	
2025-11-06T12:00	26750	18	-62.8		254	14	
2025-11-06T12:00	26800	18	-62.5		256	15	
2025-11-06T12:00	26850	18	-62.1		257	15	
2025-11-06T12:00	26900	17	-62.1		257	15	
2025-11-06T12:00	26950	17	-62.1		257	15	
2025-11-06T12:00	27000	17	-61.9		259	15	
2025-11-06T12:00	27050	17	-62.0		263	15	
2025-11-06T12:00	27100	17	-62.4		267	15	
2025-11-06T12:00	27150	17	-62.8		271	15	
2025-11-06T12:00	27200	17	-63.1		276	15	
2025-11-06T12:00	27250	17	-63.4		281	14	
2025-11-06T12:00	27300	16	-63.8		285	14	
2025-11-06T12:00	27350	16	-64.1		288	14	
2025-11-06T12:00	27400	16	-64.1		288	14	
2025-11-06T12:00	27450	16	-64.1		285	14	
2025-11-06T12:00	27500	16	-64.4		281	14	
2025-11-06T12:00	27550	16	-64.6		277	14	
2025-11-06T12:00	27600	16	-64.6		274	15	
2025-11-06T12:00	27650	15	-64.3		271	15	
2025-11-06T12:00	27700	15	-64.3		269	16	
2025-11-06T12:00	27750	15	-64.0		268	15	
2025-11-06T12:00	27800	15	-63.8		269	15	
2025-11-06T12:00	27850	15	-63.7		268	16	
2025-11-06T12:00	27900	15	-63.2		267	18	
2025-11-06T12:00	27950	15	-63.1		267	19	
2025-11-06T12:00	28000	15	-63.2		268	20	
2025-11-06T12:00	28050	14	-63.2		269	20	
2025-11-06T12:00	28100	14	-62.8		268	19	
2025-11-06T12:00	28150	14	-62.7		265	18	
2025-11-06T12:00	28200	14	-63.0		261	17	
2025-11-06T12:00	28250	14	-62.4		260	16	
2025-11-06T12:00	28300	14	-61.6		262	17	
2025-11-06T12:00	28350	14	-61.5		265	18	
2025-11-06T12:00	28400	14	-61.7		268	19	
2025-11-06T12:00	28450	14	-62.1		269	19	
2025-11-06T12:00	28500	13	-62.4		271	20	
2025-11-06T12:00	28550	13	-62.3		272	20	
2025-11-06T12:00	28600	13	-62.0		275	21	
2025-11-06T12:00	28650	13	-61.6		278	21	
2025-11-06T12:00	28700	13	-61.7		281	21	
2025-11-06T12:00	28750	13	-61.8		284	21	
2025-11-06T12:00	28800	13	-61.8		286	21	
2025-11-06T12:00	28850	13	-61.9		287	20	
2025-11-06T12:00	28900	13	-61.8		289	20	
2025-11-06T12:00	28950	13	-61.9		289	19	
2025-11-06T12:00	29000	12	-61.8		287	18	
2025-11-06T12:00	29050	12	-61.9		284	17	
2025-11-06T12:00	29100	12	-62.1		279	16	
2025-11-06T12:00	29150	12	-61.9		273	16	
2025-11-06T12:00	29200	12	-61.4		270	17	
2025-11-06T12:00	29250	12	-60.8		269	17	
2025-11-06T12:00	29300	12	-60.6		269	18	
2025-11-06T12:00	29350	12	-60.7		268	17	
2025-11-06T12:00	29400	12	-60.9		266	17	
2025-11-06T12:00	29450	12	-60.7		265	17	
2025-11-06T12:00	29500	11	-60.5		264	18	
2025-11-06T12:00	29550	11	-60.2		263	19	
2025-11-06T12:00	29600	11	-59.9		260	19	
2025-11-06T12:00	29650	11	-59.9		257	20	
2025-11-06T12:00	29700	11	-59.9		254	20	
2025-11-06T12:00	29750	11	-59.9		254	21	
2025-11-06T12:00	29800	11	-59.6		255	22	
2025-11-06T12:00	29850	11	-59.1		258	23	
2025-11-06T12:00	29900	11	-58.8		261	24	
2025-11-06T12:00	29950	11	-58.5		263	26	
2025-11-06T12:00	30000	11	-58.0		263	27	
2025-11-06T12:00	30050	11	-57.8		263	27	
2025-11-06T12:00	30100	10	-58.0		263	27	
2025-11-06T12:00	30150	10	-58.3		264	26	
2025-11-06T12:00	30200	10	-58.4		264	25	
2025-11-06T12:00	30250	10	-58.5		264	24	
2025-11-06T12:00	30300	10	-59.0		265	23	
2025-11-06T12:00	30350	10	-59.2		266	23	
2025-11-06T12:00	30400	10	-59.7		268	22	
2025-11-06T12:00	30450	10	-60.1		269	21	
2025-11-06T12:00	30500	10	-60.1		269	21	
2025-11-06T12:00	30550	10	-60.1		266	20	
2025-11-06T12:00	30600	10	-60.1		263	21	
2025-11-06T12:00	30650	10	-60.0		260	22	
2025-11-06T12:00	30700	9	-59.8		259	23	
2025-11-06T12:00	30750	9	-59.6		260	25	
2025-11-06T12:00	30800	9	-59.6		260	26	
2025-11-06T12:00	30850	9	-59.4		260	27	
2025-11-06T12:00	30900	9	-59.3		260	28	
2025-11-06T12:00	30950	9	-59.3		260	29	
2025-11-06T12:00	31000	9	-59.4		260	30	
2025-11-06T12:00	31050	9	-59.4		262	30	
2025-11-06T12:00	31100	9	-59.5		263	31	
2025-11-06T12:00	31150	9	-59.5		265	32	
2025-11-06T12:00	31200	9	-59.3		266	32	
2025-11-06T12:00	31250	9	-58.8		267	33	
2025-11-06T12:00	31300	9	-58.7		268	32	
2025-11-06T12:00	31350	9	-59.0		268	32	
2025-11-06T12:00	31400	8	-59.2		267	31	
2025-11-06T12:00	31450	8	-59.6		266	30	
2025-11-06T12:00	31500	8	-59.7		265	30	
2025-11-06T12:00	31550	8	-59.3		264	31	
2025-11-06T12:00	31600	8	-59.1		263	32	
2025-11-06T12:00	31650	8	-59.2		264	33	
2025-11-06T12:00	31700	8	-59.3		265	34	
2025-11-06T12:00	31750	8	-59.0		266	35	
2025-11-06T12:00	31800	8	-58.4		267	35	
2025-11-06T12:00	31850	8	-57.9		268	35	
2025-11-06T12:00	31900	8	-57.9		269	35	
2025-11-06T12:00	31950	8	-57.8		271	34	
2025-11-06T12:00	32000	8	-57.8		273	33	
2025-11-06T12:00	32050	8	-57.8		274	33	
2025-11-06T12:00	32100	8	-58.0		274	32	
2025-11-06T12:00	32150	8	-58.1		273	32	
2025-11-06T12:00	32200	7	-58.2		273	32	
2025-11-06T12:00	32250	7	-58.4		273	33	
2025-11-06T12:00	32300	7	-58.4		273	33	
2025-11-06T12:00	32350	7	-58.5		273	34	
2025-11-06T12:00	32400	7	-58.4		272	35	
2025-11-06T12:00	32450	7	-58.4		271	37	
2025-11-06T12:00	32500	7	-58.5		270	38	
2025-11-06T12:00	32550	7	-58.6		269	38	
2025-11-06T12:00	32600	7	-58.7		269	39	
2025-11-06T12:00	32650	7	-58.7		270	39	
2025-11-06T12:00	32700	7	-58.4		271	39	
2025-11-06T12:00	32750	7	-57.8		272	38	
2025-11-06T12:00	32800	7	-57.7		272	37	
2025-11-06T12:00	32850	7	-57.9		271	36	
2025-11-06T12:00	32900	7	-57.7		268	36	
2025-11-06T12:00	32950	7	-57.0		265	36	
2025-11-06T12:00	33000	7	-56.3		263	37	
2025-11-06T12:00	33050	7	-55.5		261	37	
2025-11-06T12:00	33100	6	-55.2		260	38	
2025-11-06T12:00	33150	6	-55.3		259	38	
2025-11-06T12:00	33200	6	-55.3		259	39	
2025-11-06T12:00	33250	6	-54.8		260	41	
2025-11-06T12:00	33300	6	-54.3		261	42	
2025-11-06T12:00	33350	6	-54.2		261	44	
2025-11-06T12:00	33400	6	-54.2		261	45	
2025-11-06T12:00	33450	6	-53.8		261	47	
2025-11-06T12:00	33500	6	-53.3		261	48	
2025-11-06T12:00	33550	6	-52.8		263	48	
2025-11-06T12:00	33600	6	-52.5		264	48	
2025-11-06T12:00	33650	6	-52.6		265	47	
2025-11-06T12:00	33700	6	-52.5		266	47	
2025-11-06T12:00	33750	6	-52.0		266	47	
2025-11-06T12:00	33800	6	-51.4		266	46	
2025-11-06T12:00	33850	6	-51.4		267	46	
2025-11-06T12:00	33900	6	-51.7		267	46	
2025-11-06T12:00	33950	6	-52.0		268	45	
2025-11-06T12:00	34000	6	-52.1		268	45	
2025-11-06T12:00	34050	6	-52.1		266	45	
2025-11-06T12:00	34100	6	-52.1		265	46	
2025-11-06T12:00	34150	5	-52.2		263	46	
2025-11-06T12:00	34200	5	-52.0		262	45	
2025-11-06T12:00	34250	5	-51.6		262	44	
2025-11-06T12:00	34300	5	-51.4		263	44	
2025-11-06T12:00	34350	5	-51.4		264	42	
2025-11-06T12:00	34400	5	-51.6		266	41	
2025-11-06T12:00	34450	5	-51.8		267	40	
2025-11-06T12:00	34500	5	-52.0		269	40	
2025-11-06T12:00	34550	5	-52.2		270	39	
2025-11-06T12:00	34600	5	-52.2		269	39	
2025-11-06T12:00	34650	5	-52.0		267	40	
2025-11-06T12:00	34700	5	-51.9		264	40	
2025-11-06T12:00	34750	5	-51.8		263	41	
2025-11-06T12:00	34800	5	-51.8		262	41	
2025-11-06T12:00	34850	5	-51.9		263	41	
2025-11-06T12:00	34900	5	-51.7		265	41	
2025-11-06T12:00	34950	5	-51.5		267	41	
2025-11-06T12:00	35000	5	-51.3		268	42	
2025-11-06T12:00	35050	5	-51.3		269	42	
2025-11-06T12:00	35100	5	-51.3		269	42	
2025-11-06T12:00	35150	5	-50.9		267	42	
2025-11-06T12:00	35200	5	-50.2		265	42	
2025-11-06T12:00	35250	5	-49.8		263	43	
2025-11-06T12:00	35300	5	-49.8		262	44	
2025-11-06T12:00	35350	5	-49.7		260	44	
2025-11-06T12:00	35400	5	-49.8		259	44	
2025-11-06T12:00	35450	4	-49.9		258	44	
2025-11-06T12:00	35500	4	-50.3		258	44	
2025-11-06T12:00	35550	4	-50.7		257	44	
2025-11-06T12:00	35600	4	-50.8		256	45	
2025-11-06T12:00	35650	4	-50.7		256	46	
2025-11-06T12:00	35700	4	-50.8		257	48	
2025-11-06T12:00	35750	4	-50.6		258	49	
2025-11-06T12:00	35800	4	-50.0		259	50	
2025-11-06T12:00	35850	4	-49.2		260	51	
2025-11-06T12:00	35900	4	-48.9		260	51	
2025-11-06T12:00	35950	4	-49.0		260	51	
2025-11-06T12:00	36000	4	-49.1		260	51	
2025-11-06T12:00	36050	4	-49.3		260	50	
2025-11-06T12:00	36100	4	-49.6		260	50	
2025-11-06T12:00	36150	4	-49.8		261	50	
2025-11-06T12:00	36200	4	-49.9		262	50	
2025-11-06T12:00	36250	4	-50.0		262	50	
2025-11-06T12:00	36300	4	-50.1		262	50	
2025-11-06T12:00	36350	4	-50.1		261	50	
2025-11-06T12:00	36400	4	-50.1		261	50	
2025-11-06T12:00	36450	4	-50.0		262	51	
2025-11-06T12:00	36500	4	-49.8		263	52	
2025-11-06T12:00	36550	4	-49.6		264	52	
2025-11-06T12:00	36600	4	-49.3		265	53	
2025-11-06T12:00	36650	4	-49.2		266	53	
2025-11-06T12:00	36700	4	-49.0		265	53	
2025-11-06T12:00	36750	4	-48.6		265	52	
2025-11-06T12:00	36800	4	-48.5		264	52	
2025-11-06T12:00	36850	4	-48.6		264	52	
2025-11-06T12:00	36900	4	-48.6		263	52	
2025-11-06T12:00	36950	4	-48.7		261	52	
2025-11-06T12:00	37000	4	-48.5		261	53	
2025-11-07T00:00	491	954	4.5	4.5	186	0	
2025-11-07T00:00	501	952	5.0	5.0	223	1	
2025-11-07T00:00	520	951	5.6	5.1	227	1	
2025-11-07T00:00	540	948	6.9	5.2	230	1	
2025-11-07T00:00	560	946	7.2	5.6	235	1	
2025-11-07T00:00	580	944	7.4	6.0	244	1	
2025-11-07T00:00	600	941	7.4	6.0	262	1	
2025-11-07T00:00	620	939	7.2	6.0	283	1	
2025-11-07T00:00	640	937	7.1	6.2	308	1	
2025-11-07T00:00	660	934	7.1	6.4	331	1	
2025-11-07T00:00	680	932	6.9	6.6	344	1	
2025-11-07T00:00	700	930	6.9	6.7	354	1	
2025-11-07T00:00	720	928	7.1	5.6	3	1	
2025-11-07T00:00	740	925	7.3	4.2	11	1	
2025-11-07T00:00	760	923	7.3	4.5	21	1	
2025-11-07T00:00	780	921	7.3	4.0	32	1	
2025-11-07T00:00	800	919	7.5	3.5	43	1	
2025-11-07T00:00	820	917	7.6	3.7	56	2	
2025-11-07T00:00	840	914	8.1	3.2	63	2	
2025-11-07T00:00	860	912	8.6	1.8	66	2	
2025-11-07T00:00	880	910	8.9	1.1	65	3	
2025-11-07T00:00	900	908	9.1	0.4	64	3	
2025-11-07T00:00	920	906	9.3	0.4	63	3	
2025-11-07T00:00	940	903	9.4	0.3	64	3	
2025-11-07T00:00	960	901	9.4	-0.2	65	3	
2025-11-07T00:00	980	899	9.5	-1.1	69	3	
2025-11-07T00:00	1000	897	10.0	-2.6	76	3	
2025-11-07T00:00	1020	895	10.2	-3.2	82	4	
2025-11-07T00:00	1040	893	10.2	-3.7	84	4	
2025-11-07T00:00	1060	890	10.1	-3.9	83	4	
2025-11-07T00:00	1080	888	10.1	-5.1	82	5	
2025-11-07T00:00	1100	886	10.6	-7.3	80	5	
2025-11-07T00:00	1120	884	11.1	-7.3	77	5	
2025-11-07T00:00	1140	882	11.2	-6.1	75	5	
2025-11-07T00:00	1160	880	11.2	-5.5	72	5	
2025-11-07T00:00	1180	877	11.1	-5.4	70	5	
2025-11-07T00:00	1200	875	11.0	-5.6	67	5	
2025-11-07T00:00	1220	873	10.8	-5.6	63	5	
2025-11-07T00:00	1240	871	10.7	-5.7	60	5	
2025-11-07T00:00	1260	869	10.5	-5.7	55	5	
2025-11-07T00:00	1280	867	10.3	-5.7	50	5	
2025-11-07T00:00	1300	865	10.1	-5.7	43	5	
2025-11-07T00:00	1320	863	9.9	-5.7	38	5	
2025-11-07T00:00	1340	861	9.7	-5.6	32	5	
2025-11-07T00:00	1360	859	9.5	-5.6	26	5	
2025-11-07T00:00	1380	857	9.4	-5.5	22	5	
2025-11-07T00:00	1400	855	9.2	-5.5	18	5	
2025-11-07T00:00	1420	853	9.0	-5.3	15	5	
2025-11-07T00:00	1440	850	8.9	-4.8	12	6	
2025-11-07T00:00	1460	848	8.9	-4.8	11	6	
2025-11-07T00:00	1480	846	8.7	-4.8	11	6	
2025-11-07T00:00	1500	844	8.7	-4.7	12	7	
2025-11-07T00:00	1520	842	8.6	-4.7	14	7	
2025-11-07T00:00	1540	840	8.5	-4.8	17	7	
2025-11-07T00:00	1560	838	8.5	-5.3	20	7	
2025-11-07T00:00	1580	836	8.5	-5.7	23	7	
2025-11-07T00:00	1600	834	8.4	-6.1	26	7	
2025-11-07T00:00	1620	832	8.3	-6.4	30	7	
2025-11-07T00:00	1640	830	8.3	-7.1	34	7	
2025-11-07T00:00	1660	828	8.4	-7.6	38	7	
2025-11-07T00:00	1680	826	8.2	-7.6	42	7	
2025-11-07T00:00	1700	824	8.0	-7.6	46	7	
2025-11-07T00:00	1720	822	7.8	-7.9	50	7	
2025-11-07T00:00	1740	820	7.7	-8.3	54	7	
2025-11-07T00:00	1760	818	7.7	-9.1	58	7	
2025-11-07T00:00	1780	816	7.7	-9.7	61	7	
2025-11-07T00:00	1800	814	7.6	-9.8	64	7	
2025-11-07T00:00	1820	812	7.4	-9.8	67	7	
2025-11-07T00:00	1840	810	7.3	-9.9	69	7	
2025-11-07T00:00	1860	808	7.1	-10.1	71	7	
2025-11-07T00:00	1880	807	7.0	-10.2	74	6	
2025-11-07T00:00	1900	805	6.8	-10.3	76	6	
2025-11-07T00:00	1920	802	6.7	-10.5	79	6	
2025-11-07T00:00	1940	800	6.6	-11.5	81	6	
2025-11-07T00:00	1960	798	6.6	-11.7	83	6	
2025-11-07T00:00	1980	797	6.4	-11.7	84	6	
2025-11-07T00:00	2000	795	6.3	-12.2	86	5	
2025-11-07T00:00	2020	793	6.3	-13.4	88	5	
2025-11-07T00:00	2040	791	6.6	-15.0	90	5	
2025-11-07T00:00	2060	789	7.1	-16.0	92	4	
2025-11-07T00:00	2080	787	7.3	-15.7	92	4	
2025-11-07T00:00	2100	785	7.3	-15.8	92	3	
2025-11-07T00:00	2120	783	7.2	-14.9	92	3	
2025-11-07T00:00	2140	781	7.2	-13.7	93	3	
2025-11-07T00:00	2160	779	7.1	-12.9	95	3	
2025-11-07T00:00	2180	777	7.0	-12.8	99	2	
2025-11-07T00:00	2200	776	6.8	-12.7	104	2	
2025-11-07T00:00	2220	774	6.7	-12.5	111	3	
2025-11-07T00:00	2240	772	6.5	-12.4	118	3	
2025-11-07T00:00	2260	770	6.3	-12.5	123	3	
2025-11-07T00:00	2280	768	6.2	-12.4	127	3	
2025-11-07T00:00	2300	766	6.0	-12.4	132	3	
2025-11-07T00:00	2320	764	5.8	-12.5	135	4	
2025-11-07T00:00	2340	762	5.7	-12.6	137	4	
2025-11-07T00:00	2360	761	5.5	-12.6	138	4	
2025-11-07T00:00	2380	759	5.3	-12.7	139	4	
2025-11-07T00:00	2400	757	5.1	-12.7	140	5	
2025-11-07T00:00	2420	755	4.9	-12.8	141	5	
2025-11-07T00:00	2440	753	4.8	-12.8	142	5	
2025-11-07T00:00	2460	751	4.6	-12.9	142	5	
2025-11-07T00:00	2480	749	4.4	-12.9	143	5	
2025-11-07T00:00	2500	747	4.2	-13.0	143	6	
2025-11-07T00:00	2520	746	4.0	-13.1	143	6	
2025-11-07T00:00	2540	744	3.9	-13.2	142	6	
2025-11-07T00:00	2560	742	3.8	-13.3	141	6	
2025-11-07T00:00	2580	740	3.6	-13.5	139	7	
2025-11-07T00:00	2600	739	3.5	-13.6	137	7	
2025-11-07T00:00	2620	737	3.5	-13.8	135	7	
2025-11-07T00:00	2640	735	3.5	-14.1	134	7	
2025-11-07T00:00	2660	733	3.6	-14.2	133	8	
2025-11-07T00:00	2680	731	3.4	-14.2	134	8	
2025-11-07T00:00	2700	729	3.3	-14.1	135	8	
2025-11-07T00:00	2720	727	3.1	-14.1	137	8	
2025-11-07T00:00	2740	726	3.0	-14.2	138	8	
2025-11-07T00:00	2760	724	2.8	-14.2	140	9	
2025-11-07T00:00	2780	722	2.6	-14.4	141	9	
2025-11-07T00:00	2800	720	2.4	-14.4	142	9	
2025-11-07T00:00	2820	719	2.3	-14.5	142	10	
2025-11-07T00:00	2840	717	2.2	-14.6	141	10	
2025-11-07T00:00	2860	715	2.1	-14.5	139	10	
2025-11-07T00:00	2880	713	2.1	-14.6	136	10	
2025-11-07T00:00	2900	711	2.1	-14.9	134	9	
2025-11-07T00:00	2920	710	2.0	-15.0	132	9	
2025-11-07T00:00	2940	708	1.9	-15.2	127	9	
2025-11-07T00:00	2960	706	1.8	-15.5	123	9	
2025-11-07T00:00	2980	704	1.8	-16.3	118	9	
2025-11-07T00:00	3000	703	1.8	-17.0	114	9	
2025-11-07T00:00	3020	701	1.6	-17.0	111	9	
2025-11-07T00:00	3040	699	1.5	-17.2	109	9	
2025-11-07T00:00	3060	697	1.3	-17.4	107	9	
2025-11-07T00:00	3080	696	1.2	-18.0	106	9	
2025-11-07T00:00	3100	694	1.4	-18.6	106	9	
2025-11-07T00:00	3120	692	1.3	-18.3	106	9	
2025-11-07T00:00	3140	691	1.1	-18.2	108	10	
2025-11-07T00:00	3160	689	0.9	-18.2	110	10	
2025-11-07T00:00	3180	687	0.8	-18.3	113	10	
2025-11-07T00:00	3200	685	0.7	-18.3	115	10	
2025-11-07T00:00	3220	684	0.6	-18.4	116	10	
2025-11-07T00:00	3240	682	0.6	-17.7	117	10	
2025-11-07T00:00	3260	680	0.4	-16.0	117	10	
2025-11-07T00:00	3280	679	0.2	-15.9	117	10	
2025-11-07T00:00	3300	677	0.1	-16.5	118	10	
2025-11-07T00:00	3320	675	0.0	-17.4	118	10	
2025-11-07T00:00	3340	674	-0.1	-18.4	119	10	
2025-11-07T00:00	3360	672	-0.2	-19.2	119	10	
2025-11-07T00:00	3380	670	-0.2	-18.0	120	9	
2025-11-07T00:00	3400	668	-0.3	-17.5	122	9	
2025-11-07T00:00	3420	667	-0.5	-17.5	122	8	
2025-11-07T00:00	3440	665	-0.6	-16.3	124	8	
2025-11-07T00:00	3460	663	-0.6	-13.7	124	7	
2025-11-07T00:00	3480	662	-0.7	-12.7	125	6	
2025-11-07T00:00	3500	660	-0.8	-11.6	125	6	
2025-11-07T00:00	3520	658	-0.9	-10.5	126	6	
2025-11-07T00:00	3540	657	-0.9	-9.4	126	6	
2025-11-07T00:00	3560	655	-0.8	-9.4	126	6	
2025-11-07T00:00	3580	654	-0.9	-9.4	126	6	
2025-11-07T00:00	3600	652	-1.0	-9.7	125	6	
2025-11-07T00:00	3620	650	-1.1	-10.1	124	6	
2025-11-07T00:00	3640	649	-1.2	-10.4	123	6	
2025-11-07T00:00	3660	647	-1.3	-10.6	122	6	
2025-11-07T00:00	3680	646	-1.5	-10.7	121	7	
2025-11-07T00:00	3700	644	-1.6	-10.6	121	8	
2025-11-07T00:00	3720	642	-1.8	-10.7	120	8	
2025-11-07T00:00	3740	641	-1.9	-10.8	120	9	
2025-11-07T00:00	3760	639	-2.1	-11.0	119	9	
2025-11-07T00:00	3780	637	-2.2	-11.3	118	9	
2025-11-07T00:00	3800	636	-2.3	-11.8	118	9	
2025-11-07T00:00	3820	634	-2.4	-11.9	117	8	
2025-11-07T00:00	3840	633	-2.5	-12.1	116	8	
2025-11-07T00:00	3860	631	-2.7	-12.2	116	8	
2025-11-07T00:00	3880	629	-2.8	-12.2	116	8	
2025-11-07T00:00	3900	628	-3.0	-12.2	116	8	
2025-11-07T00:00	3920	626	-3.2	-12.2	117	8	
2025-11-07T00:00	3940	625	-3.4	-12.1	118	8	
2025-11-07T00:00	3960	623	-3.6	-12.2	119	8	
2025-11-07T00:00	3980	621	-3.8	-12.3	120	8	
2025-11-07T00:00	4000	620	-4.0	-12.3	121	8	
2025-11-07T00:00	4020	618	-4.2	-12.3	123	8	
2025-11-07T00:00	4040	617	-4.4	-12.3	124	8	
2025-11-07T00:00	4060	615	-4.6	-12.3	126	8	
2025-11-07T00:00	4080	614	-4.8	-12.4	128	8	
2025-11-07T00:00	4100	612	-5.0	-12.5	131	8	
2025-11-07T00:00	4120	611	-5.2	-12.4	133	8	
2025-11-07T00:00	4140	609	-5.3	-12.3	135	7	
2025-11-07T00:00	4160	608	-5.5	-12.4	137	7	
2025-11-07T00:00	4180	606	-5.7	-12.4	139	7	
2025-11-07T00:00	4200	605	-5.9	-12.4	140	8	
2025-11-07T00:00	4220	603	-6.1	-12.4	141	8	
2025-11-07T00:00	4240	601	-6.3	-12.4	142	8	
2025-11-07T00:00	4260	600	-6.4	-12.5	144	8	
2025-11-07T00:00	4280	598	-6.6	-12.5	146	9	
2025-11-07T00:00	4300	597	-6.7	-12.6	148	9	
2025-11-07T00:00	4320	595	-6.9	-12.7	149	9	
2025-11-07T00:00	4340	594	-7.1	-12.8	150	9	
2025-11-07T00:00	4360	592	-7.2	-12.9	152	9	
2025-11-07T00:00	4380	591	-7.4	-12.9	154	9	
2025-11-07T00:00	4400	589	-7.6	-12.9	157	9	
2025-11-07T00:00	4420	588	-7.8	-12.9	159	9	
2025-11-07T00:00	4440	586	-8.0	-12.9	162	8	
2025-11-07T00:00	4460	585	-8.2	-13.0	164	8	
2025-11-07T00:00	4480	583	-8.3	-13.1	166	8	
2025-11-07T00:00	4500	582	-8.5	-13.1	168	8	
2025-11-07T00:00	4520	580	-8.7	-13.1	169	8	
2025-11-07T00:00	4540	579	-8.8	-13.2	170	8	
2025-11-07T00:00	4560	577	-9.0	-13.3	170	8	
2025-11-07T00:00	4580	576	-9.2	-13.4	169	8	
2025-11-07T00:00	4600	574	-9.3	-13.4	167	9	
2025-11-07T00:00	4620	573	-9.5	-13.4	166	9	
2025-11-07T00:00	4640	571	-9.6	-13.7	165	9	
2025-11-07T00:00	4660	570	-9.7	-14.1	164	10	
2025-11-07T00:00	4680	568	-9.9	-14.2	163	10	
2025-11-07T00:00	4700	567	-10.0	-14.4	163	11	
2025-11-07T00:00	4720	565	-10.1	-14.6	162	11	
2025-11-07T00:00	4740	564	-10.3	-14.8	162	11	
2025-11-07T00:00	4760	562	-10.4	-14.8	161	11	
2025-11-07T00:00	4780	561	-10.6	-14.9	161	11	
2025-11-07T00:00	4800	559	-10.8	-15.0	161	11	
2025-11-07T00:00	4820	558	-10.9	-15.2	161	11	
2025-11-07T00:00	4840	557	-11.1	-15.3	162	11	
2025-11-07T00:00	4860	555	-11.3	-15.4	163	11	
2025-11-07T00:00	4880	554	-11.4	-15.5	165	11	
2025-11-07T00:00	4900	552	-11.5	-15.6	167	11	
2025-11-07T00:00	4920	551	-11.7	-15.7	168	11	
2025-11-07T00:00	4940	549	-11.9	-16.0	168	11	
2025-11-07T00:00	4960	548	-12.0	-16.1	168	11	
2025-11-07T00:00	4980	546	-12.2	-16.2	166	11	
2025-11-07T00:00	5000	545	-12.4	-16.4	164	11	
2025-11-07T00:00	5020	544	-12.6	-16.5	163	11	
2025-11-07T00:00	5040	542	-12.7	-16.6	161	11	
2025-11-07T00:00	5060	541	-12.9	-16.7	161	11	
2025-11-07T00:00	5080	539	-13.1	-16.8	161	11	
2025-11-07T00:00	5100	538	-13.3	-16.9	161	11	
2025-11-07T00:00	5120	537	-13.5	-17.0	161	11	
2025-11-07T00:00	5140	535	-13.7	-17.1	161	11	
2025-11-07T00:00	5160	534	-13.9	-17.3	161	10	
2025-11-07T00:00	5180	532	-14.1	-17.2	160	10	
2025-11-07T00:00	5200	531	-14.2	-17.4	159	11	
2025-11-07T00:00	5220	529	-14.4	-17.7	158	11	
2025-11-07T00:00	5240	528	-14.5	-17.7	157	11	
2025-11-07T00:00	5260	527	-14.7	-17.8	156	11	
2025-11-07T00:00	5280	525	-14.9	-18.1	156	12	
2025-11-07T00:00	5300	524	-15.1	-18.3	156	12	
2025-11-07T00:00	5320	523	-15.3	-18.6	155	12	
2025-11-07T00:00	5340	521	-15.4	-18.9	155	12	
2025-11-07T00:00	5360	520	-15.6	-19.0	155	13	
2025-11-07T00:00	5380	518	-15.7	-19.2	155	13	
2025-11-07T00:00	5400	517	-15.9	-19.5	154	13	
2025-11-07T00:00	5420	516	-16.1	-19.7	153	13	
2025-11-07T00:00	5440	514	-16.2	-19.9	152	13	
2025-11-07T00:00	5460	513	-16.4	-20.7	151	13	
2025-11-07T00:00	5480	511	-16.5	-21.3	150	12	
2025-11-07T00:00	5500	510	-16.7	-21.7	150	12	
2025-11-07T00:00	5520	509	-16.8	-22.2	149	12	
2025-11-07T00:00	5540	508	-16.8	-22.8	149	13	
2025-11-07T00:00	5560	506	-16.9	-22.8	149	13	
2025-11-07T00:00	5580	505	-17.1	-22.8	149	13	
2025-11-07T00:00	5600	503	-17.3	-23.2	150	13	
2025-11-07T00:00	5620	502	-17.4	-23.3	150	13	
2025-11-07T00:00	5640	501	-17.6	-23.3	151	13	
2025-11-07T00:00	5660	500	-17.8	-23.3	152	12	
2025-11-07T00:00	5680	498	-18.0	-23.5	154	12	
2025-11-07T00:00	5700	497	-18.2	-23.6	155	12	
2025-11-07T00:00	5720	495	-18.4	-23.5	156	12	
2025-11-07T00:00	5740	494	-18.6	-23.6	156	13	
2025-11-07T00:00	5760	493	-18.8	-23.7	156	13	
2025-11-07T00:00	5780	491	-18.9	-23.6	156	14	
2025-11-07T00:00	5800	490	-19.0	-23.2	156	14	
2025-11-07T00:00	5820	489	-19.2	-22.9	156	15	
2025-11-07T00:00	5840	488	-19.4	-23.2	156	15	
2025-11-07T00:00	5860	486	-19.6	-23.3	156	15	
2025-11-07T00:00	5880	485	-19.7	-23.4	156	15	
2025-11-07T00:00	5900	484	-19.9	-23.6	156	15	
2025-11-07T00:00	5920	482	-20.1	-23.6	155	15	
2025-11-07T00:00	5940	481	-20.3	-23.7	154	15	
2025-11-07T00:00	5960	480	-20.5	-23.7	154	15	
2025-11-07T00:00	5980	478	-20.7	-23.7	153	14	
2025-11-07T00:00	6000	477	-20.9	-23.6	153	14	
2025-11-07T00:00	6020	476	-21.1	-23.6	153	14	
2025-11-07T00:00	6040	474	-21.3	-23.6	153	14	
2025-11-07T00:00	6060	473	-21.5	-23.7	153	14	
2025-11-07T00:00	6080	472	-21.6	-23.8	153	14	
2025-11-07T00:00	6100	471	-21.8	-23.9	153	14	
2025-11-07T00:00	6120	470	-22.0	-24.0	153	14	
2025-11-07T00:00	6140	468	-22.1	-23.9	154	15	
2025-11-07T00:00	6160	467	-22.3	-24.2	153	15	
2025-11-07T00:00	6180	465	-22.4	-25.2	153	16	
2025-11-07T00:00	6200	464	-22.4	-25.1	153	16	
2025-11-07T00:00	6220	463	-22.5	-24.4	152	16	
2025-11-07T00:00	6240	462	-22.7	-24.0	152	16	
2025-11-07T00:00	6260	460	-22.9	-23.8	151	16	
2025-11-07T00:00	6280	459	-23.0	-24.0	150	16	
2025-11-07T00:00	6300	458	-23.0	-24.6	149	16	
2025-11-07T00:00	6320	457	-22.9	-25.0	148	16	
2025-11-07T00:00	6340	455	-23.0	-26.3	147	16	
2025-11-07T00:00	6360	454	-23.1	-27.9	147	15	
2025-11-07T00:00	6380	453	-23.2	-28.4	147	15	
2025-11-07T00:00	6400	452	-23.3	-29.6	147	15	
2025-11-07T00:00	6420	451	-23.3	-31.9	147	15	
2025-11-07T00:00	6440	449	-23.4	-32.4	148	15	
2025-11-07T00:00	6460	448	-23.3	-32.5	148	15	
2025-11-07T00:00	6480	447	-23.4	-34.2	148	15	
2025-11-07T00:00	6500	446	-23.4	-35.9	149	15	
2025-11-07T00:00	6520	444	-23.5	-37.8	149	14	
2025-11-07T00:00	6540	443	-23.6	-38.2	149	14	
2025-11-07T00:00	6560	442	-23.7	-39.6	150	14	
2025-11-07T00:00	6580	441	-23.8	-39.6	150	13	
2025-11-07T00:00	6600	440	-24.0	-39.6	150	13	
2025-11-07T00:00	6620	438	-24.1	-40.4	151	13	
2025-11-07T00:00	6640	437	-24.2	-41.8	151	13	
2025-11-07T00:00	6660	436	-24.3	-42.0	152	12	
2025-11-07T00:00	6680	435	-24.4	-40.5	153	12	
2025-11-07T00:00	6700	434	-24.5	-39.0	154	13	
2025-11-07T00:00	6720	432	-24.7	-39.3	155	13	
2025-11-07T00:00	6740	431	-24.9	-39.8	156	13	
2025-11-07T00:00	6760	430	-25.0	-39.2	156	14	
2025-11-07T00:00	6780	429	-25.1	-38.3	157	15	
2025-11-07T00:00	6800	428	-25.3	-37.7	157	15	
2025-11-07T00:00	6820	427	-25.4	-37.4	157	15	
2025-11-07T00:00	6840	425	-25.6	-37.2	158	16	
2025-11-07T00:00	6860	424	-25.7	-36.7	158	16	
2025-11-07T00:00	6880	423	-25.9	-36.3	158	16	
2025-11-07T00:00	6900	422	-26.0	-35.7	159	16	
2025-11-07T00:00	6920	421	-26.2	-35.9	159	16	
2025-11-07T00:00	6940	420	-26.4	-35.2	160	16	
2025-11-07T00:00	6960	418	-26.6	-34.3	160	16	
2025-11-07T00:00	6980	417	-26.7	-34.2	159	16	
2025-11-07T00:00	7000	416	-26.9	-34.3	159	16	
2025-11-07T00:00	7020	415	-27.1	-34.4	158	16	
2025-11-07T00:00	7040	414	-27.3	-34.3	157	16	
2025-11-07T00:00	7060	413	-27.5	-34.5	155	16	
2025-11-07T00:00	7080	412	-27.6	-34.5	154	16	
2025-11-07T00:00	7100	410	-27.8	-34.7	152	16	
2025-11-07T00:00	7120	409	-27.9	-34.9	151	17	
2025-11-07T00:00	7140	408	-28.1	-35.5	151	17	
2025-11-07T00:00	7160	407	-28.2	-35.9	150	17	
2025-11-07T00:00	7180	406	-28.4	-35.9	149	17	
2025-11-07T00:00	7200	405	-28.5	-36.0	149	17	
2025-11-07T00:00	7220	404	-28.7	-36.1	148	17	
2025-11-07T00:00	7240	402	-28.9	-36.1	147	17	
2025-11-07T00:00	7260	401	-29.1	-36.3	146	17	
2025-11-07T00:00	7280	400	-29.2	-36.7	146	17	
2025-11-07T00:00	7300	399	-29.4	-37.2	145	17	
2025-11-07T00:00	7320	398	-29.5	-37.8	145	17	
2025-11-07T00:00	7340	397	-29.7	-37.6	145	17	
2025-11-07T00:00	7360	396	-29.8	-36.8	145	17	
2025-11-07T00:00	7380	395	-29.9	-37.2	145	17	
2025-11-07T00:00	7400	394	-30.0	-37.5	145	17	
2025-11-07T00:00	7420	392	-30.2	-37.3	145	18	
2025-11-07T00:00	7440	391	-30.4	-37.9	144	18	
2025-11-07T00:00	7460	390	-30.6	-37.9	144	18	
2025-11-07T00:00	7480	389	-30.8	-38.3	144	18	
2025-11-07T00:00	7500	388	-30.9	-38.4	143	18	
2025-11-07T00:00	7520	387	-31.1	-38.4	142	19	
2025-11-07T00:00	7540	386	-31.3	-39.0	142	19	
2025-11-07T00:00	7560	385	-31.4	-40.5	142	19	
2025-11-07T00:00	7580	384	-31.5	-42.0	142	19	
2025-11-07T00:00	7600	382	-31.7	-41.9	142	19	
2025-11-07T00:00	7620	381	-31.8	-41.6	142	19	
2025-11-07T00:00	7640	380	-32.0	-41.5	142	19	
2025-11-07T00:00	7660	379	-32.2	-41.6	143	19	
2025-11-07T00:00	7680	378	-32.3	-41.8	143	19	
2025-11-07T00:00	7700	377	-32.5	-41.8	144	19	
2025-11-07T00:00	7720	376	-32.7	-41.7	144	19	
2025-11-07T00:00	7740	375	-32.9	-41.8	145	20	
2025-11-07T00:00	7760	374	-33.1	-41.7	145	20	
2025-11-07T00:00	7780	373	-33.3	-41.8	146	20	
2025-11-07T00:00	7800	372	-33.5	-41.9	146	20	
2025-11-07T00:00	7820	371	-33.7	-41.7	147	20	
2025-11-07T00:00	7840	370	-33.8	-41.4	147	21	
2025-11-07T00:00	7860	369	-34.0	-41.5	147	21	
2025-11-07T00:00	7880	367	-34.3	-41.4	147	21	
2025-11-07T00:00	7900	367	-34.4	-40.3	147	21	
2025-11-07T00:00	7920	366	-34.6	-39.5	147	21	
2025-11-07T00:00	7940	365	-34.7	-39.6	147	21	
2025-11-07T00:00	7960	363	-34.9	-40.0	147	21	
2025-11-07T00:00	7980	362	-35.1	-40.8	147	21	
2025-11-07T00:00	8000	361	-35.2	-41.4	147	21	
2025-11-07T00:00	8020	360	-35.4	-42.3	147	21	
2025-11-07T00:00	8040	359	-35.5	-43.4	148	21	
2025-11-07T00:00	8060	358	-35.6	-44.0	148	21	
2025-11-07T00:00	8080	357	-35.8	-44.0	149	21	
2025-11-07T00:00	8100	356	-36.0	-44.0	150	21	
2025-11-07T00:00	8120	355	-36.2	-44.2	150	21	
2025-11-07T00:00	8140	354	-36.4	-44.7	150	21	
2025-11-07T00:00	8160	353	-36.5	-45.8	151	21	
2025-11-07T00:00	8180	352	-36.6	-46.7	151	21	
2025-11-07T00:00	8200	351	-36.7	-48.9	150	21	
2025-11-07T00:00	8220	350	-36.7	-51.1	150	21	
2025-11-07T00:00	8240	349	-36.8	-50.9	149	21	
2025-11-07T00:00	8260	348	-36.9	-50.6	149	22	
2025-11-07T00:00	8280	347	-37.1	-50.3	148	22	
2025-11-07T00:00	8300	346	-37.3	-50.2	148	22	
2025-11-07T00:00	8320	345	-37.5	-50.3	147	22	
2025-11-07T00:00	8340	344	-37.7	-50.6	147	22	
2025-11-07T00:00	8360	343	-37.8	-50.8	147	22	
2025-11-07T00:00	8380	342	-38.0	-50.7	147	22	
2025-11-07T00:00	8400	341	-38.2	-50.9	148	21	
2025-11-07T00:00	8420	340	-38.3	-50.9	148	21	
2025-11-07T00:00	8440	339	-38.5	-50.9	148	21	
2025-11-07T00:00	8460	338	-38.7	-50.9	148	21	
2025-11-07T00:00	8480	337	-38.9	-51.0	148	21	
2025-11-07T00:00	8500	336	-39.1	-51.0	148	21	
2025-11-07T00:00	8520	335	-39.3	-51.0	149	21	
2025-11-07T00:00	8540	334	-39.5	-50.9	149	21	
2025-11-07T00:00	8560	333	-39.7	-51.0	149	21	
2025-11-07T00:00	8580	332	-39.9	-51.0	150	21	
2025-11-07T00:00	8600	331	-40.1	-51.0	150	21	
2025-11-07T00:00	8620	330	-40.3	-51.3	150	22	
2025-11-07T00:00	8640	329	-40.5	-51.3	150	22	
2025-11-07T00:00	8660	328	-40.7	-51.3	150	22	
2025-11-07T00:00	8680	327	-40.8	-51.5	149	22	
2025-11-07T00:00	8700	327	-41.0	-51.6	148	22	
2025-11-07T00:00	8720	325	-41.1	-51.9	148	22	
2025-11-07T00:00	8740	324	-41.3	-52.7	147	23	
2025-11-07T00:00	8760	324	-41.3	-53.4	146	23	
2025-11-07T00:00	8780	323	-41.4	-53.7	146	23	
2025-11-07T00:00	8800	322	-41.6	-53.5	145	23	
2025-11-07T00:00	8820	321	-41.8	-53.1	145	24	
2025-11-07T00:00	8840	320	-41.9	-53.3	145	24	
2025-11-07T00:00	8860	319	-42.1	-53.8	145	24	
2025-11-07T00:00	8880	318	-42.3	-54.0	144	24	
2025-11-07T00:00	8900	317	-42.5	-54.0	144	24	
2025-11-07T00:00	8920	316	-42.6	-54.0	143	23	
2025-11-07T00:00	8940	315	-42.8	-54.0	142	23	
2025-11-07T00:00	8960	314	-43.0	-54.3	142	23	
2025-11-07T00:00	8980	313	-43.1	-54.5	141	24	
2025-11-07T00:00	9000	312	-43.2	-54.7	140	24	
2025-11-07T00:00	9020	311	-43.4	-54.8	140	24	
2025-11-07T00:00	9040	310	-43.5	-54.6	140	24	
2025-11-07T00:00	9060	309	-43.6	-53.9	140	25	
2025-11-07T00:00	9080	309	-43.7	-53.0	140	25	
2025-11-07T00:00	9100	308	-43.9	-52.1	140	25	
2025-11-07T00:00	9120	307	-43.9	-53.2	140	25	
2025-11-07T00:00	9140	306	-44.0	-53.7	140	26	
2025-11-07T00:00	9160	305	-44.2	-51.7	139	26	
2025-11-07T00:00	9180	304	-44.4	-51.4	139	26	
2025-11-07T00:00	9200	303	-44.5	-50.4	139	26	
2025-11-07T00:00	9220	302	-44.6	-48.8	138	26	
2025-11-07T00:00	9240	301	-44.7	-49.1	138	26	
2025-11-07T00:00	9260	300	-44.9	-51.1	138	26	
2025-11-07T00:00	9280	299	-45.1	-54.3	138	26	
2025-11-07T00:00	9300	299	-45.3	-55.8	138	26	
2025-11-07T00:00	9320	298	-45.5	-55.1	138	26	
2025-11-07T00:00	9340	297	-45.6	-54.8	138	26	
2025-11-07T00:00	9360	296	-45.8	-54.5	138	26	
2025-11-07T00:00	9380	295	-46.0	-54.6	138	26	
2025-11-07T00:00	9400	294	-46.1	-55.5	138	26	
2025-11-07T00:00	9420	293	-46.3	-55.6	138	26	
2025-11-07T00:00	9440	292	-46.4	-56.7	138	26	
2025-11-07T00:00	9460	292	-46.5	-59.5	138	26	
2025-11-07T00:00	9480	291	-46.6	-61.6	138	26	
2025-11-07T00:00	9500	290	-46.7	-61.6	139	26	
2025-11-07T00:00	9520	289	-46.8	-61.3	139	27	
2025-11-07T00:00	9540	288	-46.9	-61.0	140	27	
2025-11-07T00:00	9560	287	-47.0	-60.7	140	27	
2025-11-07T00:00	9580	286	-47.0	-60.3	141	27	
2025-11-07T00:00	9600	285	-47.1	-60.1	141	27	
2025-11-07T00:00	9620	285	-47.2	-60.0	141	27	
2025-11-07T00:00	9640	284	-47.3	-59.8	142	27	
2025-11-07T00:00	9660	283	-47.3	-59.3	142	27	
2025-11-07T00:00	9680	282	-47.5	-59.4	141	27	
2025-11-07T00:00	9700	281	-47.5	-60.2	141	28	
2025-11-07T00:00	9720	280	-47.3	-60.3	140	28	
2025-11-07T00:00	9740	280	-47.3	-59.1	140	28	
2025-11-07T00:00	9760	279	-47.2	-56.6	139	28	
2025-11-07T00:00	9780	278	-47.2	-54.8	139	28	
2025-11-07T00:00	9800	277	-47.3	-53.8	139	28	
2025-11-07T00:00	9820	276	-47.5	-53.2	138	28	
2025-11-07T00:00	9840	275	-47.7	-53.0	138	28	
2025-11-07T00:00	9860	274	-47.9	-53.1	137	28	
2025-11-07T00:00	9880	273	-48.0	-52.8	137	28	
2025-11-07T00:00	9900	273	-48.1	-52.6	137	28	
2025-11-07T00:00	9920	272	-48.0	-54.7	136	28	
2025-11-07T00:00	9940	271	-47.7	-61.3	136	28	
2025-11-07T00:00	9960	270	-47.8	-63.9	136	28	
2025-11-07T00:00	9980	269	-48.0	-63.3	137	27	
2025-11-07T00:00	10000	269	-48.1	-62.8	137	27	
2025-11-07T00:00	10018	268	-48.3	-62.5	137	27	
2025-11-07T00:00	10050	267	-48.6	-62.0	138	27	
2025-11-07T00:00	10100	265	-49.1	-62.2	139	27	
2025-11-07T00:00	10150	263	-49.5	-62.2	140	27	
2025-11-07T00:00	10200	260	-50.0	-62.0	141	27	
2025-11-07T00:00	10250	259	-50.4	-62.0	142	27	
2025-11-07T00:00	10300	257	-50.9	-62.0	143	27	
2025-11-07T00:00	10350	255	-51.3	-62.1	145	27	
2025-11-07T00:00	10400	253	-51.6	-62.0	144	26	
2025-11-07T00:00	10450	251	-52.0	-62.2	143	26	
2025-11-07T00:00	10500	249	-52.2	-62.6	141	26	
2025-11-07T00:00	10550	247	-52.5	-63.0	140	27	
2025-11-07T00:00	10600	245	-52.7	-63.4	139	28	
2025-11-07T00:00	10650	243	-52.9	-64.1	139	28	
2025-11-07T00:00	10700	241	-53.0	-62.8	140	28	
2025-11-07T00:00	10750	239	-53.1	-58.8	141	29	
2025-11-07T00:00	10800	238	-53.3	-59.3	141	29	
2025-11-07T00:00	10850	236	-53.4	-58.7	140	30	
2025-11-07T00:00	10900	234	-53.8	-58.6	139	30	
2025-11-07T00:00	10950	232	-54.2	-59.2	139	30	
2025-11-07T00:00	11000	230	-54.5	-60.7	139	30	
2025-11-07T00:00	11050	228	-54.8	-62.7	138	30	
2025-11-07T00:00	11100	227	-55.0	-63.7	137	30	
2025-11-07T00:00	11150	225	-55.3	-64.5	135	30	
2025-11-07T00:00	11200	223	-55.2	-65.9	133	29	
2025-11-07T00:00	11250	221	-55.7	-65.4	131	29	
2025-11-07T00:00	11300	220	-56.1	-64.8	129	30	
2025-11-07T00:00	11350	218	-56.6	-64.0	128	30	
2025-11-07T00:00	11400	216	-56.8	-63.9	128	30	
2025-11-07T00:00	11450	214	-56.9	-65.2	131	29	
2025-11-07T00:00	11500	213	-57.0	-65.9	135	30	
2025-11-07T00:00	11550	211	-57.2	-66.0	137	30	
2025-11-07T00:00	11600	209	-57.6	-65.7	139	31	
2025-11-07T00:00	11650	208	-58.0	-65.9	141	30	
2025-11-07T00:00	11700	206	-58.1	-68.1	144	28	
2025-11-07T00:00	11750	204	-57.5	-72.2	146	27	
2025-11-07T00:00	11800	203	-57.1	-77.1	148	25	
2025-11-07T00:00	11850	201	-56.2	-79.7	150	23	
2025-11-07T00:00	11900	200	-55.7	-79.2	150	23	
2025-11-07T00:00	11950	198	-55.9	-77.7	150	23	
2025-11-07T00:00	12000	197	-56.2	-76.6	149	24	
2025-11-07T00:00	12050	195	-56.4	-76.2	148	24	
2025-11-07T00:00	12100	194	-56.6	-76.1	148	25	
2025-11-07T00:00	12150	192	-56.9	-75.9	149	25	
2025-11-07T00:00	12200	191	-56.9	-76.2	150	24	
2025-11-07T00:00	12250	189	-56.9	-77.0	152	22	
2025-11-07T00:00	12300	188	-57.1	-78.5	152	21	
2025-11-07T00:00	12350	186	-57.0	-79.9	150	19	
2025-11-07T00:00	12400	185	-56.7	-80.6	149	18	
2025-11-07T00:00	12450	183	-56.1	-80.5	149	18	
2025-11-07T00:00	12500	182	-55.9	-80.6	151	18	
2025-11-07T00:00	12550	180	-55.6	-80.5	153	20	
2025-11-07T00:00	12600	179	-55.7	-80.0	155	21	
2025-11-07T00:00	12650	177	-55.6	-79.6	156	21	
2025-11-07T00:00	12700	176	-55.4	-80.0	156	20	
2025-11-07T00:00	12750	175	-54.8	-80.8	154	19	
2025-11-07T00:00	12800	173	-54.1	-81.1	152	19	
2025-11-07T00:00	12850	172	-54.3	-81.2	151	20	
2025-11-07T00:00	12900	171	-54.7	-81.2	151	21	
2025-11-07T00:00	12950	169	-54.8	-81.2	151	23	
2025-11-07T00:00	13000	168	-54.9	-81.3	152	25	
2025-11-07T00:00	13050	167	-55.3	-81.3	153	26	
2025-11-07T00:00	13100	165	-55.6	-81.2	154	27	
2025-11-07T00:00	13150	164	-56.0	-81.2	155	27	
2025-11-07T00:00	13200	163	-56.4	-81.3	155	28	
2025-11-07T00:00	13250	162	-56.8	-81.3	156	29	
2025-11-07T00:00	13300	160	-57.0	-81.5	158	28	
2025-11-07T00:00	13350	159	-57.3	-81.7	160	27	
2025-11-07T00:00	13400	158	-57.5	-82.0	162	26	
2025-11-07T00:00	13450	157	-57.5	-82.1	163	25	
2025-11-07T00:00	13500	155	-57.4	-82.3	162	23	
2025-11-07T00:00	13550	154	-57.1	-82.6	164	22	
2025-11-07T00:00	13600	153	-57.0	-82.8	166	21	
2025-11-07T00:00	13650	152	-56.8	-83.0	167	20	
2025-11-07T00:00	13700	150	-56.8	-83.1	164	20	
2025-11-07T00:00	13750	149	-57.1	-83.2	161	19	
2025-11-07T00:00	13800	148	-57.4	-83.3	160	19	
2025-11-07T00:00	13850	147	-57.1	-83.3	163	18	
2025-11-07T00:00	13900	146	-57.1	-83.3	167	18	
2025-11-07T00:00	13950	145	-57.2	-83.3	172	17	
2025-11-07T00:00	14000	143	-57.3	-83.3	176	17	
2025-11-07T00:00	14050	142	-57.5	-83.3	178	16	
2025-11-07T00:00	14100	141	-57.9	-83.4	177	15	
2025-11-07T00:00	14150	140	-58.0	-83.4	174	15	
2025-11-07T00:00	14200	139	-58.2	-83.4	174	15	
2025-11-07T00:00	14250	138	-58.4	-83.4	173	15	
2025-11-07T00:00	14300	137	-58.8	-83.5	172	15	
2025-11-07T00:00	14350	136	-59.3	-83.5	170	16	
2025-11-07T00:00	14400	135	-59.7	-83.6	170	17	
2025-11-07T00:00	14450	134	-60.1	-83.8	171	18	
2025-11-07T00:00	14500	132	-60.4	-83.9	174	18	
2025-11-07T00:00	14550	131	-60.8	-84.0	176	18	
2025-11-07T00:00	14600	130	-61.2	-84.1	178	18	
2025-11-07T00:00	14650	129	-61.5	-84.3	180	18	
2025-11-07T00:00	14700	128	-61.6	-84.4	185	17	
2025-11-07T00:00	14750	127	-61.5	-84.4	191	15	
2025-11-07T00:00	14800	126	-61.3	-84.4	195	13	
2025-11-07T00:00	14850	125	-61.1	-84.4	199	11	
2025-11-07T00:00	14900	124	-61.1	-84.4	205	9	
2025-11-07T00:00	14950	123	-61.0	-84.3	212	8	
2025-11-07T00:00	15000	122	-61.3	-84.4	222	7	
2025-11-07T00:00	15050	121	-61.5	-84.5	230	7	
2025-11-07T00:00	15100	120	-61.5	-84.4	232	7	
2025-11-07T00:00	15150	119	-61.6	-84.5	232	8	
2025-11-07T00:00	15200	118	-61.6	-84.5	236	8	
2025-11-07T00:00	15250	117	-61.3	-84.5	245	6	
2025-11-07T00:00	15300	116	-61.2	-84.5	259	3	
2025-11-07T00:00	15350	116	-61.2	-84.5	277	2	
2025-11-07T00:00	15400	115	-61.4	-84.6	295	1	
2025-11-07T00:00	15450	114	-61.8	-84.6	308	1	
2025-11-07T00:00	15500	113	-62.2	-84.7	10	1	
2025-11-07T00:00	15550	112	-62.5	-84.6	51	2	
2025-11-07T00:00	15600	111	-63.0	-84.7	69	2	
2025-11-07T00:00	15650	110	-63.4	-84.7	86	2	
2025-11-07T00:00	15700	109	-63.9	-84.8	103	3	
2025-11-07T00:00	15750	108	-64.2	-84.9	118	3	
2025-11-07T00:00	15800	107	-64.1	-84.8	126	5	
2025-11-07T00:00	15850	107	-64.3	-85.0	126	7	
2025-11-07T00:00	15900	106	-64.3	-85.1	125	9	
2025-11-07T00:00	15950	105	-64.1	-85.3	130	9	
2025-11-07T00:00	16000	104	-62.9	-84.9	140	9	
2025-11-07T00:00	16050	103	-62.8	-85.1	149	9	
2025-11-07T00:00	16100	102	-62.8	-85.1	156	9	
2025-11-07T00:00	16150	101	-62.9	-85.1	160	9	
2025-11-07T00:00	16200	101	-63.0	-85.1	162	9	
2025-11-07T00:00	16250	100	-63.4	-85.2	166	10	
2025-11-07T00:00	16300	99	-63.6	-85.2	174	10	
2025-11-07T00:00	16350	98	-63.7	-85.4	184	10	
2025-11-07T00:00	16400	97	-63.5	-85.4	194	10	
2025-11-07T00:00	16450	97	-63.3	-85.4	202	9	
2025-11-07T00:00	16500	96	-63.2	-85.5	209	9	
2025-11-07T00:00	16550	95	-63.1	-85.4	218	8	
2025-11-07T00:00	16600	94	-63.3	-85.5	231	7	
2025-11-07T00:00	16650	94	-63.3	-85.5	244	6	
2025-11-07T00:00	16700	93	-63.0	-85.6	260	4	
2025-11-07T00:00	16750	92	-62.7	-85.6	284	3	
2025-11-07T00:00	16800	91	-62.9	-85.9	308	4	
2025-11-07T00:00	16850	90	-62.8	-85.9	320	4	
2025-11-07T00:00	16900	90	-63.0	-85.9	321	4	
2025-11-07T00:00	16950	89	-63.2	-85.9	314	4	
2025-11-07T00:00	17000	88	-63.5	-86.0	306	4	
2025-11-07T00:00	17050	88	-63.7	-86.0	300	4	
2025-11-07T00:00	17100	87	-63.9	-86.2	297	4	
2025-11-07T00:00	17150	86	-63.6	-86.2	305	4	
2025-11-07T00:00	17200	85	-63.5	-86.3	315	4	
2025-11-07T00:00	17250	85	-63.6	-86.4	319	4	
2025-11-07T00:00	17300	84	-63.8	-86.5	317	4	
2025-11-07T00:00	17350	83	-63.9	-86.6	314	3	
2025-11-07T00:00	17400	83	-63.6	-86.6	315	2	
2025-11-07T00:00	17450	82	-63.7	-86.9	331	1	
2025-11-07T00:00	17500	81	-63.2	-86.8	25	1	
2025-11-07T00:00	17550	81	-63.2	-87.0	62	2	
2025-11-07T00:00	17600	80	-63.3	-87.2	76	3	
2025-11-07T00:00	17650	79	-63.1	-87.2	82	3	
2025-11-07T00:00	17700	79	-62.9	-87.1	87	2	
2025-11-07T00:00	17750	78	-63.0	-87.2	87	2	
2025-11-07T00:00	17800	78	-63.3	-87.2	86	2	
2025-11-07T00:00	17850	77	-63.4	-87.3	98	2	
2025-11-07T00:00	17900	76	-63.1	-87.2	120	2	
2025-11-07T00:00	17950	76	-63.0	-87.2	141	3	
2025-11-07T00:00	18000	75	-63.3	-87.3	158	4	
2025-11-07T00:00	18050	74	-63.6	-87.4	171	4	
2025-11-07T00:00	18100	74	-63.8	-87.5	182	5	
2025-11-07T00:00	18150	73	-63.6	-87.5	193	5	
2025-11-07T00:00	18200	73	-63.5	-87.5	195	5	
2025-11-07T00:00	18250	72	-63.5	-87.5	190	5	
2025-11-07T00:00	18300	71	-63.7	-87.6	190	5	
2025-11-07T00:00	18350	71	-63.9	-87.7	195	5	
2025-11-07T00:00	18400	70	-63.9	-87.9	200	4	
2025-11-07T00:00	18450	70	-63.5	-88.0	202	3	
2025-11-07T00:00	18500	69	-62.6	-87.9	213	4	
2025-11-07T00:00	18550	69	-61.9	-87.7	228	4	
2025-11-07T00:00	18600	68	-62.0	-87.7	240	5	
2025-11-07T00:00	18650	68	-62.2	-87.6	250	5	
2025-11-07T00:00	18700	67	-62.4	-87.7	257	5	
2025-11-07T00:00	18750	66	-62.4	-87.6	262	4	
2025-11-07T00:00	18800	66	-62.6	-87.6	264	4	
2025-11-07T00:00	18850	65	-62.7	-87.6	266	4	
2025-11-07T00:00	18900	65	-62.9	-87.7	270	4	
2025-11-07T00:00	18950	64	-63.1	-87.7	280	4	
2025-11-07T00:00	19000	64	-63.2	-87.7	290	5	
2025-11-07T00:00	19050	63	-63.4	-87.9	295	5	
2025-11-07T00:00	19100	63	-63.5	-87.9	296	5	
2025-11-07T00:00	19150	62	-63.7	-88.0	297	5	
2025-11-07T00:00	19200	62	-63.8	-88.1	302	5	
2025-11-07T00:00	19250	61	-64.0	-88.1	308	5	
2025-11-07T00:00	19300	61	-64.1	-88.2	314	5	
2025-11-07T00:00	19350	60	-64.0	-88.2	318	5	
2025-11-07T00:00	19400	60	-64.1	-88.3	318	4	
2025-11-07T00:00	19450	59	-64.2	-88.4	317	3	
2025-11-07T00:00	19500	59	-64.5	-88.5	320	3	
2025-11-07T00:00	19550	58	-64.5	-88.5	323	3	
2025-11-07T00:00	19600	58	-64.3	-88.5	327	3	
2025-11-07T00:00	19650	57	-64.2	-88.4	332	3	
2025-11-07T00:00	19700	57	-64.3	-88.4	334	3	
2025-11-07T00:00	19750	56	-64.6	-88.5	330	5	
2025-11-07T00:00	19800	56	-64.7	-88.4	329	6	
2025-11-07T00:00	19850	56	-64.9	-88.4	333	7	
2025-11-07T00:00	19900	55	-65.2	-88.5	341	7	
2025-11-07T00:00	19950	55	-65.4	-88.6	348	6	
2025-11-07T00:00	20000	54	-65.4	-88.7	351	5	
2025-11-07T00:00	20050	54	-65.4		345	3	
2025-11-07T00:00	20100	53	-65.6		328	2	
2025-11-07T00:00	20150	53	-65.9		306	2	
2025-11-07T00:00	20200	52	-65.8		288	1	
2025-11-07T00:00	20250	52	-65.8		276	1	
2025-11-07T00:00	20300	52	-65.7		245	0	
2025-11-07T00:00	20350	51	-65.5		127	0	
2025-11-07T00:00	20400	51	-65.6		125	1	
2025-11-07T00:00	20450	50	-65.8		133	2	
2025-11-07T00:00	20500	50	-65.9		156	2	
2025-11-07T00:00	20550	49	-65.6		179	3	
2025-11-07T00:00	20600	49	-65.3		192	4	
2025-11-07T00:00	20650	49	-65.4		204	5	
2025-11-07T00:00	20700	48	-65.5		217	6	
2025-11-07T00:00	20750	48	-65.3		228	6	
2025-11-07T00:00	20800	47	-65.4		240	7	
2025-11-07T00:00	20850	47	-65.4		254	6	
2025-11-07T00:00	20900	47	-65.5		268	6	
2025-11-07T00:00	20950	46	-65.7		280	6	
2025-11-07T00:00	21000	46	-65.9		288	6	
2025-11-07T00:00	21050	46	-66.2		288	5	
2025-11-07T00:00	21100	45	-66.2		279	4	
2025-11-07T00:00	21150	45	-66.2		272	4	
2025-11-07T00:00	21200	44	-66.3		281	4	
2025-11-07T00:00	21250	44	-66.2		298	3	
2025-11-07T00:00	21300	44	-66.2		302	2	
2025-11-07T00:00	21350	43	-66.1		282	1	
2025-11-07T00:00	21400	43	-65.4		273	2	
2025-11-07T00:00	21450	43	-65.3		287	2	
2025-11-07T00:00	21500	42	-65.5		311	2	
2025-11-07T00:00	21550	42	-65.6		347	2	
2025-11-07T00:00	21600	42	-65.7		14	3	
2025-11-07T00:00	21650	41	-66.0		29	4	
2025-11-07T00:00	21700	41	-66.3		45	4	
2025-11-07T00:00	21750	41	-66.6		64	5	
2025-11-07T00:00	21800	40	-66.2		82	4	
2025-11-07T00:00	21850	40	-65.9		100	3	
2025-11-07T00:00	21900	40	-65.7		126	3	
2025-11-07T00:00	21950	39	-65.9		157	3	
2025-11-07T00:00	22000	39	-66.1		187	3	
2025-11-07T00:00	22050	39	-66.0		223	3	
2025-11-07T00:00	22100	38	-65.5		252	4	
2025-11-07T00:00	22150	38	-65.5		265	5	
2025-11-07T00:00	22200	38	-65.4		270	6	
2025-11-07T00:00	22250	37	-65.6		272	7	
2025-11-07T00:00	22300	37	-65.3		276	8	
2025-11-07T00:00	22350	37	-65.3		281	8	
2025-11-07T00:00	22400	36	-65.5		287	8	
2025-11-07T00:00	22450	36	-65.6		291	8	
2025-11-07T00:00	22500	36	-65.7		291	7	
2025-11-07T00:00	22550	36	-65.9		288	5	
2025-11-07T00:00	22600	35	-66.1		285	4	
2025-11-07T00:00	22650	35	-65.7		280	3	
2025-11-07T00:00	22700	35	-65.6		272	3	
2025-11-07T00:00	22750	34	-65.7		262	4	
2025-11-07T00:00	22800	34	-65.7		251	3	
2025-11-07T00:00	22850	34	-65.7		238	3	
2025-11-07T00:00	22900	34	-65.8		228	3	
2025-11-07T00:00	22950	33	-65.5		225	4	
2025-11-07T00:00	23000	33	-65.4		233	5	
2025-11-07T00:00	23050	33	-65.2		244	7	
2025-11-07T00:00	23100	32	-65.1		254	9	
2025-11-07T00:00	23150	32	-64.5		262	10	
2025-11-07T00:00	23200	32	-64.4		268	11	
2025-11-07T00:00	23250	32	-64.6		274	11	
2025-11-07T00:00	23300	31	-64.9		279	11	
2025-11-07T00:00	23350	31	-65.3		283	11	
2025-11-07T00:00	23400	31	-65.6		286	11	
2025-11-07T00:00	23450	31	-65.7		284	10	
2025-11-07T00:00	23500	30	-65.8		277	9	
2025-11-07T00:00	23550	30	-65.5		266	8	
2025-11-07T00:00	23600	30	-65.4		254	8	
2025-11-07T00:00	23650	30	-65.5		242	7	
2025-11-07T00:00	23700	29	-65.6		235	7	
2025-11-07T00:00	23750	29	-65.1		238	7	
2025-11-07T00:00	23800	29	-64.3		248	7	
2025-11-07T00:00	23850	29	-64.6		259	7	
2025-11-07T00:00	23900	29	-64.9		268	7	
2025-11-07T00:00	23950	28	-65.2		277	7	
2025-11-07T00:00	24000	28	-65.2		286	7	
2025-11-07T00:00	24050	28	-65.2		294	7	
2025-11-07T00:00	24100	28	-65.5		299	7	
2025-11-07T00:00	24150	27	-65.1		293	6	
2025-11-07T00:00	24200	27	-64.9		282	6	
2025-11-07T00:00	24250	27	-65.0		283	6	
2025-11-07T00:00	24300	27	-64.8		294	6	
2025-11-07T00:00	24350	26	-65.1		303	6	
2025-11-07T00:00	24400	26	-65.4		305	6	
2025-11-07T00:00	24450	26	-65.5		299	6	
2025-11-07T00:00	24500	26	-65.7		284	5	
2025-11-07T00:00	24550	26	-65.9		272	6	
2025-11-07T00:00	24600	25	-66.1		269	8	
2025-11-07T00:00	24650	25	-66.0		269	9	
2025-11-07T00:00	24700	25	-65.9		270	10	
2025-11-07T00:00	24750	25	-66.1		271	9	
2025-11-07T00:00	24800	25	-65.9		275	8	
2025-11-07T00:00	24850	24	-65.4		281	8	
2025-11-07T00:00	24900	24	-65.3		286	9	
2025-11-07T00:00	24950	24	-64.8		288	10	
2025-11-07T00:00	25000	24	-64.3		290	11	
2025-11-07T00:00	25050	24	-64.0		294	12	
2025-11-07T00:00	25100	23	-63.7		297	12	
2025-11-07T00:00	25150	23	-63.6		299	12	
2025-11-07T00:00	25200	23	-63.7		298	12	
2025-11-07T00:00	25250	23	-63.6		294	12	
2025-11-07T00:00	25300	23	-63.7		290	13	
2025-11-07T00:00	25350	22	-64.0		288	13	
2025-11-07T00:00	25400	22	-64.3		287	14	
2025-11-07T00:00	25450	22	-64.1		288	13	
2025-11-07T00:00	25500	22	-64.0		288	12	
2025-11-07T00:00	25550	22	-64.1		288	11	
2025-11-07T00:00	25600	22	-64.4		290	10	
2025-11-07T00:00	25650	21	-64.8		291	9	
2025-11-07T00:00	25700	21	-65.2		291	8	
2025-11-07T00:00	25750	21	-65.5		290	7	
2025-11-07T00:00	25800	21	-65.9		280	5	
2025-11-07T00:00	25850	21	-66.0		254	4	
2025-11-07T00:00	25900	21	-65.3		238	6	
2025-11-07T00:00	25950	20	-64.6		241	7	
2025-11-07T00:00	26000	20	-64.5		247	8	
2025-11-07T00:00	26050	20	-64.4		251	8	
2025-11-07T00:00	26100	20	-63.9		254	8	
2025-11-07T00:00	26150	20	-63.5		256	8	
2025-11-07T00:00	26200	20	-63.3		255	8	
2025-11-07T00:00	26250	19	-62.9		252	8	
2025-11-07T00:00	26300	19	-62.6		250	9	
2025-11-07T00:00	26350	19	-62.3		252	9	
2025-11-07T00:00	26400	19	-62.3		255	9	
2025-11-07T00:00	26450	19	-62.1		254	10	
2025-11-07T00:00	26500	19	-62.1		251	10	
2025-11-07T00:00	26550	18	-62.2		248	10	
2025-11-07T00:00	26600	18	-62.4		245	10	
2025-11-07T00:00	26650	18	-62.6		244	11	
2025-11-07T00:00	26700	18	-62.9		245	12	
2025-11-07T00:00	26750	18	-63.0		248	12	
2025-11-07T00:00	26800	18	-62.6		251	13	
2025-11-07T00:00	26850	18	-62.8		255	14	
2025-11-07T00:00	26900	17	-62.8		258	14	
2025-11-07T00:00	26950	17	-62.7		259	16	
2025-11-07T00:00	27000	17	-62.6		259	17	
2025-11-07T00:00	27050	17	-62.6		260	17	
2025-11-07T00:00	27100	17	-62.4		262	18	
2025-11-07T00:00	27150	17	-62.2		265	18	
2025-11-07T00:00	27200	17	-62.2		267	18	
2025-11-07T00:00	27250	16	-62.5		269	18	
2025-11-07T00:00	27300	16	-62.7		270	17	
2025-11-07T00:00	27350	16	-62.7		273	18	
2025-11-07T00:00	27400	16	-62.8		276	18	
2025-11-07T00:00	27450	16	-62.6		278	18	
2025-11-07T00:00	27500	16	-62.6		278	18	
2025-11-07T00:00	27550	16	-62.4		275	18	
2025-11-07T00:00	27600	16	-62.3		271	17	
2025-11-07T00:00	27650	15	-62.4		266	16	
2025-11-07T00:00	27700	15	-62.8		262	15	
2025-11-07T00:00	27750	15	-62.8		258	14	
2025-11-07T00:00	27800	15	-62.9		256	14	
2025-11-07T00:00	27850	15	-62.7		257	15	
2025-11-07T00:00	27900	15	-62.8		259	15	
2025-11-07T00:00	27950	15	-62.9		261	16	
2025-11-07T00:00	28000	15	-62.9		261	17	
2025-11-07T00:00	28050	14	-63.0		261	18	
2025-11-07T00:00	28100	14	-63.2		260	19	
2025-11-07T00:00	28150	14	-63.4		260	20	
2025-11-07T00:00	28200	14	-63.6		261	21	
2025-11-07T00:00	28250	14	-62.9		262	22	
2025-11-07T00:00	28300	14	-62.8		263	22	
2025-11-07T00:00	28350	14	-63.0		263	21	
2025-11-07T00:00	28400	14	-63.4		263	21	
2025-11-07T00:00	28450	14	-63.7		263	20	
2025-11-07T00:00	28500	13	-63.4		262	20	
2025-11-07T00:00	28550	13	-63.4		262	21	
2025-11-07T00:00	28600	13	-63.5		262	22	
2025-11-07T00:00	28650	13	-63.4		265	22	
2025-11-07T00:00	28700	13	-61.9		268	23	
2025-11-07T00:00	28750	13	-61.3		270	24	
2025-11-07T00:00	28800	13	-61.1		272	25	
2025-11-07T00:00	28850	13	-61.2		272	25	
2025-11-07T00:00	28900	13	-61.5		272	25	
2025-11-07T00:00	28950	13	-62.0		271	25	
2025-11-07T00:00	29000	12	-62.2		270	26	
2025-11-07T00:00	29050	12	-61.9		270	26	
2025-11-07T00:00	29100	12	-62.3		270	27	
2025-11-07T00:00	29150	12	-62.6		270	27	
2025-11-07T00:00	29200	12	-62.7		271	28	
2025-11-07T00:00	29250	12	-62.7		272	28	
2025-11-07T00:00	29300	12	-61.9		274	27	
2025-11-07T00:00	29350	12	-61.7		276	26	
2025-11-07T00:00	29400	12	-61.9		278	26	
2025-11-07T00:00	29450	12	-62.2		279	25	
2025-11-07T00:00	29500	11	-62.6		279	24	
2025-11-07T00:00	29550	11	-62.7		276	24	
2025-11-07T00:00	29600	11	-62.2		272	25	
2025-11-07T00:00	29650	11	-61.5		267	26	
2025-11-07T00:00	29700	11	-61.1		263	27	
2025-11-07T00:00	29750	11	-60.9		262	27	
2025-11-07T00:00	29800	11	-60.5		262	27	
2025-11-07T00:00	29850	11	-60.6		263	27	
2025-11-07T00:00	29900	11	-60.3		263	27	
2025-11-07T00:00	29950	11	-60.6		263	27	
2025-11-07T00:00	30000	11	-60.8		263	28	
2025-11-07T00:00	30050	10	-60.6		263	30	
2025-11-07T00:00	30100	10	-60.6		263	30	
2025-11-07T00:00	30150	10	-60.8		263	31	
2025-11-07T00:00	30200	10	-61.0		263	30	
2025-11-07T00:00	30250	10	-61.2		262	29	
2025-11-07T00:00	30300	10	-61.5		261	29	
2025-11-07T00:00	30350	10	-61.7		261	29	
2025-11-07T00:00	30400	10	-61.7		261	30	
2025-11-07T00:00	30450	10	-61.6		263	31	
2025-11-07T00:00	30500	10	-61.7		264	32	
2025-11-07T00:00	30550	10	-62.0		265	33	
2025-11-07T00:00	30600	10	-61.8		266	34	
2025-11-07T00:00	30650	10	-61.7		267	34	
2025-11-07T00:00	30700	9	-61.6		267	33	
2025-11-07T00:00	30750	9	-61.8		268	32	
2025-11-07T00:00	30800	9	-61.8		268	32	
2025-11-07T00:00	30850	9	-61.7		267	32	
2025-11-07T00:00	30900	9	-61.7		266	32	
2025-11-07T00:00	30950	9	-61.5		266	32	
2025-11-07T00:00	31000	9	-61.3		265	32	
2025-11-07T00:00	31050	9	-60.8		264	32	
2025-11-07T00:00	31100	9	-60.7		262	32	
2025-11-07T00:00	31150	9	-60.6		260	33	
2025-11-07T00:00	31200	9	-60.4		260	34	
2025-11-07T00:00	31250	9	-60.2		261	34	
2025-11-07T00:00	31300	9	-60.2		262	34	
2025-11-07T00:00	31350	8	-60.1		263	33	
2025-11-07T00:00	31400	8	-59.7		265	33	
2025-11-07T00:00	31450	8	-59.6		267	32	
2025-11-07T00:00	31500	8	-59.6		268	33	
2025-11-07T00:00	31550	8	-59.5		268	33	
2025-11-07T00:00	31600	8	-59.4		268	33	
2025-11-07T00:00	31650	8	-59.5		268	33	
2025-11-07T00:00	31700	8	-59.6		269	33	
2025-11-07T00:00	31750	8	-59.6		269	34	
2025-11-07T00:00	31800	8	-59.7		270	34	
2025-11-07T00:00	31850	8	-59.7		269	34	
2025-11-07T00:00	31900	8	-59.5		269	35	
2025-11-07T00:00	31950	8	-59.7		267	35	
2025-11-07T00:00	32000	8	-60.0		266	34	
2025-11-07T00:00	32050	8	-60.2		264	34	
2025-11-07T00:00	32100	8	-60.1		264	34	
2025-11-07T00:00	32150	7	-59.8		265	33	
2025-11-07T00:00	32200	7	-60.1		264	34	
2025-11-07T00:00	32250	7	-60.0		263	35	
2025-11-07T00:00	32300	7	-59.5		261	36	
2025-11-07T00:00	32350	7	-59.1		260	38	
2025-11-07T00:00	32400	7	-58.2		260	40	
2025-11-07T00:00	32450	7	-57.4		260	42	
2025-11-07T00:00	32500	7	-56.8		260	43	
2025-11-07T00:00	32550	7	-56.7		261	43	
2025-11-07T00:00	32600	7	-56.8		261	44	
2025-11-07T00:00	32650	7	-56.9		261	44	
2025-11-07T00:00	32700	7	-57.1		260	44	
2025-11-07T00:00	32750	7	-57.3		260	44	
2025-11-07T00:00	32800	7	-57.5		261	44	
2025-11-07T00:00	32850	7	-57.3		263	45	
2025-11-07T00:00	32900	7	-57.0		264	45	
2025-11-07T00:00	32950	7	-57.1		264	46	
2025-11-07T00:00	33000	7	-57.3		264	46	
2025-11-07T00:00	33050	6	-57.4		264	46	
2025-11-07T00:00	33100	6	-57.3		264	46	
2025-11-07T00:00	33150	6	-57.3		264	46	
2025-11-07T00:00	33200	6	-57.1		265	45	
2025-11-07T00:00	33250	6	-56.9		266	44	
2025-11-07T00:00	33300	6	-56.7		267	44	
2025-11-07T00:00	33350	6	-56.9		267	44	
2025-11-07T00:00	33400	6	-56.7		267	44	
2025-11-07T00:00	33450	6	-56.7		267	46	
2025-11-07T00:00	33500	6	-56.3		266	47	
2025-11-07T00:00	33550	6	-56.0		266	47	
2025-11-07T00:00	33600	6	-55.7		267	47	
2025-11-07T00:00	33650	6	-55.4		267	47	
2025-11-07T00:00	33700	6	-55.5		268	47	
2025-11-07T00:00	33750	6	-55.5		267	46	
2025-11-07T00:00	33800	6	-55.0		266	46	
2025-11-07T00:00	33850	6	-54.5		266	46	
2025-11-07T00:00	33900	6	-54.0		266	47	
2025-11-07T00:00	33950	6	-53.3		267	47	
2025-11-07T00:00	34000	6	-52.7		268	47	
2025-11-07T00:00	34050	6	-52.7		269	47	
2025-11-07T00:00	34100	5	-52.8		269	46	
2025-11-07T00:00	34150	5	-52.4		270	46	
2025-11-07T00:00	34200	5	-52.2		271	45	
2025-11-07T00:00	34250	5	-52.3		272	44	
2025-11-07T00:00	34300	5	-52.4		273	44	
2025-11-07T00:00	34350	5	-52.7		275	43	
2025-11-07T00:00	34400	5	-52.9		276	43	
2025-11-07T00:00	34450	5	-53.0		278	43	
2025-11-07T00:00	34500	5	-53.3		279	43	
2025-11-07T00:00	34550	5	-53.5		279	43	
2025-11-07T00:00	34600	5	-53.0		278	43	
2025-11-07T00:00	34650	5	-52.3		276	42	
2025-11-07T00:00	34700	5	-52.5		275	42	
2025-11-07T00:00	34750	5	-52.7		273	42	
2025-11-07T00:00	34800	5	-52.7		272	42	
2025-11-07T00:00	34850	5	-52.5		271	42	
2025-11-07T00:00	34900	5	-52.4		272	41	
2025-11-07T00:00	34950	5	-52.5		272	41	
2025-11-07T00:00	35000	5	-52.5		273	41	
2025-11-07T00:00	35050	5	-52.4		273	41	
2025-11-07T00:00	35100	5	-52.3		273	41	
2025-11-07T00:00	35150	5	-52.0		271	42	
2025-11-07T00:00	35200	5	-51.9		270	42	
2025-11-07T00:00	35250	5	-51.6		268	42	
2025-11-07T00:00	35300	5	-51.3		266	42	
2025-11-07T00:00	35350	5	-50.7		264	43	
2025-11-07T00:00	35400	4	-50.5		263	44	
2025-11-07T00:00	35450	4	-50.5		263	44	
2025-11-07T00:00	35500	4	-50.5		264	45	
2025-11-07T00:00	35550	4	-50.1		265	46	
2025-11-07T00:00	35600	4	-50.1		266	46	
2025-11-07T00:00	35650	4	-50.2		268	46	
2025-11-07T00:00	35700	4	-50.2		270	47	
2025-11-07T00:00	35750	4	-50.4		271	47	
2025-11-07T00:00	35800	4	-50.3		272	47	
2025-11-07T00:00	35850	4	-50.1		272	47	
2025-11-07T12:00	491	954	7.5	6.3	304	1	0.9
2025-11-07T12:00	501	953	7.2	6.4	11	0	0.9
2025-11-07T12:00	520	951	6.8	6.1	19	0	1.0
2025-11-07T12:00	540	949	6.6	6.0	270	0	1.0
2025-11-07T12:00	560	946	6.5	5.9	15	0	1.1
2025-11-07T12:00	580	944	6.3	5.9	357	0	1.1
2025-11-07T12:00	600	942	6.1	5.9	344	1	1.1
2025-11-07T12:00	620	939	6.0	5.8	332	1	1.2
2025-11-07T12:00	640	937	5.8	5.8	318	1	1.2
2025-11-07T12:00	660	935	5.6	5.6	306	1	1.2
2025-11-07T12:00	680	933	5.7	5.3	293	1	1.2
2025-11-07T12:00	700	931	5.7	5.2	278	2	1.3
2025-11-07T12:00	720	928	5.8	4.9	265	2	1.3
2025-11-07T12:00	740	926	6.0	4.7	254	2	1.4
2025-11-07T12:00	760	924	6.5	4.9	246	3	1.5
2025-11-07T12:00	780	922	7.2	5.2	241	3	1.6
2025-11-07T12:00	800	919	7.3	5.3	238	3	1.6
2025-11-07T12:00	820	917	7.5	5.3	238	3	1.7
2025-11-07T12:00	840	915	7.8	4.9	238	2	1.7
2025-11-07T12:00	860	913	8.2	3.7	239	2	1.7
2025-11-07T12:00	880	910	8.7	0.9	240	2	1.9
2025-11-07T12:00	900	908	9.0	0.9	240	1	2.1
2025-11-07T12:00	920	906	8.9	0.9	236	1	2.4
2025-11-07T12:00	940	904	9.0	0.7	228	0	2.6
2025-11-07T12:00	960	902	9.3	-0.4	213	0	2.8
2025-11-07T12:00	980	899	9.6	-1.8	93	0	3.0
2025-11-07T12:00	1000	897	9.6	-1.9	35	0	3.2
2025-11-07T12:00	1020	895	9.5	-1.8	25	1	3.3
2025-11-07T12:00	1040	893	9.4	-1.6	22	1	3.5
2025-11-07T12:00	1060	891	9.6	-1.5	21	1	3.6
2025-11-07T12:00	1080	889	9.7	-1.3	22	1	3.6
2025-11-07T12:00	1100	886	9.7	-1.3	24	1	3.7
2025-11-07T12:00	1120	884	9.6	-1.5	27	1	3.7
2025-11-07T12:00	1140	882	9.5	-1.6	29	1	3.8
2025-11-07T12:00	1160	880	9.3	-1.4	31	1	3.8
2025-11-07T12:00	1180	878	9.2	-1.3	32	1	3.8
2025-11-07T12:00	1200	876	9.2	-1.6	34	1	3.8
2025-11-07T12:00	1220	874	9.0	-1.6	37	2	3.8
2025-11-07T12:00	1240	872	8.9	-1.7	41	2	3.8
2025-11-07T12:00	1260	869	8.7	-1.7	45	2	3.8
2025-11-07T12:00	1280	867	8.5	-1.7	47	2	3.8
2025-11-07T12:00	1300	865	8.3	-1.8	47	2	3.8
2025-11-07T12:00	1320	863	8.2	-1.9	46	2	3.8
2025-11-07T12:00	1340	861	8.0	-1.7	44	2	3.8
2025-11-07T12:00	1360	859	7.8	-1.5	39	2	3.8
2025-11-07T12:00	1380	857	7.7	-1.7	34	2	3.8
2025-11-07T12:00	1400	855	7.6	-1.7	30	2	3.8
2025-11-07T12:00	1420	853	7.4	-1.9	27	2	3.8
2025-11-07T12:00	1440	851	7.3	-2.0	26	2	3.8
2025-11-07T12:00	1460	849	7.1	-2.0	26	2	3.8
2025-11-07T12:00	1480	846	6.9	-2.1	26	2	3.8
2025-11-07T12:00	1500	844	6.8	-2.2	27	2	3.8
2025-11-07T12:00	1520	843	6.6	-2.3	28	1	3.8
2025-11-07T12:00	1540	841	6.4	-2.2	28	1	3.8
2025-11-07T12:00	1560	838	6.2	-2.2	29	1	3.8
2025-11-07T12:00	1580	836	6.1	-2.6	29	1	3.8
2025-11-07T12:00	1600	834	5.9	-2.8	28	1	3.8
2025-11-07T12:00	1620	832	5.8	-2.6	25	1	3.8
2025-11-07T12:00	1640	830	5.7	-1.9	19	1	3.8
2025-11-07T12:00	1660	828	5.5	-2.0	10	1	3.8
2025-11-07T12:00	1680	826	5.4	-2.3	0	1	3.8
2025-11-07T12:00	1700	824	5.4	-2.7	351	1	3.7
2025-11-07T12:00	1720	822	5.4	-2.2	345	1	3.7
2025-11-07T12:00	1740	820	5.5	-2.2	340	2	3.7
2025-11-07T12:00	1760	818	5.4	-2.3	336	2	3.7
2025-11-07T12:00	1780	816	5.3	-2.4	334	2	3.7
2025-11-07T12:00	1800	814	5.2	-3.0	331	2	3.7
2025-11-07T12:00	1820	812	5.2	-3.5	327	2	3.7
2025-11-07T12:00	1840	810	5.2	-3.3	321	2	3.7
2025-11-07T12:00	1860	808	5.1	-3.3	315	2	3.7
2025-11-07T12:00	1880	806	5.1	-3.2	307	2	3.7
2025-11-07T12:00	1900	804	5.3	-4.2	298	2	3.7
2025-11-07T12:00	1920	802	5.3	-4.7	291	2	3.7
2025-11-07T12:00	1940	800	5.3	-5.5	284	2	3.7
2025-11-07T12:00	1960	798	5.1	-6.2	278	2	3.7
2025-11-07T12:00	1980	796	5.0	-6.8	270	2	3.7
2025-11-07T12:00	2000	795	4.9	-6.7	262	2	3.7
2025-11-07T12:00	2020	793	4.7	-7.5	254	2	3.7
2025-11-07T12:00	2040	791	4.5	-8.1	247	2	3.7
2025-11-07T12:00	2060	789	4.4	-8.0	241	3	3.7
2025-11-07T12:00	2080	787	4.2	-8.5	236	3	3.7
2025-11-07T12:00	2100	785	4.1	-9.1	232	3	3.7
2025-11-07T12:00	2120	783	3.9	-9.2	228	3	3.6
2025-11-07T12:00	2140	781	3.8	-9.4	225	3	3.6
2025-11-07T12:00	2160	779	3.7	-9.5	222	3	3.6
2025-11-07T12:00	2180	777	3.6	-9.8	220	3	3.6
2025-11-07T12:00	2200	775	3.6	-10.5	219	3	3.6
2025-11-07T12:00	2220	773	3.6	-11.2	220	3	3.6
2025-11-07T12:00	2240	771	3.6	-11.7	221	3	3.6
2025-11-07T12:00	2260	769	3.5	-11.8	223	3	3.6
2025-11-07T12:00	2280	767	3.4	-12.1	224	3	3.6
2025-11-07T12:00	2300	766	3.3	-12.2	224	3	3.6
2025-11-07T12:00	2320	764	3.2	-12.3	223	3	3.6
2025-11-07T12:00	2340	762	3.0	-12.3	221	3	3.6
2025-11-07T12:00	2360	760	2.9	-12.4	217	3	3.6
2025-11-07T12:00	2380	758	2.7	-12.4	212	2	3.6
2025-11-07T12:00	2400	756	2.6	-12.7	205	2	3.6
2025-11-07T12:00	2420	754	2.6	-12.8	198	2	3.6
2025-11-07T12:00	2440	752	2.5	-12.9	192	2	3.6
2025-11-07T12:00	2460	751	2.3	-13.0	188	2	3.6
2025-11-07T12:00	2480	749	2.2	-13.1	187	2	3.6
2025-11-07T12:00	2500	747	2.1	-13.2	186	2	3.6
2025-11-07T12:00	2520	745	1.8	-13.2	188	2	3.6
2025-11-07T12:00	2540	743	1.7	-13.3	190	2	3.6
2025-11-07T12:00	2560	742	1.5	-13.3	193	2	3.6
2025-11-07T12:00	2580	740	1.3	-13.3	196	2	3.6
2025-11-07T12:00	2600	738	1.1	-13.4	199	2	3.6
2025-11-07T12:00	2620	736	0.9	-13.4	202	3	3.5
2025-11-07T12:00	2640	734	0.7	-13.4	202	3	3.5
2025-11-07T12:00	2660	732	0.5	-13.4	201	3	3.5
2025-11-07T12:00	2680	730	0.3	-13.5	198	3	3.5
2025-11-07T12:00	2700	728	0.2	-13.5	194	3	3.5
2025-11-07T12:00	2720	727	0.1	-13.7	190	3	3.5
2025-11-07T12:00	2740	725	0.0	-14.1	187	3	3.5
2025-11-07T12:00	2760	723	0.0	-14.5	184	3	3.5
2025-11-07T12:00	2780	721	-0.1	-14.8	180	3	3.5
2025-11-07T12:00	2800	720	-0.1	-15.0	176	3	3.5
2025-11-07T12:00	2820	718	-0.2	-15.0	172	3	3.5
2025-11-07T12:00	2840	716	-0.3	-15.0	165	3	3.5
2025-11-07T12:00	2860	714	-0.4	-15.1	159	4	3.5
2025-11-07T12:00	2880	712	-0.5	-15.2	154	4	3.5
2025-11-07T12:00	2900	711	-0.6	-15.5	149	4	3.5
2025-11-07T12:00	2920	709	-0.7	-15.8	146	4	3.5
2025-11-07T12:00	2940	707	-0.5	-16.7	144	4	3.5
2025-11-07T12:00	2960	705	-0.5	-17.6	143	4	3.5
2025-11-07T12:00	2980	703	-0.3	-18.1	142	4	3.5
2025-11-07T12:00	3000	702	-0.4	-18.1	141	4	3.5
2025-11-07T12:00	3020	700	-0.5	-18.2	140	4	3.5
2025-11-07T12:00	3040	698	-0.7	-18.4	137	5	3.5
2025-11-07T12:00	3060	696	-0.8	-18.7	136	5	3.5
2025-11-07T12:00	3080	695	-0.9	-19.2	134	5	3.5
2025-11-07T12:00	3100	693	-1.0	-19.7	133	5	3.5
2025-11-07T12:00	3120	691	-1.1	-19.8	133	5	3.5
2025-11-07T12:00	3140	689	-1.2	-19.8	133	5	3.5
2025-11-07T12:00	3160	688	-1.2	-20.0	133	5	3.5
2025-11-07T12:00	3180	686	-1.3	-19.8	133	5	3.5
2025-11-07T12:00	3200	684	-1.4	-19.6	134	6	3.5
2025-11-07T12:00	3220	683	-1.5	-19.6	134	6	3.5
2025-11-07T12:00	3240	681	-1.6	-19.5	134	6	3.5
2025-11-07T12:00	3260	679	-1.7	-19.6	133	6	3.5
2025-11-07T12:00	3280	677	-1.8	-19.7	133	5	3.5
2025-11-07T12:00	3300	676	-1.9	-19.9	132	5	3.5
2025-11-07T12:00	3320	674	-2.0	-20.3	131	5	3.5
2025-11-07T12:00	3340	673	-2.0	-21.0	130	5	3.5
2025-11-07T12:00	3360	671	-2.0	-21.5	127	5	3.5
2025-11-07T12:00	3380	669	-2.1	-21.6	125	5	3.5
2025-11-07T12:00	3400	667	-2.2	-22.3	122	5	3.5
2025-11-07T12:00	3420	666	-2.2	-23.2	121	5	3.5
2025-11-07T12:00	3440	664	-2.3	-23.4	119	6	3.5
2025-11-07T12:00	3460	662	-2.4	-23.8	118	6	3.5
2025-11-07T12:00	3480	661	-2.5	-24.0	117	7	3.5
2025-11-07T12:00	3500	659	-2.5	-23.8	117	7	3.5
2025-11-07T12:00	3520	657	-2.5	-23.0	116	8	3.5
2025-11-07T12:00	3540	656	-2.5	-22.3	116	8	3.5
2025-11-07T12:00	3560	654	-2.4	-21.0	117	8	3.5
2025-11-07T12:00	3580	652	-2.3	-20.7	117	8	3.5
2025-11-07T12:00	3600	651	-2.4	-20.0	117	8	3.5
2025-11-07T12:00	3620	649	-2.2	-19.6	118	8	3.4
2025-11-07T12:00	3640	648	-2.2	-19.7	118	8	3.4
2025-11-07T12:00	3660	646	-2.3	-18.0	117	8	3.4
2025-11-07T12:00	3680	644	-2.4	-15.8	117	8	3.4
2025-11-07T12:00	3700	643	-2.5	-14.0	116	8	3.4
2025-11-07T12:00	3720	641	-2.7	-14.3	115	8	3.4
2025-11-07T12:00	3740	639	-2.8	-13.6	115	9	3.3
2025-11-07T12:00	3760	638	-3.0	-13.4	115	9	3.3
2025-11-07T12:00	3780	636	-3.2	-13.1	116	9	3.3
2025-11-07T12:00	3800	634	-3.4	-13.0	116	9	3.3
2025-11-07T12:00	3820	633	-3.6	-13.0	118	9	3.3
2025-11-07T12:00	3840	631	-3.8	-13.0	120	9	3.2
2025-11-07T12:00	3860	630	-3.9	-12.7	123	9	3.2
2025-11-07T12:00	3880	628	-4.1	-12.5	125	9	3.2
2025-11-07T12:00	3900	627	-4.2	-11.6	127	8	3.2
2025-11-07T12:00	3920	625	-4.3	-12.2	128	8	3.2
2025-11-07T12:00	3940	623	-4.4	-12.7	129	8	3.2
2025-11-07T12:00	3960	622	-4.3	-13.5	129	8	3.2
2025-11-07T12:00	3980	620	-4.4	-13.8	129	8	3.2
2025-11-07T12:00	4000	618	-4.6	-13.9	130	7	3.2
2025-11-07T12:00	4020	617	-4.6	-14.2	132	7	3.2
2025-11-07T12:00	4040	616	-4.7	-14.6	134	7	3.3
2025-11-07T12:00	4060	614	-4.8	-14.8	136	7	3.3
2025-11-07T12:00	4080	612	-4.9	-14.8	139	7	3.3
2025-11-07T12:00	4100	611	-5.1	-14.8	140	8	3.3
2025-11-07T12:00	4120	609	-5.3	-14.8	140	8	3.3
2025-11-07T12:00	4140	608	-5.4	-14.9	140	8	3.3
2025-11-07T12:00	4160	606	-5.6	-15.0	139	9	3.3
2025-11-07T12:00	4180	605	-5.9	-15.0	139	9	3.3
2025-11-07T12:00	4200	603	-6.0	-15.0	139	9	3.3
2025-11-07T12:00	4220	601	-6.2	-15.1	139	10	3.3
2025-11-07T12:00	4240	600	-6.4	-15.1	139	10	3.3
2025-11-07T12:00	4260	598	-6.6	-15.1	140	10	3.3
2025-11-07T12:00	4280	597	-6.7	-15.3	141	10	3.3
2025-11-07T12:00	4300	595	-6.9	-15.4	142	10	3.3
2025-11-07T12:00	4320	594	-7.1	-15.5	143	11	3.3
2025-11-07T12:00	4340	592	-7.2	-15.6	145	11	3.3
2025-11-07T12:00	4360	591	-7.4	-15.5	146	11	3.3
2025-11-07T12:00	4380	589	-7.6	-15.5	148	12	3.3
2025-11-07T12:00	4400	588	-7.7	-15.6	148	12	3.3
2025-11-07T12:00	4420	586	-7.9	-15.7	149	12	3.3
2025-11-07T12:00	4440	585	-8.1	-15.7	149	12	3.3
2025-11-07T12:00	4460	583	-8.2	-15.6	149	12	3.3
2025-11-07T12:00	4480	582	-8.4	-16.6	149	13	3.3
2025-11-07T12:00	4500	580	-8.4	-17.2	148	13	3.3
2025-11-07T12:00	4520	579	-8.4	-17.6	146	13	3.3
2025-11-07T12:00	4540	577	-8.6	-18.0	145	13	3.3
2025-11-07T12:00	4560	576	-8.8	-18.0	144	13	3.4
2025-11-07T12:00	4580	574	-8.9	-18.2	143	13	3.4
2025-11-07T12:00	4600	573	-9.1	-18.4	142	13	3.4
2025-11-07T12:00	4620	571	-9.2	-18.9	141	13	3.4
2025-11-07T12:00	4640	570	-9.4	-19.2	140	13	3.4
2025-11-07T12:00	4660	568	-9.5	-18.6	139	13	3.4
2025-11-07T12:00	4680	567	-9.7	-18.3	139	13	3.4
2025-11-07T12:00	4700	566	-9.9	-18.1	138	13	3.4
2025-11-07T12:00	4720	564	-10.0	-17.7	136	13	3.4
2025-11-07T12:00	4740	563	-10.2	-17.2	135	13	3.4
2025-11-07T12:00	4760	561	-10.4	-17.3	135	14	3.4
2025-11-07T12:00	4780	559	-10.6	-17.0	134	13	3.4
2025-11-07T12:00	4800	558	-10.8	-17.1	134	13	3.4
2025-11-07T12:00	4820	557	-10.9	-17.1	134	13	3.4
2025-11-07T12:00	4840	555	-11.1	-17.1	134	13	3.4
2025-11-07T12:00	4860	554	-11.2	-17.2	134	13	3.4
2025-11-07T12:00	4880	552	-11.3	-17.3	135	13	3.4
2025-11-07T12:00	4900	551	-11.5	-17.5	135	13	3.4
2025-11-07T12:00	4920	550	-11.7	-17.5	135	13	3.4
2025-11-07T12:00	4940	548	-11.9	-17.7	136	13	3.4
2025-11-07T12:00	4960	547	-12.0	-17.7	136	14	3.4
2025-11-07T12:00	4980	545	-12.2	-17.7	137	14	3.4
2025-11-07T12:00	5000	544	-12.4	-17.8	137	14	3.4
2025-11-07T12:00	5020	543	-12.6	-17.7	138	14	3.4
2025-11-07T12:00	5040	541	-12.8	-17.7	139	14	3.4
2025-11-07T12:00	5060	539	-12.9	-17.8	140	14	3.4
2025-11-07T12:00	5080	538	-13.1	-17.7	140	15	3.4
2025-11-07T12:00	5100	537	-13.4	-17.7	141	15	3.4
2025-11-07T12:00	5120	535	-13.5	-17.9	141	15	3.3
2025-11-07T12:00	5140	534	-13.6	-17.9	141	15	3.3
2025-11-07T12:00	5160	532	-13.8	-17.9	140	15	3.3
2025-11-07T12:00	5180	531	-14.1	-17.9	140	15	3.3
2025-11-07T12:00	5200	530	-14.2	-17.9	140	16	3.3
2025-11-07T12:00	5220	528	-14.3	-18.0	139	16	3.3
2025-11-07T12:00	5240	527	-14.6	-18.0	138	16	3.3
2025-11-07T12:00	5260	526	-14.8	-18.0	138	16	3.3
2025-11-07T12:00	5280	524	-15.1	-18.3	137	16	3.3
2025-11-07T12:00	5300	523	-15.1	-19.6	137	16	3.2
2025-11-07T12:00	5320	521	-15.2	-21.3	137	16	3.2
2025-11-07T12:00	5340	520	-15.3	-22.1	137	16	3.2
2025-11-07T12:00	5360	519	-15.4	-22.8	138	16	3.2
2025-11-07T12:00	5380	517	-15.5	-22.9	138	16	3.2
2025-11-07T12:00	5400	516	-15.2	-27.7	139	16	3.1
2025-11-07T12:00	5420	514	-14.9	-32.1	140	15	3.1
2025-11-07T12:00	5440	513	-14.9	-33.6	141	15	3.0
2025-11-07T12:00	5460	512	-14.9	-35.5	142	15	3.0
2025-11-07T12:00	5480	510	-15.1	-37.6	143	15	3.0
2025-11-07T12:00	5500	509	-15.2	-39.7	144	15	2.9
2025-11-07T12:00	5520	508	-15.3	-40.4	145	15	2.9
2025-11-07T12:00	5540	506	-15.4	-40.7	145	15	2.8
2025-11-07T12:00	5560	505	-15.6	-41.4	146	15	2.8
2025-11-07T12:00	5580	504	-15.7	-41.1	145	15	2.8
2025-11-07T12:00	5600	502	-15.8	-40.3	145	15	2.7
2025-11-07T12:00	5620	501	-16.0	-40.4	144	15	2.7
2025-11-07T12:00	5640	500	-16.2	-40.7	143	15	2.7
2025-11-07T12:00	5660	498	-16.4	-40.5	142	15	2.7
2025-11-07T12:00	5680	497	-16.6	-40.4	141	15	2.7
2025-11-07T12:00	5700	496	-16.8	-40.0	141	15	2.6
2025-11-07T12:00	5720	494	-16.9	-39.1	140	16	2.6
2025-11-07T12:00	5740	493	-17.1	-38.8	140	16	2.6
2025-11-07T12:00	5760	492	-17.3	-38.5	139	16	2.6
2025-11-07T12:00	5780	490	-17.5	-37.9	139	16	2.6
2025-11-07T12:00	5800	489	-17.6	-37.9	138	17	2.6
2025-11-07T12:00	5820	488	-17.8	-37.9	138	17	2.6
2025-11-07T12:00	5840	487	-18.0	-37.1	137	17	2.6
2025-11-07T12:00	5860	485	-18.0	-37.7	137	17	2.6
2025-11-07T12:00	5880	484	-18.0	-39.1	136	17	2.6
2025-11-07T12:00	5900	483	-18.1	-38.6	136	17	2.6
2025-11-07T12:00	5920	481	-18.2	-34.9	136	17	2.5
2025-11-07T12:00	5940	480	-18.3	-33.9	136	17	2.5
2025-11-07T12:00	5960	479	-18.4	-33.4	136	17	2.5
2025-11-07T12:00	5980	478	-18.5	-33.3	136	16	2.5
2025-11-07T12:00	6000	476	-18.8	-32.5	136	16	2.5
2025-11-07T12:00	6020	475	-19.0	-31.9	136	16	2.5
2025-11-07T12:00	6040	474	-19.2	-31.6	135	16	2.5
2025-11-07T12:00	6060	472	-19.3	-31.3	135	16	2.5
2025-11-07T12:00	6080	471	-19.5	-31.0	135	16	2.5
2025-11-07T12:00	6100	470	-19.8	-31.0	135	16	2.4
2025-11-07T12:00	6120	469	-19.9	-31.0	135	16	2.4
2025-11-07T12:00	6140	467	-20.1	-31.0	135	16	2.4
2025-11-07T12:00	6160	466	-20.3	-31.0	134	16	2.4
2025-11-07T12:00	6180	465	-20.5	-31.0	134	16	2.4
2025-11-07T12:00	6200	464	-20.7	-30.9	134	16	2.4
2025-11-07T12:00	6220	462	-20.9	-30.9	134	16	2.4
2025-11-07T12:00	6240	461	-21.1	-31.1	134	16	2.4
2025-11-07T12:00	6260	460	-21.3	-31.1	134	16	2.3
2025-11-07T12:00	6280	459	-21.5	-31.1	134	16	2.3
2025-11-07T12:00	6300	457	-21.7	-31.1	135	16	2.3
2025-11-07T12:00	6320	456	-21.8	-31.0	135	16	2.3
2025-11-07T12:00	6340	455	-22.0	-31.0	135	16	2.3
2025-11-07T12:00	6360	454	-22.1	-30.9	135	16	2.3
2025-11-07T12:00	6380	452	-22.4	-30.6	135	16	2.3
2025-11-07T12:00	6400	451	-22.6	-30.5	135	16	2.3
2025-11-07T12:00	6420	450	-22.8	-30.5	136	16	2.3
2025-11-07T12:00	6440	449	-23.0	-30.4	136	16	2.3
2025-11-07T12:00	6460	447	-23.1	-30.2	138	16	2.3
2025-11-07T12:00	6480	446	-23.2	-30.3	139	17	2.3
2025-11-07T12:00	6500	445	-23.4	-30.1	141	17	2.3
2025-11-07T12:00	6520	444	-23.7	-29.9	142	17	2.3
2025-11-07T12:00	6540	443	-23.8	-29.5	143	17	2.2
2025-11-07T12:00	6560	441	-23.9	-29.1	144	17	2.2
2025-11-07T12:00	6580	440	-24.0	-28.9	143	17	2.2
2025-11-07T12:00	6600	439	-24.2	-28.9	142	17	2.2
2025-11-07T12:00	6620	438	-24.4	-29.0	141	17	2.2
2025-11-07T12:00	6640	437	-24.6	-29.0	141	17	2.2
2025-11-07T12:00	6660	435	-24.7	-29.1	141	17	2.2
2025-11-07T12:00	6680	434	-24.9	-29.1	141	18	2.2
2025-11-07T12:00	6700	433	-25.0	-29.5	141	18	2.2
2025-11-07T12:00	6720	432	-25.1	-31.8	141	18	2.1
2025-11-07T12:00	6740	431	-25.2	-33.6	141	18	2.1
2025-11-07T12:00	6760	429	-25.4	-32.0	141	18	2.1
2025-11-07T12:00	6780	428	-25.4	-31.6	140	18	2.1
2025-11-07T12:00	6800	427	-25.6	-33.4	140	18	2.1
2025-11-07T12:00	6820	426	-25.8	-35.5	139	18	2.1
2025-11-07T12:00	6840	425	-25.9	-36.2	139	18	2.1
2025-11-07T12:00	6860	424	-26.0	-36.6	138	18	2.1
2025-11-07T12:00	6880	422	-26.2	-37.0	137	18	2.2
2025-11-07T12:00	6900	421	-26.5	-37.3	136	18	2.2
2025-11-07T12:00	6920	420	-26.5	-37.5	136	18	2.2
2025-11-07T12:00	6940	419	-26.8	-37.5	136	18	2.2
2025-11-07T12:00	6960	418	-27.0	-37.8	136	18	2.2
2025-11-07T12:00	6980	417	-27.1	-38.2	136	18	2.2
2025-11-07T12:00	7000	415	-27.3	-38.7	136	18	2.2
2025-11-07T12:00	7020	414	-27.5	-39.4	137	19	2.2
2025-11-07T12:00	7040	413	-27.5	-39.4	138	19	2.2
2025-11-07T12:00	7060	412	-27.6	-39.5	139	19	2.2
2025-11-07T12:00	7080	411	-27.7	-40.4	139	19	2.2
2025-11-07T12:00	7100	410	-27.9	-41.0	140	19	2.2
2025-11-07T12:00	7120	409	-28.0	-40.1	141	19	2.2
2025-11-07T12:00	7140	407	-28.2	-39.1	142	19	2.2
2025-11-07T12:00	7160	406	-28.4	-38.1	142	19	2.2
2025-11-07T12:00	7180	405	-28.6	-38.1	142	19	2.1
2025-11-07T12:00	7200	404	-28.7	-38.1	142	19	2.1
2025-11-07T12:00	7220	403	-28.9	-38.4	142	19	2.1
2025-11-07T12:00	7240	402	-29.1	-38.4	142	18	2.1
2025-11-07T12:00	7260	401	-29.2	-38.4	141	18	2.1
2025-11-07T12:00	7280	400	-29.4	-38.9	140	18	2.1
2025-11-07T12:00	7300	398	-29.6	-39.0	140	18	2.1
2025-11-07T12:00	7320	397	-29.7	-39.7	139	19	2.0
2025-11-07T12:00	7340	396	-29.8	-41.5	138	19	2.0
2025-11-07T12:00	7360	395	-30.0	-42.2	138	19	2.0
2025-11-07T12:00	7380	394	-30.2	-41.9	138	19	2.0
2025-11-07T12:00	7400	393	-30.5	-39.9	138	18	2.0
2025-11-07T12:00	7420	392	-30.6	-38.8	138	18	2.0
2025-11-07T12:00	7440	391	-30.8	-38.1	139	19	2.0
2025-11-07T12:00	7460	390	-30.9	-35.4	140	19	2.0
2025-11-07T12:00	7480	388	-31.2	-36.6	140	19	2.0
2025-11-07T12:00	7500	387	-31.3	-40.3	141	19	2.0
2025-11-07T12:00	7520	386	-31.6	-36.5	141	19	2.0
2025-11-07T12:00	7540	385	-31.8	-36.1	140	19	1.9
2025-11-07T12:00	7560	384	-32.0	-36.3	140	19	1.9
2025-11-07T12:00	7580	383	-32.1	-36.7	139	18	1.9
2025-11-07T12:00	7600	382	-32.3	-37.1	138	18	1.9
2025-11-07T12:00	7620	381	-32.4	-35.9	137	18	1.9
2025-11-07T12:00	7640	380	-32.4	-35.2	136	18	1.9
2025-11-07T12:00	7660	379	-32.6	-35.7	135	17	1.9
2025-11-07T12:00	7680	378	-32.8	-35.9	134	17	1.9
2025-11-07T12:00	7700	377	-32.9	-36.3	134	17	1.9
2025-11-07T12:00	7720	376	-33.0	-36.5	133	17	1.9
2025-11-07T12:00	7740	374	-33.1	-36.6	133	16	1.9
2025-11-07T12:00	7760	373	-33.3	-37.7	135	16	1.9
2025-11-07T12:00	7780	372	-33.4	-37.8	137	16	1.9
2025-11-07T12:00	7800	371	-33.5	-37.6	139	16	2.0
2025-11-07T12:00	7820	370	-33.7	-38.0	141	16	1.9
2025-11-07T12:00	7840	369	-33.9	-38.2	143	16	1.9
2025-11-07T12:00	7860	368	-34.0	-38.3	144	16	1.9
2025-11-07T12:00	7880	367	-34.1	-38.4	145	16	1.9
2025-11-07T12:00	7900	366	-34.2	-38.3	147	16	1.9
2025-11-07T12:00	7920	365	-34.4	-38.2	148	17	1.9
2025-11-07T12:00	7940	364	-34.6	-38.5	149	17	1.9
2025-11-07T12:00	7960	363	-34.6	-39.0	149	17	1.9
2025-11-07T12:00	7980	362	-34.8	-38.9	149	17	1.9
2025-11-07T12:00	8000	361	-35.0	-39.3	149	17	1.8
2025-11-07T12:00	8020	360	-35.1	-39.5	149	18	1.8
2025-11-07T12:00	8040	359	-35.3	-39.2	149	18	1.8
2025-11-07T12:00	8060	358	-35.4	-39.7	149	18	1.8
2025-11-07T12:00	8080	357	-35.7	-39.8	149	18	1.8
2025-11-07T12:00	8100	356	-35.9	-40.2	149	19	1.8
2025-11-07T12:00	8120	355	-36.0	-40.5	149	19	1.8
2025-11-07T12:00	8140	354	-36.1	-41.0	150	19	1.8
2025-11-07T12:00	8160	352	-36.3	-41.3	150	19	1.8
2025-11-07T12:00	8180	351	-36.5	-41.4	150	19	1.7
2025-11-07T12:00	8200	351	-36.6	-41.8	151	20	1.7
2025-11-07T12:00	8220	349	-36.8	-42.4	152	20	1.7
2025-11-07T12:00	8240	348	-37.0	-43.0	152	20	1.7
2025-11-07T12:00	8260	348	-37.1	-43.5	152	20	1.7
2025-11-07T12:00	8280	346	-37.2	-43.5	153	20	1.7
2025-11-07T12:00	8300	345	-37.5	-43.2	153	20	1.7
2025-11-07T12:00	8320	344	-37.7	-43.2	153	20	1.7
2025-11-07T12:00	8340	343	-37.8	-43.4	153	20	1.7
2025-11-07T12:00	8360	342	-38.0	-43.4	153	20	1.7
2025-11-07T12:00	8380	341	-38.2	-43.3	152	20	1.7
2025-11-07T12:00	8400	340	-38.4	-43.4	152	20	1.7
2025-11-07T12:00	8420	339	-38.6	-43.5	152	20	1.7
2025-11-07T12:00	8440	338	-38.8	-43.6	151	20	1.7
2025-11-07T12:00	8460	337	-39.0	-43.7	151	21	1.7
2025-11-07T12:00	8480	337	-39.2	-43.8	151	21	1.7
2025-11-07T12:00	8500	335	-39.4	-43.5	151	21	1.7
2025-11-07T12:00	8520	335	-39.5	-43.7	152	21	1.7
2025-11-07T12:00	8540	334	-39.8	-43.8	152	21	1.7
2025-11-07T12:00	8560	333	-39.9	-43.8	153	22	1.6
2025-11-07T12:00	8580	332	-40.1	-43.8	154	22	1.6
2025-11-07T12:00	8600	331	-40.2	-44.0	155	22	1.6
2025-11-07T12:00	8620	330	-40.4	-44.4	155	22	1.6
2025-11-07T12:00	8640	329	-40.5	-44.5	156	22	1.6
2025-11-07T12:00	8660	328	-40.6	-44.6	156	22	1.6
2025-11-07T12:00	8680	327	-40.7	-45.5	155	22	1.6
2025-11-07T12:00	8700	326	-40.8	-47.1	155	22	1.6
2025-11-07T12:00	8720	325	-41.0	-48.0	155	22	1.6
2025-11-07T12:00	8740	324	-41.1	-48.1	155	22	1.6
2025-11-07T12:00	8760	323	-41.2	-48.9	154	22	1.5
2025-11-07T12:00	8780	322	-41.3	-49.8	153	22	1.5
2025-11-07T12:00	8800	321	-41.4	-49.6	152	22	1.5
2025-11-07T12:00	8820	320	-41.6	-49.7	152	21	1.5
2025-11-07T12:00	8840	319	-41.8	-50.3	151	21	1.5
2025-11-07T12:00	8860	318	-42.0	-50.7	150	21	1.5
2025-11-07T12:00	8880	317	-42.1	-50.8	150	21	1.5
2025-11-07T12:00	8900	316	-42.3	-51.1	150	21	1.5
2025-11-07T12:00	8920	315	-42.4	-51.8	150	22	1.5
2025-11-07T12:00	8940	314	-42.6	-52.1	150	22	1.5
2025-11-07T12:00	8960	313	-42.8	-51.9	150	22	1.5
2025-11-07T12:00	8980	313	-43.0	-52.0	150	22	1.4
2025-11-07T12:00	9000	312	-43.1	-52.2	150	23	1.4
2025-11-07T12:00	9020	311	-43.3	-52.4	150	23	1.4
2025-11-07T12:00	9040	310	-43.5	-52.5	150	23	1.4
2025-11-07T12:00	9060	309	-43.6	-52.5	150	23	1.4
2025-11-07T12:00	9080	308	-43.8	-52.6	150	23	1.4
2025-11-07T12:00	9100	307	-44.1	-52.4	150	23	1.4
2025-11-07T12:00	9120	306	-44.3	-52.9	150	22	1.4
2025-11-07T12:00	9140	305	-44.4	-53.4	149	22	1.4
2025-11-07T12:00	9160	304	-44.6	-53.3	149	22	1.4
2025-11-07T12:00	9180	304	-44.8	-53.4	149	22	1.4
2025-11-07T12:00	9200	303	-44.9	-53.7	150	23	1.4
2025-11-07T12:00	9220	302	-45.1	-53.7	150	23	1.4
2025-11-07T12:00	9240	301	-45.3	-53.7	149	23	1.3
2025-11-07T12:00	9260	300	-45.5	-54.0	149	23	1.3
2025-11-07T12:00	9280	299	-45.6	-54.8	149	24	1.4
2025-11-07T12:00	9300	298	-45.8	-55.3	148	24	1.4
2025-11-07T12:00	9320	297	-45.9	-55.3	148	24	1.4
2025-11-07T12:00	9340	296	-46.1	-55.0	147	24	1.4
2025-11-07T12:00	9360	295	-46.3	-54.7	147	24	1.4
2025-11-07T12:00	9380	294	-46.5	-54.5	146	24	1.4
2025-11-07T12:00	9400	294	-46.6	-54.4	146	24	1.4
2025-11-07T12:00	9420	293	-46.7	-54.1	145	24	1.4
2025-11-07T12:00	9440	292	-47.0	-53.4	145	24	1.4
2025-11-07T12:00	9460	291	-47.2	-52.8	145	24	1.3
2025-11-07T12:00	9480	290	-47.3	-52.2	146	24	1.3
2025-11-07T12:00	9500	289	-47.5	-51.7	146	24	1.4
2025-11-07T12:00	9520	288	-47.7	-52.5	146	24	1.4
2025-11-07T12:00	9540	287	-47.8	-53.5	147	24	1.3
2025-11-07T12:00	9560	287	-47.9	-53.2	147	24	1.4
2025-11-07T12:00	9580	286	-48.1	-52.3	147	24	1.4
2025-11-07T12:00	9600	285	-48.4	-52.1	147	24	1.4
2025-11-07T12:00	9620	284	-48.5	-52.3	147	24	1.4
2025-11-07T12:00	9640	283	-48.7	-52.5	147	25	1.4
2025-11-07T12:00	9660	282	-48.8	-52.9	147	25	1.4
2025-11-07T12:00	9680	281	-49.1	-53.3	146	25	1.4
2025-11-07T12:00	9700	281	-49.3	-53.5	146	25	1.4
2025-11-07T12:00	9720	280	-49.4	-53.3	146	26	1.4
2025-11-07T12:00	9740	279	-49.6	-53.2	146	26	1.4
2025-11-07T12:00	9760	278	-49.8	-53.3	146	26	1.4
2025-11-07T12:00	9780	277	-49.9	-53.4	146	26	1.4
2025-11-07T12:00	9800	276	-50.1	-53.6	147	26	1.4
2025-11-07T12:00	9820	275	-50.2	-53.8	147	26	1.4
2025-11-07T12:00	9840	275	-50.5	-53.7	148	26	1.3
2025-11-07T12:00	9860	274	-50.6	-53.8	148	26	1.3
2025-11-07T12:00	9880	273	-50.8	-54.2	147	26	1.3
2025-11-07T12:00	9900	272	-51.0	-54.6	146	26	1.3
2025-11-07T12:00	9920	271	-51.1	-54.9	146	26	1.3
2025-11-07T12:00	9940	270	-51.3	-55.2	145	27	1.3
2025-11-07T12:00	9960	270	-51.5	-55.5	144	27	1.3
2025-11-07T12:00	9980	269	-51.6	-55.6	144	27	1.3
2025-11-07T12:00	10000	268	-51.8	-55.8	144	27	1.3
2025-11-07T12:00	10018	267	-52.0	-55.9	144	27	1.3
2025-11-07T12:00	10050	266	-52.2	-56.2	144	27	1.3
2025-11-07T12:00	10100	264	-52.6	-56.7	144	27	1.3
2025-11-07T12:00	10150	262	-53.0	-57.3	145	27	1.2
2025-11-07T12:00	10200	260	-53.4	-57.6	145	27	1.2
2025-11-07T12:00	10250	258	-54.0	-57.7	145	27	1.2
2025-11-07T12:00	10300	256	-54.5	-57.8	145	27	1.2
2025-11-07T12:00	10350	254	-54.8	-58.7	144	28	1.2
2025-11-07T12:00	10400	252	-55.3	-59.0	144	28	1.1
2025-11-07T12:00	10450	250	-55.7	-59.4	142	27	1.1
2025-11-07T12:00	10500	248	-56.0	-59.5	141	27	1.1
2025-11-07T12:00	10550	246	-56.2	-59.8	140	27	1.2
2025-11-07T12:00	10600	244	-56.5	-60.4	139	28	1.2
2025-11-07T12:00	10650	242	-56.5	-60.9	139	29	1.3
2025-11-07T12:00	10700	240	-56.7	-61.1	139	29	1.3
2025-11-07T12:00	10750	238	-57.0	-61.4	140	30	1.3
2025-11-07T12:00	10800	236	-57.3	-61.7	141	30	1.3
2025-11-07T12:00	10850	235	-57.5	-62.3	143	30	1.3
2025-11-07T12:00	10900	233	-57.6	-63.0	144	30	1.3
2025-11-07T12:00	10950	231	-57.7	-63.2	145	31	1.3
2025-11-07T12:00	11000	229	-57.3	-62.6	145	32	1.3
2025-11-07T12:00	11050	227	-57.2	-64.4	145	32	1.4
2025-11-07T12:00	11100	225	-57.3	-66.0	147	30	1.5
2025-11-07T12:00	11150	224	-57.2	-65.5	149	29	1.6
2025-11-07T12:00	11200	222	-57.1	-66.1	152	28	1.6
2025-11-07T12:00	11250	220	-56.7	-67.4	154	26	1.7
2025-11-07T12:00	11300	218	-56.4	-69.9	156	25	1.9
2025-11-07T12:00	11350	217	-56.1	-73.3	157	23	2.3
2025-11-07T12:00	11400	215	-55.9	-76.3	157	21	3.0
2025-11-07T12:00	11450	213	-55.5	-78.7	158	20	3.5
2025-11-07T12:00	11500	212	-54.4	-80.0	159	19	4.0
2025-11-07T12:00	11550	210	-54.3	-79.1	161	19	4.4
2025-11-07T12:00	11600	208	-54.8	-78.3	163	18	4.6
2025-11-07T12:00	11650	207	-55.3	-77.6	165	17	4.7
2025-11-07T12:00	11700	205	-55.6	-77.4	166	15	4.6
2025-11-07T12:00	11750	204	-55.9	-77.6	164	14	4.4
2025-11-07T12:00	11800	202	-56.3	-77.8	161	13	4.3
2025-11-07T12:00	11850	200	-56.6	-78.1	157	11	4.2
2025-11-07T12:00	11900	199	-56.8	-78.4	155	11	4.2
2025-11-07T12:00	11950	197	-56.8	-78.8	156	13	4.3
2025-11-07T12:00	12000	196	-56.6	-78.8	156	15	4.4
2025-11-07T12:00	12050	194	-56.6	-78.8	155	15	4.4
2025-11-07T12:00	12100	193	-56.3	-79.0	153	15	4.3
2025-11-07T12:00	12150	191	-56.1	-79.3	152	13	4.4
2025-11-07T12:00	12200	190	-55.8	-79.4	153	11	4.4
2025-11-07T12:00	12250	188	-55.5	-79.6	152	10	4.3
2025-11-07T12:00	12300	187	-55.5	-79.7	147	10	4.4
2025-11-07T12:00	12350	185	-55.7	-79.8	137	10	4.4
2025-11-07T12:00	12400	184	-55.6	-79.9	132	11	4.4
2025-11-07T12:00	12450	182	-55.8	-80.0	132	12	4.4
2025-11-07T12:00	12500	181	-56.3	-80.1	136	13	4.4
2025-11-07T12:00	12550	179	-56.6	-80.3	138	14	4.5
2025-11-07T12:00	12600	178	-56.7	-80.4	139	16	4.5
2025-11-07T12:00	12650	177	-56.8	-80.7	143	16	4.8
2025-11-07T12:00	12700	175	-56.8	-80.7	145	16	5.0
2025-11-07T12:00	12750	174	-57.0	-80.8	145	16	5.0
2025-11-07T12:00	12800	172	-57.0	-80.9	144	16	4.9
2025-11-07T12:00	12850	171	-56.8	-80.9	142	16	4.7
2025-11-07T12:00	12900	170	-56.9	-81.0	140	16	4.6
2025-11-07T12:00	12950	168	-56.9	-81.1	136	16	4.3
2025-11-07T12:00	13000	167	-57.0	-81.3	132	16	4.2
2025-11-07T12:00	13050	166	-56.8	-81.2	128	15	4.1
2025-11-07T12:00	13100	164	-56.4	-81.3	126	15	4.0
2025-11-07T12:00	13150	163	-56.4	-81.5	125	15	3.9
2025-11-07T12:00	13200	162	-56.3	-81.4	126	15	3.9
2025-11-07T12:00	13250	161	-56.6	-81.4	126	16	3.9
2025-11-07T12:00	13300	159	-57.0	-81.6	126	16	3.9
2025-11-07T12:00	13350	158	-57.1	-81.7	127	18	4.0
2025-11-07T12:00	13400	157	-57.2	-81.8	130	19	4.0
2025-11-07T12:00	13450	156	-57.2	-81.9	133	20	4.1
2025-11-07T12:00	13500	154	-57.1	-81.9	136	20	4.1
2025-11-07T12:00	13550	153	-57.4	-82.0	139	20	4.0
2025-11-07T12:00	13600	152	-57.7	-82.1	142	19	3.9
2025-11-07T12:00	13650	151	-57.8	-82.2	145	18	3.8
2025-11-07T12:00	13700	150	-57.9	-82.3	148	17	3.8
2025-11-07T12:00	13750	148	-58.0	-82.6	152	15	4.1
2025-11-07T12:00	13800	147	-57.2	-82.5	156	13	4.1
2025-11-07T12:00	13850	146	-56.2	-82.7	159	11	4.1
2025-11-07T12:00	13900	145	-55.1	-82.4	160	11	4.2
2025-11-07T12:00	13950	144	-55.2	-82.4	159	11	4.0
2025-11-07T12:00	14000	143	-55.7	-82.4	158	11	3.9
2025-11-07T12:00	14050	142	-56.1	-82.4	157	11	3.9
2025-11-07T12:00	14100	140	-56.5	-82.4	156	11	3.7
2025-11-07T12:00	14150	139	-56.7	-82.5	155	11	3.7
2025-11-07T12:00	14200	138	-56.9	-82.7	157	12	3.5
2025-11-07T12:00	14250	137	-57.2	-82.7	160	12	3.4
2025-11-07T12:00	14300	136	-57.5	-82.8	160	12	3.4
2025-11-07T12:00	14350	135	-57.9	-82.9	161	12	3.3
2025-11-07T12:00	14400	134	-58.2	-83.0	165	12	3.3
2025-11-07T12:00	14450	133	-58.4	-83.1	169	11	3.3
2025-11-07T12:00	14500	132	-58.5	-83.1	173	10	3.2
2025-11-07T12:00	14550	131	-58.6	-83.1	177	8	3.2
2025-11-07T12:00	14600	130	-58.7	-83.1	182	7	3.2
2025-11-07T12:00	14650	129	-59.1	-83.2	187	6	3.2
2025-11-07T12:00	14700	128	-59.5	-83.2	191	4	3.2
2025-11-07T12:00	14750	127	-60.0	-83.4	190	3	3.2
2025-11-07T12:00	14800	126	-60.2	-83.3	185	2	3.1
2025-11-07T12:00	14850	125	-60.5	-83.6	180	2	3.1
2025-11-07T12:00	14900	124	-60.4	-83.8	188	3	3.2
2025-11-07T12:00	14950	123	-60.0	-83.7	196	4	3.1
2025-11-07T12:00	15000	122	-60.2	-83.7	201	5	3.1
2025-11-07T12:00	15050	121	-60.4	-83.8	203	7	3.1
2025-11-07T12:00	15100	120	-60.8	-83.9	206	9	3.0
2025-11-07T12:00	15150	119	-60.7	-83.8	213	9	3.0
2025-11-07T12:00	15200	118	-60.7	-83.8	221	9	2.9
2025-11-07T12:00	15250	117	-61.0	-83.9	225	8	2.9
2025-11-07T12:00	15300	116	-61.2	-83.9	222	7	2.8
2025-11-07T12:00	15350	115	-61.3	-84.0	211	5	2.8
2025-11-07T12:00	15400	114	-61.4	-83.9	201	5	2.7
2025-11-07T12:00	15450	113	-61.8	-84.1	197	4	2.8
2025-11-07T12:00	15500	112	-62.2	-84.1	199	4	2.8
2025-11-07T12:00	15550	111	-62.6	-84.3	213	3	2.8
2025-11-07T12:00	15600	111	-62.4	-84.3	245	2	2.7
2025-11-07T12:00	15650	110	-61.8	-84.2	272	2	2.8
2025-11-07T12:00	15700	109	-62.0	-84.2	295	2	2.8
2025-11-07T12:00	15750	108	-62.4	-84.3	337	2	2.9
2025-11-07T12:00	15800	107	-62.6	-84.2	27	3	2.9
2025-11-07T12:00	15850	106	-63.1	-84.4	59	4	2.9
2025-11-07T12:00	15900	105	-63.5	-84.5	80	5	2.9
2025-11-07T12:00	15950	104	-63.6	-84.6	94	6	2.9
2025-11-07T12:00	16000	104	-63.3	-84.8	104	6	2.8
2025-11-07T12:00	16050	103	-62.0	-84.6	115	7	2.8
2025-11-07T12:00	16100	102	-61.2	-84.4	128	7	2.8
2025-11-07T12:00	16150	101	-61.6	-84.5	139	7	2.9
2025-11-07T12:00	16200	100	-62.0	-84.4	144	8	2.9
2025-11-07T12:00	16250	99	-62.3	-84.4	148	8	2.9
2025-11-07T12:00	16300	99	-62.6	-84.5	155	9	2.9
2025-11-07T12:00	16350	98	-62.9	-84.6	163	9	2.9
2025-11-07T12:00	16400	97	-62.9	-84.7	171	9	3.0
2025-11-07T12:00	16450	96	-62.9	-84.7	180	9	3.0
2025-11-07T12:00	16500	96	-62.7	-84.7	185	9	3.1
2025-11-07T12:00	16550	95	-62.7	-84.8	187	8	3.1
2025-11-07T12:00	16600	94	-62.8	-84.9	190	7	3.2
2025-11-07T12:00	16650	93	-62.8	-85.0	199	6	3.4
2025-11-07T12:00	16700	92	-62.7	-84.9	212	6	3.6
2025-11-07T12:00	16750	92	-63.1	-85.2	225	6	3.7
2025-11-07T12:00	16800	91	-62.8	-85.0	232	6	3.7
2025-11-07T12:00	16850	90	-62.9	-85.1	233	5	3.8
2025-11-07T12:00	16900	89	-63.3	-85.2	236	5	3.8
2025-11-07T12:00	16950	89	-63.5	-85.3	249	4	3.9
2025-11-07T12:00	17000	88	-63.5	-85.5	262	5	3.8
2025-11-07T12:00	17050	87	-63.1	-85.4	266	5	4.0
2025-11-07T12:00	17100	87	-63.2	-85.5	265	6	4.2
2025-11-07T12:00	17150	86	-63.3	-85.6	260	6	4.2
2025-11-07T12:00	17200	85	-63.6	-85.8	250	5	4.2
2025-11-07T12:00	17250	85	-63.4	-85.6	239	4	4.4
2025-11-07T12:00	17300	84	-63.7	-85.8	242	4	4.5
2025-11-07T12:00	17350	83	-63.7	-86.0	265	3	4.6
2025-11-07T12:00	17400	82	-63.3	-86.1	296	3	5.0
2025-11-07T12:00	17450	82	-63.0	-86.1	312	3	5.8
2025-11-07T12:00	17500	81	-63.2	-86.1	313	3	6.3
2025-11-07T12:00	17550	81	-63.7	-86.2	322	2	6.5
2025-11-07T12:00	17600	80	-64.1	-86.3	333	1	6.7
2025-11-07T12:00	17650	79	-64.1	-86.4	339	1	6.8
2025-11-07T12:00	17700	79	-64.1	-86.6	187	0	7.0
2025-11-07T12:00	17750	78	-63.6	-86.7	147	1	6.8
2025-11-07T12:00	17800	77	-62.9	-86.7	104	1	7.3
2025-11-07T12:00	17850	77	-62.3	-86.7	95	1	8.1
2025-11-07T12:00	17900	76	-62.0	-86.6	112	1	9.0
2025-11-07T12:00	17950	75	-61.8	-86.4	144	1	9.4
2025-11-07T12:00	18000	75	-62.0	-86.5	203	1	9.7
2025-11-07T12:00	18050	74	-61.9	-86.4	222	1	10.0
2025-11-07T12:00	18100	74	-61.9	-86.4	229	2	10.0
2025-11-07T12:00	18150	73	-62.2	-86.5	236	3	10.0
2025-11-07T12:00	18200	72	-62.5	-86.6	249	4	9.8
2025-11-07T12:00	18250	72	-62.5	-86.6	261	5	9.9
2025-11-07T12:00	18300	71	-62.4	-86.7	270	5	9.6
2025-11-07T12:00	18350	71	-62.4	-86.6	280	5	9.8
2025-11-07T12:00	18400	70	-62.6	-86.7	291	4	9.9
2025-11-07T12:00	18450	70	-62.9	-86.8	299	4	9.8
2025-11-07T12:00	18500	69	-63.2	-86.8	309	4	10.0
2025-11-07T12:00	18550	68	-63.5	-87.0	319	4	9.9
2025-11-07T12:00	18600	68	-63.4	-87.0	316	4	9.7
2025-11-07T12:00	18650	67	-63.5	-87.1	303	4	9.5
2025-11-07T12:00	18700	67	-63.6	-87.1	287	3	9.4
2025-11-07T12:00	18750	66	-63.8	-87.2	280	3	9.3
2025-11-07T12:00	18800	66	-63.9	-87.2	293	3	9.3
2025-11-07T12:00	18850	65	-64.0	-87.2	304	3	9.2
2025-11-07T12:00	18900	65	-64.2	-87.3	301	2	9.1
2025-11-07T12:00	18950	64	-64.3	-87.4	294	2	9.1
2025-11-07T12:00	19000	64	-64.4	-87.5	300	1	9.1
2025-11-07T12:00	19050	63	-64.2	-87.6	311	1	9.1
2025-11-07T12:00	19100	63	-63.8	-87.5	286	1	9.0
2025-11-07T12:00	19150	62	-63.8	-87.5	288	1	9.0
2025-11-07T12:00	19200	62	-64.0	-87.5	298	2	8.8
2025-11-07T12:00	19250	61	-63.9	-87.4	315	2	8.7
2025-11-07T12:00	19300	61	-64.1	-87.5	332	2	8.8
2025-11-07T12:00	19350	60	-64.3	-87.7	326	2	8.8
2025-11-07T12:00	19400	60	-63.9	-87.7	289	2	8.8
2025-11-07T12:00	19450	59	-63.7	-87.6	273	2	9.0
2025-11-07T12:00	19500	59	-63.9	-87.7	279	3	9.0
2025-11-07T12:00	19550	58	-63.9	-87.5	284	4	9.1
2025-11-07T12:00	19600	58	-64.2	-87.5	282	4	9.4
2025-11-07T12:00	19650	57	-64.4	-87.5	280	4	9.6
2025-11-07T12:00	19700	57	-64.7	-87.6	278	4	9.8
2025-11-07T12:00	19750	56	-64.8	-87.8	274	4	9.9
2025-11-07T12:00	19800	56	-64.8	-87.8	273	3	10.0
2025-11-07T12:00	19850	55	-64.8	-87.9	280	2	10.1
2025-11-07T12:00	19900	55	-64.7	-88.0	288	2	10.3
2025-11-07T12:00	19950	54	-64.0	-87.9	290	4	10.4
2025-11-07T12:00	20000	54	-63.3	-87.7	297	5	10.5
2025-11-07T12:00	20050	54	-63.4		307	5	10.8
2025-11-07T12:00	20100	53	-63.8		319	6	10.9
2025-11-07T12:00	20150	53	-64.2		331	6	11.0
2025-11-07T12:00	20200	52	-64.5		339	5	11.0
2025-11-07T12:00	20250	52	-64.6		339	4	11.1
2025-11-07T12:00	20300	51	-64.6		329	3	11.2
2025-11-07T12:00	20350	51	-64.5		313	2	11.3
2025-11-07T12:00	20400	51	-64.5		282	2	11.3
2025-11-07T12:00	20450	50	-64.4		251	2	11.4
2025-11-07T12:00	20500	50	-64.5		232	2	11.5
2025-11-07T12:00	20550	49	-64.2		212	2	11.5
2025-11-07T12:00	20600	49	-64.3		206	3	11.5
2025-11-07T12:00	20650	49	-63.9		213	3	11.5
2025-11-07T12:00	20700	48	-64.0		223	4	11.6
2025-11-07T12:00	20750	48	-64.1		234	6	11.6
2025-11-07T12:00	20800	47	-64.1		246	7	11.7
2025-11-07T12:00	20850	47	-64.0		258	7	11.7
2025-11-07T12:00	20900	47	-64.1		267	8	11.8
2025-11-07T12:00	20950	46	-64.4		273	8	11.8
2025-11-07T12:00	21000	46	-64.8		275	8	11.8
2025-11-07T12:00	21050	45	-64.9		270	7	11.8
2025-11-07T12:00	21100	45	-64.8		260	6	11.7
2025-11-07T12:00	21150	45	-65.0		250	6	11.8
2025-11-07T12:00	21200	44	-65.3		241	6	11.8
2025-11-07T12:00	21250	44	-65.3		233	6	11.9
2025-11-07T12:00	21300	44	-65.4		231	7	11.9
2025-11-07T12:00	21350	43	-65.5		235	7	11.9
2025-11-07T12:00	21400	43	-65.5		243	8	11.9
2025-11-07T12:00	21450	43	-65.3		252	8	11.9
2025-11-07T12:00	21500	42	-65.5		263	8	12.0
2025-11-07T12:00	21550	42	-65.8		271	9	11.9
2025-11-07T12:00	21600	42	-66.0		277	9	11.8
2025-11-07T12:00	21650	41	-66.0		282	9	11.7
2025-11-07T12:00	21700	41	-66.0		287	8	11.6
2025-11-07T12:00	21750	41	-66.2		290	7	11.5
2025-11-07T12:00	21800	40	-66.4		293	6	11.5
2025-11-07T12:00	21850	40	-66.6		295	6	11.4
2025-11-07T12:00	21900	40	-66.6		296	5	11.3
2025-11-07T12:00	21950	39	-66.4		295	4	11.2
2025-11-07T12:00	22000	39	-66.3		287	3	11.2
2025-11-07T12:00	22050	39	-66.4		266	2	11.2
2025-11-07T12:00	22100	38	-66.6		236	2	11.1
2025-11-07T12:00	22150	38	-66.4		225	3	11.1
2025-11-07T12:00	22200	38	-66.3		219	3	11.1
2025-11-07T12:00	22250	37	-66.3		210	3	11.2
2025-11-07T12:00	22300	37	-66.1		200	4	11.2
2025-11-07T12:00	22350	37	-65.9		201	4	11.2
2025-11-07T12:00	22400	36	-65.8		210	4	11.2
2025-11-07T12:00	22450	36	-65.9		217	4	11.2
2025-11-07T12:00	22500	36	-65.9		219	4	11.2
2025-11-07T12:00	22550	36	-65.9		218	4	11.2
2025-11-07T12:00	22600	35	-65.6		219	4	11.2
2025-11-07T12:00	22650	35	-65.4		223	4	11.3
2025-11-07T12:00	22700	35	-65.3		235	3	11.3
2025-11-07T12:00	22750	34	-65.3		256	2	11.3
2025-11-07T12:00	22800	34	-65.6		278	2	11.3
2025-11-07T12:00	22850	34	-65.9		287	2	11.3
2025-11-07T12:00	22900	34	-65.9		288	3	11.3
2025-11-07T12:00	22950	33	-65.9		291	2	11.2
2025-11-07T12:00	23000	33	-65.7		292	2	11.3
2025-11-07T12:00	23050	33	-65.6		279	3	11.4
2025-11-07T12:00	23100	32	-65.6		268	4	11.5
2025-11-07T12:00	23150	32	-65.8		262	4	11.6
2025-11-07T12:00	23200	32	-65.9		260	4	11.5
2025-11-07T12:00	23250	32	-66.1		267	4	11.4
2025-11-07T12:00	23300	31	-66.2		284	4	11.4
2025-11-07T12:00	23350	31	-66.0		300	4	11.3
2025-11-07T12:00	23400	31	-65.8		303	4	11.3
2025-11-07T12:00	23450	31	-65.5		296	3	11.4
2025-11-07T12:00	23500	30	-65.3		281	3	11.6
2025-11-07T12:00	23550	30	-64.5		266	5	11.6
2025-11-07T12:00	23600	30	-64.6		256	6	11.7
2025-11-07T12:00	23650	30	-64.5		251	7	11.8
2025-11-07T12:00	23700	29	-64.6		253	8	11.8
2025-11-07T12:00	23750	29	-64.1		260	9	12.4
2025-11-07T12:00	23800	29	-64.0		267	9	12.8
2025-11-07T12:00	23850	29	-64.2		273	10	12.6
2025-11-07T12:00	23900	28	-64.6		279	11	12.4
2025-11-07T12:00	23950	28	-64.5		284	12	12.3
2025-11-07T12:00	24000	28	-64.5		286	12	12.3
2025-11-07T12:00	24050	28	-64.2		285	12	12.4
2025-11-07T12:00	24100	28	-63.8		286	12	12.4
2025-11-07T12:00	24150	27	-63.8		288	12	12.5
2025-11-07T12:00	24200	27	-63.6		289	12	12.5
2025-11-07T12:00	24250	27	-63.6		290	13	12.5
2025-11-07T12:00	24300	27	-63.7		290	12	12.5
2025-11-07T12:00	24350	26	-63.9		291	12	12.5
2025-11-07T12:00	24400	26	-64.3		294	11	12.5
2025-11-07T12:00	24450	26	-64.5		298	10	12.5
2025-11-07T12:00	24500	26	-64.7		302	10	12.4
2025-11-07T12:00	24550	26	-65.1		307	11	12.4
2025-11-07T12:00	24600	25	-65.4		312	11	12.3
2025-11-07T12:00	24650	25	-65.7		316	10	12.2
2025-11-07T12:00	24700	25	-65.9		318	10	12.2
2025-11-07T12:00	24750	25	-65.6		314	9	12.2
2025-11-07T12:00	24800	25	-65.7		307	9	12.2
2025-11-07T12:00	24850	24	-65.8		297	8	12.1
2025-11-07T12:00	24900	24	-65.8		285	8	12.2
2025-11-07T12:00	24950	24	-65.8		277	9	12.2
2025-11-07T12:00	25000	24	-65.9		273	11	12.1
2025-11-07T12:00	25050	24	-65.8		272	12	12.1
2025-11-07T12:00	25100	23	-66.0		272	13	12.0
2025-11-07T12:00	25150	23	-66.1		276	12	12.0
2025-11-07T12:00	25200	23	-65.4		282	12	12.0
2025-11-07T12:00	25250	23	-65.1		285	11	12.0
2025-11-07T12:00	25300	23	-65.2		284	11	12.1
2025-11-07T12:00	25350	22	-65.1		281	11	12.1
2025-11-07T12:00	25400	22	-64.9		276	11	12.1
2025-11-07T12:00	25450	22	-64.8		270	12	12.0
2025-11-07T12:00	25500	22	-64.2		263	12	12.1
2025-11-07T12:00	25550	22	-64.2		258	12	12.1
2025-11-07T12:00	25600	22	-64.6		254	12	12.1
2025-11-07T12:00	25650	21	-64.9		251	12	12.1
2025-11-07T12:00	25700	21	-65.0		247	13	12.1
2025-11-07T12:00	25750	21	-64.7		246	14	12.0
2025-11-07T12:00	25800	21	-64.1		249	14	12.0
2025-11-07T12:00	25850	21	-63.8		253	13	12.0
2025-11-07T12:00	25900	20	-63.9		258	12	11.9
2025-11-07T12:00	25950	20	-63.7		263	12	11.9
2025-11-07T12:00	26000	20	-63.5		267	11	11.9
2025-11-07T12:00	26050	20	-63.8		271	11	11.9
2025-11-07T12:00	26100	20	-64.2		275	11	11.9
2025-11-07T12:00	26150	20	-64.4		278	11	11.8
2025-11-07T12:00	26200	20	-63.9		281	11	11.6
2025-11-07T12:00	26250	19	-63.8		282	11	11.5
2025-11-07T12:00	26300	19	-63.7		278	10	11.4
2025-11-07T12:00	26350	19	-63.4		268	10	11.3
2025-11-07T12:00	26400	19	-63.4		258	10	11.2
2025-11-07T12:00	26450	19	-63.5		250	10	11.2
2025-11-07T12:00	26500	19	-63.6		245	12	11.1
2025-11-07T12:00	26550	18	-63.3		243	13	10.9
2025-11-07T12:00	26600	18	-63.1		244	15	10.9
2025-11-07T12:00	26650	18	-63.2		246	15	10.8
2025-11-07T12:00	26700	18	-63.4		249	15	10.8
2025-11-07T12:00	26750	18	-63.7		248	16	10.7
2025-11-07T12:00	26800	18	-64.0		245	17	10.5
2025-11-07T12:00	26850	18	-63.9		243	18	10.4
2025-11-07T12:00	26900	17	-63.0		246	19	10.4
2025-11-07T12:00	26950	17	-62.6		252	19	10.3
2025-11-07T12:00	27000	17	-62.4		257	20	10.2
2025-11-07T12:00	27050	17	-62.5		259	20	10.1
2025-11-07T12:00	27100	17	-62.7		259	19	10.0
2025-11-07T12:00	27150	17	-63.1		258	19	9.9
2025-11-07T12:00	27200	17	-63.4		258	19	9.8
2025-11-07T12:00	27250	16	-63.6		260	20	9.8
2025-11-07T12:00	27300	16	-63.2		264	22	9.7
2025-11-07T12:00	27350	16	-63.2		267	23	9.7
2025-11-07T12:00	27400	16	-63.5		269	24	9.6
2025-11-07T12:00	27450	16	-63.7		271	24	9.5
2025-11-07T12:00	27500	16	-63.9		272	25	9.4
2025-11-07T12:00	27550	16	-64.2		270	26	9.2
2025-11-07T12:00	27600	16	-64.2		268	26	9.1
2025-11-07T12:00	27650	15	-64.2		265	27	9.0
2025-11-07T12:00	27700	15	-64.5		263	26	8.9
2025-11-07T12:00	27750	15	-64.4		262	26	8.8
2025-11-07T12:00	27800	15	-63.9		263	25	8.7
2025-11-07T12:00	27850	15	-64.1		264	25	8.6
2025-11-07T12:00	27900	15	-64.4		266	24	8.5
2025-11-07T12:00	27950	15	-64.4		269	24	8.4
2025-11-07T12:00	28000	15	-64.4		271	24	8.3
2025-11-07T12:00	28050	14	-64.4		271	24	8.2
2025-11-07T12:00	28100	14	-64.5		272	24	8.0
2025-11-07T12:00	28150	14	-64.5		272	23	7.9
2025-11-07T12:00	28200	14	-64.6		271	21	7.7
2025-11-07T12:00	28250	14	-64.6		268	20	7.6
2025-11-07T12:00	28300	14	-64.0		265	20	7.5
2025-11-07T12:00	28350	14	-63.5		262	20	7.6
2025-11-07T12:00	28400	14	-63.0		261	20	7.6
2025-11-07T12:00	28450	14	-62.4		261	21	7.6
2025-11-07T12:00	28500	13	-61.8		261	22	7.6
2025-11-07T12:00	28550	13	-61.8		263	23	7.5
2025-11-07T12:00	28600	13	-62.1		264	24	7.5
2025-11-07T12:00	28650	13	-62.2		265	25	7.5
2025-11-07T12:00	28700	13	-62.1		265	26	7.4
2025-11-07T12:00	28750	13	-62.3		264	27	7.2
2025-11-07T12:00	28800	13	-62.7		262	28	7.1
2025-11-07T12:00	28850	13	-62.9		262	29	7.0
2025-11-07T12:00	28900	13	-62.7		262	30	7.0
2025-11-07T12:00	28950	12	-62.7		264	30	6.9
2025-11-07T12:00	29000	12	-62.7		265	29	6.9
2025-11-07T12:00	29050	12	-62.6		263	27	6.8
2025-11-07T12:00	29100	12	-61.9		259	26	6.7
2025-11-07T12:00	29150	12	-61.5		257	26	6.6
2025-11-07T12:00	29200	12	-60.8		258	26	6.6
2025-11-07T12:00	29250	12	-60.2		261	27	6.6
2025-11-07T12:00	29300	12	-59.9		262	27	6.6
2025-11-07T12:00	29350	12	-59.9		260	28	6.5
2025-11-07T12:00	29400	12	-59.7		258	29	6.5
2025-11-07T12:00	29450	11	-59.8		258	30	6.5
2025-11-07T12:00	29500	11	-59.9		258	31	6.4
2025-11-07T12:00	29550	11	-60.0		258	31	6.4
2025-11-07T12:00	29600	11	-60.1		256	31	6.3
2025-11-07T12:00	29650	11	-60.2		255	31	6.3
2025-11-07T12:00	29700	11	-60.1		256	31	6.2
2025-11-07T12:00	29750	11	-60.0		258	30	6.2
2025-11-07T12:00	29800	11	-60.2		260	30	6.2
2025-11-07T12:00	29850	11	-60.4		260	29	6.1
2025-11-07T12:00	29900	11	-60.1		259	29	6.1
2025-11-07T12:00	29950	11	-59.9		258	30	6.0
2025-11-07T12:00	30000	11	-60.0		259	30	6.0
2025-11-07T12:00	30050	10	-60.1		260	30	5.9
2025-11-07T12:00	30100	10	-60.2		261	31	5.9
2025-11-07T12:00	30150	10	-60.2		261	31	5.9
2025-11-07T12:00	30200	10	-60.2		261	33	5.8
2025-11-07T12:00	30250	10	-60.3		261	33	5.8
2025-11-07T12:00	30300	10	-60.1		261	33	5.7
2025-11-07T12:00	30350	10	-59.9		262	33	5.7
2025-11-07T12:00	30400	10	-60.0		261	33	5.6
2025-11-07T12:00	30450	10	-60.1		261	32	5.5
2025-11-07T12:00	30500	10	-60.2		260	32	5.4
2025-11-07T12:00	30550	10	-60.3		260	33	5.4
2025-11-07T12:00	30600	10	-60.2		259	34	5.4
2025-11-07T12:00	30650	9	-59.7		259	35	5.3
2025-11-07T12:00	30700	9	-59.2		260	35	5.3
2025-11-07T12:00	30750	9	-58.9		262	34	5.3
2025-11-07T12:00	30800	9	-59.0		263	34	5.2
2025-11-07T12:00	30850	9	-59.0		263	34	5.2
2025-11-07T12:00	30900	9	-58.9		261	34	5.2
2025-11-07T12:00	30950	9	-58.9		260	35	5.1
2025-11-07T12:00	31000	9	-58.9		260	36	5.1
2025-11-07T12:00	31050	9	-58.9		259	37	5.0
2025-11-07T12:00	31100	9	-58.8		258	38	5.0
2025-11-07T12:00	31150	9	-58.7		256	39	5.0
2025-11-07T12:00	31200	9	-58.6		255	40	5.0
2025-11-07T12:00	31250	9	-58.6		253	39	4.9
2025-11-07T12:00	31300	9	-58.7		253	39	4.9
2025-11-07T12:00	31350	8	-58.5		253	39	4.8
2025-11-07T12:00	31400	8	-58.3		255	40	4.7
2025-11-07T12:00	31450	8	-58.2		258	40	4.7
2025-11-07T12:00	31500	8	-58.3		260	41	4.6
2025-11-07T12:00	31550	8	-58.2		261	40	4.6
2025-11-07T12:00	31600	8	-58.4		262	40	4.6
2025-11-07T12:00	31650	8	-58.3		263	41	4.5
2025-11-07T12:00	31700	8	-57.9		263	42	4.5
2025-11-07T12:00	31750	8	-57.8		264	43	4.5
2025-11-07T12:00	31800	8	-57.8		264	43	4.4
2025-11-07T12:00	31850	8	-57.8		265	42	4.4
2025-11-07T12:00	31900	8	-58.0		265	40	4.4
2025-11-07T12:00	31950	8	-58.3		266	40	4.3
2025-11-07T12:00	32000	8	-58.3		266	39	4.3
2025-11-07T12:00	32050	8	-58.5		265	39	4.3
2025-11-07T12:00	32100	8	-58.6		264	39	4.2
2025-11-07T12:00	32150	7	-58.6		263	40	4.2
2025-11-07T12:00	32200	7	-58.5		263	40	4.1
2025-11-07T12:00	32250	7	-58.3		264	40	4.1
2025-11-07T12:00	32300	7	-58.1		265	40	4.1
2025-11-07T12:00	32350	7	-58.1		267	40	4.1
2025-11-07T12:00	32400	7	-58.1		268	40	4.0
2025-11-07T12:00	32450	7	-58.1		269	39	4.0
2025-11-07T12:00	32500	7	-58.0		270	38	4.0
2025-11-07T12:00	32550	7	-57.9		270	37	4.0
2025-11-07T12:00	32600	7	-58.2		269	36	3.9
2025-11-07T12:00	32650	7	-58.4		268	35	3.9
2025-11-07T12:00	32700	7	-58.6		266	34	3.9
2025-11-07T12:00	32750	7	-58.5		265	35	3.8
2025-11-07T12:00	32800	7	-58.3		266	36	3.8
2025-11-07T12:00	32850	7	-58.5		266	37	3.8
2025-11-07T12:00	32900	7	-58.6		265	36	3.7
2025-11-07T12:00	32950	7	-58.3		262	36	3.7
2025-11-07T12:00	33000	7	-58.0		259	35	3.7
2025-11-07T12:00	33050	6	-57.9		257	35	3.7
2025-11-07T12:00	33100	6	-58.0		256	36	3.6
2025-11-07T12:00	33150	6	-58.2		255	37	3.6
2025-11-07T12:00	33200	6	-58.2		255	39	3.6
2025-11-07T12:00	33250	6	-58.0		256	41	3.5
2025-11-07T12:00	33300	6	-57.8		257	42	3.5
2025-11-07T12:00	33350	6	-57.3		258	41	3.5
2025-11-08T00:00	491	955	4.7	4.7	180	1	
2025-11-08T00:00	501	954	4.7	4.7	193	1	
2025-11-08T00:00	520	952	4.4	4.4	204	1	
2025-11-08T00:00	540	950	4.3	4.3	210	1	
2025-11-08T00:00	560	948	4.2	4.2	215	2	
2025-11-08T00:00	580	945	4.1	4.1	218	2	
2025-11-08T00:00	600	943	3.9	3.9	222	2	
2025-11-08T00:00	620	941	3.8	3.8	223	2	
2025-11-08T00:00	640	938	3.7	3.7	223	2	
2025-11-08T00:00	660	936	3.6	3.6	222	2	
2025-11-08T00:00	680	933	3.3	3.3	220	2	
2025-11-08T00:00	700	931	3.9	3.9	218	2	
2025-11-08T00:00	720	929	6.1	5.8	218	2	
2025-11-08T00:00	740	927	7.4	6.1	217	2	
2025-11-08T00:00	760	925	7.6	6.2	217	2	
2025-11-08T00:00	780	922	7.5	6.5	218	2	
2025-11-08T00:00	800	920	7.6	6.8	218	2	
2025-11-08T00:00	820	918	7.8	5.3	218	2	
2025-11-08T00:00	840	915	8.0	3.7	218	2	
2025-11-08T00:00	860	913	8.4	5.1	217	2	
2025-11-08T00:00	880	911	8.4	5.5	217	2	
2025-11-08T00:00	900	909	8.3	5.4	216	2	
2025-11-08T00:00	920	907	8.3	5.4	214	2	
2025-11-08T00:00	940	904	8.4	5.4	212	2	
2025-11-08T00:00	960	902	8.5	5.7	211	2	
2025-11-08T00:00	980	900	8.4	5.6	212	2	
2025-11-08T00:00	1000	898	8.3	5.4	213	2	
2025-11-08T00:00	1020	896	8.1	5.1	216	2	
2025-11-08T00:00	1040	894	8.0	4.7	220	2	
2025-11-08T00:00	1060	892	7.9	4.5	223	2	
2025-11-08T00:00	1080	889	7.8	3.8	225	2	
2025-11-08T00:00	1100	887	7.9	1.5	226	2	
2025-11-08T00:00	1120	885	7.9	0.5	224	2	
2025-11-08T00:00	1140	883	7.9	0.4	221	2	
2025-11-08T00:00	1160	881	8.0	1.7	216	2	
2025-11-08T00:00	1180	879	8.0	1.1	211	2	
2025-11-08T00:00	1200	877	8.0	0.5	206	1	
2025-11-08T00:00	1220	874	7.9	0.9	204	1	
2025-11-08T00:00	1240	872	7.8	1.4	204	2	
2025-11-08T00:00	1260	870	7.7	0.4	206	2	
2025-11-08T00:00	1280	868	7.6	0.0	208	2	
2025-11-08T00:00	1300	866	7.4	0.2	212	2	
2025-11-08T00:00	1320	864	7.3	0.2	215	2	
2025-11-08T00:00	1340	862	7.1	0.3	220	2	
2025-11-08T00:00	1360	860	6.9	0.6	225	2	
2025-11-08T00:00	1380	858	6.8	1.8	232	2	
2025-11-08T00:00	1400	856	6.6	2.8	242	2	
2025-11-08T00:00	1420	853	6.5	2.3	253	2	
2025-11-08T00:00	1440	851	6.4	2.0	262	2	
2025-11-08T00:00	1460	850	6.3	1.8	269	3	
2025-11-08T00:00	1480	847	6.2	1.4	278	3	
2025-11-08T00:00	1500	845	6.1	2.2	285	3	
2025-11-08T00:00	1520	843	6.0	2.6	290	3	
2025-11-08T00:00	1540	841	6.2	2.0	295	3	
2025-11-08T00:00	1560	839	6.4	1.7	298	4	
2025-11-08T00:00	1580	837	6.3	1.7	300	4	
2025-11-08T00:00	1600	835	6.1	1.3	302	4	
2025-11-08T00:00	1620	833	6.0	1.2	303	4	
2025-11-08T00:00	1640	831	5.8	1.0	304	4	
2025-11-08T00:00	1660	829	5.6	0.6	306	4	
2025-11-08T00:00	1680	827	5.5	0.4	307	4	
2025-11-08T00:00	1700	825	5.4	0.5	308	3	
2025-11-08T00:00	1720	823	5.2	0.5	308	3	
2025-11-08T00:00	1740	821	5.1	0.4	309	3	
2025-11-08T00:00	1760	819	4.9	0.2	308	3	
2025-11-08T00:00	1780	817	4.8	0.1	308	2	
2025-11-08T00:00	1800	815	4.7	0.1	309	2	
2025-11-08T00:00	1820	813	4.6	0.2	311	2	
2025-11-08T00:00	1840	811	4.4	0.6	316	2	
2025-11-08T00:00	1860	809	4.5	-1.6	322	2	
2025-11-08T00:00	1880	807	4.5	-3.1	327	2	
2025-11-08T00:00	1900	805	4.4	-3.5	332	3	
2025-11-08T00:00	1920	803	4.4	-4.2	336	3	
2025-11-08T00:00	1940	801	4.4	-4.5	338	3	
2025-11-08T00:00	1960	799	4.3	-4.8	339	3	
2025-11-08T00:00	1980	797	4.2	-4.8	337	3	
2025-11-08T00:00	2000	795	4.0	-5.0	334	3	
2025-11-08T00:00	2020	793	3.8	-4.6	331	3	
2025-11-08T00:00	2040	791	3.6	-4.7	328	3	
2025-11-08T00:00	2060	789	3.5	-5.2	326	3	
2025-11-08T00:00	2080	787	3.3	-5.4	325	3	
2025-11-08T00:00	2100	785	3.1	-5.9	325	3	
2025-11-08T00:00	2120	784	3.0	-6.1	326	3	
2025-11-08T00:00	2140	781	2.8	-6.1	329	2	
2025-11-08T00:00	2160	780	2.7	-6.2	333	2	
2025-11-08T00:00	2180	778	2.5	-6.4	341	2	
2025-11-08T00:00	2200	776	2.4	-6.5	354	1	
2025-11-08T00:00	2220	774	2.3	-6.8	8	1	
2025-11-08T00:00	2240	772	2.2	-6.9	18	1	
2025-11-08T00:00	2260	770	2.1	-7.5	28	2	
2025-11-08T00:00	2280	768	2.0	-8.3	33	2	
2025-11-08T00:00	2300	766	1.9	-8.4	36	2	
2025-11-08T00:00	2320	764	1.8	-9.0	39	2	
2025-11-08T00:00	2340	762	1.8	-9.7	43	2	
2025-11-08T00:00	2360	760	1.7	-10.0	51	2	
2025-11-08T00:00	2380	758	1.5	-10.1	62	2	
2025-11-08T00:00	2400	757	1.4	-10.4	73	2	
2025-11-08T00:00	2420	755	1.3	-10.6	84	2	
2025-11-08T00:00	2440	753	1.2	-10.7	94	2	
2025-11-08T00:00	2460	751	1.1	-10.8	98	3	
2025-11-08T00:00	2480	749	1.0	-10.8	99	3	
2025-11-08T00:00	2500	747	0.8	-11.0	98	3	
2025-11-08T00:00	2520	746	0.7	-10.8	96	3	
2025-11-08T00:00	2540	744	0.6	-10.8	93	3	
2025-11-08T00:00	2560	742	0.4	-10.9	92	3	
2025-11-08T00:00	2580	740	0.3	-10.8	93	4	
2025-11-08T00:00	2600	738	0.1	-10.6	95	4	
2025-11-08T00:00	2620	736	-0.1	-10.5	98	5	
2025-11-08T00:00	2640	734	-0.3	-10.6	102	5	
2025-11-08T00:00	2660	733	-0.5	-10.6	107	5	
2025-11-08T00:00	2680	731	-0.7	-10.6	112	5	
2025-11-08T00:00	2700	729	-0.8	-10.8	118	5	
2025-11-08T00:00	2720	727	-1.0	-10.9	122	4	
2025-11-08T00:00	2740	725	-1.2	-11.0	123	4	
2025-11-08T00:00	2760	723	-1.3	-10.7	121	3	
2025-11-08T00:00	2780	722	-1.5	-10.1	117	3	
2025-11-08T00:00	2800	720	-1.7	-9.8	111	3	
2025-11-08T00:00	2820	718	-1.9	-10.0	106	3	
2025-11-08T00:00	2840	716	-2.1	-9.8	103	4	
2025-11-08T00:00	2860	714	-2.3	-9.6	102	4	
2025-11-08T00:00	2880	712	-2.4	-10.1	103	5	
2025-11-08T00:00	2900	711	-2.4	-11.1	105	5	
2025-11-08T00:00	2920	709	-2.5	-10.6	107	5	
2025-11-08T00:00	2940	707	-2.6	-10.8	109	5	
2025-11-08T00:00	2960	705	-2.5	-11.8	112	5	
2025-11-08T00:00	2980	704	-2.5	-12.0	115	5	
2025-11-08T00:00	3000	702	-2.7	-11.8	120	5	
2025-11-08T00:00	3020	700	-2.9	-11.6	124	5	
2025-11-08T00:00	3040	698	-3.1	-11.4	128	4	
2025-11-08T00:00	3060	697	-3.2	-11.0	132	4	
2025-11-08T00:00	3080	695	-3.3	-11.2	136	4	
2025-11-08T00:00	3100	693	-3.4	-11.8	137	4	
2025-11-08T00:00	3120	691	-3.5	-12.3	137	4	
2025-11-08T00:00	3140	690	-3.3	-13.6	136	4	
2025-11-08T00:00	3160	688	-3.0	-15.6	133	4	
2025-11-08T00:00	3180	686	-2.9	-16.2	131	4	
2025-11-08T00:00	3200	684	-3.0	-15.6	129	4	
2025-11-08T00:00	3220	683	-3.1	-14.1	131	4	
2025-11-08T00:00	3240	681	-3.2	-14.4	138	4	
2025-11-08T00:00	3260	679	-3.2	-15.8	147	4	
2025-11-08T00:00	3280	677	-3.1	-16.1	156	4	
2025-11-08T00:00	3300	676	-3.1	-17.1	165	4	
2025-11-08T00:00	3320	674	-3.1	-18.7	173	4	
2025-11-08T00:00	3340	672	-3.2	-19.1	181	4	
2025-11-08T00:00	3360	671	-3.3	-18.4	189	3	
2025-11-08T00:00	3380	669	-3.3	-18.5	193	3	
2025-11-08T00:00	3400	667	-3.4	-19.0	195	3	
2025-11-08T00:00	3420	665	-3.5	-19.0	195	2	
2025-11-08T00:00	3440	664	-3.6	-18.6	196	2	
2025-11-08T00:00	3460	662	-3.8	-19.1	196	2	
2025-11-08T00:00	3480	660	-3.9	-19.1	197	2	
2025-11-08T00:00	3500	659	-3.9	-18.6	198	2	
2025-11-08T00:00	3520	657	-4.0	-17.3	196	2	
2025-11-08T00:00	3540	656	-3.9	-15.8	191	2	
2025-11-08T00:00	3560	654	-3.7	-15.6	184	2	
2025-11-08T00:00	3580	652	-3.6	-14.6	177	2	
2025-11-08T00:00	3600	651	-3.7	-14.2	172	2	
2025-11-08T00:00	3620	649	-3.8	-13.8	170	2	
2025-11-08T00:00	3640	647	-3.9	-13.5	172	3	
2025-11-08T00:00	3660	646	-4.1	-13.1	176	3	
2025-11-08T00:00	3680	644	-4.3	-12.9	179	3	
2025-11-08T00:00	3700	642	-4.5	-12.8	184	3	
2025-11-08T00:00	3720	641	-4.6	-12.5	189	3	
2025-11-08T00:00	3740	639	-4.6	-12.0	194	3	
2025-11-08T00:00	3760	637	-4.7	-12.0	200	3	
2025-11-08T00:00	3780	636	-4.8	-12.1	206	2	
2025-11-08T00:00	3800	634	-5.0	-12.2	210	2	
2025-11-08T00:00	3820	633	-5.1	-12.6	210	2	
2025-11-08T00:00	3840	631	-5.1	-13.0	205	2	
2025-11-08T00:00	3860	629	-5.0	-13.5	197	2	
2025-11-08T00:00	3880	628	-5.1	-13.6	187	3	
2025-11-08T00:00	3900	626	-5.3	-13.1	179	3	
2025-11-08T00:00	3920	625	-5.5	-12.7	171	3	
2025-11-08T00:00	3940	623	-5.6	-12.7	165	3	
2025-11-08T00:00	3960	621	-5.7	-12.8	162	3	
2025-11-08T00:00	3980	620	-5.6	-13.8	159	4	
2025-11-08T00:00	4000	618	-5.5	-14.6	155	4	
2025-11-08T00:00	4020	617	-5.6	-14.7	152	4	
2025-11-08T00:00	4040	615	-5.6	-15.3	147	4	
2025-11-08T00:00	4060	614	-5.7	-15.4	142	4	
2025-11-08T00:00	4080	612	-5.8	-15.7	137	4	
2025-11-08T00:00	4100	610	-5.9	-16.1	132	4	
2025-11-08T00:00	4120	609	-6.1	-16.5	127	5	
2025-11-08T00:00	4140	607	-6.2	-16.8	125	5	
2025-11-08T00:00	4160	606	-6.4	-17.1	124	6	
2025-11-08T00:00	4180	604	-6.5	-17.9	124	6	
2025-11-08T00:00	4200	603	-6.6	-18.0	125	7	
2025-11-08T00:00	4220	601	-6.8	-17.6	125	7	
2025-11-08T00:00	4240	600	-6.9	-17.5	127	6	
2025-11-08T00:00	4260	598	-7.1	-16.8	129	6	
2025-11-08T00:00	4280	596	-7.3	-16.4	131	6	
2025-11-08T00:00	4300	595	-7.5	-16.7	134	6	
2025-11-08T00:00	4320	593	-7.6	-16.2	139	6	
2025-11-08T00:00	4340	592	-7.6	-16.6	145	6	
2025-11-08T00:00	4360	590	-7.7	-16.6	150	6	
2025-11-08T00:00	4380	589	-7.8	-16.6	154	6	
2025-11-08T00:00	4400	587	-8.0	-16.6	158	6	
2025-11-08T00:00	4420	586	-8.2	-16.6	160	6	
2025-11-08T00:00	4440	584	-8.3	-16.4	160	6	
2025-11-08T00:00	4460	583	-8.5	-16.2	160	5	
2025-11-08T00:00	4480	581	-8.6	-16.4	161	5	
2025-11-08T00:00	4500	580	-8.7	-16.6	162	5	
2025-11-08T00:00	4520	578	-8.8	-16.5	165	5	
2025-11-08T00:00	4540	577	-8.9	-16.4	170	5	
2025-11-08T00:00	4560	575	-9.0	-17.0	174	5	
2025-11-08T00:00	4580	574	-9.1	-17.5	177	5	
2025-11-08T00:00	4600	572	-9.1	-18.8	180	5	
2025-11-08T00:00	4620	571	-9.0	-21.7	182	5	
2025-11-08T00:00	4640	569	-9.1	-17.6	181	5	
2025-11-08T00:00	4660	568	-9.3	-18.3	179	5	
2025-11-08T00:00	4680	567	-9.4	-18.6	176	5	
2025-11-08T00:00	4700	565	-9.6	-19.2	172	6	
2025-11-08T00:00	4720	564	-9.8	-19.8	168	6	
2025-11-08T00:00	4740	562	-9.9	-20.3	163	7	
2025-11-08T00:00	4760	561	-10.0	-20.7	156	7	
2025-11-08T00:00	4780	559	-10.1	-21.6	149	7	
2025-11-08T00:00	4800	558	-10.3	-22.2	144	7	
2025-11-08T00:00	4820	556	-10.5	-22.2	139	8	
2025-11-08T00:00	4840	555	-10.7	-22.6	135	8	
2025-11-08T00:00	4860	553	-10.8	-23.4	134	8	
2025-11-08T00:00	4880	552	-10.9	-25.4	135	9	
2025-11-08T00:00	4900	551	-10.9	-27.8	137	9	
2025-11-08T00:00	4920	549	-11.0	-29.7	141	10	
2025-11-08T00:00	4940	548	-11.2	-31.5	145	10	
2025-11-08T00:00	4960	546	-11.3	-32.9	147	10	
2025-11-08T00:00	4980	545	-11.4	-34.0	149	10	
2025-11-08T00:00	5000	543	-11.6	-34.2	151	10	
2025-11-08T00:00	5020	542	-11.8	-33.7	152	9	
2025-11-08T00:00	5040	541	-11.9	-33.2	151	9	
2025-11-08T00:00	5060	539	-12.1	-31.2	148	9	
2025-11-08T00:00	5080	538	-12.3	-26.7	146	9	
2025-11-08T00:00	5100	536	-12.5	-26.2	144	9	
2025-11-08T00:00	5120	535	-12.7	-26.1	142	9	
2025-11-08T00:00	5140	534	-12.9	-26.2	140	9	
2025-11-08T00:00	5160	532	-13.0	-26.7	139	9	
2025-11-08T00:00	5180	531	-13.2	-26.3	137	9	
2025-11-08T00:00	5200	529	-13.4	-26.5	136	9	
2025-11-08T00:00	5220	528	-13.5	-27.1	135	9	
2025-11-08T00:00	5240	526	-13.7	-27.3	134	9	
2025-11-08T00:00	5260	525	-13.8	-27.8	133	9	
2025-11-08T00:00	5280	524	-13.9	-28.2	132	9	
2025-11-08T00:00	5300	522	-14.1	-28.4	132	9	
2025-11-08T00:00	5320	521	-14.3	-28.6	131	9	
2025-11-08T00:00	5340	520	-14.4	-28.8	132	9	
2025-11-08T00:00	5360	518	-14.6	-29.4	132	9	
2025-11-08T00:00	5380	517	-14.7	-29.9	133	9	
2025-11-08T00:00	5400	516	-14.9	-29.6	134	9	
2025-11-08T00:00	5420	514	-15.0	-29.2	135	9	
2025-11-08T00:00	5440	513	-15.2	-29.0	136	9	
2025-11-08T00:00	5460	512	-15.4	-28.8	136	9	
2025-11-08T00:00	5480	510	-15.6	-28.8	137	8	
2025-11-08T00:00	5500	509	-15.8	-28.8	137	8	
2025-11-08T00:00	5520	508	-16.0	-28.9	137	8	
2025-11-08T00:00	5540	506	-16.2	-28.8	138	8	
2025-11-08T00:00	5560	505	-16.4	-28.9	139	9	
2025-11-08T00:00	5580	504	-16.4	-29.6	140	9	
2025-11-08T00:00	5600	502	-16.5	-30.2	141	9	
2025-11-08T00:00	5620	501	-16.7	-30.1	141	9	
2025-11-08T00:00	5640	500	-16.8	-30.0	142	9	
2025-11-08T00:00	5660	498	-17.1	-29.9	143	8	
2025-11-08T00:00	5680	497	-17.2	-29.8	144	8	
2025-11-08T00:00	5700	495	-17.4	-29.6	144	8	
2025-11-08T00:00	5720	494	-17.6	-29.8	143	7	
2025-11-08T00:00	5740	493	-17.8	-29.8	142	8	
2025-11-08T00:00	5760	492	-18.0	-29.7	139	8	
2025-11-08T00:00	5780	490	-18.2	-29.7	137	8	
2025-11-08T00:00	5800	489	-18.4	-29.8	134	8	
2025-11-08T00:00	5820	488	-18.5	-29.9	131	9	
2025-11-08T00:00	5840	486	-18.7	-30.4	130	9	
2025-11-08T00:00	5860	485	-18.6	-32.8	127	9	
2025-11-08T00:00	5880	484	-18.7	-34.0	125	9	
2025-11-08T00:00	5900	482	-18.8	-33.7	123	9	
2025-11-08T00:00	5920	481	-19.0	-33.8	122	9	
2025-11-08T00:00	5940	480	-19.1	-34.5	122	9	
2025-11-08T00:00	5960	478	-19.3	-34.9	124	9	
2025-11-08T00:00	5980	477	-19.4	-35.1	127	8	
2025-11-08T00:00	6000	476	-19.5	-36.3	130	8	
2025-11-08T00:00	6020	475	-19.5	-37.6	132	8	
2025-11-08T00:00	6040	474	-19.5	-39.7	134	8	
2025-11-08T00:00	6060	472	-19.5	-40.5	137	8	
2025-11-08T00:00	6080	471	-19.6	-40.9	138	8	
2025-11-08T00:00	6100	470	-19.7	-40.9	140	7	
2025-11-08T00:00	6120	468	-19.9	-40.9	140	7	
2025-11-08T00:00	6140	467	-20.0	-41.3	139	7	
2025-11-08T00:00	6160	466	-20.2	-41.6	138	7	
2025-11-08T00:00	6180	464	-20.4	-41.6	137	7	
2025-11-08T00:00	6200	463	-20.5	-41.7	136	7	
2025-11-08T00:00	6220	462	-20.7	-41.8	135	7	
2025-11-08T00:00	6240	461	-20.9	-41.8	134	7	
2025-11-08T00:00	6260	460	-21.1	-41.8	132	8	
2025-11-08T00:00	6280	458	-21.2	-41.8	130	8	
2025-11-08T00:00	6300	457	-21.4	-41.9	129	7	
2025-11-08T00:00	6320	456	-21.5	-42.0	128	7	
2025-11-08T00:00	6340	455	-21.6	-41.9	126	7	
2025-11-08T00:00	6360	453	-21.8	-40.8	125	7	
2025-11-08T00:00	6380	452	-21.9	-37.7	123	7	
2025-11-08T00:00	6400	451	-22.1	-35.4	121	6	
2025-11-08T00:00	6420	450	-22.2	-33.4	119	6	
2025-11-08T00:00	6440	448	-22.4	-33.5	118	6	
2025-11-08T00:00	6460	447	-22.5	-34.6	117	6	
2025-11-08T00:00	6480	446	-22.6	-34.5	117	5	
2025-11-08T00:00	6500	445	-22.8	-34.4	118	5	
2025-11-08T00:00	6520	443	-22.9	-34.4	120	5	
2025-11-08T00:00	6540	442	-23.0	-34.8	121	5	
2025-11-08T00:00	6560	441	-23.1	-35.6	122	5	
2025-11-08T00:00	6580	440	-23.3	-36.3	122	5	
2025-11-08T00:00	6600	439	-23.4	-38.2	122	5	
2025-11-08T00:00	6620	437	-23.5	-40.8	123	5	
2025-11-08T00:00	6640	436	-23.6	-41.8	123	5	
2025-11-08T00:00	6660	435	-23.8	-41.5	123	5	
2025-11-08T00:00	6680	434	-23.9	-40.9	125	5	
2025-11-08T00:00	6700	433	-24.1	-40.8	126	5	
2025-11-08T00:00	6720	432	-24.3	-40.7	127	5	
2025-11-08T00:00	6740	430	-24.4	-40.8	128	4	
2025-11-08T00:00	6760	429	-24.6	-39.8	128	4	
2025-11-08T00:00	6780	428	-24.8	-38.2	129	4	
2025-11-08T00:00	6800	427	-25.0	-37.7	130	4	
2025-11-08T00:00	6820	426	-25.2	-38.1	131	4	
2025-11-08T00:00	6840	424	-25.4	-38.4	134	4	
2025-11-08T00:00	6860	423	-25.5	-38.6	136	4	
2025-11-08T00:00	6880	422	-25.7	-39.2	137	4	
2025-11-08T00:00	6900	421	-25.9	-39.5	138	4	
2025-11-08T00:00	6920	420	-26.1	-39.8	138	4	
2025-11-08T00:00	6940	419	-26.3	-41.1	137	4	
2025-11-08T00:00	6960	418	-26.4	-44.4	136	5	
2025-11-08T00:00	6980	416	-26.6	-45.2	135	5	
2025-11-08T00:00	7000	415	-26.8	-46.1	135	5	
2025-11-08T00:00	7020	414	-26.9	-47.2	136	6	
2025-11-08T00:00	7040	413	-27.0	-47.4	137	5	
2025-11-08T00:00	7060	412	-27.2	-47.3	138	5	
2025-11-08T00:00	7080	411	-27.4	-47.5	139	5	
2025-11-08T00:00	7100	410	-27.5	-47.9	140	5	
2025-11-08T00:00	7120	408	-27.6	-47.9	140	5	
2025-11-08T00:00	7140	407	-27.7	-47.7	140	5	
2025-11-08T00:00	7160	406	-27.8	-47.0	139	5	
2025-11-08T00:00	7180	405	-27.9	-47.7	138	6	
2025-11-08T00:00	7200	404	-28.0	-47.6	136	6	
2025-11-08T00:00	7220	403	-28.1	-44.5	134	6	
2025-11-08T00:00	7240	402	-28.3	-46.2	132	6	
2025-11-08T00:00	7260	400	-28.4	-45.9	131	6	
2025-11-08T00:00	7280	399	-28.6	-45.4	131	6	
2025-11-08T00:00	7300	398	-28.8	-45.6	131	7	
2025-11-08T00:00	7320	397	-29.0	-47.1	132	7	
2025-11-08T00:00	7340	396	-29.1	-47.2	133	7	
2025-11-08T00:00	7360	395	-29.3	-46.1	134	7	
2025-11-08T00:00	7380	394	-29.4	-47.3	135	7	
2025-11-08T00:00	7400	393	-29.5	-49.1	136	8	
2025-11-08T00:00	7420	392	-29.6	-49.5	137	8	
2025-11-08T00:00	7440	391	-29.8	-50.0	137	8	
2025-11-08T00:00	7460	389	-30.0	-50.6	137	8	
2025-11-08T00:00	7480	388	-30.1	-51.3	136	8	
2025-11-08T00:00	7500	387	-30.3	-51.6	135	8	
2025-11-08T00:00	7520	386	-30.5	-51.5	133	8	
2025-11-08T00:00	7540	385	-30.6	-51.4	132	8	
2025-11-08T00:00	7560	384	-30.8	-51.4	131	8	
2025-11-08T00:00	7580	383	-30.9	-50.9	130	8	
2025-11-08T00:00	7600	382	-31.0	-50.5	130	8	
2025-11-08T00:00	7620	381	-31.2	-50.6	130	8	
2025-11-08T00:00	7640	380	-31.4	-50.7	131	8	
2025-11-08T00:00	7660	379	-31.5	-51.7	131	8	
2025-11-08T00:00	7680	378	-31.7	-52.5	132	8	
2025-11-08T00:00	7700	376	-31.8	-53.1	132	9	
2025-11-08T00:00	7720	375	-32.0	-53.0	133	9	
2025-11-08T00:00	7740	374	-32.2	-53.3	133	9	
2025-11-08T00:00	7760	373	-32.3	-53.5	133	9	
2025-11-08T00:00	7780	372	-32.5	-54.4	133	9	
2025-11-08T00:00	7800	371	-32.7	-54.8	132	10	
2025-11-08T00:00	7820	370	-32.8	-54.8	131	10	
2025-11-08T00:00	7840	369	-33.0	-55.0	130	10	
2025-11-08T00:00	7860	368	-33.1	-55.0	129	10	
2025-11-08T00:00	7880	367	-33.3	-55.0	128	10	
2025-11-08T00:00	7900	366	-33.4	-55.2	127	10	
2025-11-08T00:00	7920	365	-33.6	-55.3	126	10	
2025-11-08T00:00	7940	364	-33.7	-55.4	125	9	
2025-11-08T00:00	7960	363	-33.9	-55.5	125	9	
2025-11-08T00:00	7980	362	-34.0	-55.5	125	9	
2025-11-08T00:00	8000	361	-34.2	-55.5	125	9	
2025-11-08T00:00	8020	360	-34.3	-55.4	126	9	
2025-11-08T00:00	8040	359	-34.4	-55.5	127	10	
2025-11-08T00:00	8060	358	-34.6	-55.8	127	10	
2025-11-08T00:00	8080	357	-34.7	-55.9	127	10	
2025-11-08T00:00	8100	356	-34.9	-55.8	127	10	
2025-11-08T00:00	8120	355	-35.1	-55.7	127	10	
2025-11-08T00:00	8140	354	-35.2	-55.3	127	10	
2025-11-08T00:00	8160	353	-35.4	-54.7	126	10	
2025-11-08T00:00	8180	351	-35.6	-54.4	126	10	
2025-11-08T00:00	8200	351	-35.7	-54.6	125	10	
2025-11-08T00:00	8220	350	-35.9	-54.7	125	10	
2025-11-08T00:00	8240	348	-36.0	-54.7	125	10	
2025-11-08T00:00	8260	347	-36.2	-55.1	125	10	
2025-11-08T00:00	8280	346	-36.3	-55.4	125	10	
2025-11-08T00:00	8300	346	-36.5	-55.7	126	10	
2025-11-08T00:00	8320	344	-36.6	-55.8	127	10	
2025-11-08T00:00	8340	344	-36.8	-55.8	128	10	
2025-11-08T00:00	8360	343	-37.0	-55.9	129	10	
2025-11-08T00:00	8380	342	-37.2	-56.0	130	10	
2025-11-08T00:00	8400	341	-37.4	-56.1	131	10	
2025-11-08T00:00	8420	340	-37.5	-56.1	132	10	
2025-11-08T00:00	8440	339	-37.7	-56.0	132	11	
2025-11-08T00:00	8460	338	-37.9	-55.9	133	11	
2025-11-08T00:00	8480	337	-38.1	-55.9	134	11	
2025-11-08T00:00	8500	336	-38.3	-55.8	135	12	
2025-11-08T00:00	8520	335	-38.5	-55.4	136	12	
2025-11-08T00:00	8540	334	-38.6	-54.9	136	12	
2025-11-08T00:00	8560	333	-38.7	-54.2	137	12	
2025-11-08T00:00	8580	332	-38.8	-53.5	137	13	
2025-11-08T00:00	8600	331	-39.0	-53.0	138	13	
2025-11-08T00:00	8620	330	-39.2	-52.8	138	13	
2025-11-08T00:00	8640	329	-39.3	-52.6	138	13	
2025-11-08T00:00	8660	328	-39.5	-52.6	138	13	
2025-11-08T00:00	8680	327	-39.7	-53.0	139	13	
2025-11-08T00:00	8700	326	-39.9	-52.7	140	12	
2025-11-08T00:00	8720	325	-40.1	-52.4	141	12	
2025-11-08T00:00	8740	324	-40.2	-52.0	142	12	
2025-11-08T00:00	8760	323	-40.4	-51.6	144	12	
2025-11-08T00:00	8780	322	-40.6	-51.2	144	12	
2025-11-08T00:00	8800	321	-40.7	-50.8	144	12	
2025-11-08T00:00	8820	320	-40.9	-50.7	144	12	
2025-11-08T00:00	8840	319	-41.1	-50.7	144	12	
2025-11-08T00:00	8860	318	-41.3	-50.8	144	12	
2025-11-08T00:00	8880	317	-41.5	-50.9	144	12	
2025-11-08T00:00	8900	317	-41.6	-51.0	144	12	
2025-11-08T00:00	8920	316	-41.8	-51.0	144	12	
2025-11-08T00:00	8940	315	-42.0	-51.0	145	12	
2025-11-08T00:00	8960	314	-42.2	-51.1	145	12	
2025-11-08T00:00	8980	313	-42.4	-51.3	146	12	
2025-11-08T00:00	9000	312	-42.6	-51.5	146	12	
2025-11-08T00:00	9020	311	-42.8	-51.5	145	12	
2025-11-08T00:00	9040	310	-43.0	-51.5	144	13	
2025-11-08T00:00	9060	309	-43.2	-51.7	144	13	
2025-11-08T00:00	9080	308	-43.4	-51.8	144	13	
2025-11-08T00:00	9100	307	-43.6	-51.9	144	13	
2025-11-08T00:00	9120	306	-43.7	-52.2	145	13	
2025-11-08T00:00	9140	305	-43.9	-52.3	145	12	
2025-11-08T00:00	9160	305	-44.1	-52.4	145	12	
2025-11-08T00:00	9180	304	-44.2	-52.3	145	12	
2025-11-08T00:00	9200	303	-44.4	-52.2	144	12	
2025-11-08T00:00	9220	302	-44.6	-52.2	144	12	
2025-11-08T00:00	9240	301	-44.8	-52.2	144	12	
2025-11-08T00:00	9260	300	-45.0	-52.3	143	12	
2025-11-08T00:00	9280	299	-45.2	-52.4	143	12	
2025-11-08T00:00	9300	298	-45.3	-53.0	142	12	
2025-11-08T00:00	9320	297	-45.5	-53.5	141	12	
2025-11-08T00:00	9340	296	-45.5	-54.2	140	12	
2025-11-08T00:00	9360	296	-45.6	-55.6	140	12	
2025-11-08T00:00	9380	295	-45.6	-56.0	140	12	
2025-11-08T00:00	9400	294	-45.8	-55.4	140	13	
2025-11-08T00:00	9420	293	-46.0	-55.2	141	13	
2025-11-08T00:00	9440	292	-46.2	-55.4	141	13	
2025-11-08T00:00	9460	291	-46.3	-55.5	142	13	
2025-11-08T00:00	9480	290	-46.5	-55.5	142	13	
2025-11-08T00:00	9500	289	-46.7	-55.5	141	13	
2025-11-08T00:00	9520	289	-46.9	-55.5	141	13	
2025-11-08T00:00	9540	288	-47.1	-55.5	141	13	
2025-11-08T00:00	9560	287	-47.3	-55.5	141	13	
2025-11-08T00:00	9580	286	-47.5	-55.5	141	13	
2025-11-08T00:00	9600	285	-47.7	-55.6	141	13	
2025-11-08T00:00	9620	284	-47.9	-55.7	141	13	
2025-11-08T00:00	9640	283	-48.1	-55.7	141	12	
2025-11-08T00:00	9660	283	-48.3	-55.6	141	12	
2025-11-08T00:00	9680	282	-48.5	-55.7	141	12	
2025-11-08T00:00	9700	281	-48.7	-55.8	141	12	
2025-11-08T00:00	9720	280	-48.9	-55.8	141	12	
2025-11-08T00:00	9740	279	-49.1	-55.8	141	12	
2025-11-08T00:00	9760	278	-49.3	-55.9	141	12	
2025-11-08T00:00	9780	277	-49.4	-55.9	141	12	
2025-11-08T00:00	9800	277	-49.6	-56.0	141	12	
2025-11-08T00:00	9820	276	-49.8	-56.1	142	12	
2025-11-08T00:00	9840	275	-50.0	-56.1	142	12	
2025-11-08T00:00	9860	274	-50.2	-56.2	143	13	
2025-11-08T00:00	9880	273	-50.4	-56.4	143	13	
2025-11-08T00:00	9900	272	-50.6	-56.8	142	13	
2025-11-08T00:00	9920	271	-50.7	-57.5	142	13	
2025-11-08T00:00	9940	271	-50.9	-58.1	141	13	
2025-11-08T00:00	9960	270	-51.0	-58.2	141	13	
2025-11-08T00:00	9980	269	-51.1	-58.1	140	13	
2025-11-08T00:00	10000	268	-51.3	-58.1	139	13	
2025-11-08T00:00	10018	267	-51.4	-58.1	139	13	
2025-11-08T00:00	10050	266	-51.7	-57.8	138	13	
2025-11-08T00:00	10100	264	-52.2	-57.7	137	13	
2025-11-08T00:00	10150	262	-52.6	-58.4	137	13	
2025-11-08T00:00	10200	260	-52.9	-59.1	138	13	
2025-11-08T00:00	10250	258	-53.3	-59.7	139	14	
2025-11-08T00:00	10300	256	-53.6	-60.4	141	14	
2025-11-08T00:00	10350	254	-54.0	-61.0	141	14	
2025-11-08T00:00	10400	252	-54.4	-61.1	142	14	
2025-11-08T00:00	10450	250	-54.9	-60.7	142	14	
2025-11-08T00:00	10500	248	-55.3	-61.0	143	14	
2025-11-08T00:00	10550	246	-55.3	-63.0	144	14	
2025-11-08T00:00	10600	244	-55.5	-64.1	144	14	
2025-11-08T00:00	10650	242	-56.0	-63.5	143	14	
2025-11-08T00:00	10700	240	-56.4	-63.3	144	14	
2025-11-08T00:00	10750	239	-56.7	-63.4	146	14	
2025-11-08T00:00	10800	237	-57.0	-64.1	149	13	
2025-11-08T00:00	10850	235	-57.2	-65.1	151	13	
2025-11-08T00:00	10900	233	-57.4	-66.0	153	12	
2025-11-08T00:00	10950	231	-57.5	-67.5	155	12	
2025-11-08T00:00	11000	229	-57.8	-68.4	158	12	
2025-11-08T00:00	11050	227	-58.2	-67.8	160	11	
2025-11-08T00:00	11100	226	-58.5	-67.5	160	10	
2025-11-08T00:00	11150	224	-58.8	-67.6	162	10	
2025-11-08T00:00	11200	222	-59.0	-68.2	167	10	
2025-11-08T00:00	11250	220	-59.2	-68.9	172	10	
2025-11-08T00:00	11300	219	-59.6	-68.7	175	10	
2025-11-08T00:00	11350	217	-59.9	-67.8	176	9	
2025-11-08T00:00	11400	215	-60.2	-66.6	176	9	
2025-11-08T00:00	11450	213	-60.6	-65.0	175	9	
2025-11-08T00:00	11500	212	-60.8	-64.3	173	9	
2025-11-08T00:00	11550	210	-60.9	-64.3	169	9	
2025-11-08T00:00	11600	208	-60.8	-65.4	163	9	
2025-11-08T00:00	11650	207	-60.8	-66.4	158	9	
2025-11-08T00:00	11700	205	-60.3	-68.1	152	9	
2025-11-08T00:00	11750	203	-59.7	-71.1	147	9	
2025-11-08T00:00	11800	202	-59.8	-72.5	144	9	
2025-11-08T00:00	11850	200	-60.1	-71.7	141	9	
2025-11-08T00:00	11900	199	-60.6	-72.4	136	8	
2025-11-08T00:00	11950	197	-60.8	-75.3	131	9	
2025-11-08T00:00	12000	195	-60.3	-78.1	130	9	
2025-11-08T00:00	12050	194	-60.0	-78.9	133	10	
2025-11-08T00:00	12100	192	-59.5	-78.8	135	10	
2025-11-08T00:00	12150	191	-59.2	-79.2	139	10	
2025-11-08T00:00	12200	189	-58.6	-80.1	145	10	
2025-11-08T00:00	12250	188	-57.9	-80.3	150	10	
2025-11-08T00:00	12300	186	-57.3	-79.9	153	11	
2025-11-08T00:00	12350	185	-56.8	-79.5	157	11	
2025-11-08T00:00	12400	183	-56.1	-80.0	158	11	
2025-11-08T00:00	12450	182	-56.0	-80.6	155	11	
2025-11-08T00:00	12500	180	-55.6	-80.6	152	11	
2025-11-08T00:00	12550	179	-55.6	-80.6	150	12	
2025-11-08T00:00	12600	178	-55.8	-80.5	147	13	
2025-11-08T00:00	12650	176	-56.0	-80.7	145	14	
2025-11-08T00:00	12700	175	-55.5	-80.4	145	14	
2025-11-08T00:00	12750	174	-56.0	-80.6	146	14	
2025-11-08T00:00	12800	172	-56.5	-80.6	150	14	
2025-11-08T00:00	12850	171	-56.9	-80.8	156	12	
2025-11-08T00:00	12900	169	-57.4	-80.8	161	12	
2025-11-08T00:00	12950	168	-57.6	-81.0	160	13	
2025-11-08T00:00	13000	167	-57.2	-81.1	156	14	
2025-11-08T00:00	13050	165	-56.8	-81.1	154	14	
2025-11-08T00:00	13100	164	-57.0	-81.2	153	14	
2025-11-08T00:00	13150	163	-57.3	-81.2	151	14	
2025-11-08T00:00	13200	162	-57.7	-81.3	150	14	
2025-11-08T00:00	13250	160	-57.8	-81.4	149	15	
2025-11-08T00:00	13300	159	-57.9	-81.5	149	16	
2025-11-08T00:00	13350	158	-58.1	-81.5	149	15	
2025-11-08T00:00	13400	156	-58.3	-81.7	148	14	
2025-11-08T00:00	13450	155	-58.1	-81.8	148	13	
2025-11-08T00:00	13500	154	-57.8	-81.9	149	12	
2025-11-08T00:00	13550	153	-57.4	-82.0	150	12	
2025-11-08T00:00	13600	152	-57.5	-82.0	151	11	
2025-11-08T00:00	13650	150	-57.7	-81.9	155	11	
2025-11-08T00:00	13700	149	-58.0	-82.0	159	11	
2025-11-08T00:00	13750	148	-58.3	-82.1	165	11	
2025-11-08T00:00	13800	147	-58.6	-82.2	171	11	
2025-11-08T00:00	13850	146	-58.8	-82.3	177	11	
2025-11-08T00:00	13900	145	-59.0	-82.3	181	11	
2025-11-08T00:00	13950	143	-59.4	-82.5	183	11	
2025-11-08T00:00	14000	142	-59.7	-82.6	186	11	
2025-11-08T00:00	14050	141	-59.6	-82.7	190	11	
2025-11-08T00:00	14100	140	-59.4	-82.7	195	10	
2025-11-08T00:00	14150	139	-59.6	-82.9	200	9	
2025-11-08T00:00	14200	138	-59.4	-82.9	201	8	
2025-11-08T00:00	14250	137	-59.3	-83.0	200	6	
2025-11-08T00:00	14300	136	-59.2	-83.0	198	4	
2025-11-08T00:00	14350	135	-59.1	-83.1	200	3	
2025-11-08T00:00	14400	134	-58.5	-83.0	219	3	
2025-11-08T00:00	14450	132	-58.6	-83.0	238	4	
2025-11-08T00:00	14500	131	-58.7	-83.0	248	3	
2025-11-08T00:00	14550	130	-58.8	-83.2	242	3	
2025-11-08T00:00	14600	129	-58.4	-83.1	227	3	
2025-11-08T00:00	14650	128	-58.6	-83.1	212	4	
2025-11-08T00:00	14700	127	-59.0	-83.2	193	4	
2025-11-08T00:00	14750	126	-59.3	-83.2	175	5	
2025-11-08T00:00	14800	125	-59.4	-83.2	164	5	
2025-11-08T00:00	14850	124	-59.6	-83.4	156	6	
2025-11-08T00:00	14900	123	-59.7	-83.5	152	8	
2025-11-08T00:00	14950	122	-59.5	-83.4	151	8	
2025-11-08T00:00	15000	121	-59.5	-83.5	151	9	
2025-11-08T00:00	15050	120	-59.1	-83.5	148	9	
2025-11-08T00:00	15100	119	-59.1	-83.5	148	9	
2025-11-08T00:00	15150	118	-58.9	-83.4	157	9	
2025-11-08T00:00	15200	118	-58.9	-83.4	168	8	
2025-11-08T00:00	15250	117	-59.1	-83.4	180	7	
2025-11-08T00:00	15300	116	-59.5	-83.5	193	8	
2025-11-08T00:00	15350	115	-59.8	-83.6	203	8	
2025-11-08T00:00	15400	114	-60.0	-83.6	210	9	
2025-11-08T00:00	15450	113	-60.3	-83.7	216	8	
2025-11-08T00:00	15500	112	-60.6	-83.8	221	8	
2025-11-08T00:00	15550	111	-61.0	-83.9	225	7	
2025-11-08T00:00	15600	110	-61.4	-84.0	230	7	
2025-11-08T00:00	15650	109	-61.8	-84.1	237	6	
2025-11-08T00:00	15700	108	-62.1	-84.2	249	5	
2025-11-08T00:00	15750	108	-62.4	-84.4	271	4	
2025-11-08T00:00	15800	107	-62.4	-84.4	296	3	
2025-11-08T00:00	15850	106	-62.5	-84.6	317	2	
2025-11-08T00:00	15900	105	-62.1	-84.3	319	3	
2025-11-08T00:00	15950	104	-62.0	-84.4	316	3	
2025-11-08T00:00	16000	103	-62.1	-84.4	317	3	
2025-11-08T00:00	16050	102	-62.0	-84.4	312	2	
2025-11-08T00:00	16100	102	-61.8	-84.5	310	3	
2025-11-08T00:00	16150	101	-60.9	-84.2	320	3	
2025-11-08T00:00	16200	100	-60.9	-84.3	334	2	
2025-11-08T00:00	16250	99	-60.8	-84.2	351	2	
2025-11-08T00:00	16300	98	-61.1	-84.3	33	1	
2025-11-08T00:00	16350	98	-61.4	-84.5	64	1	
2025-11-08T00:00	16400	97	-61.5	-84.5	350	0	
2025-11-08T00:00	16450	96	-61.5	-84.5	299	2	
2025-11-08T00:00	16500	95	-61.6	-84.6	299	4	
2025-11-08T00:00	16550	95	-61.7	-84.6	298	4	
2025-11-08T00:00	16600	94	-61.8	-84.6	296	4	
2025-11-08T00:00	16650	93	-62.0	-84.8	293	3	
2025-11-08T00:00	16700	92	-62.0	-84.8	287	2	
2025-11-08T00:00	16750	92	-62.0	-84.9	268	2	
2025-11-08T00:00	16800	91	-61.8	-84.9	240	2	
2025-11-08T00:00	16850	90	-62.1	-85.1	228	2	
2025-11-08T00:00	16900	89	-62.0	-85.1	247	2	
2025-11-08T00:00	16950	89	-61.9	-85.2	276	2	
2025-11-08T00:00	17000	88	-61.9	-85.3	284	2	
2025-11-08T00:00	17050	87	-61.9	-85.3	271	2	
2025-11-08T00:00	17100	86	-61.9	-85.4	248	2	
2025-11-08T00:00	17150	86	-61.7	-85.4	224	2	
2025-11-08T00:00	17200	85	-61.8	-85.4	207	2	
2025-11-08T00:00	17250	84	-62.2	-85.5	202	2	
2025-11-08T00:00	17300	84	-62.4	-85.5	204	3	
2025-11-08T00:00	17350	83	-62.6	-85.7	211	4	
2025-11-08T00:00	17400	82	-62.6	-85.8	224	5	
2025-11-08T00:00	17450	82	-62.4	-85.7	236	5	
2025-11-08T00:00	17500	81	-62.6	-85.9	244	6	
2025-11-08T00:00	17550	80	-62.5	-86.0	249	7	
2025-11-08T00:00	17600	80	-62.0	-86.0	254	7	
2025-11-08T00:00	17650	79	-61.6	-86.0	260	8	
2025-11-08T00:00	17700	78	-61.4	-86.0	267	8	
2025-11-08T00:00	17750	78	-61.4	-85.9	273	8	
2025-11-08T00:00	17800	77	-61.7	-85.9	281	7	
2025-11-08T00:00	17850	77	-61.9	-86.0	291	8	
2025-11-08T00:00	17900	76	-61.9	-86.1	297	8	
2025-11-08T00:00	17950	75	-61.7	-86.0	296	8	
2025-11-08T00:00	18000	75	-61.9	-86.1	296	7	
2025-11-08T00:00	18050	74	-61.9	-86.1	296	7	
2025-11-08T00:00	18100	74	-61.9	-86.1	296	6	
2025-11-08T00:00	18150	73	-62.2	-86.2	295	6	
2025-11-08T00:00	18200	72	-62.3	-86.3	291	6	
2025-11-08T00:00	18250	72	-62.6	-86.4	287	5	
2025-11-08T00:00	18300	71	-62.7	-86.4	285	4	
2025-11-08T00:00	18350	71	-62.7	-86.5	289	4	
2025-11-08T00:00	18400	70	-62.9	-86.5	295	4	
2025-11-08T00:00	18450	69	-63.2	-86.7	299	4	
2025-11-08T00:00	18500	69	-63.2	-86.7	302	3	
2025-11-08T00:00	18550	68	-63.2	-86.7	307	2	
2025-11-08T00:00	18600	68	-63.3	-86.8	310	2	
2025-11-08T00:00	18650	67	-63.3	-86.8	310	3	
2025-11-08T00:00	18700	67	-63.4	-86.8	312	3	
2025-11-08T00:00	18750	66	-63.7	-87.0	321	2	
2025-11-08T00:00	18800	66	-63.5	-87.1	323	2	
2025-11-08T00:00	18850	65	-63.1	-87.0	312	2	
2025-11-08T00:00	18900	65	-63.1	-87.0	307	2	
2025-11-08T00:00	18950	64	-63.2	-87.0	318	1	
2025-11-08T00:00	19000	64	-63.2	-87.0	76	1	
2025-11-08T00:00	19050	63	-63.5	-87.0	98	1	
2025-11-08T00:00	19100	63	-63.9	-87.1	116	1	
2025-11-08T00:00	19150	62	-64.1	-87.1	130	1	
2025-11-08T00:00	19200	61	-64.2	-87.2	106	1	
2025-11-08T00:00	19250	61	-64.5	-87.3	80	1	
2025-11-08T00:00	19300	60	-64.6	-87.4	48	1	
2025-11-08T00:00	19350	60	-64.6	-87.5	353	0	
2025-11-08T00:00	19400	60	-64.5	-87.6	310	0	
2025-11-08T00:00	19450	59	-64.4	-87.8	240	1	
2025-11-08T00:00	19500	59	-64.2	-87.8	235	2	
2025-11-08T00:00	19550	58	-63.6	-87.6	243	3	
2025-11-08T00:00	19600	58	-63.4	-87.5	253	4	
2025-11-08T00:00	19650	57	-63.5	-87.4	261	5	
2025-11-08T00:00	19700	57	-63.8	-87.4	268	5	
2025-11-08T00:00	19750	56	-64.2	-87.5	273	5	
2025-11-08T00:00	19800	56	-64.5	-87.7	276	5	
2025-11-08T00:00	19850	55	-64.4	-87.8	276	5	
2025-11-08T00:00	19900	55	-64.1	-87.8	274	5	
2025-11-08T00:00	19950	54	-64.1	-87.9	276	5	
2025-11-08T00:00	20000	54	-63.7	-87.8	281	5	
2025-11-08T00:00	20050	54	-63.7		290	5	
2025-11-08T00:00	20100	53	-63.7		303	4	
2025-11-08T00:00	20150	53	-64.1		315	5	
2025-11-08T00:00	20200	52	-64.5		321	5	
2025-11-08T00:00	20250	52	-64.8		319	6	
2025-11-08T00:00	20300	51	-65.0		316	6	
2025-11-08T00:00	20350	51	-65.3		318	6	
2025-11-08T00:00	20400	51	-64.8		325	6	
2025-11-08T00:00	20450	50	-64.7		328	6	
2025-11-08T00:00	20500	50	-64.4		326	5	
2025-11-08T00:00	20550	49	-64.0		322	5	
2025-11-08T00:00	20600	49	-64.3		315	4	
2025-11-08T00:00	20650	49	-64.7		307	4	
2025-11-08T00:00	20700	48	-65.1		289	3	
2025-11-08T00:00	20750	48	-65.2		263	3	
2025-11-08T00:00	20800	47	-65.4		251	3	
2025-11-08T00:00	20850	47	-65.8		248	4	
2025-11-08T00:00	20900	47	-66.0		246	4	
2025-11-08T00:00	20950	46	-66.2		243	5	
2025-11-08T00:00	21000	46	-66.4		244	4	
2025-11-08T00:00	21050	45	-66.3		248	3	
2025-11-08T00:00	21100	45	-66.2		248	3	
2025-11-08T00:00	21150	45	-65.5		244	4	
2025-11-08T00:00	21200	44	-64.9		246	4	
2025-11-08T00:00	21250	44	-65.2		257	4	
2025-11-08T00:00	21300	44	-65.3		272	5	
2025-11-08T00:00	21350	43	-65.0		278	6	
2025-11-08T00:00	21400	43	-64.6		275	7	
2025-11-08T00:00	21450	43	-64.7		269	7	
2025-11-08T00:00	21500	42	-64.9		266	8	
2025-11-08T00:00	21550	42	-65.1		267	8	
2025-11-08T00:00	21600	42	-65.2		272	9	
2025-11-08T00:00	21650	41	-65.2		277	10	
2025-11-08T00:00	21700	41	-65.0		278	10	
2025-11-08T00:00	21750	40	-64.6		278	9	
2025-11-08T00:00	21800	40	-63.8		276	8	
2025-11-08T00:00	21850	40	-63.5		274	6	
2025-11-08T00:00	21900	40	-63.7		272	5	
2025-11-08T00:00	21950	39	-63.8		273	4	
2025-11-08T00:00	22000	39	-63.8		280	4	
2025-11-08T00:00	22050	39	-63.6		285	6	
2025-11-08T00:00	22100	38	-63.4		284	7	
2025-11-08T00:00	22150	38	-63.6		280	7	
2025-11-08T00:00	22200	38	-63.9		278	7	
2025-11-08T00:00	22250	37	-63.7		281	7	
2025-11-08T00:00	22300	37	-63.6		285	7	
2025-11-08T00:00	22350	37	-63.8		289	6	
2025-11-08T00:00	22400	36	-63.9		289	4	
2025-11-08T00:00	22450	36	-64.0		279	4	
2025-11-08T00:00	22500	36	-63.8		266	4	
2025-11-08T00:00	22550	36	-63.7		260	5	
2025-11-08T00:00	22600	35	-63.9		259	6	
2025-11-08T00:00	22650	35	-64.1		260	6	
2025-11-08T00:00	22700	35	-64.1		263	6	
2025-11-08T00:00	22750	34	-64.1		267	6	
2025-11-08T00:00	22800	34	-64.2		270	6	
2025-11-08T00:00	22850	34	-64.2		271	6	
2025-11-08T00:00	22900	34	-64.0		267	5	
2025-11-08T00:00	22950	33	-64.2		261	6	
2025-11-08T00:00	23000	33	-64.1		256	7	
2025-11-08T00:00	23050	33	-63.7		252	8	
2025-11-08T00:00	23100	32	-63.6		250	8	
2025-11-08T00:00	23150	32	-63.8		249	8	
2025-11-08T00:00	23200	32	-64.0		249	8	
2025-11-08T00:00	23250	32	-64.2		247	9	
2025-11-08T00:00	23300	31	-64.4		244	9	
2025-11-08T00:00	23350	31	-64.6		244	9	
2025-11-08T00:00	23400	31	-65.0		246	9	
2025-11-08T00:00	23450	31	-65.3		249	9	
2025-11-08T00:00	23500	30	-65.6		251	9	
2025-11-08T00:00	23550	30	-65.8		255	9	
2025-11-08T00:00	23600	30	-65.8		261	10	
2025-11-08T00:00	23650	30	-65.9		268	10	
2025-11-08T00:00	23700	29	-66.2		276	11	
2025-11-08T00:00	23750	29	-66.2		284	12	
2025-11-08T00:00	23800	29	-66.1		292	12	
2025-11-08T00:00	23850	29	-66.3		297	12	
2025-11-08T00:00	23900	28	-66.6		301	12	
2025-11-08T00:00	23950	28	-66.9		303	11	
2025-11-08T00:00	24000	28	-67.2		300	10	
2025-11-08T00:00	24050	28	-66.7		293	9	
2025-11-08T00:00	24100	28	-66.4		287	9	
2025-11-08T00:00	24150	27	-66.3		286	9	
2025-11-08T00:00	24200	27	-65.9		288	10	
2025-11-08T00:00	24250	27	-65.6		287	10	
2025-11-08T00:00	24300	27	-65.4		281	10	
2025-11-08T00:00	24350	26	-65.0		273	10	
2025-11-08T00:00	24400	26	-65.2		266	11	
2025-11-08T00:00	24450	26	-65.5		262	12	
2025-11-08T00:00	24500	26	-65.6		259	13	
2025-11-08T00:00	24550	26	-65.8		259	14	
2025-11-08T00:00	24600	25	-65.6		262	15	
2025-11-08T00:00	24650	25	-65.6		266	15	
2025-11-08T00:00	24700	25	-65.6		270	15	
2025-11-08T00:00	24750	25	-65.6		273	14	
2025-11-08T00:00	24800	25	-65.6		275	13	
2025-11-08T00:00	24850	24	-65.5		274	11	
2025-11-08T00:00	24900	24	-65.3		269	10	
2025-11-08T00:00	24950	24	-64.9		265	10	
2025-11-08T00:00	25000	24	-64.5		266	11	
2025-11-08T00:00	25050	24	-63.8		271	11	
2025-11-08T00:00	25100	23	-63.9		278	12	
2025-11-08T00:00	25150	23	-64.1		285	13	
2025-11-08T00:00	25200	23	-64.1		291	13	
2025-11-08T00:00	25250	23	-64.1		296	13	
2025-11-08T00:00	25300	23	-64.5		298	12	
2025-11-08T00:00	25350	22	-64.5		295	12	
2025-11-08T00:00	25400	22	-63.9		289	11	
2025-11-08T00:00	25450	22	-63.9		282	11	
2025-11-08T00:00	25500	22	-63.7		274	11	
2025-11-08T00:00	25550	22	-63.5		268	12	
2025-11-08T00:00	25600	22	-63.5		263	13	
2025-11-08T00:00	25650	21	-63.6		261	13	
2025-11-08T00:00	25700	21	-63.6		263	13	
2025-11-08T00:00	25750	21	-63.4		266	14	
2025-11-08T00:00	25800	21	-63.2		269	14	
2025-11-08T00:00	25850	21	-63.5		270	15	
2025-11-08T00:00	25900	21	-63.7		267	16	
2025-11-08T00:00	25950	20	-63.4		263	16	
2025-11-08T00:00	26000	20	-63.2		259	16	
2025-11-08T00:00	26050	20	-63.4		257	15	
2025-11-08T00:00	26100	20	-63.4		256	15	
2025-11-08T00:00	26150	20	-63.5		257	15	
2025-11-08T00:00	26200	20	-63.8		259	15	
2025-11-08T00:00	26250	19	-64.1		263	15	
2025-11-08T00:00	26300	19	-64.1		266	15	
2025-11-08T00:00	26350	19	-64.3		268	16	
2025-11-08T00:00	26400	19	-64.6		269	17	
2025-11-08T00:00	26450	19	-64.8		270	18	
2025-11-08T00:00	26500	19	-64.7		270	19	
2025-11-08T00:00	26550	18	-64.2		270	20	
2025-11-08T00:00	26600	18	-64.1		270	21	
2025-11-08T00:00	26650	18	-64.3		270	21	
2025-11-08T00:00	26700	18	-64.6		270	21	
2025-11-08T00:00	26750	18	-64.8		270	20	
2025-11-08T00:00	26800	18	-65.0		268	20	
2025-11-08T00:00	26850	18	-65.1		266	20	
2025-11-08T00:00	26900	17	-65.3		264	20	
2025-11-08T00:00	26950	17	-65.3		262	20	
2025-11-08T00:00	27000	17	-65.1		262	20	
2025-11-08T00:00	27050	17	-64.4		262	20	
2025-11-08T00:00	27100	17	-64.3		262	21	
2025-11-08T00:00	27150	17	-64.3		262	21	
2025-11-08T00:00	27200	17	-64.3		261	22	
2025-11-08T00:00	27250	16	-64.3		261	22	
2025-11-08T00:00	27300	16	-63.8		262	23	
2025-11-08T00:00	27350	16	-63.6		261	23	
2025-11-08T00:00	27400	16	-63.7		259	22	
2025-11-08T00:00	27450	16	-63.8		257	22	
2025-11-08T00:00	27500	16	-63.9		257	23	
2025-11-08T00:00	27550	16	-63.7		259	25	
2025-11-08T00:00	27600	16	-63.5		262	26	
2025-11-08T00:00	27650	15	-63.5		263	26	
2025-11-08T00:00	27700	15	-63.4		263	25	
2025-11-08T00:00	27750	15	-63.1		261	25	
2025-11-08T00:00	27800	15	-63.1		260	25	
2025-11-08T00:00	27850	15	-62.7		260	26	
2025-11-08T00:00	27900	15	-62.3		262	27	
2025-11-08T00:00	27950	15	-62.3		264	27	
2025-11-08T00:00	28000	15	-62.6		266	27	
2025-11-08T00:00	28050	14	-62.3		268	27	
2025-11-08T00:00	28100	14	-62.4		269	28	
2025-11-08T00:00	28150	14	-62.7		270	28	
2025-11-08T00:00	28200	14	-62.8		272	28	
2025-11-08T00:00	28250	14	-62.8		274	27	
2025-11-08T00:00	28300	14	-63.0		275	26	
2025-11-08T00:00	28350	14	-63.1		277	25	
2025-11-08T00:00	28400	14	-63.3		278	24	
2025-11-08T00:00	28450	14	-63.6		277	23	
2025-11-08T00:00	28500	13	-63.1		275	22	
2025-11-08T00:00	28550	13	-63.2		271	21	
2025-11-08T00:00	28600	13	-63.3		268	21	
2025-11-08T00:00	28650	13	-63.4		265	21	
2025-11-08T00:00	28700	13	-63.1		262	22	
2025-11-08T00:00	28750	13	-62.6		261	23	
2025-11-08T00:00	28800	13	-62.2		261	23	
2025-11-08T00:00	28850	13	-61.7		261	23	
2025-11-08T00:00	28900	13	-61.5		261	23	
2025-11-08T00:00	28950	12	-61.7		259	23	
2025-11-08T00:00	29000	12	-61.7		258	24	
2025-11-08T00:00	29050	12	-61.6		258	24	
2025-11-08T00:00	29100	12	-61.5		260	25	
2025-11-08T00:00	29150	12	-61.7		261	26	
2025-11-08T00:00	29200	12	-61.8		262	26	
2025-11-08T00:00	29250	12	-61.7		261	27	
2025-11-08T00:00	29300	12	-61.5		260	26	
2025-11-08T00:00	29350	12	-61.3		260	26	
2025-11-08T00:00	29400	12	-61.2		261	25	
2025-11-08T00:00	29450	12	-61.2		262	26	
2025-11-08T00:00	29500	11	-61.1		264	26	
2025-11-08T00:00	29550	11	-60.6		265	26	
2025-11-08T00:00	29600	11	-60.4		267	26	
2025-11-08T00:00	29650	11	-60.5		268	26	
2025-11-08T00:00	29700	11	-60.4		268	26	
2025-11-08T00:00	29750	11	-60.3		266	26	
2025-11-08T00:00	29800	11	-60.4		264	27	
2025-11-08T00:00	29850	11	-60.6		263	29	
2025-11-08T00:00	29900	11	-60.4		263	30	
2025-11-08T00:00	29950	11	-60.3		264	31	
2025-11-08T00:00	30000	11	-60.3		265	31	
2025-11-08T00:00	30050	10	-60.5		266	31	
2025-11-08T00:00	30100	10	-60.8		266	31	
2025-11-08T00:00	30150	10	-60.8		266	32	
2025-11-08T00:00	30200	10	-60.9		267	32	
2025-11-08T00:00	30250	10	-61.2		268	33	
2025-11-08T00:00	30300	10	-61.1		269	34	
2025-11-08T00:00	30350	10	-61.0		270	35	
2025-11-08T00:00	30400	10	-60.9		270	35	
2025-11-08T00:00	30450	10	-61.1		269	34	
2025-11-08T00:00	30500	10	-61.5		267	34	
2025-11-08T00:00	30550	10	-61.7		266	34	
2025-11-08T00:00	30600	10	-61.7		265	34	
2025-11-08T00:00	30650	9	-61.7		266	34	
2025-11-08T00:00	30700	9	-61.6		267	34	
2025-11-08T00:00	30750	9	-61.4		267	34	
2025-11-08T00:00	30800	9	-61.4		268	34	
2025-11-08T00:00	30850	9	-61.2		269	35	
2025-11-08T00:00	30900	9	-61.2		269	36	
2025-11-08T00:00	30950	9	-61.3		269	36	
2025-11-08T00:00	31000	9	-61.2		268	37	
2025-11-08T00:00	31050	9	-60.9		266	37	
2025-11-08T00:00	31100	9	-60.9		264	37	
2025-11-08T00:00	31150	9	-60.8		263	37	
2025-11-08T00:00	31200	9	-60.7		262	37	
2025-11-08T00:00	31250	9	-60.5		263	36	
2025-11-08T00:00	31300	9	-60.7		264	37	
2025-11-08T00:00	31350	8	-60.4		265	37	
2025-11-08T00:00	31400	8	-60.2		266	38	
2025-11-08T00:00	31450	8	-60.2		268	39	
2025-11-08T00:00	31500	8	-60.1		269	39	
2025-11-08T00:00	31550	8	-60.2		270	39	
2025-11-08T00:00	31600	8	-60.0		269	38	
2025-11-08T00:00	31650	8	-59.9		268	37	
2025-11-08T00:00	31700	8	-60.1		269	37	
2025-11-08T00:00	31750	8	-60.1		270	37	
2025-11-08T00:00	31800	8	-60.3		270	37	
2025-11-08T00:00	31850	8	-60.2		269	37	
2025-11-08T00:00	31900	8	-60.2		268	38	
2025-11-08T00:00	31950	8	-60.2		268	38	
2025-11-08T00:00	32000	8	-60.2		268	39	
2025-11-08T00:00	32050	8	-60.3		268	38	
2025-11-08T00:00	32100	8	-60.4		268	38	
2025-11-08T00:00	32150	7	-60.6		267	38	
2025-11-08T00:00	32200	7	-60.7		266	37	
2025-11-08T00:00	32250	7	-60.9		264	37	
2025-11-08T00:00	32300	7	-61.1		262	37	
2025-11-08T00:00	32350	7	-61.1		260	37	
2025-11-08T00:00	32400	7	-61.0		258	38	
2025-11-08T00:00	32450	7	-60.8		257	40	
2025-11-08T00:00	32500	7	-60.5		257	42	
2025-11-08T00:00	32550	7	-60.3		257	43	
2025-11-08T00:00	32600	7	-59.8		257	45	
2025-11-08T00:00	32650	7	-59.5		258	45	
2025-11-08T00:00	32700	7	-59.6		260	45	
2025-11-08T00:00	32750	7	-59.2		261	44	
2025-11-08T00:00	32800	7	-59.5		262	43	
2025-11-08T00:00	32850	7	-59.8		263	43	
2025-11-08T00:00	32900	7	-60.1		264	43	
2025-11-08T00:00	32950	7	-60.0		264	44	
2025-11-08T00:00	33000	7	-59.7		263	44	
2025-11-08T00:00	33050	6	-59.2		262	45	
2025-11-08T00:00	33100	6	-59.0		261	45	
2025-11-08T00:00	33150	6	-58.7		261	47	
2025-11-08T00:00	33200	6	-58.7		261	48	
2025-11-08T00:00	33250	6	-58.4		262	50	
2025-11-08T00:00	33300	6	-58.2		264	50	
2025-11-08T00:00	33350	6	-58.0		266	50	
2025-11-08T00:00	33400	6	-58.0		267	50	
2025-11-08T00:00	33450	6	-57.9		266	49	
2025-11-08T00:00	33500	6	-57.9		265	48	
2025-11-08T00:00	33550	6	-57.8		263	48	
2025-11-08T00:00	33600	6	-57.8		262	48	
2025-11-08T00:00	33650	6	-57.8		262	49	
2025-11-08T00:00	33700	6	-57.7		262	50	
2025-11-08T00:00	33750	6	-57.7		263	50	
2025-11-08T00:00	33800	6	-57.4		265	51	
2025-11-08T00:00	33850	6	-57.0		266	51	
2025-11-08T00:00	33900	6	-56.5		268	51	
2025-11-08T00:00	33950	6	-56.2		270	52	
2025-11-08T00:00	34000	6	-56.1		271	53	
2025-11-08T00:00	34050	6	-55.8		272	54	
2025-11-08T00:00	34100	5	-55.5		272	55	
2025-11-08T00:00	34150	5	-55.1		272	55	
2025-11-08T00:00	34200	5	-54.6		272	55	
2025-11-08T00:00	34250	5	-54.1		272	55	
2025-11-08T00:00	34300	5	-53.6		273	56	
2025-11-08T00:00	34350	5	-53.6		273	56	
2025-11-08T00:00	34400	5	-53.9		273	56	
2025-11-08T00:00	34450	5	-53.0		273	55	
2025-11-08T00:00	34500	5	-52.6		273	55	
2025-11-08T00:00	34550	5	-52.6		273	54	
2025-11-08T00:00	34600	5	-52.7		274	53	
2025-11-08T00:00	34650	5	-52.8		274	52	
2025-11-08T00:00	34700	5	-52.9		275	51	
2025-11-08T00:00	34750	5	-53.0		275	50	
2025-11-08T00:00	34800	5	-52.5		275	50	
2025-11-08T00:00	34850	5	-52.1		274	50	
2025-11-08T00:00	34900	5	-52.1		274	51	
2025-11-08T00:00	34950	5	-52.3		274	51	
2025-11-08T00:00	35000	5	-52.6		274	51	
2025-11-08T00:00	35050	5	-52.8		273	51	
2025-11-08T00:00	35100	5	-52.7		272	50	
2025-11-08T00:00	35150	5	-52.4		271	49	
2025-11-08T00:00	35200	5	-52.2		270	49	
2025-11-08T00:00	35250	5	-51.8		268	50	
2025-11-08T00:00	35300	5	-51.5		267	51	
2025-11-08T00:00	35350	5	-51.4		267	52	
2025-11-08T00:00	35400	4	-50.8		267	53	
2025-11-08T00:00	35450	4	-50.2		268	53	
2025-11-08T00:00	35500	4	-50.0		268	53	
2025-11-08T00:00	35550	4	-49.9		267	53	
2025-11-08T00:00	35600	4	-49.7		266	52	
2025-11-08T00:00	35650	4	-49.7		265	52	
2025-11-08T00:00	35700	4	-49.8		265	51	
2025-11-08T00:00	35750	4	-49.4		265	51	
2025-11-08T00:00	35800	4	-49.0		265	52	
2025-11-08T00:00	35850	4	-48.2		265	54	
2025-11-08T00:00	35900	4	-47.6		266	54	
2025-11-08T00:00	35950	4	-47.2		265	55	
2025-11-08T00:00	36000	4	-47.3		265	57	
2025-11-08T00:00	36050	4	-47.2		266	58	
2025-11-08T00:00	36100	4	-47.2		266	59	
2025-11-08T00:00	36150	4	-46.8		266	59	
2025-11-08T00:00	36200	4	-46.6		266	59	
2025-11-08T12:00	491	957	4.7	4.7	33	0	
2025-11-08T12:00	501	956	4.9	4.8	169	1	
2025-11-08T12:00	520	954	4.3	4.3	168	1	
2025-11-08T12:00	540	951	4.1	4.1	166	1	
2025-11-08T12:00	560	949	3.9	3.9	159	1	
2025-11-08T12:00	580	947	3.7	3.7	144	1	
2025-11-08T12:00	600	944	3.6	3.6	124	0	
2025-11-08T12:00	620	942	3.5	3.5	105	0	
2025-11-08T12:00	640	940	3.4	3.4	93	0	
2025-11-08T12:00	660	937	3.3	3.3	90	0	
2025-11-08T12:00	680	935	3.2	3.2	90	0	
2025-11-08T12:00	700	933	3.5	3.2	92	0	
2025-11-08T12:00	720	930	4.9	2.6	84	0	
2025-11-08T12:00	740	928	5.7	3.1	81	0	
2025-11-08T12:00	760	926	6.0	3.0	82	1	
2025-11-08T12:00	780	924	6.4	3.3	84	1	
2025-11-08T12:00	800	921	6.9	2.8	85	1	
2025-11-08T12:00	820	919	7.4	2.6	87	2	
2025-11-08T12:00	840	917	7.7	2.3	87	2	
2025-11-08T12:00	860	915	7.9	2.4	87	3	
2025-11-08T12:00	880	913	8.2	2.8	87	3	
2025-11-08T12:00	900	910	8.4	2.4	86	4	
2025-11-08T12:00	920	908	8.7	1.8	85	4	
2025-11-08T12:00	940	906	8.9	1.4	83	4	
2025-11-08T12:00	960	904	8.8	1.5	80	4	
2025-11-08T12:00	980	901	8.7	1.3	77	4	
2025-11-08T12:00	1000	899	8.5	1.1	73	4	
2025-11-08T12:00	1020	897	8.4	0.8	67	4	
2025-11-08T12:00	1040	895	8.3	0.4	61	4	
2025-11-08T12:00	1060	893	8.2	0.7	56	4	
2025-11-08T12:00	1080	891	8.2	1.7	52	4	
2025-11-08T12:00	1100	888	8.0	2.0	50	5	
2025-11-08T12:00	1120	886	7.9	1.8	47	5	
2025-11-08T12:00	1140	884	7.9	1.9	46	5	
2025-11-08T12:00	1160	882	7.8	1.7	43	5	
2025-11-08T12:00	1180	880	7.6	1.8	40	5	
2025-11-08T12:00	1200	878	7.5	1.6	38	5	
2025-11-08T12:00	1220	876	7.4	0.7	35	5	
2025-11-08T12:00	1240	874	7.3	0.2	32	5	
2025-11-08T12:00	1260	871	7.2	0.3	28	5	
2025-11-08T12:00	1280	869	7.1	-0.1	25	5	
2025-11-08T12:00	1300	867	6.9	-0.7	23	4	
2025-11-08T12:00	1320	865	6.9	-2.0	21	4	
2025-11-08T12:00	1340	863	6.9	-5.1	19	4	
2025-11-08T12:00	1360	861	6.7	-6.9	16	4	
2025-11-08T12:00	1380	859	6.6	-8.2	15	4	
2025-11-08T12:00	1400	857	6.5	-8.6	13	4	
2025-11-08T12:00	1420	855	6.3	-8.9	13	4	
2025-11-08T12:00	1440	852	6.2	-9.3	13	4	
2025-11-08T12:00	1460	850	5.9	-7.6	15	4	
2025-11-08T12:00	1480	848	5.7	-3.5	16	4	
2025-11-08T12:00	1500	846	5.4	-0.9	18	4	
2025-11-08T12:00	1520	844	5.2	-0.9	19	4	
2025-11-08T12:00	1540	842	5.0	-1.0	20	4	
2025-11-08T12:00	1560	840	4.9	-1.0	20	4	
2025-11-08T12:00	1580	838	4.7	-0.9	18	4	
2025-11-08T12:00	1600	836	4.5	-0.8	16	4	
2025-11-08T12:00	1620	834	4.3	-0.9	14	4	
2025-11-08T12:00	1640	832	4.2	-1.1	10	4	
2025-11-08T12:00	1660	830	4.1	-1.2	5	4	
2025-11-08T12:00	1680	828	4.0	-1.5	1	4	
2025-11-08T12:00	1700	826	3.8	-1.8	358	4	
2025-11-08T12:00	1720	824	3.6	-1.8	355	4	
2025-11-08T12:00	1740	822	3.5	-2.4	352	4	
2025-11-08T12:00	1760	820	3.3	-2.7	350	4	
2025-11-08T12:00	1780	818	3.2	-3.0	349	4	
2025-11-08T12:00	1800	816	3.0	-3.9	347	4	
2025-11-08T12:00	1820	814	2.9	-3.9	346	4	
2025-11-08T12:00	1840	812	2.7	-3.8	346	4	
2025-11-08T12:00	1860	810	2.6	-4.0	347	4	
2025-11-08T12:00	1880	808	2.4	-4.0	349	4	
2025-11-08T12:00	1900	806	2.2	-4.1	351	4	
2025-11-08T12:00	1920	804	2.0	-4.2	354	4	
2025-11-08T12:00	1940	802	1.8	-4.3	356	5	
2025-11-08T12:00	1960	800	1.6	-4.5	358	5	
2025-11-08T12:00	1980	797	1.5	-4.9	359	5	
2025-11-08T12:00	2000	796	1.4	-5.5	1	5	
2025-11-08T12:00	2020	794	1.4	-5.9	2	5	
2025-11-08T12:00	2040	792	1.4	-6.9	3	5	
2025-11-08T12:00	2060	790	1.3	-6.9	3	6	
2025-11-08T12:00	2080	788	1.2	-6.6	3	6	
2025-11-08T12:00	2100	786	1.1	-6.4	2	6	
2025-11-08T12:00	2120	784	1.0	-5.2	1	6	
2025-11-08T12:00	2140	782	1.0	-4.3	1	6	
2025-11-08T12:00	2160	780	0.9	-3.4	1	5	
2025-11-08T12:00	2180	778	0.8	-3.9	2	5	
2025-11-08T12:00	2200	776	0.8	-5.1	3	5	
2025-11-08T12:00	2220	774	0.7	-4.3	5	5	
2025-11-08T12:00	2240	772	0.6	-4.0	8	5	
2025-11-08T12:00	2260	770	0.6	-3.7	10	5	
2025-11-08T12:00	2280	768	0.5	-3.9	11	6	
2025-11-08T12:00	2300	767	0.5	-4.5	12	6	
2025-11-08T12:00	2320	765	0.4	-5.5	12	6	
2025-11-08T12:00	2340	763	0.4	-6.7	13	6	
2025-11-08T12:00	2360	761	0.5	-8.3	13	6	
2025-11-08T12:00	2380	759	0.5	-9.0	14	5	
2025-11-08T12:00	2400	757	0.5	-9.1	17	5	
2025-11-08T12:00	2420	755	0.5	-9.5	20	5	
2025-11-08T12:00	2440	753	0.5	-9.6	23	5	
2025-11-08T12:00	2460	751	0.4	-9.6	26	5	
2025-11-08T12:00	2480	750	0.3	-9.4	28	4	
2025-11-08T12:00	2500	748	0.2	-9.5	28	4	
2025-11-08T12:00	2520	746	0.0	-9.5	28	4	
2025-11-08T12:00	2540	744	-0.1	-9.6	28	4	
2025-11-08T12:00	2560	742	-0.2	-9.9	26	4	
2025-11-08T12:00	2580	740	-0.4	-10.0	25	4	
2025-11-08T12:00	2600	738	-0.5	-10.1	24	3	
2025-11-08T12:00	2620	737	-0.7	-10.1	23	3	
2025-11-08T12:00	2640	735	-0.8	-10.1	24	3	
2025-11-08T12:00	2660	733	-1.0	-10.2	27	3	
2025-11-08T12:00	2680	731	-1.2	-10.2	30	3	
2025-11-08T12:00	2700	729	-1.4	-10.3	34	3	
2025-11-08T12:00	2720	728	-1.5	-10.2	39	3	
2025-11-08T12:00	2740	726	-1.7	-10.4	43	3	
2025-11-08T12:00	2760	724	-1.8	-10.4	44	3	
2025-11-08T12:00	2780	722	-2.0	-10.4	45	3	
2025-11-08T12:00	2800	720	-2.2	-10.4	44	3	
2025-11-08T12:00	2820	718	-2.4	-10.6	43	3	
2025-11-08T12:00	2840	716	-2.5	-11.1	42	3	
2025-11-08T12:00	2860	715	-2.7	-11.3	42	3	
2025-11-08T12:00	2880	713	-2.8	-11.8	44	3	
2025-11-08T12:00	2900	711	-3.0	-12.0	49	3	
2025-11-08T12:00	2920	709	-3.1	-12.1	55	2	
2025-11-08T12:00	2940	708	-3.3	-12.0	60	2	
2025-11-08T12:00	2960	706	-3.4	-12.1	61	3	
2025-11-08T12:00	2980	704	-3.6	-12.2	61	3	
2025-11-08T12:00	3000	702	-3.8	-12.1	59	3	
2025-11-08T12:00	3020	700	-3.9	-12.1	56	3	
2025-11-08T12:00	3040	699	-4.0	-11.9	54	3	
2025-11-08T12:00	3060	697	-4.2	-10.3	54	3	
2025-11-08T12:00	3080	695	-4.3	-10.3	54	3	
2025-11-08T12:00	3100	693	-4.5	-10.9	55	3	
2025-11-08T12:00	3120	692	-4.6	-11.6	57	3	
2025-11-08T12:00	3140	690	-4.8	-11.1	58	3	
2025-11-08T12:00	3160	688	-4.9	-10.8	58	4	
2025-11-08T12:00	3180	686	-5.0	-11.5	58	4	
2025-11-08T12:00	3200	685	-5.1	-11.9	57	4	
2025-11-08T12:00	3220	683	-5.2	-12.3	56	4	
2025-11-08T12:00	3240	681	-5.2	-13.0	55	4	
2025-11-08T12:00	3260	679	-5.4	-13.0	55	4	
2025-11-08T12:00	3280	678	-5.5	-13.3	57	4	
2025-11-08T12:00	3300	676	-5.7	-13.7	60	3	
2025-11-08T12:00	3320	674	-5.8	-14.0	63	3	
2025-11-08T12:00	3340	672	-5.9	-14.1	66	3	
2025-11-08T12:00	3360	671	-6.1	-14.2	68	2	
2025-11-08T12:00	3380	669	-6.2	-14.7	68	2	
2025-11-08T12:00	3400	667	-6.3	-14.9	66	2	
2025-11-08T12:00	3420	666	-6.2	-15.9	61	2	
2025-11-08T12:00	3440	664	-6.3	-16.6	58	2	
2025-11-08T12:00	3460	662	-6.4	-16.9	54	2	
2025-11-08T12:00	3480	661	-6.4	-18.3	52	2	
2025-11-08T12:00	3500	659	-6.2	-20.0	51	2	
2025-11-08T12:00	3520	657	-5.9	-22.2	52	2	
2025-11-08T12:00	3540	655	-5.6	-23.3	54	2	
2025-11-08T12:00	3560	654	-5.3	-24.0	57	3	
2025-11-08T12:00	3580	652	-5.4	-24.1	61	3	
2025-11-08T12:00	3600	651	-5.5	-24.2	66	3	
2025-11-08T12:00	3620	649	-5.4	-24.4	73	4	
2025-11-08T12:00	3640	647	-5.4	-24.5	82	4	
2025-11-08T12:00	3660	645	-5.5	-24.7	88	4	
2025-11-08T12:00	3680	644	-5.6	-24.8	93	4	
2025-11-08T12:00	3700	642	-5.7	-25.2	96	4	
2025-11-08T12:00	3720	641	-5.8	-25.5	98	3	
2025-11-08T12:00	3740	639	-6.0	-25.7	96	3	
2025-11-08T12:00	3760	637	-6.2	-26.1	92	3	
2025-11-08T12:00	3780	636	-6.2	-26.3	85	2	
2025-11-08T12:00	3800	634	-6.4	-26.4	74	2	
2025-11-08T12:00	3820	633	-6.5	-26.9	60	2	
2025-11-08T12:00	3840	631	-6.4	-27.0	48	1	
2025-11-08T12:00	3860	629	-6.5	-27.4	40	2	
2025-11-08T12:00	3880	628	-6.4	-28.1	37	2	
2025-11-08T12:00	3900	626	-6.5	-28.4	38	2	
2025-11-08T12:00	3920	624	-6.6	-29.1	41	2	
2025-11-08T12:00	3940	623	-6.6	-29.3	45	2	
2025-11-08T12:00	3960	621	-6.7	-29.6	49	3	
2025-11-08T12:00	3980	620	-6.8	-29.8	56	3	
2025-11-08T12:00	4000	618	-6.9	-29.9	63	3	
2025-11-08T12:00	4020	616	-7.0	-29.9	73	3	
2025-11-08T12:00	4040	615	-7.2	-29.9	81	3	
2025-11-08T12:00	4060	613	-7.3	-30.1	88	3	
2025-11-08T12:00	4080	612	-7.5	-30.3	93	3	
2025-11-08T12:00	4100	610	-7.6	-30.5	97	3	
2025-11-08T12:00	4120	609	-7.6	-30.7	99	3	
2025-11-08T12:00	4140	607	-7.7	-31.1	98	3	
2025-11-08T12:00	4160	605	-7.8	-31.2	92	2	
2025-11-08T12:00	4180	604	-7.9	-31.2	80	2	
2025-11-08T12:00	4200	602	-8.1	-31.1	64	2	
2025-11-08T12:00	4220	601	-8.3	-31.2	51	2	
2025-11-08T12:00	4240	599	-8.4	-31.3	42	3	
2025-11-08T12:00	4260	598	-8.5	-31.5	38	3	
2025-11-08T12:00	4280	596	-8.6	-31.5	40	3	
2025-11-08T12:00	4300	595	-8.8	-31.5	43	3	
2025-11-08T12:00	4320	593	-8.9	-31.5	47	3	
2025-11-08T12:00	4340	591	-9.1	-31.6	51	3	
2025-11-08T12:00	4360	590	-9.2	-31.7	56	3	
2025-11-08T12:00	4380	588	-9.3	-32.0	63	3	
2025-11-08T12:00	4400	587	-9.3	-33.2	71	3	
2025-11-08T12:00	4420	586	-9.2	-32.8	84	2	
2025-11-08T12:00	4440	584	-9.3	-32.6	103	2	
2025-11-08T12:00	4460	583	-9.4	-32.7	117	2	
2025-11-08T12:00	4480	581	-9.5	-32.3	127	2	
2025-11-08T12:00	4500	579	-9.6	-31.5	133	2	
2025-11-08T12:00	4520	578	-9.7	-29.1	134	2	
2025-11-08T12:00	4540	576	-9.9	-27.0	130	2	
2025-11-08T12:00	4560	575	-10.1	-23.6	121	2	
2025-11-08T12:00	4580	573	-10.2	-22.3	106	1	
2025-11-08T12:00	4600	572	-10.4	-22.6	89	1	
2025-11-08T12:00	4620	571	-10.6	-22.5	78	2	
2025-11-08T12:00	4640	569	-10.8	-22.5	73	2	
2025-11-08T12:00	4660	568	-11.0	-22.5	69	2	
2025-11-08T12:00	4680	566	-11.2	-22.5	67	2	
2025-11-08T12:00	4700	565	-11.4	-22.4	64	2	
2025-11-08T12:00	4720	563	-11.6	-22.4	60	3	
2025-11-08T12:00	4740	562	-11.7	-22.5	55	3	
2025-11-08T12:00	4760	560	-11.9	-22.5	51	3	
2025-11-08T12:00	4780	559	-12.1	-22.9	49	4	
2025-11-08T12:00	4800	557	-12.2	-23.3	49	4	
2025-11-08T12:00	4820	556	-12.4	-23.6	50	4	
2025-11-08T12:00	4840	554	-12.6	-23.8	52	4	
2025-11-08T12:00	4860	553	-12.8	-24.1	56	4	
2025-11-08T12:00	4880	551	-13.0	-24.3	61	3	
2025-11-08T12:00	4900	550	-13.2	-24.4	69	3	
2025-11-08T12:00	4920	548	-13.4	-24.3	78	3	
2025-11-08T12:00	4940	547	-13.6	-24.6	86	3	
2025-11-08T12:00	4960	546	-13.8	-24.8	91	3	
2025-11-08T12:00	4980	544	-14.0	-24.8	92	3	
2025-11-08T12:00	5000	543	-14.1	-24.6	90	2	
2025-11-08T12:00	5020	541	-14.3	-24.6	86	2	
2025-11-08T12:00	5040	540	-14.5	-24.6	79	2	
2025-11-08T12:00	5060	538	-14.7	-24.5	69	2	
2025-11-08T12:00	5080	537	-14.9	-24.3	60	2	
2025-11-08T12:00	5100	536	-15.1	-24.2	54	3	
2025-11-08T12:00	5120	534	-15.3	-24.1	50	3	
2025-11-08T12:00	5140	533	-15.5	-23.9	48	3	
2025-11-08T12:00	5160	531	-15.7	-23.9	45	4	
2025-11-08T12:00	5180	530	-15.9	-23.8	42	4	
2025-11-08T12:00	5200	529	-16.1	-23.7	38	4	
2025-11-08T12:00	5220	527	-16.3	-23.8	34	4	
2025-11-08T12:00	5240	526	-16.5	-23.9	29	4	
2025-11-08T12:00	5260	524	-16.7	-24.0	25	4	
2025-11-08T12:00	5280	523	-16.8	-24.1	22	4	
2025-11-08T12:00	5300	522	-17.0	-24.2	21	3	
2025-11-08T12:00	5320	520	-17.3	-24.3	20	3	
2025-11-08T12:00	5340	519	-17.5	-24.4	23	3	
2025-11-08T12:00	5360	517	-17.6	-24.4	29	2	
2025-11-08T12:00	5380	516	-17.8	-24.4	40	2	
2025-11-08T12:00	5400	515	-18.0	-24.4	51	2	
2025-11-08T12:00	5420	513	-18.2	-24.4	57	2	
2025-11-08T12:00	5440	512	-18.4	-24.5	59	3	
2025-11-08T12:00	5460	511	-18.6	-24.6	57	3	
2025-11-08T12:00	5480	509	-18.8	-24.7	53	3	
2025-11-08T12:00	5500	508	-19.0	-24.9	48	4	
2025-11-08T12:00	5520	506	-19.2	-25.1	45	4	
2025-11-08T12:00	5540	505	-19.4	-25.2	43	4	
2025-11-08T12:00	5560	504	-19.5	-25.5	42	4	
2025-11-08T12:00	5580	502	-19.7	-25.7	41	4	
2025-11-08T12:00	5600	501	-19.9	-25.5	40	4	
2025-11-08T12:00	5620	500	-20.1	-25.6	40	4	
2025-11-08T12:00	5640	498	-20.2	-25.8	40	4	
2025-11-08T12:00	5660	497	-20.3	-26.4	40	4	
2025-11-08T12:00	5680	496	-20.4	-26.9	40	4	
2025-11-08T12:00	5700	495	-20.5	-27.6	41	4	
2025-11-08T12:00	5720	493	-20.5	-28.6	42	4	
2025-11-08T12:00	5740	492	-20.7	-29.0	42	4	
2025-11-08T12:00	5760	490	-20.8	-29.2	41	3	
2025-11-08T12:00	5780	489	-21.0	-29.5	37	3	
2025-11-08T12:00	5800	488	-21.1	-30.2	31	3	
2025-11-08T12:00	5820	486	-21.2	-31.3	24	3	
2025-11-08T12:00	5840	485	-21.2	-31.8	19	4	
2025-11-08T12:00	5860	484	-21.4	-31.6	17	4	
2025-11-08T12:00	5880	482	-21.6	-31.8	17	4	
2025-11-08T12:00	5900	481	-21.7	-32.6	18	4	
2025-11-08T12:00	5920	480	-21.8	-34.1	20	3	
2025-11-08T12:00	5940	479	-21.9	-36.2	21	3	
2025-11-08T12:00	5960	477	-21.9	-39.3	21	3	
2025-11-08T12:00	5980	476	-21.9	-41.4	19	3	
2025-11-08T12:00	6000	475	-22.0	-43.0	13	2	
2025-11-08T12:00	6020	473	-22.0	-43.4	8	2	
2025-11-08T12:00	6040	472	-22.0	-43.2	5	2	
2025-11-08T12:00	6060	471	-22.2	-43.5	3	2	
2025-11-08T12:00	6080	469	-22.3	-43.6	5	1	
2025-11-08T12:00	6100	468	-22.5	-43.7	12	1	
2025-11-08T12:00	6120	467	-22.6	-44.0	44	0	
2025-11-08T12:00	6140	466	-22.8	-44.1	105	0	
2025-11-08T12:00	6160	464	-23.0	-44.3	128	0	
2025-11-08T12:00	6180	463	-23.1	-44.5	125	0	
2025-11-08T12:00	6200	462	-23.3	-44.5	110	0	
2025-11-08T12:00	6220	461	-23.5	-44.6	81	0	
2025-11-08T12:00	6240	459	-23.7	-44.9	52	0	
2025-11-08T12:00	6260	458	-23.8	-45.3	40	0	
2025-11-08T12:00	6280	457	-23.9	-45.9	170	0	
2025-11-08T12:00	6300	456	-24.0	-46.6	166	0	
2025-11-08T12:00	6320	454	-24.1	-47.1	156	0	
2025-11-08T12:00	6340	453	-24.1	-47.7	144	1	
2025-11-08T12:00	6360	452	-24.1	-48.5	131	2	
2025-11-08T12:00	6380	451	-24.2	-48.3	123	2	
2025-11-08T12:00	6400	449	-24.4	-48.0	118	2	
2025-11-08T12:00	6420	448	-24.5	-47.5	112	3	
2025-11-08T12:00	6440	447	-24.6	-47.4	104	4	
2025-11-08T12:00	6460	446	-24.7	-47.6	95	4	
2025-11-08T12:00	6480	445	-24.7	-48.5	86	4	
2025-11-08T12:00	6500	443	-24.7	-49.5	78	5	
2025-11-08T12:00	6520	442	-24.7	-49.8	73	5	
2025-11-08T12:00	6540	441	-24.7	-49.6	70	5	
2025-11-08T12:00	6560	440	-24.8	-49.4	68	5	
2025-11-08T12:00	6580	438	-25.0	-49.4	67	5	
2025-11-08T12:00	6600	437	-25.2	-49.5	67	5	
2025-11-08T12:00	6620	436	-25.3	-49.6	68	6	
2025-11-08T12:00	6640	435	-25.3	-49.9	69	6	
2025-11-08T12:00	6660	434	-25.5	-50.5	71	6	
2025-11-08T12:00	6680	432	-25.6	-51.2	72	6	
2025-11-08T12:00	6700	431	-25.7	-50.5	73	6	
2025-11-08T12:00	6720	430	-25.9	-46.7	74	6	
2025-11-08T12:00	6740	429	-26.0	-43.1	76	6	
2025-11-08T12:00	6760	428	-26.2	-43.0	77	6	
2025-11-08T12:00	6780	426	-26.4	-43.5	78	6	
2025-11-08T12:00	6800	425	-26.5	-45.1	78	6	
2025-11-08T12:00	6820	424	-26.7	-46.5	79	6	
2025-11-08T12:00	6840	423	-26.8	-47.2	78	6	
2025-11-08T12:00	6860	422	-27.0	-44.8	78	6	
2025-11-08T12:00	6880	421	-27.2	-44.4	77	6	
2025-11-08T12:00	6900	419	-27.4	-44.4	74	6	
2025-11-08T12:00	6920	418	-27.6	-45.6	72	6	
2025-11-08T12:00	6940	417	-27.7	-46.9	70	6	
2025-11-08T12:00	6960	416	-27.9	-46.6	68	6	
2025-11-08T12:00	6980	415	-28.1	-46.2	65	6	
2025-11-08T12:00	7000	414	-28.2	-45.8	63	6	
2025-11-08T12:00	7020	413	-28.4	-45.3	61	5	
2025-11-08T12:00	7040	411	-28.6	-44.1	58	5	
2025-11-08T12:00	7060	410	-28.8	-43.1	56	5	
2025-11-08T12:00	7080	409	-29.0	-42.9	54	5	
2025-11-08T12:00	7100	408	-29.2	-42.6	52	5	
2025-11-08T12:00	7120	407	-29.3	-43.1	52	5	
2025-11-08T12:00	7140	406	-29.5	-43.0	51	6	
2025-11-08T12:00	7160	404	-29.6	-42.7	51	6	
2025-11-08T12:00	7180	403	-29.8	-42.3	51	6	
2025-11-08T12:00	7200	402	-29.9	-42.2	51	6	
2025-11-08T12:00	7220	401	-30.1	-42.2	50	6	
2025-11-08T12:00	7240	400	-30.2	-42.2	47	6	
2025-11-08T12:00	7260	399	-30.4	-42.5	44	6	
2025-11-08T12:00	7280	398	-30.6	-42.7	40	7	
2025-11-08T12:00	7300	397	-30.7	-43.2	37	7	
2025-11-08T12:00	7320	396	-30.9	-43.4	35	7	
2025-11-08T12:00	7340	394	-31.0	-43.5	33	7	
2025-11-08T12:00	7360	393	-31.2	-43.5	31	7	
2025-11-08T12:00	7380	392	-31.3	-43.9	30	8	
2025-11-08T12:00	7400	391	-31.5	-44.0	29	8	
2025-11-08T12:00	7420	390	-31.6	-44.1	28	7	
2025-11-08T12:00	7440	389	-31.8	-43.6	26	7	
2025-11-08T12:00	7460	388	-31.9	-43.5	25	7	
2025-11-08T12:00	7480	387	-32.1	-43.3	24	7	
2025-11-08T12:00	7500	385	-32.2	-42.4	22	6	
2025-11-08T12:00	7520	384	-32.4	-42.5	21	6	
2025-11-08T12:00	7540	383	-32.6	-42.7	20	6	
2025-11-08T12:00	7560	382	-32.8	-42.7	19	6	
2025-11-08T12:00	7580	381	-33.0	-42.6	19	6	
2025-11-08T12:00	7600	380	-33.2	-42.5	18	6	
2025-11-08T12:00	7620	379	-33.4	-42.4	18	5	
2025-11-08T12:00	7640	378	-33.6	-42.4	18	5	
2025-11-08T12:00	7660	377	-33.7	-42.3	18	5	
2025-11-08T12:00	7680	376	-33.9	-42.4	19	5	
2025-11-08T12:00	7700	375	-34.0	-43.2	20	4	
2025-11-08T12:00	7720	374	-34.0	-44.2	21	4	
2025-11-08T12:00	7740	373	-34.2	-44.5	24	4	
2025-11-08T12:00	7760	372	-34.3	-44.2	26	4	
2025-11-08T12:00	7780	371	-34.5	-44.1	29	4	
2025-11-08T12:00	7800	369	-34.6	-44.1	31	5	
2025-11-08T12:00	7820	368	-34.7	-44.5	32	5	
2025-11-08T12:00	7840	367	-34.8	-44.8	31	5	
2025-11-08T12:00	7860	366	-35.0	-44.7	31	5	
2025-11-08T12:00	7880	365	-35.1	-44.5	30	6	
2025-11-08T12:00	7900	364	-35.1	-44.7	30	6	
2025-11-08T12:00	7920	363	-35.2	-44.5	30	6	
2025-11-08T12:00	7940	362	-35.4	-44.6	30	6	
2025-11-08T12:00	7960	361	-35.5	-44.5	31	5	
2025-11-08T12:00	7980	360	-35.7	-44.5	33	5	
2025-11-08T12:00	8000	359	-35.9	-44.3	35	5	
2025-11-08T12:00	8020	358	-36.1	-44.4	37	5	
2025-11-08T12:00	8040	357	-36.3	-44.6	39	5	
2025-11-08T12:00	8060	356	-36.4	-44.6	42	5	
2025-11-08T12:00	8080	355	-36.6	-44.8	43	5	
2025-11-08T12:00	8100	354	-36.7	-44.9	45	6	
2025-11-08T12:00	8120	353	-36.9	-44.9	46	6	
2025-11-08T12:00	8140	352	-37.1	-44.9	47	6	
2025-11-08T12:00	8160	351	-37.2	-45.0	47	6	
2025-11-08T12:00	8180	350	-37.4	-45.1	47	6	
2025-11-08T12:00	8200	349	-37.6	-45.2	47	6	
2025-11-08T12:00	8220	348	-37.8	-45.4	47	6	
2025-11-08T12:00	8240	347	-37.9	-45.7	47	6	
2025-11-08T12:00	8260	346	-38.1	-46.3	49	6	
2025-11-08T12:00	8280	345	-38.2	-46.4	51	5	
2025-11-08T12:00	8300	344	-38.4	-46.4	55	5	
2025-11-08T12:00	8320	343	-38.6	-46.3	58	5	
2025-11-08T12:00	8340	342	-38.8	-46.3	61	5	
2025-11-08T12:00	8360	341	-39.0	-46.5	64	5	
2025-11-08T12:00	8380	340	-39.2	-46.5	65	5	
2025-11-08T12:00	8400	339	-39.3	-46.5	65	6	
2025-11-08T12:00	8420	338	-39.5	-46.7	65	6	
2025-11-08T12:00	8440	337	-39.7	-46.6	63	6	
2025-11-08T12:00	8460	336	-39.9	-46.6	61	6	
2025-11-08T12:00	8480	335	-40.1	-46.6	59	6	
2025-11-08T12:00	8500	334	-40.2	-46.6	57	6	
2025-11-08T12:00	8520	333	-40.4	-46.7	55	6	
2025-11-08T12:00	8540	332	-40.6	-46.9	54	6	
2025-11-08T12:00	8560	331	-40.8	-46.9	53	6	
2025-11-08T12:00	8580	330	-41.0	-47.2	52	6	
2025-11-08T12:00	8600	329	-41.2	-47.5	53	6	
2025-11-08T12:00	8620	328	-41.3	-48.1	53	6	
2025-11-08T12:00	8640	327	-41.5	-48.7	53	6	
2025-11-08T12:00	8660	326	-41.6	-48.4	54	6	
2025-11-08T12:00	8680	325	-41.8	-48.0	55	6	
2025-11-08T12:00	8700	324	-42.0	-48.2	55	6	
2025-11-08T12:00	8720	323	-42.2	-48.7	56	6	
2025-11-08T12:00	8740	322	-42.3	-49.3	57	6	
2025-11-08T12:00	8760	321	-42.5	-48.9	58	6	
2025-11-08T12:00	8780	320	-42.7	-47.9	60	6	
2025-11-08T12:00	8800	319	-42.9	-47.4	61	6	
2025-11-08T12:00	8820	318	-43.0	-47.3	61	6	
2025-11-08T12:00	8840	318	-43.2	-48.0	62	6	
2025-11-08T12:00	8860	317	-43.4	-48.8	62	6	
2025-11-08T12:00	8880	316	-43.6	-49.5	62	6	
2025-11-08T12:00	8900	315	-43.8	-50.1	61	6	
2025-11-08T12:00	8920	314	-43.9	-50.6	60	6	
2025-11-08T12:00	8940	313	-44.1	-50.6	59	6	
2025-11-08T12:00	8960	312	-44.3	-51.0	58	6	
2025-11-08T12:00	8980	311	-44.4	-51.1	57	6	
2025-11-08T12:00	9000	310	-44.5	-51.7	56	6	
2025-11-08T12:00	9020	309	-44.7	-52.6	54	6	
2025-11-08T12:00	9040	308	-44.8	-53.3	54	7	
2025-11-08T12:00	9060	307	-45.0	-53.5	53	7	
2025-11-08T12:00	9080	306	-45.1	-53.0	53	7	
2025-11-08T12:00	9100	305	-45.3	-53.0	53	7	
2025-11-08T12:00	9120	304	-45.4	-52.7	53	7	
2025-11-08T12:00	9140	304	-45.6	-51.8	53	7	
2025-11-08T12:00	9160	303	-45.7	-50.8	54	8	
2025-11-08T12:00	9180	302	-45.8	-50.0	55	8	
2025-11-08T12:00	9200	301	-46.0	-50.3	55	8	
2025-11-08T12:00	9220	300	-46.1	-50.6	55	8	
2025-11-08T12:00	9240	299	-46.3	-50.7	55	8	
2025-11-08T12:00	9260	298	-46.5	-50.8	55	8	
2025-11-08T12:00	9280	297	-46.6	-51.1	55	8	
2025-11-08T12:00	9300	296	-46.8	-52.0	54	8	
2025-11-08T12:00	9320	295	-46.8	-54.4	52	8	
2025-11-08T12:00	9340	295	-46.8	-57.5	51	7	
2025-11-08T12:00	9360	294	-47.0	-58.2	49	7	
2025-11-08T12:00	9380	293	-47.1	-57.5	48	7	
2025-11-08T12:00	9400	292	-47.3	-57.5	47	7	
2025-11-08T12:00	9420	291	-47.4	-57.7	46	7	
2025-11-08T12:00	9440	290	-47.6	-57.7	45	7	
2025-11-08T12:00	9460	289	-47.7	-57.6	45	6	
2025-11-08T12:00	9480	288	-47.9	-57.6	44	6	
2025-11-08T12:00	9500	288	-48.1	-57.5	44	6	
2025-11-08T12:00	9520	287	-48.2	-57.6	44	6	
2025-11-08T12:00	9540	286	-48.3	-57.8	44	6	
2025-11-08T12:00	9560	285	-48.4	-58.4	45	6	
2025-11-08T12:00	9580	284	-48.6	-58.9	45	6	
2025-11-08T12:00	9600	283	-48.7	-59.1	46	6	
2025-11-08T12:00	9620	282	-48.9	-58.9	46	6	
2025-11-08T12:00	9640	281	-49.0	-58.9	46	6	
2025-11-08T12:00	9660	281	-49.1	-59.0	46	7	
2025-11-08T12:00	9680	280	-49.3	-59.2	45	7	
2025-11-08T12:00	9700	279	-49.5	-59.8	44	7	
2025-11-08T12:00	9720	278	-49.6	-60.2	43	7	
2025-11-08T12:00	9740	277	-49.8	-60.1	42	7	
2025-11-08T12:00	9760	276	-49.9	-59.7	42	7	
2025-11-08T12:00	9780	275	-50.1	-59.4	41	7	
2025-11-08T12:00	9800	275	-50.2	-59.4	41	7	
2025-11-08T12:00	9820	274	-50.4	-59.7	42	7	
2025-11-08T12:00	9840	273	-50.6	-59.6	44	7	
2025-11-08T12:00	9860	272	-50.7	-59.1	45	7	
2025-11-08T12:00	9880	271	-50.9	-58.7	47	7	
2025-11-08T12:00	9900	270	-51.0	-58.7	50	7	
2025-11-08T12:00	9920	270	-51.2	-58.3	51	7	
2025-11-08T12:00	9940	269	-51.3	-57.1	52	7	
2025-11-08T12:00	9960	268	-51.5	-56.4	53	7	
2025-11-08T12:00	9980	267	-51.5	-56.8	53	7	
2025-11-08T12:00	10000	266	-51.6	-57.7	52	7	
2025-11-08T12:00	10018	266	-51.7	-58.1	52	7	
2025-11-08T12:00	10050	264	-51.9	-58.6	52	7	
2025-11-08T12:00	10100	262	-52.3	-59.2	55	7	
2025-11-08T12:00	10150	260	-52.6	-58.8	60	7	
2025-11-08T12:00	10200	258	-52.9	-58.5	62	7	
2025-11-08T12:00	10250	256	-53.2	-59.7	62	7	
2025-11-08T12:00	10300	254	-53.5	-60.4	63	7	
2025-11-08T12:00	10350	252	-53.8	-61.2	65	7	
2025-11-08T12:00	10400	250	-54.0	-63.0	67	6	
2025-11-08T12:00	10450	248	-54.4	-62.8	67	6	
2025-11-08T12:00	10500	246	-54.8	-63.1	66	6	
2025-11-08T12:00	10550	244	-55.0	-64.1	63	6	
2025-11-08T12:00	10600	243	-55.3	-64.3	62	5	
2025-11-08T12:00	10650	241	-55.6	-64.0	61	5	
2025-11-08T12:00	10700	239	-56.0	-64.0	56	4	
2025-11-08T12:00	10750	237	-56.3	-63.9	48	4	
2025-11-08T12:00	10800	235	-56.6	-64.1	40	3	
2025-11-08T12:00	10850	233	-56.8	-64.1	41	3	
2025-11-08T12:00	10900	231	-56.9	-63.4	48	3	
2025-11-08T12:00	10950	230	-57.0	-63.9	54	3	
2025-11-08T12:00	11000	228	-57.1	-64.9	55	3	
2025-11-08T12:00	11050	226	-57.4	-65.3	57	3	
2025-11-08T12:00	11100	224	-57.9	-65.3	63	3	
2025-11-08T12:00	11150	222	-58.1	-65.6	69	4	
2025-11-08T12:00	11200	221	-58.6	-66.1	76	5	
2025-11-08T12:00	11250	219	-58.9	-66.6	85	5	
2025-11-08T12:00	11300	217	-59.0	-66.9	93	6	
2025-11-08T12:00	11350	215	-59.1	-66.9	97	6	
2025-11-08T12:00	11400	214	-59.2	-66.5	98	6	
2025-11-08T12:00	11450	212	-58.9	-66.3	99	5	
2025-11-08T12:00	11500	210	-58.6	-66.7	105	5	
2025-11-08T12:00	11550	209	-57.6	-67.2	114	4	
2025-11-08T12:00	11600	207	-56.9	-70.0	122	3	
2025-11-08T12:00	11650	205	-56.5	-74.2	128	2	
2025-11-08T12:00	11700	204	-56.5	-76.2	137	1	
2025-11-08T12:00	11750	202	-55.6	-76.4	183	0	
2025-11-08T12:00	11800	201	-55.1	-76.2	256	1	
2025-11-08T12:00	11850	199	-55.2	-75.6	267	1	
2025-11-08T12:00	11900	198	-55.5	-75.2	276	0	
2025-11-08T12:00	11950	196	-55.5	-74.8	82	0	
2025-11-08T12:00	12000	194	-55.3	-74.9	98	1	
2025-11-08T12:00	12050	193	-55.2	-75.9	106	2	
2025-11-08T12:00	12100	191	-54.4	-76.9	112	3	
2025-11-08T12:00	12150	190	-54.3	-77.3	120	4	
2025-11-08T12:00	12200	188	-54.6	-77.3	127	5	
2025-11-08T12:00	12250	187	-54.6	-77.4	128	6	
2025-11-08T12:00	12300	186	-54.1	-77.5	122	7	
2025-11-08T12:00	12350	184	-54.0	-78.0	119	8	
2025-11-08T12:00	12400	183	-53.4	-78.6	122	9	
2025-11-08T12:00	12450	181	-53.2	-78.8	125	10	
2025-11-08T12:00	12500	180	-53.2	-78.7	130	10	
2025-11-08T12:00	12550	178	-53.4	-79.1	141	9	
2025-11-08T12:00	12600	177	-53.3	-79.3	152	9	
2025-11-08T12:00	12650	176	-53.7	-79.5	159	9	
2025-11-08T12:00	12700	174	-54.2	-79.6	164	9	
2025-11-08T12:00	12750	173	-54.6	-79.6	169	8	
2025-11-08T12:00	12800	172	-55.0	-79.7	172	8	
2025-11-08T12:00	12850	170	-55.5	-79.8	172	8	
2025-11-08T12:00	12900	169	-55.9	-80.0	171	8	
2025-11-08T12:00	12950	168	-56.3	-80.2	169	7	
2025-11-08T12:00	13000	166	-56.6	-80.5	161	6	
2025-11-08T12:00	13050	165	-56.6	-80.7	151	7	
2025-11-08T12:00	13100	164	-56.5	-80.8	143	7	
2025-11-08T12:00	13150	162	-56.6	-80.9	137	8	
2025-11-08T12:00	13200	161	-56.8	-81.0	136	7	
2025-11-08T12:00	13250	160	-57.1	-81.1	139	7	
2025-11-08T12:00	13300	159	-57.5	-81.4	142	6	
2025-11-08T12:00	13350	157	-57.7	-81.5	144	5	
2025-11-08T12:00	13400	156	-57.9	-81.5	149	5	
2025-11-08T12:00	13450	155	-58.2	-81.6	154	5	
2025-11-08T12:00	13500	154	-58.5	-81.8	154	5	
2025-11-08T12:00	13550	152	-58.8	-81.9	150	5	
2025-11-08T12:00	13600	151	-59.0	-82.0	142	5	
2025-11-08T12:00	13650	150	-59.4	-82.1	138	5	
2025-11-08T12:00	13700	149	-59.6	-82.2	138	6	
2025-11-08T12:00	13750	148	-59.6	-82.3	142	6	
2025-11-08T12:00	13800	146	-59.3	-82.4	152	6	
2025-11-08T12:00	13850	145	-58.9	-82.4	162	7	
2025-11-08T12:00	13900	144	-59.1	-82.5	168	7	
2025-11-08T12:00	13950	143	-59.3	-82.5	173	8	
2025-11-08T12:00	14000	142	-59.4	-82.6	179	8	
2025-11-08T12:00	14050	141	-59.5	-82.8	185	7	
2025-11-08T12:00	14100	140	-58.8	-82.8	200	5	
2025-11-08T12:00	14150	138	-58.2	-82.8	224	4	
2025-11-08T12:00	14200	137	-58.0	-82.7	247	3	
2025-11-08T12:00	14250	136	-58.4	-82.7	271	3	
2025-11-08T12:00	14300	135	-58.5	-82.7	286	3	
2025-11-08T12:00	14350	134	-58.6	-82.9	287	3	
2025-11-08T12:00	14400	133	-58.3	-82.9	285	4	
2025-11-08T12:00	14450	132	-57.9	-82.8	282	3	
2025-11-08T12:00	14500	131	-58.1	-82.9	274	3	
2025-11-08T12:00	14550	130	-58.0	-82.9	263	1	
2025-11-08T12:00	14600	129	-57.9	-82.9	112	0	
2025-11-08T12:00	14650	128	-58.1	-82.9	92	1	
2025-11-08T12:00	14700	127	-58.1	-82.9	94	2	
2025-11-08T12:00	14750	126	-58.3	-83.0	96	3	
2025-11-08T12:00	14800	125	-58.6	-83.1	98	4	
2025-11-08T12:00	14850	124	-58.7	-83.2	104	4	
2025-11-08T12:00	14900	123	-58.3	-83.2	117	4	
2025-11-08T12:00	14950	122	-58.1	-83.1	129	5	
2025-11-08T12:00	15000	121	-58.3	-83.2	138	5	
2025-11-08T12:00	15050	120	-58.6	-83.2	144	5	
2025-11-08T12:00	15100	119	-58.9	-83.3	153	5	
2025-11-08T12:00	15150	118	-59.1	-83.3	167	4	
2025-11-08T12:00	15200	117	-59.3	-83.4	182	4	
2025-11-08T12:00	15250	116	-59.4	-83.5	194	4	
2025-11-08T12:00	15300	115	-59.7	-83.5	205	4	
2025-11-08T12:00	15350	114	-60.1	-83.6	219	4	
2025-11-08T12:00	15400	114	-60.4	-83.7	232	4	
2025-11-08T12:00	15450	113	-60.8	-83.8	239	4	
2025-11-08T12:00	15500	112	-61.2	-83.9	249	3	
2025-11-08T12:00	15550	111	-61.5	-84.1	271	3	
2025-11-08T12:00	15600	110	-61.4	-84.2	300	3	
2025-11-08T12:00	15650	109	-61.1	-84.1	325	2	
2025-11-08T12:00	15700	108	-61.4	-84.2	347	2	
2025-11-08T12:00	15750	107	-61.7	-84.4	359	2	
2025-11-08T12:00	15800	106	-62.0	-84.5	360	0	
2025-11-08T12:00	15850	106	-61.7	-84.4	173	1	
2025-11-08T12:00	15900	105	-61.3	-84.4	155	1	
2025-11-08T12:00	15950	104	-61.2	-84.4	130	1	
2025-11-08T12:00	16000	103	-61.3	-84.4	105	1	
2025-11-08T12:00	16050	102	-61.3	-84.4	95	1	
2025-11-08T12:00	16100	101	-61.2	-84.4	266	0	
2025-11-08T12:00	16150	101	-61.2	-84.5	291	1	
2025-11-08T12:00	16200	100	-61.2	-84.7	312	1	
2025-11-08T12:00	16250	99	-61.1	-85.0	301	2	
2025-11-08T12:00	16300	98	-59.9	-84.8	280	3	
2025-11-08T12:00	16350	97	-59.4	-84.6	271	4	
2025-11-08T12:00	16400	97	-59.7	-84.7	267	4	
2025-11-08T12:00	16450	96	-59.8	-84.7	266	5	
2025-11-08T12:00	16500	95	-59.9	-84.7	266	4	
2025-11-08T12:00	16550	94	-59.8	-84.6	269	4	
2025-11-08T12:00	16600	94	-60.0	-84.7	274	3	
2025-11-08T12:00	16650	93	-60.3	-84.7	280	3	
2025-11-08T12:00	16700	92	-60.4	-84.7	285	3	
2025-11-08T12:00	16750	91	-60.6	-84.8	281	2	
2025-11-08T12:00	16800	91	-60.8	-84.8	265	3	
2025-11-08T12:00	16850	90	-60.9	-84.8	254	4	
2025-11-08T12:00	16900	89	-61.0	-84.7	251	4	
2025-11-08T12:00	16950	88	-61.4	-84.8	250	3	
2025-11-08T12:00	17000	88	-61.7	-84.9	244	3	
2025-11-08T12:00	17050	87	-61.6	-84.9	237	2	
2025-11-08T12:00	17100	86	-61.9	-85.1	232	3	
2025-11-08T12:00	17150	86	-62.0	-85.1	229	3	
2025-11-08T12:00	17200	85	-62.2	-85.2	227	4	
2025-11-08T12:00	17250	84	-62.2	-85.3	229	5	
2025-11-08T12:00	17300	84	-62.1	-85.3	232	5	
2025-11-08T12:00	17350	83	-62.1	-85.4	234	6	
2025-11-08T12:00	17400	82	-62.2	-85.4	237	7	
2025-11-08T12:00	17450	82	-62.3	-85.4	240	7	
2025-11-08T12:00	17500	81	-62.6	-85.5	243	7	
2025-11-08T12:00	17550	80	-62.8	-85.7	244	7	
2025-11-08T12:00	17600	80	-62.6	-85.7	242	8	
2025-11-08T12:00	17650	79	-62.5	-85.7	242	8	
2025-11-08T12:00	17700	78	-62.5	-85.8	244	8	
2025-11-08T12:00	17750	78	-62.6	-85.9	247	9	
2025-11-08T12:00	17800	77	-62.7	-85.9	250	9	
2025-11-08T12:00	17850	76	-62.7	-86.1	256	8	
2025-11-08T12:00	17900	76	-62.3	-85.9	263	8	
2025-11-08T12:00	17950	75	-62.3	-86.0	270	8	
2025-11-08T12:00	18000	75	-62.6	-86.1	277	7	
2025-11-08T12:00	18050	74	-62.7	-86.1	284	7	
2025-11-08T12:00	18100	73	-62.5	-86.2	287	7	
2025-11-08T12:00	18150	73	-62.3	-86.2	290	7	
2025-11-08T12:00	18200	72	-62.3	-86.2	294	7	
2025-11-08T12:00	18250	72	-62.5	-86.2	299	6	
2025-11-08T12:00	18300	71	-62.7	-86.2	306	5	
2025-11-08T12:00	18350	70	-62.9	-86.2	312	4	
2025-11-08T12:00	18400	70	-63.2	-86.4	314	4	
2025-11-08T12:00	18450	69	-63.2	-86.5	305	4	
2025-11-08T12:00	18500	69	-63.1	-86.6	288	5	
2025-11-08T12:00	18550	68	-63.0	-86.7	276	4	
2025-11-08T12:00	18600	68	-62.7	-86.5	274	4	
2025-11-08T12:00	18650	67	-62.8	-86.6	282	3	
2025-11-08T12:00	18700	67	-62.9	-86.6	294	2	
2025-11-08T12:00	18750	66	-63.2	-86.7	308	2	
2025-11-08T12:00	18800	66	-63.3	-86.7	324	2	
2025-11-08T12:00	18850	65	-63.2	-86.7	333	1	
2025-11-08T12:00	18900	64	-63.4	-86.9	321	1	
2025-11-08T12:00	18950	64	-63.4	-87.0	294	2	
2025-11-08T12:00	19000	63	-63.1	-86.9	277	3	
2025-11-08T12:00	19050	63	-63.1	-86.9	271	4	
2025-11-08T12:00	19100	62	-63.2	-86.9	271	5	
2025-11-08T12:00	19150	62	-63.4	-87.0	278	6	
2025-11-08T12:00	19200	61	-63.5	-87.0	286	6	
2025-11-08T12:00	19250	61	-63.4	-87.1	292	6	
2025-11-08T12:00	19300	60	-63.1	-87.0	292	5	
2025-11-08T12:00	19350	60	-63.3	-87.0	291	4	
2025-11-08T12:00	19400	59	-63.5	-87.1	293	3	
2025-11-08T12:00	19450	59	-63.6	-87.0	304	3	
2025-11-08T12:00	19500	58	-63.9	-87.0	322	3	
2025-11-08T12:00	19550	58	-64.3	-87.2	333	3	
2025-11-08T12:00	19600	58	-64.6	-87.4	332	3	
2025-11-08T12:00	19650	57	-64.4	-87.5	306	2	
2025-11-08T12:00	19700	57	-64.3	-87.5	269	2	
2025-11-08T12:00	19750	56	-64.2	-87.6	262	2	
2025-11-08T12:00	19800	56	-64.1	-87.5	270	1	
2025-11-08T12:00	19850	55	-63.9	-87.4	282	1	
2025-11-08T12:00	19900	55	-64.0	-87.5	282	2	
2025-11-08T12:00	19950	54	-64.2	-87.5	266	2	
2025-11-08T12:00	20000	54	-64.3	-87.6	249	4	
2025-11-08T12:00	20050	53	-64.3		239	5	
2025-11-08T12:00	20100	53	-64.0		233	7	
2025-11-08T12:00	20150	53	-63.6		229	7	
2025-11-08T12:00	20200	52	-63.4		228	8	
2025-11-08T12:00	20250	52	-63.4		232	8	
2025-11-08T12:00	20300	51	-63.1		241	9	
2025-11-08T12:00	20350	51	-63.0		250	9	
2025-11-08T12:00	20400	50	-63.2		259	10	
2025-11-08T12:00	20450	50	-63.2		267	10	
2025-11-08T12:00	20500	50	-63.2		273	9	
2025-11-08T12:00	20550	49	-63.3		279	9	
2025-11-08T12:00	20600	49	-63.5		286	8	
2025-11-08T12:00	20650	48	-63.7		294	7	
2025-11-08T12:00	20700	48	-63.8		300	7	
2025-11-08T12:00	20750	48	-63.6		299	6	
2025-11-08T12:00	20800	47	-63.5		288	5	
2025-11-08T12:00	20850	47	-63.4		270	4	
2025-11-08T12:00	20900	47	-63.4		255	5	
2025-11-08T12:00	20950	46	-63.5		249	5	
2025-11-08T12:00	21000	46	-63.8		247	6	
2025-11-08T12:00	21050	45	-64.2		245	6	
2025-11-08T12:00	21100	45	-64.6		243	7	
2025-11-08T12:00	21150	45	-64.9		242	8	
2025-11-08T12:00	21200	44	-65.0		241	8	
2025-11-08T12:00	21250	44	-65.2		243	8	
2025-11-08T12:00	21300	44	-65.2		246	8	
2025-11-08T12:00	21350	43	-65.1		249	8	
2025-11-08T12:00	21400	43	-65.1		252	8	
2025-11-08T12:00	21450	43	-65.2		259	7	
2025-11-08T12:00	21500	42	-65.1		269	7	
2025-11-08T12:00	21550	42	-65.2		277	7	
2025-11-08T12:00	21600	41	-65.4		278	7	
2025-11-08T12:00	21650	41	-65.4		274	6	
2025-11-08T12:00	21700	41	-65.6		272	6	
2025-11-08T12:00	21750	40	-65.5		277	5	
2025-11-08T12:00	21800	40	-65.5		286	5	
2025-11-08T12:00	21850	40	-65.8		292	5	
2025-11-08T12:00	21900	39	-66.0		288	5	
2025-11-08T12:00	21950	39	-66.1		276	5	
2025-11-08T12:00	22000	39	-66.1		267	5	
2025-11-08T12:00	22050	39	-65.5		264	4	
2025-11-08T12:00	22100	38	-65.4		262	3	
2025-11-08T12:00	22150	38	-65.6		252	3	
2025-11-08T12:00	22200	38	-65.1		244	5	
2025-11-08T12:00	22250	37	-64.9		244	7	
2025-11-08T12:00	22300	37	-64.6		246	9	
2025-11-08T12:00	22350	37	-64.5		248	10	
2025-11-08T12:00	22400	36	-64.5		250	11	
2025-11-08T12:00	22450	36	-64.8		253	12	
2025-11-08T12:00	22500	36	-65.1		258	12	
2025-11-08T12:00	22550	35	-64.8		263	12	
2025-11-08T12:00	22600	35	-65.0		267	13	
2025-11-08T12:00	22650	35	-65.3		271	13	
2025-11-08T12:00	22700	35	-65.4		275	13	
2025-11-08T12:00	22750	34	-65.5		278	12	
2025-11-08T12:00	22800	34	-65.4		279	11	
2025-11-08T12:00	22850	34	-65.4		275	9	
2025-11-08T12:00	22900	34	-65.6		269	8	
2025-11-08T12:00	22950	33	-65.6		266	8	
2025-11-08T12:00	23000	33	-65.2		269	9	
2025-11-08T12:00	23050	33	-65.1		275	10	
2025-11-08T12:00	23100	32	-65.1		280	10	
2025-11-08T12:00	23150	32	-65.3		281	10	
2025-11-08T12:00	23200	32	-65.4		279	10	
2025-11-08T12:00	23250	32	-65.1		276	9	
2025-11-08T12:00	23300	31	-64.9		275	9	
2025-11-08T12:00	23350	31	-65.0		275	9	
2025-11-08T12:00	23400	31	-65.1		274	10	
2025-11-08T12:00	23450	31	-65.0		271	11	
2025-11-08T12:00	23500	30	-64.4		269	11	
2025-11-08T12:00	23550	30	-63.4		271	10	
2025-11-08T12:00	23600	30	-63.6		273	10	
2025-11-08T12:00	23650	30	-63.9		272	9	
2025-11-08T12:00	23700	29	-63.7		268	10	
2025-11-08T12:00	23750	29	-63.5		265	11	
2025-11-08T12:00	23800	29	-63.5		266	12	
2025-11-08T12:00	23850	29	-63.7		269	13	
2025-11-08T12:00	23900	28	-63.6		271	13	
2025-11-08T12:00	23950	28	-63.3		270	13	
2025-11-08T12:00	24000	28	-62.8		268	13	
2025-11-08T12:00	24050	28	-62.6		266	12	
2025-11-08T12:00	24100	28	-62.7		268	11	
2025-11-08T12:00	24150	27	-62.9		271	11	
2025-11-08T12:00	24200	27	-62.9		274	10	
2025-11-08T12:00	24250	27	-63.1		274	10	
2025-11-08T12:00	24300	27	-63.1		272	9	
2025-11-08T12:00	24350	26	-63.2		271	9	
2025-11-08T12:00	24400	26	-63.5		273	9	
2025-11-08T12:00	24450	26	-63.9		278	10	
2025-11-08T12:00	24500	26	-64.1		281	11	
2025-11-08T12:00	24550	26	-64.1		283	11	
2025-11-08T12:00	24600	25	-64.0		283	12	
2025-11-08T12:00	24650	25	-63.9		284	11	
2025-11-08T12:00	24700	25	-64.2		284	10	
2025-11-08T12:00	24750	25	-64.5		281	10	
2025-11-08T12:00	24800	25	-64.5		276	10	
2025-11-08T12:00	24850	24	-64.4		270	11	
2025-11-08T12:00	24900	24	-64.2		266	12	
2025-11-08T12:00	24950	24	-64.2		263	14	
2025-11-08T12:00	25000	24	-64.1		261	15	
2025-11-08T12:00	25050	24	-63.8		259	17	
2025-11-08T12:00	25100	23	-63.5		259	18	
2025-11-08T12:00	25150	23	-63.2		258	19	
2025-11-08T12:00	25200	23	-63.2		258	19	
2025-11-08T12:00	25250	23	-63.3		258	20	
2025-11-08T12:00	25300	23	-63.4		259	21	
2025-11-08T12:00	25350	22	-63.9		260	20	
2025-11-08T12:00	25400	22	-63.8		261	19	
2025-11-08T12:00	25450	22	-63.6		261	18	
2025-11-08T12:00	25500	22	-63.7		261	16	
2025-11-08T12:00	25550	22	-64.0		262	15	
2025-11-08T12:00	25600	22	-64.1		262	15	
2025-11-08T12:00	25650	21	-64.5		261	14	
2025-11-08T12:00	25700	21	-64.7		258	14	
2025-11-08T12:00	25750	21	-64.6		254	15	
2025-11-08T12:00	25800	21	-64.5		252	16	
2025-11-08T12:00	25850	21	-64.5		251	17	
2025-11-08T12:00	25900	21	-64.6		250	18	
2025-11-08T12:00	25950	20	-64.8		251	19	
2025-11-08T12:00	26000	20	-65.0		252	20	
2025-11-08T12:00	26050	20	-65.2		254	21	
2025-11-08T12:00	26100	20	-65.2		256	22	
2025-11-08T12:00	26150	20	-64.8		260	22	
2025-11-08T12:00	26200	20	-64.4		263	22	
2025-11-08T12:00	26250	19	-64.4		266	23	
2025-11-08T12:00	26300	19	-64.1		268	24	
2025-11-08T12:00	26350	19	-64.0		269	25	
2025-11-08T12:00	26400	19	-64.1		270	26	
2025-11-08T12:00	26450	19	-63.9		272	26	
2025-11-08T12:00	26500	19	-63.9		273	25	
2025-11-08T12:00	26550	18	-64.1		274	25	
2025-11-08T12:00	26600	18	-63.9		275	24	
2025-11-08T12:00	26650	18	-63.5		275	23	
2025-11-08T12:00	26700	18	-63.5		274	23	
2025-11-08T12:00	26750	18	-63.6		274	22	
2025-11-08T12:00	26800	18	-63.4		273	21	
2025-11-08T12:00	26850	18	-63.2		273	20	
2025-11-08T12:00	26900	17	-63.1		273	20	
2025-11-08T12:00	26950	17	-62.9		271	19	
2025-11-08T12:00	27000	17	-62.8		267	19	
2025-11-08T12:00	27050	17	-62.9		264	19	
2025-11-08T12:00	27100	17	-62.4		262	19	
2025-11-08T12:00	27150	17	-61.7		263	20	
2025-11-08T12:00	27200	17	-61.5		263	20	
2025-11-08T12:00	27250	16	-61.5		263	20	
2025-11-08T12:00	27300	16	-61.9		262	21	
2025-11-08T12:00	27350	16	-62.2		260	21	
2025-11-08T12:00	27400	16	-62.5		258	21	
2025-11-08T12:00	27450	16	-62.7		257	21	
2025-11-08T12:00	27500	16	-62.7		257	21	
2025-11-08T12:00	27550	16	-62.6		258	22	
2025-11-08T12:00	27600	16	-62.6		260	22	
2025-11-08T12:00	27650	15	-62.5		261	22	
2025-11-08T12:00	27700	15	-62.3		262	21	
2025-11-08T12:00	27750	15	-62.3		262	21	
2025-11-08T12:00	27800	15	-62.4		261	22	
2025-11-08T12:00	27850	15	-62.5		260	23	
2025-11-08T12:00	27900	15	-62.3		260	24	
2025-11-08T12:00	27950	15	-62.1		259	25	
2025-11-08T12:00	28000	15	-62.0		257	25	
2025-11-08T12:00	28050	14	-62.1		255	26	
2025-11-08T12:00	28100	14	-62.1		253	26	
2025-11-08T12:00	28150	14	-62.3		251	26	
2025-11-08T12:00	28200	14	-62.5		250	27	
2025-11-08T12:00	28250	14	-62.6		249	26	
2025-11-08T12:00	28300	14	-62.6		248	26	
2025-11-08T12:00	28350	14	-62.6		248	26	
2025-11-08T12:00	28400	14	-62.7		249	27	
2025-11-08T12:00	28450	14	-62.6		250	28	
2025-11-08T12:00	28500	13	-62.3		253	30	
2025-11-08T12:00	28550	13	-62.0		256	31	
2025-11-08T12:00	28600	13	-61.8		258	33	
2025-11-08T12:00	28650	13	-61.7		260	34	
2025-11-08T12:00	28700	13	-61.5		261	34	
2025-11-08T12:00	28750	13	-61.2		261	35	
2025-11-08T12:00	28800	13	-61.1		262	35	
2025-11-08T12:00	28850	13	-61.1		262	35	
2025-11-08T12:00	28900	13	-61.1		262	35	
2025-11-08T12:00	28950	13	-61.0		262	35	
2025-11-08T12:00	29000	12	-61.0		262	35	
2025-11-08T12:00	29050	12	-60.9		262	35	
2025-11-08T12:00	29100	12	-60.9		264	36	
2025-11-08T12:00	29150	12	-60.8		265	36	
2025-11-08T12:00	29200	12	-60.7		267	37	
2025-11-08T12:00	29250	12	-60.6		268	37	
2025-11-08T12:00	29300	12	-60.7		269	38	
2025-11-08T12:00	29350	12	-60.8		270	38	
2025-11-08T12:00	29400	12	-61.0		272	38	
2025-11-08T12:00	29450	12	-61.2		273	37	
2025-11-08T12:00	29500	11	-61.6		274	37	
2025-11-08T12:00	29550	11	-61.5		273	36	
2025-11-08T12:00	29600	11	-61.3		271	35	
2025-11-08T12:00	29650	11	-61.1		270	35	
2025-11-08T12:00	29700	11	-60.9		268	34	
2025-11-08T12:00	29750	11	-60.6		267	33	
2025-11-08T12:00	29800	11	-60.2		266	32	
2025-11-08T12:00	29850	11	-60.5		265	31	
2025-11-08T12:00	29900	11	-60.7		264	30	
2025-11-08T12:00	29950	11	-60.8		264	30	
2025-11-08T12:00	30000	11	-60.8		264	31	
2025-11-08T12:00	30050	10	-60.8		265	32	
2025-11-08T12:00	30100	10	-60.8		266	34	
2025-11-08T12:00	30150	10	-60.8		266	35	
2025-11-08T12:00	30200	10	-60.9		266	36	
2025-11-08T12:00	30250	10	-60.7		265	37	
2025-11-08T12:00	30300	10	-60.7		264	38	
2025-11-08T12:00	30350	10	-60.8		263	39	
2025-11-08T12:00	30400	10	-60.9		261	39	
2025-11-08T12:00	30450	10	-60.8		259	39	
2025-11-08T12:00	30500	10	-60.5		258	39	
2025-11-08T12:00	30550	10	-60.4		257	39	
2025-11-08T12:00	30600	10	-60.3		257	40	
2025-11-08T12:00	30650	10	-60.0		258	42	
2025-11-08T12:00	30700	9	-59.7		259	43	
2025-11-08T12:00	30750	9	-59.4		261	44	
2025-11-08T12:00	30800	9	-59.3		263	43	
2025-11-08T12:00	30850	9	-59.2		264	42	
2025-11-08T12:00	30900	9	-59.4		265	41	
2025-11-08T12:00	30950	9	-59.8		266	40	
2025-11-08T12:00	31000	9	-60.2		267	40	
2025-11-08T12:00	31050	9	-60.3		266	41	
2025-11-08T12:00	31100	9	-60.1		266	41	
2025-11-08T12:00	31150	9	-59.9		265	42	
2025-11-08T12:00	31200	9	-59.7		266	41	
2025-11-08T12:00	31250	9	-59.6		266	40	
2025-11-08T12:00	31300	9	-59.5		266	39	
2025-11-08T12:00	31350	9	-59.7		265	38	
2025-11-08T12:00	31400	8	-59.8		263	38	
2025-11-08T12:00	31450	8	-59.9		260	38	
2025-11-08T12:00	31500	8	-59.7		259	39	
2025-11-08T12:00	31550	8	-59.3		259	41	
2025-11-08T12:00	31600	8	-58.7		259	43	
2025-11-08T12:00	31650	8	-58.4		261	44	
2025-11-08T12:00	31700	8	-58.4		261	45	
2025-11-08T12:00	31750	8	-58.4		261	46	
2025-11-08T12:00	31800	8	-58.3		260	47	
2025-11-08T12:00	31850	8	-58.2		259	47	
2025-11-08T12:00	31900	8	-58.0		259	48	
2025-11-08T12:00	31950	8	-57.9		259	49	
2025-11-08T12:00	32000	8	-57.7		259	50	
2025-11-08T12:00	32050	8	-57.4		260	50	
2025-11-08T12:00	32100	8	-57.0		262	50	
2025-11-08T12:00	32150	7	-56.7		264	50	
2025-11-08T12:00	32200	7	-56.3		265	50	
2025-11-08T12:00	32250	7	-56.1		265	50	
2025-11-08T12:00	32300	7	-56.3		265	50	
2025-11-08T12:00	32350	7	-56.5		265	50	
2025-11-08T12:00	32400	7	-56.8		265	51	
2025-11-08T12:00	32450	7	-56.9		265	51	
2025-11-08T12:00	32500	7	-57.0		265	52	
2025-11-08T12:00	32550	7	-56.9		264	51	
2025-11-08T12:00	32600	7	-56.8		264	51	
2025-11-08T12:00	32650	7	-56.8		264	49	
2025-11-08T12:00	32700	7	-56.9		264	48	
2025-11-08T12:00	32750	7	-57.0		264	48	
2025-11-08T12:00	32800	7	-57.1		264	48	
2025-11-08T12:00	32850	7	-57.1		265	48	
2025-11-08T12:00	32900	7	-57.0		266	49	
2025-11-08T12:00	32950	7	-56.7		266	50	
2025-11-08T12:00	33000	7	-56.6		266	50	
2025-11-08T12:00	33050	6	-56.6		265	51	
2025-11-08T12:00	33100	6	-56.7		265	52	
2025-11-08T12:00	33150	6	-56.7		265	53	
2025-11-08T12:00	33200	6	-56.6		265	54	
2025-11-08T12:00	33250	6	-56.4		265	54	
2025-11-08T12:00	33300	6	-56.3		266	54	
2025-11-08T12:00	33350	6	-56.2		266	53	
2025-11-08T12:00	33400	6	-56.2		267	52	
2025-11-08T12:00	33450	6	-56.3		268	52	
2025-11-08T12:00	33500	6	-56.3		268	53	
2025-11-08T12:00	33550	6	-56.0		268	55	
2025-11-08T12:00	33600	6	-55.8		268	56	
2025-11-08T12:00	33650	6	-55.6		269	57	
2025-11-08T12:00	33700	6	-55.7		269	58	
2025-11-08T12:00	33750	6	-55.8		270	58	
2025-11-08T12:00	33800	6	-55.9		270	58	
2025-11-08T12:00	33850	6	-55.9		271	57	
2025-11-08T12:00	33900	6	-55.8		271	57	
2025-11-08T12:00	33950	6	-55.6		270	57	
2025-11-08T12:00	34000	6	-55.3		270	57	
2025-11-08T12:00	34050	6	-55.1		269	58	
2025-11-08T12:00	34100	6	-55.0		269	57	
2025-11-08T12:00	34150	5	-55.0		268	57	
2025-11-08T12:00	34200	5	-55.0		268	57	
2025-11-08T12:00	34250	5	-54.9		268	56	
2025-11-08T12:00	34300	5	-54.5		268	56	
2025-11-08T12:00	34350	5	-54.2		268	55	
2025-11-08T12:00	34400	5	-54.1		269	55	
2025-11-08T12:00	34450	5	-53.8		270	55	
2025-11-08T12:00	34500	5	-53.5		270	55	
2025-11-08T12:00	34550	5	-53.1		270	55	
2025-11-08T12:00	34600	5	-52.8		270	55	
2025-11-08T12:00	34650	5	-52.8		269	55	
2025-11-08T12:00	34700	5	-52.9		268	55	
2025-11-08T12:00	34750	5	-53.1		267	56	
2025-11-08T12:00	34800	5	-53.0		267	57	
2025-11-08T12:00	34850	5	-52.7		266	59	
2025-11-08T12:00	34900	5	-52.5		266	60	
2025-11-08T12:00	34950	5	-52.5		266	60	
2025-11-08T12:00	35000	5	-52.3		266	60	
2025-11-08T13:00	491	957	4.7	4.7	33	0	
2025-11-08T13:00	501	956	4.9	4.8	169	1	
2025-11-08T13:00	520	954	4.3	4.3	168	1	
2025-11-08T13:00	540	951	4.1	4.1	166	1	
2025-11-08T13:00	560	949	3.9	3.9	159	1	
2025-11-08T13:00	580	947	3.7	3.7	144	1	
2025-11-08T13:00	600	944	3.6	3.6	124	0	
2025-11-08T13:00	620	942	3.5	3.5	105	0	
2025-11-08T13:00	640	940	3.4	3.4	93	0	
2025-11-08T13:00	660	937	3.3	3.3	90	0	
2025-11-08T13:00	680	935	3.2	3.2	90	0	
2025-11-08T13:00	700	933	3.5	3.2	92	0	
2025-11-08T13:00	720	930	4.9	2.6	84	0	
2025-11-08T13:00	740	928	5.7	3.1	81	0	
2025-11-08T13:00	760	926	6.0	3.0	82	1	
2025-11-08T13:00	780	924	6.4	3.3	84	1	
2025-11-08T13:00	800	921	6.9	2.8	85	1	
2025-11-08T13:00	820	919	7.4	2.6	87	2	
2025-11-08T13:00	840	917	7.7	2.3	87	2	
2025-11-08T13:00	860	915	7.9	2.4	87	3	
2025-11-08T13:00	880	913	8.2	2.8	87	3	
2025-11-08T13:00	900	910	8.4	2.4	86	4	
2025-11-08T13:00	920	908	8.7	1.8	85	4	
2025-11-08T13:00	940	906	8.9	1.4	83	4	
2025-11-08T13:00	960	904	8.8	1.5	80	4	
2025-11-08T13:00	980	901	8.7	1.3	77	4	
2025-11-08T13:00	1000	899	8.5	1.1	73	4	
2025-11-08T13:00	1020	897	8.4	0.8	67	4	
2025-11-08T13:00	1040	895	8.3	0.4	61	4	
2025-11-08T13:00	1060	893	8.2	0.7	56	4	
2025-11-08T13:00	1080	891	8.2	1.7	52	4	
2025-11-08T13:00	1100	888	8.0	2.0	50	5	
2025-11-08T13:00	1120	886	7.9	1.8	47	5	
2025-11-08T13:00	1140	884	7.9	1.9	46	5	
2025-11-08T13:00	1160	882	7.8	1.7	43	5	
2025-11-08T13:00	1180	880	7.6	1.8	40	5	
2025-11-08T13:00	1200	878	7.5	1.6	38	5	
2025-11-08T13:00	1220	876	7.4	0.7	35	5	
2025-11-08T13:00	1240	874	7.3	0.2	32	5	
2025-11-08T13:00	1260	871	7.2	0.3	28	5	
2025-11-08T13:00	1280	869	7.1	-0.1	25	5	
2025-11-08T13:00	1300	867	6.9	-0.7	23	4	
2025-11-08T13:00	1320	865	6.9	-2.0	21	4	
2025-11-08T13:00	1340	863	6.9	-5.1	19	4	
2025-11-08T13:00	1360	861	6.7	-6.9	16	4	
2025-11-08T13:00	1380	859	6.6	-8.2	15	4	
2025-11-08T13:00	1400	857	6.5	-8.6	13	4	
2025-11-08T13:00	1420	855	6.3	-8.9	13	4	
2025-11-08T13:00	1440	852	6.2	-9.3	13	4	
2025-11-08T13:00	1460	850	5.9	-7.6	15	4	
2025-11-08T13:00	1480	848	5.7	-3.5	16	4	
2025-11-08T13:00	1500	846	5.4	-0.9	18	4	
2025-11-08T13:00	1520	844	5.2	-0.9	19	4	
2025-11-08T13:00	1540	842	5.0	-1.0	20	4	
2025-11-08T13:00	1560	840	4.9	-1.0	20	4	
2025-11-08T13:00	1580	838	4.7	-0.9	18	4	
2025-11-08T13:00	1600	836	4.5	-0.8	16	4	
2025-11-08T13:00	1620	834	4.3	-0.9	14	4	
2025-11-08T13:00	1640	832	4.2	-1.1	10	4	
2025-11-08T13:00	1660	830	4.1	-1.2	5	4	
2025-11-08T13:00	1680	828	4.0	-1.5	1	4	
2025-11-08T13:00	1700	826	3.8	-1.8	358	4	
2025-11-08T13:00	1720	824	3.6	-1.8	355	4	
2025-11-08T13:00	1740	822	3.5	-2.4	352	4	
2025-11-08T13:00	1760	820	3.3	-2.7	350	4	
2025-11-08T13:00	1780	818	3.2	-3.0	349	4	
2025-11-08T13:00	1800	816	3.0	-3.9	347	4	
2025-11-08T13:00	1820	814	2.9	-3.9	346	4	
2025-11-08T13:00	1840	812	2.7	-3.8	346	4	
2025-11-08T13:00	1860	810	2.6	-4.0	347	4	
2025-11-08T13:00	1880	808	2.4	-4.0	349	4	
2025-11-08T13:00	1900	806	2.2	-4.1	351	4	
2025-11-08T13:00	1920	804	2.0	-4.2	354	4	
2025-11-08T13:00	1940	802	1.8	-4.3	356	5	
2025-11-08T13:00	1960	800	1.6	-4.5	358	5	
2025-11-08T13:00	1980	797	1.5	-4.9	359	5	
2025-11-08T13:00	2000	796	1.4	-5.5	1	5	
2025-11-08T13:00	2020	794	1.4	-5.9	2	5	
2025-11-08T13:00	2040	792	1.4	-6.9	3	5	
2025-11-08T13:00	2060	790	1.3	-6.9	3	6	
2025-11-08T13:00	2080	788	1.2	-6.6	3	6	
2025-11-08T13:00	2100	786	1.1	-6.4	2	6	
2025-11-08T13:00	2120	784	1.0	-5.2	1	6	
2025-11-08T13:00	2140	782	1.0	-4.3	1	6	
2025-11-08T13:00	2160	780	0.9	-3.4	1	5	
2025-11-08T13:00	2180	778	0.8	-3.9	2	5	
2025-11-08T13:00	2200	776	0.8	-5.1	3	5	
2025-11-08T13:00	2220	774	0.7	-4.3	5	5	
2025-11-08T13:00	2240	772	0.6	-4.0	8	5	
2025-11-08T13:00	2260	770	0.6	-3.7	10	5	
2025-11-08T13:00	2280	768	0.5	-3.9	11	6	
2025-11-08T13:00	2300	767	0.5	-4.5	12	6	
2025-11-08T13:00	2320	765	0.4	-5.5	12	6	
2025-11-08T13:00	2340	763	0.4	-6.7	13	6	
2025-11-08T13:00	2360	761	0.5	-8.3	13	6	
2025-11-08T13:00	2380	759	0.5	-9.0	14	5	
2025-11-08T13:00	2400	757	0.5	-9.1	17	5	
2025-11-08T13:00	2420	755	0.5	-9.5	20	5	
2025-11-08T13:00	2440	753	0.5	-9.6	23	5	
2025-11-08T13:00	2460	751	0.4	-9.6	26	5	
2025-11-08T13:00	2480	750	0.3	-9.4	28	4	
2025-11-08T13:00	2500	748	0.2	-9.5	28	4	
2025-11-08T13:00	2520	746	0.0	-9.5	28	4	
2025-11-08T13:00	2540	744	-0.1	-9.6	28	4	
2025-11-08T13:00	2560	742	-0.2	-9.9	26	4	
2025-11-08T13:00	2580	740	-0.4	-10.0	25	4	
2025-11-08T13:00	2600	738	-0.5	-10.1	24	3	
2025-11-08T13:00	2620	737	-0.7	-10.1	23	3	
2025-11-08T13:00	2640	735	-0.8	-10.1	24	3	
2025-11-08T13:00	2660	733	-1.0	-10.2	27	3	
2025-11-08T13:00	2680	731	-1.2	-10.2	30	3	
2025-11-08T13:00	2700	729	-1.4	-10.3	34	3	
2025-11-08T13:00	2720	728	-1.5	-10.2	39	3	
2025-11-08T13:00	2740	726	-1.7	-10.4	43	3	
2025-11-08T13:00	2760	724	-1.8	-10.4	44	3	
2025-11-08T13:00	2780	722	-2.0	-10.4	45	3	
2025-11-08T13:00	2800	720	-2.2	-10.4	44	3	
2025-11-08T13:00	2820	718	-2.4	-10.6	43	3	
2025-11-08T13:00	2840	716	-2.5	-11.1	42	3	
2025-11-08T13:00	2860	715	-2.7	-11.3	42	3	
2025-11-08T13:00	2880	713	-2.8	-11.8	44	3	
2025-11-08T13:00	2900	711	-3.0	-12.0	49	3	
2025-11-08T13:00	2920	709	-3.1	-12.1	55	2	
2025-11-08T13:00	2940	708	-3.3	-12.0	60	2	
2025-11-08T13:00	2960	706	-3.4	-12.1	61	3	
2025-11-08T13:00	2980	704	-3.6	-12.2	61	3	
2025-11-08T13:00	3000	702	-3.8	-12.1	59	3	
2025-11-08T13:00	3020	700	-3.9	-12.1	56	3	
2025-11-08T13:00	3040	699	-4.0	-11.9	54	3	
2025-11-08T13:00	3060	697	-4.2	-10.3	54	3	
2025-11-08T13:00	3080	695	-4.3	-10.3	54	3	
2025-11-08T13:00	3100	693	-4.5	-10.9	55	3	
2025-11-08T13:00	3120	692	-4.6	-11.6	57	3	
2025-11-08T13:00	3140	690	-4.8	-11.1	58	3	
2025-11-08T13:00	3160	688	-4.9	-10.8	58	4	
2025-11-08T13:00	3180	686	-5.0	-11.5	58	4	
2025-11-08T13:00	3200	685	-5.1	-11.9	57	4	
2025-11-08T13:00	3220	683	-5.2	-12.3	56	4	
2025-11-08T13:00	3240	681	-5.2	-13.0	55	4	
2025-11-08T13:00	3260	679	-5.4	-13.0	55	4	
2025-11-08T13:00	3280	678	-5.5	-13.3	57	4	
2025-11-08T13:00	3300	676	-5.7	-13.7	60	3	
2025-11-08T13:00	3320	674	-5.8	-14.0	63	3	
2025-11-08T13:00	3340	672	-5.9	-14.1	66	3	
2025-11-08T13:00	3360	671	-6.1	-14.2	68	2	
2025-11-08T13:00	3380	669	-6.2	-14.7	68	2	
2025-11-08T13:00	3400	667	-6.3	-14.9	66	2	
2025-11-08T13:00	3420	666	-6.2	-15.9	61	2	
2025-11-08T13:00	3440	664	-6.3	-16.6	58	2	
2025-11-08T13:00	3460	662	-6.4	-16.9	54	2	
2025-11-08T13:00	3480	661	-6.4	-18.3	52	2	
2025-11-08T13:00	3500	659	-6.2	-20.0	51	2	
2025-11-08T13:00	3520	657	-5.9	-22.2	52	2	
2025-11-08T13:00	3540	655	-5.6	-23.3	54	2	
2025-11-08T13:00	3560	654	-5.3	-24.0	57	3	
2025-11-08T13:00	3580	652	-5.4	-24.1	61	3	
2025-11-08T13:00	3600	651	-5.5	-24.2	66	3	
2025-11-08T13:00	3620	649	-5.4	-24.4	73	4	
2025-11-08T13:00	3640	647	-5.4	-24.5	82	4	
2025-11-08T13:00	3660	645	-5.5	-24.7	88	4	
2025-11-08T13:00	3680	644	-5.6	-24.8	93	4	
2025-11-08T13:00	3700	642	-5.7	-25.2	96	4	
2025-11-08T13:00	3720	641	-5.8	-25.5	98	3	
2025-11-08T13:00	3740	639	-6.0	-25.7	96	3	
2025-11-08T13:00	3760	637	-6.2	-26.1	92	3	
2025-11-08T13:00	3780	636	-6.2	-26.3	85	2	
2025-11-08T13:00	3800	634	-6.4	-26.4	74	2	
2025-11-08T13:00	3820	633	-6.5	-26.9	60	2	
2025-11-08T13:00	3840	631	-6.4	-27.0	48	1	
2025-11-08T13:00	3860	629	-6.5	-27.4	40	2	
2025-11-08T13:00	3880	628	-6.4	-28.1	37	2	
2025-11-08T13:00	3900	626	-6.5	-28.4	38	2	
2025-11-08T13:00	3920	624	-6.6	-29.1	41	2	
2025-11-08T13:00	3940	623	-6.6	-29.3	45	2	
2025-11-08T13:00	3960	621	-6.7	-29.6	49	3	
2025-11-08T13:00	3980	620	-6.8	-29.8	56	3	
2025-11-08T13:00	4000	618	-6.9	-29.9	63	3	
2025-11-08T13:00	4020	616	-7.0	-29.9	73	3	
2025-11-08T13:00	4040	615	-7.2	-29.9	81	3	
2025-11-08T13:00	4060	613	-7.3	-30.1	88	3	
2025-11-08T13:00	4080	612	-7.5	-30.3	93	3	
2025-11-08T13:00	4100	610	-7.6	-30.5	97	3	
2025-11-08T13:00	4120	609	-7.6	-30.7	99	3	
2025-11-08T13:00	4140	607	-7.7	-31.1	98	3	
2025-11-08T13:00	4160	605	-7.8	-31.2	92	2	
2025-11-08T13:00	4180	604	-7.9	-31.2	80	2	
2025-11-08T13:00	4200	602	-8.1	-31.1	64	2	
2025-11-08T13:00	4220	601	-8.3	-31.2	51	2	
2025-11-08T13:00	4240	599	-8.4	-31.3	42	3	
2025-11-08T13:00	4260	598	-8.5	-31.5	38	3	
2025-11-08T13:00	4280	596	-8.6	-31.5	40	3	
2025-11-08T13:00	4300	595	-8.8	-31.5	43	3	
2025-11-08T13:00	4320	593	-8.9	-31.5	47	3	
2025-11-08T13:00	4340	591	-9.1	-31.6	51	3	
2025-11-08T13:00	4360	590	-9.2	-31.7	56	3	
2025-11-08T13:00	4380	588	-9.3	-32.0	63	3	
2025-11-08T13:00	4400	587	-9.3	-33.2	71	3	
2025-11-08T13:00	4420	586	-9.2	-32.8	84	2	
2025-11-08T13:00	4440	584	-9.3	-32.6	103	2	
2025-11-08T13:00	4460	583	-9.4	-32.7	117	2	
2025-11-08T13:00	4480	581	-9.5	-32.3	127	2	
2025-11-08T13:00	4500	579	-9.6	-31.5	133	2	
2025-11-08T13:00	4520	578	-9.7	-29.1	134	2	
2025-11-08T13:00	4540	576	-9.9	-27.0	130	2	
2025-11-08T13:00	4560	575	-10.1	-23.6	121	2	
2025-11-08T13:00	4580	573	-10.2	-22.3	106	1	
2025-11-08T13:00	4600	572	-10.4	-22.6	89	1	
2025-11-08T13:00	4620	571	-10.6	-22.5	78	2	
2025-11-08T13:00	4640	569	-10.8	-22.5	73	2	
2025-11-08T13:00	4660	568	-11.0	-22.5	69	2	
2025-11-08T13:00	4680	566	-11.2	-22.5	67	2	
2025-11-08T13:00	4700	565	-11.4	-22.4	64	2	
2025-11-08T13:00	4720	563	-11.6	-22.4	60	3	
2025-11-08T13:00	4740	562	-11.7	-22.5	55	3	
2025-11-08T13:00	4760	560	-11.9	-22.5	51	3	
2025-11-08T13:00	4780	559	-12.1	-22.9	49	4	
2025-11-08T13:00	4800	557	-12.2	-23.3	49	4	
2025-11-08T13:00	4820	556	-12.4	-23.6	50	4	
2025-11-08T13:00	4840	554	-12.6	-23.8	52	4	
2025-11-08T13:00	4860	553	-12.8	-24.1	56	4	
2025-11-08T13:00	4880	551	-13.0	-24.3	61	3	
2025-11-08T13:00	4900	550	-13.2	-24.4	69	3	
2025-11-08T13:00	4920	548	-13.4	-24.3	78	3	
2025-11-08T13:00	4940	547	-13.6	-24.6	86	3	
2025-11-08T13:00	4960	546	-13.8	-24.8	91	3	
2025-11-08T13:00	4980	544	-14.0	-24.8	92	3	
2025-11-08T13:00	5000	543	-14.1	-24.6	90	2	
2025-11-08T13:00	5020	541	-14.3	-24.6	86	2	
2025-11-08T13:00	5040	540	-14.5	-24.6	79	2	
2025-11-08T13:00	5060	538	-14.7	-24.5	69	2	
2025-11-08T13:00	5080	537	-14.9	-24.3	60	2	
2025-11-08T13:00	5100	536	-15.1	-24.2	54	3	
2025-11-08T13:00	5120	534	-15.3	-24.1	50	3	
2025-11-08T13:00	5140	533	-15.5	-23.9	48	3	
2025-11-08T13:00	5160	531	-15.7	-23.9	45	4	
2025-11-08T13:00	5180	530	-15.9	-23.8	42	4	
2025-11-08T13:00	5200	529	-16.1	-23.7	38	4	
2025-11-08T13:00	5220	527	-16.3	-23.8	34	4	
2025-11-08T13:00	5240	526	-16.5	-23.9	29	4	
2025-11-08T13:00	5260	524	-16.7	-24.0	25	4	
2025-11-08T13:00	5280	523	-16.8	-24.1	22	4	
2025-11-08T13:00	5300	522	-17.0	-24.2	21	3	
2025-11-08T13:00	5320	520	-17.3	-24.3	20	3	
2025-11-08T13:00	5340	519	-17.5	-24.4	23	3	
2025-11-08T13:00	5360	517	-17.6	-24.4	29	2	
2025-11-08T13:00	5380	516	-17.8	-24.4	40	2	
2025-11-08T13:00	5400	515	-18.0	-24.4	51	2	
2025-11-08T13:00	5420	513	-18.2	-24.4	57	2	
2025-11-08T13:00	5440	512	-18.4	-24.5	59	3	
2025-11-08T13:00	5460	511	-18.6	-24.6	57	3	
2025-11-08T13:00	5480	509	-18.8	-24.7	53	3	
2025-11-08T13:00	5500	508	-19.0	-24.9	48	4	
2025-11-08T13:00	5520	506	-19.2	-25.1	45	4	
2025-11-08T13:00	5540	505	-19.4	-25.2	43	4	
2025-11-08T13:00	5560	504	-19.5	-25.5	42	4	
2025-11-08T13:00	5580	502	-19.7	-25.7	41	4	
2025-11-08T13:00	5600	501	-19.9	-25.5	40	4	
2025-11-08T13:00	5620	500	-20.1	-25.6	40	4	
2025-11-08T13:00	5640	498	-20.2	-25.8	40	4	
2025-11-08T13:00	5660	497	-20.3	-26.4	40	4	
2025-11-08T13:00	5680	496	-20.4	-26.9	40	4	
2025-11-08T13:00	5700	495	-20.5	-27.6	41	4	
2025-11-08T13:00	5720	493	-20.5	-28.6	42	4	
2025-11-08T13:00	5740	492	-20.7	-29.0	42	4	
2025-11-08T13:00	5760	490	-20.8	-29.2	41	3	
2025-11-08T13:00	5780	489	-21.0	-29.5	37	3	
2025-11-08T13:00	5800	488	-21.1	-30.2	31	3	
2025-11-08T13:00	5820	486	-21.2	-31.3	24	3	
2025-11-08T13:00	5840	485	-21.2	-31.8	19	4	
2025-11-08T13:00	5860	484	-21.4	-31.6	17	4	
2025-11-08T13:00	5880	482	-21.6	-31.8	17	4	
2025-11-08T13:00	5900	481	-21.7	-32.6	18	4	
2025-11-08T13:00	5920	480	-21.8	-34.1	20	3	
2025-11-08T13:00	5940	479	-21.9	-36.2	21	3	
2025-11-08T13:00	5960	477	-21.9	-39.3	21	3	
2025-11-08T13:00	5980	476	-21.9	-41.4	19	3	
2025-11-08T13:00	6000	475	-22.0	-43.0	13	2	
2025-11-08T13:00	6020	473	-22.0	-43.4	8	2	
2025-11-08T13:00	6040	472	-22.0	-43.2	5	2	
2025-11-08T13:00	6060	471	-22.2	-43.5	3	2	
2025-11-08T13:00	6080	469	-22.3	-43.6	5	1	
2025-11-08T13:00	6100	468	-22.5	-43.7	12	1	
2025-11-08T13:00	6120	467	-22.6	-44.0	44	0	
2025-11-08T13:00	6140	466	-22.8	-44.1	105	0	
2025-11-08T13:00	6160	464	-23.0	-44.3	128	0	
2025-11-08T13:00	6180	463	-23.1	-44.5	125	0	
2025-11-08T13:00	6200	462	-23.3	-44.5	110	0	
2025-11-08T13:00	6220	461	-23.5	-44.6	81	0	
2025-11-08T13:00	6240	459	-23.7	-44.9	52	0	
2025-11-08T13:00	6260	458	-23.8	-45.3	40	0	
2025-11-08T13:00	6280	457	-23.9	-45.9	170	0	
2025-11-08T13:00	6300	456	-24.0	-46.6	166	0	
2025-11-08T13:00	6320	454	-24.1	-47.1	156	0	
2025-11-08T13:00	6340	453	-24.1	-47.7	144	1	
2025-11-08T13:00	6360	452	-24.1	-48.5	131	2	
2025-11-08T13:00	6380	451	-24.2	-48.3	123	2	
2025-11-08T13:00	6400	449	-24.4	-48.0	118	2	
2025-11-08T13:00	6420	448	-24.5	-47.5	112	3	
2025-11-08T13:00	6440	447	-24.6	-47.4	104	4	
2025-11-08T13:00	6460	446	-24.7	-47.6	95	4	
2025-11-08T13:00	6480	445	-24.7	-48.5	86	4	
2025-11-08T13:00	6500	443	-24.7	-49.5	78	5	
2025-11-08T13:00	6520	442	-24.7	-49.8	73	5	
2025-11-08T13:00	6540	441	-24.7	-49.6	70	5	
2025-11-08T13:00	6560	440	-24.8	-49.4	68	5	
2025-11-08T13:00	6580	438	-25.0	-49.4	67	5	
2025-11-08T13:00	6600	437	-25.2	-49.5	67	5	
2025-11-08T13:00	6620	436	-25.3	-49.6	68	6	
2025-11-08T13:00	6640	435	-25.3	-49.9	69	6	
2025-11-08T13:00	6660	434	-25.5	-50.5	71	6	
2025-11-08T13:00	6680	432	-25.6	-51.2	72	6	
2025-11-08T13:00	6700	431	-25.7	-50.5	73	6	
2025-11-08T13:00	6720	430	-25.9	-46.7	74	6	
2025-11-08T13:00	6740	429	-26.0	-43.1	76	6	
2025-11-08T13:00	6760	428	-26.2	-43.0	77	6	
2025-11-08T13:00	6780	426	-26.4	-43.5	78	6	
2025-11-08T13:00	6800	425	-26.5	-45.1	78	6	
2025-11-08T13:00	6820	424	-26.7	-46.5	79	6	
2025-11-08T13:00	6840	423	-26.8	-47.2	78	6	
2025-11-08T13:00	6860	422	-27.0	-44.8	78	6	
2025-11-08T13:00	6880	421	-27.2	-44.4	77	6	
2025-11-08T13:00	6900	419	-27.4	-44.4	74	6	
2025-11-08T13:00	6920	418	-27.6	-45.6	72	6	
2025-11-08T13:00	6940	417	-27.7	-46.9	70	6	
2025-11-08T13:00	6960	416	-27.9	-46.6	68	6	
2025-11-08T13:00	6980	415	-28.1	-46.2	65	6	
2025-11-08T13:00	7000	414	-28.2	-45.8	63	6	
2025-11-08T13:00	7020	413	-28.4	-45.3	61	5	
2025-11-08T13:00	7040	411	-28.6	-44.1	58	5	
2025-11-08T13:00	7060	410	-28.8	-43.1	56	5	
2025-11-08T13:00	7080	409	-29.0	-42.9	54	5	
2025-11-08T13:00	7100	408	-29.2	-42.6	52	5	
2025-11-08T13:00	7120	407	-29.3	-43.1	52	5	
2025-11-08T13:00	7140	406	-29.5	-43.0	51	6	
2025-11-08T13:00	7160	404	-29.6	-42.7	51	6	
2025-11-08T13:00	7180	403	-29.8	-42.3	51	6	
2025-11-08T13:00	7200	402	-29.9	-42.2	51	6	
2025-11-08T13:00	7220	401	-30.1	-42.2	50	6	
2025-11-08T13:00	7240	400	-30.2	-42.2	47	6	
2025-11-08T13:00	7260	399	-30.4	-42.5	44	6	
2025-11-08T13:00	7280	398	-30.6	-42.7	40	7	
2025-11-08T13:00	7300	397	-30.7	-43.2	37	7	
2025-11-08T13:00	7320	396	-30.9	-43.4	35	7	
2025-11-08T13:00	7340	394	-31.0	-43.5	33	7	
2025-11-08T13:00	7360	393	-31.2	-43.5	31	7	
2025-11-08T13:00	7380	392	-31.3	-43.9	30	8	
2025-11-08T13:00	7400	391	-31.5	-44.0	29	8	
2025-11-08T13:00	7420	390	-31.6	-44.1	28	7	
2025-11-08T13:00	7440	389	-31.8	-43.6	26	7	
2025-11-08T13:00	7460	388	-31.9	-43.5	25	7	
2025-11-08T13:00	7480	387	-32.1	-43.3	24	7	
2025-11-08T13:00	7500	385	-32.2	-42.4	22	6	
2025-11-08T13:00	7520	384	-32.4	-42.5	21	6	
2025-11-08T13:00	7540	383	-32.6	-42.7	20	6	
2025-11-08T13:00	7560	382	-32.8	-42.7	19	6	
2025-11-08T13:00	7580	381	-33.0	-42.6	19	6	
2025-11-08T13:00	7600	380	-33.2	-42.5	18	6	
2025-11-08T13:00	7620	379	-33.4	-42.4	18	5	
2025-11-08T13:00	7640	378	-33.6	-42.4	18	5	
2025-11-08T13:00	7660	377	-33.7	-42.3	18	5	
2025-11-08T13:00	7680	376	-33.9	-42.4	19	5	
2025-11-08T13:00	7700	375	-34.0	-43.2	20	4	
2025-11-08T13:00	7720	374	-34.0	-44.2	21	4	
2025-11-08T13:00	7740	373	-34.2	-44.5	24	4	
2025-11-08T13:00	7760	372	-34.3	-44.2	26	4	
2025-11-08T13:00	7780	371	-34.5	-44.1	29	4	
2025-11-08T13:00	7800	369	-34.6	-44.1	31	5	
2025-11-08T13:00	7820	368	-34.7	-44.5	32	5	
2025-11-08T13:00	7840	367	-34.8	-44.8	31	5	
2025-11-08T13:00	7860	366	-35.0	-44.7	31	5	
2025-11-08T13:00	7880	365	-35.1	-44.5	30	6	
2025-11-08T13:00	7900	364	-35.1	-44.7	30	6	
2025-11-08T13:00	7920	363	-35.2	-44.5	30	6	
2025-11-08T13:00	7940	362	-35.4	-44.6	30	6	
2025-11-08T13:00	7960	361	-35.5	-44.5	31	5	
2025-11-08T13:00	7980	360	-35.7	-44.5	33	5	
2025-11-08T13:00	8000	359	-35.9	-44.3	35	5	
2025-11-08T13:00	8020	358	-36.1	-44.4	37	5	
2025-11-08T13:00	8040	357	-36.3	-44.6	39	5	
2025-11-08T13:00	8060	356	-36.4	-44.6	42	5	
2025-11-08T13:00	8080	355	-36.6	-44.8	43	5	
2025-11-08T13:00	8100	354	-36.7	-44.9	45	6	
2025-11-08T13:00	8120	353	-36.9	-44.9	46	6	
2025-11-08T13:00	8140	352	-37.1	-44.9	47	6	
2025-11-08T13:00	8160	351	-37.2	-45.0	47	6	
2025-11-08T13:00	8180	350	-37.4	-45.1	47	6	
2025-11-08T13:00	8200	349	-37.6	-45.2	47	6	
2025-11-08T13:00	8220	348	-37.8	-45.4	47	6	
2025-11-08T13:00	8240	347	-37.9	-45.7	47	6	
2025-11-08T13:00	8260	346	-38.1	-46.3	49	6	
2025-11-08T13:00	8280	345	-38.2	-46.4	51	5	
2025-11-08T13:00	8300	344	-38.4	-46.4	55	5	
2025-11-08T13:00	8320	343	-38.6	-46.3	58	5	
2025-11-08T13:00	8340	342	-38.8	-46.3	61	5	
2025-11-08T13:00	8360	341	-39.0	-46.5	64	5	
2025-11-08T13:00	8380	340	-39.2	-46.5	65	5	
2025-11-08T13:00	8400	339	-39.3	-46.5	65	6	
2025-11-08T13:00	8420	338	-39.5	-46.7	65	6	
2025-11-08T13:00	8440	337	-39.7	-46.6	63	6	
2025-11-08T13:00	8460	336	-39.9	-46.6	61	6	
2025-11-08T13:00	8480	335	-40.1	-46.6	59	6	
2025-11-08T13:00	8500	334	-40.2	-46.6	57	6	
2025-11-08T13:00	8520	333	-40.4	-46.7	55	6	
2025-11-08T13:00	8540	332	-40.6	-46.9	54	6	
2025-11-08T13:00	8560	331	-40.8	-46.9	53	6	
2025-11-08T13:00	8580	330	-41.0	-47.2	52	6	
2025-11-08T13:00	8600	329	-41.2	-47.5	53	6	
2025-11-08T13:00	8620	328	-41.3	-48.1	53	6	
2025-11-08T13:00	8640	327	-41.5	-48.7	53	6	
2025-11-08T13:00	8660	326	-41.6	-48.4	54	6	
2025-11-08T13:00	8680	325	-41.8	-48.0	55	6	
2025-11-08T13:00	8700	324	-42.0	-48.2	55	6	
2025-11-08T13:00	8720	323	-42.2	-48.7	56	6	
2025-11-08T13:00	8740	322	-42.3	-49.3	57	6	
2025-11-08T13:00	8760	321	-42.5	-48.9	58	6	
2025-11-08T13:00	8780	320	-42.7	-47.9	60	6	
2025-11-08T13:00	8800	319	-42.9	-47.4	61	6	
2025-11-08T13:00	8820	318	-43.0	-47.3	61	6	
2025-11-08T13:00	8840	318	-43.2	-48.0	62	6	
2025-11-08T13:00	8860	317	-43.4	-48.8	62	6	
2025-11-08T13:00	8880	316	-43.6	-49.5	62	6	
2025-11-08T13:00	8900	315	-43.8	-50.1	61	6	
2025-11-08T13:00	8920	314	-43.9	-50.6	60	6	
2025-11-08T13:00	8940	313	-44.1	-50.6	59	6	
2025-11-08T13:00	8960	312	-44.3	-51.0	58	6	
2025-11-08T13:00	8980	311	-44.4	-51.1	57	6	
2025-11-08T13:00	9000	310	-44.5	-51.7	56	6	
2025-11-08T13:00	9020	309	-44.7	-52.6	54	6	
2025-11-08T13:00	9040	308	-44.8	-53.3	54	7	
2025-11-08T13:00	9060	307	-45.0	-53.5	53	7	
2025-11-08T13:00	9080	306	-45.1	-53.0	53	7	
2025-11-08T13:00	9100	305	-45.3	-53.0	53	7	
2025-11-08T13:00	9120	304	-45.4	-52.7	53	7	
2025-11-08T13:00	9140	304	-45.6	-51.8	53	7	
2025-11-08T13:00	9160	303	-45.7	-50.8	54	8	
2025-11-08T13:00	9180	302	-45.8	-50.0	55	8	
2025-11-08T13:00	9200	301	-46.0	-50.3	55	8	
2025-11-08T13:00	9220	300	-46.1	-50.6	55	8	
2025-11-08T13:00	9240	299	-46.3	-50.7	55	8	
2025-11-08T13:00	9260	298	-46.5	-50.8	55	8	
2025-11-08T13:00	9280	297	-46.6	-51.1	55	8	
2025-11-08T13:00	9300	296	-46.8	-52.0	54	8	
2025-11-08T13:00	9320	295	-46.8	-54.4	52	8	
2025-11-08T13:00	9340	295	-46.8	-57.5	51	7	
2025-11-08T13:00	9360	294	-47.0	-58.2	49	7	
2025-11-08T13:00	9380	293	-47.1	-57.5	48	7	
2025-11-08T13:00	9400	292	-47.3	-57.5	47	7	
2025-11-08T13:00	9420	291	-47.4	-57.7	46	7	
2025-11-08T13:00	9440	290	-47.6	-57.7	45	7	
2025-11-08T13:00	9460	289	-47.7	-57.6	45	6	
2025-11-08T13:00	9480	288	-47.9	-57.6	44	6	
2025-11-08T13:00	9500	288	-48.1	-57.5	44	6	
2025-11-08T13:00	9520	287	-48.2	-57.6	44	6	
2025-11-08T13:00	9540	286	-48.3	-57.8	44	6	
2025-11-08T13:00	9560	285	-48.4	-58.4	45	6	
2025-11-08T13:00	9580	284	-48.6	-58.9	45	6	
2025-11-08T13:00	9600	283	-48.7	-59.1	46	6	
2025-11-08T13:00	9620	282	-48.9	-58.9	46	6	
2025-11-08T13:00	9640	281	-49.0	-58.9	46	6	
2025-11-08T13:00	9660	281	-49.1	-59.0	46	7	
2025-11-08T13:00	9680	280	-49.3	-59.2	45	7	
2025-11-08T13:00	9700	279	-49.5	-59.8	44	7	
2025-11-08T13:00	9720	278	-49.6	-60.2	43	7	
2025-11-08T13:00	9740	277	-49.8	-60.1	42	7	
2025-11-08T13:00	9760	276	-49.9	-59.7	42	7	
2025-11-08T13:00	9780	275	-50.1	-59.4	41	7	
2025-11-08T13:00	9800	275	-50.2	-59.4	41	7	
2025-11-08T13:00	9820	274	-50.4	-59.7	42	7	
2025-11-08T13:00	9840	273	-50.6	-59.6	44	7	
2025-11-08T13:00	9860	272	-50.7	-59.1	45	7	
2025-11-08T13:00	9880	271	-50.9	-58.7	47	7	
2025-11-08T13:00	9900	270	-51.0	-58.7	50	7	
2025-11-08T13:00	9920	270	-51.2	-58.3	51	7	
2025-11-08T13:00	9940	269	-51.3	-57.1	52	7	
2025-11-08T13:00	9960	268	-51.5	-56.4	53	7	
2025-11-08T13:00	9980	267	-51.5	-56.8	53	7	
2025-11-08T13:00	10000	266	-51.6	-57.7	52	7	
2025-11-08T13:00	10018	266	-51.7	-58.1	52	7	
2025-11-08T13:00	10050	264	-51.9	-58.6	52	7	
2025-11-08T13:00	10100	262	-52.3	-59.2	55	7	
2025-11-08T13:00	10150	260	-52.6	-58.8	60	7	
2025-11-08T13:00	10200	258	-52.9	-58.5	62	7	
2025-11-08T13:00	10250	256	-53.2	-59.7	62	7	
2025-11-08T13:00	10300	254	-53.5	-60.4	63	7	
2025-11-08T13:00	10350	252	-53.8	-61.2	65	7	
2025-11-08T13:00	10400	250	-54.0	-63.0	67	6	
2025-11-08T13:00	10450	248	-54.4	-62.8	67	6	
2025-11-08T13:00	10500	246	-54.8	-63.1	66	6	
2025-11-08T13:00	10550	244	-55.0	-64.1	63	6	
2025-11-08T13:00	10600	243	-55.3	-64.3	62	5	
2025-11-08T13:00	10650	241	-55.6	-64.0	61	5	
2025-11-08T13:00	10700	239	-56.0	-64.0	56	4	
2025-11-08T13:00	10750	237	-56.3	-63.9	48	4	
2025-11-08T13:00	10800	235	-56.6	-64.1	40	3	
2025-11-08T13:00	10850	233	-56.8	-64.1	41	3	
2025-11-08T13:00	10900	231	-56.9	-63.4	48	3	
2025-11-08T13:00	10950	230	-57.0	-63.9	54	3	
2025-11-08T13:00	11000	228	-57.1	-64.9	55	3	
2025-11-08T13:00	11050	226	-57.4	-65.3	57	3	
2025-11-08T13:00	11100	224	-57.9	-65.3	63	3	
2025-11-08T13:00	11150	222	-58.1	-65.6	69	4	
2025-11-08T13:00	11200	221	-58.6	-66.1	76	5	
2025-11-08T13:00	11250	219	-58.9	-66.6	85	5	
2025-11-08T13:00	11300	217	-59.0	-66.9	93	6	
2025-11-08T13:00	11350	215	-59.1	-66.9	97	6	
2025-11-08T13:00	11400	214	-59.2	-66.5	98	6	
2025-11-08T13:00	11450	212	-58.9	-66.3	99	5	
2025-11-08T13:00	11500	210	-58.6	-66.7	105	5	
2025-11-08T13:00	11550	209	-57.6	-67.2	114	4	
2025-11-08T13:00	11600	207	-56.9	-70.0	122	3	
2025-11-08T13:00	11650	205	-56.5	-74.2	128	2	
2025-11-08T13:00	11700	204	-56.5	-76.2	137	1	
2025-11-08T13:00	11750	202	-55.6	-76.4	183	0	
2025-11-08T13:00	11800	201	-55.1	-76.2	256	1	
2025-11-08T13:00	11850	199	-55.2	-75.6	267	1	
2025-11-08T13:00	11900	198	-55.5	-75.2	276	0	
2025-11-08T13:00	11950	196	-55.5	-74.8	82	0	
2025-11-08T13:00	12000	194	-55.3	-74.9	98	1	
2025-11-08T13:00	12050	193	-55.2	-75.9	106	2	
2025-11-08T13:00	12100	191	-54.4	-76.9	112	3	
2025-11-08T13:00	12150	190	-54.3	-77.3	120	4	
2025-11-08T13:00	12200	188	-54.6	-77.3	127	5	
2025-11-08T13:00	12250	187	-54.6	-77.4	128	6	
2025-11-08T13:00	12300	186	-54.1	-77.5	122	7	
2025-11-08T13:00	12350	184	-54.0	-78.0	119	8	
2025-11-08T13:00	12400	183	-53.4	-78.6	122	9	
2025-11-08T13:00	12450	181	-53.2	-78.8	125	10	
2025-11-08T13:00	12500	180	-53.2	-78.7	130	10	
2025-11-08T13:00	12550	178	-53.4	-79.1	141	9	
2025-11-08T13:00	12600	177	-53.3	-79.3	152	9	
2025-11-08T13:00	12650	176	-53.7	-79.5	159	9	
2025-11-08T13:00	12700	174	-54.2	-79.6	164	9	
2025-11-08T13:00	12750	173	-54.6	-79.6	169	8	
2025-11-08T13:00	12800	172	-55.0	-79.7	172	8	
2025-11-08T13:00	12850	170	-55.5	-79.8	172	8	
2025-11-08T13:00	12900	169	-55.9	-80.0	171	8	
2025-11-08T13:00	12950	168	-56.3	-80.2	169	7	
2025-11-08T13:00	13000	166	-56.6	-80.5	161	6	
2025-11-08T13:00	13050	165	-56.6	-80.7	151	7	
2025-11-08T13:00	13100	164	-56.5	-80.8	143	7	
2025-11-08T13:00	13150	162	-56.6	-80.9	137	8	
2025-11-08T13:00	13200	161	-56.8	-81.0	136	7	
2025-11-08T13:00	13250	160	-57.1	-81.1	139	7	
2025-11-08T13:00	13300	159	-57.5	-81.4	142	6	
2025-11-08T13:00	13350	157	-57.7	-81.5	144	5	
2025-11-08T13:00	13400	156	-57.9	-81.5	149	5	
2025-11-08T13:00	13450	155	-58.2	-81.6	154	5	
2025-11-08T13:00	13500	154	-58.5	-81.8	154	5	
2025-11-08T13:00	13550	152	-58.8	-81.9	150	5	
2025-11-08T13:00	13600	151	-59.0	-82.0	142	5	
2025-11-08T13:00	13650	150	-59.4	-82.1	138	5	
2025-11-08T13:00	13700	149	-59.6	-82.2	138	6	
2025-11-08T13:00	13750	148	-59.6	-82.3	142	6	
2025-11-08T13:00	13800	146	-59.3	-82.4	152	6	
2025-11-08T13:00	13850	145	-58.9	-82.4	162	7	
2025-11-08T13:00	13900	144	-59.1	-82.5	168	7	
2025-11-08T13:00	13950	143	-59.3	-82.5	173	8	
2025-11-08T13:00	14000	142	-59.4	-82.6	179	8	
2025-11-08T13:00	14050	141	-59.5	-82.8	185	7	
2025-11-08T13:00	14100	140	-58.8	-82.8	200	5	
2025-11-08T13:00	14150	138	-58.2	-82.8	224	4	
2025-11-08T13:00	14200	137	-58.0	-82.7	247	3	
2025-11-08T13:00	14250	136	-58.4	-82.7	271	3	
2025-11-08T13:00	14300	135	-58.5	-82.7	286	3	
2025-11-08T13:00	14350	134	-58.6	-82.9	287	3	
2025-11-08T13:00	14400	133	-58.3	-82.9	285	4	
2025-11-08T13:00	14450	132	-57.9	-82.8	282	3	
2025-11-08T13:00	14500	131	-58.1	-82.9	274	3	
2025-11-08T13:00	14550	130	-58.0	-82.9	263	1	
2025-11-08T13:00	14600	129	-57.9	-82.9	112	0	
2025-11-08T13:00	14650	128	-58.1	-82.9	92	1	
2025-11-08T13:00	14700	127	-58.1	-82.9	94	2	
2025-11-08T13:00	14750	126	-58.3	-83.0	96	3	
2025-11-08T13:00	14800	125	-58.6	-83.1	98	4	
2025-11-08T13:00	14850	124	-58.7	-83.2	104	4	
2025-11-08T13:00	14900	123	-58.3	-83.2	117	4	
2025-11-08T13:00	14950	122	-58.1	-83.1	129	5	
2025-11-08T13:00	15000	121	-58.3	-83.2	138	5	
2025-11-08T13:00	15050	120	-58.6	-83.2	144	5	
2025-11-08T13:00	15100	119	-58.9	-83.3	153	5	
2025-11-08T13:00	15150	118	-59.1	-83.3	167	4	
2025-11-08T13:00	15200	117	-59.3	-83.4	182	4	
2025-11-08T13:00	15250	116	-59.4	-83.5	194	4	
2025-11-08T13:00	15300	115	-59.7	-83.5	205	4	
2025-11-08T13:00	15350	114	-60.1	-83.6	219	4	
2025-11-08T13:00	15400	114	-60.4	-83.7	232	4	
2025-11-08T13:00	15450	113	-60.8	-83.8	239	4	
2025-11-08T13:00	15500	112	-61.2	-83.9	249	3	
2025-11-08T13:00	15550	111	-61.5	-84.1	271	3	
2025-11-08T13:00	15600	110	-61.4	-84.2	300	3	
2025-11-08T13:00	15650	109	-61.1	-84.1	325	2	
2025-11-08T13:00	15700	108	-61.4	-84.2	347	2	
2025-11-08T13:00	15750	107	-61.7	-84.4	359	2	
2025-11-08T13:00	15800	106	-62.0	-84.5	360	0	
2025-11-08T13:00	15850	106	-61.7	-84.4	173	1	
2025-11-08T13:00	15900	105	-61.3	-84.4	155	1	
2025-11-08T13:00	15950	104	-61.2	-84.4	130	1	
2025-11-08T13:00	16000	103	-61.3	-84.4	105	1	
2025-11-08T13:00	16050	102	-61.3	-84.4	95	1	
2025-11-08T13:00	16100	101	-61.2	-84.4	266	0	
2025-11-08T13:00	16150	101	-61.2	-84.5	291	1	
2025-11-08T13:00	16200	100	-61.2	-84.7	312	1	
2025-11-08T13:00	16250	99	-61.1	-85.0	301	2	
2025-11-08T13:00	16300	98	-59.9	-84.8	280	3	
2025-11-08T13:00	16350	97	-59.4	-84.6	271	4	
2025-11-08T13:00	16400	97	-59.7	-84.7	267	4	
2025-11-08T13:00	16450	96	-59.8	-84.7	266	5	
2025-11-08T13:00	16500	95	-59.9	-84.7	266	4	
2025-11-08T13:00	16550	94	-59.8	-84.6	269	4	
2025-11-08T13:00	16600	94	-60.0	-84.7	274	3	
2025-11-08T13:00	16650	93	-60.3	-84.7	280	3	
2025-11-08T13:00	16700	92	-60.4	-84.7	285	3	
2025-11-08T13:00	16750	91	-60.6	-84.8	281	2	
2025-11-08T13:00	16800	91	-60.8	-84.8	265	3	
2025-11-08T13:00	16850	90	-60.9	-84.8	254	4	
2025-11-08T13:00	16900	89	-61.0	-84.7	251	4	
2025-11-08T13:00	16950	88	-61.4	-84.8	250	3	
2025-11-08T13:00	17000	88	-61.7	-84.9	244	3	
2025-11-08T13:00	17050	87	-61.6	-84.9	237	2	
2025-11-08T13:00	17100	86	-61.9	-85.1	232	3	
2025-11-08T13:00	17150	86	-62.0	-85.1	229	3	
2025-11-08T13:00	17200	85	-62.2	-85.2	227	4	
2025-11-08T13:00	17250	84	-62.2	-85.3	229	5	
2025-11-08T13:00	17300	84	-62.1	-85.3	232	5	
2025-11-08T13:00	17350	83	-62.1	-85.4	234	6	
2025-11-08T13:00	17400	82	-62.2	-85.4	237	7	
2025-11-08T13:00	17450	82	-62.3	-85.4	240	7	
2025-11-08T13:00	17500	81	-62.6	-85.5	243	7	
2025-11-08T13:00	17550	80	-62.8	-85.7	244	7	
2025-11-08T13:00	17600	80	-62.6	-85.7	242	8	
2025-11-08T13:00	17650	79	-62.5	-85.7	242	8	
2025-11-08T13:00	17700	78	-62.5	-85.8	244	8	
2025-11-08T13:00	17750	78	-62.6	-85.9	247	9	
2025-11-08T13:00	17800	77	-62.7	-85.9	250	9	
2025-11-08T13:00	17850	76	-62.7	-86.1	256	8	
2025-11-08T13:00	17900	76	-62.3	-85.9	263	8	
2025-11-08T13:00	17950	75	-62.3	-86.0	270	8	
2025-11-08T13:00	18000	75	-62.6	-86.1	277	7	
2025-11-08T13:00	18050	74	-62.7	-86.1	284	7	
2025-11-08T13:00	18100	73	-62.5	-86.2	287	7	
2025-11-08T13:00	18150	73	-62.3	-86.2	290	7	
2025-11-08T13:00	18200	72	-62.3	-86.2	294	7	
2025-11-08T13:00	18250	72	-62.5	-86.2	299	6	
2025-11-08T13:00	18300	71	-62.7	-86.2	306	5	
2025-11-08T13:00	18350	70	-62.9	-86.2	312	4	
2025-11-08T13:00	18400	70	-63.2	-86.4	314	4	
2025-11-08T13:00	18450	69	-63.2	-86.5	305	4	
2025-11-08T13:00	18500	69	-63.1	-86.6	288	5	
2025-11-08T13:00	18550	68	-63.0	-86.7	276	4	
2025-11-08T13:00	18600	68	-62.7	-86.5	274	4	
2025-11-08T13:00	18650	67	-62.8	-86.6	282	3	
2025-11-08T13:00	18700	67	-62.9	-86.6	294	2	
2025-11-08T13:00	18750	66	-63.2	-86.7	308	2	
2025-11-08T13:00	18800	66	-63.3	-86.7	324	2	
2025-11-08T13:00	18850	65	-63.2	-86.7	333	1	
2025-11-08T13:00	18900	64	-63.4	-86.9	321	1	
2025-11-08T13:00	18950	64	-63.4	-87.0	294	2	
2025-11-08T13:00	19000	63	-63.1	-86.9	277	3	
2025-11-08T13:00	19050	63	-63.1	-86.9	271	4	
2025-11-08T13:00	19100	62	-63.2	-86.9	271	5	
2025-11-08T13:00	19150	62	-63.4	-87.0	278	6	
2025-11-08T13:00	19200	61	-63.5	-87.0	286	6	
2025-11-08T13:00	19250	61	-63.4	-87.1	292	6	
2025-11-08T13:00	19300	60	-63.1	-87.0	292	5	
2025-11-08T13:00	19350	60	-63.3	-87.0	291	4	
2025-11-08T13:00	19400	59	-63.5	-87.1	293	3	
2025-11-08T13:00	19450	59	-63.6	-87.0	304	3	
2025-11-08T13:00	19500	58	-63.9	-87.0	322	3	
2025-11-08T13:00	19550	58	-64.3	-87.2	333	3	
2025-11-08T13:00	19600	58	-64.6	-87.4	332	3	
2025-11-08T13:00	19650	57	-64.4	-87.5	306	2	
2025-11-08T13:00	19700	57	-64.3	-87.5	269	2	
2025-11-08T13:00	19750	56	-64.2	-87.6	262	2	
2025-11-08T13:00	19800	56	-64.1	-87.5	270	1	
2025-11-08T13:00	19850	55	-63.9	-87.4	282	1	
2025-11-08T13:00	19900	55	-64.0	-87.5	282	2	
2025-11-08T13:00	19950	54	-64.2	-87.5	266	2	
2025-11-08T13:00	20000	54	-64.3	-87.6	249	4	
2025-11-08T13:00	20050	53	-64.3		239	5	
2025-11-08T13:00	20100	53	-64.0		233	7	
2025-11-08T13:00	20150	53	-63.6		229	7	
2025-11-08T13:00	20200	52	-63.4		228	8	
2025-11-08T13:00	20250	52	-63.4		232	8	
2025-11-08T13:00	20300	51	-63.1		241	9	
2025-11-08T13:00	20350	51	-63.0		250	9	
2025-11-08T13:00	20400	50	-63.2		259	10	
2025-11-08T13:00	20450	50	-63.2		267	10	
2025-11-08T13:00	20500	50	-63.2		273	9	
2025-11-08T13:00	20550	49	-63.3		279	9	
2025-11-08T13:00	20600	49	-63.5		286	8	
2025-11-08T13:00	20650	48	-63.7		294	7	
2025-11-08T13:00	20700	48	-63.8		300	7	
2025-11-08T13:00	20750	48	-63.6		299	6	
2025-11-08T13:00	20800	47	-63.5		288	5	
2025-11-08T13:00	20850	47	-63.4		270	4	
2025-11-08T13:00	20900	47	-63.4		255	5	
2025-11-08T13:00	20950	46	-63.5		249	5	
2025-11-08T13:00	21000	46	-63.8		247	6	
2025-11-08T13:00	21050	45	-64.2		245	6	
2025-11-08T13:00	21100	45	-64.6		243	7	
2025-11-08T13:00	21150	45	-64.9		242	8	
2025-11-08T13:00	21200	44	-65.0		241	8	
2025-11-08T13:00	21250	44	-65.2		243	8	
2025-11-08T13:00	21300	44	-65.2		246	8	
2025-11-08T13:00	21350	43	-65.1		249	8	
2025-11-08T13:00	21400	43	-65.1		252	8	
2025-11-08T13:00	21450	43	-65.2		259	7	
2025-11-08T13:00	21500	42	-65.1		269	7	
2025-11-08T13:00	21550	42	-65.2		277	7	
2025-11-08T13:00	21600	41	-65.4		278	7	
2025-11-08T13:00	21650	41	-65.4		274	6	
2025-11-08T13:00	21700	41	-65.6		272	6	
2025-11-08T13:00	21750	40	-65.5		277	5	
2025-11-08T13:00	21800	40	-65.5		286	5	
2025-11-08T13:00	21850	40	-65.8		292	5	
2025-11-08T13:00	21900	39	-66.0		288	5	
2025-11-08T13:00	21950	39	-66.1		276	5	
2025-11-08T13:00	22000	39	-66.1		267	5	
2025-11-08T13:00	22050	39	-65.5		264	4	
2025-11-08T13:00	22100	38	-65.4		262	3	
2025-11-08T13:00	22150	38	-65.6		252	3	
2025-11-08T13:00	22200	38	-65.1		244	5	
2025-11-08T13:00	22250	37	-64.9		244	7	
2025-11-08T13:00	22300	37	-64.6		246	9	
2025-11-08T13:00	22350	37	-64.5		248	10	
2025-11-08T13:00	22400	36	-64.5		250	11	
2025-11-08T13:00	22450	36	-64.8		253	12	
2025-11-08T13:00	22500	36	-65.1		258	12	
2025-11-08T13:00	22550	35	-64.8		263	12	
2025-11-08T13:00	22600	35	-65.0		267	13	
2025-11-08T13:00	22650	35	-65.3		271	13	
2025-11-08T13:00	22700	35	-65.4		275	13	
2025-11-08T13:00	22750	34	-65.5		278	12	
2025-11-08T13:00	22800	34	-65.4		279	11	
2025-11-08T13:00	22850	34	-65.4		275	9	
2025-11-08T13:00	22900	34	-65.6		269	8	
2025-11-08T13:00	22950	33	-65.6		266	8	
2025-11-08T13:00	23000	33	-65.2		269	9	
2025-11-08T13:00	23050	33	-65.1		275	10	
2025-11-08T13:00	23100	32	-65.1		280	10	
2025-11-08T13:00	23150	32	-65.3		281	10	
2025-11-08T13:00	23200	32	-65.4		279	10	
2025-11-08T13:00	23250	32	-65.1		276	9	
2025-11-08T13:00	23300	31	-64.9		275	9	
2025-11-08T13:00	23350	31	-65.0		275	9	
2025-11-08T13:00	23400	31	-65.1		274	10	
2025-11-08T13:00	23450	31	-65.0		271	11	
2025-11-08T13:00	23500	30	-64.4		269	11	
2025-11-08T13:00	23550	30	-63.4		271	10	
2025-11-08T13:00	23600	30	-63.6		273	10	
2025-11-08T13:00	23650	30	-63.9		272	9	
2025-11-08T13:00	23700	29	-63.7		268	10	
2025-11-08T13:00	23750	29	-63.5		265	11	
2025-11-08T13:00	23800	29	-63.5		266	12	
2025-11-08T13:00	23850	29	-63.7		269	13	
2025-11-08T13:00	23900	28	-63.6		271	13	
2025-11-08T13:00	23950	28	-63.3		270	13	
2025-11-08T13:00	24000	28	-62.8		268	13	
2025-11-08T13:00	24050	28	-62.6		266	12	
2025-11-08T13:00	24100	28	-62.7		268	11	
2025-11-08T13:00	24150	27	-62.9		271	11	
2025-11-08T13:00	24200	27	-62.9		274	10	
2025-11-08T13:00	24250	27	-63.1		274	10	
2025-11-08T13:00	24300	27	-63.1		272	9	
2025-11-08T13:00	24350	26	-63.2		271	9	
2025-11-08T13:00	24400	26	-63.5		273	9	
2025-11-08T13:00	24450	26	-63.9		278	10	
2025-11-08T13:00	24500	26	-64.1		281	11	
2025-11-08T13:00	24550	26	-64.1		283	11	
2025-11-08T13:00	24600	25	-64.0		283	12	
2025-11-08T13:00	24650	25	-63.9		284	11	
2025-11-08T13:00	24700	25	-64.2		284	10	
2025-11-08T13:00	24750	25	-64.5		281	10	
2025-11-08T13:00	24800	25	-64.5		276	10	
2025-11-08T13:00	24850	24	-64.4		270	11	
2025-11-08T13:00	24900	24	-64.2		266	12	
2025-11-08T13:00	24950	24	-64.2		263	14	
2025-11-08T13:00	25000	24	-64.1		261	15	
2025-11-08T13:00	25050	24	-63.8		259	17	
2025-11-08T13:00	25100	23	-63.5		259	18	
2025-11-08T13:00	25150	23	-63.2		258	19	
2025-11-08T13:00	25200	23	-63.2		258	19	
2025-11-08T13:00	25250	23	-63.3		258	20	
2025-11-08T13:00	25300	23	-63.4		259	21	
2025-11-08T13:00	25350	22	-63.9		260	20	
2025-11-08T13:00	25400	22	-63.8		261	19	
2025-11-08T13:00	25450	22	-63.6		261	18	
2025-11-08T13:00	25500	22	-63.7		261	16	
2025-11-08T13:00	25550	22	-64.0		262	15	
2025-11-08T13:00	25600	22	-64.1		262	15	
2025-11-08T13:00	25650	21	-64.5		261	14	
2025-11-08T13:00	25700	21	-64.7		258	14	
2025-11-08T13:00	25750	21	-64.6		254	15	
2025-11-08T13:00	25800	21	-64.5		252	16	
2025-11-08T13:00	25850	21	-64.5		251	17	
2025-11-08T13:00	25900	21	-64.6		250	18	
2025-11-08T13:00	25950	20	-64.8		251	19	
2025-11-08T13:00	26000	20	-65.0		252	20	
2025-11-08T13:00	26050	20	-65.2		254	21	
2025-11-08T13:00	26100	20	-65.2		256	22	
2025-11-08T13:00	26150	20	-64.8		260	22	
2025-11-08T13:00	26200	20	-64.4		263	22	
2025-11-08T13:00	26250	19	-64.4		266	23	
2025-11-08T13:00	26300	19	-64.1		268	24	
2025-11-08T13:00	26350	19	-64.0		269	25	
2025-11-08T13:00	26400	19	-64.1		270	26	
2025-11-08T13:00	26450	19	-63.9		272	26	
2025-11-08T13:00	26500	19	-63.9		273	25	
2025-11-08T13:00	26550	18	-64.1		274	25	
2025-11-08T13:00	26600	18	-63.9		275	24	
2025-11-08T13:00	26650	18	-63.5		275	23	
2025-11-08T13:00	26700	18	-63.5		274	23	
2025-11-08T13:00	26750	18	-63.6		274	22	
2025-11-08T13:00	26800	18	-63.4		273	21	
2025-11-08T13:00	26850	18	-63.2		273	20	
2025-11-08T13:00	26900	17	-63.1		273	20	
2025-11-08T13:00	26950	17	-62.9		271	19	
2025-11-08T13:00	27000	17	-62.8		267	19	
2025-11-08T13:00	27050	17	-62.9		264	19	
2025-11-08T13:00	27100	17	-62.4		262	19	
2025-11-08T13:00	27150	17	-61.7		263	20	
2025-11-08T13:00	27200	17	-61.5		263	20	
2025-11-08T13:00	27250	16	-61.5		263	20	
2025-11-08T13:00	27300	16	-61.9		262	21	
2025-11-08T13:00	27350	16	-62.2		260	21	
2025-11-08T13:00	27400	16	-62.5		258	21	
2025-11-08T13:00	27450	16	-62.7		257	21	
2025-11-08T13:00	27500	16	-62.7		257	21	
2025-11-08T13:00	27550	16	-62.6		258	22	
2025-11-08T13:00	27600	16	-62.6		260	22	
2025-11-08T13:00	27650	15	-62.5		261	22	
2025-11-08T13:00	27700	15	-62.3		262	21	
2025-11-08T13:00	27750	15	-62.3		262	21	
2025-11-08T13:00	27800	15	-62.4		261	22	
2025-11-08T13:00	27850	15	-62.5		260	23	
2025-11-08T13:00	27900	15	-62.3		260	24	
2025-11-08T13:00	27950	15	-62.1		259	25	
2025-11-08T13:00	28000	15	-62.0		257	25	
2025-11-08T13:00	28050	14	-62.1		255	26	
2025-11-08T13:00	28100	14	-62.1		253	26	
2025-11-08T13:00	28150	14	-62.3		251	26	
2025-11-08T13:00	28200	14	-62.5		250	27	
2025-11-08T13:00	28250	14	-62.6		249	26	
2025-11-08T13:00	28300	14	-62.6		248	26	
2025-11-08T13:00	28350	14	-62.6		248	26	
2025-11-08T13:00	28400	14	-62.7		249	27	
2025-11-08T13:00	28450	14	-62.6		250	28	
2025-11-08T13:00	28500	13	-62.3		253	30	
2025-11-08T13:00	28550	13	-62.0		256	31	
2025-11-08T13:00	28600	13	-61.8		258	33	
2025-11-08T13:00	28650	13	-61.7		260	34	
2025-11-08T13:00	28700	13	-61.5		261	34	
2025-11-08T13:00	28750	13	-61.2		261	35	
2025-11-08T13:00	28800	13	-61.1		262	35	
2025-11-08T13:00	28850	13	-61.1		262	35	
2025-11-08T13:00	28900	13	-61.1		262	35	
2025-11-08T13:00	28950	13	-61.0		262	35	
2025-11-08T13:00	29000	12	-61.0		262	35	
2025-11-08T13:00	29050	12	-60.9		262	35	
2025-11-08T13:00	29100	12	-60.9		264	36	
2025-11-08T13:00	29150	12	-60.8		265	36	
2025-11-08T13:00	29200	12	-60.7		267	37	
2025-11-08T13:00	29250	12	-60.6		268	37	
2025-11-08T13:00	29300	12	-60.7		269	38	
2025-11-08T13:00	29350	12	-60.8		270	38	
2025-11-08T13:00	29400	12	-61.0		272	38	
2025-11-08T13:00	29450	12	-61.2		273	37	
2025-11-08T13:00	29500	11	-61.6		274	37	
2025-11-08T13:00	29550	11	-61.5		273	36	
2025-11-08T13:00	29600	11	-61.3		271	35	
2025-11-08T13:00	29650	11	-61.1		270	35	
2025-11-08T13:00	29700	11	-60.9		268	34	
2025-11-08T13:00	29750	11	-60.6		267	33	
2025-11-08T13:00	29800	11	-60.2		266	32	
2025-11-08T13:00	29850	11	-60.5		265	31	
2025-11-08T13:00	29900	11	-60.7		264	30	
2025-11-08T13:00	29950	11	-60.8		264	30	
2025-11-08T13:00	30000	11	-60.8		264	31	
2025-11-08T13:00	30050	10	-60.8		265	32	
2025-11-08T13:00	30100	10	-60.8		266	34	
2025-11-08T13:00	30150	10	-60.8		266	35	
2025-11-08T13:00	30200	10	-60.9		266	36	
2025-11-08T13:00	30250	10	-60.7		265	37	
2025-11-08T13:00	30300	10	-60.7		264	38	
2025-11-08T13:00	30350	10	-60.8		263	39	
2025-11-08T13:00	30400	10	-60.9		261	39	
2025-11-08T13:00	30450	10	-60.8		259	39	
2025-11-08T13:00	30500	10	-60.5		258	39	
2025-11-08T13:00	30550	10	-60.4		257	39	
2025-11-08T13:00	30600	10	-60.3		257	40	
2025-11-08T13:00	30650	10	-60.0		258	42	
2025-11-08T13:00	30700	9	-59.7		259	43	
2025-11-08T13:00	30750	9	-59.4		261	44	
2025-11-08T13:00	30800	9	-59.3		263	43	
2025-11-08T13:00	30850	9	-59.2		264	42	
2025-11-08T13:00	30900	9	-59.4		265	41	
2025-11-08T13:00	30950	9	-59.8		266	40	
2025-11-08T13:00	31000	9	-60.2		267	40	
2025-11-08T13:00	31050	9	-60.3		266	41	
2025-11-08T13:00	31100	9	-60.1		266	41	
2025-11-08T13:00	31150	9	-59.9		265	42	
2025-11-08T13:00	31200	9	-59.7		266	41	
2025-11-08T13:00	31250	9	-59.6		266	40	
2025-11-08T13:00	31300	9	-59.5		266	39	
2025-11-08T13:00	31350	9	-59.7		265	38	
2025-11-08T13:00	31400	8	-59.8		263	38	
2025-11-08T13:00	31450	8	-59.9		260	38	
2025-11-08T13:00	31500	8	-59.7		259	39	
2025-11-08T13:00	31550	8	-59.3		259	41	
2025-11-08T13:00	31600	8	-58.7		259	43	
2025-11-08T13:00	31650	8	-58.4		261	44	
2025-11-08T13:00	31700	8	-58.4		261	45	
2025-11-08T13:00	31750	8	-58.4		261	46	
2025-11-08T13:00	31800	8	-58.3		260	47	
2025-11-08T13:00	31850	8	-58.2		259	47	
2025-11-08T13:00	31900	8	-58.0		259	48	
2025-11-08T13:00	31950	8	-57.9		259	49	
2025-11-08T13:00	32000	8	-57.7		259	50	
2025-11-08T13:00	32050	8	-57.4		260	50	
2025-11-08T13:00	32100	8	-57.0		262	50	
2025-11-08T13:00	32150	7	-56.7		264	50	
2025-11-08T13:00	32200	7	-56.3		265	50	
2025-11-08T13:00	32250	7	-56.1		265	50	
2025-11-08T13:00	32300	7	-56.3		265	50	
2025-11-08T13:00	32350	7	-56.5		265	50	
2025-11-08T13:00	32400	7	-56.8		265	51	
2025-11-08T13:00	32450	7	-56.9		265	51	
2025-11-08T13:00	32500	7	-57.0		265	52	
2025-11-08T13:00	32550	7	-56.9		264	51	
2025-11-08T13:00	32600	7	-56.8		264	51	
2025-11-08T13:00	32650	7	-56.8		264	49	
2025-11-08T13:00	32700	7	-56.9		264	48	
2025-11-08T13:00	32750	7	-57.0		264	48	
2025-11-08T13:00	32800	7	-57.1		264	48	
2025-11-08T13:00	32850	7	-57.1		265	48	
2025-11-08T13:00	32900	7	-57.0		266	49	
2025-11-08T13:00	32950	7	-56.7		266	50	
2025-11-08T13:00	33000	7	-56.6		266	50	
2025-11-08T13:00	33050	6	-56.6		265	51	
2025-11-08T13:00	33100	6	-56.7		265	52	
2025-11-08T13:00	33150	6	-56.7		265	53	
2025-11-08T13:00	33200	6	-56.6		265	54	
2025-11-08T13:00	33250	6	-56.4		265	54	
2025-11-08T13:00	33300	6	-56.3		266	54	
2025-11-08T13:00	33350	6	-56.2		266	53	
2025-11-08T13:00	33400	6	-56.2		267	52	
2025-11-08T13:00	33450	6	-56.3		268	52	
2025-11-08T13:00	33500	6	-56.3		268	53	
2025-11-08T13:00	33550	6	-56.0		268	55	
2025-11-08T13:00	33600	6	-55.8		268	56	
2025-11-08T13:00	33650	6	-55.6		269	57	
2025-11-08T13:00	33700	6	-55.7		269	58	
2025-11-08T13:00	33750	6	-55.8		270	58	
2025-11-08T13:00	33800	6	-55.9		270	58	
2025-11-08T13:00	33850	6	-55.9		271	57	
2025-11-08T13:00	33900	6	-55.8		271	57	
2025-11-08T13:00	33950	6	-55.6		270	57	
2025-11-08T13:00	34000	6	-55.3		270	57	
2025-11-08T13:00	34050	6	-55.1		269	58	
2025-11-08T13:00	34100	6	-55.0		269	57	
2025-11-08T13:00	34150	5	-55.0		268	57	
2025-11-08T13:00	34200	5	-55.0		268	57	
2025-11-08T13:00	34250	5	-54.9		268	56	
2025-11-08T13:00	34300	5	-54.5		268	56	
2025-11-08T13:00	34350	5	-54.2		268	55	
2025-11-08T13:00	34400	5	-54.1		269	55	
2025-11-08T13:00	34450	5	-53.8		270	55	
2025-11-08T13:00	34500	5	-53.5		270	55	
2025-11-08T13:00	34550	5	-53.1		270	55	
2025-11-08T13:00	34600	5	-52.8		270	55	
2025-11-08T13:00	34650	5	-52.8		269	55	
2025-11-08T13:00	34700	5	-52.9		268	55	
2025-11-08T13:00	34750	5	-53.1		267	56	
2025-11-08T13:00	34800	5	-53.0		267	57	
2025-11-08T13:00	34850	5	-52.7		266	59	
2025-11-08T13:00	34900	5	-52.5		266	60	
2025-11-08T13:00	34950	5	-52.5		266	60	
2025-11-08T13:00	35000	5	-52.3		266	60	
2025-11-09T00:00	491	960	3.8	3.7	204	1	
2025-11-09T00:00	501	959	4.0	3.7	192	1	
2025-11-09T00:00	520	957	3.7	3.7	182	0	
2025-11-09T00:00	540	955	3.6	3.6	182	0	
2025-11-09T00:00	560	953	3.6	3.5	184	0	
2025-11-09T00:00	580	950	3.6	3.6	181	0	
2025-11-09T00:00	600	948	3.7	3.7	174	0	
2025-11-09T00:00	620	945	4.0	3.8	157	0	
2025-11-09T00:00	640	943	4.5	3.6	99	0	
2025-11-09T00:00	660	941	5.2	3.4	20	0	
2025-11-09T00:00	680	938	5.6	3.5	4	0	
2025-11-09T00:00	700	936	5.6	3.5	358	1	
2025-11-09T00:00	720	934	5.4	3.5	357	1	
2025-11-09T00:00	740	932	5.4	3.3	1	1	
2025-11-09T00:00	760	929	6.3	3.5	11	1	
2025-11-09T00:00	780	927	6.9	3.7	26	1	
2025-11-09T00:00	800	925	7.3	3.1	37	1	
2025-11-09T00:00	820	923	7.6	2.5	47	1	
2025-11-09T00:00	840	920	8.0	1.1	53	2	
2025-11-09T00:00	860	918	8.1	0.9	55	2	
2025-11-09T00:00	880	916	8.2	1.0	55	2	
2025-11-09T00:00	900	914	8.3	2.5	56	2	
2025-11-09T00:00	920	912	8.5	2.7	56	2	
2025-11-09T00:00	940	909	8.6	2.7	56	2	
2025-11-09T00:00	960	907	8.5	2.9	55	2	
2025-11-09T00:00	980	905	8.4	2.8	54	2	
2025-11-09T00:00	1000	903	8.2	2.7	51	1	
2025-11-09T00:00	1020	900	8.0	2.7	47	1	
2025-11-09T00:00	1040	898	7.9	2.7	48	1	
2025-11-09T00:00	1060	896	7.7	2.7	54	2	
2025-11-09T00:00	1080	894	7.5	2.6	60	2	
2025-11-09T00:00	1100	892	7.3	2.5	64	3	
2025-11-09T00:00	1120	890	7.1	2.5	64	3	
2025-11-09T00:00	1140	888	7.0	2.5	63	4	
2025-11-09T00:00	1160	885	6.9	2.4	61	4	
2025-11-09T00:00	1180	883	6.8	2.4	57	5	
2025-11-09T00:00	1200	881	6.7	2.4	54	5	
2025-11-09T00:00	1220	879	6.6	2.6	52	5	
2025-11-09T00:00	1240	877	6.4	2.7	51	5	
2025-11-09T00:00	1260	875	6.3	2.9	51	6	
2025-11-09T00:00	1280	872	6.1	2.9	50	6	
2025-11-09T00:00	1300	870	5.9	2.8	50	6	
2025-11-09T00:00	1320	868	5.8	2.6	50	6	
2025-11-09T00:00	1340	866	5.7	2.1	49	6	
2025-11-09T00:00	1360	864	5.6	1.9	48	5	
2025-11-09T00:00	1380	862	5.5	1.8	45	5	
2025-11-09T00:00	1400	860	5.4	1.6	43	4	
2025-11-09T00:00	1420	858	5.2	1.5	40	4	
2025-11-09T00:00	1440	856	5.0	1.5	36	3	
2025-11-09T00:00	1460	854	5.0	1.3	33	3	
2025-11-09T00:00	1480	851	4.9	1.1	28	3	
2025-11-09T00:00	1500	849	4.7	0.9	25	3	
2025-11-09T00:00	1520	847	4.7	0.8	22	3	
2025-11-09T00:00	1540	845	4.6	0.6	21	4	
2025-11-09T00:00	1560	843	4.6	-0.3	21	4	
2025-11-09T00:00	1580	841	4.5	-0.4	21	4	
2025-11-09T00:00	1600	839	4.3	-0.7	23	5	
2025-11-09T00:00	1620	837	4.2	-1.4	25	5	
2025-11-09T00:00	1640	835	4.1	-1.8	27	5	
2025-11-09T00:00	1660	833	3.9	-2.0	30	5	
2025-11-09T00:00	1680	831	3.8	-2.3	32	5	
2025-11-09T00:00	1700	829	3.6	-2.4	34	5	
2025-11-09T00:00	1720	827	3.4	-2.5	36	5	
2025-11-09T00:00	1740	825	3.2	-2.4	38	5	
2025-11-09T00:00	1760	823	3.1	-2.5	39	5	
2025-11-09T00:00	1780	821	2.9	-2.5	40	5	
2025-11-09T00:00	1800	819	2.7	-2.8	41	5	
2025-11-09T00:00	1820	817	2.5	-2.9	41	5	
2025-11-09T00:00	1840	814	2.3	-2.9	42	5	
2025-11-09T00:00	1860	812	2.1	-2.8	42	5	
2025-11-09T00:00	1880	810	1.9	-2.9	42	5	
2025-11-09T00:00	1900	809	1.7	-3.0	42	6	
2025-11-09T00:00	1920	807	1.5	-2.9	42	6	
2025-11-09T00:00	1940	805	1.3	-2.9	42	6	
2025-11-09T00:00	1960	802	1.1	-3.0	42	6	
2025-11-09T00:00	1980	800	0.9	-3.1	41	6	
2025-11-09T00:00	2000	799	0.7	-3.1	40	6	
2025-11-09T00:00	2020	797	0.5	-3.1	39	6	
2025-11-09T00:00	2040	794	0.4	-3.2	37	6	
2025-11-09T00:00	2060	792	0.1	-3.1	33	5	
2025-11-09T00:00	2080	790	0.0	-3.2	30	5	
2025-11-09T00:00	2100	789	-0.2	-3.2	26	5	
2025-11-09T00:00	2120	787	-0.3	-3.2	22	5	
2025-11-09T00:00	2140	785	-0.6	-3.2	18	5	
2025-11-09T00:00	2160	783	-0.7	-3.3	16	5	
2025-11-09T00:00	2180	781	-0.9	-3.4	16	5	
2025-11-09T00:00	2200	779	-1.1	-3.4	16	5	
2025-11-09T00:00	2220	777	-1.3	-3.5	17	5	
2025-11-09T00:00	2240	775	-1.5	-3.5	17	5	
2025-11-09T00:00	2260	773	-1.7	-3.4	16	5	
2025-11-09T00:00	2280	771	-1.9	-3.5	13	4	
2025-11-09T00:00	2300	769	-2.1	-3.6	6	4	
2025-11-09T00:00	2320	767	-2.3	-3.6	356	4	
2025-11-09T00:00	2340	765	-2.5	-3.7	347	4	
2025-11-09T00:00	2360	763	-2.7	-3.7	342	4	
2025-11-09T00:00	2380	761	-2.9	-3.7	342	5	
2025-11-09T00:00	2400	759	-3.1	-3.8	346	5	
2025-11-09T00:00	2420	757	-3.3	-3.8	352	5	
2025-11-09T00:00	2440	756	-3.4	-3.9	358	5	
2025-11-09T00:00	2460	754	-3.7	-3.9	3	5	
2025-11-09T00:00	2480	752	-3.8	-4.0	4	5	
2025-11-09T00:00	2500	750	-4.0	-4.0	3	5	
2025-11-09T00:00	2520	748	-4.2	-4.2	2	5	
2025-11-09T00:00	2540	746	-4.3	-4.3	1	5	
2025-11-09T00:00	2560	744	-4.4	-4.4	359	5	
2025-11-09T00:00	2580	742	-4.6	-4.6	360	5	
2025-11-09T00:00	2600	740	-4.7	-4.7	1	5	
2025-11-09T00:00	2620	739	-4.8	-4.8	3	5	
2025-11-09T00:00	2640	737	-5.0	-5.0	5	6	
2025-11-09T00:00	2660	735	-5.1	-5.1	5	6	
2025-11-09T00:00	2680	733	-5.3	-5.3	5	6	
2025-11-09T00:00	2700	731	-5.4	-5.4	5	6	
2025-11-09T00:00	2720	729	-5.6	-5.6	3	5	
2025-11-09T00:00	2740	728	-5.7	-5.7	0	5	
2025-11-09T00:00	2760	726	-6.0	-6.0	357	5	
2025-11-09T00:00	2780	724	-6.1	-6.1	353	4	
2025-11-09T00:00	2800	722	-6.1	-6.8	348	4	
2025-11-09T00:00	2820	720	-5.9	-8.2	344	4	
2025-11-09T00:00	2840	718	-5.6	-9.9	341	3	
2025-11-09T00:00	2860	716	-5.6	-10.5	337	3	
2025-11-09T00:00	2880	715	-5.7	-10.8	334	3	
2025-11-09T00:00	2900	713	-5.7	-10.9	329	3	
2025-11-09T00:00	2920	711	-5.7	-10.9	323	4	
2025-11-09T00:00	2940	709	-5.7	-11.3	318	4	
2025-11-09T00:00	2960	707	-5.7	-11.3	313	4	
2025-11-09T00:00	2980	706	-5.6	-11.1	307	4	
2025-11-09T00:00	3000	704	-5.5	-11.5	303	4	
2025-11-09T00:00	3020	702	-5.5	-11.8	303	4	
2025-11-09T00:00	3040	700	-5.5	-11.9	305	3	
2025-11-09T00:00	3060	698	-5.5	-12.1	309	3	
2025-11-09T00:00	3080	697	-5.5	-12.2	314	3	
2025-11-09T00:00	3100	695	-5.6	-12.5	318	3	
2025-11-09T00:00	3120	693	-5.6	-12.6	322	3	
2025-11-09T00:00	3140	691	-5.6	-12.7	325	3	
2025-11-09T00:00	3160	690	-5.7	-12.8	324	3	
2025-11-09T00:00	3180	688	-5.8	-12.9	322	3	
2025-11-09T00:00	3200	686	-5.9	-13.1	318	4	
2025-11-09T00:00	3220	684	-6.1	-13.2	315	4	
2025-11-09T00:00	3240	683	-6.2	-12.9	313	4	
2025-11-09T00:00	3260	681	-6.4	-12.5	312	4	
2025-11-09T00:00	3280	679	-6.5	-12.3	312	4	
2025-11-09T00:00	3300	677	-6.7	-12.0	315	4	
2025-11-09T00:00	3320	676	-6.8	-12.2	323	4	
2025-11-09T00:00	3340	674	-6.9	-12.6	334	4	
2025-11-09T00:00	3360	672	-7.0	-12.7	342	5	
2025-11-09T00:00	3380	670	-7.2	-12.4	349	5	
2025-11-09T00:00	3400	669	-7.3	-13.2	352	5	
2025-11-09T00:00	3420	667	-6.7	-14.8	354	6	
2025-11-09T00:00	3440	665	-6.3	-15.1	354	6	
2025-11-09T00:00	3460	664	-6.1	-15.4	355	6	
2025-11-09T00:00	3480	662	-6.0	-15.5	356	6	
2025-11-09T00:00	3500	660	-5.9	-16.5	356	6	
2025-11-09T00:00	3520	658	-5.9	-17.0	357	7	
2025-11-09T00:00	3540	657	-5.9	-16.5	356	7	
2025-11-09T00:00	3560	655	-6.0	-17.0	355	7	
2025-11-09T00:00	3580	653	-6.1	-16.8	354	7	
2025-11-09T00:00	3600	652	-6.2	-16.4	352	7	
2025-11-09T00:00	3620	650	-6.3	-16.1	351	7	
2025-11-09T00:00	3640	649	-6.5	-15.6	350	8	
2025-11-09T00:00	3660	647	-6.6	-14.8	348	8	
2025-11-09T00:00	3680	645	-6.6	-13.1	347	8	
2025-11-09T00:00	3700	643	-6.7	-12.5	346	8	
2025-11-09T00:00	3720	642	-6.8	-11.5	346	8	
2025-11-09T00:00	3740	640	-6.9	-11.1	346	8	
2025-11-09T00:00	3760	638	-7.1	-11.1	346	8	
2025-11-09T00:00	3780	637	-7.3	-11.2	346	8	
2025-11-09T00:00	3800	635	-7.5	-11.4	346	8	
2025-11-09T00:00	3820	634	-7.6	-11.8	346	8	
2025-11-09T00:00	3840	632	-7.7	-13.0	347	8	
2025-11-09T00:00	3860	630	-7.7	-14.4	347	8	
2025-11-09T00:00	3880	629	-7.9	-13.9	348	8	
2025-11-09T00:00	3900	627	-8.0	-12.9	349	8	
2025-11-09T00:00	3920	626	-8.2	-12.5	349	8	
2025-11-09T00:00	3940	624	-8.3	-12.5	349	8	
2025-11-09T00:00	3960	622	-8.5	-13.0	348	8	
2025-11-09T00:00	3980	621	-8.7	-13.1	347	7	
2025-11-09T00:00	4000	619	-8.9	-12.7	346	7	
2025-11-09T00:00	4020	617	-9.1	-11.3	344	7	
2025-11-09T00:00	4040	616	-9.2	-11.3	343	8	
2025-11-09T00:00	4060	614	-9.3	-12.1	342	8	
2025-11-09T00:00	4080	613	-9.4	-12.4	340	9	
2025-11-09T00:00	4100	611	-9.5	-12.4	339	9	
2025-11-09T00:00	4120	609	-9.6	-12.8	338	10	
2025-11-09T00:00	4140	608	-9.7	-13.2	337	10	
2025-11-09T00:00	4160	607	-9.8	-14.0	337	10	
2025-11-09T00:00	4180	605	-9.9	-15.4	337	10	
2025-11-09T00:00	4200	603	-10.1	-16.1	337	9	
2025-11-09T00:00	4220	602	-10.2	-16.2	337	8	
2025-11-09T00:00	4240	600	-10.4	-17.7	337	8	
2025-11-09T00:00	4260	599	-10.4	-19.9	336	7	
2025-11-09T00:00	4280	597	-10.3	-24.3	333	6	
2025-11-09T00:00	4300	595	-10.2	-27.9	329	6	
2025-11-09T00:00	4320	594	-10.2	-27.5	324	6	
2025-11-09T00:00	4340	593	-10.1	-29.2	320	6	
2025-11-09T00:00	4360	591	-9.9	-31.4	317	6	
2025-11-09T00:00	4380	589	-9.9	-31.6	316	6	
2025-11-09T00:00	4400	588	-9.9	-31.8	316	6	
2025-11-09T00:00	4420	586	-10.1	-32.0	317	6	
2025-11-09T00:00	4440	585	-10.3	-32.2	319	5	
2025-11-09T00:00	4460	583	-10.4	-32.4	319	5	
2025-11-09T00:00	4480	582	-10.6	-32.4	318	5	
2025-11-09T00:00	4500	580	-10.7	-32.5	315	4	
2025-11-09T00:00	4520	579	-10.9	-32.7	309	4	
2025-11-09T00:00	4540	577	-11.0	-32.4	302	4	
2025-11-09T00:00	4560	576	-11.1	-32.1	297	4	
2025-11-09T00:00	4580	574	-11.3	-32.0	292	4	
2025-11-09T00:00	4600	573	-11.5	-32.1	288	5	
2025-11-09T00:00	4620	571	-11.7	-32.2	285	5	
2025-11-09T00:00	4640	570	-11.9	-32.3	282	5	
2025-11-09T00:00	4660	568	-12.0	-32.3	280	4	
2025-11-09T00:00	4680	567	-12.0	-32.4	278	4	
2025-11-09T00:00	4700	565	-12.1	-32.2	276	4	
2025-11-09T00:00	4720	564	-12.2	-31.8	274	4	
2025-11-09T00:00	4740	562	-12.4	-31.4	272	3	
2025-11-09T00:00	4760	561	-12.6	-30.8	270	3	
2025-11-09T00:00	4780	559	-12.8	-30.8	268	3	
2025-11-09T00:00	4800	558	-12.9	-31.5	264	2	
2025-11-09T00:00	4820	557	-13.1	-31.8	261	2	
2025-11-09T00:00	4840	555	-13.2	-30.7	262	2	
2025-11-09T00:00	4860	554	-13.4	-31.7	268	1	
2025-11-09T00:00	4880	552	-13.6	-31.6	282	1	
2025-11-09T00:00	4900	551	-13.8	-30.2	298	1	
2025-11-09T00:00	4920	549	-14.0	-29.9	306	2	
2025-11-09T00:00	4940	548	-14.1	-29.5	309	2	
2025-11-09T00:00	4960	546	-14.4	-29.4	308	3	
2025-11-09T00:00	4980	545	-14.5	-29.5	308	3	
2025-11-09T00:00	5000	544	-14.7	-28.6	308	3	
2025-11-09T00:00	5020	542	-14.8	-27.9	309	3	
2025-11-09T00:00	5040	541	-15.0	-26.0	311	4	
2025-11-09T00:00	5060	539	-15.2	-25.3	312	4	
2025-11-09T00:00	5080	538	-15.4	-25.5	313	4	
2025-11-09T00:00	5100	536	-15.6	-25.4	311	4	
2025-11-09T00:00	5120	535	-15.8	-25.3	309	4	
2025-11-09T00:00	5140	534	-16.0	-25.6	305	4	
2025-11-09T00:00	5160	532	-16.2	-25.7	301	4	
2025-11-09T00:00	5180	531	-16.4	-25.7	297	4	
2025-11-09T00:00	5200	529	-16.6	-25.9	294	4	
2025-11-09T00:00	5220	528	-16.8	-26.1	293	4	
2025-11-09T00:00	5240	526	-16.9	-26.3	294	3	
2025-11-09T00:00	5260	525	-17.1	-26.1	298	3	
2025-11-09T00:00	5280	524	-17.3	-26.0	303	3	
2025-11-09T00:00	5300	522	-17.5	-25.8	307	3	
2025-11-09T00:00	5320	521	-17.7	-25.8	312	4	
2025-11-09T00:00	5340	519	-17.9	-25.7	317	4	
2025-11-09T00:00	5360	518	-18.1	-25.7	320	4	
2025-11-09T00:00	5380	517	-18.3	-25.7	323	4	
2025-11-09T00:00	5400	515	-18.4	-25.9	326	4	
2025-11-09T00:00	5420	514	-18.6	-25.9	329	4	
2025-11-09T00:00	5440	512	-18.8	-26.1	332	4	
2025-11-09T00:00	5460	511	-19.0	-26.3	336	4	
2025-11-09T00:00	5480	510	-19.2	-26.3	339	4	
2025-11-09T00:00	5500	508	-19.4	-26.4	341	3	
2025-11-09T00:00	5520	507	-19.6	-27.0	344	3	
2025-11-09T00:00	5540	506	-19.7	-27.1	349	3	
2025-11-09T00:00	5560	504	-19.9	-27.1	353	2	
2025-11-09T00:00	5580	503	-20.1	-27.0	357	2	
2025-11-09T00:00	5600	502	-20.3	-26.9	1	2	
2025-11-09T00:00	5620	500	-20.5	-26.7	4	2	
2025-11-09T00:00	5640	499	-20.7	-26.7	5	2	
2025-11-09T00:00	5660	497	-20.9	-26.7	4	3	
2025-11-09T00:00	5680	496	-21.1	-26.6	2	3	
2025-11-09T00:00	5700	495	-21.3	-26.9	357	3	
2025-11-09T00:00	5720	494	-21.4	-27.9	353	3	
2025-11-09T00:00	5740	492	-21.6	-27.2	349	3	
2025-11-09T00:00	5760	491	-21.7	-26.6	345	3	
2025-11-09T00:00	5780	489	-21.8	-26.9	341	3	
2025-11-09T00:00	5800	488	-21.9	-28.1	339	3	
2025-11-09T00:00	5820	487	-22.0	-28.4	339	3	
2025-11-09T00:00	5840	486	-22.1	-28.9	342	3	
2025-11-09T00:00	5860	484	-22.3	-29.3	346	3	
2025-11-09T00:00	5880	483	-22.4	-29.7	350	4	
2025-11-09T00:00	5900	482	-22.6	-30.7	355	4	
2025-11-09T00:00	5920	480	-22.6	-32.2	357	4	
2025-11-09T00:00	5940	479	-22.7	-34.8	358	4	
2025-11-09T00:00	5960	478	-22.6	-39.2	357	5	
2025-11-09T00:00	5980	477	-22.5	-40.9	357	5	
2025-11-09T00:00	6000	475	-22.5	-41.1	357	5	
2025-11-09T00:00	6020	474	-22.4	-42.9	358	5	
2025-11-09T00:00	6040	472	-22.3	-43.0	2	6	
2025-11-09T00:00	6060	471	-22.3	-42.7	6	6	
2025-11-09T00:00	6080	470	-22.3	-42.4	10	6	
2025-11-09T00:00	6100	469	-22.3	-42.7	13	6	
2025-11-09T00:00	6120	467	-22.4	-42.8	15	7	
2025-11-09T00:00	6140	466	-22.5	-42.8	16	7	
2025-11-09T00:00	6160	465	-22.7	-42.9	17	7	
2025-11-09T00:00	6180	464	-22.8	-43.2	17	7	
2025-11-09T00:00	6200	462	-22.8	-43.9	16	7	
2025-11-09T00:00	6220	461	-22.9	-42.6	13	6	
2025-11-09T00:00	6240	460	-23.1	-40.1	8	6	
2025-11-09T00:00	6260	458	-23.2	-39.5	3	6	
2025-11-09T00:00	6280	457	-23.4	-39.5	359	6	
2025-11-09T00:00	6300	456	-23.5	-38.4	355	5	
2025-11-09T00:00	6320	455	-23.7	-35.5	351	5	
2025-11-09T00:00	6340	453	-23.9	-34.1	347	5	
2025-11-09T00:00	6360	452	-24.1	-34.3	344	6	
2025-11-09T00:00	6380	451	-24.2	-33.9	342	6	
2025-11-09T00:00	6400	450	-24.4	-33.9	340	6	
2025-11-09T00:00	6420	448	-24.6	-33.7	339	6	
2025-11-09T00:00	6440	447	-24.8	-33.5	339	6	
2025-11-09T00:00	6460	446	-25.0	-33.4	339	6	
2025-11-09T00:00	6480	445	-25.2	-32.7	339	5	
2025-11-09T00:00	6500	444	-25.3	-32.6	340	5	
2025-11-09T00:00	6520	443	-25.5	-32.4	340	5	
2025-11-09T00:00	6540	441	-25.7	-32.6	340	5	
2025-11-09T00:00	6560	440	-25.9	-32.7	339	5	
2025-11-09T00:00	6580	439	-26.1	-32.5	337	5	
2025-11-09T00:00	6600	438	-26.2	-32.3	336	6	
2025-11-09T00:00	6620	436	-26.4	-32.2	334	6	
2025-11-09T00:00	6640	435	-26.6	-32.3	333	6	
2025-11-09T00:00	6660	434	-26.8	-32.4	332	6	
2025-11-09T00:00	6680	433	-26.9	-32.5	331	6	
2025-11-09T00:00	6700	431	-27.1	-32.7	330	6	
2025-11-09T00:00	6720	430	-27.2	-32.9	329	5	
2025-11-09T00:00	6740	429	-27.4	-33.0	329	5	
2025-11-09T00:00	6760	428	-27.6	-33.0	329	5	
2025-11-09T00:00	6780	427	-27.8	-33.0	329	5	
2025-11-09T00:00	6800	426	-27.9	-33.2	330	4	
2025-11-09T00:00	6820	424	-28.1	-33.2	333	4	
2025-11-09T00:00	6840	423	-28.3	-33.3	337	4	
2025-11-09T00:00	6860	422	-28.5	-33.7	341	4	
2025-11-09T00:00	6880	421	-28.7	-34.3	345	4	
2025-11-09T00:00	6900	420	-28.8	-35.0	349	4	
2025-11-09T00:00	6920	419	-28.9	-35.1	352	4	
2025-11-09T00:00	6940	417	-29.1	-33.9	351	4	
2025-11-09T00:00	6960	416	-29.2	-33.2	348	5	
2025-11-09T00:00	6980	415	-29.3	-33.5	344	6	
2025-11-09T00:00	7000	414	-29.5	-33.8	342	6	
2025-11-09T00:00	7020	413	-29.6	-34.1	340	6	
2025-11-09T00:00	7040	412	-29.8	-34.0	339	7	
2025-11-09T00:00	7060	411	-30.0	-34.0	339	7	
2025-11-09T00:00	7080	409	-30.1	-34.3	338	7	
2025-11-09T00:00	7100	408	-30.2	-34.5	338	7	
2025-11-09T00:00	7120	407	-30.3	-34.7	339	7	
2025-11-09T00:00	7140	406	-30.4	-34.9	340	6	
2025-11-09T00:00	7160	405	-30.6	-35.2	341	6	
2025-11-09T00:00	7180	404	-30.7	-35.8	343	6	
2025-11-09T00:00	7200	403	-30.9	-36.1	345	5	
2025-11-09T00:00	7220	401	-31.1	-36.2	347	5	
2025-11-09T00:00	7240	400	-31.3	-36.4	349	5	
2025-11-09T00:00	7260	399	-31.4	-36.6	351	4	
2025-11-09T00:00	7280	398	-31.6	-36.7	352	4	
2025-11-09T00:00	7300	397	-31.8	-37.0	352	5	
2025-11-09T00:00	7320	396	-31.9	-37.1	350	5	
2025-11-09T00:00	7340	395	-32.1	-37.3	349	5	
2025-11-09T00:00	7360	393	-32.2	-37.5	347	5	
2025-11-09T00:00	7380	392	-32.4	-37.9	346	5	
2025-11-09T00:00	7400	391	-32.5	-38.1	346	5	
2025-11-09T00:00	7420	390	-32.7	-38.0	345	5	
2025-11-09T00:00	7440	389	-32.9	-38.2	345	5	
2025-11-09T00:00	7460	388	-33.0	-38.5	344	5	
2025-11-09T00:00	7480	387	-33.2	-38.7	343	5	
2025-11-09T00:00	7500	386	-33.3	-39.1	342	5	
2025-11-09T00:00	7520	385	-33.4	-39.7	340	5	
2025-11-09T00:00	7540	384	-33.5	-40.0	338	4	
2025-11-09T00:00	7560	383	-33.6	-40.0	336	4	
2025-11-09T00:00	7580	381	-33.8	-39.7	334	4	
2025-11-09T00:00	7600	380	-34.0	-39.5	332	4	
2025-11-09T00:00	7620	379	-34.2	-39.6	331	3	
2025-11-09T00:00	7640	378	-34.3	-40.2	331	3	
2025-11-09T00:00	7660	377	-34.4	-41.0	332	3	
2025-11-09T00:00	7680	376	-34.6	-40.9	334	3	
2025-11-09T00:00	7700	375	-34.8	-40.5	336	4	
2025-11-09T00:00	7720	374	-34.9	-40.4	337	4	
2025-11-09T00:00	7740	373	-35.1	-40.5	338	4	
2025-11-09T00:00	7760	372	-35.3	-40.8	337	5	
2025-11-09T00:00	7780	371	-35.4	-40.7	337	5	
2025-11-09T00:00	7800	369	-35.6	-40.6	336	5	
2025-11-09T00:00	7820	368	-35.8	-40.5	334	5	
2025-11-09T00:00	7840	367	-36.0	-40.8	333	5	
2025-11-09T00:00	7860	366	-36.1	-40.9	331	5	
2025-11-09T00:00	7880	365	-36.3	-40.7	329	5	
2025-11-09T00:00	7900	364	-36.5	-40.8	328	4	
2025-11-09T00:00	7920	363	-36.7	-40.9	326	4	
2025-11-09T00:00	7940	362	-36.9	-41.0	326	4	
2025-11-09T00:00	7960	361	-37.0	-40.9	325	4	
2025-11-09T00:00	7980	360	-37.2	-40.9	325	4	
2025-11-09T00:00	8000	359	-37.4	-41.1	326	4	
2025-11-09T00:00	8020	358	-37.6	-41.4	327	4	
2025-11-09T00:00	8040	357	-37.8	-41.7	328	4	
2025-11-09T00:00	8060	356	-38.0	-42.1	328	4	
2025-11-09T00:00	8080	355	-38.1	-42.9	328	4	
2025-11-09T00:00	8100	354	-38.2	-43.7	327	4	
2025-11-09T00:00	8120	353	-38.3	-44.3	325	4	
2025-11-09T00:00	8140	352	-38.5	-44.0	323	5	
2025-11-09T00:00	8160	351	-38.6	-43.9	322	5	
2025-11-09T00:00	8180	350	-38.8	-43.7	322	5	
2025-11-09T00:00	8200	349	-39.0	-43.5	322	5	
2025-11-09T00:00	8220	348	-39.2	-43.6	323	5	
2025-11-09T00:00	8240	347	-39.4	-43.7	324	6	
2025-11-09T00:00	8260	346	-39.5	-43.8	325	6	
2025-11-09T00:00	8280	345	-39.7	-43.9	326	6	
2025-11-09T00:00	8300	344	-39.9	-44.2	326	6	
2025-11-09T00:00	8320	343	-40.0	-44.4	326	6	
2025-11-09T00:00	8340	342	-40.2	-44.4	326	6	
2025-11-09T00:00	8360	341	-40.4	-44.4	325	6	
2025-11-09T00:00	8380	340	-40.6	-44.4	323	5	
2025-11-09T00:00	8400	339	-40.8	-44.6	322	5	
2025-11-09T00:00	8420	338	-40.9	-45.0	322	5	
2025-11-09T00:00	8440	337	-41.1	-45.2	322	5	
2025-11-09T00:00	8460	336	-41.2	-45.1	322	5	
2025-11-09T00:00	8480	335	-41.4	-45.2	324	5	
2025-11-09T00:00	8500	334	-41.6	-45.4	325	5	
2025-11-09T00:00	8520	333	-41.7	-45.9	325	5	
2025-11-09T00:00	8540	332	-41.7	-46.7	324	6	
2025-11-09T00:00	8560	331	-41.8	-47.1	323	6	
2025-11-09T00:00	8580	330	-42.0	-47.3	321	6	
2025-11-09T00:00	8600	329	-42.2	-47.7	320	6	
2025-11-09T00:00	8620	328	-42.3	-48.1	318	6	
2025-11-09T00:00	8640	327	-42.4	-48.3	318	6	
2025-11-09T00:00	8660	326	-42.5	-48.3	318	6	
2025-11-09T00:00	8680	325	-42.6	-48.7	319	6	
2025-11-09T00:00	8700	324	-42.8	-49.2	321	6	
2025-11-09T00:00	8720	323	-43.0	-49.5	324	6	
2025-11-09T00:00	8740	322	-43.1	-49.2	326	6	
2025-11-09T00:00	8760	321	-43.2	-49.1	327	6	
2025-11-09T00:00	8780	320	-43.4	-49.2	327	6	
2025-11-09T00:00	8800	319	-43.5	-49.3	327	7	
2025-11-09T00:00	8820	318	-43.6	-49.9	326	7	
2025-11-09T00:00	8840	317	-43.8	-50.6	325	7	
2025-11-09T00:00	8860	316	-43.9	-51.3	323	7	
2025-11-09T00:00	8880	315	-44.0	-51.6	323	7	
2025-11-09T00:00	8900	314	-44.1	-52.1	322	7	
2025-11-09T00:00	8920	313	-44.2	-52.8	323	8	
2025-11-09T00:00	8940	313	-44.3	-53.3	323	8	
2025-11-09T00:00	8960	312	-44.5	-53.3	324	8	
2025-11-09T00:00	8980	311	-44.6	-53.7	325	8	
2025-11-09T00:00	9000	310	-44.7	-54.2	327	8	
2025-11-09T00:00	9020	309	-44.9	-54.4	328	7	
2025-11-09T00:00	9040	308	-45.0	-54.8	329	7	
2025-11-09T00:00	9060	307	-45.0	-55.4	330	7	
2025-11-09T00:00	9080	306	-45.1	-55.8	331	6	
2025-11-09T00:00	9100	305	-45.2	-56.1	331	6	
2025-11-09T00:00	9120	304	-45.4	-56.3	330	6	
2025-11-09T00:00	9140	303	-45.6	-56.4	329	6	
2025-11-09T00:00	9160	302	-45.7	-56.4	327	6	
2025-11-09T00:00	9180	302	-45.9	-56.5	326	6	
2025-11-09T00:00	9200	301	-46.0	-56.6	324	6	
2025-11-09T00:00	9220	300	-46.2	-56.6	322	6	
2025-11-09T00:00	9240	299	-46.4	-56.7	320	6	
2025-11-09T00:00	9260	298	-46.5	-56.7	319	6	
2025-11-09T00:00	9280	297	-46.7	-56.8	319	6	
2025-11-09T00:00	9300	296	-46.8	-56.9	320	6	
2025-11-09T00:00	9320	295	-47.0	-57.0	321	6	
2025-11-09T00:00	9340	294	-47.1	-57.3	323	6	
2025-11-09T00:00	9360	293	-47.2	-57.8	326	6	
2025-11-09T00:00	9380	293	-47.3	-58.0	327	5	
2025-11-09T00:00	9400	292	-47.5	-58.1	329	5	
2025-11-09T00:00	9420	291	-47.7	-58.0	330	5	
2025-11-09T00:00	9440	290	-47.9	-57.9	330	5	
2025-11-09T00:00	9460	289	-48.1	-57.8	330	5	
2025-11-09T00:00	9480	288	-48.3	-58.1	330	5	
2025-11-09T00:00	9500	287	-48.4	-58.8	330	5	
2025-11-09T00:00	9520	286	-48.5	-59.2	329	5	
2025-11-09T00:00	9540	285	-48.7	-59.3	328	5	
2025-11-09T00:00	9560	285	-48.8	-59.3	327	5	
2025-11-09T00:00	9580	284	-49.0	-59.4	326	5	
2025-11-09T00:00	9600	283	-49.1	-59.4	325	5	
2025-11-09T00:00	9620	282	-49.3	-59.4	325	5	
2025-11-09T00:00	9640	281	-49.5	-59.3	324	5	
2025-11-09T00:00	9660	280	-49.6	-59.5	323	5	
2025-11-09T00:00	9680	279	-49.7	-59.6	323	5	
2025-11-09T00:00	9700	279	-49.9	-59.7	323	5	
2025-11-09T00:00	9720	278	-50.0	-60.1	323	5	
2025-11-09T00:00	9740	277	-50.2	-60.8	323	4	
2025-11-09T00:00	9760	276	-50.3	-61.2	323	4	
2025-11-09T00:00	9780	275	-50.5	-60.9	323	4	
2025-11-09T00:00	9800	274	-50.6	-60.0	322	4	
2025-11-09T00:00	9820	274	-50.8	-59.6	322	4	
2025-11-09T00:00	9840	273	-51.0	-59.9	321	4	
2025-11-09T00:00	9860	272	-51.1	-60.1	320	4	
2025-11-09T00:00	9880	271	-51.3	-60.4	318	4	
2025-11-09T00:00	9900	270	-51.4	-60.5	317	4	
2025-11-09T00:00	9920	269	-51.6	-60.5	316	4	
2025-11-09T00:00	9940	268	-51.8	-60.5	315	4	
2025-11-09T00:00	9960	268	-51.9	-60.6	316	4	
2025-11-09T00:00	9980	267	-52.1	-60.9	317	4	
2025-11-09T00:00	10000	266	-52.2	-61.4	319	4	
2025-11-09T00:00	10018	265	-52.4	-61.8	321	4	
2025-11-09T00:00	10050	264	-52.7	-62.1	324	5	
2025-11-09T00:00	10100	262	-53.1	-62.2	327	5	
2025-11-09T00:00	10150	260	-53.4	-61.3	329	5	
2025-11-09T00:00	10200	258	-53.9	-60.1	331	5	
2025-11-09T00:00	10250	256	-54.2	-59.7	327	5	
2025-11-09T00:00	10300	254	-54.4	-59.9	321	5	
2025-11-09T00:00	10350	252	-54.6	-59.6	317	6	
2025-11-09T00:00	10400	250	-54.9	-59.7	318	6	
2025-11-09T00:00	10450	248	-55.2	-59.9	322	6	
2025-11-09T00:00	10500	246	-55.4	-60.9	328	6	
2025-11-09T00:00	10550	244	-55.6	-62.2	332	6	
2025-11-09T00:00	10600	242	-55.6	-64.3	336	6	
2025-11-09T00:00	10650	240	-55.9	-65.5	339	7	
2025-11-09T00:00	10700	239	-56.2	-65.3	339	7	
2025-11-09T00:00	10750	237	-56.3	-65.5	337	7	
2025-11-09T00:00	10800	235	-56.1	-67.1	334	7	
2025-11-09T00:00	10850	233	-56.1	-66.7	333	7	
2025-11-09T00:00	10900	231	-56.2	-65.6	333	7	
2025-11-09T00:00	10950	229	-56.2	-65.1	334	6	
2025-11-09T00:00	11000	228	-56.3	-65.4	335	6	
2025-11-09T00:00	11050	226	-56.6	-65.6	338	6	
2025-11-09T00:00	11100	224	-56.9	-65.6	340	7	
2025-11-09T00:00	11150	222	-57.2	-65.7	339	8	
2025-11-09T00:00	11200	220	-57.4	-66.2	338	9	
2025-11-09T00:00	11250	219	-57.8	-66.5	340	9	
2025-11-09T00:00	11300	217	-58.1	-66.4	344	8	
2025-11-09T00:00	11350	215	-58.1	-65.9	350	7	
2025-11-09T00:00	11400	214	-58.3	-65.7	355	7	
2025-11-09T00:00	11450	212	-58.4	-65.7	358	7	
2025-11-09T00:00	11500	210	-58.4	-66.1	0	6	
2025-11-09T00:00	11550	209	-58.0	-67.9	7	5	
2025-11-09T00:00	11600	207	-56.6	-70.6	22	4	
2025-11-09T00:00	11650	205	-55.4	-73.5	48	3	
2025-11-09T00:00	11700	204	-54.6	-74.4	79	3	
2025-11-09T00:00	11750	202	-53.8	-75.2	99	2	
2025-11-09T00:00	11800	200	-52.9	-76.7	121	1	
2025-11-09T00:00	11850	199	-52.6	-76.8	165	1	
2025-11-09T00:00	11900	197	-52.7	-76.9	252	1	
2025-11-09T00:00	11950	196	-52.5	-77.0	278	2	
2025-11-09T00:00	12000	194	-52.8	-77.2	283	4	
2025-11-09T00:00	12050	193	-53.1	-76.9	284	4	
2025-11-09T00:00	12100	191	-53.3	-76.8	284	3	
2025-11-09T00:00	12150	190	-53.6	-77.0	291	2	
2025-11-09T00:00	12200	188	-53.9	-77.1	300	2	
2025-11-09T00:00	12250	187	-54.2	-77.2	304	3	
2025-11-09T00:00	12300	185	-54.6	-77.3	300	3	
2025-11-09T00:00	12350	184	-54.9	-77.5	286	3	
2025-11-09T00:00	12400	183	-55.1	-77.7	269	3	
2025-11-09T00:00	12450	181	-55.4	-77.9	261	3	
2025-11-09T00:00	12500	180	-55.6	-78.3	273	2	
2025-11-09T00:00	12550	178	-55.0	-78.8	317	1	
2025-11-09T00:00	12600	177	-55.0	-79.1	22	1	
2025-11-09T00:00	12650	176	-55.1	-79.4	42	0	
2025-11-09T00:00	12700	174	-54.9	-79.6	151	0	
2025-11-09T00:00	12750	173	-55.2	-79.7	133	1	
2025-11-09T00:00	12800	172	-55.5	-79.8	131	2	
2025-11-09T00:00	12850	170	-55.7	-80.0	138	2	
2025-11-09T00:00	12900	169	-55.9	-80.1	165	2	
2025-11-09T00:00	12950	168	-55.9	-80.3	204	2	
2025-11-09T00:00	13000	166	-55.8	-80.7	222	3	
2025-11-09T00:00	13050	165	-56.0	-81.0	232	4	
2025-11-09T00:00	13100	164	-56.3	-81.0	246	3	
2025-11-09T00:00	13150	162	-56.6	-81.0	255	3	
2025-11-09T00:00	13200	161	-56.5	-81.1	242	2	
2025-11-09T00:00	13250	160	-56.3	-81.2	216	2	
2025-11-09T00:00	13300	159	-56.7	-81.2	196	3	
2025-11-09T00:00	13350	157	-57.0	-81.3	186	4	
2025-11-09T00:00	13400	156	-57.2	-81.4	176	4	
2025-11-09T00:00	13450	155	-57.3	-81.5	165	4	
2025-11-09T00:00	13500	154	-57.6	-81.7	161	4	
2025-11-09T00:00	13550	152	-57.8	-81.8	162	4	
2025-11-09T00:00	13600	151	-58.0	-81.9	164	4	
2025-11-09T00:00	13650	150	-58.2	-82.1	166	4	
2025-11-09T00:00	13700	149	-58.3	-82.2	166	4	
2025-11-09T00:00	13750	148	-58.2	-82.3	165	4	
2025-11-09T00:00	13800	146	-58.2	-82.3	165	4	
2025-11-09T00:00	13850	145	-58.4	-82.4	158	4	
2025-11-09T00:00	13900	144	-58.7	-82.4	137	4	
2025-11-09T00:00	13950	143	-58.9	-82.5	116	4	
2025-11-09T00:00	14000	142	-59.1	-82.5	104	5	
2025-11-09T00:00	14050	141	-59.3	-82.6	101	5	
2025-11-09T00:00	14100	140	-59.4	-82.7	107	5	
2025-11-09T00:00	14150	139	-59.3	-82.8	121	4	
2025-11-09T00:00	14200	137	-59.0	-82.9	133	3	
2025-11-09T00:00	14250	136	-59.1	-82.9	143	3	
2025-11-09T00:00	14300	135	-59.3	-82.9	168	2	
2025-11-09T00:00	14350	134	-59.5	-83.0	187	3	
2025-11-09T00:00	14400	133	-59.6	-83.0	190	4	
2025-11-09T00:00	14450	132	-59.9	-83.1	192	4	
2025-11-09T00:00	14500	131	-60.0	-83.2	194	4	
2025-11-09T00:00	14550	130	-59.8	-83.2	195	4	
2025-11-09T00:00	14600	129	-59.9	-83.3	192	3	
2025-11-09T00:00	14650	128	-60.1	-83.4	188	3	
2025-11-09T00:00	14700	127	-59.8	-83.5	194	2	
2025-11-09T00:00	14750	126	-59.4	-83.4	204	2	
2025-11-09T00:00	14800	125	-59.5	-83.5	213	2	
2025-11-09T00:00	14850	124	-59.1	-83.5	218	2	
2025-11-09T00:00	14900	123	-58.8	-83.5	206	1	
2025-11-09T00:00	14950	122	-58.7	-83.5	189	1	
2025-11-09T00:00	15000	121	-58.4	-83.6	209	2	
2025-11-09T00:00	15050	120	-58.1	-83.5	220	2	
2025-11-09T00:00	15100	119	-58.0	-83.4	210	3	
2025-11-09T00:00	15150	118	-58.1	-83.5	197	2	
2025-11-09T00:00	15200	117	-58.1	-83.5	210	2	
2025-11-09T00:00	15250	116	-57.9	-83.5	230	3	
2025-11-09T00:00	15300	115	-57.9	-83.5	237	5	
2025-11-09T00:00	15350	114	-58.1	-83.5	244	5	
2025-11-09T00:00	15400	113	-58.4	-83.6	253	6	
2025-11-09T00:00	15450	113	-58.6	-83.7	257	7	
2025-11-09T00:00	15500	112	-58.4	-83.7	256	6	
2025-11-09T00:00	15550	111	-58.4	-83.8	251	5	
2025-11-09T00:00	15600	110	-58.6	-83.7	245	4	
2025-11-09T00:00	15650	109	-59.0	-83.9	247	4	
2025-11-09T00:00	15700	108	-59.0	-83.9	254	6	
2025-11-09T00:00	15750	107	-59.1	-83.9	261	7	
2025-11-09T00:00	15800	106	-59.5	-84.0	264	7	
2025-11-09T00:00	15850	106	-59.9	-84.1	265	8	
2025-11-09T00:00	15900	105	-60.3	-84.2	267	9	
2025-11-09T00:00	15950	104	-60.8	-84.3	270	10	
2025-11-09T00:00	16000	103	-61.2	-84.4	275	10	
2025-11-09T00:00	16050	102	-61.6	-84.6	279	9	
2025-11-09T00:00	16100	101	-61.8	-84.8	281	8	
2025-11-09T00:00	16150	101	-61.7	-84.8	284	7	
2025-11-09T00:00	16200	100	-61.8	-84.8	288	6	
2025-11-09T00:00	16250	99	-62.1	-84.9	290	5	
2025-11-09T00:00	16300	98	-62.4	-85.0	294	4	
2025-11-09T00:00	16350	97	-62.5	-85.1	304	3	
2025-11-09T00:00	16400	97	-62.4	-85.1	311	2	
2025-11-09T00:00	16450	96	-62.6	-85.2	296	2	
2025-11-09T00:00	16500	95	-62.7	-85.3	270	2	
2025-11-09T00:00	16550	94	-62.7	-85.4	266	3	
2025-11-09T00:00	16600	94	-62.7	-85.5	279	3	
2025-11-09T00:00	16650	93	-62.6	-85.5	295	3	
2025-11-09T00:00	16700	92	-62.3	-85.4	307	2	
2025-11-09T00:00	16750	91	-62.4	-85.5	320	2	
2025-11-09T00:00	16800	91	-62.5	-85.6	335	2	
2025-11-09T00:00	16850	90	-62.5	-85.7	346	2	
2025-11-09T00:00	16900	89	-62.4	-85.7	357	2	
2025-11-09T00:00	16950	88	-62.0	-85.6	14	1	
2025-11-09T00:00	17000	88	-62.0	-85.8	35	1	
2025-11-09T00:00	17050	87	-61.8	-85.7	51	1	
2025-11-09T00:00	17100	86	-61.9	-85.8	37	0	
2025-11-09T00:00	17150	86	-62.0	-85.9	333	0	
2025-11-09T00:00	17200	85	-61.6	-85.9	261	0	
2025-11-09T00:00	17250	84	-61.1	-85.7	231	1	
2025-11-09T00:00	17300	84	-61.2	-85.7	226	1	
2025-11-09T00:00	17350	83	-61.6	-85.8	236	2	
2025-11-09T00:00	17400	82	-61.7	-85.8	246	3	
2025-11-09T00:00	17450	82	-61.6	-85.8	249	3	
2025-11-09T00:00	17500	81	-61.8	-85.9	242	3	
2025-11-09T00:00	17550	80	-61.7	-85.9	235	2	
2025-11-09T00:00	17600	80	-61.7	-85.9	236	2	
2025-11-09T00:00	17650	79	-62.0	-86.0	236	2	
2025-11-09T00:00	17700	78	-62.2	-86.0	229	3	
2025-11-09T00:00	17750	78	-62.4	-86.2	222	3	
2025-11-09T00:00	17800	77	-62.4	-86.1	221	3	
2025-11-09T00:00	17850	76	-62.5	-86.1	221	3	
2025-11-09T00:00	17900	76	-62.8	-86.2	218	2	
2025-11-09T00:00	17950	75	-62.9	-86.3	218	3	
2025-11-09T00:00	18000	75	-63.0	-86.4	222	4	
2025-11-09T00:00	18050	74	-63.1	-86.4	227	5	
2025-11-09T00:00	18100	73	-63.2	-86.4	235	6	
2025-11-09T00:00	18150	73	-63.3	-86.5	243	7	
2025-11-09T00:00	18200	72	-63.3	-86.6	246	8	
2025-11-09T00:00	18250	72	-63.3	-86.6	248	8	
2025-11-09T00:00	18300	71	-63.4	-86.7	248	7	
2025-11-09T00:00	18350	70	-63.5	-86.8	249	7	
2025-11-09T00:00	18400	70	-63.6	-86.9	249	8	
2025-11-09T00:00	18450	69	-63.3	-86.8	250	8	
2025-11-09T00:00	18500	69	-63.2	-86.9	253	8	
2025-11-09T00:00	18550	68	-63.0	-86.9	256	7	
2025-11-09T00:00	18600	68	-63.0	-86.9	256	7	
2025-11-09T00:00	18650	67	-62.6	-86.7	254	7	
2025-11-09T00:00	18700	67	-62.5	-86.8	254	8	
2025-11-09T00:00	18750	66	-62.2	-86.7	257	9	
2025-11-09T00:00	18800	66	-62.3	-86.8	259	9	
2025-11-09T00:00	18850	65	-62.4	-86.6	262	10	
2025-11-09T00:00	18900	64	-62.8	-86.6	265	10	
2025-11-09T00:00	18950	64	-63.0	-86.7	267	11	
2025-11-09T00:00	19000	63	-63.2	-86.8	267	11	
2025-11-09T00:00	19050	63	-63.3	-86.9	267	11	
2025-11-09T00:00	19100	62	-63.1	-86.9	267	10	
2025-11-09T00:00	19150	62	-63.0	-87.0	263	9	
2025-11-09T00:00	19200	61	-63.1	-87.1	258	8	
2025-11-09T00:00	19250	61	-62.9	-86.9	261	8	
2025-11-09T00:00	19300	60	-63.1	-87.1	268	8	
2025-11-09T00:00	19350	60	-63.2	-87.2	273	9	
2025-11-09T00:00	19400	59	-62.9	-87.2	275	10	
2025-11-09T00:00	19450	59	-62.4	-87.3	274	10	
2025-11-09T00:00	19500	58	-61.7	-87.1	272	11	
2025-11-09T00:00	19550	58	-61.2	-86.9	271	11	
2025-11-09T00:00	19600	58	-60.9	-86.6	273	10	
2025-11-09T00:00	19650	57	-61.1	-86.6	274	9	
2025-11-09T00:00	19700	57	-61.5	-86.6	271	9	
2025-11-09T00:00	19750	56	-61.9	-86.7	266	8	
2025-11-09T00:00	19800	56	-62.1	-86.8	260	8	
2025-11-09T00:00	19850	55	-62.3	-87.0	256	7	
2025-11-09T00:00	19900	55	-62.1	-87.1	255	7	
2025-11-09T00:00	19950	54	-61.7	-86.9	259	7	
2025-11-09T00:00	20000	54	-62.0	-87.0	261	7	
2025-11-09T00:00	20050	53	-62.1		259	7	
2025-11-09T00:00	20100	53	-62.1		259	6	
2025-11-09T00:00	20150	53	-62.4		265	4	
2025-11-09T00:00	20200	52	-62.4		275	3	
2025-11-09T00:00	20250	52	-62.7		282	2	
2025-11-09T00:00	20300	51	-63.1		284	1	
2025-11-09T00:00	20350	51	-63.2		277	1	
2025-11-09T00:00	20400	51	-63.2		272	2	
2025-11-09T00:00	20450	50	-63.5		269	2	
2025-11-09T00:00	20500	50	-63.7		260	2	
2025-11-09T00:00	20550	49	-63.3		213	1	
2025-11-09T00:00	20600	49	-63.1		166	1	
2025-11-09T00:00	20650	49	-63.3		159	1	
2025-11-09T00:00	20700	48	-63.6		170	1	
2025-11-09T00:00	20750	48	-63.9		194	1	
2025-11-09T00:00	20800	47	-64.3		211	2	
2025-11-09T00:00	20850	47	-64.7		220	3	
2025-11-09T00:00	20900	47	-65.0		228	3	
2025-11-09T00:00	20950	46	-65.3		235	4	
2025-11-09T00:00	21000	46	-65.6		240	5	
2025-11-09T00:00	21050	45	-65.8		246	6	
2025-11-09T00:00	21100	45	-66.0		254	6	
2025-11-09T00:00	21150	45	-66.3		264	7	
2025-11-09T00:00	21200	44	-66.7		270	7	
2025-11-09T00:00	21250	44	-66.9		272	6	
2025-11-09T00:00	21300	44	-66.6		275	5	
2025-11-09T00:00	21350	43	-66.5		278	5	
2025-11-09T00:00	21400	43	-66.5		273	5	
2025-11-09T00:00	21450	43	-66.7		264	5	
2025-11-09T00:00	21500	42	-66.9		258	6	
2025-11-09T00:00	21550	42	-66.4		254	6	
2025-11-09T00:00	21600	41	-65.3		249	6	
2025-11-09T00:00	21650	41	-64.3		244	7	
2025-11-09T00:00	21700	41	-63.9		240	8	
2025-11-09T00:00	21750	40	-63.5		234	8	
2025-11-09T00:00	21800	40	-63.6		229	9	
2025-11-09T00:00	21850	40	-63.5		229	9	
2025-11-09T00:00	21900	40	-63.4		233	8	
2025-11-09T00:00	21950	39	-63.8		243	8	
2025-11-09T00:00	22000	39	-63.9		254	9	
2025-11-09T00:00	22050	39	-64.1		263	10	
2025-11-09T00:00	22100	38	-64.1		272	12	
2025-11-09T00:00	22150	38	-64.1		279	13	
2025-11-09T00:00	22200	38	-64.4		283	13	
2025-11-09T00:00	22250	37	-64.2		284	13	
2025-11-09T00:00	22300	37	-64.5		283	12	
2025-11-09T00:00	22350	37	-64.4		283	11	
2025-11-09T00:00	22400	36	-64.7		283	10	
2025-11-09T00:00	22450	36	-65.2		285	10	
2025-11-09T00:00	22500	36	-65.3		285	10	
2025-11-09T00:00	22550	36	-65.5		282	9	
2025-11-09T00:00	22600	35	-65.6		275	9	
2025-11-09T00:00	22650	35	-65.8		269	9	
2025-11-09T00:00	22700	35	-65.9		262	9	
2025-11-09T00:00	22750	34	-65.6		258	10	
2025-11-09T00:00	22800	34	-65.6		257	10	
2025-11-09T00:00	22850	34	-65.7		259	10	
2025-11-09T00:00	22900	34	-66.1		261	10	
2025-11-09T00:00	22950	33	-66.3		261	10	
2025-11-09T00:00	23000	33	-66.2		260	10	
2025-11-09T00:00	23050	33	-66.0		260	10	
2025-11-09T00:00	23100	32	-65.8		262	10	
2025-11-09T00:00	23150	32	-65.9		264	10	
2025-11-09T00:00	23200	32	-65.9		265	10	
2025-11-09T00:00	23250	32	-65.7		265	11	
2025-11-09T00:00	23300	31	-65.4		266	11	
2025-11-09T00:00	23350	31	-65.2		271	12	
2025-11-09T00:00	23400	31	-65.4		274	12	
2025-11-09T00:00	23450	31	-65.4		272	11	
2025-11-09T00:00	23500	30	-65.6		267	11	
2025-11-09T00:00	23550	30	-65.5		262	12	
2025-11-09T00:00	23600	30	-65.3		259	12	
2025-11-09T00:00	23650	30	-65.4		260	12	
2025-11-09T00:00	23700	29	-65.4		262	12	
2025-11-09T00:00	23750	29	-65.6		263	11	
2025-11-09T00:00	23800	29	-65.7		261	11	
2025-11-09T00:00	23850	29	-65.0		257	11	
2025-11-09T00:00	23900	28	-65.1		254	12	
2025-11-09T00:00	23950	28	-65.1		252	13	
2025-11-09T00:00	24000	28	-64.7		252	14	
2025-11-09T00:00	24050	28	-64.5		254	14	
2025-11-09T00:00	24100	28	-64.2		257	14	
2025-11-09T00:00	24150	27	-64.1		259	15	
2025-11-09T00:00	24200	27	-63.8		261	16	
2025-11-09T00:00	24250	27	-63.5		262	18	
2025-11-09T00:00	24300	27	-63.4		263	19	
2025-11-09T00:00	24350	26	-63.4		263	20	
2025-11-09T00:00	24400	26	-63.3		263	20	
2025-11-09T00:00	24450	26	-63.5		262	21	
2025-11-09T00:00	24500	26	-63.7		262	22	
2025-11-09T00:00	24550	26	-63.5		262	23	
2025-11-09T00:00	24600	25	-63.1		262	24	
2025-11-09T00:00	24650	25	-63.1		263	24	
2025-11-09T00:00	24700	25	-63.2		264	24	
2025-11-09T00:00	24750	25	-63.2		266	23	
2025-11-09T00:00	24800	25	-63.2		267	22	
2025-11-09T00:00	24850	24	-63.5		268	21	
2025-11-09T00:00	24900	24	-63.8		269	20	
2025-11-09T00:00	24950	24	-63.8		270	20	
2025-11-09T00:00	25000	24	-63.7		272	20	
2025-11-09T00:00	25050	24	-63.9		273	20	
2025-11-09T00:00	25100	23	-63.6		274	19	
2025-11-09T00:00	25150	23	-63.1		274	18	
2025-11-09T00:00	25200	23	-63.4		272	18	
2025-11-09T00:00	25250	23	-63.6		269	19	
2025-11-09T00:00	25300	23	-63.6		265	19	
2025-11-09T00:00	25350	22	-63.7		264	20	
2025-11-09T00:00	25400	22	-63.7		267	20	
2025-11-09T00:00	25450	22	-63.7		271	20	
2025-11-09T00:00	25500	22	-63.7		275	21	
2025-11-09T00:00	25550	22	-63.5		279	20	
2025-11-09T00:00	25600	22	-63.6		281	20	
2025-11-09T00:00	25650	21	-63.9		284	18	
2025-11-09T00:00	25700	21	-64.2		288	18	
2025-11-09T00:00	25750	21	-64.4		293	17	
2025-11-09T00:00	25800	21	-64.4		296	16	
2025-11-09T00:00	25850	21	-64.4		294	15	
2025-11-09T00:00	25900	21	-64.0		290	14	
2025-11-09T00:00	25950	20	-64.0		282	13	
2025-11-09T00:00	26000	20	-63.9		273	12	
2025-11-09T00:00	26050	20	-63.9		265	13	
2025-11-09T00:00	26100	20	-64.0		260	14	
2025-11-09T00:00	26150	20	-64.1		258	15	
2025-11-09T00:00	26200	20	-64.0		258	15	
2025-11-09T00:00	26250	19	-63.8		258	16	
2025-11-09T00:00	26300	19	-63.5		257	17	
2025-11-09T00:00	26350	19	-63.5		258	18	
2025-11-09T00:00	26400	19	-63.5		258	20	
2025-11-09T00:00	26450	19	-63.4		258	21	
2025-11-09T00:00	26500	19	-63.3		257	23	
2025-11-09T00:00	26550	18	-63.1		256	23	
2025-11-09T00:00	26600	18	-63.3		255	24	
2025-11-09T00:00	26650	18	-63.1		255	24	
2025-11-09T00:00	26700	18	-63.2		256	25	
2025-11-09T00:00	26750	18	-62.9		256	25	
2025-11-09T00:00	26800	18	-63.0		256	25	
2025-11-09T00:00	26850	18	-62.9		255	27	
2025-11-09T00:00	26900	17	-62.3		256	28	
2025-11-09T00:00	26950	17	-62.1		258	29	
2025-11-09T00:00	27000	17	-61.9		261	29	
2025-11-09T00:00	27050	17	-61.4		264	29	
2025-11-09T00:00	27100	17	-61.6		267	28	
2025-11-09T00:00	27150	17	-61.9		270	28	
2025-11-09T00:00	27200	17	-62.1		273	28	
2025-11-09T00:00	27250	16	-62.2		276	27	
2025-11-09T00:00	27300	16	-62.4		279	27	
2025-11-09T00:00	27350	16	-62.6		281	27	
2025-11-09T00:00	27400	16	-62.5		282	27	
2025-11-09T00:00	27450	16	-62.5		282	27	
2025-11-09T00:00	27500	16	-62.6		282	26	
2025-11-09T00:00	27550	16	-62.9		282	25	
2025-11-09T00:00	27600	16	-63.3		281	25	
2025-11-09T00:00	27650	15	-63.4		280	25	
2025-11-09T00:00	27700	15	-63.5		277	25	
2025-11-09T00:00	27750	15	-63.4		274	26	
2025-11-09T00:00	27800	15	-63.3		271	26	
2025-11-09T00:00	27850	15	-63.0		269	27	
2025-11-09T00:00	27900	15	-62.9		268	28	
2025-11-09T00:00	27950	15	-62.8		268	29	
2025-11-09T00:00	28000	15	-62.8		268	30	
2025-11-09T00:00	28050	14	-62.7		269	31	
2025-11-09T00:00	28100	14	-62.6		270	31	
2025-11-09T00:00	28150	14	-62.6		272	31	
2025-11-09T00:00	28200	14	-62.9		273	30	
2025-11-09T00:00	28250	14	-63.1		274	30	
2025-11-09T00:00	28300	14	-62.8		273	30	
2025-11-09T00:00	28350	14	-62.7		270	30	
2025-11-09T00:00	28400	14	-62.6		268	31	
2025-11-09T00:00	28450	14	-62.8		266	32	
2025-11-09T00:00	28500	13	-62.5		265	32	
2025-11-09T00:00	28550	13	-62.1		266	32	
2025-11-09T00:00	28600	13	-61.9		267	31	
2025-11-09T00:00	28650	13	-62.0		268	30	
2025-11-09T00:00	28700	13	-62.2		269	31	
2025-11-09T00:00	28750	13	-62.0		271	31	
2025-11-09T00:00	28800	13	-62.0		273	32	
2025-11-09T00:00	28850	13	-62.2		275	33	
2025-11-09T00:00	28900	13	-62.4		275	33	
2025-11-09T00:00	28950	13	-62.6		275	34	
2025-11-09T00:00	29000	12	-62.5		273	33	
2025-11-09T00:00	29050	12	-62.3		271	33	
2025-11-09T00:00	29100	12	-62.4		270	32	
2025-11-09T00:00	29150	12	-62.5		270	32	
2025-11-09T00:00	29200	12	-62.8		270	32	
2025-11-09T00:00	29250	12	-62.8		269	32	
2025-11-09T00:00	29300	12	-62.6		269	32	
2025-11-09T00:00	29350	12	-62.4		268	32	
2025-11-09T00:00	29400	12	-62.3		268	32	
2025-11-09T00:00	29450	12	-61.8		268	34	
2025-11-09T00:00	29500	11	-61.8		268	35	
2025-11-09T00:00	29550	11	-61.9		269	36	
2025-11-09T00:00	29600	11	-61.9		269	36	
2025-11-09T00:00	29650	11	-61.9		270	36	
2025-11-09T00:00	29700	11	-61.7		270	35	
2025-11-09T00:00	29750	11	-61.9		270	34	
2025-11-09T00:00	29800	11	-62.2		270	32	
2025-11-09T00:00	29850	11	-62.6		269	31	
2025-11-09T00:00	29900	11	-62.9		267	30	
2025-11-09T00:00	29950	11	-62.9		266	31	
2025-11-09T00:00	30000	11	-62.3		265	33	
2025-11-09T00:00	30050	10	-61.9		265	34	
2025-11-09T00:00	30100	10	-62.1		265	36	
2025-11-09T00:00	30150	10	-62.0		265	37	
2025-11-09T00:00	30200	10	-61.7		265	37	
2025-11-09T00:00	30250	10	-61.1		266	37	
2025-11-09T00:00	30300	10	-61.1		268	36	
2025-11-09T00:00	30350	10	-61.2		269	36	
2025-11-09T00:00	30400	10	-61.2		271	35	
2025-11-09T00:00	30450	10	-61.1		273	36	
2025-11-09T00:00	30500	10	-61.4		275	36	
2025-11-09T00:00	30550	10	-61.6		277	37	
2025-11-09T00:00	30600	10	-61.5		278	38	
2025-11-09T00:00	30650	9	-61.5		278	38	
2025-11-09T00:00	30700	9	-61.6		277	38	
2025-11-09T00:00	30750	9	-61.3		276	38	
2025-11-09T00:00	30800	9	-61.0		275	38	
2025-11-09T00:00	30850	9	-60.7		274	37	
2025-11-09T00:00	30900	9	-60.7		272	37	
2025-11-09T00:00	30950	9	-60.9		270	38	
2025-11-09T00:00	31000	9	-60.9		269	38	
2025-11-09T00:00	31050	9	-60.6		268	39	
2025-11-09T00:00	31100	9	-60.7		268	40	
2025-11-09T00:00	31150	9	-60.7		270	41	
2025-11-09T00:00	31200	9	-60.7		271	41	
2025-11-09T00:00	31250	9	-60.9		273	42	
2025-11-09T00:00	31300	9	-60.8		274	41	
2025-11-09T00:00	31350	8	-60.6		274	41	
2025-11-09T00:00	31400	8	-60.8		273	40	
2025-11-09T00:00	31450	8	-60.9		271	40	
2025-11-09T00:00	31500	8	-61.0		269	40	
2025-11-09T00:00	31550	8	-60.6		267	41	
2025-11-09T00:00	31600	8	-60.1		265	42	
2025-11-09T00:00	31650	8	-59.6		264	44	
2025-11-09T00:00	31700	8	-59.0		264	45	
2025-11-09T00:00	31750	8	-58.4		264	46	
2025-11-09T00:00	31800	8	-58.2		265	47	
2025-11-09T00:00	31850	8	-57.5		265	47	
2025-11-09T00:00	31900	8	-57.2		266	48	
2025-11-09T00:00	31950	8	-57.0		266	48	
2025-11-09T00:00	32000	8	-56.8		267	47	
2025-11-09T00:00	32050	8	-56.9		268	47	
2025-11-09T00:00	32100	8	-57.0		268	47	
2025-11-09T00:00	32150	7	-57.3		268	47	
2025-11-09T00:00	32200	7	-57.5		267	48	
2025-11-09T00:00	32250	7	-57.8		267	48	
2025-11-09T00:00	32300	7	-57.8		267	49	
2025-11-09T00:00	32350	7	-57.6		269	49	
2025-11-09T00:00	32400	7	-57.0		270	49	
2025-11-09T00:00	32450	7	-56.7		271	50	
2025-11-09T00:00	32500	7	-56.9		271	51	
2025-11-09T00:00	32550	7	-56.8		271	51	
2025-11-09T00:00	32600	7	-56.3		270	51	
2025-11-09T00:00	32650	7	-56.2		270	50	
2025-11-09T00:00	32700	7	-56.4		270	50	
2025-11-09T00:00	32750	7	-56.4		270	51	
2025-11-09T00:00	32800	7	-56.2		269	51	
2025-11-09T00:00	32850	7	-55.5		267	52	
2025-11-09T00:00	32900	7	-55.4		266	54	
2025-11-09T00:00	32950	7	-55.5		266	55	
2025-11-09T00:00	33000	7	-55.5		267	56	
2025-11-09T00:00	33050	6	-55.5		267	56	
2025-11-09T00:00	33100	6	-55.7		268	56	
2025-11-09T00:00	33150	6	-55.9		268	56	
2025-11-09T00:00	33200	6	-56.2		268	56	
2025-11-09T00:00	33250	6	-56.3		268	56	
2025-11-09T00:00	33300	6	-56.4		269	56	
2025-11-09T00:00	33350	6	-56.4		269	57	
2025-11-09T00:00	33400	6	-56.3		269	57	
2025-11-09T00:00	33450	6	-56.3		270	57	
2025-11-09T00:00	33500	6	-55.9		270	57	
2025-11-09T00:00	33550	6	-55.4		270	57	
2025-11-09T00:00	33600	6	-55.0		269	56	
2025-11-09T00:00	33650	6	-54.6		269	56	
2025-11-09T00:00	33700	6	-54.3		269	56	
2025-11-09T00:00	33750	6	-53.9		270	56	
2025-11-09T00:00	33800	6	-54.0		270	55	
2025-11-09T00:00	33850	6	-53.9		270	55	
2025-11-09T00:00	33900	6	-53.9		270	55	
2025-11-09T00:00	33950	6	-53.6		270	55	
2025-11-09T00:00	34000	6	-53.2		271	56	
2025-11-09T00:00	34050	6	-52.9		272	57	
2025-11-09T00:00	34100	5	-52.8		273	57	
2025-11-09T00:00	34150	5	-52.7		274	58	
2025-11-09T00:00	34200	5	-52.0		274	58	
2025-11-09T00:00	34250	5	-51.5		273	58	
2025-11-09T00:00	34300	5	-51.3		272	57	
2025-11-09T00:00	34350	5	-51.2		272	56	
2025-11-09T00:00	34400	5	-51.3		271	55	
2025-11-09T00:00	34450	5	-51.1		269	54	
2025-11-09T00:00	34500	5	-50.8		268	54	
2025-11-09T00:00	34550	5	-50.9		267	54	
2025-11-09T00:00	34600	5	-50.9		267	55	
2025-11-09T00:00	34650	5	-50.6		268	56	
2025-11-09T00:00	34700	5	-50.4		268	56	
2025-11-09T00:00	34750	5	-50.3		268	57	
2025-11-09T00:00	34800	5	-50.5		268	57	
2025-11-09T00:00	34850	5	-50.6		269	57	
2025-11-09T00:00	34900	5	-50.9		271	56	
2025-11-09T00:00	34950	5	-50.8		272	56	
2025-11-09T00:00	35000	5	-50.4		273	56	
2025-11-09T00:00	35050	5	-50.5		273	56	
2025-11-09T00:00	35100	5	-50.9		273	56	
2025-11-09T00:00	35150	5	-51.3		273	56	
2025-11-09T00:00	35200	5	-51.7		272	56	
2025-11-09T00:00	35250	5	-51.7		270	56	
2025-11-09T00:00	35300	5	-51.3		269	57	
2025-11-09T00:00	35350	5	-50.9		268	57	
2025-11-09T00:00	35400	5	-50.4		267	56	
2025-11-09T00:00	35450	4	-49.9		266	55	
2025-11-09T00:00	35500	4	-49.4		266	55	
2025-11-09T00:00	35550	4	-49.6		267	54	
2025-11-09T00:00	35600	4	-49.4		267	54	
2025-11-09T00:00	35650	4	-49.1		267	54	
2025-11-09T00:00	35700	4	-48.5		267	54	
2025-11-09T00:00	35750	4	-48.5		267	55	
2025-11-09T00:00	35800	4	-48.7		266	55	
2025-11-09T00:00	35850	4	-48.8		265	56	
2025-11-09T00:00	35900	4	-49.0		265	57	
2025-11-09T00:00	35950	4	-49.1		264	58	
2025-11-09T00:00	36000	4	-48.9		265	60	
2025-11-09T00:00	36050	4	-48.7		266	61	
2025-11-09T00:00	36100	4	-48.8		267	62	
2025-11-09T00:00	36150	4	-48.3		267	62	
2025-11-09T00:00	36200	4	-47.5		267	63	
2025-11-09T00:00	36250	4	-47.0		266	64	
2025-11-09T00:00	36300	4	-46.4		265	65	
2025-11-09T00:00	36350	4	-46.1		264	65	
2025-11-09T00:00	36400	4	-46.3		262	65	
2025-11-09T00:00	36450	4	-46.3		261	65	
2025-11-09T00:00	36500	4	-45.8		261	65	
2025-11-09T00:00	36550	4	-45.6		262	65	
2025-11-09T00:00	36600	4	-45.7		263	65	
2025-11-09T00:00	36650	4	-45.8		263	65	
2025-11-09T12:00	491	961	9.1	6.2	355	1	
2025-11-09T12:00	501	960	8.8	6.2	353	1	
2025-11-09T12:00	520	958	8.5	5.9	352	2	
2025-11-09T12:00	540	956	8.2	5.6	352	2	
2025-11-09T12:00	560	954	8.0	5.7	351	2	
2025-11-09T12:00	580	951	7.8	5.7	351	2	
2025-11-09T12:00	600	949	7.6	5.6	346	2	
2025-11-09T12:00	620	947	7.4	5.5	333	1	
2025-11-09T12:00	640	944	7.3	5.3	314	1	
2025-11-09T12:00	660	942	7.5	4.6	287	1	
2025-11-09T12:00	680	940	7.4	4.4	259	1	
2025-11-09T12:00	700	937	7.3	4.2	247	1	
2025-11-09T12:00	720	935	7.3	3.7	240	1	
2025-11-09T12:00	740	933	7.4	3.7	233	1	
2025-11-09T12:00	760	931	7.4	4.2	224	1	
2025-11-09T12:00	780	928	7.3	4.3	206	1	
2025-11-09T12:00	800	926	7.4	3.9	187	0	
2025-11-09T12:00	820	924	7.5	4.3	176	0	
2025-11-09T12:00	840	922	7.5	4.1	171	0	
2025-11-09T12:00	860	919	7.8	3.8	178	0	
2025-11-09T12:00	880	917	7.7	3.6	192	0	
2025-11-09T12:00	900	915	7.6	3.7	210	0	
2025-11-09T12:00	920	913	7.6	3.8	230	0	
2025-11-09T12:00	940	911	7.4	3.8	255	0	
2025-11-09T12:00	960	908	7.2	3.9	312	0	
2025-11-09T12:00	980	906	7.2	3.7	6	0	
2025-11-09T12:00	1000	904	7.2	3.3	19	1	
2025-11-09T12:00	1020	902	7.2	3.2	15	1	
2025-11-09T12:00	1040	900	7.1	3.2	8	1	
2025-11-09T12:00	1060	897	7.0	3.3	360	2	
2025-11-09T12:00	1080	895	6.9	3.2	353	2	
2025-11-09T12:00	1100	893	6.8	3.2	349	2	
2025-11-09T12:00	1120	891	6.7	3.1	346	2	
2025-11-09T12:00	1140	889	6.5	3.1	343	3	
2025-11-09T12:00	1160	886	6.4	3.0	342	3	
2025-11-09T12:00	1180	884	6.4	3.0	342	3	
2025-11-09T12:00	1200	882	6.4	2.8	342	3	
2025-11-09T12:00	1220	880	6.2	2.7	343	3	
2025-11-09T12:00	1240	878	6.1	2.8	343	3	
2025-11-09T12:00	1260	876	5.9	2.7	342	3	
2025-11-09T12:00	1280	874	5.7	2.7	340	2	
2025-11-09T12:00	1300	871	5.5	2.6	338	2	
2025-11-09T12:00	1320	869	5.3	2.6	337	2	
2025-11-09T12:00	1340	867	5.1	2.4	338	2	
2025-11-09T12:00	1360	865	4.9	2.2	341	2	
2025-11-09T12:00	1380	863	4.8	1.8	343	2	
2025-11-09T12:00	1400	861	4.7	1.5	343	3	
2025-11-09T12:00	1420	859	4.6	1.1	342	3	
2025-11-09T12:00	1440	857	4.5	1.2	340	3	
2025-11-09T12:00	1460	855	4.3	1.5	338	3	
2025-11-09T12:00	1480	853	4.1	1.4	337	4	
2025-11-09T12:00	1500	851	4.0	1.4	336	4	
2025-11-09T12:00	1520	848	3.8	1.5	336	4	
2025-11-09T12:00	1540	846	3.6	1.4	337	4	
2025-11-09T12:00	1560	844	3.4	1.4	339	4	
2025-11-09T12:00	1580	842	3.3	1.3	342	4	
2025-11-09T12:00	1600	840	3.1	1.2	345	3	
2025-11-09T12:00	1620	838	2.9	1.1	347	3	
2025-11-09T12:00	1640	836	2.8	0.8	346	3	
2025-11-09T12:00	1660	834	2.6	0.7	341	2	
2025-11-09T12:00	1680	832	2.4	0.6	335	2	
2025-11-09T12:00	1700	830	2.3	0.3	330	2	
2025-11-09T12:00	1720	828	2.2	-0.1	327	2	
2025-11-09T12:00	1740	826	2.1	-0.2	324	2	
2025-11-09T12:00	1760	824	1.9	-0.6	321	2	
2025-11-09T12:00	1780	822	1.9	-0.8	317	2	
2025-11-09T12:00	1800	820	2.0	-0.4	309	1	
2025-11-09T12:00	1820	818	2.1	-1.5	290	1	
2025-11-09T12:00	1840	816	2.2	-1.8	261	1	
2025-11-09T12:00	1860	813	2.0	-2.3	243	1	
2025-11-09T12:00	1880	812	1.8	-2.4	239	1	
2025-11-09T12:00	1900	810	1.7	-3.0	250	0	
2025-11-09T12:00	1920	808	1.6	-3.8	305	0	
2025-11-09T12:00	1940	805	1.4	-3.1	353	1	
2025-11-09T12:00	1960	803	1.3	-2.7	1	1	
2025-11-09T12:00	1980	801	1.1	-2.0	1	1	
2025-11-09T12:00	2000	799	1.0	-1.7	1	2	
2025-11-09T12:00	2020	797	0.8	-1.6	3	2	
2025-11-09T12:00	2040	796	0.7	-1.7	6	2	
2025-11-09T12:00	2060	793	0.6	-1.8	10	3	
2025-11-09T12:00	2080	791	0.5	-1.8	13	3	
2025-11-09T12:00	2100	790	0.3	-1.9	14	3	
2025-11-09T12:00	2120	787	0.1	-2.0	13	4	
2025-11-09T12:00	2140	786	-0.1	-2.0	11	4	
2025-11-09T12:00	2160	784	-0.2	-2.0	8	3	
2025-11-09T12:00	2180	782	-0.4	-2.1	6	3	
2025-11-09T12:00	2200	780	-0.6	-2.3	4	3	
2025-11-09T12:00	2220	778	-0.7	-2.7	1	3	
2025-11-09T12:00	2240	776	-0.9	-2.7	359	2	
2025-11-09T12:00	2260	774	-1.0	-2.9	356	2	
2025-11-09T12:00	2280	772	-1.2	-2.8	351	2	
2025-11-09T12:00	2300	770	-1.3	-2.8	346	3	
2025-11-09T12:00	2320	768	-1.4	-2.9	342	3	
2025-11-09T12:00	2340	766	-1.5	-2.9	339	3	
2025-11-09T12:00	2360	764	-1.7	-2.8	338	3	
2025-11-09T12:00	2380	762	-1.8	-2.9	337	3	
2025-11-09T12:00	2400	761	-1.9	-3.0	338	3	
2025-11-09T12:00	2420	759	-2.1	-3.0	340	3	
2025-11-09T12:00	2440	757	-2.3	-3.1	343	3	
2025-11-09T12:00	2460	755	-2.5	-3.2	345	3	
2025-11-09T12:00	2480	753	-2.6	-3.2	347	3	
2025-11-09T12:00	2500	751	-2.7	-3.4	348	3	
2025-11-09T12:00	2520	749	-2.8	-3.6	348	3	
2025-11-09T12:00	2540	747	-2.9	-4.0	349	4	
2025-11-09T12:00	2560	745	-2.9	-4.5	349	4	
2025-11-09T12:00	2580	744	-3.1	-4.6	350	5	
2025-11-09T12:00	2600	742	-3.3	-4.7	351	5	
2025-11-09T12:00	2620	740	-3.4	-5.0	352	5	
2025-11-09T12:00	2640	738	-3.5	-5.0	353	6	
2025-11-09T12:00	2660	736	-3.7	-5.1	353	5	
2025-11-09T12:00	2680	734	-3.9	-5.2	353	5	
2025-11-09T12:00	2700	732	-4.1	-5.2	352	5	
2025-11-09T12:00	2720	730	-4.2	-5.3	350	5	
2025-11-09T12:00	2740	729	-4.4	-5.3	348	4	
2025-11-09T12:00	2760	727	-4.7	-5.4	346	4	
2025-11-09T12:00	2780	725	-4.8	-5.5	345	4	
2025-11-09T12:00	2800	723	-5.0	-5.4	346	4	
2025-11-09T12:00	2820	721	-5.2	-5.5	348	4	
2025-11-09T12:00	2840	719	-5.4	-5.6	349	4	
2025-11-09T12:00	2860	718	-5.6	-5.6	349	4	
2025-11-09T12:00	2880	716	-5.7	-5.7	350	4	
2025-11-09T12:00	2900	714	-5.9	-5.9	350	4	
2025-11-09T12:00	2920	712	-6.0	-6.0	352	4	
2025-11-09T12:00	2940	710	-6.1	-6.1	354	4	
2025-11-09T12:00	2960	708	-6.3	-6.3	358	4	
2025-11-09T12:00	2980	707	-6.4	-6.4	4	4	
2025-11-09T12:00	3000	705	-6.6	-6.6	9	3	
2025-11-09T12:00	3020	703	-6.7	-6.7	14	3	
2025-11-09T12:00	3040	701	-6.8	-6.8	18	3	
2025-11-09T12:00	3060	700	-7.0	-7.0	20	4	
2025-11-09T12:00	3080	697	-7.1	-7.1	21	4	
2025-11-09T12:00	3100	696	-7.3	-7.3	22	4	
2025-11-09T12:00	3120	694	-7.0	-7.5	23	5	
2025-11-09T12:00	3140	692	-6.7	-7.9	23	5	
2025-11-09T12:00	3160	691	-6.8	-8.0	23	5	
2025-11-09T12:00	3180	689	-6.9	-8.2	20	5	
2025-11-09T12:00	3200	687	-7.1	-8.3	17	5	
2025-11-09T12:00	3220	685	-7.2	-8.3	11	5	
2025-11-09T12:00	3240	684	-7.3	-8.4	4	5	
2025-11-09T12:00	3260	682	-7.4	-8.6	358	4	
2025-11-09T12:00	3280	680	-7.5	-8.7	354	4	
2025-11-09T12:00	3300	678	-7.6	-8.8	351	4	
2025-11-09T12:00	3320	676	-7.7	-9.0	352	5	
2025-11-09T12:00	3340	675	-7.7	-9.2	356	5	
2025-11-09T12:00	3360	673	-7.8	-9.2	360	6	
2025-11-09T12:00	3380	671	-7.8	-9.3	2	7	
2025-11-09T12:00	3400	670	-7.9	-9.4	2	7	
2025-11-09T12:00	3420	668	-8.0	-9.3	1	8	
2025-11-09T12:00	3440	666	-8.0	-9.4	358	8	
2025-11-09T12:00	3460	665	-7.9	-9.7	356	8	
2025-11-09T12:00	3480	663	-7.8	-10.0	353	8	
2025-11-09T12:00	3500	661	-7.9	-10.1	351	8	
2025-11-09T12:00	3520	659	-8.1	-10.2	348	8	
2025-11-09T12:00	3540	658	-8.2	-10.2	346	8	
2025-11-09T12:00	3560	656	-8.3	-10.2	344	8	
2025-11-09T12:00	3580	654	-8.4	-10.3	343	8	
2025-11-09T12:00	3600	652	-8.5	-10.5	341	8	
2025-11-09T12:00	3620	651	-8.6	-10.5	339	8	
2025-11-09T12:00	3640	649	-8.8	-10.6	336	7	
2025-11-09T12:00	3660	647	-8.9	-10.7	332	7	
2025-11-09T12:00	3680	646	-8.9	-11.0	326	7	
2025-11-09T12:00	3700	644	-8.9	-11.0	321	6	
2025-11-09T12:00	3720	642	-8.8	-11.0	317	6	
2025-11-09T12:00	3740	641	-8.7	-11.6	316	7	
2025-11-09T12:00	3760	639	-8.6	-12.4	316	7	
2025-11-09T12:00	3780	637	-8.6	-13.5	318	7	
2025-11-09T12:00	3800	636	-8.2	-15.0	320	7	
2025-11-09T12:00	3820	634	-8.0	-13.5	322	7	
2025-11-09T12:00	3840	633	-8.0	-13.2	322	7	
2025-11-09T12:00	3860	631	-8.1	-13.4	322	7	
2025-11-09T12:00	3880	629	-8.2	-13.6	321	7	
2025-11-09T12:00	3900	628	-8.3	-13.5	320	7	
2025-11-09T12:00	3920	626	-8.5	-13.6	321	7	
2025-11-09T12:00	3940	624	-8.6	-13.9	322	7	
2025-11-09T12:00	3960	623	-8.8	-14.1	323	6	
2025-11-09T12:00	3980	621	-8.9	-14.2	325	6	
2025-11-09T12:00	4000	620	-9.1	-14.1	326	6	
2025-11-09T12:00	4020	618	-9.2	-14.2	327	7	
2025-11-09T12:00	4040	616	-9.4	-14.6	327	7	
2025-11-09T12:00	4060	615	-9.5	-15.6	327	7	
2025-11-09T12:00	4080	613	-9.7	-15.8	326	7	
2025-11-09T12:00	4100	612	-9.9	-15.8	325	7	
2025-11-09T12:00	4120	610	-10.1	-16.4	325	6	
2025-11-09T12:00	4140	608	-10.3	-16.9	324	6	
2025-11-09T12:00	4160	607	-10.4	-17.0	323	6	
2025-11-09T12:00	4180	605	-10.6	-17.5	322	6	
2025-11-09T12:00	4200	604	-10.8	-17.9	321	6	
2025-11-09T12:00	4220	602	-11.0	-18.6	321	6	
2025-11-09T12:00	4240	600	-11.1	-19.1	320	6	
2025-11-09T12:00	4260	599	-11.2	-18.4	320	6	
2025-11-09T12:00	4280	598	-11.4	-18.3	320	6	
2025-11-09T12:00	4300	596	-11.5	-20.3	320	7	
2025-11-09T12:00	4320	595	-11.6	-21.7	319	7	
2025-11-09T12:00	4340	593	-11.8	-22.4	319	7	
2025-11-09T12:00	4360	591	-11.9	-21.5	318	7	
2025-11-09T12:00	4380	590	-12.1	-20.2	318	7	
2025-11-09T12:00	4400	588	-12.3	-19.9	318	7	
2025-11-09T12:00	4420	587	-12.5	-19.2	318	7	
2025-11-09T12:00	4440	585	-12.7	-18.8	317	7	
2025-11-09T12:00	4460	584	-12.8	-18.3	316	6	
2025-11-09T12:00	4480	582	-13.0	-17.7	314	6	
2025-11-09T12:00	4500	581	-13.1	-17.4	311	5	
2025-11-09T12:00	4520	579	-13.3	-17.2	308	5	
2025-11-09T12:00	4540	578	-13.5	-17.1	304	4	
2025-11-09T12:00	4560	576	-13.7	-17.0	302	4	
2025-11-09T12:00	4580	574	-13.9	-16.9	303	3	
2025-11-09T12:00	4600	573	-14.0	-16.9	307	3	
2025-11-09T12:00	4620	572	-14.0	-16.9	314	3	
2025-11-09T12:00	4640	570	-14.1	-17.2	322	3	
2025-11-09T12:00	4660	568	-14.1	-18.4	327	3	
2025-11-09T12:00	4680	567	-14.2	-19.2	329	4	
2025-11-09T12:00	4700	565	-14.3	-19.9	329	4	
2025-11-09T12:00	4720	564	-14.5	-21.0	327	4	
2025-11-09T12:00	4740	563	-14.6	-22.3	323	4	
2025-11-09T12:00	4760	561	-14.6	-24.0	319	4	
2025-11-09T12:00	4780	560	-14.6	-25.6	315	5	
2025-11-09T12:00	4800	558	-14.7	-26.1	313	5	
2025-11-09T12:00	4820	557	-14.8	-26.8	311	5	
2025-11-09T12:00	4840	555	-15.0	-27.5	309	6	
2025-11-09T12:00	4860	554	-15.1	-28.0	308	6	
2025-11-09T12:00	4880	552	-15.2	-27.8	307	7	
2025-11-09T12:00	4900	551	-15.4	-28.1	306	7	
2025-11-09T12:00	4920	549	-15.5	-28.3	305	7	
2025-11-09T12:00	4940	548	-15.7	-28.6	305	7	
2025-11-09T12:00	4960	546	-15.8	-29.2	304	7	
2025-11-09T12:00	4980	545	-15.9	-29.5	304	7	
2025-11-09T12:00	5000	543	-16.1	-28.7	302	7	
2025-11-09T12:00	5020	542	-16.1	-27.9	298	8	
2025-11-09T12:00	5040	541	-16.2	-29.9	295	8	
2025-11-09T12:00	5060	539	-16.3	-30.5	292	8	
2025-11-09T12:00	5080	538	-16.3	-29.0	289	9	
2025-11-09T12:00	5100	536	-16.3	-28.2	287	9	
2025-11-09T12:00	5120	535	-16.4	-26.6	286	9	
2025-11-09T12:00	5140	534	-16.6	-24.6	285	9	
2025-11-09T12:00	5160	532	-16.7	-24.7	285	9	
2025-11-09T12:00	5180	531	-16.9	-25.9	285	8	
2025-11-09T12:00	5200	529	-17.1	-27.1	284	8	
2025-11-09T12:00	5220	528	-17.2	-28.2	283	8	
2025-11-09T12:00	5240	526	-17.4	-27.9	283	8	
2025-11-09T12:00	5260	525	-17.5	-28.5	283	9	
2025-11-09T12:00	5280	524	-17.6	-29.8	283	9	
2025-11-09T12:00	5300	522	-17.8	-30.2	284	10	
2025-11-09T12:00	5320	521	-17.9	-30.2	285	10	
2025-11-09T12:00	5340	520	-18.1	-30.3	285	10	
2025-11-09T12:00	5360	518	-18.2	-30.9	287	11	
2025-11-09T12:00	5380	517	-18.3	-31.2	288	11	
2025-11-09T12:00	5400	515	-18.5	-31.3	289	11	
2025-11-09T12:00	5420	514	-18.5	-31.6	291	11	
2025-11-09T12:00	5440	513	-18.7	-32.0	291	11	
2025-11-09T12:00	5460	511	-18.9	-32.2	291	10	
2025-11-09T12:00	5480	510	-19.0	-32.2	291	10	
2025-11-09T12:00	5500	508	-19.2	-32.4	290	10	
2025-11-09T12:00	5520	507	-19.4	-32.5	289	10	
2025-11-09T12:00	5540	506	-19.7	-32.5	288	10	
2025-11-09T12:00	5560	504	-19.8	-32.8	287	10	
2025-11-09T12:00	5580	503	-20.0	-32.7	287	10	
2025-11-09T12:00	5600	502	-20.1	-32.6	287	9	
2025-11-09T12:00	5620	500	-20.3	-32.6	288	9	
2025-11-09T12:00	5640	499	-20.5	-32.7	290	9	
2025-11-09T12:00	5660	498	-20.7	-32.7	291	9	
2025-11-09T12:00	5680	496	-20.9	-32.6	291	9	
2025-11-09T12:00	5700	495	-21.1	-32.6	291	9	
2025-11-09T12:00	5720	493	-21.2	-32.0	291	9	
2025-11-09T12:00	5740	492	-21.3	-32.6	290	9	
2025-11-09T12:00	5760	491	-21.4	-33.0	290	9	
2025-11-09T12:00	5780	490	-21.6	-32.7	290	9	
2025-11-09T12:00	5800	488	-21.7	-32.0	290	9	
2025-11-09T12:00	5820	487	-21.9	-30.7	290	9	
2025-11-09T12:00	5840	485	-22.1	-30.5	291	9	
2025-11-09T12:00	5860	484	-22.3	-30.4	291	9	
2025-11-09T12:00	5880	483	-22.4	-30.6	291	9	
2025-11-09T12:00	5900	482	-22.6	-31.7	290	9	
2025-11-09T12:00	5920	480	-22.7	-33.2	290	10	
2025-11-09T12:00	5940	479	-22.7	-33.9	289	10	
2025-11-09T12:00	5960	478	-22.8	-35.3	289	10	
2025-11-09T12:00	5980	476	-22.9	-35.8	289	10	
2025-11-09T12:00	6000	475	-23.1	-35.7	289	10	
2025-11-09T12:00	6020	474	-23.3	-36.2	289	11	
2025-11-09T12:00	6040	472	-23.4	-36.8	289	11	
2025-11-09T12:00	6060	471	-23.6	-36.7	289	11	
2025-11-09T12:00	6080	470	-23.8	-36.7	289	12	
2025-11-09T12:00	6100	469	-24.0	-37.1	289	12	
2025-11-09T12:00	6120	467	-24.1	-37.8	289	12	
2025-11-09T12:00	6140	466	-24.2	-38.4	290	12	
2025-11-09T12:00	6160	465	-24.2	-38.7	290	11	
2025-11-09T12:00	6180	463	-24.3	-38.9	290	11	
2025-11-09T12:00	6200	462	-24.5	-38.6	289	11	
2025-11-09T12:00	6220	461	-24.6	-37.7	289	10	
2025-11-09T12:00	6240	460	-24.8	-37.8	288	10	
2025-11-09T12:00	6260	458	-25.0	-37.6	287	10	
2025-11-09T12:00	6280	457	-25.2	-37.5	286	9	
2025-11-09T12:00	6300	456	-25.4	-37.4	286	9	
2025-11-09T12:00	6320	455	-25.5	-37.2	286	9	
2025-11-09T12:00	6340	453	-25.7	-37.1	285	9	
2025-11-09T12:00	6360	452	-25.9	-36.8	285	9	
2025-11-09T12:00	6380	451	-26.1	-36.6	285	9	
2025-11-09T12:00	6400	450	-26.2	-36.5	285	9	
2025-11-09T12:00	6420	448	-26.4	-36.1	285	9	
2025-11-09T12:00	6440	447	-26.6	-36.2	286	9	
2025-11-09T12:00	6460	446	-26.7	-36.4	286	9	
2025-11-09T12:00	6480	445	-26.9	-36.6	286	9	
2025-11-09T12:00	6500	444	-27.0	-36.6	286	10	
2025-11-09T12:00	6520	442	-27.2	-36.5	285	10	
2025-11-09T12:00	6540	441	-27.4	-36.5	284	10	
2025-11-09T12:00	6560	440	-27.5	-35.3	283	10	
2025-11-09T12:00	6580	439	-27.6	-35.2	281	10	
2025-11-09T12:00	6600	437	-27.8	-36.1	280	9	
2025-11-09T12:00	6620	436	-28.0	-36.2	279	9	
2025-11-09T12:00	6640	435	-28.2	-36.8	279	9	
2025-11-09T12:00	6660	434	-28.3	-37.7	279	9	
2025-11-09T12:00	6680	433	-28.3	-37.8	279	9	
2025-11-09T12:00	6700	431	-28.5	-37.3	279	9	
2025-11-09T12:00	6720	430	-28.6	-38.0	280	9	
2025-11-09T12:00	6740	429	-28.8	-38.8	281	10	
2025-11-09T12:00	6760	428	-28.8	-41.0	282	10	
2025-11-09T12:00	6780	427	-28.9	-41.0	283	10	
2025-11-09T12:00	6800	425	-29.1	-40.6	284	11	
2025-11-09T12:00	6820	424	-29.2	-40.6	285	11	
2025-11-09T12:00	6840	423	-29.4	-41.0	285	11	
2025-11-09T12:00	6860	422	-29.6	-41.4	285	11	
2025-11-09T12:00	6880	421	-29.8	-41.7	284	11	
2025-11-09T12:00	6900	419	-30.0	-42.2	283	11	
2025-11-09T12:00	6920	418	-30.0	-44.0	281	11	
2025-11-09T12:00	6940	417	-30.0	-45.1	279	11	
2025-11-09T12:00	6960	416	-30.1	-44.0	278	11	
2025-11-09T12:00	6980	415	-30.2	-43.4	276	11	
2025-11-09T12:00	7000	414	-30.3	-42.9	275	11	
2025-11-09T12:00	7020	412	-30.5	-42.2	274	11	
2025-11-09T12:00	7040	411	-30.6	-41.8	273	11	
2025-11-09T12:00	7060	410	-30.8	-42.1	272	11	
2025-11-09T12:00	7080	409	-31.0	-42.3	271	11	
2025-11-09T12:00	7100	408	-31.2	-43.3	270	11	
2025-11-09T12:00	7120	407	-31.2	-44.6	268	11	
2025-11-09T12:00	7140	406	-31.3	-43.7	266	11	
2025-11-09T12:00	7160	404	-31.5	-43.2	265	11	
2025-11-09T12:00	7180	403	-31.6	-42.7	263	11	
2025-11-09T12:00	7200	402	-31.7	-42.4	262	11	
2025-11-09T12:00	7220	401	-31.9	-42.2	262	11	
2025-11-09T12:00	7240	400	-32.0	-42.1	262	11	
2025-11-09T12:00	7260	399	-32.1	-43.8	262	11	
2025-11-09T12:00	7280	398	-32.2	-44.3	262	11	
2025-11-09T12:00	7300	396	-32.4	-44.7	262	11	
2025-11-09T12:00	7320	395	-32.4	-45.0	262	11	
2025-11-09T12:00	7340	394	-32.5	-45.6	261	11	
2025-11-09T12:00	7360	393	-32.6	-45.8	261	11	
2025-11-09T12:00	7380	392	-32.8	-45.9	261	11	
2025-11-09T12:00	7400	391	-32.9	-45.9	261	11	
2025-11-09T12:00	7420	390	-33.1	-46.2	261	11	
2025-11-09T12:00	7440	388	-33.3	-46.8	261	11	
2025-11-09T12:00	7460	387	-33.5	-46.6	261	11	
2025-11-09T12:00	7480	386	-33.6	-46.5	261	11	
2025-11-09T12:00	7500	385	-33.8	-46.7	261	10	
2025-11-09T12:00	7520	384	-34.0	-46.9	261	10	
2025-11-09T12:00	7540	383	-34.2	-46.9	261	10	
2025-11-09T12:00	7560	382	-34.4	-46.9	260	10	
2025-11-09T12:00	7580	381	-34.6	-47.0	260	10	
2025-11-09T12:00	7600	380	-34.8	-47.0	260	10	
2025-11-09T12:00	7620	379	-35.0	-46.7	260	10	
2025-11-09T12:00	7640	378	-35.1	-46.6	261	10	
2025-11-09T12:00	7660	377	-35.3	-46.4	261	11	
2025-11-09T12:00	7680	375	-35.5	-47.1	261	11	
2025-11-09T12:00	7700	374	-35.6	-47.8	261	11	
2025-11-09T12:00	7720	373	-35.8	-47.4	261	11	
2025-11-09T12:00	7740	372	-36.0	-47.1	260	11	
2025-11-09T12:00	7760	371	-36.1	-46.6	259	11	
2025-11-09T12:00	7780	370	-36.4	-46.6	258	11	
2025-11-09T12:00	7800	369	-36.5	-46.7	258	11	
2025-11-09T12:00	7820	368	-36.7	-46.8	258	11	
2025-11-09T12:00	7840	367	-36.9	-46.9	258	11	
2025-11-09T12:00	7860	366	-37.1	-46.9	259	10	
2025-11-09T12:00	7880	365	-37.3	-47.0	259	10	
2025-11-09T12:00	7900	364	-37.5	-46.9	260	10	
2025-11-09T12:00	7920	363	-37.7	-46.9	260	10	
2025-11-09T12:00	7940	362	-37.8	-46.9	261	10	
2025-11-09T12:00	7960	361	-37.9	-47.7	260	10	
2025-11-09T12:00	7980	360	-38.0	-48.4	260	10	
2025-11-09T12:00	8000	359	-38.1	-48.4	259	10	
2025-11-09T12:00	8020	357	-38.3	-48.9	257	10	
2025-11-09T12:00	8040	356	-38.3	-49.4	257	10	
2025-11-09T12:00	8060	355	-38.5	-48.9	256	10	
2025-11-09T12:00	8080	354	-38.7	-48.7	256	11	
2025-11-09T12:00	8100	353	-38.8	-48.6	256	11	
2025-11-09T12:00	8120	352	-39.0	-48.9	257	11	
2025-11-09T12:00	8140	351	-39.2	-48.4	257	11	
2025-11-09T12:00	8160	350	-39.4	-47.9	257	11	
2025-11-09T12:00	8180	349	-39.6	-49.0	258	11	
2025-11-09T12:00	8200	348	-39.8	-48.8	258	11	
2025-11-09T12:00	8220	347	-40.0	-48.7	259	11	
2025-11-09T12:00	8240	346	-40.1	-48.8	260	11	
2025-11-09T12:00	8260	345	-40.3	-49.1	261	11	
2025-11-09T12:00	8280	344	-40.5	-49.4	262	11	
2025-11-09T12:00	8300	343	-40.7	-49.6	263	11	
2025-11-09T12:00	8320	342	-40.9	-50.3	264	11	
2025-11-09T12:00	8340	341	-41.0	-51.5	266	11	
2025-11-09T12:00	8360	340	-41.1	-52.6	267	11	
2025-11-09T12:00	8380	339	-41.3	-53.5	268	11	
2025-11-09T12:00	8400	338	-41.4	-53.6	270	11	
2025-11-09T12:00	8420	337	-41.5	-53.7	271	11	
2025-11-09T12:00	8440	336	-41.6	-54.0	272	11	
2025-11-09T12:00	8460	335	-41.7	-54.4	273	11	
2025-11-09T12:00	8480	334	-41.8	-54.8	274	11	
2025-11-09T12:00	8500	333	-42.0	-55.5	276	11	
2025-11-09T12:00	8520	332	-42.1	-56.1	278	11	
2025-11-09T12:00	8540	331	-42.2	-56.3	279	11	
2025-11-09T12:00	8560	330	-42.3	-56.9	280	11	
2025-11-09T12:00	8580	329	-42.5	-57.2	280	11	
2025-11-09T12:00	8600	328	-42.6	-57.4	280	11	
2025-11-09T12:00	8620	327	-42.8	-57.7	280	11	
2025-11-09T12:00	8640	326	-42.9	-57.8	279	11	
2025-11-09T12:00	8660	325	-43.0	-57.6	279	11	
2025-11-09T12:00	8680	324	-43.0	-57.6	278	12	
2025-11-09T12:00	8700	323	-43.2	-58.1	278	12	
2025-11-09T12:00	8720	322	-43.3	-58.2	278	12	
2025-11-09T12:00	8740	322	-43.5	-58.3	279	12	
2025-11-09T12:00	8760	321	-43.7	-58.7	280	12	
2025-11-09T12:00	8780	320	-43.9	-58.9	281	12	
2025-11-09T12:00	8800	319	-44.0	-59.0	282	12	
2025-11-09T12:00	8820	318	-44.1	-58.8	283	12	
2025-11-09T12:00	8840	317	-44.3	-58.7	284	12	
2025-11-09T12:00	8860	316	-44.4	-58.4	284	12	
2025-11-09T12:00	8880	315	-44.6	-58.0	283	12	
2025-11-09T12:00	8900	314	-44.8	-58.0	283	12	
2025-11-09T12:00	8920	313	-45.0	-57.9	282	12	
2025-11-09T12:00	8940	312	-45.2	-57.7	281	12	
2025-11-09T12:00	8960	311	-45.4	-57.5	280	13	
2025-11-09T12:00	8980	310	-45.5	-57.4	279	13	
2025-11-09T12:00	9000	309	-45.7	-57.3	279	13	
2025-11-09T12:00	9020	308	-45.9	-56.9	278	13	
2025-11-09T12:00	9040	307	-46.1	-56.6	277	13	
2025-11-09T12:00	9060	306	-46.3	-56.5	276	13	
2025-11-09T12:00	9080	306	-46.4	-56.3	274	13	
2025-11-09T12:00	9100	305	-46.6	-55.6	274	13	
2025-11-09T12:00	9120	304	-46.8	-54.4	272	13	
2025-11-09T12:00	9140	303	-47.0	-54.1	272	13	
2025-11-09T12:00	9160	302	-47.2	-54.4	272	12	
2025-11-09T12:00	9180	301	-47.3	-54.6	272	12	
2025-11-09T12:00	9200	300	-47.5	-54.8	273	12	
2025-11-09T12:00	9220	299	-47.7	-55.0	274	12	
2025-11-09T12:00	9240	298	-47.8	-55.4	275	12	
2025-11-09T12:00	9260	297	-48.0	-56.2	277	13	
2025-11-09T12:00	9280	296	-48.1	-57.1	278	13	
2025-11-09T12:00	9300	295	-48.3	-57.5	279	13	
2025-11-09T12:00	9320	295	-48.4	-57.8	281	13	
2025-11-09T12:00	9340	294	-48.6	-58.4	282	14	
2025-11-09T12:00	9360	293	-48.8	-59.2	284	14	
2025-11-09T12:00	9380	292	-49.0	-59.6	285	14	
2025-11-09T12:00	9400	291	-49.1	-60.0	286	14	
2025-11-09T12:00	9420	290	-49.3	-60.3	288	13	
2025-11-09T12:00	9440	289	-49.4	-60.9	289	13	
2025-11-09T12:00	9460	288	-49.4	-61.6	291	13	
2025-11-09T12:00	9480	288	-49.5	-61.8	292	13	
2025-11-09T12:00	9500	287	-49.6	-61.9	294	13	
2025-11-09T12:00	9520	286	-49.8	-62.2	295	13	
2025-11-09T12:00	9540	285	-50.0	-62.9	297	13	
2025-11-09T12:00	9560	284	-50.1	-63.6	299	13	
2025-11-09T12:00	9580	283	-50.2	-64.2	301	13	
2025-11-09T12:00	9600	282	-50.4	-65.2	304	13	
2025-11-09T12:00	9620	281	-50.5	-66.1	307	13	
2025-11-09T12:00	9640	281	-50.5	-66.8	309	13	
2025-11-09T12:00	9660	280	-50.6	-67.3	311	13	
2025-11-09T12:00	9680	279	-50.7	-67.9	313	13	
2025-11-09T12:00	9700	278	-50.8	-68.5	313	14	
2025-11-09T12:00	9720	277	-51.0	-68.5	313	14	
2025-11-09T12:00	9740	276	-51.1	-68.5	313	14	
2025-11-09T12:00	9760	275	-51.2	-68.4	313	14	
2025-11-09T12:00	9780	275	-51.3	-68.4	314	14	
2025-11-09T12:00	9800	274	-51.4	-68.4	314	14	
2025-11-09T12:00	9820	273	-51.5	-68.4	313	14	
2025-11-09T12:00	9840	272	-51.8	-68.5	313	14	
2025-11-09T12:00	9860	271	-52.0	-68.5	314	14	
2025-11-09T12:00	9880	270	-52.2	-68.4	314	14	
2025-11-09T12:00	9900	269	-52.3	-68.5	315	14	
2025-11-09T12:00	9920	269	-52.4	-68.7	317	14	
2025-11-09T12:00	9940	268	-52.4	-68.8	318	14	
2025-11-09T12:00	9960	267	-52.6	-68.8	320	14	
2025-11-09T12:00	9980	266	-52.7	-68.8	322	14	
2025-11-09T12:00	10000	265	-52.8	-68.9	323	14	
2025-11-09T12:00	10018	265	-52.9	-69.0	323	13	
2025-11-09T12:00	10050	263	-53.1	-69.2	322	13	
2025-11-09T12:00	10100	261	-53.3	-69.4	319	13	
2025-11-09T12:00	10150	259	-53.7	-69.5	316	13	
2025-11-09T12:00	10200	257	-54.0	-69.6	312	13	
2025-11-09T12:00	10250	255	-54.4	-69.7	309	12	
2025-11-09T12:00	10300	253	-54.7	-69.8	308	12	
2025-11-09T12:00	10350	251	-54.9	-70.0	309	12	
2025-11-09T12:00	10400	249	-54.9	-70.2	309	11	
2025-11-09T12:00	10450	247	-55.2	-70.5	305	11	
2025-11-09T12:00	10500	246	-55.4	-70.6	302	10	
2025-11-09T12:00	10550	244	-55.6	-70.0	300	10	
2025-11-09T12:00	10600	242	-55.8	-70.0	303	9	
2025-11-09T12:00	10650	240	-56.2	-70.6	304	9	
2025-11-09T12:00	10700	238	-56.4	-71.4	301	8	
2025-11-09T12:00	10750	236	-56.5	-71.1	296	8	
2025-11-09T12:00	10800	234	-56.6	-70.5	292	8	
2025-11-09T12:00	10850	232	-56.6	-71.5	290	8	
2025-11-09T12:00	10900	231	-56.0	-73.0	286	8	
2025-11-09T12:00	10950	229	-56.0	-74.1	281	9	
2025-11-09T12:00	11000	227	-55.7	-74.7	276	10	
2025-11-09T12:00	11050	225	-55.8	-74.8	274	11	
2025-11-09T12:00	11100	223	-56.0	-74.6	276	11	
2025-11-09T12:00	11150	222	-56.3	-74.7	283	10	
2025-11-09T12:00	11200	220	-56.0	-75.4	292	9	
2025-11-09T12:00	11250	218	-55.3	-76.1	295	9	
2025-11-09T12:00	11300	216	-54.9	-76.2	289	8	
2025-11-09T12:00	11350	215	-55.0	-76.3	282	7	
2025-11-09T12:00	11400	213	-55.4	-76.2	280	7	
2025-11-09T12:00	11450	211	-55.5	-76.2	282	7	
2025-11-09T12:00	11500	210	-55.7	-76.3	284	8	
2025-11-09T12:00	11550	208	-55.9	-76.5	286	9	
2025-11-09T12:00	11600	207	-56.0	-76.7	288	9	
2025-11-09T12:00	11650	205	-56.1	-76.9	289	9	
2025-11-09T12:00	11700	203	-56.4	-77.1	289	9	
2025-11-09T12:00	11750	202	-56.6	-77.2	291	9	
2025-11-09T12:00	11800	200	-56.6	-77.2	294	9	
2025-11-09T12:00	11850	199	-56.2	-77.5	298	9	
2025-11-09T12:00	11900	197	-55.9	-77.7	303	9	
2025-11-09T12:00	11950	195	-56.0	-77.8	307	9	
2025-11-09T12:00	12000	194	-56.1	-78.0	309	9	
2025-11-09T12:00	12050	192	-56.2	-78.2	310	8	
2025-11-09T12:00	12100	191	-56.0	-78.0	308	7	
2025-11-09T12:00	12150	189	-56.3	-77.8	302	6	
2025-11-09T12:00	12200	188	-56.8	-77.5	289	6	
2025-11-09T12:00	12250	186	-56.8	-77.1	275	7	
2025-11-09T12:00	12300	185	-56.4	-77.0	268	7	
2025-11-09T12:00	12350	184	-56.1	-77.2	263	7	
2025-11-09T12:00	12400	182	-56.1	-77.9	258	6	
2025-11-09T12:00	12450	181	-55.9	-79.1	253	5	
2025-11-09T12:00	12500	179	-55.3	-80.2	256	6	
2025-11-09T12:00	12550	178	-55.0	-80.4	266	7	
2025-11-09T12:00	12600	176	-54.9	-80.1	276	8	
2025-11-09T12:00	12650	175	-55.0	-79.8	281	8	
2025-11-09T12:00	12700	174	-55.2	-79.5	286	8	
2025-11-09T12:00	12750	172	-55.4	-79.4	296	7	
2025-11-09T12:00	12800	171	-55.4	-79.7	302	7	
2025-11-09T12:00	12850	170	-55.1	-80.0	299	7	
2025-11-09T12:00	12900	168	-55.3	-80.2	290	7	
2025-11-09T12:00	12950	167	-55.7	-80.4	283	7	
2025-11-09T12:00	13000	166	-55.8	-80.8	283	7	
2025-11-09T12:00	13050	164	-55.7	-80.9	283	8	
2025-11-09T12:00	13100	163	-55.6	-81.0	282	9	
2025-11-09T12:00	13150	162	-55.6	-81.1	281	10	
2025-11-09T12:00	13200	161	-55.7	-81.2	282	9	
2025-11-09T12:00	13250	159	-55.6	-81.2	284	9	
2025-11-09T12:00	13300	158	-55.8	-81.2	287	9	
2025-11-09T12:00	13350	157	-56.2	-81.3	287	9	
2025-11-09T12:00	13400	156	-56.5	-81.4	289	8	
2025-11-09T12:00	13450	154	-56.8	-81.6	294	6	
2025-11-09T12:00	13500	153	-56.9	-81.7	300	5	
2025-11-09T12:00	13550	152	-57.1	-81.8	307	4	
2025-11-09T12:00	13600	151	-57.4	-82.0	311	4	
2025-11-09T12:00	13650	150	-57.5	-82.0	310	5	
2025-11-09T12:00	13700	148	-57.7	-82.1	305	5	
2025-11-09T12:00	13750	147	-58.1	-82.2	304	5	
2025-11-09T12:00	13800	146	-58.4	-82.2	309	4	
2025-11-09T12:00	13850	145	-58.7	-82.4	311	3	
2025-11-09T12:00	13900	144	-59.1	-82.7	304	2	
2025-11-09T12:00	13950	143	-59.3	-82.7	300	2	
2025-11-09T12:00	14000	141	-59.5	-82.6	311	2	
2025-11-09T12:00	14050	140	-59.8	-82.8	308	2	
2025-11-09T12:00	14100	139	-59.9	-83.0	289	2	
2025-11-09T12:00	14150	138	-60.1	-83.0	270	2	
2025-11-09T12:00	14200	137	-60.3	-83.1	263	3	
2025-11-09T12:00	14250	136	-60.2	-83.1	258	4	
2025-11-09T12:00	14300	135	-60.3	-83.2	253	4	
2025-11-09T12:00	14350	134	-60.3	-83.2	249	4	
2025-11-09T12:00	14400	133	-60.4	-83.2	250	4	
2025-11-09T12:00	14450	132	-60.5	-83.3	254	4	
2025-11-09T12:00	14500	131	-60.5	-83.4	251	4	
2025-11-09T12:00	14550	130	-60.4	-83.5	245	4	
2025-11-09T12:00	14600	128	-60.0	-83.5	243	4	
2025-11-09T12:00	14650	127	-60.0	-83.5	243	4	
2025-11-09T12:00	14700	126	-60.2	-83.6	238	4	
2025-11-09T12:00	14750	125	-60.3	-83.6	228	4	
2025-11-09T12:00	14800	124	-60.5	-83.6	219	4	
2025-11-09T12:00	14850	123	-60.5	-83.6	218	4	
2025-11-09T12:00	14900	122	-60.6	-83.6	226	3	
2025-11-09T12:00	14950	122	-60.8	-83.9	229	3	
2025-11-09T12:00	15000	121	-60.9	-84.0	225	3	
2025-11-09T12:00	15050	120	-60.5	-83.9	227	4	
2025-11-09T12:00	15100	119	-60.6	-84.0	235	5	
2025-11-09T12:00	15150	118	-60.6	-84.0	243	6	
2025-11-09T12:00	15200	117	-60.5	-83.9	247	7	
2025-11-09T12:00	15250	116	-60.5	-83.9	248	7	
2025-11-09T12:00	15300	115	-60.6	-84.0	248	7	
2025-11-09T12:00	15350	114	-60.4	-84.0	246	7	
2025-11-09T12:00	15400	113	-60.6	-84.0	244	7	
2025-11-09T12:00	15450	112	-60.8	-84.1	241	7	
2025-11-09T12:00	15500	111	-60.8	-84.1	244	7	
2025-11-09T12:00	15550	110	-60.7	-84.2	249	7	
2025-11-09T12:00	15600	109	-60.6	-84.2	253	8	
2025-11-09T12:00	15650	109	-60.4	-84.2	257	8	
2025-11-09T12:00	15700	108	-60.5	-84.3	261	9	
2025-11-09T12:00	15750	107	-60.6	-84.3	262	10	
2025-11-09T12:00	15800	106	-60.4	-84.2	260	9	
2025-11-09T12:00	15850	105	-60.6	-84.3	257	9	
2025-11-09T12:00	15900	104	-60.9	-84.4	258	9	
2025-11-09T12:00	15950	103	-61.2	-84.6	263	9	
2025-11-09T12:00	16000	103	-60.5	-84.4	272	9	
2025-11-09T12:00	16050	102	-60.2	-84.5	277	9	
2025-11-09T12:00	16100	101	-60.3	-84.5	280	8	
2025-11-09T12:00	16150	100	-60.2	-84.5	285	8	
2025-11-09T12:00	16200	99	-60.3	-84.5	291	8	
2025-11-09T12:00	16250	99	-60.5	-84.5	294	7	
2025-11-09T12:00	16300	98	-60.5	-84.5	291	6	
2025-11-09T12:00	16350	97	-60.6	-84.6	284	5	
2025-11-09T12:00	16400	96	-60.9	-84.6	278	4	
2025-11-09T12:00	16450	95	-61.1	-84.7	276	3	
2025-11-09T12:00	16500	95	-61.3	-84.7	268	3	
2025-11-09T12:00	16550	94	-61.7	-84.8	255	3	
2025-11-09T12:00	16600	93	-61.8	-84.9	248	4	
2025-11-09T12:00	16650	92	-61.9	-85.0	249	4	
2025-11-09T12:00	16700	92	-61.9	-85.0	257	5	
2025-11-09T12:00	16750	91	-62.1	-85.1	269	5	
2025-11-09T12:00	16800	90	-62.3	-85.2	284	5	
2025-11-09T12:00	16850	89	-62.2	-85.2	290	5	
2025-11-09T12:00	16900	89	-62.1	-85.2	286	5	
2025-11-09T12:00	16950	88	-62.2	-85.3	282	4	
2025-11-09T12:00	17000	87	-62.3	-85.3	280	4	
2025-11-09T12:00	17050	87	-62.5	-85.4	278	4	
2025-11-09T12:00	17100	86	-62.7	-85.5	275	4	
2025-11-09T12:00	17150	85	-62.6	-85.6	274	4	
2025-11-09T12:00	17200	85	-62.2	-85.5	277	4	
2025-11-09T12:00	17250	84	-62.1	-85.5	279	4	
2025-11-09T12:00	17300	83	-62.1	-85.6	278	5	
2025-11-09T12:00	17350	83	-62.1	-85.6	278	5	
2025-11-09T12:00	17400	82	-62.2	-85.6	282	6	
2025-11-09T12:00	17450	81	-62.3	-85.7	288	6	
2025-11-09T12:00	17500	81	-62.4	-85.7	288	6	
2025-11-09T12:00	17550	80	-62.5	-85.7	284	6	
2025-11-09T12:00	17600	79	-62.5	-85.7	282	6	
2025-11-09T12:00	17650	79	-62.5	-85.8	280	6	
2025-11-09T12:00	17700	78	-62.6	-85.9	275	6	
2025-11-09T12:00	17750	77	-62.8	-86.0	269	6	
2025-11-09T12:00	17800	77	-62.9	-86.2	264	7	
2025-11-09T12:00	17850	76	-62.8	-86.2	263	8	
2025-11-09T12:00	17900	75	-62.6	-86.1	263	7	
2025-11-09T12:00	17950	75	-62.8	-86.2	262	6	
2025-11-09T12:00	18000	74	-62.9	-86.3	262	5	
2025-11-09T12:00	18050	74	-62.9	-86.3	262	5	
2025-11-09T12:00	18100	73	-63.0	-86.4	260	6	
2025-11-09T12:00	18150	72	-63.0	-86.4	257	6	
2025-11-09T12:00	18200	72	-63.0	-86.5	253	7	
2025-11-09T12:00	18250	71	-62.8	-86.4	249	6	
2025-11-09T12:00	18300	71	-62.9	-86.5	247	5	
2025-11-09T12:00	18350	70	-63.0	-86.6	245	5	
2025-11-09T12:00	18400	70	-62.9	-86.5	248	5	
2025-11-09T12:00	18450	69	-62.9	-86.6	253	6	
2025-11-09T12:00	18500	68	-63.0	-86.6	257	7	
2025-11-09T12:00	18550	68	-63.1	-86.6	258	7	
2025-11-09T12:00	18600	67	-63.2	-86.7	259	7	
2025-11-09T12:00	18650	67	-63.0	-86.7	257	7	
2025-11-09T12:00	18700	66	-63.0	-86.6	251	6	
2025-11-09T12:00	18750	66	-63.3	-86.6	242	6	
2025-11-09T12:00	18800	65	-63.7	-86.7	234	7	
2025-11-09T12:00	18850	65	-63.9	-86.8	227	8	
2025-11-09T12:00	18900	64	-64.1	-86.9	221	9	
2025-11-09T12:00	18950	64	-64.2	-87.1	217	10	
2025-11-09T12:00	19000	63	-64.0	-87.2	216	11	
2025-11-09T12:00	19050	63	-63.3	-87.0	220	12	
2025-11-09T12:00	19100	62	-63.1	-86.9	226	12	
2025-11-09T12:00	19150	62	-63.3	-87.0	231	13	
2025-11-09T12:00	19200	61	-63.4	-87.0	234	14	
2025-11-09T12:00	19250	61	-62.8	-86.7	236	14	
2025-11-09T12:00	19300	60	-62.9	-86.8	237	15	
2025-11-09T12:00	19350	60	-63.1	-86.8	237	15	
2025-11-09T12:00	19400	59	-63.3	-86.8	239	15	
2025-11-09T12:00	19450	59	-63.6	-86.9	241	14	
2025-11-09T12:00	19500	58	-63.5	-87.0	244	13	
2025-11-09T12:00	19550	58	-63.6	-87.1	248	13	
2025-11-09T12:00	19600	57	-63.4	-87.0	253	13	
2025-11-09T12:00	19650	57	-63.3	-87.1	255	13	
2025-11-09T12:00	19700	56	-63.3	-87.1	256	13	
2025-11-09T12:00	19750	56	-63.3	-87.0	257	12	
2025-11-09T12:00	19800	55	-63.2	-87.0	258	12	
2025-11-09T12:00	19850	55	-63.2	-87.0	261	11	
2025-11-09T12:00	19900	55	-63.2	-87.0	264	11	
2025-11-09T12:00	19950	54	-63.5	-87.1	262	10	
2025-11-09T12:00	20000	54	-63.6	-87.1	258	10	
2025-11-09T12:00	20050	53	-63.6		256	9	
2025-11-09T12:00	20100	53	-63.4		260	9	
2025-11-09T12:00	20150	52	-63.3		268	9	
2025-11-09T12:00	20200	52	-63.1		275	8	
2025-11-09T12:00	20250	51	-63.2		282	8	
2025-11-09T12:00	20300	51	-63.4		285	8	
2025-11-09T12:00	20350	51	-63.4		283	8	
2025-11-09T12:00	20400	50	-63.5		277	8	
2025-11-09T12:00	20450	50	-63.7		270	8	
2025-11-09T12:00	20500	49	-63.6		264	9	
2025-11-09T12:00	20550	49	-63.5		262	10	
2025-11-09T12:00	20600	49	-63.4		262	10	
2025-11-09T12:00	20650	48	-63.3		264	10	
2025-11-09T12:00	20700	48	-63.2		265	11	
2025-11-09T12:00	20750	47	-63.2		267	11	
2025-11-09T12:00	20800	47	-63.3		268	11	
2025-11-09T12:00	20850	47	-63.4		269	11	
2025-11-09T12:00	20900	46	-63.4		271	11	
2025-11-09T12:00	20950	46	-63.6		273	10	
2025-11-09T12:00	21000	46	-63.6		273	9	
2025-11-09T12:00	21050	45	-63.8		270	9	
2025-11-09T12:00	21100	45	-63.9		268	11	
2025-11-09T12:00	21150	44	-63.9		268	13	
2025-11-09T12:00	21200	44	-64.0		268	15	
2025-11-09T12:00	21250	44	-63.8		269	17	
2025-11-09T12:00	21300	43	-64.0		269	16	
2025-11-09T12:00	21350	43	-64.0		269	15	
2025-11-09T12:00	21400	43	-63.8		270	14	
2025-11-09T12:00	21450	42	-63.5		273	14	
2025-11-09T12:00	21500	42	-63.5		274	14	
2025-11-09T12:00	21550	42	-63.6		273	14	
2025-11-09T12:00	21600	41	-63.6		271	14	
2025-11-09T12:00	21650	41	-63.8		271	13	
2025-11-09T12:00	21700	41	-64.1		272	13	
2025-11-09T12:00	21750	40	-64.4		274	13	
2025-11-09T12:00	21800	40	-64.8		275	13	
2025-11-09T12:00	21850	40	-65.1		275	12	
2025-11-09T12:00	21900	39	-65.4		272	10	
2025-11-09T12:00	21950	39	-65.4		264	9	
2025-11-09T12:00	22000	39	-65.1		254	9	
2025-11-09T12:00	22050	38	-65.2		245	9	
2025-11-09T12:00	22100	38	-65.4		241	9	
2025-11-09T12:00	22150	38	-65.6		243	10	
2025-11-09T12:00	22200	37	-65.8		249	11	
2025-11-09T12:00	22250	37	-66.0		253	12	
2025-11-09T12:00	22300	37	-65.7		253	14	
2025-11-09T12:00	22350	37	-65.6		253	15	
2025-11-09T12:00	22400	36	-65.6		255	16	
2025-11-09T12:00	22450	36	-65.5		259	17	
2025-11-09T12:00	22500	36	-65.7		264	17	
2025-11-09T12:00	22550	35	-65.9		269	17	
2025-11-09T12:00	22600	35	-66.1		272	17	
2025-11-09T12:00	22650	35	-66.1		274	17	
2025-11-09T12:00	22700	34	-66.0		275	16	
2025-11-09T12:00	22750	34	-65.9		275	15	
2025-11-09T12:00	22800	34	-65.8		272	14	
2025-11-09T12:00	22850	34	-65.8		268	14	
2025-11-09T12:00	22900	33	-65.7		266	13	
2025-11-09T12:00	22950	33	-65.4		267	13	
2025-11-09T12:00	23000	33	-65.5		268	14	
2025-11-09T12:00	23050	33	-65.6		267	14	
2025-11-09T12:00	23100	32	-65.5		268	15	
2025-11-09T12:00	23150	32	-65.5		270	16	
2025-11-09T12:00	23200	32	-65.5		271	16	
2025-11-09T12:00	23250	32	-65.5		273	17	
2025-11-09T12:00	23300	31	-65.5		273	18	
2025-11-09T12:00	23350	31	-65.6		273	17	
2025-11-09T12:00	23400	31	-65.6		274	17	
2025-11-09T12:00	23450	30	-65.5		274	16	
2025-11-09T12:00	23500	30	-65.4		273	16	
2025-11-09T12:00	23550	30	-65.1		270	15	
2025-11-09T12:00	23600	30	-65.1		268	15	
2025-11-09T12:00	23650	29	-65.2		265	14	
2025-11-09T12:00	23700	29	-65.4		262	13	
2025-11-09T12:00	23750	29	-65.7		257	12	
2025-11-09T12:00	23800	29	-65.8		252	11	
2025-11-09T12:00	23850	29	-65.8		249	12	
2025-11-09T12:00	23900	28	-65.7		251	13	
2025-11-09T12:00	23950	28	-65.6		254	14	
2025-11-09T12:00	24000	28	-65.6		257	16	
2025-11-09T12:00	24050	28	-65.8		259	17	
2025-11-09T12:00	24100	27	-65.8		259	19	
2025-11-09T12:00	24150	27	-65.1		257	19	
2025-11-09T12:00	24200	27	-64.6		254	20	
2025-11-09T12:00	24250	27	-64.5		251	20	
2025-11-09T12:00	24300	26	-64.3		248	20	
2025-11-09T12:00	24350	26	-64.2		246	20	
2025-11-09T12:00	24400	26	-64.1		245	21	
2025-11-09T12:00	24450	26	-64.1		245	21	
2025-11-09T12:00	24500	26	-64.1		244	21	
2025-11-09T12:00	24550	25	-64.0		246	22	
2025-11-09T12:00	24600	25	-63.8		251	22	
2025-11-09T12:00	24650	25	-63.5		255	23	
2025-11-09T12:00	24700	25	-63.2		258	23	
2025-11-09T12:00	24750	25	-63.2		259	24	
2025-11-09T12:00	24800	24	-63.4		261	24	
2025-11-09T12:00	24850	24	-63.5		263	24	
2025-11-09T12:00	24900	24	-63.6		264	24	
2025-11-09T12:00	24950	24	-63.7		266	23	
2025-11-09T12:00	25000	24	-64.0		266	23	
2025-11-09T12:00	25050	23	-64.2		267	23	
2025-11-09T12:00	25100	23	-64.5		267	23	
2025-11-09T12:00	25150	23	-64.5		266	22	
2025-11-09T12:00	25200	23	-64.5		264	21	
2025-11-09T12:00	25250	23	-64.2		263	21	
2025-11-09T12:00	25300	23	-64.2		265	22	
2025-11-09T12:00	25350	22	-64.0		267	23	
2025-11-09T12:00	25400	22	-63.5		270	24	
2025-11-09T12:00	25450	22	-63.4		273	25	
2025-11-09T12:00	25500	22	-63.6		275	25	
2025-11-09T12:00	25550	22	-63.6		277	24	
2025-11-09T12:00	25600	21	-63.5		277	24	
2025-11-09T12:00	25650	21	-63.5		276	23	
2025-11-09T12:00	25700	21	-63.6		275	22	
2025-11-09T12:00	25750	21	-63.4		274	21	
2025-11-09T12:00	25800	21	-63.5		274	20	
2025-11-09T12:00	25850	21	-63.6		273	19	
2025-11-09T12:00	25900	20	-63.8		273	18	
2025-11-09T12:00	25950	20	-64.2		271	18	
2025-11-09T12:00	26000	20	-64.4		268	17	
2025-11-09T12:00	26050	20	-64.2		265	17	
2025-11-09T12:00	26100	20	-64.2		264	17	
2025-11-09T12:00	26150	20	-64.2		263	17	
2025-11-09T12:00	26200	19	-64.3		261	18	
2025-11-09T12:00	26250	19	-64.5		259	20	
2025-11-09T12:00	26300	19	-64.6		257	21	
2025-11-09T12:00	26350	19	-64.0		257	22	
2025-11-09T12:00	26400	19	-63.6		258	24	
2025-11-09T12:00	26450	19	-63.2		257	25	
2025-11-09T12:00	26500	19	-62.7		255	25	
2025-11-09T12:00	26550	18	-62.8		253	26	
2025-11-09T12:00	26600	18	-62.8		252	26	
2025-11-09T12:00	26650	18	-62.8		253	25	
2025-11-09T12:00	26700	18	-62.8		256	25	
2025-11-09T12:00	26750	18	-62.8		259	24	
2025-11-09T12:00	26800	18	-62.8		261	24	
2025-11-09T12:00	26850	17	-62.8		263	24	
2025-11-09T12:00	26900	17	-62.9		265	24	
2025-11-09T12:00	26950	17	-63.3		266	24	
2025-11-09T12:00	27000	17	-63.4		268	25	
2025-11-09T12:00	27050	17	-63.4		269	25	
2025-11-09T12:00	27100	17	-63.2		269	25	
2025-11-09T12:00	27150	17	-62.9		268	25	
2025-11-09T12:00	27200	17	-62.7		268	25	
2025-11-09T12:00	27250	16	-62.4		269	26	
2025-11-09T12:00	27300	16	-62.3		269	26	
2025-11-09T12:00	27350	16	-62.2		270	26	
2025-11-09T12:00	27400	16	-62.3		270	26	
2025-11-09T12:00	27450	16	-62.4		270	26	
2025-11-09T12:00	27500	16	-62.4		271	26	
2025-11-09T12:00	27550	16	-62.1		272	26	
2025-11-09T12:00	27600	15	-62.2		273	27	
2025-11-09T12:00	27650	15	-61.9		272	28	
2025-11-09T12:00	27700	15	-61.7		271	29	
2025-11-09T12:00	27750	15	-61.5		270	30	
2025-11-09T12:00	27800	15	-61.5		271	30	
2025-11-09T12:00	27850	15	-61.5		272	29	
2025-11-09T12:00	27900	15	-61.3		273	29	
2025-11-09T12:00	27950	15	-61.5		275	28	
2025-11-09T12:00	28000	15	-61.9		276	27	
2025-11-09T12:00	28050	14	-62.1		277	26	
2025-11-09T12:00	28100	14	-62.3		276	24	
2025-11-09T12:00	28150	14	-62.6		275	23	
2025-11-09T12:00	28200	14	-62.6		273	24	
2025-11-09T12:00	28250	14	-62.6		272	25	
2025-11-09T12:00	28300	14	-62.5		272	27	
2025-11-09T12:00	28350	14	-62.5		271	29	
2025-11-09T12:00	28400	14	-62.6		270	30	
2025-11-09T12:00	28450	13	-62.5		269	31	
2025-11-09T12:00	28500	13	-62.3		268	30	
2025-11-09T12:00	28550	13	-62.5		267	30	
2025-11-09T12:00	28600	13	-62.8		266	29	
2025-11-09T12:00	28650	13	-63.0		265	29	
2025-11-09T12:00	28700	13	-63.3		264	29	
2025-11-09T12:00	28750	13	-63.4		263	29	
2025-11-09T12:00	28800	13	-63.3		262	29	
2025-11-09T12:00	28850	13	-63.3		262	29	
2025-11-09T12:00	28900	13	-63.4		263	29	
2025-11-09T12:00	28950	12	-63.5		264	30	
2025-11-09T12:00	29000	12	-63.6		265	30	
2025-11-09T12:00	29050	12	-63.7		266	32	
2025-11-09T12:00	29100	12	-63.7		267	33	
2025-11-09T12:00	29150	12	-63.3		267	34	
2025-11-09T12:00	29200	12	-63.3		267	35	
2025-11-09T12:00	29250	12	-63.4		267	36	
2025-11-09T12:00	29300	12	-63.5		267	36	
2025-11-09T12:00	29350	12	-63.6		267	36	
2025-11-09T12:00	29400	12	-63.8		266	37	
2025-11-09T12:00	29450	11	-64.0		265	37	
2025-11-09T12:00	29500	11	-64.2		264	37	
2025-11-09T12:00	29550	11	-64.2		263	37	
2025-11-09T12:00	29600	11	-64.2		263	38	
2025-11-09T12:00	29650	11	-64.0		264	40	
2025-11-09T12:00	29700	11	-63.5		264	42	
2025-11-09T12:00	29750	11	-62.9		264	43	
2025-11-09T12:00	29800	11	-62.4		263	43	
2025-11-09T12:00	29850	11	-62.0		263	43	
2025-11-09T12:00	29900	11	-61.9		263	43	
2025-11-09T12:00	29950	11	-61.6		264	43	
2025-11-09T12:00	30000	10	-61.4		265	44	
2025-11-09T12:00	30050	10	-61.5		266	44	
2025-11-09T12:00	30100	10	-61.4		266	45	
2025-11-09T12:00	30150	10	-61.4		265	45	
2025-11-09T12:00	30200	10	-61.6		264	45	
2025-11-09T12:00	30250	10	-61.9		264	45	
2025-11-09T12:00	30300	10	-61.6		263	44	
2025-11-09T12:00	30350	10	-61.2		263	44	
2025-11-09T12:00	30400	10	-61.2		264	43	
2025-11-09T12:00	30450	10	-61.3		264	44	
2025-11-09T12:00	30500	10	-61.3		264	44	
2025-11-09T12:00	30550	10	-61.1		265	45	
2025-11-09T12:00	30600	10	-60.9		266	45	
2025-11-09T12:00	30650	9	-60.9		267	45	
2025-11-09T12:00	30700	9	-60.9		269	45	
2025-11-09T12:00	30750	9	-61.0		270	46	
2025-11-09T12:00	30800	9	-61.0		271	46	
2025-11-09T12:00	30850	9	-61.0		271	46	
2025-11-09T12:00	30900	9	-61.0		271	45	
2025-11-09T12:00	30950	9	-60.6		270	44	
2025-11-09T12:00	31000	9	-60.2		270	44	
2025-11-09T12:00	31050	9	-60.0		270	44	
2025-11-09T12:00	31100	9	-60.0		270	45	
2025-11-09T12:00	31150	9	-60.0		268	46	
2025-11-09T12:00	31200	9	-60.0		267	47	
2025-11-09T12:00	31250	9	-59.8		266	47	
2025-11-09T12:00	31300	9	-59.7		265	48	
2025-11-09T12:00	31350	8	-59.8		265	49	
2025-11-09T12:00	31400	8	-59.8		265	49	
2025-11-09T12:00	31450	8	-59.9		264	49	
2025-11-09T12:00	31500	8	-59.8		264	50	
2025-11-09T12:00	31550	8	-59.5		264	50	
2025-11-09T12:00	31600	8	-59.4		265	50	
2025-11-09T12:00	31650	8	-59.3		265	50	
2025-11-09T12:00	31700	8	-59.1		266	51	
2025-11-09T12:00	31750	8	-58.9		266	51	
2025-11-09T12:00	31800	8	-58.7		266	52	
2025-11-09T12:00	31850	8	-58.2		265	52	
2025-11-09T12:00	31900	8	-57.6		266	52	
2025-11-09T12:00	31950	8	-57.3		266	51	
2025-11-09T12:00	32000	8	-57.0		267	51	
2025-11-09T12:00	32050	8	-56.4		268	51	
2025-11-09T12:00	32100	7	-56.1		268	51	
2025-11-09T12:00	32150	7	-56.3		267	52	
2025-11-09T12:00	32200	7	-56.4		267	54	
2025-11-09T12:00	32250	7	-56.5		268	55	
2025-11-09T12:00	32300	7	-56.2		269	55	
2025-11-09T12:00	32350	7	-56.0		270	54	
2025-11-09T12:00	32400	7	-56.2		270	53	
2025-11-09T12:00	32450	7	-56.6		271	52	
2025-11-09T12:00	32500	7	-56.7		270	51	
2025-11-09T12:00	32550	7	-56.6		270	51	
2025-11-09T12:00	32600	7	-56.5		271	51	
2025-11-09T12:00	32650	7	-56.4		271	51	
2025-11-09T12:00	32700	7	-56.5		271	52	
2025-11-09T12:00	32750	7	-56.4		271	53	
2025-11-09T12:00	32800	7	-55.8		271	54	
2025-11-09T12:00	32850	7	-55.1		271	55	
2025-11-09T12:00	32900	7	-54.9		271	54	
2025-11-09T12:00	32950	7	-55.0		270	53	
2025-11-09T12:00	33000	6	-55.0		269	51	
2025-11-09T12:00	33050	6	-54.7		267	50	
2025-11-09T12:00	33100	6	-54.6		266	49	
2025-11-09T12:00	33150	6	-54.6		265	49	
2025-11-09T12:00	33200	6	-54.6		263	49	
2025-11-09T12:00	33250	6	-54.6		262	49	
2025-11-09T12:00	33300	6	-54.4		261	50	
2025-11-09T12:00	33350	6	-54.1		261	50	
2025-11-09T12:00	33400	6	-53.9		261	51	
2025-11-09T12:00	33450	6	-53.8		262	52	
2025-11-09T12:00	33500	6	-53.9		263	53	
2025-11-09T12:00	33550	6	-54.0		264	54	
2025-11-09T12:00	33600	6	-54.0		265	55	
2025-11-09T12:00	33650	6	-53.9		265	56	
2025-11-09T12:00	33700	6	-53.8		265	56	
2025-11-09T12:00	33750	6	-53.8		265	57	
2025-11-09T12:00	33800	6	-53.8		265	57	
2025-11-09T12:00	33850	6	-53.7		265	57	
2025-11-09T12:00	33900	6	-53.5		265	57	
2025-11-10T00:00	491	961	5.8	5.4	191	1	
2025-11-10T00:00	501	958	6.1	5.7	209	1	
2025-11-10T00:00	520	957	6.5	6.2	235	1	
2025-11-10T00:00	540	955	7.1	6.2	251	0	
2025-11-10T00:00	560	952	7.4	6.5	283	0	
2025-11-10T00:00	580	950	7.4	6.6	329	0	
2025-11-10T00:00	600	948	7.4	6.5	353	0	
2025-11-10T00:00	620	946	7.5	6.3	8	1	
2025-11-10T00:00	640	943	7.5	6.4	20	1	
2025-11-10T00:00	660	941	7.3	6.4	34	1	
2025-11-10T00:00	680	939	7.2	6.3	48	1	
2025-11-10T00:00	700	936	7.1	6.2	55	1	
2025-11-10T00:00	720	934	7.2	5.9	58	1	
2025-11-10T00:00	740	932	7.2	5.7	59	2	
2025-11-10T00:00	760	930	7.0	5.8	60	2	
2025-11-10T00:00	780	927	6.9	5.7	60	3	
2025-11-10T00:00	800	925	6.8	5.6	61	3	
2025-11-10T00:00	820	923	6.7	5.4	61	4	
2025-11-10T00:00	840	921	6.6	5.3	62	4	
2025-11-10T00:00	860	919	6.6	5.2	63	5	
2025-11-10T00:00	880	916	6.5	5.0	64	5	
2025-11-10T00:00	900	914	6.5	4.9	64	6	
2025-11-10T00:00	920	912	6.3	4.9	65	6	
2025-11-10T00:00	940	910	6.2	4.8	65	7	
2025-11-10T00:00	960	907	6.3	4.3	66	7	
2025-11-10T00:00	980	905	6.2	4.2	66	7	
2025-11-10T00:00	1000	903	6.1	4.1	66	7	
2025-11-10T00:00	1020	901	5.9	4.1	66	7	
2025-11-10T00:00	1040	899	5.7	4.0	67	7	
2025-11-10T00:00	1060	896	5.5	4.0	68	7	
2025-11-10T00:00	1080	894	5.3	3.9	69	7	
2025-11-10T00:00	1100	892	5.2	3.9	71	7	
2025-11-10T00:00	1120	890	5.1	3.8	74	7	
2025-11-10T00:00	1140	888	5.1	3.6	76	6	
2025-11-10T00:00	1160	886	5.1	3.6	78	6	
2025-11-10T00:00	1180	883	5.0	3.5	81	5	
2025-11-10T00:00	1200	881	5.0	3.1	81	5	
2025-11-10T00:00	1220	879	4.9	3.0	81	5	
2025-11-10T00:00	1240	877	4.8	3.0	80	4	
2025-11-10T00:00	1260	875	4.6	2.9	78	4	
2025-11-10T00:00	1280	873	4.4	2.9	76	4	
2025-11-10T00:00	1300	870	4.2	2.8	75	4	
2025-11-10T00:00	1320	868	4.1	2.7	76	3	
2025-11-10T00:00	1340	866	3.9	2.6	78	3	
2025-11-10T00:00	1360	864	3.7	2.6	82	3	
2025-11-10T00:00	1380	862	3.6	2.5	87	3	
2025-11-10T00:00	1400	860	3.4	2.5	90	3	
2025-11-10T00:00	1420	857	3.2	2.4	91	3	
2025-11-10T00:00	1440	855	3.0	2.3	90	2	
2025-11-10T00:00	1460	853	2.9	2.2	89	2	
2025-11-10T00:00	1480	851	2.7	2.1	89	2	
2025-11-10T00:00	1500	850	2.6	1.8	92	2	
2025-11-10T00:00	1520	847	2.4	1.8	102	1	
2025-11-10T00:00	1540	845	2.2	1.6	114	2	
2025-11-10T00:00	1560	843	2.0	1.6	124	2	
2025-11-10T00:00	1580	841	1.9	1.5	132	2	
2025-11-10T00:00	1600	839	1.7	1.3	137	3	
2025-11-10T00:00	1620	837	1.8	1.0	140	3	
2025-11-10T00:00	1640	835	1.8	0.8	143	3	
2025-11-10T00:00	1660	833	1.8	0.3	148	3	
2025-11-10T00:00	1680	831	1.9	-0.1	154	3	
2025-11-10T00:00	1700	828	1.8	-0.2	161	2	
2025-11-10T00:00	1720	826	1.7	-0.3	168	2	
2025-11-10T00:00	1740	824	1.6	-0.1	176	2	
2025-11-10T00:00	1760	822	1.5	0.0	181	2	
2025-11-10T00:00	1780	820	1.3	0.0	183	2	
2025-11-10T00:00	1800	818	1.2	-0.2	184	2	
2025-11-10T00:00	1820	816	1.0	-0.2	184	3	
2025-11-10T00:00	1840	814	0.9	-0.3	184	3	
2025-11-10T00:00	1860	812	0.8	-0.4	183	3	
2025-11-10T00:00	1880	810	0.7	-0.7	182	3	
2025-11-10T00:00	1900	808	0.6	-0.9	180	3	
2025-11-10T00:00	1920	806	0.5	-0.9	180	3	
2025-11-10T00:00	1940	804	0.3	-1.0	180	3	
2025-11-10T00:00	1960	802	0.2	-0.9	182	3	
2025-11-10T00:00	1980	800	0.0	-1.0	186	3	
2025-11-10T00:00	2000	798	0.0	-1.6	192	3	
2025-11-10T00:00	2020	796	0.2	-2.2	202	3	
2025-11-10T00:00	2040	794	0.2	-2.6	211	3	
2025-11-10T00:00	2060	792	0.1	-2.8	219	3	
2025-11-10T00:00	2080	790	0.0	-3.1	224	3	
2025-11-10T00:00	2100	788	-0.1	-3.5	228	3	
2025-11-10T00:00	2120	786	0.1	-4.1	232	3	
2025-11-10T00:00	2140	784	0.1	-5.0	237	3	
2025-11-10T00:00	2160	782	0.1	-6.6	242	3	
2025-11-10T00:00	2180	780	0.2	-9.1	247	3	
2025-11-10T00:00	2200	778	0.5	-14.4	254	3	
2025-11-10T00:00	2220	776	0.7	-16.1	260	2	
2025-11-10T00:00	2240	775	0.7	-15.9	266	2	
2025-11-10T00:00	2260	773	0.6	-16.9	269	2	
2025-11-10T00:00	2280	771	0.6	-18.6	271	2	
2025-11-10T00:00	2300	769	0.7	-19.8	272	2	
2025-11-10T00:00	2320	767	0.6	-21.1	273	2	
2025-11-10T00:00	2340	765	0.8	-24.1	275	2	
2025-11-10T00:00	2360	763	0.7	-24.6	279	1	
2025-11-10T00:00	2380	761	0.6	-24.8	287	1	
2025-11-10T00:00	2400	759	0.4	-24.9	301	1	
2025-11-10T00:00	2420	757	0.2	-25.0	319	0	
2025-11-10T00:00	2440	755	0.1	-24.5	347	0	
2025-11-10T00:00	2460	754	0.0	-23.0	12	0	
2025-11-10T00:00	2480	752	-0.2	-21.7	25	0	
2025-11-10T00:00	2500	750	-0.3	-21.6	13	0	
2025-11-10T00:00	2520	748	-0.4	-20.9	336	0	
2025-11-10T00:00	2540	746	-0.6	-20.8	345	0	
2025-11-10T00:00	2560	744	-0.8	-20.8	354	0	
2025-11-10T00:00	2580	742	-1.0	-20.7	354	1	
2025-11-10T00:00	2600	740	-1.2	-21.0	352	2	
2025-11-10T00:00	2620	739	-1.3	-21.7	349	3	
2025-11-10T00:00	2640	737	-1.5	-21.8	346	3	
2025-11-10T00:00	2660	735	-1.7	-22.9	343	4	
2025-11-10T00:00	2680	733	-1.8	-23.5	340	4	
2025-11-10T00:00	2700	731	-1.9	-24.2	337	4	
2025-11-10T00:00	2720	729	-2.0	-25.2	333	3	
2025-11-10T00:00	2740	728	-2.1	-25.8	329	3	
2025-11-10T00:00	2760	726	-2.2	-27.0	326	3	
2025-11-10T00:00	2780	724	-2.2	-28.2	322	2	
2025-11-10T00:00	2800	722	-2.3	-28.0	320	3	
2025-11-10T00:00	2820	720	-2.3	-28.0	320	3	
2025-11-10T00:00	2840	719	-2.3	-28.3	320	3	
2025-11-10T00:00	2860	717	-2.4	-29.0	321	3	
2025-11-10T00:00	2880	715	-2.5	-29.5	321	3	
2025-11-10T00:00	2900	713	-2.6	-29.8	321	4	
2025-11-10T00:00	2920	711	-2.8	-29.9	321	4	
2025-11-10T00:00	2940	709	-2.9	-29.8	320	4	
2025-11-10T00:00	2960	708	-3.0	-29.4	318	5	
2025-11-10T00:00	2980	706	-3.0	-28.6	316	5	
2025-11-10T00:00	3000	704	-3.0	-29.0	314	5	
2025-11-10T00:00	3020	702	-3.1	-29.5	311	5	
2025-11-10T00:00	3040	701	-3.3	-29.2	308	5	
2025-11-10T00:00	3060	699	-3.5	-28.9	306	5	
2025-11-10T00:00	3080	697	-3.7	-28.9	305	5	
2025-11-10T00:00	3100	695	-3.9	-29.8	305	5	
2025-11-10T00:00	3120	694	-4.1	-29.3	307	5	
2025-11-10T00:00	3140	692	-4.3	-29.3	311	4	
2025-11-10T00:00	3160	690	-4.5	-30.0	317	4	
2025-11-10T00:00	3180	688	-4.7	-30.4	325	4	
2025-11-10T00:00	3200	686	-4.9	-30.3	333	4	
2025-11-10T00:00	3220	685	-5.1	-30.3	342	4	
2025-11-10T00:00	3240	683	-5.3	-30.4	353	4	
2025-11-10T00:00	3260	681	-5.5	-30.4	1	4	
2025-11-10T00:00	3280	679	-5.6	-30.7	6	4	
2025-11-10T00:00	3300	678	-5.7	-30.8	11	4	
2025-11-10T00:00	3320	676	-5.9	-30.8	14	5	
2025-11-10T00:00	3340	675	-6.0	-30.9	16	5	
2025-11-10T00:00	3360	673	-6.1	-31.1	19	6	
2025-11-10T00:00	3380	671	-6.2	-32.0	20	6	
2025-11-10T00:00	3400	669	-6.3	-32.9	22	6	
2025-11-10T00:00	3420	667	-6.4	-33.7	23	6	
2025-11-10T00:00	3440	666	-6.4	-34.0	23	6	
2025-11-10T00:00	3460	664	-6.4	-34.1	23	6	
2025-11-10T00:00	3480	662	-6.5	-33.8	21	6	
2025-11-10T00:00	3500	661	-6.6	-33.5	19	7	
2025-11-10T00:00	3520	659	-6.6	-33.5	16	7	
2025-11-10T00:00	3540	657	-6.7	-33.8	13	7	
2025-11-10T00:00	3560	656	-6.8	-33.6	10	7	
2025-11-10T00:00	3580	654	-6.8	-30.6	7	7	
2025-11-10T00:00	3600	652	-7.0	-27.8	6	7	
2025-11-10T00:00	3620	651	-7.1	-26.9	5	8	
2025-11-10T00:00	3640	649	-7.3	-26.4	4	8	
2025-11-10T00:00	3660	647	-7.5	-26.2	4	8	
2025-11-10T00:00	3680	646	-7.6	-25.9	4	8	
2025-11-10T00:00	3700	644	-7.8	-25.4	3	8	
2025-11-10T00:00	3720	642	-7.9	-23.7	4	8	
2025-11-10T00:00	3740	641	-8.1	-23.8	4	8	
2025-11-10T00:00	3760	639	-8.1	-24.6	4	7	
2025-11-10T00:00	3780	637	-8.0	-26.2	5	7	
2025-11-10T00:00	3800	636	-8.1	-26.9	5	7	
2025-11-10T00:00	3820	634	-8.2	-27.1	6	7	
2025-11-10T00:00	3840	632	-8.3	-27.7	5	7	
2025-11-10T00:00	3860	631	-8.3	-28.5	4	7	
2025-11-10T00:00	3880	629	-8.4	-29.5	2	8	
2025-11-10T00:00	3900	628	-8.4	-30.6	1	8	
2025-11-10T00:00	3920	626	-8.2	-32.5	359	9	
2025-11-10T00:00	3940	624	-8.2	-33.1	358	9	
2025-11-10T00:00	3960	623	-8.3	-34.6	357	9	
2025-11-10T00:00	3980	621	-8.4	-36.7	356	9	
2025-11-10T00:00	4000	619	-8.4	-39.3	356	10	
2025-11-10T00:00	4020	618	-8.4	-36.6	357	10	
2025-11-10T00:00	4040	616	-8.5	-28.7	357	10	
2025-11-10T00:00	4060	615	-8.6	-25.6	358	11	
2025-11-10T00:00	4080	613	-8.6	-23.2	359	11	
2025-11-10T00:00	4100	612	-8.7	-22.1	359	11	
2025-11-10T00:00	4120	610	-8.7	-21.8	359	10	
2025-11-10T00:00	4140	608	-8.6	-22.6	359	10	
2025-11-10T00:00	4160	607	-8.8	-22.8	358	10	
2025-11-10T00:00	4180	605	-9.0	-22.4	358	9	
2025-11-10T00:00	4200	604	-9.1	-21.8	358	9	
2025-11-10T00:00	4220	602	-9.2	-21.4	0	9	
2025-11-10T00:00	4240	601	-9.3	-21.3	2	9	
2025-11-10T00:00	4260	599	-9.5	-21.0	4	10	
2025-11-10T00:00	4280	597	-9.6	-21.0	5	10	
2025-11-10T00:00	4300	596	-9.8	-20.9	5	10	
2025-11-10T00:00	4320	594	-9.9	-21.3	4	10	
2025-11-10T00:00	4340	593	-10.0	-22.6	3	10	
2025-11-10T00:00	4360	591	-10.1	-22.8	0	10	
2025-11-10T00:00	4380	590	-10.2	-22.4	358	10	
2025-11-10T00:00	4400	588	-10.4	-22.3	355	10	
2025-11-10T00:00	4420	587	-10.5	-22.3	353	10	
2025-11-10T00:00	4440	585	-10.7	-22.4	351	10	
2025-11-10T00:00	4460	584	-10.8	-22.3	350	10	
2025-11-10T00:00	4480	582	-10.9	-22.4	349	11	
2025-11-10T00:00	4500	581	-11.1	-22.5	349	11	
2025-11-10T00:00	4520	579	-11.3	-22.5	348	11	
2025-11-10T00:00	4540	578	-11.5	-22.5	348	12	
2025-11-10T00:00	4560	576	-11.7	-22.6	348	12	
2025-11-10T00:00	4580	575	-11.8	-22.7	348	12	
2025-11-10T00:00	4600	573	-12.0	-22.7	348	12	
2025-11-10T00:00	4620	572	-12.2	-22.7	348	13	
2025-11-10T00:00	4640	570	-12.4	-23.0	347	13	
2025-11-10T00:00	4660	569	-12.5	-23.3	346	13	
2025-11-10T00:00	4680	567	-12.7	-23.5	345	14	
2025-11-10T00:00	4700	565	-12.8	-23.5	343	14	
2025-11-10T00:00	4720	564	-12.8	-23.4	341	14	
2025-11-10T00:00	4740	563	-12.8	-23.9	339	14	
2025-11-10T00:00	4760	561	-12.9	-24.1	338	14	
2025-11-10T00:00	4780	560	-13.1	-24.4	338	14	
2025-11-10T00:00	4800	558	-13.1	-25.2	338	14	
2025-11-10T00:00	4820	557	-13.2	-26.6	338	14	
2025-11-10T00:00	4840	555	-13.3	-27.0	338	14	
2025-11-10T00:00	4860	554	-13.5	-27.7	339	14	
2025-11-10T00:00	4880	552	-13.7	-28.0	339	14	
2025-11-10T00:00	4900	551	-13.9	-28.1	339	14	
2025-11-10T00:00	4920	550	-14.0	-28.3	339	13	
2025-11-10T00:00	4940	548	-14.2	-28.4	337	13	
2025-11-10T00:00	4960	547	-14.4	-28.7	335	14	
2025-11-10T00:00	4980	545	-14.4	-29.5	334	14	
2025-11-10T00:00	5000	544	-14.5	-30.0	333	14	
2025-11-10T00:00	5020	542	-14.6	-30.3	334	15	
2025-11-10T00:00	5040	541	-14.8	-30.3	336	15	
2025-11-10T00:00	5060	540	-14.9	-30.2	337	15	
2025-11-10T00:00	5080	538	-15.1	-29.1	339	14	
2025-11-10T00:00	5100	537	-15.3	-29.1	341	14	
2025-11-10T00:00	5120	535	-15.5	-29.3	342	13	
2025-11-10T00:00	5140	534	-15.6	-28.0	342	13	
2025-11-10T00:00	5160	532	-15.8	-27.2	342	13	
2025-11-10T00:00	5180	531	-16.0	-27.5	342	13	
2025-11-10T00:00	5200	529	-16.2	-28.1	341	13	
2025-11-10T00:00	5220	528	-16.3	-29.4	340	13	
2025-11-10T00:00	5240	527	-16.5	-30.7	340	13	
2025-11-10T00:00	5260	525	-16.7	-31.9	339	14	
2025-11-10T00:00	5280	524	-16.8	-32.1	339	14	
2025-11-10T00:00	5300	523	-17.0	-32.2	338	14	
2025-11-10T00:00	5320	521	-17.1	-33.2	338	14	
2025-11-10T00:00	5340	520	-17.2	-33.3	339	14	
2025-11-10T00:00	5360	518	-17.3	-33.5	340	14	
2025-11-10T00:00	5380	517	-17.4	-33.7	341	14	
2025-11-10T00:00	5400	516	-17.5	-34.1	342	13	
2025-11-10T00:00	5420	514	-17.5	-35.1	344	13	
2025-11-10T00:00	5440	513	-17.6	-35.0	345	13	
2025-11-10T00:00	5460	511	-17.8	-32.3	345	14	
2025-11-10T00:00	5480	510	-17.9	-32.0	345	14	
2025-11-10T00:00	5500	509	-18.0	-35.3	343	14	
2025-11-10T00:00	5520	508	-18.1	-34.3	342	15	
2025-11-10T00:00	5540	506	-18.2	-33.4	340	15	
2025-11-10T00:00	5560	505	-18.4	-33.8	339	15	
2025-11-10T00:00	5580	503	-18.5	-34.8	338	15	
2025-11-10T00:00	5600	502	-18.5	-36.6	338	15	
2025-11-10T00:00	5620	501	-18.6	-35.9	337	15	
2025-11-10T00:00	5640	499	-18.8	-37.7	337	15	
2025-11-10T00:00	5660	498	-18.9	-36.7	338	15	
2025-11-10T00:00	5680	497	-19.0	-36.3	338	15	
2025-11-10T00:00	5700	495	-19.2	-36.1	338	16	
2025-11-10T00:00	5720	494	-19.4	-35.9	338	16	
2025-11-10T00:00	5740	493	-19.6	-36.1	338	16	
2025-11-10T00:00	5760	491	-19.8	-35.9	338	16	
2025-11-10T00:00	5780	490	-20.0	-35.6	337	16	
2025-11-10T00:00	5800	489	-20.2	-35.8	337	16	
2025-11-10T00:00	5820	487	-20.3	-35.7	336	16	
2025-11-10T00:00	5840	486	-20.6	-35.8	336	16	
2025-11-10T00:00	5860	485	-20.8	-35.9	336	16	
2025-11-10T00:00	5880	484	-20.9	-36.0	336	16	
2025-11-10T00:00	5900	482	-21.2	-35.8	336	16	
2025-11-10T00:00	5920	481	-21.4	-35.6	336	16	
2025-11-10T00:00	5940	480	-21.5	-35.6	336	16	
2025-11-10T00:00	5960	478	-21.7	-35.6	335	16	
2025-11-10T00:00	5980	477	-21.9	-35.5	335	16	
2025-11-10T00:00	6000	476	-22.1	-35.3	335	16	
2025-11-10T00:00	6020	474	-22.3	-35.6	335	16	
2025-11-10T00:00	6040	473	-22.5	-35.6	335	15	
2025-11-10T00:00	6060	472	-22.7	-35.7	336	15	
2025-11-10T00:00	6080	470	-22.9	-35.5	338	15	
2025-11-10T00:00	6100	469	-23.1	-35.5	339	15	
2025-11-10T00:00	6120	468	-23.3	-35.2	340	15	
2025-11-10T00:00	6140	467	-23.4	-34.2	341	16	
2025-11-10T00:00	6160	465	-23.5	-34.0	341	16	
2025-11-10T00:00	6180	464	-23.6	-34.7	342	16	
2025-11-10T00:00	6200	463	-23.7	-34.8	342	16	
2025-11-10T00:00	6220	461	-23.9	-34.9	342	16	
2025-11-10T00:00	6240	460	-24.1	-35.0	342	16	
2025-11-10T00:00	6260	459	-24.3	-35.0	343	15	
2025-11-10T00:00	6280	458	-24.5	-35.0	344	15	
2025-11-10T00:00	6300	456	-24.7	-34.8	346	15	
2025-11-10T00:00	6320	455	-24.9	-34.5	347	15	
2025-11-10T00:00	6340	454	-25.0	-34.4	348	15	
2025-11-10T00:00	6360	453	-25.1	-34.0	349	15	
2025-11-10T00:00	6380	451	-25.2	-34.1	349	15	
2025-11-10T00:00	6400	450	-25.3	-35.6	349	15	
2025-11-10T00:00	6420	449	-25.2	-38.6	349	15	
2025-11-10T00:00	6440	448	-25.3	-37.7	348	15	
2025-11-10T00:00	6460	447	-25.5	-38.2	348	15	
2025-11-10T00:00	6480	445	-25.6	-39.5	348	16	
2025-11-10T00:00	6500	444	-25.7	-40.2	348	16	
2025-11-10T00:00	6520	443	-25.9	-42.0	348	16	
2025-11-10T00:00	6540	441	-26.1	-43.7	348	16	
2025-11-10T00:00	6560	440	-26.2	-44.4	348	16	
2025-11-10T00:00	6580	439	-26.3	-46.2	349	16	
2025-11-10T00:00	6600	438	-26.5	-46.2	349	16	
2025-11-10T00:00	6620	437	-26.6	-45.9	350	16	
2025-11-10T00:00	6640	436	-26.8	-45.1	350	16	
2025-11-10T00:00	6660	434	-26.9	-44.9	350	17	
2025-11-10T00:00	6680	433	-27.1	-45.5	350	17	
2025-11-10T00:00	6700	432	-27.2	-45.8	349	17	
2025-11-10T00:00	6720	431	-27.3	-46.7	348	18	
2025-11-10T00:00	6740	430	-27.4	-47.1	348	18	
2025-11-10T00:00	6760	428	-27.6	-47.0	347	18	
2025-11-10T00:00	6780	427	-27.7	-46.8	346	18	
2025-11-10T00:00	6800	426	-27.9	-47.2	345	17	
2025-11-10T00:00	6820	425	-28.0	-47.2	344	17	
2025-11-10T00:00	6840	424	-28.1	-47.5	342	17	
2025-11-10T00:00	6860	423	-28.3	-47.8	340	17	
2025-11-10T00:00	6880	421	-28.4	-47.3	338	17	
2025-11-10T00:00	6900	420	-28.6	-46.8	337	17	
2025-11-10T00:00	6920	419	-28.7	-46.0	336	18	
2025-11-10T00:00	6940	418	-28.9	-45.6	335	19	
2025-11-10T00:00	6960	417	-29.0	-45.3	335	19	
2025-11-10T00:00	6980	415	-29.1	-45.5	335	20	
2025-11-10T00:00	7000	414	-29.3	-46.1	334	20	
2025-11-10T00:00	7020	413	-29.5	-47.8	334	20	
2025-11-10T00:00	7040	412	-29.6	-48.6	334	20	
2025-11-10T00:00	7060	411	-29.8	-49.1	334	20	
2025-11-10T00:00	7080	410	-30.0	-50.1	334	21	
2025-11-10T00:00	7100	408	-30.1	-51.1	334	21	
2025-11-10T00:00	7120	407	-30.2	-51.5	334	21	
2025-11-10T00:00	7140	406	-30.4	-51.3	334	20	
2025-11-10T00:00	7160	405	-30.6	-51.5	334	20	
2025-11-10T00:00	7180	404	-30.7	-51.6	335	20	
2025-11-10T00:00	7200	403	-30.9	-51.6	336	20	
2025-11-10T00:00	7220	402	-31.0	-52.1	337	20	
2025-11-10T00:00	7240	400	-31.2	-52.6	339	20	
2025-11-10T00:00	7260	399	-31.4	-52.9	340	20	
2025-11-10T00:00	7280	398	-31.5	-53.2	341	21	
2025-11-10T00:00	7300	397	-31.7	-53.2	341	21	
2025-11-10T00:00	7320	396	-31.9	-53.2	341	21	
2025-11-10T00:00	7340	395	-32.0	-53.4	340	21	
2025-11-10T00:00	7360	394	-32.2	-53.5	340	22	
2025-11-10T00:00	7380	393	-32.4	-53.3	338	22	
2025-11-10T00:00	7400	392	-32.5	-53.3	337	22	
2025-11-10T00:00	7420	390	-32.7	-53.4	337	22	
2025-11-10T00:00	7440	389	-32.9	-53.5	337	23	
2025-11-10T00:00	7460	388	-33.0	-53.5	337	23	
2025-11-10T00:00	7480	387	-33.2	-53.5	338	23	
2025-11-10T00:00	7500	386	-33.3	-53.5	338	23	
2025-11-10T00:00	7520	385	-33.5	-53.6	338	23	
2025-11-10T00:00	7540	384	-33.7	-53.4	338	23	
2025-11-10T00:00	7560	383	-33.9	-53.2	337	23	
2025-11-10T00:00	7580	382	-34.1	-53.2	337	23	
2025-11-10T00:00	7600	381	-34.3	-53.5	337	23	
2025-11-10T00:00	7620	379	-34.5	-53.6	337	23	
2025-11-10T00:00	7640	378	-34.7	-53.6	338	23	
2025-11-10T00:00	7660	377	-34.9	-53.4	338	23	
2025-11-10T00:00	7680	376	-35.1	-53.4	338	23	
2025-11-10T00:00	7700	375	-35.3	-53.5	338	23	
2025-11-10T00:00	7720	374	-35.5	-53.5	338	23	
2025-11-10T00:00	7740	373	-35.7	-53.4	338	24	
2025-11-10T00:00	7760	372	-35.9	-53.5	338	24	
2025-11-10T00:00	7780	371	-36.1	-53.6	338	24	
2025-11-10T00:00	7800	370	-36.2	-53.5	339	24	
2025-11-10T00:00	7820	369	-36.4	-53.6	340	24	
2025-11-10T00:00	7840	368	-36.6	-54.0	340	23	
2025-11-10T00:00	7860	367	-36.8	-53.8	341	23	
2025-11-10T00:00	7880	366	-37.0	-53.7	341	23	
2025-11-10T00:00	7900	365	-37.2	-53.7	342	23	
2025-11-10T00:00	7920	363	-37.4	-54.2	342	24	
2025-11-10T00:00	7940	362	-37.5	-54.5	342	24	
2025-11-10T00:00	7960	361	-37.7	-54.5	342	24	
2025-11-10T00:00	7980	360	-37.9	-54.0	342	24	
2025-11-10T00:00	8000	359	-38.1	-53.8	342	24	
2025-11-10T00:00	8020	358	-38.3	-53.1	342	24	
2025-11-10T00:00	8040	357	-38.5	-53.2	342	24	
2025-11-10T00:00	8060	356	-38.6	-52.8	342	24	
2025-11-10T00:00	8080	355	-38.8	-52.8	342	24	
2025-11-10T00:00	8100	354	-39.0	-52.9	342	24	
2025-11-10T00:00	8120	353	-39.2	-52.9	341	24	
2025-11-10T00:00	8140	352	-39.3	-52.8	341	24	
2025-11-10T00:00	8160	351	-39.5	-52.9	341	23	
2025-11-10T00:00	8180	350	-39.7	-53.0	341	23	
2025-11-10T00:00	8200	349	-39.9	-53.0	341	23	
2025-11-10T00:00	8220	348	-40.1	-53.1	341	23	
2025-11-10T00:00	8240	347	-40.3	-53.3	341	23	
2025-11-10T00:00	8260	346	-40.5	-53.1	341	23	
2025-11-10T00:00	8280	345	-40.7	-53.2	340	23	
2025-11-10T00:00	8300	344	-40.9	-54.2	340	23	
2025-11-10T00:00	8320	343	-41.0	-55.0	340	23	
2025-11-10T00:00	8340	342	-41.2	-55.6	339	23	
2025-11-10T00:00	8360	341	-41.3	-55.5	339	23	
2025-11-10T00:00	8380	340	-41.5	-54.9	339	23	
2025-11-10T00:00	8400	339	-41.7	-55.0	339	23	
2025-11-10T00:00	8420	338	-41.8	-54.3	339	23	
2025-11-10T00:00	8440	337	-42.0	-54.2	339	23	
2025-11-10T00:00	8460	336	-42.1	-54.6	339	23	
2025-11-10T00:00	8480	335	-42.3	-54.6	339	23	
2025-11-10T00:00	8500	334	-42.5	-55.0	339	22	
2025-11-10T00:00	8520	333	-42.7	-55.8	339	22	
2025-11-10T00:00	8540	332	-42.9	-56.1	339	22	
2025-11-10T00:00	8560	331	-43.1	-56.2	338	22	
2025-11-10T00:00	8580	330	-43.3	-56.3	338	22	
2025-11-10T00:00	8600	329	-43.4	-56.4	338	22	
2025-11-10T00:00	8620	328	-43.6	-56.3	337	22	
2025-11-10T00:00	8640	327	-43.8	-56.2	337	22	
2025-11-10T00:00	8660	326	-44.0	-56.1	337	22	
2025-11-10T00:00	8680	325	-44.2	-56.3	337	23	
2025-11-10T00:00	8700	324	-44.4	-56.2	337	23	
2025-11-10T00:00	8720	323	-44.6	-55.9	337	23	
2025-11-10T00:00	8740	322	-44.8	-56.0	337	22	
2025-11-10T00:00	8760	321	-45.0	-56.2	337	22	
2025-11-10T00:00	8780	320	-45.2	-56.2	337	22	
2025-11-10T00:00	8800	319	-45.4	-56.4	337	22	
2025-11-10T00:00	8820	318	-45.6	-56.5	337	22	
2025-11-10T00:00	8840	317	-45.8	-56.4	338	22	
2025-11-10T00:00	8860	316	-46.0	-56.5	338	22	
2025-11-10T00:00	8880	315	-46.1	-56.8	338	22	
2025-11-10T00:00	8900	315	-46.3	-57.2	339	21	
2025-11-10T00:00	8920	314	-46.5	-57.8	339	21	
2025-11-10T00:00	8940	313	-46.6	-58.6	338	21	
2025-11-10T00:00	8960	312	-46.8	-58.7	338	21	
2025-11-10T00:00	8980	311	-47.0	-58.6	338	21	
2025-11-10T00:00	9000	310	-47.1	-58.7	337	21	
2025-11-10T00:00	9020	309	-47.3	-59.2	337	21	
2025-11-10T00:00	9040	308	-47.4	-59.9	336	21	
2025-11-10T00:00	9060	307	-47.5	-60.1	336	21	
2025-11-10T00:00	9080	306	-47.7	-59.8	335	21	
2025-11-10T00:00	9100	305	-47.9	-59.6	334	21	
2025-11-10T00:00	9120	304	-48.0	-59.6	333	21	
2025-11-10T00:00	9140	303	-48.2	-59.8	332	21	
2025-11-10T00:00	9160	302	-48.4	-59.7	331	22	
2025-11-10T00:00	9180	301	-48.6	-59.5	331	22	
2025-11-10T00:00	9200	301	-48.8	-59.6	330	22	
2025-11-10T00:00	9220	300	-48.9	-59.8	330	23	
2025-11-10T00:00	9240	299	-49.0	-60.1	330	23	
2025-11-10T00:00	9260	298	-49.2	-60.2	330	24	
2025-11-10T00:00	9280	297	-49.4	-59.9	330	24	
2025-11-10T00:00	9300	296	-49.5	-59.7	330	24	
2025-11-10T00:00	9320	295	-49.6	-59.3	330	24	
2025-11-10T00:00	9340	294	-49.7	-59.2	330	23	
2025-11-10T00:00	9360	293	-49.9	-59.3	330	23	
2025-11-10T00:00	9380	292	-50.1	-59.2	330	23	
2025-11-10T00:00	9400	291	-50.3	-59.2	331	23	
2025-11-10T00:00	9420	291	-50.5	-59.3	331	23	
2025-11-10T00:00	9440	290	-50.6	-59.3	331	23	
2025-11-10T00:00	9460	289	-50.8	-59.3	332	23	
2025-11-10T00:00	9480	288	-51.0	-59.4	332	23	
2025-11-10T00:00	9500	287	-51.1	-59.7	332	23	
2025-11-10T00:00	9520	286	-51.2	-60.2	332	22	
2025-11-10T00:00	9540	285	-51.3	-60.5	333	22	
2025-11-10T00:00	9560	284	-51.5	-60.7	333	22	
2025-11-10T00:00	9580	283	-51.6	-60.7	334	22	
2025-11-10T00:00	9600	283	-51.8	-60.8	334	22	
2025-11-10T00:00	9620	282	-51.9	-61.0	335	22	
2025-11-10T00:00	9640	281	-52.0	-61.3	336	22	
2025-11-10T00:00	9660	280	-52.1	-61.7	337	21	
2025-11-10T00:00	9680	279	-52.2	-61.9	338	21	
2025-11-10T00:00	9700	278	-52.4	-62.1	339	21	
2025-11-10T00:00	9720	277	-52.5	-62.4	340	20	
2025-11-10T00:00	9740	277	-52.6	-62.8	341	20	
2025-11-10T00:00	9760	276	-52.6	-63.1	342	19	
2025-11-10T00:00	9780	275	-52.6	-63.5	343	19	
2025-11-10T00:00	9800	274	-52.8	-63.9	343	18	
2025-11-10T00:00	9820	273	-52.9	-64.3	343	18	
2025-11-10T00:00	9840	272	-53.0	-64.9	342	18	
2025-11-10T00:00	9860	271	-53.2	-65.3	341	18	
2025-11-10T00:00	9880	271	-53.3	-65.3	340	18	
2025-11-10T00:00	9900	270	-53.5	-65.3	339	18	
2025-11-10T00:00	9920	269	-53.7	-65.5	338	17	
2025-11-10T00:00	9940	268	-53.7	-65.5	338	17	
2025-11-10T00:00	9960	267	-53.8	-65.5	337	17	
2025-11-10T00:00	9980	266	-54.0	-65.5	337	17	
2025-11-10T00:00	10000	266	-54.2	-65.6	336	17	
2025-11-10T00:00	10018	265	-54.3	-66.0	335	17	
2025-11-10T00:00	10050	264	-54.5	-66.6	332	17	
2025-11-10T00:00	10100	262	-54.8	-66.5	329	17	
2025-11-10T00:00	10150	259	-55.2	-67.5	327	18	
2025-11-10T00:00	10200	257	-55.6	-67.4	327	18	
2025-11-10T00:00	10250	255	-56.0	-66.6	327	18	
2025-11-10T00:00	10300	253	-56.3	-65.6	326	19	
2025-11-10T00:00	10350	251	-56.7	-65.4	326	19	
2025-11-10T00:00	10400	249	-56.6	-65.8	326	19	
2025-11-10T00:00	10450	247	-56.8	-66.4	325	19	
2025-11-10T00:00	10500	246	-57.0	-67.2	323	19	
2025-11-10T00:00	10550	244	-57.0	-68.3	320	19	
2025-11-10T00:00	10600	242	-57.2	-68.9	317	19	
2025-11-10T00:00	10650	240	-57.2	-69.7	317	19	
2025-11-10T00:00	10700	238	-57.2	-69.9	318	19	
2025-11-10T00:00	10750	236	-57.2	-69.9	319	19	
2025-11-10T00:00	10800	234	-57.0	-70.3	319	19	
2025-11-10T00:00	10850	232	-57.1	-70.7	319	19	
2025-11-10T00:00	10900	231	-57.3	-70.7	320	19	
2025-11-10T00:00	10950	229	-57.6	-70.9	321	18	
2025-11-10T00:00	11000	227	-57.9	-71.1	323	17	
2025-11-10T00:00	11050	225	-58.2	-71.3	324	16	
2025-11-10T00:00	11100	223	-58.1	-71.3	323	15	
2025-11-10T00:00	11150	222	-58.0	-71.6	321	15	
2025-11-10T00:00	11200	220	-57.9	-71.6	318	16	
2025-11-10T00:00	11250	218	-58.0	-71.8	315	16	
2025-11-10T00:00	11300	216	-57.8	-72.1	312	15	
2025-11-10T00:00	11350	215	-57.2	-72.2	308	14	
2025-11-10T00:00	11400	213	-57.2	-72.5	304	15	
2025-11-10T00:00	11450	211	-57.2	-72.6	303	14	
2025-11-10T00:00	11500	210	-57.0	-73.1	304	13	
2025-11-10T00:00	11550	208	-57.0	-73.3	305	12	
2025-11-10T00:00	11600	206	-57.4	-73.4	304	11	
2025-11-10T00:00	11650	205	-57.7	-73.4	299	10	
2025-11-10T00:00	11700	203	-57.9	-73.7	295	10	
2025-11-10T00:00	11750	201	-58.1	-73.9	292	10	
2025-11-10T00:00	11800	200	-58.0	-74.4	290	10	
2025-11-10T00:00	11850	198	-58.0	-74.7	287	10	
2025-11-10T00:00	11900	197	-58.3	-75.0	285	11	
2025-11-10T00:00	11950	195	-58.2	-75.4	283	11	
2025-11-10T00:00	12000	194	-58.1	-76.2	282	11	
2025-11-10T00:00	12050	192	-57.5	-76.7	282	11	
2025-11-10T00:00	12100	191	-57.6	-77.2	284	11	
2025-11-10T00:00	12150	189	-57.4	-77.5	284	10	
2025-11-10T00:00	12200	188	-57.0	-77.8	284	10	
2025-11-10T00:00	12250	186	-57.1	-78.2	283	11	
2025-11-10T00:00	12300	185	-57.0	-78.3	284	11	
2025-11-10T00:00	12350	183	-57.1	-78.5	284	11	
2025-11-10T00:00	12400	182	-57.1	-78.8	284	12	
2025-11-10T00:00	12450	180	-57.1	-78.9	283	12	
2025-11-10T00:00	12500	179	-57.3	-78.9	282	13	
2025-11-10T00:00	12550	178	-57.5	-79.0	282	14	
2025-11-10T00:00	12600	176	-57.5	-79.4	282	13	
2025-11-10T00:00	12650	175	-57.1	-79.5	282	12	
2025-11-10T00:00	12700	173	-57.2	-79.7	280	11	
2025-11-10T00:00	12750	172	-57.5	-79.7	278	11	
2025-11-10T00:00	12800	171	-57.9	-79.9	274	10	
2025-11-10T00:00	12850	169	-57.9	-80.2	272	10	
2025-11-10T00:00	12900	168	-56.6	-80.5	272	10	
2025-11-10T00:00	12950	167	-56.2	-80.9	273	9	
2025-11-10T00:00	13000	165	-56.0	-80.8	275	8	
2025-11-10T00:00	13050	164	-56.1	-80.8	276	7	
2025-11-10T00:00	13100	163	-56.3	-80.8	275	6	
2025-11-10T00:00	13150	161	-56.5	-80.9	273	6	
2025-11-10T00:00	13200	160	-56.7	-80.9	272	6	
2025-11-10T00:00	13250	159	-57.0	-81.1	272	6	
2025-11-10T00:00	13300	158	-57.4	-81.2	272	7	
2025-11-10T00:00	13350	156	-57.8	-81.2	270	7	
2025-11-10T00:00	13400	155	-58.2	-81.4	266	7	
2025-11-10T00:00	13450	154	-58.5	-81.5	262	7	
2025-11-10T00:00	13500	153	-58.8	-81.6	262	7	
2025-11-10T00:00	13550	152	-58.8	-81.9	267	7	
2025-11-10T00:00	13600	150	-58.5	-82.1	273	8	
2025-11-10T00:00	13650	149	-58.3	-82.2	274	8	
2025-11-10T00:00	13700	148	-58.7	-82.3	270	8	
2025-11-10T00:00	13750	147	-58.9	-82.6	260	8	
2025-11-10T00:00	13800	146	-58.7	-82.7	254	9	
2025-11-10T00:00	13850	144	-58.1	-82.6	255	10	
2025-11-10T00:00	13900	143	-58.0	-82.8	257	10	
2025-11-10T00:00	13950	142	-57.9	-82.8	256	10	
2025-11-10T00:00	14000	141	-58.1	-82.9	257	10	
2025-11-10T00:00	14050	140	-58.3	-82.9	259	10	
2025-11-10T00:00	14100	139	-58.6	-82.9	261	10	
2025-11-10T00:00	14150	138	-58.9	-82.9	263	10	
2025-11-10T00:00	14200	137	-59.1	-83.1	265	10	
2025-11-10T00:00	14250	135	-59.4	-83.2	268	9	
2025-11-10T00:00	14300	134	-59.8	-83.4	271	9	
2025-11-10T00:00	14350	133	-60.2	-83.6	273	9	
2025-11-10T00:00	14400	132	-60.5	-83.7	275	9	
2025-11-10T00:00	14450	131	-60.6	-83.7	275	9	
2025-11-10T00:00	14500	130	-60.7	-83.7	273	9	
2025-11-10T00:00	14550	129	-60.7	-83.8	271	9	
2025-11-10T00:00	14600	128	-60.6	-83.8	273	9	
2025-11-10T00:00	14650	127	-60.7	-83.7	274	9	
2025-11-10T00:00	14700	126	-61.1	-83.8	272	10	
2025-11-10T00:00	14750	125	-61.3	-83.8	268	9	
2025-11-10T00:00	14800	124	-61.7	-83.8	263	9	
2025-11-10T00:00	14850	123	-62.0	-83.9	260	9	
2025-11-10T00:00	14900	122	-62.0	-84.0	261	9	
2025-11-10T00:00	14950	121	-61.8	-84.1	261	9	
2025-11-10T00:00	15000	120	-61.1	-84.1	258	9	
2025-11-10T00:00	15050	119	-60.9	-84.2	254	9	
2025-11-10T00:00	15100	118	-60.9	-84.2	251	8	
2025-11-10T00:00	15150	117	-61.0	-84.2	250	8	
2025-11-10T00:00	15200	116	-61.1	-84.2	251	8	
2025-11-10T00:00	15250	115	-61.1	-84.3	253	8	
2025-11-10T00:00	15300	114	-61.1	-84.3	256	8	
2025-11-10T00:00	15350	113	-61.3	-84.3	259	7	
2025-11-10T00:00	15400	113	-61.6	-84.4	259	7	
2025-11-10T00:00	15450	112	-61.8	-84.5	255	7	
2025-11-10T00:00	15500	111	-61.9	-84.6	246	6	
2025-11-10T00:00	15550	110	-61.6	-84.6	233	6	
2025-11-10T00:00	15600	109	-61.3	-84.7	226	6	
2025-11-10T00:00	15650	108	-61.4	-84.9	227	7	
2025-11-10T00:00	15700	107	-60.7	-84.9	224	7	
2025-11-10T00:00	15750	106	-59.9	-84.8	219	7	
2025-11-10T00:00	15800	106	-60.1	-84.7	217	8	
2025-11-10T00:00	15850	105	-60.4	-84.6	218	10	
2025-11-10T00:00	15900	104	-60.7	-84.7	221	11	
2025-11-10T00:00	15950	103	-61.0	-84.7	225	11	
2025-11-10T00:00	16000	102	-61.1	-84.7	230	12	
2025-11-10T00:00	16050	101	-61.2	-84.9	235	12	
2025-11-10T00:00	16100	101	-61.3	-84.9	239	12	
2025-11-10T00:00	16150	100	-61.3	-85.0	243	13	
2025-11-10T00:00	16200	99	-61.3	-85.2	248	13	
2025-11-10T00:00	16250	98	-61.0	-85.2	251	14	
2025-11-10T00:00	16300	97	-60.8	-85.2	253	14	
2025-11-10T00:00	16350	97	-60.5	-85.1	255	13	
2025-11-10T00:00	16400	96	-60.4	-85.1	259	12	
2025-11-10T00:00	16450	95	-60.5	-85.1	262	11	
2025-11-10T00:00	16500	94	-60.7	-85.0	262	10	
2025-11-10T00:00	16550	94	-61.0	-85.1	260	9	
2025-11-10T00:00	16600	93	-61.2	-85.1	257	9	
2025-11-10T00:00	16650	92	-61.5	-85.2	252	8	
2025-11-10T00:00	16700	91	-61.6	-85.3	248	8	
2025-11-10T00:00	16750	91	-61.9	-85.5	244	9	
2025-11-10T00:00	16800	90	-61.7	-85.6	239	10	
2025-11-10T00:00	16850	89	-61.4	-85.6	236	11	
2025-11-10T00:00	16900	88	-61.2	-85.6	237	12	
2025-11-10T00:00	16950	88	-61.3	-85.5	238	13	
2025-11-10T00:00	17000	87	-61.5	-85.5	242	13	
2025-11-10T00:00	17050	86	-61.5	-85.5	246	13	
2025-11-10T00:00	17100	86	-61.6	-85.7	249	13	
2025-11-10T00:00	17150	85	-61.7	-85.9	252	12	
2025-11-10T00:00	17200	84	-61.6	-86.0	253	11	
2025-11-10T00:00	17250	84	-61.3	-85.9	251	11	
2025-11-10T00:00	17300	83	-61.4	-86.0	250	11	
2025-11-10T00:00	17350	82	-61.3	-86.0	250	11	
2025-11-10T00:00	17400	82	-61.4	-86.0	249	11	
2025-11-10T00:00	17450	81	-61.2	-85.9	249	10	
2025-11-10T00:00	17500	80	-61.3	-86.0	252	11	
2025-11-10T00:00	17550	80	-61.2	-85.9	254	11	
2025-11-10T00:00	17600	79	-61.2	-86.0	256	11	
2025-11-10T00:00	17650	78	-61.3	-86.2	258	10	
2025-11-10T00:00	17700	78	-61.2	-86.2	260	8	
2025-11-10T00:00	17750	77	-61.1	-86.2	263	7	
2025-11-10T00:00	17800	76	-61.2	-86.1	266	8	
2025-11-10T00:00	17850	76	-61.4	-86.2	268	8	
2025-11-10T00:00	17900	75	-61.6	-86.3	269	7	
2025-11-10T00:00	17950	75	-61.4	-86.2	269	7	
2025-11-10T00:00	18000	74	-61.8	-86.3	265	6	
2025-11-10T00:00	18050	73	-62.2	-86.4	263	6	
2025-11-10T00:00	18100	73	-62.5	-86.6	267	6	
2025-11-10T00:00	18150	72	-62.4	-86.8	266	6	
2025-11-10T00:00	18200	72	-61.4	-86.6	257	7	
2025-11-10T00:00	18250	71	-61.3	-86.6	250	8	
2025-11-10T00:00	18300	71	-61.6	-86.5	246	8	
2025-11-10T00:00	18350	70	-61.9	-86.5	242	9	
2025-11-10T00:00	18400	69	-62.1	-86.6	243	10	
2025-11-10T00:00	18450	69	-62.2	-86.7	246	10	
2025-11-10T00:00	18500	68	-62.3	-86.8	248	10	
2025-11-10T00:00	18550	68	-62.3	-86.9	245	9	
2025-11-10T00:00	18600	67	-62.1	-86.8	239	9	
2025-11-10T00:00	18650	67	-62.2	-86.9	235	9	
2025-11-10T00:00	18700	66	-62.2	-86.9	237	9	
2025-11-10T00:00	18750	66	-62.1	-86.9	241	10	
2025-11-10T00:00	18800	65	-62.3	-87.0	244	10	
2025-11-10T00:00	18850	65	-62.4	-87.1	247	11	
2025-11-10T00:00	18900	64	-62.1	-86.9	250	10	
2025-11-10T00:00	18950	64	-62.5	-87.0	254	10	
2025-11-10T00:00	19000	63	-62.8	-87.1	258	9	
2025-11-10T00:00	19050	62	-62.9	-87.1	264	7	
2025-11-10T00:00	19100	62	-63.0	-87.2	268	6	
2025-11-10T00:00	19150	61	-63.1	-87.3	269	5	
2025-11-10T00:00	19200	61	-63.3	-87.5	265	5	
2025-11-10T00:00	19250	60	-63.1	-87.4	257	5	
2025-11-10T00:00	19300	60	-63.1	-87.5	247	6	
2025-11-10T00:00	19350	59	-63.1	-87.5	241	7	
2025-11-10T00:00	19400	59	-63.1	-87.4	239	8	
2025-11-10T00:00	19450	59	-63.4	-87.5	240	10	
2025-11-10T00:00	19500	58	-63.5	-87.5	242	10	
2025-11-10T00:00	19550	58	-63.7	-87.6	244	11	
2025-11-10T00:00	19600	57	-63.9	-87.7	246	12	
2025-11-10T00:00	19650	57	-63.8	-87.6	249	12	
2025-11-10T00:00	19700	56	-64.0	-87.8	251	12	
2025-11-10T00:00	19750	56	-64.0	-88.0	251	11	
2025-11-10T00:00	19800	55	-63.7	-87.9	250	12	
2025-11-10T00:00	19850	55	-63.8	-88.0	250	12	
2025-11-10T00:00	19900	54	-63.4	-87.9	249	13	
2025-11-10T00:00	19950	54	-63.4	-88.0	249	14	
2025-11-10T00:00	20000	54	-63.3	-87.8	248	14	
2025-11-10T00:00	20050	53	-63.4		248	14	
2025-11-10T00:00	20100	53	-63.5		248	14	
2025-11-10T00:00	20150	52	-63.5		249	14	
2025-11-10T00:00	20200	52	-63.4		254	14	
2025-11-10T00:00	20250	51	-63.7		259	13	
2025-11-10T00:00	20300	51	-63.9		262	12	
2025-11-10T00:00	20350	51	-63.5		264	12	
2025-11-10T00:00	20400	50	-63.5		265	12	
2025-11-10T00:00	20450	50	-63.4		266	13	
2025-11-10T00:00	20500	49	-63.2		265	14	
2025-11-10T00:00	20550	49	-63.4		263	15	
2025-11-10T00:00	20600	49	-63.7		262	15	
2025-11-10T00:00	20650	48	-63.9		262	16	
2025-11-10T00:00	20700	48	-63.8		264	15	
2025-11-10T00:00	20750	47	-63.9		263	14	
2025-11-10T00:00	20800	47	-64.1		257	14	
2025-11-10T00:00	20850	47	-64.3		251	13	
2025-11-10T00:00	20900	46	-64.2		248	13	
2025-11-10T00:00	20950	46	-64.5		250	13	
2025-11-10T00:00	21000	45	-64.3		256	13	
2025-11-10T00:00	21050	45	-63.5		262	13	
2025-11-10T00:00	21100	45	-63.7		265	14	
2025-11-10T00:00	21150	44	-63.9		266	14	
2025-11-10T00:00	21200	44	-63.6		268	14	
2025-11-10T00:00	21250	44	-63.5		268	14	
2025-11-10T00:00	21300	43	-63.5		268	14	
2025-11-10T00:00	21350	43	-63.8		268	14	
2025-11-10T00:00	21400	43	-63.9		266	13	
2025-11-10T00:00	21450	42	-63.9		262	13	
2025-11-10T00:00	21500	42	-63.8		259	14	
2025-11-10T00:00	21550	42	-63.4		260	14	
2025-11-10T00:00	21600	41	-63.3		262	15	
2025-11-10T00:00	21650	41	-63.5		265	15	
2025-11-10T00:00	21700	41	-63.7		269	16	
2025-11-10T00:00	21750	40	-63.9		273	16	
2025-11-10T00:00	21800	40	-63.9		279	17	
2025-11-10T00:00	21850	40	-64.0		283	17	
2025-11-10T00:00	21900	39	-64.2		287	17	
2025-11-10T00:00	21950	39	-64.2		289	17	
2025-11-10T00:00	22000	39	-64.6		291	16	
2025-11-10T00:00	22050	38	-64.8		292	15	
2025-11-10T00:00	22100	38	-65.0		290	13	
2025-11-10T00:00	22150	38	-65.2		286	11	
2025-11-10T00:00	22200	37	-65.4		280	10	
2025-11-10T00:00	22250	37	-65.4		271	9	
2025-11-10T00:00	22300	37	-65.2		261	9	
2025-11-10T00:00	22350	36	-65.3		252	9	
2025-11-10T00:00	22400	36	-65.2		244	10	
2025-11-10T00:00	22450	36	-65.2		239	12	
2025-11-10T00:00	22500	36	-65.2		239	13	
2025-11-10T00:00	22550	35	-65.2		242	14	
2025-11-10T00:00	22600	35	-65.3		248	15	
2025-11-10T00:00	22650	35	-64.9		253	15	
2025-11-10T00:00	22700	34	-64.9		257	15	
2025-11-10T00:00	22750	34	-65.1		261	15	
2025-11-10T00:00	22800	34	-64.9		263	15	
2025-11-10T00:00	22850	34	-64.7		264	16	
2025-11-10T00:00	22900	33	-64.4		264	17	
2025-11-10T00:00	22950	33	-64.1		265	16	
2025-11-10T00:00	23000	33	-64.3		266	16	
2025-11-10T00:00	23050	33	-64.4		268	15	
2025-11-10T00:00	23100	32	-64.4		269	16	
2025-11-10T00:00	23150	32	-64.5		267	17	
2025-11-10T00:00	23200	32	-64.5		266	18	
2025-11-10T00:00	23250	31	-64.4		267	20	
2025-11-10T00:00	23300	31	-64.4		269	21	
2025-11-10T00:00	23350	31	-64.4		272	21	
2025-11-10T00:00	23400	31	-64.1		277	20	
2025-11-10T00:00	23450	30	-63.7		280	19	
2025-11-10T00:00	23500	30	-63.7		281	18	
2025-11-10T00:00	23550	30	-63.8		281	16	
2025-11-10T00:00	23600	30	-64.0		280	15	
2025-11-10T00:00	23650	29	-64.3		279	15	
2025-11-10T00:00	23700	29	-64.5		277	15	
2025-11-10T00:00	23750	29	-64.5		275	15	
2025-11-10T00:00	23800	29	-64.8		274	16	
2025-11-10T00:00	23850	29	-64.9		273	16	
2025-11-10T00:00	23900	28	-65.0		273	16	
2025-11-10T00:00	23950	28	-65.0		274	15	
2025-11-10T00:00	24000	28	-65.2		275	15	
2025-11-10T00:00	24050	28	-65.5		276	15	
2025-11-10T00:00	24100	27	-65.5		277	15	
2025-11-10T00:00	24150	27	-65.6		276	16	
2025-11-10T00:00	24200	27	-66.0		275	16	
2025-11-10T00:00	24250	27	-65.9		274	17	
2025-11-10T00:00	24300	26	-65.8		274	17	
2025-11-10T00:00	24350	26	-65.8		276	17	
2025-11-10T00:00	24400	26	-65.8		276	18	
2025-11-10T00:00	24450	26	-65.8		276	18	
2025-11-10T00:00	24500	26	-66.1		275	17	
2025-11-10T00:00	24550	25	-66.3		273	17	
2025-11-10T00:00	24600	25	-66.3		271	17	
2025-11-10T00:00	24650	25	-66.3		268	18	
2025-11-10T00:00	24700	25	-66.1		264	18	
2025-11-10T00:00	24750	25	-65.5		261	19	
2025-11-10T00:00	24800	24	-65.0		259	20	
2025-11-10T00:00	24850	24	-65.0		257	22	
2025-11-10T00:00	24900	24	-64.8		256	22	
2025-11-10T00:00	24950	24	-64.7		254	23	
2025-11-10T00:00	25000	24	-64.9		253	23	
2025-11-10T00:00	25050	23	-64.9		254	23	
2025-11-10T00:00	25100	23	-64.9		255	24	
2025-11-10T00:00	25150	23	-64.9		257	24	
2025-11-10T00:00	25200	23	-64.9		260	24	
2025-11-10T00:00	25250	23	-64.8		262	24	
2025-11-10T00:00	25300	22	-64.9		265	24	
2025-11-10T00:00	25350	22	-64.8		267	25	
2025-11-10T00:00	25400	22	-64.9		268	25	
2025-11-10T00:00	25450	22	-64.7		269	25	
2025-11-10T00:00	25500	22	-64.5		269	25	
2025-11-10T00:00	25550	22	-64.3		269	25	
2025-11-10T00:00	25600	21	-64.3		269	25	
2025-11-10T00:00	25650	21	-64.3		270	25	
2025-11-10T00:00	25700	21	-64.5		272	25	
2025-11-10T00:00	25750	21	-64.7		274	25	
2025-11-10T00:00	25800	21	-64.8		276	25	
2025-11-10T00:00	25850	21	-64.6		277	26	
2025-11-10T00:00	25900	20	-64.4		274	26	
2025-11-10T00:00	25950	20	-64.3		271	27	
2025-11-10T00:00	26000	20	-64.3		268	27	
2025-11-10T00:00	26050	20	-64.4		268	26	
2025-11-10T00:00	26100	20	-64.1		269	26	
2025-11-10T00:00	26150	20	-64.0		270	25	
2025-11-10T00:00	26200	19	-63.8		271	24	
2025-11-10T00:00	26250	19	-63.9		272	24	
2025-11-10T00:00	26300	19	-64.0		273	23	
2025-11-10T00:00	26350	19	-64.1		270	23	
2025-11-10T00:00	26400	19	-63.9		267	23	
2025-11-10T00:00	26450	19	-63.7		264	24	
2025-11-10T00:00	26500	18	-63.6		264	24	
2025-11-10T00:00	26550	18	-63.2		266	23	
2025-11-10T00:00	26600	18	-63.2		269	23	
2025-11-10T00:00	26650	18	-63.3		271	23	
2025-11-10T00:00	26700	18	-63.4		270	24	
2025-11-10T00:00	26750	18	-62.3		267	25	
2025-11-10T00:00	26800	18	-61.9		264	27	
2025-11-10T00:00	26850	17	-61.9		263	28	
2025-11-10T00:00	26900	17	-61.9		264	29	
2025-11-10T00:00	26950	17	-61.7		266	29	
2025-11-10T00:00	27000	17	-61.3		268	29	
2025-11-10T00:00	27050	17	-61.5		269	29	
2025-11-10T00:00	27100	17	-61.9		269	28	
2025-11-10T00:00	27150	17	-62.2		269	27	
2025-11-10T00:00	27200	16	-62.4		269	26	
2025-11-10T00:00	27250	16	-62.6		270	25	
2025-11-10T00:00	27300	16	-62.7		272	25	
2025-11-10T00:00	27350	16	-62.8		273	25	
2025-11-10T00:00	27400	16	-62.7		273	26	
2025-11-10T00:00	27450	16	-62.8		273	26	
2025-11-10T00:00	27500	16	-62.8		273	27	
2025-11-10T00:00	27550	16	-62.8		273	28	
2025-11-10T00:00	27600	15	-63.0		273	29	
2025-11-10T00:00	27650	15	-62.8		273	30	
2025-11-10T00:00	27700	15	-62.3		273	29	
2025-11-10T00:00	27750	15	-62.2		274	28	
2025-11-10T00:00	27800	15	-62.4		276	27	
2025-11-10T00:00	27850	15	-62.6		277	26	
2025-11-10T00:00	27900	15	-62.8		278	25	
2025-11-10T00:00	27950	15	-63.1		277	25	
2025-11-10T00:00	28000	14	-63.1		276	24	
2025-11-10T00:00	28050	14	-62.9		276	25	
2025-11-10T00:00	28100	14	-62.9		275	25	
2025-11-10T00:00	28150	14	-63.0		275	26	
2025-11-10T00:00	28200	14	-63.0		274	26	
2025-11-10T00:00	28250	14	-63.0		273	26	
2025-11-10T00:00	28300	14	-63.2		271	27	
2025-11-10T00:00	28350	14	-63.1		268	28	
2025-11-10T00:00	28400	14	-62.9		266	30	
2025-11-10T00:00	28450	13	-62.5		265	31	
2025-11-10T00:00	28500	13	-62.2		265	32	
2025-11-10T00:00	28550	13	-61.7		265	32	
2025-11-10T00:00	28600	13	-61.5		265	32	
2025-11-10T00:00	28650	13	-61.5		266	31	
2025-11-10T00:00	28700	13	-61.7		267	31	
2025-11-10T00:00	28750	13	-62.1		267	30	
2025-11-10T00:00	28800	13	-62.5		266	29	
2025-11-10T00:00	28850	13	-62.7		265	28	
2025-11-10T00:00	28900	13	-62.8		263	28	
2025-11-10T00:00	28950	12	-63.2		262	28	
2025-11-10T00:00	29000	12	-63.5		260	28	
2025-11-10T00:00	29050	12	-63.2		258	28	
2025-11-10T00:00	29100	12	-63.0		257	30	
2025-11-10T00:00	29150	12	-62.9		256	31	
2025-11-10T00:00	29200	12	-62.4		255	33	
2025-11-10T00:00	29250	12	-62.3		255	35	
2025-11-10T00:00	29300	12	-62.4		255	37	
2025-11-10T00:00	29350	12	-61.7		257	39	
2025-11-10T00:00	29400	12	-61.2		259	41	
2025-11-10T00:00	29450	11	-60.8		261	43	
2025-11-10T00:00	29500	11	-60.4		262	43	
2025-11-10T00:00	29550	11	-60.3		264	43	
2025-11-10T00:00	29600	11	-60.4		265	43	
2025-11-10T00:00	29650	11	-60.6		267	42	
2025-11-10T00:00	29700	11	-60.9		269	42	
2025-11-10T00:00	29750	11	-60.9		269	42	
2025-11-10T00:00	29800	11	-60.8		269	41	
2025-11-10T00:00	29850	11	-60.9		268	40	
2025-11-10T00:00	29900	11	-61.2		268	39	
2025-11-10T00:00	29950	11	-61.5		268	38	
2025-11-10T00:00	30000	10	-61.7		269	37	
2025-11-10T00:00	30050	10	-62.0		269	37	
2025-11-10T00:00	30100	10	-62.2		270	38	
2025-11-10T00:00	30150	10	-62.6		271	38	
2025-11-10T00:00	30200	10	-62.6		271	39	
2025-11-10T00:00	30250	10	-62.4		272	38	
2025-11-10T00:00	30300	10	-62.0		273	38	
2025-11-10T00:00	30350	10	-62.0		273	37	
2025-11-10T00:00	30400	10	-62.3		273	36	
2025-11-10T00:00	30450	10	-62.6		271	36	
2025-11-10T00:00	30500	10	-62.2		270	37	
2025-11-10T00:00	30550	10	-61.7		269	38	
2025-11-10T00:00	30600	10	-61.8		269	40	
2025-11-10T00:00	30650	9	-61.7		269	41	
2025-11-10T00:00	30700	9	-61.1		270	42	
2025-11-10T00:00	30750	9	-60.9		271	42	
2025-11-10T00:00	30800	9	-60.8		272	42	
2025-11-10T00:00	30850	9	-60.8		273	42	
2025-11-10T00:00	30900	9	-61.0		273	41	
2025-11-10T00:00	30950	9	-61.1		273	40	
2025-11-10T00:00	31000	9	-61.0		273	39	
2025-11-10T00:00	31050	9	-61.3		273	38	
2025-11-10T00:00	31100	9	-61.6		272	38	
2025-11-10T00:00	31150	9	-61.5		271	38	
2025-11-10T00:00	31200	9	-61.2		269	39	
2025-11-10T00:00	31250	9	-61.0		268	41	
2025-11-10T00:00	31300	8	-60.9		267	41	
2025-11-10T00:00	31350	8	-60.7		268	41	
2025-11-10T00:00	31400	8	-60.5		269	40	
2025-11-10T00:00	31450	8	-60.8		271	39	
2025-11-10T00:00	31500	8	-61.2		273	39	
2025-11-10T00:00	31550	8	-61.6		274	39	
2025-11-10T00:00	31600	8	-61.8		275	40	
2025-11-10T00:00	31650	8	-61.3		275	41	
2025-11-10T00:00	31700	8	-60.7		275	42	
2025-11-10T00:00	31750	8	-60.3		274	43	
2025-11-10T00:00	31800	8	-60.1		272	44	
2025-11-10T00:00	31850	8	-59.4		270	44	
2025-11-10T00:00	31900	8	-58.7		268	44	
2025-11-10T00:00	31950	8	-58.5		267	45	
2025-11-10T00:00	32000	8	-58.6		265	45	
2025-11-10T00:00	32050	8	-58.6		265	45	
2025-11-10T00:00	32100	7	-58.5		265	45	
2025-11-10T00:00	32150	7	-58.6		266	45	
2025-11-10T00:00	32200	7	-58.7		268	45	
2025-11-10T00:00	32250	7	-58.7		269	46	
2025-11-10T00:00	32300	7	-58.4		270	47	
2025-11-10T00:00	32350	7	-57.7		269	47	
2025-11-10T00:00	32400	7	-57.1		269	47	
2025-11-10T00:00	32450	7	-57.2		268	46	
2025-11-10T00:00	32500	7	-57.5		268	45	
2025-11-10T00:00	32550	7	-57.9		267	45	
2025-11-10T00:00	32600	7	-58.1		266	44	
2025-11-10T00:00	32650	7	-58.1		266	45	
2025-11-10T00:00	32700	7	-57.9		266	47	
2025-11-10T00:00	32750	7	-57.7		266	48	
2025-11-10T00:00	32800	7	-57.7		265	49	
2025-11-10T00:00	32850	7	-57.6		264	50	
2025-11-10T00:00	32900	7	-57.2		263	51	
2025-11-10T00:00	32950	7	-56.6		262	51	
2025-11-10T00:00	33000	6	-56.5		262	52	
2025-11-10T00:00	33050	6	-56.2		263	52	
2025-11-10T00:00	33100	6	-56.2		263	51	
2025-11-10T00:00	33150	6	-56.4		264	51	
2025-11-10T00:00	33200	6	-56.3		264	51	
2025-11-10T00:00	33250	6	-56.2		264	51	
2025-11-10T00:00	33300	6	-56.3		263	51	
2025-11-10T00:00	33350	6	-56.4		263	51	
2025-11-10T00:00	33400	6	-55.7		263	51	
2025-11-10T00:00	33450	6	-55.4		263	51	
2025-11-10T00:00	33500	6	-55.3		263	51	
2025-11-10T00:00	33550	6	-55.2		263	51	
2025-11-10T00:00	33600	6	-55.7		263	50	
2025-11-10T00:00	33650	6	-56.1		263	49	
2025-11-10T00:00	33700	6	-56.5		263	49	
2025-11-10T00:00	33750	6	-56.8		264	49	
2025-11-10T00:00	33800	6	-56.7		264	50	
2025-11-10T00:00	33850	6	-56.0		263	51	
2025-11-10T00:00	33900	6	-55.7		262	51	
2025-11-10T00:00	33950	6	-55.5		261	51	
2025-11-10T00:00	34000	6	-55.3		260	52	
2025-11-10T00:00	34050	5	-54.9		260	53	
2025-11-10T00:00	34100	5	-55.0		261	54	
2025-11-10T00:00	34150	5	-55.1		262	55	
2025-11-10T00:00	34200	5	-55.3		263	56	
2025-11-10T00:00	34250	5	-55.2		264	56	
2025-11-10T00:00	34300	5	-54.5		266	58	
2025-11-10T00:00	34350	5	-54.4		266	59	
2025-11-10T00:00	34400	5	-54.1		267	61	
2025-11-10T00:00	34450	5	-53.6		268	62	
2025-11-10T00:00	34500	5	-53.2		268	64	
2025-11-10T00:00	34550	5	-52.9		268	65	
2025-11-10T00:00	34600	5	-52.2		269	64	
2025-11-10T00:00	34650	5	-51.8		269	64	
2025-11-10T00:00	34700	5	-52.0		269	62	
2025-11-10T00:00	34750	5	-52.4		270	61	
2025-11-10T00:00	34800	5	-52.7		270	61	
2025-11-10T00:00	34850	5	-52.6		271	60	
2025-11-10T00:00	34900	5	-52.4		272	60	
2025-11-10T00:00	34950	5	-52.2		273	61	
2025-11-10T00:00	35000	5	-52.1		273	62	
2025-11-10T00:00	35050	5	-52.0		274	63	
2025-11-10T00:00	35100	5	-52.0		275	64	
2025-11-10T00:00	35150	5	-51.9		275	65	
2025-11-10T00:00	35200	5	-50.9		275	64	
2025-11-10T00:00	35250	5	-50.8		274	63	
2025-11-10T00:00	35300	5	-50.4		271	62	
2025-11-10T00:00	35350	4	-49.8		270	62	
2025-11-10T00:00	35400	4	-49.0		271	63	
2025-11-10T00:00	35450	4	-48.5		272	65	
2025-11-10T00:00	35500	4	-48.1		272	66	
2025-11-10T00:00	35550	4	-48.3		272	67	
2025-11-10T00:00	35600	4	-48.4		272	68	
2025-11-10T00:00	35650	4	-47.9		272	68	
2025-11-10T00:00	35700	4	-47.4		272	68	
2025-11-10T00:00	35750	4	-47.1		271	68	
2025-11-10T12:00	491	959	7.8	6.3	60	1	1.8
2025-11-10T12:00	501	958	7.6	5.8	325	1	1.8
2025-11-10T12:00	520	955	7.4	5.5	312	1	1.8
2025-11-10T12:00	540	953	7.2	5.5	302	0	1.8
2025-11-10T12:00	560	951	7.0	5.4	263	0	1.8
2025-11-10T12:00	580	949	6.8	5.3	168	0	1.8
2025-11-10T12:00	600	946	6.6	5.3	154	1	1.8
2025-11-10T12:00	620	944	6.4	5.4	155	1	1.8
2025-11-10T12:00	640	942	6.3	5.4	163	1	1.8
2025-11-10T12:00	660	939	6.1	5.4	178	1	1.8
2025-11-10T12:00	680	937	6.0	4.8	204	1	1.8
2025-11-10T12:00	700	935	6.0	4.5	228	1	1.8
2025-11-10T12:00	720	932	5.8	4.3	238	1	1.9
2025-11-10T12:00	740	930	5.6	4.1	241	2	2.0
2025-11-10T12:00	760	928	5.6	3.8	241	2	2.1
2025-11-10T12:00	780	926	5.5	3.6	240	2	2.2
2025-11-10T12:00	800	923	5.4	3.5	240	2	2.2
2025-11-10T12:00	820	921	5.2	3.5	240	2	2.3
2025-11-10T12:00	840	919	5.1	3.4	239	2	2.4
2025-11-10T12:00	860	917	4.9	3.2	237	2	2.4
2025-11-10T12:00	880	914	4.8	3.1	234	2	2.5
2025-11-10T12:00	900	912	4.6	3.0	231	3	2.5
2025-11-10T12:00	920	910	4.5	2.8	228	3	2.5
2025-11-10T12:00	940	907	4.3	2.6	226	4	2.5
2025-11-10T12:00	960	905	4.2	2.7	225	5	2.5
2025-11-10T12:00	980	903	4.0	2.6	224	5	2.5
2025-11-10T12:00	1000	901	4.0	1.9	222	5	2.6
2025-11-10T12:00	1020	899	3.9	1.8	220	5	2.6
2025-11-10T12:00	1040	896	3.8	1.1	218	5	2.6
2025-11-10T12:00	1060	894	3.8	0.8	215	5	2.6
2025-11-10T12:00	1080	892	3.7	0.8	214	6	2.6
2025-11-10T12:00	1100	890	3.5	0.7	213	6	2.7
2025-11-10T12:00	1120	888	3.4	0.6	212	7	2.7
2025-11-10T12:00	1140	885	3.3	0.3	212	8	2.7
2025-11-10T12:00	1160	883	3.3	-0.2	211	8	2.7
2025-11-10T12:00	1180	881	3.2	-0.3	211	9	2.7
2025-11-10T12:00	1200	879	3.1	-0.5	210	9	2.8
2025-11-10T12:00	1220	877	3.1	-0.7	210	9	2.8
2025-11-10T12:00	1240	875	3.1	-0.7	210	10	2.8
2025-11-10T12:00	1260	873	3.1	-1.0	209	9	2.9
2025-11-10T12:00	1280	870	3.7	-2.2	209	9	2.9
2025-11-10T12:00	1300	868	4.8	-3.3	208	9	3.0
2025-11-10T12:00	1320	866	6.1	-4.3	207	8	3.1
2025-11-10T12:00	1340	864	6.5	-4.3	208	7	3.2
2025-11-10T12:00	1360	862	6.4	-4.3	208	7	3.2
2025-11-10T12:00	1380	860	6.3	-4.3	211	7	3.3
2025-11-10T12:00	1400	858	6.1	-4.2	216	7	3.4
2025-11-10T12:00	1420	856	6.0	-4.3	222	7	3.5
2025-11-10T12:00	1440	854	5.8	-4.1	228	7	3.5
2025-11-10T12:00	1460	851	5.6	-4.2	233	8	3.5
2025-11-10T12:00	1480	849	5.7	-4.3	236	8	3.5
2025-11-10T12:00	1500	847	6.0	-4.6	239	9	3.6
2025-11-10T12:00	1520	845	6.1	-5.1	241	9	3.6
2025-11-10T12:00	1540	843	6.0	-5.3	242	9	3.7
2025-11-10T12:00	1560	841	6.3	-8.5	244	9	3.7
2025-11-10T12:00	1580	839	6.5	-10.7	247	9	3.7
2025-11-10T12:00	1600	837	6.4	-9.3	248	9	3.7
2025-11-10T12:00	1620	835	6.3	-9.8	250	8	3.8
2025-11-10T12:00	1640	833	6.3	-11.8	250	8	3.8
2025-11-10T12:00	1660	831	6.3	-14.0	251	8	3.8
2025-11-10T12:00	1680	829	6.3	-15.4	251	7	3.8
2025-11-10T12:00	1700	827	6.2	-16.3	250	7	3.8
2025-11-10T12:00	1720	825	6.0	-16.6	250	7	3.8
2025-11-10T12:00	1740	823	5.8	-16.8	251	7	3.8
2025-11-10T12:00	1760	821	5.7	-16.8	251	7	3.8
2025-11-10T12:00	1780	819	5.4	-16.8	252	7	3.8
2025-11-10T12:00	1800	817	5.2	-17.3	251	7	3.8
2025-11-10T12:00	1820	815	5.2	-18.1	251	7	3.8
2025-11-10T12:00	1840	813	5.0	-18.2	250	6	3.8
2025-11-10T12:00	1860	811	4.9	-18.7	247	6	3.7
2025-11-10T12:00	1880	809	4.8	-18.8	245	6	3.7
2025-11-10T12:00	1900	807	4.8	-19.5	243	6	3.7
2025-11-10T12:00	1920	805	4.8	-20.0	242	6	3.6
2025-11-10T12:00	1940	803	4.7	-20.4	241	6	3.6
2025-11-10T12:00	1960	801	4.7	-21.5	241	6	3.6
2025-11-10T12:00	1980	799	4.5	-22.2	240	5	3.6
2025-11-10T12:00	2000	797	4.5	-22.9	240	5	3.6
2025-11-10T12:00	2020	795	4.4	-23.4	239	5	3.6
2025-11-10T12:00	2040	793	4.2	-24.2	240	5	3.6
2025-11-10T12:00	2060	791	4.1	-25.0	242	5	3.6
2025-11-10T12:00	2080	789	3.9	-25.3	243	5	3.6
2025-11-10T12:00	2100	787	3.8	-25.9	244	6	3.6
2025-11-10T12:00	2120	785	3.8	-28.4	243	7	3.6
2025-11-10T12:00	2140	783	4.1	-30.6	241	7	3.7
2025-11-10T12:00	2160	781	4.1	-30.1	239	8	3.7
2025-11-10T12:00	2180	779	4.0	-29.2	237	8	3.8
2025-11-10T12:00	2200	778	4.0	-28.4	235	9	3.8
2025-11-10T12:00	2220	776	3.9	-28.0	233	10	3.9
2025-11-10T12:00	2240	774	3.8	-27.8	232	10	3.9
2025-11-10T12:00	2260	772	3.6	-26.8	231	10	4.0
2025-11-10T12:00	2280	770	3.6	-24.4	232	10	4.0
2025-11-10T12:00	2300	768	3.6	-19.2	233	9	4.1
2025-11-10T12:00	2320	766	3.4	-18.2	234	9	4.1
2025-11-10T12:00	2340	764	3.2	-17.8	235	8	4.1
2025-11-10T12:00	2360	762	3.1	-17.2	235	8	4.1
2025-11-10T12:00	2380	760	2.9	-16.8	235	7	4.1
2025-11-10T12:00	2400	759	2.7	-16.2	233	7	4.1
2025-11-10T12:00	2420	757	2.4	-15.7	231	7	4.1
2025-11-10T12:00	2440	755	2.3	-15.7	228	7	4.1
2025-11-10T12:00	2460	753	2.2	-15.8	226	7	4.1
2025-11-10T12:00	2480	751	1.9	-15.6	223	6	4.1
2025-11-10T12:00	2500	749	1.7	-15.7	221	6	4.1
2025-11-10T12:00	2520	748	1.6	-15.7	218	5	4.1
2025-11-10T12:00	2540	746	1.4	-15.6	218	5	4.1
2025-11-10T12:00	2560	744	1.2	-15.3	219	5	4.1
2025-11-10T12:00	2580	742	1.0	-15.2	221	5	4.1
2025-11-10T12:00	2600	740	0.9	-15.0	224	5	4.0
2025-11-10T12:00	2620	738	0.8	-14.4	230	5	4.0
2025-11-10T12:00	2640	736	0.8	-13.5	236	5	4.0
2025-11-10T12:00	2660	734	0.8	-13.6	243	5	4.0
2025-11-10T12:00	2680	733	0.6	-13.7	250	6	3.9
2025-11-10T12:00	2700	731	0.5	-14.0	256	6	3.9
2025-11-10T12:00	2720	729	0.4	-14.2	260	6	3.8
2025-11-10T12:00	2740	727	0.2	-14.4	261	7	3.8
2025-11-10T12:00	2760	725	0.2	-14.6	260	7	3.8
2025-11-10T12:00	2780	724	0.0	-14.7	259	7	3.8
2025-11-10T12:00	2800	722	-0.1	-14.6	258	7	3.8
2025-11-10T12:00	2820	720	-0.3	-14.1	257	8	3.8
2025-11-10T12:00	2840	718	-0.5	-13.4	256	8	3.8
2025-11-10T12:00	2860	716	-0.7	-11.7	257	8	3.8
2025-11-10T12:00	2880	714	-0.8	-10.7	258	8	3.7
2025-11-10T12:00	2900	713	-0.9	-10.2	259	7	3.7
2025-11-10T12:00	2920	711	-1.0	-10.1	260	7	3.7
2025-11-10T12:00	2940	709	-1.2	-10.3	261	7	3.6
2025-11-10T12:00	2960	707	-1.4	-10.5	261	7	3.6
2025-11-10T12:00	2980	706	-1.5	-10.5	260	6	3.5
2025-11-10T12:00	3000	704	-1.6	-10.6	259	6	3.4
2025-11-10T12:00	3020	702	-1.7	-10.6	258	6	3.4
2025-11-10T12:00	3040	700	-1.8	-10.8	257	6	3.4
2025-11-10T12:00	3060	699	-2.1	-10.8	257	6	3.4
2025-11-10T12:00	3080	697	-2.2	-10.9	257	6	3.4
2025-11-10T12:00	3100	695	-2.3	-11.2	257	6	3.4
2025-11-10T12:00	3120	694	-2.4	-11.3	257	6	3.4
2025-11-10T12:00	3140	692	-2.6	-11.4	256	6	3.4
2025-11-10T12:00	3160	690	-2.8	-11.6	254	5	3.4
2025-11-10T12:00	3180	688	-2.9	-11.9	254	5	3.4
2025-11-10T12:00	3200	686	-2.9	-12.1	254	5	3.3
2025-11-10T12:00	3220	685	-3.0	-12.3	254	6	3.3
2025-11-10T12:00	3240	683	-3.1	-12.1	255	6	3.3
2025-11-10T12:00	3260	681	-3.3	-12.3	255	6	3.3
2025-11-10T12:00	3280	680	-3.4	-12.4	255	6	3.3
2025-11-10T12:00	3300	678	-3.5	-12.4	255	7	3.3
2025-11-10T12:00	3320	676	-3.6	-12.5	253	7	3.3
2025-11-10T12:00	3340	674	-3.8	-12.5	251	7	3.3
2025-11-10T12:00	3360	673	-4.0	-12.6	249	7	3.3
2025-11-10T12:00	3380	671	-4.1	-12.8	247	7	3.2
2025-11-10T12:00	3400	669	-4.2	-12.8	245	7	3.2
2025-11-10T12:00	3420	668	-4.4	-13.0	244	7	3.2
2025-11-10T12:00	3440	666	-4.5	-13.3	245	7	3.3
2025-11-10T12:00	3460	664	-4.7	-13.4	246	7	3.2
2025-11-10T12:00	3480	663	-4.9	-13.5	248	6	3.2
2025-11-10T12:00	3500	661	-4.9	-13.9	250	6	3.2
2025-11-10T12:00	3520	659	-5.0	-14.2	251	6	3.2
2025-11-10T12:00	3540	657	-5.1	-14.5	251	6	3.2
2025-11-10T12:00	3560	656	-5.3	-14.6	252	6	3.2
2025-11-10T12:00	3580	654	-5.5	-14.7	253	6	3.2
2025-11-10T12:00	3600	652	-5.6	-14.9	254	6	3.2
2025-11-10T12:00	3620	651	-5.7	-15.0	258	6	3.1
2025-11-10T12:00	3640	649	-5.8	-15.2	261	6	3.1
2025-11-10T12:00	3660	647	-6.0	-15.3	265	6	3.1
2025-11-10T12:00	3680	646	-6.2	-15.3	268	7	3.1
2025-11-10T12:00	3700	644	-6.3	-15.6	270	7	3.1
2025-11-10T12:00	3720	643	-6.4	-15.9	269	8	3.1
2025-11-10T12:00	3740	641	-6.4	-16.0	268	8	3.1
2025-11-10T12:00	3760	639	-6.5	-16.2	266	8	3.1
2025-11-10T12:00	3780	637	-6.6	-16.5	264	8	3.1
2025-11-10T12:00	3800	636	-6.8	-16.9	263	8	3.1
2025-11-10T12:00	3820	634	-6.9	-16.9	263	8	3.1
2025-11-10T12:00	3840	633	-7.1	-17.0	263	8	3.1
2025-11-10T12:00	3860	631	-7.3	-17.0	263	8	3.1
2025-11-10T12:00	3880	629	-7.5	-17.1	264	7	3.1
2025-11-10T12:00	3900	628	-7.6	-17.1	265	7	3.0
2025-11-10T12:00	3920	626	-7.8	-17.1	267	7	3.0
2025-11-10T12:00	3940	625	-8.0	-17.2	268	7	3.0
2025-11-10T12:00	3960	623	-8.2	-17.4	270	7	3.0
2025-11-10T12:00	3980	621	-8.4	-17.4	272	7	3.0
2025-11-10T12:00	4000	620	-8.4	-17.9	274	7	3.0
2025-11-10T12:00	4020	618	-8.5	-18.7	277	8	3.0
2025-11-10T12:00	4040	617	-8.5	-19.0	279	8	3.0
2025-11-10T12:00	4060	615	-8.7	-19.0	281	8	3.0
2025-11-10T12:00	4080	613	-8.9	-18.9	282	8	3.0
2025-11-10T12:00	4100	612	-9.1	-18.9	283	7	3.0
2025-11-10T12:00	4120	610	-9.3	-18.8	283	7	3.0
2025-11-10T12:00	4140	609	-9.4	-18.9	283	7	3.0
2025-11-10T12:00	4160	607	-9.3	-18.9	284	7	3.0
2025-11-10T12:00	4180	606	-9.4	-18.2	284	6	3.0
2025-11-10T12:00	4200	604	-9.4	-17.9	286	6	2.9
2025-11-10T12:00	4220	602	-9.5	-16.2	289	6	2.9
2025-11-10T12:00	4240	601	-9.7	-15.7	293	6	2.9
2025-11-10T12:00	4260	599	-9.8	-13.0	296	6	2.9
2025-11-10T12:00	4280	598	-9.8	-12.3	297	5	2.9
2025-11-10T12:00	4300	596	-9.9	-12.2	295	5	2.9
2025-11-10T12:00	4320	595	-10.1	-12.1	291	5	2.9
2025-11-10T12:00	4340	593	-10.3	-12.1	288	5	2.9
2025-11-10T12:00	4360	592	-10.4	-12.4	286	5	2.9
2025-11-10T12:00	4380	590	-10.5	-12.4	284	4	2.9
2025-11-10T12:00	4400	589	-10.7	-12.7	283	4	2.8
2025-11-10T12:00	4420	587	-10.8	-12.6	280	4	2.8
2025-11-10T12:00	4440	585	-10.9	-13.0	277	4	2.8
2025-11-10T12:00	4460	584	-11.0	-13.7	275	5	2.8
2025-11-10T12:00	4480	582	-11.2	-15.6	274	5	2.8
2025-11-10T12:00	4500	581	-11.2	-17.3	274	5	2.8
2025-11-10T12:00	4520	579	-11.2	-18.5	274	5	2.8
2025-11-10T12:00	4540	578	-11.2	-20.8	275	5	2.8
2025-11-10T12:00	4560	577	-11.1	-22.6	277	6	2.8
2025-11-10T12:00	4580	575	-11.2	-20.6	280	6	2.8
2025-11-10T12:00	4600	574	-11.3	-18.6	282	6	2.8
2025-11-10T12:00	4620	572	-11.5	-18.1	284	6	2.8
2025-11-10T12:00	4640	570	-11.6	-17.5	285	7	2.8
2025-11-10T12:00	4660	569	-11.8	-18.1	283	7	2.9
2025-11-10T12:00	4680	567	-12.0	-18.8	280	7	2.9
2025-11-10T12:00	4700	566	-12.1	-19.0	278	7	2.8
2025-11-10T12:00	4720	565	-12.2	-19.3	276	7	2.8
2025-11-10T12:00	4740	563	-12.3	-21.0	274	8	2.8
2025-11-10T12:00	4760	561	-12.3	-22.8	271	8	2.8
2025-11-10T12:00	4780	560	-12.4	-20.3	268	8	2.8
2025-11-10T12:00	4800	559	-12.5	-18.7	266	9	2.8
2025-11-10T12:00	4820	557	-12.5	-17.7	265	9	2.8
2025-11-10T12:00	4840	556	-12.6	-18.2	264	9	2.8
2025-11-10T12:00	4860	554	-12.8	-18.5	263	10	2.8
2025-11-10T12:00	4880	553	-13.0	-18.3	263	10	2.8
2025-11-10T12:00	4900	551	-13.2	-17.9	263	10	2.8
2025-11-10T12:00	4920	550	-13.4	-18.1	263	10	2.7
2025-11-10T12:00	4940	548	-13.6	-18.1	262	9	2.7
2025-11-10T12:00	4960	547	-13.7	-18.2	261	9	2.7
2025-11-10T12:00	4980	546	-13.7	-18.3	260	9	2.7
2025-11-10T12:00	5000	544	-13.9	-18.3	260	9	2.7
2025-11-10T12:00	5020	543	-14.2	-18.6	261	8	2.7
2025-11-10T12:00	5040	541	-14.4	-18.9	262	8	2.7
2025-11-10T12:00	5060	540	-14.5	-19.3	261	8	2.6
2025-11-10T12:00	5080	539	-14.7	-19.4	259	7	2.7
2025-11-10T12:00	5100	537	-14.9	-19.5	256	7	2.7
2025-11-10T12:00	5120	536	-14.9	-19.4	255	7	2.6
2025-11-10T12:00	5140	534	-15.1	-19.5	255	7	2.6
2025-11-10T12:00	5160	533	-15.3	-20.1	257	7	2.7
2025-11-10T12:00	5180	531	-15.5	-20.6	260	7	2.6
2025-11-10T12:00	5200	530	-15.6	-20.5	263	7	2.6
2025-11-10T12:00	5220	529	-15.8	-19.8	265	7	2.6
2025-11-10T12:00	5240	527	-15.8	-19.9	267	7	2.6
2025-11-10T12:00	5260	526	-16.0	-19.9	269	7	2.6
2025-11-10T12:00	5280	524	-16.2	-19.9	270	8	2.6
2025-11-10T12:00	5300	523	-16.4	-20.0	272	8	2.6
2025-11-10T12:00	5320	521	-16.6	-20.2	274	8	2.6
2025-11-10T12:00	5340	520	-16.7	-20.4	275	8	2.6
2025-11-10T12:00	5360	519	-16.8	-20.5	275	8	2.6
2025-11-10T12:00	5380	517	-17.0	-20.8	276	8	2.5
2025-11-10T12:00	5400	516	-17.0	-21.2	276	8	2.5
2025-11-10T12:00	5420	515	-17.2	-21.4	277	8	2.5
2025-11-10T12:00	5440	513	-17.3	-21.5	278	8	2.5
2025-11-10T12:00	5460	512	-17.5	-21.4	279	8	2.6
2025-11-10T12:00	5480	510	-17.8	-21.5	280	8	2.5
2025-11-10T12:00	5500	509	-18.0	-21.7	280	8	2.5
2025-11-10T12:00	5520	508	-18.1	-21.8	281	8	2.5
2025-11-10T12:00	5540	507	-18.4	-21.7	281	8	2.5
2025-11-10T12:00	5560	505	-18.5	-21.6	281	7	2.5
2025-11-10T12:00	5580	504	-18.7	-21.9	280	7	2.5
2025-11-10T12:00	5600	503	-18.9	-22.2	280	7	2.5
2025-11-10T12:00	5620	501	-19.1	-22.3	280	7	2.5
2025-11-10T12:00	5640	500	-19.2	-22.3	280	7	2.5
2025-11-10T12:00	5660	499	-19.4	-22.1	280	7	2.5
2025-11-10T12:00	5680	497	-19.6	-22.3	280	7	2.5
2025-11-10T12:00	5700	496	-19.7	-22.5	281	7	2.5
2025-11-10T12:00	5720	494	-19.9	-22.6	281	7	2.5
2025-11-10T12:00	5740	493	-20.0	-22.6	281	7	2.5
2025-11-10T12:00	5760	492	-20.2	-22.9	282	7	2.5
2025-11-10T12:00	5780	490	-20.4	-23.2	282	7	2.4
2025-11-10T12:00	5800	489	-20.6	-23.3	283	7	2.4
2025-11-10T12:00	5820	488	-20.7	-23.7	284	7	2.4
2025-11-10T12:00	5840	486	-20.7	-24.1	284	7	2.4
2025-11-10T12:00	5860	485	-20.9	-24.1	285	7	2.4
2025-11-10T12:00	5880	484	-21.0	-24.2	284	7	2.4
2025-11-10T12:00	5900	483	-21.3	-24.3	282	7	2.4
2025-11-10T12:00	5920	481	-21.5	-24.4	280	7	2.5
2025-11-10T12:00	5940	480	-21.5	-25.2	278	7	2.4
2025-11-10T12:00	5960	479	-21.6	-26.1	276	7	2.4
2025-11-10T12:00	5980	477	-21.7	-26.3	274	8	2.4
2025-11-10T12:00	6000	476	-22.0	-26.4	273	8	2.4
2025-11-10T12:00	6020	475	-22.2	-25.6	271	8	2.5
2025-11-10T12:00	6040	473	-22.3	-25.0	270	8	2.4
2025-11-10T12:00	6060	472	-22.4	-25.0	269	8	2.4
2025-11-10T12:00	6080	471	-22.6	-26.2	268	8	2.4
2025-11-10T12:00	6100	470	-22.7	-27.3	265	8	2.4
2025-11-10T12:00	6120	468	-22.7	-26.5	263	8	2.4
2025-11-10T12:00	6140	467	-22.9	-25.5	260	8	2.4
2025-11-10T12:00	6160	466	-23.2	-25.5	258	8	2.4
2025-11-10T12:00	6180	465	-23.3	-26.9	256	8	2.4
2025-11-10T12:00	6200	463	-23.4	-26.7	254	8	2.4
2025-11-10T12:00	6220	462	-23.5	-26.4	253	8	2.4
2025-11-10T12:00	6240	461	-23.7	-26.7	253	8	2.4
2025-11-10T12:00	6260	459	-23.9	-26.6	253	8	2.3
2025-11-10T12:00	6280	458	-24.0	-26.8	253	8	2.3
2025-11-10T12:00	6300	457	-24.2	-26.2	254	8	2.3
2025-11-10T12:00	6320	456	-24.4	-26.1	254	7	2.3
2025-11-10T12:00	6340	454	-24.4	-26.4	254	7	2.3
2025-11-10T12:00	6360	453	-24.6	-26.6	254	7	2.3
2025-11-10T12:00	6380	452	-24.8	-26.6	254	7	2.3
2025-11-10T12:00	6400	451	-25.1	-26.8	254	7	2.3
2025-11-10T12:00	6420	449	-25.2	-27.2	254	7	2.2
2025-11-10T12:00	6440	448	-25.3	-27.6	254	7	2.2
2025-11-10T12:00	6460	447	-25.4	-28.1	255	7	2.2
2025-11-10T12:00	6480	446	-25.5	-28.1	257	7	2.2
2025-11-10T12:00	6500	445	-25.7	-28.3	258	8	2.2
2025-11-10T12:00	6520	443	-25.9	-28.6	260	8	2.2
2025-11-10T12:00	6540	442	-26.0	-28.7	261	8	2.2
2025-11-10T12:00	6560	441	-26.2	-29.3	262	8	2.2
2025-11-10T12:00	6580	440	-26.3	-29.7	262	8	2.2
2025-11-10T12:00	6600	438	-26.5	-29.5	260	8	2.2
2025-11-10T12:00	6620	437	-26.6	-29.7	258	8	2.2
2025-11-10T12:00	6640	436	-26.8	-29.9	255	9	2.2
2025-11-10T12:00	6660	435	-27.1	-29.8	252	9	2.2
2025-11-10T12:00	6680	434	-27.2	-30.2	249	9	2.1
2025-11-10T12:00	6700	432	-27.3	-30.6	246	9	2.2
2025-11-10T12:00	6720	431	-27.4	-30.8	246	9	2.2
2025-11-10T12:00	6740	430	-27.5	-30.7	246	9	2.2
2025-11-10T12:00	6760	429	-27.7	-30.6	247	9	2.1
2025-11-10T12:00	6780	428	-27.9	-30.2	249	8	2.1
2025-11-10T12:00	6800	427	-28.0	-30.2	250	8	2.1
2025-11-10T12:00	6820	425	-28.2	-30.5	251	8	2.1
2025-11-10T12:00	6840	424	-28.4	-30.7	251	8	2.1
2025-11-10T12:00	6860	423	-28.5	-30.5	250	8	2.1
2025-11-10T12:00	6880	422	-28.7	-30.5	250	8	2.1
2025-11-10T12:00	6900	420	-28.9	-30.9	249	8	2.1
2025-11-10T12:00	6920	419	-29.1	-31.1	250	8	2.1
2025-11-10T12:00	6940	418	-29.3	-31.3	250	8	2.1
2025-11-10T12:00	6960	417	-29.5	-31.3	252	8	2.1
2025-11-10T12:00	6980	416	-29.6	-31.3	252	8	2.1
2025-11-10T12:00	7000	415	-29.9	-31.4	253	8	2.0
2025-11-10T12:00	7020	413	-30.0	-31.6	254	9	2.0
2025-11-10T12:00	7040	412	-30.1	-31.8	253	9	2.1
2025-11-10T12:00	7060	411	-30.3	-32.1	252	8	2.0
2025-11-10T12:00	7080	410	-30.5	-32.4	251	8	2.0
2025-11-10T12:00	7100	409	-30.6	-32.8	251	8	2.0
2025-11-10T12:00	7120	408	-30.8	-32.9	251	8	2.0
2025-11-10T12:00	7140	406	-31.0	-33.3	252	8	2.0
2025-11-10T12:00	7160	405	-31.2	-34.1	253	8	2.0
2025-11-10T12:00	7180	404	-31.2	-34.0	255	8	2.0
2025-11-10T12:00	7200	403	-31.5	-33.5	256	9	2.0
2025-11-10T12:00	7220	402	-31.6	-33.9	256	9	2.0
2025-11-10T12:00	7240	401	-31.8	-34.6	256	9	2.0
2025-11-10T12:00	7260	400	-31.9	-35.2	256	10	2.0
2025-11-10T12:00	7280	399	-32.0	-35.6	256	10	2.0
2025-11-10T12:00	7300	397	-32.1	-35.9	255	10	2.0
2025-11-10T12:00	7320	396	-32.3	-35.7	254	10	2.0
2025-11-10T12:00	7340	395	-32.4	-35.6	253	10	2.0
2025-11-10T12:00	7360	394	-32.6	-35.7	252	10	2.0
2025-11-10T12:00	7380	393	-32.7	-36.0	251	9	2.0
2025-11-10T12:00	7400	392	-32.9	-36.0	251	9	2.0
2025-11-10T12:00	7420	391	-33.1	-36.2	252	9	2.0
2025-11-10T12:00	7440	390	-33.2	-36.5	254	9	2.0
2025-11-10T12:00	7460	389	-33.3	-36.7	256	9	2.0
2025-11-10T12:00	7480	387	-33.5	-36.7	258	9	2.0
2025-11-10T12:00	7500	386	-33.6	-36.6	259	9	2.0
2025-11-10T12:00	7520	385	-33.8	-36.5	259	9	2.0
2025-11-10T12:00	7540	384	-34.1	-36.6	260	9	2.0
2025-11-10T12:00	7560	383	-34.2	-36.8	260	8	2.0
2025-11-10T12:00	7580	382	-34.3	-37.1	261	8	1.9
2025-11-10T12:00	7600	381	-34.4	-37.3	263	9	1.9
2025-11-10T12:00	7620	380	-34.7	-36.8	265	9	1.9
2025-11-10T12:00	7640	379	-34.9	-36.8	267	9	1.9
2025-11-10T12:00	7660	377	-35.0	-37.3	269	10	1.9
2025-11-10T12:00	7680	376	-35.1	-37.3	270	10	1.9
2025-11-10T12:00	7700	375	-35.2	-37.2	271	10	1.9
2025-11-10T12:00	7720	374	-35.4	-37.3	271	10	1.9
2025-11-10T12:00	7740	373	-35.7	-37.4	272	10	1.9
2025-11-10T12:00	7760	372	-35.8	-37.7	272	10	1.9
2025-11-10T12:00	7780	371	-36.0	-37.9	271	10	1.8
2025-11-10T12:00	7800	370	-36.1	-38.1	271	10	1.8
2025-11-10T12:00	7820	369	-36.1	-38.8	272	9	1.8
2025-11-10T12:00	7840	368	-36.2	-39.0	272	9	1.8
2025-11-10T12:00	7860	367	-36.5	-39.4	273	9	1.8
2025-11-10T12:00	7880	366	-36.6	-39.7	275	9	1.8
2025-11-10T12:00	7900	365	-36.8	-40.0	276	9	1.7
2025-11-10T12:00	7920	364	-36.9	-40.3	276	9	1.8
2025-11-10T12:00	7940	363	-37.2	-40.3	276	9	1.8
2025-11-10T12:00	7960	362	-37.3	-40.8	275	10	1.8
2025-11-10T12:00	7980	361	-37.3	-41.4	273	10	1.8
2025-11-10T12:00	8000	359	-37.5	-41.2	272	10	1.9
2025-11-10T12:00	8020	358	-37.8	-41.1	272	10	1.8
2025-11-10T12:00	8040	357	-38.0	-41.7	272	10	1.8
2025-11-10T12:00	8060	356	-38.1	-42.4	272	10	1.8
2025-11-10T12:00	8080	355	-38.2	-42.2	273	9	1.8
2025-11-10T12:00	8100	354	-38.4	-42.4	274	9	1.8
2025-11-10T12:00	8120	353	-38.7	-42.4	276	9	1.8
2025-11-10T12:00	8140	352	-38.9	-42.6	277	9	1.8
2025-11-10T12:00	8160	351	-39.0	-43.1	278	9	1.8
2025-11-10T12:00	8180	350	-39.3	-42.8	279	9	1.8
2025-11-10T12:00	8200	349	-39.4	-43.2	280	9	1.8
2025-11-10T12:00	8220	348	-39.6	-43.1	280	9	1.8
2025-11-10T12:00	8240	347	-39.7	-43.5	280	9	1.8
2025-11-10T12:00	8260	346	-39.8	-43.8	280	9	1.7
2025-11-10T12:00	8280	345	-40.1	-43.6	280	9	1.7
2025-11-10T12:00	8300	344	-40.2	-44.1	280	9	1.7
2025-11-10T12:00	8320	343	-40.5	-44.3	281	9	1.7
2025-11-10T12:00	8340	342	-40.6	-44.5	281	9	1.7
2025-11-10T12:00	8360	341	-40.8	-44.7	281	9	1.7
2025-11-10T12:00	8380	340	-41.1	-44.4	281	9	1.7
2025-11-10T12:00	8400	339	-41.3	-44.3	281	9	1.7
2025-11-10T12:00	8420	338	-41.5	-44.3	280	9	1.7
2025-11-10T12:00	8440	337	-41.6	-44.3	280	9	1.7
2025-11-10T12:00	8460	336	-41.7	-44.4	279	10	1.7
2025-11-10T12:00	8480	335	-41.9	-44.6	277	10	1.6
2025-11-10T12:00	8500	334	-42.0	-45.0	275	10	1.6
2025-11-10T12:00	8520	333	-42.2	-45.0	274	10	1.6
2025-11-10T12:00	8540	332	-42.5	-45.0	272	10	1.6
2025-11-10T12:00	8560	331	-42.7	-45.5	272	10	1.6
2025-11-10T12:00	8580	330	-42.8	-46.2	271	9	1.6
2025-11-10T12:00	8600	329	-43.0	-46.7	271	9	1.7
2025-11-10T12:00	8620	328	-43.1	-47.0	271	9	1.7
2025-11-10T12:00	8640	327	-43.3	-47.3	271	9	1.7
2025-11-10T12:00	8660	326	-43.5	-47.8	272	8	1.7
2025-11-10T12:00	8680	325	-43.5	-48.2	273	8	1.7
2025-11-10T12:00	8700	324	-43.6	-48.2	274	8	1.8
2025-11-10T12:00	8720	323	-43.9	-47.9	274	8	1.8
2025-11-10T12:00	8740	322	-44.1	-47.7	275	8	1.8
2025-11-10T12:00	8760	321	-44.4	-47.9	275	8	1.8
2025-11-10T12:00	8780	321	-44.5	-47.9	274	8	1.8
2025-11-10T12:00	8800	320	-44.6	-48.2	274	7	1.8
2025-11-10T12:00	8820	319	-44.8	-48.4	274	7	1.8
2025-11-10T12:00	8840	318	-45.0	-48.2	275	8	1.8
2025-11-10T12:00	8860	317	-45.1	-48.3	277	8	1.8
2025-11-10T12:00	8880	316	-45.2	-48.5	279	8	1.8
2025-11-10T12:00	8900	315	-45.6	-48.8	280	9	1.8
2025-11-10T12:00	8920	314	-45.8	-49.2	282	9	1.8
2025-11-10T12:00	8940	313	-46.0	-49.8	283	8	1.8
2025-11-10T12:00	8960	312	-46.1	-50.1	285	8	1.8
2025-11-10T12:00	8980	311	-46.2	-50.2	286	8	1.8
2025-11-10T12:00	9000	310	-46.4	-50.1	288	8	1.8
2025-11-10T12:00	9020	309	-46.5	-50.0	290	7	1.8
2025-11-10T12:00	9040	308	-46.7	-50.3	292	7	1.8
2025-11-10T12:00	9060	307	-46.9	-50.5	292	8	1.8
2025-11-10T12:00	9080	306	-47.2	-50.3	291	8	1.8
2025-11-10T12:00	9100	305	-47.3	-50.6	289	8	1.8
2025-11-10T12:00	9120	305	-47.4	-51.3	287	8	1.8
2025-11-10T12:00	9140	304	-47.6	-51.0	286	9	1.8
2025-11-10T12:00	9160	303	-47.8	-50.7	284	9	1.9
2025-11-10T12:00	9180	302	-47.9	-51.0	284	9	1.8
2025-11-10T12:00	9200	301	-48.0	-51.6	284	9	1.8
2025-11-10T12:00	9220	300	-48.3	-51.4	284	9	1.8
2025-11-10T12:00	9240	299	-48.4	-51.7	284	9	1.8
2025-11-10T12:00	9260	298	-48.6	-51.8	284	10	1.8
2025-11-10T12:00	9280	297	-48.8	-51.4	283	10	1.8
2025-11-10T12:00	9300	296	-49.0	-51.2	283	10	1.8
2025-11-10T12:00	9320	296	-49.2	-51.4	282	10	1.8
2025-11-10T12:00	9340	295	-49.3	-51.6	281	10	1.8
2025-11-10T12:00	9360	294	-49.5	-52.2	280	10	1.8
2025-11-10T12:00	9380	293	-49.7	-52.6	279	10	1.8
2025-11-10T12:00	9400	292	-49.8	-53.0	278	11	1.8
2025-11-10T12:00	9420	291	-49.9	-54.2	276	11	1.8
2025-11-10T12:00	9440	290	-50.1	-54.9	275	11	1.8
2025-11-10T12:00	9460	289	-50.3	-55.0	274	11	1.8
2025-11-10T12:00	9480	288	-50.4	-55.5	273	11	1.8
2025-11-10T12:00	9500	287	-50.5	-56.0	272	11	1.8
2025-11-10T12:00	9520	287	-50.7	-56.7	271	11	1.8
2025-11-10T12:00	9540	286	-50.9	-56.6	271	11	1.8
2025-11-10T12:00	9560	285	-51.1	-56.2	270	11	1.8
2025-11-10T12:00	9580	284	-51.2	-56.0	270	11	1.8
2025-11-10T12:00	9600	283	-51.4	-56.5	270	11	1.8
2025-11-10T12:00	9620	282	-51.6	-56.7	270	11	1.8
2025-11-10T12:00	9640	281	-51.8	-56.7	270	11	1.8
2025-11-10T12:00	9660	280	-51.8	-56.5	270	11	1.7
2025-11-10T12:00	9680	280	-52.1	-56.5	270	10	1.7
2025-11-10T12:00	9700	279	-52.4	-56.4	271	10	1.7
2025-11-10T12:00	9720	278	-52.5	-56.5	271	10	1.7
2025-11-10T12:00	9740	277	-52.6	-56.9	272	10	1.7
2025-11-10T12:00	9760	276	-52.8	-57.3	272	10	1.7
2025-11-10T12:00	9780	275	-53.0	-57.4	273	10	1.7
2025-11-10T12:00	9800	274	-53.2	-57.4	273	10	1.7
2025-11-10T12:00	9820	274	-53.3	-58.0	273	11	1.7
2025-11-10T12:00	9840	273	-53.5	-58.6	273	11	1.7
2025-11-10T12:00	9860	272	-53.7	-58.7	273	11	1.7
2025-11-10T12:00	9880	271	-53.8	-58.7	272	11	1.7
2025-11-10T12:00	9900	270	-53.9	-59.0	272	11	1.7
2025-11-10T12:00	9920	269	-54.2	-59.1	272	11	1.7
2025-11-10T12:00	9940	268	-54.4	-58.9	273	11	1.7
2025-11-10T12:00	9960	268	-54.6	-58.9	273	11	1.7
2025-11-10T12:00	9980	267	-54.6	-58.9	273	11	1.6
2025-11-10T12:00	10000	266	-54.8	-58.9	273	11	1.6
2025-11-10T12:00	10018	265	-55.0	-59.1	272	11	1.6
2025-11-10T12:00	10050	264	-55.3	-59.7	271	11	1.6
2025-11-10T12:00	10100	262	-55.7	-60.2	269	11	1.6
2025-11-10T12:00	10150	260	-56.0	-60.6	268	12	1.6
2025-11-10T12:00	10200	258	-56.4	-61.1	267	12	1.6
2025-11-10T12:00	10250	256	-56.6	-61.9	266	14	1.6
2025-11-10T12:00	10300	254	-57.0	-62.8	265	15	1.6
2025-11-10T12:00	10350	252	-57.4	-63.0	266	15	1.6
2025-11-10T12:00	10400	250	-57.7	-63.4	266	16	1.6
2025-11-10T12:00	10450	248	-58.1	-64.3	265	16	1.6
2025-11-10T12:00	10500	246	-58.4	-65.0	265	17	1.6
2025-11-10T12:00	10550	244	-58.7	-65.4	265	18	1.6
2025-11-10T12:00	10600	242	-59.0	-65.9	267	19	1.7
2025-11-10T12:00	10650	240	-59.3	-66.4	272	19	1.7
2025-11-10T12:00	10700	238	-59.4	-66.5	278	19	1.7
2025-11-10T12:00	10750	236	-59.5	-66.7	282	19	1.7
2025-11-10T12:00	10800	234	-59.6	-66.9	284	19	1.8
2025-11-10T12:00	10850	232	-59.9	-66.9	286	18	1.8
2025-11-10T12:00	10900	231	-60.2	-67.0	288	17	1.8
2025-11-10T12:00	10950	229	-60.5	-67.0	289	16	1.8
2025-11-10T12:00	11000	227	-61.0	-67.2	290	16	1.8
2025-11-10T12:00	11050	225	-61.4	-67.4	291	14	1.8
2025-11-10T12:00	11100	223	-61.8	-67.8	292	12	1.8
2025-11-10T12:00	11150	221	-62.0	-67.9	295	11	1.7
2025-11-10T12:00	11200	220	-62.0	-67.7	297	10	1.7
2025-11-10T12:00	11250	218	-62.2	-67.5	298	9	1.8
2025-11-10T12:00	11300	216	-62.6	-67.8	298	9	1.8
2025-11-10T12:00	11350	214	-63.0	-67.7	292	8	1.7
2025-11-10T12:00	11400	213	-63.2	-67.9	279	7	1.8
2025-11-10T12:00	11450	211	-63.3	-68.4	264	7	1.8
2025-11-10T12:00	11500	209	-63.4	-68.7	251	8	1.8
2025-11-10T12:00	11550	207	-63.7	-69.7	246	10	1.8
2025-11-10T12:00	11600	206	-63.3	-70.3	252	12	1.8
2025-11-10T12:00	11650	204	-63.1	-71.0	259	14	1.9
2025-11-10T12:00	11700	203	-63.0	-71.2	260	14	1.9
2025-11-10T12:00	11750	201	-62.9	-71.4	261	12	2.0
2025-11-10T12:00	11800	199	-62.7	-71.7	261	12	2.0
2025-11-10T12:00	11850	198	-62.5	-72.3	261	11	2.1
2025-11-10T12:00	11900	196	-62.3	-72.6	263	11	2.2
2025-11-10T12:00	11950	195	-62.2	-72.7	266	12	2.3
2025-11-10T12:00	12000	193	-62.7	-73.0	266	14	2.3
2025-11-10T12:00	12050	191	-63.0	-72.9	266	16	2.4
2025-11-10T12:00	12100	190	-63.0	-73.3	266	16	2.4
2025-11-10T12:00	12150	188	-62.8	-74.0	266	15	2.4
2025-11-10T12:00	12200	187	-61.6	-75.1	265	14	2.5
2025-11-10T12:00	12250	185	-61.4	-75.8	264	14	2.7
2025-11-10T12:00	12300	184	-61.7	-75.9	262	13	2.8
2025-11-10T12:00	12350	182	-61.9	-75.8	257	13	2.9
2025-11-10T12:00	12400	181	-62.1	-75.9	255	13	3.0
2025-11-10T12:00	12450	179	-62.2	-76.2	258	13	3.0
2025-11-10T12:00	12500	178	-62.2	-76.4	261	13	3.0
2025-11-10T12:00	12550	176	-61.9	-77.3	259	14	3.0
2025-11-10T12:00	12600	175	-61.1	-78.3	257	14	3.1
2025-11-10T12:00	12650	174	-60.8	-78.6	257	14	3.2
2025-11-10T12:00	12700	172	-61.1	-78.7	257	14	3.3
2025-11-10T12:00	12750	171	-61.1	-78.8	258	14	3.3
2025-11-10T12:00	12800	170	-61.0	-79.2	258	14	3.4
2025-11-10T12:00	12850	168	-61.0	-79.4	258	15	3.4
2025-11-10T12:00	12900	167	-60.8	-79.6	258	16	3.4
2025-11-10T12:00	12950	166	-60.5	-80.0	259	15	3.3
2025-11-10T12:00	13000	164	-60.0	-80.3	260	14	3.3
2025-11-10T12:00	13050	163	-59.4	-80.6	259	13	3.4
2025-11-10T12:00	13100	162	-59.1	-80.7	258	12	3.4
2025-11-10T12:00	13150	160	-59.2	-80.7	256	12	3.5
2025-11-10T12:00	13200	159	-59.7	-80.8	250	11	3.5
2025-11-10T12:00	13250	158	-60.0	-80.7	242	11	3.5
2025-11-10T12:00	13300	156	-60.7	-81.0	239	12	3.5
2025-11-10T12:00	13350	155	-60.6	-81.0	241	13	3.4
2025-11-10T12:00	13400	154	-60.4	-81.2	242	14	3.3
2025-11-10T12:00	13450	153	-60.5	-81.4	245	13	3.3
2025-11-10T12:00	13500	151	-60.6	-81.5	251	12	3.3
2025-11-10T12:00	13550	150	-60.6	-81.6	256	13	3.3
2025-11-10T12:00	13600	149	-60.5	-81.7	255	13	3.2
2025-11-10T12:00	13650	148	-60.3	-81.9	253	12	3.2
2025-11-10T12:00	13700	147	-60.3	-81.9	252	11	3.2
2025-11-10T12:00	13750	146	-60.3	-82.0	253	9	3.1
2025-11-10T12:00	13800	144	-59.9	-82.2	248	7	3.2
2025-11-10T12:00	13850	143	-59.4	-82.2	231	5	3.2
2025-11-10T12:00	13900	142	-59.0	-82.1	215	5	3.3
2025-11-10T12:00	13950	141	-59.2	-82.2	214	6	3.4
2025-11-10T12:00	14000	140	-59.4	-82.2	213	7	3.4
2025-11-10T12:00	14050	139	-59.7	-82.3	213	8	3.4
2025-11-10T12:00	14100	138	-60.0	-82.3	213	9	3.4
2025-11-10T12:00	14150	137	-60.4	-82.4	213	11	3.3
2025-11-10T12:00	14200	135	-60.6	-82.4	218	12	3.3
2025-11-10T12:00	14250	134	-61.0	-82.7	223	14	3.3
2025-11-10T12:00	14300	133	-61.0	-82.8	228	15	3.3
2025-11-10T12:00	14350	132	-60.5	-82.9	232	15	3.3
2025-11-10T12:00	14400	131	-59.5	-82.7	237	16	3.4
2025-11-10T12:00	14450	130	-59.7	-83.0	241	16	3.5
2025-11-10T12:00	14500	129	-59.7	-83.1	243	17	3.9
2025-11-10T12:00	14550	128	-59.5	-83.1	244	17	4.4
2025-11-10T12:00	14600	127	-59.1	-83.1	247	17	5.1
2025-11-10T12:00	14650	126	-58.9	-83.2	251	17	5.9
2025-11-10T12:00	14700	125	-58.9	-83.3	255	16	6.5
2025-11-10T12:00	14750	124	-59.0	-83.3	260	15	6.9
2025-11-10T12:00	14800	123	-59.2	-83.4	265	14	7.2
2025-11-10T12:00	14850	122	-58.9	-83.4	267	14	7.4
2025-11-10T12:00	14900	121	-58.5	-83.3	263	13	7.6
2025-11-10T12:00	14950	120	-58.8	-83.4	257	13	7.6
2025-11-10T12:00	15000	119	-59.1	-83.5	253	13	7.6
2025-11-10T12:00	15050	118	-59.4	-83.5	250	14	7.6
2025-11-10T12:00	15100	117	-59.7	-83.5	247	15	7.6
2025-11-10T12:00	15150	116	-60.1	-83.7	248	16	7.6
2025-11-10T12:00	15200	115	-60.2	-83.8	251	15	7.5
2025-11-10T12:00	15250	114	-60.0	-83.8	255	13	7.4
2025-11-10T12:00	15300	114	-59.9	-83.7	255	11	7.2
2025-11-10T12:00	15350	113	-60.2	-83.8	250	9	7.1
2025-11-10T12:00	15400	112	-60.0	-83.9	243	9	6.9
2025-11-10T12:00	15450	111	-59.7	-83.9	238	9	6.6
2025-11-10T12:00	15500	110	-59.7	-83.8	235	9	6.2
2025-11-10T12:00	15550	109	-60.1	-83.9	235	10	5.8
2025-11-10T12:00	15600	108	-60.2	-83.9	240	10	5.5
2025-11-10T12:00	15650	107	-60.4	-84.0	245	10	5.3
2025-11-10T12:00	15700	107	-60.5	-84.1	246	10	5.2
2025-11-10T12:00	15750	106	-60.5	-84.3	242	9	5.1
2025-11-10T12:00	15800	105	-60.0	-84.0	235	9	5.1
2025-11-10T12:00	15850	104	-60.3	-84.1	232	8	5.2
2025-11-10T12:00	15900	103	-60.7	-84.2	232	8	5.3
2025-11-10T12:00	15950	102	-61.0	-84.3	235	8	5.3
2025-11-10T12:00	16000	102	-60.9	-84.3	238	9	5.4
2025-11-10T12:00	16050	101	-61.0	-84.5	238	10	5.6
2025-11-10T12:00	16100	100	-60.8	-84.4	237	10	5.7
2025-11-10T12:00	16150	99	-60.8	-84.6	236	10	5.9
2025-11-10T12:00	16200	98	-60.8	-84.7	232	10	6.1
2025-11-10T12:00	16250	97	-60.5	-84.7	225	10	6.3
2025-11-10T12:00	16300	97	-60.1	-84.6	223	10	6.6
2025-11-10T12:00	16350	96	-60.1	-84.5	226	11	6.7
2025-11-10T12:00	16400	95	-60.5	-84.6	229	12	6.8
2025-11-10T12:00	16450	94	-60.7	-84.6	229	12	6.8
2025-11-10T12:00	16500	94	-61.0	-84.7	230	12	6.7
2025-11-10T12:00	16550	93	-61.1	-84.7	234	12	6.6
2025-11-10T12:00	16600	92	-61.1	-84.8	239	12	6.2
2025-11-10T12:00	16650	91	-61.0	-84.9	241	11	5.9
2025-11-10T12:00	16700	91	-60.4	-84.8	240	11	5.8
2025-11-10T12:00	16750	90	-60.0	-84.7	240	10	5.6
2025-11-10T12:00	16800	89	-60.3	-84.9	244	11	5.7
2025-11-10T12:00	16850	89	-60.1	-84.8	248	12	5.7
2025-11-10T12:00	16900	88	-59.9	-84.7	251	13	5.8
2025-11-10T12:00	16950	87	-60.0	-84.7	254	13	6.0
2025-11-10T12:00	17000	86	-60.5	-84.8	256	13	6.2
2025-11-10T12:00	17050	86	-60.6	-84.9	253	12	6.3
2025-11-10T12:00	17100	85	-60.6	-85.0	249	13	6.3
2025-11-10T12:00	17150	84	-60.6	-85.0	247	13	6.3
2025-11-10T12:00	17200	84	-60.7	-85.1	245	13	6.2
2025-11-10T12:00	17250	83	-60.8	-85.0	243	13	6.1
2025-11-10T12:00	17300	82	-61.0	-85.1	242	13	6.0
2025-11-10T12:00	17350	82	-61.2	-85.2	241	13	6.0
2025-11-10T12:00	17400	81	-61.4	-85.4	240	14	6.0
2025-11-10T12:00	17450	80	-61.1	-85.5	242	15	6.0
2025-11-10T12:00	17500	80	-60.7	-85.3	244	16	6.0
2025-11-10T12:00	17550	79	-60.7	-85.4	246	17	6.2
2025-11-10T12:00	17600	78	-60.8	-85.5	249	17	6.3
2025-11-10T12:00	17650	78	-60.2	-85.4	252	15	6.4
2025-11-10T12:00	17700	77	-59.9	-85.4	256	14	6.6
2025-11-10T12:00	17750	77	-60.0	-85.4	259	12	6.7
2025-11-10T12:00	17800	76	-59.9	-85.3	261	11	6.9
2025-11-10T12:00	17850	75	-59.8	-85.2	262	11	6.9
2025-11-10T12:00	17900	75	-60.2	-85.3	264	12	7.1
2025-11-10T12:00	17950	74	-60.5	-85.4	266	13	7.4
2025-11-10T12:00	18000	74	-60.7	-85.5	268	13	7.3
2025-11-10T12:00	18050	73	-61.1	-85.5	269	13	7.2
2025-11-10T12:00	18100	72	-61.4	-85.6	270	14	7.2
2025-11-10T12:00	18150	72	-61.8	-85.7	271	14	7.0
2025-11-10T12:00	18200	71	-62.2	-85.9	274	14	6.9
2025-11-10T12:00	18250	71	-62.4	-86.0	277	14	6.9
2025-11-10T12:00	18300	70	-62.5	-86.2	277	13	6.8
2025-11-10T12:00	18350	70	-62.5	-86.4	277	12	6.7
2025-11-10T12:00	18400	69	-62.0	-86.2	277	11	6.8
2025-11-10T12:00	18450	68	-62.1	-86.2	275	10	7.0
2025-11-10T12:00	18500	68	-62.4	-86.2	271	10	7.3
2025-11-10T12:00	18550	67	-62.8	-86.3	264	10	7.6
2025-11-10T12:00	18600	67	-63.1	-86.3	260	11	8.0
2025-11-10T12:00	18650	66	-63.5	-86.5	262	12	8.3
2025-11-10T12:00	18700	66	-63.7	-86.7	268	13	8.5
2025-11-10T12:00	18750	65	-63.6	-86.8	270	14	8.7
2025-11-10T12:00	18800	65	-63.5	-86.8	270	14	8.6
2025-11-10T12:00	18850	64	-63.5	-86.8	271	15	8.6
2025-11-10T12:00	18900	64	-63.4	-86.9	274	14	8.5
2025-11-10T12:00	18950	63	-63.2	-86.9	275	12	8.5
2025-11-10T12:00	19000	63	-62.8	-86.7	275	11	8.6
2025-11-10T12:00	19050	62	-63.0	-86.7	274	11	8.7
2025-11-10T12:00	19100	62	-63.2	-86.6	273	11	9.0
2025-11-10T12:00	19150	61	-63.5	-86.7	271	11	9.1
2025-11-10T12:00	19200	61	-63.9	-86.9	267	12	9.1
2025-11-10T12:00	19250	60	-63.8	-87.1	266	12	9.1
2025-11-10T12:00	19300	60	-63.5	-87.1	267	12	9.1
2025-11-10T12:00	19350	59	-63.3	-87.1	267	12	9.0
2025-11-10T12:00	19400	59	-63.2	-87.1	269	13	9.1
2025-11-10T12:00	19450	58	-63.1	-87.1	271	13	9.3
2025-11-10T12:00	19500	58	-62.7	-87.0	275	13	9.4
2025-11-10T12:00	19550	57	-62.4	-87.0	278	13	9.5
2025-11-10T12:00	19600	57	-62.4	-86.9	277	13	9.6
2025-11-10T12:00	19650	56	-62.5	-86.8	275	14	9.6
2025-11-10T12:00	19700	56	-62.6	-86.9	275	14	9.5
2025-11-10T12:00	19750	55	-62.5	-86.9	275	13	9.5
2025-11-10T12:00	19800	55	-62.4	-86.9	275	11	9.4
2025-11-10T12:00	19850	54	-62.4	-87.0	274	9	9.5
2025-11-10T12:00	19900	54	-62.2	-86.9	271	8	9.6
2025-11-10T12:00	19950	54	-62.0	-86.9	268	8	9.7
2025-11-10T12:00	20000	53	-62.0	-86.9	266	8	9.8
2025-11-10T12:00	20050	53	-62.0		266	8	9.9
2025-11-10T12:00	20100	52	-62.1		267	8	9.9
2025-11-10T12:00	20150	52	-62.4		269	8	10.0
2025-11-10T12:00	20200	52	-62.8		270	9	10.0
2025-11-10T12:00	20250	51	-63.2		269	10	10.0
2025-11-10T12:00	20300	51	-63.3		268	12	10.0
2025-11-10T12:00	20350	50	-63.7		270	13	9.9
2025-11-10T12:00	20400	50	-63.7		275	15	9.8
2025-11-10T12:00	20450	49	-63.6		280	17	9.9
2025-11-10T12:00	20500	49	-63.5		282	18	9.9
2025-11-10T12:00	20550	49	-63.5		284	19	9.9
2025-11-10T12:00	20600	48	-63.7		286	19	9.9
2025-11-10T12:00	20650	48	-64.0		288	19	9.9
2025-11-10T12:00	20700	47	-63.8		288	17	9.9
2025-11-10T12:00	20750	47	-63.9		288	15	10.0
2025-11-10T12:00	20800	47	-64.2		286	14	10.0
2025-11-10T12:00	20850	46	-64.6		282	12	10.0
2025-11-10T12:00	20900	46	-64.6		275	12	10.1
2025-11-10T12:00	20950	46	-64.7		269	11	10.2
2025-11-10T12:00	21000	45	-64.6		265	10	10.3
2025-11-10T12:00	21050	45	-64.6		262	10	10.3
2025-11-10T12:00	21100	44	-64.8		260	11	10.4
2025-11-10T12:00	21150	44	-64.7		263	12	10.4
2025-11-10T12:00	21200	44	-65.0		264	12	10.4
2025-11-10T12:00	21250	43	-65.2		264	13	10.4
2025-11-10T12:00	21300	43	-65.4		263	13	10.3
2025-11-10T12:00	21350	43	-65.7		263	13	10.3
2025-11-10T12:00	21400	42	-66.0		261	14	10.2
2025-11-10T12:00	21450	42	-66.2		260	14	10.3
2025-11-10T12:00	21500	42	-66.2		262	14	10.2
2025-11-10T12:00	21550	41	-66.4		267	13	10.2
2025-11-10T12:00	21600	41	-66.5		272	13	10.2
2025-11-10T12:00	21650	41	-66.3		274	12	10.2
2025-11-10T12:00	21700	40	-65.9		273	12	10.3
2025-11-10T12:00	21750	40	-65.7		271	11	10.4
2025-11-10T12:00	21800	40	-65.8		270	11	10.4
2025-11-10T12:00	21850	39	-66.0		267	12	10.4
2025-11-10T12:00	21900	39	-66.2		265	12	10.3
2025-11-10T12:00	21950	39	-66.4		262	13	10.3
2025-11-10T12:00	22000	38	-66.4		261	13	10.4
2025-11-10T12:00	22050	38	-66.1		260	13	10.5
2025-11-10T12:00	22100	38	-65.9		261	13	10.5
2025-11-10T12:00	22150	37	-65.9		262	13	10.6
2025-11-10T12:00	22200	37	-65.8		263	12	10.7
2025-11-10T12:00	22250	37	-65.7		266	12	10.7
2025-11-10T12:00	22300	36	-65.6		265	12	10.7
2025-11-10T12:00	22350	36	-65.6		262	12	10.8
2025-11-10T12:00	22400	36	-65.5		258	12	10.9
2025-11-10T12:00	22450	36	-65.6		258	12	10.9
2025-11-10T12:00	22500	35	-65.6		263	13	11.1
2025-11-10T12:00	22550	35	-65.8		266	13	11.0
2025-11-10T12:00	22600	35	-65.8		269	13	11.1
2025-11-10T12:00	22650	34	-65.8		272	12	11.1
2025-11-10T12:00	22700	34	-66.0		273	12	11.2
2025-11-10T12:00	22750	34	-65.9		270	12	11.2
2025-11-10T12:00	22800	34	-66.0		266	12	11.2
2025-11-10T12:00	22850	33	-66.2		263	13	11.2
2025-11-10T12:00	22900	33	-66.1		262	13	11.2
2025-11-10T12:00	22950	33	-66.1		263	13	11.2
2025-11-10T12:00	23000	32	-66.0		263	13	11.2
2025-11-10T12:00	23050	32	-66.1		262	13	11.3
2025-11-10T12:00	23100	32	-66.0		259	14	11.2
2025-11-10T12:00	23150	32	-66.0		257	14	11.3
2025-11-10T12:00	23200	31	-66.2		255	15	11.2
2025-11-10T12:00	23250	31	-66.0		253	16	11.2
2025-11-10T12:00	23300	31	-65.8		254	17	11.2
2025-11-10T12:00	23350	31	-65.6		256	18	11.2
2025-11-10T12:00	23400	30	-65.1		257	19	11.2
2025-11-10T12:00	23450	30	-64.3		259	19	11.5
2025-11-10T12:00	23500	30	-64.3		261	20	11.5
2025-11-10T12:00	23550	30	-64.4		264	21	11.6
2025-11-10T12:00	23600	29	-64.5		266	21	11.7
2025-11-10T12:00	23650	29	-64.9		267	21	11.7
2025-11-10T12:00	23700	29	-65.1		269	21	11.7
2025-11-10T12:00	23750	29	-65.1		269	20	11.8
2025-11-10T12:00	23800	29	-65.1		268	19	11.8
2025-11-10T12:00	23850	28	-65.2		272	18	11.7
2025-11-10T12:00	23900	28	-65.0		276	17	11.6
2025-11-10T12:00	23950	28	-65.1		279	17	11.3
2025-11-10T12:00	24000	28	-65.3		278	16	11.0
2025-11-10T12:00	24050	27	-65.1		274	16	10.6
2025-11-10T12:00	24100	27	-64.9		270	17	10.3
2025-11-10T12:00	24150	27	-64.7		265	17	10.2
2025-11-10T12:00	24200	27	-64.7		263	17	10.0
2025-11-10T12:00	24250	26	-64.5		263	16	9.9
2025-11-10T12:00	24300	26	-64.2		264	15	9.9
2025-11-10T12:00	24350	26	-64.0		265	14	9.9
2025-11-10T12:00	24400	26	-64.0		264	14	10.0
2025-11-10T12:00	24450	26	-63.9		263	14	10.1
2025-11-10T12:00	24500	25	-63.9		263	14	10.3
2025-11-10T12:00	24550	25	-64.0		262	15	10.5
2025-11-10T12:00	24600	25	-64.0		262	17	10.5
2025-11-10T12:00	24650	25	-64.1		261	18	10.7
2025-11-10T12:00	24700	25	-64.2		263	19	10.7
2025-11-10T12:00	24750	24	-64.3		265	20	10.7
2025-11-10T12:00	24800	24	-64.4		268	19	10.7
2025-11-10T12:00	24850	24	-64.5		272	18	10.7
2025-11-10T12:00	24900	24	-64.4		276	17	10.8
2025-11-10T12:00	24950	24	-64.4		278	16	10.7
2025-11-10T12:00	25000	23	-64.6		278	15	10.6
2025-11-10T12:00	25050	23	-64.9		277	15	10.6
2025-11-10T12:00	25100	23	-65.0		276	17	10.7
2025-11-10T12:00	25150	23	-65.0		275	18	10.7
2025-11-10T12:00	25200	23	-65.0		274	18	10.7
2025-11-10T12:00	25250	22	-65.1		275	18	10.6
2025-11-10T12:00	25300	22	-65.0		275	19	10.6
2025-11-10T12:00	25350	22	-64.9		272	20	10.6
2025-11-10T12:00	25400	22	-64.9		272	22	10.6
2025-11-10T12:00	25450	22	-64.7		271	23	10.6
2025-11-10T12:00	25500	22	-64.5		269	24	10.5
2025-11-10T12:00	25550	21	-64.4		267	24	10.4
2025-11-10T12:00	25600	21	-64.4		266	24	10.4
2025-11-10T12:00	25650	21	-64.5		264	24	10.3
2025-11-10T12:00	25700	21	-64.4		262	23	10.3
2025-11-10T12:00	25750	21	-64.5		262	23	10.2
2025-11-10T12:00	25800	21	-64.4		264	23	10.2
2025-11-10T12:00	25850	20	-64.2		268	22	10.1
2025-11-10T12:00	25900	20	-63.9		273	22	10.1
2025-11-10T12:00	25950	20	-63.7		275	21	10.1
2025-11-10T12:00	26000	20	-63.7		277	21	10.1
2025-11-10T12:00	26050	20	-63.8		279	20	9.9
2025-11-10T12:00	26100	20	-64.0		280	20	10.0
2025-11-10T12:00	26150	19	-64.3		279	20	9.9
2025-11-10T12:00	26200	19	-64.3		277	20	9.9
2025-11-10T12:00	26250	19	-64.3		275	21	9.8
2025-11-10T12:00	26300	19	-64.4		274	23	9.8
2025-11-10T12:00	26350	19	-64.6		272	24	9.6
2025-11-10T12:00	26400	19	-64.6		270	25	9.6
2025-11-10T12:00	26450	18	-64.5		268	26	9.4
2025-11-10T12:00	26500	18	-64.4		267	27	9.4
2025-11-10T12:00	26550	18	-64.3		267	26	9.3
2025-11-10T12:00	26600	18	-64.0		268	26	9.3
2025-11-10T12:00	26650	18	-63.8		267	25	9.3
2025-11-10T12:00	26700	18	-63.9		267	24	9.3
2025-11-10T12:00	26750	18	-64.2		267	24	9.3
2025-11-10T12:00	26800	17	-64.1		269	24	9.2
2025-11-10T12:00	26850	17	-63.8		270	24	9.1
2025-11-10T12:00	26900	17	-63.7		272	26	9.2
2025-11-10T12:00	26950	17	-63.6		273	27	9.2
2025-11-10T12:00	27000	17	-63.6		274	28	9.1
2025-11-10T12:00	27050	17	-63.4		275	28	9.1
2025-11-10T12:00	27100	17	-63.3		275	28	9.1
2025-11-10T12:00	27150	16	-63.6		276	27	9.2
2025-11-10T12:00	27200	16	-63.6		277	27	9.1
2025-11-10T12:00	27250	16	-63.6		277	28	9.0
2025-11-10T12:00	27300	16	-63.6		275	28	8.9
2025-11-10T12:00	27350	16	-63.6		273	27	8.8
2025-11-10T12:00	27400	16	-63.6		273	27	9.0
2025-11-10T12:00	27450	16	-63.6		274	27	8.9
2025-11-10T12:00	27500	16	-63.8		275	27	8.9
2025-11-10T12:00	27550	15	-63.9		275	27	8.8
2025-11-10T12:00	27600	15	-63.8		275	28	8.6
2025-11-10T12:00	27650	15	-63.9		274	28	8.4
2025-11-10T12:00	27700	15	-64.1		273	29	8.3
2025-11-10T12:00	27750	15	-64.0		270	30	8.2
2025-11-10T12:00	27800	15	-63.7		269	29	8.2
2025-11-10T12:00	27850	15	-63.5		268	29	8.1
2025-11-10T12:00	27900	15	-63.5		268	29	8.2
2025-11-10T12:00	27950	14	-63.3		268	31	8.1
2025-11-10T12:00	28000	14	-62.7		270	32	8.0
2025-11-10T12:00	28050	14	-62.4		271	33	7.9
2025-11-10T12:00	28100	14	-62.5		271	33	7.9
2025-11-10T12:00	28150	14	-62.6		271	32	7.8
2025-11-10T12:00	28200	14	-62.6		270	31	7.8
2025-11-10T12:00	28250	14	-62.9		270	30	7.7
2025-11-10T12:00	28300	14	-63.3		270	29	7.6
2025-11-10T12:00	28350	14	-63.7		270	29	7.6
2025-11-10T12:00	28400	13	-64.0		271	28	7.5
2025-11-10T12:00	28450	13	-64.0		270	29	7.4
2025-11-10T12:00	28500	13	-63.7		268	29	7.3
2025-11-10T12:00	28550	13	-63.5		267	30	7.1
2025-11-10T12:00	28600	13	-63.6		266	31	7.0
2025-11-10T12:00	28650	13	-63.6		265	33	6.9
2025-11-10T12:00	28700	13	-63.3		265	34	6.9
2025-11-10T12:00	28750	13	-63.1		265	36	6.7
2025-11-10T12:00	28800	13	-62.7		265	37	6.6
2025-11-10T12:00	28850	12	-62.3		266	36	6.5
2025-11-10T12:00	28900	12	-62.2		267	35	6.3
2025-11-10T12:00	28950	12	-62.5		267	34	6.2
2025-11-10T12:00	29000	12	-62.9		266	33	6.1
2025-11-10T12:00	29050	12	-63.1		265	32	6.1
2025-11-10T12:00	29100	12	-63.2		265	32	6.0
2025-11-10T12:00	29150	12	-62.6		266	32	6.0
2025-11-10T12:00	29200	12	-62.1		269	32	5.9
2025-11-10T12:00	29250	12	-61.9		271	31	5.8
2025-11-10T12:00	29300	12	-62.0		271	30	5.8
2025-11-10T12:00	29350	12	-62.2		270	28	5.8
2025-11-10T12:00	29400	11	-62.5		269	27	5.8
2025-11-10T12:00	29450	11	-62.5		268	27	5.8
2025-11-10T12:00	29500	11	-62.3		267	27	5.8
2025-11-10T12:00	29550	11	-62.3		265	28	5.7
2025-11-10T12:00	29600	11	-62.3		263	30	5.7
2025-11-10T12:00	29650	11	-62.2		262	31	5.6
2025-11-10T12:00	29700	11	-62.1		261	32	5.6
2025-11-10T12:00	29750	11	-61.9		260	33	5.5
2025-11-10T12:00	29800	11	-61.9		260	34	5.5
2025-11-10T12:00	29850	11	-62.0		259	34	5.5
2025-11-10T12:00	29900	11	-62.0		258	34	5.4
2025-11-10T12:00	29950	10	-62.0		257	35	5.4
2025-11-10T12:00	30000	10	-62.0		257	35	5.3
2025-11-10T12:00	30050	10	-61.9		256	36	5.3
2025-11-10T12:00	30100	10	-61.6		255	37	5.2
2025-11-10T12:00	30150	10	-61.6		255	38	5.2
2025-11-10T12:00	30200	10	-61.3		255	39	5.1
2025-11-10T12:00	30250	10	-61.0		255	41	5.0
2025-11-10T12:00	30300	10	-60.9		256	42	5.0
2025-11-10T12:00	30350	10	-60.9		257	43	5.0
2025-11-10T12:00	30400	10	-60.6		258	42	4.9
2025-11-10T12:00	30450	10	-60.4		259	42	4.3
2025-11-10T12:00	30500	10	-60.3		261	43	4.1
2025-11-10T12:00	30550	9	-60.1		262	44	4.2
2025-11-10T12:00	30600	9	-60.1		262	45	4.2
2025-11-10T12:00	30650	9	-60.0		264	46	4.3
2025-11-10T12:00	30700	9	-59.7		265	46	4.4
2025-11-10T12:00	30750	9	-59.9		266	46	4.5
2025-11-10T12:00	30800	9	-60.0		268	45	4.6
2025-11-10T12:00	30850	9	-60.0		269	44	
2025-11-10T12:00	30900	9	-59.9		269	44	
2025-11-10T12:00	30950	9	-60.0		270	43	
2025-11-10T12:00	31000	9	-60.4		269	42	
2025-11-10T12:00	31050	9	-60.5		268	41	
2025-11-10T12:00	31100	9	-60.4		266	42	
2025-11-10T12:00	31150	9	-60.6		265	42	
2025-11-10T12:00	31200	9	-60.6		264	43	
2025-11-10T12:00	31250	8	-60.4		263	44	
2025-11-10T12:00	31300	8	-60.2		263	45	
2025-11-10T12:00	31350	8	-60.0		263	47	
2025-11-10T12:00	31400	8	-59.4		264	47	
2025-11-10T12:00	31450	8	-59.0		266	47	
2025-11-10T12:00	31500	8	-59.0		269	47	
2025-11-10T12:00	31550	8	-58.9		273	48	
2025-11-10T12:00	31600	8	-58.7		276	49	
2025-11-10T12:00	31650	8	-58.2		277	49	
2025-11-10T12:00	31700	8	-57.8		276	50	
2025-11-10T12:00	31750	8	-57.6		276	50	
2025-11-10T12:00	31800	8	-57.5		275	49	
2025-11-10T12:00	31850	8	-57.3		274	49	
2025-11-10T12:00	31900	8	-57.0		273	49	
2025-11-10T12:00	31950	8	-56.6		273	49	
2025-11-10T12:00	32000	8	-56.4		273	49	
2025-11-10T12:00	32050	7	-56.3		273	48	
2025-11-10T12:00	32100	7	-55.8		272	48	
2025-11-10T12:00	32150	7	-55.6		271	47	
2025-11-10T12:00	32200	7	-55.5		270	47	
2025-11-10T12:00	32250	7	-55.6		269	46	
2025-11-10T12:00	32300	7	-55.8		268	46	
2025-11-10T12:00	32350	7	-55.8		268	46	
2025-11-10T12:00	32400	7	-55.8		268	47	
2025-11-10T12:00	32450	7	-55.8		267	49	
2025-11-10T12:00	32500	7	-55.5		267	50	
2025-11-10T12:00	32550	7	-55.4		267	51	
2025-11-10T12:00	32600	7	-55.5		267	52	
2025-11-10T12:00	32650	7	-55.4		267	52	
2025-11-10T12:00	32700	7	-55.3		267	53	
2025-11-10T12:00	32750	7	-55.1		268	53	
2025-11-10T12:00	32800	7	-54.8		268	54	
2025-11-10T12:00	32850	7	-54.6		268	55	
2025-11-10T12:00	32900	7	-54.6		267	56	
2025-11-10T12:00	32950	6	-54.0		269	57	
2025-11-10T12:00	33000	6	-52.9		271	57	
2025-11-10T12:00	33050	6	-52.2		273	58	
2025-11-10T12:00	33100	6	-51.8		274	58	
2025-11-10T12:00	33150	6	-51.3		273	58	
2025-11-10T12:00	33200	6	-50.9		273	60	
2025-11-10T12:00	33250	6	-50.3		272	61	
2025-11-10T12:00	33300	6	-49.7		272	61	
2025-11-10T12:00	33350	6	-49.4		272	61	
2025-11-10T12:00	33400	6	-49.6		272	59	
2025-11-10T12:00	33450	6	-49.8		271	58	
2025-11-10T12:00	33500	6	-49.9		271	57	
2025-11-10T12:00	33550	6	-49.4		270	56	
2025-11-10T12:00	33600	6	-49.2		271	55	
2025-11-10T12:00	33650	6	-49.0		271	55	
2025-11-10T12:00	33700	6	-48.6		271	56	
2025-11-10T12:00	33750	6	-48.4		271	58	
2025-11-10T12:00	33800	6	-48.6		272	59	
2025-11-10T12:00	33850	6	-48.7		272	60	
2025-11-10T12:00	33900	6	-48.4		272	60	
2025-11-10T12:00	33950	6	-48.2		271	59	
2025-11-10T12:00	34000	6	-48.1		270	58	
2025-11-10T12:00	34050	5	-48.0		269	56	
2025-11-10T12:00	34100	5	-47.9		269	56	
2025-11-10T12:00	34150	5	-47.8		268	55	
2025-11-10T12:00	34200	5	-47.7		270	56	
2025-11-10T12:00	34250	5	-47.6		272	57	
2025-11-10T12:00	34300	5	-47.6		274	57	
2025-11-10T12:00	34350	5	-47.3		273	58	
2025-11-10T12:00	34400	5	-46.8		271	58	
2025-11-10T12:00	34450	5	-46.6		269	58	
2025-11-10T12:00	34500	5	-46.4		266	57	
2025-11-10T12:00	34550	5	-45.9		265	57	
2025-11-10T12:00	34600	5	-45.9		265	58	
2025-11-10T12:00	34650	5	-45.7		266	59	
2025-11-10T12:00	34700	5	-44.9		266	59	
2025-11-10T12:00	34750	5	-44.1		267	59	
2025-11-11T00:00	491	960	5.6	4.9	117	0	
2025-11-11T00:00	501	958	6.2	4.4	221	1	
2025-11-11T00:00	520	956	7.2	4.3	222	2	
2025-11-11T00:00	540	954	8.1	4.1	223	3	
2025-11-11T00:00	560	951	8.3	4.0	225	4	
2025-11-11T00:00	580	949	8.5	3.9	226	4	
2025-11-11T00:00	600	947	8.9	3.7	228	5	
2025-11-11T00:00	620	945	9.1	3.6	229	5	
2025-11-11T00:00	640	942	9.1	3.5	230	5	
2025-11-11T00:00	660	940	9.1	3.5	231	6	
2025-11-11T00:00	680	938	9.0	3.4	231	6	
2025-11-11T00:00	700	936	9.0	3.2	231	6	
2025-11-11T00:00	720	933	9.1	2.7	232	6	
2025-11-11T00:00	740	931	9.0	2.6	233	6	
2025-11-11T00:00	760	929	8.8	2.5	236	6	
2025-11-11T00:00	780	927	8.6	2.5	239	5	
2025-11-11T00:00	800	925	8.5	2.5	242	5	
2025-11-11T00:00	820	922	8.3	2.3	246	6	
2025-11-11T00:00	840	920	8.3	2.2	249	6	
2025-11-11T00:00	860	918	8.3	1.8	250	6	
2025-11-11T00:00	880	915	8.5	1.5	250	7	
2025-11-11T00:00	900	913	8.7	1.2	250	8	
2025-11-11T00:00	920	911	8.7	0.9	249	8	
2025-11-11T00:00	940	909	8.7	0.6	249	9	
2025-11-11T00:00	960	907	8.8	-0.1	249	9	
2025-11-11T00:00	980	905	9.0	-0.9	249	10	
2025-11-11T00:00	1000	902	9.0	-1.2	250	10	
2025-11-11T00:00	1020	900	8.8	-1.5	250	9	
2025-11-11T00:00	1040	898	8.7	-2.0	250	9	
2025-11-11T00:00	1060	896	8.7	-2.5	250	9	
2025-11-11T00:00	1080	894	8.8	-1.3	249	9	
2025-11-11T00:00	1100	891	8.8	-0.7	249	8	
2025-11-11T00:00	1120	889	8.6	-0.5	248	8	
2025-11-11T00:00	1140	887	8.5	0.0	247	8	
2025-11-11T00:00	1160	885	8.3	0.1	246	8	
2025-11-11T00:00	1180	883	8.1	0.5	246	9	
2025-11-11T00:00	1200	881	7.9	0.6	246	9	
2025-11-11T00:00	1220	879	7.7	1.1	246	9	
2025-11-11T00:00	1240	877	7.6	1.8	246	9	
2025-11-11T00:00	1260	874	7.4	1.9	246	9	
2025-11-11T00:00	1280	872	7.2	1.8	247	9	
2025-11-11T00:00	1300	870	7.0	1.9	248	9	
2025-11-11T00:00	1320	868	6.9	2.1	249	9	
2025-11-11T00:00	1340	866	6.7	2.4	249	8	
2025-11-11T00:00	1360	864	6.5	2.6	249	8	
2025-11-11T00:00	1380	862	6.3	2.6	249	8	
2025-11-11T00:00	1400	860	6.1	2.6	248	8	
2025-11-11T00:00	1420	857	5.9	2.6	248	8	
2025-11-11T00:00	1440	856	5.8	2.6	247	9	
2025-11-11T00:00	1460	853	5.7	2.7	246	9	
2025-11-11T00:00	1480	851	5.6	2.8	244	9	
2025-11-11T00:00	1500	849	5.4	2.7	243	9	
2025-11-11T00:00	1520	847	5.3	2.5	243	9	
2025-11-11T00:00	1540	845	5.1	2.4	242	8	
2025-11-11T00:00	1560	843	4.9	1.7	242	8	
2025-11-11T00:00	1580	841	4.8	1.4	243	8	
2025-11-11T00:00	1600	839	4.7	0.8	243	8	
2025-11-11T00:00	1620	837	4.5	0.7	244	8	
2025-11-11T00:00	1640	835	4.3	0.7	245	8	
2025-11-11T00:00	1660	833	4.1	0.6	245	8	
2025-11-11T00:00	1680	830	4.0	0.5	243	9	
2025-11-11T00:00	1700	829	3.8	0.2	242	9	
2025-11-11T00:00	1720	827	3.8	-0.6	240	9	
2025-11-11T00:00	1740	825	3.8	-0.9	237	10	
2025-11-11T00:00	1760	823	3.6	-1.0	236	10	
2025-11-11T00:00	1780	821	3.5	-1.0	235	10	
2025-11-11T00:00	1800	819	3.4	-1.2	234	10	
2025-11-11T00:00	1820	816	3.4	-2.3	234	10	
2025-11-11T00:00	1840	814	3.3	-2.5	234	9	
2025-11-11T00:00	1860	813	3.1	-2.7	235	9	
2025-11-11T00:00	1880	811	3.0	-3.2	235	9	
2025-11-11T00:00	1900	809	2.8	-4.2	234	9	
2025-11-11T00:00	1920	806	2.8	-7.2	233	9	
2025-11-11T00:00	1940	804	2.8	-8.5	233	9	
2025-11-11T00:00	1960	802	2.6	-8.6	233	10	
2025-11-11T00:00	1980	800	2.5	-8.8	233	10	
2025-11-11T00:00	2000	798	2.4	-9.1	234	10	
2025-11-11T00:00	2020	796	2.4	-9.2	234	10	
2025-11-11T00:00	2040	795	2.5	-9.0	233	10	
2025-11-11T00:00	2060	793	2.4	-8.9	232	11	
2025-11-11T00:00	2080	791	2.4	-8.8	230	11	
2025-11-11T00:00	2100	789	2.3	-8.7	228	11	
2025-11-11T00:00	2120	787	2.1	-8.8	227	11	
2025-11-11T00:00	2140	785	2.0	-8.9	226	11	
2025-11-11T00:00	2160	783	1.9	-8.9	226	10	
2025-11-11T00:00	2180	781	1.7	-8.7	225	10	
2025-11-11T00:00	2200	779	1.5	-8.4	225	10	
2025-11-11T00:00	2220	777	1.4	-8.4	224	10	
2025-11-11T00:00	2240	775	1.2	-8.5	224	10	
2025-11-11T00:00	2260	773	1.2	-8.7	225	10	
2025-11-11T00:00	2280	771	1.2	-8.7	226	10	
2025-11-11T00:00	2300	769	1.1	-8.6	227	10	
2025-11-11T00:00	2320	768	1.0	-9.2	228	10	
2025-11-11T00:00	2340	766	0.9	-10.2	230	10	
2025-11-11T00:00	2360	764	0.8	-10.4	231	10	
2025-11-11T00:00	2380	762	0.6	-10.8	233	10	
2025-11-11T00:00	2400	760	0.4	-11.3	234	10	
2025-11-11T00:00	2420	758	0.3	-11.6	235	10	
2025-11-11T00:00	2440	756	0.2	-12.4	237	10	
2025-11-11T00:00	2460	754	0.0	-12.8	238	10	
2025-11-11T00:00	2480	752	-0.1	-13.1	240	10	
2025-11-11T00:00	2500	750	-0.1	-13.2	242	10	
2025-11-11T00:00	2520	748	-0.3	-13.1	243	10	
2025-11-11T00:00	2540	747	-0.4	-12.8	243	10	
2025-11-11T00:00	2560	745	-0.6	-12.3	244	10	
2025-11-11T00:00	2580	743	-0.6	-11.8	244	11	
2025-11-11T00:00	2600	741	-0.6	-11.8	244	11	
2025-11-11T00:00	2620	739	-0.8	-11.6	244	11	
2025-11-11T00:00	2640	737	-0.9	-11.5	244	11	
2025-11-11T00:00	2660	735	-1.0	-11.6	245	12	
2025-11-11T00:00	2680	734	-1.1	-11.2	246	12	
2025-11-11T00:00	2700	732	-1.1	-9.5	247	12	
2025-11-11T00:00	2720	730	-1.2	-8.2	248	11	
2025-11-11T00:00	2740	728	-1.3	-8.4	248	11	
2025-11-11T00:00	2760	726	-1.4	-8.9	248	11	
2025-11-11T00:00	2780	724	-1.6	-9.2	248	11	
2025-11-11T00:00	2800	723	-1.7	-9.1	248	11	
2025-11-11T00:00	2820	721	-1.9	-9.1	248	11	
2025-11-11T00:00	2840	719	-2.1	-9.2	249	11	
2025-11-11T00:00	2860	717	-2.3	-9.2	249	11	
2025-11-11T00:00	2880	715	-2.5	-8.9	250	11	
2025-11-11T00:00	2900	714	-2.7	-8.7	251	11	
2025-11-11T00:00	2920	712	-2.9	-8.7	253	11	
2025-11-11T00:00	2940	710	-3.1	-8.5	255	11	
2025-11-11T00:00	2960	708	-3.2	-8.2	257	11	
2025-11-11T00:00	2980	706	-3.3	-6.2	259	11	
2025-11-11T00:00	3000	705	-3.5	-5.3	262	12	
2025-11-11T00:00	3020	703	-3.6	-4.8	264	12	
2025-11-11T00:00	3040	701	-3.7	-4.5	266	12	
2025-11-11T00:00	3060	699	-3.8	-4.6	266	12	
2025-11-11T00:00	3080	698	-4.0	-4.6	266	13	
2025-11-11T00:00	3100	696	-4.1	-4.7	264	13	
2025-11-11T00:00	3120	694	-4.3	-5.0	263	13	
2025-11-11T00:00	3140	692	-4.4	-5.1	262	13	
2025-11-11T00:00	3160	691	-4.5	-5.3	261	13	
2025-11-11T00:00	3180	689	-4.6	-5.4	260	13	
2025-11-11T00:00	3200	687	-4.8	-5.4	260	13	
2025-11-11T00:00	3220	685	-5.0	-5.4	260	13	
2025-11-11T00:00	3240	684	-5.1	-5.8	261	13	
2025-11-11T00:00	3260	682	-5.0	-6.5	261	13	
2025-11-11T00:00	3280	680	-4.8	-7.1	261	13	
2025-11-11T00:00	3300	678	-5.0	-7.2	262	13	
2025-11-11T00:00	3320	677	-5.2	-7.2	261	13	
2025-11-11T00:00	3340	675	-5.3	-7.3	261	13	
2025-11-11T00:00	3360	673	-5.5	-7.5	261	13	
2025-11-11T00:00	3380	671	-5.6	-7.6	260	13	
2025-11-11T00:00	3400	670	-5.7	-7.8	260	13	
2025-11-11T00:00	3420	668	-5.9	-7.9	261	13	
2025-11-11T00:00	3440	666	-6.1	-7.9	261	13	
2025-11-11T00:00	3460	665	-6.3	-7.9	262	13	
2025-11-11T00:00	3480	663	-6.5	-8.0	263	13	
2025-11-11T00:00	3500	661	-6.7	-7.9	263	12	
2025-11-11T00:00	3520	660	-6.9	-8.1	262	12	
2025-11-11T00:00	3540	658	-7.0	-8.1	261	12	
2025-11-11T00:00	3560	656	-7.2	-8.2	259	11	
2025-11-11T00:00	3580	655	-7.4	-8.2	256	11	
2025-11-11T00:00	3600	653	-7.6	-8.3	254	12	
2025-11-11T00:00	3620	651	-7.8	-8.3	252	12	
2025-11-11T00:00	3640	650	-8.0	-8.4	252	13	
2025-11-11T00:00	3660	648	-8.1	-8.4	252	13	
2025-11-11T00:00	3680	646	-8.3	-8.5	252	14	
2025-11-11T00:00	3700	644	-8.5	-8.6	252	14	
2025-11-11T00:00	3720	643	-8.7	-8.7	252	14	
2025-11-11T00:00	3740	641	-8.8	-8.8	252	13	
2025-11-11T00:00	3760	640	-8.9	-8.9	252	13	
2025-11-11T00:00	3780	638	-9.1	-9.1	252	13	
2025-11-11T00:00	3800	636	-9.2	-9.2	253	13	
2025-11-11T00:00	3820	635	-9.3	-9.3	254	13	
2025-11-11T00:00	3840	633	-9.4	-9.4	254	14	
2025-11-11T00:00	3860	631	-9.5	-9.5	255	14	
2025-11-11T00:00	3880	630	-9.7	-9.7	255	15	
2025-11-11T00:00	3900	628	-9.8	-9.8	255	15	
2025-11-11T00:00	3920	626	-10.0	-10.0	255	15	
2025-11-11T00:00	3940	625	-10.2	-10.2	254	14	
2025-11-11T00:00	3960	623	-10.4	-10.4	254	14	
2025-11-11T00:00	3980	622	-10.6	-10.8	255	13	
2025-11-11T00:00	4000	620	-10.1	-12.3	257	13	
2025-11-11T00:00	4020	618	-10.1	-13.4	259	13	
2025-11-11T00:00	4040	617	-10.1	-13.6	260	13	
2025-11-11T00:00	4060	615	-10.3	-13.9	261	14	
2025-11-11T00:00	4080	614	-10.3	-14.1	261	14	
2025-11-11T00:00	4100	612	-10.4	-14.7	261	14	
2025-11-11T00:00	4120	610	-10.5	-15.9	261	14	
2025-11-11T00:00	4140	609	-10.5	-16.4	260	14	
2025-11-11T00:00	4160	607	-10.3	-16.6	260	14	
2025-11-11T00:00	4180	606	-10.2	-18.0	260	15	
2025-11-11T00:00	4200	604	-10.0	-18.9	261	15	
2025-11-11T00:00	4220	603	-10.1	-19.5	262	15	
2025-11-11T00:00	4240	601	-10.0	-20.5	263	15	
2025-11-11T00:00	4260	600	-10.1	-21.2	265	15	
2025-11-11T00:00	4280	598	-10.2	-22.0	266	15	
2025-11-11T00:00	4300	596	-10.4	-22.5	267	15	
2025-11-11T00:00	4320	595	-10.5	-23.0	267	15	
2025-11-11T00:00	4340	593	-10.7	-23.3	267	15	
2025-11-11T00:00	4360	592	-10.8	-23.6	267	15	
2025-11-11T00:00	4380	590	-11.0	-23.8	266	15	
2025-11-11T00:00	4400	589	-11.2	-23.9	266	15	
2025-11-11T00:00	4420	587	-11.3	-23.7	266	15	
2025-11-11T00:00	4440	586	-11.5	-24.0	266	15	
2025-11-11T00:00	4460	584	-11.7	-24.0	267	16	
2025-11-11T00:00	4480	583	-11.8	-24.3	267	16	
2025-11-11T00:00	4500	581	-11.9	-24.9	268	16	
2025-11-11T00:00	4520	580	-12.0	-25.4	268	16	
2025-11-11T00:00	4540	578	-12.1	-26.1	270	16	
2025-11-11T00:00	4560	576	-12.2	-28.8	270	15	
2025-11-11T00:00	4580	575	-12.1	-32.4	271	15	
2025-11-11T00:00	4600	573	-12.2	-33.1	272	15	
2025-11-11T00:00	4620	572	-12.3	-34.2	272	14	
2025-11-11T00:00	4640	570	-12.3	-37.0	272	14	
2025-11-11T00:00	4660	569	-12.3	-36.5	272	14	
2025-11-11T00:00	4680	568	-12.4	-31.7	271	14	
2025-11-11T00:00	4700	566	-12.6	-28.4	271	14	
2025-11-11T00:00	4720	564	-12.6	-29.9	270	14	
2025-11-11T00:00	4740	563	-12.6	-33.4	270	15	
2025-11-11T00:00	4760	562	-12.6	-35.1	270	15	
2025-11-11T00:00	4780	560	-12.8	-33.8	270	15	
2025-11-11T00:00	4800	559	-12.9	-31.5	269	15	
2025-11-11T00:00	4820	557	-13.1	-29.3	268	15	
2025-11-11T00:00	4840	556	-13.2	-28.7	268	14	
2025-11-11T00:00	4860	554	-13.4	-29.2	267	14	
2025-11-11T00:00	4880	553	-13.5	-29.5	266	14	
2025-11-11T00:00	4900	551	-13.6	-30.2	266	14	
2025-11-11T00:00	4920	550	-13.8	-30.8	266	14	
2025-11-11T00:00	4940	548	-13.9	-31.0	267	14	
2025-11-11T00:00	4960	547	-14.1	-30.7	267	14	
2025-11-11T00:00	4980	545	-14.3	-30.1	268	14	
2025-11-11T00:00	5000	544	-14.5	-30.2	268	13	
2025-11-11T00:00	5020	543	-14.7	-30.1	269	13	
2025-11-11T00:00	5040	541	-14.8	-29.9	270	13	
2025-11-11T00:00	5060	540	-15.0	-29.7	272	14	
2025-11-11T00:00	5080	538	-15.2	-29.5	274	14	
2025-11-11T00:00	5100	537	-15.3	-28.9	275	14	
2025-11-11T00:00	5120	535	-15.5	-28.6	277	14	
2025-11-11T00:00	5140	534	-15.7	-28.1	278	14	
2025-11-11T00:00	5160	533	-15.8	-27.9	278	15	
2025-11-11T00:00	5180	531	-16.0	-28.0	279	15	
2025-11-11T00:00	5200	530	-16.2	-27.5	279	15	
2025-11-11T00:00	5220	529	-16.3	-26.3	279	15	
2025-11-11T00:00	5240	527	-16.5	-26.7	279	15	
2025-11-11T00:00	5260	526	-16.3	-27.9	279	16	
2025-11-11T00:00	5280	524	-16.3	-28.3	279	17	
2025-11-11T00:00	5300	523	-16.3	-29.3	279	17	
2025-11-11T00:00	5320	521	-16.4	-29.4	278	18	
2025-11-11T00:00	5340	520	-16.4	-29.7	278	18	
2025-11-11T00:00	5360	519	-16.5	-29.4	277	19	
2025-11-11T00:00	5380	517	-16.7	-29.3	276	19	
2025-11-11T00:00	5400	516	-16.9	-29.7	276	19	
2025-11-11T00:00	5420	515	-17.0	-29.5	275	19	
2025-11-11T00:00	5440	513	-17.2	-29.9	275	19	
2025-11-11T00:00	5460	512	-17.4	-30.1	275	18	
2025-11-11T00:00	5480	511	-17.5	-30.3	276	18	
2025-11-11T00:00	5500	509	-17.7	-30.6	276	17	
2025-11-11T00:00	5520	508	-17.8	-31.1	276	16	
2025-11-11T00:00	5540	506	-18.0	-31.3	277	16	
2025-11-11T00:00	5560	505	-18.1	-31.8	277	15	
2025-11-11T00:00	5580	504	-18.2	-32.0	277	15	
2025-11-11T00:00	5600	502	-18.4	-32.2	278	14	
2025-11-11T00:00	5620	501	-18.5	-32.3	278	14	
2025-11-11T00:00	5640	500	-18.7	-32.4	279	13	
2025-11-11T00:00	5660	498	-18.8	-32.3	280	13	
2025-11-11T00:00	5680	497	-19.0	-32.5	281	13	
2025-11-11T00:00	5700	496	-19.2	-32.6	282	13	
2025-11-11T00:00	5720	494	-19.4	-32.7	283	13	
2025-11-11T00:00	5740	493	-19.6	-32.7	284	13	
2025-11-11T00:00	5760	492	-19.8	-32.7	285	14	
2025-11-11T00:00	5780	490	-19.9	-32.8	287	14	
2025-11-11T00:00	5800	489	-20.1	-32.7	288	14	
2025-11-11T00:00	5820	488	-20.3	-32.6	288	14	
2025-11-11T00:00	5840	486	-20.4	-32.7	289	14	
2025-11-11T00:00	5860	485	-20.5	-33.1	289	15	
2025-11-11T00:00	5880	484	-20.6	-34.6	288	15	
2025-11-11T00:00	5900	482	-20.7	-35.1	287	15	
2025-11-11T00:00	5920	481	-20.8	-35.2	286	15	
2025-11-11T00:00	5940	480	-21.0	-35.2	285	15	
2025-11-11T00:00	5960	479	-21.2	-35.0	283	15	
2025-11-11T00:00	5980	477	-21.4	-34.5	283	16	
2025-11-11T00:00	6000	476	-21.6	-33.7	282	16	
2025-11-11T00:00	6020	475	-21.8	-34.2	283	16	
2025-11-11T00:00	6040	474	-21.9	-34.6	283	16	
2025-11-11T00:00	6060	472	-22.1	-34.5	284	15	
2025-11-11T00:00	6080	471	-22.3	-34.6	285	15	
2025-11-11T00:00	6100	469	-22.5	-35.5	286	16	
2025-11-11T00:00	6120	468	-22.7	-36.1	286	16	
2025-11-11T00:00	6140	467	-22.9	-36.3	285	16	
2025-11-11T00:00	6160	466	-23.1	-36.2	284	16	
2025-11-11T00:00	6180	465	-23.2	-36.1	283	16	
2025-11-11T00:00	6200	463	-23.4	-36.1	282	15	
2025-11-11T00:00	6220	462	-23.6	-36.1	281	15	
2025-11-11T00:00	6240	461	-23.8	-36.1	280	15	
2025-11-11T00:00	6260	459	-24.0	-36.1	280	16	
2025-11-11T00:00	6280	458	-24.2	-36.1	280	16	
2025-11-11T00:00	6300	457	-24.4	-36.4	281	16	
2025-11-11T00:00	6320	456	-24.5	-36.2	281	17	
2025-11-11T00:00	6340	454	-24.6	-38.1	281	17	
2025-11-11T00:00	6360	453	-24.7	-39.0	280	17	
2025-11-11T00:00	6380	452	-24.8	-38.4	280	18	
2025-11-11T00:00	6400	451	-25.0	-37.8	279	18	
2025-11-11T00:00	6420	449	-25.2	-38.2	278	17	
2025-11-11T00:00	6440	448	-25.4	-38.4	277	17	
2025-11-11T00:00	6460	447	-25.6	-38.6	276	17	
2025-11-11T00:00	6480	446	-25.8	-38.9	275	17	
2025-11-11T00:00	6500	444	-25.9	-39.6	275	17	
2025-11-11T00:00	6520	443	-26.1	-40.4	275	16	
2025-11-11T00:00	6540	442	-26.2	-39.7	276	16	
2025-11-11T00:00	6560	441	-26.4	-38.4	276	16	
2025-11-11T00:00	6580	440	-26.5	-38.0	277	16	
2025-11-11T00:00	6600	438	-26.7	-37.3	278	17	
2025-11-11T00:00	6620	437	-26.9	-37.3	278	17	
2025-11-11T00:00	6640	436	-27.1	-37.4	279	17	
2025-11-11T00:00	6660	435	-27.3	-37.0	279	17	
2025-11-11T00:00	6680	433	-27.5	-36.3	279	18	
2025-11-11T00:00	6700	432	-27.7	-35.8	280	18	
2025-11-11T00:00	6720	431	-27.9	-35.8	280	18	
2025-11-11T00:00	6740	430	-28.1	-36.0	279	18	
2025-11-11T00:00	6760	429	-28.2	-36.1	279	18	
2025-11-11T00:00	6780	428	-28.4	-36.2	279	18	
2025-11-11T00:00	6800	426	-28.6	-36.4	278	18	
2025-11-11T00:00	6820	425	-28.8	-36.7	277	17	
2025-11-11T00:00	6840	424	-29.0	-37.1	277	17	
2025-11-11T00:00	6860	423	-29.1	-37.1	276	17	
2025-11-11T00:00	6880	422	-29.3	-37.2	276	17	
2025-11-11T00:00	6900	420	-29.5	-37.3	275	17	
2025-11-11T00:00	6920	419	-29.7	-37.5	275	16	
2025-11-11T00:00	6940	418	-29.9	-37.3	275	16	
2025-11-11T00:00	6960	417	-30.1	-36.9	275	16	
2025-11-11T00:00	6980	416	-30.3	-37.1	275	16	
2025-11-11T00:00	7000	415	-30.4	-37.5	276	16	
2025-11-11T00:00	7020	413	-30.6	-37.8	276	17	
2025-11-11T00:00	7040	412	-30.8	-38.2	277	17	
2025-11-11T00:00	7060	411	-31.0	-38.3	277	17	
2025-11-11T00:00	7080	410	-31.1	-38.7	277	17	
2025-11-11T00:00	7100	409	-31.2	-39.5	277	17	
2025-11-11T00:00	7120	407	-31.4	-39.7	276	17	
2025-11-11T00:00	7140	406	-31.6	-39.5	276	17	
2025-11-11T00:00	7160	405	-31.8	-39.8	276	16	
2025-11-11T00:00	7180	404	-31.9	-40.0	276	16	
2025-11-11T00:00	7200	403	-32.1	-40.1	277	16	
2025-11-11T00:00	7220	402	-32.3	-40.2	277	16	
2025-11-11T00:00	7240	401	-32.5	-40.5	278	16	
2025-11-11T00:00	7260	400	-32.7	-40.9	278	16	
2025-11-11T00:00	7280	398	-32.8	-41.1	278	16	
2025-11-11T00:00	7300	397	-33.0	-41.3	278	16	
2025-11-11T00:00	7320	396	-33.2	-41.5	277	15	
2025-11-11T00:00	7340	395	-33.4	-41.7	276	15	
2025-11-11T00:00	7360	394	-33.5	-42.0	276	15	
2025-11-11T00:00	7380	393	-33.7	-42.6	275	15	
2025-11-11T00:00	7400	392	-33.9	-43.0	274	14	
2025-11-11T00:00	7420	390	-34.1	-42.7	274	14	
2025-11-11T00:00	7440	389	-34.3	-42.7	274	14	
2025-11-11T00:00	7460	388	-34.5	-42.9	275	14	
2025-11-11T00:00	7480	387	-34.7	-43.1	275	14	
2025-11-11T00:00	7500	386	-34.8	-43.3	276	14	
2025-11-11T00:00	7520	385	-35.0	-43.8	277	14	
2025-11-11T00:00	7540	384	-35.1	-43.8	277	15	
2025-11-11T00:00	7560	383	-35.3	-43.9	277	15	
2025-11-11T00:00	7580	382	-35.5	-43.9	277	16	
2025-11-11T00:00	7600	381	-35.7	-43.8	277	16	
2025-11-11T00:00	7620	380	-35.9	-43.9	277	17	
2025-11-11T00:00	7640	378	-36.1	-44.0	276	17	
2025-11-11T00:00	7660	377	-36.2	-44.7	276	17	
2025-11-11T00:00	7680	376	-36.3	-45.1	276	17	
2025-11-11T00:00	7700	375	-36.5	-45.5	276	16	
2025-11-11T00:00	7720	374	-36.6	-45.8	277	16	
2025-11-11T00:00	7740	373	-36.8	-45.5	277	16	
2025-11-11T00:00	7760	372	-37.0	-45.3	277	16	
2025-11-11T00:00	7780	371	-37.1	-45.4	278	16	
2025-11-11T00:00	7800	370	-37.3	-45.4	278	16	
2025-11-11T00:00	7820	369	-37.5	-45.5	279	16	
2025-11-11T00:00	7840	368	-37.7	-45.7	279	17	
2025-11-11T00:00	7860	367	-37.9	-45.8	279	17	
2025-11-11T00:00	7880	365	-38.1	-45.8	280	17	
2025-11-11T00:00	7900	364	-38.3	-45.8	280	17	
2025-11-11T00:00	7920	363	-38.5	-45.8	280	18	
2025-11-11T00:00	7940	362	-38.7	-46.0	280	18	
2025-11-11T00:00	7960	361	-38.9	-45.9	279	18	
2025-11-11T00:00	7980	360	-39.1	-45.8	279	18	
2025-11-11T00:00	8000	359	-39.3	-45.8	278	18	
2025-11-11T00:00	8020	358	-39.5	-45.8	278	18	
2025-11-11T00:00	8040	357	-39.7	-45.9	277	18	
2025-11-11T00:00	8060	356	-39.9	-45.9	277	18	
2025-11-11T00:00	8080	355	-40.1	-46.0	278	19	
2025-11-11T00:00	8100	354	-40.2	-46.4	278	19	
2025-11-11T00:00	8120	353	-40.4	-46.7	279	19	
2025-11-11T00:00	8140	352	-40.6	-47.1	279	19	
2025-11-11T00:00	8160	351	-40.8	-47.5	280	19	
2025-11-11T00:00	8180	350	-41.0	-47.9	281	19	
2025-11-11T00:00	8200	349	-41.2	-48.3	281	19	
2025-11-11T00:00	8220	348	-41.3	-48.5	281	19	
2025-11-11T00:00	8240	347	-41.6	-48.4	281	18	
2025-11-11T00:00	8260	346	-41.8	-48.5	281	18	
2025-11-11T00:00	8280	345	-41.9	-48.5	281	18	
2025-11-11T00:00	8300	344	-42.1	-48.5	281	18	
2025-11-11T00:00	8320	343	-42.3	-48.6	282	18	
2025-11-11T00:00	8340	342	-42.5	-48.6	282	18	
2025-11-11T00:00	8360	341	-42.7	-48.6	282	18	
2025-11-11T00:00	8380	340	-42.9	-48.9	283	18	
2025-11-11T00:00	8400	339	-43.1	-49.3	283	18	
2025-11-11T00:00	8420	338	-43.2	-50.0	284	19	
2025-11-11T00:00	8440	337	-43.5	-49.8	284	19	
2025-11-11T00:00	8460	336	-43.6	-50.1	285	19	
2025-11-11T00:00	8480	335	-43.8	-50.4	285	19	
2025-11-11T00:00	8500	334	-44.0	-50.2	284	18	
2025-11-11T00:00	8520	333	-44.2	-50.0	284	18	
2025-11-11T00:00	8540	332	-44.4	-50.2	283	18	
2025-11-11T00:00	8560	331	-44.6	-50.6	282	18	
2025-11-11T00:00	8580	330	-44.8	-50.8	282	18	
2025-11-11T00:00	8600	329	-45.0	-51.1	282	18	
2025-11-11T00:00	8620	328	-45.1	-51.2	283	18	
2025-11-11T00:00	8640	327	-45.3	-51.3	283	18	
2025-11-11T00:00	8660	326	-45.5	-51.4	284	18	
2025-11-11T00:00	8680	325	-45.7	-51.5	284	18	
2025-11-11T00:00	8700	324	-45.9	-51.6	284	18	
2025-11-11T00:00	8720	323	-46.1	-51.6	284	18	
2025-11-11T00:00	8740	322	-46.2	-51.6	284	18	
2025-11-11T00:00	8760	321	-46.4	-51.7	284	18	
2025-11-11T00:00	8780	320	-46.6	-52.0	283	18	
2025-11-11T00:00	8800	319	-46.8	-52.0	283	18	
2025-11-11T00:00	8820	318	-47.0	-52.0	283	18	
2025-11-11T00:00	8840	317	-47.2	-52.1	282	18	
2025-11-11T00:00	8860	316	-47.3	-52.3	282	18	
2025-11-11T00:00	8880	315	-47.5	-52.6	282	19	
2025-11-11T00:00	8900	314	-47.7	-52.5	282	19	
2025-11-11T00:00	8920	313	-47.9	-52.5	282	19	
2025-11-11T00:00	8940	312	-48.0	-52.7	282	19	
2025-11-11T00:00	8960	311	-48.2	-52.7	282	20	
2025-11-11T00:00	8980	310	-48.4	-52.8	282	20	
2025-11-11T00:00	9000	309	-48.6	-53.0	282	20	
2025-11-11T00:00	9020	309	-48.8	-53.2	282	20	
2025-11-11T00:00	9040	308	-48.9	-53.5	282	20	
2025-11-11T00:00	9060	307	-49.1	-53.5	282	20	
2025-11-11T00:00	9080	306	-49.3	-53.5	282	20	
2025-11-11T00:00	9100	305	-49.5	-53.6	282	21	
2025-11-11T00:00	9120	304	-49.7	-53.6	282	21	
2025-11-11T00:00	9140	303	-49.9	-53.6	282	21	
2025-11-11T00:00	9160	302	-50.1	-53.7	282	21	
2025-11-11T00:00	9180	301	-50.2	-53.8	281	21	
2025-11-11T00:00	9200	300	-50.4	-54.0	281	21	
2025-11-11T00:00	9220	299	-50.6	-54.2	281	21	
2025-11-11T00:00	9240	298	-50.7	-54.6	281	21	
2025-11-11T00:00	9260	297	-50.9	-55.0	281	21	
2025-11-11T00:00	9280	296	-51.1	-55.3	281	21	
2025-11-11T00:00	9300	296	-51.3	-55.6	281	21	
2025-11-11T00:00	9320	295	-51.4	-56.1	281	21	
2025-11-11T00:00	9340	294	-51.5	-56.3	280	21	
2025-11-11T00:00	9360	293	-51.8	-56.3	280	21	
2025-11-11T00:00	9380	292	-51.9	-56.3	280	22	
2025-11-11T00:00	9400	291	-52.1	-56.4	280	22	
2025-11-11T00:00	9420	290	-52.3	-56.7	281	22	
2025-11-11T00:00	9440	289	-52.5	-56.9	281	22	
2025-11-11T00:00	9460	288	-52.6	-57.0	282	22	
2025-11-11T00:00	9480	288	-52.8	-57.5	282	22	
2025-11-11T00:00	9500	287	-53.0	-58.1	283	23	
2025-11-11T00:00	9520	286	-53.1	-58.1	283	23	
2025-11-11T00:00	9540	285	-53.3	-58.0	283	23	
2025-11-11T00:00	9560	284	-53.4	-58.1	283	23	
2025-11-11T00:00	9580	283	-53.5	-58.2	284	23	
2025-11-11T00:00	9600	282	-53.7	-58.3	284	23	
2025-11-11T00:00	9620	281	-53.8	-58.4	284	22	
2025-11-11T00:00	9640	280	-53.8	-58.6	284	22	
2025-11-11T00:00	9660	280	-53.9	-58.8	284	22	
2025-11-11T00:00	9680	279	-54.0	-59.1	284	22	
2025-11-11T00:00	9700	278	-54.0	-59.4	284	22	
2025-11-11T00:00	9720	277	-54.2	-59.7	284	21	
2025-11-11T00:00	9740	276	-54.3	-60.0	283	20	
2025-11-11T00:00	9760	275	-54.4	-60.5	282	20	
2025-11-11T00:00	9780	274	-54.4	-60.9	281	20	
2025-11-11T00:00	9800	274	-54.6	-61.2	280	20	
2025-11-11T00:00	9820	273	-54.7	-61.2	279	19	
2025-11-11T00:00	9840	272	-54.9	-61.2	278	19	
2025-11-11T00:00	9860	271	-55.0	-61.3	278	20	
2025-11-11T00:00	9880	270	-55.2	-61.3	278	20	
2025-11-11T00:00	9900	269	-55.4	-61.3	278	19	
2025-11-11T00:00	9920	268	-55.6	-61.2	277	20	
2025-11-11T00:00	9940	267	-55.8	-61.1	277	20	
2025-11-11T00:00	9960	267	-55.9	-61.0	277	20	
2025-11-11T00:00	9980	266	-56.1	-60.8	276	20	
2025-11-11T00:00	10000	265	-56.3	-60.7	276	20	
2025-11-11T00:00	10018	264	-56.4	-60.6	276	20	
2025-11-11T00:00	10050	263	-56.7	-60.7	275	20	
2025-11-11T00:00	10100	261	-57.2	-61.0	274	20	
2025-11-11T00:00	10150	259	-57.6	-61.7	273	20	
2025-11-11T00:00	10200	257	-58.0	-62.5	273	20	
2025-11-11T00:00	10250	255	-58.3	-62.9	273	20	
2025-11-11T00:00	10300	253	-58.4	-63.4	273	20	
2025-11-11T00:00	10350	251	-58.3	-64.4	273	19	
2025-11-11T00:00	10400	249	-58.3	-64.9	273	19	
2025-11-11T00:00	10450	247	-58.7	-65.1	273	19	
2025-11-11T00:00	10500	245	-59.1	-64.9	270	18	
2025-11-11T00:00	10550	243	-59.5	-64.9	266	17	
2025-11-11T00:00	10600	241	-59.9	-64.9	263	16	
2025-11-11T00:00	10650	239	-60.3	-65.2	261	15	
2025-11-11T00:00	10700	237	-60.7	-65.4	260	16	
2025-11-11T00:00	10750	235	-61.1	-65.5	260	16	
2025-11-11T00:00	10800	233	-61.5	-65.5	259	16	
2025-11-11T00:00	10850	231	-62.0	-65.6	257	16	
2025-11-11T00:00	10900	230	-62.4	-65.7	256	17	
2025-11-11T00:00	10950	228	-62.9	-65.9	254	17	
2025-11-11T00:00	11000	226	-63.3	-66.6	253	18	
2025-11-11T00:00	11050	224	-63.7	-67.2	254	19	
2025-11-11T00:00	11100	222	-64.0	-67.9	256	20	
2025-11-11T00:00	11150	220	-64.2	-68.3	260	20	
2025-11-11T00:00	11200	219	-64.6	-68.4	263	21	
2025-11-11T00:00	11250	217	-64.9	-68.5	264	21	
2025-11-11T00:00	11300	215	-65.1	-68.8	266	22	
2025-11-11T00:00	11350	213	-65.3	-69.1	267	24	
2025-11-11T00:00	11400	211	-65.5	-69.4	269	26	
2025-11-11T00:00	11450	210	-65.6	-69.7	271	28	
2025-11-11T00:00	11500	208	-65.4	-70.1	273	28	
2025-11-11T00:00	11550	206	-65.0	-71.7	275	26	
2025-11-11T00:00	11600	205	-63.7	-72.9	276	23	
2025-11-11T00:00	11650	203	-62.5	-74.5	276	21	
2025-11-11T00:00	11700	201	-62.6	-76.1	276	18	
2025-11-11T00:00	11750	200	-62.3	-76.1	273	16	
2025-11-11T00:00	11800	198	-62.0	-77.1	265	14	
2025-11-11T00:00	11850	197	-61.4	-77.4	256	14	
2025-11-11T00:00	11900	195	-61.7	-77.6	252	15	
2025-11-11T00:00	11950	193	-62.1	-77.1	251	16	
2025-11-11T00:00	12000	192	-62.4	-77.0	251	17	
2025-11-11T00:00	12050	190	-62.6	-77.1	253	18	
2025-11-11T00:00	12100	189	-62.7	-77.7	256	19	
2025-11-11T00:00	12150	187	-62.5	-78.7	261	20	
2025-11-11T00:00	12200	186	-62.0	-79.6	266	20	
2025-11-11T00:00	12250	184	-61.9	-79.9	271	19	
2025-11-11T00:00	12300	183	-62.0	-79.7	275	18	
2025-11-11T00:00	12350	181	-62.0	-79.6	277	17	
2025-11-11T00:00	12400	180	-61.8	-79.4	279	16	
2025-11-11T00:00	12450	178	-61.9	-79.4	279	16	
2025-11-11T00:00	12500	177	-61.9	-79.6	278	16	
2025-11-11T00:00	12550	176	-61.5	-79.9	275	16	
2025-11-11T00:00	12600	174	-60.9	-80.3	272	15	
2025-11-11T00:00	12650	173	-60.5	-80.8	267	13	
2025-11-11T00:00	12700	171	-60.7	-81.2	261	12	
2025-11-11T00:00	12750	170	-60.7	-81.2	256	12	
2025-11-11T00:00	12800	169	-61.0	-81.2	254	13	
2025-11-11T00:00	12850	167	-61.2	-81.2	254	14	
2025-11-11T00:00	12900	166	-61.5	-81.1	254	16	
2025-11-11T00:00	12950	165	-61.8	-81.3	255	17	
2025-11-11T00:00	13000	163	-61.8	-81.5	257	17	
2025-11-11T00:00	13050	162	-61.3	-81.6	257	18	
2025-11-11T00:00	13100	161	-60.9	-81.7	257	19	
2025-11-11T00:00	13150	159	-60.9	-81.8	258	19	
2025-11-11T00:00	13200	158	-60.9	-82.0	260	19	
2025-11-11T00:00	13250	157	-60.7	-82.1	262	19	
2025-11-11T00:00	13300	156	-60.7	-82.1	262	17	
2025-11-11T00:00	13350	154	-60.4	-82.1	262	15	
2025-11-11T00:00	13400	153	-60.3	-82.3	261	14	
2025-11-11T00:00	13450	152	-60.2	-82.3	259	13	
2025-11-11T00:00	13500	151	-59.8	-82.2	256	13	
2025-11-11T00:00	13550	149	-59.9	-82.2	252	14	
2025-11-11T00:00	13600	148	-59.9	-82.2	248	15	
2025-11-11T00:00	13650	147	-59.8	-82.1	245	16	
2025-11-11T00:00	13700	146	-59.7	-82.2	246	16	
2025-11-11T00:00	13750	145	-59.2	-82.0	249	17	
2025-11-11T00:00	13800	144	-59.2	-82.2	253	17	
2025-11-11T00:00	13850	142	-59.3	-82.2	254	18	
2025-11-11T00:00	13900	141	-59.3	-82.2	252	18	
2025-11-11T00:00	13950	140	-59.4	-82.3	248	18	
2025-11-11T00:00	14000	139	-59.4	-82.3	243	17	
2025-11-11T00:00	14050	138	-59.5	-82.4	240	18	
2025-11-11T00:00	14100	137	-59.6	-82.5	241	19	
2025-11-11T00:00	14150	136	-59.7	-82.6	244	19	
2025-11-11T00:00	14200	135	-59.4	-82.6	248	20	
2025-11-11T00:00	14250	134	-59.4	-82.6	251	20	
2025-11-11T00:00	14300	133	-59.4	-82.7	252	21	
2025-11-11T00:00	14350	131	-59.7	-82.7	254	21	
2025-11-11T00:00	14400	130	-59.9	-82.9	255	22	
2025-11-11T00:00	14450	129	-59.7	-82.8	257	22	
2025-11-11T00:00	14500	128	-59.7	-82.9	258	22	
2025-11-11T00:00	14550	127	-59.9	-83.2	261	21	
2025-11-11T00:00	14600	126	-59.3	-82.9	263	19	
2025-11-11T00:00	14650	125	-59.2	-83.0	264	18	
2025-11-11T00:00	14700	124	-59.6	-83.0	264	17	
2025-11-11T00:00	14750	123	-60.0	-83.1	263	17	
2025-11-11T00:00	14800	122	-60.4	-83.2	264	16	
2025-11-11T00:00	14850	121	-60.7	-83.3	263	16	
2025-11-11T00:00	14900	120	-61.1	-83.5	262	16	
2025-11-11T00:00	14950	119	-61.1	-83.6	262	16	
2025-11-11T00:00	15000	118	-61.2	-83.8	263	18	
2025-11-11T00:00	15050	118	-61.0	-84.0	265	18	
2025-11-11T00:00	15100	117	-60.5	-84.0	265	17	
2025-11-11T00:00	15150	116	-59.9	-83.7	264	16	
2025-11-11T00:00	15200	115	-60.1	-83.8	261	15	
2025-11-11T00:00	15250	114	-60.4	-83.8	258	15	
2025-11-11T00:00	15300	113	-60.8	-83.9	255	15	
2025-11-11T00:00	15350	112	-61.3	-84.0	252	15	
2025-11-11T00:00	15400	111	-61.1	-84.1	253	16	
2025-11-11T00:00	15450	110	-60.4	-84.0	256	16	
2025-11-11T00:00	15500	109	-60.3	-84.2	259	15	
2025-11-11T00:00	15550	108	-60.1	-84.1	261	15	
2025-11-11T00:00	15600	108	-60.3	-84.1	260	14	
2025-11-11T00:00	15650	107	-60.2	-84.1	257	13	
2025-11-11T00:00	15700	106	-60.1	-84.2	253	13	
2025-11-11T00:00	15750	105	-60.1	-84.2	250	14	
2025-11-11T00:00	15800	104	-60.4	-84.3	249	14	
2025-11-11T00:00	15850	103	-60.5	-84.4	251	15	
2025-11-11T00:00	15900	103	-60.4	-84.4	254	15	
2025-11-11T00:00	15950	102	-60.3	-84.6	258	15	
2025-11-11T00:00	16000	101	-59.8	-84.4	262	14	
2025-11-11T00:00	16050	100	-59.9	-84.4	265	14	
2025-11-11T00:00	16100	99	-60.1	-84.5	264	13	
2025-11-11T00:00	16150	99	-60.5	-84.5	262	13	
2025-11-11T00:00	16200	98	-60.7	-84.5	258	14	
2025-11-11T00:00	16250	97	-60.9	-84.6	255	15	
2025-11-11T00:00	16300	96	-61.1	-84.7	252	15	
2025-11-11T00:00	16350	95	-61.3	-84.8	250	15	
2025-11-11T00:00	16400	95	-61.4	-85.1	250	15	
2025-11-11T00:00	16450	94	-60.8	-85.1	251	14	
2025-11-11T00:00	16500	93	-60.1	-84.9	254	12	
2025-11-11T00:00	16550	92	-60.1	-85.0	256	11	
2025-11-11T00:00	16600	92	-60.2	-84.9	256	10	
2025-11-11T00:00	16650	91	-60.4	-84.9	252	9	
2025-11-11T00:00	16700	90	-60.6	-84.9	246	9	
2025-11-11T00:00	16750	89	-61.0	-85.1	244	10	
2025-11-11T00:00	16800	89	-61.1	-85.2	246	10	
2025-11-11T00:00	16850	88	-61.0	-85.2	248	10	
2025-11-11T00:00	16900	87	-60.7	-85.3	247	10	
2025-11-11T00:00	16950	87	-60.3	-85.1	243	9	
2025-11-11T00:00	17000	86	-60.7	-85.2	237	10	
2025-11-11T00:00	17050	85	-60.8	-85.3	232	11	
2025-11-11T00:00	17100	85	-60.7	-85.4	230	12	
2025-11-11T00:00	17150	84	-60.3	-85.3	231	14	
2025-11-11T00:00	17200	83	-60.3	-85.4	234	15	
2025-11-11T00:00	17250	83	-60.2	-85.3	236	15	
2025-11-11T00:00	17300	82	-60.4	-85.3	240	15	
2025-11-11T00:00	17350	81	-60.7	-85.4	243	16	
2025-11-11T00:00	17400	81	-60.9	-85.5	244	15	
2025-11-11T00:00	17450	80	-60.8	-85.5	243	14	
2025-11-11T00:00	17500	79	-60.8	-85.7	245	13	
2025-11-11T00:00	17550	79	-60.4	-85.8	247	13	
2025-11-11T00:00	17600	78	-59.6	-85.5	248	14	
2025-11-11T00:00	17650	77	-59.7	-85.6	249	15	
2025-11-11T00:00	17700	77	-59.6	-85.5	252	15	
2025-11-11T00:00	17750	76	-59.3	-85.4	254	16	
2025-11-11T00:00	17800	76	-59.3	-85.3	254	15	
2025-11-11T00:00	17850	75	-59.4	-85.2	253	14	
2025-11-11T00:00	17900	74	-59.6	-85.2	251	13	
2025-11-11T00:00	17950	74	-59.7	-85.3	248	12	
2025-11-11T00:00	18000	73	-59.8	-85.4	245	12	
2025-11-11T00:00	18050	73	-59.8	-85.3	242	12	
2025-11-11T00:00	18100	72	-60.1	-85.4	238	12	
2025-11-11T00:00	18150	71	-60.4	-85.4	235	13	
2025-11-11T00:00	18200	71	-60.8	-85.5	234	13	
2025-11-11T00:00	18250	70	-61.2	-85.7	235	14	
2025-11-11T00:00	18300	70	-61.3	-85.9	238	15	
2025-11-11T00:00	18350	69	-61.4	-85.9	241	16	
2025-11-11T00:00	18400	69	-61.5	-86.0	244	17	
2025-11-11T00:00	18450	68	-61.5	-86.1	245	17	
2025-11-11T00:00	18500	68	-61.5	-86.2	247	18	
2025-11-11T00:00	18550	67	-61.5	-86.1	249	18	
2025-11-11T00:00	18600	66	-61.8	-86.2	252	18	
2025-11-11T00:00	18650	66	-61.8	-86.2	255	18	
2025-11-11T00:00	18700	65	-61.8	-86.3	257	19	
2025-11-11T00:00	18750	65	-61.8	-86.3	259	19	
2025-11-11T00:00	18800	64	-61.8	-86.4	261	19	
2025-11-11T00:00	18850	64	-61.8	-86.5	264	19	
2025-11-11T00:00	18900	63	-61.7	-86.4	267	18	
2025-11-11T00:00	18950	63	-61.9	-86.4	269	16	
2025-11-11T00:00	19000	62	-62.1	-86.5	267	15	
2025-11-11T00:00	19050	62	-62.2	-86.5	265	15	
2025-11-11T00:00	19100	61	-62.5	-86.6	262	14	
2025-11-11T00:00	19150	61	-62.8	-86.8	258	14	
2025-11-11T00:00	19200	60	-62.8	-86.8	253	14	
2025-11-11T00:00	19250	60	-62.7	-86.8	249	15	
2025-11-11T00:00	19300	59	-62.9	-86.9	246	15	
2025-11-11T00:00	19350	59	-63.1	-86.9	246	16	
2025-11-11T00:00	19400	58	-63.2	-87.0	247	17	
2025-11-11T00:00	19450	58	-63.5	-87.1	248	18	
2025-11-11T00:00	19500	57	-63.5	-87.3	249	19	
2025-11-11T00:00	19550	57	-63.1	-87.1	252	18	
2025-11-11T00:00	19600	56	-63.1	-87.2	254	18	
2025-11-11T00:00	19650	56	-63.0	-87.1	256	17	
2025-11-11T00:00	19700	56	-62.9	-87.0	256	16	
2025-11-11T00:00	19750	55	-63.0	-87.0	256	15	
2025-11-11T00:00	19800	55	-63.2	-87.0	258	15	
2025-11-11T00:00	19850	54	-63.4	-87.1	260	14	
2025-11-11T00:00	19900	54	-63.5	-87.1	261	14	
2025-11-11T00:00	19950	53	-63.6	-87.2	260	14	
2025-11-11T00:00	20000	53	-63.5	-87.2	258	14	
2025-11-11T00:00	20050	53	-63.7		256	14	
2025-11-11T00:00	20100	52	-63.8		255	14	
2025-11-11T00:00	20150	52	-63.7		254	15	
2025-11-11T00:00	20200	51	-63.8		254	15	
2025-11-11T00:00	20250	51	-63.8		255	15	
2025-11-11T00:00	20300	50	-63.6		256	14	
2025-11-11T00:00	20350	50	-63.5		256	14	
2025-11-11T00:00	20400	50	-63.8		256	14	
2025-11-11T00:00	20450	49	-63.9		256	15	
2025-11-11T00:00	20500	49	-63.7		255	16	
2025-11-11T00:00	20550	48	-63.5		254	17	
2025-11-11T00:00	20600	48	-63.6		254	17	
2025-11-11T00:00	20650	48	-63.5		256	17	
2025-11-11T00:00	20700	47	-63.5		258	17	
2025-11-11T00:00	20750	47	-63.3		259	16	
2025-11-11T00:00	20800	46	-62.8		261	16	
2025-11-11T00:00	20850	46	-62.4		264	15	
2025-11-11T00:00	20900	46	-62.5		268	14	
2025-11-11T00:00	20950	45	-62.7		271	14	
2025-11-11T00:00	21000	45	-63.1		272	15	
2025-11-11T00:00	21050	45	-63.5		274	16	
2025-11-11T00:00	21100	44	-63.6		277	16	
2025-11-11T00:00	21150	44	-63.6		279	16	
2025-11-11T00:00	21200	44	-63.8		280	17	
2025-11-11T00:00	21250	43	-64.3		281	17	
2025-11-11T00:00	21300	43	-64.6		283	17	
2025-11-11T00:00	21350	42	-64.7		282	17	
2025-11-11T00:00	21400	42	-64.7		279	17	
2025-11-11T00:00	21450	42	-64.4		273	16	
2025-11-11T00:00	21500	41	-64.4		268	16	
2025-11-11T00:00	21550	41	-64.0		266	15	
2025-11-11T00:00	21600	41	-63.9		268	15	
2025-11-11T00:00	21650	40	-63.8		272	15	
2025-11-11T00:00	21700	40	-63.9		276	14	
2025-11-11T00:00	21750	40	-64.3		278	14	
2025-11-11T00:00	21800	39	-64.3		279	14	
2025-11-11T00:00	21850	39	-64.2		279	15	
2025-11-11T00:00	21900	39	-64.4		279	15	
2025-11-11T00:00	21950	39	-64.6		279	15	
2025-11-11T00:00	22000	38	-64.9		277	15	
2025-11-11T00:00	22050	38	-65.1		274	14	
2025-11-11T00:00	22100	38	-65.3		271	14	
2025-11-11T00:00	22150	37	-65.3		269	15	
2025-11-11T00:00	22200	37	-65.2		272	15	
2025-11-11T00:00	22250	37	-64.3		274	16	
2025-11-11T00:00	22300	36	-64.1		274	15	
2025-11-11T00:00	22350	36	-64.1		272	15	
2025-11-11T00:00	22400	36	-63.9		271	16	
2025-11-11T00:00	22450	35	-63.9		270	16	
2025-11-11T00:00	22500	35	-64.1		267	15	
2025-11-11T00:00	22550	35	-64.2		264	14	
2025-11-11T00:00	22600	35	-64.2		265	12	
2025-11-11T00:00	22650	34	-64.1		266	11	
2025-11-11T00:00	22700	34	-64.4		265	10	
2025-11-11T00:00	22750	34	-64.7		264	10	
2025-11-11T00:00	22800	34	-64.7		264	10	
2025-11-11T00:00	22850	33	-64.7		264	11	
2025-11-11T00:00	22900	33	-64.9		264	12	
2025-11-11T00:00	22950	33	-65.1		264	12	
2025-11-11T00:00	23000	32	-64.8		266	12	
2025-11-11T00:00	23050	32	-64.7		267	12	
2025-11-11T00:00	23100	32	-65.0		266	13	
2025-11-11T00:00	23150	32	-65.1		264	14	
2025-11-11T00:00	23200	31	-65.4		262	14	
2025-11-11T00:00	23250	31	-65.6		263	15	
2025-11-11T00:00	23300	31	-65.6		264	15	
2025-11-11T00:00	23350	31	-65.7		264	15	
2025-11-11T00:00	23400	30	-66.0		264	16	
2025-11-11T00:00	23450	30	-66.4		264	17	
2025-11-11T00:00	23500	30	-66.7		264	17	
2025-11-11T00:00	23550	30	-67.1		266	18	
2025-11-11T00:00	23600	29	-67.2		269	18	
2025-11-11T00:00	23650	29	-67.3		271	17	
2025-11-11T00:00	23700	29	-67.4		273	18	
2025-11-11T00:00	23750	29	-67.0		276	19	
2025-11-11T00:00	23800	28	-66.5		280	21	
2025-11-11T00:00	23850	28	-66.4		282	20	
2025-11-11T00:00	23900	28	-66.0		283	19	
2025-11-11T00:00	23950	28	-65.9		281	18	
2025-11-11T00:00	24000	27	-66.1		276	17	
2025-11-11T00:00	24050	27	-66.2		269	17	
2025-11-11T00:00	24100	27	-65.7		262	17	
2025-11-11T00:00	24150	27	-65.3		259	18	
2025-11-11T00:00	24200	27	-65.2		258	19	
2025-11-11T00:00	24250	26	-65.0		260	20	
2025-11-11T00:00	24300	26	-65.2		261	21	
2025-11-11T00:00	24350	26	-65.1		263	20	
2025-11-11T00:00	24400	26	-65.2		264	20	
2025-11-11T00:00	24450	26	-65.4		266	20	
2025-11-11T00:00	24500	25	-65.5		267	20	
2025-11-11T00:00	24550	25	-65.7		269	20	
2025-11-11T00:00	24600	25	-65.8		271	21	
2025-11-11T00:00	24650	25	-65.8		273	21	
2025-11-11T00:00	24700	25	-65.9		275	22	
2025-11-11T00:00	24750	24	-66.1		276	22	
2025-11-11T00:00	24800	24	-66.1		276	22	
2025-11-11T00:00	24850	24	-66.2		274	22	
2025-11-11T00:00	24900	24	-66.4		271	22	
2025-11-11T00:00	24950	24	-66.4		269	22	
2025-11-11T00:00	25000	23	-66.4		268	22	
2025-11-11T00:00	25050	23	-66.1		267	22	
2025-11-11T00:00	25100	23	-66.3		266	22	
2025-11-11T00:00	25150	23	-66.3		264	22	
2025-11-11T00:00	25200	23	-66.4		261	23	
2025-11-11T00:00	25250	22	-66.0		258	24	
2025-11-11T00:00	25300	22	-65.7		256	25	
2025-11-11T00:00	25350	22	-65.8		256	25	
2025-11-11T00:00	25400	22	-66.0		257	25	
2025-11-11T00:00	25450	22	-66.1		259	25	
2025-11-11T00:00	25500	21	-65.8		262	24	
2025-11-11T00:00	25550	21	-65.9		266	23	
2025-11-11T00:00	25600	21	-66.2		270	22	
2025-11-11T00:00	25650	21	-66.3		273	22	
2025-11-11T00:00	25700	21	-66.4		276	22	
2025-11-11T00:00	25750	21	-66.5		279	22	
2025-11-11T00:00	25800	20	-66.3		282	22	
2025-11-11T00:00	25850	20	-66.1		282	21	
2025-11-11T00:00	25900	20	-66.2		281	20	
2025-11-11T00:00	25950	20	-66.4		277	20	
2025-11-11T00:00	26000	20	-66.4		273	20	
2025-11-11T00:00	26050	20	-66.2		270	21	
2025-11-11T00:00	26100	19	-66.3		266	21	
2025-11-11T00:00	26150	19	-66.4		264	22	
2025-11-11T00:00	26200	19	-66.3		262	23	
2025-11-11T00:00	26250	19	-66.2		263	23	
2025-11-11T00:00	26300	19	-66.1		266	24	
2025-11-11T00:00	26350	19	-65.9		270	24	
2025-11-11T00:00	26400	19	-66.0		273	25	
2025-11-11T00:00	26450	18	-65.9		274	26	
2025-11-11T00:00	26500	18	-65.6		274	26	
2025-11-11T00:00	26550	18	-65.4		272	27	
2025-11-11T00:00	26600	18	-65.4		271	28	
2025-11-11T00:00	26650	18	-65.2		270	28	
2025-11-11T00:00	26700	18	-65.1		271	28	
2025-11-11T00:00	26750	17	-65.2		272	27	
2025-11-11T00:00	26800	17	-65.2		274	28	
2025-11-11T00:00	26850	17	-65.3		275	29	
2025-11-11T00:00	26900	17	-65.3		275	29	
2025-11-11T00:00	26950	17	-65.3		274	30	
2025-11-11T00:00	27000	17	-65.4		272	30	
2025-11-11T00:00	27050	17	-65.2		270	29	
2025-11-11T00:00	27100	16	-65.0		270	29	
2025-11-11T00:00	27150	16	-65.1		270	29	
2025-11-11T00:00	27200	16	-65.1		271	30	
2025-11-11T00:00	27250	16	-65.0		271	30	
2025-11-11T00:00	27300	16	-64.5		270	29	
2025-11-11T00:00	27350	16	-64.6		268	29	
2025-11-11T00:00	27400	16	-64.6		265	29	
2025-11-11T00:00	27450	16	-64.5		264	29	
2025-11-11T00:00	27500	15	-64.0		264	30	
2025-11-11T00:00	27550	15	-63.6		266	29	
2025-11-11T00:00	27600	15	-63.7		268	29	
2025-11-11T00:00	27650	15	-63.9		271	27	
2025-11-11T00:00	27700	15	-64.1		273	26	
2025-11-11T00:00	27750	15	-64.3		274	25	
2025-11-11T00:00	27800	15	-64.5		274	24	
2025-11-11T00:00	27850	15	-64.7		272	23	
2025-11-11T00:00	27900	14	-65.0		271	22	
2025-11-11T00:00	27950	14	-65.3		269	22	
2025-11-11T00:00	28000	14	-65.6		268	22	
2025-11-11T00:00	28050	14	-65.3		268	23	
2025-11-11T00:00	28100	14	-65.4		270	25	
2025-11-11T00:00	28150	14	-65.3		271	26	
2025-11-11T00:00	28200	14	-65.3		271	26	
2025-11-11T00:00	28250	14	-64.8		269	27	
2025-11-11T00:00	28300	14	-64.5		267	28	
2025-11-11T00:00	28350	13	-64.2		266	29	
2025-11-11T00:00	28400	13	-64.0		265	32	
2025-11-11T00:00	28450	13	-63.6		265	34	
2025-11-11T00:00	28500	13	-63.1		267	36	
2025-11-11T00:00	28550	13	-63.0		270	38	
2025-11-11T00:00	28600	13	-63.0		272	39	
2025-11-11T00:00	28650	13	-62.9		274	39	
2025-11-11T00:00	28700	13	-63.0		275	39	
2025-11-11T00:00	28750	13	-63.2		275	38	
2025-11-11T00:00	28800	12	-63.4		274	36	
2025-11-11T00:00	28850	12	-63.8		274	36	
2025-11-11T00:00	28900	12	-64.1		273	36	
2025-11-11T00:00	28950	12	-63.7		273	37	
2025-11-11T00:00	29000	12	-63.5		274	37	
2025-11-11T00:00	29050	12	-63.4		274	38	
2025-11-11T00:00	29100	12	-63.1		275	38	
2025-11-11T00:00	29150	12	-63.0		277	39	
2025-11-11T00:00	29200	12	-62.9		278	39	
2025-11-11T00:00	29250	12	-62.9		280	39	
2025-11-11T00:00	29300	12	-63.1		280	38	
2025-11-11T00:00	29350	11	-63.5		280	37	
2025-11-11T00:00	29400	11	-63.4		279	36	
2025-11-11T00:00	29450	11	-63.1		278	35	
2025-11-11T00:00	29500	11	-63.0		276	35	
2025-11-11T00:00	29550	11	-62.9		273	35	
2025-11-11T00:00	29600	11	-62.8		272	35	
2025-11-11T00:00	29650	11	-62.8		271	36	
2025-11-11T00:00	29700	11	-62.6		271	36	
2025-11-11T00:00	29750	11	-62.2		272	36	
2025-11-11T00:00	29800	11	-62.3		273	36	
2025-11-11T00:00	29850	11	-62.2		274	37	
2025-11-11T00:00	29900	10	-61.7		275	37	
2025-11-11T00:00	29950	10	-61.6		276	38	
2025-11-11T00:00	30000	10	-61.7		276	38	
2025-11-11T00:00	30050	10	-61.6		277	38	
2025-11-11T00:00	30100	10	-61.6		277	37	
2025-11-11T00:00	30150	10	-61.9		278	36	
2025-11-11T00:00	30200	10	-61.9		279	35	
2025-11-11T00:00	30250	10	-62.0		279	35	
2025-11-11T00:00	30300	10	-62.3		278	34	
2025-11-11T00:00	30350	10	-62.4		277	34	
2025-11-11T00:00	30400	10	-62.5		277	34	
2025-11-11T00:00	30450	10	-62.0		278	34	
2025-11-11T00:00	30500	9	-61.9		279	35	
2025-11-11T00:00	30550	9	-61.4		278	35	
2025-11-11T00:00	30600	9	-60.4		276	35	
2025-11-11T00:00	30650	9	-60.4		273	36	
2025-11-11T00:00	30700	9	-60.1		271	37	
2025-11-11T00:00	30750	9	-60.4		269	38	
2025-11-11T00:00	30800	9	-60.2		269	39	
2025-11-11T00:00	30850	9	-59.9		270	40	
2025-11-11T00:00	30900	9	-59.1		271	42	
2025-11-11T00:00	30950	9	-59.1		272	43	
2025-11-11T00:00	31000	9	-59.1		272	43	
2025-11-11T00:00	31050	9	-58.9		273	43	
2025-11-11T00:00	31100	9	-58.8		273	43	
2025-11-11T00:00	31150	9	-58.5		273	43	
2025-11-11T00:00	31200	8	-58.2		273	43	
2025-11-11T00:00	31250	8	-57.3		274	43	
2025-11-11T00:00	31300	8	-57.3		275	42	
2025-11-11T00:00	31350	8	-57.7		276	42	
2025-11-11T00:00	31400	8	-58.0		276	40	
2025-11-11T00:00	31450	8	-58.3		276	40	
2025-11-11T00:00	31500	8	-58.1		275	39	
2025-11-11T00:00	31550	8	-57.7		273	39	
2025-11-11T00:00	31600	8	-57.5		272	39	
2025-11-11T00:00	31650	8	-57.5		271	40	
2025-11-11T00:00	31700	8	-57.5		270	41	
2025-11-11T00:00	31750	8	-57.1		269	43	
2025-11-11T00:00	31800	8	-56.7		268	44	
2025-11-11T00:00	31850	8	-56.1		267	46	
2025-11-11T00:00	31900	8	-55.2		266	47	
2025-11-11T00:00	31950	8	-55.0		266	48	
2025-11-11T00:00	32000	7	-55.3		266	49	
2025-11-11T00:00	32050	7	-55.6		267	49	
2025-11-11T00:00	32100	7	-55.9		268	50	
2025-11-11T00:00	32150	7	-56.1		270	50	
2025-11-11T00:00	32200	7	-56.1		271	51	
2025-11-11T00:00	32250	7	-56.2		273	51	
2025-11-11T00:00	32300	7	-56.2		274	51	
2025-11-11T00:00	32350	7	-56.4		274	52	
2025-11-11T00:00	32400	7	-56.5		274	52	
2025-11-11T00:00	32450	7	-56.5		274	51	
2025-11-11T00:00	32500	7	-56.7		274	51	
2025-11-11T00:00	32550	7	-57.0		273	50	
2025-11-11T00:00	32600	7	-57.1		272	49	
2025-11-11T00:00	32650	7	-57.1		271	48	
2025-11-11T00:00	32700	7	-57.1		269	47	
2025-11-11T00:00	32750	7	-57.0		268	47	
2025-11-11T00:00	32800	7	-56.4		268	46	
2025-11-11T00:00	32850	7	-56.2		268	47	
2025-11-11T00:00	32900	6	-56.0		270	48	
2025-11-11T00:00	32950	6	-55.8		271	50	
2025-11-11T00:00	33000	6	-55.4		271	51	
2025-11-11T00:00	33050	6	-54.2		270	51	
2025-11-11T00:00	33100	6	-52.9		267	52	
2025-11-11T00:00	33150	6	-52.0		265	54	
2025-11-11T00:00	33200	6	-51.5		265	55	
2025-11-11T00:00	33250	6	-51.5		266	55	
2025-11-11T00:00	33300	6	-50.9		268	55	
2025-11-11T00:00	33350	6	-50.1		268	55	
2025-11-11T00:00	33400	6	-50.0		268	56	
2025-11-11T00:00	33450	6	-49.8		267	57	
2025-11-11T00:00	33500	6	-49.8		267	57	
2025-11-11T00:00	33550	6	-50.0		267	58	
2025-11-11T00:00	33600	6	-50.0		266	58	
2025-11-11T00:00	33650	6	-50.0		266	58	
2025-11-11T00:00	33700	6	-49.8		265	58	
2025-11-11T00:00	33750	6	-49.5		265	58	
2025-11-11T00:00	33800	6	-49.6		265	58	
2025-11-11T00:00	33850	6	-49.8		266	58	
2025-11-11T00:00	33900	6	-50.0		266	58	
2025-11-11T00:00	33950	6	-50.4		266	58	
2025-11-11T00:00	34000	5	-50.8		266	57	
2025-11-11T00:00	34050	5	-51.1		265	56	
2025-11-11T00:00	34100	5	-51.0		265	56	
2025-11-11T00:00	34150	5	-50.8		264	55	
2025-11-11T00:00	34200	5	-50.8		264	55	
2025-11-11T00:00	34250	5	-50.9		264	54	
2025-11-11T00:00	34300	5	-51.2		264	53	
2025-11-11T00:00	34350	5	-51.5		263	53	
2025-11-11T00:00	34400	5	-51.7		262	54	
2025-11-11T00:00	34450	5	-51.4		262	55	
2025-11-11T00:00	34500	5	-51.3		261	56	
2025-11-11T00:00	34550	5	-51.2		261	56	
2025-11-11T00:00	34600	5	-51.2		260	56	
2025-11-11T00:00	34650	5	-51.1		259	57	
2025-11-11T00:00	34700	5	-50.8		260	57	
2025-11-11T00:00	34750	5	-50.2		262	59	
2025-11-11T00:00	34800	5	-49.6		264	60	
2025-11-11T00:00	34850	5	-49.2		267	61	
2025-11-11T00:00	34900	5	-47.8		268	62	
2025-11-11T00:00	34950	5	-46.9		269	63	
2025-11-11T00:00	35000	5	-46.2		269	64	
2025-11-11T00:00	35050	5	-45.2		268	65	
2025-11-11T00:00	35100	5	-44.5		268	65	
2025-11-11T00:00	35150	5	-44.6		268	65	
2025-11-11T00:00	35200	5	-44.7		268	65	
2025-11-11T00:00	35250	5	-44.8		268	65	
2025-11-11T00:00	35300	4	-44.9		268	64	
2025-11-11T00:00	35350	4	-44.9		268	64	
2025-11-11T00:00	35400	4	-45.1		268	63	
2025-11-11T00:00	35450	4	-45.0		268	63	
2025-11-11T00:00	35500	4	-44.6		268	63	
2025-11-11T00:00	35550	4	-44.3		268	64	
2025-11-11T00:00	35600	4	-43.8		268	64	
2025-11-11T00:00	35650	4	-43.7		269	65	
2025-11-11T00:00	35700	4	-43.9		269	66	
2025-11-11T00:00	35750	4	-44.2		270	66	
2025-11-11T00:00	35800	4	-44.3		270	66	
2025-11-11T00:00	35850	4	-44.2		271	66	
2025-11-11T00:00	35900	4	-44.2		271	65	
2025-11-11T00:00	35950	4	-44.5		271	65	
2025-11-11T00:00	36000	4	-44.8		272	65	
2025-11-11T00:00	36050	4	-45.1		272	66	
2025-11-11T00:00	36100	4	-45.2		272	66	
2025-11-11T00:00	36150	4	-45.4		272	67	
2025-11-11T00:00	36200	4	-45.4		272	68	
2025-11-11T00:00	36250	4	-44.3		272	67	
2025-11-11T00:00	36300	4	-43.9		271	66	
2025-11-11T00:00	36350	4	-43.6		271	65	
2025-11-11T00:00	36400	4	-43.8		270	65	
2025-11-11T00:00	36450	4	-43.9		270	66	
2025-11-11T00:00	36500	4	-43.7		270	67	
2025-11-11T12:00	491	961	8.9	6.2	359	2	
2025-11-11T12:00	501	959	8.6	6.1	355	2	
2025-11-11T12:00	520	958	8.3	6.2	354	2	
2025-11-11T12:00	540	955	8.2	6.1	357	2	
2025-11-11T12:00	560	953	8.1	6.1	1	2	
2025-11-11T12:00	580	951	7.9	6.0	7	2	
2025-11-11T12:00	600	948	7.6	5.7	14	2	
2025-11-11T12:00	620	946	7.5	5.3	23	1	
2025-11-11T12:00	640	944	7.4	4.9	32	1	
2025-11-11T12:00	660	941	7.3	4.8	36	1	
2025-11-11T12:00	680	939	7.1	4.6	36	1	
2025-11-11T12:00	700	937	7.2	3.9	33	1	
2025-11-11T12:00	720	934	7.9	1.8	31	1	
2025-11-11T12:00	740	932	8.1	0.9	29	1	
2025-11-11T12:00	760	930	7.9	1.1	28	1	
2025-11-11T12:00	780	927	7.7	0.8	31	1	
2025-11-11T12:00	800	925	7.5	0.4	37	1	
2025-11-11T12:00	820	923	7.3	0.1	51	1	
2025-11-11T12:00	840	921	7.2	0.4	70	1	
2025-11-11T12:00	860	919	7.1	1.4	92	1	
2025-11-11T12:00	880	917	7.0	2.1	108	1	
2025-11-11T12:00	900	914	6.9	2.3	122	1	
2025-11-11T12:00	920	912	6.7	2.4	138	2	
2025-11-11T12:00	940	910	6.7	2.0	152	2	
2025-11-11T12:00	960	908	7.3	-0.7	164	2	
2025-11-11T12:00	980	905	7.6	-1.8	175	3	
2025-11-11T12:00	1000	903	7.8	-2.4	182	3	
2025-11-11T12:00	1020	901	7.7	-3.0	188	3	
2025-11-11T12:00	1040	899	7.7	-3.4	193	3	
2025-11-11T12:00	1060	897	7.8	-3.5	196	3	
2025-11-11T12:00	1080	895	7.9	-2.7	199	3	
2025-11-11T12:00	1100	892	7.8	-1.1	201	3	
2025-11-11T12:00	1120	890	7.8	-1.2	203	3	
2025-11-11T12:00	1140	888	7.8	-1.8	204	3	
2025-11-11T12:00	1160	886	7.7	-1.4	205	3	
2025-11-11T12:00	1180	884	7.6	-0.8	206	3	
2025-11-11T12:00	1200	882	7.4	-0.5	207	3	
2025-11-11T12:00	1220	879	7.2	0.2	208	3	
2025-11-11T12:00	1240	877	7.0	0.5	212	3	
2025-11-11T12:00	1260	875	6.9	0.7	216	3	
2025-11-11T12:00	1280	873	6.7	1.0	220	4	
2025-11-11T12:00	1300	871	6.6	1.7	225	4	
2025-11-11T12:00	1320	869	6.6	2.3	230	4	
2025-11-11T12:00	1340	867	6.7	1.8	233	5	
2025-11-11T12:00	1360	865	6.9	0.7	235	5	
2025-11-11T12:00	1380	862	7.0	-1.0	238	6	
2025-11-11T12:00	1400	860	6.8	-0.8	239	6	
2025-11-11T12:00	1420	858	6.7	-0.5	241	6	
2025-11-11T12:00	1440	856	6.5	0.0	243	6	
2025-11-11T12:00	1460	854	6.3	0.5	246	6	
2025-11-11T12:00	1480	852	6.2	1.1	251	6	
2025-11-11T12:00	1500	850	6.0	1.3	256	6	
2025-11-11T12:00	1520	848	5.8	1.3	259	6	
2025-11-11T12:00	1540	846	5.7	1.2	260	6	
2025-11-11T12:00	1560	844	5.5	1.2	259	6	
2025-11-11T12:00	1580	842	5.4	1.0	257	6	
2025-11-11T12:00	1600	840	5.2	0.3	254	6	
2025-11-11T12:00	1620	838	5.1	-0.2	251	6	
2025-11-11T12:00	1640	836	5.0	-1.0	248	6	
2025-11-11T12:00	1660	834	4.9	-1.5	246	6	
2025-11-11T12:00	1680	832	4.7	-1.8	245	6	
2025-11-11T12:00	1700	829	4.5	-2.2	242	6	
2025-11-11T12:00	1720	827	4.4	-2.5	240	7	
2025-11-11T12:00	1740	825	4.2	-2.9	238	7	
2025-11-11T12:00	1760	823	4.2	-3.6	235	7	
2025-11-11T12:00	1780	821	4.2	-4.0	233	8	
2025-11-11T12:00	1800	819	4.2	-4.5	231	9	
2025-11-11T12:00	1820	817	4.2	-4.7	229	9	
2025-11-11T12:00	1840	816	4.1	-4.1	227	10	
2025-11-11T12:00	1860	813	4.0	-3.1	226	10	
2025-11-11T12:00	1880	811	3.9	-2.2	225	11	
2025-11-11T12:00	1900	809	3.9	-2.1	224	11	
2025-11-11T12:00	1920	807	4.0	-2.2	224	11	
2025-11-11T12:00	1940	805	3.9	-2.5	224	12	
2025-11-11T12:00	1960	803	3.9	-2.7	224	12	
2025-11-11T12:00	1980	801	3.9	-3.0	224	12	
2025-11-11T12:00	2000	799	3.9	-2.8	224	12	
2025-11-11T12:00	2020	797	3.7	-2.8	224	12	
2025-11-11T12:00	2040	795	3.6	-2.6	223	12	
2025-11-11T12:00	2060	793	3.4	-2.6	224	12	
2025-11-11T12:00	2080	792	3.3	-2.5	224	12	
2025-11-11T12:00	2100	790	3.1	-2.2	225	12	
2025-11-11T12:00	2120	788	2.9	-2.1	226	12	
2025-11-11T12:00	2140	786	2.8	-2.1	227	13	
2025-11-11T12:00	2160	784	2.6	-2.5	229	13	
2025-11-11T12:00	2180	782	2.6	-3.0	230	13	
2025-11-11T12:00	2200	780	2.5	-2.9	232	13	
2025-11-11T12:00	2220	778	2.3	-2.4	233	13	
2025-11-11T12:00	2240	776	2.1	-2.4	232	13	
2025-11-11T12:00	2260	774	1.9	-2.6	232	13	
2025-11-11T12:00	2280	772	1.7	-2.8	231	13	
2025-11-11T12:00	2300	770	1.6	-3.0	230	13	
2025-11-11T12:00	2320	768	1.4	-3.6	229	12	
2025-11-11T12:00	2340	767	1.3	-3.7	229	12	
2025-11-11T12:00	2360	765	1.1	-4.0	229	11	
2025-11-11T12:00	2380	763	1.0	-4.5	230	11	
2025-11-11T12:00	2400	761	1.0	-5.6	231	10	
2025-11-11T12:00	2420	759	1.1	-8.1	233	10	
2025-11-11T12:00	2440	757	1.1	-9.8	235	10	
2025-11-11T12:00	2460	755	1.1	-11.7	237	10	
2025-11-11T12:00	2480	753	1.2	-13.7	239	10	
2025-11-11T12:00	2500	751	1.2	-15.3	241	10	
2025-11-11T12:00	2520	749	1.1	-15.9	242	11	
2025-11-11T12:00	2540	748	1.0	-16.7	244	11	
2025-11-11T12:00	2560	746	0.9	-16.9	245	10	
2025-11-11T12:00	2580	744	0.7	-16.8	245	10	
2025-11-11T12:00	2600	742	0.6	-17.1	246	10	
2025-11-11T12:00	2620	740	0.4	-17.1	246	9	
2025-11-11T12:00	2640	738	0.4	-17.6	245	9	
2025-11-11T12:00	2660	737	0.3	-17.6	244	9	
2025-11-11T12:00	2680	735	0.1	-17.8	242	9	
2025-11-11T12:00	2700	733	0.0	-17.8	240	9	
2025-11-11T12:00	2720	731	-0.1	-17.9	238	9	
2025-11-11T12:00	2740	729	-0.1	-18.2	236	10	
2025-11-11T12:00	2760	727	-0.2	-18.5	234	10	
2025-11-11T12:00	2780	726	-0.3	-18.3	231	11	
2025-11-11T12:00	2800	724	-0.4	-18.0	229	11	
2025-11-11T12:00	2820	722	-0.5	-16.2	227	11	
2025-11-11T12:00	2840	720	-0.7	-15.0	225	10	
2025-11-11T12:00	2860	718	-0.9	-13.4	223	10	
2025-11-11T12:00	2880	717	-1.1	-12.2	222	9	
2025-11-11T12:00	2900	715	-1.1	-14.0	222	9	
2025-11-11T12:00	2920	713	-1.1	-16.4	221	9	
2025-11-11T12:00	2940	711	-1.2	-17.5	220	9	
2025-11-11T12:00	2960	709	-1.2	-19.0	220	9	
2025-11-11T12:00	2980	708	-1.2	-19.8	220	9	
2025-11-11T12:00	3000	706	-1.0	-21.0	219	9	
2025-11-11T12:00	3020	704	-0.8	-21.8	219	9	
2025-11-11T12:00	3040	702	-0.7	-22.7	220	9	
2025-11-11T12:00	3060	701	-0.9	-22.6	220	9	
2025-11-11T12:00	3080	699	-1.1	-22.2	221	8	
2025-11-11T12:00	3100	697	-1.2	-21.6	222	8	
2025-11-11T12:00	3120	695	-1.4	-20.8	223	8	
2025-11-11T12:00	3140	694	-1.6	-19.1	225	8	
2025-11-11T12:00	3160	692	-1.7	-17.4	227	8	
2025-11-11T12:00	3180	690	-1.8	-16.8	229	7	
2025-11-11T12:00	3200	688	-2.0	-16.1	231	7	
2025-11-11T12:00	3220	687	-2.2	-15.4	233	7	
2025-11-11T12:00	3240	685	-2.4	-14.1	237	6	
2025-11-11T12:00	3260	683	-2.5	-12.9	241	6	
2025-11-11T12:00	3280	681	-2.7	-12.6	246	6	
2025-11-11T12:00	3300	680	-2.8	-11.9	250	6	
2025-11-11T12:00	3320	678	-3.0	-11.1	255	6	
2025-11-11T12:00	3340	676	-3.1	-11.0	259	7	
2025-11-11T12:00	3360	675	-3.2	-10.6	261	7	
2025-11-11T12:00	3380	673	-3.4	-10.1	261	8	
2025-11-11T12:00	3400	671	-3.5	-10.6	261	8	
2025-11-11T12:00	3420	670	-3.6	-10.8	261	8	
2025-11-11T12:00	3440	668	-3.7	-10.0	260	8	
2025-11-11T12:00	3460	666	-3.8	-10.0	261	8	
2025-11-11T12:00	3480	664	-4.0	-10.5	261	7	
2025-11-11T12:00	3500	663	-4.0	-11.3	263	7	
2025-11-11T12:00	3520	661	-4.2	-11.3	264	7	
2025-11-11T12:00	3540	660	-4.3	-11.6	265	7	
2025-11-11T12:00	3560	658	-4.4	-11.8	265	8	
2025-11-11T12:00	3580	656	-4.5	-12.0	264	8	
2025-11-11T12:00	3600	654	-4.6	-12.3	264	8	
2025-11-11T12:00	3620	653	-4.7	-12.4	264	8	
2025-11-11T12:00	3640	651	-4.8	-12.3	264	8	
2025-11-11T12:00	3660	649	-5.0	-12.3	265	8	
2025-11-11T12:00	3680	648	-5.2	-12.4	265	8	
2025-11-11T12:00	3700	646	-5.4	-12.5	265	8	
2025-11-11T12:00	3720	645	-5.5	-12.5	264	8	
2025-11-11T12:00	3740	643	-5.7	-12.5	263	8	
2025-11-11T12:00	3760	641	-5.9	-12.5	263	8	
2025-11-11T12:00	3780	640	-6.1	-12.6	263	8	
2025-11-11T12:00	3800	638	-6.2	-12.1	263	7	
2025-11-11T12:00	3820	636	-6.4	-11.8	265	8	
2025-11-11T12:00	3840	635	-6.6	-12.1	267	8	
2025-11-11T12:00	3860	633	-6.7	-12.6	269	8	
2025-11-11T12:00	3880	631	-6.7	-12.9	270	8	
2025-11-11T12:00	3900	630	-6.9	-13.0	271	8	
2025-11-11T12:00	3920	628	-7.0	-13.1	271	8	
2025-11-11T12:00	3940	627	-7.2	-13.0	270	8	
2025-11-11T12:00	3960	625	-7.3	-13.0	268	8	
2025-11-11T12:00	3980	623	-7.5	-13.0	266	8	
2025-11-11T12:00	4000	622	-7.7	-13.1	264	8	
2025-11-11T12:00	4020	620	-7.9	-13.4	261	7	
2025-11-11T12:00	4040	618	-8.0	-13.8	257	7	
2025-11-11T12:00	4060	617	-8.2	-13.9	254	7	
2025-11-11T12:00	4080	615	-8.3	-13.7	252	7	
2025-11-11T12:00	4100	614	-8.5	-13.8	252	8	
2025-11-11T12:00	4120	612	-8.6	-13.9	252	8	
2025-11-11T12:00	4140	611	-8.6	-14.1	253	8	
2025-11-11T12:00	4160	609	-8.8	-14.4	255	8	
2025-11-11T12:00	4180	608	-8.9	-14.5	257	9	
2025-11-11T12:00	4200	606	-9.0	-14.5	260	9	
2025-11-11T12:00	4220	605	-9.1	-14.7	263	9	
2025-11-11T12:00	4240	603	-9.3	-14.9	265	9	
2025-11-11T12:00	4260	601	-9.3	-15.2	267	8	
2025-11-11T12:00	4280	600	-9.5	-15.3	266	8	
2025-11-11T12:00	4300	598	-9.7	-15.5	264	8	
2025-11-11T12:00	4320	597	-9.8	-16.0	260	8	
2025-11-11T12:00	4340	595	-9.9	-16.4	256	8	
2025-11-11T12:00	4360	593	-10.0	-16.8	252	7	
2025-11-11T12:00	4380	592	-10.1	-17.1	249	7	
2025-11-11T12:00	4400	590	-10.2	-17.4	247	7	
2025-11-11T12:00	4420	589	-10.3	-17.7	246	7	
2025-11-11T12:00	4440	587	-10.4	-18.0	246	7	
2025-11-11T12:00	4460	586	-10.6	-18.1	246	7	
2025-11-11T12:00	4480	585	-10.7	-18.2	245	6	
2025-11-11T12:00	4500	583	-10.9	-18.2	245	7	
2025-11-11T12:00	4520	581	-11.1	-18.2	245	7	
2025-11-11T12:00	4540	580	-11.3	-18.3	244	7	
2025-11-11T12:00	4560	578	-11.5	-18.3	244	8	
2025-11-11T12:00	4580	577	-11.7	-18.3	244	8	
2025-11-11T12:00	4600	575	-11.8	-18.4	244	8	
2025-11-11T12:00	4620	574	-12.0	-18.4	244	9	
2025-11-11T12:00	4640	572	-12.1	-18.5	244	9	
2025-11-11T12:00	4660	571	-12.3	-18.7	245	9	
2025-11-11T12:00	4680	569	-12.5	-18.9	246	9	
2025-11-11T12:00	4700	568	-12.7	-19.0	247	9	
2025-11-11T12:00	4720	566	-12.8	-19.1	247	10	
2025-11-11T12:00	4740	565	-12.9	-19.2	247	10	
2025-11-11T12:00	4760	563	-13.0	-19.4	245	11	
2025-11-11T12:00	4780	562	-13.1	-19.8	244	11	
2025-11-11T12:00	4800	561	-13.1	-20.1	242	12	
2025-11-11T12:00	4820	559	-13.1	-21.0	241	12	
2025-11-11T12:00	4840	558	-13.1	-21.2	240	12	
2025-11-11T12:00	4860	556	-13.2	-21.5	240	12	
2025-11-11T12:00	4880	555	-13.3	-22.0	240	12	
2025-11-11T12:00	4900	553	-13.3	-21.9	241	12	
2025-11-11T12:00	4920	552	-13.5	-21.3	242	12	
2025-11-11T12:00	4940	550	-13.6	-21.0	244	12	
2025-11-11T12:00	4960	549	-13.8	-21.3	245	12	
2025-11-11T12:00	4980	547	-13.9	-21.5	245	12	
2025-11-11T12:00	5000	546	-14.1	-21.6	245	12	
2025-11-11T12:00	5020	545	-14.2	-21.6	245	12	
2025-11-11T12:00	5040	543	-14.4	-21.7	245	13	
2025-11-11T12:00	5060	541	-14.5	-22.0	246	13	
2025-11-11T12:00	5080	540	-14.6	-22.2	246	13	
2025-11-11T12:00	5100	539	-14.8	-22.1	246	13	
2025-11-11T12:00	5120	537	-14.9	-22.3	245	13	
2025-11-11T12:00	5140	536	-15.1	-22.4	244	13	
2025-11-11T12:00	5160	534	-15.2	-22.6	243	13	
2025-11-11T12:00	5180	533	-15.3	-22.7	243	14	
2025-11-11T12:00	5200	532	-15.4	-23.2	243	14	
2025-11-11T12:00	5220	530	-15.6	-23.5	245	14	
2025-11-11T12:00	5240	529	-15.8	-23.8	246	14	
2025-11-11T12:00	5260	527	-15.9	-24.0	247	14	
2025-11-11T12:00	5280	526	-16.1	-24.5	247	14	
2025-11-11T12:00	5300	525	-16.2	-25.2	247	14	
2025-11-11T12:00	5320	523	-16.3	-26.1	247	14	
2025-11-11T12:00	5340	522	-16.5	-25.8	247	14	
2025-11-11T12:00	5360	520	-16.6	-25.4	246	14	
2025-11-11T12:00	5380	519	-16.8	-25.2	246	13	
2025-11-11T12:00	5400	518	-17.0	-25.0	245	13	
2025-11-11T12:00	5420	516	-17.1	-25.3	245	13	
2025-11-11T12:00	5440	515	-17.3	-25.6	245	13	
2025-11-11T12:00	5460	514	-17.4	-26.2	245	12	
2025-11-11T12:00	5480	512	-17.6	-26.7	246	12	
2025-11-11T12:00	5500	511	-17.7	-26.5	247	12	
2025-11-11T12:00	5520	510	-17.9	-25.7	247	12	
2025-11-11T12:00	5540	508	-18.1	-25.5	247	12	
2025-11-11T12:00	5560	507	-18.3	-25.5	247	11	
2025-11-11T12:00	5580	505	-18.4	-25.5	246	11	
2025-11-11T12:00	5600	504	-18.6	-25.9	245	11	
2025-11-11T12:00	5620	503	-18.7	-26.2	244	11	
2025-11-11T12:00	5640	501	-18.9	-26.2	244	11	
2025-11-11T12:00	5660	500	-19.1	-26.2	244	11	
2025-11-11T12:00	5680	499	-19.3	-26.3	245	11	
2025-11-11T12:00	5700	497	-19.5	-26.4	245	11	
2025-11-11T12:00	5720	496	-19.7	-26.4	247	11	
2025-11-11T12:00	5740	495	-19.9	-26.5	249	12	
2025-11-11T12:00	5760	493	-20.1	-26.4	250	12	
2025-11-11T12:00	5780	492	-20.3	-26.5	251	12	
2025-11-11T12:00	5800	491	-20.5	-26.6	251	12	
2025-11-11T12:00	5820	489	-20.7	-26.7	252	13	
2025-11-11T12:00	5840	488	-20.8	-26.9	252	13	
2025-11-11T12:00	5860	487	-21.0	-26.8	252	13	
2025-11-11T12:00	5880	486	-21.2	-26.8	252	13	
2025-11-11T12:00	5900	484	-21.4	-26.8	252	13	
2025-11-11T12:00	5920	483	-21.5	-27.2	252	13	
2025-11-11T12:00	5940	481	-21.5	-28.3	252	13	
2025-11-11T12:00	5960	480	-21.6	-29.0	252	13	
2025-11-11T12:00	5980	479	-21.6	-29.7	251	13	
2025-11-11T12:00	6000	478	-21.6	-30.1	251	12	
2025-11-11T12:00	6020	476	-21.7	-30.5	251	12	
2025-11-11T12:00	6040	475	-21.8	-31.2	250	12	
2025-11-11T12:00	6060	474	-22.0	-31.3	250	12	
2025-11-11T12:00	6080	472	-22.2	-31.5	250	12	
2025-11-11T12:00	6100	471	-22.4	-31.9	249	12	
2025-11-11T12:00	6120	470	-22.5	-32.8	248	12	
2025-11-11T12:00	6140	469	-22.6	-34.0	248	11	
2025-11-11T12:00	6160	467	-22.7	-34.2	247	11	
2025-11-11T12:00	6180	466	-22.8	-34.7	247	11	
2025-11-11T12:00	6200	465	-22.9	-36.0	247	11	
2025-11-11T12:00	6220	463	-23.0	-36.6	247	11	
2025-11-11T12:00	6240	462	-23.1	-37.5	248	11	
2025-11-11T12:00	6260	461	-23.2	-39.3	250	11	
2025-11-11T12:00	6280	460	-23.3	-39.2	252	11	
2025-11-11T12:00	6300	458	-23.4	-39.1	254	11	
2025-11-11T12:00	6320	457	-23.6	-39.0	256	11	
2025-11-11T12:00	6340	456	-23.7	-38.8	257	11	
2025-11-11T12:00	6360	455	-23.8	-39.1	257	11	
2025-11-11T12:00	6380	454	-23.8	-40.0	257	11	
2025-11-11T12:00	6400	452	-23.9	-39.9	257	12	
2025-11-11T12:00	6420	451	-23.9	-39.0	255	12	
2025-11-11T12:00	6440	450	-23.9	-39.8	254	12	
2025-11-11T12:00	6460	448	-24.0	-41.1	253	12	
2025-11-11T12:00	6480	447	-24.1	-42.4	252	12	
2025-11-11T12:00	6500	446	-24.3	-43.5	252	12	
2025-11-11T12:00	6520	445	-24.4	-44.1	253	12	
2025-11-11T12:00	6540	443	-24.6	-44.7	254	12	
2025-11-11T12:00	6560	442	-24.7	-46.1	255	12	
2025-11-11T12:00	6580	441	-24.8	-47.7	256	11	
2025-11-11T12:00	6600	440	-24.9	-47.2	256	11	
2025-11-11T12:00	6620	439	-25.1	-47.0	256	11	
2025-11-11T12:00	6640	438	-25.3	-46.7	255	11	
2025-11-11T12:00	6660	436	-25.5	-46.8	254	11	
2025-11-11T12:00	6680	435	-25.6	-47.4	253	10	
2025-11-11T12:00	6700	434	-25.8	-47.5	251	10	
2025-11-11T12:00	6720	433	-26.0	-47.7	250	10	
2025-11-11T12:00	6740	431	-26.2	-48.0	250	10	
2025-11-11T12:00	6760	430	-26.4	-48.2	250	10	
2025-11-11T12:00	6780	429	-26.5	-48.9	250	10	
2025-11-11T12:00	6800	428	-26.7	-50.2	251	10	
2025-11-11T12:00	6820	427	-26.8	-50.7	250	10	
2025-11-11T12:00	6840	426	-27.0	-51.0	250	10	
2025-11-11T12:00	6860	424	-27.2	-51.1	249	11	
2025-11-11T12:00	6880	423	-27.4	-51.2	247	11	
2025-11-11T12:00	6900	422	-27.6	-51.7	245	11	
2025-11-11T12:00	6920	421	-27.7	-52.2	244	11	
2025-11-11T12:00	6940	420	-27.9	-52.6	242	11	
2025-11-11T12:00	6960	419	-28.1	-52.6	240	11	
2025-11-11T12:00	6980	417	-28.2	-52.8	240	11	
2025-11-11T12:00	7000	416	-28.4	-53.0	239	11	
2025-11-11T12:00	7020	415	-28.7	-53.0	239	11	
2025-11-11T12:00	7040	414	-28.8	-53.2	239	11	
2025-11-11T12:00	7060	413	-29.0	-53.3	239	11	
2025-11-11T12:00	7080	412	-29.2	-53.3	240	11	
2025-11-11T12:00	7100	410	-29.4	-53.3	240	10	
2025-11-11T12:00	7120	409	-29.5	-53.5	240	10	
2025-11-11T12:00	7140	408	-29.7	-53.6	241	10	
2025-11-11T12:00	7160	407	-29.9	-53.5	241	11	
2025-11-11T12:00	7180	406	-30.0	-53.6	241	11	
2025-11-11T12:00	7200	405	-30.2	-53.5	241	11	
2025-11-11T12:00	7220	403	-30.4	-53.6	240	11	
2025-11-11T12:00	7240	402	-30.6	-53.6	240	12	
2025-11-11T12:00	7260	401	-30.8	-53.7	240	12	
2025-11-11T12:00	7280	400	-31.0	-53.9	241	12	
2025-11-11T12:00	7300	399	-31.2	-53.8	242	13	
2025-11-11T12:00	7320	398	-31.4	-53.7	243	13	
2025-11-11T12:00	7340	397	-31.6	-53.9	245	13	
2025-11-11T12:00	7360	396	-31.7	-54.0	247	13	
2025-11-11T12:00	7380	395	-31.9	-53.9	249	13	
2025-11-11T12:00	7400	393	-32.1	-53.8	250	13	
2025-11-11T12:00	7420	392	-32.3	-53.9	251	13	
2025-11-11T12:00	7440	391	-32.5	-54.0	251	13	
2025-11-11T12:00	7460	390	-32.7	-54.0	250	13	
2025-11-11T12:00	7480	389	-32.8	-53.9	249	13	
2025-11-11T12:00	7500	388	-33.0	-54.0	247	13	
2025-11-11T12:00	7520	387	-33.2	-54.2	246	13	
2025-11-11T12:00	7540	386	-33.4	-54.4	245	13	
2025-11-11T12:00	7560	385	-33.5	-54.3	244	13	
2025-11-11T12:00	7580	384	-33.8	-54.3	244	13	
2025-11-11T12:00	7600	382	-34.0	-54.2	244	13	
2025-11-11T12:00	7620	381	-34.2	-54.3	245	13	
2025-11-11T12:00	7640	380	-34.3	-54.4	246	13	
2025-11-11T12:00	7660	379	-34.4	-54.6	246	13	
2025-11-11T12:00	7680	378	-34.6	-54.7	247	13	
2025-11-11T12:00	7700	377	-34.7	-54.7	247	14	
2025-11-11T12:00	7720	376	-34.9	-54.6	248	14	
2025-11-11T12:00	7740	375	-35.1	-54.6	249	14	
2025-11-11T12:00	7760	374	-35.3	-54.7	250	14	
2025-11-11T12:00	7780	373	-35.5	-55.0	250	14	
2025-11-11T12:00	7800	372	-35.6	-55.1	251	14	
2025-11-11T12:00	7820	371	-35.8	-55.1	252	14	
2025-11-11T12:00	7840	369	-36.0	-55.1	252	14	
2025-11-11T12:00	7860	368	-36.2	-55.2	253	14	
2025-11-11T12:00	7880	367	-36.4	-55.1	252	14	
2025-11-11T12:00	7900	366	-36.5	-55.1	252	14	
2025-11-11T12:00	7920	365	-36.7	-55.0	251	14	
2025-11-11T12:00	7940	364	-36.9	-53.7	250	14	
2025-11-11T12:00	7960	363	-37.1	-53.1	250	14	
2025-11-11T12:00	7980	362	-37.3	-53.6	249	14	
2025-11-11T12:00	8000	361	-37.5	-53.0	249	14	
2025-11-11T12:00	8020	360	-37.7	-51.8	249	14	
2025-11-11T12:00	8040	359	-37.9	-52.3	250	14	
2025-11-11T12:00	8060	358	-38.1	-53.4	250	14	
2025-11-11T12:00	8080	357	-38.3	-53.1	251	14	
2025-11-11T12:00	8100	356	-38.5	-52.5	252	14	
2025-11-11T12:00	8120	355	-38.7	-52.1	253	14	
2025-11-11T12:00	8140	354	-38.9	-53.0	254	13	
2025-11-11T12:00	8160	353	-39.1	-50.8	255	13	
2025-11-11T12:00	8180	352	-39.3	-44.5	256	13	
2025-11-11T12:00	8200	351	-39.5	-45.1	257	13	
2025-11-11T12:00	8220	350	-39.7	-46.2	258	13	
2025-11-11T12:00	8240	348	-39.9	-46.4	259	13	
2025-11-11T12:00	8260	348	-40.1	-46.8	261	12	
2025-11-11T12:00	8280	347	-40.2	-46.5	262	12	
2025-11-11T12:00	8300	346	-40.4	-46.1	263	12	
2025-11-11T12:00	8320	344	-40.6	-45.9	264	12	
2025-11-11T12:00	8340	344	-40.7	-45.7	265	13	
2025-11-11T12:00	8360	343	-40.9	-45.7	266	13	
2025-11-11T12:00	8380	342	-41.0	-46.3	267	12	
2025-11-11T12:00	8400	341	-41.2	-47.9	268	12	
2025-11-11T12:00	8420	340	-41.4	-48.4	269	12	
2025-11-11T12:00	8440	338	-41.5	-48.7	270	12	
2025-11-11T12:00	8460	337	-41.8	-48.7	270	12	
2025-11-11T12:00	8480	336	-42.0	-48.5	269	12	
2025-11-11T12:00	8500	335	-42.1	-48.9	268	12	
2025-11-11T12:00	8520	335	-42.3	-49.0	267	12	
2025-11-11T12:00	8540	334	-42.5	-48.9	267	12	
2025-11-11T12:00	8560	333	-42.7	-48.9	267	12	
2025-11-11T12:00	8580	331	-42.8	-49.0	267	13	
2025-11-11T12:00	8600	331	-43.0	-48.9	267	13	
2025-11-11T12:00	8620	330	-43.1	-48.8	268	14	
2025-11-11T12:00	8640	329	-43.2	-48.5	268	14	
2025-11-11T12:00	8660	328	-43.4	-48.5	269	14	
2025-11-11T12:00	8680	327	-43.6	-48.7	270	14	
2025-11-11T12:00	8700	326	-43.7	-49.0	271	14	
2025-11-11T12:00	8720	325	-43.9	-49.1	273	14	
2025-11-11T12:00	8740	324	-44.1	-49.1	274	13	
2025-11-11T12:00	8760	323	-44.3	-49.1	276	13	
2025-11-11T12:00	8780	322	-44.5	-49.2	276	13	
2025-11-11T12:00	8800	321	-44.7	-49.2	276	14	
2025-11-11T12:00	8820	320	-44.8	-49.1	276	14	
2025-11-11T12:00	8840	319	-45.0	-49.1	274	14	
2025-11-11T12:00	8860	318	-45.2	-49.0	272	14	
2025-11-11T12:00	8880	317	-45.4	-49.2	270	14	
2025-11-11T12:00	8900	316	-45.6	-49.2	270	14	
2025-11-11T12:00	8920	315	-45.8	-49.3	269	14	
2025-11-11T12:00	8940	314	-46.0	-49.6	268	14	
2025-11-11T12:00	8960	313	-46.2	-49.5	269	14	
2025-11-11T12:00	8980	312	-46.4	-49.6	269	15	
2025-11-11T12:00	9000	311	-46.5	-50.5	270	15	
2025-11-11T12:00	9020	311	-46.7	-52.2	270	15	
2025-11-11T12:00	9040	310	-46.8	-53.7	271	15	
2025-11-11T12:00	9060	309	-47.0	-53.6	271	16	
2025-11-11T12:00	9080	308	-47.2	-54.0	272	16	
2025-11-11T12:00	9100	307	-47.4	-55.0	273	16	
2025-11-11T12:00	9120	306	-47.5	-55.8	274	16	
2025-11-11T12:00	9140	305	-47.7	-57.4	274	16	
2025-11-11T12:00	9160	304	-47.8	-58.3	275	16	
2025-11-11T12:00	9180	303	-48.0	-58.3	275	16	
2025-11-11T12:00	9200	302	-48.2	-58.0	275	15	
2025-11-11T12:00	9220	301	-48.4	-57.7	275	15	
2025-11-11T12:00	9240	300	-48.6	-57.8	275	15	
2025-11-11T12:00	9260	299	-48.8	-58.2	275	15	
2025-11-11T12:00	9280	298	-48.9	-58.6	275	15	
2025-11-11T12:00	9300	297	-49.1	-58.8	275	15	
2025-11-11T12:00	9320	297	-49.3	-58.9	275	15	
2025-11-11T12:00	9340	296	-49.5	-58.9	275	15	
2025-11-11T12:00	9360	295	-49.6	-58.8	275	15	
2025-11-11T12:00	9380	294	-49.8	-58.6	275	15	
2025-11-11T12:00	9400	293	-50.0	-58.5	274	15	
2025-11-11T12:00	9420	292	-50.2	-58.5	274	16	
2025-11-11T12:00	9440	291	-50.4	-58.4	273	16	
2025-11-11T12:00	9460	290	-50.6	-58.4	273	16	
2025-11-11T12:00	9480	290	-50.8	-58.3	273	16	
2025-11-11T12:00	9500	289	-51.0	-58.3	273	15	
2025-11-11T12:00	9520	288	-51.2	-58.3	273	15	
2025-11-11T12:00	9540	287	-51.3	-58.1	274	15	
2025-11-11T12:00	9560	286	-51.5	-57.8	275	14	
2025-11-11T12:00	9580	285	-51.7	-57.3	277	14	
2025-11-11T12:00	9600	284	-51.9	-57.0	278	14	
2025-11-11T12:00	9620	283	-52.0	-57.1	280	14	
2025-11-11T12:00	9640	283	-52.2	-57.2	280	14	
2025-11-11T12:00	9660	282	-52.4	-57.6	280	14	
2025-11-11T12:00	9680	281	-52.6	-58.5	280	14	
2025-11-11T12:00	9700	280	-52.8	-59.3	280	14	
2025-11-11T12:00	9720	279	-52.9	-59.7	280	14	
2025-11-11T12:00	9740	278	-53.1	-59.6	279	15	
2025-11-11T12:00	9760	277	-53.3	-59.5	279	15	
2025-11-11T12:00	9780	276	-53.5	-59.6	279	15	
2025-11-11T12:00	9800	275	-53.7	-59.7	279	15	
2025-11-11T12:00	9820	275	-53.9	-59.8	279	15	
2025-11-11T12:00	9840	274	-54.1	-60.0	279	15	
2025-11-11T12:00	9860	273	-54.2	-60.1	279	15	
2025-11-11T12:00	9880	272	-54.4	-60.2	279	14	
2025-11-11T12:00	9900	271	-54.7	-60.1	279	14	
2025-11-11T12:00	9920	270	-54.8	-60.2	278	14	
2025-11-11T12:00	9940	270	-55.0	-60.4	278	14	
2025-11-11T12:00	9960	269	-55.2	-60.9	278	14	
2025-11-11T12:00	9980	268	-55.3	-61.1	277	14	
2025-11-11T12:00	10000	267	-55.5	-61.4	277	14	
2025-11-11T12:00	10018	266	-55.6	-61.7	278	14	
2025-11-11T12:00	10050	265	-55.9	-62.2	278	15	
2025-11-11T12:00	10100	263	-56.3	-62.3	278	15	
2025-11-11T12:00	10150	261	-56.8	-62.3	277	14	
2025-11-11T12:00	10200	259	-57.3	-62.6	278	14	
2025-11-11T12:00	10250	257	-57.7	-63.7	279	15	
2025-11-11T12:00	10300	255	-58.1	-64.2	280	16	
2025-11-11T12:00	10350	253	-58.6	-64.3	280	16	
2025-11-11T12:00	10400	251	-59.0	-64.4	279	17	
2025-11-11T12:00	10450	249	-59.4	-64.3	279	17	
2025-11-11T12:00	10500	247	-59.7	-64.4	279	17	
2025-11-11T12:00	10550	245	-60.1	-65.0	281	17	
2025-11-11T12:00	10600	243	-60.6	-65.2	284	16	
2025-11-11T12:00	10650	241	-61.1	-65.7	287	16	
2025-11-11T12:00	10700	239	-61.5	-66.2	288	16	
2025-11-11T12:00	10750	237	-62.0	-66.5	288	16	
2025-11-11T12:00	10800	235	-62.4	-66.8	289	15	
2025-11-11T12:00	10850	233	-62.8	-67.5	290	14	
2025-11-11T12:00	10900	231	-63.2	-68.6	292	14	
2025-11-11T12:00	10950	229	-63.5	-69.4	291	14	
2025-11-11T12:00	11000	227	-63.8	-69.4	290	15	
2025-11-11T12:00	11050	226	-63.9	-69.1	289	16	
2025-11-11T12:00	11100	224	-63.7	-69.2	288	16	
2025-11-11T12:00	11150	222	-63.9	-69.7	287	16	
2025-11-11T12:00	11200	220	-64.4	-69.9	286	17	
2025-11-11T12:00	11250	218	-64.8	-70.0	286	17	
2025-11-11T12:00	11300	217	-65.3	-70.1	284	17	
2025-11-11T12:00	11350	215	-65.7	-70.1	281	18	
2025-11-11T12:00	11400	213	-66.1	-70.1	279	19	
2025-11-11T12:00	11450	211	-66.3	-70.1	280	20	
2025-11-11T12:00	11500	210	-65.5	-69.4	284	21	
2025-11-11T12:00	11550	208	-65.5	-69.3	288	21	
2025-11-11T12:00	11600	206	-65.7	-69.4	292	22	
2025-11-11T12:00	11650	205	-65.9	-69.9	295	22	
2025-11-11T12:00	11700	203	-66.0	-70.0	297	22	
2025-11-11T12:00	11750	201	-66.3	-70.3	299	21	
2025-11-11T12:00	11800	199	-66.6	-70.8	299	20	
2025-11-11T12:00	11850	198	-66.3	-71.1	298	18	
2025-11-11T12:00	11900	196	-65.6	-71.5	295	17	
2025-11-11T12:00	11950	195	-65.2	-72.7	292	17	
2025-11-11T12:00	12000	193	-64.3	-73.1	288	17	
2025-11-11T12:00	12050	192	-64.4	-73.6	284	18	
2025-11-11T12:00	12100	190	-64.8	-73.8	281	18	
2025-11-11T12:00	12150	188	-65.2	-73.8	279	19	
2025-11-11T12:00	12200	187	-65.2	-74.0	278	21	
2025-11-11T12:00	12250	185	-64.5	-73.9	279	22	
2025-11-11T12:00	12300	184	-64.5	-74.2	280	23	
2025-11-11T12:00	12350	182	-64.7	-74.3	281	24	
2025-11-11T12:00	12400	181	-64.6	-74.4	284	25	
2025-11-11T12:00	12450	179	-64.6	-74.9	288	25	
2025-11-11T12:00	12500	178	-64.0	-75.9	290	25	
2025-11-11T12:00	12550	176	-63.4	-77.0	292	24	
2025-11-11T12:00	12600	175	-63.2	-77.8	294	23	
2025-11-11T12:00	12650	174	-63.0	-78.4	296	22	
2025-11-11T12:00	12700	172	-62.7	-79.0	297	21	
2025-11-11T12:00	12750	171	-61.7	-79.6	296	19	
2025-11-11T12:00	12800	169	-61.7	-79.7	296	18	
2025-11-11T12:00	12850	168	-62.2	-79.6	295	18	
2025-11-11T12:00	12900	167	-62.6	-79.4	293	17	
2025-11-11T12:00	12950	165	-63.0	-79.4	289	17	
2025-11-11T12:00	13000	164	-63.4	-79.5	284	16	
2025-11-11T12:00	13050	163	-63.5	-79.8	278	16	
2025-11-11T12:00	13100	161	-63.4	-80.2	276	17	
2025-11-11T12:00	13150	160	-63.2	-80.5	278	18	
2025-11-11T12:00	13200	159	-63.2	-80.8	282	19	
2025-11-11T12:00	13250	157	-62.9	-81.0	285	19	
2025-11-11T12:00	13300	156	-62.8	-81.1	287	19	
2025-11-11T12:00	13350	155	-62.5	-81.1	289	20	
2025-11-11T12:00	13400	154	-62.5	-81.2	290	20	
2025-11-11T12:00	13450	152	-62.5	-81.3	290	21	
2025-11-11T12:00	13500	151	-62.2	-81.5	290	21	
2025-11-11T12:00	13550	150	-61.8	-81.9	290	19	
2025-11-11T12:00	13600	149	-61.5	-82.1	289	18	
2025-11-11T12:00	13650	148	-61.3	-82.3	289	18	
2025-11-11T12:00	13700	146	-61.1	-82.3	287	18	
2025-11-11T12:00	13750	145	-61.1	-82.4	285	18	
2025-11-11T12:00	13800	144	-61.2	-82.4	284	17	
2025-11-11T12:00	13850	143	-61.6	-82.4	284	16	
2025-11-11T12:00	13900	142	-61.8	-82.4	285	16	
2025-11-11T12:00	13950	141	-61.8	-82.5	283	16	
2025-11-11T12:00	14000	139	-61.8	-82.7	280	16	
2025-11-11T12:00	14050	138	-61.9	-82.8	280	16	
2025-11-11T12:00	14100	137	-61.9	-82.9	281	15	
2025-11-11T12:00	14150	136	-61.8	-83.0	283	15	
2025-11-11T12:00	14200	135	-61.9	-83.0	285	15	
2025-11-11T12:00	14250	134	-62.2	-83.1	285	14	
2025-11-11T12:00	14300	133	-62.3	-83.2	283	14	
2025-11-11T12:00	14350	132	-62.3	-83.3	280	14	
2025-11-11T12:00	14400	131	-62.2	-83.3	278	14	
2025-11-11T12:00	14450	130	-62.2	-83.3	275	16	
2025-11-11T12:00	14500	129	-62.2	-83.5	274	18	
2025-11-11T12:00	14550	128	-62.0	-83.4	276	19	
2025-11-11T12:00	14600	127	-62.0	-83.5	279	20	
2025-11-11T12:00	14650	126	-61.9	-83.5	281	20	
2025-11-11T12:00	14700	125	-62.1	-83.6	282	19	
2025-11-11T12:00	14750	124	-62.2	-83.6	283	19	
2025-11-11T12:00	14800	122	-62.3	-83.6	283	18	
2025-11-11T12:00	14850	122	-62.3	-83.7	283	18	
2025-11-11T12:00	14900	121	-62.1	-83.8	285	18	
2025-11-11T12:00	14950	120	-61.9	-83.9	287	18	
2025-11-11T12:00	15000	119	-61.8	-83.9	287	18	
2025-11-11T12:00	15050	118	-61.9	-84.0	288	17	
2025-11-11T12:00	15100	117	-61.6	-84.0	288	16	
2025-11-11T12:00	15150	116	-61.8	-84.0	286	16	
2025-11-11T12:00	15200	115	-62.1	-84.0	284	15	
2025-11-11T12:00	15250	114	-62.2	-84.1	280	14	
2025-11-11T12:00	15300	113	-62.4	-84.2	274	13	
2025-11-11T12:00	15350	112	-62.5	-84.2	267	13	
2025-11-11T12:00	15400	111	-62.7	-84.3	263	13	
2025-11-11T12:00	15450	110	-62.5	-84.3	261	14	
2025-11-11T12:00	15500	109	-62.4	-84.4	260	15	
2025-11-11T12:00	15550	109	-62.2	-84.4	263	15	
2025-11-11T12:00	15600	108	-61.7	-84.4	269	16	
2025-11-11T12:00	15650	107	-61.5	-84.4	278	16	
2025-11-11T12:00	15700	106	-61.1	-84.3	286	16	
2025-11-11T12:00	15750	105	-60.9	-84.4	293	14	
2025-11-11T12:00	15800	104	-60.5	-84.3	296	14	
2025-11-11T12:00	15850	103	-60.6	-84.3	297	14	
2025-11-11T12:00	15900	103	-60.7	-84.3	298	14	
2025-11-11T12:00	15950	102	-60.8	-84.3	301	14	
2025-11-11T12:00	16000	101	-61.0	-84.4	304	14	
2025-11-11T12:00	16050	100	-61.0	-84.4	307	14	
2025-11-11T12:00	16100	99	-61.0	-84.5	307	12	
2025-11-11T12:00	16150	98	-60.7	-84.4	305	10	
2025-11-11T12:00	16200	98	-60.8	-84.4	300	9	
2025-11-11T12:00	16250	97	-61.0	-84.5	291	9	
2025-11-11T12:00	16300	96	-61.0	-84.5	281	9	
2025-11-11T12:00	16350	95	-61.0	-84.6	272	9	
2025-11-11T12:00	16400	95	-61.2	-84.6	265	9	
2025-11-11T12:00	16450	94	-61.3	-84.6	261	10	
2025-11-11T12:00	16500	93	-61.5	-84.7	258	12	
2025-11-11T12:00	16550	92	-61.6	-84.8	258	14	
2025-11-11T12:00	16600	92	-61.3	-84.8	260	16	
2025-11-11T12:00	16650	91	-61.2	-84.8	264	17	
2025-11-11T12:00	16700	90	-61.2	-84.8	267	18	
2025-11-11T12:00	16750	89	-61.4	-84.9	272	18	
2025-11-11T12:00	16800	89	-61.2	-84.8	277	18	
2025-11-11T12:00	16850	88	-60.8	-84.8	281	18	
2025-11-11T12:00	16900	87	-60.5	-84.8	285	18	
2025-11-11T12:00	16950	87	-60.2	-84.6	288	17	
2025-11-11T12:00	17000	86	-60.3	-84.6	291	16	
2025-11-11T12:00	17050	85	-60.5	-84.7	293	15	
2025-11-11T12:00	17100	85	-60.4	-84.7	293	14	
2025-11-11T12:00	17150	84	-60.4	-84.7	290	13	
2025-11-11T12:00	17200	83	-60.4	-84.7	288	13	
2025-11-11T12:00	17250	83	-60.4	-84.6	287	12	
2025-11-11T12:00	17300	82	-60.6	-84.6	287	12	
2025-11-11T12:00	17350	81	-61.0	-84.7	287	12	
2025-11-11T12:00	17400	81	-61.4	-84.8	284	12	
2025-11-11T12:00	17450	80	-61.7	-85.0	281	12	
2025-11-11T12:00	17500	79	-61.9	-85.1	278	12	
2025-11-11T12:00	17550	79	-61.9	-85.2	275	12	
2025-11-11T12:00	17600	78	-62.0	-85.3	273	13	
2025-11-11T12:00	17650	77	-61.9	-85.3	270	13	
2025-11-11T12:00	17700	77	-61.7	-85.3	266	13	
2025-11-11T12:00	17750	76	-62.0	-85.4	263	14	
2025-11-11T12:00	17800	76	-62.0	-85.3	263	14	
2025-11-11T12:00	17850	75	-62.2	-85.5	264	15	
2025-11-11T12:00	17900	74	-62.3	-85.5	265	16	
2025-11-11T12:00	17950	74	-62.5	-85.5	268	17	
2025-11-11T12:00	18000	73	-62.8	-85.6	273	17	
2025-11-11T12:00	18050	72	-62.9	-85.6	277	17	
2025-11-11T12:00	18100	72	-63.0	-85.7	278	17	
2025-11-11T12:00	18150	71	-63.2	-85.8	279	16	
2025-11-11T12:00	18200	71	-63.4	-86.0	280	15	
2025-11-11T12:00	18250	70	-63.4	-86.0	282	15	
2025-11-11T12:00	18300	70	-63.2	-85.9	283	14	
2025-11-11T12:00	18350	69	-63.4	-86.0	284	14	
2025-11-11T12:00	18400	69	-63.8	-86.0	284	13	
2025-11-11T12:00	18450	68	-64.1	-86.1	282	13	
2025-11-11T12:00	18500	67	-64.4	-86.4	278	13	
2025-11-11T12:00	18550	67	-64.1	-86.4	273	13	
2025-11-11T12:00	18600	66	-63.8	-86.5	269	14	
2025-11-11T12:00	18650	66	-63.5	-86.6	268	14	
2025-11-11T12:00	18700	65	-63.2	-86.5	269	14	
2025-11-11T12:00	18750	65	-62.8	-86.4	268	14	
2025-11-11T12:00	18800	64	-62.6	-86.4	265	14	
2025-11-11T12:00	18850	64	-62.2	-86.2	264	13	
2025-11-11T12:00	18900	63	-62.2	-86.1	263	13	
2025-11-11T12:00	18950	63	-62.2	-86.1	262	13	
2025-11-11T12:00	19000	62	-62.3	-86.1	263	13	
2025-11-11T12:00	19050	62	-62.5	-86.1	262	13	
2025-11-11T12:00	19100	61	-62.7	-86.2	259	13	
2025-11-11T12:00	19150	61	-62.8	-86.4	255	14	
2025-11-11T12:00	19200	60	-62.8	-86.3	254	14	
2025-11-11T12:00	19250	60	-63.0	-86.4	257	15	
2025-11-11T12:00	19300	59	-63.0	-86.3	261	15	
2025-11-11T12:00	19350	59	-63.2	-86.4	264	15	
2025-11-11T12:00	19400	58	-63.3	-86.6	266	16	
2025-11-11T12:00	19450	58	-63.1	-86.6	267	15	
2025-11-11T12:00	19500	57	-63.0	-86.5	268	14	
2025-11-11T12:00	19550	57	-62.9	-86.4	270	14	
2025-11-11T12:00	19600	56	-62.9	-86.4	271	13	
2025-11-11T12:00	19650	56	-62.9	-86.4	269	13	
2025-11-11T12:00	19700	55	-63.0	-86.4	266	13	
2025-11-11T12:00	19750	55	-63.2	-86.6	265	13	
2025-11-11T12:00	19800	55	-63.2	-86.6	267	12	
2025-11-11T12:00	19850	54	-63.3	-86.6	270	11	
2025-11-11T12:00	19900	54	-63.2	-86.6	271	10	
2025-11-11T12:00	19950	53	-63.2	-86.6	271	10	
2025-11-11T12:00	20000	53	-63.3	-86.6	270	11	
2025-11-11T12:00	20050	52	-63.5		270	12	
2025-11-11T12:00	20100	52	-63.7		271	12	
2025-11-11T12:00	20150	52	-63.9		270	12	
2025-11-11T12:00	20200	51	-64.0		268	12	
2025-11-11T12:00	20250	51	-63.9		266	13	
2025-11-11T12:00	20300	50	-63.8		263	14	
2025-11-11T12:00	20350	50	-63.8		262	15	
2025-11-11T12:00	20400	49	-63.4		263	16	
2025-11-11T12:00	20450	49	-63.3		266	17	
2025-11-11T12:00	20500	49	-63.6		270	18	
2025-11-11T12:00	20550	48	-63.8		273	18	
2025-11-11T12:00	20600	48	-63.2		275	17	
2025-11-11T12:00	20650	47	-62.8		276	15	
2025-11-11T12:00	20700	47	-62.9		275	14	
2025-11-11T12:00	20750	47	-63.2		273	14	
2025-11-11T12:00	20800	46	-63.1		272	14	
2025-11-11T12:00	20850	46	-63.1		271	15	
2025-11-11T12:00	20900	46	-63.3		272	15	
2025-11-11T12:00	20950	45	-63.6		272	15	
2025-11-11T12:00	21000	45	-63.8		272	15	
2025-11-11T12:00	21050	44	-64.0		274	15	
2025-11-11T12:00	21100	44	-64.1		277	14	
2025-11-11T12:00	21150	44	-64.2		278	14	
2025-11-11T12:00	21200	43	-64.2		276	14	
2025-11-11T12:00	21250	43	-64.4		274	14	
2025-11-11T12:00	21300	43	-64.5		275	13	
2025-11-11T12:00	21350	42	-64.9		279	13	
2025-11-11T12:00	21400	42	-65.2		284	12	
2025-11-11T12:00	21450	42	-65.4		285	11	
2025-11-11T12:00	21500	41	-65.9		283	10	
2025-11-11T12:00	21550	41	-65.9		278	9	
2025-11-11T12:00	21600	41	-66.0		274	9	
2025-11-11T12:00	21650	40	-66.2		273	10	
2025-11-11T12:00	21700	40	-66.4		272	11	
2025-11-11T12:00	21750	40	-66.5		272	12	
2025-11-11T12:00	21800	39	-66.5		273	13	
2025-11-11T12:00	21850	39	-66.7		273	14	
2025-11-11T12:00	21900	39	-66.8		271	14	
2025-11-11T12:00	21950	38	-66.4		267	14	
2025-11-11T12:00	22000	38	-66.2		263	14	
2025-11-11T12:00	22050	38	-66.2		260	15	
2025-11-11T12:00	22100	37	-65.9		260	15	
2025-11-11T12:00	22150	37	-65.7		261	15	
2025-11-11T12:00	22200	37	-65.6		263	15	
2025-11-11T12:00	22250	37	-65.8		265	14	
2025-11-11T12:00	22300	36	-66.0		267	14	
2025-11-11T12:00	22350	36	-66.0		269	14	
2025-11-11T12:00	22400	36	-65.9		269	14	
2025-11-11T12:00	22450	35	-65.6		269	15	
2025-11-11T12:00	22500	35	-65.4		269	16	
2025-11-11T12:00	22550	35	-65.0		271	17	
2025-11-11T12:00	22600	34	-65.1		275	17	
2025-11-11T12:00	22650	34	-65.3		279	17	
2025-11-11T12:00	22700	34	-65.6		280	17	
2025-11-11T12:00	22750	34	-65.5		278	16	
2025-11-11T12:00	22800	33	-65.4		276	16	
2025-11-11T12:00	22850	33	-65.1		276	16	
2025-11-11T12:00	22900	33	-64.9		276	17	
2025-11-11T12:00	22950	33	-64.7		275	18	
2025-11-11T12:00	23000	32	-64.7		274	18	
2025-11-11T12:00	23050	32	-64.5		274	18	
2025-11-11T12:00	23100	32	-64.6		272	18	
2025-11-11T12:00	23150	31	-64.7		268	17	
2025-11-11T12:00	23200	31	-64.6		265	17	
2025-11-11T12:00	23250	31	-64.3		263	17	
2025-11-11T12:00	23300	31	-64.0		264	17	
2025-11-11T12:00	23350	30	-63.8		267	17	
2025-11-11T12:00	23400	30	-63.7		271	17	
2025-11-11T12:00	23450	30	-63.6		273	17	
2025-11-11T12:00	23500	30	-63.8		273	16	
2025-11-11T12:00	23550	30	-64.0		273	16	
2025-11-11T12:00	23600	29	-63.9		271	15	
2025-11-11T12:00	23650	29	-63.8		267	15	
2025-11-11T12:00	23700	29	-63.7		260	15	
2025-11-11T12:00	23750	29	-63.8		253	15	
2025-11-11T12:00	23800	28	-63.6		249	15	
2025-11-11T12:00	23850	28	-63.8		248	16	
2025-11-11T12:00	23900	28	-64.0		248	18	
2025-11-11T12:00	23950	28	-64.3		249	19	
2025-11-11T12:00	24000	27	-63.8		251	19	
2025-11-11T12:00	24050	27	-63.6		256	19	
2025-11-11T12:00	24100	27	-63.7		261	19	
2025-11-11T12:00	24150	27	-63.8		266	18	
2025-11-11T12:00	24200	27	-63.6		270	18	
2025-11-11T12:00	24250	26	-63.5		273	17	
2025-11-11T12:00	24300	26	-63.9		276	17	
2025-11-11T12:00	24350	26	-64.3		280	16	
2025-11-11T12:00	24400	26	-64.8		283	16	
2025-11-11T12:00	24450	25	-65.2		286	15	
2025-11-11T12:00	24500	25	-65.7		288	15	
2025-11-11T12:00	24550	25	-65.9		287	15	
2025-11-11T12:00	24600	25	-65.8		285	15	
2025-11-11T12:00	24650	25	-65.8		282	15	
2025-11-11T12:00	24700	24	-66.1		277	15	
2025-11-11T12:00	24750	24	-66.2		273	15	
2025-11-11T12:00	24800	24	-66.5		269	16	
2025-11-11T12:00	24850	24	-66.8		266	16	
2025-11-11T12:00	24900	24	-67.0		263	16	
2025-11-11T12:00	24950	23	-67.1		261	16	
2025-11-11T12:00	25000	23	-67.2		260	16	
2025-11-11T12:00	25050	23	-67.3		261	16	
2025-11-11T12:00	25100	23	-67.2		263	16	
2025-11-11T12:00	25150	23	-67.1		267	17	
2025-11-11T12:00	25200	23	-67.0		270	18	
2025-11-11T12:00	25250	22	-67.1		270	19	
2025-11-11T12:00	25300	22	-67.1		267	20	
2025-11-11T12:00	25350	22	-66.7		265	21	
2025-11-11T12:00	25400	22	-66.6		265	22	
2025-11-11T12:00	25450	22	-66.4		267	23	
2025-11-11T12:00	25500	21	-66.0		269	23	
2025-11-11T12:00	25550	21	-65.8		272	23	
2025-11-11T12:00	25600	21	-66.0		273	23	
2025-11-11T12:00	25650	21	-66.1		274	23	
2025-11-11T12:00	25700	21	-66.1		276	22	
2025-11-11T12:00	25750	21	-66.0		277	22	
2025-11-11T12:00	25800	20	-66.1		277	23	
2025-11-11T12:00	25850	20	-66.2		277	23	
2025-11-11T12:00	25900	20	-66.1		275	24	
2025-11-11T12:00	25950	20	-65.7		275	25	
2025-11-11T12:00	26000	20	-65.3		274	26	
2025-11-11T12:00	26050	20	-65.0		274	26	
2025-11-11T12:00	26100	19	-65.2		274	25	
2025-11-11T12:00	26150	19	-65.5		274	25	
2025-11-11T12:00	26200	19	-65.5		273	26	
2025-11-11T12:00	26250	19	-65.3		273	26	
2025-11-11T12:00	26300	19	-65.1		274	27	
2025-11-11T12:00	26350	19	-64.9		276	27	
2025-11-11T12:00	26400	18	-64.9		277	28	
2025-11-11T12:00	26450	18	-64.9		278	28	
2025-11-11T12:00	26500	18	-65.0		279	29	
2025-11-11T12:00	26550	18	-64.9		280	30	
2025-11-11T12:00	26600	18	-64.7		281	30	
2025-11-11T12:00	26650	18	-64.8		282	31	
2025-11-11T12:00	26700	18	-65.1		283	31	
2025-11-11T12:00	26750	17	-65.4		283	30	
2025-11-11T12:00	26800	17	-65.5		284	30	
2025-11-11T12:00	26850	17	-65.8		284	29	
2025-11-11T12:00	26900	17	-66.2		283	27	
2025-11-11T12:00	26950	17	-66.4		282	26	
2025-11-11T12:00	27000	17	-66.6		280	25	
2025-11-11T12:00	27050	17	-66.2		278	25	
2025-11-11T12:00	27100	16	-66.0		277	26	
2025-11-11T12:00	27150	16	-65.7		276	27	
2025-11-11T12:00	27200	16	-65.3		274	28	
2025-11-11T12:00	27250	16	-65.1		271	27	
2025-11-11T12:00	27300	16	-65.1		268	28	
2025-11-11T12:00	27350	16	-64.7		267	30	
2025-11-11T12:00	27400	16	-63.9		267	32	
2025-11-11T12:00	27450	16	-63.4		269	33	
2025-11-11T12:00	27500	15	-63.3		270	32	
2025-11-11T12:00	27550	15	-63.2		268	30	
2025-11-11T12:00	27600	15	-63.5		266	30	
2025-11-11T12:00	27650	15	-63.5		266	30	
2025-11-11T12:00	27700	15	-63.2		266	30	
2025-11-11T12:00	27750	15	-62.9		267	30	
2025-11-11T12:00	27800	15	-62.4		266	31	
2025-11-11T12:00	27850	15	-62.1		265	31	
2025-11-11T12:00	27900	14	-61.9		265	31	
2025-11-11T12:00	27950	14	-62.0		266	31	
2025-11-11T12:00	28000	14	-62.2		267	31	
2025-11-11T12:00	28050	14	-62.6		268	31	
2025-11-11T12:00	28100	14	-62.9		270	30	
2025-11-11T12:00	28150	14	-63.0		271	30	
2025-11-11T12:00	28200	14	-63.1		273	30	
2025-11-11T12:00	28250	14	-63.4		274	30	
2025-11-11T12:00	28300	14	-63.8		274	31	
2025-11-11T12:00	28350	13	-63.8		273	31	
2025-11-11T12:00	28400	13	-63.4		271	31	
2025-11-11T12:00	28450	13	-63.2		270	32	
2025-11-11T12:00	28500	13	-63.1		270	32	
2025-11-11T12:00	28550	13	-63.2		270	33	
2025-11-11T12:00	28600	13	-63.4		271	33	
2025-11-11T12:00	28650	13	-63.5		272	34	
2025-11-11T12:00	28700	13	-63.6		271	35	
2025-11-11T12:00	28750	13	-63.6		270	35	
2025-11-11T12:00	28800	12	-63.6		268	36	
2025-11-11T12:00	28850	12	-63.6		267	36	
2025-11-11T12:00	28900	12	-63.6		267	35	
2025-11-11T12:00	28950	12	-63.6		267	34	
2025-11-11T12:00	29000	12	-63.7		268	32	
2025-11-11T12:00	29050	12	-63.7		269	31	
2025-11-11T12:00	29100	12	-63.7		271	31	
2025-11-11T12:00	29150	12	-63.7		273	30	
2025-11-11T12:00	29200	12	-63.8		276	31	
2025-11-11T12:00	29250	12	-63.8		277	31	
2025-11-11T12:00	29300	12	-63.9		277	31	
2025-11-11T12:00	29350	11	-64.1		277	32	
2025-11-11T12:00	29400	11	-63.7		276	32	
2025-11-11T12:00	29450	11	-63.6		274	33	
2025-11-11T12:00	29500	11	-63.9		273	33	
2025-11-11T12:00	29550	11	-63.9		271	34	
2025-11-11T12:00	29600	11	-63.7		269	35	
2025-11-11T12:00	29650	11	-63.3		267	35	
2025-11-11T12:00	29700	11	-62.8		267	35	
2025-11-11T12:00	29750	11	-62.1		267	35	
2025-11-11T12:00	29800	11	-61.4		268	34	
2025-11-11T12:00	29850	11	-61.0		269	33	
2025-11-11T12:00	29900	10	-61.0		271	32	
2025-11-11T12:00	29950	10	-61.1		272	31	
2025-11-11T12:00	30000	10	-61.2		273	31	
2025-11-11T12:00	30050	10	-61.3		274	32	
2025-11-11T12:00	30100	10	-61.5		275	33	
2025-11-11T12:00	30150	10	-61.8		275	34	
2025-11-11T12:00	30200	10	-62.2		275	35	
2025-11-11T12:00	30250	10	-62.5		276	35	
2025-11-11T12:00	30300	10	-62.8		277	35	
2025-11-11T12:00	30350	10	-63.0		279	35	
2025-11-11T12:00	30400	10	-63.1		279	35	
2025-11-11T12:00	30450	10	-63.1		279	36	
2025-11-11T12:00	30500	9	-62.7		278	36	
2025-11-11T12:00	30550	9	-62.6		276	37	
2025-11-11T12:00	30600	9	-62.5		275	37	
2025-11-11T12:00	30650	9	-62.3		274	38	
2025-11-11T12:00	30700	9	-62.3		274	39	
2025-11-11T12:00	30750	9	-62.4		274	40	
2025-11-11T12:00	30800	9	-62.5		275	41	
2025-11-11T12:00	30850	9	-62.4		275	42	
2025-11-11T12:00	30900	9	-62.0		275	44	
2025-11-11T12:00	30950	9	-61.5		275	45	
2025-11-11T12:00	31000	9	-61.2		275	46	
2025-11-11T12:00	31050	9	-60.6		274	47	
2025-11-11T12:00	31100	9	-60.0		274	46	
2025-11-11T12:00	31150	9	-59.8		275	46	
2025-11-11T12:00	31200	8	-59.6		276	45	
2025-11-11T12:00	31250	8	-59.3		277	44	
2025-11-11T12:00	31300	8	-59.1		277	44	
2025-11-11T12:00	31350	8	-58.5		276	43	
2025-11-11T12:00	31400	8	-58.1		274	42	
2025-11-11T12:00	31450	8	-58.1		273	40	
2025-11-11T12:00	31500	8	-58.2		272	40	
2025-11-11T12:00	31550	8	-58.0		270	40	
2025-11-11T12:00	31600	8	-57.3		269	43	
2025-11-11T12:00	31650	8	-56.6		268	45	
2025-11-11T12:00	31700	8	-56.4		267	47	
2025-11-11T12:00	31750	8	-56.1		266	48	
2025-11-11T12:00	31800	8	-55.3		265	49	
2025-11-11T12:00	31850	8	-54.6		265	50	
2025-11-11T12:00	31900	8	-54.3		265	50	
2025-11-11T12:00	31950	8	-53.9		266	50	
2025-11-11T12:00	32000	7	-53.5		267	50	
2025-11-11T12:00	32050	7	-53.1		269	50	
2025-11-11T12:00	32100	7	-53.0		271	51	
2025-11-11T12:00	32150	7	-53.0		272	51	
2025-11-11T12:00	32200	7	-52.8		273	52	
2025-11-11T12:00	32250	7	-52.5		273	53	
2025-11-11T12:00	32300	7	-52.3		273	53	
2025-11-11T12:00	32350	7	-52.2		273	54	
2025-11-11T12:00	32400	7	-52.2		274	54	
2025-11-11T12:00	32450	7	-52.0		275	54	
2025-11-11T12:00	32500	7	-51.9		275	53	
2025-11-11T12:00	32550	7	-51.8		276	53	
2025-11-11T12:00	32600	7	-52.1		276	52	
2025-11-11T12:00	32650	7	-52.3		275	51	
2025-11-11T12:00	32700	7	-52.3		274	52	
2025-11-11T12:00	32750	7	-52.3		273	52	
2025-11-11T12:00	32800	7	-52.1		271	53	
2025-11-11T12:00	32850	7	-51.7		271	55	
2025-11-11T12:00	32900	6	-51.1		271	56	
2025-11-11T12:00	32950	6	-50.8		271	56	
2025-11-11T12:00	33000	6	-50.9		271	56	
2025-11-11T12:00	33050	6	-50.8		271	56	
2025-11-11T12:00	33100	6	-50.4		270	56	
2025-11-11T12:00	33150	6	-50.2		269	56	
2025-11-11T12:00	33200	6	-50.3		269	55	
2025-11-11T12:00	33250	6	-50.4		268	55	
2025-11-11T12:00	33300	6	-50.3		268	54	
2025-11-11T12:00	33350	6	-50.1		268	54	
2025-11-11T12:00	33400	6	-49.9		269	54	
2025-11-11T12:00	33450	6	-50.0		269	53	
2025-11-11T12:00	33500	6	-50.2		270	53	
2025-11-11T12:00	33550	6	-50.2		270	53	
2025-11-11T12:00	33600	6	-50.3		270	52	
2025-11-11T12:00	33650	6	-50.4		269	52	
2025-11-11T12:00	33700	6	-50.6		268	52	
2025-11-11T12:00	33750	6	-50.4		267	53	
2025-11-11T12:00	33800	6	-50.1		266	53	
2025-11-11T12:00	33850	6	-49.8		264	54	
2025-11-11T12:00	33900	6	-49.4		264	55	
2025-11-11T12:00	33950	6	-48.8		265	55	
2025-11-11T12:00	34000	5	-48.6		267	56	
2025-11-11T12:00	34050	5	-48.4		269	57	
2025-11-11T12:00	34100	5	-47.9		271	58	
2025-11-11T12:00	34150	5	-47.1		271	59	
2025-11-11T12:00	34200	5	-46.8		270	59	
2025-11-11T12:00	34250	5	-46.5		270	58	
2025-11-11T12:00	34300	5	-46.3		270	58	
2025-11-11T12:00	34350	5	-46.0		268	58	
2025-11-11T12:00	34400	5	-45.5		267	59	
2025-11-11T12:00	34450	5	-45.3		266	60	
2025-11-11T12:00	34500	5	-45.2		265	60	
2025-11-11T12:00	34550	5	-45.3		266	61	
2025-11-11T12:00	34600	5	-44.9		266	60	
2025-11-11T12:00	34650	5	-44.2		267	60	
2025-11-11T12:00	34700	5	-43.7		267	60	
2025-11-11T12:00	34750	5	-43.3		268	59	
2025-11-11T12:00	34800	5	-43.0		268	59	
2025-11-11T12:00	34850	5	-42.9		268	59	
2025-11-11T12:00	34900	5	-43.0		268	59	
2025-11-11T12:00	34950	5	-42.9		268	60	
2025-11-11T12:00	35000	5	-43.1		269	60	
2025-11-11T12:00	35050	5	-43.4		269	60	
2025-11-11T12:00	35100	5	-43.5		270	60	
2025-11-11T12:00	35150	5	-43.2		270	60	
2025-11-11T12:00	35200	5	-42.7		270	60	
2025-11-11T12:00	35250	5	-42.4		270	59	
2025-11-11T12:00	35300	5	-42.4		270	58	
2025-11-11T12:00	35350	4	-42.6		271	57	
2025-11-11T12:00	35400	4	-42.8		272	57	
2025-11-11T12:00	35450	4	-42.9		272	56	
2025-11-11T12:00	35500	4	-42.9		273	55	
2025-11-11T12:00	35550	4	-43.0		273	55	
2025-11-11T12:00	35600	4	-43.0		274	55	
2025-11-11T12:00	35650	4	-43.0		274	55	
2025-11-11T12:00	35700	4	-42.9		274	55	
2025-11-11T12:00	35750	4	-43.0		273	54	
2025-11-11T12:00	35800	4	-43.2		271	53	
2025-11-11T12:00	35850	4	-43.3		269	52	
2025-11-11T12:00	35900	4	-43.0		268	52	
2025-11-11T12:00	35950	4	-42.4		269	51	
2025-11-11T12:00	36000	4	-42.1		270	50	
2025-11-11T12:00	36050	4	-41.6		267	49	
2025-11-11T12:00	36100	4	-40.6		263	49	
2025-11-11T12:00	36150	4	-40.0		259	50	
2025-11-11T12:00	36200	4	-39.5		257	51	
2025-11-11T12:00	36250	4	-39.3		255	52	
2025-11-11T12:00	36300	4	-39.2		256	54	
2025-11-11T12:00	36350	4	-38.9		257	55	
2025-11-11T12:00	36400	4	-38.8		257	56	
2025-11-11T12:00	36450	4	-38.6		257	58	
2025-11-11T12:00	36500	4	-38.4		258	59	
2025-11-11T12:00	36550	4	-38.6		258	61	
2025-11-11T12:00	36600	4	-38.6		258	63	
2025-11-11T12:00	36650	4	-38.4		259	64	
2025-11-11T12:00	36700	4	-38.5		260	65	
2025-11-11T12:00	36750	4	-38.5		261	65	
2025-11-12T00:00	491	960	3.2	2.8	185	1	
2025-11-12T00:00	520	957	5.1	3.2	182	2	
2025-11-12T00:00	540	955	6.4	3.5	187	2	
2025-11-12T00:00	560	952	6.7	3.8	192	3	
2025-11-12T00:00	580	950	6.9	3.8	196	3	
2025-11-12T00:00	600	948	7.4	3.7	201	3	
2025-11-12T00:00	620	945	7.8	4.2	206	3	
2025-11-12T00:00	640	943	7.9	4.0	210	3	
2025-11-12T00:00	660	941	8.0	3.9	212	2	
2025-11-12T00:00	680	939	7.9	3.8	214	2	
2025-11-12T00:00	700	936	7.9	3.7	214	1	
2025-11-12T00:00	720	934	7.8	3.6	214	1	
2025-11-12T00:00	740	932	7.7	3.5	216	1	
2025-11-12T00:00	760	929	7.8	3.3	230	0	
2025-11-12T00:00	780	927	8.1	3.4	287	0	
2025-11-12T00:00	800	925	8.0	3.3	329	0	
2025-11-12T00:00	820	923	8.0	2.8	339	1	
2025-11-12T00:00	840	921	8.1	1.0	344	1	
2025-11-12T00:00	860	918	8.2	0.8	354	1	
2025-11-12T00:00	880	916	8.3	-0.2	8	1	
2025-11-12T00:00	900	914	8.2	1.2	24	1	
2025-11-12T00:00	920	912	8.0	1.4	38	1	
2025-11-12T00:00	940	909	8.0	1.9	51	1	
2025-11-12T00:00	960	907	7.9	2.5	68	1	
2025-11-12T00:00	980	905	8.0	1.7	107	1	
2025-11-12T00:00	1000	903	8.3	0.4	166	1	
2025-11-12T00:00	1020	901	8.3	-0.1	196	1	
2025-11-12T00:00	1040	899	8.3	-0.3	209	2	
2025-11-12T00:00	1060	896	8.3	-0.5	215	2	
2025-11-12T00:00	1080	894	8.1	-0.4	219	3	
2025-11-12T00:00	1100	892	7.9	-0.5	221	3	
2025-11-12T00:00	1120	890	7.8	-0.9	221	4	
2025-11-12T00:00	1140	888	7.6	-0.9	220	4	
2025-11-12T00:00	1160	886	7.6	-1.2	219	5	
2025-11-12T00:00	1180	884	7.5	-1.4	217	6	
2025-11-12T00:00	1200	881	7.5	-1.7	216	7	
2025-11-12T00:00	1220	879	7.4	-2.0	215	8	
2025-11-12T00:00	1240	877	7.3	-2.2	214	8	
2025-11-12T00:00	1260	875	7.2	-2.3	214	8	
2025-11-12T00:00	1280	873	7.4	-2.6	214	8	
2025-11-12T00:00	1300	871	7.8	-3.1	214	8	
2025-11-12T00:00	1320	868	8.6	-3.3	214	8	
2025-11-12T00:00	1340	866	8.7	-3.2	214	8	
2025-11-12T00:00	1360	864	8.6	-3.2	214	8	
2025-11-12T00:00	1380	862	8.6	-3.3	214	8	
2025-11-12T00:00	1400	860	8.6	-3.4	214	8	
2025-11-12T00:00	1420	858	8.6	-3.4	214	8	
2025-11-12T00:00	1440	856	8.5	-3.4	214	8	
2025-11-12T00:00	1460	854	8.8	-3.2	215	8	
2025-11-12T00:00	1480	852	9.1	-2.8	217	8	
2025-11-12T00:00	1500	850	9.2	-2.2	218	8	
2025-11-12T00:00	1520	848	9.2	-2.0	219	9	
2025-11-12T00:00	1540	846	9.0	-2.1	220	9	
2025-11-12T00:00	1560	844	8.9	-2.1	220	9	
2025-11-12T00:00	1580	842	8.8	-2.3	220	9	
2025-11-12T00:00	1600	840	8.7	-2.4	220	9	
2025-11-12T00:00	1620	838	8.6	-2.5	219	9	
2025-11-12T00:00	1640	836	8.5	-2.5	218	9	
2025-11-12T00:00	1660	833	8.4	-2.7	216	9	
2025-11-12T00:00	1680	832	8.4	-2.8	214	9	
2025-11-12T00:00	1700	829	8.3	-2.8	212	9	
2025-11-12T00:00	1720	827	8.2	-2.7	211	10	
2025-11-12T00:00	1740	826	8.1	-2.8	211	10	
2025-11-12T00:00	1760	824	8.1	-3.2	212	10	
2025-11-12T00:00	1780	821	8.0	-3.5	213	11	
2025-11-12T00:00	1800	819	7.9	-3.8	215	11	
2025-11-12T00:00	1820	817	7.9	-4.1	217	12	
2025-11-12T00:00	1840	815	8.0	-4.7	219	12	
2025-11-12T00:00	1860	813	8.0	-4.7	220	13	
2025-11-12T00:00	1880	811	7.9	-4.7	221	13	
2025-11-12T00:00	1900	810	7.8	-4.6	222	13	
2025-11-12T00:00	1920	808	7.7	-4.6	223	13	
2025-11-12T00:00	1940	806	7.5	-4.7	224	13	
2025-11-12T00:00	1960	804	7.3	-4.7	225	13	
2025-11-12T00:00	1980	802	7.2	-4.7	226	14	
2025-11-12T00:00	2000	800	7.0	-4.8	227	14	
2025-11-12T00:00	2020	798	6.9	-4.9	228	14	
2025-11-12T00:00	2040	796	6.7	-5.1	229	13	
2025-11-12T00:00	2060	794	6.5	-5.2	230	13	
2025-11-12T00:00	2080	792	6.5	-6.2	231	13	
2025-11-12T00:00	2100	790	6.8	-8.8	231	12	
2025-11-12T00:00	2120	788	7.1	-10.7	232	12	
2025-11-12T00:00	2140	786	7.0	-10.6	233	11	
2025-11-12T00:00	2160	785	7.0	-12.0	233	11	
2025-11-12T00:00	2180	783	7.1	-13.3	234	10	
2025-11-12T00:00	2200	781	6.9	-13.7	235	10	
2025-11-12T00:00	2220	779	6.8	-14.3	236	9	
2025-11-12T00:00	2240	777	6.9	-16.2	236	9	
2025-11-12T00:00	2260	775	7.0	-15.8	237	8	
2025-11-12T00:00	2280	773	7.0	-10.5	237	8	
2025-11-12T00:00	2300	771	6.9	-8.4	237	8	
2025-11-12T00:00	2320	769	6.8	-8.3	238	8	
2025-11-12T00:00	2340	767	6.6	-8.5	238	8	
2025-11-12T00:00	2360	766	6.4	-8.5	238	8	
2025-11-12T00:00	2380	764	6.3	-8.4	238	8	
2025-11-12T00:00	2400	762	6.1	-8.8	238	8	
2025-11-12T00:00	2420	760	5.9	-9.0	238	8	
2025-11-12T00:00	2440	758	5.7	-9.0	238	8	
2025-11-12T00:00	2460	756	5.6	-8.9	238	8	
2025-11-12T00:00	2480	754	5.4	-8.7	239	8	
2025-11-12T00:00	2500	752	5.2	-8.6	240	8	
2025-11-12T00:00	2520	751	5.0	-8.7	241	7	
2025-11-12T00:00	2540	749	4.9	-8.6	242	7	
2025-11-12T00:00	2560	747	4.8	-8.6	243	7	
2025-11-12T00:00	2580	745	4.6	-8.3	243	7	
2025-11-12T00:00	2600	743	4.5	-8.2	243	7	
2025-11-12T00:00	2620	742	4.4	-8.2	243	6	
2025-11-12T00:00	2640	740	4.3	-8.5	244	6	
2025-11-12T00:00	2660	738	4.2	-8.6	245	6	
2025-11-12T00:00	2680	736	4.0	-8.8	246	6	
2025-11-12T00:00	2700	734	3.9	-9.1	249	6	
2025-11-12T00:00	2720	732	3.7	-9.1	251	7	
2025-11-12T00:00	2740	731	3.6	-9.2	252	6	
2025-11-12T00:00	2760	729	3.4	-9.5	253	6	
2025-11-12T00:00	2780	727	3.3	-9.6	253	6	
2025-11-12T00:00	2800	725	3.1	-9.5	254	6	
2025-11-12T00:00	2820	723	3.0	-9.6	255	6	
2025-11-12T00:00	2840	722	2.8	-9.8	256	6	
2025-11-12T00:00	2860	720	2.6	-9.9	259	6	
2025-11-12T00:00	2880	718	2.4	-9.9	262	6	
2025-11-12T00:00	2900	716	2.3	-10.1	263	6	
2025-11-12T00:00	2920	715	2.2	-10.3	264	6	
2025-11-12T00:00	2940	713	2.0	-10.2	264	5	
2025-11-12T00:00	2960	711	1.9	-10.4	263	5	
2025-11-12T00:00	2980	709	1.7	-10.6	261	5	
2025-11-12T00:00	3000	707	1.5	-10.7	259	6	
2025-11-12T00:00	3020	706	1.3	-10.7	257	6	
2025-11-12T00:00	3040	704	1.1	-10.7	256	6	
2025-11-12T00:00	3060	702	1.0	-10.7	254	6	
2025-11-12T00:00	3080	701	0.8	-10.7	254	6	
2025-11-12T00:00	3100	699	0.6	-10.6	253	6	
2025-11-12T00:00	3120	697	0.4	-10.9	253	6	
2025-11-12T00:00	3140	695	0.3	-11.0	254	6	
2025-11-12T00:00	3160	693	0.1	-11.1	254	6	
2025-11-12T00:00	3180	692	0.0	-11.0	256	6	
2025-11-12T00:00	3200	690	-0.2	-11.0	259	6	
2025-11-12T00:00	3220	688	-0.3	-11.1	261	6	
2025-11-12T00:00	3240	687	-0.5	-11.2	264	6	
2025-11-12T00:00	3260	685	-0.5	-11.2	267	6	
2025-11-12T00:00	3280	683	-0.6	-11.2	269	6	
2025-11-12T00:00	3300	681	-0.7	-11.3	270	6	
2025-11-12T00:00	3320	680	-0.9	-11.4	271	6	
2025-11-12T00:00	3340	678	-1.1	-11.6	271	6	
2025-11-12T00:00	3360	676	-1.2	-11.9	271	7	
2025-11-12T00:00	3380	675	-1.4	-12.1	270	7	
2025-11-12T00:00	3400	673	-1.5	-11.9	269	7	
2025-11-12T00:00	3420	671	-1.7	-11.9	267	7	
2025-11-12T00:00	3440	670	-1.8	-11.7	266	7	
2025-11-12T00:00	3460	668	-2.0	-11.7	265	7	
2025-11-12T00:00	3480	666	-2.2	-11.6	266	7	
2025-11-12T00:00	3500	665	-2.4	-11.6	267	7	
2025-11-12T00:00	3520	663	-2.6	-11.7	268	8	
2025-11-12T00:00	3540	661	-2.7	-11.6	269	8	
2025-11-12T00:00	3560	659	-3.0	-11.6	271	9	
2025-11-12T00:00	3580	658	-3.1	-11.6	271	9	
2025-11-12T00:00	3600	656	-3.3	-11.6	272	9	
2025-11-12T00:00	3620	655	-3.5	-11.6	272	9	
2025-11-12T00:00	3640	653	-3.7	-11.7	274	9	
2025-11-12T00:00	3660	651	-3.9	-11.6	275	9	
2025-11-12T00:00	3680	650	-4.1	-11.7	276	10	
2025-11-12T00:00	3700	648	-4.3	-11.7	278	10	
2025-11-12T00:00	3720	646	-4.4	-11.8	278	10	
2025-11-12T00:00	3740	645	-4.6	-11.9	278	11	
2025-11-12T00:00	3760	643	-4.8	-12.0	278	11	
2025-11-12T00:00	3780	642	-5.0	-12.2	277	11	
2025-11-12T00:00	3800	640	-5.1	-12.5	277	11	
2025-11-12T00:00	3820	638	-5.3	-12.5	278	10	
2025-11-12T00:00	3840	637	-5.5	-12.4	279	10	
2025-11-12T00:00	3860	635	-5.6	-12.7	280	10	
2025-11-12T00:00	3880	633	-5.8	-13.4	281	9	
2025-11-12T00:00	3900	632	-5.9	-14.3	282	9	
2025-11-12T00:00	3920	630	-6.0	-15.3	283	9	
2025-11-12T00:00	3940	628	-6.2	-15.7	283	9	
2025-11-12T00:00	3960	627	-6.3	-17.0	282	8	
2025-11-12T00:00	3980	625	-6.4	-17.2	281	8	
2025-11-12T00:00	4000	624	-6.6	-17.4	279	8	
2025-11-12T00:00	4020	622	-6.8	-17.6	278	7	
2025-11-12T00:00	4040	620	-7.0	-17.7	276	7	
2025-11-12T00:00	4060	619	-7.2	-17.8	274	7	
2025-11-12T00:00	4080	617	-7.3	-17.8	273	7	
2025-11-12T00:00	4100	616	-7.5	-17.9	272	7	
2025-11-12T00:00	4120	614	-7.7	-17.9	271	7	
2025-11-12T00:00	4140	613	-7.9	-18.0	271	7	
2025-11-12T00:00	4160	611	-8.0	-18.0	271	7	
2025-11-12T00:00	4180	610	-8.2	-18.1	271	7	
2025-11-12T00:00	4200	608	-8.3	-18.4	271	7	
2025-11-12T00:00	4220	606	-8.4	-18.5	270	7	
2025-11-12T00:00	4240	605	-8.6	-18.9	268	8	
2025-11-12T00:00	4260	603	-8.7	-19.2	267	8	
2025-11-12T00:00	4280	602	-8.8	-19.4	266	8	
2025-11-12T00:00	4300	600	-9.0	-19.8	266	8	
2025-11-12T00:00	4320	598	-9.1	-20.3	267	8	
2025-11-12T00:00	4340	597	-9.2	-20.5	268	8	
2025-11-12T00:00	4360	595	-9.4	-20.7	268	8	
2025-11-12T00:00	4380	594	-9.5	-21.0	268	8	
2025-11-12T00:00	4400	592	-9.7	-21.4	267	8	
2025-11-12T00:00	4420	591	-9.8	-21.4	265	8	
2025-11-12T00:00	4440	589	-10.0	-21.7	263	8	
2025-11-12T00:00	4460	588	-10.0	-21.8	262	8	
2025-11-12T00:00	4480	586	-10.1	-21.7	263	9	
2025-11-12T00:00	4500	585	-10.2	-21.2	265	10	
2025-11-12T00:00	4520	583	-10.4	-20.7	268	10	
2025-11-12T00:00	4540	582	-10.5	-20.0	272	11	
2025-11-12T00:00	4560	580	-10.5	-19.3	274	11	
2025-11-12T00:00	4580	579	-10.5	-19.2	277	11	
2025-11-12T00:00	4600	577	-10.5	-19.6	280	11	
2025-11-12T00:00	4620	576	-10.3	-20.9	283	10	
2025-11-12T00:00	4640	574	-10.3	-21.4	285	10	
2025-11-12T00:00	4660	573	-10.3	-21.9	287	10	
2025-11-12T00:00	4680	571	-10.3	-22.0	288	10	
2025-11-12T00:00	4700	570	-10.4	-21.9	289	11	
2025-11-12T00:00	4720	568	-10.5	-21.2	289	11	
2025-11-12T00:00	4740	567	-10.6	-21.3	289	11	
2025-11-12T00:00	4760	565	-10.8	-21.2	289	11	
2025-11-12T00:00	4780	564	-10.9	-21.2	289	11	
2025-11-12T00:00	4800	562	-11.1	-21.2	290	10	
2025-11-12T00:00	4820	561	-11.3	-21.3	290	10	
2025-11-12T00:00	4840	559	-11.3	-21.2	289	10	
2025-11-12T00:00	4860	558	-11.4	-20.1	287	10	
2025-11-12T00:00	4880	556	-11.6	-19.7	285	11	
2025-11-12T00:00	4900	555	-11.8	-19.6	282	11	
2025-11-12T00:00	4920	554	-12.0	-19.6	281	11	
2025-11-12T00:00	4940	552	-12.1	-19.6	280	11	
2025-11-12T00:00	4960	551	-12.3	-19.7	280	11	
2025-11-12T00:00	4980	549	-12.4	-19.9	281	10	
2025-11-12T00:00	5000	548	-12.5	-20.2	282	10	
2025-11-12T00:00	5020	546	-12.6	-20.7	283	10	
2025-11-12T00:00	5040	545	-12.8	-20.9	284	10	
2025-11-12T00:00	5060	544	-12.9	-21.2	284	10	
2025-11-12T00:00	5080	542	-13.1	-21.4	283	10	
2025-11-12T00:00	5100	541	-13.3	-21.5	283	10	
2025-11-12T00:00	5120	539	-13.5	-21.6	281	10	
2025-11-12T00:00	5140	538	-13.6	-21.6	280	10	
2025-11-12T00:00	5160	537	-13.8	-21.8	279	10	
2025-11-12T00:00	5180	535	-14.0	-21.9	279	10	
2025-11-12T00:00	5200	534	-14.2	-21.9	280	10	
2025-11-12T00:00	5220	532	-14.4	-22.0	281	9	
2025-11-12T00:00	5240	531	-14.5	-22.2	283	9	
2025-11-12T00:00	5260	530	-14.6	-22.4	285	9	
2025-11-12T00:00	5280	528	-14.8	-22.5	289	8	
2025-11-12T00:00	5300	527	-15.0	-22.6	292	8	
2025-11-12T00:00	5320	525	-15.1	-22.9	293	8	
2025-11-12T00:00	5340	524	-15.2	-23.1	295	8	
2025-11-12T00:00	5360	523	-15.4	-23.2	296	7	
2025-11-12T00:00	5380	521	-15.5	-23.7	296	7	
2025-11-12T00:00	5400	520	-15.5	-24.4	296	7	
2025-11-12T00:00	5420	518	-15.6	-24.4	295	7	
2025-11-12T00:00	5440	517	-15.8	-24.5	294	7	
2025-11-12T00:00	5460	516	-15.9	-24.6	294	7	
2025-11-12T00:00	5480	514	-16.1	-24.8	294	7	
2025-11-12T00:00	5500	513	-16.3	-24.9	295	7	
2025-11-12T00:00	5520	511	-16.4	-25.0	296	7	
2025-11-12T00:00	5540	510	-16.6	-25.2	297	8	
2025-11-12T00:00	5560	509	-16.7	-25.5	298	8	
2025-11-12T00:00	5580	507	-16.8	-25.9	299	9	
2025-11-12T00:00	5600	506	-17.0	-26.1	299	9	
2025-11-12T00:00	5620	505	-17.1	-26.1	300	10	
2025-11-12T00:00	5640	503	-17.3	-26.4	300	10	
2025-11-12T00:00	5660	502	-17.4	-26.5	300	11	
2025-11-12T00:00	5680	501	-17.5	-27.2	300	11	
2025-11-12T00:00	5700	499	-17.6	-27.7	300	11	
2025-11-12T00:00	5720	498	-17.7	-27.2	301	11	
2025-11-12T00:00	5740	497	-17.8	-27.8	302	12	
2025-11-12T00:00	5760	496	-17.9	-27.7	304	12	
2025-11-12T00:00	5780	494	-18.0	-27.8	304	12	
2025-11-12T00:00	5800	493	-18.1	-28.2	304	13	
2025-11-12T00:00	5820	492	-18.2	-28.6	304	13	
2025-11-12T00:00	5840	490	-18.2	-29.4	303	13	
2025-11-12T00:00	5860	489	-18.2	-30.1	302	13	
2025-11-12T00:00	5880	488	-18.2	-31.3	302	13	
2025-11-12T00:00	5900	486	-18.2	-31.7	303	13	
2025-11-12T00:00	5920	485	-18.4	-31.4	303	13	
2025-11-12T00:00	5940	484	-18.6	-31.5	303	12	
2025-11-12T00:00	5960	482	-18.7	-31.6	303	12	
2025-11-12T00:00	5980	481	-18.9	-31.3	302	12	
2025-11-12T00:00	6000	480	-19.1	-31.4	301	12	
2025-11-12T00:00	6020	479	-19.2	-31.4	299	12	
2025-11-12T00:00	6040	477	-19.4	-31.9	298	12	
2025-11-12T00:00	6060	476	-19.5	-32.2	297	12	
2025-11-12T00:00	6080	475	-19.6	-32.4	298	12	
2025-11-12T00:00	6100	473	-19.7	-33.1	300	12	
2025-11-12T00:00	6120	472	-19.8	-33.7	301	12	
2025-11-12T00:00	6140	471	-20.0	-34.1	303	12	
2025-11-12T00:00	6160	470	-20.2	-34.6	305	12	
2025-11-12T00:00	6180	468	-20.3	-35.7	306	11	
2025-11-12T00:00	6200	467	-20.4	-37.2	307	11	
2025-11-12T00:00	6220	466	-20.5	-37.7	307	11	
2025-11-12T00:00	6240	464	-20.7	-37.7	307	11	
2025-11-12T00:00	6260	463	-20.9	-37.5	306	11	
2025-11-12T00:00	6280	462	-21.0	-37.9	305	11	
2025-11-12T00:00	6300	461	-21.1	-38.7	304	10	
2025-11-12T00:00	6320	459	-21.3	-39.5	304	10	
2025-11-12T00:00	6340	458	-21.4	-39.7	303	10	
2025-11-12T00:00	6360	457	-21.6	-39.7	303	10	
2025-11-12T00:00	6380	456	-21.7	-39.9	304	10	
2025-11-12T00:00	6400	455	-21.8	-39.8	305	10	
2025-11-12T00:00	6420	453	-22.0	-40.0	306	10	
2025-11-12T00:00	6440	452	-22.2	-40.2	306	10	
2025-11-12T00:00	6460	451	-22.3	-40.2	305	10	
2025-11-12T00:00	6480	450	-22.5	-39.7	305	10	
2025-11-12T00:00	6500	448	-22.7	-39.7	304	10	
2025-11-12T00:00	6520	447	-22.9	-39.9	304	10	
2025-11-12T00:00	6540	446	-23.0	-39.1	303	10	
2025-11-12T00:00	6560	445	-23.2	-39.1	303	11	
2025-11-12T00:00	6580	443	-23.3	-40.2	303	11	
2025-11-12T00:00	6600	442	-23.4	-41.0	304	11	
2025-11-12T00:00	6620	441	-23.4	-42.6	303	11	
2025-11-12T00:00	6640	440	-23.4	-44.7	303	11	
2025-11-12T00:00	6660	439	-23.6	-44.6	302	11	
2025-11-12T00:00	6680	438	-23.7	-44.5	302	11	
2025-11-12T00:00	6700	436	-23.9	-44.7	302	11	
2025-11-12T00:00	6720	435	-24.1	-44.8	302	11	
2025-11-12T00:00	6740	434	-24.2	-44.9	302	11	
2025-11-12T00:00	6760	433	-24.3	-45.4	302	11	
2025-11-12T00:00	6780	431	-24.4	-47.3	303	11	
2025-11-12T00:00	6800	430	-24.5	-49.7	304	11	
2025-11-12T00:00	6820	429	-24.6	-51.0	305	11	
2025-11-12T00:00	6840	428	-24.7	-51.4	305	11	
2025-11-12T00:00	6860	427	-24.8	-51.7	306	10	
2025-11-12T00:00	6880	426	-25.0	-51.8	306	10	
2025-11-12T00:00	6900	424	-25.2	-51.9	307	10	
2025-11-12T00:00	6920	423	-25.4	-51.8	307	10	
2025-11-12T00:00	6940	422	-25.5	-52.1	308	10	
2025-11-12T00:00	6960	421	-25.7	-52.2	309	10	
2025-11-12T00:00	6980	420	-25.9	-52.5	309	10	
2025-11-12T00:00	7000	419	-26.1	-52.9	309	10	
2025-11-12T00:00	7020	417	-26.2	-53.1	309	10	
2025-11-12T00:00	7040	416	-26.4	-53.2	309	10	
2025-11-12T00:00	7060	415	-26.5	-53.3	308	10	
2025-11-12T00:00	7080	414	-26.7	-53.2	308	10	
2025-11-12T00:00	7100	413	-26.9	-53.3	308	10	
2025-11-12T00:00	7120	412	-27.1	-53.3	309	10	
2025-11-12T00:00	7140	411	-27.2	-53.3	309	10	
2025-11-12T00:00	7160	410	-27.4	-53.2	309	10	
2025-11-12T00:00	7180	408	-27.6	-53.0	308	10	
2025-11-12T00:00	7200	407	-27.8	-52.8	308	11	
2025-11-12T00:00	7220	406	-28.0	-53.0	306	11	
2025-11-12T00:00	7240	405	-28.2	-53.6	304	11	
2025-11-12T00:00	7260	404	-28.3	-53.8	303	12	
2025-11-12T00:00	7280	403	-28.5	-54.1	301	12	
2025-11-12T00:00	7300	401	-28.7	-53.9	300	12	
2025-11-12T00:00	7320	400	-28.9	-53.9	301	13	
2025-11-12T00:00	7340	399	-29.0	-54.1	301	13	
2025-11-12T00:00	7360	398	-29.2	-53.9	302	13	
2025-11-12T00:00	7380	397	-29.4	-53.3	304	13	
2025-11-12T00:00	7400	396	-29.6	-52.8	305	13	
2025-11-12T00:00	7420	395	-29.8	-52.7	306	13	
2025-11-12T00:00	7440	394	-30.0	-52.2	307	13	
2025-11-12T00:00	7460	393	-30.2	-51.7	308	12	
2025-11-12T00:00	7480	392	-30.3	-51.9	307	12	
2025-11-12T00:00	7500	390	-30.5	-52.0	307	12	
2025-11-12T00:00	7520	389	-30.7	-52.5	306	12	
2025-11-12T00:00	7540	388	-30.9	-52.8	305	12	
2025-11-12T00:00	7560	387	-31.1	-52.9	305	12	
2025-11-12T00:00	7580	386	-31.3	-53.0	304	12	
2025-11-12T00:00	7600	385	-31.4	-53.2	304	12	
2025-11-12T00:00	7620	384	-31.6	-53.9	304	12	
2025-11-12T00:00	7640	383	-31.7	-54.5	304	12	
2025-11-12T00:00	7660	382	-31.9	-54.6	305	12	
2025-11-12T00:00	7680	381	-32.0	-54.9	305	12	
2025-11-12T00:00	7700	379	-32.3	-55.2	306	12	
2025-11-12T00:00	7720	378	-32.4	-55.6	307	12	
2025-11-12T00:00	7740	377	-32.6	-55.7	307	12	
2025-11-12T00:00	7760	376	-32.8	-55.9	308	12	
2025-11-12T00:00	7780	375	-32.9	-56.1	309	12	
2025-11-12T00:00	7800	374	-33.1	-55.9	309	12	
2025-11-12T00:00	7820	373	-33.3	-55.3	310	11	
2025-11-12T00:00	7840	372	-33.5	-55.0	311	11	
2025-11-12T00:00	7860	371	-33.7	-54.6	312	11	
2025-11-12T00:00	7880	370	-33.8	-55.2	314	11	
2025-11-12T00:00	7900	369	-34.0	-57.3	315	11	
2025-11-12T00:00	7920	368	-34.1	-58.1	317	11	
2025-11-12T00:00	7940	367	-34.3	-57.4	319	11	
2025-11-12T00:00	7960	366	-34.4	-57.2	320	11	
2025-11-12T00:00	7980	365	-34.6	-56.5	322	12	
2025-11-12T00:00	8000	364	-34.7	-57.4	323	12	
2025-11-12T00:00	8020	363	-34.9	-58.2	324	12	
2025-11-12T00:00	8040	362	-34.9	-58.7	326	11	
2025-11-12T00:00	8060	361	-35.1	-59.0	327	11	
2025-11-12T00:00	8080	360	-35.2	-59.2	328	11	
2025-11-12T00:00	8100	358	-35.4	-59.3	328	11	
2025-11-12T00:00	8120	357	-35.6	-59.6	327	10	
2025-11-12T00:00	8140	356	-35.8	-59.8	327	10	
2025-11-12T00:00	8160	355	-35.9	-60.2	326	10	
2025-11-12T00:00	8180	354	-36.1	-60.3	326	10	
2025-11-12T00:00	8200	353	-36.3	-60.5	327	10	
2025-11-12T00:00	8220	352	-36.5	-60.9	328	10	
2025-11-12T00:00	8240	351	-36.7	-62.0	329	10	
2025-11-12T00:00	8260	350	-36.7	-63.4	330	9	
2025-11-12T00:00	8280	349	-36.8	-64.2	331	9	
2025-11-12T00:00	8300	348	-36.8	-64.2	331	9	
2025-11-12T00:00	8320	347	-37.0	-64.1	330	9	
2025-11-12T00:00	8340	346	-37.2	-64.0	330	9	
2025-11-12T00:00	8360	345	-37.4	-63.7	329	9	
2025-11-12T00:00	8380	344	-37.6	-63.6	329	9	
2025-11-12T00:00	8400	343	-37.8	-63.6	329	10	
2025-11-12T00:00	8420	342	-37.9	-63.7	329	10	
2025-11-12T00:00	8440	341	-38.1	-63.9	330	10	
2025-11-12T00:00	8460	340	-38.3	-64.0	331	10	
2025-11-12T00:00	8480	339	-38.5	-63.9	332	10	
2025-11-12T00:00	8500	338	-38.6	-63.2	333	10	
2025-11-12T00:00	8520	337	-38.8	-63.0	335	10	
2025-11-12T00:00	8540	336	-39.0	-63.2	336	10	
2025-11-12T00:00	8560	335	-39.2	-63.3	337	10	
2025-11-12T00:00	8580	334	-39.4	-63.0	336	10	
2025-11-12T00:00	8600	333	-39.6	-62.5	335	10	
2025-11-12T00:00	8620	332	-39.8	-62.3	334	10	
2025-11-12T00:00	8640	331	-40.0	-62.4	331	10	
2025-11-12T00:00	8660	330	-40.1	-62.6	329	10	
2025-11-12T00:00	8680	330	-40.3	-62.7	328	10	
2025-11-12T00:00	8700	328	-40.5	-62.4	326	10	
2025-11-12T00:00	8720	328	-40.6	-62.3	325	10	
2025-11-12T00:00	8740	327	-40.8	-62.1	325	10	
2025-11-12T00:00	8760	326	-41.0	-62.2	325	9	
2025-11-12T00:00	8780	325	-41.2	-62.9	326	9	
2025-11-12T00:00	8800	324	-41.3	-63.9	327	9	
2025-11-12T00:00	8820	323	-41.5	-64.5	329	9	
2025-11-12T00:00	8840	322	-41.6	-63.5	331	9	
2025-11-12T00:00	8860	321	-41.8	-61.8	333	9	
2025-11-12T00:00	8880	320	-42.0	-61.3	335	9	
2025-11-12T00:00	8900	319	-42.1	-61.0	337	9	
2025-11-12T00:00	8920	318	-42.3	-60.7	339	9	
2025-11-12T00:00	8940	317	-42.5	-60.6	341	9	
2025-11-12T00:00	8960	316	-42.7	-60.4	343	9	
2025-11-12T00:00	8980	315	-42.9	-60.3	345	9	
2025-11-12T00:00	9000	314	-43.0	-60.4	347	9	
2025-11-12T00:00	9020	313	-43.2	-60.5	348	10	
2025-11-12T00:00	9040	312	-43.4	-61.0	349	10	
2025-11-12T00:00	9060	312	-43.5	-62.5	350	10	
2025-11-12T00:00	9080	311	-43.6	-63.4	349	11	
2025-11-12T00:00	9100	310	-43.7	-62.6	349	11	
2025-11-12T00:00	9120	309	-43.9	-62.2	348	11	
2025-11-12T00:00	9140	308	-44.1	-61.7	346	11	
2025-11-12T00:00	9160	307	-44.3	-61.4	345	12	
2025-11-12T00:00	9180	306	-44.5	-60.7	344	12	
2025-11-12T00:00	9200	305	-44.6	-60.1	343	12	
2025-11-12T00:00	9220	304	-44.9	-60.3	342	12	
2025-11-12T00:00	9240	303	-45.1	-60.5	341	13	
2025-11-12T00:00	9260	302	-45.2	-60.5	341	13	
2025-11-12T00:00	9280	301	-45.4	-60.6	341	13	
2025-11-12T00:00	9300	300	-45.6	-60.9	341	13	
2025-11-12T00:00	9320	300	-45.7	-61.2	341	13	
2025-11-12T00:00	9340	299	-45.9	-61.4	341	14	
2025-11-12T00:00	9360	298	-46.1	-61.3	341	13	
2025-11-12T00:00	9380	297	-46.3	-61.2	341	14	
2025-11-12T00:00	9400	296	-46.5	-61.1	342	13	
2025-11-12T00:00	9420	295	-46.7	-60.8	342	14	
2025-11-12T00:00	9440	294	-46.9	-60.5	342	14	
2025-11-12T00:00	9460	293	-47.1	-60.4	343	14	
2025-11-12T00:00	9480	292	-47.3	-60.0	343	14	
2025-11-12T00:00	9500	292	-47.5	-59.5	344	14	
2025-11-12T00:00	9520	291	-47.6	-59.2	344	14	
2025-11-12T00:00	9540	290	-47.8	-59.2	345	14	
2025-11-12T00:00	9560	289	-48.0	-59.3	345	14	
2025-11-12T00:00	9580	288	-48.2	-59.2	345	15	
2025-11-12T00:00	9600	287	-48.4	-59.2	345	15	
2025-11-12T00:00	9620	286	-48.6	-59.2	344	15	
2025-11-12T00:00	9640	285	-48.8	-59.1	344	15	
2025-11-12T00:00	9660	285	-49.0	-58.9	344	15	
2025-11-12T00:00	9680	284	-49.1	-59.0	343	15	
2025-11-12T00:00	9700	283	-49.3	-59.4	342	15	
2025-11-12T00:00	9720	282	-49.5	-59.7	342	14	
2025-11-12T00:00	9740	281	-49.6	-59.6	341	14	
2025-11-12T00:00	9760	280	-49.8	-59.3	340	14	
2025-11-12T00:00	9780	280	-50.0	-58.9	340	14	
2025-11-12T00:00	9800	279	-50.2	-58.6	340	14	
2025-11-12T00:00	9820	278	-50.4	-58.6	340	14	
2025-11-12T00:00	9840	277	-50.6	-58.8	341	14	
2025-11-12T00:00	9860	276	-50.8	-58.9	341	14	
2025-11-12T00:00	9880	275	-51.0	-59.0	342	14	
2025-11-12T00:00	9900	274	-51.1	-59.3	343	14	
2025-11-12T00:00	9920	274	-51.3	-59.6	344	14	
2025-11-12T00:00	9940	273	-51.5	-59.9	345	14	
2025-11-12T00:00	9960	272	-51.7	-60.3	345	14	
2025-11-12T00:00	9980	271	-51.9	-60.7	346	14	
2025-11-12T00:00	10000	270	-52.0	-61.1	346	14	
2025-11-12T00:00	10018	269	-52.2	-61.4	346	14	
2025-11-12T00:00	10050	268	-52.5	-61.5	345	15	
2025-11-12T00:00	10100	266	-52.9	-61.9	344	16	
2025-11-12T00:00	10150	264	-53.2	-62.8	344	16	
2025-11-12T00:00	10200	262	-53.6	-62.7	345	17	
2025-11-12T00:00	10250	260	-53.9	-62.4	347	17	
2025-11-12T00:00	10300	258	-54.4	-62.4	349	18	
2025-11-12T00:00	10350	256	-54.8	-62.7	351	18	
2025-11-12T00:00	10400	254	-55.3	-63.0	352	19	
2025-11-12T00:00	10450	252	-55.7	-63.0	354	20	
2025-11-12T00:00	10500	250	-56.1	-62.6	355	20	
2025-11-12T00:00	10550	248	-56.5	-62.2	353	20	
2025-11-12T00:00	10600	246	-56.9	-61.9	351	21	
2025-11-12T00:00	10650	244	-57.4	-62.0	350	21	
2025-11-12T00:00	10700	242	-57.8	-62.3	351	21	
2025-11-12T00:00	10750	240	-58.3	-62.9	351	21	
2025-11-12T00:00	10800	238	-58.9	-63.7	351	21	
2025-11-12T00:00	10850	236	-59.3	-64.0	351	22	
2025-11-12T00:00	10900	235	-59.7	-64.0	351	22	
2025-11-12T00:00	10950	233	-60.2	-64.4	351	22	
2025-11-12T00:00	11000	231	-60.6	-65.3	351	22	
2025-11-12T00:00	11050	229	-61.1	-67.4	352	21	
2025-11-12T00:00	11100	227	-61.3	-70.6	353	20	
2025-11-12T00:00	11150	225	-61.6	-72.5	354	20	
2025-11-12T00:00	11200	223	-61.8	-72.4	355	20	
2025-11-12T00:00	11250	222	-62.1	-72.0	355	20	
2025-11-12T00:00	11300	220	-62.4	-71.9	354	20	
2025-11-12T00:00	11350	218	-62.9	-71.9	352	20	
2025-11-12T00:00	11400	216	-63.2	-71.7	350	20	
2025-11-12T00:00	11450	215	-63.7	-71.6	348	21	
2025-11-12T00:00	11500	213	-64.1	-71.9	348	21	
2025-11-12T00:00	11550	211	-64.5	-72.3	348	22	
2025-11-12T00:00	11600	209	-64.8	-72.7	347	22	
2025-11-12T00:00	11650	208	-65.2	-72.9	346	22	
2025-11-12T00:00	11700	206	-65.5	-72.5	344	22	
2025-11-12T00:00	11750	204	-65.9	-72.3	342	21	
2025-11-12T00:00	11800	203	-66.3	-72.3	340	21	
2025-11-12T00:00	11850	201	-66.7	-72.5	337	22	
2025-11-12T00:00	11900	199	-66.8	-72.6	333	23	
2025-11-12T00:00	11950	198	-66.6	-72.7	328	25	
2025-11-12T00:00	12000	196	-66.2	-72.6	322	26	
2025-11-12T00:00	12050	194	-66.2	-72.5	317	27	
2025-11-12T00:00	12100	193	-66.3	-72.3	313	30	
2025-11-12T00:00	12150	191	-66.1	-72.3	309	32	
2025-11-12T00:00	12200	190	-65.0	-71.9	308	34	
2025-11-12T00:00	12250	188	-64.4	-72.1	309	35	
2025-11-12T00:00	12300	187	-64.5	-72.5	309	36	
2025-11-12T00:00	12350	185	-64.8	-72.6	310	36	
2025-11-12T00:00	12400	184	-65.0	-72.9	311	36	
2025-11-12T00:00	12450	182	-65.3	-73.7	313	35	
2025-11-12T00:00	12500	181	-64.9	-74.2	314	33	
2025-11-12T00:00	12550	179	-63.8	-74.3	316	31	
2025-11-12T00:00	12600	178	-63.9	-75.5	319	29	
2025-11-12T00:00	12650	176	-63.7	-76.1	321	27	
2025-11-12T00:00	12700	175	-64.0	-76.5	322	26	
2025-11-12T00:00	12750	173	-64.1	-76.8	323	24	
2025-11-12T00:00	12800	172	-64.5	-77.0	321	21	
2025-11-12T00:00	12850	171	-64.7	-77.0	319	19	
2025-11-12T00:00	12900	169	-65.0	-77.3	319	18	
2025-11-12T00:00	12950	168	-65.2	-77.6	323	16	
2025-11-12T00:00	13000	166	-65.4	-77.9	325	15	
2025-11-12T00:00	13050	165	-65.7	-78.4	323	14	
2025-11-12T00:00	13100	164	-66.0	-79.0	316	13	
2025-11-12T00:00	13150	162	-66.2	-79.6	305	13	
2025-11-12T00:00	13200	161	-66.0	-80.1	296	15	
2025-11-12T00:00	13250	160	-66.0	-80.7	289	17	
2025-11-12T00:00	13300	158	-66.0	-80.9	285	19	
2025-11-12T00:00	13350	157	-65.9	-81.0	283	20	
2025-11-12T00:00	13400	156	-65.7	-81.2	282	22	
2025-11-12T00:00	13450	154	-65.8	-81.3	282	23	
2025-11-12T00:00	13500	153	-65.8	-81.4	283	24	
2025-11-12T00:00	13550	152	-65.6	-81.4	283	26	
2025-11-12T00:00	13600	151	-65.6	-81.7	285	26	
2025-11-12T00:00	13650	150	-65.3	-82.0	288	26	
2025-11-12T00:00	13700	148	-64.5	-81.9	292	25	
2025-11-12T00:00	13750	147	-64.2	-82.2	296	25	
2025-11-12T00:00	13800	146	-64.3	-82.5	301	24	
2025-11-12T00:00	13850	145	-64.3	-82.9	304	24	
2025-11-12T00:00	13900	143	-63.7	-82.9	304	23	
2025-11-12T00:00	13950	142	-63.0	-82.9	302	21	
2025-11-12T00:00	14000	141	-63.2	-83.3	299	20	
2025-11-12T00:00	14050	140	-63.0	-83.3	298	18	
2025-11-12T00:00	14100	139	-62.5	-83.1	299	17	
2025-11-12T00:00	14150	138	-62.5	-83.1	299	16	
2025-11-12T00:00	14200	137	-62.9	-83.2	297	16	
2025-11-12T00:00	14250	136	-63.3	-83.2	294	16	
2025-11-12T00:00	14300	134	-63.7	-83.3	289	16	
2025-11-12T00:00	14350	133	-63.9	-83.3	285	17	
2025-11-12T00:00	14400	132	-63.9	-83.4	285	18	
2025-11-12T00:00	14450	131	-63.7	-83.4	287	19	
2025-11-12T00:00	14500	130	-63.5	-83.5	290	20	
2025-11-12T00:00	14550	129	-62.8	-83.4	293	21	
2025-11-12T00:00	14600	128	-62.6	-83.6	296	20	
2025-11-12T00:00	14650	127	-62.6	-83.7	298	19	
2025-11-12T00:00	14700	126	-62.6	-83.7	299	18	
2025-11-12T00:00	14750	125	-62.3	-83.6	299	17	
2025-11-12T00:00	14800	124	-62.6	-83.7	296	17	
2025-11-12T00:00	14850	123	-62.8	-83.8	292	18	
2025-11-12T00:00	14900	122	-62.9	-83.8	291	18	
2025-11-12T00:00	14950	121	-62.9	-83.9	293	19	
2025-11-12T00:00	15000	120	-62.7	-84.0	298	18	
2025-11-12T00:00	15050	119	-62.5	-84.1	302	17	
2025-11-12T00:00	15100	118	-62.3	-84.2	303	16	
2025-11-12T00:00	15150	117	-62.4	-84.2	301	14	
2025-11-12T00:00	15200	116	-62.6	-84.2	298	13	
2025-11-12T00:00	15250	115	-62.9	-84.2	295	12	
2025-11-12T00:00	15300	114	-63.2	-84.2	291	12	
2025-11-12T00:00	15350	113	-63.5	-84.3	288	13	
2025-11-12T00:00	15400	112	-63.6	-84.4	287	15	
2025-11-12T00:00	15450	112	-63.5	-84.3	287	16	
2025-11-12T00:00	15500	111	-63.5	-84.4	289	17	
2025-11-12T00:00	15550	110	-63.6	-84.4	290	17	
2025-11-12T00:00	15600	109	-63.9	-84.4	290	17	
2025-11-12T00:00	15650	108	-64.3	-84.5	289	17	
2025-11-12T00:00	15700	107	-64.8	-84.6	287	18	
2025-11-12T00:00	15750	106	-65.0	-84.7	286	19	
2025-11-12T00:00	15800	105	-64.8	-84.8	285	20	
2025-11-12T00:00	15850	104	-64.4	-84.9	285	20	
2025-11-12T00:00	15900	104	-63.8	-85.0	286	21	
2025-11-12T00:00	15950	103	-63.0	-85.0	290	21	
2025-11-12T00:00	16000	102	-62.7	-85.0	292	21	
2025-11-12T00:00	16050	101	-62.9	-85.0	293	21	
2025-11-12T00:00	16100	100	-63.3	-85.0	295	22	
2025-11-12T00:00	16150	99	-63.7	-85.0	297	22	
2025-11-12T00:00	16200	99	-63.9	-85.1	299	21	
2025-11-12T00:00	16250	98	-64.2	-85.2	300	20	
2025-11-12T00:00	16300	97	-64.5	-85.3	301	19	
2025-11-12T00:00	16350	96	-64.7	-85.6	302	18	
2025-11-12T00:00	16400	95	-64.7	-85.7	303	17	
2025-11-12T00:00	16450	95	-64.6	-85.7	303	16	
2025-11-12T00:00	16500	94	-64.8	-85.8	300	15	
2025-11-12T00:00	16550	93	-64.9	-85.9	297	15	
2025-11-12T00:00	16600	92	-64.7	-85.8	294	15	
2025-11-12T00:00	16650	92	-64.7	-85.9	292	16	
2025-11-12T00:00	16700	91	-64.8	-86.0	293	15	
2025-11-12T00:00	16750	90	-64.7	-86.0	293	15	
2025-11-12T00:00	16800	89	-64.3	-85.9	291	14	
2025-11-12T00:00	16850	89	-64.2	-85.9	288	15	
2025-11-12T00:00	16900	88	-64.4	-86.0	287	14	
2025-11-12T00:00	16950	87	-64.5	-86.1	289	14	
2025-11-12T00:00	17000	87	-64.4	-86.0	289	13	
2025-11-12T00:00	17050	86	-64.6	-86.1	286	13	
2025-11-12T00:00	17100	85	-64.5	-86.1	284	14	
2025-11-12T00:00	17150	84	-64.2	-86.0	284	15	
2025-11-12T00:00	17200	84	-64.1	-86.1	285	15	
2025-11-12T00:00	17250	83	-63.9	-86.0	286	15	
2025-11-12T00:00	17300	82	-63.7	-86.1	286	15	
2025-11-12T00:00	17350	82	-63.4	-86.0	284	15	
2025-11-12T00:00	17400	81	-63.5	-86.1	280	15	
2025-11-12T00:00	17450	80	-63.2	-86.1	278	15	
2025-11-12T00:00	17500	80	-62.8	-86.1	279	14	
2025-11-12T00:00	17550	79	-62.5	-86.1	281	14	
2025-11-12T00:00	17600	79	-62.4	-86.1	282	13	
2025-11-12T00:00	17650	78	-62.1	-86.0	284	12	
2025-11-12T00:00	17700	77	-62.2	-86.0	286	12	
2025-11-12T00:00	17750	77	-62.4	-86.1	286	13	
2025-11-12T00:00	17800	76	-62.6	-86.1	285	13	
2025-11-12T00:00	17850	75	-62.6	-86.2	286	14	
2025-11-12T00:00	17900	75	-62.8	-86.3	286	14	
2025-11-12T00:00	17950	74	-62.9	-86.4	285	14	
2025-11-12T00:00	18000	74	-62.8	-86.4	283	13	
2025-11-12T00:00	18050	73	-62.8	-86.3	282	13	
2025-11-12T00:00	18100	72	-63.0	-86.4	280	13	
2025-11-12T00:00	18150	72	-63.3	-86.5	280	12	
2025-11-12T00:00	18200	71	-63.5	-86.7	282	12	
2025-11-12T00:00	18250	71	-63.3	-86.7	281	11	
2025-11-12T00:00	18300	70	-62.9	-86.7	277	10	
2025-11-12T00:00	18350	69	-62.9	-86.6	272	10	
2025-11-12T00:00	18400	69	-63.2	-86.7	268	11	
2025-11-12T00:00	18450	68	-63.5	-86.7	265	12	
2025-11-12T00:00	18500	68	-63.7	-86.8	261	14	
2025-11-12T00:00	18550	67	-63.9	-87.0	259	16	
2025-11-12T00:00	18600	67	-63.9	-87.1	259	17	
2025-11-12T00:00	18650	66	-63.5	-86.9	260	18	
2025-11-12T00:00	18700	66	-63.7	-87.0	263	18	
2025-11-12T00:00	18750	65	-63.7	-87.0	267	18	
2025-11-12T00:00	18800	65	-63.8	-87.1	271	19	
2025-11-12T00:00	18850	64	-63.7	-87.1	275	19	
2025-11-12T00:00	18900	64	-63.9	-87.2	280	18	
2025-11-12T00:00	18950	63	-63.9	-87.2	284	17	
2025-11-12T00:00	19000	63	-63.9	-87.3	287	16	
2025-11-12T00:00	19050	62	-63.9	-87.3	288	14	
2025-11-12T00:00	19100	61	-63.7	-87.2	287	13	
2025-11-12T00:00	19150	61	-63.7	-87.3	283	12	
2025-11-12T00:00	19200	61	-63.9	-87.5	281	11	
2025-11-12T00:00	19250	60	-63.6	-87.5	281	11	
2025-11-12T00:00	19300	60	-63.1	-87.3	280	10	
2025-11-12T00:00	19350	59	-63.0	-87.3	278	10	
2025-11-12T00:00	19400	59	-63.0	-87.2	276	11	
2025-11-12T00:00	19450	58	-63.2	-87.2	274	12	
2025-11-12T00:00	19500	58	-63.3	-87.2	273	13	
2025-11-12T00:00	19550	57	-63.4	-87.1	272	14	
2025-11-12T00:00	19600	57	-63.8	-87.2	274	14	
2025-11-12T00:00	19650	56	-64.1	-87.3	275	15	
2025-11-12T00:00	19700	56	-64.4	-87.4	276	15	
2025-11-12T00:00	19750	55	-64.7	-87.5	277	16	
2025-11-12T00:00	19800	55	-64.8	-87.6	279	17	
2025-11-12T00:00	19850	54	-64.8	-87.6	281	18	
2025-11-12T00:00	19900	54	-65.0	-87.8	284	17	
2025-11-12T00:00	19950	54	-64.9	-88.0	286	16	
2025-11-12T00:00	20000	53	-64.8	-88.1	286	15	
2025-11-12T00:00	20050	53	-64.2		285	14	
2025-11-12T00:00	20100	52	-64.1		285	13	
2025-11-12T00:00	20150	52	-63.9		285	13	
2025-11-12T00:00	20200	51	-64.0		284	13	
2025-11-12T00:00	20250	51	-64.3		282	13	
2025-11-12T00:00	20300	51	-64.5		281	13	
2025-11-12T00:00	20350	50	-64.6		281	14	
2025-11-12T00:00	20400	50	-64.7		281	14	
2025-11-12T00:00	20450	49	-64.6		281	14	
2025-11-12T00:00	20500	49	-64.7		281	15	
2025-11-12T00:00	20550	49	-64.7		282	15	
2025-11-12T00:00	20600	48	-64.9		284	15	
2025-11-12T00:00	20650	48	-64.9		286	15	
2025-11-12T00:00	20700	47	-65.1		288	15	
2025-11-12T00:00	20750	47	-65.2		289	15	
2025-11-12T00:00	20800	47	-65.2		289	15	
2025-11-12T00:00	20850	46	-65.2		287	14	
2025-11-12T00:00	20900	46	-65.3		284	14	
2025-11-12T00:00	20950	45	-65.4		283	15	
2025-11-12T00:00	21000	45	-65.5		283	15	
2025-11-12T00:00	21050	45	-65.5		283	16	
2025-11-12T00:00	21100	44	-65.6		286	16	
2025-11-12T00:00	21150	44	-65.4		289	17	
2025-11-12T00:00	21200	44	-65.5		290	17	
2025-11-12T00:00	21250	43	-65.5		289	17	
2025-11-12T00:00	21300	43	-65.5		286	16	
2025-11-12T00:00	21350	43	-65.6		282	15	
2025-11-12T00:00	21400	42	-65.2		279	16	
2025-11-12T00:00	21450	42	-65.1		280	16	
2025-11-12T00:00	21500	41	-64.9		284	17	
2025-11-12T00:00	21550	41	-64.8		288	17	
2025-11-12T00:00	21600	41	-64.9		288	16	
2025-11-12T00:00	21650	40	-64.8		287	17	
2025-11-12T00:00	21700	40	-64.7		289	17	
2025-11-12T00:00	21750	40	-64.7		290	18	
2025-11-12T00:00	21800	40	-64.9		290	19	
2025-11-12T00:00	21850	39	-64.9		288	18	
2025-11-12T00:00	21900	39	-65.0		287	17	
2025-11-12T00:00	21950	39	-65.2		285	16	
2025-11-12T00:00	22000	38	-65.4		283	15	
2025-11-12T00:00	22050	38	-64.9		281	15	
2025-11-12T00:00	22100	38	-64.2		279	14	
2025-11-12T00:00	22150	37	-63.8		277	14	
2025-11-12T00:00	22200	37	-63.7		274	14	
2025-11-12T00:00	22250	37	-63.6		275	14	
2025-11-12T00:00	22300	36	-63.7		276	14	
2025-11-12T00:00	22350	36	-63.9		274	14	
2025-11-12T00:00	22400	36	-63.8		273	14	
2025-11-12T00:00	22450	36	-63.9		273	15	
2025-11-12T00:00	22500	35	-64.1		275	15	
2025-11-12T00:00	22550	35	-64.0		278	16	
2025-11-12T00:00	22600	35	-63.8		283	16	
2025-11-12T00:00	22650	34	-63.8		288	16	
2025-11-12T00:00	22700	34	-63.9		290	16	
2025-11-12T00:00	22750	34	-63.9		289	16	
2025-11-12T00:00	22800	34	-64.1		289	16	
2025-11-12T00:00	22850	33	-64.2		291	16	
2025-11-12T00:00	22900	33	-64.5		295	16	
2025-11-12T00:00	22950	33	-64.8		298	16	
2025-11-12T00:00	23000	32	-65.1		298	14	
2025-11-12T00:00	23050	32	-65.5		296	13	
2025-11-12T00:00	23100	32	-65.4		291	13	
2025-11-12T00:00	23150	32	-65.4		284	13	
2025-11-12T00:00	23200	31	-65.3		279	14	
2025-11-12T00:00	23250	31	-65.2		277	16	
2025-11-12T00:00	23300	31	-65.1		276	17	
2025-11-12T00:00	23350	31	-64.7		276	18	
2025-11-12T00:00	23400	30	-64.5		274	19	
2025-11-12T00:00	23450	30	-64.3		274	19	
2025-11-12T00:00	23500	30	-63.6		277	19	
2025-11-12T00:00	23550	30	-63.4		281	19	
2025-11-12T00:00	23600	29	-63.7		284	19	
2025-11-12T00:00	23650	29	-64.1		288	19	
2025-11-12T00:00	23700	29	-64.5		293	19	
2025-11-12T00:00	23750	29	-64.9		298	19	
2025-11-12T00:00	23800	28	-65.2		302	19	
2025-11-12T00:00	23850	28	-65.3		303	18	
2025-11-12T00:00	23900	28	-65.1		303	17	
2025-11-12T00:00	23950	28	-64.9		303	15	
2025-11-12T00:00	24000	28	-64.9		303	14	
2025-11-12T00:00	24050	27	-64.8		303	12	
2025-11-12T00:00	24100	27	-64.8		301	11	
2025-11-12T00:00	24150	27	-64.9		296	11	
2025-11-12T00:00	24200	27	-65.3		289	11	
2025-11-12T00:00	24250	26	-65.6		281	11	
2025-11-12T00:00	24300	26	-65.6		275	11	
2025-11-12T00:00	24350	26	-65.5		274	11	
2025-11-12T00:00	24400	26	-65.2		277	12	
2025-11-12T00:00	24450	26	-65.3		278	13	
2025-11-12T00:00	24500	25	-65.5		276	14	
2025-11-12T00:00	24550	25	-65.3		274	15	
2025-11-12T00:00	24600	25	-65.3		271	16	
2025-11-12T00:00	24650	25	-65.4		270	17	
2025-11-12T00:00	24700	25	-65.5		269	18	
2025-11-12T00:00	24750	24	-65.5		269	20	
2025-11-12T00:00	24800	24	-65.7		270	22	
2025-11-12T00:00	24850	24	-65.9		271	23	
2025-11-12T00:00	24900	24	-65.9		273	24	
2025-11-12T00:00	24950	24	-65.4		276	25	
2025-11-12T00:00	25000	23	-65.4		279	25	
2025-11-12T00:00	25050	23	-65.3		281	24	
2025-11-12T00:00	25100	23	-65.4		284	24	
2025-11-12T00:00	25150	23	-65.6		286	23	
2025-11-12T00:00	25200	23	-66.0		286	22	
2025-11-12T00:00	25250	22	-66.3		285	23	
2025-11-12T00:00	25300	22	-66.0		283	24	
2025-11-12T00:00	25350	22	-65.6		282	26	
2025-11-12T00:00	25400	22	-65.1		283	27	
2025-11-12T00:00	25450	22	-64.6		284	27	
2025-11-12T00:00	25500	22	-64.4		285	25	
2025-11-12T00:00	25550	21	-64.7		286	24	
2025-11-12T00:00	25600	21	-64.9		286	22	
2025-11-12T00:00	25650	21	-65.1		285	21	
2025-11-12T00:00	25700	21	-65.4		283	19	
2025-11-12T00:00	25750	21	-65.6		280	19	
2025-11-12T00:00	25800	21	-65.2		276	19	
2025-11-12T00:00	25850	20	-64.8		273	19	
2025-11-12T00:00	25900	20	-64.3		272	19	
2025-11-12T00:00	25950	20	-64.4		272	20	
2025-11-12T00:00	26000	20	-64.1		271	22	
2025-11-12T00:00	26050	20	-64.1		272	23	
2025-11-12T00:00	26100	20	-64.0		272	23	
2025-11-12T00:00	26150	19	-64.1		273	23	
2025-11-12T00:00	26200	19	-64.3		273	24	
2025-11-12T00:00	26250	19	-64.3		272	24	
2025-11-12T00:00	26300	19	-64.4		272	25	
2025-11-12T00:00	26350	19	-64.5		274	25	
2025-11-12T00:00	26400	19	-64.7		276	24	
2025-11-12T00:00	26450	18	-64.8		277	24	
2025-11-12T00:00	26500	18	-65.0		277	24	
2025-11-12T00:00	26550	18	-64.9		275	23	
2025-11-12T00:00	26600	18	-64.8		273	24	
2025-11-12T00:00	26650	18	-64.6		270	25	
2025-11-12T00:00	26700	18	-64.4		267	26	
2025-11-12T00:00	26750	18	-64.3		265	28	
2025-11-12T00:00	26800	17	-64.2		265	29	
2025-11-12T00:00	26850	17	-64.1		267	29	
2025-11-12T00:00	26900	17	-63.7		269	29	
2025-11-12T00:00	26950	17	-63.7		272	28	
2025-11-12T00:00	27000	17	-64.0		275	26	
2025-11-12T00:00	27050	17	-64.4		276	25	
2025-11-12T00:00	27100	17	-64.6		276	25	
2025-11-12T00:00	27150	16	-64.1		276	26	
2025-11-12T00:00	27200	16	-64.0		278	27	
2025-11-12T00:00	27250	16	-63.9		281	27	
2025-11-12T00:00	27300	16	-64.2		283	28	
2025-11-12T00:00	27350	16	-64.3		284	29	
2025-11-12T00:00	27400	16	-64.4		282	30	
2025-11-12T00:00	27450	16	-64.3		280	30	
2025-11-12T00:00	27500	16	-64.3		279	30	
2025-11-12T00:00	27550	15	-64.4		279	30	
2025-11-12T00:00	27600	15	-64.6		280	29	
2025-11-12T00:00	27650	15	-64.3		283	29	
2025-11-12T00:00	27700	15	-64.2		285	28	
2025-11-12T00:00	27750	15	-64.3		286	28	
2025-11-12T00:00	27800	15	-64.3		286	29	
2025-11-12T00:00	27850	15	-64.1		285	30	
2025-11-12T00:00	27900	15	-63.9		283	31	
2025-11-12T00:00	27950	14	-64.1		282	32	
2025-11-12T00:00	28000	14	-64.0		282	32	
2025-11-12T00:00	28050	14	-63.9		282	33	
2025-11-12T00:00	28100	14	-63.9		283	34	
2025-11-12T00:00	28150	14	-63.5		282	35	
2025-11-12T00:00	28200	14	-63.1		281	35	
2025-11-12T00:00	28250	14	-63.0		281	35	
2025-11-12T00:00	28300	14	-63.1		281	34	
2025-11-12T00:00	28350	14	-63.3		282	34	
2025-11-12T00:00	28400	13	-63.7		283	33	
2025-11-12T00:00	28450	13	-63.9		284	33	
2025-11-12T00:00	28500	13	-63.8		286	33	
2025-11-12T00:00	28550	13	-63.7		287	33	
2025-11-12T00:00	28600	13	-63.8		287	33	
2025-11-12T00:00	28650	13	-63.6		286	33	
2025-11-12T00:00	28700	13	-63.5		284	33	
2025-11-12T00:00	28750	13	-63.7		283	32	
2025-11-12T00:00	28800	13	-63.7		282	32	
2025-11-12T00:00	28850	12	-63.6		282	32	
2025-11-12T00:00	28900	12	-63.8		281	31	
2025-11-12T00:00	28950	12	-63.8		280	30	
2025-11-12T00:00	29000	12	-63.5		280	30	
2025-11-12T00:00	29050	12	-63.4		280	29	
2025-11-12T00:00	29100	12	-63.6		280	29	
2025-11-12T00:00	29150	12	-63.6		280	30	
2025-11-12T00:00	29200	12	-63.2		280	31	
2025-11-12T00:00	29250	12	-63.2		280	33	
2025-11-12T00:00	29300	12	-63.3		282	34	
2025-11-12T00:00	29350	11	-63.2		283	36	
2025-11-12T00:00	29400	11	-63.1		284	38	
2025-11-12T00:00	29450	11	-62.9		285	39	
2025-11-12T00:00	29500	11	-62.7		286	41	
2025-11-12T00:00	29550	11	-62.5		287	43	
2025-11-12T00:00	29600	11	-62.4		288	43	
2025-11-12T00:00	29650	11	-62.1		287	43	
2025-11-12T00:00	29700	11	-61.2		286	42	
2025-11-12T00:00	29750	11	-61.1		285	41	
2025-11-12T00:00	29800	11	-60.7		284	40	
2025-11-12T00:00	29850	11	-60.6		285	40	
2025-11-12T00:00	29900	11	-60.7		286	41	
2025-11-12T00:00	29950	10	-60.5		288	42	
2025-11-12T00:00	30000	10	-60.3		289	42	
2025-11-12T00:00	30050	10	-59.9		290	42	
2025-11-12T00:00	30100	10	-59.9		291	41	
2025-11-12T00:00	30150	10	-59.9		291	40	
2025-11-12T00:00	30200	10	-60.0		291	38	
2025-11-12T00:00	30250	10	-60.0		290	37	
2025-11-12T00:00	30300	10	-60.0		290	37	
2025-11-12T00:00	30350	10	-59.7		288	37	
2025-11-12T00:00	30400	10	-58.6		286	38	
2025-11-12T00:00	30450	10	-58.1		284	39	
2025-11-12T00:00	30500	10	-57.9		283	39	
2025-11-12T00:00	30550	9	-57.5		283	39	
2025-11-12T00:00	30600	9	-57.3		283	38	
2025-11-12T00:00	30650	9	-57.1		284	38	
2025-11-12T00:00	30700	9	-56.8		284	38	
2025-11-12T00:00	30750	9	-56.8		285	39	
2025-11-12T00:00	30800	9	-57.0		285	39	
2025-11-12T00:00	30850	9	-57.0		286	40	
2025-11-12T00:00	30900	9	-57.0		287	42	
2025-11-12T00:00	30950	9	-56.6		288	43	
2025-11-12T00:00	31000	9	-56.2		287	44	
2025-11-12T00:00	31050	9	-55.9		286	44	
2025-11-12T00:00	31100	9	-55.6		285	44	
2025-11-12T00:00	31150	9	-55.7		284	43	
2025-11-12T00:00	31200	9	-55.9		283	43	
2025-11-12T00:00	31250	8	-55.7		282	43	
2025-11-12T00:00	31300	8	-55.5		280	44	
2025-11-12T00:00	31350	8	-55.5		279	45	
2025-11-12T00:00	31400	8	-55.3		278	46	
2025-11-12T00:00	31450	8	-55.0		278	46	
2025-11-12T00:00	31500	8	-55.1		280	45	
2025-11-12T00:00	31550	8	-54.9		281	44	
2025-11-12T00:00	31600	8	-54.8		281	43	
2025-11-12T00:00	31650	8	-54.8		281	42	
2025-11-12T00:00	31700	8	-54.8		279	41	
2025-11-12T00:00	31750	8	-54.8		278	41	
2025-11-12T00:00	31800	8	-54.5		277	42	
2025-11-12T00:00	31850	8	-54.3		276	42	
2025-11-12T00:00	31900	8	-53.8		275	42	
2025-11-12T00:00	31950	8	-53.5		272	42	
2025-11-12T00:00	32000	8	-53.5		270	43	
2025-11-12T00:00	32050	7	-53.7		268	43	
2025-11-12T00:00	32100	7	-53.3		265	45	
2025-11-12T00:00	32150	7	-52.6		264	46	
2025-11-12T00:00	32200	7	-52.0		264	48	
2025-11-12T00:00	32250	7	-51.6		265	50	
2025-11-12T00:00	32300	7	-50.9		266	51	
2025-11-12T00:00	32350	7	-50.9		267	53	
2025-11-12T00:00	32400	7	-50.3		267	54	
2025-11-12T00:00	32450	7	-50.2		267	54	
2025-11-12T00:00	32500	7	-50.2		267	54	
2025-11-12T00:00	32550	7	-50.0		267	54	
2025-11-12T00:00	32600	7	-49.4		266	54	
2025-11-12T00:00	32650	7	-49.0		266	55	
2025-11-12T00:00	32700	7	-49.2		266	56	
2025-11-12T00:00	32750	7	-49.6		267	56	
2025-11-12T00:00	32800	7	-49.7		269	56	
2025-11-12T00:00	32850	7	-49.4		270	56	
2025-11-12T00:00	32900	7	-49.3		271	55	
2025-11-12T00:00	32950	7	-49.5		272	55	
2025-11-12T00:00	33000	6	-49.7		273	54	
2025-11-12T00:00	33050	6	-50.1		273	53	
2025-11-12T00:00	33100	6	-50.5		274	53	
2025-11-12T00:00	33150	6	-50.7		274	53	
2025-11-12T00:00	33200	6	-50.9		275	53	
2025-11-12T00:00	33250	6	-50.9		274	53	
2025-11-12T00:00	33300	6	-51.0		274	53	
2025-11-12T00:00	33350	6	-50.9		273	53	
2025-11-12T00:00	33400	6	-50.5		272	53	
2025-11-12T00:00	33450	6	-50.5		272	53	
2025-11-12T00:00	33500	6	-50.7		272	54	
2025-11-12T00:00	33550	6	-50.6		272	54	
2025-11-12T00:00	33600	6	-50.3		272	54	
2025-11-12T00:00	33650	6	-50.2		272	54	
2025-11-12T00:00	33700	6	-50.4		273	54	
2025-11-12T00:00	33750	6	-50.7		274	54	
2025-11-12T00:00	33800	6	-51.0		275	54	
2025-11-12T00:00	33850	6	-51.1		275	53	
2025-11-12T00:00	33900	6	-51.0		274	53	
2025-11-12T00:00	33950	6	-50.8		273	53	
2025-11-12T00:00	34000	6	-50.6		272	55	
2025-11-12T00:00	34050	6	-50.3		273	56	
2025-11-12T00:00	34100	5	-49.9		272	56	
2025-11-12T00:00	34150	5	-49.9		271	55	
2025-11-12T00:00	34200	5	-50.2		269	55	
2025-11-12T00:00	34250	5	-49.7		268	56	
2025-11-12T00:00	34300	5	-48.5		267	58	
2025-11-12T00:00	34350	5	-47.4		268	60	
2025-11-12T00:00	34400	5	-47.1		269	61	
2025-11-12T00:00	34450	5	-47.2		271	62	
2025-11-12T00:00	34500	5	-47.0		272	61	
2025-11-12T00:00	34550	5	-45.9		272	60	
2025-11-12T00:00	34600	5	-45.5		273	59	
2025-11-12T00:00	34650	5	-45.3		274	59	
2025-11-12T00:00	34700	5	-45.1		275	57	
2025-11-12T00:00	34750	5	-44.8		275	55	
2025-11-12T00:00	34800	5	-44.8		275	54	
2025-11-12T00:00	34850	5	-44.6		274	52	
2025-11-12T00:00	34900	5	-44.5		274	52	
2025-11-12T00:00	34950	5	-44.6		273	52	
2025-11-12T00:00	35000	5	-44.6		273	53	
2025-11-12T00:00	35050	5	-44.8		273	53	
2025-11-12T00:00	35100	5	-44.5		273	54	
2025-11-12T00:00	35150	5	-44.6		273	55	
2025-11-12T00:00	35200	5	-44.7		272	56	
2025-11-12T00:00	35250	5	-45.0		272	57	
2025-11-12T00:00	35300	5	-45.3		272	58	
2025-11-12T00:00	35350	5	-45.6		272	59	
2025-11-12T00:00	35400	4	-45.5		272	59	
2025-11-12T00:00	35450	4	-45.8		273	60	
2025-11-12T00:00	35500	4	-46.1		274	60	
2025-11-12T00:00	35550	4	-46.4		274	60	
2025-11-12T00:00	35600	4	-46.7		275	61	
2025-11-12T00:00	35650	4	-47.0		275	61	
2025-11-12T00:00	35700	4	-47.2		276	61	
2025-11-12T12:00	491	961	7.9	5.0	41	1	0.8
2025-11-12T12:00	501	960	6.8	5.5	40	1	0.8
2025-11-12T12:00	520	958	6.4	5.0	51	1	0.9
2025-11-12T12:00	540	955	6.5	5.1	60	1	0.9
2025-11-12T12:00	560	953	6.4	4.9	66	1	0.9
2025-11-12T12:00	580	950	6.2	4.8	69	1	0.9
2025-11-12T12:00	600	948	6.1	4.6	69	1	0.9
2025-11-12T12:00	620	946	6.0	4.4	351	0	1.0
2025-11-12T12:00	640	944	7.2	3.7	266	1	1.0
2025-11-12T12:00	660	941	8.1	3.9	257	2	1.1
2025-11-12T12:00	680	939	8.2	4.2	249	2	1.3
2025-11-12T12:00	700	937	8.6	4.4	242	3	1.4
2025-11-12T12:00	720	935	8.5	4.3	235	4	1.6
2025-11-12T12:00	740	932	8.5	3.9	228	4	1.7
2025-11-12T12:00	760	930	8.6	3.4	224	5	1.8
2025-11-12T12:00	780	928	8.7	2.8	221	5	1.9
2025-11-12T12:00	800	926	8.8	2.2	220	5	2.0
2025-11-12T12:00	820	923	8.9	1.8	221	6	2.1
2025-11-12T12:00	840	921	9.0	1.9	223	6	2.2
2025-11-12T12:00	860	919	8.9	1.9	225	6	2.3
2025-11-12T12:00	880	917	8.8	1.9	228	6	2.4
2025-11-12T12:00	900	914	8.7	2.0	229	7	2.4
2025-11-12T12:00	920	912	8.6	2.1	229	7	2.5
2025-11-12T12:00	940	910	8.6	2.2	229	8	2.5
2025-11-12T12:00	960	908	8.6	2.4	228	8	2.6
2025-11-12T12:00	980	905	8.8	1.8	227	9	2.6
2025-11-12T12:00	1000	903	8.9	1.3	227	10	2.7
2025-11-12T12:00	1020	901	8.8	1.2	226	10	2.8
2025-11-12T12:00	1040	899	8.7	0.9	225	11	2.8
2025-11-12T12:00	1060	897	8.8	0.3	224	11	2.9
2025-11-12T12:00	1080	895	8.9	-0.7	223	11	3.0
2025-11-12T12:00	1100	893	9.3	-2.2	222	10	3.0
2025-11-12T12:00	1120	890	9.4	-2.6	221	10	3.1
2025-11-12T12:00	1140	888	9.3	-2.6	220	10	3.1
2025-11-12T12:00	1160	886	9.2	-2.7	219	9	3.2
2025-11-12T12:00	1180	884	9.1	-3.1	218	9	3.3
2025-11-12T12:00	1200	882	9.1	-3.5	218	9	3.3
2025-11-12T12:00	1220	880	9.6	-4.4	218	9	3.4
2025-11-12T12:00	1240	878	10.0	-4.7	219	10	3.4
2025-11-12T12:00	1260	876	10.0	-4.8	220	10	3.5
2025-11-12T12:00	1280	873	10.0	-4.8	221	10	3.5
2025-11-12T12:00	1300	871	9.9	-4.7	222	11	3.6
2025-11-12T12:00	1320	869	9.9	-4.8	223	11	3.6
2025-11-12T12:00	1340	867	9.8	-4.7	225	12	3.6
2025-11-12T12:00	1360	865	9.7	-4.7	225	12	3.7
2025-11-12T12:00	1380	863	9.6	-4.8	225	12	3.7
2025-11-12T12:00	1400	861	9.5	-5.0	224	13	3.7
2025-11-12T12:00	1420	859	9.6	-5.2	223	13	3.7
2025-11-12T12:00	1440	857	9.6	-5.3	221	13	3.7
2025-11-12T12:00	1460	855	9.9	-5.8	219	13	3.7
2025-11-12T12:00	1480	853	10.1	-6.0	217	14	3.7
2025-11-12T12:00	1500	850	10.0	-6.1	215	14	3.7
2025-11-12T12:00	1520	849	10.1	-6.3	214	15	3.8
2025-11-12T12:00	1540	846	10.1	-6.5	213	15	3.8
2025-11-12T12:00	1560	844	10.2	-6.8	213	16	3.8
2025-11-12T12:00	1580	842	10.7	-7.6	212	16	3.8
2025-11-12T12:00	1600	840	11.3	-8.3	211	16	3.8
2025-11-12T12:00	1620	838	11.7	-8.9	211	17	3.8
2025-11-12T12:00	1640	836	11.8	-9.0	211	17	3.9
2025-11-12T12:00	1660	834	11.7	-9.2	211	18	3.9
2025-11-12T12:00	1680	833	11.7	-9.4	211	18	3.9
2025-11-12T12:00	1700	831	11.6	-9.5	211	19	3.9
2025-11-12T12:00	1720	828	11.6	-9.7	211	19	3.9
2025-11-12T12:00	1740	826	11.5	-9.7	210	19	3.9
2025-11-12T12:00	1760	824	11.3	-9.7	208	19	3.9
2025-11-12T12:00	1780	822	11.2	-9.9	207	20	3.9
2025-11-12T12:00	1800	821	11.1	-10.0	206	20	3.9
2025-11-12T12:00	1820	819	11.1	-10.1	205	20	3.9
2025-11-12T12:00	1840	817	11.0	-10.2	205	20	3.9
2025-11-12T12:00	1860	815	10.8	-10.3	206	20	3.9
2025-11-12T12:00	1880	813	10.7	-10.4	206	20	3.9
2025-11-12T12:00	1900	811	10.5	-10.5	207	20	3.9
2025-11-12T12:00	1920	809	10.4	-10.6	207	20	3.8
2025-11-12T12:00	1940	807	10.1	-10.6	208	20	3.8
2025-11-12T12:00	1960	805	9.9	-10.5	209	20	3.8
2025-11-12T12:00	1980	803	9.8	-10.7	210	20	3.8
2025-11-12T12:00	2000	801	9.7	-10.9	210	20	3.8
2025-11-12T12:00	2020	799	9.6	-11.1	211	20	3.8
2025-11-12T12:00	2040	797	9.5	-11.3	212	19	3.8
2025-11-12T12:00	2060	795	9.4	-11.5	212	19	3.8
2025-11-12T12:00	2080	793	9.2	-11.7	212	18	3.8
2025-11-12T12:00	2100	791	9.1	-11.8	212	18	3.8
2025-11-12T12:00	2120	789	9.0	-12.6	211	18	3.8
2025-11-12T12:00	2140	787	9.0	-12.9	211	17	3.8
2025-11-12T12:00	2160	786	8.8	-13.0	210	17	3.8
2025-11-12T12:00	2180	784	8.7	-12.9	210	17	3.8
2025-11-12T12:00	2200	782	8.9	-12.8	210	17	3.8
2025-11-12T12:00	2220	780	8.7	-12.9	209	16	3.8
2025-11-12T12:00	2240	778	8.6	-13.0	210	16	3.7
2025-11-12T12:00	2260	776	8.4	-13.1	210	16	3.7
2025-11-12T12:00	2280	774	8.4	-13.4	211	15	3.7
2025-11-12T12:00	2300	772	8.2	-13.5	213	15	3.7
2025-11-12T12:00	2320	771	8.1	-13.7	213	15	3.7
2025-11-12T12:00	2340	769	8.1	-14.1	213	15	3.7
2025-11-12T12:00	2360	767	8.1	-14.6	213	15	3.6
2025-11-12T12:00	2380	765	8.0	-14.9	212	15	3.6
2025-11-12T12:00	2400	763	8.0	-14.9	211	15	3.6
2025-11-12T12:00	2420	761	7.9	-15.1	211	15	3.5
2025-11-12T12:00	2440	760	7.8	-15.1	211	15	3.5
2025-11-12T12:00	2460	758	7.7	-15.1	212	15	3.5
2025-11-12T12:00	2480	756	7.5	-15.3	213	15	3.5
2025-11-12T12:00	2500	754	7.6	-15.6	215	15	3.5
2025-11-12T12:00	2520	752	7.4	-15.6	216	15	3.4
2025-11-12T12:00	2540	750	7.4	-15.8	217	15	3.4
2025-11-12T12:00	2560	748	7.3	-16.1	218	15	3.4
2025-11-12T12:00	2580	746	7.2	-16.1	219	14	3.4
2025-11-12T12:00	2600	745	7.0	-16.1	220	14	3.4
2025-11-12T12:00	2620	743	6.8	-16.3	220	14	3.3
2025-11-12T12:00	2640	741	6.7	-16.5	221	14	3.3
2025-11-12T12:00	2660	739	6.6	-16.6	223	14	3.3
2025-11-12T12:00	2680	738	6.4	-16.4	224	13	3.3
2025-11-12T12:00	2700	736	6.2	-16.5	226	13	3.3
2025-11-12T12:00	2720	734	6.0	-16.7	226	13	3.3
2025-11-12T12:00	2740	732	5.9	-16.7	227	13	3.3
2025-11-12T12:00	2760	730	5.7	-16.7	227	13	3.2
2025-11-12T12:00	2780	729	5.5	-16.8	227	13	3.2
2025-11-12T12:00	2800	727	5.3	-16.8	228	13	3.2
2025-11-12T12:00	2820	725	5.1	-16.9	229	13	3.2
2025-11-12T12:00	2840	723	4.9	-16.9	230	13	3.2
2025-11-12T12:00	2860	721	4.7	-16.9	231	13	3.2
2025-11-12T12:00	2880	720	4.5	-17.0	232	13	3.2
2025-11-12T12:00	2900	718	4.3	-17.1	232	13	3.2
2025-11-12T12:00	2920	716	4.1	-17.0	233	13	3.2
2025-11-12T12:00	2940	714	3.9	-17.1	233	13	3.2
2025-11-12T12:00	2960	713	3.7	-17.1	234	13	3.2
2025-11-12T12:00	2980	711	3.5	-17.1	233	13	3.2
2025-11-12T12:00	3000	709	3.3	-17.2	233	13	3.2
2025-11-12T12:00	3020	707	3.2	-17.4	233	13	3.2
2025-11-12T12:00	3040	705	3.2	-17.6	233	12	3.1
2025-11-12T12:00	3060	704	3.1	-17.5	234	12	3.1
2025-11-12T12:00	3080	702	3.0	-17.7	234	12	3.1
2025-11-12T12:00	3100	700	2.9	-17.9	235	11	3.1
2025-11-12T12:00	3120	699	2.8	-18.0	236	11	3.1
2025-11-12T12:00	3140	697	2.6	-18.2	238	11	3.1
2025-11-12T12:00	3160	695	2.5	-18.3	239	11	3.1
2025-11-12T12:00	3180	694	2.4	-18.3	239	12	3.1
2025-11-12T12:00	3200	692	2.4	-18.3	238	12	3.1
2025-11-12T12:00	3220	690	2.4	-18.4	237	13	3.1
2025-11-12T12:00	3240	688	2.3	-18.5	237	13	3.1
2025-11-12T12:00	3260	687	2.1	-18.6	237	13	3.1
2025-11-12T12:00	3280	685	2.0	-18.7	237	14	3.0
2025-11-12T12:00	3300	683	1.8	-18.8	238	14	3.0
2025-11-12T12:00	3320	682	1.7	-18.9	240	14	3.0
2025-11-12T12:00	3340	680	1.5	-19.0	242	14	3.0
2025-11-12T12:00	3360	678	1.3	-19.1	244	14	3.0
2025-11-12T12:00	3380	677	1.2	-19.2	245	14	3.0
2025-11-12T12:00	3400	675	1.1	-19.3	245	14	2.9
2025-11-12T12:00	3420	673	1.0	-19.5	245	14	2.9
2025-11-12T12:00	3440	671	0.8	-19.5	245	13	2.9
2025-11-12T12:00	3460	670	0.6	-19.6	244	13	2.9
2025-11-12T12:00	3480	668	0.6	-20.1	243	13	2.9
2025-11-12T12:00	3500	666	0.6	-20.3	242	13	2.9
2025-11-12T12:00	3520	665	0.4	-20.4	241	13	3.0
2025-11-12T12:00	3540	663	0.4	-20.3	241	13	3.0
2025-11-12T12:00	3560	661	0.5	-20.1	241	12	3.0
2025-11-12T12:00	3580	660	0.3	-19.9	241	12	3.0
2025-11-12T12:00	3600	658	0.2	-19.9	240	12	3.0
2025-11-12T12:00	3620	657	0.0	-19.6	240	12	3.0
2025-11-12T12:00	3640	655	-0.1	-19.3	239	12	3.1
2025-11-12T12:00	3660	653	-0.2	-19.4	239	12	3.1
2025-11-12T12:00	3680	652	-0.3	-19.1	238	12	3.1
2025-11-12T12:00	3700	650	-0.5	-19.0	238	12	3.1
2025-11-12T12:00	3720	648	-0.8	-18.7	238	12	3.1
2025-11-12T12:00	3740	647	-0.9	-18.6	238	12	3.1
2025-11-12T12:00	3760	645	-1.1	-18.7	238	12	3.0
2025-11-12T12:00	3780	644	-1.2	-18.7	238	12	3.0
2025-11-12T12:00	3800	642	-1.4	-18.5	237	12	3.0
2025-11-12T12:00	3820	641	-1.6	-18.4	236	12	3.1
2025-11-12T12:00	3840	639	-1.8	-18.1	235	12	3.1
2025-11-12T12:00	3860	637	-2.0	-18.3	234	11	3.0
2025-11-12T12:00	3880	636	-2.2	-18.2	232	11	3.0
2025-11-12T12:00	3900	634	-2.5	-18.4	232	11	3.0
2025-11-12T12:00	3920	632	-2.6	-18.3	231	11	3.0
2025-11-12T12:00	3940	631	-2.7	-17.9	231	11	3.0
2025-11-12T12:00	3960	629	-2.9	-17.8	231	11	3.0
2025-11-12T12:00	3980	628	-3.1	-17.8	231	11	3.0
2025-11-12T12:00	4000	626	-3.3	-17.6	231	10	3.0
2025-11-12T12:00	4020	624	-3.4	-16.9	230	10	3.0
2025-11-12T12:00	4040	623	-3.4	-15.9	229	10	3.0
2025-11-12T12:00	4060	621	-3.4	-15.4	228	10	3.0
2025-11-12T12:00	4080	620	-3.5	-15.0	227	10	3.0
2025-11-12T12:00	4100	618	-3.6	-14.7	226	10	2.9
2025-11-12T12:00	4120	616	-3.6	-14.2	225	10	2.9
2025-11-12T12:00	4140	615	-3.6	-14.0	224	10	2.9
2025-11-12T12:00	4160	613	-3.7	-13.9	224	10	2.9
2025-11-12T12:00	4180	612	-3.8	-13.9	224	9	2.9
2025-11-12T12:00	4200	610	-3.8	-14.9	224	9	2.9
2025-11-12T12:00	4220	609	-3.8	-15.6	223	8	2.9
2025-11-12T12:00	4240	607	-3.9	-16.0	221	8	2.9
2025-11-12T12:00	4260	606	-4.1	-16.0	219	7	3.0
2025-11-12T12:00	4280	604	-4.3	-16.0	217	7	3.0
2025-11-12T12:00	4300	603	-4.3	-16.0	216	7	3.0
2025-11-12T12:00	4320	601	-4.4	-16.1	216	7	3.0
2025-11-12T12:00	4340	600	-4.4	-16.4	217	7	3.0
2025-11-12T12:00	4360	598	-4.6	-16.6	219	8	3.0
2025-11-12T12:00	4380	596	-4.7	-16.9	221	8	3.0
2025-11-12T12:00	4400	595	-4.7	-17.1	223	8	3.0
2025-11-12T12:00	4420	594	-4.8	-17.3	225	8	3.0
2025-11-12T12:00	4440	592	-5.0	-17.4	228	8	3.0
2025-11-12T12:00	4460	591	-5.1	-17.5	229	7	3.0
2025-11-12T12:00	4480	589	-5.2	-17.5	230	7	3.0
2025-11-12T12:00	4500	587	-5.4	-17.7	231	7	3.0
2025-11-12T12:00	4520	586	-5.5	-18.1	232	7	3.0
2025-11-12T12:00	4540	585	-5.6	-18.4	234	7	3.0
2025-11-12T12:00	4560	583	-5.7	-18.2	236	8	3.0
2025-11-12T12:00	4580	581	-5.9	-18.1	238	8	3.0
2025-11-12T12:00	4600	580	-6.1	-18.1	239	8	2.9
2025-11-12T12:00	4620	579	-6.3	-18.2	240	8	2.9
2025-11-12T12:00	4640	577	-6.5	-18.4	240	8	2.9
2025-11-12T12:00	4660	576	-6.6	-18.7	239	8	2.9
2025-11-12T12:00	4680	574	-6.8	-18.8	238	8	2.9
2025-11-12T12:00	4700	573	-7.1	-18.8	238	8	2.9
2025-11-12T12:00	4720	571	-7.2	-18.9	237	8	2.9
2025-11-12T12:00	4740	570	-7.4	-18.9	237	8	2.9
2025-11-12T12:00	4760	568	-7.5	-19.0	237	8	2.9
2025-11-12T12:00	4780	567	-7.7	-18.9	237	8	2.9
2025-11-12T12:00	4800	565	-8.0	-19.0	237	8	2.9
2025-11-12T12:00	4820	564	-8.2	-19.1	236	8	2.9
2025-11-12T12:00	4840	563	-8.3	-19.2	235	8	2.9
2025-11-12T12:00	4860	561	-8.5	-19.2	234	8	2.9
2025-11-12T12:00	4880	560	-8.7	-19.3	234	9	2.8
2025-11-12T12:00	4900	558	-8.9	-19.3	234	9	2.9
2025-11-12T12:00	4920	557	-9.1	-19.5	234	9	2.8
2025-11-12T12:00	4940	555	-9.2	-19.6	235	9	2.8
2025-11-12T12:00	4960	554	-9.5	-19.5	237	9	2.8
2025-11-12T12:00	4980	552	-9.7	-19.5	239	9	2.8
2025-11-12T12:00	5000	551	-9.9	-19.5	241	9	2.8
2025-11-12T12:00	5020	549	-10.0	-19.5	243	9	2.8
2025-11-12T12:00	5040	548	-10.2	-19.5	245	10	2.8
2025-11-12T12:00	5060	547	-10.4	-19.6	246	10	2.8
2025-11-12T12:00	5080	545	-10.6	-19.7	247	10	2.8
2025-11-12T12:00	5100	544	-10.8	-19.9	248	10	2.7
2025-11-12T12:00	5120	542	-11.0	-19.8	248	10	2.7
2025-11-12T12:00	5140	541	-11.2	-19.8	247	10	2.7
2025-11-12T12:00	5160	540	-11.3	-19.8	246	10	2.7
2025-11-12T12:00	5180	538	-11.5	-19.9	245	9	2.7
2025-11-12T12:00	5200	537	-11.7	-19.9	242	9	2.7
2025-11-12T12:00	5220	535	-11.9	-19.9	240	9	2.7
2025-11-12T12:00	5240	534	-12.0	-20.1	238	9	2.7
2025-11-12T12:00	5260	533	-12.1	-20.3	236	9	2.7
2025-11-12T12:00	5280	531	-12.3	-20.3	234	9	2.7
2025-11-12T12:00	5300	530	-12.5	-19.9	233	9	2.7
2025-11-12T12:00	5320	528	-12.6	-19.6	231	8	2.6
2025-11-12T12:00	5340	527	-12.7	-19.5	230	8	2.6
2025-11-12T12:00	5360	526	-12.9	-19.8	229	8	2.6
2025-11-12T12:00	5380	524	-13.0	-20.6	229	8	2.6
2025-11-12T12:00	5400	523	-13.1	-21.2	229	8	2.6
2025-11-12T12:00	5420	522	-13.2	-21.1	229	8	2.6
2025-11-12T12:00	5440	520	-13.3	-21.2	228	9	2.6
2025-11-12T12:00	5460	519	-13.3	-22.0	228	9	2.6
2025-11-12T12:00	5480	517	-13.4	-22.3	228	9	2.6
2025-11-12T12:00	5500	516	-13.6	-22.6	228	9	2.5
2025-11-12T12:00	5520	515	-13.6	-23.3	228	10	2.5
2025-11-12T12:00	5540	513	-13.7	-24.0	228	10	2.5
2025-11-12T12:00	5560	512	-13.8	-24.5	229	10	2.5
2025-11-12T12:00	5580	511	-14.0	-24.7	231	10	2.5
2025-11-12T12:00	5600	509	-14.2	-24.9	233	11	2.5
2025-11-12T12:00	5620	508	-14.3	-25.2	236	11	2.5
2025-11-12T12:00	5640	507	-14.4	-25.9	239	11	2.5
2025-11-12T12:00	5660	505	-14.4	-27.7	242	12	2.5
2025-11-12T12:00	5680	504	-14.5	-28.3	245	12	2.5
2025-11-12T12:00	5700	503	-14.6	-27.4	247	12	2.6
2025-11-12T12:00	5720	501	-14.6	-26.9	249	12	2.6
2025-11-12T12:00	5740	500	-14.7	-26.9	250	12	2.5
2025-11-12T12:00	5760	499	-14.8	-26.9	251	12	2.5
2025-11-12T12:00	5780	497	-14.9	-26.8	252	12	2.5
2025-11-12T12:00	5800	496	-14.8	-27.4	253	12	2.5
2025-11-12T12:00	5820	495	-14.8	-27.7	254	12	2.5
2025-11-12T12:00	5840	494	-15.0	-27.6	254	12	2.5
2025-11-12T12:00	5860	492	-15.2	-27.6	254	13	2.5
2025-11-12T12:00	5880	491	-15.4	-27.9	254	13	2.4
2025-11-12T12:00	5900	489	-15.6	-28.0	254	13	2.4
2025-11-12T12:00	5920	488	-15.7	-28.1	253	13	2.4
2025-11-12T12:00	5940	487	-15.9	-27.6	253	13	2.4
2025-11-12T12:00	5960	486	-16.0	-27.7	254	13	2.4
2025-11-12T12:00	5980	484	-16.0	-29.4	254	13	2.4
2025-11-12T12:00	6000	483	-15.9	-30.0	253	13	2.4
2025-11-12T12:00	6020	482	-16.0	-30.2	252	14	2.4
2025-11-12T12:00	6040	480	-16.0	-30.3	252	14	2.4
2025-11-12T12:00	6060	479	-16.0	-31.1	250	14	2.3
2025-11-12T12:00	6080	478	-16.2	-31.2	249	13	2.3
2025-11-12T12:00	6100	477	-16.5	-31.6	248	13	2.3
2025-11-12T12:00	6120	476	-16.6	-32.2	247	13	2.3
2025-11-12T12:00	6140	474	-16.7	-32.5	247	12	2.3
2025-11-12T12:00	6160	473	-16.8	-32.3	246	12	2.3
2025-11-12T12:00	6180	472	-17.1	-32.3	246	11	2.3
2025-11-12T12:00	6200	470	-17.2	-32.6	247	11	2.3
2025-11-12T12:00	6220	469	-17.4	-32.8	247	11	2.2
2025-11-12T12:00	6240	468	-17.6	-32.8	246	11	2.2
2025-11-12T12:00	6260	467	-17.8	-32.6	246	11	2.2
2025-11-12T12:00	6280	466	-17.9	-32.6	245	11	2.2
2025-11-12T12:00	6300	464	-18.2	-32.7	245	11	2.2
2025-11-12T12:00	6320	463	-18.3	-33.0	244	11	2.2
2025-11-12T12:00	6340	462	-18.6	-32.9	244	11	2.2
2025-11-12T12:00	6360	460	-18.8	-32.8	243	11	2.2
2025-11-12T12:00	6380	459	-19.0	-32.9	243	11	2.2
2025-11-12T12:00	6400	458	-19.2	-33.1	244	11	2.2
2025-11-12T12:00	6420	457	-19.3	-33.1	244	11	2.2
2025-11-12T12:00	6440	456	-19.4	-33.1	245	11	2.2
2025-11-12T12:00	6460	454	-19.6	-32.9	245	11	2.2
2025-11-12T12:00	6480	453	-19.8	-32.8	246	11	2.1
2025-11-12T12:00	6500	452	-19.9	-32.8	248	11	2.1
2025-11-12T12:00	6520	451	-20.1	-32.7	249	11	2.1
2025-11-12T12:00	6540	449	-20.4	-32.5	251	11	2.1
2025-11-12T12:00	6560	448	-20.5	-32.4	252	12	2.1
2025-11-12T12:00	6580	447	-20.7	-32.8	254	12	2.1
2025-11-12T12:00	6600	446	-20.6	-33.4	255	13	2.1
2025-11-12T12:00	6620	445	-20.6	-32.9	255	13	2.1
2025-11-12T12:00	6640	443	-20.8	-32.5	255	13	2.1
2025-11-12T12:00	6660	442	-21.0	-32.3	254	13	2.1
2025-11-12T12:00	6680	441	-21.1	-32.3	254	13	2.1
2025-11-12T12:00	6700	440	-21.2	-32.4	254	13	2.1
2025-11-12T12:00	6720	438	-21.4	-32.2	254	14	2.1
2025-11-12T12:00	6740	437	-21.6	-32.3	255	14	2.1
2025-11-12T12:00	6760	436	-21.7	-32.4	256	14	2.0
2025-11-12T12:00	6780	435	-21.9	-32.4	259	14	2.0
2025-11-12T12:00	6800	434	-22.1	-32.3	262	14	2.1
2025-11-12T12:00	6820	433	-22.2	-32.3	263	15	2.1
2025-11-12T12:00	6840	431	-22.2	-32.4	264	15	2.0
2025-11-12T12:00	6860	430	-22.3	-32.4	264	15	2.0
2025-11-12T12:00	6880	429	-22.4	-32.3	263	15	2.0
2025-11-12T12:00	6900	428	-22.6	-32.4	263	15	2.0
2025-11-12T12:00	6920	427	-22.8	-32.5	263	15	2.0
2025-11-12T12:00	6940	426	-23.0	-32.5	262	14	2.0
2025-11-12T12:00	6960	424	-23.2	-32.7	262	14	2.0
2025-11-12T12:00	6980	423	-23.2	-32.7	261	14	2.0
2025-11-12T12:00	7000	422	-23.4	-32.5	260	14	2.0
2025-11-12T12:00	7020	421	-23.5	-33.9	258	14	2.0
2025-11-12T12:00	7040	420	-23.5	-34.6	257	14	2.0
2025-11-12T12:00	7060	419	-23.5	-35.4	257	14	2.0
2025-11-12T12:00	7080	418	-23.6	-35.8	257	14	2.0
2025-11-12T12:00	7100	416	-23.7	-35.8	258	14	2.0
2025-11-12T12:00	7120	415	-23.9	-36.1	258	14	2.0
2025-11-12T12:00	7140	414	-24.1	-37.3	258	14	2.0
2025-11-12T12:00	7160	413	-24.2	-38.1	258	13	1.9
2025-11-12T12:00	7180	412	-24.4	-38.2	257	13	1.9
2025-11-12T12:00	7200	411	-24.5	-38.3	257	12	1.9
2025-11-12T12:00	7220	410	-24.7	-38.3	257	12	1.9
2025-11-12T12:00	7240	409	-24.9	-38.3	257	11	1.9
2025-11-12T12:00	7260	407	-25.0	-38.7	257	11	1.9
2025-11-12T12:00	7280	406	-25.2	-39.0	257	11	1.9
2025-11-12T12:00	7300	405	-25.5	-39.3	257	11	1.9
2025-11-12T12:00	7320	404	-25.6	-39.5	257	11	1.9
2025-11-12T12:00	7340	403	-25.8	-39.4	256	11	1.9
2025-11-12T12:00	7360	402	-26.1	-39.1	256	11	1.9
2025-11-12T12:00	7380	401	-26.2	-39.3	256	11	1.9
2025-11-12T12:00	7400	400	-26.3	-39.0	256	11	1.8
2025-11-12T12:00	7420	399	-26.5	-39.2	257	11	1.9
2025-11-12T12:00	7440	397	-26.8	-39.2	258	11	1.8
2025-11-12T12:00	7460	396	-26.9	-39.5	259	11	1.8
2025-11-12T12:00	7480	395	-27.0	-39.7	260	11	1.8
2025-11-12T12:00	7500	394	-27.2	-40.1	259	11	1.8
2025-11-12T12:00	7520	393	-27.4	-40.8	259	11	1.8
2025-11-12T12:00	7540	392	-27.4	-41.3	258	11	1.8
2025-11-12T12:00	7560	391	-27.7	-41.1	257	11	1.8
2025-11-12T12:00	7580	390	-27.9	-41.0	256	11	1.8
2025-11-12T12:00	7600	389	-28.1	-41.2	256	11	1.8
2025-11-12T12:00	7620	388	-28.2	-41.6	257	11	1.8
2025-11-12T12:00	7640	387	-28.5	-41.5	259	11	1.8
2025-11-12T12:00	7660	385	-28.6	-41.6	261	11	1.8
2025-11-12T12:00	7680	384	-28.8	-42.3	263	11	1.8
2025-11-12T12:00	7700	383	-29.1	-43.0	264	11	1.8
2025-11-12T12:00	7720	382	-29.2	-43.4	265	11	1.8
2025-11-12T12:00	7740	381	-29.4	-43.0	265	11	1.8
2025-11-12T12:00	7760	380	-29.6	-42.8	265	12	1.8
2025-11-12T12:00	7780	379	-29.7	-42.7	265	12	1.7
2025-11-12T12:00	7800	378	-29.8	-42.9	265	12	1.7
2025-11-12T12:00	7820	377	-30.0	-42.9	265	12	1.7
2025-11-12T12:00	7840	376	-30.3	-42.7	265	12	1.7
2025-11-12T12:00	7860	375	-30.4	-42.6	264	12	1.7
2025-11-12T12:00	7880	374	-30.5	-42.9	264	12	1.7
2025-11-12T12:00	7900	373	-30.7	-43.0	263	13	1.7
2025-11-12T12:00	7920	372	-30.9	-42.9	263	13	1.7
2025-11-12T12:00	7940	370	-31.1	-43.3	262	13	1.7
2025-11-12T12:00	7960	369	-31.3	-43.5	261	13	1.7
2025-11-12T12:00	7980	368	-31.5	-43.8	261	13	1.7
2025-11-12T12:00	8000	367	-31.8	-43.7	261	13	1.7
2025-11-12T12:00	8020	366	-31.9	-44.0	262	13	1.7
2025-11-12T12:00	8040	365	-32.0	-44.5	264	13	1.7
2025-11-12T12:00	8060	364	-32.3	-44.1	265	12	1.7
2025-11-12T12:00	8080	363	-32.5	-43.9	266	12	1.6
2025-11-12T12:00	8100	362	-32.7	-43.9	267	12	1.6
2025-11-12T12:00	8120	361	-32.8	-44.0	268	12	1.6
2025-11-12T12:00	8140	360	-33.0	-43.9	269	12	1.6
2025-11-12T12:00	8160	359	-33.2	-43.7	270	12	1.6
2025-11-12T12:00	8180	358	-33.4	-43.5	271	12	1.6
2025-11-12T12:00	8200	357	-33.6	-43.5	272	12	1.6
2025-11-12T12:00	8220	356	-33.8	-43.3	274	12	1.6
2025-11-12T12:00	8240	355	-34.0	-43.2	277	12	1.6
2025-11-12T12:00	8260	354	-34.1	-43.1	278	13	1.6
2025-11-12T12:00	8280	353	-34.3	-43.1	279	13	1.6
2025-11-12T12:00	8300	352	-34.6	-43.2	280	13	1.6
2025-11-12T12:00	8320	351	-34.7	-43.2	279	13	1.6
2025-11-12T12:00	8340	350	-34.9	-43.8	278	13	1.6
2025-11-12T12:00	8360	349	-35.1	-43.6	276	13	1.6
2025-11-12T12:00	8380	348	-35.2	-43.6	273	13	1.6
2025-11-12T12:00	8400	347	-35.2	-45.4	272	12	1.6
2025-11-12T12:00	8420	346	-35.5	-45.7	270	12	1.6
2025-11-12T12:00	8440	345	-35.6	-46.3	269	12	1.6
2025-11-12T12:00	8460	344	-35.7	-46.8	269	12	1.6
2025-11-12T12:00	8480	343	-36.0	-46.9	270	11	1.6
2025-11-12T12:00	8500	342	-36.1	-47.7	271	12	1.6
2025-11-12T12:00	8520	341	-36.3	-48.0	272	12	1.6
2025-11-12T12:00	8540	340	-36.4	-48.4	271	11	1.6
2025-11-12T12:00	8560	339	-36.7	-48.9	271	11	1.6
2025-11-12T12:00	8580	338	-36.9	-49.0	270	11	1.5
2025-11-12T12:00	8600	337	-37.1	-49.1	269	11	1.6
2025-11-12T12:00	8620	336	-37.2	-49.1	268	11	1.6
2025-11-12T12:00	8640	335	-37.4	-49.4	268	11	1.6
2025-11-12T12:00	8660	334	-37.7	-49.7	268	10	1.6
2025-11-12T12:00	8680	333	-37.9	-50.1	268	10	1.6
2025-11-12T12:00	8700	332	-38.1	-51.1	268	10	1.6
2025-11-12T12:00	8720	331	-38.2	-51.7	269	10	1.5
2025-11-12T12:00	8740	330	-38.3	-52.6	269	10	1.6
2025-11-12T12:00	8760	329	-38.3	-54.6	270	10	1.6
2025-11-12T12:00	8780	329	-38.4	-54.3	271	10	1.6
2025-11-12T12:00	8800	328	-38.5	-54.4	274	10	1.6
2025-11-12T12:00	8820	327	-38.6	-54.6	276	10	1.6
2025-11-12T12:00	8840	326	-38.9	-55.1	278	10	1.6
2025-11-12T12:00	8860	325	-39.0	-54.4	279	10	1.6
2025-11-12T12:00	8880	324	-39.1	-54.0	280	10	1.6
2025-11-12T12:00	8900	323	-39.3	-53.1	279	11	1.6
2025-11-12T12:00	8920	322	-39.5	-52.5	278	11	1.6
2025-11-12T12:00	8940	321	-39.6	-52.9	277	11	1.6
2025-11-12T12:00	8960	320	-39.9	-52.5	275	12	1.6
2025-11-12T12:00	8980	319	-40.1	-52.1	274	12	1.6
2025-11-12T12:00	9000	318	-40.2	-52.5	273	12	1.5
2025-11-12T12:00	9020	317	-40.4	-52.6	272	12	1.5
2025-11-12T12:00	9040	316	-40.6	-52.7	271	11	1.6
2025-11-12T12:00	9060	315	-40.6	-53.2	271	11	1.6
2025-11-12T12:00	9080	314	-40.7	-53.7	271	11	1.6
2025-11-12T12:00	9100	314	-40.9	-54.4	271	10	1.6
2025-11-12T12:00	9120	313	-41.1	-55.3	272	10	1.6
2025-11-12T12:00	9140	312	-41.3	-55.7	272	10	1.6
2025-11-12T12:00	9160	311	-41.5	-56.3	272	10	1.5
2025-11-12T12:00	9180	310	-41.7	-56.7	273	9	1.5
2025-11-12T12:00	9200	309	-41.9	-56.7	273	9	1.5
2025-11-12T12:00	9220	308	-42.1	-56.7	274	9	1.5
2025-11-12T12:00	9240	307	-42.3	-56.5	274	9	1.5
2025-11-12T12:00	9260	306	-42.4	-56.3	274	9	1.5
2025-11-12T12:00	9280	305	-42.7	-56.7	275	9	1.5
2025-11-12T12:00	9300	304	-42.8	-56.8	275	9	1.5
2025-11-12T12:00	9320	303	-43.0	-57.0	275	9	1.5
2025-11-12T12:00	9340	302	-43.3	-57.3	276	9	1.5
2025-11-12T12:00	9360	302	-43.4	-57.4	277	9	1.5
2025-11-12T12:00	9380	301	-43.5	-57.5	278	9	1.5
2025-11-12T12:00	9400	300	-43.6	-57.3	280	9	1.5
2025-11-12T12:00	9420	299	-44.0	-57.4	281	9	1.5
2025-11-12T12:00	9440	298	-44.2	-57.9	282	9	1.5
2025-11-12T12:00	9460	297	-44.4	-58.3	283	9	1.5
2025-11-12T12:00	9480	296	-44.5	-58.4	283	9	1.5
2025-11-12T12:00	9500	295	-44.6	-58.2	284	8	1.5
2025-11-12T12:00	9520	295	-44.9	-58.3	284	8	1.5
2025-11-12T12:00	9540	294	-45.1	-58.6	284	8	1.5
2025-11-12T12:00	9560	293	-45.3	-58.7	284	8	1.5
2025-11-12T12:00	9580	292	-45.5	-59.1	285	8	1.5
2025-11-12T12:00	9600	291	-45.7	-59.4	285	8	1.5
2025-11-12T12:00	9620	290	-45.9	-59.8	285	8	1.5
2025-11-12T12:00	9640	289	-46.1	-59.8	284	8	1.5
2025-11-12T12:00	9660	288	-46.4	-59.6	284	8	1.5
2025-11-12T12:00	9680	288	-46.5	-59.7	283	8	1.5
2025-11-12T12:00	9700	287	-46.6	-60.4	281	8	1.5
2025-11-12T12:00	9720	286	-46.7	-60.6	279	8	1.5
2025-11-12T12:00	9740	285	-46.8	-60.3	278	8	1.5
2025-11-12T12:00	9760	284	-47.0	-60.0	277	8	1.5
2025-11-12T12:00	9780	283	-47.1	-59.8	276	8	1.5
2025-11-12T12:00	9800	282	-47.3	-59.7	275	8	1.5
2025-11-12T12:00	9820	281	-47.6	-59.6	275	8	1.5
2025-11-12T12:00	9840	281	-47.8	-59.5	276	8	1.4
2025-11-12T12:00	9860	280	-47.9	-59.5	276	9	1.4
2025-11-12T12:00	9880	279	-48.1	-59.4	276	9	1.5
2025-11-12T12:00	9900	278	-48.3	-59.4	277	9	1.4
2025-11-12T12:00	9920	277	-48.4	-59.3	277	9	1.4
2025-11-12T12:00	9940	276	-48.5	-59.3	277	10	1.4
2025-11-12T12:00	9960	276	-48.7	-59.5	277	10	1.4
2025-11-12T12:00	9980	275	-49.0	-59.6	277	10	1.4
2025-11-12T12:00	10000	274	-49.2	-59.6	278	10	1.4
2025-11-12T12:00	10018	273	-49.4	-59.7	278	11	1.4
2025-11-12T12:00	10050	272	-49.7	-59.9	279	11	1.4
2025-11-12T12:00	10100	270	-50.1	-59.2	279	12	1.4
2025-11-12T12:00	10150	268	-50.5	-58.8	278	13	1.4
2025-11-12T12:00	10200	266	-51.1	-58.4	277	14	1.3
2025-11-12T12:00	10250	264	-51.6	-58.3	278	14	1.3
2025-11-12T12:00	10300	262	-52.0	-58.7	280	14	1.3
2025-11-12T12:00	10350	260	-52.4	-59.8	285	14	1.3
2025-11-12T12:00	10400	257	-52.9	-61.5	288	14	1.3
2025-11-12T12:00	10450	256	-53.2	-62.0	289	14	1.3
2025-11-12T12:00	10500	254	-53.6	-61.4	290	13	1.3
2025-11-12T12:00	10550	252	-54.1	-60.0	294	13	1.3
2025-11-12T12:00	10600	250	-54.5	-59.1	297	14	1.3
2025-11-12T12:00	10650	248	-54.8	-59.1	298	14	1.3
2025-11-12T12:00	10700	246	-55.2	-59.9	297	14	1.3
2025-11-12T12:00	10750	244	-55.6	-60.6	296	14	1.3
2025-11-12T12:00	10800	242	-56.0	-61.2	295	14	1.3
2025-11-12T12:00	10850	240	-56.4	-61.4	298	14	1.3
2025-11-12T12:00	10900	238	-56.8	-61.7	301	14	1.3
2025-11-12T12:00	10950	236	-56.9	-62.0	303	13	1.3
2025-11-12T12:00	11000	234	-57.3	-62.5	303	12	1.3
2025-11-12T12:00	11050	233	-57.6	-63.1	303	11	1.3
2025-11-12T12:00	11100	231	-58.1	-63.8	304	10	1.3
2025-11-12T12:00	11150	229	-58.5	-64.1	303	10	1.3
2025-11-12T12:00	11200	227	-59.1	-64.5	300	10	1.3
2025-11-12T12:00	11250	225	-59.5	-64.9	297	10	1.3
2025-11-12T12:00	11300	224	-59.9	-65.4	295	10	1.3
2025-11-12T12:00	11350	222	-60.4	-65.5	294	10	1.3
2025-11-12T12:00	11400	220	-60.9	-65.6	292	10	1.3
2025-11-12T12:00	11450	218	-61.5	-66.1	291	10	1.3
2025-11-12T12:00	11500	216	-61.9	-66.9	291	10	1.3
2025-11-12T12:00	11550	215	-62.3	-67.6	290	11	1.3
2025-11-12T12:00	11600	213	-62.7	-67.9	288	12	1.3
2025-11-12T12:00	11650	211	-63.1	-68.3	287	12	1.3
2025-11-12T12:00	11700	209	-63.6	-68.7	290	12	1.3
2025-11-12T12:00	11750	208	-63.9	-69.2	295	11	1.3
2025-11-12T12:00	11800	206	-64.1	-69.4	298	11	1.3
2025-11-12T12:00	11850	204	-64.3	-69.7	296	11	1.4
2025-11-12T12:00	11900	203	-64.7	-70.0	295	11	1.5
2025-11-12T12:00	11950	201	-65.1	-70.6	295	10	1.5
2025-11-12T12:00	12000	200	-65.3	-70.6	294	10	1.5
2025-11-12T12:00	12050	198	-65.8	-71.1	292	10	1.6
2025-11-12T12:00	12100	196	-66.1	-71.2	292	11	1.6
2025-11-12T12:00	12150	195	-66.5	-71.6	293	12	1.6
2025-11-12T12:00	12200	193	-66.9	-71.9	294	13	1.6
2025-11-12T12:00	12250	191	-67.2	-72.1	293	14	1.6
2025-11-12T12:00	12300	190	-67.3	-72.3	292	15	1.6
2025-11-12T12:00	12350	188	-67.7	-72.8	291	15	1.7
2025-11-12T12:00	12400	187	-68.2	-73.3	292	15	1.7
2025-11-12T12:00	12450	185	-68.7	-73.8	294	16	1.8
2025-11-12T12:00	12500	184	-69.0	-74.1	297	17	1.8
2025-11-12T12:00	12550	182	-69.3	-74.7	300	17	1.8
2025-11-12T12:00	12600	180	-69.7	-75.1	301	17	1.8
2025-11-12T12:00	12650	179	-70.1	-75.3	300	18	1.8
2025-11-12T12:00	12700	177	-70.6	-76.0	298	18	1.8
2025-11-12T12:00	12750	176	-71.0	-76.4	295	17	1.8
2025-11-12T12:00	12800	174	-71.4	-76.8	291	18	1.8
2025-11-12T12:00	12850	173	-71.6	-76.9	288	21	1.8
2025-11-12T12:00	12900	172	-71.8	-77.1	287	23	1.8
2025-11-12T12:00	12950	170	-71.8	-76.7	287	25	1.8
2025-11-12T12:00	13000	169	-71.8	-76.1	286	25	1.9
2025-11-12T12:00	13050	167	-72.0	-75.8	285	25	2.0
2025-11-12T12:00	13100	166	-72.4	-75.7	285	25	2.1
2025-11-12T12:00	13150	165	-72.4	-75.8	288	26	2.1
2025-11-12T12:00	13200	163	-72.1	-76.0	292	25	2.2
2025-11-12T12:00	13250	162	-71.2	-75.2	292	25	2.3
2025-11-12T12:00	13300	160	-70.7	-75.2	290	26	2.4
2025-11-12T12:00	13350	159	-70.3	-74.8	288	27	2.5
2025-11-12T12:00	13400	158	-70.5	-74.7	288	28	2.6
2025-11-12T12:00	13450	156	-70.6	-74.8	290	29	2.7
2025-11-12T12:00	13500	155	-70.7	-75.6	291	29	2.8
2025-11-12T12:00	13550	154	-70.0	-76.0	290	30	2.8
2025-11-12T12:00	13600	152	-69.3	-76.9	289	30	2.9
2025-11-12T12:00	13650	151	-67.9	-78.5	291	28	2.9
2025-11-12T12:00	13700	150	-66.0	-79.7	295	27	2.8
2025-11-12T12:00	13750	149	-65.6	-81.5	300	28	2.8
2025-11-12T12:00	13800	147	-64.8	-82.3	306	27	2.9
2025-11-12T12:00	13850	146	-63.6	-83.0	310	25	2.9
2025-11-12T12:00	13900	145	-62.7	-83.7	311	22	2.8
2025-11-12T12:00	13950	144	-62.3	-83.8	309	19	2.9
2025-11-12T12:00	14000	143	-62.4	-84.1	305	17	2.9
2025-11-12T12:00	14050	142	-62.6	-83.6	300	15	2.9
2025-11-12T12:00	14100	140	-62.8	-83.3	294	14	2.9
2025-11-12T12:00	14150	139	-62.9	-83.1	287	13	2.9
2025-11-12T12:00	14200	138	-62.9	-82.9	279	12	2.9
2025-11-12T12:00	14250	137	-63.0	-83.0	274	13	3.0
2025-11-12T12:00	14300	136	-63.0	-83.0	275	14	3.1
2025-11-12T12:00	14350	135	-63.1	-83.0	279	15	3.2
2025-11-12T12:00	14400	134	-63.2	-83.0	282	15	3.3
2025-11-12T12:00	14450	133	-63.4	-83.1	284	16	3.4
2025-11-12T12:00	14500	132	-63.6	-83.2	287	18	3.3
2025-11-12T12:00	14550	131	-63.7	-83.3	288	18	3.2
2025-11-12T12:00	14600	130	-63.7	-83.4	288	18	3.0
2025-11-12T12:00	14650	128	-63.9	-83.5	288	18	3.1
2025-11-12T12:00	14700	127	-64.1	-83.5	288	19	3.3
2025-11-12T12:00	14750	126	-64.2	-83.6	287	20	3.4
2025-11-12T12:00	14800	125	-64.4	-83.8	287	21	3.4
2025-11-12T12:00	14850	124	-64.4	-83.9	288	21	3.2
2025-11-12T12:00	14900	123	-64.3	-83.9	289	21	3.0
2025-11-12T12:00	14950	122	-64.4	-83.9	291	22	2.9
2025-11-12T12:00	15000	121	-64.8	-83.9	293	21	2.9
2025-11-12T12:00	15050	120	-64.9	-84.0	294	21	2.9
2025-11-12T12:00	15100	119	-65.0	-84.0	294	20	2.9
2025-11-12T12:00	15150	118	-65.2	-84.0	295	20	2.9
2025-11-12T12:00	15200	117	-65.6	-84.1	296	19	3.1
2025-11-12T12:00	15250	116	-65.9	-84.2	296	19	3.1
2025-11-12T12:00	15300	116	-66.1	-84.3	298	18	3.1
2025-11-12T12:00	15350	115	-66.0	-84.3	302	17	3.2
2025-11-12T12:00	15400	114	-65.8	-84.3	306	15	3.4
2025-11-12T12:00	15450	113	-66.0	-84.4	309	14	3.6
2025-11-12T12:00	15500	112	-65.9	-84.4	312	12	3.7
2025-11-12T12:00	15550	111	-66.0	-84.4	315	11	3.8
2025-11-12T12:00	15600	110	-66.3	-84.5	311	10	3.8
2025-11-12T12:00	15650	109	-66.6	-84.5	304	10	3.7
2025-11-12T12:00	15700	108	-66.9	-84.6	295	10	3.6
2025-11-12T12:00	15750	107	-66.9	-84.7	288	10	3.5
2025-11-12T12:00	15800	106	-67.0	-84.8	282	11	3.4
2025-11-12T12:00	15850	105	-67.0	-84.9	281	11	3.3
2025-11-12T12:00	15900	105	-66.6	-85.0	284	11	3.2
2025-11-12T12:00	15950	104	-65.9	-84.9	281	11	3.3
2025-11-12T12:00	16000	103	-65.8	-85.0	278	12	3.3
2025-11-12T12:00	16050	102	-65.9	-85.1	277	13	3.2
2025-11-12T12:00	16100	101	-66.1	-85.1	277	15	3.2
2025-11-12T12:00	16150	100	-66.1	-85.2	278	16	3.2
2025-11-12T12:00	16200	100	-65.8	-85.2	279	17	3.1
2025-11-12T12:00	16250	99	-65.4	-85.3	281	18	3.1
2025-11-12T12:00	16300	98	-65.0	-85.2	282	19	3.2
2025-11-12T12:00	16350	97	-65.2	-85.3	285	20	3.4
2025-11-12T12:00	16400	96	-65.3	-85.4	288	20	3.4
2025-11-12T12:00	16450	96	-65.2	-85.5	291	19	3.5
2025-11-12T12:00	16500	95	-64.6	-85.3	291	18	3.7
2025-11-12T12:00	16550	94	-64.6	-85.5	288	17	4.0
2025-11-12T12:00	16600	93	-64.6	-85.5	285	16	4.2
2025-11-12T12:00	16650	92	-64.9	-85.5	282	16	4.4
2025-11-12T12:00	16700	92	-65.2	-85.7	280	17	4.5
2025-11-12T12:00	16750	91	-65.3	-85.8	282	18	4.6
2025-11-12T12:00	16800	90	-65.0	-85.7	284	18	4.8
2025-11-12T12:00	16850	89	-65.0	-85.8	287	18	5.0
2025-11-12T12:00	16900	89	-65.1	-86.0	290	17	5.2
2025-11-12T12:00	16950	88	-65.1	-86.0	292	15	5.3
2025-11-12T12:00	17000	87	-65.1	-86.0	294	15	5.5
2025-11-12T12:00	17050	87	-65.2	-86.1	293	15	5.8
2025-11-12T12:00	17100	86	-65.3	-86.2	293	16	6.1
2025-11-12T12:00	17150	85	-65.1	-86.4	295	15	6.4
2025-11-12T12:00	17200	84	-64.6	-86.4	296	14	6.7
2025-11-12T12:00	17250	84	-64.4	-86.3	291	14	7.0
2025-11-12T12:00	17300	83	-64.6	-86.4	286	14	7.4
2025-11-12T12:00	17350	82	-64.5	-86.4	282	13	7.7
2025-11-12T12:00	17400	82	-64.5	-86.4	281	12	8.4
2025-11-12T12:00	17450	81	-64.8	-86.6	282	11	9.2
2025-11-12T12:00	17500	80	-64.1	-86.5	287	11	9.7
2025-11-12T12:00	17550	80	-64.2	-86.5	292	11	9.7
2025-11-12T12:00	17600	79	-64.4	-86.5	292	12	9.6
2025-11-12T12:00	17650	78	-64.6	-86.6	292	13	9.6
2025-11-12T12:00	17700	78	-64.8	-86.8	295	12	9.6
2025-11-12T12:00	17750	77	-64.5	-86.7	298	11	9.6
2025-11-12T12:00	17800	77	-64.1	-86.5	297	10	10.3
2025-11-12T12:00	17850	76	-64.1	-86.5	291	10	11.4
2025-11-12T12:00	17900	75	-64.4	-86.5	284	9	12.2
2025-11-12T12:00	17950	75	-64.6	-86.6	278	9	12.4
2025-11-12T12:00	18000	74	-64.8	-86.8	276	9	11.9
2025-11-12T12:00	18050	74	-64.6	-86.7	274	10	11.0
2025-11-12T12:00	18100	73	-64.6	-86.7	271	11	9.9
2025-11-12T12:00	18150	72	-65.0	-86.8	270	12	9.1
2025-11-12T12:00	18200	72	-65.2	-86.9	271	13	8.7
2025-11-12T12:00	18250	71	-65.1	-87.0	273	13	8.3
2025-11-12T12:00	18300	71	-65.1	-87.1	274	13	8.0
2025-11-12T12:00	18350	70	-64.9	-87.1	272	13	8.4
2025-11-12T12:00	18400	69	-64.9	-87.1	270	13	9.0
2025-11-12T12:00	18450	69	-65.1	-87.1	268	13	9.3
2025-11-12T12:00	18500	68	-65.3	-87.2	270	12	9.2
2025-11-12T12:00	18550	68	-65.5	-87.2	272	12	8.9
2025-11-12T12:00	18600	67	-65.7	-87.3	277	13	8.7
2025-11-12T12:00	18650	67	-65.9	-87.4	280	14	8.5
2025-11-12T12:00	18700	66	-65.8	-87.4	277	14	8.2
2025-11-12T12:00	18750	65	-65.7	-87.4	273	14	7.9
2025-11-12T12:00	18800	65	-66.1	-87.6	272	15	7.7
2025-11-12T12:00	18850	64	-65.9	-87.6	271	16	7.5
2025-11-12T12:00	18900	64	-65.9	-87.8	272	17	7.4
2025-11-12T12:00	18950	63	-65.4	-87.6	272	16	7.4
2025-11-12T12:00	19000	63	-65.4	-87.6	272	16	7.6
2025-11-12T12:00	19050	62	-65.8	-87.6	272	15	7.9
2025-11-12T12:00	19100	62	-66.1	-87.7	274	15	8.1
2025-11-12T12:00	19150	61	-66.3	-87.9	275	15	8.3
2025-11-12T12:00	19200	61	-66.1	-87.9	273	14	8.5
2025-11-12T12:00	19250	60	-65.8	-87.9	268	14	8.9
2025-11-12T12:00	19300	60	-65.6	-87.8	264	15	9.3
2025-11-12T12:00	19350	59	-65.7	-87.8	261	15	9.7
2025-11-12T12:00	19400	59	-66.1	-87.8	260	16	9.9
2025-11-12T12:00	19450	58	-66.3	-88.0	262	16	10.1
2025-11-12T12:00	19500	58	-65.9	-88.1	267	17	10.2
2025-11-12T12:00	19550	57	-65.2	-88.1	269	18	10.3
2025-11-12T12:00	19600	57	-64.5	-88.0	273	17	10.2
2025-11-12T12:00	19650	56	-64.3	-87.9	279	17	10.1
2025-11-12T12:00	19700	56	-64.5	-87.9	285	16	10.1
2025-11-12T12:00	19750	56	-64.1	-87.8	287	15	10.0
2025-11-12T12:00	19800	55	-63.9	-87.7	284	15	10.2
2025-11-12T12:00	19850	55	-64.1	-87.7	281	14	10.3
2025-11-12T12:00	19900	54	-64.2	-87.7	281	13	10.4
2025-11-12T12:00	19950	54	-64.2	-87.7	283	13	10.4
2025-11-12T12:00	20000	53	-64.2	-87.6	283	13	10.6
2025-11-12T12:00	20050	53	-64.4		282	14	10.7
2025-11-12T12:00	20100	52	-64.6		280	14	10.8
2025-11-12T12:00	20150	52	-64.8		278	13	10.8
2025-11-12T12:00	20200	52	-64.5		277	13	10.9
2025-11-12T12:00	20250	51	-64.2		278	14	11.3
2025-11-12T12:00	20300	51	-64.3		280	15	11.5
2025-11-12T12:00	20350	50	-64.2		283	15	11.7
2025-11-12T12:00	20400	50	-64.3		288	15	11.7
2025-11-12T12:00	20450	50	-64.2		292	13	11.7
2025-11-12T12:00	20500	49	-64.3		294	13	11.7
2025-11-12T12:00	20550	49	-64.5		295	13	11.8
2025-11-12T12:00	20600	48	-64.8		294	12	11.9
2025-11-12T12:00	20650	48	-65.0		292	11	12.0
2025-11-12T12:00	20700	48	-65.3		289	11	12.1
2025-11-12T12:00	20750	47	-65.5		286	11	12.2
2025-11-12T12:00	20800	47	-65.8		285	12	12.2
2025-11-12T12:00	20850	46	-65.4		288	12	12.3
2025-11-12T12:00	20900	46	-65.5		292	12	12.3
2025-11-12T12:00	20950	46	-65.8		295	13	12.4
2025-11-12T12:00	21000	45	-65.9		295	13	12.3
2025-11-12T12:00	21050	45	-65.5		291	12	12.3
2025-11-12T12:00	21100	45	-65.6		285	12	12.3
2025-11-12T12:00	21150	44	-65.6		281	13	12.3
2025-11-12T12:00	21200	44	-65.6		278	15	12.3
2025-11-12T12:00	21250	43	-65.8		276	16	12.3
2025-11-12T12:00	21300	43	-65.8		277	16	12.3
2025-11-12T12:00	21350	43	-65.9		279	17	12.3
2025-11-12T12:00	21400	42	-66.2		284	19	12.3
2025-11-12T12:00	21450	42	-65.6		290	19	12.3
2025-11-12T12:00	21500	42	-65.7		295	19	12.2
2025-11-12T12:00	21550	41	-65.9		299	18	12.2
2025-11-12T12:00	21600	41	-65.8		303	17	12.1
2025-11-12T12:00	21650	41	-65.9		307	16	12.1
2025-11-12T12:00	21700	40	-65.9		306	15	12.1
2025-11-12T12:00	21750	40	-66.1		302	14	12.0
2025-11-12T12:00	21800	40	-66.2		295	13	11.9
2025-11-12T12:00	21850	39	-66.2		289	14	11.8
2025-11-12T12:00	21900	39	-65.9		288	15	11.7
2025-11-12T12:00	21950	39	-65.5		290	15	11.6
2025-11-12T12:00	22000	38	-65.5		291	17	11.6
2025-11-12T12:00	22050	38	-65.2		292	18	11.7
2025-11-12T12:00	22100	38	-64.6		294	18	11.8
2025-11-12T12:00	22150	37	-64.1		295	17	12.1
2025-11-12T12:00	22200	37	-63.9		298	16	12.3
2025-11-12T12:00	22250	37	-63.7		299	16	12.6
2025-11-12T12:00	22300	37	-63.7		295	15	12.7
2025-11-12T12:00	22350	36	-63.7		288	15	12.7
2025-11-12T12:00	22400	36	-63.9		282	15	12.7
2025-11-12T12:00	22450	36	-63.9		282	16	12.8
2025-11-12T12:00	22500	35	-63.8		287	16	12.8
2025-11-12T12:00	22550	35	-63.7		293	16	12.9
2025-11-12T12:00	22600	35	-63.9		296	17	12.9
2025-11-12T12:00	22650	35	-64.1		297	17	12.9
2025-11-12T12:00	22700	34	-64.3		295	17	12.8
2025-11-12T12:00	22750	34	-64.6		294	17	12.8
2025-11-12T12:00	22800	34	-64.7		294	17	12.8
2025-11-12T12:00	22850	33	-64.6		293	17	13.0
2025-11-12T12:00	22900	33	-64.6		291	17	13.2
2025-11-12T12:00	22950	33	-64.6		290	17	13.4
2025-11-12T12:00	23000	33	-64.6		291	17	13.5
2025-11-12T12:00	23050	32	-64.6		293	16	13.7
2025-11-12T12:00	23100	32	-64.8		293	16	13.8
2025-11-12T12:00	23150	32	-65.0		291	15	13.9
2025-11-12T12:00	23200	32	-64.9		288	15	14.0
2025-11-12T12:00	23250	31	-64.7		282	14	14.1
2025-11-12T12:00	23300	31	-64.6		275	15	14.2
2025-11-12T12:00	23350	31	-64.2		272	16	14.2
2025-11-12T12:00	23400	31	-64.2		275	17	14.2
2025-11-12T12:00	23450	30	-64.2		281	17	14.1
2025-11-12T12:00	23500	30	-64.1		285	16	14.0
2025-11-12T12:00	23550	30	-64.0		284	16	13.9
2025-11-12T12:00	23600	30	-63.6		281	17	13.7
2025-11-12T12:00	23650	29	-62.9		283	18	13.6
2025-11-12T12:00	23700	29	-62.3		287	17	13.5
2025-11-12T12:00	23750	29	-62.3		288	15	13.5
2025-11-12T12:00	23800	29	-62.5		285	14	13.5
2025-11-12T12:00	23850	28	-62.7		281	13	13.5
2025-11-12T12:00	23900	28	-63.0		277	13	13.4
2025-11-12T12:00	23950	28	-63.2		276	13	13.4
2025-11-12T12:00	24000	28	-63.0		279	13	13.4
2025-11-12T12:00	24050	27	-62.7		283	14	13.3
2025-11-12T12:00	24100	27	-62.6		286	15	13.3
2025-11-12T12:00	24150	27	-62.6		287	15	13.3
2025-11-12T12:00	24200	27	-62.5		288	14	13.3
2025-11-12T12:00	24250	27	-62.5		288	14	13.3
2025-11-12T12:00	24300	26	-62.9		289	13	13.2
2025-11-12T12:00	24350	26	-63.3		292	13	13.2
2025-11-12T12:00	24400	26	-63.7		296	12	13.2
2025-11-12T12:00	24450	26	-64.2		301	12	13.1
2025-11-12T12:00	24500	26	-64.5		305	12	13.1
2025-11-12T12:00	24550	25	-64.8		308	12	13.0
2025-11-12T12:00	24600	25	-65.0		307	12	12.9
2025-11-12T12:00	24650	25	-65.1		302	13	12.9
2025-11-12T12:00	24700	25	-65.4		297	13	12.8
2025-11-12T12:00	24750	25	-65.8		294	14	12.7
2025-11-12T12:00	24800	24	-66.1		292	15	12.7
2025-11-12T12:00	24850	24	-66.3		290	15	12.6
2025-11-12T12:00	24900	24	-66.5		288	16	12.5
2025-11-12T12:00	24950	24	-66.8		286	17	12.5
2025-11-12T12:00	25000	24	-67.1		284	18	12.4
2025-11-12T12:00	25050	23	-67.2		284	19	12.3
2025-11-12T12:00	25100	23	-67.3		284	20	12.2
2025-11-12T12:00	25150	23	-67.3		285	21	12.2
2025-11-12T12:00	25200	23	-67.4		288	21	12.2
2025-11-12T12:00	25250	23	-67.5		291	21	12.2
2025-11-12T12:00	25300	22	-67.8		294	21	12.1
2025-11-12T12:00	25350	22	-68.1		298	21	12.0
2025-11-12T12:00	25400	22	-68.3		300	21	12.0
2025-11-12T12:00	25450	22	-68.3		299	21	11.9
2025-11-12T12:00	25500	22	-68.4		295	21	11.8
2025-11-12T12:00	25550	21	-68.2		288	22	11.7
2025-11-12T12:00	25600	21	-67.8		283	24	11.6
2025-11-12T12:00	25650	21	-67.0		286	24	11.5
2025-11-12T12:00	25700	21	-66.7		292	24	11.4
2025-11-12T12:00	25750	21	-66.7		293	24	11.3
2025-11-12T12:00	25800	21	-66.3		293	25	11.2
2025-11-12T12:00	25850	20	-65.8		291	28	11.1
2025-11-12T12:00	25900	20	-65.3		290	29	11.2
2025-11-12T12:00	25950	20	-65.0		290	28	11.2
2025-11-12T12:00	26000	20	-64.9		290	27	11.1
2025-11-12T12:00	26050	20	-64.8		289	27	11.1
2025-11-12T12:00	26100	20	-64.5		290	27	11.1
2025-11-12T12:00	26150	19	-64.3		290	28	10.9
2025-11-12T12:00	26200	19	-64.1		290	29	10.6
2025-11-12T12:00	26250	19	-64.0		291	29	10.5
2025-11-12T12:00	26300	19	-64.0		292	30	10.3
2025-11-12T12:00	26350	19	-63.8		294	30	10.3
2025-11-12T12:00	26400	19	-63.5		296	30	10.1
2025-11-12T12:00	26450	19	-63.3		296	30	9.9
2025-11-12T12:00	26500	18	-63.3		295	30	9.8
2025-11-12T12:00	26550	18	-63.3		294	30	9.6
2025-11-12T12:00	26600	18	-63.1		293	29	9.5
2025-11-12T12:00	26650	18	-63.1		292	29	9.4
2025-11-12T12:00	26700	18	-63.4		291	29	9.3
2025-11-12T12:00	26750	18	-63.0		289	27	9.2
2025-11-12T12:00	26800	17	-62.0		290	26	9.1
2025-11-12T12:00	26850	17	-61.7		291	25	9.0
2025-11-12T12:00	26900	17	-61.5		291	25	8.9
2025-11-12T12:00	26950	17	-61.0		290	25	8.8
2025-11-12T12:00	27000	17	-60.7		290	25	8.8
2025-11-12T12:00	27050	17	-60.5		291	26	8.7
2025-11-12T12:00	27100	17	-60.0		291	27	8.6
2025-11-12T12:00	27150	17	-59.9		290	28	8.6
2025-11-12T12:00	27200	16	-59.8		289	29	8.5
2025-11-12T12:00	27250	16	-59.6		288	29	8.5
2025-11-12T12:00	27300	16	-59.4		287	29	8.4
2025-11-12T12:00	27350	16	-59.1		287	29	8.4
2025-11-12T12:00	27400	16	-59.0		286	30	8.3
2025-11-12T12:00	27450	16	-59.2		285	32	8.3
2025-11-12T12:00	27500	16	-59.2		285	34	8.2
2025-11-12T12:00	27550	16	-59.2		285	35	8.2
2025-11-12T12:00	27600	15	-59.0		286	35	8.1
2025-11-12T12:00	27650	15	-58.7		286	34	8.1
2025-11-12T12:00	27700	15	-58.6		285	34	8.0
2025-11-12T12:00	27750	15	-58.7		284	35	8.1
2025-11-12T12:00	27800	15	-58.9		283	36	8.1
2025-11-12T12:00	27850	15	-58.9		283	36	8.0
2025-11-12T12:00	27900	15	-58.8		282	36	7.9
2025-11-12T12:00	27950	15	-58.7		281	36	7.9
2025-11-12T12:00	28000	14	-58.9		280	36	7.8
2025-11-12T12:00	28050	14	-59.2		280	36	7.7
2025-11-12T12:00	28100	14	-59.4		279	36	7.7
2025-11-12T12:00	28150	14	-59.4		280	36	7.6
2025-11-12T12:00	28200	14	-59.4		281	35	7.6
2025-11-12T12:00	28250	14	-59.4		282	35	7.5
2025-11-12T12:00	28300	14	-59.6		285	34	7.4
2025-11-12T12:00	28350	14	-59.7		286	34	7.3
2025-11-12T12:00	28400	14	-59.7		287	34	7.2
2025-11-12T12:00	28450	13	-59.8		287	34	7.1
2025-11-12T12:00	28500	13	-59.9		287	33	7.0
2025-11-12T12:00	28550	13	-60.2		286	33	7.0
2025-11-12T12:00	28600	13	-60.1		286	32	6.9
2025-11-12T12:00	28650	13	-59.6		285	33	6.9
2025-11-12T12:00	28700	13	-59.5		284	33	6.9
2025-11-12T12:00	28750	13	-59.4		281	34	6.9
2025-11-12T12:00	28800	13	-59.4		278	35	6.8
2025-11-12T12:00	28850	13	-59.5		277	36	6.8
2025-11-12T12:00	28900	12	-59.4		276	37	6.7
2025-11-12T12:00	28950	12	-59.1		276	38	6.7
2025-11-12T12:00	29000	12	-58.8		276	40	6.6
2025-11-12T12:00	29050	12	-58.8		276	41	6.6
2025-11-12T12:00	29100	12	-58.6		277	41	6.5
2025-11-12T12:00	29150	12	-58.4		279	41	6.5
2025-11-12T12:00	29200	12	-58.1		281	40	6.5
2025-11-12T12:00	29250	12	-57.9		282	39	6.4
2025-11-12T12:00	29300	12	-58.0		284	39	6.4
2025-11-12T12:00	29350	12	-57.7		284	39	6.3
2025-11-12T12:00	29400	12	-57.7		283	39	6.3
2025-11-12T12:00	29450	11	-57.6		282	39	6.3
2025-11-12T12:00	29500	11	-57.5		281	38	6.2
2025-11-12T12:00	29550	11	-57.6		280	37	6.2
2025-11-12T12:00	29600	11	-57.5		278	37	6.1
2025-11-12T12:00	29650	11	-57.5		276	38	6.1
2025-11-12T12:00	29700	11	-57.6		275	40	6.0
2025-11-12T12:00	29750	11	-57.6		276	41	6.0
2025-11-12T12:00	29800	11	-57.7		277	43	5.9
2025-11-12T12:00	29850	11	-57.6		277	43	5.9
2025-11-12T12:00	29900	11	-57.3		278	43	5.8
2025-11-12T12:00	29950	11	-57.2		278	43	5.8
2025-11-12T12:00	30000	10	-57.2		279	43	5.7
2025-11-12T12:00	30050	10	-57.4		279	43	5.7
2025-11-12T12:00	30100	10	-57.6		280	43	5.7
2025-11-12T12:00	30150	10	-57.5		280	42	5.6
2025-11-12T12:00	30200	10	-57.6		279	42	5.6
2025-11-12T12:00	30250	10	-57.5		278	42	5.5
2025-11-12T12:00	30300	10	-57.1		277	43	5.5
2025-11-12T12:00	30350	10	-56.5		277	44	5.5
2025-11-12T12:00	30400	10	-56.3		277	44	5.5
2025-11-12T12:00	30450	10	-55.9		277	46	5.5
2025-11-12T12:00	30500	10	-55.9		277	47	5.4
2025-11-12T12:00	30550	10	-55.9		277	49	5.4
2025-11-12T12:00	30600	10	-55.7		277	49	5.4
2025-11-12T12:00	30650	9	-55.5		277	50	5.3
2025-11-12T12:00	30700	9	-55.3		276	50	5.1
2025-11-12T12:00	30750	9	-54.9		276	50	4.5
2025-11-12T12:00	30800	9	-54.5		276	50	
2025-11-12T12:00	30850	9	-53.7		277	50	
2025-11-12T12:00	30900	9	-53.2		279	49	
2025-11-12T12:00	30950	9	-53.1		281	50	
2025-11-12T12:00	31000	9	-53.0		283	50	
2025-11-12T12:00	31050	9	-52.5		284	51	
2025-11-12T12:00	31100	9	-52.7		285	52	
2025-11-12T12:00	31150	9	-52.8		286	53	
2025-11-12T12:00	31200	9	-52.8		286	54	
2025-11-12T12:00	31250	9	-53.0		286	54	
2025-11-12T12:00	31300	9	-53.2		286	54	
2025-11-12T12:00	31350	8	-53.1		285	53	
2025-11-12T12:00	31400	8	-53.2		283	52	
2025-11-12T12:00	31450	8	-53.2		282	51	
2025-11-12T12:00	31500	8	-53.4		281	50	
2025-11-12T12:00	31550	8	-53.2		280	50	
2025-11-12T12:00	31600	8	-53.0		278	49	
2025-11-12T12:00	31650	8	-52.9		277	49	
2025-11-12T12:00	31700	8	-52.9		276	48	
2025-11-12T12:00	31750	8	-52.8		275	48	
2025-11-12T12:00	31800	8	-52.8		274	48	
2025-11-12T12:00	31850	8	-52.7		274	49	
2025-11-12T12:00	31900	8	-52.8		273	49	
2025-11-12T12:00	31950	8	-52.9		272	49	
2025-11-12T12:00	32000	8	-52.5		272	50	
2025-11-12T12:00	32050	8	-52.2		271	50	
2025-11-12T12:00	32100	8	-52.4		272	51	
2025-11-12T12:00	32150	8	-52.3		272	51	
2025-11-12T12:00	32200	7	-52.2		273	51	
2025-11-12T12:00	32250	7	-52.1		274	51	
2025-11-12T12:00	32300	7	-51.8		275	51	
2025-11-12T12:00	32350	7	-51.7		275	51	
2025-11-12T12:00	32400	7	-51.8		275	52	
2025-11-12T12:00	32450	7	-52.0		275	52	
2025-11-12T12:00	32500	7	-52.0		274	52	
2025-11-12T12:00	32550	7	-51.8		274	52	
2025-11-12T12:00	32600	7	-51.8		275	52	
2025-11-12T12:00	32650	7	-51.6		277	52	
2025-11-12T12:00	32700	7	-51.0		278	52	
2025-11-12T12:00	32750	7	-50.7		278	53	
2025-11-12T12:00	32800	7	-50.5		276	53	
2025-11-12T12:00	32850	7	-50.3		274	54	
2025-11-12T12:00	32900	7	-50.3		273	54	
2025-11-12T12:00	32950	7	-50.6		272	56	
2025-11-12T12:00	33000	7	-50.8		271	57	
2025-11-12T12:00	33050	7	-50.8		271	57	
2025-11-12T12:00	33100	6	-50.7		271	57	
2025-11-12T12:00	33150	6	-50.5		272	56	
2025-11-12T12:00	33200	6	-50.3		273	56	
2025-11-12T12:00	33250	6	-50.3		274	55	
2025-11-12T12:00	33300	6	-50.4		274	54	
2025-11-12T12:00	33350	6	-50.4		274	54	
2025-11-12T12:00	33400	6	-50.2		272	54	
2025-11-12T12:00	33450	6	-49.6		271	54	
2025-11-12T12:00	33500	6	-48.8		271	55	
2025-11-12T12:00	33550	6	-48.7		271	56	
2025-11-12T12:00	33600	6	-48.1		271	54	
2025-11-12T12:00	33650	6	-47.6		271	53	
2025-11-12T12:00	33700	6	-46.7		270	52	
2025-11-12T12:00	33750	6	-46.0		269	51	
2025-11-12T12:00	33800	6	-45.2		270	51	
2025-11-12T12:00	33850	6	-44.9		271	52	
2025-11-12T12:00	33900	6	-44.9		271	54	
2025-11-12T12:00	33950	6	-44.7		270	55	
2025-11-12T12:00	34000	6	-44.6		269	56	
2025-11-12T12:00	34050	6	-44.8		268	58	
2025-11-12T12:00	34100	6	-45.1		268	58	
2025-11-12T12:00	34150	6	-45.5		268	59	
2025-11-12T12:00	34200	5	-45.9		267	60	
2025-11-12T12:00	34250	5	-46.3		267	61	
2025-11-12T12:00	34300	5	-46.7		267	62	
2025-11-12T12:00	34350	5	-46.9		266	63	
2025-11-12T12:00	34400	5	-47.1		266	64	
2025-11-12T12:00	34450	5	-47.2		266	64	
2025-11-12T12:00	34500	5	-46.8		266	65	
2025-11-12T12:00	34550	5	-46.8		266	65	
2025-11-12T12:00	34600	5	-46.8		266	66	
2025-11-12T12:00	34650	5	-46.8		266	67	
2025-11-12T12:00	34700	5	-46.9		265	68	
2025-11-12T12:00	34750	5	-47.1		265	69	
2025-11-12T12:00	34800	5	-47.5		266	69	
2025-11-12T12:00	34850	5	-47.8		268	68	
2025-11-12T12:00	34900	5	-47.8		269	67	
2025-11-12T12:00	34950	5	-47.9		270	66	
2025-11-12T12:00	35000	5	-48.1		272	65	
2025-11-12T12:00	35050	5	-48.2		273	65	
2025-11-12T12:00	35100	5	-48.3		273	64	
2025-11-12T12:00	35150	5	-48.6		275	63	
2025-11-12T12:00	35200	5	-48.8		276	63	
2025-11-12T12:00	35250	5	-48.9		276	62	
2025-11-12T12:00	35300	5	-49.2		277	62	
2025-11-12T12:00	35350	5	-49.4		276	61	
2025-11-12T12:00	35400	5	-49.6		275	61	
2025-11-12T12:00	35450	5	-49.8		274	60	
2025-11-12T12:00	35500	5	-49.8		273	59	
2025-11-12T12:00	35550	4	-50.0		270	58	
2025-11-12T12:00	35600	4	-49.8		268	56	
2025-11-12T12:00	35650	4	-49.1		266	54	
2025-11-12T12:00	35700	4	-47.9		265	53	
2025-11-12T12:00	35750	4	-47.0		263	52	
2025-11-12T12:00	35800	4	-46.7		262	52	
2025-11-12T12:00	35850	4	-46.5		262	54	
2025-11-12T12:00	35900	4	-46.1		263	55	
2025-11-12T12:00	35950	4	-45.7		262	56	
2025-11-12T12:00	36000	4	-45.4		261	57	
2025-11-12T12:00	36050	4	-45.2		261	58	
2025-11-12T12:00	36100	4	-45.3		262	59	
2025-11-12T12:00	36150	4	-45.4		264	59	
2025-11-12T12:00	36200	4	-45.5		265	60	
2025-11-12T12:00	36250	4	-45.6		267	60	
2025-11-12T12:00	36300	4	-45.3		269	60	
2025-11-12T12:00	36350	4	-44.5		271	59	
2025-11-12T12:00	36400	4	-43.8		272	59	
2025-11-12T12:00	36450	4	-43.0		273	59	
2025-11-12T12:00	36500	4	-42.4		273	60	
2025-11-12T12:00	36550	4	-42.7		273	60	
2025-11-12T12:00	36600	4	-43.1		273	60	
2025-11-12T12:00	36650	4	-43.3		274	60	
2025-11-12T12:00	36700	4	-42.9		274	59	
2025-11-13T00:00	491	961	4.7	4.0	210	1	
2025-11-13T00:00	501	959	5.9	4.4	237	1	
2025-11-13T00:00	520	958	7.1	5.0	252	1	
2025-11-13T00:00	540	956	8.5	6.7	250	1	
2025-11-13T00:00	560	953	8.8	6.9	249	1	
2025-11-13T00:00	580	951	9.5	4.4	250	1	
2025-11-13T00:00	600	949	11.3	3.4	250	2	
2025-11-13T00:00	620	947	11.6	3.9	249	2	
2025-11-13T00:00	640	944	11.8	4.0	247	2	
2025-11-13T00:00	660	942	12.0	4.0	243	3	
2025-11-13T00:00	680	940	12.0	4.0	241	3	
2025-11-13T00:00	700	938	12.0	4.0	238	4	
2025-11-13T00:00	720	935	11.9	3.9	236	4	
2025-11-13T00:00	740	933	11.9	3.7	234	5	
2025-11-13T00:00	760	931	11.8	3.6	232	5	
2025-11-13T00:00	780	929	11.7	3.4	231	6	
2025-11-13T00:00	800	926	11.6	3.3	229	7	
2025-11-13T00:00	820	924	11.5	3.2	228	7	
2025-11-13T00:00	840	922	11.4	3.2	226	7	
2025-11-13T00:00	860	919	11.3	3.2	225	7	
2025-11-13T00:00	880	917	11.3	3.1	225	8	
2025-11-13T00:00	900	915	11.4	3.2	225	8	
2025-11-13T00:00	920	913	11.3	3.5	226	9	
2025-11-13T00:00	940	911	11.4	3.6	228	10	
2025-11-13T00:00	960	909	11.5	3.4	229	10	
2025-11-13T00:00	980	906	12.0	3.0	229	11	
2025-11-13T00:00	1000	904	12.2	2.6	230	12	
2025-11-13T00:00	1020	902	12.2	2.6	230	13	
2025-11-13T00:00	1040	900	12.0	2.5	230	14	
2025-11-13T00:00	1060	898	12.1	2.1	229	14	
2025-11-13T00:00	1080	896	12.5	1.1	228	14	
2025-11-13T00:00	1100	894	12.9	0.4	228	14	
2025-11-13T00:00	1120	891	13.0	-0.1	227	14	
2025-11-13T00:00	1140	889	12.9	-0.3	226	13	
2025-11-13T00:00	1160	887	12.9	-0.6	226	13	
2025-11-13T00:00	1180	885	12.7	-0.7	225	12	
2025-11-13T00:00	1200	883	12.6	-1.1	224	12	
2025-11-13T00:00	1220	881	12.9	-1.9	223	12	
2025-11-13T00:00	1240	879	12.9	-2.3	222	12	
2025-11-13T00:00	1260	877	12.7	-2.3	221	12	
2025-11-13T00:00	1280	874	12.5	-2.5	220	12	
2025-11-13T00:00	1300	873	12.4	-2.7	219	12	
2025-11-13T00:00	1320	871	12.3	-2.8	217	12	
2025-11-13T00:00	1340	868	12.2	-3.0	214	12	
2025-11-13T00:00	1360	866	12.1	-3.2	211	13	
2025-11-13T00:00	1380	864	12.2	-3.8	209	13	
2025-11-13T00:00	1400	862	12.7	-5.0	207	12	
2025-11-13T00:00	1420	860	14.7	-7.6	206	12	
2025-11-13T00:00	1440	858	15.4	-7.7	206	11	
2025-11-13T00:00	1460	856	15.4	-7.6	208	11	
2025-11-13T00:00	1480	854	15.3	-7.6	210	10	
2025-11-13T00:00	1500	852	15.2	-7.7	213	10	
2025-11-13T00:00	1520	850	15.1	-7.8	216	10	
2025-11-13T00:00	1540	848	14.9	-7.8	218	10	
2025-11-13T00:00	1560	846	14.8	-8.0	220	10	
2025-11-13T00:00	1580	844	14.7	-8.2	220	10	
2025-11-13T00:00	1600	842	14.7	-8.3	220	11	
2025-11-13T00:00	1620	840	14.6	-8.1	220	11	
2025-11-13T00:00	1640	838	14.5	-7.9	219	11	
2025-11-13T00:00	1660	836	14.3	-7.7	219	12	
2025-11-13T00:00	1680	834	14.3	-7.3	219	12	
2025-11-13T00:00	1700	832	14.3	-7.1	219	12	
2025-11-13T00:00	1720	830	14.1	-7.0	219	12	
2025-11-13T00:00	1740	828	14.0	-6.8	219	12	
2025-11-13T00:00	1760	826	13.8	-6.7	220	11	
2025-11-13T00:00	1780	824	13.7	-6.7	220	11	
2025-11-13T00:00	1800	822	13.6	-6.8	220	10	
2025-11-13T00:00	1820	821	13.6	-7.2	221	9	
2025-11-13T00:00	1840	818	13.6	-7.4	223	9	
2025-11-13T00:00	1860	816	13.5	-7.5	226	8	
2025-11-13T00:00	1880	814	13.5	-7.3	229	8	
2025-11-13T00:00	1900	813	13.3	-7.1	232	7	
2025-11-13T00:00	1920	811	13.2	-7.2	233	7	
2025-11-13T00:00	1940	809	13.0	-7.0	234	7	
2025-11-13T00:00	1960	807	12.8	-6.9	233	7	
2025-11-13T00:00	1980	805	12.6	-7.0	232	7	
2025-11-13T00:00	2000	803	12.4	-7.0	230	6	
2025-11-13T00:00	2020	801	12.3	-7.0	228	6	
2025-11-13T00:00	2040	799	12.1	-7.0	228	6	
2025-11-13T00:00	2060	797	11.9	-7.0	228	6	
2025-11-13T00:00	2080	795	11.7	-6.8	230	6	
2025-11-13T00:00	2100	794	11.5	-6.9	232	6	
2025-11-13T00:00	2120	792	11.4	-6.9	233	7	
2025-11-13T00:00	2140	790	11.1	-6.9	233	7	
2025-11-13T00:00	2160	788	10.9	-6.9	233	7	
2025-11-13T00:00	2180	786	10.7	-7.0	232	8	
2025-11-13T00:00	2200	784	10.5	-7.0	232	8	
2025-11-13T00:00	2220	782	10.3	-6.9	233	8	
2025-11-13T00:00	2240	780	10.2	-6.8	234	8	
2025-11-13T00:00	2260	778	10.0	-6.9	236	8	
2025-11-13T00:00	2280	777	9.8	-7.0	238	8	
2025-11-13T00:00	2300	775	9.6	-6.9	241	8	
2025-11-13T00:00	2320	773	9.4	-6.9	244	8	
2025-11-13T00:00	2340	771	9.2	-7.0	246	7	
2025-11-13T00:00	2360	769	9.0	-7.0	247	7	
2025-11-13T00:00	2380	767	8.8	-7.0	247	7	
2025-11-13T00:00	2400	765	8.6	-7.0	246	7	
2025-11-13T00:00	2420	763	8.4	-6.9	245	7	
2025-11-13T00:00	2440	762	8.3	-6.8	244	7	
2025-11-13T00:00	2460	760	8.1	-6.9	244	7	
2025-11-13T00:00	2480	758	7.9	-6.8	245	7	
2025-11-13T00:00	2500	756	7.7	-6.8	248	7	
2025-11-13T00:00	2520	754	7.5	-6.6	251	7	
2025-11-13T00:00	2540	752	7.3	-6.4	254	7	
2025-11-13T00:00	2560	751	7.1	-6.3	256	6	
2025-11-13T00:00	2580	749	7.0	-6.1	256	6	
2025-11-13T00:00	2600	747	6.8	-6.0	256	6	
2025-11-13T00:00	2620	745	6.5	-6.0	254	6	
2025-11-13T00:00	2640	743	6.4	-5.9	254	6	
2025-11-13T00:00	2660	741	6.2	-5.8	256	6	
2025-11-13T00:00	2680	740	6.0	-5.6	261	6	
2025-11-13T00:00	2700	738	5.9	-5.2	267	6	
2025-11-13T00:00	2720	736	5.7	-5.1	272	7	
2025-11-13T00:00	2740	734	5.6	-5.0	277	7	
2025-11-13T00:00	2760	732	5.4	-5.3	279	8	
2025-11-13T00:00	2780	731	5.3	-5.5	280	8	
2025-11-13T00:00	2800	729	5.1	-5.5	280	8	
2025-11-13T00:00	2820	727	4.9	-5.6	280	8	
2025-11-13T00:00	2840	725	4.8	-5.7	279	9	
2025-11-13T00:00	2860	724	4.6	-5.8	279	9	
2025-11-13T00:00	2880	722	4.4	-5.9	279	9	
2025-11-13T00:00	2900	720	4.3	-6.1	278	9	
2025-11-13T00:00	2920	718	4.1	-6.3	278	9	
2025-11-13T00:00	2940	717	4.0	-6.4	278	10	
2025-11-13T00:00	2960	715	3.8	-6.6	278	10	
2025-11-13T00:00	2980	713	3.6	-6.5	279	10	
2025-11-13T00:00	3000	711	3.4	-6.5	281	10	
2025-11-13T00:00	3020	709	3.2	-6.7	283	10	
2025-11-13T00:00	3040	708	3.0	-6.8	284	10	
2025-11-13T00:00	3060	706	2.8	-6.9	284	10	
2025-11-13T00:00	3080	704	2.7	-6.9	284	10	
2025-11-13T00:00	3100	703	2.5	-6.9	283	10	
2025-11-13T00:00	3120	701	2.3	-7.2	281	10	
2025-11-13T00:00	3140	699	2.2	-7.5	278	10	
2025-11-13T00:00	3160	697	2.0	-7.6	276	10	
2025-11-13T00:00	3180	695	1.9	-7.6	274	10	
2025-11-13T00:00	3200	694	1.7	-7.7	273	10	
2025-11-13T00:00	3220	692	1.5	-7.8	272	10	
2025-11-13T00:00	3240	690	1.3	-7.9	272	10	
2025-11-13T00:00	3260	689	1.1	-8.0	273	9	
2025-11-13T00:00	3280	687	0.9	-8.0	273	9	
2025-11-13T00:00	3300	685	0.8	-8.2	274	9	
2025-11-13T00:00	3320	683	0.6	-8.2	274	9	
2025-11-13T00:00	3340	682	0.4	-8.3	274	9	
2025-11-13T00:00	3360	680	0.2	-8.3	274	9	
2025-11-13T00:00	3380	678	0.0	-8.5	273	9	
2025-11-13T00:00	3400	677	-0.2	-8.5	272	8	
2025-11-13T00:00	3420	675	-0.3	-8.7	269	8	
2025-11-13T00:00	3440	674	-0.5	-9.0	266	8	
2025-11-13T00:00	3460	672	-0.7	-9.3	262	8	
2025-11-13T00:00	3480	670	-0.8	-9.9	258	8	
2025-11-13T00:00	3500	668	-0.7	-11.0	255	8	
2025-11-13T00:00	3520	667	-0.9	-11.4	252	8	
2025-11-13T00:00	3540	665	-1.0	-11.4	249	9	
2025-11-13T00:00	3560	663	-1.2	-11.6	246	9	
2025-11-13T00:00	3580	662	-1.4	-11.6	244	9	
2025-11-13T00:00	3600	660	-1.6	-11.9	243	10	
2025-11-13T00:00	3620	658	-1.7	-13.1	242	10	
2025-11-13T00:00	3640	657	-1.7	-14.1	241	10	
2025-11-13T00:00	3660	655	-1.7	-14.9	241	11	
2025-11-13T00:00	3680	653	-1.8	-15.9	242	11	
2025-11-13T00:00	3700	652	-1.9	-16.7	243	11	
2025-11-13T00:00	3720	650	-1.9	-17.7	244	12	
2025-11-13T00:00	3740	649	-1.9	-18.7	244	12	
2025-11-13T00:00	3760	647	-2.0	-19.1	245	12	
2025-11-13T00:00	3780	645	-2.1	-19.3	245	13	
2025-11-13T00:00	3800	644	-2.3	-19.3	244	13	
2025-11-13T00:00	3820	642	-2.4	-19.3	244	13	
2025-11-13T00:00	3840	641	-2.6	-19.3	243	13	
2025-11-13T00:00	3860	639	-2.7	-19.3	243	13	
2025-11-13T00:00	3880	637	-2.9	-19.2	242	13	
2025-11-13T00:00	3900	635	-3.1	-19.1	242	13	
2025-11-13T00:00	3920	634	-3.3	-19.0	242	12	
2025-11-13T00:00	3940	632	-3.4	-19.2	241	12	
2025-11-13T00:00	3960	631	-3.5	-19.6	241	12	
2025-11-13T00:00	3980	629	-3.6	-19.9	240	11	
2025-11-13T00:00	4000	628	-3.6	-20.4	240	11	
2025-11-13T00:00	4020	626	-3.7	-20.6	240	11	
2025-11-13T00:00	4040	624	-3.8	-20.8	242	11	
2025-11-13T00:00	4060	623	-4.0	-21.0	243	11	
2025-11-13T00:00	4080	621	-4.0	-21.6	245	12	
2025-11-13T00:00	4100	620	-4.1	-21.8	247	12	
2025-11-13T00:00	4120	618	-4.3	-22.1	248	12	
2025-11-13T00:00	4140	616	-4.4	-22.5	249	13	
2025-11-13T00:00	4160	615	-4.6	-22.7	251	13	
2025-11-13T00:00	4180	613	-4.7	-22.9	251	13	
2025-11-13T00:00	4200	612	-4.9	-23.5	252	13	
2025-11-13T00:00	4220	610	-5.0	-23.7	252	13	
2025-11-13T00:00	4240	609	-5.2	-23.9	252	13	
2025-11-13T00:00	4260	607	-5.3	-23.9	252	13	
2025-11-13T00:00	4280	605	-5.5	-24.1	252	13	
2025-11-13T00:00	4300	604	-5.6	-24.4	252	13	
2025-11-13T00:00	4320	603	-5.7	-25.0	252	13	
2025-11-13T00:00	4340	601	-5.8	-25.5	251	13	
2025-11-13T00:00	4360	600	-5.9	-25.6	250	13	
2025-11-13T00:00	4380	598	-6.0	-26.3	249	13	
2025-11-13T00:00	4400	596	-6.0	-26.6	248	13	
2025-11-13T00:00	4420	595	-6.1	-26.8	248	13	
2025-11-13T00:00	4440	593	-6.3	-27.1	248	13	
2025-11-13T00:00	4460	592	-6.4	-27.4	248	13	
2025-11-13T00:00	4480	590	-6.6	-28.0	248	13	
2025-11-13T00:00	4500	589	-6.6	-28.3	248	13	
2025-11-13T00:00	4520	587	-6.8	-28.4	248	13	
2025-11-13T00:00	4540	586	-6.9	-28.6	247	13	
2025-11-13T00:00	4560	584	-7.1	-28.9	246	13	
2025-11-13T00:00	4580	583	-7.1	-29.5	244	13	
2025-11-13T00:00	4600	581	-7.2	-30.2	243	13	
2025-11-13T00:00	4620	580	-7.3	-30.5	243	13	
2025-11-13T00:00	4640	578	-7.5	-30.8	243	14	
2025-11-13T00:00	4660	577	-7.6	-30.9	244	14	
2025-11-13T00:00	4680	575	-7.8	-30.9	245	15	
2025-11-13T00:00	4700	574	-8.0	-31.0	245	15	
2025-11-13T00:00	4720	572	-8.1	-31.0	245	15	
2025-11-13T00:00	4740	571	-8.3	-31.0	244	16	
2025-11-13T00:00	4760	569	-8.5	-31.0	243	15	
2025-11-13T00:00	4780	568	-8.6	-31.1	241	15	
2025-11-13T00:00	4800	566	-8.7	-31.1	240	15	
2025-11-13T00:00	4820	565	-8.5	-32.9	239	15	
2025-11-13T00:00	4840	564	-8.6	-33.5	238	14	
2025-11-13T00:00	4860	562	-8.8	-33.5	239	14	
2025-11-13T00:00	4880	561	-9.0	-33.4	239	13	
2025-11-13T00:00	4900	559	-9.2	-33.3	240	13	
2025-11-13T00:00	4920	558	-9.3	-33.8	240	13	
2025-11-13T00:00	4940	556	-9.5	-34.0	240	13	
2025-11-13T00:00	4960	555	-9.6	-33.9	240	13	
2025-11-13T00:00	4980	553	-9.7	-34.4	240	13	
2025-11-13T00:00	5000	552	-9.9	-34.8	239	13	
2025-11-13T00:00	5020	551	-9.9	-36.0	238	13	
2025-11-13T00:00	5040	549	-9.9	-37.2	237	13	
2025-11-13T00:00	5060	548	-9.9	-38.4	235	14	
2025-11-13T00:00	5080	546	-10.0	-38.4	234	14	
2025-11-13T00:00	5100	545	-10.1	-38.4	233	14	
2025-11-13T00:00	5120	544	-10.3	-38.3	231	14	
2025-11-13T00:00	5140	542	-10.3	-38.9	230	14	
2025-11-13T00:00	5160	541	-10.4	-39.4	230	14	
2025-11-13T00:00	5180	539	-10.5	-39.8	230	13	
2025-11-13T00:00	5200	538	-10.6	-40.3	232	13	
2025-11-13T00:00	5220	536	-10.8	-41.0	234	14	
2025-11-13T00:00	5240	535	-10.9	-42.0	235	14	
2025-11-13T00:00	5260	534	-10.9	-42.8	236	14	
2025-11-13T00:00	5280	532	-10.9	-42.6	236	14	
2025-11-13T00:00	5300	531	-11.0	-42.7	237	14	
2025-11-13T00:00	5320	530	-11.0	-43.0	237	14	
2025-11-13T00:00	5340	528	-11.1	-43.1	236	14	
2025-11-13T00:00	5360	527	-11.2	-43.4	236	14	
2025-11-13T00:00	5380	526	-11.3	-43.8	235	15	
2025-11-13T00:00	5400	524	-11.4	-43.8	235	15	
2025-11-13T00:00	5420	523	-11.6	-43.6	234	15	
2025-11-13T00:00	5440	521	-11.8	-43.6	234	15	
2025-11-13T00:00	5460	520	-12.0	-43.9	233	16	
2025-11-13T00:00	5480	518	-12.1	-44.2	232	16	
2025-11-13T00:00	5500	517	-12.2	-44.1	232	16	
2025-11-13T00:00	5520	516	-12.4	-43.9	231	15	
2025-11-13T00:00	5540	515	-12.5	-43.9	230	15	
2025-11-13T00:00	5560	513	-12.7	-44.2	229	15	
2025-11-13T00:00	5580	512	-12.8	-43.7	228	14	
2025-11-13T00:00	5600	511	-13.0	-43.5	227	14	
2025-11-13T00:00	5620	509	-13.1	-43.2	227	14	
2025-11-13T00:00	5640	508	-13.3	-43.0	227	14	
2025-11-13T00:00	5660	507	-13.4	-43.1	227	14	
2025-11-13T00:00	5680	505	-13.6	-43.1	227	14	
2025-11-13T00:00	5700	504	-13.8	-43.1	227	14	
2025-11-13T00:00	5720	502	-14.0	-43.2	227	14	
2025-11-13T00:00	5740	501	-14.1	-42.7	227	14	
2025-11-13T00:00	5760	500	-14.2	-42.3	226	14	
2025-11-13T00:00	5780	498	-14.4	-41.6	226	14	
2025-11-13T00:00	5800	497	-14.6	-40.5	225	14	
2025-11-13T00:00	5820	496	-14.6	-39.5	225	14	
2025-11-13T00:00	5840	495	-14.7	-40.5	224	14	
2025-11-13T00:00	5860	493	-14.9	-42.2	224	14	
2025-11-13T00:00	5880	492	-15.0	-42.7	223	15	
2025-11-13T00:00	5900	491	-15.2	-42.6	223	15	
2025-11-13T00:00	5920	489	-15.4	-42.4	223	14	
2025-11-13T00:00	5940	488	-15.6	-42.4	223	14	
2025-11-13T00:00	5960	487	-15.8	-42.3	224	13	
2025-11-13T00:00	5980	486	-15.9	-42.4	225	13	
2025-11-13T00:00	6000	484	-16.1	-42.5	226	12	
2025-11-13T00:00	6020	483	-16.3	-41.9	226	12	
2025-11-13T00:00	6040	482	-16.4	-41.7	226	12	
2025-11-13T00:00	6060	480	-16.6	-41.6	225	12	
2025-11-13T00:00	6080	479	-16.8	-41.7	224	12	
2025-11-13T00:00	6100	478	-16.9	-43.2	223	12	
2025-11-13T00:00	6120	476	-17.1	-44.7	222	12	
2025-11-13T00:00	6140	475	-17.1	-45.2	222	11	
2025-11-13T00:00	6160	474	-17.1	-45.2	223	11	
2025-11-13T00:00	6180	473	-17.3	-45.5	223	11	
2025-11-13T00:00	6200	471	-17.5	-45.4	225	11	
2025-11-13T00:00	6220	470	-17.6	-45.1	227	11	
2025-11-13T00:00	6240	469	-17.8	-44.9	230	12	
2025-11-13T00:00	6260	468	-18.0	-44.7	232	12	
2025-11-13T00:00	6280	466	-18.2	-44.5	235	13	
2025-11-13T00:00	6300	465	-18.3	-43.9	236	13	
2025-11-13T00:00	6320	464	-18.4	-41.9	237	14	
2025-11-13T00:00	6340	463	-18.5	-41.5	237	14	
2025-11-13T00:00	6360	462	-18.7	-42.1	237	14	
2025-11-13T00:00	6380	460	-18.8	-42.0	237	14	
2025-11-13T00:00	6400	459	-19.0	-42.3	237	15	
2025-11-13T00:00	6420	458	-19.1	-43.6	236	15	
2025-11-13T00:00	6440	457	-19.1	-44.8	236	15	
2025-11-13T00:00	6460	455	-19.2	-45.1	235	16	
2025-11-13T00:00	6480	454	-19.3	-45.8	235	16	
2025-11-13T00:00	6500	453	-19.5	-46.7	234	16	
2025-11-13T00:00	6520	452	-19.6	-46.8	234	16	
2025-11-13T00:00	6540	451	-19.8	-46.4	233	16	
2025-11-13T00:00	6560	449	-20.0	-45.8	232	16	
2025-11-13T00:00	6580	448	-20.2	-45.8	232	16	
2025-11-13T00:00	6600	447	-20.4	-45.8	231	16	
2025-11-13T00:00	6620	446	-20.5	-45.5	230	15	
2025-11-13T00:00	6640	444	-20.8	-45.5	229	15	
2025-11-13T00:00	6660	443	-20.9	-45.5	229	15	
2025-11-13T00:00	6680	442	-21.1	-45.5	228	15	
2025-11-13T00:00	6700	441	-21.3	-45.5	228	15	
2025-11-13T00:00	6720	440	-21.5	-45.3	228	15	
2025-11-13T00:00	6740	438	-21.6	-45.3	228	15	
2025-11-13T00:00	6760	437	-21.8	-45.3	229	15	
2025-11-13T00:00	6780	436	-21.9	-45.5	230	15	
2025-11-13T00:00	6800	435	-22.0	-45.9	230	15	
2025-11-13T00:00	6820	434	-22.2	-46.2	231	15	
2025-11-13T00:00	6840	433	-22.3	-46.1	231	15	
2025-11-13T00:00	6860	431	-22.5	-46.1	231	15	
2025-11-13T00:00	6880	430	-22.7	-46.4	231	15	
2025-11-13T00:00	6900	429	-22.8	-46.5	231	16	
2025-11-13T00:00	6920	428	-23.0	-46.5	230	16	
2025-11-13T00:00	6940	427	-23.1	-46.7	229	16	
2025-11-13T00:00	6960	426	-23.3	-46.8	229	16	
2025-11-13T00:00	6980	424	-23.5	-47.0	228	16	
2025-11-13T00:00	7000	423	-23.6	-47.1	228	16	
2025-11-13T00:00	7020	422	-23.8	-47.2	228	17	
2025-11-13T00:00	7040	421	-23.9	-47.4	228	17	
2025-11-13T00:00	7060	420	-24.0	-47.4	228	17	
2025-11-13T00:00	7080	418	-24.2	-47.2	228	17	
2025-11-13T00:00	7100	417	-24.4	-47.1	228	16	
2025-11-13T00:00	7120	416	-24.5	-46.8	228	16	
2025-11-13T00:00	7140	415	-24.7	-46.5	227	15	
2025-11-13T00:00	7160	414	-24.8	-46.4	227	15	
2025-11-13T00:00	7180	413	-25.0	-46.5	226	14	
2025-11-13T00:00	7200	412	-25.2	-46.6	224	14	
2025-11-13T00:00	7220	410	-25.3	-46.4	223	14	
2025-11-13T00:00	7240	409	-25.5	-46.7	223	14	
2025-11-13T00:00	7260	408	-25.6	-47.0	223	14	
2025-11-13T00:00	7280	407	-25.7	-47.0	223	14	
2025-11-13T00:00	7300	406	-25.9	-46.6	223	14	
2025-11-13T00:00	7320	405	-26.1	-46.8	224	14	
2025-11-13T00:00	7340	404	-26.3	-46.9	224	14	
2025-11-13T00:00	7360	403	-26.5	-47.0	225	14	
2025-11-13T00:00	7380	402	-26.6	-47.9	225	14	
2025-11-13T00:00	7400	400	-26.8	-48.1	224	15	
2025-11-13T00:00	7420	399	-27.0	-48.0	224	15	
2025-11-13T00:00	7440	398	-27.1	-47.9	224	15	
2025-11-13T00:00	7460	397	-27.3	-48.1	223	15	
2025-11-13T00:00	7480	396	-27.5	-48.1	223	15	
2025-11-13T00:00	7500	395	-27.7	-48.4	223	15	
2025-11-13T00:00	7520	394	-27.8	-49.2	223	15	
2025-11-13T00:00	7540	393	-28.0	-49.3	224	15	
2025-11-13T00:00	7560	392	-28.2	-49.2	224	15	
2025-11-13T00:00	7580	391	-28.4	-49.5	224	15	
2025-11-13T00:00	7600	389	-28.6	-49.8	225	15	
2025-11-13T00:00	7620	388	-28.8	-49.8	226	15	
2025-11-13T00:00	7640	387	-28.9	-50.0	227	15	
2025-11-13T00:00	7660	386	-29.1	-50.1	229	15	
2025-11-13T00:00	7680	385	-29.3	-50.1	230	15	
2025-11-13T00:00	7700	384	-29.4	-50.4	231	15	
2025-11-13T00:00	7720	383	-29.6	-50.5	232	15	
2025-11-13T00:00	7740	382	-29.8	-50.5	232	15	
2025-11-13T00:00	7760	381	-30.0	-50.4	232	15	
2025-11-13T00:00	7780	380	-30.2	-50.6	231	15	
2025-11-13T00:00	7800	379	-30.3	-51.4	231	15	
2025-11-13T00:00	7820	378	-30.5	-51.2	231	15	
2025-11-13T00:00	7840	377	-30.7	-51.3	231	15	
2025-11-13T00:00	7860	376	-30.8	-51.5	232	15	
2025-11-13T00:00	7880	374	-31.0	-51.6	234	15	
2025-11-13T00:00	7900	373	-31.2	-51.4	236	16	
2025-11-13T00:00	7920	372	-31.4	-51.1	238	16	
2025-11-13T00:00	7940	371	-31.5	-50.7	238	16	
2025-11-13T00:00	7960	370	-31.7	-50.2	238	16	
2025-11-13T00:00	7980	369	-31.8	-50.6	238	15	
2025-11-13T00:00	8000	368	-32.0	-51.0	237	15	
2025-11-13T00:00	8020	367	-32.2	-51.2	236	15	
2025-11-13T00:00	8040	366	-32.3	-51.0	236	15	
2025-11-13T00:00	8060	365	-32.5	-51.1	236	15	
2025-11-13T00:00	8080	364	-32.6	-52.0	236	15	
2025-11-13T00:00	8100	363	-32.8	-52.3	236	16	
2025-11-13T00:00	8120	362	-32.9	-52.4	237	16	
2025-11-13T00:00	8140	361	-33.1	-52.2	237	16	
2025-11-13T00:00	8160	360	-33.2	-52.7	237	16	
2025-11-13T00:00	8180	359	-33.4	-53.1	237	16	
2025-11-13T00:00	8200	358	-33.5	-53.6	236	16	
2025-11-13T00:00	8220	357	-33.6	-55.2	236	16	
2025-11-13T00:00	8240	356	-33.7	-54.5	236	16	
2025-11-13T00:00	8260	355	-33.8	-53.0	236	16	
2025-11-13T00:00	8280	354	-33.9	-53.2	236	16	
2025-11-13T00:00	8300	353	-34.1	-53.2	237	16	
2025-11-13T00:00	8320	352	-34.2	-53.2	237	17	
2025-11-13T00:00	8340	351	-34.3	-53.3	237	17	
2025-11-13T00:00	8360	350	-34.5	-53.4	237	17	
2025-11-13T00:00	8380	349	-34.7	-53.3	237	17	
2025-11-13T00:00	8400	348	-34.8	-53.4	237	17	
2025-11-13T00:00	8420	347	-35.0	-53.5	237	17	
2025-11-13T00:00	8440	346	-35.2	-53.3	237	17	
2025-11-13T00:00	8460	345	-35.4	-53.3	238	17	
2025-11-13T00:00	8480	344	-35.6	-53.4	238	17	
2025-11-13T00:00	8500	343	-35.8	-53.4	239	17	
2025-11-13T00:00	8520	342	-35.9	-53.6	240	17	
2025-11-13T00:00	8540	341	-36.1	-53.8	240	17	
2025-11-13T00:00	8560	340	-36.2	-54.2	240	17	
2025-11-13T00:00	8580	339	-36.3	-54.6	240	17	
2025-11-13T00:00	8600	338	-36.5	-54.4	241	16	
2025-11-13T00:00	8620	337	-36.7	-54.2	241	16	
2025-11-13T00:00	8640	336	-36.8	-54.0	241	17	
2025-11-13T00:00	8660	335	-37.0	-53.9	242	17	
2025-11-13T00:00	8680	334	-37.2	-54.0	242	17	
2025-11-13T00:00	8700	333	-37.4	-54.3	243	17	
2025-11-13T00:00	8720	332	-37.6	-54.5	243	17	
2025-11-13T00:00	8740	331	-37.8	-54.4	244	17	
2025-11-13T00:00	8760	330	-38.0	-54.5	244	17	
2025-11-13T00:00	8780	329	-38.1	-55.0	244	17	
2025-11-13T00:00	8800	328	-38.3	-55.0	244	17	
2025-11-13T00:00	8820	327	-38.5	-55.1	244	18	
2025-11-13T00:00	8840	326	-38.7	-55.4	244	18	
2025-11-13T00:00	8860	325	-38.8	-55.3	244	17	
2025-11-13T00:00	8880	324	-39.0	-55.0	244	17	
2025-11-13T00:00	8900	324	-39.2	-54.8	244	17	
2025-11-13T00:00	8920	323	-39.3	-55.1	243	17	
2025-11-13T00:00	8940	322	-39.4	-55.4	243	17	
2025-11-13T00:00	8960	321	-39.5	-55.3	243	17	
2025-11-13T00:00	8980	320	-39.7	-55.2	243	17	
2025-11-13T00:00	9000	319	-39.8	-55.3	243	17	
2025-11-13T00:00	9020	318	-40.0	-55.5	242	16	
2025-11-13T00:00	9040	317	-40.2	-55.5	242	16	
2025-11-13T00:00	9060	316	-40.3	-55.5	242	16	
2025-11-13T00:00	9080	315	-40.5	-55.7	242	16	
2025-11-13T00:00	9100	314	-40.7	-55.7	243	15	
2025-11-13T00:00	9120	313	-40.8	-55.6	243	15	
2025-11-13T00:00	9140	312	-41.0	-55.6	244	15	
2025-11-13T00:00	9160	311	-41.1	-55.8	245	15	
2025-11-13T00:00	9180	311	-41.3	-55.9	246	15	
2025-11-13T00:00	9200	310	-41.5	-55.8	246	15	
2025-11-13T00:00	9220	309	-41.7	-55.7	246	15	
2025-11-13T00:00	9240	308	-41.8	-55.8	245	15	
2025-11-13T00:00	9260	307	-42.0	-55.7	245	15	
2025-11-13T00:00	9280	306	-42.2	-55.8	245	15	
2025-11-13T00:00	9300	305	-42.4	-55.8	245	15	
2025-11-13T00:00	9320	304	-42.6	-55.9	245	15	
2025-11-13T00:00	9340	303	-42.8	-56.0	245	15	
2025-11-13T00:00	9360	302	-42.9	-56.3	245	15	
2025-11-13T00:00	9380	301	-43.1	-56.4	245	15	
2025-11-13T00:00	9400	300	-43.3	-56.4	245	15	
2025-11-13T00:00	9420	300	-43.4	-56.3	245	15	
2025-11-13T00:00	9440	299	-43.6	-56.3	244	15	
2025-11-13T00:00	9460	298	-43.8	-56.2	244	15	
2025-11-13T00:00	9480	297	-43.9	-56.2	244	15	
2025-11-13T00:00	9500	296	-44.1	-56.2	244	15	
2025-11-13T00:00	9520	295	-44.2	-56.3	244	15	
2025-11-13T00:00	9540	294	-44.4	-56.4	244	15	
2025-11-13T00:00	9560	293	-44.6	-56.8	244	15	
2025-11-13T00:00	9580	293	-44.7	-57.0	244	15	
2025-11-13T00:00	9600	292	-44.9	-56.9	244	15	
2025-11-13T00:00	9620	291	-45.1	-56.8	244	15	
2025-11-13T00:00	9640	290	-45.3	-56.7	244	15	
2025-11-13T00:00	9660	289	-45.5	-56.8	243	15	
2025-11-13T00:00	9680	288	-45.6	-57.2	243	15	
2025-11-13T00:00	9700	287	-45.7	-57.5	243	15	
2025-11-13T00:00	9720	286	-45.9	-57.5	242	14	
2025-11-13T00:00	9740	286	-46.0	-57.4	242	14	
2025-11-13T00:00	9760	285	-46.1	-57.3	242	14	
2025-11-13T00:00	9780	284	-46.3	-57.2	243	14	
2025-11-13T00:00	9800	283	-46.5	-57.4	243	14	
2025-11-13T00:00	9820	282	-46.6	-57.5	244	14	
2025-11-13T00:00	9840	281	-46.8	-57.9	244	14	
2025-11-13T00:00	9860	280	-46.9	-58.1	246	14	
2025-11-13T00:00	9880	280	-47.1	-57.8	246	14	
2025-11-13T00:00	9900	279	-47.2	-57.7	247	14	
2025-11-13T00:00	9920	278	-47.4	-58.0	247	14	
2025-11-13T00:00	9940	277	-47.5	-58.1	248	14	
2025-11-13T00:00	9960	276	-47.6	-58.3	248	14	
2025-11-13T00:00	9980	276	-47.8	-58.1	248	14	
2025-11-13T00:00	10000	275	-48.0	-57.6	247	13	
2025-11-13T00:00	10018	274	-48.2	-57.5	248	13	
2025-11-13T00:00	10050	273	-48.5	-57.7	248	13	
2025-11-13T00:00	10100	270	-49.0	-58.0	248	14	
2025-11-13T00:00	10150	268	-49.4	-57.1	248	14	
2025-11-13T00:00	10200	266	-49.7	-56.2	249	14	
2025-11-13T00:00	10250	264	-50.0	-56.8	251	14	
2025-11-13T00:00	10300	262	-50.4	-57.0	251	14	
2025-11-13T00:00	10350	260	-50.7	-58.0	251	14	
2025-11-13T00:00	10400	258	-50.8	-58.6	252	15	
2025-11-13T00:00	10450	256	-51.3	-58.2	253	15	
2025-11-13T00:00	10500	254	-51.5	-58.4	255	14	
2025-11-13T00:00	10550	252	-52.0	-58.2	258	14	
2025-11-13T00:00	10600	251	-52.3	-58.8	260	14	
2025-11-13T00:00	10650	249	-52.7	-59.4	260	14	
2025-11-13T00:00	10700	247	-53.0	-59.3	260	14	
2025-11-13T00:00	10750	245	-53.3	-58.5	257	14	
2025-11-13T00:00	10800	243	-53.7	-58.3	255	14	
2025-11-13T00:00	10850	241	-54.0	-58.3	253	14	
2025-11-13T00:00	10900	239	-54.5	-58.7	253	14	
2025-11-13T00:00	10950	237	-55.0	-59.2	254	15	
2025-11-13T00:00	11000	235	-55.4	-59.6	255	14	
2025-11-13T00:00	11050	234	-55.8	-60.2	254	14	
2025-11-13T00:00	11100	232	-56.2	-60.7	251	14	
2025-11-13T00:00	11150	230	-56.5	-60.8	250	14	
2025-11-13T00:00	11200	228	-56.9	-61.2	251	14	
2025-11-13T00:00	11250	226	-57.3	-61.5	252	14	
2025-11-13T00:00	11300	225	-57.7	-61.9	252	14	
2025-11-13T00:00	11350	223	-58.2	-62.3	252	14	
2025-11-13T00:00	11400	221	-58.6	-62.8	251	14	
2025-11-13T00:00	11450	219	-59.0	-63.2	251	15	
2025-11-13T00:00	11500	218	-59.4	-63.7	252	15	
2025-11-13T00:00	11550	216	-59.8	-64.1	253	15	
2025-11-13T00:00	11600	214	-60.3	-64.5	253	14	
2025-11-13T00:00	11650	212	-60.7	-64.9	253	14	
2025-11-13T00:00	11700	211	-60.9	-65.2	252	13	
2025-11-13T00:00	11750	209	-61.3	-65.5	252	13	
2025-11-13T00:00	11800	207	-61.7	-66.0	251	12	
2025-11-13T00:00	11850	206	-62.1	-66.4	250	13	
2025-11-13T00:00	11900	204	-62.6	-66.8	247	14	
2025-11-13T00:00	11950	202	-62.5	-66.9	245	14	
2025-11-13T00:00	12000	201	-62.6	-66.9	242	14	
2025-11-13T00:00	12050	199	-62.9	-67.5	241	14	
2025-11-13T00:00	12100	197	-63.3	-67.9	242	15	
2025-11-13T00:00	12150	196	-63.8	-68.1	243	15	
2025-11-13T00:00	12200	194	-64.2	-68.4	243	15	
2025-11-13T00:00	12250	193	-64.7	-68.7	243	14	
2025-11-13T00:00	12300	191	-65.1	-68.9	241	14	
2025-11-13T00:00	12350	189	-65.4	-69.1	239	14	
2025-11-13T00:00	12400	188	-65.8	-69.5	238	15	
2025-11-13T00:00	12450	186	-66.1	-70.2	239	15	
2025-11-13T00:00	12500	185	-66.6	-71.0	239	15	
2025-11-13T00:00	12550	183	-67.0	-72.2	238	15	
2025-11-13T00:00	12600	182	-67.4	-73.3	237	15	
2025-11-13T00:00	12650	180	-67.9	-73.7	236	15	
2025-11-13T00:00	12700	179	-68.3	-73.9	236	16	
2025-11-13T00:00	12750	177	-68.7	-74.0	236	16	
2025-11-13T00:00	12800	176	-69.2	-74.2	236	16	
2025-11-13T00:00	12850	174	-69.6	-74.3	235	16	
2025-11-13T00:00	12900	173	-70.0	-74.9	233	15	
2025-11-13T00:00	12950	171	-70.5	-75.6	233	15	
2025-11-13T00:00	13000	170	-70.9	-76.2	233	14	
2025-11-13T00:00	13050	169	-71.3	-76.8	233	14	
2025-11-13T00:00	13100	167	-71.7	-77.1	234	14	
2025-11-13T00:00	13150	166	-72.2	-77.4	236	14	
2025-11-13T00:00	13200	164	-72.6	-77.6	240	14	
2025-11-13T00:00	13250	163	-73.0	-77.8	246	14	
2025-11-13T00:00	13300	162	-73.4	-77.9	252	14	
2025-11-13T00:00	13350	160	-73.7	-77.8	256	14	
2025-11-13T00:00	13400	159	-73.5	-77.6	255	14	
2025-11-13T00:00	13450	157	-72.9	-77.1	254	13	
2025-11-13T00:00	13500	156	-72.3	-76.8	257	12	
2025-11-13T00:00	13550	155	-71.4	-76.9	260	12	
2025-11-13T00:00	13600	154	-68.1	-76.5	261	13	
2025-11-13T00:00	13650	152	-66.4	-77.9	259	13	
2025-11-13T00:00	13700	151	-66.1	-79.8	257	13	
2025-11-13T00:00	13750	150	-65.2	-80.8	258	14	
2025-11-13T00:00	13800	149	-65.0	-81.4	260	14	
2025-11-13T00:00	13850	147	-64.5	-81.3	261	14	
2025-11-13T00:00	13900	146	-64.8	-81.4	261	14	
2025-11-13T00:00	13950	145	-65.3	-81.2	260	13	
2025-11-13T00:00	14000	144	-65.7	-80.9	258	13	
2025-11-13T00:00	14050	143	-66.2	-80.7	256	13	
2025-11-13T00:00	14100	141	-66.6	-80.6	254	13	
2025-11-13T00:00	14150	140	-67.0	-80.6	254	14	
2025-11-13T00:00	14200	139	-67.2	-80.7	255	15	
2025-11-13T00:00	14250	138	-67.3	-81.1	256	15	
2025-11-13T00:00	14300	137	-66.3	-81.3	257	16	
2025-11-13T00:00	14350	136	-66.0	-81.8	258	16	
2025-11-13T00:00	14400	135	-66.1	-82.1	260	15	
2025-11-13T00:00	14450	133	-66.0	-82.2	263	14	
2025-11-13T00:00	14500	132	-65.9	-82.3	266	13	
2025-11-13T00:00	14550	131	-66.3	-82.5	268	13	
2025-11-13T00:00	14600	130	-66.6	-82.6	269	14	
2025-11-13T00:00	14650	129	-66.5	-82.6	271	15	
2025-11-13T00:00	14700	128	-66.7	-82.8	275	16	
2025-11-13T00:00	14750	127	-66.8	-83.0	279	17	
2025-11-13T00:00	14800	126	-66.8	-83.2	281	17	
2025-11-13T00:00	14850	125	-66.6	-83.5	284	16	
2025-11-13T00:00	14900	124	-66.2	-83.7	287	15	
2025-11-13T00:00	14950	123	-65.8	-83.8	289	15	
2025-11-13T00:00	15000	122	-65.8	-83.9	288	15	
2025-11-13T00:00	15050	121	-65.9	-84.0	286	15	
2025-11-13T00:00	15100	120	-66.0	-84.1	282	15	
2025-11-13T00:00	15150	119	-66.2	-84.2	279	16	
2025-11-13T00:00	15200	118	-66.2	-84.3	274	15	
2025-11-13T00:00	15250	117	-66.2	-84.4	270	16	
2025-11-13T00:00	15300	116	-66.1	-84.5	269	17	
2025-11-13T00:00	15350	115	-66.1	-84.5	270	18	
2025-11-13T00:00	15400	114	-66.3	-84.6	269	19	
2025-11-13T00:00	15450	113	-66.4	-84.8	266	21	
2025-11-13T00:00	15500	112	-66.3	-84.9	264	22	
2025-11-13T00:00	15550	111	-65.6	-84.7	265	22	
2025-11-13T00:00	15600	110	-65.8	-84.9	268	23	
2025-11-13T00:00	15650	110	-66.0	-85.0	270	23	
2025-11-13T00:00	15700	109	-66.1	-85.0	272	23	
2025-11-13T00:00	15750	108	-66.2	-85.1	276	22	
2025-11-13T00:00	15800	107	-66.2	-85.1	279	22	
2025-11-13T00:00	15850	106	-66.1	-85.1	282	21	
2025-11-13T00:00	15900	105	-66.2	-85.1	284	20	
2025-11-13T00:00	15950	104	-66.4	-85.2	287	19	
2025-11-13T00:00	16000	103	-66.2	-85.0	289	17	
2025-11-13T00:00	16050	103	-66.3	-85.1	293	16	
2025-11-13T00:00	16100	102	-66.2	-85.2	294	14	
2025-11-13T00:00	16150	101	-65.8	-85.0	292	13	
2025-11-13T00:00	16200	100	-66.0	-85.0	287	13	
2025-11-13T00:00	16250	99	-66.3	-85.1	283	13	
2025-11-13T00:00	16300	98	-66.7	-85.2	281	13	
2025-11-13T00:00	16350	98	-66.9	-85.2	281	14	
2025-11-13T00:00	16400	97	-66.9	-85.4	281	15	
2025-11-13T00:00	16450	96	-66.6	-85.5	283	16	
2025-11-13T00:00	16500	95	-66.1	-85.7	285	15	
2025-11-13T00:00	16550	94	-64.9	-85.4	283	13	
2025-11-13T00:00	16600	94	-64.7	-85.5	278	13	
2025-11-13T00:00	16650	93	-65.0	-85.9	278	13	
2025-11-13T00:00	16700	92	-63.9	-85.5	280	13	
2025-11-13T00:00	16750	91	-63.5	-85.5	283	12	
2025-11-13T00:00	16800	91	-63.6	-85.6	287	12	
2025-11-13T00:00	16850	90	-63.8	-85.6	293	11	
2025-11-13T00:00	16900	89	-63.9	-85.6	298	11	
2025-11-13T00:00	16950	88	-64.0	-85.6	300	11	
2025-11-13T00:00	17000	88	-63.9	-85.6	295	11	
2025-11-13T00:00	17050	87	-64.0	-85.7	286	10	
2025-11-13T00:00	17100	86	-64.0	-85.8	275	11	
2025-11-13T00:00	17150	86	-64.1	-85.9	267	12	
2025-11-13T00:00	17200	85	-63.9	-85.9	263	12	
2025-11-13T00:00	17250	84	-63.9	-86.1	259	13	
2025-11-13T00:00	17300	83	-63.6	-86.0	257	13	
2025-11-13T00:00	17350	83	-63.6	-86.1	259	14	
2025-11-13T00:00	17400	82	-63.8	-86.1	262	15	
2025-11-13T00:00	17450	81	-64.0	-86.1	266	15	
2025-11-13T00:00	17500	81	-64.3	-86.1	269	15	
2025-11-13T00:00	17550	80	-64.7	-86.2	272	15	
2025-11-13T00:00	17600	80	-65.1	-86.3	274	15	
2025-11-13T00:00	17650	79	-65.2	-86.4	273	14	
2025-11-13T00:00	17700	78	-65.4	-86.4	271	13	
2025-11-13T00:00	17750	78	-65.7	-86.6	271	13	
2025-11-13T00:00	17800	77	-66.0	-86.7	273	12	
2025-11-13T00:00	17850	76	-66.2	-86.8	277	12	
2025-11-13T00:00	17900	76	-66.0	-86.9	280	12	
2025-11-13T00:00	17950	75	-65.8	-86.8	281	12	
2025-11-13T00:00	18000	74	-66.0	-86.9	282	12	
2025-11-13T00:00	18050	74	-66.1	-86.8	285	13	
2025-11-13T00:00	18100	73	-66.4	-86.9	288	13	
2025-11-13T00:00	18150	73	-66.6	-86.9	292	14	
2025-11-13T00:00	18200	72	-66.8	-87.0	295	14	
2025-11-13T00:00	18250	71	-67.1	-87.1	298	13	
2025-11-13T00:00	18300	71	-67.4	-87.2	301	13	
2025-11-13T00:00	18350	70	-67.5	-87.3	303	12	
2025-11-13T00:00	18400	70	-67.6	-87.4	304	11	
2025-11-13T00:00	18450	69	-67.8	-87.5	304	10	
2025-11-13T00:00	18500	68	-67.7	-87.5	302	9	
2025-11-13T00:00	18550	68	-68.0	-87.6	298	8	
2025-11-13T00:00	18600	67	-68.3	-87.6	293	8	
2025-11-13T00:00	18650	67	-68.6	-87.6	288	8	
2025-11-13T00:00	18700	66	-68.9	-87.9	278	9	
2025-11-13T00:00	18750	66	-68.9	-88.2	270	11	
2025-11-13T00:00	18800	65	-67.6	-88.0	270	12	
2025-11-13T00:00	18850	65	-66.0	-87.5	277	13	
2025-11-13T00:00	18900	64	-66.1	-87.5	284	13	
2025-11-13T00:00	18950	64	-66.0	-87.4	287	11	
2025-11-13T00:00	19000	63	-66.0	-87.3	286	10	
2025-11-13T00:00	19050	62	-66.4	-87.3	285	9	
2025-11-13T00:00	19100	62	-66.6	-87.3	288	9	
2025-11-13T00:00	19150	61	-67.0	-87.5	292	9	
2025-11-13T00:00	19200	61	-67.2	-87.8	294	9	
2025-11-13T00:00	19250	61	-66.7	-87.6	290	8	
2025-11-13T00:00	19300	60	-67.1	-87.9	282	8	
2025-11-13T00:00	19350	59	-67.4	-88.1	271	8	
2025-11-13T00:00	19400	59	-67.4	-88.2	264	9	
2025-11-13T00:00	19450	58	-67.0	-88.1	262	11	
2025-11-13T00:00	19500	58	-66.7	-88.2	265	11	
2025-11-13T00:00	19550	58	-66.6	-88.2	269	11	
2025-11-13T00:00	19600	57	-66.4	-88.0	273	10	
2025-11-13T00:00	19650	57	-66.6	-88.2	274	11	
2025-11-13T00:00	19700	56	-66.4	-88.2	275	12	
2025-11-13T00:00	19750	56	-65.9	-88.1	277	12	
2025-11-13T00:00	19800	55	-65.7	-88.4	279	13	
2025-11-13T00:00	19850	55	-65.0	-88.2	279	14	
2025-11-13T00:00	19900	54	-64.4	-88.2	279	15	
2025-11-13T00:00	19950	54	-64.0	-88.1	278	16	
2025-11-13T00:00	20000	53	-63.0	-87.6	276	18	
2025-11-13T00:00	20050	53	-62.9		276	18	
2025-11-13T00:00	20100	53	-62.7		279	16	
2025-11-13T00:00	20150	52	-62.9		282	14	
2025-11-13T00:00	20200	52	-63.0		286	12	
2025-11-13T00:00	20250	51	-62.8		288	10	
2025-11-13T00:00	20300	51	-62.7		288	9	
2025-11-13T00:00	20350	50	-62.9		290	8	
2025-11-13T00:00	20400	50	-63.2		291	8	
2025-11-13T00:00	20450	50	-63.4		289	8	
2025-11-13T00:00	20500	49	-63.5		284	8	
2025-11-13T00:00	20550	49	-63.7		278	8	
2025-11-13T00:00	20600	48	-64.0		272	8	
2025-11-13T00:00	20650	48	-64.3		268	9	
2025-11-13T00:00	20700	48	-64.4		269	9	
2025-11-13T00:00	20750	47	-64.2		271	9	
2025-11-13T00:00	20800	47	-64.3		272	10	
2025-11-13T00:00	20850	47	-64.2		270	11	
2025-11-13T00:00	20900	46	-64.1		267	12	
2025-11-13T00:00	20950	46	-64.4		265	13	
2025-11-13T00:00	21000	45	-64.6		265	14	
2025-11-13T00:00	21050	45	-64.7		267	14	
2025-11-13T00:00	21100	45	-64.8		273	14	
2025-11-13T00:00	21150	44	-64.7		278	15	
2025-11-13T00:00	21200	44	-64.9		279	15	
2025-11-13T00:00	21250	44	-65.0		277	16	
2025-11-13T00:00	21300	43	-65.2		277	16	
2025-11-13T00:00	21350	43	-64.9		280	16	
2025-11-13T00:00	21400	43	-65.1		283	16	
2025-11-13T00:00	21450	42	-65.4		287	16	
2025-11-13T00:00	21500	42	-65.7		291	15	
2025-11-13T00:00	21550	41	-65.9		294	14	
2025-11-13T00:00	21600	41	-65.5		294	14	
2025-11-13T00:00	21650	41	-65.0		290	15	
2025-11-13T00:00	21700	40	-64.5		288	16	
2025-11-13T00:00	21750	40	-64.0		291	17	
2025-11-13T00:00	21800	40	-63.9		294	18	
2025-11-13T00:00	21850	39	-63.5		296	18	
2025-11-13T00:00	21900	39	-63.4		295	19	
2025-11-13T00:00	21950	39	-63.6		295	19	
2025-11-13T00:00	22000	39	-63.9		297	19	
2025-11-13T00:00	22050	38	-63.9		299	19	
2025-11-13T00:00	22100	38	-64.0		300	19	
2025-11-13T00:00	22150	38	-63.9		300	18	
2025-11-13T00:00	22200	37	-64.3		301	17	
2025-11-13T00:00	22250	37	-64.7		302	16	
2025-11-13T00:00	22300	37	-65.1		302	15	
2025-11-13T00:00	22350	36	-65.3		301	14	
2025-11-13T00:00	22400	36	-65.2		300	14	
2025-11-13T00:00	22450	36	-65.2		298	15	
2025-11-13T00:00	22500	35	-65.2		297	15	
2025-11-13T00:00	22550	35	-65.2		295	14	
2025-11-13T00:00	22600	35	-65.3		292	13	
2025-11-13T00:00	22650	35	-65.3		288	13	
2025-11-13T00:00	22700	34	-65.5		285	14	
2025-11-13T00:00	22750	34	-65.2		285	16	
2025-11-13T00:00	22800	34	-65.0		288	16	
2025-11-13T00:00	22850	34	-64.7		292	15	
2025-11-13T00:00	22900	33	-64.6		295	14	
2025-11-13T00:00	22950	33	-64.8		294	13	
2025-11-13T00:00	23000	33	-64.8		290	12	
2025-11-13T00:00	23050	32	-64.7		285	12	
2025-11-13T00:00	23100	32	-64.7		282	11	
2025-11-13T00:00	23150	32	-64.6		281	11	
2025-11-13T00:00	23200	32	-64.8		279	11	
2025-11-13T00:00	23250	31	-64.6		278	13	
2025-11-13T00:00	23300	31	-64.1		279	14	
2025-11-13T00:00	23350	31	-64.1		281	15	
2025-11-13T00:00	23400	31	-64.1		282	16	
2025-11-13T00:00	23450	30	-63.9		282	15	
2025-11-13T00:00	23500	30	-64.2		282	15	
2025-11-13T00:00	23550	30	-64.5		281	15	
2025-11-13T00:00	23600	30	-64.7		281	14	
2025-11-13T00:00	23650	29	-64.6		283	15	
2025-11-13T00:00	23700	29	-64.5		287	15	
2025-11-13T00:00	23750	29	-64.3		291	16	
2025-11-13T00:00	23800	29	-64.2		293	17	
2025-11-13T00:00	23850	28	-64.1		295	18	
2025-11-13T00:00	23900	28	-63.8		296	18	
2025-11-13T00:00	23950	28	-64.0		295	17	
2025-11-13T00:00	24000	28	-64.0		290	17	
2025-11-13T00:00	24050	28	-64.0		286	18	
2025-11-13T00:00	24100	27	-64.0		284	19	
2025-11-13T00:00	24150	27	-63.9		284	20	
2025-11-13T00:00	24200	27	-63.9		286	21	
2025-11-13T00:00	24250	27	-63.8		287	21	
2025-11-13T00:00	24300	26	-63.6		290	21	
2025-11-13T00:00	24350	26	-64.0		291	20	
2025-11-13T00:00	24400	26	-64.1		292	20	
2025-11-13T00:00	24450	26	-63.7		293	21	
2025-11-13T00:00	24500	26	-63.3		294	20	
2025-11-13T00:00	24550	25	-63.1		296	19	
2025-11-13T00:00	24600	25	-63.1		297	18	
2025-11-13T00:00	24650	25	-63.0		299	16	
2025-11-13T00:00	24700	25	-63.3		298	15	
2025-11-13T00:00	24750	25	-62.9		293	15	
2025-11-13T00:00	24800	24	-62.6		286	15	
2025-11-13T00:00	24850	24	-62.5		283	15	
2025-11-13T00:00	24900	24	-62.1		282	16	
2025-11-13T00:00	24950	24	-62.0		280	18	
2025-11-13T00:00	25000	24	-61.6		279	19	
2025-11-13T00:00	25050	23	-61.2		280	20	
2025-11-13T00:00	25100	23	-61.0		280	21	
2025-11-13T00:00	25150	23	-61.0		280	21	
2025-11-13T00:00	25200	23	-61.1		279	21	
2025-11-13T00:00	25250	23	-61.2		278	21	
2025-11-13T00:00	25300	22	-61.4		279	21	
2025-11-13T00:00	25350	22	-61.7		281	22	
2025-11-13T00:00	25400	22	-61.8		284	22	
2025-11-13T00:00	25450	22	-62.0		286	21	
2025-11-13T00:00	25500	22	-62.3		287	21	
2025-11-13T00:00	25550	22	-62.3		288	21	
2025-11-13T00:00	25600	21	-62.1		288	21	
2025-11-13T00:00	25650	21	-62.2		287	21	
2025-11-13T00:00	25700	21	-61.7		286	22	
2025-11-13T00:00	25750	21	-61.3		286	24	
2025-11-13T00:00	25800	21	-61.0		287	24	
2025-11-13T00:00	25850	21	-60.8		289	23	
2025-11-13T00:00	25900	20	-60.5		290	23	
2025-11-13T00:00	25950	20	-60.5		289	23	
2025-11-13T00:00	26000	20	-60.4		288	24	
2025-11-13T00:00	26050	20	-59.9		288	25	
2025-11-13T00:00	26100	20	-59.9		290	26	
2025-11-13T00:00	26150	20	-59.7		291	26	
2025-11-13T00:00	26200	19	-59.7		292	25	
2025-11-13T00:00	26250	19	-60.1		292	24	
2025-11-13T00:00	26300	19	-60.5		291	23	
2025-11-13T00:00	26350	19	-60.8		291	22	
2025-11-13T00:00	26400	19	-60.7		292	22	
2025-11-13T00:00	26450	19	-60.2		293	23	
2025-11-13T00:00	26500	19	-60.1		293	25	
2025-11-13T00:00	26550	18	-60.1		291	26	
2025-11-13T00:00	26600	18	-59.9		289	27	
2025-11-13T00:00	26650	18	-59.8		287	27	
2025-11-13T00:00	26700	18	-59.8		285	27	
2025-11-13T00:00	26750	18	-59.9		283	27	
2025-11-13T00:00	26800	18	-60.0		282	27	
2025-11-13T00:00	26850	18	-60.2		282	27	
2025-11-13T00:00	26900	17	-60.5		283	27	
2025-11-13T00:00	26950	17	-60.9		284	27	
2025-11-13T00:00	27000	17	-61.4		284	28	
2025-11-13T00:00	27050	17	-61.6		284	27	
2025-11-13T00:00	27100	17	-61.5		285	27	
2025-11-13T00:00	27150	17	-61.7		285	27	
2025-11-13T00:00	27200	17	-62.0		284	26	
2025-11-13T00:00	27250	16	-62.3		284	26	
2025-11-13T00:00	27300	16	-62.6		284	26	
2025-11-13T00:00	27350	16	-62.6		283	27	
2025-11-13T00:00	27400	16	-62.8		283	27	
2025-11-13T00:00	27450	16	-62.9		283	28	
2025-11-13T00:00	27500	16	-62.6		283	29	
2025-11-13T00:00	27550	16	-61.9		282	29	
2025-11-13T00:00	27600	16	-61.7		282	29	
2025-11-13T00:00	27650	15	-61.7		281	28	
2025-11-13T00:00	27700	15	-61.7		279	27	
2025-11-13T00:00	27750	15	-61.3		278	28	
2025-11-13T00:00	27800	15	-60.4		276	30	
2025-11-13T00:00	27850	15	-59.9		274	31	
2025-11-13T00:00	27900	15	-59.0		276	32	
2025-11-13T00:00	27950	15	-57.8		280	32	
2025-11-13T00:00	28000	15	-57.6		283	32	
2025-11-13T00:00	28050	14	-56.9		282	33	
2025-11-13T00:00	28100	14	-56.3		280	34	
2025-11-13T00:00	28150	14	-56.3		277	35	
2025-11-13T00:00	28200	14	-56.0		278	36	
2025-11-13T00:00	28250	14	-55.7		280	35	
2025-11-13T00:00	28300	14	-55.9		282	35	
2025-11-13T00:00	28350	14	-56.1		282	34	
2025-11-13T00:00	28400	14	-56.3		283	34	
2025-11-13T00:00	28450	14	-56.2		283	34	
2025-11-13T00:00	28500	13	-56.1		284	34	
2025-11-13T00:00	28550	13	-56.0		285	34	
2025-11-13T00:00	28600	13	-56.1		286	34	
2025-11-13T00:00	28650	13	-56.0		286	34	
2025-11-13T00:00	28700	13	-56.0		286	35	
2025-11-13T00:00	28750	13	-56.1		285	35	
2025-11-13T00:00	28800	13	-56.3		284	36	
2025-11-13T00:00	28850	13	-56.4		284	36	
2025-11-13T00:00	28900	13	-56.6		283	36	
2025-11-13T00:00	28950	13	-56.9		282	36	
2025-11-13T00:00	29000	12	-57.1		282	36	
2025-11-13T00:00	29050	12	-57.3		281	36	
2025-11-13T00:00	29100	12	-57.5		280	36	
2025-11-13T00:00	29150	12	-57.8		279	36	
2025-11-13T00:00	29200	12	-58.1		278	36	
2025-11-13T00:00	29250	12	-58.2		278	37	
2025-11-13T00:00	29300	12	-58.2		278	37	
2025-11-13T00:00	29350	12	-58.4		279	38	
2025-11-13T00:00	29400	12	-58.3		280	39	
2025-11-13T00:00	29450	12	-58.1		281	40	
2025-11-13T00:00	29500	11	-58.1		282	40	
2025-11-13T00:00	29550	11	-58.3		282	41	
2025-11-13T00:00	29600	11	-58.5		283	41	
2025-11-13T00:00	29650	11	-58.8		283	42	
2025-11-13T00:00	29700	11	-59.0		284	42	
2025-11-13T00:00	29750	11	-59.1		284	41	
2025-11-13T00:00	29800	11	-59.3		284	41	
2025-11-13T00:00	29850	11	-59.5		284	40	
2025-11-13T00:00	29900	11	-59.6		284	40	
2025-11-13T00:00	29950	11	-59.6		286	40	
2025-11-13T00:00	30000	11	-59.5		288	39	
2025-11-13T00:00	30050	11	-59.1		288	39	
2025-11-13T00:00	30100	10	-59.0		288	38	
2025-11-13T00:00	30150	10	-58.9		288	38	
2025-11-13T00:00	30200	10	-59.1		287	37	
2025-11-13T00:00	30250	10	-59.5		287	37	
2025-11-13T00:00	30300	10	-59.9		286	37	
2025-11-13T00:00	30350	10	-59.9		286	38	
2025-11-13T00:00	30400	10	-60.0		287	38	
2025-11-13T00:00	30450	10	-59.9		287	38	
2025-11-13T00:00	30500	10	-60.0		288	38	
2025-11-13T00:00	30550	10	-60.0		288	38	
2025-11-13T00:00	30600	10	-59.9		286	37	
2025-11-13T00:00	30650	10	-60.0		285	37	
2025-11-13T00:00	30700	9	-60.0		285	38	
2025-11-13T00:00	30750	9	-59.7		285	38	
2025-11-13T00:00	30800	9	-59.4		285	38	
2025-11-13T00:00	30850	9	-58.9		284	38	
2025-11-13T00:00	30900	9	-58.3		282	38	
2025-11-13T00:00	30950	9	-57.5		282	39	
2025-11-13T00:00	31000	9	-57.1		283	41	
2025-11-13T00:00	31050	9	-57.1		283	42	
2025-11-13T00:00	31100	9	-56.4		283	43	
2025-11-13T00:00	31150	9	-55.7		280	43	
2025-11-13T00:00	31200	9	-55.0		278	43	
2025-11-13T00:00	31250	9	-55.1		275	42	
2025-11-13T00:00	31300	9	-55.1		273	42	
2025-11-13T00:00	31350	9	-54.7		273	42	
2025-11-13T00:00	31400	8	-54.2		273	43	
2025-11-13T00:00	31450	8	-54.2		273	45	
2025-11-13T00:00	31500	8	-54.2		273	46	
2025-11-13T00:00	31550	8	-54.4		272	47	
2025-11-13T00:00	31600	8	-54.6		272	47	
2025-11-13T00:00	31650	8	-54.6		273	47	
2025-11-13T00:00	31700	8	-53.8		274	47	
2025-11-13T00:00	31750	8	-53.6		274	47	
2025-11-13T00:00	31800	8	-53.7		275	46	
2025-11-13T00:00	31850	8	-53.7		276	46	
2025-11-13T00:00	31900	8	-53.6		276	45	
2025-11-13T00:00	31950	8	-53.4		276	46	
2025-11-13T00:00	32000	8	-53.3		276	46	
2025-11-13T00:00	32050	8	-53.4		276	46	
2025-11-13T00:00	32100	8	-53.2		277	46	
2025-11-13T00:00	32150	8	-53.2		277	45	
2025-11-13T00:00	32200	7	-53.5		277	45	
2025-11-13T00:00	32250	7	-53.5		277	46	
2025-11-13T00:00	32300	7	-53.4		278	46	
2025-11-13T00:00	32350	7	-53.4		278	45	
2025-11-13T00:00	32400	7	-53.2		279	45	
2025-11-13T00:00	32450	7	-53.1		278	45	
2025-11-13T00:00	32500	7	-53.1		277	45	
2025-11-13T00:00	32550	7	-53.3		277	46	
2025-11-13T00:00	32600	7	-53.6		276	47	
2025-11-13T00:00	32650	7	-53.9		275	48	
2025-11-13T00:00	32700	7	-54.3		275	48	
2025-11-13T00:00	32750	7	-54.6		274	49	
2025-11-13T00:00	32800	7	-54.9		275	49	
2025-11-13T00:00	32850	7	-55.1		275	49	
2025-11-13T00:00	32900	7	-54.4		276	48	
2025-11-13T00:00	32950	7	-54.5		275	47	
2025-11-13T00:00	33000	7	-54.8		275	47	
2025-11-13T00:00	33050	7	-55.2		275	46	
2025-11-13T00:00	33100	7	-55.5		275	45	
2025-11-13T00:00	33150	6	-55.3		274	45	
2025-11-13T00:00	33200	6	-55.3		274	46	
2025-11-13T00:00	33250	6	-55.3		273	47	
2025-11-13T00:00	33300	6	-55.2		274	48	
2025-11-13T00:00	33350	6	-55.1		275	49	
2025-11-13T00:00	33400	6	-54.8		275	50	
2025-11-13T00:00	33450	6	-54.3		275	52	
2025-11-13T00:00	33500	6	-53.8		275	53	
2025-11-13T00:00	33550	6	-53.4		275	55	
2025-11-13T00:00	33600	6	-52.8		275	56	
2025-11-13T00:00	33650	6	-52.6		275	56	
2025-11-13T00:00	33700	6	-52.4		275	55	
2025-11-13T00:00	33750	6	-52.3		275	55	
2025-11-13T00:00	33800	6	-52.5		275	54	
2025-11-13T00:00	33850	6	-52.9		276	53	
2025-11-13T00:00	33900	6	-53.3		276	52	
2025-11-13T00:00	33950	6	-53.7		277	51	
2025-11-13T00:00	34000	6	-54.0		277	49	
2025-11-13T00:00	34050	6	-54.1		278	48	
2025-11-13T00:00	34100	6	-54.1		278	47	
2025-11-13T00:00	34150	6	-54.4		278	45	
2025-11-13T00:00	34200	5	-54.6		278	45	
2025-11-13T00:00	34250	5	-54.7		277	45	
2025-11-13T00:00	34300	5	-54.5		277	47	
2025-11-13T00:00	34350	5	-54.4		277	48	
2025-11-13T00:00	34400	5	-54.6		277	49	
2025-11-13T00:00	34450	5	-54.1		277	49	
2025-11-13T00:00	34500	5	-53.5		278	49	
2025-11-13T00:00	34550	5	-53.6		278	47	
2025-11-13T00:00	34600	5	-53.6		276	46	
2025-11-13T00:00	34650	5	-53.2		274	46	
2025-11-13T00:00	34700	5	-52.5		272	47	
2025-11-13T00:00	34750	5	-50.7		270	48	
2025-11-13T00:00	34800	5	-49.1		269	50	
2025-11-13T00:00	34850	5	-48.6		269	51	
2025-11-13T00:00	34900	5	-48.2		270	52	
2025-11-13T00:00	34950	5	-48.0		271	53	
2025-11-13T00:00	35000	5	-47.7		271	53	
2025-11-13T00:00	35050	5	-47.1		271	54	
2025-11-13T00:00	35100	5	-46.5		270	54	
2025-11-13T00:00	35150	5	-46.2		269	55	
2025-11-13T00:00	35200	5	-46.4		267	55	
2025-11-13T00:00	35250	5	-46.0		269	56	
2025-11-13T00:00	35300	5	-45.5		272	54	
2025-11-13T00:00	35350	5	-45.2		272	52	
2025-11-13T00:00	35400	5	-45.1		272	51	
2025-11-13T00:00	35450	5	-44.6		270	51	
2025-11-13T00:00	35500	4	-43.7		269	52	
2025-11-13T00:00	35550	4	-43.3		268	53	
2025-11-13T00:00	35600	4	-42.8		268	53	
2025-11-13T00:00	35650	4	-42.4		268	53	
2025-11-13T00:00	35700	4	-42.4		268	53	
2025-11-13T00:00	35750	4	-42.8		268	52	
2025-11-13T00:00	35800	4	-43.1		267	52	
2025-11-13T00:00	35850	4	-43.2		267	52	
2025-11-13T00:00	35900	4	-43.3		267	52	
2025-11-13T00:00	35950	4	-43.5		266	52	
2025-11-13T00:00	36000	4	-43.6		266	52	
2025-11-13T00:00	36050	4	-43.7		265	52	
2025-11-13T00:00	36100	4	-43.8		265	51	
2025-11-13T00:00	36150	4	-43.7		266	52	
2025-11-13T00:00	36200	4	-43.7		268	52	
2025-11-13T00:00	36250	4	-43.3		269	53	
2025-11-13T00:00	36300	4	-43.2		271	54	
2025-11-13T00:00	36350	4	-43.0		272	54	
2025-11-13T00:00	36400	4	-43.1		273	55	
2025-11-13T00:00	36450	4	-43.1		274	57	
2025-11-13T00:00	36500	4	-43.1		274	57	
2025-11-13T12:00	491	961	12.6	6.6	330	1	
2025-11-13T12:00	501	960	12.5	6.2	276	1	
2025-11-13T12:00	520	958	12.1	5.7	255	1	
2025-11-13T12:00	540	956	11.9	5.3	245	1	
2025-11-13T12:00	560	953	11.8	4.9	237	2	
2025-11-13T12:00	580	951	11.8	4.6	229	2	
2025-11-13T12:00	600	949	12.2	4.0	222	3	
2025-11-13T12:00	620	947	12.3	3.9	216	4	
2025-11-13T12:00	640	944	12.5	3.4	211	5	
2025-11-13T12:00	660	942	13.6	2.4	207	6	
2025-11-13T12:00	680	940	14.3	1.1	205	7	
2025-11-13T12:00	700	938	14.8	0.6	202	8	
2025-11-13T12:00	720	936	14.9	0.1	201	9	
2025-11-13T12:00	740	933	14.8	-0.1	201	9	
2025-11-13T12:00	760	931	14.6	-0.1	202	10	
2025-11-13T12:00	780	929	14.5	-0.2	204	10	
2025-11-13T12:00	800	927	14.3	-0.4	207	10	
2025-11-13T12:00	820	925	14.2	-0.5	211	10	
2025-11-13T12:00	840	922	14.2	-0.5	216	10	
2025-11-13T12:00	860	920	14.3	-0.6	220	10	
2025-11-13T12:00	880	918	14.1	-0.6	223	10	
2025-11-13T12:00	900	916	14.0	-0.8	224	10	
2025-11-13T12:00	920	914	13.9	-0.9	226	11	
2025-11-13T12:00	940	912	13.9	-1.4	227	11	
2025-11-13T12:00	960	910	13.9	-1.5	229	11	
2025-11-13T12:00	980	907	13.7	-1.7	231	12	
2025-11-13T12:00	1000	905	13.6	-1.9	233	12	
2025-11-13T12:00	1020	903	13.6	-2.2	234	13	
2025-11-13T12:00	1040	901	13.7	-3.0	235	13	
2025-11-13T12:00	1060	899	14.1	-3.7	235	14	
2025-11-13T12:00	1080	897	14.1	-4.1	235	15	
2025-11-13T12:00	1100	894	14.3	-5.0	234	15	
2025-11-13T12:00	1120	892	14.8	-6.1	232	15	
2025-11-13T12:00	1140	890	14.9	-6.2	230	16	
2025-11-13T12:00	1160	888	15.2	-6.2	228	16	
2025-11-13T12:00	1180	886	15.4	-6.3	226	17	
2025-11-13T12:00	1200	884	15.5	-6.8	225	17	
2025-11-13T12:00	1220	882	15.7	-7.1	224	18	
2025-11-13T12:00	1240	880	15.8	-7.3	223	18	
2025-11-13T12:00	1260	878	15.7	-7.5	223	18	
2025-11-13T12:00	1280	876	15.8	-7.7	223	19	
2025-11-13T12:00	1300	874	15.8	-7.6	223	19	
2025-11-13T12:00	1320	871	16.0	-7.5	222	19	
2025-11-13T12:00	1340	869	16.1	-7.5	222	19	
2025-11-13T12:00	1360	867	15.9	-7.5	221	19	
2025-11-13T12:00	1380	865	15.7	-7.6	221	19	
2025-11-13T12:00	1400	863	15.6	-7.7	221	19	
2025-11-13T12:00	1420	861	15.4	-7.8	221	19	
2025-11-13T12:00	1440	859	15.2	-7.8	222	19	
2025-11-13T12:00	1460	857	15.0	-7.8	222	19	
2025-11-13T12:00	1480	855	14.9	-7.9	222	19	
2025-11-13T12:00	1500	853	14.7	-7.9	222	20	
2025-11-13T12:00	1520	851	14.5	-7.9	221	20	
2025-11-13T12:00	1540	849	14.4	-8.0	221	20	
2025-11-13T12:00	1560	847	14.2	-8.0	220	21	
2025-11-13T12:00	1580	845	14.1	-8.1	220	21	
2025-11-13T12:00	1600	843	13.9	-8.1	219	21	
2025-11-13T12:00	1620	841	13.8	-8.2	219	21	
2025-11-13T12:00	1640	839	13.6	-8.3	219	22	
2025-11-13T12:00	1660	837	13.4	-8.4	220	22	
2025-11-13T12:00	1680	835	13.3	-8.5	220	22	
2025-11-13T12:00	1700	833	13.1	-8.4	221	22	
2025-11-13T12:00	1720	831	12.9	-8.5	221	22	
2025-11-13T12:00	1740	829	12.8	-8.5	222	22	
2025-11-13T12:00	1760	827	12.5	-8.6	223	22	
2025-11-13T12:00	1780	825	12.3	-8.7	225	21	
2025-11-13T12:00	1800	823	12.2	-8.7	226	21	
2025-11-13T12:00	1820	821	12.0	-8.8	227	21	
2025-11-13T12:00	1840	819	11.8	-8.7	228	21	
2025-11-13T12:00	1860	817	11.7	-8.8	229	21	
2025-11-13T12:00	1880	815	11.5	-8.7	230	20	
2025-11-13T12:00	1900	813	11.4	-8.3	231	20	
2025-11-13T12:00	1920	812	11.2	-8.4	231	20	
2025-11-13T12:00	1940	810	11.1	-8.1	231	19	
2025-11-13T12:00	1960	807	10.9	-7.7	232	18	
2025-11-13T12:00	1980	806	10.8	-7.1	232	18	
2025-11-13T12:00	2000	804	10.7	-6.9	233	18	
2025-11-13T12:00	2020	802	10.5	-6.9	233	18	
2025-11-13T12:00	2040	800	10.3	-6.9	233	17	
2025-11-13T12:00	2060	798	10.1	-7.0	234	17	
2025-11-13T12:00	2080	796	9.9	-7.0	234	17	
2025-11-13T12:00	2100	794	9.7	-7.1	234	17	
2025-11-13T12:00	2120	792	9.5	-7.2	234	17	
2025-11-13T12:00	2140	790	9.3	-7.2	233	17	
2025-11-13T12:00	2160	788	9.1	-7.2	233	17	
2025-11-13T12:00	2180	786	8.9	-7.2	233	16	
2025-11-13T12:00	2200	785	8.7	-7.1	233	16	
2025-11-13T12:00	2220	782	8.5	-7.1	234	15	
2025-11-13T12:00	2240	781	8.3	-7.2	235	15	
2025-11-13T12:00	2260	779	8.1	-7.3	236	15	
2025-11-13T12:00	2280	777	7.9	-7.1	236	14	
2025-11-13T12:00	2300	775	7.8	-7.0	237	14	
2025-11-13T12:00	2320	773	7.6	-6.9	237	14	
2025-11-13T12:00	2340	771	7.5	-6.7	237	14	
2025-11-13T12:00	2360	769	7.3	-6.6	237	14	
2025-11-13T12:00	2380	768	7.1	-6.2	238	13	
2025-11-13T12:00	2400	766	7.0	-5.9	238	13	
2025-11-13T12:00	2420	764	6.8	-6.0	239	13	
2025-11-13T12:00	2440	762	6.6	-5.9	240	13	
2025-11-13T12:00	2460	760	6.4	-6.0	241	13	
2025-11-13T12:00	2480	758	6.3	-5.8	242	12	
2025-11-13T12:00	2500	756	6.1	-5.8	242	12	
2025-11-13T12:00	2520	755	5.9	-5.8	242	11	
2025-11-13T12:00	2540	753	5.8	-5.7	240	11	
2025-11-13T12:00	2560	751	5.6	-5.7	238	11	
2025-11-13T12:00	2580	749	5.6	-5.5	235	10	
2025-11-13T12:00	2600	747	5.5	-5.5	233	10	
2025-11-13T12:00	2620	745	5.4	-5.6	231	11	
2025-11-13T12:00	2640	744	5.2	-5.7	230	11	
2025-11-13T12:00	2660	742	5.1	-5.6	229	11	
2025-11-13T12:00	2680	740	4.9	-5.8	229	11	
2025-11-13T12:00	2700	738	4.8	-5.8	230	12	
2025-11-13T12:00	2720	736	4.6	-5.9	231	12	
2025-11-13T12:00	2740	734	4.5	-5.9	232	12	
2025-11-13T12:00	2760	733	4.3	-5.9	234	13	
2025-11-13T12:00	2780	731	4.2	-6.0	235	13	
2025-11-13T12:00	2800	729	4.0	-6.0	236	13	
2025-11-13T12:00	2820	727	3.9	-6.1	237	13	
2025-11-13T12:00	2840	726	3.7	-6.1	237	13	
2025-11-13T12:00	2860	724	3.6	-6.1	237	13	
2025-11-13T12:00	2880	722	3.4	-6.1	237	13	
2025-11-13T12:00	2900	720	3.2	-6.3	237	13	
2025-11-13T12:00	2920	718	3.1	-6.3	238	13	
2025-11-13T12:00	2940	717	2.9	-6.3	239	13	
2025-11-13T12:00	2960	715	2.7	-6.4	241	14	
2025-11-13T12:00	2980	713	2.5	-6.4	242	14	
2025-11-13T12:00	3000	711	2.4	-6.5	243	14	
2025-11-13T12:00	3020	710	2.2	-6.5	243	14	
2025-11-13T12:00	3040	708	2.0	-6.6	243	14	
2025-11-13T12:00	3060	706	1.8	-6.6	242	14	
2025-11-13T12:00	3080	704	1.6	-6.6	240	14	
2025-11-13T12:00	3100	703	1.5	-6.8	239	14	
2025-11-13T12:00	3120	701	1.2	-6.8	237	14	
2025-11-13T12:00	3140	699	1.1	-6.8	236	14	
2025-11-13T12:00	3160	697	0.9	-6.9	235	14	
2025-11-13T12:00	3180	696	0.7	-7.0	234	15	
2025-11-13T12:00	3200	694	0.5	-6.9	232	15	
2025-11-13T12:00	3220	692	0.3	-6.9	231	15	
2025-11-13T12:00	3240	690	0.1	-7.0	230	14	
2025-11-13T12:00	3260	689	-0.1	-7.1	228	14	
2025-11-13T12:00	3280	687	-0.2	-7.2	227	14	
2025-11-13T12:00	3300	685	-0.4	-7.3	227	15	
2025-11-13T12:00	3320	684	-0.6	-7.3	225	15	
2025-11-13T12:00	3340	682	-0.8	-7.4	225	15	
2025-11-13T12:00	3360	680	-0.9	-7.5	224	16	
2025-11-13T12:00	3380	678	-1.1	-7.5	225	16	
2025-11-13T12:00	3400	677	-1.3	-7.6	226	16	
2025-11-13T12:00	3420	675	-1.4	-7.8	227	16	
2025-11-13T12:00	3440	673	-1.6	-7.9	229	15	
2025-11-13T12:00	3460	672	-1.7	-8.0	230	15	
2025-11-13T12:00	3480	670	-1.9	-8.1	231	15	
2025-11-13T12:00	3500	668	-2.1	-8.2	230	15	
2025-11-13T12:00	3520	667	-2.3	-8.3	229	15	
2025-11-13T12:00	3540	665	-2.4	-8.4	228	15	
2025-11-13T12:00	3560	663	-2.6	-8.5	228	15	
2025-11-13T12:00	3580	662	-2.8	-8.5	227	16	
2025-11-13T12:00	3600	660	-3.0	-8.6	227	15	
2025-11-13T12:00	3620	658	-3.1	-8.7	227	15	
2025-11-13T12:00	3640	657	-3.3	-8.7	227	15	
2025-11-13T12:00	3660	655	-3.5	-8.8	227	16	
2025-11-13T12:00	3680	653	-3.7	-8.9	227	16	
2025-11-13T12:00	3700	652	-3.8	-9.0	227	16	
2025-11-13T12:00	3720	650	-4.0	-9.1	226	17	
2025-11-13T12:00	3740	648	-4.1	-9.2	226	17	
2025-11-13T12:00	3760	647	-4.3	-9.3	226	18	
2025-11-13T12:00	3780	645	-4.4	-9.5	227	18	
2025-11-13T12:00	3800	644	-4.6	-9.6	227	18	
2025-11-13T12:00	3820	642	-4.7	-9.9	228	18	
2025-11-13T12:00	3840	640	-4.7	-10.3	229	17	
2025-11-13T12:00	3860	638	-4.7	-10.8	229	17	
2025-11-13T12:00	3880	637	-4.8	-11.0	229	16	
2025-11-13T12:00	3900	635	-4.9	-11.3	229	16	
2025-11-13T12:00	3920	634	-5.0	-11.7	228	16	
2025-11-13T12:00	3940	632	-5.1	-12.2	228	16	
2025-11-13T12:00	3960	630	-5.2	-12.7	229	16	
2025-11-13T12:00	3980	629	-5.3	-12.8	230	16	
2025-11-13T12:00	4000	627	-5.4	-12.9	230	16	
2025-11-13T12:00	4020	626	-5.5	-13.2	231	17	
2025-11-13T12:00	4040	624	-5.5	-13.9	233	17	
2025-11-13T12:00	4060	623	-5.5	-14.3	234	17	
2025-11-13T12:00	4080	621	-5.6	-14.6	234	17	
2025-11-13T12:00	4100	619	-5.8	-14.7	236	17	
2025-11-13T12:00	4120	618	-5.9	-15.0	236	17	
2025-11-13T12:00	4140	616	-6.0	-15.2	238	16	
2025-11-13T12:00	4160	615	-6.2	-15.3	239	16	
2025-11-13T12:00	4180	613	-6.4	-15.5	239	16	
2025-11-13T12:00	4200	612	-6.5	-15.9	239	17	
2025-11-13T12:00	4220	610	-6.6	-16.4	238	17	
2025-11-13T12:00	4240	608	-6.7	-17.0	238	17	
2025-11-13T12:00	4260	607	-6.8	-17.2	237	17	
2025-11-13T12:00	4280	605	-6.9	-17.2	238	17	
2025-11-13T12:00	4300	604	-6.8	-18.2	238	17	
2025-11-13T12:00	4320	602	-6.8	-19.2	239	17	
2025-11-13T12:00	4340	601	-6.9	-19.8	239	17	
2025-11-13T12:00	4360	599	-7.0	-20.4	240	16	
2025-11-13T12:00	4380	598	-7.2	-21.2	240	16	
2025-11-13T12:00	4400	596	-7.3	-22.0	241	16	
2025-11-13T12:00	4420	595	-7.3	-22.5	241	17	
2025-11-13T12:00	4440	593	-7.2	-24.1	241	17	
2025-11-13T12:00	4460	592	-7.0	-25.4	241	17	
2025-11-13T12:00	4480	590	-6.8	-26.6	241	18	
2025-11-13T12:00	4500	588	-6.6	-28.2	240	18	
2025-11-13T12:00	4520	587	-6.4	-29.3	239	18	
2025-11-13T12:00	4540	585	-6.4	-29.5	238	18	
2025-11-13T12:00	4560	584	-6.5	-29.4	237	18	
2025-11-13T12:00	4580	582	-6.7	-29.4	237	18	
2025-11-13T12:00	4600	581	-6.9	-29.5	237	17	
2025-11-13T12:00	4620	579	-7.1	-29.5	236	17	
2025-11-13T12:00	4640	578	-7.2	-29.7	235	17	
2025-11-13T12:00	4660	576	-7.2	-30.6	234	18	
2025-11-13T12:00	4680	575	-7.2	-30.8	233	18	
2025-11-13T12:00	4700	574	-7.3	-31.0	232	18	
2025-11-13T12:00	4720	572	-7.4	-31.6	232	18	
2025-11-13T12:00	4740	571	-7.3	-32.3	232	18	
2025-11-13T12:00	4760	569	-7.4	-32.3	232	18	
2025-11-13T12:00	4780	568	-7.5	-32.1	233	18	
2025-11-13T12:00	4800	566	-7.6	-33.1	234	17	
2025-11-13T12:00	4820	565	-7.6	-33.3	234	17	
2025-11-13T12:00	4840	563	-7.7	-33.8	235	17	
2025-11-13T12:00	4860	562	-7.7	-34.4	235	17	
2025-11-13T12:00	4880	561	-7.9	-34.6	235	16	
2025-11-13T12:00	4900	559	-7.9	-35.1	236	16	
2025-11-13T12:00	4920	557	-8.0	-35.1	237	16	
2025-11-13T12:00	4940	556	-8.2	-34.8	237	15	
2025-11-13T12:00	4960	555	-8.3	-34.6	237	15	
2025-11-13T12:00	4980	553	-8.5	-34.5	237	14	
2025-11-13T12:00	5000	552	-8.6	-33.9	237	14	
2025-11-13T12:00	5020	550	-8.8	-33.5	236	13	
2025-11-13T12:00	5040	549	-9.0	-33.5	234	13	
2025-11-13T12:00	5060	547	-9.1	-33.3	234	13	
2025-11-13T12:00	5080	546	-9.3	-33.0	234	13	
2025-11-13T12:00	5100	545	-9.4	-33.4	234	13	
2025-11-13T12:00	5120	543	-9.6	-33.8	236	13	
2025-11-13T12:00	5140	542	-9.8	-34.1	238	13	
2025-11-13T12:00	5160	540	-10.0	-34.8	240	12	
2025-11-13T12:00	5180	539	-10.2	-35.0	242	12	
2025-11-13T12:00	5200	538	-10.4	-35.2	243	12	
2025-11-13T12:00	5220	536	-10.6	-35.3	244	12	
2025-11-13T12:00	5240	535	-10.7	-35.4	244	12	
2025-11-13T12:00	5260	534	-10.9	-35.6	245	12	
2025-11-13T12:00	5280	532	-11.1	-36.1	245	12	
2025-11-13T12:00	5300	531	-11.3	-36.6	246	12	
2025-11-13T12:00	5320	529	-11.5	-36.6	247	12	
2025-11-13T12:00	5340	528	-11.7	-36.3	248	12	
2025-11-13T12:00	5360	527	-11.9	-36.0	250	12	
2025-11-13T12:00	5380	525	-12.0	-36.1	251	12	
2025-11-13T12:00	5400	524	-12.2	-36.3	251	13	
2025-11-13T12:00	5420	522	-12.4	-36.5	250	13	
2025-11-13T12:00	5440	521	-12.4	-37.2	249	13	
2025-11-13T12:00	5460	520	-12.5	-37.4	248	13	
2025-11-13T12:00	5480	518	-12.7	-37.3	247	13	
2025-11-13T12:00	5500	517	-12.9	-37.2	246	13	
2025-11-13T12:00	5520	516	-13.0	-37.2	245	13	
2025-11-13T12:00	5540	514	-13.2	-37.3	244	13	
2025-11-13T12:00	5560	513	-13.4	-37.3	245	13	
2025-11-13T12:00	5580	512	-13.6	-37.3	245	13	
2025-11-13T12:00	5600	510	-13.7	-37.2	246	13	
2025-11-13T12:00	5620	509	-13.9	-37.2	245	13	
2025-11-13T12:00	5640	508	-14.1	-37.2	244	13	
2025-11-13T12:00	5660	506	-14.3	-37.1	242	13	
2025-11-13T12:00	5680	505	-14.4	-37.0	241	13	
2025-11-13T12:00	5700	504	-14.6	-37.2	240	13	
2025-11-13T12:00	5720	502	-14.8	-37.4	240	13	
2025-11-13T12:00	5740	501	-15.0	-37.4	240	13	
2025-11-13T12:00	5760	500	-15.1	-37.1	240	13	
2025-11-13T12:00	5780	498	-15.4	-37.0	241	14	
2025-11-13T12:00	5800	497	-15.5	-36.7	242	14	
2025-11-13T12:00	5820	496	-15.7	-36.6	243	15	
2025-11-13T12:00	5840	494	-15.9	-36.4	243	15	
2025-11-13T12:00	5860	493	-16.0	-36.3	243	15	
2025-11-13T12:00	5880	492	-16.2	-35.5	241	15	
2025-11-13T12:00	5900	490	-16.3	-34.0	239	15	
2025-11-13T12:00	5920	489	-16.5	-33.9	237	15	
2025-11-13T12:00	5940	488	-16.7	-34.2	235	15	
2025-11-13T12:00	5960	487	-16.7	-35.2	233	14	
2025-11-13T12:00	5980	485	-16.8	-35.7	232	14	
2025-11-13T12:00	6000	484	-17.0	-35.5	233	14	
2025-11-13T12:00	6020	483	-17.2	-35.5	234	14	
2025-11-13T12:00	6040	482	-17.4	-35.6	235	14	
2025-11-13T12:00	6060	480	-17.6	-35.7	236	14	
2025-11-13T12:00	6080	479	-17.7	-35.9	237	14	
2025-11-13T12:00	6100	478	-17.9	-35.9	237	14	
2025-11-13T12:00	6120	476	-18.1	-36.0	237	14	
2025-11-13T12:00	6140	475	-18.3	-35.9	236	14	
2025-11-13T12:00	6160	474	-18.5	-36.2	235	14	
2025-11-13T12:00	6180	472	-18.7	-36.6	235	14	
2025-11-13T12:00	6200	471	-18.8	-36.8	234	14	
2025-11-13T12:00	6220	470	-19.0	-36.8	234	14	
2025-11-13T12:00	6240	469	-19.2	-36.8	234	15	
2025-11-13T12:00	6260	467	-19.4	-36.9	234	15	
2025-11-13T12:00	6280	466	-19.6	-36.9	233	15	
2025-11-13T12:00	6300	465	-19.8	-37.0	233	15	
2025-11-13T12:00	6320	463	-20.0	-37.2	233	16	
2025-11-13T12:00	6340	462	-20.1	-37.8	234	16	
2025-11-13T12:00	6360	461	-20.2	-38.1	235	16	
2025-11-13T12:00	6380	460	-20.2	-38.9	236	17	
2025-11-13T12:00	6400	459	-20.2	-39.4	238	17	
2025-11-13T12:00	6420	457	-20.3	-39.4	240	17	
2025-11-13T12:00	6440	456	-20.4	-39.4	241	17	
2025-11-13T12:00	6460	455	-20.6	-39.4	242	17	
2025-11-13T12:00	6480	454	-20.7	-39.4	243	17	
2025-11-13T12:00	6500	452	-20.8	-39.2	244	17	
2025-11-13T12:00	6520	451	-21.0	-39.2	244	17	
2025-11-13T12:00	6540	450	-21.1	-39.3	245	17	
2025-11-13T12:00	6560	449	-21.2	-39.3	245	17	
2025-11-13T12:00	6580	447	-21.4	-39.3	246	17	
2025-11-13T12:00	6600	446	-21.5	-39.2	246	17	
2025-11-13T12:00	6620	445	-21.6	-39.4	247	17	
2025-11-13T12:00	6640	444	-21.7	-39.7	247	17	
2025-11-13T12:00	6660	443	-21.8	-39.9	248	17	
2025-11-13T12:00	6680	442	-21.9	-40.1	248	17	
2025-11-13T12:00	6700	440	-22.0	-40.2	248	17	
2025-11-13T12:00	6720	439	-22.2	-40.3	248	17	
2025-11-13T12:00	6740	438	-22.3	-40.4	247	17	
2025-11-13T12:00	6760	437	-22.5	-40.5	247	17	
2025-11-13T12:00	6780	435	-22.6	-40.8	246	17	
2025-11-13T12:00	6800	434	-22.7	-41.2	246	18	
2025-11-13T12:00	6820	433	-22.8	-41.5	246	18	
2025-11-13T12:00	6840	432	-23.0	-41.6	247	18	
2025-11-13T12:00	6860	431	-23.1	-42.0	248	18	
2025-11-13T12:00	6880	430	-23.2	-42.3	249	17	
2025-11-13T12:00	6900	429	-23.2	-42.5	249	17	
2025-11-13T12:00	6920	427	-23.2	-42.2	250	16	
2025-11-13T12:00	6940	426	-23.1	-41.6	250	16	
2025-11-13T12:00	6960	425	-23.1	-41.6	250	15	
2025-11-13T12:00	6980	424	-23.2	-42.1	249	15	
2025-11-13T12:00	7000	423	-23.2	-42.6	248	14	
2025-11-13T12:00	7020	421	-23.4	-42.7	247	14	
2025-11-13T12:00	7040	420	-23.5	-42.8	246	14	
2025-11-13T12:00	7060	419	-23.7	-42.5	245	13	
2025-11-13T12:00	7080	418	-23.8	-42.6	244	13	
2025-11-13T12:00	7100	417	-24.0	-42.5	243	13	
2025-11-13T12:00	7120	416	-24.2	-42.0	241	12	
2025-11-13T12:00	7140	415	-24.4	-41.8	240	12	
2025-11-13T12:00	7160	413	-24.5	-41.8	238	12	
2025-11-13T12:00	7180	412	-24.7	-41.7	236	12	
2025-11-13T12:00	7200	411	-24.9	-41.8	234	12	
2025-11-13T12:00	7220	410	-25.1	-42.2	232	12	
2025-11-13T12:00	7240	409	-25.3	-42.3	231	12	
2025-11-13T12:00	7260	408	-25.5	-42.4	230	12	
2025-11-13T12:00	7280	407	-25.7	-43.4	229	12	
2025-11-13T12:00	7300	406	-25.9	-43.8	228	12	
2025-11-13T12:00	7320	405	-26.0	-44.1	228	12	
2025-11-13T12:00	7340	403	-26.2	-44.9	228	12	
2025-11-13T12:00	7360	402	-26.4	-45.3	227	12	
2025-11-13T12:00	7380	401	-26.5	-45.8	226	12	
2025-11-13T12:00	7400	400	-26.7	-46.1	226	12	
2025-11-13T12:00	7420	399	-26.8	-46.3	225	12	
2025-11-13T12:00	7440	398	-27.0	-47.0	224	12	
2025-11-13T12:00	7460	397	-27.1	-47.9	224	12	
2025-11-13T12:00	7480	396	-27.3	-48.3	223	13	
2025-11-13T12:00	7500	395	-27.5	-48.2	223	13	
2025-11-13T12:00	7520	394	-27.7	-48.1	222	13	
2025-11-13T12:00	7540	392	-27.8	-47.8	222	13	
2025-11-13T12:00	7560	391	-28.0	-47.0	222	13	
2025-11-13T12:00	7580	390	-28.1	-46.2	222	14	
2025-11-13T12:00	7600	389	-28.3	-46.2	222	14	
2025-11-13T12:00	7620	388	-28.5	-46.2	221	14	
2025-11-13T12:00	7640	387	-28.7	-46.0	220	14	
2025-11-13T12:00	7660	386	-28.9	-45.3	219	14	
2025-11-13T12:00	7680	385	-29.0	-44.9	218	14	
2025-11-13T12:00	7700	384	-29.2	-44.4	217	14	
2025-11-13T12:00	7720	383	-29.3	-43.9	216	14	
2025-11-13T12:00	7740	382	-29.5	-43.9	216	14	
2025-11-13T12:00	7760	381	-29.6	-43.9	216	14	
2025-11-13T12:00	7780	380	-29.8	-44.0	216	15	
2025-11-13T12:00	7800	378	-30.0	-44.1	216	15	
2025-11-13T12:00	7820	377	-30.2	-44.2	216	15	
2025-11-13T12:00	7840	376	-30.3	-44.4	217	15	
2025-11-13T12:00	7860	375	-30.5	-44.6	217	15	
2025-11-13T12:00	7880	374	-30.7	-44.7	218	16	
2025-11-13T12:00	7900	373	-30.9	-45.0	219	16	
2025-11-13T12:00	7920	372	-31.0	-45.5	220	16	
2025-11-13T12:00	7940	371	-31.2	-45.8	221	17	
2025-11-13T12:00	7960	370	-31.4	-46.2	222	17	
2025-11-13T12:00	7980	369	-31.5	-46.5	223	17	
2025-11-13T12:00	8000	368	-31.6	-47.3	224	17	
2025-11-13T12:00	8020	367	-31.7	-47.4	224	17	
2025-11-13T12:00	8040	366	-31.8	-46.9	225	16	
2025-11-13T12:00	8060	365	-32.0	-46.9	225	16	
2025-11-13T12:00	8080	364	-32.1	-47.1	225	16	
2025-11-13T12:00	8100	363	-32.3	-46.4	225	16	
2025-11-13T12:00	8120	362	-32.4	-44.7	225	16	
2025-11-13T12:00	8140	361	-32.5	-44.8	225	16	
2025-11-13T12:00	8160	360	-32.7	-45.2	226	16	
2025-11-13T12:00	8180	359	-32.9	-45.7	226	16	
2025-11-13T12:00	8200	358	-33.0	-45.9	226	16	
2025-11-13T12:00	8220	356	-33.2	-45.9	227	16	
2025-11-13T12:00	8240	355	-33.3	-45.4	227	16	
2025-11-13T12:00	8260	354	-33.4	-44.8	228	16	
2025-11-13T12:00	8280	353	-33.6	-43.1	228	16	
2025-11-13T12:00	8300	352	-33.8	-42.5	229	16	
2025-11-13T12:00	8320	351	-34.0	-42.5	229	16	
2025-11-13T12:00	8340	350	-34.1	-42.1	229	16	
2025-11-13T12:00	8360	350	-34.2	-41.4	228	16	
2025-11-13T12:00	8380	348	-34.3	-41.4	228	16	
2025-11-13T12:00	8400	347	-34.5	-41.8	227	16	
2025-11-13T12:00	8420	346	-34.6	-41.7	227	16	
2025-11-13T12:00	8440	345	-34.8	-42.5	226	16	
2025-11-13T12:00	8460	344	-34.9	-43.7	226	16	
2025-11-13T12:00	8480	344	-35.0	-44.2	226	16	
2025-11-13T12:00	8500	343	-35.2	-44.2	226	16	
2025-11-13T12:00	8520	342	-35.3	-43.6	227	15	
2025-11-13T12:00	8540	341	-35.5	-43.8	227	15	
2025-11-13T12:00	8560	340	-35.7	-44.0	227	15	
2025-11-13T12:00	8580	339	-35.9	-43.7	228	15	
2025-11-13T12:00	8600	338	-36.0	-43.7	228	15	
2025-11-13T12:00	8620	337	-36.2	-43.6	227	15	
2025-11-13T12:00	8640	336	-36.4	-43.5	228	15	
2025-11-13T12:00	8660	335	-36.6	-43.6	228	15	
2025-11-13T12:00	8680	334	-36.7	-43.7	228	15	
2025-11-13T12:00	8700	333	-36.9	-43.6	229	15	
2025-11-13T12:00	8720	332	-37.1	-43.9	230	15	
2025-11-13T12:00	8740	331	-37.3	-44.3	231	14	
2025-11-13T12:00	8760	330	-37.5	-44.5	232	15	
2025-11-13T12:00	8780	329	-37.7	-44.8	232	15	
2025-11-13T12:00	8800	328	-37.8	-44.8	232	15	
2025-11-13T12:00	8820	327	-38.0	-44.6	232	15	
2025-11-13T12:00	8840	326	-38.2	-44.5	232	15	
2025-11-13T12:00	8860	325	-38.4	-44.1	231	15	
2025-11-13T12:00	8880	324	-38.6	-44.2	231	15	
2025-11-13T12:00	8900	323	-38.7	-44.5	231	16	
2025-11-13T12:00	8920	322	-38.9	-44.6	231	16	
2025-11-13T12:00	8940	321	-39.1	-44.7	231	16	
2025-11-13T12:00	8960	320	-39.3	-44.7	232	16	
2025-11-13T12:00	8980	319	-39.5	-45.2	233	16	
2025-11-13T12:00	9000	319	-39.6	-45.9	234	16	
2025-11-13T12:00	9020	318	-39.8	-46.2	236	17	
2025-11-13T12:00	9040	317	-40.0	-46.0	238	17	
2025-11-13T12:00	9060	316	-40.1	-45.9	240	17	
2025-11-13T12:00	9080	315	-40.3	-46.4	241	17	
2025-11-13T12:00	9100	314	-40.5	-46.9	242	18	
2025-11-13T12:00	9120	313	-40.7	-47.1	242	18	
2025-11-13T12:00	9140	312	-40.8	-47.1	242	18	
2025-11-13T12:00	9160	311	-41.0	-47.7	242	18	
2025-11-13T12:00	9180	310	-41.1	-48.0	241	18	
2025-11-13T12:00	9200	309	-41.3	-48.7	240	18	
2025-11-13T12:00	9220	308	-41.5	-49.0	239	18	
2025-11-13T12:00	9240	307	-41.7	-48.9	239	18	
2025-11-13T12:00	9260	307	-41.9	-48.9	239	18	
2025-11-13T12:00	9280	306	-42.0	-49.0	239	18	
2025-11-13T12:00	9300	305	-42.2	-49.1	240	18	
2025-11-13T12:00	9320	304	-42.4	-49.4	241	18	
2025-11-13T12:00	9340	303	-42.6	-49.8	241	18	
2025-11-13T12:00	9360	302	-42.7	-50.2	242	18	
2025-11-13T12:00	9380	301	-42.9	-50.4	242	18	
2025-11-13T12:00	9400	300	-43.1	-51.0	242	18	
2025-11-13T12:00	9420	299	-43.3	-51.4	243	18	
2025-11-13T12:00	9440	298	-43.5	-51.8	243	18	
2025-11-13T12:00	9460	298	-43.6	-52.3	243	18	
2025-11-13T12:00	9480	297	-43.8	-52.5	243	18	
2025-11-13T12:00	9500	296	-44.0	-53.0	243	18	
2025-11-13T12:00	9520	295	-44.2	-53.5	244	18	
2025-11-13T12:00	9540	294	-44.4	-53.9	244	18	
2025-11-13T12:00	9560	293	-44.6	-54.0	244	18	
2025-11-13T12:00	9580	292	-44.7	-53.8	244	18	
2025-11-13T12:00	9600	292	-44.9	-52.6	244	18	
2025-11-13T12:00	9620	291	-45.1	-51.9	244	18	
2025-11-13T12:00	9640	290	-45.3	-51.7	243	18	
2025-11-13T12:00	9660	289	-45.5	-51.0	242	18	
2025-11-13T12:00	9680	288	-45.7	-49.9	241	18	
2025-11-13T12:00	9700	287	-45.9	-50.1	240	18	
2025-11-13T12:00	9720	286	-46.1	-50.3	240	18	
2025-11-13T12:00	9740	285	-46.3	-49.5	239	18	
2025-11-13T12:00	9760	285	-46.4	-49.5	239	18	
2025-11-13T12:00	9780	284	-46.6	-49.8	239	18	
2025-11-13T12:00	9800	283	-46.8	-50.0	239	19	
2025-11-13T12:00	9820	282	-46.9	-50.2	239	19	
2025-11-13T12:00	9840	281	-47.1	-50.3	239	19	
2025-11-13T12:00	9860	280	-47.2	-50.3	239	19	
2025-11-13T12:00	9880	280	-47.4	-50.6	238	20	
2025-11-13T12:00	9900	279	-47.5	-51.5	237	20	
2025-11-13T12:00	9920	278	-47.7	-52.4	237	20	
2025-11-13T12:00	9940	277	-47.8	-52.8	236	20	
2025-11-13T12:00	9960	276	-48.0	-52.7	236	20	
2025-11-13T12:00	9980	275	-48.1	-52.7	235	21	
2025-11-13T12:00	10000	274	-48.3	-53.7	235	21	
2025-11-13T12:00	10018	274	-48.4	-54.0	235	21	
2025-11-13T12:00	10050	272	-48.6	-55.1	234	21	
2025-11-13T12:00	10100	270	-49.0	-55.4	234	21	
2025-11-13T12:00	10150	268	-49.4	-54.7	233	21	
2025-11-13T12:00	10200	266	-49.8	-54.2	233	21	
2025-11-13T12:00	10250	264	-50.2	-55.5	232	21	
2025-11-13T12:00	10300	262	-50.6	-56.3	232	21	
2025-11-13T12:00	10350	260	-51.0	-56.2	232	21	
2025-11-13T12:00	10400	258	-51.5	-56.5	232	21	
2025-11-13T12:00	10450	256	-51.9	-56.4	231	21	
2025-11-13T12:00	10500	254	-52.4	-56.6	231	21	
2025-11-13T12:00	10550	252	-52.8	-57.8	231	21	
2025-11-13T12:00	10600	250	-53.2	-58.0	232	20	
2025-11-13T12:00	10650	248	-53.7	-59.2	233	20	
2025-11-13T12:00	10700	246	-54.1	-60.8	232	20	
2025-11-13T12:00	10750	244	-54.4	-61.6	231	20	
2025-11-13T12:00	10800	243	-54.7	-62.3	231	21	
2025-11-13T12:00	10850	241	-54.9	-61.6	231	21	
2025-11-13T12:00	10900	239	-55.3	-61.1	232	22	
2025-11-13T12:00	10950	237	-55.6	-61.7	233	22	
2025-11-13T12:00	11000	235	-56.1	-62.6	237	21	
2025-11-13T12:00	11050	233	-56.4	-63.0	241	21	
2025-11-13T12:00	11100	231	-56.8	-62.9	242	21	
2025-11-13T12:00	11150	230	-57.2	-62.9	240	21	
2025-11-13T12:00	11200	228	-57.6	-63.5	239	20	
2025-11-13T12:00	11250	226	-58.0	-63.8	238	20	
2025-11-13T12:00	11300	224	-58.4	-64.1	236	19	
2025-11-13T12:00	11350	222	-58.7	-64.1	235	18	
2025-11-13T12:00	11400	221	-58.8	-64.0	237	18	
2025-11-13T12:00	11450	219	-59.1	-64.3	238	18	
2025-11-13T12:00	11500	217	-59.6	-64.5	239	19	
2025-11-13T12:00	11550	215	-60.0	-64.6	239	20	
2025-11-13T12:00	11600	214	-60.4	-64.8	239	19	
2025-11-13T12:00	11650	212	-60.7	-65.2	238	19	
2025-11-13T12:00	11700	210	-60.9	-65.6	236	18	
2025-11-13T12:00	11750	209	-61.2	-66.0	235	18	
2025-11-13T12:00	11800	207	-61.6	-66.2	234	18	
2025-11-13T12:00	11850	205	-62.0	-66.6	233	18	
2025-11-13T12:00	11900	204	-62.4	-67.1	233	18	
2025-11-13T12:00	11950	202	-62.6	-67.9	232	18	
2025-11-13T12:00	12000	200	-63.0	-68.5	232	18	
2025-11-13T12:00	12050	199	-63.3	-68.5	231	19	
2025-11-13T12:00	12100	197	-63.5	-68.1	232	19	
2025-11-13T12:00	12150	196	-63.7	-68.4	233	19	
2025-11-13T12:00	12200	194	-63.7	-69.2	234	19	
2025-11-13T12:00	12250	192	-64.2	-69.8	235	19	
2025-11-13T12:00	12300	191	-64.6	-70.6	238	19	
2025-11-13T12:00	12350	189	-65.1	-71.1	241	19	
2025-11-13T12:00	12400	188	-65.4	-71.4	242	19	
2025-11-13T12:00	12450	186	-65.8	-71.7	242	18	
2025-11-13T12:00	12500	185	-66.2	-71.6	241	18	
2025-11-13T12:00	12550	183	-66.5	-71.4	241	18	
2025-11-13T12:00	12600	182	-66.9	-71.6	240	18	
2025-11-13T12:00	12650	180	-67.3	-72.1	239	18	
2025-11-13T12:00	12700	179	-67.6	-72.6	239	18	
2025-11-13T12:00	12750	177	-67.9	-73.0	241	18	
2025-11-13T12:00	12800	176	-68.2	-73.3	243	18	
2025-11-13T12:00	12850	174	-68.6	-73.6	243	18	
2025-11-13T12:00	12900	173	-69.0	-73.9	242	19	
2025-11-13T12:00	12950	171	-69.1	-73.6	242	19	
2025-11-13T12:00	13000	170	-69.2	-73.6	243	20	
2025-11-13T12:00	13050	168	-69.4	-73.5	242	20	
2025-11-13T12:00	13100	167	-69.7	-73.5	242	21	
2025-11-13T12:00	13150	166	-69.7	-73.6	242	21	
2025-11-13T12:00	13200	164	-69.7	-73.8	241	22	
2025-11-13T12:00	13250	163	-69.6	-74.4	241	23	
2025-11-13T12:00	13300	162	-69.3	-75.0	242	22	
2025-11-13T12:00	13350	160	-69.3	-75.6	242	21	
2025-11-13T12:00	13400	159	-69.4	-75.9	241	20	
2025-11-13T12:00	13450	158	-69.7	-76.3	239	19	
2025-11-13T12:00	13500	156	-69.9	-76.4	235	18	
2025-11-13T12:00	13550	155	-69.9	-76.4	231	17	
2025-11-13T12:00	13600	154	-70.2	-76.6	227	17	
2025-11-13T12:00	13650	152	-70.5	-76.7	225	17	
2025-11-13T12:00	13700	151	-70.8	-76.8	221	17	
2025-11-13T12:00	13750	150	-70.8	-77.0	217	18	
2025-11-13T12:00	13800	149	-70.7	-77.4	215	20	
2025-11-13T12:00	13850	147	-69.9	-77.6	216	22	
2025-11-13T12:00	13900	146	-69.3	-78.2	220	24	
2025-11-13T12:00	13950	145	-68.7	-79.4	225	25	
2025-11-13T12:00	14000	144	-65.9	-80.5	230	26	
2025-11-13T12:00	14050	142	-64.0	-82.4	234	26	
2025-11-13T12:00	14100	141	-63.3	-83.5	237	25	
2025-11-13T12:00	14150	140	-63.6	-83.5	239	25	
2025-11-13T12:00	14200	139	-64.0	-83.1	237	25	
2025-11-13T12:00	14250	138	-63.4	-82.6	236	26	
2025-11-13T12:00	14300	137	-63.4	-82.6	237	26	
2025-11-13T12:00	14350	136	-63.4	-82.6	240	25	
2025-11-13T12:00	14400	135	-63.4	-82.6	242	25	
2025-11-13T12:00	14450	133	-63.3	-82.7	243	24	
2025-11-13T12:00	14500	132	-63.1	-82.9	243	23	
2025-11-13T12:00	14550	131	-62.9	-82.9	244	22	
2025-11-13T12:00	14600	130	-63.1	-83.0	244	22	
2025-11-13T12:00	14650	129	-63.4	-83.1	244	21	
2025-11-13T12:00	14700	128	-63.5	-83.1	243	20	
2025-11-13T12:00	14750	127	-63.5	-83.3	243	21	
2025-11-13T12:00	14800	126	-63.4	-83.5	244	21	
2025-11-13T12:00	14850	125	-63.3	-83.5	244	21	
2025-11-13T12:00	14900	124	-63.4	-83.6	242	21	
2025-11-13T12:00	14950	123	-63.4	-83.8	241	21	
2025-11-13T12:00	15000	122	-63.4	-83.8	242	21	
2025-11-13T12:00	15050	121	-63.4	-83.9	244	21	
2025-11-13T12:00	15100	120	-63.1	-83.9	247	20	
2025-11-13T12:00	15150	119	-63.3	-84.0	249	20	
2025-11-13T12:00	15200	118	-63.4	-84.1	252	20	
2025-11-13T12:00	15250	117	-63.7	-84.2	253	21	
2025-11-13T12:00	15300	116	-63.5	-84.2	252	22	
2025-11-13T12:00	15350	115	-63.7	-84.3	251	23	
2025-11-13T12:00	15400	114	-63.8	-84.2	250	23	
2025-11-13T12:00	15450	113	-64.3	-84.4	250	22	
2025-11-13T12:00	15500	112	-64.3	-84.4	252	21	
2025-11-13T12:00	15550	112	-64.2	-84.5	255	21	
2025-11-13T12:00	15600	111	-64.0	-84.6	260	20	
2025-11-13T12:00	15650	110	-63.8	-84.7	265	20	
2025-11-13T12:00	15700	109	-63.5	-84.5	270	20	
2025-11-13T12:00	15750	108	-64.1	-84.7	273	20	
2025-11-13T12:00	15800	107	-64.3	-84.8	275	19	
2025-11-13T12:00	15850	106	-64.3	-84.8	277	18	
2025-11-13T12:00	15900	105	-64.5	-84.9	277	16	
2025-11-13T12:00	15950	104	-64.8	-85.0	277	15	
2025-11-13T12:00	16000	104	-65.1	-85.0	277	14	
2025-11-13T12:00	16050	103	-65.5	-85.1	276	14	
2025-11-13T12:00	16100	102	-65.9	-85.2	273	13	
2025-11-13T12:00	16150	101	-66.1	-85.3	267	13	
2025-11-13T12:00	16200	100	-66.0	-85.3	261	14	
2025-11-13T12:00	16250	99	-66.0	-85.4	255	15	
2025-11-13T12:00	16300	99	-66.1	-85.4	251	15	
2025-11-13T12:00	16350	98	-66.3	-85.3	249	16	
2025-11-13T12:00	16400	97	-66.7	-85.4	248	17	
2025-11-13T12:00	16450	96	-67.1	-85.5	249	18	
2025-11-13T12:00	16500	95	-67.4	-85.6	251	19	
2025-11-13T12:00	16550	95	-67.7	-86.0	254	18	
2025-11-13T12:00	16600	94	-66.8	-86.0	258	16	
2025-11-13T12:00	16650	93	-64.9	-85.5	259	14	
2025-11-13T12:00	16700	92	-64.7	-85.7	260	12	
2025-11-13T12:00	16750	92	-64.8	-85.7	257	12	
2025-11-13T12:00	16800	91	-65.1	-85.7	251	11	
2025-11-13T12:00	16850	90	-65.1	-85.7	243	11	
2025-11-13T12:00	16900	89	-64.8	-85.5	237	11	
2025-11-13T12:00	16950	89	-65.0	-85.6	233	11	
2025-11-13T12:00	17000	88	-65.4	-85.7	235	11	
2025-11-13T12:00	17050	87	-65.7	-85.7	240	12	
2025-11-13T12:00	17100	86	-65.9	-85.8	244	13	
2025-11-13T12:00	17150	86	-65.9	-86.0	247	14	
2025-11-13T12:00	17200	85	-65.5	-86.0	247	15	
2025-11-13T12:00	17250	84	-65.1	-86.0	248	15	
2025-11-13T12:00	17300	84	-64.6	-85.9	249	15	
2025-11-13T12:00	17350	83	-65.0	-86.1	251	14	
2025-11-13T12:00	17400	82	-65.2	-86.1	254	14	
2025-11-13T12:00	17450	82	-65.2	-86.1	257	13	
2025-11-13T12:00	17500	81	-65.2	-86.1	258	13	
2025-11-13T12:00	17550	80	-65.5	-86.2	260	12	
2025-11-13T12:00	17600	80	-65.8	-86.2	261	12	
2025-11-13T12:00	17650	79	-65.9	-86.3	260	12	
2025-11-13T12:00	17700	78	-66.2	-86.4	259	13	
2025-11-13T12:00	17750	78	-66.2	-86.5	261	14	
2025-11-13T12:00	17800	77	-66.1	-86.7	263	15	
2025-11-13T12:00	17850	76	-65.4	-86.5	263	14	
2025-11-13T12:00	17900	76	-65.3	-86.7	263	14	
2025-11-13T12:00	17950	75	-65.2	-86.8	264	13	
2025-11-13T12:00	18000	75	-64.9	-86.6	268	12	
2025-11-13T12:00	18050	74	-64.9	-86.7	271	12	
2025-11-13T12:00	18100	73	-64.7	-86.7	272	12	
2025-11-13T12:00	18150	73	-64.6	-86.7	274	12	
2025-11-13T12:00	18200	72	-64.8	-86.8	278	12	
2025-11-13T12:00	18250	72	-65.0	-86.8	280	13	
2025-11-13T12:00	18300	71	-65.2	-86.9	282	13	
2025-11-13T12:00	18350	70	-65.2	-87.1	283	13	
2025-11-13T12:00	18400	70	-64.9	-87.0	283	13	
2025-11-13T12:00	18450	69	-64.7	-86.9	283	13	
2025-11-13T12:00	18500	69	-64.9	-87.0	285	12	
2025-11-13T12:00	18550	68	-65.0	-87.0	289	12	
2025-11-13T12:00	18600	68	-65.0	-87.0	292	12	
2025-11-13T12:00	18650	67	-65.3	-87.0	295	12	
2025-11-13T12:00	18700	66	-65.6	-87.1	297	12	
2025-11-13T12:00	18750	66	-65.9	-87.1	297	11	
2025-11-13T12:00	18800	65	-66.3	-87.1	297	11	
2025-11-13T12:00	18850	65	-66.7	-87.3	299	10	
2025-11-13T12:00	18900	64	-67.0	-87.5	300	9	
2025-11-13T12:00	18950	64	-67.1	-87.7	297	8	
2025-11-13T12:00	19000	63	-66.7	-87.6	293	8	
2025-11-13T12:00	19050	63	-66.5	-87.6	287	7	
2025-11-13T12:00	19100	62	-66.7	-88.0	282	8	
2025-11-13T12:00	19150	62	-65.7	-87.8	281	9	
2025-11-13T12:00	19200	61	-64.6	-87.4	284	9	
2025-11-13T12:00	19250	61	-64.3	-87.3	286	9	
2025-11-13T12:00	19300	60	-64.5	-87.2	287	9	
2025-11-13T12:00	19350	60	-64.9	-87.2	285	9	
2025-11-13T12:00	19400	59	-65.1	-87.2	282	10	
2025-11-13T12:00	19450	59	-65.5	-87.2	278	10	
2025-11-13T12:00	19500	58	-66.0	-87.4	273	10	
2025-11-13T12:00	19550	58	-66.3	-87.6	269	10	
2025-11-13T12:00	19600	57	-66.7	-87.7	265	11	
2025-11-13T12:00	19650	57	-67.0	-88.0	262	12	
2025-11-13T12:00	19700	56	-66.5	-87.9	263	13	
2025-11-13T12:00	19750	56	-66.3	-88.0	268	14	
2025-11-13T12:00	19800	55	-66.4	-88.1	275	14	
2025-11-13T12:00	19850	55	-66.3	-88.0	281	15	
2025-11-13T12:00	19900	55	-66.2	-88.1	284	15	
2025-11-13T12:00	19950	54	-66.0	-88.0	283	15	
2025-11-13T12:00	20000	54	-65.8	-88.0	281	14	
2025-11-13T12:00	20050	53	-65.8		280	14	
2025-11-13T12:00	20100	53	-65.4		279	14	
2025-11-13T12:00	20150	52	-65.2		277	15	
2025-11-13T12:00	20200	52	-65.0		275	15	
2025-11-13T12:00	20250	51	-64.8		273	16	
2025-11-13T12:00	20300	51	-64.5		273	16	
2025-11-13T12:00	20350	51	-64.1		274	15	
2025-11-13T12:00	20400	50	-63.9		276	14	
2025-11-13T12:00	20450	50	-64.0		278	13	
2025-11-13T12:00	20500	49	-63.9		282	13	
2025-11-13T12:00	20550	49	-63.8		284	13	
2025-11-13T12:00	20600	49	-63.7		285	12	
2025-11-13T12:00	20650	48	-64.0		282	11	
2025-11-13T12:00	20700	48	-64.3		278	11	
2025-11-13T12:00	20750	47	-64.6		274	11	
2025-11-13T12:00	20800	47	-64.6		269	12	
2025-11-13T12:00	20850	47	-64.5		264	13	
2025-11-13T12:00	20900	46	-64.3		260	14	
2025-11-13T12:00	20950	46	-64.4		258	15	
2025-11-13T12:00	21000	46	-64.4		257	14	
2025-11-13T12:00	21050	45	-64.3		257	13	
2025-11-13T12:00	21100	45	-64.4		259	12	
2025-11-13T12:00	21150	44	-64.7		265	11	
2025-11-13T12:00	21200	44	-65.1		271	10	
2025-11-13T12:00	21250	44	-65.4		275	9	
2025-11-13T12:00	21300	43	-65.6		274	9	
2025-11-13T12:00	21350	43	-65.9		271	9	
2025-11-13T12:00	21400	43	-65.8		268	10	
2025-11-13T12:00	21450	42	-65.9		270	11	
2025-11-13T12:00	21500	42	-65.8		274	11	
2025-11-13T12:00	21550	42	-65.8		276	11	
2025-11-13T12:00	21600	41	-65.6		277	11	
2025-11-13T12:00	21650	41	-65.5		277	11	
2025-11-13T12:00	21700	41	-65.6		277	10	
2025-11-13T12:00	21750	40	-65.9		276	10	
2025-11-13T12:00	21800	40	-66.0		273	10	
2025-11-13T12:00	21850	40	-66.2		271	10	
2025-11-13T12:00	21900	39	-65.8		273	10	
2025-11-13T12:00	21950	39	-65.4		276	10	
2025-11-13T12:00	22000	39	-65.4		280	10	
2025-11-13T12:00	22050	38	-65.5		284	11	
2025-11-13T12:00	22100	38	-65.4		287	11	
2025-11-13T12:00	22150	38	-65.0		290	11	
2025-11-13T12:00	22200	37	-64.5		293	11	
2025-11-13T12:00	22250	37	-64.4		294	10	
2025-11-13T12:00	22300	37	-64.3		294	10	
2025-11-13T12:00	22350	36	-63.8		293	9	
2025-11-13T12:00	22400	36	-63.8		284	8	
2025-11-13T12:00	22450	36	-63.7		270	8	
2025-11-13T12:00	22500	36	-63.4		260	9	
2025-11-13T12:00	22550	35	-63.4		255	10	
2025-11-13T12:00	22600	35	-63.5		253	11	
2025-11-13T12:00	22650	35	-63.3		254	11	
2025-11-13T12:00	22700	34	-63.1		259	12	
2025-11-13T12:00	22750	34	-63.2		266	12	
2025-11-13T12:00	22800	34	-63.2		270	14	
2025-11-13T12:00	22850	34	-63.2		269	15	
2025-11-13T12:00	22900	33	-63.0		265	15	
2025-11-13T12:00	22950	33	-63.1		259	15	
2025-11-13T12:00	23000	33	-63.4		255	15	
2025-11-13T12:00	23050	33	-63.4		253	15	
2025-11-13T12:00	23100	32	-63.4		255	16	
2025-11-13T12:00	23150	32	-63.4		258	16	
2025-11-13T12:00	23200	32	-63.4		259	16	
2025-11-13T12:00	23250	32	-63.6		256	16	
2025-11-13T12:00	23300	31	-63.6		254	16	
2025-11-13T12:00	23350	31	-63.6		254	17	
2025-11-13T12:00	23400	31	-63.8		255	18	
2025-11-13T12:00	23450	30	-64.0		258	19	
2025-11-13T12:00	23500	30	-64.0		260	19	
2025-11-13T12:00	23550	30	-64.1		264	20	
2025-11-13T12:00	23600	30	-64.3		268	20	
2025-11-13T12:00	23650	30	-64.4		273	20	
2025-11-13T12:00	23700	29	-64.5		278	21	
2025-11-13T12:00	23750	29	-64.6		284	21	
2025-11-13T12:00	23800	29	-64.4		289	21	
2025-11-13T12:00	23850	29	-64.2		294	21	
2025-11-13T12:00	23900	28	-64.4		299	21	
2025-11-13T12:00	23950	28	-64.0		302	20	
2025-11-13T12:00	24000	28	-63.6		305	19	
2025-11-13T12:00	24050	28	-63.6		306	18	
2025-11-13T12:00	24100	27	-63.5		304	17	
2025-11-13T12:00	24150	27	-63.0		300	17	
2025-11-13T12:00	24200	27	-63.0		296	16	
2025-11-13T12:00	24250	27	-63.5		291	16	
2025-11-13T12:00	24300	27	-63.5		286	16	
2025-11-13T12:00	24350	26	-63.3		284	17	
2025-11-13T12:00	24400	26	-63.5		284	18	
2025-11-13T12:00	24450	26	-63.5		285	19	
2025-11-13T12:00	24500	26	-63.5		287	20	
2025-11-13T12:00	24550	25	-63.6		288	20	
2025-11-13T12:00	24600	25	-63.7		290	20	
2025-11-13T12:00	24650	25	-63.6		293	19	
2025-11-13T12:00	24700	25	-63.8		295	18	
2025-11-13T12:00	24750	25	-64.1		297	17	
2025-11-13T12:00	24800	24	-64.5		296	15	
2025-11-13T12:00	24850	24	-64.4		291	14	
2025-11-13T12:00	24900	24	-64.0		284	13	
2025-11-13T12:00	24950	24	-63.8		277	14	
2025-11-13T12:00	25000	24	-63.4		272	15	
2025-11-13T12:00	25050	23	-63.0		269	17	
2025-11-13T12:00	25100	23	-62.4		268	19	
2025-11-13T12:00	25150	23	-62.0		268	20	
2025-11-13T12:00	25200	23	-61.2		269	21	
2025-11-13T12:00	25250	23	-60.8		271	21	
2025-11-13T12:00	25300	23	-60.9		274	21	
2025-11-13T12:00	25350	22	-61.2		277	22	
2025-11-13T12:00	25400	22	-60.7		279	22	
2025-11-13T12:00	25450	22	-60.3		281	22	
2025-11-13T12:00	25500	22	-60.2		283	22	
2025-11-13T12:00	25550	22	-59.8		286	22	
2025-11-13T12:00	25600	21	-59.7		289	21	
2025-11-13T12:00	25650	21	-59.8		287	21	
2025-11-13T12:00	25700	21	-59.6		284	22	
2025-11-13T12:00	25750	21	-59.5		281	22	
2025-11-13T12:00	25800	21	-59.6		277	23	
2025-11-13T12:00	25850	21	-59.7		275	23	
2025-11-13T12:00	25900	20	-59.7		274	22	
2025-11-13T12:00	25950	20	-59.4		275	22	
2025-11-13T12:00	26000	20	-59.3		278	21	
2025-11-13T12:00	26050	20	-59.6		280	20	
2025-11-13T12:00	26100	20	-60.0		282	20	
2025-11-13T12:00	26150	20	-60.3		283	20	
2025-11-13T12:00	26200	20	-59.9		283	21	
2025-11-13T12:00	26250	19	-59.7		281	22	
2025-11-13T12:00	26300	19	-59.7		280	22	
2025-11-13T12:00	26350	19	-59.7		280	22	
2025-11-13T12:00	26400	19	-59.8		278	21	
2025-11-13T12:00	26450	19	-60.1		275	21	
2025-11-13T12:00	26500	19	-60.3		270	21	
2025-11-13T12:00	26550	18	-60.2		267	21	
2025-11-13T12:00	26600	18	-60.1		267	22	
2025-11-13T12:00	26650	18	-59.9		268	22	
2025-11-13T12:00	26700	18	-59.9		270	22	
2025-11-13T12:00	26750	18	-59.7		273	23	
2025-11-13T12:00	26800	18	-59.7		276	23	
2025-11-13T12:00	26850	18	-59.7		277	24	
2025-11-13T12:00	26900	17	-59.7		277	24	
2025-11-13T12:00	26950	17	-59.6		276	25	
2025-11-13T12:00	27000	17	-59.7		274	25	
2025-11-13T12:00	27050	17	-59.8		272	25	
2025-11-13T12:00	27100	17	-59.9		271	25	
2025-11-13T12:00	27150	17	-59.6		271	25	
2025-11-13T12:00	27200	17	-59.6		272	26	
2025-11-13T12:00	27250	17	-59.4		274	27	
2025-11-13T12:00	27300	16	-59.4		276	28	
2025-11-13T12:00	27350	16	-59.4		277	28	
2025-11-13T12:00	27400	16	-59.2		277	29	
2025-11-13T12:00	27450	16	-58.9		277	29	
2025-11-13T12:00	27500	16	-58.5		276	29	
2025-11-13T12:00	27550	16	-58.0		275	30	
2025-11-13T12:00	27600	16	-57.6		274	31	
2025-11-13T12:00	27650	15	-57.1		275	31	
2025-11-13T12:00	27700	15	-57.0		277	31	
2025-11-13T12:00	27750	15	-57.3		278	30	
2025-11-13T12:00	27800	15	-57.7		278	30	
2025-11-13T12:00	27850	15	-57.9		277	31	
2025-11-13T12:00	27900	15	-57.9		276	32	
2025-11-13T12:00	27950	15	-57.5		275	32	
2025-11-13T12:00	28000	15	-57.1		276	31	
2025-11-13T12:00	28050	15	-57.0		278	30	
2025-11-13T12:00	28100	14	-57.2		280	30	
2025-11-13T12:00	28150	14	-57.3		281	30	
2025-11-13T12:00	28200	14	-57.1		282	30	
2025-11-13T12:00	28250	14	-57.0		283	31	
2025-11-13T12:00	28300	14	-57.1		283	32	
2025-11-13T12:00	28350	14	-57.1		283	33	
2025-11-13T12:00	28400	14	-57.2		282	34	
2025-11-13T12:00	28450	14	-57.5		281	34	
2025-11-13T12:00	28500	14	-57.7		280	35	
2025-11-13T12:00	28550	13	-57.9		279	35	
2025-11-13T12:00	28600	13	-58.2		279	35	
2025-11-13T12:00	28650	13	-58.4		279	35	
2025-11-13T12:00	28700	13	-58.5		280	35	
2025-11-13T12:00	28750	13	-58.7		280	34	
2025-11-13T12:00	28800	13	-59.1		281	34	
2025-11-13T12:00	28850	13	-59.3		281	34	
2025-11-13T12:00	28900	13	-59.3		280	33	
2025-11-13T12:00	28950	13	-59.3		280	32	
2025-11-13T12:00	29000	13	-59.2		278	31	
2025-11-13T12:00	29050	12	-59.2		276	31	
2025-11-13T12:00	29100	12	-59.2		274	31	
2025-11-13T12:00	29150	12	-58.6		272	32	
2025-11-13T12:00	29200	12	-57.8		271	33	
2025-11-13T12:00	29250	12	-57.6		271	35	
2025-11-13T12:00	29300	12	-57.2		271	36	
2025-11-13T12:00	29350	12	-56.9		271	37	
2025-11-13T12:00	29400	12	-57.0		270	38	
2025-11-13T12:00	29450	12	-56.9		269	37	
2025-11-13T12:00	29500	12	-56.9		269	37	
2025-11-13T12:00	29550	11	-56.9		269	37	
2025-11-13T12:00	29600	11	-56.6		270	37	
2025-11-13T12:00	29650	11	-56.6		272	38	
2025-11-13T12:00	29700	11	-56.7		273	38	
2025-11-13T12:00	29750	11	-56.6		275	38	
2025-11-13T12:00	29800	11	-56.9		276	38	
2025-11-13T12:00	29850	11	-57.2		277	39	
2025-11-13T12:00	29900	11	-57.4		278	39	
2025-11-13T12:00	29950	11	-57.4		279	38	
2025-11-13T12:00	30000	11	-57.3		278	38	
2025-11-13T12:00	30050	11	-57.0		278	38	
2025-11-13T12:00	30100	11	-56.9		276	38	
2025-11-13T12:00	30150	10	-56.9		275	38	
2025-11-13T12:00	30200	10	-56.8		274	38	
2025-11-13T12:00	30250	10	-56.8		273	38	
2025-11-13T12:00	30300	10	-57.0		273	39	
2025-11-13T12:00	30350	10	-57.3		273	39	
2025-11-13T12:00	30400	10	-57.5		274	39	
2025-11-13T12:00	30450	10	-57.6		275	39	
2025-11-13T12:00	30500	10	-57.8		275	39	
2025-11-13T12:00	30550	10	-57.6		276	39	
2025-11-13T12:00	30600	10	-57.4		276	39	
2025-11-13T12:00	30650	10	-57.4		276	39	
2025-11-13T12:00	30700	10	-57.4		275	39	
2025-11-13T12:00	30750	9	-57.3		275	39	
2025-11-13T12:00	30800	9	-57.2		276	39	
2025-11-13T12:00	30850	9	-57.2		276	40	
2025-11-13T12:00	30900	9	-56.9		277	41	
2025-11-13T12:00	30950	9	-57.0		278	42	
2025-11-13T12:00	31000	9	-57.3		278	42	
2025-11-13T12:00	31050	9	-57.2		277	42	
2025-11-13T12:00	31100	9	-57.2		275	41	
2025-11-13T12:00	31150	9	-57.4		273	41	
2025-11-13T12:00	31200	9	-57.3		272	40	
2025-11-13T12:00	31250	9	-56.7		272	41	
2025-11-13T12:00	31300	9	-56.3		271	41	
2025-11-13T12:00	31350	9	-56.4		270	42	
2025-11-13T12:00	31400	9	-56.3		270	42	
2025-11-13T12:00	31450	8	-55.8		271	42	
2025-11-13T12:00	31500	8	-55.8		272	41	
2025-11-13T12:00	31550	8	-56.1		273	41	
2025-11-13T12:00	31600	8	-55.8		273	41	
2025-11-13T12:00	31650	8	-55.0		272	40	
2025-11-13T12:00	31700	8	-54.9		271	39	
2025-11-13T12:00	31750	8	-55.0		271	39	
2025-11-13T12:00	31800	8	-55.2		271	39	
2025-11-13T12:00	31850	8	-55.5		271	39	
2025-11-13T12:00	31900	8	-55.6		270	38	
2025-11-13T12:00	31950	8	-55.5		269	39	
2025-11-13T12:00	32000	8	-55.3		269	39	
2025-11-13T12:00	32050	8	-55.2		269	40	
2025-11-13T12:00	32100	8	-55.2		269	40	
2025-11-13T12:00	32150	8	-55.4		269	41	
2025-11-13T12:00	32200	8	-55.5		269	42	
2025-11-13T12:00	32250	7	-55.6		270	42	
2025-11-13T12:00	32300	7	-55.7		271	42	
2025-11-13T12:00	32350	7	-55.7		272	43	
2025-11-13T12:00	32400	7	-55.7		272	43	
2025-11-13T12:00	32450	7	-55.7		271	43	
2025-11-13T12:00	32500	7	-55.7		270	44	
2025-11-13T12:00	32550	7	-55.6		269	44	
2025-11-13T12:00	32600	7	-55.4		268	45	
2025-11-13T12:00	32650	7	-55.3		269	44	
2025-11-13T12:00	32700	7	-54.9		270	44	
2025-11-13T12:00	32750	7	-54.6		272	43	
2025-11-13T12:00	32800	7	-54.9		274	43	
2025-11-13T12:00	32850	7	-55.3		275	42	
2025-11-13T12:00	32900	7	-55.6		275	41	
2025-11-13T12:00	32950	7	-55.8		275	40	
2025-11-13T12:00	33000	7	-55.9		274	39	
2025-11-13T12:00	33050	7	-56.2		272	38	
2025-11-13T12:00	33100	7	-56.2		270	38	
2025-11-13T12:00	33150	6	-56.0		269	38	
2025-11-13T12:00	33200	6	-55.8		271	40	
2025-11-13T12:00	33250	6	-55.2		271	42	
2025-11-13T12:00	33300	6	-54.6		271	42	
2025-11-13T12:00	33350	6	-54.3		269	42	
2025-11-13T12:00	33400	6	-54.1		268	42	
2025-11-13T12:00	33450	6	-53.2		268	43	
2025-11-13T12:00	33500	6	-52.2		268	43	
2025-11-13T12:00	33550	6	-51.6		267	43	
2025-11-13T12:00	33600	6	-50.9		268	44	
2025-11-13T12:00	33650	6	-50.5		270	45	
2025-11-13T12:00	33700	6	-50.4		272	46	
2025-11-13T12:00	33750	6	-50.4		273	46	
2025-11-13T12:00	33800	6	-50.5		274	46	
2025-11-13T12:00	33850	6	-50.5		274	46	
2025-11-13T12:00	33900	6	-50.4		272	46	
2025-11-13T12:00	33950	6	-50.1		270	46	
2025-11-13T12:00	34000	6	-49.7		269	46	
2025-11-13T12:00	34050	6	-49.5		268	46	
2025-11-13T12:00	34100	6	-49.5		268	47	
2025-11-13T12:00	34150	6	-49.6		268	47	
2025-11-13T12:00	34200	6	-49.5		268	47	
2025-11-13T12:00	34250	5	-49.3		268	47	
2025-11-13T12:00	34300	5	-49.2		268	47	
2025-11-13T12:00	34350	5	-49.2		268	47	
2025-11-13T12:00	34400	5	-49.4		267	47	
2025-11-13T12:00	34450	5	-49.6		266	47	
2025-11-13T12:00	34500	5	-49.9		265	48	
2025-11-13T12:00	34550	5	-50.1		264	48	
2025-11-13T12:00	34600	5	-50.4		263	49	
2025-11-13T12:00	34650	5	-50.6		263	49	
2025-11-13T12:00	34700	5	-50.8		264	49	
2025-11-13T12:00	34750	5	-50.8		265	49	
2025-11-13T12:00	34800	5	-50.8		266	49	
2025-11-13T12:00	34850	5	-50.6		266	49	
2025-11-13T12:00	34900	5	-50.0		265	48	
2025-11-13T12:00	34950	5	-49.1		264	48	
2025-11-13T12:00	35000	5	-48.5		263	47	
2025-11-13T12:00	35050	5	-48.4		262	47	
2025-11-13T12:00	35100	5	-48.6		261	48	
2025-11-13T12:00	35150	5	-48.8		262	48	
2025-11-13T12:00	35200	5	-49.1		263	48	
2025-11-13T12:00	35250	5	-49.4		263	48	
2025-11-13T12:00	35300	5	-49.5		264	48	
2025-11-13T12:00	35350	5	-49.8		264	48	
2025-11-13T12:00	35400	5	-49.7		265	49	
2025-11-13T12:00	35450	5	-49.5		267	49	
2025-11-13T12:00	35500	5	-49.2		267	50	
2025-11-13T12:00	35550	4	-48.9		267	49	
2025-11-13T12:00	35600	4	-48.4		266	49	
2025-11-13T12:00	35650	4	-47.9		264	49	
2025-11-13T12:00	35700	4	-47.7		263	51	
2025-11-13T12:00	35750	4	-47.6		263	52	
2025-11-13T12:00	35800	4	-47.3		264	54	
2025-11-13T12:00	35850	4	-47.2		264	55	
2025-11-13T12:00	35900	4	-47.1		264	56	
2025-11-13T12:00	35950	4	-46.9		265	56	
2025-11-13T12:00	36000	4	-46.7		267	57	
2025-11-13T12:00	36050	4	-46.6		268	58	
2025-11-13T12:00	36100	4	-46.6		269	59	
2025-11-13T12:00	36150	4	-46.5		271	59	
2025-11-13T12:00	36200	4	-46.1		272	60	
2025-11-13T12:00	36250	4	-46.0		272	60	
2025-11-13T12:00	36300	4	-45.8		273	60	
2025-11-13T12:00	36350	4	-45.3		273	60	
2025-11-13T12:00	36400	4	-45.1		272	60	
2025-11-13T12:00	36450	4	-44.8		271	59	
2025-11-13T12:00	36500	4	-44.3		269	58	
2025-11-13T12:00	36550	4	-44.1		268	57	
2025-11-14T00:00	491	959	5.8	4.0	203	1	
2025-11-14T00:00	501	957	7.5	3.6	180	1	
2025-11-14T00:00	520	956	9.7	3.6	179	1	
2025-11-14T00:00	540	953	11.1	3.4	184	2	
2025-11-14T00:00	560	951	11.7	3.5	190	2	
2025-11-14T00:00	580	949	11.9	3.7	198	2	
2025-11-14T00:00	600	947	12.0	3.7	206	2	
2025-11-14T00:00	620	945	12.2	3.6	213	2	
2025-11-14T00:00	640	942	12.2	3.5	221	2	
2025-11-14T00:00	660	940	13.1	3.5	228	2	
2025-11-14T00:00	680	938	13.7	4.0	234	2	
2025-11-14T00:00	700	935	13.8	4.1	239	2	
2025-11-14T00:00	720	933	13.8	4.2	243	1	
2025-11-14T00:00	740	931	13.8	4.0	246	1	
2025-11-14T00:00	760	929	13.6	3.8	244	1	
2025-11-14T00:00	780	926	13.5	3.7	229	0	
2025-11-14T00:00	800	924	13.3	3.5	195	0	
2025-11-14T00:00	820	922	13.2	3.4	184	0	
2025-11-14T00:00	840	920	13.0	3.3	195	1	
2025-11-14T00:00	860	918	13.0	2.6	211	1	
2025-11-14T00:00	880	916	13.0	2.2	222	2	
2025-11-14T00:00	900	913	13.0	1.7	228	3	
2025-11-14T00:00	920	911	13.0	1.5	231	4	
2025-11-14T00:00	940	909	13.0	1.3	231	5	
2025-11-14T00:00	960	907	13.2	1.3	230	6	
2025-11-14T00:00	980	905	13.4	1.2	228	6	
2025-11-14T00:00	1000	903	13.5	1.0	226	7	
2025-11-14T00:00	1020	901	13.6	0.5	223	8	
2025-11-14T00:00	1040	898	14.3	-0.6	219	9	
2025-11-14T00:00	1060	896	14.9	-1.5	217	9	
2025-11-14T00:00	1080	894	15.0	-1.8	214	9	
2025-11-14T00:00	1100	892	15.0	-1.8	212	9	
2025-11-14T00:00	1120	890	14.8	-1.9	211	9	
2025-11-14T00:00	1140	888	14.6	-1.9	210	9	
2025-11-14T00:00	1160	886	14.4	-2.0	209	10	
2025-11-14T00:00	1180	883	14.2	-2.0	208	10	
2025-11-14T00:00	1200	881	14.1	-2.0	207	10	
2025-11-14T00:00	1220	879	14.0	-2.2	206	10	
2025-11-14T00:00	1240	877	14.1	-2.5	204	10	
2025-11-14T00:00	1260	875	14.2	-2.8	200	9	
2025-11-14T00:00	1280	873	14.7	-3.4	196	9	
2025-11-14T00:00	1300	871	15.0	-3.7	192	9	
2025-11-14T00:00	1320	869	15.4	-4.3	191	9	
2025-11-14T00:00	1340	867	16.2	-4.8	190	10	
2025-11-14T00:00	1360	865	16.3	-4.7	190	11	
2025-11-14T00:00	1380	863	16.2	-4.8	191	11	
2025-11-14T00:00	1400	861	16.2	-4.9	191	11	
2025-11-14T00:00	1420	859	16.1	-5.0	191	12	
2025-11-14T00:00	1440	857	15.9	-5.0	190	12	
2025-11-14T00:00	1460	855	15.7	-5.1	190	12	
2025-11-14T00:00	1480	853	15.5	-5.1	190	12	
2025-11-14T00:00	1500	851	15.4	-5.2	191	12	
2025-11-14T00:00	1520	849	15.2	-5.1	191	12	
2025-11-14T00:00	1540	847	15.1	-5.1	193	12	
2025-11-14T00:00	1560	845	15.0	-5.1	195	12	
2025-11-14T00:00	1580	843	14.8	-5.1	196	12	
2025-11-14T00:00	1600	841	14.6	-5.1	197	12	
2025-11-14T00:00	1620	839	14.5	-5.0	198	12	
2025-11-14T00:00	1640	837	14.3	-4.9	199	12	
2025-11-14T00:00	1660	835	14.1	-4.9	199	11	
2025-11-14T00:00	1680	833	13.9	-4.9	200	11	
2025-11-14T00:00	1700	831	13.7	-5.1	201	11	
2025-11-14T00:00	1720	829	13.5	-5.0	201	11	
2025-11-14T00:00	1740	827	13.4	-5.0	203	11	
2025-11-14T00:00	1760	825	13.2	-5.0	204	12	
2025-11-14T00:00	1780	823	13.0	-5.0	206	12	
2025-11-14T00:00	1800	821	12.8	-5.0	208	12	
2025-11-14T00:00	1820	819	12.6	-5.0	210	13	
2025-11-14T00:00	1840	817	12.5	-5.0	212	13	
2025-11-14T00:00	1860	815	12.4	-4.9	215	14	
2025-11-14T00:00	1880	813	12.2	-4.9	217	14	
2025-11-14T00:00	1900	811	12.0	-4.9	219	15	
2025-11-14T00:00	1920	809	11.9	-5.0	219	15	
2025-11-14T00:00	1940	807	11.7	-4.9	219	15	
2025-11-14T00:00	1960	805	11.6	-4.9	219	15	
2025-11-14T00:00	1980	803	11.4	-4.9	218	15	
2025-11-14T00:00	2000	802	11.2	-4.9	218	15	
2025-11-14T00:00	2020	800	11.0	-4.8	218	16	
2025-11-14T00:00	2040	798	10.9	-4.9	219	16	
2025-11-14T00:00	2060	796	10.7	-5.0	220	16	
2025-11-14T00:00	2080	794	10.5	-4.9	221	17	
2025-11-14T00:00	2100	792	10.4	-4.9	221	17	
2025-11-14T00:00	2120	790	10.2	-4.9	221	17	
2025-11-14T00:00	2140	788	10.0	-4.9	221	18	
2025-11-14T00:00	2160	786	9.8	-4.9	222	18	
2025-11-14T00:00	2180	785	9.7	-5.0	222	18	
2025-11-14T00:00	2200	783	9.6	-4.9	221	19	
2025-11-14T00:00	2220	781	9.4	-4.9	221	19	
2025-11-14T00:00	2240	779	9.2	-4.9	221	20	
2025-11-14T00:00	2260	777	9.0	-4.9	221	20	
2025-11-14T00:00	2280	775	8.9	-4.8	222	20	
2025-11-14T00:00	2300	773	8.7	-4.8	223	20	
2025-11-14T00:00	2320	771	8.5	-4.8	224	20	
2025-11-14T00:00	2340	769	8.4	-4.8	226	19	
2025-11-14T00:00	2360	767	8.2	-4.7	227	19	
2025-11-14T00:00	2380	765	8.1	-5.0	227	18	
2025-11-14T00:00	2400	764	8.0	-5.2	227	18	
2025-11-14T00:00	2420	762	7.9	-5.5	227	18	
2025-11-14T00:00	2440	760	7.8	-5.8	226	18	
2025-11-14T00:00	2460	758	7.6	-6.1	224	18	
2025-11-14T00:00	2480	756	7.6	-6.4	223	18	
2025-11-14T00:00	2500	755	7.5	-6.9	222	18	
2025-11-14T00:00	2520	753	7.4	-7.4	222	18	
2025-11-14T00:00	2540	751	7.2	-7.5	223	18	
2025-11-14T00:00	2560	749	7.0	-7.6	224	18	
2025-11-14T00:00	2580	747	6.9	-8.0	225	18	
2025-11-14T00:00	2600	746	6.7	-8.2	226	18	
2025-11-14T00:00	2620	744	6.5	-8.6	227	18	
2025-11-14T00:00	2640	742	6.3	-8.5	228	18	
2025-11-14T00:00	2660	740	6.1	-8.4	228	17	
2025-11-14T00:00	2680	738	6.0	-8.4	228	17	
2025-11-14T00:00	2700	737	5.8	-8.4	227	17	
2025-11-14T00:00	2720	735	5.6	-8.5	227	17	
2025-11-14T00:00	2740	733	5.4	-8.5	227	17	
2025-11-14T00:00	2760	731	5.2	-8.5	226	17	
2025-11-14T00:00	2780	729	5.0	-8.5	226	17	
2025-11-14T00:00	2800	727	4.8	-8.6	225	16	
2025-11-14T00:00	2820	726	4.7	-8.9	225	16	
2025-11-14T00:00	2840	724	4.5	-9.3	224	16	
2025-11-14T00:00	2860	722	4.4	-9.6	223	15	
2025-11-14T00:00	2880	720	4.2	-9.9	223	15	
2025-11-14T00:00	2900	719	4.1	-10.5	222	15	
2025-11-14T00:00	2920	717	3.9	-10.8	221	15	
2025-11-14T00:00	2940	715	3.8	-11.4	221	15	
2025-11-14T00:00	2960	713	3.6	-11.7	221	15	
2025-11-14T00:00	2980	712	3.5	-12.5	221	15	
2025-11-14T00:00	3000	710	3.5	-13.2	220	14	
2025-11-14T00:00	3020	708	3.3	-13.3	220	14	
2025-11-14T00:00	3040	706	3.1	-13.1	219	14	
2025-11-14T00:00	3060	704	2.9	-12.8	219	14	
2025-11-14T00:00	3080	703	2.8	-12.8	218	14	
2025-11-14T00:00	3100	701	2.6	-12.6	217	14	
2025-11-14T00:00	3120	700	2.4	-12.3	216	14	
2025-11-14T00:00	3140	698	2.2	-12.2	216	14	
2025-11-14T00:00	3160	696	2.1	-12.5	215	13	
2025-11-14T00:00	3180	694	2.0	-13.3	215	13	
2025-11-14T00:00	3200	692	1.9	-13.5	213	13	
2025-11-14T00:00	3220	691	1.7	-13.7	212	13	
2025-11-14T00:00	3240	689	1.6	-13.9	211	13	
2025-11-14T00:00	3260	687	1.5	-13.6	210	12	
2025-11-14T00:00	3280	685	1.4	-13.4	209	12	
2025-11-14T00:00	3300	684	1.2	-12.9	209	12	
2025-11-14T00:00	3320	682	1.1	-12.4	209	11	
2025-11-14T00:00	3340	680	0.9	-12.1	208	11	
2025-11-14T00:00	3360	679	0.7	-12.1	208	11	
2025-11-14T00:00	3380	677	0.5	-12.1	207	11	
2025-11-14T00:00	3400	675	0.3	-11.8	206	11	
2025-11-14T00:00	3420	674	0.1	-11.6	206	11	
2025-11-14T00:00	3440	672	-0.1	-9.9	206	11	
2025-11-14T00:00	3460	670	-0.3	-9.7	207	11	
2025-11-14T00:00	3480	669	-0.5	-9.1	208	12	
2025-11-14T00:00	3500	667	-0.6	-8.8	209	12	
2025-11-14T00:00	3520	665	-0.8	-8.7	210	12	
2025-11-14T00:00	3540	664	-1.0	-9.0	211	12	
2025-11-14T00:00	3560	662	-1.1	-9.2	212	12	
2025-11-14T00:00	3580	660	-1.2	-9.3	213	12	
2025-11-14T00:00	3600	659	-1.4	-10.3	215	12	
2025-11-14T00:00	3620	657	-1.4	-10.7	217	12	
2025-11-14T00:00	3640	655	-1.5	-11.2	218	12	
2025-11-14T00:00	3660	654	-1.6	-11.9	219	12	
2025-11-14T00:00	3680	652	-1.7	-13.0	220	12	
2025-11-14T00:00	3700	651	-1.7	-15.0	220	12	
2025-11-14T00:00	3720	649	-1.8	-15.6	220	11	
2025-11-14T00:00	3740	647	-1.9	-15.8	219	11	
2025-11-14T00:00	3760	646	-2.0	-16.3	218	11	
2025-11-14T00:00	3780	644	-2.2	-16.5	218	11	
2025-11-14T00:00	3800	642	-2.4	-16.4	218	11	
2025-11-14T00:00	3820	641	-2.6	-16.6	219	12	
2025-11-14T00:00	3840	639	-2.7	-16.6	220	12	
2025-11-14T00:00	3860	638	-3.0	-16.7	220	12	
2025-11-14T00:00	3880	636	-3.1	-17.1	221	12	
2025-11-14T00:00	3900	634	-3.1	-18.1	221	12	
2025-11-14T00:00	3920	633	-3.1	-19.0	221	12	
2025-11-14T00:00	3940	631	-3.2	-19.0	221	13	
2025-11-14T00:00	3960	630	-3.3	-19.0	221	13	
2025-11-14T00:00	3980	628	-3.4	-20.0	223	13	
2025-11-14T00:00	4000	626	-3.4	-21.7	224	13	
2025-11-14T00:00	4020	625	-3.3	-22.9	225	13	
2025-11-14T00:00	4040	623	-3.4	-23.6	226	13	
2025-11-14T00:00	4060	622	-3.5	-24.1	227	13	
2025-11-14T00:00	4080	620	-3.7	-24.3	229	14	
2025-11-14T00:00	4100	618	-3.8	-24.5	229	14	
2025-11-14T00:00	4120	617	-4.0	-24.6	229	14	
2025-11-14T00:00	4140	615	-4.2	-24.7	229	14	
2025-11-14T00:00	4160	614	-4.4	-25.0	229	14	
2025-11-14T00:00	4180	612	-4.5	-25.4	230	15	
2025-11-14T00:00	4200	611	-4.6	-26.1	230	15	
2025-11-14T00:00	4220	609	-4.7	-26.8	230	14	
2025-11-14T00:00	4240	608	-4.7	-25.6	230	14	
2025-11-14T00:00	4260	606	-4.8	-24.9	230	14	
2025-11-14T00:00	4280	605	-5.0	-24.4	228	13	
2025-11-14T00:00	4300	603	-5.1	-23.8	227	12	
2025-11-14T00:00	4320	602	-5.3	-23.5	225	11	
2025-11-14T00:00	4340	600	-5.4	-23.1	224	11	
2025-11-14T00:00	4360	598	-5.5	-22.9	222	10	
2025-11-14T00:00	4380	597	-5.6	-22.7	221	10	
2025-11-14T00:00	4400	595	-5.7	-22.5	220	10	
2025-11-14T00:00	4420	594	-5.9	-22.5	220	10	
2025-11-14T00:00	4440	592	-6.1	-22.5	219	9	
2025-11-14T00:00	4460	591	-6.2	-22.5	220	9	
2025-11-14T00:00	4480	589	-6.4	-22.5	220	9	
2025-11-14T00:00	4500	588	-6.6	-22.6	221	9	
2025-11-14T00:00	4520	586	-6.7	-22.8	222	9	
2025-11-14T00:00	4540	585	-6.3	-23.3	222	9	
2025-11-14T00:00	4560	583	-6.2	-24.2	222	9	
2025-11-14T00:00	4580	582	-6.2	-24.7	222	10	
2025-11-14T00:00	4600	580	-6.2	-25.7	222	10	
2025-11-14T00:00	4620	579	-6.3	-26.0	223	11	
2025-11-14T00:00	4640	577	-6.4	-26.9	224	11	
2025-11-14T00:00	4660	576	-6.5	-27.7	226	11	
2025-11-14T00:00	4680	574	-6.6	-27.7	227	12	
2025-11-14T00:00	4700	573	-6.7	-27.9	228	12	
2025-11-14T00:00	4720	571	-6.8	-28.3	229	12	
2025-11-14T00:00	4740	570	-6.9	-28.8	229	13	
2025-11-14T00:00	4760	569	-7.0	-29.1	229	13	
2025-11-14T00:00	4780	567	-7.1	-29.6	228	14	
2025-11-14T00:00	4800	566	-7.2	-30.3	227	14	
2025-11-14T00:00	4820	564	-7.3	-31.1	226	15	
2025-11-14T00:00	4840	563	-7.5	-31.5	225	15	
2025-11-14T00:00	4860	561	-7.6	-32.2	225	16	
2025-11-14T00:00	4880	560	-7.6	-33.2	226	16	
2025-11-14T00:00	4900	558	-7.6	-34.7	227	16	
2025-11-14T00:00	4920	557	-7.6	-34.7	227	16	
2025-11-14T00:00	4940	555	-7.7	-33.4	228	16	
2025-11-14T00:00	4960	554	-7.7	-32.8	228	15	
2025-11-14T00:00	4980	553	-7.7	-32.8	228	15	
2025-11-14T00:00	5000	551	-7.7	-32.7	228	15	
2025-11-14T00:00	5020	550	-7.7	-32.5	228	15	
2025-11-14T00:00	5040	548	-7.7	-32.4	228	14	
2025-11-14T00:00	5060	547	-7.8	-32.6	228	14	
2025-11-14T00:00	5080	546	-8.0	-33.1	229	14	
2025-11-14T00:00	5100	544	-8.1	-32.9	230	14	
2025-11-14T00:00	5120	543	-8.3	-33.1	232	14	
2025-11-14T00:00	5140	541	-8.5	-33.9	233	14	
2025-11-14T00:00	5160	540	-8.7	-35.2	234	14	
2025-11-14T00:00	5180	539	-8.8	-35.5	235	14	
2025-11-14T00:00	5200	537	-9.0	-35.8	236	14	
2025-11-14T00:00	5220	536	-9.2	-35.9	236	14	
2025-11-14T00:00	5240	534	-9.4	-36.1	236	14	
2025-11-14T00:00	5260	533	-9.5	-36.3	236	15	
2025-11-14T00:00	5280	532	-9.7	-36.4	236	15	
2025-11-14T00:00	5300	530	-9.9	-36.6	236	15	
2025-11-14T00:00	5320	529	-10.1	-37.1	236	15	
2025-11-14T00:00	5340	527	-10.2	-37.7	236	16	
2025-11-14T00:00	5360	526	-10.3	-38.1	236	16	
2025-11-14T00:00	5380	525	-10.5	-38.5	236	16	
2025-11-14T00:00	5400	523	-10.6	-37.9	235	15	
2025-11-14T00:00	5420	522	-10.7	-35.9	235	15	
2025-11-14T00:00	5440	521	-10.8	-35.2	234	15	
2025-11-14T00:00	5460	520	-11.0	-35.5	233	15	
2025-11-14T00:00	5480	518	-11.2	-35.6	232	15	
2025-11-14T00:00	5500	517	-11.3	-35.5	232	15	
2025-11-14T00:00	5520	515	-11.5	-35.1	231	15	
2025-11-14T00:00	5540	514	-11.7	-34.8	231	16	
2025-11-14T00:00	5560	513	-11.9	-34.2	231	16	
2025-11-14T00:00	5580	511	-12.1	-33.8	231	16	
2025-11-14T00:00	5600	510	-12.2	-34.1	231	17	
2025-11-14T00:00	5620	509	-12.4	-34.3	232	17	
2025-11-14T00:00	5640	507	-12.6	-34.7	232	17	
2025-11-14T00:00	5660	506	-12.7	-34.9	232	16	
2025-11-14T00:00	5680	505	-12.9	-34.9	233	16	
2025-11-14T00:00	5700	503	-13.1	-34.5	233	16	
2025-11-14T00:00	5720	502	-13.2	-34.2	234	16	
2025-11-14T00:00	5740	501	-13.4	-34.1	234	16	
2025-11-14T00:00	5760	499	-13.5	-34.0	233	16	
2025-11-14T00:00	5780	498	-13.7	-34.0	233	16	
2025-11-14T00:00	5800	497	-13.9	-34.0	232	16	
2025-11-14T00:00	5820	495	-14.1	-34.0	231	16	
2025-11-14T00:00	5840	494	-14.2	-34.2	231	16	
2025-11-14T00:00	5860	493	-14.4	-34.4	231	16	
2025-11-14T00:00	5880	491	-14.5	-34.4	231	16	
2025-11-14T00:00	5900	490	-14.7	-34.3	230	16	
2025-11-14T00:00	5920	489	-14.9	-34.5	230	16	
2025-11-14T00:00	5940	488	-15.1	-34.5	230	16	
2025-11-14T00:00	5960	486	-15.2	-34.5	229	15	
2025-11-14T00:00	5980	485	-15.4	-34.6	229	15	
2025-11-14T00:00	6000	484	-15.6	-34.6	229	15	
2025-11-14T00:00	6020	483	-15.7	-34.6	229	15	
2025-11-14T00:00	6040	481	-15.9	-34.6	230	15	
2025-11-14T00:00	6060	480	-16.1	-34.7	230	15	
2025-11-14T00:00	6080	479	-16.3	-34.7	231	15	
2025-11-14T00:00	6100	477	-16.4	-34.8	231	15	
2025-11-14T00:00	6120	476	-16.6	-35.0	231	15	
2025-11-14T00:00	6140	475	-16.8	-35.0	230	15	
2025-11-14T00:00	6160	474	-16.9	-34.8	229	15	
2025-11-14T00:00	6180	472	-17.1	-34.8	228	15	
2025-11-14T00:00	6200	471	-17.3	-34.7	228	15	
2025-11-14T00:00	6220	470	-17.4	-34.6	227	16	
2025-11-14T00:00	6240	469	-17.6	-34.6	227	16	
2025-11-14T00:00	6260	467	-17.7	-34.7	227	16	
2025-11-14T00:00	6280	466	-17.9	-34.7	227	16	
2025-11-14T00:00	6300	465	-18.1	-34.7	228	16	
2025-11-14T00:00	6320	464	-18.3	-34.8	229	16	
2025-11-14T00:00	6340	462	-18.5	-34.8	229	16	
2025-11-14T00:00	6360	461	-18.7	-34.8	230	15	
2025-11-14T00:00	6380	460	-18.9	-34.6	230	15	
2025-11-14T00:00	6400	459	-19.0	-34.5	230	15	
2025-11-14T00:00	6420	457	-19.2	-34.7	230	15	
2025-11-14T00:00	6440	456	-19.4	-34.6	229	14	
2025-11-14T00:00	6460	455	-19.6	-34.7	228	14	
2025-11-14T00:00	6480	454	-19.8	-34.8	227	14	
2025-11-14T00:00	6500	452	-20.0	-35.0	226	14	
2025-11-14T00:00	6520	451	-20.1	-35.0	224	14	
2025-11-14T00:00	6540	450	-20.3	-35.1	223	14	
2025-11-14T00:00	6560	449	-20.5	-35.1	222	14	
2025-11-14T00:00	6580	448	-20.7	-35.0	222	14	
2025-11-14T00:00	6600	446	-20.9	-35.0	222	15	
2025-11-14T00:00	6620	445	-21.1	-35.2	222	15	
2025-11-14T00:00	6640	444	-21.3	-35.4	223	15	
2025-11-14T00:00	6660	443	-21.5	-35.3	225	15	
2025-11-14T00:00	6680	442	-21.6	-35.4	226	15	
2025-11-14T00:00	6700	440	-21.8	-35.4	227	15	
2025-11-14T00:00	6720	439	-22.0	-35.4	228	15	
2025-11-14T00:00	6740	438	-22.2	-35.6	229	15	
2025-11-14T00:00	6760	437	-22.4	-35.6	229	15	
2025-11-14T00:00	6780	436	-22.6	-35.4	230	15	
2025-11-14T00:00	6800	434	-22.8	-35.3	230	15	
2025-11-14T00:00	6820	433	-23.0	-35.3	230	14	
2025-11-14T00:00	6840	432	-23.2	-35.5	230	14	
2025-11-14T00:00	6860	431	-23.3	-35.4	230	14	
2025-11-14T00:00	6880	430	-23.5	-35.4	231	14	
2025-11-14T00:00	6900	428	-23.7	-35.5	231	14	
2025-11-14T00:00	6920	427	-23.8	-35.6	231	14	
2025-11-14T00:00	6940	426	-24.0	-35.7	230	14	
2025-11-14T00:00	6960	425	-24.2	-35.7	230	15	
2025-11-14T00:00	6980	424	-24.4	-36.0	230	15	
2025-11-14T00:00	7000	423	-24.6	-36.4	230	15	
2025-11-14T00:00	7020	422	-24.7	-36.6	230	15	
2025-11-14T00:00	7040	420	-24.8	-36.4	230	16	
2025-11-14T00:00	7060	419	-24.9	-36.3	230	16	
2025-11-14T00:00	7080	418	-25.1	-36.2	230	16	
2025-11-14T00:00	7100	417	-25.3	-36.1	230	16	
2025-11-14T00:00	7120	416	-25.4	-36.5	230	16	
2025-11-14T00:00	7140	415	-25.6	-36.7	229	16	
2025-11-14T00:00	7160	413	-25.8	-36.9	229	16	
2025-11-14T00:00	7180	412	-25.9	-37.0	228	16	
2025-11-14T00:00	7200	411	-26.1	-37.0	228	16	
2025-11-14T00:00	7220	410	-26.3	-37.1	228	16	
2025-11-14T00:00	7240	409	-26.5	-37.2	228	15	
2025-11-14T00:00	7260	408	-26.7	-37.1	229	15	
2025-11-14T00:00	7280	407	-26.9	-37.3	229	15	
2025-11-14T00:00	7300	406	-27.0	-37.2	230	16	
2025-11-14T00:00	7320	404	-27.2	-37.7	230	16	
2025-11-14T00:00	7340	403	-27.3	-39.1	230	16	
2025-11-14T00:00	7360	402	-27.3	-39.5	230	16	
2025-11-14T00:00	7380	401	-27.4	-39.9	230	16	
2025-11-14T00:00	7400	400	-27.5	-39.9	230	16	
2025-11-14T00:00	7420	399	-27.7	-39.9	231	16	
2025-11-14T00:00	7440	398	-27.8	-38.8	232	16	
2025-11-14T00:00	7460	397	-28.0	-38.0	233	16	
2025-11-14T00:00	7480	396	-28.1	-37.7	233	16	
2025-11-14T00:00	7500	394	-28.2	-39.8	234	16	
2025-11-14T00:00	7520	393	-28.2	-40.7	236	15	
2025-11-14T00:00	7540	392	-28.2	-40.4	236	15	
2025-11-14T00:00	7560	391	-28.3	-40.3	236	15	
2025-11-14T00:00	7580	390	-28.4	-40.1	236	15	
2025-11-14T00:00	7600	389	-28.5	-40.3	235	15	
2025-11-14T00:00	7620	388	-28.6	-40.3	234	15	
2025-11-14T00:00	7640	387	-28.8	-40.4	233	15	
2025-11-14T00:00	7660	386	-29.0	-40.2	232	15	
2025-11-14T00:00	7680	385	-29.2	-40.1	232	15	
2025-11-14T00:00	7700	384	-29.3	-39.9	231	15	
2025-11-14T00:00	7720	383	-29.5	-39.8	231	15	
2025-11-14T00:00	7740	381	-29.7	-39.9	231	15	
2025-11-14T00:00	7760	380	-29.8	-39.9	231	15	
2025-11-14T00:00	7780	379	-30.0	-39.5	231	14	
2025-11-14T00:00	7800	378	-30.1	-39.5	231	14	
2025-11-14T00:00	7820	377	-30.3	-39.6	231	14	
2025-11-14T00:00	7840	376	-30.5	-39.4	231	13	
2025-11-14T00:00	7860	375	-30.7	-39.2	230	13	
2025-11-14T00:00	7880	374	-30.8	-39.3	229	12	
2025-11-14T00:00	7900	373	-31.0	-39.3	228	12	
2025-11-14T00:00	7920	372	-31.2	-39.4	227	12	
2025-11-14T00:00	7940	371	-31.4	-39.5	226	12	
2025-11-14T00:00	7960	370	-31.6	-39.8	225	12	
2025-11-14T00:00	7980	369	-31.8	-39.7	225	13	
2025-11-14T00:00	8000	368	-31.9	-39.5	224	13	
2025-11-14T00:00	8020	367	-32.1	-39.5	224	13	
2025-11-14T00:00	8040	366	-32.3	-39.4	224	14	
2025-11-14T00:00	8060	365	-32.5	-39.6	225	14	
2025-11-14T00:00	8080	364	-32.7	-39.7	225	14	
2025-11-14T00:00	8100	362	-32.9	-39.6	225	14	
2025-11-14T00:00	8120	361	-33.1	-39.7	224	14	
2025-11-14T00:00	8140	360	-33.3	-39.7	224	14	
2025-11-14T00:00	8160	359	-33.5	-39.6	224	14	
2025-11-14T00:00	8180	358	-33.6	-39.2	224	14	
2025-11-14T00:00	8200	357	-33.7	-38.9	225	14	
2025-11-14T00:00	8220	356	-33.8	-39.2	225	14	
2025-11-14T00:00	8240	355	-34.0	-39.6	225	14	
2025-11-14T00:00	8260	354	-34.1	-39.2	227	13	
2025-11-14T00:00	8280	353	-34.2	-39.3	229	13	
2025-11-14T00:00	8300	352	-34.4	-39.4	231	13	
2025-11-14T00:00	8320	351	-34.5	-39.6	233	13	
2025-11-14T00:00	8340	350	-34.7	-39.7	235	13	
2025-11-14T00:00	8360	349	-34.8	-39.6	236	13	
2025-11-14T00:00	8380	348	-35.0	-39.9	237	12	
2025-11-14T00:00	8400	347	-35.2	-40.2	238	13	
2025-11-14T00:00	8420	346	-35.3	-40.2	239	13	
2025-11-14T00:00	8440	345	-35.5	-40.1	240	13	
2025-11-14T00:00	8460	344	-35.7	-40.2	240	13	
2025-11-14T00:00	8480	343	-35.9	-40.4	241	14	
2025-11-14T00:00	8500	342	-36.0	-40.6	241	14	
2025-11-14T00:00	8520	341	-36.2	-40.6	242	14	
2025-11-14T00:00	8540	340	-36.4	-40.7	242	14	
2025-11-14T00:00	8560	339	-36.6	-40.8	243	15	
2025-11-14T00:00	8580	338	-36.6	-42.1	244	15	
2025-11-14T00:00	8600	337	-36.6	-43.9	245	15	
2025-11-14T00:00	8620	336	-36.7	-44.3	246	15	
2025-11-14T00:00	8640	335	-36.8	-44.4	246	15	
2025-11-14T00:00	8660	335	-37.0	-44.3	247	15	
2025-11-14T00:00	8680	333	-37.2	-44.3	247	15	
2025-11-14T00:00	8700	333	-37.4	-44.3	247	15	
2025-11-14T00:00	8720	332	-37.6	-44.3	247	15	
2025-11-14T00:00	8740	331	-37.8	-44.4	247	15	
2025-11-14T00:00	8760	330	-38.0	-44.4	246	15	
2025-11-14T00:00	8780	329	-38.2	-44.5	246	15	
2025-11-14T00:00	8800	328	-38.4	-44.5	247	14	
2025-11-14T00:00	8820	327	-38.6	-44.5	247	14	
2025-11-14T00:00	8840	326	-38.8	-44.6	247	14	
2025-11-14T00:00	8860	325	-39.0	-44.6	248	14	
2025-11-14T00:00	8880	324	-39.2	-44.7	249	14	
2025-11-14T00:00	8900	323	-39.4	-44.7	249	14	
2025-11-14T00:00	8920	322	-39.6	-44.8	250	14	
2025-11-14T00:00	8940	321	-39.8	-44.8	251	15	
2025-11-14T00:00	8960	320	-40.0	-44.8	252	15	
2025-11-14T00:00	8980	319	-40.1	-45.2	252	15	
2025-11-14T00:00	9000	318	-40.3	-46.1	253	15	
2025-11-14T00:00	9020	317	-40.4	-47.1	253	15	
2025-11-14T00:00	9040	316	-40.5	-48.2	253	15	
2025-11-14T00:00	9060	316	-40.7	-49.1	253	15	
2025-11-14T00:00	9080	315	-40.8	-49.3	253	15	
2025-11-14T00:00	9100	314	-40.9	-48.9	253	14	
2025-11-14T00:00	9120	313	-41.1	-48.4	254	14	
2025-11-14T00:00	9140	312	-41.3	-48.5	255	14	
2025-11-14T00:00	9160	311	-41.4	-48.7	255	14	
2025-11-14T00:00	9180	310	-41.6	-48.7	255	14	
2025-11-14T00:00	9200	309	-41.8	-48.8	254	14	
2025-11-14T00:00	9220	308	-42.0	-48.9	254	14	
2025-11-14T00:00	9240	307	-42.2	-48.9	253	14	
2025-11-14T00:00	9260	306	-42.4	-49.0	253	14	
2025-11-14T00:00	9280	306	-42.5	-49.2	252	14	
2025-11-14T00:00	9300	305	-42.7	-49.4	252	14	
2025-11-14T00:00	9320	304	-42.9	-49.6	251	14	
2025-11-14T00:00	9340	303	-43.0	-50.5	251	14	
2025-11-14T00:00	9360	302	-43.2	-51.1	251	14	
2025-11-14T00:00	9380	301	-43.3	-50.8	251	14	
2025-11-14T00:00	9400	300	-43.5	-50.7	251	13	
2025-11-14T00:00	9420	299	-43.7	-50.4	251	13	
2025-11-14T00:00	9440	298	-43.9	-50.5	252	13	
2025-11-14T00:00	9460	297	-44.1	-50.0	253	13	
2025-11-14T00:00	9480	297	-44.3	-50.2	253	14	
2025-11-14T00:00	9500	296	-44.5	-51.4	254	14	
2025-11-14T00:00	9520	295	-44.6	-51.1	255	14	
2025-11-14T00:00	9540	294	-44.7	-53.0	255	14	
2025-11-14T00:00	9560	293	-44.8	-55.5	255	14	
2025-11-14T00:00	9580	292	-45.0	-55.2	255	14	
2025-11-14T00:00	9600	291	-45.2	-55.2	254	14	
2025-11-14T00:00	9620	290	-45.4	-55.2	254	14	
2025-11-14T00:00	9640	290	-45.5	-55.8	254	14	
2025-11-14T00:00	9660	289	-45.7	-56.6	254	14	
2025-11-14T00:00	9680	288	-45.8	-57.4	254	15	
2025-11-14T00:00	9700	287	-45.9	-58.5	255	15	
2025-11-14T00:00	9720	286	-46.0	-59.6	255	15	
2025-11-14T00:00	9740	285	-46.1	-60.1	255	15	
2025-11-14T00:00	9760	284	-46.3	-60.4	256	15	
2025-11-14T00:00	9780	284	-46.4	-61.1	256	15	
2025-11-14T00:00	9800	283	-46.5	-63.2	258	15	
2025-11-14T00:00	9820	282	-46.5	-65.5	259	15	
2025-11-14T00:00	9840	281	-46.6	-65.0	261	16	
2025-11-14T00:00	9860	280	-46.8	-63.9	262	16	
2025-11-14T00:00	9880	279	-47.0	-63.3	264	16	
2025-11-14T00:00	9900	278	-47.0	-63.1	265	16	
2025-11-14T00:00	9920	278	-47.2	-63.0	265	16	
2025-11-14T00:00	9940	277	-47.4	-63.0	266	16	
2025-11-14T00:00	9960	276	-47.5	-62.9	267	16	
2025-11-14T00:00	9980	275	-47.7	-62.9	267	16	
2025-11-14T00:00	10000	274	-47.9	-62.7	268	17	
2025-11-14T00:00	10018	273	-48.1	-62.6	268	17	
2025-11-14T00:00	10050	272	-48.4	-62.6	269	17	
2025-11-14T00:00	10100	270	-48.9	-62.3	269	17	
2025-11-14T00:00	10150	268	-49.4	-62.7	269	17	
2025-11-14T00:00	10200	266	-49.8	-62.3	272	18	
2025-11-14T00:00	10250	264	-50.3	-62.8	274	18	
2025-11-14T00:00	10300	262	-50.8	-62.0	273	18	
2025-11-14T00:00	10350	260	-51.3	-62.1	271	17	
2025-11-14T00:00	10400	258	-51.8	-61.9	268	16	
2025-11-14T00:00	10450	256	-52.3	-61.9	267	16	
2025-11-14T00:00	10500	254	-52.8	-62.1	268	17	
2025-11-14T00:00	10550	252	-53.3	-62.1	270	18	
2025-11-14T00:00	10600	250	-53.8	-62.1	271	19	
2025-11-14T00:00	10650	248	-54.3	-62.1	272	19	
2025-11-14T00:00	10700	246	-54.7	-62.0	272	19	
2025-11-14T00:00	10750	244	-55.3	-62.0	273	19	
2025-11-14T00:00	10800	242	-55.7	-62.0	273	19	
2025-11-14T00:00	10850	240	-56.2	-62.1	272	19	
2025-11-14T00:00	10900	239	-56.7	-62.4	272	20	
2025-11-14T00:00	10950	237	-57.1	-63.0	273	20	
2025-11-14T00:00	11000	235	-57.6	-64.5	274	20	
2025-11-14T00:00	11050	233	-58.0	-66.0	275	20	
2025-11-14T00:00	11100	231	-58.5	-66.3	278	21	
2025-11-14T00:00	11150	229	-58.9	-67.7	280	22	
2025-11-14T00:00	11200	227	-59.4	-69.6	280	22	
2025-11-14T00:00	11250	226	-59.8	-69.4	278	23	
2025-11-14T00:00	11300	224	-60.3	-69.0	278	24	
2025-11-14T00:00	11350	222	-60.7	-69.3	278	25	
2025-11-14T00:00	11400	220	-61.1	-69.5	278	25	
2025-11-14T00:00	11450	219	-61.5	-69.8	279	25	
2025-11-14T00:00	11500	217	-61.9	-70.3	278	24	
2025-11-14T00:00	11550	215	-62.3	-71.3	276	23	
2025-11-14T00:00	11600	213	-62.2	-72.4	275	22	
2025-11-14T00:00	11650	212	-62.5	-73.7	276	20	
2025-11-14T00:00	11700	210	-62.8	-73.8	276	20	
2025-11-14T00:00	11750	208	-63.2	-74.0	276	21	
2025-11-14T00:00	11800	206	-63.6	-73.9	274	20	
2025-11-14T00:00	11850	205	-64.1	-74.0	272	19	
2025-11-14T00:00	11900	203	-64.6	-73.8	270	18	
2025-11-14T00:00	11950	201	-65.0	-73.8	268	18	
2025-11-14T00:00	12000	200	-65.3	-73.9	266	19	
2025-11-14T00:00	12050	198	-65.8	-73.9	265	19	
2025-11-14T00:00	12100	197	-66.3	-73.9	265	19	
2025-11-14T00:00	12150	195	-66.8	-73.9	265	19	
2025-11-14T00:00	12200	193	-67.2	-73.9	266	19	
2025-11-14T00:00	12250	192	-67.7	-73.9	266	18	
2025-11-14T00:00	12300	190	-68.2	-73.7	264	19	
2025-11-14T00:00	12350	189	-68.6	-73.7	261	19	
2025-11-14T00:00	12400	187	-68.9	-73.6	258	20	
2025-11-14T00:00	12450	185	-69.3	-73.8	255	21	
2025-11-14T00:00	12500	184	-69.8	-74.3	252	21	
2025-11-14T00:00	12550	182	-70.2	-74.7	251	21	
2025-11-14T00:00	12600	181	-70.5	-75.1	249	22	
2025-11-14T00:00	12650	179	-70.6	-75.3	247	24	
2025-11-14T00:00	12700	178	-70.7	-75.4	244	25	
2025-11-14T00:00	12750	176	-70.1	-75.3	241	26	
2025-11-14T00:00	12800	175	-70.1	-75.7	240	26	
2025-11-14T00:00	12850	173	-70.3	-75.8	242	26	
2025-11-14T00:00	12900	172	-69.9	-75.6	244	26	
2025-11-14T00:00	12950	170	-69.1	-75.7	245	25	
2025-11-14T00:00	13000	169	-68.9	-76.2	245	26	
2025-11-14T00:00	13050	168	-69.0	-76.4	246	25	
2025-11-14T00:00	13100	166	-69.0	-76.4	249	24	
2025-11-14T00:00	13150	165	-68.8	-76.5	251	24	
2025-11-14T00:00	13200	164	-68.5	-76.4	251	23	
2025-11-14T00:00	13250	162	-68.3	-76.4	252	22	
2025-11-14T00:00	13300	161	-68.3	-76.5	252	20	
2025-11-14T00:00	13350	159	-68.5	-76.9	250	19	
2025-11-14T00:00	13400	158	-68.6	-77.0	247	17	
2025-11-14T00:00	13450	157	-68.5	-77.0	242	16	
2025-11-14T00:00	13500	155	-68.7	-76.9	237	15	
2025-11-14T00:00	13550	154	-68.8	-77.0	234	15	
2025-11-14T00:00	13600	153	-68.9	-77.1	233	16	
2025-11-14T00:00	13650	152	-69.0	-77.4	232	16	
2025-11-14T00:00	13700	150	-69.0	-77.7	231	17	
2025-11-14T00:00	13750	149	-68.8	-78.1	231	18	
2025-11-14T00:00	13800	148	-68.3	-78.9	230	20	
2025-11-14T00:00	13850	147	-66.6	-79.2	228	20	
2025-11-14T00:00	13900	145	-66.8	-80.3	225	19	
2025-11-14T00:00	13950	144	-67.2	-80.8	223	19	
2025-11-14T00:00	14000	143	-67.6	-81.3	221	21	
2025-11-14T00:00	14050	142	-66.6	-81.8	219	23	
2025-11-14T00:00	14100	141	-64.2	-81.9	222	23	
2025-11-14T00:00	14150	140	-63.3	-82.6	228	24	
2025-11-14T00:00	14200	138	-62.7	-83.1	230	25	
2025-11-14T00:00	14250	137	-62.2	-83.3	231	26	
2025-11-14T00:00	14300	136	-62.3	-83.0	231	26	
2025-11-14T00:00	14350	135	-62.7	-82.9	232	26	
2025-11-14T00:00	14400	134	-63.1	-82.8	233	27	
2025-11-14T00:00	14450	133	-63.2	-82.8	233	27	
2025-11-14T00:00	14500	132	-63.3	-82.9	234	27	
2025-11-14T00:00	14550	131	-63.4	-83.0	235	27	
2025-11-14T00:00	14600	130	-63.5	-83.2	237	27	
2025-11-14T00:00	14650	129	-63.4	-83.2	239	28	
2025-11-14T00:00	14700	128	-63.7	-83.3	240	28	
2025-11-14T00:00	14750	127	-63.7	-83.4	241	28	
2025-11-14T00:00	14800	126	-63.6	-83.6	242	28	
2025-11-14T00:00	14850	125	-63.5	-83.8	241	28	
2025-11-14T00:00	14900	124	-63.4	-83.8	241	27	
2025-11-14T00:00	14950	123	-63.5	-83.8	243	27	
2025-11-14T00:00	15000	122	-63.8	-83.9	247	27	
2025-11-14T00:00	15050	121	-63.4	-84.0	250	25	
2025-11-14T00:00	15100	120	-63.3	-84.1	253	23	
2025-11-14T00:00	15150	119	-63.0	-84.1	255	21	
2025-11-14T00:00	15200	118	-63.1	-84.1	254	21	
2025-11-14T00:00	15250	117	-63.2	-84.1	252	20	
2025-11-14T00:00	15300	116	-63.3	-84.2	250	19	
2025-11-14T00:00	15350	115	-63.3	-84.5	249	18	
2025-11-14T00:00	15400	114	-62.0	-84.3	248	16	
2025-11-14T00:00	15450	113	-61.8	-84.4	245	14	
2025-11-14T00:00	15500	112	-61.6	-84.4	243	13	
2025-11-14T00:00	15550	111	-61.4	-84.3	243	13	
2025-11-14T00:00	15600	110	-61.6	-84.4	244	13	
2025-11-14T00:00	15650	109	-61.8	-84.3	243	13	
2025-11-14T00:00	15700	109	-62.0	-84.2	242	14	
2025-11-14T00:00	15750	108	-62.3	-84.5	243	14	
2025-11-14T00:00	15800	107	-61.9	-84.5	246	14	
2025-11-14T00:00	15850	106	-61.5	-84.5	244	14	
2025-11-14T00:00	15900	105	-61.4	-84.4	241	13	
2025-11-14T00:00	15950	104	-61.6	-84.4	239	13	
2025-11-14T00:00	16000	103	-62.0	-84.5	239	13	
2025-11-14T00:00	16050	103	-62.2	-84.6	237	13	
2025-11-14T00:00	16100	102	-62.3	-84.5	233	13	
2025-11-14T00:00	16150	101	-62.5	-84.6	232	13	
2025-11-14T00:00	16200	100	-62.7	-84.6	232	13	
2025-11-14T00:00	16250	99	-63.1	-84.7	232	12	
2025-11-14T00:00	16300	98	-63.5	-84.8	232	12	
2025-11-14T00:00	16350	98	-63.9	-84.8	231	12	
2025-11-14T00:00	16400	97	-64.3	-85.0	229	12	
2025-11-14T00:00	16450	96	-64.6	-85.0	227	12	
2025-11-14T00:00	16500	95	-64.8	-85.1	227	13	
2025-11-14T00:00	16550	95	-65.2	-85.2	225	13	
2025-11-14T00:00	16600	94	-65.5	-85.3	222	13	
2025-11-14T00:00	16650	93	-65.6	-85.3	223	12	
2025-11-14T00:00	16700	92	-65.7	-85.5	226	10	
2025-11-14T00:00	16750	91	-65.6	-85.7	227	9	
2025-11-14T00:00	16800	91	-64.9	-85.5	229	8	
2025-11-14T00:00	16850	90	-64.8	-85.5	228	8	
2025-11-14T00:00	16900	89	-65.0	-85.6	225	9	
2025-11-14T00:00	16950	88	-65.2	-85.6	224	9	
2025-11-14T00:00	17000	88	-65.3	-85.5	224	10	
2025-11-14T00:00	17050	87	-65.6	-85.6	227	10	
2025-11-14T00:00	17100	86	-65.9	-85.6	233	11	
2025-11-14T00:00	17150	86	-66.2	-85.8	239	13	
2025-11-14T00:00	17200	85	-66.2	-86.0	247	15	
2025-11-14T00:00	17250	84	-65.5	-86.0	252	16	
2025-11-14T00:00	17300	84	-64.9	-85.9	252	16	
2025-11-14T00:00	17350	83	-64.8	-86.0	251	16	
2025-11-14T00:00	17400	82	-64.6	-85.9	251	16	
2025-11-14T00:00	17450	82	-64.4	-85.9	253	16	
2025-11-14T00:00	17500	81	-64.6	-86.1	257	15	
2025-11-14T00:00	17550	80	-64.2	-85.9	261	15	
2025-11-14T00:00	17600	80	-64.4	-86.0	266	15	
2025-11-14T00:00	17650	79	-64.5	-86.0	269	14	
2025-11-14T00:00	17700	78	-64.7	-86.0	268	14	
2025-11-14T00:00	17750	78	-65.1	-86.1	267	14	
2025-11-14T00:00	17800	77	-65.4	-86.1	265	14	
2025-11-14T00:00	17850	76	-65.9	-86.2	264	14	
2025-11-14T00:00	17900	76	-66.4	-86.3	265	14	
2025-11-14T00:00	17950	75	-66.5	-86.6	267	15	
2025-11-14T00:00	18000	74	-66.2	-86.7	266	15	
2025-11-14T00:00	18050	74	-65.4	-86.6	264	15	
2025-11-14T00:00	18100	73	-65.3	-86.5	264	16	
2025-11-14T00:00	18150	73	-65.7	-86.6	263	16	
2025-11-14T00:00	18200	72	-66.1	-86.6	263	16	
2025-11-14T00:00	18250	71	-66.6	-86.7	262	17	
2025-11-14T00:00	18300	71	-67.0	-87.0	262	18	
2025-11-14T00:00	18350	70	-66.6	-87.0	265	18	
2025-11-14T00:00	18400	70	-66.1	-87.1	268	18	
2025-11-14T00:00	18450	69	-65.7	-87.2	268	18	
2025-11-14T00:00	18500	69	-65.1	-87.2	266	18	
2025-11-14T00:00	18550	68	-64.4	-87.1	263	16	
2025-11-14T00:00	18600	67	-64.1	-86.9	259	14	
2025-11-14T00:00	18650	67	-64.3	-86.9	257	14	
2025-11-14T00:00	18700	66	-64.4	-87.1	257	14	
2025-11-14T00:00	18750	66	-63.8	-87.0	256	12	
2025-11-14T00:00	18800	65	-63.0	-86.9	253	10	
2025-11-14T00:00	18850	65	-62.6	-86.8	252	9	
2025-11-14T00:00	18900	64	-62.2	-86.7	250	9	
2025-11-14T00:00	18950	64	-61.7	-86.5	249	9	
2025-11-14T00:00	19000	63	-61.4	-86.2	251	9	
2025-11-14T00:00	19050	63	-61.6	-86.2	252	10	
2025-11-14T00:00	19100	62	-61.8	-86.1	253	9	
2025-11-14T00:00	19150	62	-62.3	-86.1	254	9	
2025-11-14T00:00	19200	61	-62.7	-86.2	256	9	
2025-11-14T00:00	19250	61	-63.1	-86.3	258	8	
2025-11-14T00:00	19300	60	-63.5	-86.4	259	8	
2025-11-14T00:00	19350	60	-63.9	-86.5	258	7	
2025-11-14T00:00	19400	59	-64.4	-86.6	255	7	
2025-11-14T00:00	19450	59	-64.8	-86.8	251	7	
2025-11-14T00:00	19500	58	-65.1	-86.9	246	7	
2025-11-14T00:00	19550	58	-65.4	-87.0	244	8	
2025-11-14T00:00	19600	57	-65.8	-87.0	242	8	
2025-11-14T00:00	19650	57	-66.3	-87.2	240	8	
2025-11-14T00:00	19700	56	-66.8	-87.4	243	9	
2025-11-14T00:00	19750	56	-67.1	-87.8	249	9	
2025-11-14T00:00	19800	55	-66.6	-87.9	257	9	
2025-11-14T00:00	19850	55	-65.5	-87.4	261	10	
2025-11-14T00:00	19900	55	-65.8	-87.6	259	10	
2025-11-14T00:00	19950	54	-66.0	-87.7	251	11	
2025-11-14T00:00	20000	54	-65.6	-87.8	247	12	
2025-11-14T00:00	20050	53	-64.8		250	14	
2025-11-14T00:00	20100	53	-64.1		255	14	
2025-11-14T00:00	20150	52	-64.0		259	15	
2025-11-14T00:00	20200	52	-64.3		265	16	
2025-11-14T00:00	20250	52	-64.3		270	17	
2025-11-14T00:00	20300	51	-64.4		274	18	
2025-11-14T00:00	20350	51	-64.6		278	19	
2025-11-14T00:00	20400	50	-64.8		281	19	
2025-11-14T00:00	20450	50	-64.9		285	18	
2025-11-14T00:00	20500	49	-64.7		288	16	
2025-11-14T00:00	20550	49	-64.9		292	15	
2025-11-14T00:00	20600	49	-65.1		293	14	
2025-11-14T00:00	20650	48	-65.4		291	12	
2025-11-14T00:00	20700	48	-65.4		287	11	
2025-11-14T00:00	20750	47	-65.4		281	10	
2025-11-14T00:00	20800	47	-65.6		277	10	
2025-11-14T00:00	20850	47	-65.5		274	9	
2025-11-14T00:00	20900	46	-65.6		268	9	
2025-11-14T00:00	20950	46	-65.7		263	10	
2025-11-14T00:00	21000	46	-65.0		266	12	
2025-11-14T00:00	21050	45	-64.6		273	13	
2025-11-14T00:00	21100	45	-64.6		280	14	
2025-11-14T00:00	21150	44	-64.7		287	15	
2025-11-14T00:00	21200	44	-64.7		291	15	
2025-11-14T00:00	21250	44	-64.3		293	14	
2025-11-14T00:00	21300	43	-64.4		289	12	
2025-11-14T00:00	21350	43	-64.1		281	12	
2025-11-14T00:00	21400	43	-64.0		272	12	
2025-11-14T00:00	21450	42	-64.2		267	13	
2025-11-14T00:00	21500	42	-64.0		268	14	
2025-11-14T00:00	21550	42	-63.5		271	14	
2025-11-14T00:00	21600	41	-63.5		274	14	
2025-11-14T00:00	21650	41	-63.3		277	14	
2025-11-14T00:00	21700	41	-63.0		277	13	
2025-11-14T00:00	21750	40	-63.3		276	12	
2025-11-14T00:00	21800	40	-63.5		275	13	
2025-11-14T00:00	21850	40	-63.2		273	13	
2025-11-14T00:00	21900	39	-62.9		270	14	
2025-11-14T00:00	21950	39	-62.7		270	15	
2025-11-14T00:00	22000	39	-62.5		271	16	
2025-11-14T00:00	22050	38	-62.5		273	17	
2025-11-14T00:00	22100	38	-62.6		274	17	
2025-11-14T00:00	22150	38	-62.7		275	18	
2025-11-14T00:00	22200	37	-62.8		277	18	
2025-11-14T00:00	22250	37	-62.8		279	18	
2025-11-14T00:00	22300	37	-62.9		284	17	
2025-11-14T00:00	22350	37	-62.9		291	16	
2025-11-14T00:00	22400	36	-63.0		297	16	
2025-11-14T00:00	22450	36	-63.0		297	15	
2025-11-14T00:00	22500	36	-63.1		293	14	
2025-11-14T00:00	22550	35	-63.2		289	13	
2025-11-14T00:00	22600	35	-63.3		284	12	
2025-11-14T00:00	22650	35	-63.4		277	12	
2025-11-14T00:00	22700	35	-63.5		271	12	
2025-11-14T00:00	22750	34	-63.3		269	13	
2025-11-14T00:00	22800	34	-63.1		267	13	
2025-11-14T00:00	22850	34	-63.0		269	13	
2025-11-14T00:00	22900	33	-63.0		274	13	
2025-11-14T00:00	22950	33	-62.8		280	13	
2025-11-14T00:00	23000	33	-63.0		285	13	
2025-11-14T00:00	23050	33	-63.1		290	13	
2025-11-14T00:00	23100	32	-63.3		294	13	
2025-11-14T00:00	23150	32	-63.4		298	12	
2025-11-14T00:00	23200	32	-63.3		297	11	
2025-11-14T00:00	23250	32	-63.4		292	10	
2025-11-14T00:00	23300	31	-63.1		284	10	
2025-11-14T00:00	23350	31	-62.9		276	10	
2025-11-14T00:00	23400	31	-62.9		268	10	
2025-11-14T00:00	23450	31	-62.9		262	11	
2025-11-14T00:00	23500	30	-62.9		259	12	
2025-11-14T00:00	23550	30	-63.0		259	13	
2025-11-14T00:00	23600	30	-62.4		260	14	
2025-11-14T00:00	23650	30	-61.8		260	15	
2025-11-14T00:00	23700	29	-62.1		262	16	
2025-11-14T00:00	23750	29	-62.2		264	17	
2025-11-14T00:00	23800	29	-61.9		268	17	
2025-11-14T00:00	23850	29	-62.1		272	17	
2025-11-14T00:00	23900	28	-62.5		276	18	
2025-11-14T00:00	23950	28	-62.7		279	19	
2025-11-14T00:00	24000	28	-62.9		280	20	
2025-11-14T00:00	24050	28	-63.1		280	21	
2025-11-14T00:00	24100	28	-63.2		278	22	
2025-11-14T00:00	24150	27	-63.3		276	23	
2025-11-14T00:00	24200	27	-63.5		275	23	
2025-11-14T00:00	24250	27	-63.7		275	24	
2025-11-14T00:00	24300	27	-63.6		277	24	
2025-11-14T00:00	24350	26	-63.7		280	24	
2025-11-14T00:00	24400	26	-64.1		282	24	
2025-11-14T00:00	24450	26	-64.0		285	24	
2025-11-14T00:00	24500	26	-63.9		288	22	
2025-11-14T00:00	24550	26	-63.9		290	21	
2025-11-14T00:00	24600	25	-64.2		291	20	
2025-11-14T00:00	24650	25	-64.2		291	19	
2025-11-14T00:00	24700	25	-64.0		288	18	
2025-11-14T00:00	24750	25	-63.8		285	18	
2025-11-14T00:00	24800	25	-63.8		283	18	
2025-11-14T00:00	24850	24	-63.5		282	17	
2025-11-14T00:00	24900	24	-63.3		281	16	
2025-11-14T00:00	24950	24	-63.3		280	15	
2025-11-14T00:00	25000	24	-63.3		278	14	
2025-11-14T00:00	25050	24	-63.3		275	14	
2025-11-14T00:00	25100	23	-63.4		270	13	
2025-11-14T00:00	25150	23	-63.7		267	12	
2025-11-14T00:00	25200	23	-63.9		265	12	
2025-11-14T00:00	25250	23	-64.2		267	13	
2025-11-14T00:00	25300	23	-64.4		270	14	
2025-11-14T00:00	25350	22	-64.1		273	14	
2025-11-14T00:00	25400	22	-64.1		275	15	
2025-11-14T00:00	25450	22	-64.3		276	15	
2025-11-14T00:00	25500	22	-64.2		276	15	
2025-11-14T00:00	25550	22	-63.6		277	15	
2025-11-14T00:00	25600	22	-63.4		275	16	
2025-11-14T00:00	25650	21	-63.1		270	16	
2025-11-14T00:00	25700	21	-62.8		264	17	
2025-11-14T00:00	25750	21	-62.5		260	18	
2025-11-14T00:00	25800	21	-62.6		258	19	
2025-11-14T00:00	25850	21	-62.9		260	19	
2025-11-14T00:00	25900	21	-62.7		265	19	
2025-11-14T00:00	25950	20	-62.6		273	19	
2025-11-14T00:00	26000	20	-62.4		280	19	
2025-11-14T00:00	26050	20	-62.5		286	19	
2025-11-14T00:00	26100	20	-62.2		286	21	
2025-11-14T00:00	26150	20	-61.3		284	22	
2025-11-14T00:00	26200	20	-60.2		285	21	
2025-11-14T00:00	26250	19	-59.9		285	20	
2025-11-14T00:00	26300	19	-60.0		283	19	
2025-11-14T00:00	26350	19	-60.3		281	18	
2025-11-14T00:00	26400	19	-60.5		280	19	
2025-11-14T00:00	26450	19	-60.4		277	20	
2025-11-14T00:00	26500	19	-59.9		275	20	
2025-11-14T00:00	26550	18	-59.2		275	20	
2025-11-14T00:00	26600	18	-59.1		276	20	
2025-11-14T00:00	26650	18	-59.2		278	20	
2025-11-14T00:00	26700	18	-59.3		278	20	
2025-11-14T00:00	26750	18	-59.3		277	21	
2025-11-14T00:00	26800	18	-59.1		275	21	
2025-11-14T00:00	26850	18	-58.9		274	22	
2025-11-14T00:00	26900	17	-58.9		273	22	
2025-11-14T00:00	26950	17	-59.0		273	22	
2025-11-14T00:00	27000	17	-59.2		272	22	
2025-11-14T00:00	27050	17	-59.1		272	23	
2025-11-14T00:00	27100	17	-58.5		272	25	
2025-11-14T00:00	27150	17	-57.8		271	26	
2025-11-14T00:00	27200	17	-57.6		269	28	
2025-11-14T00:00	27250	17	-57.5		267	28	
2025-11-14T00:00	27300	16	-57.2		265	29	
2025-11-14T00:00	27350	16	-57.1		264	29	
2025-11-14T00:00	27400	16	-57.4		264	29	
2025-11-14T00:00	27450	16	-57.7		264	28	
2025-11-14T00:00	27500	16	-57.7		265	28	
2025-11-14T00:00	27550	16	-57.8		266	28	
2025-11-14T00:00	27600	16	-57.9		267	28	
2025-11-14T00:00	27650	16	-58.2		269	28	
2025-11-14T00:00	27700	15	-58.6		271	29	
2025-11-14T00:00	27750	15	-58.9		274	29	
2025-11-14T00:00	27800	15	-59.2		276	30	
2025-11-14T00:00	27850	15	-59.5		279	31	
2025-11-14T00:00	27900	15	-59.6		280	32	
2025-11-14T00:00	27950	15	-59.5		281	33	
2025-11-14T00:00	28000	15	-59.4		282	33	
2025-11-14T00:00	28050	15	-59.5		283	32	
2025-11-14T00:00	28100	14	-59.5		284	31	
2025-11-14T00:00	28150	14	-59.7		284	30	
2025-11-14T00:00	28200	14	-59.8		283	30	
2025-11-14T00:00	28250	14	-59.7		282	30	
2025-11-14T00:00	28300	14	-59.6		278	30	
2025-11-14T00:00	28350	14	-59.6		274	30	
2025-11-14T00:00	28400	14	-59.4		272	30	
2025-11-14T00:00	28450	14	-59.1		271	30	
2025-11-14T00:00	28500	14	-58.8		270	30	
2025-11-14T00:00	28550	13	-58.6		269	30	
2025-11-14T00:00	28600	13	-58.7		267	30	
2025-11-14T00:00	28650	13	-58.2		266	30	
2025-11-14T00:00	28700	13	-58.3		266	29	
2025-11-14T00:00	28750	13	-58.6		266	29	
2025-11-14T00:00	28800	13	-58.5		268	29	
2025-11-14T00:00	28850	13	-58.2		269	29	
2025-11-14T00:00	28900	13	-58.5		270	30	
2025-11-14T00:00	28950	13	-58.9		271	30	
2025-11-14T00:00	29000	12	-59.2		272	30	
2025-11-14T00:00	29050	12	-59.6		273	31	
2025-11-14T00:00	29100	12	-59.9		274	30	
2025-11-14T00:00	29150	12	-59.9		275	30	
2025-11-14T00:00	29200	12	-59.1		275	29	
2025-11-14T00:00	29250	12	-59.2		274	28	
2025-11-14T00:00	29300	12	-59.4		272	27	
2025-11-14T00:00	29350	12	-59.8		270	26	
2025-11-14T00:00	29400	12	-59.9		268	26	
2025-11-14T00:00	29450	12	-59.7		266	26	
2025-11-14T00:00	29500	12	-59.8		265	26	
2025-11-14T00:00	29550	11	-59.9		266	26	
2025-11-14T00:00	29600	11	-59.8		268	26	
2025-11-14T00:00	29650	11	-59.5		270	27	
2025-11-14T00:00	29700	11	-59.4		272	28	
2025-11-14T00:00	29750	11	-59.5		273	29	
2025-11-14T00:00	29800	11	-59.8		275	29	
2025-11-14T00:00	29850	11	-60.1		275	30	
2025-11-14T00:00	29900	11	-60.0		276	30	
2025-11-14T00:00	29950	11	-59.7		276	30	
2025-11-14T00:00	30000	11	-59.7		275	30	
2025-11-14T00:00	30050	11	-59.6		274	30	
2025-11-14T00:00	30100	10	-59.1		275	31	
2025-11-14T00:00	30150	10	-58.4		278	32	
2025-11-14T00:00	30200	10	-58.0		280	33	
2025-11-14T00:00	30250	10	-57.9		280	34	
2025-11-14T00:00	30300	10	-57.6		280	34	
2025-11-14T00:00	30350	10	-57.3		280	34	
2025-11-14T00:00	30400	10	-56.7		281	35	
2025-11-14T00:00	30450	10	-56.4		283	36	
2025-11-14T00:00	30500	10	-56.1		284	36	
2025-11-14T00:00	30550	10	-56.3		285	35	
2025-11-14T00:00	30600	10	-56.6		285	35	
2025-11-14T00:00	30650	10	-56.7		284	34	
2025-11-14T00:00	30700	10	-57.0		283	33	
2025-11-14T00:00	30750	9	-57.3		281	33	
2025-11-14T00:00	30800	9	-57.6		279	33	
2025-11-14T00:00	30850	9	-57.9		278	34	
2025-11-14T00:00	30900	9	-57.8		277	35	
2025-11-14T00:00	30950	9	-57.5		277	35	
2025-11-14T00:00	31000	9	-57.4		277	36	
2025-11-14T00:00	31050	9	-57.4		278	36	
2025-11-14T00:00	31100	9	-57.2		279	36	
2025-11-14T00:00	31150	9	-57.3		281	36	
2025-11-14T00:00	31200	9	-57.5		283	35	
2025-11-14T00:00	31250	9	-57.6		284	35	
2025-11-14T00:00	31300	9	-57.9		284	34	
2025-11-14T00:00	31350	9	-58.1		283	33	
2025-11-14T00:00	31400	9	-58.1		281	32	
2025-11-14T00:00	31450	8	-57.8		279	31	
2025-11-14T00:00	31500	8	-58.0		277	31	
2025-11-14T00:00	31550	8	-58.0		275	31	
2025-11-14T00:00	31600	8	-58.1		273	32	
2025-11-14T00:00	31650	8	-57.9		270	33	
2025-11-14T00:00	31700	8	-57.7		267	34	
2025-11-14T00:00	31750	8	-57.4		265	35	
2025-11-14T00:00	31800	8	-57.1		264	36	
2025-11-14T00:00	31850	8	-56.8		263	36	
2025-11-14T00:00	31900	8	-56.6		262	37	
2025-11-14T00:00	31950	8	-56.0		261	37	
2025-11-14T00:00	32000	8	-55.8		261	37	
2025-11-14T00:00	32050	8	-55.7		261	36	
2025-11-14T00:00	32100	8	-55.8		260	36	
2025-11-14T00:00	32150	8	-55.4		258	37	
2025-11-14T00:00	32200	8	-55.0		258	37	
2025-11-14T00:00	32250	7	-54.7		259	38	
2025-11-14T00:00	32300	7	-54.2		261	38	
2025-11-14T00:00	32350	7	-54.1		264	38	
2025-11-14T00:00	32400	7	-54.2		267	38	
2025-11-14T00:00	32450	7	-54.0		268	39	
2025-11-14T00:00	32500	7	-53.6		266	39	
2025-11-14T00:00	32550	7	-53.1		264	40	
2025-11-14T00:00	32600	7	-52.7		262	41	
2025-11-14T00:00	32650	7	-52.5		262	43	
2025-11-14T00:00	32700	7	-52.1		263	44	
2025-11-14T00:00	32750	7	-51.5		265	45	
2025-11-14T00:00	32800	7	-51.6		267	46	
2025-11-14T00:00	32850	7	-51.8		269	47	
2025-11-14T00:00	32900	7	-52.0		271	47	
2025-11-14T00:00	32950	7	-52.2		273	47	
2025-11-14T00:00	33000	7	-52.1		274	47	
2025-11-14T00:00	33050	7	-52.1		276	47	
2025-11-14T00:00	33100	7	-52.3		277	47	
2025-11-14T00:00	33150	6	-52.7		277	46	
2025-11-14T00:00	33200	6	-53.0		277	45	
2025-11-14T00:00	33250	6	-53.1		277	44	
2025-11-14T00:00	33300	6	-53.2		278	43	
2025-11-14T00:00	33350	6	-53.3		278	41	
2025-11-14T00:00	33400	6	-53.3		277	40	
2025-11-14T00:00	33450	6	-53.6		275	38	
2025-11-14T00:00	33500	6	-53.0		273	38	
2025-11-14T00:00	33550	6	-52.8		272	38	
2025-11-14T00:00	33600	6	-52.5		272	38	
2025-11-14T00:00	33650	6	-52.4		272	37	
2025-11-14T00:00	33700	6	-52.4		272	36	
2025-11-14T00:00	33750	6	-52.3		270	36	
2025-11-14T00:00	33800	6	-51.9		268	36	
2025-11-14T00:00	33850	6	-51.4		267	37	
2025-11-14T00:00	33900	6	-51.5		266	38	
2025-11-14T00:00	33950	6	-51.7		265	38	
2025-11-14T00:00	34000	6	-51.9		264	39	
2025-11-14T00:00	34050	6	-52.0		264	40	
2025-11-14T00:00	34100	6	-51.7		265	41	
2025-11-14T00:00	34150	6	-51.3		266	42	
2025-11-14T00:00	34200	6	-50.6		267	42	
2025-11-14T00:00	34250	5	-50.4		269	41	
2025-11-14T00:00	34300	5	-50.1		269	39	
2025-11-14T00:00	34350	5	-50.2		269	38	
2025-11-14T00:00	34400	5	-50.4		269	37	
2025-11-14T00:00	34450	5	-50.6		269	36	
2025-11-14T00:00	34500	5	-50.7		268	36	
2025-11-14T00:00	34550	5	-50.7		266	36	
2025-11-14T00:00	34600	5	-50.7		264	37	
2025-11-14T00:00	34650	5	-50.7		262	38	
2025-11-14T00:00	34700	5	-50.3		262	40	
2025-11-14T00:00	34750	5	-49.7		262	42	
2025-11-14T00:00	34800	5	-49.2		263	44	
2025-11-14T00:00	34850	5	-48.9		264	45	
2025-11-14T00:00	34900	5	-48.0		266	47	
2025-11-14T00:00	34950	5	-47.6		267	49	
2025-11-14T00:00	35000	5	-47.6		269	50	
2025-11-14T00:00	35050	5	-47.4		271	52	
2025-11-14T00:00	35100	5	-46.9		272	53	
2025-11-14T00:00	35150	5	-46.2		273	55	
2025-11-14T00:00	35200	5	-45.8		273	55	
2025-11-14T00:00	35250	5	-45.7		272	55	
2025-11-14T00:00	35300	5	-46.1		272	55	
2025-11-14T00:00	35350	5	-46.5		273	56	
2025-11-14T00:00	35400	5	-46.6		274	57	
2025-11-14T00:00	35450	5	-46.7		274	57	
2025-11-14T00:00	35500	5	-46.7		275	58	
2025-11-14T00:00	35550	4	-46.7		276	59	
2025-11-14T00:00	35600	4	-46.9		276	59	
2025-11-14T00:00	35650	4	-47.2		276	59	
2025-11-14T00:00	35700	4	-47.4		276	59	
2025-11-14T00:00	35750	4	-47.5		276	59	
2025-11-14T00:00	35800	4	-47.8		275	58	
2025-11-14T00:00	35850	4	-48.2		275	58	
2025-11-14T00:00	35900	4	-48.5		274	58	
2025-11-14T00:00	35950	4	-48.8		274	58	
2025-11-14T00:00	36000	4	-49.1		273	58	
2025-11-14T00:00	36050	4	-49.4		273	58	
2025-11-14T00:00	36100	4	-49.9		272	58	
2025-11-14T00:00	36150	4	-50.2		271	59	
2025-11-14T00:00	36200	4	-50.4		271	58	
2025-11-14T00:00	36250	4	-50.7		270	58	
2025-11-14T00:00	36300	4	-50.6		271	58	
2025-11-14T00:00	36350	4	-50.0		272	58	
2025-11-14T12:00	491	955	9.9	6.4	336	1	0.8
2025-11-14T12:00	501	954	9.7	6.4	36	1	0.8
2025-11-14T12:00	520	952	9.4	6.1	69	0	0.9
2025-11-14T12:00	540	949	9.3	6.1	90	1	0.9
2025-11-14T12:00	560	947	9.2	6.2	104	1	0.9
2025-11-14T12:00	580	945	9.1	6.4	124	0	0.9
2025-11-14T12:00	600	943	9.2	6.2	227	0	0.9
2025-11-14T12:00	620	940	9.9	4.6	260	1	0.9
2025-11-14T12:00	640	938	11.4	4.4	265	2	1.1
2025-11-14T12:00	660	936	12.5	3.7	266	3	1.4
2025-11-14T12:00	680	934	12.6	3.8	264	3	1.6
2025-11-14T12:00	700	931	12.6	3.6	261	4	1.8
2025-11-14T12:00	720	929	12.7	3.3	257	4	2.1
2025-11-14T12:00	740	927	12.9	3.0	251	4	2.3
2025-11-14T12:00	760	925	13.1	2.8	245	5	2.4
2025-11-14T12:00	780	923	13.3	2.7	239	5	2.6
2025-11-14T12:00	800	921	13.4	2.6	234	6	2.7
2025-11-14T12:00	820	918	13.5	2.2	231	6	2.8
2025-11-14T12:00	840	916	13.7	1.7	229	7	2.8
2025-11-14T12:00	860	914	13.8	1.4	228	8	2.9
2025-11-14T12:00	880	912	13.8	1.0	227	9	3.0
2025-11-14T12:00	900	910	13.9	0.3	226	10	3.0
2025-11-14T12:00	920	907	13.9	0.0	225	10	3.0
2025-11-14T12:00	940	905	13.8	-0.2	224	11	3.1
2025-11-14T12:00	960	903	13.8	-0.5	222	11	3.1
2025-11-14T12:00	980	901	13.7	-0.8	221	11	3.2
2025-11-14T12:00	1000	899	13.7	-1.2	219	11	3.2
2025-11-14T12:00	1020	897	13.6	-1.2	217	11	3.2
2025-11-14T12:00	1040	895	13.5	-1.3	214	11	3.3
2025-11-14T12:00	1060	893	13.5	-1.4	211	11	3.3
2025-11-14T12:00	1080	890	13.4	-1.5	208	12	3.3
2025-11-14T12:00	1100	888	13.5	-1.5	205	12	3.3
2025-11-14T12:00	1120	886	13.5	-1.6	203	12	3.4
2025-11-14T12:00	1140	884	14.0	-2.3	200	12	3.4
2025-11-14T12:00	1160	882	14.6	-2.9	198	13	3.4
2025-11-14T12:00	1180	880	15.1	-3.9	196	13	3.4
2025-11-14T12:00	1200	878	16.3	-5.3	195	13	3.4
2025-11-14T12:00	1220	876	16.9	-5.8	194	13	3.5
2025-11-14T12:00	1240	874	17.0	-6.0	194	14	3.5
2025-11-14T12:00	1260	872	16.9	-5.9	194	14	3.6
2025-11-14T12:00	1280	870	16.8	-6.0	195	14	3.6
2025-11-14T12:00	1300	868	16.7	-6.0	195	14	3.6
2025-11-14T12:00	1320	865	16.5	-6.0	196	14	3.6
2025-11-14T12:00	1340	863	16.2	-6.1	197	14	3.6
2025-11-14T12:00	1360	861	16.0	-6.1	197	13	3.7
2025-11-14T12:00	1380	859	15.9	-6.1	198	13	3.7
2025-11-14T12:00	1400	857	15.8	-6.0	199	13	3.7
2025-11-14T12:00	1420	855	15.6	-6.1	200	13	3.7
2025-11-14T12:00	1440	853	15.4	-6.0	201	13	3.7
2025-11-14T12:00	1460	851	15.2	-6.1	202	13	3.7
2025-11-14T12:00	1480	849	15.0	-6.2	202	13	3.7
2025-11-14T12:00	1500	847	14.8	-6.1	202	13	3.7
2025-11-14T12:00	1520	845	14.6	-6.1	201	13	3.7
2025-11-14T12:00	1540	843	14.4	-6.2	200	13	3.6
2025-11-14T12:00	1560	841	14.2	-6.3	200	13	3.6
2025-11-14T12:00	1580	839	14.0	-6.3	200	13	3.6
2025-11-14T12:00	1600	837	13.9	-6.3	200	13	3.6
2025-11-14T12:00	1620	835	13.7	-6.4	200	13	3.6
2025-11-14T12:00	1640	833	13.5	-6.3	200	13	3.6
2025-11-14T12:00	1660	831	13.2	-6.3	201	14	3.6
2025-11-14T12:00	1680	829	13.1	-6.5	202	14	3.6
2025-11-14T12:00	1700	827	12.9	-6.4	202	14	3.6
2025-11-14T12:00	1720	825	12.7	-6.5	203	14	3.6
2025-11-14T12:00	1740	823	12.5	-6.5	205	14	3.6
2025-11-14T12:00	1760	821	12.4	-6.6	206	14	3.6
2025-11-14T12:00	1780	819	12.3	-6.5	207	14	3.6
2025-11-14T12:00	1800	817	12.1	-6.5	208	14	3.6
2025-11-14T12:00	1820	815	12.0	-6.6	209	14	3.6
2025-11-14T12:00	1840	813	11.8	-6.8	210	14	3.5
2025-11-14T12:00	1860	812	11.7	-6.7	210	14	3.5
2025-11-14T12:00	1880	810	11.5	-6.6	210	14	3.5
2025-11-14T12:00	1900	808	11.3	-6.7	210	14	3.5
2025-11-14T12:00	1920	806	11.2	-6.8	210	14	3.5
2025-11-14T12:00	1940	804	11.0	-6.8	210	14	3.5
2025-11-14T12:00	1960	802	10.8	-6.8	210	14	3.5
2025-11-14T12:00	1980	800	10.6	-6.8	210	14	3.5
2025-11-14T12:00	2000	798	10.4	-6.9	210	15	3.5
2025-11-14T12:00	2020	796	10.2	-6.9	211	15	3.5
2025-11-14T12:00	2040	794	10.0	-6.9	211	15	3.5
2025-11-14T12:00	2060	792	9.9	-7.1	211	15	3.5
2025-11-14T12:00	2080	791	9.7	-7.0	211	15	3.4
2025-11-14T12:00	2100	789	9.6	-6.9	211	16	3.4
2025-11-14T12:00	2120	787	9.4	-7.0	210	16	3.4
2025-11-14T12:00	2140	785	9.2	-7.1	210	17	3.4
2025-11-14T12:00	2160	783	9.0	-7.1	210	17	3.4
2025-11-14T12:00	2180	781	8.8	-7.2	210	18	3.4
2025-11-14T12:00	2200	779	8.6	-7.2	211	19	3.4
2025-11-14T12:00	2220	777	8.4	-7.2	211	19	3.4
2025-11-14T12:00	2240	775	8.2	-7.2	212	19	3.4
2025-11-14T12:00	2260	773	8.0	-7.3	212	19	3.4
2025-11-14T12:00	2280	771	7.9	-7.4	212	19	3.4
2025-11-14T12:00	2300	770	7.7	-7.4	213	19	3.4
2025-11-14T12:00	2320	768	7.6	-7.5	213	19	3.4
2025-11-14T12:00	2340	766	7.4	-7.5	213	19	3.4
2025-11-14T12:00	2360	764	7.2	-7.6	213	19	3.4
2025-11-14T12:00	2380	762	7.0	-7.6	213	19	3.4
2025-11-14T12:00	2400	760	6.8	-7.7	213	19	3.4
2025-11-14T12:00	2420	759	6.7	-7.7	213	20	3.3
2025-11-14T12:00	2440	757	6.5	-7.7	213	20	3.3
2025-11-14T12:00	2460	755	6.3	-7.7	212	20	3.3
2025-11-14T12:00	2480	753	6.1	-7.7	212	20	3.3
2025-11-14T12:00	2500	751	5.8	-7.7	212	20	3.3
2025-11-14T12:00	2520	749	5.7	-7.9	213	20	3.3
2025-11-14T12:00	2540	747	5.5	-7.9	213	21	3.3
2025-11-14T12:00	2560	745	5.2	-7.7	214	21	3.3
2025-11-14T12:00	2580	744	5.0	-7.9	214	21	3.3
2025-11-14T12:00	2600	742	4.9	-8.0	214	22	3.3
2025-11-14T12:00	2620	740	4.7	-8.1	213	22	3.3
2025-11-14T12:00	2640	738	4.5	-8.0	213	23	3.3
2025-11-14T12:00	2660	737	4.4	-8.0	213	24	3.3
2025-11-14T12:00	2680	735	4.2	-8.0	213	24	3.2
2025-11-14T12:00	2700	733	4.0	-8.1	214	24	3.2
2025-11-14T12:00	2720	731	3.9	-8.1	214	25	3.2
2025-11-14T12:00	2740	729	3.7	-8.3	215	25	3.2
2025-11-14T12:00	2760	728	3.6	-8.2	216	25	3.3
2025-11-14T12:00	2780	726	3.4	-8.2	216	25	3.2
2025-11-14T12:00	2800	724	3.3	-8.4	217	26	3.2
2025-11-14T12:00	2820	722	3.2	-8.5	217	26	3.2
2025-11-14T12:00	2840	720	3.3	-9.0	218	26	3.2
2025-11-14T12:00	2860	719	3.4	-9.1	219	26	3.2
2025-11-14T12:00	2880	717	3.3	-9.3	220	26	3.2
2025-11-14T12:00	2900	715	3.2	-9.6	221	26	3.2
2025-11-14T12:00	2920	713	3.2	-9.9	221	26	3.2
2025-11-14T12:00	2940	712	3.0	-10.0	221	25	3.2
2025-11-14T12:00	2960	710	2.9	-10.1	221	24	3.2
2025-11-14T12:00	2980	708	2.8	-10.2	222	24	3.2
2025-11-14T12:00	3000	706	2.7	-10.2	223	23	3.2
2025-11-14T12:00	3020	705	2.8	-10.2	224	23	3.2
2025-11-14T12:00	3040	703	2.8	-9.9	225	23	3.2
2025-11-14T12:00	3060	701	2.8	-9.9	227	22	3.2
2025-11-14T12:00	3080	700	2.8	-9.9	228	22	3.2
2025-11-14T12:00	3100	698	2.7	-10.0	230	22	3.2
2025-11-14T12:00	3120	696	2.7	-10.0	232	21	3.2
2025-11-14T12:00	3140	694	2.7	-9.9	233	21	3.2
2025-11-14T12:00	3160	692	2.7	-9.6	234	20	3.2
2025-11-14T12:00	3180	691	3.0	-9.3	236	20	3.2
2025-11-14T12:00	3200	689	2.8	-9.3	237	20	3.2
2025-11-14T12:00	3220	687	2.6	-9.4	238	19	3.2
2025-11-14T12:00	3240	686	2.5	-9.5	239	19	3.2
2025-11-14T12:00	3260	684	2.3	-9.4	241	19	3.1
2025-11-14T12:00	3280	682	2.1	-9.3	241	19	3.1
2025-11-14T12:00	3300	680	1.9	-9.3	241	19	3.1
2025-11-14T12:00	3320	679	1.8	-9.2	241	19	3.1
2025-11-14T12:00	3340	677	1.6	-9.2	241	19	3.1
2025-11-14T12:00	3360	676	1.5	-8.8	240	19	3.1
2025-11-14T12:00	3380	674	1.3	-8.9	241	19	3.1
2025-11-14T12:00	3400	672	1.1	-8.9	242	19	3.1
2025-11-14T12:00	3420	670	0.9	-9.0	242	19	3.1
2025-11-14T12:00	3440	669	0.8	-8.9	243	19	3.1
2025-11-14T12:00	3460	667	0.6	-8.9	244	19	3.1
2025-11-14T12:00	3480	666	0.4	-8.9	244	19	3.0
2025-11-14T12:00	3500	664	0.2	-8.8	244	19	3.0
2025-11-14T12:00	3520	662	0.0	-8.8	243	19	3.0
2025-11-14T12:00	3540	661	-0.1	-8.7	243	18	3.0
2025-11-14T12:00	3560	659	-0.3	-8.7	242	18	3.0
2025-11-14T12:00	3580	657	-0.5	-8.7	242	18	3.0
2025-11-14T12:00	3600	656	-0.7	-8.7	241	18	3.0
2025-11-14T12:00	3620	654	-0.9	-8.8	242	17	3.0
2025-11-14T12:00	3640	652	-1.0	-9.0	242	17	3.0
2025-11-14T12:00	3660	651	-1.1	-9.1	242	17	3.0
2025-11-14T12:00	3680	649	-1.3	-9.2	243	17	3.0
2025-11-14T12:00	3700	648	-1.5	-8.9	243	16	3.0
2025-11-14T12:00	3720	646	-1.5	-8.6	243	16	3.0
2025-11-14T12:00	3740	644	-1.7	-8.7	243	16	2.9
2025-11-14T12:00	3760	643	-1.9	-8.7	243	16	2.9
2025-11-14T12:00	3780	641	-2.1	-8.7	242	16	2.9
2025-11-14T12:00	3800	639	-2.3	-8.7	242	16	2.9
2025-11-14T12:00	3820	638	-2.5	-8.8	241	16	2.9
2025-11-14T12:00	3840	636	-2.7	-8.8	240	15	2.9
2025-11-14T12:00	3860	635	-2.8	-8.8	239	15	2.9
2025-11-14T12:00	3880	633	-3.0	-8.8	239	14	2.9
2025-11-14T12:00	3900	631	-3.1	-8.8	238	14	2.9
2025-11-14T12:00	3920	630	-3.3	-8.9	237	13	2.9
2025-11-14T12:00	3940	628	-3.4	-8.8	236	12	2.9
2025-11-14T12:00	3960	627	-3.5	-8.9	235	12	2.9
2025-11-14T12:00	3980	625	-3.6	-8.9	234	11	2.8
2025-11-14T12:00	4000	624	-3.7	-8.7	234	11	2.8
2025-11-14T12:00	4020	622	-3.9	-8.7	233	11	2.8
2025-11-14T12:00	4040	620	-4.1	-8.7	234	11	2.8
2025-11-14T12:00	4060	619	-4.3	-8.8	234	11	2.8
2025-11-14T12:00	4080	617	-4.5	-8.7	235	11	2.8
2025-11-14T12:00	4100	616	-4.7	-8.8	236	11	2.8
2025-11-14T12:00	4120	614	-4.8	-8.8	237	11	2.8
2025-11-14T12:00	4140	612	-4.9	-8.7	238	11	2.8
2025-11-14T12:00	4160	611	-5.2	-8.7	238	11	2.8
2025-11-14T12:00	4180	609	-5.4	-8.8	237	11	2.8
2025-11-14T12:00	4200	608	-5.6	-8.9	236	11	2.8
2025-11-14T12:00	4220	606	-5.7	-8.9	234	11	2.7
2025-11-14T12:00	4240	605	-5.9	-8.9	232	11	2.7
2025-11-14T12:00	4260	603	-6.1	-8.9	230	11	2.7
2025-11-14T12:00	4280	602	-6.3	-8.9	230	11	2.7
2025-11-14T12:00	4300	600	-6.5	-9.0	230	11	2.7
2025-11-14T12:00	4320	599	-6.6	-9.0	231	11	2.7
2025-11-14T12:00	4340	597	-6.8	-9.1	233	11	2.7
2025-11-14T12:00	4360	596	-7.0	-9.1	234	11	2.7
2025-11-14T12:00	4380	594	-7.1	-9.1	235	10	2.7
2025-11-14T12:00	4400	592	-7.3	-9.2	235	10	2.7
2025-11-14T12:00	4420	591	-7.4	-9.3	235	10	2.7
2025-11-14T12:00	4440	589	-7.6	-9.2	234	10	2.7
2025-11-14T12:00	4460	588	-7.8	-9.2	233	10	2.7
2025-11-14T12:00	4480	586	-8.0	-9.3	232	10	2.7
2025-11-14T12:00	4500	585	-8.1	-9.4	230	10	2.7
2025-11-14T12:00	4520	584	-8.3	-9.4	228	10	2.7
2025-11-14T12:00	4540	582	-8.5	-9.3	226	10	2.7
2025-11-14T12:00	4560	580	-8.8	-9.3	224	10	2.7
2025-11-14T12:00	4580	579	-8.9	-9.5	222	10	2.6
2025-11-14T12:00	4600	578	-9.0	-9.5	221	10	2.6
2025-11-14T12:00	4620	576	-9.2	-9.5	221	10	2.6
2025-11-14T12:00	4640	575	-9.3	-9.8	221	10	2.6
2025-11-14T12:00	4660	573	-9.4	-10.2	221	10	2.6
2025-11-14T12:00	4680	571	-9.6	-10.4	222	10	2.6
2025-11-14T12:00	4700	570	-9.7	-10.4	221	10	2.6
2025-11-14T12:00	4720	569	-9.9	-10.5	221	10	2.6
2025-11-14T12:00	4740	567	-10.0	-10.6	220	11	2.6
2025-11-14T12:00	4760	566	-10.2	-10.7	218	11	2.6
2025-11-14T12:00	4780	564	-10.4	-10.8	217	11	2.6
2025-11-14T12:00	4800	563	-10.6	-10.8	216	11	2.6
2025-11-14T12:00	4820	561	-10.7	-10.9	214	11	2.6
2025-11-14T12:00	4840	560	-10.8	-11.0	212	11	2.6
2025-11-14T12:00	4860	558	-11.0	-11.2	211	11	2.6
2025-11-14T12:00	4880	557	-11.2	-11.3	208	12	2.6
2025-11-14T12:00	4900	556	-11.3	-11.6	206	12	2.6
2025-11-14T12:00	4920	554	-11.4	-12.0	204	11	2.6
2025-11-14T12:00	4940	553	-11.5	-12.1	203	11	2.6
2025-11-14T12:00	4960	551	-11.6	-12.3	202	11	2.6
2025-11-14T12:00	4980	550	-11.6	-12.8	201	11	2.6
2025-11-14T12:00	5000	548	-11.6	-12.9	200	11	2.6
2025-11-14T12:00	5020	547	-11.7	-13.1	199	11	2.6
2025-11-14T12:00	5040	545	-11.9	-13.3	198	10	2.6
2025-11-14T12:00	5060	544	-12.1	-13.4	198	10	2.6
2025-11-14T12:00	5080	543	-12.3	-13.4	198	10	2.6
2025-11-14T12:00	5100	541	-12.5	-13.4	198	10	2.6
2025-11-14T12:00	5120	540	-12.6	-13.5	197	10	2.6
2025-11-14T12:00	5140	538	-12.9	-13.7	197	10	2.6
2025-11-14T12:00	5160	537	-12.9	-14.0	197	10	2.6
2025-11-14T12:00	5180	536	-13.0	-14.5	196	10	2.6
2025-11-14T12:00	5200	534	-13.1	-15.2	196	10	2.6
2025-11-14T12:00	5220	533	-13.3	-15.4	196	10	2.6
2025-11-14T12:00	5240	531	-13.5	-15.6	197	10	2.6
2025-11-14T12:00	5260	530	-13.6	-15.8	199	11	2.6
2025-11-14T12:00	5280	528	-13.7	-16.2	201	11	2.6
2025-11-14T12:00	5300	527	-13.8	-16.3	203	12	2.6
2025-11-14T12:00	5320	526	-13.9	-16.4	205	12	2.6
2025-11-14T12:00	5340	524	-14.1	-16.4	206	13	2.6
2025-11-14T12:00	5360	523	-14.3	-16.3	207	13	2.6
2025-11-14T12:00	5380	522	-14.4	-16.3	207	14	2.6
2025-11-14T12:00	5400	520	-14.6	-16.3	206	14	2.6
2025-11-14T12:00	5420	519	-14.8	-16.4	206	14	2.6
2025-11-14T12:00	5440	518	-14.8	-16.7	205	15	2.6
2025-11-14T12:00	5460	516	-14.9	-17.1	204	15	2.6
2025-11-14T12:00	5480	515	-15.0	-17.4	203	16	2.6
2025-11-14T12:00	5500	513	-15.1	-17.9	203	16	2.6
2025-11-14T12:00	5520	512	-15.2	-18.3	203	17	2.5
2025-11-14T12:00	5540	511	-15.4	-18.4	203	17	2.5
2025-11-14T12:00	5560	509	-15.6	-18.5	203	18	2.5
2025-11-14T12:00	5580	508	-15.7	-18.9	203	19	2.5
2025-11-14T12:00	5600	507	-15.6	-20.9	204	20	2.5
2025-11-14T12:00	5620	505	-15.4	-23.0	204	20	2.5
2025-11-14T12:00	5640	504	-15.4	-24.2	204	21	2.5
2025-11-14T12:00	5660	503	-15.3	-26.6	204	21	2.6
2025-11-14T12:00	5680	501	-15.2	-28.1	205	21	2.6
2025-11-14T12:00	5700	500	-15.3	-29.4	205	22	2.5
2025-11-14T12:00	5720	499	-15.4	-30.3	206	22	2.5
2025-11-14T12:00	5740	497	-15.6	-31.4	207	22	2.6
2025-11-14T12:00	5760	496	-15.7	-32.2	208	22	2.5
2025-11-14T12:00	5780	495	-15.9	-32.7	208	23	2.6
2025-11-14T12:00	5800	493	-16.0	-33.6	208	23	2.5
2025-11-14T12:00	5820	492	-16.2	-34.2	209	24	2.5
2025-11-14T12:00	5840	491	-16.3	-34.7	209	24	2.5
2025-11-14T12:00	5860	489	-16.4	-34.8	209	24	2.5
2025-11-14T12:00	5880	488	-16.6	-35.5	209	23	2.5
2025-11-14T12:00	5900	487	-16.8	-35.3	209	23	2.5
2025-11-14T12:00	5920	485	-16.9	-34.8	209	23	2.5
2025-11-14T12:00	5940	484	-16.9	-34.8	209	23	2.5
2025-11-14T12:00	5960	483	-17.0	-34.8	208	23	2.5
2025-11-14T12:00	5980	482	-17.2	-34.9	208	23	2.5
2025-11-14T12:00	6000	480	-17.4	-35.1	207	23	2.5
2025-11-14T12:00	6020	479	-17.4	-35.4	206	23	2.4
2025-11-14T12:00	6040	478	-17.5	-35.7	205	23	2.4
2025-11-14T12:00	6060	477	-17.7	-35.8	205	23	2.4
2025-11-14T12:00	6080	475	-17.8	-35.9	205	23	2.4
2025-11-14T12:00	6100	474	-18.0	-36.3	206	23	2.4
2025-11-14T12:00	6120	473	-18.1	-36.7	206	23	2.4
2025-11-14T12:00	6140	471	-18.2	-36.9	206	23	2.4
2025-11-14T12:00	6160	470	-18.4	-37.1	206	24	2.4
2025-11-14T12:00	6180	469	-18.5	-37.0	206	24	2.4
2025-11-14T12:00	6200	468	-18.7	-37.1	206	24	2.4
2025-11-14T12:00	6220	466	-18.8	-36.9	205	25	2.4
2025-11-14T12:00	6240	465	-19.0	-36.9	205	25	2.4
2025-11-14T12:00	6260	464	-19.2	-37.2	205	25	2.4
2025-11-14T12:00	6280	463	-19.4	-37.2	205	25	2.4
2025-11-14T12:00	6300	462	-19.5	-37.4	206	25	2.3
2025-11-14T12:00	6320	460	-19.6	-37.0	206	25	2.3
2025-11-14T12:00	6340	459	-19.8	-36.9	207	26	2.3
2025-11-14T12:00	6360	458	-19.9	-36.5	208	26	2.3
2025-11-14T12:00	6380	456	-20.1	-36.0	209	27	2.3
2025-11-14T12:00	6400	455	-20.2	-36.4	210	27	2.3
2025-11-14T12:00	6420	454	-20.3	-37.1	211	27	2.3
2025-11-14T12:00	6440	453	-20.3	-38.0	211	27	2.3
2025-11-14T12:00	6460	452	-20.3	-39.5	212	27	2.3
2025-11-14T12:00	6480	450	-20.3	-39.4	211	26	2.3
2025-11-14T12:00	6500	449	-20.5	-39.1	210	26	2.3
2025-11-14T12:00	6520	448	-20.6	-39.1	209	25	2.3
2025-11-14T12:00	6540	447	-20.8	-39.5	207	25	2.3
2025-11-14T12:00	6560	445	-21.0	-39.7	206	25	2.2
2025-11-14T12:00	6580	444	-21.1	-39.7	205	25	2.2
2025-11-14T12:00	6600	443	-21.1	-39.6	205	25	2.2
2025-11-14T12:00	6620	442	-21.3	-39.5	205	25	2.2
2025-11-14T12:00	6640	441	-21.5	-39.6	205	25	2.2
2025-11-14T12:00	6660	440	-21.7	-39.5	205	25	2.2
2025-11-14T12:00	6680	438	-21.8	-39.5	205	26	2.2
2025-11-14T12:00	6700	437	-21.9	-39.5	204	26	2.2
2025-11-14T12:00	6720	436	-22.1	-39.5	204	26	2.2
2025-11-14T12:00	6740	435	-22.2	-39.4	204	26	2.2
2025-11-14T12:00	6760	434	-22.4	-39.3	204	26	2.2
2025-11-14T12:00	6780	432	-22.5	-39.1	204	26	2.2
2025-11-14T12:00	6800	431	-22.6	-39.1	204	25	2.2
2025-11-14T12:00	6820	430	-22.7	-39.2	204	25	2.2
2025-11-14T12:00	6840	429	-22.9	-39.3	203	25	2.2
2025-11-14T12:00	6860	428	-23.0	-39.4	202	25	2.2
2025-11-14T12:00	6880	427	-23.1	-39.5	201	25	2.2
2025-11-14T12:00	6900	425	-23.3	-39.8	200	25	2.2
2025-11-14T12:00	6920	424	-23.4	-40.2	200	25	2.3
2025-11-14T12:00	6940	423	-23.5	-40.2	200	26	2.3
2025-11-14T12:00	6960	422	-23.7	-40.4	200	26	2.3
2025-11-14T12:00	6980	421	-23.9	-40.5	201	26	2.3
2025-11-14T12:00	7000	420	-24.2	-40.5	201	26	2.3
2025-11-14T12:00	7020	418	-24.3	-40.8	201	25	2.3
2025-11-14T12:00	7040	417	-24.5	-40.7	200	25	2.3
2025-11-14T12:00	7060	416	-24.7	-40.7	200	25	2.3
2025-11-14T12:00	7080	415	-24.8	-41.0	199	26	2.3
2025-11-14T12:00	7100	414	-25.1	-41.0	198	26	2.3
2025-11-14T12:00	7120	413	-25.3	-41.2	197	26	2.3
2025-11-14T12:00	7140	412	-25.3	-41.7	196	26	2.3
2025-11-14T12:00	7160	410	-25.4	-42.3	195	26	2.3
2025-11-14T12:00	7180	409	-25.5	-42.7	195	27	2.3
2025-11-14T12:00	7200	408	-25.6	-42.9	195	27	2.3
2025-11-14T12:00	7220	407	-25.9	-42.5	196	27	2.3
2025-11-14T12:00	7240	406	-26.0	-42.8	197	27	2.3
2025-11-14T12:00	7260	405	-26.2	-43.2	197	27	2.3
2025-11-14T12:00	7280	404	-26.3	-43.6	197	26	2.3
2025-11-14T12:00	7300	403	-26.4	-43.4	198	26	2.3
2025-11-14T12:00	7320	402	-26.5	-43.3	197	26	2.3
2025-11-14T12:00	7340	400	-26.7	-43.4	197	26	2.3
2025-11-14T12:00	7360	399	-26.8	-43.5	197	26	2.3
2025-11-14T12:00	7380	398	-26.9	-43.1	197	25	2.3
2025-11-14T12:00	7400	397	-27.1	-42.2	197	25	2.3
2025-11-14T12:00	7420	396	-27.3	-41.0	198	24	2.3
2025-11-14T12:00	7440	395	-27.4	-39.3	199	23	2.3
2025-11-14T12:00	7460	394	-27.5	-38.0	199	23	2.3
2025-11-14T12:00	7480	393	-27.5	-37.5	200	22	2.3
2025-11-14T12:00	7500	392	-27.5	-37.8	200	22	2.3
2025-11-14T12:00	7520	391	-27.6	-37.2	201	21	2.2
2025-11-14T12:00	7540	389	-27.6	-36.9	202	21	2.2
2025-11-14T12:00	7560	388	-27.6	-37.2	204	21	2.2
2025-11-14T12:00	7580	387	-27.6	-38.4	205	22	2.2
2025-11-14T12:00	7600	386	-27.7	-38.6	207	22	2.1
2025-11-14T12:00	7620	385	-27.7	-38.8	207	22	2.1
2025-11-14T12:00	7640	384	-27.6	-39.3	208	23	2.1
2025-11-14T12:00	7660	383	-27.6	-39.8	208	23	2.1
2025-11-14T12:00	7680	382	-27.7	-40.6	209	23	2.1
2025-11-14T12:00	7700	381	-27.7	-41.9	209	22	2.1
2025-11-14T12:00	7720	380	-28.0	-42.3	209	22	2.1
2025-11-14T12:00	7740	379	-28.1	-41.6	210	22	2.1
2025-11-14T12:00	7760	378	-28.2	-41.5	210	21	2.1
2025-11-14T12:00	7780	377	-28.3	-41.7	211	21	2.1
2025-11-14T12:00	7800	376	-28.5	-41.9	212	21	2.1
2025-11-14T12:00	7820	375	-28.6	-41.5	213	21	2.1
2025-11-14T12:00	7840	373	-28.8	-41.0	214	21	2.1
2025-11-14T12:00	7860	372	-28.9	-40.9	214	21	2.1
2025-11-14T12:00	7880	371	-29.1	-40.9	215	21	2.1
2025-11-14T12:00	7900	370	-29.4	-40.4	215	21	2.1
2025-11-14T12:00	7920	369	-29.5	-41.4	214	21	2.1
2025-11-14T12:00	7940	368	-29.6	-42.5	214	21	2.1
2025-11-14T12:00	7960	367	-29.7	-42.0	214	21	2.1
2025-11-14T12:00	7980	366	-29.9	-40.8	213	21	2.1
2025-11-14T12:00	8000	365	-30.0	-40.5	213	22	2.1
2025-11-14T12:00	8020	364	-30.0	-41.9	213	22	2.1
2025-11-14T12:00	8040	363	-30.1	-42.9	213	22	2.1
2025-11-14T12:00	8060	362	-30.3	-42.5	213	23	2.1
2025-11-14T12:00	8080	361	-30.5	-42.4	213	23	2.1
2025-11-14T12:00	8100	360	-30.6	-42.5	213	24	2.0
2025-11-14T12:00	8120	359	-30.6	-43.0	213	24	2.0
2025-11-14T12:00	8140	358	-30.7	-43.3	214	24	2.0
2025-11-14T12:00	8160	357	-30.9	-43.1	215	24	2.0
2025-11-14T12:00	8180	356	-31.1	-42.5	216	24	2.0
2025-11-14T12:00	8200	355	-31.1	-42.6	216	24	2.0
2025-11-14T12:00	8220	354	-31.2	-42.5	216	24	2.0
2025-11-14T12:00	8240	353	-31.4	-42.3	216	24	2.0
2025-11-14T12:00	8260	352	-31.6	-42.3	216	24	2.0
2025-11-14T12:00	8280	351	-31.7	-42.7	215	24	2.0
2025-11-14T12:00	8300	350	-32.0	-42.5	214	24	2.0
2025-11-14T12:00	8320	349	-32.2	-42.6	214	24	2.0
2025-11-14T12:00	8340	348	-32.4	-42.8	214	24	2.0
2025-11-14T12:00	8360	347	-32.4	-43.4	215	25	1.9
2025-11-14T12:00	8380	346	-32.5	-43.8	216	25	1.9
2025-11-14T12:00	8400	345	-32.7	-43.4	217	25	1.9
2025-11-14T12:00	8420	344	-32.9	-43.3	217	25	1.9
2025-11-14T12:00	8440	343	-33.2	-43.6	218	24	1.9
2025-11-14T12:00	8460	342	-33.3	-43.4	217	24	1.9
2025-11-14T12:00	8480	341	-33.4	-43.5	217	23	1.9
2025-11-14T12:00	8500	340	-33.7	-43.7	216	23	1.9
2025-11-14T12:00	8520	339	-33.9	-43.7	216	24	1.9
2025-11-14T12:00	8540	338	-34.1	-43.8	216	24	1.9
2025-11-14T12:00	8560	337	-34.3	-43.9	216	24	1.9
2025-11-14T12:00	8580	336	-34.5	-44.1	216	24	1.9
2025-11-14T12:00	8600	335	-34.6	-44.1	216	24	1.9
2025-11-14T12:00	8620	334	-34.8	-43.8	216	24	1.9
2025-11-14T12:00	8640	334	-35.0	-43.8	216	24	1.9
2025-11-14T12:00	8660	333	-35.1	-43.7	216	24	1.9
2025-11-14T12:00	8680	332	-35.4	-43.7	217	24	1.8
2025-11-14T12:00	8700	331	-35.5	-43.9	217	24	1.8
2025-11-14T12:00	8720	330	-35.7	-44.0	217	24	1.8
2025-11-14T12:00	8740	329	-36.0	-43.9	217	25	1.8
2025-11-14T12:00	8760	328	-36.1	-44.1	216	25	1.8
2025-11-14T12:00	8780	327	-36.4	-44.2	216	25	1.8
2025-11-14T12:00	8800	326	-36.5	-44.4	216	25	1.8
2025-11-14T12:00	8820	325	-36.7	-44.6	216	24	1.8
2025-11-14T12:00	8840	324	-36.8	-44.5	216	24	1.8
2025-11-14T12:00	8860	323	-37.0	-44.9	216	24	1.8
2025-11-14T12:00	8880	322	-37.2	-45.2	216	24	1.7
2025-11-14T12:00	8900	321	-37.4	-45.3	216	24	1.7
2025-11-14T12:00	8920	320	-37.6	-45.2	216	24	1.7
2025-11-14T12:00	8940	319	-37.8	-45.2	216	24	1.7
2025-11-14T12:00	8960	318	-38.0	-45.4	216	24	1.7
2025-11-14T12:00	8980	317	-38.2	-45.6	216	24	1.7
2025-11-14T12:00	9000	317	-38.3	-45.9	216	24	1.7
2025-11-14T12:00	9020	316	-38.5	-45.5	217	24	1.7
2025-11-14T12:00	9040	315	-38.7	-45.6	217	24	1.7
2025-11-14T12:00	9060	314	-38.9	-45.3	217	24	1.7
2025-11-14T12:00	9080	313	-39.1	-45.5	217	24	1.7
2025-11-14T12:00	9100	312	-39.3	-45.5	216	24	1.7
2025-11-14T12:00	9120	311	-39.4	-45.5	216	24	1.7
2025-11-14T12:00	9140	310	-39.6	-45.5	215	24	1.7
2025-11-14T12:00	9160	309	-39.8	-45.5	215	24	1.7
2025-11-14T12:00	9180	309	-40.0	-45.8	215	24	1.7
2025-11-14T12:00	9200	307	-40.2	-46.1	214	24	1.6
2025-11-14T12:00	9220	307	-40.4	-46.8	214	24	1.6
2025-11-14T12:00	9240	306	-40.5	-46.9	214	24	1.6
2025-11-14T12:00	9260	305	-40.7	-46.6	214	25	1.6
2025-11-14T12:00	9280	304	-40.9	-46.7	213	25	1.6
2025-11-14T12:00	9300	303	-41.0	-46.8	213	26	1.6
2025-11-14T12:00	9320	302	-41.1	-46.8	213	26	1.6
2025-11-14T12:00	9340	301	-41.1	-47.9	213	27	1.6
2025-11-14T12:00	9360	300	-41.2	-47.9	213	27	1.6
2025-11-14T12:00	9380	299	-41.3	-47.9	213	27	1.6
2025-11-14T12:00	9400	299	-41.5	-47.7	213	27	1.6
2025-11-14T12:00	9420	298	-41.8	-47.6	213	27	1.6
2025-11-14T12:00	9440	297	-41.9	-47.5	214	27	1.6
2025-11-14T12:00	9460	296	-42.1	-47.6	214	27	1.6
2025-11-14T12:00	9480	295	-42.3	-47.8	213	27	1.6
2025-11-14T12:00	9500	294	-42.5	-47.7	213	27	1.5
2025-11-14T12:00	9520	293	-42.6	-47.8	212	27	1.5
2025-11-14T12:00	9540	293	-42.8	-47.9	212	27	1.5
2025-11-14T12:00	9560	292	-43.0	-48.1	211	27	1.5
2025-11-14T12:00	9580	291	-43.2	-48.1	211	26	1.5
2025-11-14T12:00	9600	290	-43.4	-48.2	210	26	1.5
2025-11-14T12:00	9620	289	-43.7	-48.1	210	26	1.5
2025-11-14T12:00	9640	288	-43.8	-48.3	210	26	1.5
2025-11-14T12:00	9660	287	-44.1	-48.2	210	26	1.5
2025-11-14T12:00	9680	286	-44.3	-48.4	210	26	1.5
2025-11-14T12:00	9700	286	-44.4	-49.2	210	26	1.5
2025-11-14T12:00	9720	285	-44.5	-48.6	210	26	1.5
2025-11-14T12:00	9740	284	-44.7	-49.2	210	26	1.5
2025-11-14T12:00	9760	283	-44.8	-49.9	210	26	1.5
2025-11-14T12:00	9780	282	-45.0	-50.1	210	26	1.5
2025-11-14T12:00	9800	281	-45.2	-50.6	211	26	1.5
2025-11-14T12:00	9820	281	-45.4	-50.5	211	26	1.4
2025-11-14T12:00	9840	280	-45.6	-51.6	211	26	1.4
2025-11-14T12:00	9860	279	-45.6	-52.9	211	26	1.4
2025-11-14T12:00	9880	278	-45.8	-52.9	211	27	1.4
2025-11-14T12:00	9900	277	-46.0	-52.6	211	27	1.4
2025-11-14T12:00	9920	276	-46.1	-52.4	211	27	1.4
2025-11-14T12:00	9940	276	-46.3	-52.3	210	27	1.4
2025-11-14T12:00	9960	275	-46.5	-52.4	210	27	1.4
2025-11-14T12:00	9980	274	-46.7	-52.5	211	27	1.4
2025-11-14T12:00	10000	273	-46.9	-52.4	211	27	1.4
2025-11-14T12:00	10018	272	-47.1	-52.4	212	27	1.4
2025-11-14T12:00	10050	271	-47.3	-52.8	213	27	1.4
2025-11-14T12:00	10100	269	-47.8	-54.3	213	27	1.4
2025-11-14T12:00	10150	267	-48.2	-56.9	213	27	1.3
2025-11-14T12:00	10200	265	-48.7	-57.1	214	27	1.4
2025-11-14T12:00	10250	263	-49.1	-58.2	215	27	1.3
2025-11-14T12:00	10300	261	-49.5	-58.4	215	27	1.3
2025-11-14T12:00	10350	259	-50.0	-58.4	214	27	1.3
2025-11-14T12:00	10400	257	-50.4	-58.7	214	27	1.3
2025-11-14T12:00	10450	255	-50.8	-59.1	215	28	1.3
2025-11-14T12:00	10500	253	-51.3	-59.8	215	28	1.3
2025-11-14T12:00	10550	251	-51.7	-60.4	215	28	1.3
2025-11-14T12:00	10600	249	-52.2	-60.6	214	28	1.3
2025-11-14T12:00	10650	247	-52.8	-60.9	214	28	1.2
2025-11-14T12:00	10700	245	-53.2	-60.8	214	28	1.2
2025-11-14T12:00	10750	243	-53.7	-60.5	215	28	1.2
2025-11-14T12:00	10800	241	-54.2	-60.0	215	28	1.2
2025-11-14T12:00	10850	240	-54.7	-59.4	215	28	1.2
2025-11-14T12:00	10900	238	-55.1	-59.3	216	28	1.2
2025-11-14T12:00	10950	236	-55.6	-60.5	217	28	1.2
2025-11-14T12:00	11000	234	-56.1	-63.4	218	27	1.2
2025-11-14T12:00	11050	232	-56.5	-63.8	218	27	1.1
2025-11-14T12:00	11100	230	-56.9	-64.5	217	26	1.1
2025-11-14T12:00	11150	228	-57.3	-65.1	218	26	1.1
2025-11-14T12:00	11200	227	-57.8	-64.6	219	26	1.1
2025-11-14T12:00	11250	225	-58.2	-64.3	219	26	1.1
2025-11-14T12:00	11300	223	-58.7	-63.7	220	26	1.1
2025-11-14T12:00	11350	221	-59.0	-62.9	221	25	1.1
2025-11-14T12:00	11400	220	-59.5	-63.1	222	25	1.1
2025-11-14T12:00	11450	218	-59.8	-63.5	222	25	1.1
2025-11-14T12:00	11500	216	-60.1	-64.1	222	25	1.0
2025-11-14T12:00	11550	215	-60.5	-64.6	224	24	1.0
2025-11-14T12:00	11600	213	-60.9	-64.9	227	24	1.1
2025-11-14T12:00	11650	211	-61.4	-65.3	228	25	1.0
2025-11-14T12:00	11700	209	-61.9	-65.7	227	26	1.0
2025-11-14T12:00	11750	208	-62.4	-66.4	226	25	1.0
2025-11-14T12:00	11800	206	-62.9	-67.0	225	25	1.0
2025-11-14T12:00	11850	204	-63.2	-67.6	226	25	1.0
2025-11-14T12:00	11900	203	-63.6	-68.0	226	25	1.0
2025-11-14T12:00	11950	201	-64.1	-68.6	226	24	1.0
2025-11-14T12:00	12000	199	-64.3	-69.3	227	23	1.0
2025-11-14T12:00	12050	198	-64.8	-69.7	228	22	1.0
2025-11-14T12:00	12100	196	-64.9	-69.8	228	22	0.9
2025-11-14T12:00	12150	195	-65.0	-69.9	228	22	1.0
2025-11-14T12:00	12200	193	-65.4	-70.4	227	21	1.0
2025-11-14T12:00	12250	191	-65.9	-70.9	224	20	1.0
2025-11-14T12:00	12300	190	-66.2	-71.3	222	19	1.0
2025-11-14T12:00	12350	188	-66.6	-71.6	223	19	1.0
2025-11-14T12:00	12400	187	-66.9	-72.1	223	18	1.0
2025-11-14T12:00	12450	185	-67.4	-72.6	224	17	1.0
2025-11-14T12:00	12500	184	-67.8	-72.8	224	16	1.0
2025-11-14T12:00	12550	182	-68.2	-73.4	225	15	1.0
2025-11-14T12:00	12600	180	-68.5	-73.7	223	14	1.0
2025-11-14T12:00	12650	179	-69.0	-74.3	219	13	1.1
2025-11-14T12:00	12700	178	-69.4	-74.7	216	11	1.1
2025-11-14T12:00	12750	176	-70.0	-75.2	213	10	1.0
2025-11-14T12:00	12800	175	-69.9	-75.3	215	10	1.1
2025-11-14T12:00	12850	173	-69.8	-75.3	219	9	1.1
2025-11-14T12:00	12900	172	-69.6	-74.9	227	8	1.1
2025-11-14T12:00	12950	170	-69.9	-74.3	232	8	1.1
2025-11-14T12:00	13000	169	-69.5	-73.6	235	9	1.1
2025-11-14T12:00	13050	167	-69.5	-74.0	240	10	1.2
2025-11-14T12:00	13100	166	-69.4	-74.9	244	12	1.3
2025-11-14T12:00	13150	165	-68.8	-76.1	244	15	1.6
2025-11-14T12:00	13200	163	-68.7	-77.1	244	17	1.8
2025-11-14T12:00	13250	162	-68.7	-77.4	245	18	2.1
2025-11-14T12:00	13300	161	-69.0	-77.7	248	19	2.3
2025-11-14T12:00	13350	159	-69.1	-77.9	252	19	2.5
2025-11-14T12:00	13400	158	-69.4	-78.0	254	20	2.6
2025-11-14T12:00	13450	156	-69.8	-77.9	255	22	2.7
2025-11-14T12:00	13500	155	-70.0	-78.0	257	24	2.8
2025-11-14T12:00	13550	154	-70.1	-78.0	260	24	2.9
2025-11-14T12:00	13600	153	-70.2	-78.1	264	24	2.9
2025-11-14T12:00	13650	151	-70.4	-78.4	266	23	3.0
2025-11-14T12:00	13700	150	-70.2	-78.6	268	23	3.1
2025-11-14T12:00	13750	149	-69.9	-79.2	270	24	3.1
2025-11-14T12:00	13800	148	-69.4	-79.9	272	24	3.1
2025-11-14T12:00	13850	146	-68.8	-80.8	274	22	3.3
2025-11-14T12:00	13900	145	-68.3	-82.0	275	20	3.4
2025-11-14T12:00	13950	144	-67.2	-82.4	274	17	3.5
2025-11-14T12:00	14000	143	-67.0	-82.9	268	16	3.7
2025-11-14T12:00	14050	142	-67.2	-83.0	263	15	3.9
2025-11-14T12:00	14100	140	-67.5	-82.8	260	15	3.9
2025-11-14T12:00	14150	139	-67.8	-82.8	256	14	4.0
2025-11-14T12:00	14200	138	-68.1	-82.6	250	14	4.0
2025-11-14T12:00	14250	137	-68.4	-82.8	244	14	3.9
2025-11-14T12:00	14300	136	-68.6	-82.7	241	15	3.9
2025-11-14T12:00	14350	135	-68.9	-82.7	242	16	4.0
2025-11-14T12:00	14400	134	-68.9	-82.7	241	18	3.9
2025-11-14T12:00	14450	132	-69.0	-82.9	242	19	3.9
2025-11-14T12:00	14500	131	-68.7	-83.2	246	19	3.9
2025-11-14T12:00	14550	130	-67.0	-83.0	251	19	3.9
2025-11-14T12:00	14600	129	-66.2	-83.2	254	17	4.0
2025-11-14T12:00	14650	128	-65.8	-83.5	253	15	4.1
2025-11-14T12:00	14700	127	-65.1	-83.6	251	13	4.4
2025-11-14T12:00	14750	126	-64.9	-83.6	243	11	4.7
2025-11-14T12:00	14800	125	-64.4	-83.6	234	12	4.9
2025-11-14T12:00	14850	124	-64.5	-83.6	228	13	5.1
2025-11-14T12:00	14900	123	-64.7	-83.7	224	13	5.2
2025-11-14T12:00	14950	122	-64.4	-83.7	224	14	5.2
2025-11-14T12:00	15000	121	-63.8	-83.7	226	14	5.3
2025-11-14T12:00	15050	120	-63.7	-83.8	228	15	5.3
2025-11-14T12:00	15100	119	-63.2	-83.7	231	15	5.3
2025-11-14T12:00	15150	118	-63.2	-83.8	233	16	5.3
2025-11-14T12:00	15200	117	-63.1	-83.8	233	17	5.0
2025-11-14T12:00	15250	116	-63.1	-83.9	234	17	4.9
2025-11-14T12:00	15300	115	-63.1	-83.9	239	17	4.4
2025-11-14T12:00	15350	114	-62.9	-84.0	245	17	4.2
2025-11-14T12:00	15400	113	-62.5	-84.0	249	16	4.1
2025-11-14T12:00	15450	112	-62.3	-84.1	252	15	4.1
2025-11-14T12:00	15500	112	-62.0	-84.1	252	15	4.2
2025-11-14T12:00	15550	111	-61.7	-84.1	250	15	3.9
2025-11-14T12:00	15600	110	-61.8	-84.1	250	15	3.7
2025-11-14T12:00	15650	109	-61.9	-84.2	250	14	3.4
2025-11-14T12:00	15700	108	-62.0	-84.2	249	13	3.3
2025-11-14T12:00	15750	107	-62.2	-84.2	249	12	3.2
2025-11-14T12:00	15800	106	-62.5	-84.4	249	11	3.2
2025-11-14T12:00	15850	105	-62.5	-84.4	247	11	3.2
2025-11-14T12:00	15900	105	-62.5	-84.4	243	10	3.2
2025-11-14T12:00	15950	104	-62.7	-84.5	240	10	3.2
2025-11-14T12:00	16000	103	-63.0	-84.6	239	10	3.1
2025-11-14T12:00	16050	102	-63.2	-84.6	241	10	3.1
2025-11-14T12:00	16100	101	-63.5	-84.8	240	10	3.2
2025-11-14T12:00	16150	100	-63.1	-84.8	238	9	3.2
2025-11-14T12:00	16200	100	-62.8	-84.8	238	9	3.3
2025-11-14T12:00	16250	99	-62.4	-84.8	227	9	3.5
2025-11-14T12:00	16300	98	-62.1	-84.7	222	9	3.8
2025-11-14T12:00	16350	97	-62.1	-84.6	229	9	3.9
2025-11-14T12:00	16400	96	-62.4	-84.7	229	9	4.2
2025-11-14T12:00	16450	96	-62.3	-84.7	225	9	4.2
2025-11-14T12:00	16500	95	-62.4	-84.8	224	9	4.4
2025-11-14T12:00	16550	94	-62.3	-84.8	222	10	4.6
2025-11-14T12:00	16600	93	-62.5	-84.8	225	10	4.6
2025-11-14T12:00	16650	93	-62.9	-84.9	230	11	4.6
2025-11-14T12:00	16700	92	-62.9	-84.9	232	11	4.6
2025-11-14T12:00	16750	91	-63.0	-85.0	230	10	4.4
2025-11-14T12:00	16800	90	-63.1	-85.0	231	10	4.4
2025-11-14T12:00	16850	90	-63.3	-85.1	233	10	4.5
2025-11-14T12:00	16900	89	-63.2	-85.2	232	10	4.5
2025-11-14T12:00	16950	88	-62.9	-85.2	229	9	4.5
2025-11-14T12:00	17000	87	-62.7	-85.2	225	10	4.7
2025-11-14T12:00	17050	87	-62.8	-85.3	223	11	4.9
2025-11-14T12:00	17100	86	-62.6	-85.3	225	13	5.0
2025-11-14T12:00	17150	85	-62.2	-85.1	228	13	5.2
2025-11-14T12:00	17200	85	-62.5	-85.2	233	13	5.3
2025-11-14T12:00	17250	84	-62.8	-85.2	239	13	5.5
2025-11-14T12:00	17300	83	-63.2	-85.3	243	14	5.5
2025-11-14T12:00	17350	83	-63.4	-85.4	247	14	5.5
2025-11-14T12:00	17400	82	-63.7	-85.5	251	15	5.4
2025-11-14T12:00	17450	81	-63.8	-85.5	254	17	5.5
2025-11-14T12:00	17500	81	-64.0	-85.6	255	17	5.5
2025-11-14T12:00	17550	80	-64.3	-85.7	256	17	5.5
2025-11-14T12:00	17600	79	-64.6	-85.9	258	16	5.4
2025-11-14T12:00	17650	79	-64.5	-86.0	263	14	5.5
2025-11-14T12:00	17700	78	-64.0	-85.9	268	14	5.7
2025-11-14T12:00	17750	77	-64.2	-86.0	268	14	5.9
2025-11-14T12:00	17800	77	-64.6	-86.0	266	13	6.0
2025-11-14T12:00	17850	76	-65.0	-86.2	262	12	6.1
2025-11-14T12:00	17900	76	-65.0	-86.3	253	12	6.2
2025-11-14T12:00	17950	75	-64.6	-86.3	243	11	6.2
2025-11-14T12:00	18000	74	-64.5	-86.2	238	11	6.3
2025-11-14T12:00	18050	74	-64.8	-86.3	235	11	6.3
2025-11-14T12:00	18100	73	-65.3	-86.4	232	12	6.3
2025-11-14T12:00	18150	72	-65.5	-86.4	233	13	6.3
2025-11-14T12:00	18200	72	-65.8	-86.5	236	14	6.3
2025-11-14T12:00	18250	71	-65.8	-86.7	243	15	6.3
2025-11-14T12:00	18300	71	-65.7	-86.8	253	16	6.3
2025-11-14T12:00	18350	70	-65.4	-86.9	263	17	6.4
2025-11-14T12:00	18400	70	-64.6	-86.8	270	18	6.4
2025-11-14T12:00	18450	69	-64.1	-86.6	274	18	6.7
2025-11-14T12:00	18500	68	-64.3	-86.6	277	17	7.0
2025-11-14T12:00	18550	68	-64.7	-86.7	277	15	7.0
2025-11-14T12:00	18600	67	-64.7	-86.7	278	14	6.7
2025-11-14T12:00	18650	67	-64.6	-86.7	281	12	6.9
2025-11-14T12:00	18700	66	-64.7	-86.8	286	10	7.1
2025-11-14T12:00	18750	66	-64.6	-86.8	290	8	7.3
2025-11-14T12:00	18800	65	-64.5	-86.8	291	8	7.8
2025-11-14T12:00	18850	65	-64.4	-86.8	283	8	8.2
2025-11-14T12:00	18900	64	-64.5	-86.9	270	8	8.5
2025-11-14T12:00	18950	64	-64.4	-86.8	261	8	8.7
2025-11-14T12:00	19000	63	-64.4	-86.8	256	8	9.2
2025-11-14T12:00	19050	63	-64.5	-86.9	252	9	9.6
2025-11-14T12:00	19100	62	-64.5	-86.9	247	10	9.8
2025-11-14T12:00	19150	61	-64.5	-86.8	243	11	10.3
2025-11-14T12:00	19200	61	-64.6	-86.9	241	12	10.4
2025-11-14T12:00	19250	61	-64.8	-87.0	244	13	10.2
2025-11-14T12:00	19300	60	-64.8	-87.1	251	13	10.4
2025-11-14T12:00	19350	60	-64.9	-87.2	260	13	10.2
2025-11-14T12:00	19400	59	-64.6	-87.2	266	13	10.1
2025-11-14T12:00	19450	59	-64.2	-87.0	270	12	10.6
2025-11-14T12:00	19500	58	-64.2	-87.0	276	12	11.2
2025-11-14T12:00	19550	58	-64.2	-86.9	279	11	11.6
2025-11-14T12:00	19600	57	-64.1	-87.0	283	9	12.2
2025-11-14T12:00	19650	57	-63.6	-86.8	284	8	12.8
2025-11-14T12:00	19700	56	-63.7	-86.9	281	7	12.9
2025-11-14T12:00	19750	56	-63.8	-86.9	278	7	13.0
2025-11-14T12:00	19800	55	-63.8	-86.9	278	7	13.3
2025-11-14T12:00	19850	55	-63.5	-86.9	278	8	13.4
2025-11-14T12:00	19900	54	-62.9	-86.8	266	8	13.8
2025-11-14T12:00	19950	54	-62.2	-86.6	253	7	14.1
2025-11-14T12:00	20000	54	-62.5	-86.5	242	8	14.6
2025-11-14T12:00	20050	53	-62.8		234	9	14.8
2025-11-14T12:00	20100	53	-62.8		234	11	14.6
2025-11-14T12:00	20150	52	-62.5		240	12	14.6
2025-11-14T12:00	20200	52	-62.6		248	13	14.3
2025-11-14T12:00	20250	51	-62.7		253	14	14.1
2025-11-14T12:00	20300	51	-62.9		257	15	13.6
2025-11-14T12:00	20350	51	-63.0		262	16	13.5
2025-11-14T12:00	20400	50	-63.2		268	16	13.4
2025-11-14T12:00	20450	50	-62.9		273	15	13.2
2025-11-14T12:00	20500	49	-62.9		277	14	12.9
2025-11-14T12:00	20550	49	-63.0		279	13	12.2
2025-11-14T12:00	20600	49	-63.1		279	13	12.0
2025-11-14T12:00	20650	48	-63.1		279	13	11.8
2025-11-14T12:00	20700	48	-62.8		279	13	11.7
2025-11-14T12:00	20750	47	-62.8		277	13	11.8
2025-11-14T12:00	20800	47	-62.8		276	12	12.0
2025-11-14T12:00	20850	47	-62.9		279	12	11.9
2025-11-14T12:00	20900	46	-63.3		282	11	11.6
2025-11-14T12:00	20950	46	-63.7		282	10	11.8
2025-11-14T12:00	21000	46	-64.0		280	9	11.6
2025-11-14T12:00	21050	45	-64.2		277	9	11.7
2025-11-14T12:00	21100	45	-64.5		272	10	11.7
2025-11-14T12:00	21150	44	-64.9		267	10	11.8
2025-11-14T12:00	21200	44	-65.1		263	10	11.3
2025-11-14T12:00	21250	44	-64.9		262	11	11.7
2025-11-14T12:00	21300	43	-64.9		263	11	11.6
2025-11-14T12:00	21350	43	-64.7		263	12	11.6
2025-11-14T12:00	21400	43	-64.7		265	13	11.7
2025-11-14T12:00	21450	42	-64.9		266	13	11.3
2025-11-14T12:00	21500	42	-65.3		265	13	11.5
2025-11-14T12:00	21550	42	-65.3		262	12	11.5
2025-11-14T12:00	21600	41	-65.3		256	12	11.4
2025-11-14T12:00	21650	41	-65.6		250	11	11.2
2025-11-14T12:00	21700	41	-65.8		244	11	11.2
2025-11-14T12:00	21750	40	-65.9		242	12	11.2
2025-11-14T12:00	21800	40	-65.7		243	13	11.4
2025-11-14T12:00	21850	40	-65.6		246	13	11.6
2025-11-14T12:00	21900	39	-65.4		250	13	11.7
2025-11-14T12:00	21950	39	-65.3		253	13	11.9
2025-11-14T12:00	22000	39	-65.4		253	12	11.8
2025-11-14T12:00	22050	38	-65.3		252	12	12.1
2025-11-14T12:00	22100	38	-65.0		254	12	12.2
2025-11-14T12:00	22150	38	-64.6		257	13	12.3
2025-11-14T12:00	22200	37	-64.0		256	14	12.3
2025-11-14T12:00	22250	37	-63.2		253	15	12.6
2025-11-14T12:00	22300	37	-62.7		251	15	12.6
2025-11-14T12:00	22350	36	-62.7		251	15	12.8
2025-11-14T12:00	22400	36	-62.4		254	16	12.7
2025-11-14T12:00	22450	36	-62.2		257	17	12.6
2025-11-14T12:00	22500	36	-62.0		258	17	12.7
2025-11-14T12:00	22550	35	-62.1		259	18	12.8
2025-11-14T12:00	22600	35	-62.1		263	19	12.7
2025-11-14T12:00	22650	35	-61.8		268	19	12.5
2025-11-14T12:00	22700	34	-61.9		274	20	12.8
2025-11-14T12:00	22750	34	-61.8		278	20	12.8
2025-11-14T12:00	22800	34	-62.0		279	20	12.9
2025-11-14T12:00	22850	34	-62.4		280	20	12.9
2025-11-14T12:00	22900	33	-62.5		282	20	12.7
2025-11-14T12:00	22950	33	-62.6		285	21	13.0
2025-11-14T12:00	23000	33	-62.9		288	22	12.8
2025-11-14T12:00	23050	33	-63.2		290	22	12.5
2025-11-14T12:00	23100	32	-63.6		290	22	12.5
2025-11-14T12:00	23150	32	-63.9		290	22	12.6
2025-11-14T12:00	23200	32	-64.3		290	22	12.5
2025-11-14T12:00	23250	32	-64.5		291	22	12.4
2025-11-14T12:00	23300	31	-64.0		293	22	12.4
2025-11-14T12:00	23350	31	-63.9		294	21	12.4
2025-11-14T12:00	23400	31	-64.0		293	20	12.5
2025-11-14T12:00	23450	30	-64.3		291	19	12.4
2025-11-14T12:00	23500	30	-64.5		287	18	12.5
2025-11-14T12:00	23550	30	-64.2		283	18	12.6
2025-11-14T12:00	23600	30	-64.3		280	18	12.6
2025-11-14T12:00	23650	30	-64.1		279	19	12.7
2025-11-14T12:00	23700	29	-63.3		279	19	12.8
2025-11-14T12:00	23750	29	-63.5		280	18	12.8
2025-11-14T12:00	23800	29	-64.0		278	19	12.8
2025-11-14T12:00	23850	29	-64.0		274	19	12.8
2025-11-14T12:00	23900	28	-63.9		271	20	12.7
2025-11-14T12:00	23950	28	-63.4		270	19	12.6
2025-11-14T12:00	24000	28	-63.5		270	18	12.5
2025-11-14T12:00	24050	28	-63.6		270	17	12.5
2025-11-14T12:00	24100	27	-63.8		270	16	12.5
2025-11-14T12:00	24150	27	-63.9		269	15	12.4
2025-11-14T12:00	24200	27	-64.2		266	14	12.4
2025-11-14T12:00	24250	27	-64.4		261	14	12.3
2025-11-14T12:00	24300	27	-64.5		256	14	12.3
2025-11-14T12:00	24350	26	-64.6		255	14	12.3
2025-11-14T12:00	24400	26	-64.1		258	16	12.4
2025-11-14T12:00	24450	26	-64.0		261	17	12.3
2025-11-14T12:00	24500	26	-64.0		264	19	12.3
2025-11-14T12:00	24550	25	-63.7		267	20	12.2
2025-11-14T12:00	24600	25	-63.2		269	20	11.9
2025-11-14T12:00	24650	25	-63.1		271	20	11.8
2025-11-14T12:00	24700	25	-63.1		271	19	11.8
2025-11-14T12:00	24750	25	-63.3		270	19	11.9
2025-11-14T12:00	24800	24	-63.5		270	18	11.8
2025-11-14T12:00	24850	24	-63.7		271	18	11.6
2025-11-14T12:00	24900	24	-63.8		270	18	11.7
2025-11-14T12:00	24950	24	-63.5		268	18	11.7
2025-11-14T12:00	25000	24	-63.3		264	20	11.7
2025-11-14T12:00	25050	23	-63.6		262	21	11.5
2025-11-14T12:00	25100	23	-63.8		261	21	11.5
2025-11-14T12:00	25150	23	-63.6		263	21	11.5
2025-11-14T12:00	25200	23	-63.9		264	21	11.4
2025-11-14T12:00	25250	23	-63.8		265	21	11.4
2025-11-14T12:00	25300	23	-63.4		268	22	11.4
2025-11-14T12:00	25350	22	-63.2		271	23	11.4
2025-11-14T12:00	25400	22	-62.9		273	23	11.3
2025-11-14T12:00	25450	22	-62.7		276	22	11.4
2025-11-14T12:00	25500	22	-62.7		278	21	11.3
2025-11-14T12:00	25550	22	-62.6		281	20	11.3
2025-11-14T12:00	25600	21	-62.8		282	20	11.3
2025-11-14T12:00	25650	21	-63.0		282	20	11.3
2025-11-14T12:00	25700	21	-62.8		280	20	11.2
2025-11-14T12:00	25750	21	-62.7		277	21	11.1
2025-11-14T12:00	25800	21	-62.5		274	22	11.0
2025-11-14T12:00	25850	21	-62.6		271	23	10.9
2025-11-14T12:00	25900	20	-62.5		267	24	10.9
2025-11-14T12:00	25950	20	-62.0		264	24	11.1
2025-11-14T12:00	26000	20	-61.6		263	24	11.2
2025-11-14T12:00	26050	20	-61.0		263	23	11.0
2025-11-14T12:00	26100	20	-60.9		266	22	11.1
2025-11-14T12:00	26150	20	-61.0		268	20	11.1
2025-11-14T12:00	26200	19	-60.7		270	19	11.1
2025-11-14T12:00	26250	19	-60.6		273	20	11.0
2025-11-14T12:00	26300	19	-60.4		276	21	10.9
2025-11-14T12:00	26350	19	-60.2		277	22	10.8
2025-11-14T12:00	26400	19	-60.1		279	22	10.8
2025-11-14T12:00	26450	19	-60.1		282	22	10.7
2025-11-14T12:00	26500	19	-60.2		283	22	10.6
2025-11-14T12:00	26550	18	-60.0		281	23	10.6
2025-11-14T12:00	26600	18	-59.6		280	24	10.5
2025-11-14T12:00	26650	18	-59.8		278	24	10.5
2025-11-14T12:00	26700	18	-60.2		276	25	10.4
2025-11-14T12:00	26750	18	-60.5		276	25	10.3
2025-11-14T12:00	26800	18	-60.6		277	25	10.3
2025-11-14T12:00	26850	18	-60.1		279	25	10.4
2025-11-14T12:00	26900	17	-60.2		279	26	10.3
2025-11-14T12:00	26950	17	-60.6		279	26	10.0
2025-11-14T12:00	27000	17	-61.0		279	26	10.0
2025-11-14T12:00	27050	17	-61.4		279	25	9.9
2025-11-14T12:00	27100	17	-61.9		279	24	9.9
2025-11-14T12:00	27150	17	-62.4		278	24	9.8
2025-11-14T12:00	27200	17	-62.4		275	24	9.8
2025-11-14T12:00	27250	16	-62.2		273	25	9.7
2025-11-14T12:00	27300	16	-61.6		272	26	9.7
2025-11-14T12:00	27350	16	-60.9		270	28	9.6
2025-11-14T12:00	27400	16	-60.8		269	29	9.6
2025-11-15T00:00	491	954	8.8	7.7	156	0	
2025-11-15T00:00	501	952	10.5	6.9	154	1	
2025-11-15T00:00	520	951	11.3	6.7	155	1	
2025-11-15T00:00	540	948	11.3	6.7	158	1	
2025-11-15T00:00	560	946	11.3	6.5	159	1	
2025-11-15T00:00	580	944	12.1	5.5	158	1	
2025-11-15T00:00	600	941	12.5	4.9	152	1	
2025-11-15T00:00	620	939	12.7	4.5	143	1	
2025-11-15T00:00	640	937	13.0	3.9	138	1	
2025-11-15T00:00	660	935	13.5	3.4	135	2	
2025-11-15T00:00	680	932	13.9	2.9	132	2	
2025-11-15T00:00	700	930	14.1	2.6	131	2	
2025-11-15T00:00	720	928	14.2	2.4	131	3	
2025-11-15T00:00	740	926	13.9	2.4	132	3	
2025-11-15T00:00	760	924	13.8	2.3	134	3	
2025-11-15T00:00	780	922	13.6	2.2	138	2	
2025-11-15T00:00	800	919	13.4	2.2	146	2	
2025-11-15T00:00	820	917	13.3	2.1	155	1	
2025-11-15T00:00	840	915	13.6	1.7	177	1	
2025-11-15T00:00	860	913	13.8	1.7	260	0	
2025-11-15T00:00	880	911	13.6	1.7	307	1	
2025-11-15T00:00	900	909	13.4	1.7	332	1	
2025-11-15T00:00	920	906	13.3	1.8	16	0	
2025-11-15T00:00	940	904	13.2	1.6	69	1	
2025-11-15T00:00	960	902	13.6	1.1	95	1	
2025-11-15T00:00	980	900	13.9	0.7	105	2	
2025-11-15T00:00	1000	898	14.0	0.6	109	2	
2025-11-15T00:00	1020	896	14.1	0.3	111	2	
2025-11-15T00:00	1040	893	14.0	0.1	114	2	
2025-11-15T00:00	1060	892	13.9	0.1	119	2	
2025-11-15T00:00	1080	889	13.7	0.0	128	2	
2025-11-15T00:00	1100	887	13.5	0.0	139	1	
2025-11-15T00:00	1120	885	13.3	-0.1	149	2	
2025-11-15T00:00	1140	883	13.2	-0.1	156	2	
2025-11-15T00:00	1160	881	13.0	-0.2	161	2	
2025-11-15T00:00	1180	879	12.8	-0.2	167	2	
2025-11-15T00:00	1200	877	12.7	-0.3	172	2	
2025-11-15T00:00	1220	875	12.5	-0.3	178	3	
2025-11-15T00:00	1240	873	12.3	-0.3	183	3	
2025-11-15T00:00	1260	870	12.1	-0.4	189	4	
2025-11-15T00:00	1280	868	11.9	-0.4	195	4	
2025-11-15T00:00	1300	866	11.9	-0.5	198	5	
2025-11-15T00:00	1320	864	11.8	-0.6	200	6	
2025-11-15T00:00	1340	862	11.7	-0.7	199	6	
2025-11-15T00:00	1360	860	11.8	-1.0	196	7	
2025-11-15T00:00	1380	858	12.3	-1.6	192	7	
2025-11-15T00:00	1400	856	12.6	-2.0	189	8	
2025-11-15T00:00	1420	854	12.5	-2.0	186	9	
2025-11-15T00:00	1440	852	12.4	-2.1	185	9	
2025-11-15T00:00	1460	850	12.4	-2.2	185	10	
2025-11-15T00:00	1480	848	12.4	-2.4	188	10	
2025-11-15T00:00	1500	846	12.5	-2.6	190	10	
2025-11-15T00:00	1520	844	12.8	-2.9	194	10	
2025-11-15T00:00	1540	842	13.0	-3.0	197	10	
2025-11-15T00:00	1560	840	12.8	-3.0	200	11	
2025-11-15T00:00	1580	838	12.7	-3.1	202	11	
2025-11-15T00:00	1600	836	12.5	-3.2	203	11	
2025-11-15T00:00	1620	834	12.3	-3.2	204	10	
2025-11-15T00:00	1640	832	12.1	-3.2	205	10	
2025-11-15T00:00	1660	830	11.9	-3.2	204	10	
2025-11-15T00:00	1680	828	11.7	-3.2	203	10	
2025-11-15T00:00	1700	826	11.5	-3.3	202	10	
2025-11-15T00:00	1720	824	11.3	-3.3	199	10	
2025-11-15T00:00	1740	822	11.1	-3.3	196	10	
2025-11-15T00:00	1760	820	10.9	-3.4	194	9	
2025-11-15T00:00	1780	818	10.7	-3.4	192	9	
2025-11-15T00:00	1800	816	10.6	-3.4	190	8	
2025-11-15T00:00	1820	814	10.3	-3.2	190	8	
2025-11-15T00:00	1840	812	10.2	-3.2	191	8	
2025-11-15T00:00	1860	810	10.0	-3.1	193	8	
2025-11-15T00:00	1880	808	9.8	-3.5	194	9	
2025-11-15T00:00	1900	806	9.6	-3.4	195	10	
2025-11-15T00:00	1920	805	9.4	-3.1	195	11	
2025-11-15T00:00	1940	802	9.2	-3.1	197	12	
2025-11-15T00:00	1960	800	9.0	-3.0	199	12	
2025-11-15T00:00	1980	799	8.8	-3.0	203	11	
2025-11-15T00:00	2000	797	8.6	-3.0	206	11	
2025-11-15T00:00	2020	795	8.4	-3.2	207	10	
2025-11-15T00:00	2040	793	8.2	-3.2	205	10	
2025-11-15T00:00	2060	791	8.0	-3.1	203	10	
2025-11-15T00:00	2080	789	7.8	-3.2	201	10	
2025-11-15T00:00	2100	787	7.6	-3.3	199	10	
2025-11-15T00:00	2120	785	7.5	-3.4	198	10	
2025-11-15T00:00	2140	783	7.2	-3.2	197	10	
2025-11-15T00:00	2160	781	7.1	-3.3	197	10	
2025-11-15T00:00	2180	779	6.9	-3.4	196	10	
2025-11-15T00:00	2200	777	6.6	-3.4	196	10	
2025-11-15T00:00	2220	776	6.4	-3.4	195	9	
2025-11-15T00:00	2240	774	6.3	-3.6	194	9	
2025-11-15T00:00	2260	772	6.1	-3.7	191	9	
2025-11-15T00:00	2280	770	5.9	-3.8	190	10	
2025-11-15T00:00	2300	768	5.7	-3.7	189	10	
2025-11-15T00:00	2320	766	5.4	-3.4	188	10	
2025-11-15T00:00	2340	764	5.2	-3.4	187	9	
2025-11-15T00:00	2360	763	5.1	-3.6	187	9	
2025-11-15T00:00	2380	761	4.9	-3.7	187	9	
2025-11-15T00:00	2400	759	4.7	-3.7	187	8	
2025-11-15T00:00	2420	757	4.5	-3.9	187	8	
2025-11-15T00:00	2440	755	4.3	-3.9	186	8	
2025-11-15T00:00	2460	753	4.1	-3.9	186	8	
2025-11-15T00:00	2480	751	3.9	-4.0	186	8	
2025-11-15T00:00	2500	750	3.8	-4.2	186	9	
2025-11-15T00:00	2520	748	3.6	-4.5	185	9	
2025-11-15T00:00	2540	746	3.4	-4.7	185	9	
2025-11-15T00:00	2560	744	3.2	-4.7	185	9	
2025-11-15T00:00	2580	742	3.1	-4.7	185	9	
2025-11-15T00:00	2600	740	2.8	-4.2	184	9	
2025-11-15T00:00	2620	738	2.5	-3.8	184	9	
2025-11-15T00:00	2640	737	2.3	-3.9	182	9	
2025-11-15T00:00	2660	735	2.2	-4.0	181	9	
2025-11-15T00:00	2680	733	2.1	-4.3	178	8	
2025-11-15T00:00	2700	731	1.9	-4.2	175	8	
2025-11-15T00:00	2720	729	1.7	-4.5	173	8	
2025-11-15T00:00	2740	728	1.6	-4.7	171	9	
2025-11-15T00:00	2760	726	1.4	-4.6	170	9	
2025-11-15T00:00	2780	724	1.2	-4.6	169	9	
2025-11-15T00:00	2800	722	1.0	-4.7	169	9	
2025-11-15T00:00	2820	720	0.9	-4.6	170	9	
2025-11-15T00:00	2840	719	0.6	-4.6	171	9	
2025-11-15T00:00	2860	717	0.4	-4.6	172	9	
2025-11-15T00:00	2880	715	0.2	-4.8	172	8	
2025-11-15T00:00	2900	713	0.1	-4.8	173	8	
2025-11-15T00:00	2920	712	-0.2	-4.9	173	8	
2025-11-15T00:00	2940	710	-0.3	-4.9	173	8	
2025-11-15T00:00	2960	708	-0.5	-4.9	172	7	
2025-11-15T00:00	2980	706	-0.7	-4.9	170	7	
2025-11-15T00:00	3000	704	-0.9	-5.0	169	7	
2025-11-15T00:00	3020	703	-1.1	-4.9	168	7	
2025-11-15T00:00	3040	701	-1.4	-5.0	167	7	
2025-11-15T00:00	3060	699	-1.5	-5.0	167	7	
2025-11-15T00:00	3080	698	-1.7	-5.1	168	8	
2025-11-15T00:00	3100	696	-2.0	-5.1	168	8	
2025-11-15T00:00	3120	694	-2.1	-5.1	168	8	
2025-11-15T00:00	3140	692	-2.4	-5.0	167	8	
2025-11-15T00:00	3160	690	-2.7	-5.1	165	7	
2025-11-15T00:00	3180	689	-2.8	-5.2	161	7	
2025-11-15T00:00	3200	687	-3.0	-5.3	156	7	
2025-11-15T00:00	3220	685	-3.2	-5.3	154	7	
2025-11-15T00:00	3240	684	-3.4	-5.3	157	7	
2025-11-15T00:00	3260	682	-3.6	-5.4	161	7	
2025-11-15T00:00	3280	680	-3.8	-5.5	164	7	
2025-11-15T00:00	3300	678	-4.0	-5.5	167	7	
2025-11-15T00:00	3320	677	-4.2	-5.6	167	8	
2025-11-15T00:00	3340	675	-4.3	-5.7	166	8	
2025-11-15T00:00	3360	673	-4.4	-5.8	163	9	
2025-11-15T00:00	3380	671	-4.5	-5.8	160	9	
2025-11-15T00:00	3400	670	-4.6	-6.0	159	10	
2025-11-15T00:00	3420	668	-4.5	-6.0	160	11	
2025-11-15T00:00	3440	666	-4.2	-6.0	164	12	
2025-11-15T00:00	3460	665	-4.1	-6.1	169	12	
2025-11-15T00:00	3480	663	-4.3	-6.1	175	13	
2025-11-15T00:00	3500	661	-4.5	-6.2	178	13	
2025-11-15T00:00	3520	660	-4.6	-6.3	181	13	
2025-11-15T00:00	3540	658	-4.8	-6.4	181	13	
2025-11-15T00:00	3560	656	-5.0	-6.4	180	13	
2025-11-15T00:00	3580	655	-5.1	-6.5	179	13	
2025-11-15T00:00	3600	653	-5.2	-6.5	177	13	
2025-11-15T00:00	3620	651	-5.4	-6.7	177	14	
2025-11-15T00:00	3640	650	-5.5	-6.8	178	14	
2025-11-15T00:00	3660	648	-5.7	-6.9	179	15	
2025-11-15T00:00	3680	647	-5.8	-6.9	181	15	
2025-11-15T00:00	3700	645	-6.1	-6.9	181	16	
2025-11-15T00:00	3720	643	-6.2	-7.1	182	16	
2025-11-15T00:00	3740	641	-6.2	-7.4	182	17	
2025-11-15T00:00	3760	640	-6.4	-7.5	183	17	
2025-11-15T00:00	3780	638	-6.6	-7.5	184	18	
2025-11-15T00:00	3800	636	-6.8	-7.6	186	18	
2025-11-15T00:00	3820	635	-6.9	-7.8	188	19	
2025-11-15T00:00	3840	633	-6.9	-8.0	189	19	
2025-11-15T00:00	3860	632	-7.1	-8.0	191	20	
2025-11-15T00:00	3880	630	-7.2	-8.0	193	20	
2025-11-15T00:00	3900	628	-7.3	-8.1	195	21	
2025-11-15T00:00	3920	627	-7.5	-8.2	196	21	
2025-11-15T00:00	3940	625	-7.6	-8.2	197	21	
2025-11-15T00:00	3960	624	-7.7	-8.3	198	21	
2025-11-15T00:00	3980	622	-7.8	-8.3	198	21	
2025-11-15T00:00	4000	620	-7.9	-8.4	199	21	
2025-11-15T00:00	4020	619	-8.0	-8.5	199	21	
2025-11-15T00:00	4040	617	-8.1	-8.5	200	21	
2025-11-15T00:00	4060	616	-8.2	-8.7	200	21	
2025-11-15T00:00	4080	614	-8.4	-8.7	201	21	
2025-11-15T00:00	4100	612	-8.5	-8.7	201	22	
2025-11-15T00:00	4120	611	-8.5	-8.8	202	22	
2025-11-15T00:00	4140	609	-8.7	-8.9	202	22	
2025-11-15T00:00	4160	608	-8.8	-9.0	203	22	
2025-11-15T00:00	4180	606	-8.9	-9.1	204	22	
2025-11-15T00:00	4200	605	-8.9	-9.2	205	23	
2025-11-15T00:00	4220	603	-9.0	-9.3	206	23	
2025-11-15T00:00	4240	602	-9.1	-9.4	207	23	
2025-11-15T00:00	4260	600	-9.1	-9.6	209	23	
2025-11-15T00:00	4280	598	-9.2	-9.8	210	24	
2025-11-15T00:00	4300	597	-9.3	-9.9	211	24	
2025-11-15T00:00	4320	595	-9.4	-10.0	212	25	
2025-11-15T00:00	4340	594	-9.4	-10.1	213	25	
2025-11-15T00:00	4360	592	-9.5	-10.2	214	25	
2025-11-15T00:00	4380	591	-9.7	-10.4	214	26	
2025-11-15T00:00	4400	589	-9.8	-10.5	214	26	
2025-11-15T00:00	4420	588	-9.8	-10.6	214	26	
2025-11-15T00:00	4440	586	-9.9	-10.7	215	26	
2025-11-15T00:00	4460	585	-10.0	-10.8	215	26	
2025-11-15T00:00	4480	583	-10.1	-11.0	215	26	
2025-11-15T00:00	4500	582	-10.1	-11.0	215	26	
2025-11-15T00:00	4520	580	-10.1	-10.9	215	25	
2025-11-15T00:00	4540	579	-10.1	-11.0	215	25	
2025-11-15T00:00	4560	577	-10.1	-11.0	215	25	
2025-11-15T00:00	4580	576	-10.1	-11.0	215	24	
2025-11-15T00:00	4600	574	-10.0	-10.9	215	24	
2025-11-15T00:00	4620	573	-9.8	-10.6	216	24	
2025-11-15T00:00	4640	571	-9.9	-10.7	216	24	
2025-11-15T00:00	4660	570	-10.0	-10.7	216	24	
2025-11-15T00:00	4680	568	-10.1	-10.9	216	24	
2025-11-15T00:00	4700	567	-10.2	-11.0	216	24	
2025-11-15T00:00	4720	565	-10.3	-11.0	216	23	
2025-11-15T00:00	4740	564	-10.4	-11.2	216	23	
2025-11-15T00:00	4760	562	-10.5	-11.2	217	23	
2025-11-15T00:00	4780	561	-10.6	-11.3	217	22	
2025-11-15T00:00	4800	560	-10.8	-11.4	217	22	
2025-11-15T00:00	4820	558	-10.9	-11.6	217	22	
2025-11-15T00:00	4840	557	-11.0	-11.7	217	22	
2025-11-15T00:00	4860	555	-11.1	-11.7	217	22	
2025-11-15T00:00	4880	554	-11.2	-11.8	217	22	
2025-11-15T00:00	4900	552	-11.3	-11.9	217	22	
2025-11-15T00:00	4920	551	-11.4	-12.0	216	21	
2025-11-15T00:00	4940	549	-11.5	-12.1	216	21	
2025-11-15T00:00	4960	548	-11.6	-12.2	216	21	
2025-11-15T00:00	4980	546	-11.7	-12.2	216	21	
2025-11-15T00:00	5000	545	-11.8	-12.3	217	21	
2025-11-15T00:00	5020	544	-11.9	-12.4	218	21	
2025-11-15T00:00	5040	542	-12.0	-12.7	219	22	
2025-11-15T00:00	5060	541	-12.2	-12.8	220	22	
2025-11-15T00:00	5080	539	-12.3	-13.0	221	22	
2025-11-15T00:00	5100	538	-12.5	-13.2	221	22	
2025-11-15T00:00	5120	537	-12.6	-13.3	221	22	
2025-11-15T00:00	5140	535	-12.7	-13.5	221	22	
2025-11-15T00:00	5160	534	-12.9	-13.7	221	21	
2025-11-15T00:00	5180	532	-13.0	-13.8	220	21	
2025-11-15T00:00	5200	531	-13.2	-13.9	219	20	
2025-11-15T00:00	5220	529	-13.3	-14.1	219	20	
2025-11-15T00:00	5240	528	-13.4	-14.2	219	20	
2025-11-15T00:00	5260	527	-13.6	-14.4	219	20	
2025-11-15T00:00	5280	525	-13.7	-14.5	219	20	
2025-11-15T00:00	5300	524	-13.8	-14.7	218	19	
2025-11-15T00:00	5320	523	-13.9	-14.9	218	19	
2025-11-15T00:00	5340	521	-14.1	-15.0	218	19	
2025-11-15T00:00	5360	520	-14.2	-15.1	218	19	
2025-11-15T00:00	5380	519	-14.3	-15.3	217	19	
2025-11-15T00:00	5400	517	-14.4	-15.4	217	19	
2025-11-15T00:00	5420	516	-14.6	-15.6	217	19	
2025-11-15T00:00	5440	514	-14.7	-15.7	218	19	
2025-11-15T00:00	5460	513	-14.9	-15.8	218	19	
2025-11-15T00:00	5480	512	-15.0	-16.0	218	19	
2025-11-15T00:00	5500	510	-15.1	-16.1	219	19	
2025-11-15T00:00	5520	509	-15.3	-16.2	219	19	
2025-11-15T00:00	5540	508	-15.4	-16.4	220	19	
2025-11-15T00:00	5560	506	-15.5	-16.5	220	19	
2025-11-15T00:00	5580	505	-15.6	-16.7	220	19	
2025-11-15T00:00	5600	504	-15.8	-16.8	220	19	
2025-11-15T00:00	5620	502	-15.9	-16.9	220	19	
2025-11-15T00:00	5640	501	-16.0	-17.0	221	19	
2025-11-15T00:00	5660	500	-16.2	-17.2	222	20	
2025-11-15T00:00	5680	498	-16.3	-17.3	223	20	
2025-11-15T00:00	5700	497	-16.5	-17.5	224	20	
2025-11-15T00:00	5720	496	-16.6	-17.7	224	20	
2025-11-15T00:00	5740	494	-16.7	-17.9	225	20	
2025-11-15T00:00	5760	493	-16.9	-18.1	225	20	
2025-11-15T00:00	5780	492	-17.0	-18.1	225	20	
2025-11-15T00:00	5800	490	-17.2	-18.3	226	20	
2025-11-15T00:00	5820	489	-17.3	-18.5	225	20	
2025-11-15T00:00	5840	488	-17.5	-18.6	225	19	
2025-11-15T00:00	5860	487	-17.6	-18.9	225	19	
2025-11-15T00:00	5880	485	-17.8	-19.1	225	19	
2025-11-15T00:00	5900	484	-18.0	-19.3	224	19	
2025-11-15T00:00	5920	482	-18.1	-19.5	224	19	
2025-11-15T00:00	5940	481	-18.2	-19.6	224	19	
2025-11-15T00:00	5960	480	-18.4	-19.7	224	19	
2025-11-15T00:00	5980	479	-18.5	-19.9	224	19	
2025-11-15T00:00	6000	477	-18.7	-20.0	224	19	
2025-11-15T00:00	6020	476	-18.8	-20.2	224	19	
2025-11-15T00:00	6040	475	-19.0	-20.3	223	19	
2025-11-15T00:00	6060	474	-19.1	-20.4	222	19	
2025-11-15T00:00	6080	472	-19.2	-20.5	221	19	
2025-11-15T00:00	6100	471	-19.3	-20.6	220	19	
2025-11-15T00:00	6120	470	-19.5	-20.7	219	19	
2025-11-15T00:00	6140	469	-19.6	-20.8	218	19	
2025-11-15T00:00	6160	467	-19.7	-21.0	218	20	
2025-11-15T00:00	6180	466	-19.9	-21.1	218	20	
2025-11-15T00:00	6200	465	-20.1	-21.5	217	20	
2025-11-15T00:00	6220	464	-20.3	-21.8	218	19	
2025-11-15T00:00	6240	462	-20.5	-22.0	218	20	
2025-11-15T00:00	6260	461	-20.6	-22.1	218	20	
2025-11-15T00:00	6280	460	-20.8	-22.4	218	20	
2025-11-15T00:00	6300	459	-20.9	-22.5	218	20	
2025-11-15T00:00	6320	457	-21.0	-22.6	218	20	
2025-11-15T00:00	6340	456	-21.2	-22.7	218	20	
2025-11-15T00:00	6360	455	-21.3	-22.8	218	20	
2025-11-15T00:00	6380	454	-21.4	-23.0	218	21	
2025-11-15T00:00	6400	452	-21.5	-23.0	218	21	
2025-11-15T00:00	6420	451	-21.6	-23.2	218	21	
2025-11-15T00:00	6440	450	-21.8	-23.2	217	21	
2025-11-15T00:00	6460	449	-21.9	-23.3	217	21	
2025-11-15T00:00	6480	447	-22.0	-23.5	216	21	
2025-11-15T00:00	6500	446	-22.2	-23.7	215	21	
2025-11-15T00:00	6520	445	-22.3	-23.8	215	21	
2025-11-15T00:00	6540	444	-22.5	-23.8	215	21	
2025-11-15T00:00	6560	443	-22.6	-23.9	214	21	
2025-11-15T00:00	6580	441	-22.7	-24.0	214	22	
2025-11-15T00:00	6600	440	-22.9	-24.1	215	22	
2025-11-15T00:00	6620	439	-23.0	-24.1	215	22	
2025-11-15T00:00	6640	438	-23.2	-24.3	215	22	
2025-11-15T00:00	6660	437	-23.3	-24.6	215	22	
2025-11-15T00:00	6680	436	-23.5	-24.7	215	23	
2025-11-15T00:00	6700	434	-23.6	-24.9	216	23	
2025-11-15T00:00	6720	433	-23.8	-25.2	216	23	
2025-11-15T00:00	6740	432	-23.9	-25.6	217	23	
2025-11-15T00:00	6760	431	-24.2	-26.2	217	23	
2025-11-15T00:00	6780	429	-24.4	-26.4	218	23	
2025-11-15T00:00	6800	428	-24.5	-26.6	218	23	
2025-11-15T00:00	6820	427	-24.7	-26.8	218	23	
2025-11-15T00:00	6840	426	-24.9	-27.1	218	23	
2025-11-15T00:00	6860	425	-25.1	-27.1	218	22	
2025-11-15T00:00	6880	424	-25.3	-27.1	218	22	
2025-11-15T00:00	6900	422	-25.4	-26.8	217	22	
2025-11-15T00:00	6920	421	-25.5	-27.2	217	22	
2025-11-15T00:00	6940	420	-25.7	-27.9	216	22	
2025-11-15T00:00	6960	419	-26.0	-28.2	216	22	
2025-11-15T00:00	6980	418	-26.1	-28.3	216	21	
2025-11-15T00:00	7000	417	-26.3	-28.5	217	21	
2025-11-15T00:00	7020	416	-26.5	-28.7	217	21	
2025-11-15T00:00	7040	414	-26.7	-28.9	217	21	
2025-11-15T00:00	7060	413	-26.8	-29.1	218	21	
2025-11-15T00:00	7080	412	-27.0	-29.2	218	22	
2025-11-15T00:00	7100	411	-27.1	-29.6	219	22	
2025-11-15T00:00	7120	410	-27.2	-29.9	219	23	
2025-11-15T00:00	7140	409	-27.4	-30.0	219	23	
2025-11-15T00:00	7160	408	-27.6	-30.2	218	24	
2025-11-15T00:00	7180	407	-27.7	-30.6	217	24	
2025-11-15T00:00	7200	405	-27.8	-30.6	216	25	
2025-11-15T00:00	7220	404	-28.0	-30.7	214	26	
2025-11-15T00:00	7240	403	-28.1	-30.8	212	26	
2025-11-15T00:00	7260	402	-28.3	-30.9	211	26	
2025-11-15T00:00	7280	401	-28.4	-31.0	210	26	
2025-11-15T00:00	7300	400	-28.6	-31.0	210	26	
2025-11-15T00:00	7320	399	-28.7	-31.2	209	26	
2025-11-15T00:00	7340	398	-28.8	-31.2	208	26	
2025-11-15T00:00	7360	396	-29.0	-31.3	207	26	
2025-11-15T00:00	7380	395	-29.1	-31.5	206	26	
2025-11-15T00:00	7400	394	-29.3	-31.6	205	26	
2025-11-15T00:00	7420	393	-29.4	-31.7	204	25	
2025-11-15T00:00	7440	392	-29.6	-31.9	204	25	
2025-11-15T00:00	7460	391	-29.7	-31.9	203	25	
2025-11-15T00:00	7480	390	-29.9	-31.9	204	25	
2025-11-15T00:00	7500	389	-30.0	-32.3	204	25	
2025-11-15T00:00	7520	387	-30.2	-32.5	204	25	
2025-11-15T00:00	7540	386	-30.3	-32.8	205	25	
2025-11-15T00:00	7560	385	-30.5	-32.9	205	25	
2025-11-15T00:00	7580	384	-30.7	-33.1	205	25	
2025-11-15T00:00	7600	383	-30.8	-33.2	205	24	
2025-11-15T00:00	7620	382	-31.0	-33.7	205	24	
2025-11-15T00:00	7640	381	-31.2	-33.9	205	24	
2025-11-15T00:00	7660	380	-31.3	-33.9	205	25	
2025-11-15T00:00	7680	379	-31.5	-33.9	204	25	
2025-11-15T00:00	7700	378	-31.7	-34.2	204	26	
2025-11-15T00:00	7720	377	-31.8	-34.5	204	26	
2025-11-15T00:00	7740	376	-32.0	-34.5	204	26	
2025-11-15T00:00	7760	375	-32.2	-34.8	203	27	
2025-11-15T00:00	7780	374	-32.4	-35.0	203	27	
2025-11-15T00:00	7800	372	-32.5	-35.2	202	27	
2025-11-15T00:00	7820	372	-32.7	-35.2	202	27	
2025-11-15T00:00	7840	370	-32.9	-35.5	201	27	
2025-11-15T00:00	7860	370	-33.0	-35.6	200	27	
2025-11-15T00:00	7880	369	-33.2	-35.8	200	27	
2025-11-15T00:00	7900	367	-33.4	-35.9	200	27	
2025-11-15T00:00	7920	366	-33.5	-36.1	201	28	
2025-11-15T00:00	7940	365	-33.7	-36.4	201	29	
2025-11-15T00:00	7960	364	-33.8	-36.6	202	29	
2025-11-15T00:00	7980	363	-34.0	-36.9	203	30	
2025-11-15T00:00	8000	362	-34.1	-37.1	204	30	
2025-11-15T00:00	8020	361	-34.3	-37.1	204	31	
2025-11-15T00:00	8040	360	-34.5	-37.3	204	31	
2025-11-15T00:00	8060	359	-34.6	-37.4	204	31	
2025-11-15T00:00	8080	358	-34.8	-37.8	204	31	
2025-11-15T00:00	8100	357	-35.0	-38.0	204	31	
2025-11-15T00:00	8120	356	-35.1	-37.8	205	31	
2025-11-15T00:00	8140	355	-35.3	-38.0	205	31	
2025-11-15T00:00	8160	354	-35.5	-38.1	205	31	
2025-11-15T00:00	8180	353	-35.7	-38.3	206	31	
2025-11-15T00:00	8200	352	-35.9	-38.6	206	31	
2025-11-15T00:00	8220	351	-36.1	-39.0	206	31	
2025-11-15T00:00	8240	350	-36.3	-39.0	206	31	
2025-11-15T00:00	8260	349	-36.5	-39.2	206	31	
2025-11-15T00:00	8280	348	-36.7	-39.3	205	32	
2025-11-15T00:00	8300	347	-36.9	-39.5	204	32	
2025-11-15T00:00	8320	346	-37.1	-39.9	204	32	
2025-11-15T00:00	8340	345	-37.3	-40.0	204	32	
2025-11-15T00:00	8360	344	-37.5	-40.2	203	32	
2025-11-15T00:00	8380	343	-37.7	-40.5	203	32	
2025-11-15T00:00	8400	342	-37.8	-40.8	203	32	
2025-11-15T00:00	8420	341	-38.0	-41.0	203	31	
2025-11-15T00:00	8440	340	-38.2	-40.8	203	31	
2025-11-15T00:00	8460	339	-38.4	-40.9	203	31	
2025-11-15T00:00	8480	338	-38.5	-41.0	203	30	
2025-11-15T00:00	8500	337	-38.7	-41.3	203	30	
2025-11-15T00:00	8520	336	-38.9	-42.0	203	30	
2025-11-15T00:00	8540	335	-39.1	-42.8	204	30	
2025-11-15T00:00	8560	334	-39.2	-42.8	204	29	
2025-11-15T00:00	8580	333	-39.4	-42.8	204	29	
2025-11-15T00:00	8600	332	-39.5	-42.8	205	29	
2025-11-15T00:00	8620	331	-39.7	-42.9	205	29	
2025-11-15T00:00	8640	330	-39.8	-42.7	206	29	
2025-11-15T00:00	8660	329	-39.9	-42.5	206	29	
2025-11-15T00:00	8680	328	-40.1	-42.4	206	29	
2025-11-15T00:00	8700	327	-40.3	-42.5	207	29	
2025-11-15T00:00	8720	326	-40.4	-42.8	206	29	
2025-11-15T00:00	8740	325	-40.6	-43.0	206	29	
2025-11-15T00:00	8760	324	-40.8	-43.1	206	29	
2025-11-15T00:00	8780	323	-41.0	-43.2	206	29	
2025-11-15T00:00	8800	322	-41.1	-43.0	205	29	
2025-11-15T00:00	8820	322	-41.2	-42.3	205	29	
2025-11-15T00:00	8840	321	-41.3	-41.9	204	30	
2025-11-15T00:00	8860	320	-41.5	-42.3	204	30	
2025-11-15T00:00	8880	319	-41.5	-42.4	203	30	
2025-11-15T00:00	8900	318	-41.6	-42.4	203	31	
2025-11-15T00:00	8920	317	-41.7	-42.7	203	31	
2025-11-15T00:00	8940	316	-41.9	-43.3	203	31	
2025-11-15T00:00	8960	315	-42.1	-44.3	203	31	
2025-11-15T00:00	8980	314	-42.1	-44.8	203	31	
2025-11-15T00:00	9000	313	-42.2	-45.0	203	31	
2025-11-15T00:00	9020	312	-42.3	-45.4	203	31	
2025-11-15T00:00	9040	311	-42.5	-46.0	204	31	
2025-11-15T00:00	9060	310	-42.7	-46.6	204	31	
2025-11-15T00:00	9080	309	-42.9	-46.7	204	31	
2025-11-15T00:00	9100	309	-43.0	-46.8	205	31	
2025-11-15T00:00	9120	308	-43.2	-47.4	205	31	
2025-11-15T00:00	9140	307	-43.3	-48.0	205	31	
2025-11-15T00:00	9160	306	-43.5	-48.0	205	32	
2025-11-15T00:00	9180	305	-43.7	-47.9	205	32	
2025-11-15T00:00	9200	304	-43.9	-47.7	205	32	
2025-11-15T00:00	9220	303	-44.0	-47.6	205	32	
2025-11-15T00:00	9240	302	-44.2	-47.7	204	32	
2025-11-15T00:00	9260	301	-44.4	-47.7	204	32	
2025-11-15T00:00	9280	300	-44.6	-47.9	204	32	
2025-11-15T00:00	9300	299	-44.7	-48.2	205	32	
2025-11-15T00:00	9320	299	-44.9	-48.4	205	32	
2025-11-15T00:00	9340	298	-45.1	-48.4	205	32	
2025-11-15T00:00	9360	297	-45.3	-48.5	205	32	
2025-11-15T00:00	9380	296	-45.5	-48.6	205	32	
2025-11-15T00:00	9400	295	-45.7	-48.9	205	32	
2025-11-15T00:00	9420	294	-45.8	-49.2	205	32	
2025-11-15T00:00	9440	293	-46.0	-49.6	205	32	
2025-11-15T00:00	9460	292	-46.2	-49.9	205	32	
2025-11-15T00:00	9480	291	-46.4	-50.0	205	32	
2025-11-15T00:00	9500	291	-46.6	-50.2	206	32	
2025-11-15T00:00	9520	290	-46.8	-50.5	206	32	
2025-11-15T00:00	9540	289	-47.0	-50.8	206	32	
2025-11-15T00:00	9560	288	-47.2	-51.0	206	32	
2025-11-15T00:00	9580	287	-47.3	-51.0	207	32	
2025-11-15T00:00	9600	286	-47.5	-51.1	207	32	
2025-11-15T00:00	9620	285	-47.7	-51.2	207	32	
2025-11-15T00:00	9640	284	-47.9	-51.4	207	32	
2025-11-15T00:00	9660	284	-48.1	-51.8	207	32	
2025-11-15T00:00	9680	283	-48.2	-52.2	208	33	
2025-11-15T00:00	9700	282	-48.4	-52.8	208	33	
2025-11-15T00:00	9720	281	-48.6	-53.8	207	33	
2025-11-15T00:00	9740	280	-48.7	-54.8	207	33	
2025-11-15T00:00	9760	279	-48.8	-55.6	206	33	
2025-11-15T00:00	9780	278	-48.6	-55.4	206	32	
2025-11-15T00:00	9800	278	-48.5	-54.8	205	32	
2025-11-15T00:00	9820	277	-48.4	-54.3	204	32	
2025-11-15T00:00	9840	276	-48.5	-54.7	204	32	
2025-11-15T00:00	9860	275	-48.6	-55.5	204	31	
2025-11-15T00:00	9880	274	-48.8	-56.0	204	31	
2025-11-15T00:00	9900	273	-49.0	-56.0	204	31	
2025-11-15T00:00	9920	273	-49.1	-55.9	204	31	
2025-11-15T00:00	9940	272	-49.3	-55.8	204	31	
2025-11-15T00:00	9960	271	-49.5	-55.9	204	30	
2025-11-15T00:00	9980	270	-49.6	-56.1	205	30	
2025-11-15T00:00	10000	269	-49.7	-56.1	205	30	
2025-11-15T00:00	10018	269	-49.8	-56.2	205	30	
2025-11-15T00:00	10050	267	-50.0	-56.3	205	30	
2025-11-15T00:00	10100	265	-50.4	-56.2	204	30	
2025-11-15T00:00	10150	263	-50.7	-56.0	202	29	
2025-11-15T00:00	10200	261	-51.1	-56.5	200	29	
2025-11-15T00:00	10250	259	-51.5	-56.8	199	29	
2025-11-15T00:00	10300	257	-52.0	-56.9	198	29	
2025-11-15T00:00	10350	255	-52.4	-57.0	198	29	
2025-11-15T00:00	10400	253	-52.9	-57.2	197	29	
2025-11-15T00:00	10450	251	-53.4	-57.4	196	29	
2025-11-15T00:00	10500	249	-53.8	-57.8	195	30	
2025-11-15T00:00	10550	247	-54.2	-58.2	195	31	
2025-11-15T00:00	10600	245	-54.7	-58.6	195	32	
2025-11-15T00:00	10650	243	-55.2	-59.2	195	32	
2025-11-15T00:00	10700	242	-55.6	-59.7	194	32	
2025-11-15T00:00	10750	240	-56.1	-60.1	195	33	
2025-11-15T00:00	10800	238	-56.6	-60.9	195	33	
2025-11-15T00:00	10850	236	-57.0	-61.5	196	33	
2025-11-15T00:00	10900	234	-57.4	-61.7	197	33	
2025-11-15T00:00	10950	232	-57.7	-62.1	197	33	
2025-11-15T00:00	11000	230	-58.1	-62.7	197	33	
2025-11-15T00:00	11050	229	-58.5	-63.2	197	32	
2025-11-15T00:00	11100	227	-58.9	-63.7	196	32	
2025-11-15T00:00	11150	225	-59.4	-64.3	196	31	
2025-11-15T00:00	11200	223	-59.8	-64.7	196	31	
2025-11-15T00:00	11250	221	-60.2	-65.1	197	31	
2025-11-15T00:00	11300	220	-60.6	-65.3	198	30	
2025-11-15T00:00	11350	218	-60.9	-65.7	200	30	
2025-11-15T00:00	11400	216	-61.2	-66.2	202	29	
2025-11-15T00:00	11450	214	-61.4	-66.5	202	29	
2025-11-15T00:00	11500	213	-61.7	-66.7	201	29	
2025-11-15T00:00	11550	211	-62.0	-66.9	200	29	
2025-11-15T00:00	11600	209	-62.3	-67.1	200	30	
2025-11-15T00:00	11650	208	-62.5	-67.5	199	31	
2025-11-15T00:00	11700	206	-62.1	-67.3	200	32	
2025-11-15T00:00	11750	204	-62.0	-66.8	200	33	
2025-11-15T00:00	11800	203	-62.1	-66.8	201	33	
2025-11-15T00:00	11850	201	-62.0	-67.5	203	33	
2025-11-15T00:00	11900	199	-61.6	-68.6	205	34	
2025-11-15T00:00	11950	198	-61.3	-69.8	207	34	
2025-11-15T00:00	12000	196	-61.5	-70.6	210	34	
2025-11-15T00:00	12050	195	-61.8	-70.8	212	33	
2025-11-15T00:00	12100	193	-61.9	-71.0	214	32	
2025-11-15T00:00	12150	191	-62.2	-71.6	214	31	
2025-11-15T00:00	12200	190	-62.2	-71.8	214	30	
2025-11-15T00:00	12250	188	-62.2	-71.6	212	28	
2025-11-15T00:00	12300	187	-62.2	-71.3	210	28	
2025-11-15T00:00	12350	185	-62.3	-71.0	209	27	
2025-11-15T00:00	12400	184	-62.3	-70.7	209	27	
2025-11-15T00:00	12450	182	-62.3	-70.3	209	27	
2025-11-15T00:00	12500	181	-62.7	-70.5	209	27	
2025-11-15T00:00	12550	179	-62.8	-71.2	210	26	
2025-11-15T00:00	12600	178	-62.2	-72.3	211	25	
2025-11-15T00:00	12650	176	-62.0	-74.2	211	24	
2025-11-15T00:00	12700	175	-61.5	-75.4	210	23	
2025-11-15T00:00	12750	174	-61.3	-75.7	209	22	
2025-11-15T00:00	12800	172	-61.4	-75.9	210	22	
2025-11-15T00:00	12850	171	-61.4	-76.0	211	21	
2025-11-15T00:00	12900	170	-61.6	-76.4	213	21	
2025-11-15T00:00	12950	168	-61.4	-76.9	216	21	
2025-11-15T00:00	13000	167	-61.5	-77.5	218	20	
2025-11-15T00:00	13050	166	-61.7	-77.9	222	20	
2025-11-15T00:00	13100	164	-61.7	-78.3	226	19	
2025-11-15T00:00	13150	163	-61.8	-78.5	229	18	
2025-11-15T00:00	13200	162	-62.1	-78.6	232	17	
2025-11-15T00:00	13250	160	-62.4	-78.6	234	17	
2025-11-15T00:00	13300	159	-62.8	-78.5	235	17	
2025-11-15T00:00	13350	158	-63.3	-78.5	236	17	
2025-11-15T00:00	13400	156	-63.6	-78.5	237	16	
2025-11-15T00:00	13450	155	-63.5	-78.4	237	15	
2025-11-15T00:00	13500	154	-63.7	-78.7	237	15	
2025-11-15T00:00	13550	153	-64.1	-79.2	239	14	
2025-11-15T00:00	13600	151	-64.6	-79.7	239	14	
2025-11-15T00:00	13650	150	-65.0	-79.9	236	13	
2025-11-15T00:00	13700	149	-65.4	-79.9	232	12	
2025-11-15T00:00	13750	148	-65.6	-80.0	226	11	
2025-11-15T00:00	13800	147	-65.7	-80.4	219	10	
2025-11-15T00:00	13850	145	-65.7	-80.7	210	10	
2025-11-15T00:00	13900	144	-65.9	-81.2	202	10	
2025-11-15T00:00	13950	143	-65.8	-81.3	197	11	
2025-11-15T00:00	14000	142	-65.3	-81.3	194	12	
2025-11-15T00:00	14050	141	-64.6	-81.4	195	14	
2025-11-15T00:00	14100	139	-63.3	-81.0	200	15	
2025-11-15T00:00	14150	138	-62.4	-81.0	205	15	
2025-11-15T00:00	14200	137	-62.0	-81.0	211	15	
2025-11-15T00:00	14250	136	-62.2	-81.4	217	14	
2025-11-15T00:00	14300	135	-62.6	-81.6	224	14	
2025-11-15T00:00	14350	134	-62.8	-81.5	228	13	
2025-11-15T00:00	14400	133	-62.7	-81.1	226	13	
2025-11-15T00:00	14450	132	-63.0	-81.3	223	14	
2025-11-15T00:00	14500	131	-63.0	-81.6	221	15	
2025-11-15T00:00	14550	130	-62.6	-81.9	221	15	
2025-11-15T00:00	14600	129	-60.9	-81.4	219	14	
2025-11-15T00:00	14650	128	-60.9	-81.9	218	13	
2025-11-15T00:00	14700	127	-61.2	-82.2	222	12	
2025-11-15T00:00	14750	126	-60.8	-81.9	228	11	
2025-11-15T00:00	14800	124	-60.9	-81.8	231	12	
2025-11-15T00:00	14850	124	-61.3	-82.0	233	12	
2025-11-15T00:00	14900	122	-61.7	-82.3	235	11	
2025-11-15T00:00	14950	121	-62.0	-82.5	239	10	
2025-11-15T00:00	15000	121	-61.9	-82.3	240	9	
2025-11-15T00:00	15050	120	-61.9	-82.3	235	9	
2025-11-15T00:00	15100	119	-61.8	-82.4	231	8	
2025-11-15T00:00	15150	118	-61.8	-82.5	229	8	
2025-11-15T00:00	15200	117	-61.6	-82.5	228	8	
2025-11-15T00:00	15250	116	-61.5	-82.6	229	8	
2025-11-15T00:00	15300	115	-61.6	-82.8	233	8	
2025-11-15T00:00	15350	114	-61.5	-82.9	238	7	
2025-11-15T00:00	15400	113	-61.4	-83.0	248	6	
2025-11-15T00:00	15450	112	-61.5	-82.9	258	6	
2025-11-15T00:00	15500	111	-61.8	-82.9	268	6	
2025-11-15T00:00	15550	110	-62.2	-83.0	275	5	
2025-11-15T00:00	15600	109	-62.6	-83.0	282	5	
2025-11-15T00:00	15650	108	-63.0	-83.0	291	4	
2025-11-15T00:00	15700	108	-63.5	-83.0	299	4	
2025-11-15T00:00	15750	107	-63.9	-83.2	302	4	
2025-11-15T00:00	15800	106	-64.4	-83.4	299	4	
2025-11-15T00:00	15850	105	-64.8	-83.8	291	4	
2025-11-15T00:00	15900	104	-65.2	-84.1	283	4	
2025-11-15T00:00	15950	103	-65.3	-84.2	274	4	
2025-11-15T00:00	16000	102	-65.6	-84.3	266	4	
2025-11-15T00:00	16050	102	-66.0	-84.3	259	5	
2025-11-15T00:00	16100	101	-66.2	-84.4	259	6	
2025-11-15T00:00	16150	100	-66.5	-84.5	264	7	
2025-11-15T00:00	16200	99	-66.8	-84.7	269	8	
2025-11-15T00:00	16250	98	-66.7	-84.7	272	10	
2025-11-15T00:00	16300	98	-66.5	-84.9	275	11	
2025-11-15T00:00	16350	97	-66.1	-84.9	278	10	
2025-11-15T00:00	16400	96	-66.0	-85.3	271	10	
2025-11-15T00:00	16450	95	-64.6	-85.1	259	10	
2025-11-15T00:00	16500	94	-63.4	-85.1	253	11	
2025-11-15T00:00	16550	94	-62.6	-85.1	251	12	
2025-11-15T00:00	16600	93	-62.1	-84.9	249	12	
2025-11-15T00:00	16650	92	-62.3	-84.9	248	12	
2025-11-15T00:00	16700	91	-62.6	-84.9	249	12	
2025-11-15T00:00	16750	91	-62.9	-85.0	250	12	
2025-11-15T00:00	16800	90	-63.2	-85.1	252	12	
2025-11-15T00:00	16850	89	-63.4	-85.1	253	14	
2025-11-15T00:00	16900	88	-63.5	-85.2	253	15	
2025-11-15T00:00	16950	88	-63.7	-85.5	254	16	
2025-11-15T00:00	17000	87	-63.4	-85.6	256	15	
2025-11-15T00:00	17050	86	-62.5	-85.4	258	13	
2025-11-15T00:00	17100	86	-62.2	-85.5	259	11	
2025-11-15T00:00	17150	85	-62.3	-85.5	257	9	
2025-11-15T00:00	17200	84	-62.5	-85.6	252	7	
2025-11-15T00:00	17250	84	-62.6	-85.5	248	7	
2025-11-15T00:00	17300	83	-62.9	-85.5	245	7	
2025-11-15T00:00	17350	82	-63.4	-85.7	241	7	
2025-11-15T00:00	17400	82	-63.6	-85.8	239	8	
2025-11-15T00:00	17450	81	-63.8	-85.8	239	10	
2025-11-15T00:00	17500	80	-64.0	-85.9	243	11	
2025-11-15T00:00	17550	80	-64.1	-86.1	247	12	
2025-11-15T00:00	17600	79	-64.1	-86.2	252	13	
2025-11-15T00:00	17650	78	-63.7	-86.0	254	13	
2025-11-15T00:00	17700	78	-63.6	-86.1	255	12	
2025-11-15T00:00	17750	77	-63.7	-86.1	253	12	
2025-11-15T00:00	17800	76	-64.0	-86.4	253	12	
2025-11-15T00:00	17850	76	-63.6	-86.4	258	13	
2025-11-15T00:00	17900	75	-63.0	-86.3	267	14	
2025-11-15T00:00	17950	75	-62.6	-86.3	275	14	
2025-11-15T00:00	18000	74	-62.3	-86.3	280	14	
2025-11-15T00:00	18050	73	-62.4	-86.4	280	14	
2025-11-15T00:00	18100	73	-62.0	-86.3	279	14	
2025-11-15T00:00	18150	72	-61.7	-86.3	279	13	
2025-11-15T00:00	18200	72	-61.4	-86.2	282	13	
2025-11-15T00:00	18250	71	-61.4	-86.1	285	12	
2025-11-15T00:00	18300	70	-61.6	-86.0	287	11	
2025-11-15T00:00	18350	70	-62.0	-86.0	289	10	
2025-11-15T00:00	18400	69	-62.3	-86.1	290	10	
2025-11-15T00:00	18450	69	-62.7	-86.2	290	9	
2025-11-15T00:00	18500	68	-62.8	-86.2	289	9	
2025-11-15T00:00	18550	68	-63.0	-86.4	286	8	
2025-11-15T00:00	18600	67	-63.3	-86.5	284	8	
2025-11-15T00:00	18650	67	-63.4	-86.6	285	8	
2025-11-15T00:00	18700	66	-63.6	-86.9	292	9	
2025-11-15T00:00	18750	65	-63.3	-86.9	301	10	
2025-11-15T00:00	18800	65	-62.9	-86.9	306	10	
2025-11-15T00:00	18850	64	-62.3	-86.8	304	9	
2025-11-15T00:00	18900	64	-61.9	-86.7	297	8	
2025-11-15T00:00	18950	63	-61.9	-86.6	290	7	
2025-11-15T00:00	19000	63	-62.3	-86.5	283	8	
2025-11-15T00:00	19050	62	-62.7	-86.6	277	8	
2025-11-15T00:00	19100	62	-63.0	-86.7	270	9	
2025-11-15T00:00	19150	61	-63.2	-87.0	261	9	
2025-11-15T00:00	19200	61	-62.2	-86.5	254	10	
2025-11-15T00:00	19250	60	-62.5	-86.7	251	10	
2025-11-15T00:00	19300	60	-62.7	-86.7	250	10	
2025-11-15T00:00	19350	59	-62.9	-86.6	252	10	
2025-11-15T00:00	19400	59	-63.1	-86.7	255	11	
2025-11-15T00:00	19450	58	-63.3	-86.7	259	12	
2025-11-15T00:00	19500	58	-63.6	-86.8	262	12	
2025-11-15T00:00	19550	57	-63.7	-86.8	263	13	
2025-11-15T00:00	19600	57	-63.9	-86.9	263	13	
2025-11-15T00:00	19650	57	-64.2	-87.0	264	12	
2025-11-15T00:00	19700	56	-64.4	-87.0	266	12	
2025-11-15T00:00	19750	56	-64.6	-87.1	268	12	
2025-11-15T00:00	19800	55	-64.7	-87.1	271	13	
2025-11-15T00:00	19850	55	-65.0	-87.2	275	13	
2025-11-15T00:00	19900	54	-65.5	-87.4	279	14	
2025-11-15T00:00	19950	54	-65.7	-87.5	282	14	
2025-11-15T00:00	20000	53	-65.6	-87.6	283	14	
2025-11-15T00:00	20050	53	-65.3		281	13	
2025-11-15T00:00	20100	53	-65.1		275	12	
2025-11-15T00:00	20150	52	-65.0		268	12	
2025-11-15T00:00	20200	52	-64.8		259	12	
2025-11-15T00:00	20250	51	-64.7		251	12	
2025-11-15T00:00	20300	51	-64.6		247	13	
2025-11-15T00:00	20350	50	-64.4		246	14	
2025-11-15T00:00	20400	50	-63.6		248	15	
2025-11-15T00:00	20450	50	-63.8		250	15	
2025-11-15T00:00	20500	49	-64.1		252	16	
2025-11-15T00:00	20550	49	-64.2		255	16	
2025-11-15T00:00	20600	48	-64.3		255	17	
2025-11-15T00:00	20650	48	-64.3		254	17	
2025-11-15T00:00	20700	48	-64.6		256	17	
2025-11-15T00:00	20750	47	-64.8		260	17	
2025-11-15T00:00	20800	47	-64.9		263	17	
2025-11-15T00:00	20850	46	-64.8		266	17	
2025-11-15T00:00	20900	46	-65.0		270	16	
2025-11-15T00:00	20950	46	-65.1		273	15	
2025-11-15T00:00	21000	45	-64.8		275	15	
2025-11-15T00:00	21050	45	-65.1		274	14	
2025-11-15T00:00	21100	45	-65.3		272	14	
2025-11-15T00:00	21150	44	-65.5		271	14	
2025-11-15T00:00	21200	44	-65.8		271	14	
2025-11-15T00:00	21250	44	-65.9		271	14	
2025-11-15T00:00	21300	43	-65.9		271	15	
2025-11-15T00:00	21350	43	-65.8		269	15	
2025-11-15T00:00	21400	42	-65.7		265	15	
2025-11-15T00:00	21450	42	-65.8		262	15	
2025-11-15T00:00	21500	42	-65.7		262	15	
2025-11-15T00:00	21550	41	-65.5		264	15	
2025-11-15T00:00	21600	41	-65.0		268	14	
2025-11-15T00:00	21650	41	-64.5		270	14	
2025-11-15T00:00	21700	40	-64.0		275	13	
2025-11-15T00:00	21750	40	-63.7		279	13	
2025-11-15T00:00	21800	40	-63.5		282	13	
2025-11-15T00:00	21850	39	-63.3		281	13	
2025-11-15T00:00	21900	39	-63.5		277	13	
2025-11-15T00:00	21950	39	-63.9		273	14	
2025-11-15T00:00	22000	38	-64.0		271	15	
2025-11-15T00:00	22050	38	-64.1		271	15	
2025-11-15T00:00	22100	38	-64.4		272	15	
2025-11-15T00:00	22150	38	-64.4		274	15	
2025-11-15T00:00	22200	37	-64.5		275	14	
2025-11-15T00:00	22250	37	-64.2		272	13	
2025-11-15T00:00	22300	37	-63.7		266	13	
2025-11-15T00:00	22350	36	-63.6		262	14	
2025-11-15T00:00	22400	36	-63.7		260	14	
2025-11-15T00:00	22450	36	-63.7		262	15	
2025-11-15T00:00	22500	35	-63.7		265	16	
2025-11-15T00:00	22550	35	-63.8		267	17	
2025-11-15T00:00	22600	35	-63.7		269	18	
2025-11-15T00:00	22650	35	-63.8		271	18	
2025-11-15T00:00	22700	34	-63.9		272	19	
2025-11-15T00:00	22750	34	-64.0		272	19	
2025-11-15T00:00	22800	34	-64.2		273	19	
2025-11-15T00:00	22850	33	-64.3		275	19	
2025-11-15T00:00	22900	33	-64.5		278	18	
2025-11-15T00:00	22950	33	-64.5		279	17	
2025-11-15T00:00	23000	33	-64.8		277	16	
2025-11-15T00:00	23050	32	-65.1		274	16	
2025-11-15T00:00	23100	32	-65.1		272	16	
2025-11-15T00:00	23150	32	-65.2		269	16	
2025-11-15T00:00	23200	32	-65.3		265	16	
2025-11-15T00:00	23250	31	-65.4		262	15	
2025-11-15T00:00	23300	31	-65.6		261	16	
2025-11-15T00:00	23350	31	-65.3		264	16	
2025-11-15T00:00	23400	31	-65.1		268	16	
2025-11-15T00:00	23450	30	-64.4		271	16	
2025-11-15T00:00	23500	30	-64.1		270	15	
2025-11-15T00:00	23550	30	-64.2		265	15	
2025-11-15T00:00	23600	30	-64.0		264	16	
2025-11-15T00:00	23650	29	-63.6		267	17	
2025-11-15T00:00	23700	29	-63.3		272	18	
2025-11-15T00:00	23750	29	-62.9		276	19	
2025-11-15T00:00	23800	29	-63.0		278	19	
2025-11-15T00:00	23850	28	-63.2		280	19	
2025-11-15T00:00	23900	28	-63.4		281	19	
2025-11-15T00:00	23950	28	-63.3		283	19	
2025-11-15T00:00	24000	28	-63.3		285	19	
2025-11-15T00:00	24050	28	-62.7		285	20	
2025-11-15T00:00	24100	27	-62.7		282	20	
2025-11-15T00:00	24150	27	-62.9		280	20	
2025-11-15T00:00	24200	27	-63.0		279	20	
2025-11-15T00:00	24250	27	-63.1		279	19	
2025-11-15T00:00	24300	26	-63.4		278	19	
2025-11-15T00:00	24350	26	-63.5		276	18	
2025-11-15T00:00	24400	26	-63.4		275	18	
2025-11-15T00:00	24450	26	-63.1		275	18	
2025-11-15T00:00	24500	26	-63.1		276	19	
2025-11-15T00:00	24550	25	-62.7		277	20	
2025-11-15T00:00	24600	25	-62.7		278	21	
2025-11-15T00:00	24650	25	-62.9		278	22	
2025-11-15T00:00	24700	25	-63.2		279	22	
2025-11-15T00:00	24750	25	-63.4		280	23	
2025-11-15T00:00	24800	24	-63.5		282	23	
2025-11-15T00:00	24850	24	-63.2		284	23	
2025-11-15T00:00	24900	24	-63.4		286	23	
2025-11-15T00:00	24950	24	-63.7		288	22	
2025-11-15T00:00	25000	24	-63.6		288	22	
2025-11-15T00:00	25050	23	-63.3		286	23	
2025-11-15T00:00	25100	23	-63.7		285	23	
2025-11-15T00:00	25150	23	-64.0		284	23	
2025-11-15T00:00	25200	23	-63.7		284	22	
2025-11-15T00:00	25250	23	-63.7		283	21	
2025-11-15T00:00	25300	22	-63.6		280	20	
2025-11-15T00:00	25350	22	-63.4		275	20	
2025-11-15T00:00	25400	22	-63.3		270	20	
2025-11-15T00:00	25450	22	-63.2		267	20	
2025-11-15T00:00	25500	22	-63.2		265	21	
2025-11-15T00:00	25550	22	-62.9		263	21	
2025-11-15T00:00	25600	21	-62.8		261	22	
2025-11-15T00:00	25650	21	-62.5		259	22	
2025-11-15T00:00	25700	21	-62.2		260	21	
2025-11-15T00:00	25750	21	-62.2		262	20	
2025-11-15T00:00	25800	21	-62.3		265	19	
2025-11-15T00:00	25850	21	-62.4		270	19	
2025-11-15T00:00	25900	20	-62.7		275	19	
2025-11-15T00:00	25950	20	-62.8		279	19	
2025-11-15T00:00	26000	20	-62.8		280	19	
2025-11-15T00:00	26050	20	-63.0		279	19	
2025-11-15T00:00	26100	20	-63.2		277	20	
2025-11-15T00:00	26150	20	-62.8		275	21	
2025-11-15T00:00	26200	19	-62.8		273	21	
2025-11-15T00:00	26250	19	-63.0		271	21	
2025-11-15T00:00	26300	19	-63.1		271	20	
2025-11-15T00:00	26350	19	-63.1		271	20	
2025-11-15T00:00	26400	19	-63.5		271	20	
2025-11-15T00:00	26450	19	-63.8		270	21	
2025-11-15T00:00	26500	18	-63.9		268	22	
2025-11-15T00:00	26550	18	-64.0		268	23	
2025-11-15T00:00	26600	18	-64.0		268	23	
2025-11-15T00:00	26650	18	-64.0		270	24	
2025-11-15T00:00	26700	18	-63.9		272	24	
2025-11-15T00:00	26750	18	-63.4		273	24	
2025-11-15T00:00	26800	18	-63.1		274	24	
2025-11-15T00:00	26850	17	-63.3		276	23	
2025-11-15T00:00	26900	17	-63.5		277	22	
2025-11-15T00:00	26950	17	-63.7		276	21	
2025-11-15T00:00	27000	17	-63.8		273	21	
2025-11-15T00:00	27050	17	-64.0		271	21	
2025-11-15T00:00	27100	17	-64.0		268	21	
2025-11-15T00:00	27150	17	-63.5		263	21	
2025-11-15T00:00	27200	16	-63.4		257	21	
2025-11-15T00:00	27250	16	-63.1		253	23	
2025-11-15T00:00	27300	16	-62.7		252	24	
2025-11-15T00:00	27350	16	-62.2		253	26	
2025-11-15T00:00	27400	16	-61.1		255	28	
2025-11-15T00:00	27450	16	-60.8		257	29	
2025-11-15T00:00	27500	16	-60.6		259	29	
2025-11-15T00:00	27550	16	-60.8		261	29	
2025-11-15T00:00	27600	15	-61.0		262	29	
2025-11-15T00:00	27650	15	-61.4		263	29	
2025-11-15T00:00	27700	15	-61.6		265	29	
2025-11-15T00:00	27750	15	-61.8		267	28	
2025-11-15T00:00	27800	15	-61.9		269	27	
2025-11-15T00:00	27850	15	-62.1		269	26	
2025-11-15T00:00	27900	15	-62.3		268	25	
2025-11-15T00:00	27950	15	-62.6		267	25	
2025-11-15T00:00	28000	14	-62.8		267	25	
2025-11-15T00:00	28050	14	-62.4		267	25	
2025-11-15T00:00	28100	14	-62.3		267	25	
2025-11-15T00:00	28150	14	-62.0		268	26	
2025-11-15T00:00	28200	14	-61.9		267	26	
2025-11-15T00:00	28250	14	-62.2		267	27	
2025-11-15T00:00	28300	14	-62.4		266	28	
2025-11-15T00:00	28350	14	-62.4		266	28	
2025-11-15T00:00	28400	14	-61.9		267	29	
2025-11-15T00:00	28450	13	-61.6		268	29	
2025-11-15T00:00	28500	13	-61.5		270	29	
2025-11-15T00:00	28550	13	-61.7		272	28	
2025-11-15T00:00	28600	13	-62.1		272	28	
2025-11-15T00:00	28650	13	-62.2		271	29	
2025-11-15T00:00	28700	13	-61.5		270	30	
2025-11-15T00:00	28750	13	-61.3		270	29	
2025-11-15T00:00	28800	13	-61.1		271	29	
2025-11-15T00:00	28850	13	-60.6		273	29	
2025-11-15T00:00	28900	13	-60.3		274	29	
2025-11-15T00:00	28950	12	-60.0		277	30	
2025-11-15T00:00	29000	12	-59.9		279	30	
2025-11-15T00:00	29050	12	-59.8		282	30	
2025-11-15T00:00	29100	12	-59.8		284	29	
2025-11-15T00:00	29150	12	-59.4		286	29	
2025-11-15T00:00	29200	12	-59.6		288	28	
2025-11-15T00:00	29250	12	-59.6		288	29	
2025-11-15T00:00	29300	12	-59.6		286	29	
2025-11-15T00:00	29350	12	-59.8		284	29	
2025-11-15T00:00	29400	12	-60.0		281	30	
2025-11-15T00:00	29450	11	-60.1		280	31	
2025-11-15T00:00	29500	11	-60.1		280	31	
2025-11-15T00:00	29550	11	-60.2		280	32	
2025-11-15T00:00	29600	11	-60.4		280	32	
2025-11-15T00:00	29650	11	-60.5		280	32	
2025-11-15T00:00	29700	11	-60.7		281	32	
2025-11-15T00:00	29750	11	-60.9		281	32	
2025-11-15T00:00	29800	11	-61.1		281	32	
2025-11-15T00:00	29850	11	-61.1		281	32	
2025-11-15T00:00	29900	11	-61.0		281	32	
2025-11-15T00:00	29950	11	-61.0		281	31	
2025-11-15T00:00	30000	10	-61.2		281	31	
2025-11-15T00:00	30050	10	-61.5		281	30	
2025-11-15T00:00	30100	10	-61.4		280	30	
2025-11-15T00:00	30150	10	-61.5		278	29	
2025-11-15T00:00	30200	10	-61.3		276	29	
2025-11-15T00:00	30250	10	-61.4		273	29	
2025-11-15T00:00	30300	10	-61.6		270	29	
2025-11-15T00:00	30350	10	-61.4		267	30	
2025-11-15T00:00	30400	10	-61.0		266	31	
2025-11-15T00:00	30450	10	-60.7		267	32	
2025-11-15T00:00	30500	10	-60.5		268	32	
2025-11-15T00:00	30550	10	-60.5		270	33	
2025-11-15T00:00	30600	10	-59.9		271	34	
2025-11-15T00:00	30650	9	-59.7		270	34	
2025-11-15T00:00	30700	9	-59.6		269	35	
2025-11-15T00:00	30750	9	-59.6		268	36	
2025-11-15T00:00	30800	9	-59.7		267	37	
2025-11-15T00:00	30850	9	-59.8		267	38	
2025-11-15T00:00	30900	9	-59.8		269	39	
2025-11-15T00:00	30950	9	-59.5		271	41	
2025-11-15T00:00	31000	9	-59.2		272	42	
2025-11-15T00:00	31050	9	-59.0		273	43	
2025-11-15T00:00	31100	9	-58.9		274	45	
2025-11-15T00:00	31150	9	-58.9		275	45	
2025-11-15T00:00	31200	9	-58.7		275	44	
2025-11-15T00:00	31250	9	-58.7		276	44	
2025-11-15T00:00	31300	9	-58.6		277	44	
2025-11-15T00:00	31350	8	-58.2		278	45	
2025-11-15T00:00	31400	8	-58.0		279	46	
2025-11-15T00:00	31450	8	-57.2		279	46	
2025-11-15T00:00	31500	8	-56.7		279	45	
2025-11-15T00:00	31550	8	-56.9		279	44	
2025-11-15T00:00	31600	8	-56.9		279	43	
2025-11-15T00:00	31650	8	-57.0		279	42	
2025-11-15T00:00	31700	8	-57.3		278	41	
2025-11-15T00:00	31750	8	-57.7		277	40	
2025-11-15T00:00	31800	8	-58.0		276	40	
2025-11-15T00:00	31850	8	-58.3		275	39	
2025-11-15T00:00	31900	8	-58.6		274	38	
2025-11-15T00:00	31950	8	-58.9		273	38	
2025-11-15T00:00	32000	8	-59.0		271	37	
2025-11-15T00:00	32050	8	-59.1		269	37	
2025-11-15T12:00	491	953	12.0	7.9	251	1	
2025-11-15T12:00	520	950	11.7	7.4	255	0	
2025-11-15T12:00	540	948	11.5	7.0	264	1	
2025-11-15T12:00	560	946	11.4	6.7	270	1	
2025-11-15T12:00	580	943	11.4	6.6	273	1	
2025-11-15T12:00	600	941	11.7	6.5	276	2	
2025-11-15T12:00	620	939	11.8	5.5	278	2	
2025-11-15T12:00	640	937	11.7	4.9	280	2	
2025-11-15T12:00	660	934	11.8	3.9	281	2	
2025-11-15T12:00	680	932	11.7	3.9	282	3	
2025-11-15T12:00	700	930	11.9	3.5	281	3	
2025-11-15T12:00	720	928	12.1	3.2	280	2	
2025-11-15T12:00	740	926	12.2	3.5	277	2	
2025-11-15T12:00	760	923	12.3	3.1	273	2	
2025-11-15T12:00	780	921	12.2	2.4	265	1	
2025-11-15T12:00	800	919	12.3	2.1	250	1	
2025-11-15T12:00	820	917	12.7	2.0	222	1	
2025-11-15T12:00	840	914	13.1	1.7	179	0	
2025-11-15T12:00	860	912	13.0	2.0	156	1	
2025-11-15T12:00	880	910	12.9	2.4	149	1	
2025-11-15T12:00	900	908	13.0	2.2	146	1	
2025-11-15T12:00	920	906	12.9	2.0	146	1	
2025-11-15T12:00	940	904	12.8	1.6	147	1	
2025-11-15T12:00	960	902	12.7	1.3	152	1	
2025-11-15T12:00	980	899	12.5	1.3	162	1	
2025-11-15T12:00	1000	897	12.5	1.1	180	1	
2025-11-15T12:00	1020	895	12.4	1.0	204	1	
2025-11-15T12:00	1040	893	12.5	0.7	224	1	
2025-11-15T12:00	1060	891	12.6	0.5	239	1	
2025-11-15T12:00	1080	889	12.7	0.4	250	1	
2025-11-15T12:00	1100	886	12.6	0.3	258	1	
2025-11-15T12:00	1120	884	12.5	0.2	267	1	
2025-11-15T12:00	1140	882	12.4	0.4	274	2	
2025-11-15T12:00	1160	880	12.4	0.5	269	2	
2025-11-15T12:00	1180	878	12.3	0.4	260	3	
2025-11-15T12:00	1200	876	12.4	0.6	249	3	
2025-11-15T12:00	1220	874	12.3	0.6	237	4	
2025-11-15T12:00	1240	872	12.1	0.7	229	4	
2025-11-15T12:00	1260	870	12.0	0.6	224	4	
2025-11-15T12:00	1280	868	11.7	0.5	221	4	
2025-11-15T12:00	1300	866	11.5	0.5	220	4	
2025-11-15T12:00	1320	864	11.4	0.5	221	5	
2025-11-15T12:00	1340	862	11.2	0.5	223	5	
2025-11-15T12:00	1360	859	11.0	0.4	226	5	
2025-11-15T12:00	1380	857	10.8	0.4	229	5	
2025-11-15T12:00	1400	856	10.6	0.4	232	5	
2025-11-15T12:00	1420	853	10.5	0.5	234	6	
2025-11-15T12:00	1440	851	10.3	0.4	234	6	
2025-11-15T12:00	1460	849	10.1	0.5	234	6	
2025-11-15T12:00	1480	847	9.9	0.4	232	6	
2025-11-15T12:00	1500	845	9.7	0.4	230	6	
2025-11-15T12:00	1520	843	9.5	0.2	227	6	
2025-11-15T12:00	1540	841	9.4	0.2	222	6	
2025-11-15T12:00	1560	839	9.1	0.2	216	6	
2025-11-15T12:00	1580	837	9.0	0.1	212	6	
2025-11-15T12:00	1600	835	8.8	0.2	206	6	
2025-11-15T12:00	1620	833	8.5	0.0	203	6	
2025-11-15T12:00	1640	831	8.3	0.0	203	7	
2025-11-15T12:00	1660	829	8.1	0.0	206	7	
2025-11-15T12:00	1680	827	7.8	-0.1	209	7	
2025-11-15T12:00	1700	825	7.7	-0.1	212	8	
2025-11-15T12:00	1720	823	7.5	-0.1	214	8	
2025-11-15T12:00	1740	821	7.3	-0.2	213	9	
2025-11-15T12:00	1760	819	7.1	-0.2	212	9	
2025-11-15T12:00	1780	817	6.9	-0.3	210	10	
2025-11-15T12:00	1800	815	6.7	-0.3	207	11	
2025-11-15T12:00	1820	813	6.6	-0.3	204	12	
2025-11-15T12:00	1840	811	6.5	-0.4	202	12	
2025-11-15T12:00	1860	809	6.6	-0.3	201	13	
2025-11-15T12:00	1880	807	6.7	-0.4	200	13	
2025-11-15T12:00	1900	805	6.6	-0.5	198	13	
2025-11-15T12:00	1920	803	6.5	-0.6	197	13	
2025-11-15T12:00	1940	801	6.5	-0.7	196	13	
2025-11-15T12:00	1960	799	6.3	-0.8	197	13	
2025-11-15T12:00	1980	797	6.2	-0.9	198	14	
2025-11-15T12:00	2000	795	6.0	-0.9	200	14	
2025-11-15T12:00	2020	794	5.9	-1.0	200	14	
2025-11-15T12:00	2040	791	5.7	-1.1	200	14	
2025-11-15T12:00	2060	789	5.6	-1.2	200	14	
2025-11-15T12:00	2080	788	5.5	-1.3	199	13	
2025-11-15T12:00	2100	786	5.5	-1.5	198	13	
2025-11-15T12:00	2120	784	5.3	-1.6	198	13	
2025-11-15T12:00	2140	782	5.2	-1.8	199	13	
2025-11-15T12:00	2160	780	5.2	-1.9	200	13	
2025-11-15T12:00	2180	778	4.9	-1.9	200	13	
2025-11-15T12:00	2200	776	4.8	-2.0	201	13	
2025-11-15T12:00	2220	774	4.8	-2.1	201	12	
2025-11-15T12:00	2240	773	4.6	-2.2	200	12	
2025-11-15T12:00	2260	771	4.5	-2.2	199	12	
2025-11-15T12:00	2280	769	4.2	-2.3	198	11	
2025-11-15T12:00	2300	767	4.1	-2.3	197	11	
2025-11-15T12:00	2320	765	3.9	-2.3	196	10	
2025-11-15T12:00	2340	763	3.7	-2.4	196	10	
2025-11-15T12:00	2360	761	3.5	-2.4	197	10	
2025-11-15T12:00	2380	759	3.3	-2.4	198	10	
2025-11-15T12:00	2400	757	3.1	-2.6	199	10	
2025-11-15T12:00	2420	756	2.9	-2.5	201	10	
2025-11-15T12:00	2440	754	2.7	-2.6	203	10	
2025-11-15T12:00	2460	752	2.5	-2.6	204	10	
2025-11-15T12:00	2480	750	2.3	-2.7	205	10	
2025-11-15T12:00	2500	748	2.2	-2.7	204	10	
2025-11-15T12:00	2520	746	2.0	-2.8	203	10	
2025-11-15T12:00	2540	744	1.8	-2.8	201	10	
2025-11-15T12:00	2560	742	1.6	-2.9	200	11	
2025-11-15T12:00	2580	740	1.4	-2.9	198	11	
2025-11-15T12:00	2600	739	1.2	-2.9	198	11	
2025-11-15T12:00	2620	737	1.1	-3.1	197	11	
2025-11-15T12:00	2640	735	1.0	-3.2	197	11	
2025-11-15T12:00	2660	734	0.8	-3.3	196	10	
2025-11-15T12:00	2680	732	0.7	-3.3	196	10	
2025-11-15T12:00	2700	730	0.5	-3.4	196	10	
2025-11-15T12:00	2720	728	0.4	-3.4	195	10	
2025-11-15T12:00	2740	726	0.2	-3.5	195	9	
2025-11-15T12:00	2760	724	0.1	-3.6	194	9	
2025-11-15T12:00	2780	722	-0.1	-3.7	192	8	
2025-11-15T12:00	2800	720	-0.3	-3.8	191	8	
2025-11-15T12:00	2820	719	-0.5	-3.8	189	8	
2025-11-15T12:00	2840	717	-0.6	-3.8	188	8	
2025-11-15T12:00	2860	715	-0.8	-3.8	188	8	
2025-11-15T12:00	2880	714	-1.0	-3.9	189	9	
2025-11-15T12:00	2900	712	-1.2	-3.9	190	9	
2025-11-15T12:00	2920	710	-1.3	-4.1	191	9	
2025-11-15T12:00	2940	708	-1.5	-4.1	192	9	
2025-11-15T12:00	2960	706	-1.7	-4.2	193	9	
2025-11-15T12:00	2980	705	-1.8	-4.3	193	9	
2025-11-15T12:00	3000	703	-1.9	-4.4	192	9	
2025-11-15T12:00	3020	701	-2.0	-4.5	190	9	
2025-11-15T12:00	3040	699	-2.2	-4.6	188	9	
2025-11-15T12:00	3060	697	-2.4	-4.7	186	9	
2025-11-15T12:00	3080	696	-2.6	-4.7	185	10	
2025-11-15T12:00	3100	694	-2.7	-4.7	184	10	
2025-11-15T12:00	3120	692	-2.9	-4.8	183	10	
2025-11-15T12:00	3140	691	-3.1	-4.8	182	11	
2025-11-15T12:00	3160	689	-3.3	-4.9	181	11	
2025-11-15T12:00	3180	687	-3.5	-4.8	181	11	
2025-11-15T12:00	3200	685	-3.7	-4.9	181	11	
2025-11-15T12:00	3220	684	-3.9	-4.9	182	11	
2025-11-15T12:00	3240	682	-4.1	-5.0	184	11	
2025-11-15T12:00	3260	680	-4.2	-4.9	186	11	
2025-11-15T12:00	3280	678	-4.4	-5.0	188	10	
2025-11-15T12:00	3300	677	-4.6	-5.1	192	10	
2025-11-15T12:00	3320	675	-4.7	-5.1	195	10	
2025-11-15T12:00	3340	673	-4.9	-5.3	197	11	
2025-11-15T12:00	3360	672	-5.0	-5.4	198	11	
2025-11-15T12:00	3380	670	-5.2	-5.4	199	12	
2025-11-15T12:00	3400	668	-5.4	-5.5	199	12	
2025-11-15T12:00	3420	667	-5.5	-5.6	199	13	
2025-11-15T12:00	3440	665	-5.6	-5.7	199	13	
2025-11-15T12:00	3460	663	-5.8	-5.8	200	13	
2025-11-15T12:00	3480	661	-5.9	-5.9	200	14	
2025-11-15T12:00	3500	660	-6.1	-6.1	201	14	
2025-11-15T12:00	3520	658	-6.2	-6.2	202	15	
2025-11-15T12:00	3540	656	-6.4	-6.4	203	16	
2025-11-15T12:00	3560	655	-6.4	-6.6	204	16	
2025-11-15T12:00	3580	653	-6.4	-6.8	205	17	
2025-11-15T12:00	3600	651	-6.5	-7.0	206	18	
2025-11-15T12:00	3620	650	-6.6	-7.1	206	18	
2025-11-15T12:00	3640	648	-6.7	-7.2	206	18	
2025-11-15T12:00	3660	646	-6.9	-7.3	207	18	
2025-11-15T12:00	3680	645	-7.1	-7.4	207	18	
2025-11-15T12:00	3700	643	-7.2	-7.6	208	18	
2025-11-15T12:00	3720	641	-7.3	-8.0	208	18	
2025-11-15T12:00	3740	640	-7.4	-8.1	209	18	
2025-11-15T12:00	3760	638	-7.6	-8.2	209	18	
2025-11-15T12:00	3780	637	-7.8	-8.2	208	19	
2025-11-15T12:00	3800	635	-7.9	-8.4	208	19	
2025-11-15T12:00	3820	633	-8.0	-8.8	207	20	
2025-11-15T12:00	3840	632	-8.3	-8.8	206	20	
2025-11-15T12:00	3860	630	-8.3	-9.7	205	20	
2025-11-15T12:00	3880	628	-8.3	-10.3	206	20	
2025-11-15T12:00	3900	627	-8.5	-10.2	207	20	
2025-11-15T12:00	3920	625	-8.7	-10.0	208	19	
2025-11-15T12:00	3940	623	-8.9	-10.1	210	19	
2025-11-15T12:00	3960	622	-9.1	-10.1	211	18	
2025-11-15T12:00	3980	620	-9.3	-10.2	212	18	
2025-11-15T12:00	4000	619	-9.5	-10.3	212	18	
2025-11-15T12:00	4020	617	-9.7	-10.2	211	18	
2025-11-15T12:00	4040	615	-9.9	-10.2	211	18	
2025-11-15T12:00	4060	614	-10.0	-10.2	210	19	
2025-11-15T12:00	4080	612	-10.2	-10.3	210	19	
2025-11-15T12:00	4100	611	-10.3	-10.3	211	19	
2025-11-15T12:00	4120	609	-10.5	-10.5	211	19	
2025-11-15T12:00	4140	608	-10.6	-10.6	212	19	
2025-11-15T12:00	4160	606	-10.7	-10.7	212	19	
2025-11-15T12:00	4180	604	-10.8	-10.8	212	18	
2025-11-15T12:00	4200	603	-11.0	-11.0	211	18	
2025-11-15T12:00	4220	601	-11.1	-11.1	209	18	
2025-11-15T12:00	4240	600	-11.3	-11.3	208	18	
2025-11-15T12:00	4260	598	-11.4	-11.4	206	18	
2025-11-15T12:00	4280	596	-11.6	-11.6	204	18	
2025-11-15T12:00	4300	595	-11.7	-11.7	203	18	
2025-11-15T12:00	4320	593	-11.8	-11.8	203	18	
2025-11-15T12:00	4340	592	-12.0	-12.0	204	18	
2025-11-15T12:00	4360	590	-12.1	-12.1	205	18	
2025-11-15T12:00	4380	589	-12.2	-12.2	207	18	
2025-11-15T12:00	4400	587	-12.4	-12.4	209	18	
2025-11-15T12:00	4420	586	-12.5	-12.5	211	18	
2025-11-15T12:00	4440	584	-12.6	-12.6	214	18	
2025-11-15T12:00	4460	583	-12.8	-12.8	215	19	
2025-11-15T12:00	4480	581	-12.9	-12.9	216	19	
2025-11-15T12:00	4500	580	-13.2	-13.2	217	19	
2025-11-15T12:00	4520	578	-13.4	-14.0	217	19	
2025-11-15T12:00	4540	577	-13.0	-22.4	216	19	
2025-11-15T12:00	4560	575	-12.8	-23.8	215	18	
2025-11-15T12:00	4580	574	-12.8	-23.8	213	18	
2025-11-15T12:00	4600	572	-12.8	-23.8	212	18	
2025-11-15T12:00	4620	571	-12.9	-23.9	210	18	
2025-11-15T12:00	4640	569	-12.9	-24.1	209	18	
2025-11-15T12:00	4660	568	-13.0	-24.2	209	18	
2025-11-15T12:00	4680	566	-13.0	-24.2	209	18	
2025-11-15T12:00	4700	565	-13.0	-24.3	209	18	
2025-11-15T12:00	4720	563	-13.0	-24.4	209	18	
2025-11-15T12:00	4740	562	-13.0	-24.6	209	18	
2025-11-15T12:00	4760	560	-13.0	-24.8	209	18	
2025-11-15T12:00	4780	559	-13.1	-25.2	209	18	
2025-11-15T12:00	4800	557	-13.2	-25.4	209	17	
2025-11-15T12:00	4820	556	-13.2	-26.2	208	17	
2025-11-15T12:00	4840	554	-13.3	-26.6	208	17	
2025-11-15T12:00	4860	553	-13.4	-27.0	207	17	
2025-11-15T12:00	4880	551	-13.5	-28.1	208	17	
2025-11-15T12:00	4900	550	-13.6	-28.4	209	17	
2025-11-15T12:00	4920	548	-13.8	-28.2	210	16	
2025-11-15T12:00	4940	547	-13.9	-28.3	211	16	
2025-11-15T12:00	4960	546	-14.0	-28.3	212	16	
2025-11-15T12:00	4980	544	-14.2	-28.1	213	16	
2025-11-15T12:00	5000	543	-14.4	-28.1	213	16	
2025-11-15T12:00	5020	542	-14.6	-28.1	213	16	
2025-11-15T12:00	5040	540	-14.8	-28.0	212	16	
2025-11-15T12:00	5060	539	-14.9	-28.4	211	16	
2025-11-15T12:00	5080	537	-15.1	-28.0	211	16	
2025-11-15T12:00	5100	536	-15.3	-28.4	211	16	
2025-11-15T12:00	5120	534	-15.5	-28.5	211	15	
2025-11-15T12:00	5140	533	-15.7	-28.2	212	16	
2025-11-15T12:00	5160	531	-15.9	-28.2	212	16	
2025-11-15T12:00	5180	530	-16.1	-28.4	212	16	
2025-11-15T12:00	5200	529	-16.3	-28.1	212	16	
2025-11-15T12:00	5220	527	-16.4	-28.2	212	15	
2025-11-15T12:00	5240	526	-16.7	-28.3	212	15	
2025-11-15T12:00	5260	524	-16.8	-28.6	212	15	
2025-11-15T12:00	5280	523	-17.0	-28.6	212	15	
2025-11-15T12:00	5300	522	-17.2	-28.6	211	15	
2025-11-15T12:00	5320	520	-17.3	-28.6	211	15	
2025-11-15T12:00	5340	519	-17.5	-28.2	211	15	
2025-11-15T12:00	5360	518	-17.7	-27.9	211	15	
2025-11-15T12:00	5380	516	-17.9	-27.8	210	16	
2025-11-15T12:00	5400	515	-18.0	-27.5	210	16	
2025-11-15T12:00	5420	513	-18.2	-27.4	209	16	
2025-11-15T12:00	5440	512	-18.3	-27.5	209	16	
2025-11-15T12:00	5460	511	-18.5	-26.8	209	16	
2025-11-15T12:00	5480	509	-18.7	-26.8	210	16	
2025-11-15T12:00	5500	508	-18.9	-27.1	210	16	
2025-11-15T12:00	5520	506	-19.1	-26.6	211	16	
2025-11-15T12:00	5540	505	-19.2	-26.6	211	15	
2025-11-15T12:00	5560	504	-19.4	-26.8	211	15	
2025-11-15T12:00	5580	502	-19.6	-27.0	209	15	
2025-11-15T12:00	5600	501	-19.8	-27.3	207	15	
2025-11-15T12:00	5620	500	-19.9	-28.0	205	16	
2025-11-15T12:00	5640	498	-20.0	-28.2	203	16	
2025-11-15T12:00	5660	497	-20.2	-28.3	201	17	
2025-11-15T12:00	5680	496	-20.4	-28.1	199	17	
2025-11-15T12:00	5700	494	-20.4	-27.0	199	18	
2025-11-15T12:00	5720	493	-20.4	-26.4	199	18	
2025-11-15T12:00	5740	492	-20.5	-26.4	200	18	
2025-11-15T12:00	5760	490	-20.7	-26.3	203	19	
2025-11-15T12:00	5780	489	-20.9	-26.5	205	19	
2025-11-15T12:00	5800	488	-20.8	-26.9	207	19	
2025-11-15T12:00	5820	486	-20.9	-27.3	210	19	
2025-11-15T12:00	5840	485	-21.1	-27.9	210	19	
2025-11-15T12:00	5860	484	-21.3	-28.6	210	19	
2025-11-15T12:00	5880	483	-21.4	-29.3	210	19	
2025-11-15T12:00	5900	481	-21.6	-30.2	209	19	
2025-11-15T12:00	5920	480	-21.7	-30.2	208	18	
2025-11-15T12:00	5940	479	-21.9	-30.3	207	18	
2025-11-15T12:00	5960	477	-22.1	-30.6	207	18	
2025-11-15T12:00	5980	476	-22.3	-30.8	208	18	
2025-11-15T12:00	6000	475	-22.5	-30.6	209	18	
2025-11-15T12:00	6020	473	-22.7	-30.7	209	18	
2025-11-15T12:00	6040	472	-22.9	-30.8	210	18	
2025-11-15T12:00	6060	471	-23.1	-30.4	210	18	
2025-11-15T12:00	6080	469	-23.3	-30.3	210	18	
2025-11-15T12:00	6100	468	-23.4	-30.1	209	17	
2025-11-15T12:00	6120	467	-23.6	-30.0	209	17	
2025-11-15T12:00	6140	466	-23.8	-30.0	209	16	
2025-11-15T12:00	6160	464	-24.0	-30.3	208	16	
2025-11-15T12:00	6180	463	-24.2	-30.4	207	16	
2025-11-15T12:00	6200	462	-24.4	-30.6	206	16	
2025-11-15T12:00	6220	461	-24.6	-30.8	205	17	
2025-11-15T12:00	6240	459	-24.8	-30.5	205	17	
2025-11-15T12:00	6260	458	-25.0	-30.6	204	18	
2025-11-15T12:00	6280	457	-25.2	-31.7	205	18	
2025-11-15T12:00	6300	456	-25.4	-31.7	206	18	
2025-11-15T12:00	6320	454	-25.6	-31.9	206	18	
2025-11-15T12:00	6340	453	-25.8	-32.3	208	18	
2025-11-15T12:00	6360	452	-26.0	-32.2	209	18	
2025-11-15T12:00	6380	451	-26.1	-32.3	210	18	
2025-11-15T12:00	6400	449	-26.3	-33.0	210	18	
2025-11-15T12:00	6420	448	-26.5	-33.3	210	18	
2025-11-15T12:00	6440	447	-26.7	-32.2	210	18	
2025-11-15T12:00	6460	446	-26.9	-32.5	210	19	
2025-11-15T12:00	6480	444	-27.1	-34.6	209	19	
2025-11-15T12:00	6500	443	-27.3	-34.7	209	19	
2025-11-15T12:00	6520	442	-27.4	-34.6	209	20	
2025-11-15T12:00	6540	441	-27.6	-34.8	210	19	
2025-11-15T12:00	6560	439	-27.7	-35.3	210	19	
2025-11-15T12:00	6580	438	-27.7	-35.4	210	19	
2025-11-15T12:00	6600	437	-27.8	-35.2	210	19	
2025-11-15T12:00	6620	436	-27.9	-35.1	209	19	
2025-11-15T12:00	6640	435	-28.1	-35.1	209	19	
2025-11-15T12:00	6660	433	-28.3	-35.1	208	19	
2025-11-15T12:00	6680	432	-28.4	-35.0	208	19	
2025-11-15T12:00	6700	431	-28.6	-34.9	207	19	
2025-11-15T12:00	6720	430	-28.8	-35.3	207	19	
2025-11-15T12:00	6740	429	-28.9	-35.6	207	19	
2025-11-15T12:00	6760	427	-29.1	-35.3	207	19	
2025-11-15T12:00	6780	426	-29.3	-34.8	207	19	
2025-11-15T12:00	6800	425	-29.5	-34.5	207	19	
2025-11-15T12:00	6820	424	-29.7	-34.3	207	19	
2025-11-15T12:00	6840	422	-29.9	-34.1	206	19	
2025-11-15T12:00	6860	421	-30.1	-34.2	206	19	
2025-11-15T12:00	6880	420	-30.3	-34.3	205	19	
2025-11-15T12:00	6900	419	-30.4	-34.0	205	19	
2025-11-15T12:00	6920	418	-30.6	-34.1	205	19	
2025-11-15T12:00	6940	417	-30.8	-34.2	205	20	
2025-11-15T12:00	6960	416	-31.0	-34.4	205	20	
2025-11-15T12:00	6980	414	-31.1	-34.9	204	20	
2025-11-15T12:00	7000	413	-31.2	-35.4	204	20	
2025-11-15T12:00	7020	412	-31.4	-35.4	203	19	
2025-11-15T12:00	7040	411	-31.5	-35.6	202	19	
2025-11-15T12:00	7060	410	-31.6	-36.1	202	19	
2025-11-15T12:00	7080	409	-31.6	-36.8	201	18	
2025-11-15T12:00	7100	407	-31.8	-37.1	201	18	
2025-11-15T12:00	7120	406	-31.9	-37.4	202	18	
2025-11-15T12:00	7140	405	-32.0	-38.3	202	18	
2025-11-15T12:00	7160	404	-32.1	-38.6	203	19	
2025-11-15T12:00	7180	403	-32.3	-38.8	203	20	
2025-11-15T12:00	7200	402	-32.4	-39.0	203	20	
2025-11-15T12:00	7220	400	-32.5	-40.0	204	21	
2025-11-15T12:00	7240	399	-32.6	-41.1	204	21	
2025-11-15T12:00	7260	398	-32.7	-41.8	203	21	
2025-11-15T12:00	7280	397	-32.7	-43.0	203	22	
2025-11-15T12:00	7300	396	-32.8	-43.8	203	22	
2025-11-15T12:00	7320	395	-32.9	-43.8	202	22	
2025-11-15T12:00	7340	394	-33.1	-44.0	202	21	
2025-11-15T12:00	7360	393	-33.2	-44.5	201	21	
2025-11-15T12:00	7380	392	-33.3	-45.3	201	21	
2025-11-15T12:00	7400	390	-33.4	-46.4	201	21	
2025-11-15T12:00	7420	389	-33.5	-47.7	200	21	
2025-11-15T12:00	7440	388	-33.6	-47.9	201	21	
2025-11-15T12:00	7460	387	-33.8	-47.8	201	22	
2025-11-15T12:00	7480	386	-34.0	-47.4	201	22	
2025-11-15T12:00	7500	385	-34.1	-46.8	202	22	
2025-11-15T12:00	7520	384	-34.3	-47.0	202	22	
2025-11-15T12:00	7540	383	-34.5	-47.0	202	22	
2025-11-15T12:00	7560	382	-34.7	-46.3	203	23	
2025-11-15T12:00	7580	381	-34.8	-47.0	203	22	
2025-11-15T12:00	7600	379	-35.1	-46.3	203	22	
2025-11-15T12:00	7620	378	-35.2	-46.1	204	22	
2025-11-15T12:00	7640	377	-35.4	-46.1	204	21	
2025-11-15T12:00	7660	376	-35.6	-45.6	204	21	
2025-11-15T12:00	7680	375	-35.8	-45.7	205	21	
2025-11-15T12:00	7700	374	-36.0	-45.4	205	21	
2025-11-15T12:00	7720	373	-36.2	-45.3	206	21	
2025-11-15T12:00	7740	372	-36.3	-45.1	207	22	
2025-11-15T12:00	7760	371	-36.6	-45.2	208	22	
2025-11-15T12:00	7780	370	-36.8	-45.2	208	23	
2025-11-15T12:00	7800	369	-37.0	-45.0	209	23	
2025-11-15T12:00	7820	368	-37.1	-45.1	208	24	
2025-11-15T12:00	7840	367	-37.3	-45.3	208	24	
2025-11-15T12:00	7860	365	-37.5	-45.4	206	24	
2025-11-15T12:00	7880	364	-37.6	-45.4	205	24	
2025-11-15T12:00	7900	363	-37.7	-46.0	204	24	
2025-11-15T12:00	7920	362	-37.9	-46.2	203	24	
2025-11-15T12:00	7940	361	-38.1	-46.1	202	24	
2025-11-15T12:00	7960	360	-38.2	-46.4	202	24	
2025-11-15T12:00	7980	359	-38.4	-46.5	201	24	
2025-11-15T12:00	8000	358	-38.5	-46.8	201	24	
2025-11-15T12:00	8020	357	-38.7	-47.1	201	24	
2025-11-15T12:00	8040	356	-38.8	-47.1	200	24	
2025-11-15T12:00	8060	355	-39.0	-47.2	200	24	
2025-11-15T12:00	8080	354	-39.2	-47.1	200	24	
2025-11-15T12:00	8100	353	-39.4	-47.5	199	24	
2025-11-15T12:00	8120	352	-39.5	-49.0	199	24	
2025-11-15T12:00	8140	351	-39.7	-48.0	199	23	
2025-11-15T12:00	8160	350	-39.9	-47.8	199	23	
2025-11-15T12:00	8180	349	-40.1	-48.9	198	23	
2025-11-15T12:00	8200	348	-40.3	-49.8	198	24	
2025-11-15T12:00	8220	347	-40.5	-48.2	198	24	
2025-11-15T12:00	8240	346	-40.7	-47.5	198	24	
2025-11-15T12:00	8260	345	-40.8	-48.0	198	24	
2025-11-15T12:00	8280	344	-41.0	-48.1	198	24	
2025-11-15T12:00	8300	343	-41.2	-48.2	198	24	
2025-11-15T12:00	8320	342	-41.4	-48.5	198	25	
2025-11-15T12:00	8340	341	-41.6	-49.5	198	25	
2025-11-15T12:00	8360	340	-41.7	-49.8	197	25	
2025-11-15T12:00	8380	339	-41.9	-49.9	197	25	
2025-11-15T12:00	8400	338	-42.0	-50.2	197	25	
2025-11-15T12:00	8420	337	-42.2	-50.6	197	25	
2025-11-15T12:00	8440	336	-42.3	-51.4	198	25	
2025-11-15T12:00	8460	335	-42.5	-52.0	198	24	
2025-11-15T12:00	8480	334	-42.6	-52.1	199	24	
2025-11-15T12:00	8500	333	-42.8	-52.0	200	24	
2025-11-15T12:00	8520	332	-43.0	-52.0	200	24	
2025-11-15T12:00	8540	331	-43.2	-51.9	200	24	
2025-11-15T12:00	8560	330	-43.3	-52.0	200	24	
2025-11-15T12:00	8580	329	-43.5	-52.1	200	24	
2025-11-15T12:00	8600	328	-43.7	-51.8	200	24	
2025-11-15T12:00	8620	327	-43.9	-51.7	199	24	
2025-11-15T12:00	8640	326	-44.1	-51.7	199	25	
2025-11-15T12:00	8660	325	-44.3	-51.9	198	25	
2025-11-15T12:00	8680	324	-44.5	-52.0	198	25	
2025-11-15T12:00	8700	323	-44.6	-51.9	199	25	
2025-11-15T12:00	8720	322	-44.8	-51.8	199	25	
2025-11-15T12:00	8740	321	-44.9	-52.1	199	25	
2025-11-15T12:00	8760	320	-45.1	-52.4	200	25	
2025-11-15T12:00	8780	319	-45.3	-52.5	200	25	
2025-11-15T12:00	8800	318	-45.5	-52.5	201	25	
2025-11-15T12:00	8820	317	-45.6	-52.7	201	25	
2025-11-15T12:00	8840	316	-45.8	-52.8	201	25	
2025-11-15T12:00	8860	315	-46.0	-52.9	201	25	
2025-11-15T12:00	8880	314	-46.1	-52.9	201	25	
2025-11-15T12:00	8900	313	-46.3	-52.9	201	25	
2025-11-15T12:00	8920	312	-46.5	-52.7	202	25	
2025-11-15T12:00	8940	312	-46.7	-52.5	202	25	
2025-11-15T12:00	8960	311	-46.8	-52.4	202	25	
2025-11-15T12:00	8980	310	-47.0	-52.5	202	25	
2025-11-15T12:00	9000	309	-47.2	-52.6	202	25	
2025-11-15T12:00	9020	308	-47.4	-52.8	203	25	
2025-11-15T12:00	9040	307	-47.5	-53.1	203	25	
2025-11-15T12:00	9060	306	-47.7	-53.7	203	25	
2025-11-15T12:00	9080	305	-47.9	-54.4	203	25	
2025-11-15T12:00	9100	304	-48.1	-54.7	202	25	
2025-11-15T12:00	9120	303	-48.2	-54.5	202	25	
2025-11-15T12:00	9140	302	-48.4	-54.3	202	24	
2025-11-15T12:00	9160	301	-48.6	-54.8	201	25	
2025-11-15T12:00	9180	300	-48.7	-55.5	201	25	
2025-11-15T12:00	9200	300	-48.9	-55.5	201	25	
2025-11-15T12:00	9220	299	-49.0	-55.4	201	25	
2025-11-15T12:00	9240	298	-49.2	-55.6	201	25	
2025-11-15T12:00	9260	297	-49.3	-55.8	201	25	
2025-11-15T12:00	9280	296	-49.5	-56.0	200	26	
2025-11-15T12:00	9300	295	-49.7	-56.2	200	26	
2025-11-15T12:00	9320	294	-49.9	-56.5	200	25	
2025-11-15T12:00	9340	293	-50.1	-56.8	199	25	
2025-11-15T12:00	9360	292	-50.2	-56.9	199	25	
2025-11-15T12:00	9380	291	-50.4	-57.0	198	25	
2025-11-15T12:00	9400	291	-50.6	-57.0	198	25	
2025-11-15T12:00	9420	290	-50.8	-57.1	197	25	
2025-11-15T12:00	9440	289	-50.9	-57.3	197	25	
2025-11-15T12:00	9460	288	-51.1	-57.5	197	25	
2025-11-15T12:00	9480	287	-51.3	-57.5	197	25	
2025-11-15T12:00	9500	286	-51.5	-57.6	197	25	
2025-11-15T12:00	9520	285	-51.6	-57.7	197	25	
2025-11-15T12:00	9540	284	-51.8	-57.9	197	25	
2025-11-15T12:00	9560	283	-51.9	-58.1	197	25	
2025-11-15T12:00	9580	283	-52.0	-58.1	197	26	
2025-11-15T12:00	9600	282	-52.2	-58.1	197	26	
2025-11-15T12:00	9620	281	-52.4	-58.1	196	25	
2025-11-15T12:00	9640	280	-52.5	-58.2	196	25	
2025-11-15T12:00	9660	279	-52.7	-58.2	195	25	
2025-11-15T12:00	9680	278	-52.9	-58.3	194	25	
2025-11-15T12:00	9700	277	-53.1	-58.3	193	25	
2025-11-15T12:00	9720	276	-53.2	-58.4	193	25	
2025-11-15T12:00	9740	276	-53.4	-58.6	192	25	
2025-11-15T12:00	9760	275	-53.5	-58.8	192	25	
2025-11-15T12:00	9780	274	-53.7	-59.1	192	25	
2025-11-15T12:00	9800	273	-53.8	-59.1	192	25	
2025-11-15T12:00	9820	272	-54.0	-59.1	192	25	
2025-11-15T12:00	9840	271	-54.1	-59.1	192	25	
2025-11-15T12:00	9860	270	-54.3	-59.3	192	26	
2025-11-15T12:00	9880	270	-54.4	-59.4	192	26	
2025-11-15T12:00	9900	269	-54.6	-59.5	192	26	
2025-11-15T12:00	9920	268	-54.7	-59.6	192	26	
2025-11-15T12:00	9940	267	-54.9	-59.7	192	26	
2025-11-15T12:00	9960	266	-55.1	-59.8	192	25	
2025-11-15T12:00	9980	265	-55.2	-59.9	192	25	
2025-11-15T12:00	10000	265	-55.4	-59.8	191	25	
2025-11-15T12:00	10018	264	-55.6	-59.7	191	25	
2025-11-15T12:00	10050	263	-55.9	-59.9	191	26	
2025-11-15T12:00	10100	260	-56.3	-60.2	190	25	
2025-11-15T12:00	10150	259	-56.5	-60.8	191	25	
2025-11-15T12:00	10200	256	-56.9	-60.9	193	24	
2025-11-15T12:00	10250	254	-57.3	-60.8	195	25	
2025-11-15T12:00	10300	252	-57.9	-60.9	195	25	
2025-11-15T12:00	10350	250	-58.3	-61.0	195	25	
2025-11-15T12:00	10400	248	-58.7	-61.2	193	25	
2025-11-15T12:00	10450	246	-58.8	-61.6	192	25	
2025-11-15T12:00	10500	245	-59.2	-62.0	193	25	
2025-11-15T12:00	10550	243	-59.3	-62.8	195	25	
2025-11-15T12:00	10600	241	-59.3	-63.7	197	25	
2025-11-15T12:00	10650	239	-59.7	-64.0	198	24	
2025-11-15T12:00	10700	237	-59.9	-64.8	195	23	
2025-11-15T12:00	10750	235	-59.1	-67.0	191	23	
2025-11-15T12:00	10800	233	-57.6	-69.3	189	24	
2025-11-15T12:00	10850	231	-57.4	-69.6	189	26	
2025-11-15T12:00	10900	229	-57.3	-69.7	190	27	
2025-11-15T12:00	10950	228	-57.4	-69.6	192	27	
2025-11-15T12:00	11000	226	-57.6	-69.6	194	27	
2025-11-15T12:00	11050	224	-57.5	-70.5	196	25	
2025-11-15T12:00	11100	222	-56.6	-71.9	197	24	
2025-11-15T12:00	11150	220	-55.7	-73.7	199	23	
2025-11-15T12:00	11200	219	-55.1	-73.9	201	23	
2025-11-15T12:00	11250	217	-55.0	-73.5	202	24	
2025-11-15T12:00	11300	215	-55.1	-73.8	202	25	
2025-11-15T12:00	11350	214	-55.3	-74.0	202	26	
2025-11-15T12:00	11400	212	-55.5	-74.6	202	26	
2025-11-15T12:00	11450	210	-55.5	-75.4	202	25	
2025-11-15T12:00	11500	209	-55.6	-75.6	201	24	
2025-11-15T12:00	11550	207	-55.7	-75.5	200	23	
2025-11-15T12:00	11600	205	-55.8	-75.6	201	23	
2025-11-15T12:00	11650	204	-55.8	-75.3	202	22	
2025-11-15T12:00	11700	202	-55.7	-75.0	200	22	
2025-11-15T12:00	11750	201	-55.8	-74.7	199	21	
2025-11-15T12:00	11800	199	-56.1	-74.8	200	22	
2025-11-15T12:00	11850	198	-56.0	-75.1	202	23	
2025-11-15T12:00	11900	196	-56.0	-75.3	204	24	
2025-11-15T12:00	11950	194	-56.2	-75.4	206	25	
2025-11-15T12:00	12000	193	-56.5	-75.4	207	25	
2025-11-15T12:00	12050	191	-56.8	-75.5	209	26	
2025-11-15T12:00	12100	190	-57.1	-75.8	210	26	
2025-11-15T12:00	12150	188	-57.2	-76.0	211	26	
2025-11-15T12:00	12200	187	-57.1	-76.0	211	26	
2025-11-15T12:00	12250	185	-56.9	-75.9	210	26	
2025-11-15T12:00	12300	184	-57.0	-76.0	209	25	
2025-11-15T12:00	12350	183	-56.9	-76.3	210	25	
2025-11-15T12:00	12400	181	-57.0	-76.7	212	25	
2025-11-15T12:00	12450	180	-56.9	-77.1	214	25	
2025-11-15T12:00	12500	178	-56.8	-77.3	214	23	
2025-11-15T12:00	12550	177	-57.1	-77.4	213	22	
2025-11-15T12:00	12600	176	-57.4	-77.5	212	22	
2025-11-15T12:00	12650	174	-57.8	-77.6	211	21	
2025-11-15T12:00	12700	173	-58.2	-77.8	209	20	
2025-11-15T12:00	12750	171	-58.4	-78.2	208	19	
2025-11-15T12:00	12800	170	-58.0	-79.0	210	17	
2025-11-15T12:00	12850	169	-56.8	-79.8	213	16	
2025-11-15T12:00	12900	167	-56.1	-80.0	215	14	
2025-11-15T12:00	12950	166	-56.2	-79.9	217	14	
2025-11-15T12:00	13000	165	-56.4	-79.7	220	13	
2025-11-15T12:00	13050	163	-56.8	-79.7	222	12	
2025-11-15T12:00	13100	162	-57.2	-79.7	222	11	
2025-11-15T12:00	13150	161	-57.6	-79.9	220	11	
2025-11-15T12:00	13200	160	-58.0	-80.2	218	10	
2025-11-15T12:00	13250	158	-58.5	-80.5	215	10	
2025-11-15T12:00	13300	157	-58.9	-80.6	212	9	
2025-11-15T12:00	13350	156	-59.1	-80.6	209	9	
2025-11-15T12:00	13400	155	-59.4	-80.5	208	9	
2025-11-15T12:00	13450	153	-59.8	-80.7	206	9	
2025-11-15T12:00	13500	152	-60.1	-80.9	202	10	
2025-11-15T12:00	13550	151	-60.6	-81.0	199	10	
2025-11-15T12:00	13600	150	-60.9	-81.0	197	10	
2025-11-15T12:00	13650	148	-61.2	-81.1	195	10	
2025-11-15T12:00	13700	147	-61.6	-81.3	195	11	
2025-11-15T12:00	13750	146	-62.0	-81.5	195	12	
2025-11-15T12:00	13800	145	-62.4	-81.6	195	13	
2025-11-15T12:00	13850	144	-62.6	-81.7	195	15	
2025-11-15T12:00	13900	143	-62.8	-81.9	197	16	
2025-11-15T12:00	13950	141	-62.9	-82.1	201	18	
2025-11-15T12:00	14000	140	-62.2	-82.3	204	18	
2025-11-15T12:00	14050	139	-61.5	-82.4	205	18	
2025-11-15T12:00	14100	138	-61.5	-82.5	205	18	
2025-11-15T12:00	14150	137	-61.4	-82.7	206	17	
2025-11-15T12:00	14200	136	-60.7	-82.8	210	17	
2025-11-15T12:00	14250	135	-59.6	-82.6	215	19	
2025-11-15T12:00	14300	134	-59.4	-82.5	218	19	
2025-11-15T12:00	14350	133	-59.6	-82.5	218	19	
2025-11-15T12:00	14400	132	-59.9	-82.5	217	19	
2025-11-15T12:00	14450	130	-60.3	-82.6	218	19	
2025-11-15T12:00	14500	129	-60.7	-82.7	220	19	
2025-11-15T12:00	14550	128	-60.7	-82.8	224	19	
2025-11-15T12:00	14600	127	-60.7	-82.9	228	19	
2025-11-15T12:00	14650	126	-60.7	-83.1	233	18	
2025-11-15T12:00	14700	125	-60.2	-83.5	239	16	
2025-11-15T12:00	14750	124	-58.1	-83.0	245	14	
2025-11-15T12:00	14800	123	-57.4	-82.8	247	14	
2025-11-15T12:00	14850	122	-57.5	-82.7	246	14	
2025-11-15T12:00	14900	121	-57.8	-82.6	246	14	
2025-11-15T12:00	14950	120	-58.1	-82.7	247	13	
2025-11-15T12:00	15000	120	-58.3	-82.8	246	12	
2025-11-15T12:00	15050	119	-58.5	-82.9	245	11	
2025-11-15T12:00	15100	118	-58.6	-82.9	243	11	
2025-11-15T12:00	15150	117	-58.9	-83.1	242	10	
2025-11-15T12:00	15200	116	-59.4	-83.2	244	11	
2025-11-15T12:00	15250	115	-59.6	-83.3	246	12	
2025-11-15T12:00	15300	114	-59.4	-83.3	246	12	
2025-11-15T12:00	15350	113	-59.5	-83.4	243	11	
2025-11-15T12:00	15400	112	-59.9	-83.5	241	11	
2025-11-15T12:00	15450	111	-60.3	-83.5	241	12	
2025-11-15T12:00	15500	110	-60.7	-83.6	240	12	
2025-11-15T12:00	15550	109	-61.1	-83.7	239	13	
2025-11-15T12:00	15600	109	-61.5	-83.8	238	13	
2025-11-15T12:00	15650	108	-61.9	-83.9	236	14	
2025-11-15T12:00	15700	107	-62.2	-84.2	233	14	
2025-11-15T12:00	15750	106	-62.2	-84.2	228	14	
2025-11-15T12:00	15800	105	-62.2	-84.2	224	14	
2025-11-15T12:00	15850	104	-62.4	-84.2	220	14	
2025-11-15T12:00	15900	103	-62.6	-84.4	221	15	
2025-11-15T12:00	15950	103	-62.3	-84.5	226	15	
2025-11-15T12:00	16000	102	-61.9	-84.5	232	15	
2025-11-15T12:00	16050	101	-61.9	-84.5	235	15	
2025-11-15T12:00	16100	100	-61.8	-84.4	235	16	
2025-11-15T12:00	16150	99	-61.7	-84.4	235	17	
2025-11-15T12:00	16200	99	-61.8	-84.4	237	17	
2025-11-15T12:00	16250	98	-61.8	-84.4	240	18	
2025-11-15T12:00	16300	97	-62.0	-84.4	244	18	
2025-11-15T12:00	16350	96	-62.0	-84.3	249	17	
2025-11-15T12:00	16400	95	-62.0	-84.3	254	17	
2025-11-15T12:00	16450	95	-62.1	-84.5	258	17	
2025-11-15T12:00	16500	94	-62.2	-84.7	262	16	
2025-11-15T12:00	16550	93	-62.5	-84.9	266	16	
2025-11-15T12:00	16600	92	-62.2	-84.9	270	16	
2025-11-15T12:00	16650	92	-62.2	-84.9	273	16	
2025-11-15T12:00	16700	91	-62.6	-85.1	274	17	
2025-11-15T12:00	16750	90	-62.8	-85.2	274	17	
2025-11-15T12:00	16800	89	-62.8	-85.1	274	17	
2025-11-15T12:00	16850	89	-63.1	-85.3	273	17	
2025-11-15T12:00	16900	88	-63.5	-85.4	270	16	
2025-11-15T12:00	16950	87	-63.7	-85.5	268	16	
2025-11-15T12:00	17000	87	-63.8	-85.6	268	15	
2025-11-15T12:00	17050	86	-64.0	-85.8	266	15	
2025-11-15T12:00	17100	85	-64.0	-85.9	259	15	
2025-11-15T12:00	17150	84	-63.6	-86.1	251	15	
2025-11-15T12:00	17200	84	-62.5	-85.8	244	16	
2025-11-15T12:00	17250	83	-62.5	-85.8	239	16	
2025-11-15T12:00	17300	82	-62.7	-85.8	236	16	
2025-11-15T12:00	17350	82	-63.0	-86.0	236	16	
2025-11-15T12:00	17400	81	-62.6	-85.9	241	16	
2025-11-15T12:00	17450	80	-62.4	-86.0	247	15	
2025-11-15T12:00	17500	80	-62.2	-85.9	254	15	
2025-11-15T12:00	17550	79	-62.2	-85.9	259	15	
2025-11-15T12:00	17600	79	-62.2	-85.9	263	15	
2025-11-15T12:00	17650	78	-62.4	-86.0	265	15	
2025-11-15T12:00	17700	77	-62.7	-86.2	265	14	
2025-11-15T12:00	17750	77	-62.4	-86.1	265	14	
2025-11-15T12:00	17800	76	-62.4	-86.2	262	13	
2025-11-15T12:00	17850	75	-62.4	-86.1	260	13	
2025-11-15T12:00	17900	75	-62.7	-86.2	258	13	
2025-11-15T12:00	17950	74	-62.8	-86.2	258	13	
2025-11-15T12:00	18000	74	-63.1	-86.4	258	13	
2025-11-15T12:00	18050	73	-62.9	-86.6	259	12	
2025-11-15T12:00	18100	72	-62.1	-86.3	260	11	
2025-11-15T12:00	18150	72	-62.0	-86.3	260	11	
2025-11-15T12:00	18200	71	-62.1	-86.3	261	11	
2025-11-15T12:00	18250	71	-62.2	-86.2	262	11	
2025-11-15T12:00	18300	70	-62.5	-86.3	263	12	
2025-11-15T12:00	18350	70	-62.7	-86.3	264	12	
2025-11-15T12:00	18400	69	-63.1	-86.5	264	13	
2025-11-15T12:00	18450	68	-62.9	-86.5	265	14	
2025-11-15T12:00	18500	68	-62.6	-86.5	265	14	
2025-11-15T12:00	18550	67	-62.6	-86.5	263	14	
2025-11-15T12:00	18600	67	-62.6	-86.4	261	14	
2025-11-15T12:00	18650	66	-62.8	-86.5	260	15	
2025-11-15T12:00	18700	66	-62.9	-86.6	260	16	
2025-11-15T12:00	18750	65	-62.8	-86.5	260	17	
2025-11-15T12:00	18800	65	-62.8	-86.5	260	18	
2025-11-15T12:00	18850	64	-62.9	-86.6	259	19	
2025-11-15T12:00	18900	64	-63.0	-86.6	259	19	
2025-11-15T12:00	18950	63	-63.1	-86.7	260	19	
2025-11-15T12:00	19000	63	-63.0	-86.7	265	19	
2025-11-15T12:00	19050	62	-62.8	-86.7	269	18	
2025-11-15T12:00	19100	62	-62.8	-86.7	274	17	
2025-11-15T12:00	19150	61	-62.7	-86.6	279	16	
2025-11-15T12:00	19200	61	-62.7	-86.6	282	16	
2025-11-15T12:00	19250	60	-63.0	-86.7	285	14	
2025-11-15T12:00	19300	60	-63.3	-86.6	288	14	
2025-11-15T12:00	19350	59	-63.5	-86.7	289	13	
2025-11-15T12:00	19400	59	-63.6	-86.8	290	14	
2025-11-15T12:00	19450	58	-63.5	-86.8	290	14	
2025-11-15T12:00	19500	58	-63.8	-86.8	291	15	
2025-11-15T12:00	19550	57	-64.2	-86.8	290	16	
2025-11-15T12:00	19600	57	-64.7	-86.9	290	15	
2025-11-15T12:00	19650	56	-64.9	-87.0	289	14	
2025-11-15T12:00	19700	56	-65.2	-87.2	289	13	
2025-11-15T12:00	19750	55	-65.3	-87.3	289	12	
2025-11-15T12:00	19800	55	-65.6	-87.5	288	11	
2025-11-15T12:00	19850	54	-65.7	-87.6	283	11	
2025-11-15T12:00	19900	54	-65.5	-87.6	275	11	
2025-11-15T12:00	19950	54	-65.4	-87.5	269	12	
2025-11-15T12:00	20000	53	-65.5	-87.6	265	12	
2025-11-15T12:00	20050	53	-65.4		262	13	
2025-11-15T12:00	20100	52	-65.3		260	14	
2025-11-15T12:00	20150	52	-65.1		257	14	
2025-11-15T12:00	20200	51	-64.8		256	14	
2025-11-15T12:00	20250	51	-64.5		260	14	
2025-11-15T12:00	20300	51	-64.4		263	15	
2025-11-15T12:00	20350	50	-64.1		264	16	
2025-11-15T12:00	20400	50	-64.0		263	17	
2025-11-15T12:00	20450	49	-64.1		262	17	
2025-11-15T12:00	20500	49	-64.0		262	17	
2025-11-15T12:00	20550	49	-64.1		263	16	
2025-11-15T12:00	20600	48	-64.3		264	16	
2025-11-15T12:00	20650	48	-64.6		264	15	
2025-11-15T12:00	20700	47	-64.8		263	15	
2025-11-15T12:00	20750	47	-65.2		261	14	
2025-11-15T12:00	20800	47	-65.5		259	14	
2025-11-15T12:00	20850	46	-65.6		256	14	
2025-11-15T12:00	20900	46	-65.4		254	14	
2025-11-15T12:00	20950	45	-65.4		255	15	
2025-11-15T12:00	21000	45	-65.2		258	14	
2025-11-15T12:00	21050	45	-65.1		263	14	
2025-11-15T12:00	21100	44	-65.1		270	13	
2025-11-15T12:00	21150	44	-65.2		276	13	
2025-11-15T12:00	21200	44	-65.5		280	12	
2025-11-15T12:00	21250	43	-65.9		279	12	
2025-11-15T12:00	21300	43	-65.9		274	11	
2025-11-15T12:00	21350	43	-65.6		268	11	
2025-11-15T12:00	21400	42	-65.4		267	11	
2025-11-15T12:00	21450	42	-65.6		269	12	
2025-11-15T12:00	21500	42	-65.9		269	13	
2025-11-15T12:00	21550	41	-66.0		269	14	
2025-11-15T12:00	21600	41	-66.0		269	16	
2025-11-15T12:00	21650	41	-66.0		269	17	
2025-11-15T12:00	21700	40	-66.0		269	17	
2025-11-15T12:00	21750	40	-65.8		271	17	
2025-11-15T12:00	21800	40	-65.0		277	17	
2025-11-15T12:00	21850	39	-65.1		284	17	
2025-11-15T12:00	21900	39	-65.3		288	17	
2025-11-15T12:00	21950	39	-65.2		288	17	
2025-11-15T12:00	22000	38	-65.2		285	17	
2025-11-15T12:00	22050	38	-65.1		284	16	
2025-11-15T12:00	22100	38	-65.0		286	16	
2025-11-15T12:00	22150	37	-65.0		289	15	
2025-11-15T12:00	22200	37	-65.2		294	14	
2025-11-15T12:00	22250	37	-65.3		299	13	
2025-11-15T12:00	22300	36	-65.3		302	13	
2025-11-15T12:00	22350	36	-65.3		302	12	
2025-11-15T12:00	22400	36	-65.7		300	11	
2025-11-15T12:00	22450	36	-65.9		298	10	
2025-11-15T12:00	22500	35	-66.0		297	9	
2025-11-15T12:00	22550	35	-65.7		294	8	
2025-11-15T12:00	22600	35	-65.4		288	8	
2025-11-15T12:00	22650	34	-65.0		282	9	
2025-11-15T12:00	22700	34	-64.8		277	10	
2025-11-15T12:00	22750	34	-65.3		271	11	
2025-11-15T12:00	22800	34	-65.6		266	12	
2025-11-15T12:00	22850	33	-65.8		263	13	
2025-11-15T12:00	22900	33	-65.7		262	14	
2025-11-15T12:00	22950	33	-65.5		262	15	
2025-11-15T12:00	23000	32	-65.6		262	15	
2025-11-15T12:00	23050	32	-65.6		262	16	
2025-11-15T12:00	23100	32	-65.6		262	16	
2025-11-15T12:00	23150	32	-65.8		263	17	
2025-11-15T12:00	23200	31	-66.2		263	17	
2025-11-15T12:00	23250	31	-66.1		263	19	
2025-11-15T12:00	23300	31	-66.0		264	20	
2025-11-15T12:00	23350	31	-65.9		264	21	
2025-11-15T12:00	23400	30	-65.8		266	21	
2025-11-15T12:00	23450	30	-65.4		269	21	
2025-11-15T12:00	23500	30	-64.6		273	21	
2025-11-15T12:00	23550	30	-64.3		276	21	
2025-11-15T12:00	23600	29	-64.5		278	20	
2025-11-15T12:00	23650	29	-64.3		279	19	
2025-11-15T12:00	23700	29	-64.4		278	18	
2025-11-15T12:00	23750	29	-64.6		278	18	
2025-11-15T12:00	23800	28	-64.7		276	18	
2025-11-15T12:00	23850	28	-64.4		275	18	
2025-11-15T12:00	23900	28	-64.5		273	19	
2025-11-15T12:00	23950	28	-64.4		271	19	
2025-11-15T12:00	24000	28	-64.4		269	20	
2025-11-15T12:00	24050	27	-64.6		268	21	
2025-11-15T12:00	24100	27	-64.7		269	22	
2025-11-15T12:00	24150	27	-64.8		269	22	
2025-11-15T12:00	24200	27	-64.8		268	22	
2025-11-15T12:00	24250	26	-64.7		268	22	
2025-11-15T12:00	24300	26	-64.6		268	22	
2025-11-15T12:00	24350	26	-64.4		270	21	
2025-11-15T12:00	24400	26	-64.1		271	19	
2025-11-15T12:00	24450	26	-64.4		272	19	
2025-11-15T12:00	24500	25	-64.3		273	19	
2025-11-15T12:00	24550	25	-64.1		275	20	
2025-11-15T12:00	24600	25	-64.3		277	21	
2025-11-15T12:00	24650	25	-64.5		279	23	
2025-11-15T12:00	24700	25	-64.3		281	23	
2025-11-15T12:00	24750	24	-64.0		282	23	
2025-11-15T12:00	24800	24	-63.9		281	21	
2025-11-15T12:00	24850	24	-64.1		279	20	
2025-11-15T12:00	24900	24	-64.2		276	19	
2025-11-15T12:00	24950	24	-64.1		273	18	
2025-11-15T12:00	25000	23	-64.1		271	17	
2025-11-15T12:00	25050	23	-63.8		268	17	
2025-11-15T12:00	25100	23	-63.7		264	18	
2025-11-15T12:00	25150	23	-64.0		262	19	
2025-11-15T12:00	25200	23	-64.1		263	21	
2025-11-15T12:00	25250	22	-63.6		266	21	
2025-11-15T12:00	25300	22	-63.4		269	22	
2025-11-15T12:00	25350	22	-63.5		272	22	
2025-11-15T12:00	25400	22	-63.5		274	22	
2025-11-15T12:00	25450	22	-63.6		277	22	
2025-11-15T12:00	25500	22	-63.7		279	22	
2025-11-15T12:00	25550	21	-63.8		282	22	
2025-11-15T12:00	25600	21	-63.7		284	21	
2025-11-15T12:00	25650	21	-63.6		284	21	
2025-11-15T12:00	25700	21	-63.8		283	19	
2025-11-15T12:00	25750	21	-63.9		279	18	
2025-11-15T12:00	25800	21	-64.0		273	17	
2025-11-15T12:00	25850	20	-64.2		268	17	
2025-11-15T12:00	25900	20	-64.0		263	17	
2025-11-15T12:00	25950	20	-63.9		261	18	
2025-11-15T12:00	26000	20	-63.6		263	20	
2025-11-15T12:00	26050	20	-63.4		265	21	
2025-11-15T12:00	26100	20	-63.5		267	21	
2025-11-15T12:00	26150	19	-63.3		268	21	
2025-11-15T12:00	26200	19	-62.9		268	21	
2025-11-15T12:00	26250	19	-62.9		267	21	
2025-11-15T12:00	26300	19	-63.3		266	20	
2025-11-15T12:00	26350	19	-63.5		266	20	
2025-11-15T12:00	26400	19	-63.8		266	20	
2025-11-15T12:00	26450	18	-64.1		267	20	
2025-11-15T12:00	26500	18	-64.2		269	20	
2025-11-15T12:00	26550	18	-64.4		270	20	
2025-11-15T12:00	26600	18	-64.4		270	20	
2025-11-15T12:00	26650	18	-64.3		267	20	
2025-11-15T12:00	26700	18	-64.2		265	20	
2025-11-15T12:00	26750	18	-64.1		264	20	
2025-11-15T12:00	26800	17	-63.7		265	20	
2025-11-15T12:00	26850	17	-63.4		266	20	
2025-11-15T12:00	26900	17	-63.5		267	20	
2025-11-15T12:00	26950	17	-63.6		269	19	
2025-11-15T12:00	27000	17	-63.6		271	19	
2025-11-15T12:00	27050	17	-63.8		272	20	
2025-11-15T12:00	27100	17	-64.1		273	20	
2025-11-15T12:00	27150	16	-64.3		273	21	
2025-11-15T12:00	27200	16	-64.3		270	21	
2025-11-15T12:00	27250	16	-64.2		266	20	
2025-11-15T12:00	27300	16	-64.0		263	20	
2025-11-15T12:00	27350	16	-63.7		260	20	
2025-11-15T12:00	27400	16	-63.4		259	21	
2025-11-15T12:00	27450	16	-63.2		258	22	
2025-11-15T12:00	27500	16	-63.1		258	22	
2025-11-15T12:00	27550	15	-63.0		258	22	
2025-11-15T12:00	27600	15	-62.8		257	22	
2025-11-15T12:00	27650	15	-62.8		256	22	
2025-11-15T12:00	27700	15	-62.7		255	23	
2025-11-15T12:00	27750	15	-62.5		256	24	
2025-11-15T12:00	27800	15	-62.3		258	25	
2025-11-15T12:00	27850	15	-62.4		261	26	
2025-11-15T12:00	27900	15	-62.5		262	26	
2025-11-15T12:00	27950	14	-62.3		262	27	
2025-11-15T12:00	28000	14	-62.4		260	28	
2025-11-15T12:00	28050	14	-62.5		258	28	
2025-11-15T12:00	28100	14	-62.3		256	29	
2025-11-15T12:00	28150	14	-62.0		255	30	
2025-11-15T12:00	28200	14	-61.7		256	30	
2025-11-15T12:00	28250	14	-61.7		259	30	
2025-11-15T12:00	28300	14	-61.7		262	31	
2025-11-15T12:00	28350	14	-61.5		263	31	
2025-11-15T12:00	28400	13	-61.3		263	32	
2025-11-15T12:00	28450	13	-61.3		262	33	
2025-11-15T12:00	28500	13	-61.3		261	34	
2025-11-15T12:00	28550	13	-61.2		262	34	
2025-11-15T12:00	28600	13	-61.1		264	33	
2025-11-15T12:00	28650	13	-61.4		266	32	
2025-11-15T12:00	28700	13	-61.7		268	31	
2025-11-15T12:00	28750	13	-61.4		269	31	
2025-11-15T12:00	28800	13	-61.1		269	31	
2025-11-15T12:00	28850	12	-61.4		267	32	
2025-11-15T12:00	28900	12	-61.6		267	33	
2025-11-15T12:00	28950	12	-61.8		267	33	
2025-11-15T12:00	29000	12	-61.9		267	32	
2025-11-15T12:00	29050	12	-62.1		268	32	
2025-11-15T12:00	29100	12	-62.0		268	33	
2025-11-15T12:00	29150	12	-61.7		267	33	
2025-11-15T12:00	29200	12	-61.4		266	33	
2025-11-15T12:00	29250	12	-61.0		265	33	
2025-11-15T12:00	29300	12	-60.9		265	32	
2025-11-15T12:00	29350	12	-60.8		264	32	
2025-11-15T12:00	29400	11	-60.7		264	31	
2025-11-15T12:00	29450	11	-60.7		265	32	
2025-11-15T12:00	29500	11	-60.7		266	32	
2025-11-15T12:00	29550	11	-60.9		267	33	
2025-11-15T12:00	29600	11	-61.1		267	34	
2025-11-15T12:00	29650	11	-61.2		267	34	
2025-11-15T12:00	29700	11	-61.2		266	34	
2025-11-15T12:00	29750	11	-61.2		265	33	
2025-11-15T12:00	29800	11	-61.3		264	33	
2025-11-15T12:00	29850	11	-61.5		264	33	
2025-11-15T12:00	29900	11	-61.7		265	34	
2025-11-15T12:00	29950	10	-61.8		267	34	
2025-11-15T12:00	30000	10	-62.0		269	34	
2025-11-15T12:00	30050	10	-62.1		270	35	
2025-11-15T12:00	30100	10	-62.1		272	35	
2025-11-15T12:00	30150	10	-62.3		273	34	
2025-11-15T12:00	30200	10	-62.6		274	34	
2025-11-15T12:00	30250	10	-63.0		274	35	
2025-11-15T12:00	30300	10	-62.9		273	35	
2025-11-15T12:00	30350	10	-62.6		272	36	
2025-11-15T12:00	30400	10	-62.3		270	36	
2025-11-15T12:00	30450	10	-62.0		268	35	
2025-11-15T12:00	30500	10	-61.9		267	35	
2025-11-15T12:00	30550	10	-61.7		266	36	
2025-11-15T12:00	30600	9	-61.3		266	37	
2025-11-15T12:00	30650	9	-61.0		267	38	
2025-11-15T12:00	30700	9	-60.9		268	39	
2025-11-15T12:00	30750	9	-61.1		269	40	
2025-11-15T12:00	30800	9	-61.5		270	41	
2025-11-15T12:00	30850	9	-61.8		271	42	
2025-11-15T12:00	30900	9	-61.9		273	42	
2025-11-15T12:00	30950	9	-61.9		274	42	
2025-11-15T12:00	31000	9	-61.8		274	41	
2025-11-15T12:00	31050	9	-61.7		274	40	
2025-11-15T12:00	31100	9	-61.7		273	38	
2025-11-15T12:00	31150	9	-61.3		270	37	
2025-11-15T12:00	31200	9	-60.6		267	36	
2025-11-15T12:00	31250	8	-60.1		263	35	
2025-11-15T12:00	31300	8	-60.0		260	34	
2025-11-15T12:00	31350	8	-60.1		257	34	
2025-11-15T12:00	31400	8	-59.8		258	36	
2025-11-15T12:00	31450	8	-59.0		259	38	
2025-11-15T12:00	31500	8	-58.5		261	40	
2025-11-15T12:00	31550	8	-58.2		261	43	
2025-11-15T12:00	31600	8	-58.1		261	45	
2025-11-15T12:00	31650	8	-57.8		262	46	
2025-11-15T12:00	31700	8	-57.3		263	46	
2025-11-15T12:00	31750	8	-57.1		265	45	
2025-11-15T12:00	31800	8	-57.2		266	45	
2025-11-15T12:00	31850	8	-57.2		268	44	
2025-11-15T12:00	31900	8	-57.3		269	44	
2025-11-15T12:00	31950	8	-57.6		271	44	
2025-11-15T12:00	32000	8	-57.9		272	44	
2025-11-15T12:00	32050	7	-58.1		272	44	
2025-11-15T12:00	32100	7	-58.1		271	44	
2025-11-15T12:00	32150	7	-58.0		270	44	
2025-11-15T12:00	32200	7	-57.9		269	44	
2025-11-15T12:00	32250	7	-58.1		268	44	
2025-11-15T12:00	32300	7	-58.3		268	44	
2025-11-15T12:00	32350	7	-58.5		267	44	
2025-11-15T12:00	32400	7	-58.6		266	44	
2025-11-15T12:00	32450	7	-58.7		265	44	
2025-11-15T12:00	32500	7	-58.5		264	44	
2025-11-15T12:00	32550	7	-58.2		263	44	
2025-11-15T12:00	32600	7	-57.6		262	45	
2025-11-15T12:00	32650	7	-57.1		262	46	
2025-11-15T12:00	32700	7	-56.7		262	47	
2025-11-15T12:00	32750	7	-55.9		263	48	
2025-11-15T12:00	32800	7	-55.1		263	49	
2025-11-15T12:00	32850	7	-54.7		264	50	
2025-11-15T12:00	32900	7	-54.3		263	51	
2025-11-15T12:00	32950	6	-53.5		263	51	
2025-11-15T12:00	33000	6	-52.5		264	51	
2025-11-15T12:00	33050	6	-51.5		267	51	
2025-11-15T12:00	33100	6	-51.1		269	51	
2025-11-15T12:00	33150	6	-51.1		271	51	
2025-11-15T12:00	33200	6	-51.0		270	51	
2025-11-15T12:00	33250	6	-50.5		269	51	
2025-11-15T12:00	33300	6	-50.4		269	50	
2025-11-15T12:00	33350	6	-50.5		268	49	
2025-11-15T12:00	33400	6	-50.7		268	48	
2025-11-15T12:00	33450	6	-50.9		267	47	
2025-11-15T12:00	33500	6	-51.1		266	47	
2025-11-15T12:00	33550	6	-51.3		264	47	
2025-11-15T12:00	33600	6	-51.1		263	48	
2025-11-15T12:00	33650	6	-50.8		263	49	
2025-11-15T12:00	33700	6	-50.7		263	50	
2025-11-15T12:00	33750	6	-50.7		264	52	
2025-11-15T12:00	33800	6	-50.8		264	53	
2025-11-15T12:00	33850	6	-50.8		265	54	
2025-11-15T12:00	33900	6	-50.8		265	55	
2025-11-15T12:00	33950	6	-50.9		265	56	
2025-11-15T12:00	34000	6	-51.1		265	57	
2025-11-15T12:00	34050	5	-51.2		265	57	
2025-11-15T12:00	34100	5	-51.3		265	57	
2025-11-15T12:00	34150	5	-51.6		265	56	
2025-11-15T12:00	34200	5	-51.8		265	54	
2025-11-15T12:00	34250	5	-51.8		265	53	
2025-11-15T12:00	34300	5	-52.0		265	52	
2025-11-15T12:00	34350	5	-52.2		265	51	
2025-11-15T12:00	34400	5	-52.3		264	50	
2025-11-15T12:00	34450	5	-52.4		264	50	
2025-11-15T12:00	34500	5	-52.2		264	49	
2025-11-15T12:00	34550	5	-51.8		265	50	
2025-11-15T12:00	34600	5	-51.6		266	50	
2025-11-15T12:00	34650	5	-51.6		267	50	
2025-11-15T12:00	34700	5	-51.7		268	50	
2025-11-15T12:00	34750	5	-52.0		268	50	
2025-11-15T12:00	34800	5	-52.2		269	51	
2025-11-15T12:00	34850	5	-51.8		270	53	
2025-11-15T12:00	34900	5	-51.1		271	55	
2025-11-15T12:00	34950	5	-50.3		271	56	
2025-11-15T12:00	35000	5	-49.7		271	55	
2025-11-15T12:00	35050	5	-49.6		270	56	
2025-11-15T12:00	35100	5	-49.2		270	57	
2025-11-15T12:00	35150	5	-49.1		270	58	
2025-11-15T12:00	35200	5	-48.8		270	58	
2025-11-15T12:00	35250	5	-48.6		270	58	
2025-11-15T12:00	35300	5	-48.5		270	58	
2025-11-15T12:00	35350	4	-48.2		270	58	
2025-11-15T12:00	35400	4	-47.9		270	57	
2025-11-15T12:00	35450	4	-47.9		269	58	
2025-11-15T12:00	35500	4	-48.0		269	59	
2025-11-15T12:00	35550	4	-47.8		269	59	
2025-11-15T12:00	35600	4	-47.4		269	60	
2025-11-16T00:00	491	954	7.0	7.0	191	2	
2025-11-16T00:00	501	953	7.7	7.7	188	1	
2025-11-16T00:00	520	951	8.1	8.1	183	1	
2025-11-16T00:00	540	949	8.8	8.3	179	1	
2025-11-16T00:00	560	947	9.1	8.2	174	1	
2025-11-16T00:00	580	944	9.3	8.3	164	1	
2025-11-16T00:00	600	942	9.3	8.4	150	1	
2025-11-16T00:00	620	940	9.3	8.4	133	1	
2025-11-16T00:00	640	938	9.4	8.4	116	1	
2025-11-16T00:00	660	935	9.2	8.3	103	1	
2025-11-16T00:00	680	933	9.1	8.3	90	1	
2025-11-16T00:00	700	931	8.9	8.3	74	1	
2025-11-16T00:00	720	928	8.7	8.1	46	0	
2025-11-16T00:00	740	926	8.8	7.8	348	0	
2025-11-16T00:00	760	924	9.1	7.5	309	0	
2025-11-16T00:00	780	922	9.0	7.5	294	1	
2025-11-16T00:00	800	920	8.9	7.4	290	1	
2025-11-16T00:00	820	917	8.9	7.1	292	1	
2025-11-16T00:00	840	915	9.1	6.8	297	1	
2025-11-16T00:00	860	913	9.0	6.7	304	1	
2025-11-16T00:00	880	911	8.9	6.6	315	1	
2025-11-16T00:00	900	909	8.7	6.6	328	1	
2025-11-16T00:00	920	906	8.5	6.5	345	1	
2025-11-16T00:00	940	904	8.3	6.5	10	1	
2025-11-16T00:00	960	902	8.1	6.5	40	1	
2025-11-16T00:00	980	900	8.0	6.4	68	1	
2025-11-16T00:00	1000	898	7.7	6.3	95	1	
2025-11-16T00:00	1020	895	7.6	6.1	115	1	
2025-11-16T00:00	1040	893	7.6	6.0	134	1	
2025-11-16T00:00	1060	891	7.6	5.6	157	1	
2025-11-16T00:00	1080	889	7.6	5.4	178	1	
2025-11-16T00:00	1100	887	7.6	5.4	193	2	
2025-11-16T00:00	1120	885	7.5	5.3	204	2	
2025-11-16T00:00	1140	882	7.4	5.1	209	3	
2025-11-16T00:00	1160	880	7.7	4.4	211	4	
2025-11-16T00:00	1180	878	8.1	4.2	213	4	
2025-11-16T00:00	1200	876	8.1	4.6	214	4	
2025-11-16T00:00	1220	874	7.9	4.8	215	5	
2025-11-16T00:00	1240	872	7.7	4.8	215	5	
2025-11-16T00:00	1260	870	7.6	4.9	216	5	
2025-11-16T00:00	1280	868	7.4	5.0	216	4	
2025-11-16T00:00	1300	865	7.2	5.0	217	4	
2025-11-16T00:00	1320	864	7.1	5.0	217	4	
2025-11-16T00:00	1340	861	6.9	5.0	218	4	
2025-11-16T00:00	1360	859	6.7	5.0	219	4	
2025-11-16T00:00	1380	857	6.6	4.9	221	5	
2025-11-16T00:00	1400	855	6.5	5.0	222	5	
2025-11-16T00:00	1420	853	6.4	5.0	224	5	
2025-11-16T00:00	1440	851	6.4	4.9	226	6	
2025-11-16T00:00	1460	849	6.4	4.8	227	6	
2025-11-16T00:00	1480	847	6.5	4.7	227	6	
2025-11-16T00:00	1500	845	6.4	4.6	228	6	
2025-11-16T00:00	1520	843	6.3	4.5	229	6	
2025-11-16T00:00	1540	841	6.2	4.4	229	7	
2025-11-16T00:00	1560	839	6.0	4.4	229	7	
2025-11-16T00:00	1580	836	5.8	4.4	229	7	
2025-11-16T00:00	1600	835	5.7	4.3	230	7	
2025-11-16T00:00	1620	833	5.5	4.3	230	7	
2025-11-16T00:00	1640	831	5.3	4.2	231	8	
2025-11-16T00:00	1660	828	5.2	4.1	232	8	
2025-11-16T00:00	1680	827	5.2	4.0	232	8	
2025-11-16T00:00	1700	824	5.1	4.1	232	8	
2025-11-16T00:00	1720	822	5.0	4.1	232	8	
2025-11-16T00:00	1740	820	4.9	4.0	232	8	
2025-11-16T00:00	1760	818	4.7	3.8	232	9	
2025-11-16T00:00	1780	816	4.6	3.6	233	9	
2025-11-16T00:00	1800	814	4.3	3.4	233	9	
2025-11-16T00:00	1820	812	4.2	3.3	234	10	
2025-11-16T00:00	1840	811	4.1	3.1	234	10	
2025-11-16T00:00	1860	809	4.0	2.9	234	10	
2025-11-16T00:00	1880	806	3.8	2.6	235	11	
2025-11-16T00:00	1900	804	3.8	2.3	235	11	
2025-11-16T00:00	1920	802	3.7	2.2	235	11	
2025-11-16T00:00	1940	800	3.5	2.1	235	12	
2025-11-16T00:00	1960	799	3.4	1.9	236	12	
2025-11-16T00:00	1980	797	3.3	1.4	236	13	
2025-11-16T00:00	2000	795	3.3	1.0	235	13	
2025-11-16T00:00	2020	792	3.2	0.4	235	13	
2025-11-16T00:00	2040	791	3.2	-0.5	233	14	
2025-11-16T00:00	2060	789	3.2	-0.8	232	14	
2025-11-16T00:00	2080	787	3.1	-1.2	230	14	
2025-11-16T00:00	2100	785	3.0	-1.5	229	14	
2025-11-16T00:00	2120	783	2.9	-1.8	227	14	
2025-11-16T00:00	2140	781	2.8	-2.3	226	14	
2025-11-16T00:00	2160	779	2.7	-2.6	225	14	
2025-11-16T00:00	2180	777	2.7	-2.8	224	13	
2025-11-16T00:00	2200	775	2.6	-2.8	224	13	
2025-11-16T00:00	2220	773	2.4	-2.9	223	12	
2025-11-16T00:00	2240	771	2.3	-3.2	223	12	
2025-11-16T00:00	2260	769	2.2	-3.6	222	11	
2025-11-16T00:00	2280	767	2.1	-3.8	220	11	
2025-11-16T00:00	2300	766	2.1	-4.0	218	11	
2025-11-16T00:00	2320	764	2.0	-4.2	216	12	
2025-11-16T00:00	2340	762	1.8	-4.4	214	12	
2025-11-16T00:00	2360	760	1.6	-4.5	213	12	
2025-11-16T00:00	2380	758	1.5	-4.6	212	13	
2025-11-16T00:00	2400	756	1.3	-4.7	212	13	
2025-11-16T00:00	2420	754	1.1	-4.9	212	13	
2025-11-16T00:00	2440	752	1.0	-5.0	213	14	
2025-11-16T00:00	2460	751	0.8	-5.0	213	14	
2025-11-16T00:00	2480	749	0.7	-5.2	213	14	
2025-11-16T00:00	2500	747	0.5	-5.3	213	14	
2025-11-16T00:00	2520	745	0.3	-5.4	213	15	
2025-11-16T00:00	2540	743	0.1	-5.6	213	15	
2025-11-16T00:00	2560	741	0.0	-5.7	213	15	
2025-11-16T00:00	2580	740	-0.2	-5.8	214	15	
2025-11-16T00:00	2600	738	-0.4	-5.9	214	15	
2025-11-16T00:00	2620	736	-0.6	-6.2	215	15	
2025-11-16T00:00	2640	734	-0.8	-6.3	216	15	
2025-11-16T00:00	2660	732	-0.9	-6.4	217	15	
2025-11-16T00:00	2680	730	-1.1	-6.6	218	15	
2025-11-16T00:00	2700	728	-1.2	-6.8	219	15	
2025-11-16T00:00	2720	727	-1.4	-6.9	221	15	
2025-11-16T00:00	2740	725	-1.6	-7.0	223	14	
2025-11-16T00:00	2760	723	-1.9	-7.1	224	14	
2025-11-16T00:00	2780	721	-2.0	-7.1	225	14	
2025-11-16T00:00	2800	719	-2.2	-7.3	224	14	
2025-11-16T00:00	2820	717	-2.3	-7.4	224	13	
2025-11-16T00:00	2840	716	-2.5	-7.4	222	13	
2025-11-16T00:00	2860	714	-2.7	-7.4	220	13	
2025-11-16T00:00	2880	712	-2.9	-7.6	220	13	
2025-11-16T00:00	2900	710	-3.1	-7.7	219	13	
2025-11-16T00:00	2920	709	-3.2	-7.7	219	13	
2025-11-16T00:00	2940	707	-3.4	-7.8	220	13	
2025-11-16T00:00	2960	705	-3.6	-7.8	221	13	
2025-11-16T00:00	2980	703	-3.7	-7.8	222	13	
2025-11-16T00:00	3000	702	-3.9	-7.8	223	13	
2025-11-16T00:00	3020	700	-4.0	-7.7	223	13	
2025-11-16T00:00	3040	698	-4.2	-7.8	224	13	
2025-11-16T00:00	3060	696	-4.3	-7.5	224	12	
2025-11-16T00:00	3080	694	-4.5	-7.0	224	13	
2025-11-16T00:00	3100	693	-4.7	-7.2	225	13	
2025-11-16T00:00	3120	691	-4.8	-8.6	226	13	
2025-11-16T00:00	3140	689	-4.9	-9.6	226	14	
2025-11-16T00:00	3160	687	-5.1	-9.3	227	14	
2025-11-16T00:00	3180	685	-5.2	-9.1	226	14	
2025-11-16T00:00	3200	684	-5.3	-8.4	224	14	
2025-11-16T00:00	3220	682	-5.4	-8.6	222	14	
2025-11-16T00:00	3240	680	-5.5	-8.7	219	14	
2025-11-16T00:00	3260	679	-5.7	-8.3	217	14	
2025-11-16T00:00	3280	677	-5.9	-8.1	215	14	
2025-11-16T00:00	3300	675	-6.0	-7.9	215	14	
2025-11-16T00:00	3320	674	-5.9	-8.4	215	14	
2025-11-16T00:00	3340	672	-5.9	-8.9	216	13	
2025-11-16T00:00	3360	670	-6.0	-9.2	217	13	
2025-11-16T00:00	3380	668	-6.1	-9.4	218	13	
2025-11-16T00:00	3400	667	-6.2	-9.6	219	12	
2025-11-16T00:00	3420	665	-6.4	-10.1	219	13	
2025-11-16T00:00	3440	663	-6.5	-10.2	219	13	
2025-11-16T00:00	3460	662	-6.7	-10.7	219	13	
2025-11-16T00:00	3480	660	-6.9	-11.0	219	13	
2025-11-16T00:00	3500	658	-7.0	-11.5	220	14	
2025-11-16T00:00	3520	656	-7.0	-12.9	221	14	
2025-11-16T00:00	3540	655	-7.1	-13.7	221	14	
2025-11-16T00:00	3560	653	-7.2	-13.1	221	14	
2025-11-16T00:00	3580	651	-7.4	-11.7	220	15	
2025-11-16T00:00	3600	650	-7.5	-13.1	220	15	
2025-11-16T00:00	3620	648	-7.6	-14.1	220	15	
2025-11-16T00:00	3640	646	-7.6	-15.2	220	15	
2025-11-16T00:00	3660	645	-7.8	-15.7	220	15	
2025-11-16T00:00	3680	643	-8.0	-16.2	220	15	
2025-11-16T00:00	3700	641	-8.1	-17.4	220	15	
2025-11-16T00:00	3720	640	-8.2	-16.9	219	15	
2025-11-16T00:00	3740	638	-8.4	-16.4	219	15	
2025-11-16T00:00	3760	636	-8.6	-15.9	217	15	
2025-11-16T00:00	3780	635	-8.6	-16.6	216	14	
2025-11-16T00:00	3800	633	-8.5	-17.2	215	15	
2025-11-16T00:00	3820	632	-8.4	-18.3	215	15	
2025-11-16T00:00	3840	630	-8.5	-18.3	215	15	
2025-11-16T00:00	3860	628	-8.6	-18.2	215	15	
2025-11-16T00:00	3880	627	-8.8	-18.2	216	15	
2025-11-16T00:00	3900	625	-9.0	-18.3	216	16	
2025-11-16T00:00	3920	623	-9.2	-18.3	217	16	
2025-11-16T00:00	3940	622	-9.4	-18.0	217	16	
2025-11-16T00:00	3960	620	-9.6	-17.2	217	16	
2025-11-16T00:00	3980	619	-9.7	-17.5	217	16	
2025-11-16T00:00	4000	617	-9.7	-18.0	217	16	
2025-11-16T00:00	4020	615	-9.8	-18.5	217	16	
2025-11-16T00:00	4040	614	-9.9	-18.9	217	16	
2025-11-16T00:00	4060	612	-10.0	-19.3	217	16	
2025-11-16T00:00	4080	611	-10.1	-19.8	217	16	
2025-11-16T00:00	4100	609	-10.2	-19.7	217	16	
2025-11-16T00:00	4120	608	-10.4	-19.7	217	15	
2025-11-16T00:00	4140	606	-10.5	-20.0	218	15	
2025-11-16T00:00	4160	604	-10.7	-20.3	218	15	
2025-11-16T00:00	4180	603	-10.8	-20.3	219	15	
2025-11-16T00:00	4200	601	-11.1	-20.3	219	15	
2025-11-16T00:00	4220	600	-11.2	-20.3	220	15	
2025-11-16T00:00	4240	598	-11.3	-21.3	222	15	
2025-11-16T00:00	4260	597	-11.3	-22.4	223	15	
2025-11-16T00:00	4280	595	-11.4	-22.7	226	16	
2025-11-16T00:00	4300	593	-11.5	-23.0	227	16	
2025-11-16T00:00	4320	592	-11.6	-23.2	228	16	
2025-11-16T00:00	4340	590	-11.8	-23.3	230	16	
2025-11-16T00:00	4360	589	-11.9	-23.7	230	16	
2025-11-16T00:00	4380	587	-12.0	-24.1	231	16	
2025-11-16T00:00	4400	586	-12.1	-24.6	231	16	
2025-11-16T00:00	4420	584	-12.2	-25.0	232	15	
2025-11-16T00:00	4440	583	-12.3	-25.3	232	15	
2025-11-16T00:00	4460	581	-12.4	-25.4	233	15	
2025-11-16T00:00	4480	580	-12.6	-25.8	233	15	
2025-11-16T00:00	4500	578	-12.7	-26.3	233	15	
2025-11-16T00:00	4520	577	-12.9	-26.7	233	14	
2025-11-16T00:00	4540	575	-13.1	-26.5	233	14	
2025-11-16T00:00	4560	574	-13.2	-26.7	234	14	
2025-11-16T00:00	4580	572	-13.2	-27.2	234	14	
2025-11-16T00:00	4600	571	-13.4	-27.6	234	14	
2025-11-16T00:00	4620	569	-13.5	-27.9	234	14	
2025-11-16T00:00	4640	568	-13.7	-28.1	234	14	
2025-11-16T00:00	4660	566	-13.8	-28.3	235	14	
2025-11-16T00:00	4680	565	-14.0	-28.8	235	14	
2025-11-16T00:00	4700	563	-14.0	-29.4	236	14	
2025-11-16T00:00	4720	562	-14.0	-29.6	236	13	
2025-11-16T00:00	4740	560	-14.1	-29.3	237	13	
2025-11-16T00:00	4760	559	-14.3	-28.9	238	13	
2025-11-16T00:00	4780	557	-14.5	-28.7	238	13	
2025-11-16T00:00	4800	556	-14.7	-28.9	238	13	
2025-11-16T00:00	4820	554	-14.8	-29.9	237	13	
2025-11-16T00:00	4840	553	-15.0	-30.3	237	13	
2025-11-16T00:00	4860	551	-15.0	-31.4	237	13	
2025-11-16T00:00	4880	550	-15.1	-31.8	237	13	
2025-11-16T00:00	4900	548	-15.3	-32.1	237	13	
2025-11-16T00:00	4920	547	-15.5	-32.6	237	13	
2025-11-16T00:00	4940	546	-15.7	-32.8	239	12	
2025-11-16T00:00	4960	544	-15.8	-33.1	240	12	
2025-11-16T00:00	4980	543	-16.0	-33.5	241	12	
2025-11-16T00:00	5000	541	-16.2	-33.8	241	12	
2025-11-16T00:00	5020	540	-16.3	-34.2	240	12	
2025-11-16T00:00	5040	538	-16.5	-34.6	239	12	
2025-11-16T00:00	5060	537	-16.6	-34.7	237	12	
2025-11-16T00:00	5080	536	-16.8	-34.6	236	12	
2025-11-16T00:00	5100	534	-17.0	-34.5	235	12	
2025-11-16T00:00	5120	533	-17.2	-34.9	235	12	
2025-11-16T00:00	5140	531	-17.3	-36.1	235	12	
2025-11-16T00:00	5160	530	-17.4	-36.5	237	12	
2025-11-16T00:00	5180	528	-17.6	-36.8	238	12	
2025-11-16T00:00	5200	527	-17.7	-37.5	239	12	
2025-11-16T00:00	5220	526	-17.7	-38.7	240	12	
2025-11-16T00:00	5240	524	-17.8	-39.6	241	12	
2025-11-16T00:00	5260	523	-17.9	-39.9	241	12	
2025-11-16T00:00	5280	521	-18.1	-39.7	241	12	
2025-11-16T00:00	5300	520	-18.3	-39.8	241	12	
2025-11-16T00:00	5320	519	-18.5	-39.6	241	12	
2025-11-16T00:00	5340	517	-18.7	-39.4	240	12	
2025-11-16T00:00	5360	516	-18.8	-39.6	240	12	
2025-11-16T00:00	5380	514	-18.9	-40.0	241	12	
2025-11-16T00:00	5400	513	-19.1	-40.3	241	12	
2025-11-16T00:00	5420	512	-19.2	-40.6	241	12	
2025-11-16T00:00	5440	510	-19.4	-40.8	241	13	
2025-11-16T00:00	5460	509	-19.5	-41.6	240	13	
2025-11-16T00:00	5480	508	-19.6	-42.0	240	13	
2025-11-16T00:00	5500	506	-19.7	-41.7	240	13	
2025-11-16T00:00	5520	505	-19.8	-42.1	239	14	
2025-11-16T00:00	5540	503	-19.9	-42.6	239	14	
2025-11-16T00:00	5560	502	-20.1	-43.3	239	14	
2025-11-16T00:00	5580	501	-20.2	-44.2	239	14	
2025-11-16T00:00	5600	499	-20.3	-44.5	240	15	
2025-11-16T00:00	5620	498	-20.5	-44.8	240	15	
2025-11-16T00:00	5640	497	-20.6	-44.9	240	15	
2025-11-16T00:00	5660	495	-20.8	-45.0	240	14	
2025-11-16T00:00	5680	494	-21.0	-45.1	240	14	
2025-11-16T00:00	5700	493	-21.2	-45.1	241	13	
2025-11-16T00:00	5720	491	-21.4	-45.1	241	13	
2025-11-16T00:00	5740	490	-21.6	-45.2	242	13	
2025-11-16T00:00	5760	489	-21.7	-45.3	242	12	
2025-11-16T00:00	5780	487	-21.9	-45.4	241	12	
2025-11-16T00:00	5800	486	-22.1	-45.3	240	12	
2025-11-16T00:00	5820	485	-22.3	-45.2	238	13	
2025-11-16T00:00	5840	483	-22.5	-45.2	236	13	
2025-11-16T00:00	5860	482	-22.7	-45.1	235	13	
2025-11-16T00:00	5880	481	-22.9	-45.1	235	13	
2025-11-16T00:00	5900	480	-23.1	-45.3	235	14	
2025-11-16T00:00	5920	478	-23.2	-45.9	235	13	
2025-11-16T00:00	5940	477	-23.4	-46.3	236	13	
2025-11-16T00:00	5960	476	-23.5	-46.4	236	13	
2025-11-16T00:00	5980	474	-23.7	-46.6	236	12	
2025-11-16T00:00	6000	473	-23.8	-46.8	236	12	
2025-11-16T00:00	6020	472	-24.0	-47.3	236	11	
2025-11-16T00:00	6040	470	-24.0	-48.2	235	11	
2025-11-16T00:00	6060	469	-24.1	-48.4	234	11	
2025-11-16T00:00	6080	468	-24.3	-48.3	232	11	
2025-11-16T00:00	6100	467	-24.4	-47.9	230	11	
2025-11-16T00:00	6120	465	-24.6	-47.1	229	12	
2025-11-16T00:00	6140	464	-24.8	-47.1	229	12	
2025-11-16T00:00	6160	463	-24.9	-47.8	229	12	
2025-11-16T00:00	6180	461	-25.1	-47.6	230	12	
2025-11-16T00:00	6200	460	-25.2	-47.7	231	13	
2025-11-16T00:00	6220	459	-25.4	-47.9	232	13	
2025-11-16T00:00	6240	458	-25.6	-48.0	233	13	
2025-11-16T00:00	6260	456	-25.8	-47.8	233	13	
2025-11-16T00:00	6280	455	-25.9	-47.7	233	14	
2025-11-16T00:00	6300	454	-26.1	-47.8	232	14	
2025-11-16T00:00	6320	453	-26.3	-48.2	232	14	
2025-11-16T00:00	6340	451	-26.4	-48.7	231	14	
2025-11-16T00:00	6360	450	-26.6	-49.3	231	14	
2025-11-16T00:00	6380	449	-26.8	-49.5	231	14	
2025-11-16T00:00	6400	448	-26.9	-49.5	231	14	
2025-11-16T00:00	6420	446	-27.1	-48.9	232	15	
2025-11-16T00:00	6440	445	-27.2	-47.8	232	15	
2025-11-16T00:00	6460	444	-27.4	-48.0	232	15	
2025-11-16T00:00	6480	443	-27.6	-48.2	233	15	
2025-11-16T00:00	6500	441	-27.8	-47.8	234	15	
2025-11-16T00:00	6520	440	-27.9	-47.5	234	15	
2025-11-16T00:00	6540	439	-28.1	-47.4	235	15	
2025-11-16T00:00	6560	438	-28.3	-47.4	236	15	
2025-11-16T00:00	6580	437	-28.5	-47.5	237	15	
2025-11-16T00:00	6600	435	-28.7	-47.4	238	15	
2025-11-16T00:00	6620	434	-28.9	-47.4	239	16	
2025-11-16T00:00	6640	433	-29.1	-47.6	239	16	
2025-11-16T00:00	6660	432	-29.3	-47.6	239	16	
2025-11-16T00:00	6680	430	-29.5	-47.5	239	16	
2025-11-16T00:00	6700	429	-29.7	-47.5	239	16	
2025-11-16T00:00	6720	428	-29.9	-47.6	239	16	
2025-11-16T00:00	6740	427	-30.1	-47.6	239	16	
2025-11-16T00:00	6760	426	-30.2	-47.7	239	16	
2025-11-16T00:00	6780	425	-30.4	-47.6	239	16	
2025-11-16T00:00	6800	423	-30.6	-47.6	240	16	
2025-11-16T00:00	6820	422	-30.8	-47.7	240	17	
2025-11-16T00:00	6840	421	-31.0	-47.5	241	17	
2025-11-16T00:00	6860	420	-31.2	-47.8	241	17	
2025-11-16T00:00	6880	419	-31.4	-47.7	242	17	
2025-11-16T00:00	6900	417	-31.6	-47.7	243	17	
2025-11-16T00:00	6920	416	-31.7	-47.5	245	17	
2025-11-16T00:00	6940	415	-31.9	-47.4	246	17	
2025-11-16T00:00	6960	414	-32.0	-47.3	247	18	
2025-11-16T00:00	6980	413	-32.1	-47.2	248	18	
2025-11-16T00:00	7000	411	-32.2	-47.1	249	18	
2025-11-16T00:00	7020	410	-32.4	-47.0	251	18	
2025-11-16T00:00	7040	409	-32.5	-46.7	252	19	
2025-11-16T00:00	7060	408	-32.6	-46.5	254	19	
2025-11-16T00:00	7080	407	-32.7	-46.4	255	19	
2025-11-16T00:00	7100	406	-32.8	-46.5	256	19	
2025-11-16T00:00	7120	405	-32.9	-46.4	257	19	
2025-11-16T00:00	7140	403	-33.0	-46.2	259	19	
2025-11-16T00:00	7160	402	-33.1	-46.3	260	19	
2025-11-16T00:00	7180	401	-33.2	-46.4	262	20	
2025-11-16T00:00	7200	400	-33.4	-46.5	263	20	
2025-11-16T00:00	7220	399	-33.6	-46.7	264	20	
2025-11-16T00:00	7240	398	-33.7	-46.8	264	20	
2025-11-16T00:00	7260	397	-33.8	-47.0	265	21	
2025-11-16T00:00	7280	395	-34.0	-47.4	265	21	
2025-11-16T00:00	7300	394	-34.1	-47.6	265	22	
2025-11-16T00:00	7320	393	-34.3	-47.4	265	22	
2025-11-16T00:00	7340	392	-34.5	-47.3	265	22	
2025-11-16T00:00	7360	391	-34.6	-47.7	266	22	
2025-11-16T00:00	7380	390	-34.7	-48.0	266	23	
2025-11-16T00:00	7400	389	-34.9	-48.1	268	23	
2025-11-16T00:00	7420	388	-35.0	-48.2	269	24	
2025-11-16T00:00	7440	386	-35.2	-48.1	270	24	
2025-11-16T00:00	7460	385	-35.4	-48.4	270	25	
2025-11-16T00:00	7480	384	-35.5	-48.7	271	26	
2025-11-16T00:00	7500	383	-35.5	-48.8	271	27	
2025-11-16T00:00	7520	382	-35.7	-48.9	271	28	
2025-11-16T00:00	7540	381	-35.8	-48.9	271	28	
2025-11-16T00:00	7560	380	-35.8	-49.0	271	29	
2025-11-16T00:00	7580	379	-35.9	-48.9	270	30	
2025-11-16T00:00	7600	378	-36.0	-48.8	270	30	
2025-11-16T00:00	7620	377	-36.2	-48.7	270	31	
2025-11-16T00:00	7640	375	-36.3	-48.8	270	31	
2025-11-16T00:00	7660	374	-36.5	-48.8	269	30	
2025-11-16T00:00	7680	373	-36.7	-48.4	269	30	
2025-11-16T00:00	7700	372	-36.8	-48.1	269	30	
2025-11-16T00:00	7720	371	-36.9	-47.2	269	30	
2025-11-16T00:00	7740	370	-36.9	-45.8	268	30	
2025-11-16T00:00	7760	369	-37.1	-46.3	268	30	
2025-11-16T00:00	7780	368	-37.3	-46.3	268	31	
2025-11-16T00:00	7800	367	-37.5	-46.2	267	31	
2025-11-16T00:00	7820	366	-37.7	-46.3	266	31	
2025-11-16T00:00	7840	365	-37.9	-46.3	265	31	
2025-11-16T00:00	7860	364	-38.1	-46.4	264	31	
2025-11-16T00:00	7880	363	-38.3	-46.6	264	32	
2025-11-16T00:00	7900	362	-38.5	-46.7	263	32	
2025-11-16T00:00	7920	361	-38.7	-46.3	262	32	
2025-11-16T00:00	7940	359	-38.9	-46.4	262	32	
2025-11-16T00:00	7960	358	-39.1	-45.6	262	33	
2025-11-16T00:00	7980	357	-39.2	-45.3	261	33	
2025-11-16T00:00	8000	356	-39.4	-44.4	261	33	
2025-11-16T00:00	8020	355	-39.5	-43.9	261	33	
2025-11-16T00:00	8040	354	-39.7	-44.2	261	33	
2025-11-16T00:00	8060	353	-39.9	-44.3	260	34	
2025-11-16T00:00	8080	352	-40.1	-44.7	259	34	
2025-11-16T00:00	8100	351	-40.3	-44.0	259	34	
2025-11-16T00:00	8120	350	-40.5	-43.9	258	34	
2025-11-16T00:00	8140	349	-40.6	-44.1	258	34	
2025-11-16T00:00	8160	348	-40.8	-44.0	258	34	
2025-11-16T00:00	8180	347	-41.0	-44.1	258	33	
2025-11-16T00:00	8200	346	-41.2	-44.1	258	33	
2025-11-16T00:00	8220	345	-41.3	-44.1	258	33	
2025-11-16T00:00	8240	344	-41.5	-44.2	258	33	
2025-11-16T00:00	8260	343	-41.7	-44.5	258	33	
2025-11-16T00:00	8280	342	-41.9	-44.9	258	33	
2025-11-16T00:00	8300	341	-42.1	-45.2	259	33	
2025-11-16T00:00	8320	340	-42.2	-45.5	259	34	
2025-11-16T00:00	8340	339	-42.3	-46.1	260	34	
2025-11-16T00:00	8360	338	-42.4	-46.8	261	34	
2025-11-16T00:00	8380	337	-42.6	-47.0	262	35	
2025-11-16T00:00	8400	336	-42.7	-47.2	262	35	
2025-11-16T00:00	8420	335	-42.8	-47.4	263	35	
2025-11-16T00:00	8440	334	-43.0	-47.2	264	36	
2025-11-16T00:00	8460	333	-43.2	-47.1	264	37	
2025-11-16T00:00	8480	332	-43.4	-47.5	265	37	
2025-11-16T00:00	8500	331	-43.4	-48.1	265	38	
2025-11-16T00:00	8520	330	-43.6	-48.4	265	38	
2025-11-16T00:00	8540	329	-43.7	-48.8	265	39	
2025-11-16T00:00	8560	328	-43.8	-49.1	265	39	
2025-11-16T00:00	8580	327	-43.9	-49.0	265	39	
2025-11-16T00:00	8600	326	-44.1	-48.9	265	39	
2025-11-16T00:00	8620	325	-44.2	-49.3	264	39	
2025-11-16T00:00	8640	324	-44.3	-49.7	264	40	
2025-11-16T00:00	8660	323	-44.4	-49.8	264	40	
2025-11-16T00:00	8680	322	-44.6	-49.6	264	40	
2025-11-16T00:00	8700	321	-44.6	-49.6	264	41	
2025-11-16T00:00	8720	320	-44.8	-49.6	263	41	
2025-11-16T00:00	8740	319	-45.0	-49.3	263	42	
2025-11-16T00:00	8760	318	-45.1	-49.1	263	42	
2025-11-16T00:00	8780	317	-45.2	-49.0	263	43	
2025-11-16T00:00	8800	316	-45.4	-48.9	262	43	
2025-11-16T00:00	8820	316	-45.5	-49.0	262	43	
2025-11-16T00:00	8840	315	-45.7	-49.2	262	43	
2025-11-16T00:00	8860	314	-45.9	-49.4	261	43	
2025-11-16T00:00	8880	313	-46.0	-49.6	260	42	
2025-11-16T00:00	8900	312	-46.1	-49.6	260	42	
2025-11-16T00:00	8920	311	-46.3	-49.8	260	42	
2025-11-16T00:00	8940	310	-46.4	-50.4	260	42	
2025-11-16T00:00	8960	309	-46.6	-50.4	260	42	
2025-11-16T00:00	8980	308	-46.7	-50.3	260	42	
2025-11-16T00:00	9000	307	-46.9	-50.2	260	42	
2025-11-16T00:00	9020	306	-47.1	-50.2	260	42	
2025-11-16T00:00	9040	305	-47.3	-50.3	260	43	
2025-11-16T00:00	9060	304	-47.5	-50.6	261	43	
2025-11-16T00:00	9080	303	-47.7	-50.9	261	43	
2025-11-16T00:00	9100	303	-47.8	-51.5	262	43	
2025-11-16T00:00	9120	302	-47.9	-52.4	262	43	
2025-11-16T00:00	9140	301	-47.9	-53.2	263	43	
2025-11-16T00:00	9160	300	-47.9	-53.7	263	43	
2025-11-16T00:00	9180	299	-48.0	-53.7	263	43	
2025-11-16T00:00	9200	298	-48.2	-53.5	263	42	
2025-11-16T00:00	9220	297	-48.4	-53.3	264	42	
2025-11-16T00:00	9240	296	-48.6	-53.3	264	42	
2025-11-16T00:00	9260	295	-48.8	-53.3	264	42	
2025-11-16T00:00	9280	294	-49.0	-53.4	264	42	
2025-11-16T00:00	9300	294	-49.2	-53.7	264	42	
2025-11-16T00:00	9320	293	-49.3	-54.2	264	42	
2025-11-16T00:00	9340	292	-49.5	-54.8	265	42	
2025-11-16T00:00	9360	291	-49.6	-55.2	265	42	
2025-11-16T00:00	9380	290	-49.7	-55.4	265	43	
2025-11-16T00:00	9400	289	-49.8	-55.6	265	43	
2025-11-16T00:00	9420	288	-50.0	-55.7	265	43	
2025-11-16T00:00	9440	287	-50.1	-55.7	265	43	
2025-11-16T00:00	9460	286	-50.3	-55.8	264	43	
2025-11-16T00:00	9480	286	-50.5	-55.8	264	44	
2025-11-16T00:00	9500	285	-50.7	-55.8	264	44	
2025-11-16T00:00	9520	284	-50.9	-55.8	264	44	
2025-11-16T00:00	9540	283	-51.0	-55.9	264	44	
2025-11-16T00:00	9560	282	-51.2	-56.0	264	44	
2025-11-16T00:00	9580	281	-51.4	-56.0	264	45	
2025-11-16T00:00	9600	280	-51.5	-56.2	263	45	
2025-11-16T00:00	9620	279	-51.5	-56.6	263	46	
2025-11-16T00:00	9640	278	-51.6	-56.8	263	46	
2025-11-16T00:00	9660	278	-51.7	-56.7	263	47	
2025-11-16T00:00	9680	277	-51.9	-56.4	263	47	
2025-11-16T00:00	9700	276	-52.0	-56.0	263	47	
2025-11-16T00:00	9720	275	-52.2	-55.7	264	47	
2025-11-16T00:00	9740	274	-52.3	-55.6	264	47	
2025-11-16T00:00	9760	273	-52.5	-55.7	264	47	
2025-11-16T00:00	9780	273	-52.6	-56.2	264	47	
2025-11-16T00:00	9800	272	-52.7	-56.7	264	47	
2025-11-16T00:00	9820	271	-52.9	-57.0	264	47	
2025-11-16T00:00	9840	270	-53.1	-57.2	264	47	
2025-11-16T00:00	9860	269	-53.2	-57.1	263	47	
2025-11-16T00:00	9880	268	-53.4	-56.6	263	47	
2025-11-16T00:00	9900	268	-53.6	-56.2	263	47	
2025-11-16T00:00	9920	267	-53.8	-56.2	263	47	
2025-11-16T00:00	9940	266	-53.9	-56.8	263	47	
2025-11-16T00:00	9960	265	-54.1	-57.6	263	47	
2025-11-16T00:00	9980	264	-54.2	-58.3	263	47	
2025-11-16T00:00	10000	263	-54.4	-58.9	263	47	
2025-11-16T00:00	10018	263	-54.5	-59.2	264	47	
2025-11-16T00:00	10050	261	-54.7	-59.5	264	46	
2025-11-16T00:00	10100	259	-55.2	-59.9	264	46	
2025-11-16T00:00	10150	257	-55.5	-60.2	265	46	
2025-11-16T00:00	10200	255	-56.0	-60.2	265	46	
2025-11-16T00:00	10250	253	-56.4	-60.3	265	46	
2025-11-16T00:00	10300	251	-56.8	-60.8	265	46	
2025-11-16T00:00	10350	249	-57.3	-60.9	265	46	
2025-11-16T00:00	10400	247	-57.7	-60.8	266	46	
2025-11-16T00:00	10450	245	-57.9	-62.0	267	46	
2025-11-16T00:00	10500	244	-57.9	-63.3	268	47	
2025-11-16T00:00	10550	242	-58.2	-64.0	269	48	
2025-11-16T00:00	10600	240	-58.2	-64.4	269	49	
2025-11-16T00:00	10650	238	-58.5	-64.2	269	49	
2025-11-16T00:00	10700	236	-59.1	-63.9	270	49	
2025-11-16T00:00	10750	234	-59.5	-63.8	270	48	
2025-11-16T00:00	10800	232	-60.0	-64.1	269	48	
2025-11-16T00:00	10850	230	-60.2	-64.8	269	47	
2025-11-16T00:00	10900	228	-60.5	-65.5	269	46	
2025-11-16T00:00	10950	227	-60.9	-66.2	269	45	
2025-11-16T00:00	11000	225	-61.2	-67.1	268	43	
2025-11-16T00:00	11050	223	-61.4	-67.7	268	41	
2025-11-16T00:00	11100	221	-60.9	-68.8	269	37	
2025-11-16T00:00	11150	219	-60.2	-70.2	270	34	
2025-11-16T00:00	11200	218	-59.5	-72.8	271	31	
2025-11-16T00:00	11250	216	-59.4	-74.9	270	29	
2025-11-16T00:00	11300	214	-59.3	-76.1	268	28	
2025-11-16T00:00	11350	213	-59.5	-76.2	266	26	
2025-11-16T00:00	11400	211	-59.6	-76.5	263	25	
2025-11-16T00:00	11450	209	-59.2	-77.0	260	23	
2025-11-16T00:00	11500	207	-58.9	-77.3	259	22	
2025-11-16T00:00	11550	206	-59.0	-77.2	256	21	
2025-11-16T00:00	11600	204	-59.4	-77.2	253	22	
2025-11-16T00:00	11650	203	-59.5	-77.2	252	22	
2025-11-16T00:00	11700	201	-59.0	-77.1	254	22	
2025-11-16T00:00	11750	199	-59.0	-77.3	255	22	
2025-11-16T00:00	11800	198	-58.8	-77.7	255	22	
2025-11-16T00:00	11850	196	-58.6	-78.2	254	23	
2025-11-16T00:00	11900	195	-58.8	-78.5	252	24	
2025-11-16T00:00	11950	193	-59.1	-78.7	251	24	
2025-11-16T00:00	12000	192	-59.1	-79.5	252	25	
2025-11-16T00:00	12050	190	-57.8	-80.3	253	25	
2025-11-16T00:00	12100	189	-57.2	-80.8	252	25	
2025-11-16T00:00	12150	187	-57.2	-81.0	252	23	
2025-11-16T00:00	12200	185	-56.8	-81.0	254	22	
2025-11-16T00:00	12250	184	-56.9	-80.8	255	21	
2025-11-16T00:00	12300	183	-57.3	-80.8	256	21	
2025-11-16T00:00	12350	181	-57.7	-80.9	256	21	
2025-11-16T00:00	12400	180	-58.1	-80.9	256	20	
2025-11-16T00:00	12450	178	-58.6	-81.0	256	19	
2025-11-16T00:00	12500	177	-59.0	-81.1	256	20	
2025-11-16T00:00	12550	176	-59.3	-81.2	256	20	
2025-11-16T00:00	12600	174	-59.7	-81.3	253	19	
2025-11-16T00:00	12650	173	-60.0	-81.4	250	19	
2025-11-16T00:00	12700	171	-60.1	-81.5	245	18	
2025-11-16T00:00	12750	170	-60.2	-81.7	241	19	
2025-11-16T00:00	12800	169	-60.2	-81.9	241	19	
2025-11-16T00:00	12850	167	-59.6	-81.9	244	20	
2025-11-16T00:00	12900	166	-59.1	-81.9	247	19	
2025-11-16T00:00	12950	165	-59.2	-82.1	249	18	
2025-11-16T00:00	13000	163	-59.4	-82.0	249	18	
2025-11-16T00:00	13050	162	-59.7	-82.1	249	17	
2025-11-16T00:00	13100	161	-59.6	-82.2	251	17	
2025-11-16T00:00	13150	159	-59.1	-82.2	250	16	
2025-11-16T00:00	13200	158	-58.6	-82.1	248	16	
2025-11-16T00:00	13250	157	-59.0	-82.2	247	16	
2025-11-16T00:00	13300	156	-59.5	-82.2	246	16	
2025-11-16T00:00	13350	154	-59.9	-82.3	244	16	
2025-11-16T00:00	13400	153	-60.3	-82.5	243	17	
2025-11-16T00:00	13450	152	-60.3	-82.4	242	17	
2025-11-16T00:00	13500	151	-60.4	-82.5	240	17	
2025-11-16T00:00	13550	150	-60.5	-82.7	237	17	
2025-11-16T00:00	13600	148	-60.4	-82.8	236	18	
2025-11-16T00:00	13650	147	-60.2	-82.8	236	19	
2025-11-16T00:00	13700	146	-60.2	-82.9	239	21	
2025-11-16T00:00	13750	145	-59.6	-82.9	243	22	
2025-11-16T00:00	13800	144	-59.1	-83.0	247	23	
2025-11-16T00:00	13850	143	-58.2	-82.9	250	23	
2025-11-16T00:00	13900	141	-58.0	-83.0	252	23	
2025-11-16T00:00	13950	140	-57.0	-82.9	253	21	
2025-11-16T00:00	14000	139	-56.2	-82.9	254	19	
2025-11-16T00:00	14050	138	-55.9	-82.7	259	17	
2025-11-16T00:00	14100	137	-55.5	-82.4	265	17	
2025-11-16T00:00	14150	136	-55.6	-82.3	268	17	
2025-11-16T00:00	14200	135	-55.9	-82.4	271	17	
2025-11-16T00:00	14250	134	-56.0	-82.3	272	17	
2025-11-16T00:00	14300	133	-56.0	-82.3	272	16	
2025-11-16T00:00	14350	132	-56.2	-82.5	272	15	
2025-11-16T00:00	14400	131	-56.3	-82.4	273	15	
2025-11-16T00:00	14450	130	-56.6	-82.5	272	14	
2025-11-16T00:00	14500	129	-57.0	-82.6	269	13	
2025-11-16T00:00	14550	128	-57.5	-82.7	266	12	
2025-11-16T00:00	14600	127	-57.7	-82.9	262	11	
2025-11-16T00:00	14650	126	-57.7	-82.9	258	10	
2025-11-16T00:00	14700	125	-58.0	-82.9	254	9	
2025-11-16T00:00	14750	124	-58.3	-83.0	251	9	
2025-11-16T00:00	14800	123	-58.6	-83.2	246	8	
2025-11-16T00:00	14850	122	-58.7	-83.3	238	8	
2025-11-16T00:00	14900	121	-58.6	-83.3	231	8	
2025-11-16T00:00	14950	120	-58.7	-83.4	228	8	
2025-11-16T00:00	15000	119	-58.9	-83.4	227	9	
2025-11-16T00:00	15050	118	-59.3	-83.6	228	9	
2025-11-16T00:00	15100	117	-59.5	-83.6	233	10	
2025-11-16T00:00	15150	116	-59.7	-83.7	236	10	
2025-11-16T00:00	15200	115	-59.9	-83.8	235	11	
2025-11-16T00:00	15250	114	-60.0	-84.0	232	11	
2025-11-16T00:00	15300	113	-59.5	-83.8	230	11	
2025-11-16T00:00	15350	112	-59.8	-84.0	231	11	
2025-11-16T00:00	15400	112	-59.9	-84.0	231	11	
2025-11-16T00:00	15450	111	-60.1	-84.0	229	11	
2025-11-16T00:00	15500	110	-60.3	-84.1	227	11	
2025-11-16T00:00	15550	109	-60.4	-84.2	229	13	
2025-11-16T00:00	15600	108	-60.1	-84.1	232	14	
2025-11-16T00:00	15650	107	-60.3	-84.2	234	14	
2025-11-16T00:00	15700	106	-60.7	-84.3	235	15	
2025-11-16T00:00	15750	105	-61.0	-84.4	235	15	
2025-11-16T00:00	15800	105	-60.9	-84.3	234	14	
2025-11-16T00:00	15850	104	-61.1	-84.4	234	14	
2025-11-16T00:00	15900	103	-61.2	-84.7	235	14	
2025-11-16T00:00	15950	102	-60.5	-84.6	234	14	
2025-11-16T00:00	16000	101	-59.7	-84.5	231	15	
2025-11-16T00:00	16050	100	-59.7	-84.4	230	15	
2025-11-16T00:00	16100	100	-60.1	-84.4	231	16	
2025-11-16T00:00	16150	99	-60.5	-84.4	232	17	
2025-11-16T00:00	16200	98	-60.8	-84.4	232	18	
2025-11-16T00:00	16250	97	-61.1	-84.5	232	19	
2025-11-16T00:00	16300	97	-61.4	-84.8	233	20	
2025-11-16T00:00	16350	96	-60.9	-84.8	235	20	
2025-11-16T00:00	16400	95	-60.7	-84.8	239	19	
2025-11-16T00:00	16450	94	-60.6	-84.8	243	19	
2025-11-16T00:00	16500	93	-60.9	-84.9	245	19	
2025-11-16T00:00	16550	93	-61.1	-84.9	247	20	
2025-11-16T00:00	16600	92	-61.3	-85.1	247	20	
2025-11-16T00:00	16650	91	-61.1	-85.0	247	20	
2025-11-16T00:00	16700	90	-61.3	-85.1	249	20	
2025-11-16T00:00	16750	90	-61.6	-85.3	252	20	
2025-11-16T00:00	16800	89	-61.6	-85.4	255	20	
2025-11-16T00:00	16850	88	-61.5	-85.5	255	20	
2025-11-16T00:00	16900	88	-61.0	-85.2	253	19	
2025-11-16T00:00	16950	87	-61.3	-85.3	252	18	
2025-11-16T00:00	17000	86	-61.8	-85.4	251	17	
2025-11-16T00:00	17050	85	-62.3	-85.4	249	16	
2025-11-16T00:00	17100	85	-62.7	-85.5	247	16	
2025-11-16T00:00	17150	84	-63.2	-85.8	248	16	
2025-11-16T00:00	17200	83	-63.0	-85.8	252	16	
2025-11-16T00:00	17250	83	-63.1	-85.9	255	17	
2025-11-16T00:00	17300	82	-63.4	-86.1	257	18	
2025-11-16T00:00	17350	81	-63.6	-86.3	259	19	
2025-11-16T00:00	17400	81	-63.3	-86.2	259	18	
2025-11-16T00:00	17450	80	-63.3	-86.4	258	17	
2025-11-16T00:00	17500	79	-63.3	-86.4	258	16	
2025-11-16T00:00	17550	79	-63.4	-86.4	261	16	
2025-11-16T00:00	17600	78	-63.3	-86.3	263	16	
2025-11-16T00:00	17650	78	-63.6	-86.5	264	16	
2025-11-16T00:00	17700	77	-63.6	-86.6	264	18	
2025-11-16T00:00	17750	76	-63.3	-86.7	266	19	
2025-11-16T00:00	17800	76	-63.0	-86.6	269	20	
2025-11-16T00:00	17850	75	-63.0	-86.9	271	20	
2025-11-16T00:00	17900	74	-62.5	-86.6	273	20	
2025-11-16T00:00	17950	74	-62.5	-86.7	275	19	
2025-11-16T00:00	18000	73	-62.6	-86.7	277	18	
2025-11-16T00:00	18050	73	-62.8	-86.7	279	16	
2025-11-16T00:00	18100	72	-63.1	-86.7	279	15	
2025-11-16T00:00	18150	71	-63.0	-86.6	280	14	
2025-11-16T00:00	18200	71	-63.2	-86.6	280	13	
2025-11-16T00:00	18250	70	-63.4	-86.7	280	13	
2025-11-16T00:00	18300	70	-63.7	-86.8	279	14	
2025-11-16T00:00	18350	69	-63.7	-86.7	277	16	
2025-11-16T00:00	18400	69	-64.0	-86.8	276	17	
2025-11-16T00:00	18450	68	-64.4	-87.0	276	18	
2025-11-16T00:00	18500	68	-64.6	-87.3	277	19	
2025-11-16T00:00	18550	67	-64.5	-87.4	280	19	
2025-11-16T00:00	18600	66	-63.9	-87.3	282	18	
2025-11-16T00:00	18650	66	-63.4	-87.2	284	17	
2025-11-16T00:00	18700	65	-63.6	-87.4	284	16	
2025-11-16T00:00	18750	65	-63.3	-87.1	281	15	
2025-11-16T00:00	18800	64	-63.2	-87.0	275	14	
2025-11-16T00:00	18850	64	-63.4	-87.0	268	14	
2025-11-16T00:00	18900	63	-63.7	-87.2	263	14	
2025-11-16T00:00	18950	63	-63.4	-87.1	263	14	
2025-11-16T00:00	19000	62	-63.1	-87.1	268	15	
2025-11-16T00:00	19050	62	-63.1	-87.3	272	16	
2025-11-16T00:00	19100	61	-62.4	-87.0	274	16	
2025-11-16T00:00	19150	61	-62.1	-86.9	275	15	
2025-11-16T00:00	19200	60	-62.2	-86.9	275	14	
2025-11-16T00:00	19250	60	-62.2	-86.7	274	13	
2025-11-16T00:00	19300	59	-62.3	-86.7	271	12	
2025-11-16T00:00	19350	59	-62.6	-86.8	268	12	
2025-11-16T00:00	19400	58	-63.0	-86.8	267	12	
2025-11-16T00:00	19450	58	-63.1	-86.9	269	13	
2025-11-16T00:00	19500	57	-63.4	-86.9	269	13	
2025-11-16T00:00	19550	57	-63.7	-87.1	269	15	
2025-11-16T00:00	19600	56	-64.0	-87.2	267	16	
2025-11-16T00:00	19650	56	-64.1	-87.2	264	17	
2025-11-16T00:00	19700	56	-64.2	-87.4	261	18	
2025-11-16T00:00	19750	55	-64.3	-87.4	259	17	
2025-11-16T00:00	19800	55	-64.4	-87.3	259	17	
2025-11-16T00:00	19850	54	-64.8	-87.5	261	16	
2025-11-16T00:00	19900	54	-64.9	-87.5	262	15	
2025-11-16T00:00	19950	53	-65.1	-87.7	260	15	
2025-11-16T00:00	20000	53	-64.9	-87.7	258	16	
2025-11-16T00:00	20050	52	-64.9		258	17	
2025-11-16T00:00	20100	52	-64.9		261	19	
2025-11-16T00:00	20150	52	-64.8		264	19	
2025-11-16T00:00	20200	51	-65.0		267	20	
2025-11-16T00:00	20250	51	-65.0		270	20	
2025-11-16T00:00	20300	50	-65.0		271	20	
2025-11-16T00:00	20350	50	-64.9		272	20	
2025-11-16T00:00	20400	50	-65.2		273	19	
2025-11-16T00:00	20450	49	-65.5		275	19	
2025-11-16T00:00	20500	49	-65.5		275	19	
2025-11-16T00:00	20550	48	-65.7		276	19	
2025-11-16T00:00	20600	48	-65.7		277	19	
2025-11-16T00:00	20650	48	-65.9		277	20	
2025-11-16T00:00	20700	47	-66.0		278	20	
2025-11-16T00:00	20750	47	-66.0		281	20	
2025-11-16T00:00	20800	46	-65.8		283	19	
2025-11-16T00:00	20850	46	-65.8		284	19	
2025-11-16T00:00	20900	46	-66.0		282	19	
2025-11-16T00:00	20950	45	-65.8		280	20	
2025-11-16T00:00	21000	45	-65.2		281	21	
2025-11-16T00:00	21050	44	-65.1		281	22	
2025-11-16T00:00	21100	44	-64.6		281	23	
2025-11-16T00:00	21150	44	-64.2		282	22	
2025-11-16T00:00	21200	43	-64.0		285	21	
2025-11-16T00:00	21250	43	-63.6		288	20	
2025-11-16T00:00	21300	43	-63.8		290	18	
2025-11-16T00:00	21350	42	-64.0		292	17	
2025-11-16T00:00	21400	42	-64.2		292	17	
2025-11-16T00:00	21450	42	-64.0		291	16	
2025-11-16T00:00	21500	41	-64.2		289	15	
2025-11-16T00:00	21550	41	-64.4		287	15	
2025-11-16T00:00	21600	41	-64.5		284	15	
2025-11-16T00:00	21650	40	-64.5		281	15	
2025-11-16T00:00	21700	40	-64.4		280	16	
2025-11-16T00:00	21750	40	-64.6		280	16	
2025-11-16T00:00	21800	39	-65.0		281	16	
2025-11-16T00:00	21850	39	-65.2		280	15	
2025-11-16T00:00	21900	39	-65.5		278	15	
2025-11-16T00:00	21950	38	-65.8		275	15	
2025-11-16T00:00	22000	38	-65.9		270	14	
2025-11-16T00:00	22050	38	-65.5		266	13	
2025-11-16T00:00	22100	37	-65.4		261	12	
2025-11-16T00:00	22150	37	-65.4		257	12	
2025-11-16T00:00	22200	37	-65.3		255	12	
2025-11-16T00:00	22250	37	-65.3		257	13	
2025-11-16T00:00	22300	36	-65.3		259	14	
2025-11-16T00:00	22350	36	-65.3		258	15	
2025-11-16T00:00	22400	36	-65.2		256	16	
2025-11-16T00:00	22450	35	-65.4		256	17	
2025-11-16T00:00	22500	35	-65.7		259	17	
2025-11-16T00:00	22550	35	-65.2		263	17	
2025-11-16T00:00	22600	34	-65.1		268	16	
2025-11-16T00:00	22650	34	-65.4		272	16	
2025-11-16T00:00	22700	34	-65.6		277	15	
2025-11-16T00:00	22750	34	-65.6		281	15	
2025-11-16T00:00	22800	33	-65.7		284	14	
2025-11-16T00:00	22850	33	-65.9		286	13	
2025-11-16T00:00	22900	33	-66.1		288	12	
2025-11-16T00:00	22950	33	-66.2		289	11	
2025-11-16T00:00	23000	32	-66.6		290	11	
2025-11-16T00:00	23050	32	-66.9		289	11	
2025-11-16T00:00	23100	32	-67.2		285	12	
2025-11-16T00:00	23150	32	-66.7		279	13	
2025-11-16T00:00	23200	31	-66.5		269	13	
2025-11-16T00:00	23250	31	-66.8		260	14	
2025-11-16T00:00	23300	31	-66.5		253	15	
2025-11-16T00:00	23350	30	-66.0		249	17	
2025-11-16T00:00	23400	30	-65.5		248	18	
2025-11-16T00:00	23450	30	-65.1		249	19	
2025-11-16T00:00	23500	30	-65.2		251	19	
2025-11-16T00:00	23550	30	-65.5		255	19	
2025-11-16T00:00	23600	29	-65.8		257	19	
2025-11-16T00:00	23650	29	-65.8		260	19	
2025-11-16T00:00	23700	29	-65.6		261	19	
2025-11-16T00:00	23750	29	-65.2		263	20	
2025-11-16T00:00	23800	28	-65.0		265	20	
2025-11-16T00:00	23850	28	-65.4		266	21	
2025-11-16T00:00	23900	28	-65.6		267	20	
2025-11-16T00:00	23950	28	-65.7		268	20	
2025-11-16T00:00	24000	27	-65.5		268	19	
2025-11-16T00:00	24050	27	-64.7		266	19	
2025-11-16T00:00	24100	27	-64.1		263	19	
2025-11-16T00:00	24150	27	-64.2		259	19	
2025-11-16T00:00	24200	27	-64.5		257	20	
2025-11-16T00:00	24250	26	-64.8		259	20	
2025-11-16T00:00	24300	26	-64.7		262	20	
2025-11-16T00:00	24350	26	-64.6		265	19	
2025-11-16T00:00	24400	26	-64.9		267	19	
2025-11-16T00:00	24450	25	-65.1		270	18	
2025-11-16T00:00	24500	25	-65.1		273	18	
2025-11-16T00:00	24550	25	-65.1		276	18	
2025-11-16T00:00	24600	25	-65.2		278	18	
2025-11-16T00:00	24650	25	-64.8		278	18	
2025-11-16T00:00	24700	24	-64.7		277	19	
2025-11-16T00:00	24750	24	-64.7		275	19	
2025-11-16T00:00	24800	24	-65.0		273	20	
2025-11-16T00:00	24850	24	-65.3		273	21	
2025-11-16T00:00	24900	24	-65.5		274	22	
2025-11-16T00:00	24950	23	-65.4		277	22	
2025-11-16T00:00	25000	23	-65.4		280	23	
2025-11-16T00:00	25050	23	-65.6		282	24	
2025-11-16T00:00	25100	23	-65.5		284	24	
2025-11-16T00:00	25150	23	-65.5		285	24	
2025-11-16T00:00	25200	22	-65.8		286	23	
2025-11-16T00:00	25250	22	-66.1		286	23	
2025-11-16T00:00	25300	22	-66.2		286	22	
2025-11-16T00:00	25350	22	-66.5		284	21	
2025-11-16T00:00	25400	22	-66.7		282	20	
2025-11-16T00:00	25450	22	-66.9		280	19	
2025-11-16T00:00	25500	21	-66.8		280	19	
2025-11-16T00:00	25550	21	-66.4		282	19	
2025-11-16T00:00	25600	21	-66.2		286	19	
2025-11-16T00:00	25650	21	-65.9		290	19	
2025-11-16T00:00	25700	21	-65.7		291	18	
2025-11-16T00:00	25750	21	-65.8		288	17	
2025-11-16T00:00	25800	20	-65.9		287	17	
2025-11-16T00:00	25850	20	-65.7		287	16	
2025-11-16T00:00	25900	20	-65.4		289	16	
2025-11-16T00:00	25950	20	-65.7		290	16	
2025-11-16T00:00	26000	20	-66.0		289	16	
2025-11-16T00:00	26050	20	-65.6		286	17	
2025-11-16T00:00	26100	19	-65.4		282	18	
2025-11-16T00:00	26150	19	-65.2		278	19	
2025-11-16T00:00	26200	19	-65.1		277	20	
2025-11-16T00:00	26250	19	-64.9		277	22	
2025-11-16T00:00	26300	19	-64.9		277	22	
2025-11-16T00:00	26350	19	-65.0		274	22	
2025-11-16T00:00	26400	18	-65.0		270	21	
2025-11-16T00:00	26450	18	-65.0		264	20	
2025-11-16T00:00	26500	18	-65.0		260	20	
2025-11-16T00:00	26550	18	-64.5		260	20	
2025-11-16T00:00	26600	18	-64.2		263	20	
2025-11-16T00:00	26650	18	-64.3		267	21	
2025-11-16T00:00	26700	18	-64.5		270	21	
2025-11-16T00:00	26750	17	-64.7		274	21	
2025-11-16T00:00	26800	17	-65.0		278	20	
2025-11-16T00:00	26850	17	-65.0		282	20	
2025-11-16T00:00	26900	17	-65.1		285	19	
2025-11-16T00:00	26950	17	-65.0		287	19	
2025-11-16T00:00	27000	17	-65.2		288	19	
2025-11-16T00:00	27050	17	-65.5		287	18	
2025-11-16T00:00	27100	16	-65.8		285	18	
2025-11-16T00:00	27150	16	-66.0		283	19	
2025-11-16T00:00	27200	16	-65.5		282	21	
2025-11-16T00:00	27250	16	-65.1		281	22	
2025-11-16T00:00	27300	16	-65.0		279	24	
2025-11-16T00:00	27350	16	-65.0		277	25	
2025-11-16T00:00	27400	16	-64.9		275	25	
2025-11-16T00:00	27450	16	-64.6		274	25	
2025-11-16T00:00	27500	15	-64.6		273	25	
2025-11-16T00:00	27550	15	-64.8		271	25	
2025-11-16T00:00	27600	15	-65.0		267	25	
2025-11-16T00:00	27650	15	-65.1		263	26	
2025-11-16T00:00	27700	15	-65.0		261	27	
2025-11-16T00:00	27750	15	-64.6		260	27	
2025-11-16T00:00	27800	15	-64.4		260	28	
2025-11-16T00:00	27850	15	-64.1		258	28	
2025-11-16T00:00	27900	14	-64.1		255	29	
2025-11-16T00:00	27950	14	-64.2		252	30	
2025-11-16T00:00	28000	14	-64.2		252	31	
2025-11-16T00:00	28050	14	-64.3		252	31	
2025-11-16T00:00	28100	14	-64.6		255	31	
2025-11-16T00:00	28150	14	-64.7		258	30	
2025-11-16T00:00	28200	14	-64.6		262	29	
2025-11-16T00:00	28250	14	-64.8		265	28	
2025-11-16T00:00	28300	14	-64.9		267	28	
2025-11-16T00:00	28350	13	-64.9		268	29	
2025-11-16T00:00	28400	13	-64.7		268	30	
2025-11-16T00:00	28450	13	-65.0		267	31	
2025-11-16T00:00	28500	13	-65.4		268	31	
2025-11-16T00:00	28550	13	-65.6		268	32	
2025-11-16T00:00	28600	13	-65.4		269	32	
2025-11-16T00:00	28650	13	-64.6		269	31	
2025-11-16T00:00	28700	13	-64.4		270	31	
2025-11-16T00:00	28750	13	-64.6		271	31	
2025-11-16T00:00	28800	12	-64.7		272	32	
2025-11-16T00:00	28850	12	-64.5		275	33	
2025-11-16T00:00	28900	12	-64.7		276	34	
2025-11-16T00:00	28950	12	-64.9		277	34	
2025-11-16T00:00	29000	12	-64.7		277	33	
2025-11-16T00:00	29050	12	-64.3		275	32	
2025-11-16T00:00	29100	12	-63.9		272	31	
2025-11-16T00:00	29150	12	-63.9		269	31	
2025-11-16T00:00	29200	12	-63.8		267	31	
2025-11-16T00:00	29250	12	-64.1		265	31	
2025-11-16T00:00	29300	11	-64.1		262	33	
2025-11-16T00:00	29350	11	-63.8		261	34	
2025-11-16T00:00	29400	11	-64.0		259	36	
2025-11-16T00:00	29450	11	-64.2		258	38	
2025-11-16T00:00	29500	11	-63.5		258	40	
2025-11-16T00:00	29550	11	-63.2		258	40	
2025-11-16T00:00	29600	11	-62.6		258	38	
2025-11-16T00:00	29650	11	-62.6		260	36	
2025-11-16T00:00	29700	11	-62.6		262	34	
2025-11-16T00:00	29750	11	-62.7		264	32	
2025-11-16T00:00	29800	11	-62.8		267	31	
2025-11-16T00:00	29850	10	-62.7		269	31	
2025-11-16T00:00	29900	10	-62.2		270	32	
2025-11-16T00:00	29950	10	-61.6		268	34	
2025-11-16T00:00	30000	10	-61.3		266	35	
2025-11-16T00:00	30050	10	-61.4		265	37	
2025-11-16T00:00	30100	10	-61.5		265	38	
2025-11-16T00:00	30150	10	-61.4		266	40	
2025-11-16T00:00	30200	10	-61.4		267	41	
2025-11-16T00:00	30250	10	-61.5		270	42	
2025-11-16T00:00	30300	10	-61.6		272	42	
2025-11-16T00:00	30350	10	-61.8		273	42	
2025-11-16T00:00	30400	10	-61.8		274	42	
2025-11-16T00:00	30450	10	-61.8		273	42	
2025-11-16T00:00	30500	9	-61.9		273	42	
2025-11-16T00:00	30550	9	-61.9		273	43	
2025-11-16T00:00	30600	9	-61.7		274	44	
2025-11-16T00:00	30650	9	-61.5		275	45	
2025-11-16T00:00	30700	9	-61.2		276	46	
2025-11-16T00:00	30750	9	-61.1		278	47	
2025-11-16T00:00	30800	9	-61.0		279	46	
2025-11-16T00:00	30850	9	-61.2		281	45	
2025-11-16T00:00	30900	9	-61.3		282	44	
2025-11-16T00:00	30950	9	-60.8		282	42	
2025-11-16T00:00	31000	9	-60.5		280	40	
2025-11-16T00:00	31050	9	-60.5		278	39	
2025-11-16T00:00	31100	9	-60.2		275	38	
2025-11-16T00:00	31150	9	-59.9		271	37	
2025-11-16T00:00	31200	8	-59.0		269	36	
2025-11-16T00:00	31250	8	-58.4		269	36	
2025-11-16T00:00	31300	8	-58.6		271	36	
2025-11-16T00:00	31350	8	-58.5		273	36	
2025-11-16T00:00	31400	8	-58.4		272	36	
2025-11-16T00:00	31450	8	-58.6		270	37	
2025-11-16T00:00	31500	8	-58.3		267	39	
2025-11-16T00:00	31550	8	-58.0		265	40	
2025-11-16T00:00	31600	8	-57.7		264	42	
2025-11-16T00:00	31650	8	-57.2		262	44	
2025-11-16T00:00	31700	8	-56.7		261	46	
2025-11-16T00:00	31750	8	-56.4		261	47	
2025-11-16T00:00	31800	8	-56.1		261	47	
2025-11-16T00:00	31850	8	-56.2		262	47	
2025-11-16T00:00	31900	8	-56.4		263	47	
2025-11-16T00:00	31950	7	-56.5		264	47	
2025-11-16T00:00	32000	7	-56.4		264	47	
2025-11-16T00:00	32050	7	-56.5		263	47	
2025-11-16T00:00	32100	7	-56.5		262	46	
2025-11-16T00:00	32150	7	-56.3		261	46	
2025-11-16T00:00	32200	7	-56.3		261	46	
2025-11-16T00:00	32250	7	-56.4		261	45	
2025-11-16T00:00	32300	7	-56.4		262	45	
2025-11-16T00:00	32350	7	-56.6		262	45	
2025-11-16T00:00	32400	7	-56.8		263	45	
2025-11-16T00:00	32450	7	-56.8		263	46	
2025-11-16T00:00	32500	7	-56.8		263	47	
2025-11-16T00:00	32550	7	-56.8		263	48	
2025-11-16T00:00	32600	7	-56.6		263	49	
2025-11-16T00:00	32650	7	-56.7		262	50	
2025-11-16T00:00	32700	7	-56.8		261	50	
2025-11-16T00:00	32750	7	-56.6		261	51	
2025-11-16T00:00	32800	7	-56.2		261	52	
2025-11-16T00:00	32850	6	-56.1		261	52	
2025-11-16T00:00	32900	6	-56.0		261	52	
2025-11-16T00:00	32950	6	-56.0		260	52	
2025-11-16T00:00	33000	6	-56.0		259	52	
2025-11-16T00:00	33050	6	-56.2		258	51	
2025-11-16T00:00	33100	6	-56.5		257	51	
2025-11-16T00:00	33150	6	-56.8		256	50	
2025-11-16T00:00	33200	6	-56.9		256	50	
2025-11-16T00:00	33250	6	-56.9		256	50	
2025-11-16T00:00	33300	6	-56.9		256	50	
2025-11-16T00:00	33350	6	-56.8		257	51	
2025-11-16T00:00	33400	6	-56.7		257	51	
2025-11-16T00:00	33450	6	-56.3		259	52	
2025-11-16T00:00	33500	6	-56.2		260	52	
2025-11-16T00:00	33550	6	-56.0		262	52	
2025-11-16T00:00	33600	6	-55.8		263	50	
2025-11-16T00:00	33650	6	-55.9		263	49	
2025-11-16T00:00	33700	6	-55.7		263	48	
2025-11-16T00:00	33750	6	-55.7		264	48	
2025-11-16T00:00	33800	6	-55.4		265	49	
2025-11-16T00:00	33850	6	-54.8		265	50	
2025-11-16T00:00	33900	6	-54.6		264	50	
2025-11-16T00:00	33950	5	-54.7		263	50	
2025-11-16T00:00	34000	5	-54.7		263	50	
2025-11-16T00:00	34050	5	-54.8		262	50	
2025-11-16T00:00	34100	5	-54.7		262	51	
2025-11-16T00:00	34150	5	-54.5		262	51	
2025-11-16T00:00	34200	5	-54.2		263	53	
2025-11-16T00:00	34250	5	-53.9		265	54	
2025-11-16T00:00	34300	5	-53.6		266	56	
2025-11-16T00:00	34350	5	-53.5		268	58	
2025-11-16T00:00	34400	5	-53.4		269	59	
2025-11-16T00:00	34450	5	-53.0		270	61	
2025-11-16T00:00	34500	5	-52.3		270	63	
2025-11-16T00:00	34550	5	-51.8		270	64	
2025-11-16T00:00	34600	5	-51.7		270	63	
2025-11-16T00:00	34650	5	-51.4		270	62	
2025-11-16T00:00	34700	5	-51.3		270	60	
2025-11-16T00:00	34750	5	-51.0		271	59	
2025-11-16T00:00	34800	5	-50.8		271	57	
2025-11-16T00:00	34850	5	-50.3		270	55	
2025-11-16T00:00	34900	5	-50.2		270	54	
2025-11-16T00:00	34950	5	-49.7		269	54	
2025-11-16T00:00	35000	5	-48.8		269	54	
2025-11-16T00:00	35050	5	-48.6		267	55	
2025-11-16T00:00	35100	5	-48.5		266	56	
2025-11-16T00:00	35150	5	-48.0		265	58	
2025-11-16T00:00	35200	5	-47.0		265	57	
2025-11-16T00:00	35250	4	-46.2		266	55	
2025-11-16T00:00	35300	4	-46.0		267	54	
2025-11-16T00:00	35350	4	-45.8		267	55	
2025-11-16T00:00	35400	4	-45.4		266	55	
2025-11-16T00:00	35450	4	-45.0		266	57	
2025-11-16T00:00	35500	4	-44.6		266	60	
2025-11-16T00:00	35550	4	-44.2		267	61	
2025-11-16T00:00	35600	4	-43.6		268	62	
2025-11-16T00:00	35650	4	-43.3		268	62	
2025-11-16T00:00	35700	4	-43.4		268	61	
2025-11-16T12:00	491	951	8.8	8.4	147	1	
2025-11-16T12:00	501	949	8.6	8.4	155	1	
2025-11-16T12:00	520	948	8.5	8.2	163	0	
2025-11-16T12:00	540	945	8.4	7.9	163	0	
2025-11-16T12:00	560	943	8.2	7.8	200	0	
2025-11-16T12:00	580	941	8.1	7.7	326	0	
2025-11-16T12:00	600	938	8.2	7.8	325	1	
2025-11-16T12:00	620	936	8.1	7.7	320	1	
2025-11-16T12:00	640	934	8.0	7.6	312	1	
2025-11-16T12:00	660	932	7.8	7.5	301	2	
2025-11-16T12:00	680	929	7.7	7.5	291	2	
2025-11-16T12:00	700	927	7.5	7.4	282	2	
2025-11-16T12:00	720	925	7.4	7.3	278	2	
2025-11-16T12:00	740	923	7.3	7.3	276	2	
2025-11-16T12:00	760	921	7.3	7.2	277	3	
2025-11-16T12:00	780	918	7.3	7.1	280	3	
2025-11-16T12:00	800	916	7.3	7.1	284	3	
2025-11-16T12:00	820	914	7.2	7.0	288	3	
2025-11-16T12:00	840	912	7.2	7.0	294	3	
2025-11-16T12:00	860	910	7.1	7.0	298	3	
2025-11-16T12:00	880	907	7.0	6.9	303	3	
2025-11-16T12:00	900	905	6.9	6.8	309	3	
2025-11-16T12:00	920	903	6.8	6.8	316	3	
2025-11-16T12:00	940	901	6.7	6.7	323	3	
2025-11-16T12:00	960	898	6.6	6.6	330	3	
2025-11-16T12:00	980	896	6.5	6.5	335	3	
2025-11-16T12:00	1000	894	6.4	6.4	336	3	
2025-11-16T12:00	1020	892	6.4	6.3	334	3	
2025-11-16T12:00	1040	890	6.3	6.1	326	3	
2025-11-16T12:00	1060	887	6.2	6.0	313	3	
2025-11-16T12:00	1080	885	6.1	5.8	298	3	
2025-11-16T12:00	1100	883	6.1	5.7	288	3	
2025-11-16T12:00	1120	881	6.0	5.6	280	4	
2025-11-16T12:00	1140	879	5.9	5.6	275	4	
2025-11-16T12:00	1160	877	5.8	5.6	272	4	
2025-11-16T12:00	1180	874	5.6	5.6	266	4	
2025-11-16T12:00	1200	873	5.4	5.4	260	5	
2025-11-16T12:00	1220	870	5.4	5.4	256	6	
2025-11-16T12:00	1240	868	5.4	5.3	254	7	
2025-11-16T12:00	1260	866	5.4	5.2	254	8	
2025-11-16T12:00	1280	864	5.4	5.0	255	8	
2025-11-16T12:00	1300	862	5.5	4.8	254	8	
2025-11-16T12:00	1320	860	5.6	4.7	252	8	
2025-11-16T12:00	1340	858	5.9	4.3	250	8	
2025-11-16T12:00	1360	856	6.2	3.9	248	8	
2025-11-16T12:00	1380	854	6.3	3.8	249	7	
2025-11-16T12:00	1400	851	6.3	3.6	251	7	
2025-11-16T12:00	1420	849	6.2	3.4	251	7	
2025-11-16T12:00	1440	847	6.1	3.4	250	7	
2025-11-16T12:00	1460	845	6.0	3.3	249	7	
2025-11-16T12:00	1480	843	5.9	3.3	247	7	
2025-11-16T12:00	1500	841	5.7	3.2	247	7	
2025-11-16T12:00	1520	839	5.7	3.2	245	7	
2025-11-16T12:00	1540	837	5.6	3.3	244	7	
2025-11-16T12:00	1560	835	5.5	3.4	242	7	
2025-11-16T12:00	1580	833	5.3	3.4	239	8	
2025-11-16T12:00	1600	831	5.2	3.4	234	8	
2025-11-16T12:00	1620	829	5.0	3.3	229	8	
2025-11-16T12:00	1640	827	5.0	3.3	222	8	
2025-11-16T12:00	1660	825	4.9	3.2	216	9	
2025-11-16T12:00	1680	823	4.8	3.0	213	9	
2025-11-16T12:00	1700	821	4.7	2.8	214	9	
2025-11-16T12:00	1720	819	4.6	2.6	216	10	
2025-11-16T12:00	1740	817	4.6	2.4	217	9	
2025-11-16T12:00	1760	815	4.5	2.3	215	9	
2025-11-16T12:00	1780	813	4.3	2.3	210	7	
2025-11-16T12:00	1800	811	4.1	2.1	206	6	
2025-11-16T12:00	1820	809	4.0	1.9	202	6	
2025-11-16T12:00	1840	807	3.9	1.5	196	6	
2025-11-16T12:00	1860	805	3.8	1.1	190	6	
2025-11-16T12:00	1880	803	3.7	0.9	186	7	
2025-11-16T12:00	1900	801	3.8	0.7	183	7	
2025-11-16T12:00	1920	799	3.7	0.7	179	7	
2025-11-16T12:00	1940	797	3.5	0.6	174	7	
2025-11-16T12:00	1960	795	3.3	0.5	169	7	
2025-11-16T12:00	1980	793	3.1	0.4	162	7	
2025-11-16T12:00	2000	791	3.0	0.4	158	8	
2025-11-16T12:00	2020	789	3.0	0.3	156	8	
2025-11-16T12:00	2040	787	2.8	0.2	156	8	
2025-11-16T12:00	2060	785	2.6	0.1	156	8	
2025-11-16T12:00	2080	783	2.4	0.0	155	8	
2025-11-16T12:00	2100	781	2.1	0.1	154	8	
2025-11-16T12:00	2120	779	1.9	0.0	152	8	
2025-11-16T12:00	2140	778	1.7	0.0	152	7	
2025-11-16T12:00	2160	776	1.5	0.1	156	8	
2025-11-16T12:00	2180	774	1.5	0.1	163	8	
2025-11-16T12:00	2200	772	1.4	0.1	169	9	
2025-11-16T12:00	2220	770	1.2	0.1	175	9	
2025-11-16T12:00	2240	768	1.1	0.1	180	10	
2025-11-16T12:00	2260	766	1.0	0.1	183	10	
2025-11-16T12:00	2280	764	0.9	0.0	186	10	
2025-11-16T12:00	2300	762	0.9	0.1	187	11	
2025-11-16T12:00	2320	760	0.7	0.0	189	12	
2025-11-16T12:00	2340	758	0.7	0.1	193	12	
2025-11-16T12:00	2360	757	0.6	0.1	196	12	
2025-11-16T12:00	2380	755	0.5	0.0	200	12	
2025-11-16T12:00	2400	753	0.5	0.0	202	11	
2025-11-16T12:00	2420	751	0.4	0.1	203	11	
2025-11-16T12:00	2440	749	0.3	0.2	200	11	
2025-11-16T12:00	2460	747	0.3	0.1	197	11	
2025-11-16T12:00	2480	745	0.1	0.1	199	11	
2025-11-16T12:00	2500	743	0.1	-0.1	203	12	
2025-11-16T12:00	2520	742	0.0	-0.1	205	12	
2025-11-16T12:00	2540	740	-0.1	-0.1	205	13	
2025-11-16T12:00	2560	738	-0.2	-0.2	206	13	
2025-11-16T12:00	2580	736	-0.3	-0.3	207	14	
2025-11-16T12:00	2600	734	-0.4	-0.4	208	14	
2025-11-16T12:00	2620	732	-0.5	-0.5	209	14	
2025-11-16T12:00	2640	731	-0.6	-0.6	210	15	
2025-11-16T12:00	2660	729	-0.7	-0.7	210	15	
2025-11-16T12:00	2680	727	-0.7	-0.7	211	15	
2025-11-16T12:00	2700	725	-0.8	-0.8	210	15	
2025-11-16T12:00	2720	723	-0.9	-0.9	210	16	
2025-11-16T12:00	2740	722	-1.1	-1.1	211	16	
2025-11-16T12:00	2760	720	-1.1	-1.2	212	16	
2025-11-16T12:00	2780	718	-1.2	-1.4	213	16	
2025-11-16T12:00	2800	716	-1.3	-1.5	216	16	
2025-11-16T12:00	2820	714	-1.3	-1.6	218	17	
2025-11-16T12:00	2840	713	-1.4	-1.6	219	17	
2025-11-16T12:00	2860	711	-1.6	-1.7	220	17	
2025-11-16T12:00	2880	709	-1.8	-1.8	220	17	
2025-11-16T12:00	2900	707	-1.9	-1.9	220	17	
2025-11-16T12:00	2920	705	-2.1	-2.1	221	17	
2025-11-16T12:00	2940	704	-2.2	-2.2	221	17	
2025-11-16T12:00	2960	702	-2.3	-2.3	223	17	
2025-11-16T12:00	2980	700	-2.4	-2.4	224	17	
2025-11-16T12:00	3000	698	-2.6	-2.6	225	17	
2025-11-16T12:00	3020	697	-2.6	-2.6	226	17	
2025-11-16T12:00	3040	695	-2.8	-2.8	226	17	
2025-11-16T12:00	3060	693	-2.9	-2.9	225	17	
2025-11-16T12:00	3080	691	-3.0	-3.0	225	17	
2025-11-16T12:00	3100	690	-3.1	-3.1	225	18	
2025-11-16T12:00	3120	688	-3.2	-3.2	225	18	
2025-11-16T12:00	3140	686	-3.3	-3.3	227	18	
2025-11-16T12:00	3160	684	-3.4	-3.4	229	18	
2025-11-16T12:00	3180	683	-3.6	-3.6	231	18	
2025-11-16T12:00	3200	681	-3.7	-3.7	233	18	
2025-11-16T12:00	3220	679	-3.9	-3.9	235	18	
2025-11-16T12:00	3240	678	-3.9	-3.9	235	18	
2025-11-16T12:00	3260	676	-4.1	-4.1	236	18	
2025-11-16T12:00	3280	674	-4.2	-4.2	235	18	
2025-11-16T12:00	3300	672	-4.3	-4.3	235	18	
2025-11-16T12:00	3320	671	-4.4	-4.4	234	18	
2025-11-16T12:00	3340	669	-4.4	-4.4	234	18	
2025-11-16T12:00	3360	667	-4.5	-4.5	233	18	
2025-11-16T12:00	3380	666	-4.6	-4.6	233	18	
2025-11-16T12:00	3400	664	-4.8	-4.8	233	18	
2025-11-16T12:00	3420	662	-4.9	-4.9	233	18	
2025-11-16T12:00	3440	661	-5.0	-5.0	232	18	
2025-11-16T12:00	3460	659	-5.1	-5.1	232	19	
2025-11-16T12:00	3480	657	-5.2	-5.3	232	19	
2025-11-16T12:00	3500	656	-5.4	-5.4	231	19	
2025-11-16T12:00	3520	654	-5.4	-5.6	230	19	
2025-11-16T12:00	3540	652	-5.6	-5.6	230	19	
2025-11-16T12:00	3560	651	-5.7	-5.8	230	20	
2025-11-16T12:00	3580	649	-5.9	-5.9	231	20	
2025-11-16T12:00	3600	647	-6.0	-6.0	231	20	
2025-11-16T12:00	3620	646	-6.1	-6.1	230	20	
2025-11-16T12:00	3640	644	-6.2	-6.4	230	20	
2025-11-16T12:00	3660	642	-6.4	-6.4	228	20	
2025-11-16T12:00	3680	641	-6.5	-6.6	227	20	
2025-11-16T12:00	3700	639	-6.6	-6.7	226	20	
2025-11-16T12:00	3720	637	-6.8	-6.8	226	20	
2025-11-16T12:00	3740	636	-6.9	-7.0	226	21	
2025-11-16T12:00	3760	634	-7.1	-7.1	227	21	
2025-11-16T12:00	3780	632	-7.2	-7.2	227	21	
2025-11-16T12:00	3800	631	-7.3	-7.3	226	21	
2025-11-16T12:00	3820	629	-7.4	-7.6	226	22	
2025-11-16T12:00	3840	628	-7.5	-7.7	225	22	
2025-11-16T12:00	3860	626	-7.7	-7.7	225	22	
2025-11-16T12:00	3880	624	-7.8	-7.8	225	22	
2025-11-16T12:00	3900	623	-7.9	-7.9	224	23	
2025-11-16T12:00	3920	621	-8.0	-8.0	224	23	
2025-11-16T12:00	3940	620	-8.1	-8.2	224	23	
2025-11-16T12:00	3960	618	-8.3	-8.4	224	23	
2025-11-16T12:00	3980	616	-8.5	-8.5	224	23	
2025-11-16T12:00	4000	615	-8.6	-8.6	224	24	
2025-11-16T12:00	4020	613	-8.7	-8.7	224	24	
2025-11-16T12:00	4040	612	-8.8	-8.8	224	24	
2025-11-16T12:00	4060	610	-8.9	-9.0	224	24	
2025-11-16T12:00	4080	609	-9.1	-9.2	224	25	
2025-11-16T12:00	4100	607	-9.2	-9.3	224	25	
2025-11-16T12:00	4120	605	-9.3	-9.5	224	25	
2025-11-16T12:00	4140	604	-9.5	-9.7	224	25	
2025-11-16T12:00	4160	602	-9.6	-9.8	224	25	
2025-11-16T12:00	4180	601	-9.8	-10.0	224	25	
2025-11-16T12:00	4200	599	-9.9	-10.2	223	25	
2025-11-16T12:00	4220	598	-10.0	-10.3	223	25	
2025-11-16T12:00	4240	596	-10.1	-10.4	223	25	
2025-11-16T12:00	4260	595	-10.1	-10.6	223	26	
2025-11-16T12:00	4280	593	-10.2	-10.7	223	26	
2025-11-16T12:00	4300	592	-10.3	-10.8	223	27	
2025-11-16T12:00	4320	590	-10.4	-11.0	223	27	
2025-11-16T12:00	4340	588	-10.5	-11.1	223	28	
2025-11-16T12:00	4360	587	-10.6	-11.2	222	28	
2025-11-16T12:00	4380	585	-10.7	-11.3	221	29	
2025-11-16T12:00	4400	584	-10.9	-11.3	220	29	
2025-11-16T12:00	4420	582	-11.0	-11.4	219	29	
2025-11-16T12:00	4440	581	-11.1	-11.7	219	29	
2025-11-16T12:00	4460	579	-11.2	-12.0	219	30	
2025-11-16T12:00	4480	578	-11.3	-12.0	219	30	
2025-11-16T12:00	4500	576	-11.5	-12.1	220	30	
2025-11-16T12:00	4520	575	-11.6	-12.2	220	30	
2025-11-16T12:00	4540	573	-11.7	-12.4	220	30	
2025-11-16T12:00	4560	572	-11.9	-12.7	219	30	
2025-11-16T12:00	4580	570	-12.0	-12.9	219	30	
2025-11-16T12:00	4600	569	-12.2	-13.1	219	30	
2025-11-16T12:00	4620	567	-12.3	-13.4	219	30	
2025-11-16T12:00	4640	566	-12.5	-13.6	219	30	
2025-11-16T12:00	4660	564	-12.5	-13.7	219	29	
2025-11-16T12:00	4680	563	-12.6	-13.7	219	29	
2025-11-16T12:00	4700	561	-12.7	-14.0	218	30	
2025-11-16T12:00	4720	560	-12.8	-14.0	218	30	
2025-11-16T12:00	4740	558	-12.9	-14.0	217	30	
2025-11-16T12:00	4760	557	-13.0	-14.0	217	29	
2025-11-16T12:00	4780	556	-13.0	-14.0	217	29	
2025-11-16T12:00	4800	554	-13.1	-14.2	218	29	
2025-11-16T12:00	4820	553	-13.2	-14.3	218	28	
2025-11-16T12:00	4840	551	-13.3	-14.4	219	28	
2025-11-16T12:00	4860	550	-13.5	-14.6	220	28	
2025-11-16T12:00	4880	548	-13.6	-14.8	219	28	
2025-11-16T12:00	4900	547	-13.8	-14.9	219	28	
2025-11-16T12:00	4920	545	-13.9	-15.1	219	27	
2025-11-16T12:00	4940	544	-14.0	-15.2	219	27	
2025-11-16T12:00	4960	543	-14.1	-15.4	219	27	
2025-11-16T12:00	4980	541	-14.2	-15.5	218	27	
2025-11-16T12:00	5000	540	-14.4	-15.6	218	26	
2025-11-16T12:00	5020	538	-14.5	-15.8	219	26	
2025-11-16T12:00	5040	537	-14.7	-15.9	219	26	
2025-11-16T12:00	5060	535	-14.8	-16.0	219	27	
2025-11-16T12:00	5080	534	-14.9	-16.1	219	27	
2025-11-16T12:00	5100	533	-15.1	-16.2	218	27	
2025-11-16T12:00	5120	531	-15.2	-16.3	217	27	
2025-11-16T12:00	5140	530	-15.3	-16.5	217	28	
2025-11-16T12:00	5160	528	-15.5	-16.7	217	28	
2025-11-16T12:00	5180	527	-15.6	-16.9	216	28	
2025-11-16T12:00	5200	526	-15.7	-17.0	216	28	
2025-11-16T12:00	5220	524	-15.9	-17.1	216	28	
2025-11-16T12:00	5240	523	-16.0	-17.3	215	27	
2025-11-16T12:00	5260	521	-16.2	-17.4	215	27	
2025-11-16T12:00	5280	520	-16.3	-17.5	216	27	
2025-11-16T12:00	5300	519	-16.5	-17.6	216	27	
2025-11-16T12:00	5320	517	-16.7	-17.8	217	27	
2025-11-16T12:00	5340	516	-16.8	-18.1	217	28	
2025-11-16T12:00	5360	514	-17.0	-18.3	217	28	
2025-11-16T12:00	5380	513	-17.2	-18.4	217	28	
2025-11-16T12:00	5400	512	-17.3	-18.5	216	28	
2025-11-16T12:00	5420	510	-17.4	-18.7	215	28	
2025-11-16T12:00	5440	509	-17.6	-18.9	215	27	
2025-11-16T12:00	5460	508	-17.7	-18.9	215	26	
2025-11-16T12:00	5480	506	-17.8	-19.1	216	26	
2025-11-16T12:00	5500	505	-17.9	-19.1	217	26	
2025-11-16T12:00	5520	504	-18.0	-19.2	218	26	
2025-11-16T12:00	5540	502	-18.1	-19.4	218	26	
2025-11-16T12:00	5560	501	-18.2	-19.6	218	26	
2025-11-16T12:00	5580	500	-18.4	-19.7	218	26	
2025-11-16T12:00	5600	498	-18.5	-19.8	218	26	
2025-11-16T12:00	5620	497	-18.6	-20.0	218	26	
2025-11-16T12:00	5640	496	-18.8	-20.2	218	26	
2025-11-16T12:00	5660	494	-18.9	-20.3	218	26	
2025-11-16T12:00	5680	493	-19.0	-20.5	218	26	
2025-11-16T12:00	5700	492	-19.2	-20.7	217	25	
2025-11-16T12:00	5720	490	-19.3	-20.8	217	25	
2025-11-16T12:00	5740	489	-19.4	-21.0	217	25	
2025-11-16T12:00	5760	488	-19.6	-21.1	217	25	
2025-11-16T12:00	5780	486	-19.7	-21.2	218	25	
2025-11-16T12:00	5800	485	-19.8	-21.5	217	25	
2025-11-16T12:00	5820	484	-20.0	-21.7	217	25	
2025-11-16T12:00	5840	483	-20.1	-21.9	217	24	
2025-11-16T12:00	5860	481	-20.3	-22.0	217	24	
2025-11-16T12:00	5880	480	-20.4	-22.1	217	24	
2025-11-16T12:00	5900	479	-20.6	-22.3	218	24	
2025-11-16T12:00	5920	477	-20.7	-22.5	218	25	
2025-11-16T12:00	5940	476	-20.9	-22.6	217	25	
2025-11-16T12:00	5960	475	-21.0	-22.8	216	25	
2025-11-16T12:00	5980	474	-21.2	-22.9	215	25	
2025-11-16T12:00	6000	472	-21.3	-23.1	214	25	
2025-11-16T12:00	6020	471	-21.5	-23.2	214	25	
2025-11-16T12:00	6040	470	-21.6	-23.4	214	24	
2025-11-16T12:00	6060	468	-21.7	-23.5	214	24	
2025-11-16T12:00	6080	467	-21.9	-23.6	215	24	
2025-11-16T12:00	6100	466	-22.0	-23.8	215	25	
2025-11-16T12:00	6120	465	-22.2	-23.8	216	25	
2025-11-16T12:00	6140	463	-22.3	-24.0	216	25	
2025-11-16T12:00	6160	462	-22.5	-24.1	215	25	
2025-11-16T12:00	6180	461	-22.7	-24.4	215	25	
2025-11-16T12:00	6200	460	-22.8	-24.6	216	25	
2025-11-16T12:00	6220	458	-23.0	-24.8	216	25	
2025-11-16T12:00	6240	457	-23.2	-25.0	217	25	
2025-11-16T12:00	6260	456	-23.3	-25.1	217	25	
2025-11-16T12:00	6280	455	-23.5	-25.2	217	25	
2025-11-16T12:00	6300	453	-23.6	-25.5	217	25	
2025-11-16T12:00	6320	452	-23.8	-25.7	218	24	
2025-11-16T12:00	6340	451	-24.0	-25.9	219	24	
2025-11-16T12:00	6360	450	-24.1	-26.0	220	24	
2025-11-16T12:00	6380	448	-24.3	-26.2	221	24	
2025-11-16T12:00	6400	447	-24.4	-26.3	222	24	
2025-11-16T12:00	6420	446	-24.5	-26.5	222	24	
2025-11-16T12:00	6440	445	-24.7	-26.7	221	24	
2025-11-16T12:00	6460	443	-24.9	-26.8	221	24	
2025-11-16T12:00	6480	442	-25.0	-27.2	220	23	
2025-11-16T12:00	6500	441	-25.2	-27.3	220	23	
2025-11-16T12:00	6520	440	-25.4	-27.5	220	23	
2025-11-16T12:00	6540	439	-25.5	-27.6	220	23	
2025-11-16T12:00	6560	437	-25.6	-27.7	219	23	
2025-11-16T12:00	6580	436	-25.8	-27.8	219	22	
2025-11-16T12:00	6600	435	-25.9	-27.9	220	22	
2025-11-16T12:00	6620	434	-26.1	-28.2	221	22	
2025-11-16T12:00	6640	433	-26.3	-28.3	223	22	
2025-11-16T12:00	6660	431	-26.4	-28.4	224	23	
2025-11-16T12:00	6680	430	-26.6	-28.5	224	23	
2025-11-16T12:00	6700	429	-26.8	-28.7	225	23	
2025-11-16T12:00	6720	428	-26.9	-28.9	225	23	
2025-11-16T12:00	6740	427	-27.1	-29.1	225	22	
2025-11-16T12:00	6760	425	-27.2	-29.2	226	22	
2025-11-16T12:00	6780	424	-27.4	-29.5	226	22	
2025-11-16T12:00	6800	423	-27.5	-29.6	226	22	
2025-11-16T12:00	6820	422	-27.6	-29.6	225	23	
2025-11-16T12:00	6840	421	-27.8	-29.7	223	23	
2025-11-16T12:00	6860	420	-28.0	-29.9	222	24	
2025-11-16T12:00	6880	418	-28.1	-30.1	221	24	
2025-11-16T12:00	6900	417	-28.2	-30.3	221	24	
2025-11-16T12:00	6920	416	-28.4	-30.5	221	24	
2025-11-16T12:00	6940	415	-28.5	-30.6	221	23	
2025-11-16T12:00	6960	414	-28.6	-30.8	222	23	
2025-11-16T12:00	6980	413	-28.8	-30.9	222	23	
2025-11-16T12:00	7000	411	-28.9	-31.1	222	24	
2025-11-16T12:00	7020	410	-29.1	-31.2	223	24	
2025-11-16T12:00	7040	409	-29.3	-31.4	223	24	
2025-11-16T12:00	7060	408	-29.4	-31.5	224	24	
2025-11-16T12:00	7080	407	-29.6	-31.7	225	24	
2025-11-16T12:00	7100	406	-29.8	-32.0	225	24	
2025-11-16T12:00	7120	405	-29.9	-32.2	225	24	
2025-11-16T12:00	7140	403	-30.1	-32.3	224	24	
2025-11-16T12:00	7160	402	-30.3	-32.5	224	24	
2025-11-16T12:00	7180	401	-30.5	-32.7	224	24	
2025-11-16T12:00	7200	400	-30.6	-32.9	223	24	
2025-11-16T12:00	7220	399	-30.8	-33.0	223	24	
2025-11-16T12:00	7240	398	-31.0	-33.3	222	24	
2025-11-16T12:00	7260	397	-31.1	-33.3	222	24	
2025-11-16T12:00	7280	396	-31.3	-33.4	221	24	
2025-11-16T12:00	7300	394	-31.4	-33.5	221	24	
2025-11-16T12:00	7320	393	-31.6	-33.8	221	24	
2025-11-16T12:00	7340	392	-31.7	-33.8	221	24	
2025-11-16T12:00	7360	391	-31.8	-33.9	221	24	
2025-11-16T12:00	7380	390	-32.0	-34.1	222	24	
2025-11-16T12:00	7400	389	-32.1	-34.4	222	24	
2025-11-16T12:00	7420	388	-32.3	-34.5	222	25	
2025-11-16T12:00	7440	387	-32.4	-34.6	222	25	
2025-11-16T12:00	7460	386	-32.6	-34.7	223	25	
2025-11-16T12:00	7480	384	-32.7	-35.0	223	25	
2025-11-16T12:00	7500	383	-32.9	-35.2	224	25	
2025-11-16T12:00	7520	382	-33.0	-35.4	224	25	
2025-11-16T12:00	7540	381	-33.2	-35.5	224	25	
2025-11-16T12:00	7560	380	-33.4	-35.6	225	25	
2025-11-16T12:00	7580	379	-33.5	-35.7	224	24	
2025-11-16T12:00	7600	378	-33.7	-35.9	224	24	
2025-11-16T12:00	7620	377	-33.8	-36.1	224	24	
2025-11-16T12:00	7640	376	-34.0	-36.3	223	25	
2025-11-16T12:00	7660	375	-34.2	-36.6	223	25	
2025-11-16T12:00	7680	374	-34.3	-36.7	223	25	
2025-11-16T12:00	7700	373	-34.5	-36.9	223	25	
2025-11-16T12:00	7720	372	-34.6	-37.1	223	25	
2025-11-16T12:00	7740	370	-34.8	-37.3	223	25	
2025-11-16T12:00	7760	369	-35.0	-37.6	223	25	
2025-11-16T12:00	7780	368	-35.1	-37.8	223	25	
2025-11-16T12:00	7800	367	-35.3	-37.9	222	25	
2025-11-16T12:00	7820	366	-35.5	-38.0	222	25	
2025-11-16T12:00	7840	365	-35.7	-38.2	222	25	
2025-11-16T12:00	7860	364	-35.8	-38.3	223	25	
2025-11-16T12:00	7880	363	-36.0	-38.5	223	25	
2025-11-16T12:00	7900	362	-36.2	-38.7	223	25	
2025-11-16T12:00	7920	361	-36.3	-38.9	222	25	
2025-11-16T12:00	7940	360	-36.5	-39.1	222	25	
2025-11-16T12:00	7960	359	-36.7	-39.2	222	25	
2025-11-16T12:00	7980	358	-36.9	-39.4	222	25	
2025-11-16T12:00	8000	357	-37.1	-39.8	222	25	
2025-11-16T12:00	8020	356	-37.2	-39.9	222	26	
2025-11-16T12:00	8040	355	-37.4	-40.1	222	26	
2025-11-16T12:00	8060	354	-37.5	-40.3	223	26	
2025-11-16T12:00	8080	353	-37.7	-40.5	223	26	
2025-11-16T12:00	8100	352	-37.9	-40.6	223	26	
2025-11-16T12:00	8120	351	-38.1	-40.7	223	26	
2025-11-16T12:00	8140	350	-38.3	-41.0	223	26	
2025-11-16T12:00	8160	349	-38.4	-41.1	223	26	
2025-11-16T12:00	8180	348	-38.6	-41.3	223	26	
2025-11-16T12:00	8200	347	-38.8	-41.5	223	26	
2025-11-16T12:00	8220	346	-39.0	-41.6	223	26	
2025-11-16T12:00	8240	345	-39.1	-41.9	223	26	
2025-11-16T12:00	8260	344	-39.3	-42.0	223	26	
2025-11-16T12:00	8280	343	-39.5	-42.2	224	26	
2025-11-16T12:00	8300	342	-39.7	-42.5	224	26	
2025-11-16T12:00	8320	341	-39.8	-42.7	223	26	
2025-11-16T12:00	8340	340	-40.0	-43.0	223	27	
2025-11-16T12:00	8360	339	-40.2	-43.2	222	27	
2025-11-16T12:00	8380	338	-40.4	-43.3	221	27	
2025-11-16T12:00	8400	337	-40.6	-43.2	221	27	
2025-11-16T12:00	8420	336	-40.7	-43.5	221	27	
2025-11-16T12:00	8440	335	-40.9	-43.8	221	27	
2025-11-16T12:00	8460	334	-41.1	-44.0	221	27	
2025-11-16T12:00	8480	333	-41.3	-44.2	221	27	
2025-11-16T12:00	8500	332	-41.4	-44.2	221	27	
2025-11-16T12:00	8520	331	-41.6	-44.6	221	27	
2025-11-16T12:00	8540	330	-41.8	-45.0	222	27	
2025-11-16T12:00	8560	329	-42.0	-45.1	222	27	
2025-11-16T12:00	8580	328	-42.1	-45.1	222	27	
2025-11-16T12:00	8600	327	-42.3	-45.4	223	27	
2025-11-16T12:00	8620	326	-42.5	-45.5	223	27	
2025-11-16T12:00	8640	325	-42.7	-45.5	224	26	
2025-11-16T12:00	8660	324	-42.9	-45.7	224	26	
2025-11-16T12:00	8680	323	-43.0	-45.9	225	26	
2025-11-16T12:00	8700	322	-43.2	-46.2	225	26	
2025-11-16T12:00	8720	321	-43.4	-46.4	226	26	
2025-11-16T12:00	8740	320	-43.6	-46.7	226	26	
2025-11-16T12:00	8760	319	-43.7	-46.9	226	27	
2025-11-16T12:00	8780	318	-43.9	-47.0	226	27	
2025-11-16T12:00	8800	317	-44.1	-47.3	225	27	
2025-11-16T12:00	8820	316	-44.3	-47.5	225	27	
2025-11-16T12:00	8840	315	-44.5	-47.8	225	27	
2025-11-16T12:00	8860	314	-44.6	-47.9	226	26	
2025-11-16T12:00	8880	314	-44.8	-47.9	226	26	
2025-11-16T12:00	8900	313	-45.0	-48.1	226	26	
2025-11-16T12:00	8920	312	-45.2	-48.5	226	25	
2025-11-16T12:00	8940	311	-45.4	-48.5	226	25	
2025-11-16T12:00	8960	310	-45.6	-48.7	227	25	
2025-11-16T12:00	8980	309	-45.8	-49.0	227	26	
2025-11-16T12:00	9000	308	-45.9	-49.2	227	26	
2025-11-16T12:00	9020	307	-46.1	-49.5	227	26	
2025-11-16T12:00	9040	306	-46.3	-49.6	226	26	
2025-11-16T12:00	9060	305	-46.5	-49.8	225	26	
2025-11-16T12:00	9080	304	-46.7	-49.9	224	26	
2025-11-16T12:00	9100	303	-46.8	-50.0	224	26	
2025-11-16T12:00	9120	303	-46.9	-50.3	223	25	
2025-11-16T12:00	9140	302	-47.1	-50.5	223	25	
2025-11-16T12:00	9160	301	-47.3	-50.7	222	25	
2025-11-16T12:00	9180	300	-47.5	-50.7	222	25	
2025-11-16T12:00	9200	299	-47.7	-50.9	222	25	
2025-11-16T12:00	9220	298	-47.8	-51.2	221	25	
2025-11-16T12:00	9240	297	-48.1	-51.3	221	25	
2025-11-16T12:00	9260	296	-48.3	-51.4	220	26	
2025-11-16T12:00	9280	295	-48.4	-51.7	220	26	
2025-11-16T12:00	9300	294	-48.6	-52.1	219	26	
2025-11-16T12:00	9320	293	-48.8	-52.2	219	27	
2025-11-16T12:00	9340	293	-49.0	-52.4	220	27	
2025-11-16T12:00	9360	292	-49.2	-52.7	220	27	
2025-11-16T12:00	9380	291	-49.3	-53.0	221	28	
2025-11-16T12:00	9400	290	-49.5	-53.0	221	28	
2025-11-16T12:00	9420	289	-49.7	-53.0	221	28	
2025-11-16T12:00	9440	288	-49.9	-52.9	220	28	
2025-11-16T12:00	9460	287	-50.1	-53.2	219	28	
2025-11-16T12:00	9480	286	-50.3	-53.6	219	28	
2025-11-16T12:00	9500	285	-50.5	-53.8	218	28	
2025-11-16T12:00	9520	285	-50.6	-53.9	218	28	
2025-11-16T12:00	9540	284	-50.8	-54.1	218	28	
2025-11-16T12:00	9560	283	-51.0	-54.4	218	28	
2025-11-16T12:00	9580	282	-51.1	-54.5	218	27	
2025-11-16T12:00	9600	281	-51.3	-54.5	217	27	
2025-11-16T12:00	9620	280	-51.5	-54.5	217	27	
2025-11-16T12:00	9640	279	-51.7	-54.7	216	27	
2025-11-16T12:00	9660	279	-51.9	-54.7	216	27	
2025-11-16T12:00	9680	278	-52.1	-54.7	216	27	
2025-11-16T12:00	9700	277	-52.3	-54.9	217	26	
2025-11-16T12:00	9720	276	-52.5	-55.8	218	26	
2025-11-16T12:00	9740	275	-52.6	-56.6	219	26	
2025-11-16T12:00	9760	274	-52.9	-56.5	220	26	
2025-11-16T12:00	9780	273	-53.1	-56.3	221	26	
2025-11-16T12:00	9800	273	-53.3	-56.3	221	26	
2025-11-16T12:00	9820	272	-53.4	-56.8	221	27	
2025-11-16T12:00	9840	271	-53.6	-57.1	221	27	
2025-11-16T12:00	9860	270	-53.8	-57.2	221	28	
2025-11-16T12:00	9880	269	-54.0	-57.4	221	28	
2025-11-16T12:00	9900	268	-54.2	-57.8	220	28	
2025-11-16T12:00	9920	267	-54.3	-58.2	220	28	
2025-11-16T12:00	9940	267	-54.5	-58.5	220	28	
2025-11-16T12:00	9960	266	-54.7	-58.6	219	28	
2025-11-16T12:00	9980	265	-54.9	-58.9	218	28	
2025-11-16T12:00	10000	264	-55.1	-59.2	217	28	
2025-11-16T12:00	10018	264	-55.2	-59.3	217	28	
2025-11-16T12:00	10050	262	-55.5	-59.5	217	29	
2025-11-16T12:00	10100	260	-55.9	-60.1	217	30	
2025-11-16T12:00	10150	258	-56.4	-60.4	218	30	
2025-11-16T12:00	10200	256	-56.9	-60.7	218	30	
2025-11-16T12:00	10250	254	-57.3	-61.3	217	30	
2025-11-16T12:00	10300	252	-57.8	-61.6	218	30	
2025-11-16T12:00	10350	250	-58.2	-62.2	218	31	
2025-11-16T12:00	10400	248	-58.6	-62.8	219	31	
2025-11-16T12:00	10450	246	-59.1	-63.4	219	32	
2025-11-16T12:00	10500	244	-59.6	-63.9	220	32	
2025-11-16T12:00	10550	242	-60.0	-64.1	221	32	
2025-11-16T12:00	10600	240	-60.4	-64.8	222	32	
2025-11-16T12:00	10650	238	-60.9	-65.3	223	33	
2025-11-16T12:00	10700	236	-61.2	-65.8	223	34	
2025-11-16T12:00	10750	234	-61.7	-66.4	223	34	
2025-11-16T12:00	10800	233	-62.0	-66.7	224	35	
2025-11-16T12:00	10850	231	-62.1	-66.6	226	36	
2025-11-16T12:00	10900	229	-62.3	-66.8	228	36	
2025-11-16T12:00	10950	227	-62.6	-67.2	230	37	
2025-11-16T12:00	11000	225	-62.7	-67.0	232	37	
2025-11-16T12:00	11050	223	-62.4	-66.7	234	37	
2025-11-16T12:00	11100	222	-62.4	-66.7	235	36	
2025-11-16T12:00	11150	220	-62.7	-66.9	236	36	
2025-11-16T12:00	11200	218	-63.0	-67.2	236	35	
2025-11-16T12:00	11250	216	-63.4	-67.7	237	34	
2025-11-16T12:00	11300	214	-63.7	-67.7	238	34	
2025-11-16T12:00	11350	213	-63.6	-66.2	239	32	
2025-11-16T12:00	11400	211	-63.3	-65.9	238	30	
2025-11-16T12:00	11450	209	-63.1	-66.8	237	29	
2025-11-16T12:00	11500	208	-63.2	-67.6	237	28	
2025-11-16T12:00	11550	206	-62.1	-68.9	237	26	
2025-11-16T12:00	11600	204	-61.7	-69.9	233	24	
2025-11-16T12:00	11650	203	-61.7	-70.2	229	23	
2025-11-16T12:00	11700	201	-61.9	-70.4	226	23	
2025-11-16T12:00	11750	199	-62.1	-70.5	224	23	
2025-11-16T12:00	11800	198	-62.5	-70.4	222	23	
2025-11-16T12:00	11850	196	-62.8	-70.7	222	24	
2025-11-16T12:00	11900	195	-62.8	-71.1	225	24	
2025-11-16T12:00	11950	193	-62.6	-72.3	232	24	
2025-11-16T12:00	12000	191	-62.1	-73.7	236	23	
2025-11-16T12:00	12050	190	-60.9	-75.6	236	23	
2025-11-16T12:00	12100	188	-59.9	-77.0	238	23	
2025-11-16T12:00	12150	187	-59.5	-77.4	240	22	
2025-11-16T12:00	12200	185	-59.5	-77.7	242	22	
2025-11-16T12:00	12250	184	-59.6	-77.6	241	21	
2025-11-16T12:00	12300	182	-60.0	-77.7	241	21	
2025-11-16T12:00	12350	181	-60.4	-77.8	240	21	
2025-11-16T12:00	12400	180	-60.7	-78.0	238	21	
2025-11-16T12:00	12450	178	-60.9	-78.3	239	21	
2025-11-16T12:00	12500	177	-61.3	-78.4	239	21	
2025-11-16T12:00	12550	175	-61.5	-78.6	240	21	
2025-11-16T12:00	12600	174	-61.2	-79.0	240	20	
2025-11-16T12:00	12650	172	-61.2	-79.4	239	19	
2025-11-16T12:00	12700	171	-61.7	-79.1	236	21	
2025-11-16T12:00	12750	170	-61.5	-78.7	234	23	
2025-11-16T12:00	12800	168	-60.2	-80.2	233	24	
2025-11-16T12:00	12850	167	-59.6	-80.1	235	23	
2025-11-16T12:00	12900	166	-58.7	-80.0	239	23	
2025-11-16T12:00	12950	164	-58.5	-79.6	242	23	
2025-11-16T12:00	13000	163	-58.6	-80.0	246	23	
2025-11-16T12:00	13050	162	-58.6	-80.0	247	24	
2025-11-16T12:00	13100	160	-58.9	-80.3	248	24	
2025-11-16T12:00	13150	159	-59.0	-80.5	250	23	
2025-11-16T12:00	13200	158	-59.0	-81.0	252	22	
2025-11-16T12:00	13250	157	-59.1	-81.4	251	22	
2025-11-16T12:00	13300	155	-59.4	-81.5	250	22	
2025-11-16T12:00	13350	154	-59.3	-81.7	251	22	
2025-11-16T12:00	13400	153	-59.3	-81.8	253	22	
2025-11-16T12:00	13450	152	-59.2	-81.7	256	21	
2025-11-16T12:00	13500	151	-59.4	-82.0	259	21	
2025-11-16T12:00	13550	149	-59.8	-82.1	260	20	
2025-11-16T12:00	13600	148	-60.2	-81.9	259	20	
2025-11-16T12:00	13650	147	-60.6	-82.0	257	18	
2025-11-16T12:00	13700	146	-60.7	-82.3	256	17	
2025-11-16T12:00	13750	145	-61.0	-82.5	255	16	
2025-11-16T12:00	13800	143	-61.3	-82.6	253	16	
2025-11-16T12:00	13850	142	-61.6	-82.7	248	16	
2025-11-16T12:00	13900	141	-61.3	-82.8	244	16	
2025-11-16T12:00	13950	140	-61.2	-82.6	245	16	
2025-11-16T12:00	14000	139	-61.2	-82.0	252	16	
2025-11-16T12:00	14050	138	-61.0	-82.6	258	15	
2025-11-16T12:00	14100	137	-61.2	-83.1	263	15	
2025-11-16T12:00	14150	136	-61.3	-83.1	263	14	
2025-11-16T12:00	14200	134	-61.3	-83.1	261	13	
2025-11-16T12:00	14250	133	-61.2	-83.1	260	13	
2025-11-16T12:00	14300	132	-61.3	-83.3	258	13	
2025-11-16T12:00	14350	131	-61.1	-83.5	254	14	
2025-11-16T12:00	14400	130	-60.2	-83.3	250	16	
2025-11-16T12:00	14450	129	-60.2	-83.3	246	16	
2025-11-16T12:00	14500	128	-60.1	-83.2	244	14	
2025-11-16T12:00	14550	127	-60.4	-83.0	243	14	
2025-11-16T12:00	14600	126	-60.9	-82.8	239	14	
2025-11-16T12:00	14650	125	-61.2	-82.6	234	15	
2025-11-16T12:00	14700	124	-61.2	-81.1	227	15	
2025-11-16T12:00	14750	123	-61.0	-82.7	222	17	
2025-11-16T12:00	14800	122	-61.2	-83.7	220	18	
2025-11-16T12:00	14850	121	-61.0	-83.1	225	18	
2025-11-16T12:00	14900	120	-60.9	-81.9	231	18	
2025-11-16T12:00	14950	119	-61.2	-81.9	237	19	
2025-11-16T12:00	15000	118	-61.1	-81.2	243	21	
2025-11-16T12:00	15050	117	-60.5	-83.6	244	23	
2025-11-16T12:00	15100	116	-60.2	-84.0	245	22	
2025-11-16T12:00	15150	115	-59.5	-84.0	241	21	
2025-11-16T12:00	15200	114	-59.5	-83.8	236	22	
2025-11-16T12:00	15250	114	-59.3	-83.7	235	22	
2025-11-16T12:00	15300	113	-59.3	-83.5	237	20	
2025-11-16T12:00	15350	112	-59.4	-83.6	240	19	
2025-11-16T12:00	15400	111	-59.6	-83.7	243	18	
2025-11-16T12:00	15450	110	-59.5	-84.1	242	17	
2025-11-16T12:00	15500	109	-59.6	-84.0	239	17	
2025-11-16T12:00	15550	108	-59.6	-83.9	240	17	
2025-11-16T12:00	15600	107	-59.7	-83.9	242	17	
2025-11-16T12:00	15650	107	-59.4	-83.9	243	16	
2025-11-16T12:00	15700	106	-59.7	-84.0	243	15	
2025-11-16T12:00	15750	105	-60.1	-84.1	242	15	
2025-11-16T12:00	15800	104	-60.6	-84.2	240	15	
2025-11-16T12:00	15850	103	-60.9	-84.3	240	15	
2025-11-16T12:00	15900	102	-60.7	-84.4	244	15	
2025-11-16T12:00	15950	102	-60.6	-84.1	246	15	
2025-11-16T12:00	16000	101	-60.6	-84.1	246	14	
2025-11-16T12:00	16050	100	-60.3	-84.3	241	13	
2025-11-16T12:00	16100	99	-59.8	-83.5	237	14	
2025-11-16T12:00	16150	98	-59.8	-83.8	238	13	
2025-11-16T12:00	16200	98	-60.0	-84.4	241	14	
2025-11-16T12:00	16250	97	-60.1	-84.5	241	15	
2025-11-16T12:00	16300	96	-60.1	-84.3	241	15	
2025-11-16T12:00	16350	95	-60.5	-84.5	240	15	
2025-11-16T12:00	16400	94	-60.5	-84.7	243	15	
2025-11-16T12:00	16450	94	-60.3	-84.8	247	15	
2025-11-16T12:00	16500	93	-60.4	-84.4	249	15	
2025-11-16T12:00	16550	92	-60.5	-84.0	248	16	
2025-11-16T12:00	16600	91	-60.8	-84.7	250	17	
2025-11-16T12:00	16650	91	-61.1	-85.0	251	19	
2025-11-16T12:00	16700	90	-61.0	-84.9	250	20	
2025-11-16T12:00	16750	89	-60.2	-84.9	250	20	
2025-11-16T12:00	16800	89	-60.2	-85.1	252	20	
2025-11-16T12:00	16850	88	-60.5	-85.1	254	19	
2025-11-16T12:00	16900	87	-60.7	-85.1	254	19	
2025-11-16T12:00	16950	86	-61.0	-85.1	253	18	
2025-11-16T12:00	17000	86	-61.1	-85.2	254	18	
2025-11-16T12:00	17050	85	-61.5	-85.2	254	18	
2025-11-16T12:00	17100	84	-61.8	-85.3	252	18	
2025-11-16T12:00	17150	84	-62.0	-85.2	255	17	
2025-11-16T12:00	17200	83	-61.9	-84.2	259	17	
2025-11-16T12:00	17250	82	-62.3	-84.8	261	17	
2025-11-16T12:00	17300	82	-62.7	-85.6	263	17	
2025-11-16T12:00	17350	81	-62.9	-85.8	265	17	
2025-11-16T12:00	17400	80	-63.1	-85.8	267	16	
2025-11-16T12:00	17450	80	-63.4	-85.8	268	15	
2025-11-16T12:00	17500	79	-63.6	-86.2	267	15	
2025-11-16T12:00	17550	78	-63.3	-86.2	264	15	
2025-11-16T12:00	17600	78	-62.6	-85.7	261	15	
2025-11-16T12:00	17650	77	-62.3	-85.8	260	14	
2025-11-16T12:00	17700	77	-62.6	-86.0	259	14	
2025-11-16T12:00	17750	76	-63.1	-85.7	256	14	
2025-11-16T12:00	17800	75	-63.4	-85.7	252	14	
2025-11-16T12:00	17850	75	-63.3	-85.3	249	15	
2025-11-16T12:00	17900	74	-63.3	-85.2	248	15	
2025-11-16T12:00	17950	74	-63.4	-85.0	249	14	
2025-11-16T12:00	18000	73	-63.3	-86.1	250	14	
2025-11-16T12:00	18050	72	-62.9	-86.4	254	14	
2025-11-16T12:00	18100	72	-62.3	-85.7	260	15	
2025-11-16T12:00	18150	71	-62.4	-85.7	263	16	
2025-11-16T12:00	18200	71	-62.8	-85.9	263	16	
2025-11-16T12:00	18250	70	-63.0	-85.8	265	15	
2025-11-16T12:00	18300	69	-62.8	-84.7	266	14	
2025-11-16T12:00	18350	69	-62.4	-84.5	266	13	
2025-11-16T12:00	18400	68	-62.6	-86.1	265	13	
2025-11-16T12:00	18450	68	-62.8	-86.5	263	14	
2025-11-16T12:00	18500	67	-62.5	-86.5	261	14	
2025-11-16T12:00	18550	67	-62.4	-86.3	260	14	
2025-11-16T12:00	18600	66	-62.8	-85.8	258	14	
2025-11-16T12:00	18650	66	-63.0	-85.8	256	14	
2025-11-16T12:00	18700	65	-63.5	-86.4	257	14	
2025-11-16T12:00	18750	65	-63.9	-86.7	256	13	
2025-11-16T12:00	18800	64	-63.9	-86.8	254	12	
2025-11-16T12:00	18850	64	-63.7	-86.9	253	12	
2025-11-16T12:00	18900	63	-64.0	-86.9	250	11	
2025-11-16T12:00	18950	62	-64.4	-87.0	248	12	
2025-11-16T12:00	19000	62	-64.7	-87.2	244	12	
2025-11-16T12:00	19050	61	-64.8	-86.8	241	14	
2025-11-16T12:00	19100	61	-64.8	-86.5	242	15	
2025-11-16T12:00	19150	60	-64.0	-86.7	242	16	
2025-11-16T12:00	19200	60	-64.3	-87.2	240	16	
2025-11-16T12:00	19250	60	-64.0	-87.0	238	16	
2025-11-16T12:00	19300	59	-63.4	-87.1	238	16	
2025-11-16T12:00	19350	59	-63.0	-87.2	239	17	
2025-11-16T12:00	19400	58	-62.3	-86.5	244	17	
2025-11-16T12:00	19450	58	-62.3	-85.9	250	17	
2025-11-16T12:00	19500	57	-62.2	-86.0	254	16	
2025-11-16T12:00	19550	57	-62.3	-86.4	255	17	
2025-11-16T12:00	19600	56	-62.4	-86.6	256	17	
2025-11-16T12:00	19650	56	-62.7	-86.6	259	18	
2025-11-16T12:00	19700	55	-62.9	-86.6	263	18	
2025-11-16T12:00	19750	55	-63.0	-86.8	267	18	
2025-11-16T12:00	19800	54	-63.2	-86.9	268	18	
2025-11-16T12:00	19850	54	-63.3	-86.9	267	19	
2025-11-16T12:00	19900	54	-63.2	-86.5	267	19	
2025-11-16T12:00	19950	53	-63.5	-86.4	267	19	
2025-11-16T12:00	20000	53	-63.5	-86.3	267	19	
2025-11-16T12:00	20050	52	-63.6		266	19	
2025-11-16T12:00	20100	52	-63.7		266	18	
2025-11-16T12:00	20150	51	-63.7		266	19	
2025-11-16T12:00	20200	51	-63.5		268	19	
2025-11-16T12:00	20250	51	-63.4		270	19	
2025-11-16T12:00	20300	50	-63.6		271	19	
2025-11-16T12:00	20350	50	-63.6		270	20	
2025-11-16T12:00	20400	49	-63.6		268	20	
2025-11-16T12:00	20450	49	-63.9		269	20	
2025-11-16T12:00	20500	49	-64.0		270	19	
2025-11-16T12:00	20550	48	-64.5		271	18	
2025-11-16T12:00	20600	48	-64.5		274	18	
2025-11-16T12:00	20650	47	-64.7		276	18	
2025-11-16T12:00	20700	47	-65.1		277	17	
2025-11-16T12:00	20750	47	-65.3		274	17	
2025-11-16T12:00	20800	46	-65.4		270	18	
2025-11-16T12:00	20850	46	-65.8		265	18	
2025-11-16T12:00	20900	45	-65.9		266	19	
2025-11-16T12:00	20950	45	-65.6		270	20	
2025-11-16T12:00	21000	45	-65.2		275	21	
2025-11-16T12:00	21050	44	-65.0		278	21	
2025-11-16T12:00	21100	44	-65.0		281	20	
2025-11-16T12:00	21150	44	-65.1		285	19	
2025-11-16T12:00	21200	43	-65.2		288	19	
2025-11-16T12:00	21250	43	-65.2		289	18	
2025-11-16T12:00	21300	43	-65.2		288	18	
2025-11-16T12:00	21350	42	-65.4		287	17	
2025-11-16T12:00	21400	42	-65.7		288	16	
2025-11-16T12:00	21450	42	-65.8		288	15	
2025-11-16T12:00	21500	41	-65.7		288	15	
2025-11-16T12:00	21550	41	-65.4		286	16	
2025-11-16T12:00	21600	41	-65.3		282	15	
2025-11-16T12:00	21650	40	-65.0		276	14	
2025-11-16T12:00	21700	40	-65.1		272	14	
2025-11-16T12:00	21750	40	-65.3		274	14	
2025-11-16T12:00	21800	39	-65.2		278	14	
2025-11-16T12:00	21850	39	-65.0		280	14	
2025-11-16T12:00	21900	39	-65.1		276	14	
2025-11-16T12:00	21950	38	-64.7		269	13	
2025-11-16T12:00	22000	38	-64.6		263	12	
2025-11-16T12:00	22050	38	-64.6		260	11	
2025-11-16T12:00	22100	37	-64.8		258	11	
2025-11-16T12:00	22150	37	-64.9		257	12	
2025-11-16T12:00	22200	37	-65.1		255	13	
2025-11-16T12:00	22250	36	-65.4		254	14	
2025-11-16T12:00	22300	36	-65.5		255	14	
2025-11-16T12:00	22350	36	-65.5		255	15	
2025-11-16T12:00	22400	36	-65.7		253	15	
2025-11-16T12:00	22450	35	-65.8		254	15	
2025-11-16T12:00	22500	35	-66.0		258	14	
2025-11-16T12:00	22550	35	-66.4		265	14	
2025-11-16T12:00	22600	34	-66.5		272	14	
2025-11-16T12:00	22650	34	-66.7		276	13	
2025-11-16T12:00	22700	34	-65.8		269	13	
2025-11-16T12:00	22750	34	-65.3		259	13	
2025-11-16T12:00	22800	33	-65.4		250	15	
2025-11-16T12:00	22850	33	-65.5		248	16	
2025-11-16T12:00	22900	33	-65.2		257	16	
2025-11-16T12:00	22950	32	-64.8		266	15	
2025-11-16T12:00	23000	32	-64.2		266	14	
2025-11-16T12:00	23050	32	-64.4		265	14	
2025-11-16T12:00	23100	32	-64.9		263	13	
2025-11-16T12:00	23150	31	-65.2		263	12	
2025-11-16T12:00	23200	31	-65.4		267	12	
2025-11-16T12:00	23250	31	-65.7		271	11	
2025-11-16T12:00	23300	31	-65.6		270	12	
2025-11-16T12:00	23350	30	-65.4		267	12	
2025-11-16T12:00	23400	30	-65.5		266	13	
2025-11-16T12:00	23450	30	-65.7		264	14	
2025-11-16T12:00	23500	30	-66.1		260	15	
2025-11-16T12:00	23550	29	-66.2		255	16	
2025-11-16T12:00	23600	29	-65.8		251	17	
2025-11-16T12:00	23650	29	-65.6		247	18	
2025-11-16T12:00	23700	29	-65.7		246	19	
2025-11-16T12:00	23750	28	-65.5		248	21	
2025-11-16T12:00	23800	28	-65.5		254	21	
2025-11-16T12:00	23850	28	-65.5		261	21	
2025-11-16T12:00	23900	28	-65.5		267	21	
2025-11-16T12:00	23950	28	-65.7		271	21	
2025-11-16T12:00	24000	27	-66.2		274	21	
2025-11-16T12:00	24050	27	-66.6		277	21	
2025-11-16T12:00	24100	27	-67.0		283	22	
2025-11-16T12:00	24150	27	-66.9		289	22	
2025-11-16T12:00	24200	26	-66.6		294	21	
2025-11-16T12:00	24250	26	-66.7		297	20	
2025-11-16T12:00	24300	26	-66.9		298	19	
2025-11-16T12:00	24350	26	-67.0		296	17	
2025-11-16T12:00	24400	26	-67.1		293	16	
2025-11-16T12:00	24450	25	-67.1		290	15	
2025-11-16T12:00	24500	25	-67.2		287	13	
2025-11-16T12:00	24550	25	-67.3		283	13	
2025-11-16T12:00	24600	25	-66.9		280	13	
2025-11-16T12:00	24650	25	-66.1		276	12	
2025-11-16T12:00	24700	24	-65.8		272	12	
2025-11-16T12:00	24750	24	-65.9		274	13	
2025-11-16T12:00	24800	24	-65.9		277	12	
2025-11-16T12:00	24850	24	-66.2		275	12	
2025-11-16T12:00	24900	24	-66.2		274	12	
2025-11-16T12:00	24950	23	-66.3		275	13	
2025-11-16T12:00	25000	23	-66.3		273	13	
2025-11-16T12:00	25050	23	-66.0		272	14	
2025-11-16T12:00	25100	23	-65.7		274	16	
2025-11-16T12:00	25150	23	-65.7		274	17	
2025-11-16T12:00	25200	22	-65.6		271	17	
2025-11-16T12:00	25250	22	-65.4		269	17	
2025-11-16T12:00	25300	22	-65.3		269	16	
2025-11-16T12:00	25350	22	-65.4		268	16	
2025-11-16T12:00	25400	22	-65.9		266	16	
2025-11-16T12:00	25450	21	-66.3		263	16	
2025-11-16T12:00	25500	21	-66.6		260	16	
2025-11-16T12:00	25550	21	-66.8		257	16	
2025-11-16T12:00	25600	21	-67.1		255	17	
2025-11-16T12:00	25650	21	-67.0		255	18	
2025-11-16T12:00	25700	21	-66.9		257	19	
2025-11-16T12:00	25750	20	-67.1		258	20	
2025-11-16T12:00	25800	20	-67.5		260	22	
2025-11-16T12:00	25850	20	-67.7		263	22	
2025-11-16T12:00	25900	20	-67.9		264	22	
2025-11-16T12:00	25950	20	-68.1		263	22	
2025-11-16T12:00	26000	20	-68.0		260	21	
2025-11-16T12:00	26050	19	-67.9		257	20	
2025-11-16T12:00	26100	19	-67.9		255	20	
2025-11-16T12:00	26150	19	-67.7		252	21	
2025-11-16T12:00	26200	19	-67.6		249	22	
2025-11-16T12:00	26250	19	-67.8		248	23	
2025-11-16T12:00	26300	19	-67.9		250	25	
2025-11-16T12:00	26350	19	-67.8		252	27	
2025-11-16T12:00	26400	18	-67.5		252	27	
2025-11-16T12:00	26450	18	-66.7		250	27	
2025-11-16T12:00	26500	18	-66.3		252	28	
2025-11-16T12:00	26550	18	-65.9		255	27	
2025-11-16T12:00	26600	18	-65.8		258	27	
2025-11-16T12:00	26650	18	-65.9		261	27	
2025-11-16T12:00	26700	17	-66.2		264	27	
2025-11-16T12:00	26750	17	-66.1		266	27	
2025-11-16T12:00	26800	17	-65.8		265	27	
2025-11-16T12:00	26850	17	-65.9		263	27	
2025-11-16T12:00	26900	17	-66.0		261	28	
2025-11-16T12:00	26950	17	-65.5		260	28	
2025-11-16T12:00	27000	17	-64.9		262	28	
2025-11-16T12:00	27050	16	-64.5		265	28	
2025-11-16T12:00	27100	16	-64.8		268	28	
2025-11-16T12:00	27150	16	-65.2		270	28	
2025-11-16T12:00	27200	16	-65.7		272	29	
2025-11-16T12:00	27250	16	-66.1		272	29	
2025-11-16T12:00	27300	16	-66.0		270	30	
2025-11-16T12:00	27350	16	-65.5		271	29	
2025-11-16T12:00	27400	16	-65.5		273	28	
2025-11-16T12:00	27450	15	-65.8		274	27	
2025-11-16T12:00	27500	15	-65.8		275	26	
2025-11-16T12:00	27550	15	-65.5		274	25	
2025-11-16T12:00	27600	15	-65.2		271	26	
2025-11-16T12:00	27650	15	-64.6		267	27	
2025-11-16T12:00	27700	15	-64.5		263	29	
2025-11-16T12:00	27750	15	-64.3		260	30	
2025-11-16T12:00	27800	15	-63.7		258	31	
2025-11-16T12:00	27850	14	-63.1		259	31	
2025-11-16T12:00	27900	14	-63.1		260	31	
2025-11-16T12:00	27950	14	-63.4		262	30	
2025-11-16T12:00	28000	14	-63.7		264	29	
2025-11-16T12:00	28050	14	-63.9		265	29	
2025-11-16T12:00	28100	14	-64.0		263	29	
2025-11-16T12:00	28150	14	-64.1		260	29	
2025-11-16T12:00	28200	14	-64.4		261	29	
2025-11-16T12:00	28250	14	-64.8		263	29	
2025-11-16T12:00	28300	13	-65.2		263	29	
2025-11-16T12:00	28350	13	-65.3		262	29	
2025-11-16T12:00	28400	13	-65.2		260	29	
2025-11-16T12:00	28450	13	-65.5		257	29	
2025-11-16T12:00	28500	13	-65.5		257	29	
2025-11-16T12:00	28550	13	-65.2		258	29	
2025-11-16T12:00	28600	13	-65.2		260	29	
2025-11-16T12:00	28650	13	-65.4		261	30	
2025-11-16T12:00	28700	13	-65.5		262	31	
2025-11-16T12:00	28750	12	-65.6		263	32	
2025-11-16T12:00	28800	12	-65.5		262	34	
2025-11-16T12:00	28850	12	-65.4		261	35	
2025-11-16T12:00	28900	12	-64.9		260	35	
2025-11-16T12:00	28950	12	-65.0		258	34	
2025-11-16T12:00	29000	12	-64.9		257	34	
2025-11-16T12:00	29050	12	-65.0		257	33	
2025-11-16T12:00	29100	12	-65.1		258	32	
2025-11-16T12:00	29150	12	-65.3		259	31	
2025-11-16T12:00	29200	12	-65.4		259	31	
2025-11-16T12:00	29250	11	-65.3		257	31	
2025-11-16T12:00	29300	11	-65.2		257	31	
2025-11-16T12:00	29350	11	-64.7		258	31	
2025-11-16T12:00	29400	11	-64.6		258	32	
2025-11-16T12:00	29450	11	-64.7		256	33	
2025-11-16T12:00	29500	11	-64.8		254	35	
2025-11-16T12:00	29550	11	-64.9		253	37	
2025-11-16T12:00	29600	11	-65.1		253	39	
2025-11-16T12:00	29650	11	-65.0		252	41	
2025-11-16T12:00	29700	11	-65.1		253	42	
2025-11-16T12:00	29750	11	-65.2		254	43	
2025-11-16T12:00	29800	11	-65.1		255	43	
2025-11-16T12:00	29850	10	-64.8		256	42	
2025-11-16T12:00	29900	10	-64.8		256	42	
2025-11-16T12:00	29950	10	-65.1		256	41	
2025-11-16T12:00	30000	10	-65.0		255	41	
2025-11-16T12:00	30050	10	-65.1		254	41	
2025-11-16T12:00	30100	10	-65.2		254	41	
2025-11-16T12:00	30150	10	-65.2		253	40	
2025-11-16T12:00	30200	10	-65.0		253	39	
2025-11-16T12:00	30250	10	-64.7		254	38	
2025-11-16T12:00	30300	10	-64.8		256	37	
2025-11-16T12:00	30350	10	-64.8		257	37	
2025-11-16T12:00	30400	10	-64.5		257	38	
2025-11-16T12:00	30450	9	-64.6		257	38	
2025-11-16T12:00	30500	9	-64.7		257	39	
2025-11-16T12:00	30550	9	-64.7		257	39	
2025-11-16T12:00	30600	9	-64.6		258	39	
2025-11-16T12:00	30650	9	-64.5		257	39	
2025-11-16T12:00	30700	9	-64.5		256	39	
2025-11-16T12:00	30750	9	-64.2		255	40	
2025-11-16T12:00	30800	9	-64.0		255	40	
2025-11-16T12:00	30850	9	-63.9		255	41	
2025-11-16T12:00	30900	9	-63.8		258	42	
2025-11-16T12:00	30950	9	-63.8		260	42	
2025-11-16T12:00	31000	9	-63.9		264	43	
2025-11-16T12:00	31050	9	-63.9		267	43	
2025-11-16T12:00	31100	8	-64.0		268	43	
2025-11-16T12:00	31150	8	-63.7		267	44	
2025-11-16T12:00	31200	8	-63.3		265	44	
2025-11-16T12:00	31250	8	-63.4		263	44	
2025-11-16T12:00	31300	8	-63.4		261	43	
2025-11-16T12:00	31350	8	-63.3		259	43	
2025-11-16T12:00	31400	8	-63.1		258	43	
2025-11-16T12:00	31450	8	-62.7		258	44	
2025-11-16T12:00	31500	8	-62.4		259	45	
2025-11-16T12:00	31550	8	-62.4		260	46	
2025-11-16T12:00	31600	8	-62.6		262	47	
2025-11-16T12:00	31650	8	-62.9		263	48	
2025-11-16T12:00	31700	8	-63.1		265	49	
2025-11-16T12:00	31750	8	-63.4		266	50	
2025-11-16T12:00	31800	8	-63.4		267	50	
2025-11-16T12:00	31850	8	-62.9		266	49	
2025-11-16T12:00	31900	7	-62.5		265	48	
2025-11-16T12:00	31950	7	-62.2		264	46	
2025-11-16T12:00	32000	7	-62.0		264	46	
2025-11-16T12:00	32050	7	-61.8		263	47	
2025-11-16T12:00	32100	7	-61.5		264	49	
2025-11-16T12:00	32150	7	-61.3		264	51	
2025-11-16T12:00	32200	7	-60.9		264	52	
2025-11-16T12:00	32250	7	-60.7		264	53	
2025-11-16T12:00	32300	7	-60.7		264	52	
2025-11-16T12:00	32350	7	-60.8		264	51	
2025-11-16T12:00	32400	7	-60.8		264	51	
2025-11-16T12:00	32450	7	-61.0		264	51	
2025-11-16T12:00	32500	7	-60.8		264	52	
2025-11-16T12:00	32550	7	-60.6		264	52	
2025-11-16T12:00	32600	7	-60.3		264	52	
2025-11-16T12:00	32650	7	-59.9		263	53	
2025-11-16T12:00	32700	7	-58.7		261	55	
2025-11-16T12:00	32750	6	-57.3		261	58	
2025-11-16T12:00	32800	6	-56.0		260	60	
2025-11-16T12:00	32850	6	-55.1		259	60	
2025-11-16T12:00	32900	6	-54.6		258	59	
2025-11-16T12:00	32950	6	-54.4		260	59	
2025-11-16T12:00	33000	6	-54.2		261	60	
2025-11-16T12:00	33050	6	-54.1		261	62	
2025-11-16T12:00	33100	6	-53.7		261	63	
2025-11-16T12:00	33150	6	-53.5		261	63	
2025-11-16T12:00	33200	6	-53.4		262	62	
2025-11-16T12:00	33250	6	-53.3		262	61	
2025-11-16T12:00	33300	6	-53.4		262	61	
2025-11-16T12:00	33350	6	-53.4		261	61	
2025-11-17T00:00	491	951	5.8	5.8	174	1	
2025-11-17T00:00	501	949	7.0	6.7	114	1	
2025-11-17T00:00	520	947	7.7	6.9	97	1	
2025-11-17T00:00	540	945	8.0	7.1	95	1	
2025-11-17T00:00	560	943	8.1	7.3	93	1	
2025-11-17T00:00	580	941	8.0	7.3	90	1	
2025-11-17T00:00	600	938	8.1	6.9	86	1	
2025-11-17T00:00	620	936	8.1	6.8	83	0	
2025-11-17T00:00	640	934	8.0	6.6	82	0	
2025-11-17T00:00	660	932	7.9	6.4	168	0	
2025-11-17T00:00	680	929	7.8	6.3	254	0	
2025-11-17T00:00	700	927	7.7	6.2	255	0	
2025-11-17T00:00	720	925	7.7	6.1	256	1	
2025-11-17T00:00	740	923	7.6	6.0	256	1	
2025-11-17T00:00	760	920	7.6	5.9	255	1	
2025-11-17T00:00	780	918	7.5	5.9	252	2	
2025-11-17T00:00	800	916	7.4	5.9	248	2	
2025-11-17T00:00	820	914	7.3	5.7	244	3	
2025-11-17T00:00	840	912	7.4	5.5	238	3	
2025-11-17T00:00	860	909	7.5	5.3	233	4	
2025-11-17T00:00	880	907	7.6	5.2	228	5	
2025-11-17T00:00	900	905	7.8	4.9	225	5	
2025-11-17T00:00	920	903	7.9	4.7	223	6	
2025-11-17T00:00	940	901	7.8	4.7	222	6	
2025-11-17T00:00	960	898	7.6	4.6	224	6	
2025-11-17T00:00	980	896	7.5	4.6	226	7	
2025-11-17T00:00	1000	894	7.3	4.5	229	7	
2025-11-17T00:00	1020	892	7.2	4.4	233	7	
2025-11-17T00:00	1040	890	7.1	4.3	236	7	
2025-11-17T00:00	1060	888	7.3	3.9	239	6	
2025-11-17T00:00	1080	885	7.3	3.9	241	6	
2025-11-17T00:00	1100	883	7.3	3.9	243	6	
2025-11-17T00:00	1120	881	7.1	3.9	243	6	
2025-11-17T00:00	1140	879	7.0	4.0	244	6	
2025-11-17T00:00	1160	877	6.9	4.0	245	5	
2025-11-17T00:00	1180	875	7.1	3.9	245	5	
2025-11-17T00:00	1200	872	7.0	3.9	248	6	
2025-11-17T00:00	1220	870	6.9	3.9	249	6	
2025-11-17T00:00	1240	868	6.7	3.9	251	6	
2025-11-17T00:00	1260	866	6.6	3.8	254	6	
2025-11-17T00:00	1280	864	6.4	3.8	256	7	
2025-11-17T00:00	1300	862	6.4	3.4	258	7	
2025-11-17T00:00	1320	860	6.3	3.0	260	7	
2025-11-17T00:00	1340	858	6.2	3.0	261	7	
2025-11-17T00:00	1360	856	6.1	2.8	262	7	
2025-11-17T00:00	1380	854	5.9	2.7	263	8	
2025-11-17T00:00	1400	852	5.8	2.7	263	7	
2025-11-17T00:00	1420	850	5.6	2.5	262	7	
2025-11-17T00:00	1440	847	5.4	2.6	261	7	
2025-11-17T00:00	1460	846	5.2	2.6	258	7	
2025-11-17T00:00	1480	843	5.0	2.6	256	7	
2025-11-17T00:00	1500	841	4.8	2.6	254	7	
2025-11-17T00:00	1520	839	4.7	2.5	254	7	
2025-11-17T00:00	1540	837	4.5	2.6	255	7	
2025-11-17T00:00	1560	835	4.3	2.5	256	7	
2025-11-17T00:00	1580	833	4.1	2.4	259	7	
2025-11-17T00:00	1600	831	4.0	2.3	260	7	
2025-11-17T00:00	1620	829	3.8	2.1	261	7	
2025-11-17T00:00	1640	827	3.6	2.1	260	7	
2025-11-17T00:00	1660	825	3.5	1.8	258	7	
2025-11-17T00:00	1680	823	3.4	1.4	254	7	
2025-11-17T00:00	1700	821	3.3	1.3	251	7	
2025-11-17T00:00	1720	819	3.2	0.8	248	7	
2025-11-17T00:00	1740	817	3.1	0.5	245	7	
2025-11-17T00:00	1760	815	3.0	0.4	243	7	
2025-11-17T00:00	1780	813	2.8	0.4	243	7	
2025-11-17T00:00	1800	811	2.7	0.4	243	6	
2025-11-17T00:00	1820	809	2.5	0.3	244	6	
2025-11-17T00:00	1840	807	2.3	0.3	245	7	
2025-11-17T00:00	1860	805	2.1	0.1	246	7	
2025-11-17T00:00	1880	803	2.0	0.1	246	7	
2025-11-17T00:00	1900	801	1.8	0.1	247	7	
2025-11-17T00:00	1920	799	1.6	0.1	247	7	
2025-11-17T00:00	1940	797	1.4	-0.1	248	7	
2025-11-17T00:00	1960	795	1.3	-0.1	248	7	
2025-11-17T00:00	1980	793	1.1	-0.2	249	7	
2025-11-17T00:00	2000	791	1.0	-0.3	250	7	
2025-11-17T00:00	2020	789	0.9	-0.5	251	7	
2025-11-17T00:00	2040	787	0.8	-0.7	251	7	
2025-11-17T00:00	2060	785	0.6	-0.7	251	6	
2025-11-17T00:00	2080	783	0.5	-1.0	250	6	
2025-11-17T00:00	2100	781	0.4	-1.3	247	6	
2025-11-17T00:00	2120	779	0.3	-1.5	243	6	
2025-11-17T00:00	2140	777	0.2	-1.7	239	6	
2025-11-17T00:00	2160	775	0.0	-1.7	238	6	
2025-11-17T00:00	2180	773	-0.1	-1.8	238	6	
2025-11-17T00:00	2200	772	-0.2	-1.9	240	7	
2025-11-17T00:00	2220	770	-0.3	-2.0	242	8	
2025-11-17T00:00	2240	768	-0.2	-2.1	243	8	
2025-11-17T00:00	2260	766	-0.2	-2.2	245	9	
2025-11-17T00:00	2280	764	-0.3	-2.3	245	9	
2025-11-17T00:00	2300	762	-0.5	-2.3	245	10	
2025-11-17T00:00	2320	760	-0.6	-2.5	245	10	
2025-11-17T00:00	2340	758	-0.7	-2.5	245	11	
2025-11-17T00:00	2360	756	-0.9	-2.5	244	11	
2025-11-17T00:00	2380	754	-1.1	-2.5	244	11	
2025-11-17T00:00	2400	752	-1.3	-2.5	244	11	
2025-11-17T00:00	2420	751	-1.4	-2.6	244	11	
2025-11-17T00:00	2440	749	-1.6	-2.6	244	12	
2025-11-17T00:00	2460	747	-1.8	-2.6	244	12	
2025-11-17T00:00	2480	745	-2.0	-2.6	244	12	
2025-11-17T00:00	2500	743	-2.1	-2.5	244	12	
2025-11-17T00:00	2520	741	-2.3	-2.6	244	12	
2025-11-17T00:00	2540	739	-2.5	-2.7	242	12	
2025-11-17T00:00	2560	737	-2.6	-2.7	241	12	
2025-11-17T00:00	2580	736	-2.8	-2.8	239	12	
2025-11-17T00:00	2600	734	-2.9	-2.9	237	12	
2025-11-17T00:00	2620	732	-3.0	-3.0	236	12	
2025-11-17T00:00	2640	730	-3.1	-3.1	234	12	
2025-11-17T00:00	2660	728	-3.3	-3.3	233	12	
2025-11-17T00:00	2680	726	-3.4	-3.5	232	13	
2025-11-17T00:00	2700	724	-3.5	-3.6	230	13	
2025-11-17T00:00	2720	722	-3.7	-3.8	230	13	
2025-11-17T00:00	2740	721	-3.8	-4.3	229	13	
2025-11-17T00:00	2760	719	-3.8	-4.4	229	13	
2025-11-17T00:00	2780	717	-4.0	-4.4	229	13	
2025-11-17T00:00	2800	715	-4.2	-4.4	229	12	
2025-11-17T00:00	2820	714	-4.4	-4.5	229	12	
2025-11-17T00:00	2840	712	-4.6	-4.6	229	12	
2025-11-17T00:00	2860	710	-4.7	-4.7	229	12	
2025-11-17T00:00	2880	708	-4.8	-4.8	229	12	
2025-11-17T00:00	2900	706	-5.0	-5.0	229	12	
2025-11-17T00:00	2920	705	-5.1	-5.1	229	11	
2025-11-17T00:00	2940	703	-5.2	-5.2	230	11	
2025-11-17T00:00	2960	701	-5.3	-5.3	230	11	
2025-11-17T00:00	2980	699	-5.5	-5.5	232	11	
2025-11-17T00:00	3000	697	-5.6	-5.6	234	11	
2025-11-17T00:00	3020	696	-5.8	-5.8	236	11	
2025-11-17T00:00	3040	694	-6.0	-6.0	237	10	
2025-11-17T00:00	3060	692	-5.9	-7.0	239	10	
2025-11-17T00:00	3080	690	-5.6	-8.2	239	10	
2025-11-17T00:00	3100	689	-5.6	-8.5	239	10	
2025-11-17T00:00	3120	687	-5.5	-8.9	239	9	
2025-11-17T00:00	3140	685	-5.5	-9.2	239	9	
2025-11-17T00:00	3160	683	-5.4	-9.4	241	8	
2025-11-17T00:00	3180	682	-5.5	-9.6	242	8	
2025-11-17T00:00	3200	680	-5.5	-9.9	243	7	
2025-11-17T00:00	3220	678	-5.6	-10.1	243	7	
2025-11-17T00:00	3240	676	-5.7	-10.3	244	7	
2025-11-17T00:00	3260	675	-5.7	-10.9	246	7	
2025-11-17T00:00	3280	673	-5.7	-11.4	248	7	
2025-11-17T00:00	3300	671	-5.8	-12.2	250	8	
2025-11-17T00:00	3320	670	-5.8	-12.8	252	9	
2025-11-17T00:00	3340	668	-6.0	-13.2	252	10	
2025-11-17T00:00	3360	666	-6.1	-13.4	251	11	
2025-11-17T00:00	3380	665	-6.3	-13.6	248	11	
2025-11-17T00:00	3400	663	-6.5	-13.7	245	11	
2025-11-17T00:00	3420	661	-6.7	-13.8	242	11	
2025-11-17T00:00	3440	659	-6.8	-14.0	240	10	
2025-11-17T00:00	3460	658	-7.0	-14.2	239	10	
2025-11-17T00:00	3480	656	-7.0	-14.5	238	10	
2025-11-17T00:00	3500	654	-7.2	-14.8	238	9	
2025-11-17T00:00	3520	653	-7.2	-15.0	238	9	
2025-11-17T00:00	3540	651	-7.3	-15.1	238	8	
2025-11-17T00:00	3560	649	-7.4	-15.4	238	8	
2025-11-17T00:00	3580	648	-7.5	-15.6	237	8	
2025-11-17T00:00	3600	646	-7.6	-15.7	235	8	
2025-11-17T00:00	3620	644	-7.7	-15.9	234	7	
2025-11-17T00:00	3640	643	-7.8	-16.2	232	8	
2025-11-17T00:00	3660	641	-8.0	-16.3	232	8	
2025-11-17T00:00	3680	639	-8.2	-16.5	232	8	
2025-11-17T00:00	3700	638	-8.3	-16.6	233	8	
2025-11-17T00:00	3720	636	-8.4	-16.9	233	9	
2025-11-17T00:00	3740	634	-8.6	-17.0	233	9	
2025-11-17T00:00	3760	633	-8.7	-17.1	233	9	
2025-11-17T00:00	3780	631	-8.9	-17.2	232	8	
2025-11-17T00:00	3800	630	-9.1	-17.3	230	8	
2025-11-17T00:00	3820	628	-9.2	-17.5	229	8	
2025-11-17T00:00	3840	626	-9.3	-17.7	228	7	
2025-11-17T00:00	3860	625	-9.5	-17.9	227	7	
2025-11-17T00:00	3880	623	-9.6	-18.1	227	7	
2025-11-17T00:00	3900	621	-9.8	-18.3	227	7	
2025-11-17T00:00	3920	620	-9.9	-18.4	228	8	
2025-11-17T00:00	3940	618	-10.0	-18.8	229	8	
2025-11-17T00:00	3960	617	-10.1	-19.0	230	9	
2025-11-17T00:00	3980	615	-10.3	-19.5	231	9	
2025-11-17T00:00	4000	614	-10.4	-19.8	232	9	
2025-11-17T00:00	4020	612	-10.6	-19.8	234	9	
2025-11-17T00:00	4040	610	-10.7	-19.9	235	9	
2025-11-17T00:00	4060	608	-10.8	-21.2	236	8	
2025-11-17T00:00	4080	607	-10.9	-22.2	236	8	
2025-11-17T00:00	4100	605	-11.0	-22.6	237	8	
2025-11-17T00:00	4120	604	-11.1	-23.3	237	8	
2025-11-17T00:00	4140	602	-11.2	-24.0	238	8	
2025-11-17T00:00	4160	601	-11.2	-24.8	238	8	
2025-11-17T00:00	4180	599	-11.3	-25.2	239	8	
2025-11-17T00:00	4200	598	-11.4	-25.7	239	8	
2025-11-17T00:00	4220	596	-11.5	-26.1	240	8	
2025-11-17T00:00	4240	594	-11.6	-25.5	239	8	
2025-11-17T00:00	4260	593	-11.8	-24.5	238	7	
2025-11-17T00:00	4280	592	-11.9	-24.5	237	7	
2025-11-17T00:00	4300	590	-12.0	-25.2	235	7	
2025-11-17T00:00	4320	588	-12.2	-25.2	234	7	
2025-11-17T00:00	4340	587	-12.3	-25.6	234	7	
2025-11-17T00:00	4360	585	-12.4	-25.2	235	6	
2025-11-17T00:00	4380	584	-12.6	-25.8	238	6	
2025-11-17T00:00	4400	582	-12.8	-25.3	241	6	
2025-11-17T00:00	4420	581	-12.9	-25.3	244	7	
2025-11-17T00:00	4440	579	-13.0	-25.5	246	7	
2025-11-17T00:00	4460	578	-13.2	-25.6	248	7	
2025-11-17T00:00	4480	576	-13.3	-26.1	249	8	
2025-11-17T00:00	4500	575	-13.4	-26.8	249	8	
2025-11-17T00:00	4520	573	-13.6	-27.5	250	8	
2025-11-17T00:00	4540	572	-13.7	-27.8	250	8	
2025-11-17T00:00	4560	570	-13.9	-28.0	251	8	
2025-11-17T00:00	4580	569	-14.0	-28.8	251	8	
2025-11-17T00:00	4600	567	-14.1	-28.9	252	8	
2025-11-17T00:00	4620	566	-14.3	-29.9	252	7	
2025-11-17T00:00	4640	564	-14.4	-31.1	252	7	
2025-11-17T00:00	4660	563	-14.5	-31.6	251	7	
2025-11-17T00:00	4680	561	-14.7	-31.6	250	7	
2025-11-17T00:00	4700	560	-14.8	-30.7	249	7	
2025-11-17T00:00	4720	558	-14.9	-31.6	248	7	
2025-11-17T00:00	4740	557	-15.0	-31.0	247	7	
2025-11-17T00:00	4760	555	-15.2	-31.0	247	7	
2025-11-17T00:00	4780	554	-15.3	-30.5	246	7	
2025-11-17T00:00	4800	552	-15.5	-28.6	246	7	
2025-11-17T00:00	4820	551	-15.7	-28.3	246	7	
2025-11-17T00:00	4840	549	-15.8	-28.5	245	7	
2025-11-17T00:00	4860	548	-16.0	-29.6	246	7	
2025-11-17T00:00	4880	546	-16.1	-31.7	246	7	
2025-11-17T00:00	4900	545	-16.2	-32.4	249	7	
2025-11-17T00:00	4920	544	-16.4	-33.5	251	7	
2025-11-17T00:00	4940	542	-16.6	-34.0	254	7	
2025-11-17T00:00	4960	541	-16.7	-34.5	255	7	
2025-11-17T00:00	4980	539	-16.8	-34.4	256	7	
2025-11-17T00:00	5000	538	-16.9	-33.3	254	7	
2025-11-17T00:00	5020	536	-16.9	-32.5	251	7	
2025-11-17T00:00	5040	535	-17.0	-33.3	247	8	
2025-11-17T00:00	5060	534	-17.0	-38.9	243	8	
2025-11-17T00:00	5080	532	-17.1	-39.2	239	8	
2025-11-17T00:00	5100	531	-17.2	-33.9	236	8	
2025-11-17T00:00	5120	529	-17.3	-29.3	233	8	
2025-11-17T00:00	5140	528	-17.5	-28.5	231	8	
2025-11-17T00:00	5160	526	-17.7	-28.8	230	7	
2025-11-17T00:00	5180	525	-17.9	-28.8	229	7	
2025-11-17T00:00	5200	524	-18.1	-28.7	228	7	
2025-11-17T00:00	5220	522	-18.3	-28.8	228	7	
2025-11-17T00:00	5240	521	-18.4	-28.7	227	7	
2025-11-17T00:00	5260	519	-18.6	-28.2	225	8	
2025-11-17T00:00	5280	518	-18.8	-28.4	223	8	
2025-11-17T00:00	5300	517	-18.9	-28.5	221	8	
2025-11-17T00:00	5320	515	-19.1	-28.5	218	8	
2025-11-17T00:00	5340	514	-19.3	-28.7	216	8	
2025-11-17T00:00	5360	512	-19.5	-28.7	216	8	
2025-11-17T00:00	5380	511	-19.7	-28.6	217	7	
2025-11-17T00:00	5400	510	-19.8	-28.6	219	7	
2025-11-17T00:00	5420	509	-20.0	-28.7	223	8	
2025-11-17T00:00	5440	507	-20.2	-28.7	227	8	
2025-11-17T00:00	5460	506	-20.4	-28.6	231	8	
2025-11-17T00:00	5480	504	-20.6	-28.7	233	9	
2025-11-17T00:00	5500	503	-20.8	-28.9	235	9	
2025-11-17T00:00	5520	502	-21.0	-29.1	236	9	
2025-11-17T00:00	5540	500	-21.1	-29.1	238	9	
2025-11-17T00:00	5560	499	-21.4	-29.1	238	8	
2025-11-17T00:00	5580	497	-21.6	-29.2	236	8	
2025-11-17T00:00	5600	496	-21.7	-29.2	234	8	
2025-11-17T00:00	5620	495	-21.9	-29.3	231	8	
2025-11-17T00:00	5640	493	-22.1	-29.3	228	8	
2025-11-17T00:00	5660	492	-22.3	-29.4	226	8	
2025-11-17T00:00	5680	491	-22.5	-29.5	225	9	
2025-11-17T00:00	5700	489	-22.7	-29.5	223	9	
2025-11-17T00:00	5720	488	-22.9	-30.0	222	9	
2025-11-17T00:00	5740	487	-23.1	-30.1	222	9	
2025-11-17T00:00	5760	485	-23.3	-30.6	221	9	
2025-11-17T00:00	5780	484	-23.4	-30.7	221	9	
2025-11-17T00:00	5800	483	-23.6	-30.9	221	9	
2025-11-17T00:00	5820	481	-23.8	-31.3	221	9	
2025-11-17T00:00	5840	480	-24.0	-31.4	222	9	
2025-11-17T00:00	5860	479	-24.2	-31.4	221	9	
2025-11-17T00:00	5880	478	-24.3	-31.4	220	9	
2025-11-17T00:00	5900	476	-24.5	-31.4	217	9	
2025-11-17T00:00	5920	475	-24.6	-30.9	215	9	
2025-11-17T00:00	5940	474	-24.8	-30.4	213	9	
2025-11-17T00:00	5960	472	-24.9	-29.7	211	9	
2025-11-17T00:00	5980	471	-24.8	-29.6	210	9	
2025-11-17T00:00	6000	470	-24.8	-29.5	209	9	
2025-11-17T00:00	6020	468	-24.9	-29.2	209	9	
2025-11-17T00:00	6040	467	-24.8	-29.1	209	9	
2025-11-17T00:00	6060	466	-24.9	-29.5	209	9	
2025-11-17T00:00	6080	465	-25.1	-29.6	209	9	
2025-11-17T00:00	6100	463	-25.2	-29.7	208	9	
2025-11-17T00:00	6120	462	-25.4	-29.7	207	8	
2025-11-17T00:00	6140	461	-25.6	-29.9	206	8	
2025-11-17T00:00	6160	460	-25.8	-29.7	205	8	
2025-11-17T00:00	6180	458	-26.0	-29.9	205	9	
2025-11-17T00:00	6200	457	-26.1	-30.0	206	9	
2025-11-17T00:00	6220	456	-26.3	-30.1	207	9	
2025-11-17T00:00	6240	454	-26.4	-30.0	208	9	
2025-11-17T00:00	6260	453	-26.5	-30.1	209	9	
2025-11-17T00:00	6280	452	-26.7	-30.3	210	9	
2025-11-17T00:00	6300	451	-26.8	-30.4	211	9	
2025-11-17T00:00	6320	449	-26.9	-30.5	211	9	
2025-11-17T00:00	6340	448	-27.1	-30.7	213	9	
2025-11-17T00:00	6360	447	-27.3	-31.0	214	9	
2025-11-17T00:00	6380	446	-27.4	-31.2	215	8	
2025-11-17T00:00	6400	444	-27.6	-31.1	217	8	
2025-11-17T00:00	6420	443	-27.7	-31.4	219	9	
2025-11-17T00:00	6440	442	-27.9	-31.7	220	9	
2025-11-17T00:00	6460	441	-28.0	-31.8	220	9	
2025-11-17T00:00	6480	440	-28.2	-31.9	221	9	
2025-11-17T00:00	6500	438	-28.5	-32.1	221	9	
2025-11-17T00:00	6520	437	-28.6	-32.1	221	9	
2025-11-17T00:00	6540	436	-28.8	-31.9	220	9	
2025-11-17T00:00	6560	435	-29.1	-32.0	220	9	
2025-11-17T00:00	6580	433	-29.3	-32.2	219	9	
2025-11-17T00:00	6600	432	-29.4	-32.3	218	9	
2025-11-17T00:00	6620	431	-29.6	-32.4	217	9	
2025-11-17T00:00	6640	430	-29.8	-32.4	216	10	
2025-11-17T00:00	6660	429	-30.0	-32.5	216	10	
2025-11-17T00:00	6680	427	-30.1	-32.7	215	10	
2025-11-17T00:00	6700	426	-30.3	-33.0	215	10	
2025-11-17T00:00	6720	425	-30.5	-33.4	215	11	
2025-11-17T00:00	6740	424	-30.6	-33.7	216	11	
2025-11-17T00:00	6760	423	-30.7	-33.9	217	12	
2025-11-17T00:00	6780	421	-30.8	-34.4	219	12	
2025-11-17T00:00	6800	420	-30.9	-35.0	220	12	
2025-11-17T00:00	6820	419	-31.1	-35.4	221	12	
2025-11-17T00:00	6840	418	-31.2	-35.6	223	12	
2025-11-17T00:00	6860	417	-31.4	-35.7	224	12	
2025-11-17T00:00	6880	416	-31.6	-35.6	224	12	
2025-11-17T00:00	6900	414	-31.8	-35.9	223	12	
2025-11-17T00:00	6920	413	-32.0	-36.4	222	12	
2025-11-17T00:00	6940	412	-32.1	-37.0	220	12	
2025-11-17T00:00	6960	411	-32.3	-37.4	218	13	
2025-11-17T00:00	6980	410	-32.4	-37.8	218	13	
2025-11-17T00:00	7000	409	-32.6	-37.8	217	13	
2025-11-17T00:00	7020	407	-32.8	-38.0	217	13	
2025-11-17T00:00	7040	406	-33.0	-38.2	217	13	
2025-11-17T00:00	7060	405	-33.2	-38.2	217	13	
2025-11-17T00:00	7080	404	-33.3	-38.3	217	13	
2025-11-17T00:00	7100	403	-33.5	-38.8	217	13	
2025-11-17T00:00	7120	402	-33.7	-38.9	217	13	
2025-11-17T00:00	7140	400	-33.9	-39.2	217	14	
2025-11-17T00:00	7160	399	-34.0	-39.3	217	14	
2025-11-17T00:00	7180	398	-34.2	-39.6	218	14	
2025-11-17T00:00	7200	397	-34.4	-40.0	218	14	
2025-11-17T00:00	7220	396	-34.6	-40.4	217	14	
2025-11-17T00:00	7240	395	-34.7	-40.9	217	14	
2025-11-17T00:00	7260	394	-34.9	-41.1	216	14	
2025-11-17T00:00	7280	393	-35.1	-41.1	215	14	
2025-11-17T00:00	7300	391	-35.3	-41.6	214	14	
2025-11-17T00:00	7320	390	-35.4	-41.5	214	14	
2025-11-17T00:00	7340	389	-35.6	-41.6	214	14	
2025-11-17T00:00	7360	388	-35.8	-41.7	215	14	
2025-11-17T00:00	7380	387	-36.0	-41.9	217	14	
2025-11-17T00:00	7400	386	-36.2	-41.9	217	14	
2025-11-17T00:00	7420	385	-36.4	-41.8	217	14	
2025-11-17T00:00	7440	384	-36.6	-41.9	216	15	
2025-11-17T00:00	7460	382	-36.8	-42.2	216	15	
2025-11-17T00:00	7480	381	-37.0	-42.3	216	15	
2025-11-17T00:00	7500	380	-37.2	-42.1	215	15	
2025-11-17T00:00	7520	379	-37.4	-42.2	215	15	
2025-11-17T00:00	7540	378	-37.6	-42.2	215	15	
2025-11-17T00:00	7560	377	-37.7	-42.4	215	15	
2025-11-17T00:00	7580	376	-37.9	-42.8	214	15	
2025-11-17T00:00	7600	375	-38.1	-43.0	214	15	
2025-11-17T00:00	7620	374	-38.3	-43.2	213	15	
2025-11-17T00:00	7640	373	-38.5	-43.5	212	15	
2025-11-17T00:00	7660	372	-38.6	-43.8	212	16	
2025-11-17T00:00	7680	371	-38.8	-43.6	211	16	
2025-11-17T00:00	7700	369	-39.0	-43.6	211	16	
2025-11-17T00:00	7720	368	-39.2	-43.9	210	16	
2025-11-17T00:00	7740	367	-39.4	-43.7	210	15	
2025-11-17T00:00	7760	366	-39.6	-43.8	209	15	
2025-11-17T00:00	7780	365	-39.7	-43.9	209	15	
2025-11-17T00:00	7800	364	-39.9	-43.8	209	16	
2025-11-17T00:00	7820	363	-40.1	-44.1	209	16	
2025-11-17T00:00	7840	362	-40.3	-44.4	208	16	
2025-11-17T00:00	7860	361	-40.5	-44.5	208	17	
2025-11-17T00:00	7880	360	-40.6	-44.8	208	17	
2025-11-17T00:00	7900	359	-40.8	-45.2	208	17	
2025-11-17T00:00	7920	358	-41.0	-45.8	208	17	
2025-11-17T00:00	7940	357	-41.1	-45.8	208	17	
2025-11-17T00:00	7960	356	-41.3	-45.4	207	17	
2025-11-17T00:00	7980	355	-41.4	-45.5	207	17	
2025-11-17T00:00	8000	354	-41.6	-46.0	206	17	
2025-11-17T00:00	8020	352	-41.7	-46.5	204	16	
2025-11-17T00:00	8040	351	-41.9	-46.8	203	16	
2025-11-17T00:00	8060	350	-42.0	-46.8	202	16	
2025-11-17T00:00	8080	349	-42.2	-46.6	201	16	
2025-11-17T00:00	8100	348	-42.3	-46.9	200	17	
2025-11-17T00:00	8120	347	-42.5	-47.9	199	17	
2025-11-17T00:00	8140	346	-42.6	-49.5	199	17	
2025-11-17T00:00	8160	345	-42.7	-50.7	200	17	
2025-11-17T00:00	8180	344	-42.9	-51.2	200	17	
2025-11-17T00:00	8200	343	-43.0	-51.4	200	17	
2025-11-17T00:00	8220	342	-43.2	-51.1	200	17	
2025-11-17T00:00	8240	341	-43.4	-51.3	200	17	
2025-11-17T00:00	8260	340	-43.6	-51.4	199	17	
2025-11-17T00:00	8280	339	-43.8	-51.2	199	17	
2025-11-17T00:00	8300	338	-44.0	-50.9	198	17	
2025-11-17T00:00	8320	337	-44.2	-51.0	198	17	
2025-11-17T00:00	8340	336	-44.3	-50.9	197	17	
2025-11-17T00:00	8360	335	-44.5	-50.8	197	18	
2025-11-17T00:00	8380	334	-44.7	-50.8	197	18	
2025-11-17T00:00	8400	333	-44.9	-51.0	197	17	
2025-11-17T00:00	8420	332	-45.1	-51.2	197	17	
2025-11-17T00:00	8440	331	-45.3	-51.4	198	17	
2025-11-17T00:00	8460	330	-45.5	-51.6	198	17	
2025-11-17T00:00	8480	329	-45.6	-51.5	199	17	
2025-11-17T00:00	8500	328	-45.8	-51.3	199	17	
2025-11-17T00:00	8520	327	-46.0	-51.6	200	17	
2025-11-17T00:00	8540	326	-46.2	-52.1	201	16	
2025-11-17T00:00	8560	325	-46.3	-53.2	202	16	
2025-11-17T00:00	8580	324	-46.5	-54.1	203	16	
2025-11-17T00:00	8600	323	-46.6	-54.4	203	16	
2025-11-17T00:00	8620	322	-46.8	-54.6	204	16	
2025-11-17T00:00	8640	321	-47.0	-54.8	204	16	
2025-11-17T00:00	8660	320	-47.2	-54.9	205	15	
2025-11-17T00:00	8680	319	-47.4	-55.3	205	15	
2025-11-17T00:00	8700	318	-47.5	-55.6	205	15	
2025-11-17T00:00	8720	318	-47.7	-55.9	206	16	
2025-11-17T00:00	8740	317	-47.8	-56.3	206	16	
2025-11-17T00:00	8760	316	-48.0	-56.6	206	16	
2025-11-17T00:00	8780	314	-48.2	-56.5	206	17	
2025-11-17T00:00	8800	314	-48.2	-56.8	206	18	
2025-11-17T00:00	8820	313	-48.2	-57.7	206	18	
2025-11-17T00:00	8840	312	-48.2	-59.2	205	19	
2025-11-17T00:00	8860	311	-48.2	-61.2	205	19	
2025-11-17T00:00	8880	310	-48.2	-62.7	204	20	
2025-11-17T00:00	8900	309	-48.3	-62.7	204	20	
2025-11-17T00:00	8920	308	-48.5	-62.3	203	21	
2025-11-17T00:00	8940	307	-48.6	-62.0	202	21	
2025-11-17T00:00	8960	306	-48.8	-61.9	201	22	
2025-11-17T00:00	8980	305	-48.9	-61.7	200	22	
2025-11-17T00:00	9000	304	-49.1	-61.7	199	22	
2025-11-17T00:00	9020	303	-49.2	-61.7	198	23	
2025-11-17T00:00	9040	302	-49.4	-61.8	198	23	
2025-11-17T00:00	9060	301	-49.6	-61.7	197	24	
2025-11-17T00:00	9080	301	-49.8	-61.4	197	24	
2025-11-17T00:00	9100	300	-50.0	-61.2	197	25	
2025-11-17T00:00	9120	299	-50.2	-61.3	197	25	
2025-11-17T00:00	9140	298	-50.2	-61.3	198	26	
2025-11-17T00:00	9160	297	-50.3	-61.3	198	26	
2025-11-17T00:00	9180	296	-50.5	-61.4	199	26	
2025-11-17T00:00	9200	295	-50.7	-61.5	199	26	
2025-11-17T00:00	9220	294	-50.8	-61.5	200	26	
2025-11-17T00:00	9240	293	-50.8	-61.4	200	26	
2025-11-17T00:00	9260	292	-51.0	-61.3	201	26	
2025-11-17T00:00	9280	291	-51.2	-61.3	201	26	
2025-11-17T00:00	9300	291	-51.4	-61.3	201	27	
2025-11-17T00:00	9320	290	-51.6	-61.3	201	27	
2025-11-17T00:00	9340	289	-51.8	-61.2	201	28	
2025-11-17T00:00	9360	288	-51.9	-61.2	201	28	
2025-11-17T00:00	9380	287	-52.1	-61.4	201	29	
2025-11-17T00:00	9400	286	-52.3	-61.5	202	29	
2025-11-17T00:00	9420	285	-52.5	-61.5	202	29	
2025-11-17T00:00	9440	284	-52.7	-61.4	202	30	
2025-11-17T00:00	9460	283	-52.8	-61.5	202	30	
2025-11-17T00:00	9480	283	-53.0	-61.8	202	30	
2025-11-17T00:00	9500	282	-53.1	-62.0	202	31	
2025-11-17T00:00	9520	281	-53.2	-62.2	202	31	
2025-11-17T00:00	9540	280	-53.4	-62.6	202	31	
2025-11-17T00:00	9560	279	-53.5	-63.0	202	31	
2025-11-17T00:00	9580	278	-53.6	-63.3	202	31	
2025-11-17T00:00	9600	277	-53.7	-63.3	202	31	
2025-11-17T00:00	9620	277	-53.8	-63.0	203	30	
2025-11-17T00:00	9640	276	-54.0	-62.8	203	30	
2025-11-17T00:00	9660	275	-54.1	-62.7	204	30	
2025-11-17T00:00	9680	274	-54.2	-62.8	204	30	
2025-11-17T00:00	9700	273	-54.4	-62.9	205	29	
2025-11-17T00:00	9720	272	-54.5	-63.0	205	29	
2025-11-17T00:00	9740	271	-54.7	-63.1	206	29	
2025-11-17T00:00	9760	270	-54.8	-63.1	206	28	
2025-11-17T00:00	9780	270	-54.9	-63.3	206	27	
2025-11-17T00:00	9800	269	-55.1	-63.8	206	27	
2025-11-17T00:00	9820	268	-55.0	-64.0	205	26	
2025-11-17T00:00	9840	267	-55.2	-64.2	205	26	
2025-11-17T00:00	9860	266	-55.2	-64.5	205	26	
2025-11-17T00:00	9880	265	-55.2	-65.0	205	26	
2025-11-17T00:00	9900	265	-55.2	-65.6	205	25	
2025-11-17T00:00	9920	264	-55.2	-66.2	205	25	
2025-11-17T00:00	9940	263	-55.1	-66.7	204	25	
2025-11-17T00:00	9960	262	-55.2	-67.2	204	24	
2025-11-17T00:00	9980	261	-55.3	-67.5	203	24	
2025-11-17T00:00	10000	260	-55.5	-67.7	203	24	
2025-11-17T00:00	10018	260	-55.6	-68.0	202	24	
2025-11-17T00:00	10050	258	-55.7	-68.6	202	25	
2025-11-17T00:00	10100	256	-55.6	-69.5	202	25	
2025-11-17T00:00	10150	254	-55.6	-70.6	201	26	
2025-11-17T00:00	10200	253	-55.8	-71.1	201	26	
2025-11-17T00:00	10250	250	-56.0	-71.9	201	25	
2025-11-17T00:00	10300	249	-56.0	-72.5	201	24	
2025-11-17T00:00	10350	247	-56.0	-72.5	201	24	
2025-11-17T00:00	10400	245	-56.2	-72.2	203	24	
2025-11-17T00:00	10450	243	-56.7	-72.1	204	24	
2025-11-17T00:00	10500	241	-57.0	-72.1	205	23	
2025-11-17T00:00	10550	239	-57.3	-72.2	207	23	
2025-11-17T00:00	10600	237	-57.3	-72.2	209	22	
2025-11-17T00:00	10650	235	-57.3	-72.5	211	22	
2025-11-17T00:00	10700	233	-57.3	-72.8	212	22	
2025-11-17T00:00	10750	232	-57.4	-73.2	213	23	
2025-11-17T00:00	10800	230	-57.5	-73.8	215	22	
2025-11-17T00:00	10850	228	-57.6	-74.4	216	22	
2025-11-17T00:00	10900	226	-58.0	-74.7	217	21	
2025-11-17T00:00	10950	224	-58.3	-74.6	217	20	
2025-11-17T00:00	11000	223	-58.6	-74.8	217	20	
2025-11-17T00:00	11050	221	-58.7	-74.4	217	19	
2025-11-17T00:00	11100	219	-59.0	-73.8	219	19	
2025-11-17T00:00	11150	217	-59.0	-74.9	221	18	
2025-11-17T00:00	11200	215	-58.7	-76.0	223	17	
2025-11-17T00:00	11250	214	-58.9	-75.6	224	16	
2025-11-17T00:00	11300	212	-58.6	-75.2	227	15	
2025-11-17T00:00	11350	210	-58.9	-75.8	229	14	
2025-11-17T00:00	11400	209	-59.2	-76.4	229	14	
2025-11-17T00:00	11450	207	-59.2	-76.5	229	14	
2025-11-17T00:00	11500	205	-59.1	-75.9	230	15	
2025-11-17T00:00	11550	204	-59.1	-75.7	230	15	
2025-11-17T00:00	11600	202	-59.2	-76.3	230	15	
2025-11-17T00:00	11650	201	-59.2	-77.7	231	14	
2025-11-17T00:00	11700	199	-59.2	-79.0	233	14	
2025-11-17T00:00	11750	197	-59.3	-78.9	236	14	
2025-11-17T00:00	11800	196	-59.4	-78.0	238	14	
2025-11-17T00:00	11850	194	-59.4	-77.8	239	13	
2025-11-17T00:00	11900	193	-59.4	-78.3	238	13	
2025-11-17T00:00	11950	191	-59.4	-78.9	237	13	
2025-11-17T00:00	12000	190	-59.4	-79.3	238	13	
2025-11-17T00:00	12050	188	-59.4	-79.5	240	14	
2025-11-17T00:00	12100	187	-59.5	-79.9	242	13	
2025-11-17T00:00	12150	185	-59.3	-80.2	243	12	
2025-11-17T00:00	12200	184	-59.0	-80.6	240	12	
2025-11-17T00:00	12250	182	-58.7	-80.9	237	12	
2025-11-17T00:00	12300	181	-58.3	-81.2	235	12	
2025-11-17T00:00	12350	179	-57.7	-81.4	235	13	
2025-11-17T00:00	12400	178	-57.2	-81.4	236	13	
2025-11-17T00:00	12450	177	-57.2	-81.4	239	14	
2025-11-17T00:00	12500	175	-57.0	-81.4	241	15	
2025-11-17T00:00	12550	174	-56.7	-81.4	242	15	
2025-11-17T00:00	12600	172	-56.5	-81.4	244	15	
2025-11-17T00:00	12650	171	-56.5	-81.5	247	15	
2025-11-17T00:00	12700	170	-56.0	-81.4	252	14	
2025-11-17T00:00	12750	168	-56.2	-81.4	257	14	
2025-11-17T00:00	12800	167	-56.3	-81.5	259	14	
2025-11-17T00:00	12850	166	-56.0	-81.4	261	14	
2025-11-17T00:00	12900	164	-56.1	-81.5	261	13	
2025-11-17T00:00	12950	163	-56.5	-81.6	261	12	
2025-11-17T00:00	13000	162	-56.6	-81.7	259	11	
2025-11-17T00:00	13050	161	-56.7	-81.8	257	11	
2025-11-17T00:00	13100	159	-56.7	-81.9	257	11	
2025-11-17T00:00	13150	158	-56.4	-81.8	258	11	
2025-11-17T00:00	13200	157	-56.6	-81.9	259	10	
2025-11-17T00:00	13250	156	-56.8	-81.9	258	10	
2025-11-17T00:00	13300	154	-57.1	-82.0	254	10	
2025-11-17T00:00	13350	153	-57.5	-82.1	247	11	
2025-11-17T00:00	13400	152	-57.9	-82.2	241	12	
2025-11-17T00:00	13450	151	-58.1	-82.4	237	13	
2025-11-17T00:00	13500	150	-57.6	-82.4	237	13	
2025-11-17T00:00	13550	148	-57.2	-82.4	239	13	
2025-11-17T00:00	13600	147	-57.2	-82.5	242	12	
2025-11-17T00:00	13650	146	-57.5	-82.6	244	12	
2025-11-17T00:00	13700	145	-57.8	-82.7	244	12	
2025-11-17T00:00	13750	144	-57.7	-82.6	243	13	
2025-11-17T00:00	13800	143	-57.9	-82.8	245	14	
2025-11-17T00:00	13850	141	-57.8	-82.7	248	15	
2025-11-17T00:00	13900	140	-57.8	-82.8	251	15	
2025-11-17T00:00	13950	139	-58.0	-82.8	252	14	
2025-11-17T00:00	14000	138	-58.4	-82.9	253	14	
2025-11-17T00:00	14050	137	-58.8	-82.9	255	13	
2025-11-17T00:00	14100	136	-59.2	-83.0	260	12	
2025-11-17T00:00	14150	135	-59.5	-83.2	262	12	
2025-11-17T00:00	14200	134	-59.5	-83.2	262	12	
2025-11-17T00:00	14250	133	-59.8	-83.3	260	11	
2025-11-17T00:00	14300	132	-60.1	-83.5	256	11	
2025-11-17T00:00	14350	131	-60.3	-83.6	249	10	
2025-11-17T00:00	14400	130	-60.1	-83.7	242	10	
2025-11-17T00:00	14450	129	-60.0	-83.7	236	10	
2025-11-17T00:00	14500	128	-59.9	-83.7	232	11	
2025-11-17T00:00	14550	127	-59.8	-83.7	229	12	
2025-11-17T00:00	14600	126	-59.8	-83.8	227	13	
2025-11-17T00:00	14650	124	-59.7	-83.8	227	14	
2025-11-17T00:00	14700	124	-59.5	-83.7	229	15	
2025-11-17T00:00	14750	123	-59.5	-83.9	231	15	
2025-11-17T00:00	14800	122	-59.1	-83.9	230	14	
2025-11-17T00:00	14850	121	-59.0	-83.9	229	14	
2025-11-17T00:00	14900	120	-58.8	-84.1	231	14	
2025-11-17T00:00	14950	119	-58.2	-84.0	236	14	
2025-11-17T00:00	15000	118	-58.2	-84.0	246	15	
2025-11-17T00:00	15050	117	-58.2	-84.1	257	15	
2025-11-17T00:00	15100	116	-58.1	-84.0	265	15	
2025-11-17T00:00	15150	115	-58.0	-84.0	266	15	
2025-11-17T00:00	15200	114	-58.2	-84.0	264	15	
2025-11-17T00:00	15250	113	-58.6	-84.0	262	14	
2025-11-17T00:00	15300	112	-58.9	-84.1	260	14	
2025-11-17T00:00	15350	111	-59.2	-84.3	260	13	
2025-11-17T00:00	15400	110	-59.2	-84.3	261	13	
2025-11-17T00:00	15450	110	-59.5	-84.4	260	13	
2025-11-17T00:00	15500	109	-59.9	-84.5	259	13	
2025-11-17T00:00	15550	108	-60.2	-84.5	257	13	
2025-11-17T00:00	15600	107	-60.5	-84.6	255	13	
2025-11-17T00:00	15650	106	-60.8	-84.7	254	13	
2025-11-17T00:00	15700	105	-60.9	-84.8	255	13	
2025-11-17T00:00	15750	105	-61.0	-84.9	257	14	
2025-11-17T00:00	15800	104	-61.0	-85.1	259	14	
2025-11-17T00:00	15850	103	-60.7	-85.1	258	15	
2025-11-17T00:00	15900	102	-60.3	-85.0	258	16	
2025-11-17T00:00	15950	101	-60.3	-85.0	259	17	
2025-11-17T00:00	16000	100	-60.2	-84.9	262	17	
2025-11-17T00:00	16050	100	-60.4	-84.8	265	18	
2025-11-17T00:00	16100	99	-60.5	-84.7	265	18	
2025-11-17T00:00	16150	98	-60.8	-84.8	265	17	
2025-11-17T00:00	16200	97	-61.0	-85.1	263	17	
2025-11-17T00:00	16250	96	-61.0	-85.2	260	16	
2025-11-17T00:00	16300	96	-60.9	-85.1	256	15	
2025-11-17T00:00	16350	95	-61.0	-85.3	249	14	
2025-11-17T00:00	16400	94	-61.0	-85.5	243	14	
2025-11-17T00:00	16450	93	-60.6	-85.5	241	15	
2025-11-17T00:00	16500	93	-60.2	-85.5	242	16	
2025-11-17T00:00	16550	92	-60.0	-85.4	244	17	
2025-11-17T00:00	16600	91	-59.8	-85.5	244	17	
2025-11-17T00:00	16650	90	-59.4	-85.4	247	17	
2025-11-17T00:00	16700	90	-59.6	-85.5	250	18	
2025-11-17T00:00	16750	89	-59.4	-85.3	253	18	
2025-11-17T00:00	16800	88	-59.5	-85.4	257	18	
2025-11-17T00:00	16850	88	-59.3	-85.2	260	18	
2025-11-17T00:00	16900	87	-59.5	-85.3	263	17	
2025-11-17T00:00	16950	86	-59.8	-85.3	265	17	
2025-11-17T00:00	17000	85	-60.2	-85.4	268	16	
2025-11-17T00:00	17050	85	-60.6	-85.5	271	16	
2025-11-17T00:00	17100	84	-61.0	-85.5	274	15	
2025-11-17T00:00	17150	83	-61.4	-85.6	275	15	
2025-11-17T00:00	17200	83	-61.8	-85.8	276	14	
2025-11-17T00:00	17250	82	-62.2	-85.9	276	13	
2025-11-17T00:00	17300	81	-62.6	-86.1	275	13	
2025-11-17T00:00	17350	81	-63.0	-86.2	274	12	
2025-11-17T00:00	17400	80	-63.3	-86.4	270	12	
2025-11-17T00:00	17450	79	-63.0	-86.5	267	13	
2025-11-17T00:00	17500	79	-62.5	-86.5	264	14	
2025-11-17T00:00	17550	78	-62.3	-86.5	260	15	
2025-11-17T00:00	17600	78	-62.2	-86.6	256	15	
2025-11-17T00:00	17650	77	-62.1	-86.6	253	17	
2025-11-17T00:00	17700	76	-61.7	-86.4	252	18	
2025-11-17T00:00	17750	76	-61.8	-86.5	252	19	
2025-11-17T00:00	17800	75	-61.8	-86.4	254	19	
2025-11-17T00:00	17850	75	-61.8	-86.5	258	19	
2025-11-17T00:00	17900	74	-61.7	-86.5	260	19	
2025-11-17T00:00	17950	73	-61.3	-86.4	260	19	
2025-11-17T00:00	18000	73	-61.4	-86.5	260	18	
2025-11-17T00:00	18050	72	-61.2	-86.4	260	17	
2025-11-17T00:00	18100	72	-61.2	-86.6	262	16	
2025-11-17T00:00	18150	71	-60.7	-86.5	263	15	
2025-11-17T00:00	18200	70	-60.5	-86.5	262	15	
2025-11-17T00:00	18250	70	-60.0	-86.3	262	14	
2025-11-17T00:00	18300	69	-59.7	-86.1	264	13	
2025-11-17T00:00	18350	69	-60.0	-86.1	268	12	
2025-11-17T00:00	18400	68	-60.1	-86.1	270	12	
2025-11-17T00:00	18450	68	-60.4	-86.1	270	12	
2025-11-17T00:00	18500	67	-60.8	-86.1	268	12	
2025-11-17T00:00	18550	67	-61.1	-86.1	266	12	
2025-11-17T00:00	18600	66	-61.6	-86.2	265	12	
2025-11-17T00:00	18650	65	-62.1	-86.4	265	12	
2025-11-17T00:00	18700	65	-62.6	-86.6	264	13	
2025-11-17T00:00	18750	64	-63.0	-86.7	263	13	
2025-11-17T00:00	18800	64	-63.4	-86.9	264	14	
2025-11-17T00:00	18850	63	-63.6	-87.1	267	15	
2025-11-17T00:00	18900	63	-63.3	-87.1	269	15	
2025-11-17T00:00	18950	62	-63.4	-87.2	271	16	
2025-11-17T00:00	19000	62	-63.5	-87.1	273	16	
2025-11-17T00:00	19050	61	-63.7	-87.1	274	17	
2025-11-17T00:00	19100	61	-64.0	-87.2	275	18	
2025-11-17T00:00	19150	60	-64.4	-87.2	277	18	
2025-11-17T00:00	19200	60	-64.7	-87.4	279	19	
2025-11-17T00:00	19250	59	-64.7	-87.5	282	18	
2025-11-17T00:00	19300	59	-64.7	-87.6	285	16	
2025-11-17T00:00	19350	58	-64.4	-87.6	286	14	
2025-11-17T00:00	19400	58	-64.2	-87.6	286	12	
2025-11-17T00:00	19450	57	-64.1	-87.6	282	11	
2025-11-17T00:00	19500	57	-64.1	-87.7	274	11	
2025-11-17T00:00	19550	57	-63.7	-87.4	264	11	
2025-11-17T00:00	19600	56	-63.5	-87.3	256	11	
2025-11-17T00:00	19650	56	-63.7	-87.3	252	11	
2025-11-17T00:00	19700	55	-64.0	-87.4	253	12	
2025-11-17T00:00	19750	55	-64.2	-87.5	257	13	
2025-11-17T00:00	19800	54	-64.0	-87.4	259	14	
2025-11-17T00:00	19850	54	-64.1	-87.4	260	15	
2025-11-17T00:00	19900	53	-64.3	-87.5	261	15	
2025-11-17T00:00	19950	53	-64.7	-87.7	265	16	
2025-11-17T00:00	20000	53	-64.5	-87.8	271	17	
2025-11-17T00:00	20050	52	-64.3		275	16	
2025-11-17T00:00	20100	52	-64.5		278	16	
2025-11-17T00:00	20150	51	-64.7		278	16	
2025-11-17T00:00	20200	51	-64.8		278	16	
2025-11-17T00:00	20250	50	-64.7		279	15	
2025-11-17T00:00	20300	50	-64.6		278	15	
2025-11-17T00:00	20350	50	-64.5		274	15	
2025-11-17T00:00	20400	49	-64.5		269	15	
2025-11-17T00:00	20450	49	-64.5		266	15	
2025-11-17T00:00	20500	48	-64.4		265	15	
2025-11-17T00:00	20550	48	-64.1		266	14	
2025-11-17T00:00	20600	48	-63.7		268	14	
2025-11-17T00:00	20650	47	-63.5		267	14	
2025-11-17T00:00	20700	47	-63.5		264	14	
2025-11-17T00:00	20750	46	-63.8		261	14	
2025-11-17T00:00	20800	46	-64.2		260	15	
2025-11-17T00:00	20850	46	-64.6		262	15	
2025-11-17T00:00	20900	45	-64.7		265	15	
2025-11-17T00:00	20950	45	-65.0		268	14	
2025-11-17T00:00	21000	45	-65.3		271	13	
2025-11-17T00:00	21050	44	-65.7		273	13	
2025-11-17T00:00	21100	44	-65.9		274	13	
2025-11-17T00:00	21150	44	-66.2		275	12	
2025-11-17T00:00	21200	43	-66.3		273	11	
2025-11-17T00:00	21250	43	-66.4		269	11	
2025-11-17T00:00	21300	42	-66.5		265	11	
2025-11-17T00:00	21350	42	-66.4		262	11	
2025-11-17T00:00	21400	42	-66.4		260	11	
2025-11-17T00:00	21450	41	-66.6		259	12	
2025-11-17T00:00	21500	41	-66.8		257	13	
2025-11-17T00:00	21550	41	-66.3		257	14	
2025-11-17T00:00	21600	40	-66.4		260	15	
2025-11-17T00:00	21650	40	-66.3		264	16	
2025-11-17T00:00	21700	40	-65.8		265	17	
2025-11-17T00:00	21750	39	-65.5		263	17	
2025-11-17T00:00	21800	39	-65.3		262	17	
2025-11-17T00:00	21850	39	-65.3		264	17	
2025-11-17T00:00	21900	38	-64.7		265	18	
2025-11-17T00:00	21950	38	-64.7		266	18	
2025-11-17T00:00	22000	38	-64.9		265	18	
2025-11-17T00:00	22050	38	-65.2		261	17	
2025-11-17T00:00	22100	37	-65.1		256	16	
2025-11-17T00:00	22150	37	-64.8		252	16	
2025-11-17T00:00	22200	37	-64.7		249	16	
2025-11-17T00:00	22250	36	-64.8		246	15	
2025-11-17T00:00	22300	36	-64.9		245	15	
2025-11-17T00:00	22350	36	-65.0		245	15	
2025-11-17T00:00	22400	35	-65.2		247	15	
2025-11-17T00:00	22450	35	-65.1		250	16	
2025-11-17T00:00	22500	35	-65.2		254	16	
2025-11-17T00:00	22550	35	-65.6		258	18	
2025-11-17T00:00	22600	34	-65.9		262	19	
2025-11-17T00:00	22650	34	-65.7		266	20	
2025-11-17T00:00	22700	34	-64.7		268	21	
2025-11-17T00:00	22750	33	-64.4		269	21	
2025-11-17T00:00	22800	33	-64.4		270	21	
2025-11-17T00:00	22850	33	-64.5		270	21	
2025-11-17T00:00	22900	33	-64.7		270	20	
2025-11-17T00:00	22950	32	-64.8		268	19	
2025-11-17T00:00	23000	32	-64.7		265	18	
2025-11-17T00:00	23050	32	-64.7		261	18	
2025-11-17T00:00	23100	32	-64.7		256	18	
2025-11-17T00:00	23150	31	-64.8		254	18	
2025-11-17T00:00	23200	31	-64.9		255	18	
2025-11-17T00:00	23250	31	-65.1		258	19	
2025-11-17T00:00	23300	31	-65.1		262	19	
2025-11-17T00:00	23350	30	-65.5		265	19	
2025-11-17T00:00	23400	30	-65.7		267	19	
2025-11-17T00:00	23450	30	-65.9		268	19	
2025-11-17T00:00	23500	30	-66.0		266	18	
2025-11-17T00:00	23550	29	-65.6		263	18	
2025-11-17T00:00	23600	29	-65.6		260	18	
2025-11-17T00:00	23650	29	-65.8		258	17	
2025-11-17T00:00	23700	29	-66.0		258	16	
2025-11-17T00:00	23750	28	-66.0		259	16	
2025-11-17T00:00	23800	28	-66.4		259	16	
2025-11-17T00:00	23850	28	-66.6		259	16	
2025-11-17T00:00	23900	28	-65.9		258	17	
2025-11-17T00:00	23950	27	-65.5		256	18	
2025-11-17T00:00	24000	27	-65.4		253	19	
2025-11-17T00:00	24050	27	-65.8		250	20	
2025-11-17T00:00	24100	27	-65.7		248	21	
2025-11-17T00:00	24150	27	-65.9		248	21	
2025-11-17T00:00	24200	26	-66.2		249	21	
2025-11-17T00:00	24250	26	-66.0		251	22	
2025-11-17T00:00	24300	26	-65.9		254	22	
2025-11-17T00:00	24350	26	-65.8		255	22	
2025-11-17T00:00	24400	25	-65.6		256	22	
2025-11-17T00:00	24450	25	-65.8		257	21	
2025-11-17T00:00	24500	25	-66.2		259	21	
2025-11-17T00:00	24550	25	-66.6		260	20	
2025-11-17T00:00	24600	25	-67.1		262	20	
2025-11-17T00:00	24650	24	-67.5		263	19	
2025-11-17T00:00	24700	24	-67.9		265	17	
2025-11-17T00:00	24750	24	-68.0		267	16	
2025-11-17T00:00	24800	24	-68.0		270	15	
2025-11-17T00:00	24850	24	-67.9		272	15	
2025-11-17T00:00	24900	23	-68.1		275	16	
2025-11-17T00:00	24950	23	-67.9		276	17	
2025-11-17T00:00	25000	23	-67.8		275	18	
2025-11-17T00:00	25050	23	-67.9		273	18	
2025-11-17T00:00	25100	23	-68.2		271	18	
2025-11-17T00:00	25150	23	-68.3		269	19	
2025-11-17T00:00	25200	22	-68.2		268	19	
2025-11-17T00:00	25250	22	-68.3		267	19	
2025-11-17T00:00	25300	22	-68.6		265	19	
2025-11-17T00:00	25350	22	-68.9		264	19	
2025-11-17T00:00	25400	22	-68.9		266	19	
2025-11-17T00:00	25450	21	-68.7		268	19	
2025-11-17T00:00	25500	21	-69.1		269	18	
2025-11-17T00:00	25550	21	-69.4		271	18	
2025-11-17T00:00	25600	21	-69.2		270	17	
2025-11-17T00:00	25650	21	-68.4		266	17	
2025-11-17T00:00	25700	21	-68.1		262	17	
2025-11-17T00:00	25750	20	-68.0		259	16	
2025-11-17T00:00	25800	20	-67.7		258	16	
2025-11-17T00:00	25850	20	-67.3		258	18	
2025-11-17T00:00	25900	20	-67.1		259	19	
2025-11-17T00:00	25950	20	-66.8		262	20	
2025-11-17T00:00	26000	20	-66.5		265	21	
2025-11-17T00:00	26050	19	-66.7		266	22	
2025-11-17T00:00	26100	19	-66.9		265	23	
2025-11-17T00:00	26150	19	-67.0		264	23	
2025-11-17T00:00	26200	19	-67.3		263	24	
2025-11-17T00:00	26250	19	-67.6		262	24	
2025-11-17T00:00	26300	19	-68.0		261	24	
2025-11-17T00:00	26350	18	-68.3		260	24	
2025-11-17T00:00	26400	18	-68.5		259	24	
2025-11-17T00:00	26450	18	-68.4		258	24	
2025-11-17T00:00	26500	18	-68.4		258	23	
2025-11-17T00:00	26550	18	-68.5		258	23	
2025-11-17T00:00	26600	18	-68.7		259	23	
2025-11-17T00:00	26650	18	-68.8		261	23	
2025-11-17T00:00	26700	17	-68.8		264	24	
2025-11-17T00:00	26750	17	-68.6		266	24	
2025-11-17T00:00	26800	17	-68.8		267	25	
2025-11-17T00:00	26850	17	-68.7		267	26	
2025-11-17T00:00	26900	17	-68.8		267	27	
2025-11-17T00:00	26950	17	-69.0		268	28	
2025-11-17T00:00	27000	17	-68.9		269	28	
2025-11-17T00:00	27050	16	-68.9		271	28	
2025-11-17T00:00	27100	16	-68.9		273	28	
2025-11-17T00:00	27150	16	-69.1		275	28	
2025-11-17T00:00	27200	16	-69.5		276	27	
2025-11-17T00:00	27250	16	-69.8		276	26	
2025-11-17T00:00	27300	16	-69.7		275	26	
2025-11-17T00:00	27350	16	-69.5		274	25	
2025-11-17T00:00	27400	15	-69.5		272	24	
2025-11-17T00:00	27450	15	-69.7		269	24	
2025-11-17T00:00	27500	15	-69.7		266	25	
2025-11-17T00:00	27550	15	-69.6		262	28	
2025-11-17T00:00	27600	15	-69.3		262	30	
2025-11-17T00:00	27650	15	-69.0		263	32	
2025-11-17T00:00	27700	15	-68.2		264	31	
2025-11-17T00:00	27750	15	-67.6		265	30	
2025-11-17T00:00	27800	14	-67.7		265	28	
2025-11-17T00:00	27850	14	-68.1		266	27	
2025-11-17T00:00	27900	14	-68.4		266	26	
2025-11-17T00:00	27950	14	-68.7		266	25	
2025-11-17T00:00	28000	14	-68.5		266	26	
2025-11-17T00:00	28050	14	-68.3		266	28	
2025-11-17T00:00	28100	14	-68.5		266	29	
2025-11-17T00:00	28150	14	-68.8		266	31	
2025-11-17T00:00	28200	14	-69.0		267	33	
2025-11-17T00:00	28250	13	-68.9		268	34	
2025-11-17T00:00	28300	13	-68.7		268	34	
2025-11-17T00:00	28350	13	-68.8		269	34	
2025-11-17T00:00	28400	13	-69.0		270	33	
2025-11-17T00:00	28450	13	-68.9		271	32	
2025-11-17T00:00	28500	13	-69.1		272	32	
2025-11-17T00:00	28550	13	-69.1		274	31	
2025-11-17T00:00	28600	13	-69.0		275	31	
2025-11-17T00:00	28650	13	-69.2		275	31	
2025-11-17T00:00	28700	12	-68.3		274	31	
2025-11-17T00:00	28750	12	-67.9		273	32	
2025-11-17T00:00	28800	12	-67.7		272	31	
2025-11-17T00:00	28850	12	-67.4		272	31	
2025-11-17T00:00	28900	12	-67.5		270	31	
2025-11-17T00:00	28950	12	-67.6		267	31	
2025-11-17T00:00	29000	12	-67.4		264	32	
2025-11-17T00:00	29050	12	-67.2		261	33	
2025-11-17T00:00	29100	12	-67.1		258	33	
2025-11-17T00:00	29150	12	-67.1		256	33	
2025-11-17T00:00	29200	11	-67.0		256	33	
2025-11-17T00:00	29250	11	-66.9		256	33	
2025-11-17T00:00	29300	11	-66.7		256	34	
2025-11-17T00:00	29350	11	-66.5		255	36	
2025-11-17T00:00	29400	11	-66.4		253	37	
2025-11-17T00:00	29450	11	-66.2		253	38	
2025-11-17T00:00	29500	11	-65.7		254	38	
2025-11-17T00:00	29550	11	-65.3		256	38	
2025-11-17T00:00	29600	11	-65.4		258	38	
2025-11-17T00:00	29650	11	-65.5		260	37	
2025-11-17T00:00	29700	11	-65.6		261	37	
2025-11-17T00:00	29750	10	-65.9		262	37	
2025-11-17T00:00	29800	10	-66.2		262	37	
2025-11-17T00:00	29850	10	-66.2		262	36	
2025-11-17T00:00	29900	10	-65.7		260	36	
2025-11-17T00:00	29950	10	-65.6		258	36	
2025-11-17T00:00	30000	10	-65.7		255	36	
2025-11-17T00:00	30050	10	-65.9		252	36	
2025-11-17T00:00	30100	10	-65.9		250	37	
2025-11-17T00:00	30150	10	-66.1		248	38	
2025-11-17T00:00	30200	10	-66.1		247	39	
2025-11-17T00:00	30250	10	-65.6		247	39	
2025-11-17T00:00	30300	10	-65.2		247	40	
2025-11-17T00:00	30350	9	-65.1		247	40	
2025-11-17T00:00	30400	9	-64.7		246	41	
2025-11-17T00:00	30450	9	-64.6		244	42	
2025-11-17T00:00	30500	9	-64.2		243	43	
2025-11-17T00:00	30550	9	-63.6		242	44	
2025-11-17T00:00	30600	9	-63.5		243	44	
2025-11-17T00:00	30650	9	-63.8		244	44	
2025-11-17T00:00	30700	9	-63.8		244	44	
2025-11-17T00:00	30750	9	-63.5		245	45	
2025-11-17T00:00	30800	9	-63.7		248	45	
2025-11-17T00:00	30850	9	-63.5		249	46	
2025-11-17T00:00	30900	9	-62.9		248	47	
2025-11-17T00:00	30950	9	-61.9		246	48	
2025-11-17T00:00	31000	9	-61.9		245	48	
2025-11-17T00:00	31050	8	-61.9		246	48	
2025-11-17T00:00	31100	8	-61.4		249	48	
2025-11-17T00:00	31150	8	-61.4		251	48	
2025-11-17T00:00	31200	8	-61.7		254	49	
2025-11-17T00:00	31250	8	-61.9		256	50	
2025-11-17T00:00	31300	8	-62.0		257	51	
2025-11-17T00:00	31350	8	-62.2		257	52	
2025-11-17T00:00	31400	8	-62.3		258	53	
2025-11-17T00:00	31450	8	-62.3		259	54	
2025-11-17T00:00	31500	8	-62.3		259	53	
2025-11-17T00:00	31550	8	-62.3		260	52	
2025-11-17T00:00	31600	8	-62.5		260	51	
2025-11-17T00:00	31650	8	-62.5		259	50	
2025-11-17T00:00	31700	8	-62.4		259	49	
2025-11-17T00:00	31750	8	-62.4		258	48	
2025-11-17T00:00	31800	7	-62.4		258	48	
2025-11-17T00:00	31850	7	-62.3		257	49	
2025-11-17T00:00	31900	7	-61.9		257	51	
2025-11-17T00:00	31950	7	-61.6		257	52	
2025-11-17T00:00	32000	7	-61.5		257	54	
2025-11-17T00:00	32050	7	-61.5		258	54	
2025-11-17T00:00	32100	7	-60.8		258	54	
2025-11-17T00:00	32150	7	-61.0		257	53	
2025-11-17T00:00	32200	7	-61.0		258	53	
2025-11-17T00:00	32250	7	-60.9		259	53	
2025-11-17T00:00	32300	7	-60.6		261	53	
2025-11-17T00:00	32350	7	-59.7		262	52	
2025-11-17T00:00	32400	7	-58.9		263	51	
2025-11-17T00:00	32450	7	-58.8		263	50	
2025-11-17T00:00	32500	7	-58.3		262	50	
2025-11-17T00:00	32550	7	-57.2		261	49	
2025-11-17T00:00	32600	7	-56.8		260	48	
2025-11-17T00:00	32650	7	-56.9		260	47	
2025-11-17T00:00	32700	6	-56.4		259	46	
2025-11-17T00:00	32750	6	-56.1		260	46	
2025-11-17T00:00	32800	6	-55.8		261	46	
2025-11-17T00:00	32850	6	-54.8		263	47	
2025-11-17T00:00	32900	6	-54.2		264	48	
2025-11-17T00:00	32950	6	-53.9		264	48	
2025-11-17T00:00	33000	6	-53.8		264	49	
2025-11-17T00:00	33050	6	-53.6		264	50	
2025-11-17T00:00	33100	6	-53.4		263	50	
2025-11-17T00:00	33150	6	-53.2		262	51	
2025-11-17T00:00	33200	6	-53.0		262	51	
2025-11-17T00:00	33250	6	-52.7		263	52	
2025-11-17T00:00	33300	6	-52.4		263	53	
2025-11-17T00:00	33350	6	-52.5		263	54	
2025-11-17T00:00	33400	6	-52.4		262	54	
2025-11-17T00:00	33450	6	-52.3		263	54	
2025-11-17T00:00	33500	6	-51.8		263	53	
2025-11-17T00:00	33550	6	-51.6		264	52	
2025-11-17T00:00	33600	6	-51.7		265	51	
2025-11-17T00:00	33650	6	-51.7		265	51	
2025-11-17T00:00	33700	6	-51.6		265	51	
2025-11-17T00:00	33750	6	-51.4		264	52	
2025-11-17T00:00	33800	5	-50.9		264	52	
2025-11-17T00:00	33850	5	-50.4		263	52	
2025-11-17T00:00	33900	5	-50.2		261	51	
2025-11-17T00:00	33950	5	-50.3		260	51	
2025-11-17T00:00	34000	5	-50.4		259	50	
2025-11-17T00:00	34050	5	-50.5		257	50	
2025-11-17T00:00	34100	5	-50.2		256	51	
2025-11-17T00:00	34150	5	-49.3		255	53	
2025-11-17T00:00	34200	5	-48.4		255	54	
2025-11-17T00:00	34250	5	-48.3		255	53	
2025-11-17T12:00	491	953	9.0	6.3	254	2	1.0
2025-11-17T12:00	501	952	8.9	6.0	244	3	1.0
2025-11-17T12:00	520	950	8.9	5.6	245	3	1.0
2025-11-17T12:00	540	947	8.8	5.3	247	3	1.1
2025-11-17T12:00	560	945	8.7	4.9	247	4	1.1
2025-11-17T12:00	580	943	8.6	4.8	247	4	1.1
2025-11-17T12:00	600	940	8.4	4.8	247	5	1.1
2025-11-17T12:00	620	938	8.2	4.8	248	5	1.1
2025-11-17T12:00	640	936	8.0	4.8	250	5	1.1
2025-11-17T12:00	660	934	7.8	4.4	254	5	1.1
2025-11-17T12:00	680	931	7.7	4.3	262	5	1.1
2025-11-17T12:00	700	929	7.4	4.1	270	5	1.1
2025-11-17T12:00	720	927	7.3	3.8	274	6	1.1
2025-11-17T12:00	740	925	7.2	3.1	275	7	1.1
2025-11-17T12:00	760	922	7.1	3.2	275	7	1.1
2025-11-17T12:00	780	920	6.8	3.3	275	7	1.0
2025-11-17T12:00	800	918	6.7	3.1	275	7	1.0
2025-11-17T12:00	820	916	6.6	3.1	275	7	1.0
2025-11-17T12:00	840	913	6.4	3.1	275	6	1.0
2025-11-17T12:00	860	911	6.3	3.1	277	6	1.0
2025-11-17T12:00	880	909	6.1	3.1	279	6	1.0
2025-11-17T12:00	900	907	5.9	3.1	281	5	1.0
2025-11-17T12:00	920	905	5.7	3.0	283	5	0.9
2025-11-17T12:00	940	902	5.5	3.0	284	5	1.0
2025-11-17T12:00	960	900	5.3	3.0	283	4	0.9
2025-11-17T12:00	980	898	5.1	3.0	282	4	1.0
2025-11-17T12:00	1000	896	4.9	2.9	282	4	1.0
2025-11-17T12:00	1020	894	4.8	2.8	283	4	0.9
2025-11-17T12:00	1040	891	4.5	2.7	285	4	0.9
2025-11-17T12:00	1060	889	4.3	2.7	288	5	0.9
2025-11-17T12:00	1080	887	4.1	2.7	290	5	0.9
2025-11-17T12:00	1100	885	4.0	2.7	292	5	0.9
2025-11-17T12:00	1120	883	3.8	2.6	292	5	0.9
2025-11-17T12:00	1140	880	3.6	2.5	292	5	0.9
2025-11-17T12:00	1160	878	3.4	2.5	291	5	0.9
2025-11-17T12:00	1180	876	3.2	2.5	290	5	0.9
2025-11-17T12:00	1200	874	3.1	2.4	289	5	0.9
2025-11-17T12:00	1220	872	2.8	2.3	289	5	0.9
2025-11-17T12:00	1240	870	2.6	2.2	289	5	0.9
2025-11-17T12:00	1260	868	2.4	2.2	291	5	0.9
2025-11-17T12:00	1280	865	2.2	2.0	295	5	0.9
2025-11-17T12:00	1300	863	2.0	2.0	299	6	0.9
2025-11-17T12:00	1320	861	1.9	1.7	304	6	0.9
2025-11-17T12:00	1340	859	1.8	0.9	308	6	0.9
2025-11-17T12:00	1360	857	1.8	0.7	311	7	0.9
2025-11-17T12:00	1380	855	1.5	0.8	311	7	0.8
2025-11-17T12:00	1400	853	1.3	1.1	309	7	0.8
2025-11-17T12:00	1420	850	1.1	0.6	307	7	0.8
2025-11-17T12:00	1440	848	1.1	0.2	305	7	0.8
2025-11-17T12:00	1460	846	1.1	0.2	305	7	0.8
2025-11-17T12:00	1480	844	0.9	0.2	305	6	0.8
2025-11-17T12:00	1500	842	0.8	0.0	306	6	0.8
2025-11-17T12:00	1520	840	0.7	-0.1	304	7	0.8
2025-11-17T12:00	1540	838	0.5	-0.1	301	8	0.8
2025-11-17T12:00	1560	836	0.4	-0.1	302	8	0.9
2025-11-17T12:00	1580	834	0.2	-0.2	304	9	0.9
2025-11-17T12:00	1600	832	0.1	-0.3	305	9	0.9
2025-11-17T12:00	1620	830	0.1	-0.4	302	8	0.9
2025-11-17T12:00	1640	828	0.2	-0.5	299	9	1.0
2025-11-17T12:00	1660	826	0.3	-0.8	300	10	1.2
2025-11-17T12:00	1680	824	0.2	-0.9	302	10	1.5
2025-11-17T12:00	1700	821	0.1	-0.9	302	10	1.9
2025-11-17T12:00	1720	819	0.0	-0.9	304	10	2.1
2025-11-17T12:00	1740	817	-0.1	-1.1	307	11	2.3
2025-11-17T12:00	1760	815	-0.1	-1.3	309	12	2.6
2025-11-17T12:00	1780	813	-0.3	-1.4	309	12	2.8
2025-11-17T12:00	1800	811	-0.4	-1.4	309	12	2.9
2025-11-17T12:00	1820	809	-0.6	-1.5	311	11	3.0
2025-11-17T12:00	1840	807	-0.7	-1.6	312	11	3.0
2025-11-17T12:00	1860	805	-0.8	-1.7	312	10	3.1
2025-11-17T12:00	1880	803	-0.9	-1.7	311	11	3.1
2025-11-17T12:00	1900	801	-1.1	-1.8	308	11	3.1
2025-11-17T12:00	1920	799	-1.2	-1.8	304	11	3.2
2025-11-17T12:00	1940	797	-1.3	-1.9	302	12	3.2
2025-11-17T12:00	1960	795	-1.4	-2.0	300	13	3.2
2025-11-17T12:00	1980	793	-1.6	-2.0	298	13	3.1
2025-11-17T12:00	2000	791	-1.6	-2.0	297	13	3.1
2025-11-17T12:00	2020	789	-1.7	-2.1	297	13	3.2
2025-11-17T12:00	2040	787	-1.8	-2.2	297	13	3.2
2025-11-17T12:00	2060	785	-1.5	-2.5	299	13	3.2
2025-11-17T12:00	2080	783	-1.6	-2.5	300	13	3.3
2025-11-17T12:00	2100	781	-1.8	-2.6	301	13	3.3
2025-11-17T12:00	2120	779	-1.9	-2.6	301	13	3.3
2025-11-17T12:00	2140	777	-2.1	-2.7	300	13	3.3
2025-11-17T12:00	2160	775	-2.2	-2.8	299	13	3.4
2025-11-17T12:00	2180	773	-2.2	-3.0	297	13	3.4
2025-11-17T12:00	2200	771	-2.4	-3.1	296	12	3.4
2025-11-17T12:00	2220	769	-2.5	-3.2	296	12	3.4
2025-11-17T12:00	2240	768	-2.7	-3.3	296	12	3.4
2025-11-17T12:00	2260	766	-2.8	-3.3	296	12	3.4
2025-11-17T12:00	2280	764	-2.9	-3.5	296	13	3.4
2025-11-17T12:00	2300	762	-3.1	-3.5	294	13	3.4
2025-11-17T12:00	2320	760	-3.3	-3.6	293	14	3.4
2025-11-17T12:00	2340	758	-3.4	-3.8	293	15	3.4
2025-11-17T12:00	2360	756	-3.4	-3.8	293	15	3.3
2025-11-17T12:00	2380	754	-3.6	-3.9	292	14	3.3
2025-11-17T12:00	2400	752	-3.7	-4.0	291	13	3.3
2025-11-17T12:00	2420	750	-3.9	-4.1	289	13	3.3
2025-11-17T12:00	2440	748	-4.1	-4.2	286	13	3.3
2025-11-17T12:00	2460	747	-4.2	-4.3	285	13	3.3
2025-11-17T12:00	2480	745	-4.3	-4.4	285	13	3.3
2025-11-17T12:00	2500	743	-4.4	-4.5	287	13	3.3
2025-11-17T12:00	2520	741	-4.6	-4.6	290	14	3.3
2025-11-17T12:00	2540	739	-4.8	-4.8	291	14	3.3
2025-11-17T12:00	2560	737	-4.9	-4.9	291	14	3.3
2025-11-17T12:00	2580	735	-5.0	-5.0	291	14	3.3
2025-11-17T12:00	2600	733	-5.1	-5.1	291	14	3.3
2025-11-17T12:00	2620	731	-5.3	-5.3	293	14	3.3
2025-11-17T12:00	2640	730	-5.4	-5.4	294	14	3.3
2025-11-17T12:00	2660	728	-5.5	-5.5	295	14	3.3
2025-11-17T12:00	2680	726	-5.6	-5.6	293	14	3.3
2025-11-17T12:00	2700	724	-5.7	-5.7	290	14	3.3
2025-11-17T12:00	2720	722	-5.8	-5.8	288	14	3.3
2025-11-17T12:00	2740	721	-5.9	-5.9	287	14	3.2
2025-11-17T12:00	2760	719	-6.0	-6.0	288	14	3.2
2025-11-17T12:00	2780	717	-6.2	-6.2	289	13	3.2
2025-11-17T12:00	2800	715	-6.3	-6.3	289	13	3.2
2025-11-17T12:00	2820	713	-6.4	-6.4	288	13	3.2
2025-11-17T12:00	2840	711	-6.5	-6.5	287	13	3.2
2025-11-17T12:00	2860	710	-6.7	-6.7	287	13	3.2
2025-11-17T12:00	2880	708	-6.8	-6.8	288	13	3.2
2025-11-17T12:00	2900	706	-6.9	-6.9	288	13	3.2
2025-11-17T12:00	2920	704	-7.1	-7.1	287	13	3.2
2025-11-17T12:00	2940	702	-7.2	-7.2	286	13	3.2
2025-11-17T12:00	2960	700	-7.3	-7.3	286	13	3.2
2025-11-17T12:00	2980	699	-7.4	-7.4	287	12	3.2
2025-11-17T12:00	3000	697	-7.5	-7.5	287	12	3.2
2025-11-17T12:00	3020	695	-7.6	-7.6	286	12	3.2
2025-11-17T12:00	3040	693	-7.7	-7.7	283	12	3.1
2025-11-17T12:00	3060	691	-7.8	-7.8	281	13	3.1
2025-11-17T12:00	3080	690	-7.8	-7.8	280	13	3.1
2025-11-17T12:00	3100	688	-7.8	-7.8	279	13	3.1
2025-11-17T12:00	3120	686	-7.9	-7.9	278	13	3.1
2025-11-17T12:00	3140	685	-8.0	-8.0	277	13	3.1
2025-11-17T12:00	3160	683	-8.1	-8.1	277	13	3.1
2025-11-17T12:00	3180	681	-8.2	-8.2	278	13	3.0
2025-11-17T12:00	3200	679	-8.2	-8.2	278	13	3.0
2025-11-17T12:00	3220	677	-8.3	-8.3	278	13	3.0
2025-11-17T12:00	3240	676	-8.4	-8.4	276	13	3.0
2025-11-17T12:00	3260	674	-8.5	-8.6	275	13	3.0
2025-11-17T12:00	3280	672	-8.6	-8.6	275	13	3.0
2025-11-17T12:00	3300	670	-8.7	-8.7	275	13	3.0
2025-11-17T12:00	3320	669	-8.7	-8.7	276	13	3.0
2025-11-17T12:00	3340	667	-8.9	-8.9	277	13	2.9
2025-11-17T12:00	3360	665	-9.0	-9.0	278	13	2.9
2025-11-17T12:00	3380	664	-9.1	-9.1	278	13	2.9
2025-11-17T12:00	3400	662	-9.2	-9.2	278	13	2.9
2025-11-17T12:00	3420	660	-9.4	-9.4	278	13	2.9
2025-11-17T12:00	3440	659	-9.5	-9.6	278	14	3.0
2025-11-17T12:00	3460	657	-9.6	-9.8	279	14	2.9
2025-11-17T12:00	3480	655	-9.8	-9.8	280	13	2.9
2025-11-17T12:00	3500	653	-9.9	-10.0	281	13	2.9
2025-11-17T12:00	3520	652	-10.0	-10.1	281	14	2.9
2025-11-17T12:00	3540	650	-10.2	-10.2	280	14	2.9
2025-11-17T12:00	3560	648	-10.3	-10.3	279	14	2.9
2025-11-17T12:00	3580	647	-10.4	-10.4	280	14	2.9
2025-11-17T12:00	3600	645	-10.5	-10.5	281	14	2.9
2025-11-17T12:00	3620	643	-10.7	-10.7	282	14	2.9
2025-11-17T12:00	3640	642	-10.9	-10.9	282	14	2.9
2025-11-17T12:00	3660	640	-10.9	-11.0	282	14	2.9
2025-11-17T12:00	3680	638	-11.1	-11.2	281	13	2.9
2025-11-17T12:00	3700	637	-11.2	-11.4	280	13	2.9
2025-11-17T12:00	3720	635	-11.4	-11.6	279	13	2.9
2025-11-17T12:00	3740	633	-11.5	-11.7	280	12	2.9
2025-11-17T12:00	3760	632	-11.6	-11.8	280	13	2.9
2025-11-17T12:00	3780	630	-11.8	-12.1	280	13	2.9
2025-11-17T12:00	3800	628	-11.9	-12.3	279	13	2.9
2025-11-17T12:00	3820	627	-12.1	-12.6	277	12	2.9
2025-11-17T12:00	3840	625	-12.2	-12.8	276	12	2.9
2025-11-17T12:00	3860	624	-12.3	-12.9	276	12	2.9
2025-11-17T12:00	3880	622	-12.5	-12.9	277	12	2.9
2025-11-17T12:00	3900	620	-12.6	-13.1	277	12	2.9
2025-11-17T12:00	3920	619	-12.7	-13.2	276	12	2.9
2025-11-17T12:00	3940	617	-12.8	-13.3	275	12	2.9
2025-11-17T12:00	3960	615	-12.9	-13.4	276	12	2.9
2025-11-17T12:00	3980	614	-13.0	-13.6	277	12	2.9
2025-11-17T12:00	4000	612	-13.1	-13.8	279	12	2.9
2025-11-17T12:00	4020	611	-13.2	-14.0	279	13	2.9
2025-11-17T12:00	4040	609	-13.3	-14.1	280	13	2.9
2025-11-17T12:00	4060	607	-13.4	-14.3	280	13	2.9
2025-11-17T12:00	4080	606	-13.5	-14.5	280	13	2.9
2025-11-17T12:00	4100	604	-13.7	-14.6	280	13	2.9
2025-11-17T12:00	4120	603	-13.8	-14.8	279	13	2.9
2025-11-17T12:00	4140	601	-13.9	-15.0	278	13	2.9
2025-11-17T12:00	4160	599	-14.1	-15.1	277	13	2.9
2025-11-17T12:00	4180	598	-14.2	-15.3	277	13	2.9
2025-11-17T12:00	4200	596	-14.3	-15.4	277	13	2.9
2025-11-17T12:00	4220	595	-14.5	-15.6	278	13	2.9
2025-11-17T12:00	4240	593	-14.6	-15.6	279	13	2.9
2025-11-17T12:00	4260	592	-14.8	-15.8	280	13	2.9
2025-11-17T12:00	4280	590	-14.9	-15.9	281	13	2.9
2025-11-17T12:00	4300	589	-15.1	-16.0	281	14	2.9
2025-11-17T12:00	4320	587	-15.2	-16.2	282	14	2.9
2025-11-17T12:00	4340	585	-15.4	-16.3	282	14	2.9
2025-11-17T12:00	4360	584	-15.5	-16.5	282	14	2.9
2025-11-17T12:00	4380	582	-15.7	-16.4	282	14	2.9
2025-11-17T12:00	4400	581	-15.8	-16.6	282	14	2.9
2025-11-17T12:00	4420	579	-16.0	-16.8	282	14	2.8
2025-11-17T12:00	4440	578	-16.1	-16.9	282	14	2.8
2025-11-17T12:00	4460	576	-16.2	-17.1	283	14	2.8
2025-11-17T12:00	4480	575	-16.4	-17.2	284	14	2.8
2025-11-17T12:00	4500	573	-16.6	-17.2	286	14	2.8
2025-11-17T12:00	4520	572	-16.7	-17.5	286	14	2.8
2025-11-17T12:00	4540	570	-16.8	-17.5	286	14	2.8
2025-11-17T12:00	4560	568	-17.0	-17.5	284	13	2.8
2025-11-17T12:00	4580	567	-17.1	-17.7	283	13	2.8
2025-11-17T12:00	4600	565	-17.3	-17.8	282	13	2.8
2025-11-17T12:00	4620	564	-17.4	-18.0	282	12	2.8
2025-11-17T12:00	4640	563	-17.5	-18.1	283	12	2.8
2025-11-17T12:00	4660	561	-17.6	-18.2	284	11	2.7
2025-11-17T12:00	4680	559	-17.7	-18.4	284	11	2.7
2025-11-17T12:00	4700	558	-17.8	-18.4	283	11	2.7
2025-11-17T12:00	4720	556	-18.0	-18.6	281	11	2.7
2025-11-17T12:00	4740	555	-18.1	-18.8	280	12	2.7
2025-11-17T12:00	4760	554	-18.2	-19.0	280	13	2.7
2025-11-17T12:00	4780	552	-18.4	-19.1	279	13	2.7
2025-11-17T12:00	4800	550	-18.5	-19.4	278	14	2.7
2025-11-17T12:00	4820	549	-18.6	-19.4	277	13	2.7
2025-11-17T12:00	4840	548	-18.7	-19.8	276	13	2.6
2025-11-17T12:00	4860	546	-18.8	-19.9	277	13	2.6
2025-11-17T12:00	4880	545	-18.9	-20.1	277	13	2.6
2025-11-17T12:00	4900	543	-19.0	-20.2	277	13	2.6
2025-11-17T12:00	4920	542	-19.1	-20.4	276	13	2.6
2025-11-17T12:00	4940	540	-19.3	-20.6	276	13	2.6
2025-11-17T12:00	4960	539	-19.4	-20.7	276	13	2.6
2025-11-17T12:00	4980	537	-19.6	-20.9	276	13	2.6
2025-11-17T12:00	5000	536	-19.7	-21.0	275	13	2.6
2025-11-17T12:00	5020	535	-19.9	-21.2	274	13	2.6
2025-11-17T12:00	5040	533	-20.0	-21.3	272	13	2.6
2025-11-17T12:00	5060	532	-20.1	-21.4	270	13	2.6
2025-11-17T12:00	5080	530	-20.3	-21.6	268	13	2.6
2025-11-17T12:00	5100	529	-20.4	-21.8	267	13	2.6
2025-11-17T12:00	5120	527	-20.5	-21.8	266	13	2.6
2025-11-17T12:00	5140	526	-20.6	-21.9	267	13	2.6
2025-11-17T12:00	5160	525	-20.8	-21.9	267	14	2.5
2025-11-17T12:00	5180	523	-20.9	-22.1	266	14	2.5
2025-11-17T12:00	5200	522	-21.1	-22.3	266	14	2.5
2025-11-17T12:00	5220	520	-21.2	-22.7	267	14	2.5
2025-11-17T12:00	5240	519	-21.4	-22.7	268	14	2.5
2025-11-17T12:00	5260	517	-21.6	-22.9	270	14	2.5
2025-11-17T12:00	5280	516	-21.8	-23.0	270	14	2.5
2025-11-17T12:00	5300	515	-21.9	-23.2	270	14	2.5
2025-11-17T12:00	5320	513	-22.1	-23.6	270	14	2.4
2025-11-17T12:00	5340	512	-22.3	-23.7	270	14	2.4
2025-11-17T12:00	5360	511	-22.5	-23.9	270	14	2.4
2025-11-17T12:00	5380	509	-22.7	-24.0	270	14	2.4
2025-11-17T12:00	5400	508	-22.8	-24.3	270	14	2.4
2025-11-17T12:00	5420	506	-22.9	-24.4	268	13	2.4
2025-11-17T12:00	5440	505	-23.1	-24.5	267	13	2.4
2025-11-17T12:00	5460	503	-23.2	-24.6	266	13	2.4
2025-11-17T12:00	5480	502	-23.4	-24.7	265	13	2.4
2025-11-17T12:00	5500	501	-23.5	-24.7	265	13	2.4
2025-11-17T12:00	5520	500	-23.7	-24.7	266	13	2.4
2025-11-17T12:00	5540	498	-23.8	-24.8	266	14	2.4
2025-11-17T12:00	5560	497	-24.0	-25.2	266	14	2.4
2025-11-17T12:00	5580	495	-24.2	-25.9	266	14	2.4
2025-11-17T12:00	5600	494	-24.4	-25.9	266	14	2.4
2025-11-17T12:00	5620	493	-24.6	-25.9	266	14	2.4
2025-11-17T12:00	5640	491	-24.7	-26.2	266	14	2.4
2025-11-17T12:00	5660	490	-24.9	-26.1	266	14	2.4
2025-11-17T12:00	5680	489	-25.0	-25.9	266	14	2.4
2025-11-17T12:00	5700	487	-25.1	-25.8	265	14	2.4
2025-11-17T12:00	5720	486	-25.2	-26.2	263	13	2.4
2025-11-17T12:00	5740	485	-25.5	-26.3	261	13	2.3
2025-11-17T12:00	5760	483	-25.6	-26.8	260	12	2.3
2025-11-17T12:00	5780	482	-25.8	-26.8	260	12	2.3
2025-11-17T12:00	5800	481	-25.9	-26.8	259	11	2.3
2025-11-17T12:00	5820	479	-26.1	-27.0	260	11	2.3
2025-11-17T12:00	5840	478	-26.2	-27.1	261	11	2.3
2025-11-17T12:00	5860	477	-26.4	-27.3	263	11	2.3
2025-11-17T12:00	5880	475	-26.6	-27.8	266	11	2.3
2025-11-17T12:00	5900	474	-26.9	-28.2	269	11	2.3
2025-11-17T12:00	5920	473	-27.0	-28.3	271	12	2.3
2025-11-17T12:00	5940	471	-27.2	-28.4	270	12	2.3
2025-11-17T12:00	5960	470	-27.3	-28.4	269	12	2.3
2025-11-17T12:00	5980	469	-27.5	-29.0	268	12	2.3
2025-11-17T12:00	6000	467	-27.7	-29.8	267	12	2.3
2025-11-17T12:00	6020	466	-28.0	-29.6	266	12	2.3
2025-11-17T12:00	6040	465	-28.2	-29.8	267	12	2.2
2025-11-17T12:00	6060	463	-28.3	-30.2	268	12	2.3
2025-11-17T12:00	6080	462	-28.4	-30.0	270	12	2.3
2025-11-17T12:00	6100	461	-28.6	-30.0	271	13	2.3
2025-11-17T12:00	6120	460	-28.8	-30.4	273	13	2.2
2025-11-17T12:00	6140	458	-28.9	-30.5	275	13	2.2
2025-11-17T12:00	6160	457	-29.1	-30.7	277	13	2.2
2025-11-17T12:00	6180	456	-29.3	-30.8	278	13	2.2
2025-11-17T12:00	6200	455	-29.5	-30.8	278	13	2.2
2025-11-17T12:00	6220	453	-29.6	-30.8	278	13	2.2
2025-11-17T12:00	6240	452	-29.7	-31.0	277	13	2.2
2025-11-17T12:00	6260	451	-29.9	-30.8	276	13	2.2
2025-11-17T12:00	6280	449	-30.1	-30.6	275	13	2.2
2025-11-17T12:00	6300	448	-30.2	-31.2	275	13	2.2
2025-11-17T12:00	6320	447	-30.3	-31.6	275	13	2.2
2025-11-17T12:00	6340	446	-30.5	-31.9	276	13	2.2
2025-11-17T12:00	6360	444	-30.8	-31.8	276	13	2.1
2025-11-17T12:00	6380	443	-31.0	-32.3	277	13	2.1
2025-11-17T12:00	6400	442	-31.2	-32.9	277	13	2.1
2025-11-17T12:00	6420	441	-31.3	-33.1	277	13	2.1
2025-11-17T12:00	6440	440	-31.4	-33.0	277	13	2.1
2025-11-17T12:00	6460	438	-31.5	-32.7	277	13	2.1
2025-11-17T12:00	6480	437	-31.6	-32.6	278	13	2.1
2025-11-17T12:00	6500	436	-31.7	-32.7	279	12	2.1
2025-11-17T12:00	6520	435	-31.9	-32.7	281	12	2.1
2025-11-17T12:00	6540	433	-32.1	-33.3	283	13	2.2
2025-11-17T12:00	6560	432	-32.3	-34.0	284	13	2.2
2025-11-17T12:00	6580	431	-32.4	-34.1	285	14	2.2
2025-11-17T12:00	6600	430	-32.6	-34.0	286	14	2.1
2025-11-17T12:00	6620	428	-32.7	-34.9	286	15	2.2
2025-11-17T12:00	6640	427	-32.7	-34.9	286	15	2.2
2025-11-17T12:00	6660	426	-32.8	-36.5	286	15	2.2
2025-11-17T12:00	6680	425	-33.1	-38.8	286	15	2.2
2025-11-17T12:00	6700	423	-33.3	-41.8	286	15	2.2
2025-11-17T12:00	6720	422	-33.4	-42.2	286	15	2.2
2025-11-17T12:00	6740	421	-33.5	-42.9	285	15	2.1
2025-11-17T12:00	6760	420	-33.7	-44.9	285	15	2.1
2025-11-17T12:00	6780	419	-33.9	-46.3	286	14	2.1
2025-11-17T12:00	6800	418	-34.1	-46.0	288	15	2.1
2025-11-17T12:00	6820	416	-34.3	-47.0	289	15	2.1
2025-11-17T12:00	6840	415	-34.4	-48.0	291	15	2.1
2025-11-17T12:00	6860	414	-34.5	-45.3	291	16	2.1
2025-11-17T12:00	6880	413	-34.7	-44.6	291	16	2.0
2025-11-17T12:00	6900	412	-34.8	-45.6	290	16	2.0
2025-11-17T12:00	6920	410	-34.9	-45.2	289	16	2.0
2025-11-17T12:00	6940	409	-35.1	-45.6	288	16	2.0
2025-11-17T12:00	6960	408	-35.3	-46.8	286	15	2.0
2025-11-17T12:00	6980	407	-35.5	-49.1	285	15	2.0
2025-11-17T12:00	7000	406	-35.5	-53.0	284	15	2.0
2025-11-17T12:00	7020	405	-35.6	-52.0	284	15	2.0
2025-11-17T12:00	7040	403	-35.7	-49.4	284	15	2.0
2025-11-17T12:00	7060	402	-35.7	-48.9	285	15	2.0
2025-11-17T12:00	7080	401	-35.9	-47.2	285	15	2.0
2025-11-17T12:00	7100	400	-35.9	-48.2	285	14	2.0
2025-11-17T12:00	7120	399	-36.0	-48.4	284	14	2.0
2025-11-17T12:00	7140	398	-36.1	-48.5	283	14	2.0
2025-11-17T12:00	7160	397	-36.3	-49.7	282	13	2.0
2025-11-17T12:00	7180	395	-36.4	-49.6	281	13	2.0
2025-11-17T12:00	7200	394	-36.4	-51.0	280	12	2.0
2025-11-17T12:00	7220	393	-36.5	-54.1	280	12	2.0
2025-11-17T12:00	7240	392	-36.7	-56.5	281	12	2.0
2025-11-17T12:00	7260	391	-36.9	-56.0	282	12	2.0
2025-11-17T12:00	7280	390	-37.0	-56.2	284	13	2.1
2025-11-17T12:00	7300	389	-37.1	-55.9	287	13	2.1
2025-11-17T12:00	7320	387	-37.4	-55.6	288	13	2.1
2025-11-17T12:00	7340	386	-37.5	-56.1	288	13	2.1
2025-11-17T12:00	7360	385	-37.7	-56.2	288	13	2.2
2025-11-17T12:00	7380	384	-37.8	-56.3	287	13	2.1
2025-11-17T12:00	7400	383	-37.9	-56.4	286	12	2.1
2025-11-17T12:00	7420	382	-38.2	-56.3	283	12	2.2
2025-11-17T12:00	7440	381	-38.3	-57.4	282	12	2.2
2025-11-17T12:00	7460	380	-38.5	-57.0	282	11	2.2
2025-11-17T12:00	7480	378	-38.8	-57.1	283	12	2.2
2025-11-17T12:00	7500	377	-38.9	-57.5	284	12	2.1
2025-11-17T12:00	7520	376	-39.0	-58.1	284	12	2.2
2025-11-17T12:00	7540	375	-39.3	-58.2	284	13	2.1
2025-11-17T12:00	7560	374	-39.5	-58.1	283	13	2.1
2025-11-17T12:00	7580	373	-39.6	-58.3	282	13	2.1
2025-11-17T12:00	7600	372	-39.7	-59.1	281	13	2.1
2025-11-17T12:00	7620	371	-39.9	-58.8	281	13	2.1
2025-11-17T12:00	7640	370	-40.1	-58.7	281	12	2.0
2025-11-17T12:00	7660	369	-40.3	-58.8	282	12	2.0
2025-11-17T12:00	7680	368	-40.6	-58.7	283	12	2.0
2025-11-17T12:00	7700	366	-40.8	-58.7	284	12	2.0
2025-11-17T12:00	7720	365	-40.9	-58.7	284	12	2.0
2025-11-17T12:00	7740	364	-41.0	-59.2	285	12	2.0
2025-11-17T12:00	7760	363	-41.3	-59.1	286	12	2.0
2025-11-17T12:00	7780	362	-41.6	-59.2	287	12	2.0
2025-11-17T12:00	7800	361	-41.8	-59.5	289	12	2.0
2025-11-17T12:00	7820	360	-41.9	-59.6	291	12	2.0
2025-11-17T12:00	7840	359	-42.1	-59.4	293	12	1.9
2025-11-17T12:00	7860	358	-42.3	-59.5	294	12	1.9
2025-11-17T12:00	7880	357	-42.5	-59.3	294	12	1.9
2025-11-17T12:00	7900	356	-42.8	-59.5	294	12	1.9
2025-11-17T12:00	7920	355	-43.0	-59.8	293	13	1.9
2025-11-17T12:00	7940	354	-43.0	-60.1	292	13	1.9
2025-11-17T12:00	7960	353	-43.2	-60.0	291	13	1.9
2025-11-17T12:00	7980	352	-43.5	-59.5	290	14	1.9
2025-11-17T12:00	8000	351	-43.7	-59.8	289	14	1.9
2025-11-17T12:00	8020	350	-43.8	-60.3	287	14	1.9
2025-11-17T12:00	8040	349	-43.9	-60.2	286	15	1.9
2025-11-17T12:00	8060	348	-44.1	-60.2	284	15	1.8
2025-11-17T12:00	8080	347	-44.3	-60.6	283	15	1.8
2025-11-17T12:00	8100	346	-44.1	-61.4	281	15	1.8
2025-11-17T12:00	8120	344	-44.0	-61.2	280	14	1.8
2025-11-17T12:00	8140	343	-44.2	-61.1	280	14	1.9
2025-11-17T12:00	8160	342	-44.3	-61.2	280	14	1.9
2025-11-17T12:00	8180	341	-44.4	-61.5	280	14	1.9
2025-11-17T12:00	8200	340	-44.5	-61.6	281	14	1.9
2025-11-17T12:00	8220	339	-44.7	-61.7	282	14	1.9
2025-11-17T12:00	8240	338	-44.9	-61.8	282	13	1.9
2025-11-17T12:00	8260	337	-45.0	-62.1	281	13	2.0
2025-11-17T12:00	8280	336	-45.0	-62.6	281	13	2.0
2025-11-17T12:00	8300	335	-45.1	-62.8	279	13	2.0
2025-11-17T12:00	8320	334	-45.2	-62.9	278	12	2.0
2025-11-17T12:00	8340	333	-45.3	-62.9	278	13	2.1
2025-11-17T12:00	8360	332	-45.3	-63.0	278	13	2.1
2025-11-17T12:00	8380	331	-45.5	-63.1	279	13	2.1
2025-11-17T12:00	8400	330	-45.7	-62.9	282	13	2.1
2025-11-17T12:00	8420	329	-45.9	-63.0	284	13	2.1
2025-11-17T12:00	8440	328	-45.9	-63.3	286	13	2.1
2025-11-17T12:00	8460	327	-46.1	-63.5	289	13	2.2
2025-11-17T12:00	8480	326	-46.3	-63.5	291	14	2.2
2025-11-17T12:00	8500	325	-46.4	-63.4	292	14	2.2
2025-11-17T12:00	8520	324	-46.6	-63.3	293	14	2.2
2025-11-17T12:00	8540	323	-46.8	-63.5	293	14	2.2
2025-11-17T12:00	8560	322	-47.0	-63.7	293	14	2.2
2025-11-17T12:00	8580	321	-47.1	-63.9	292	14	2.2
2025-11-17T12:00	8600	321	-47.2	-63.8	290	14	2.2
2025-11-17T12:00	8620	320	-47.5	-63.6	288	14	2.2
2025-11-17T12:00	8640	319	-47.6	-63.4	287	15	2.2
2025-11-17T12:00	8660	318	-47.8	-63.7	286	15	2.2
2025-11-17T12:00	8680	317	-48.0	-64.1	286	15	2.2
2025-11-17T12:00	8700	316	-48.1	-63.9	286	16	2.2
2025-11-17T12:00	8720	315	-48.2	-64.0	287	16	2.2
2025-11-17T12:00	8740	314	-48.3	-64.3	289	16	2.2
2025-11-17T12:00	8760	313	-48.4	-64.5	291	17	2.2
2025-11-17T12:00	8780	312	-48.6	-64.5	293	17	2.2
2025-11-17T12:00	8800	311	-48.7	-64.5	294	17	2.2
2025-11-17T12:00	8820	310	-48.8	-64.7	295	17	2.2
2025-11-17T12:00	8840	309	-48.9	-64.8	296	16	2.2
2025-11-17T12:00	8860	308	-48.9	-64.9	296	16	2.2
2025-11-17T12:00	8880	307	-49.0	-64.9	296	16	2.2
2025-11-17T12:00	8900	306	-49.1	-65.0	297	16	2.3
2025-11-17T12:00	8920	305	-49.4	-65.2	298	16	2.3
2025-11-17T12:00	8940	304	-49.6	-65.3	300	16	2.3
2025-11-17T12:00	8960	303	-49.7	-65.6	302	16	2.3
2025-11-17T12:00	8980	302	-49.8	-66.0	304	17	2.3
2025-11-17T12:00	9000	302	-49.9	-66.4	305	17	2.4
2025-11-17T12:00	9020	301	-50.0	-66.7	306	18	2.5
2025-11-17T12:00	9040	300	-50.1	-66.8	307	18	2.6
2025-11-17T12:00	9060	299	-50.2	-67.1	309	18	2.7
2025-11-17T12:00	9080	298	-50.2	-67.7	310	18	2.8
2025-11-17T12:00	9100	297	-50.3	-68.0	312	19	2.9
2025-11-17T12:00	9120	296	-50.5	-68.1	314	19	3.1
2025-11-17T12:00	9140	295	-50.6	-68.2	315	19	3.2
2025-11-17T12:00	9160	294	-50.5	-68.6	317	19	3.3
2025-11-17T12:00	9180	293	-50.5	-69.1	318	19	3.5
2025-11-17T12:00	9200	293	-50.4	-69.7	318	19	3.6
2025-11-17T12:00	9220	292	-50.3	-70.7	319	20	3.7
2025-11-17T12:00	9240	291	-50.3	-72.0	319	20	3.9
2025-11-17T12:00	9260	290	-50.0	-72.7	319	20	4.1
2025-11-17T12:00	9280	289	-49.8	-72.7	320	20	4.3
2025-11-17T12:00	9300	288	-49.9	-72.5	320	20	4.5
2025-11-17T12:00	9320	287	-50.1	-72.3	321	21	4.7
2025-11-17T12:00	9340	286	-50.1	-72.2	322	21	4.8
2025-11-17T12:00	9360	285	-50.2	-72.4	322	22	4.9
2025-11-17T12:00	9380	285	-50.3	-72.6	323	22	5.1
2025-11-17T12:00	9400	284	-50.3	-72.6	324	22	5.2
2025-11-17T12:00	9420	283	-50.3	-72.6	325	23	5.2
2025-11-17T12:00	9440	282	-50.4	-72.6	325	23	5.3
2025-11-17T12:00	9460	281	-50.5	-72.7	326	23	5.3
2025-11-17T12:00	9480	280	-50.5	-72.7	327	23	5.4
2025-11-17T12:00	9500	279	-50.4	-72.9	327	23	5.5
2025-11-17T12:00	9520	278	-50.3	-73.2	328	23	5.5
2025-11-17T12:00	9540	278	-50.4	-73.4	329	23	5.6
2025-11-17T12:00	9560	277	-50.6	-73.7	329	24	5.7
2025-11-17T12:00	9580	276	-50.5	-73.8	329	24	5.7
2025-11-17T12:00	9600	275	-50.5	-74.0	330	25	5.7
2025-11-17T12:00	9620	274	-50.7	-74.2	330	25	5.8
2025-11-17T12:00	9640	273	-50.8	-74.2	330	26	5.8
2025-11-17T12:00	9660	273	-50.9	-74.3	330	26	5.9
2025-11-17T12:00	9680	272	-51.1	-74.4	331	26	5.9
2025-11-17T12:00	9700	271	-51.1	-74.5	332	27	5.9
2025-11-17T12:00	9720	270	-51.1	-74.6	333	27	6.0
2025-11-17T12:00	9740	269	-50.9	-74.6	333	28	6.0
2025-11-17T12:00	9760	268	-50.9	-74.4	334	28	6.1
2025-11-17T12:00	9780	268	-50.9	-74.3	335	28	6.1
2025-11-17T12:00	9800	267	-50.9	-74.3	335	28	6.1
2025-11-17T12:00	9820	266	-50.8	-73.9	336	28	6.1
2025-11-17T12:00	9840	265	-50.8	-73.6	337	27	6.0
2025-11-17T12:00	9860	264	-50.9	-73.6	338	27	6.0
2025-11-17T12:00	9880	263	-51.1	-73.9	339	26	6.0
2025-11-17T12:00	9900	263	-51.2	-74.1	339	26	5.9
2025-11-17T12:00	9920	262	-51.2	-74.2	339	26	5.9
2025-11-17T12:00	9940	261	-51.3	-74.2	339	26	5.9
2025-11-17T12:00	9960	260	-51.3	-74.2	339	26	5.9
2025-11-17T12:00	9980	259	-51.5	-74.4	339	26	5.9
2025-11-17T12:00	10000	259	-51.6	-74.5	340	26	5.9
2025-11-17T12:00	10018	258	-51.6	-74.5	340	26	5.9
2025-11-17T12:00	10050	257	-51.8	-74.0	341	26	5.9
2025-11-17T12:00	10100	255	-52.1	-73.3	341	26	5.8
2025-11-17T12:00	10150	253	-52.3	-73.3	342	27	5.7
2025-11-17T12:00	10200	251	-52.4	-73.9	344	26	5.6
2025-11-17T12:00	10250	249	-52.5	-74.1	344	26	5.5
2025-11-17T12:00	10300	247	-52.8	-74.3	344	25	5.4
2025-11-17T12:00	10350	245	-53.1	-74.9	345	24	5.4
2025-11-17T12:00	10400	243	-53.2	-74.9	346	25	5.4
2025-11-17T12:00	10450	241	-53.2	-75.0	348	26	5.4
2025-11-17T12:00	10500	239	-53.4	-75.9	348	27	5.4
2025-11-17T12:00	10550	237	-53.5	-76.6	348	27	5.5
2025-11-17T12:00	10600	236	-53.5	-77.0	347	26	5.6
2025-11-17T12:00	10650	234	-53.5	-76.8	344	26	5.7
2025-11-17T12:00	10700	232	-53.8	-76.5	343	26	5.7
2025-11-17T12:00	10750	230	-53.9	-76.3	341	26	5.7
2025-11-17T12:00	10800	228	-54.1	-76.4	339	26	5.6
2025-11-17T12:00	10850	227	-54.4	-76.5	337	26	5.6
2025-11-17T12:00	10900	225	-54.6	-76.6	335	26	5.5
2025-11-17T12:00	10950	223	-54.7	-76.9	334	26	5.5
2025-11-17T12:00	11000	221	-54.8	-77.3	334	26	5.5
2025-11-17T12:00	11050	220	-54.7	-77.2	336	25	5.5
2025-11-17T12:00	11100	218	-54.5	-77.7	336	24	5.4
2025-11-17T12:00	11150	216	-54.6	-77.9	336	24	5.4
2025-11-17T12:00	11200	215	-54.9	-78.0	337	23	5.4
2025-11-17T12:00	11250	213	-54.8	-78.1	339	23	5.4
2025-11-17T12:00	11300	211	-54.8	-78.3	340	22	5.4
2025-11-17T12:00	11350	210	-54.5	-78.5	340	21	5.4
2025-11-17T12:00	11400	208	-54.5	-78.5	339	21	5.4
2025-11-17T12:00	11450	206	-54.9	-78.6	337	20	5.3
2025-11-17T12:00	11500	205	-55.2	-78.6	336	20	5.3
2025-11-17T12:00	11550	203	-55.4	-78.2	335	19	5.2
2025-11-17T12:00	11600	202	-55.6	-77.6	333	19	5.1
2025-11-17T12:00	11650	200	-55.8	-78.8	330	18	5.0
2025-11-17T12:00	11700	198	-56.0	-79.4	327	18	5.0
2025-11-17T12:00	11750	197	-56.3	-79.9	329	18	5.1
2025-11-17T12:00	11800	195	-56.6	-80.2	334	18	5.4
2025-11-17T12:00	11850	194	-56.9	-80.3	337	19	5.6
2025-11-17T12:00	11900	192	-57.1	-80.5	338	20	5.8
2025-11-17T12:00	11950	191	-57.2	-80.6	337	21	6.0
2025-11-17T12:00	12000	189	-57.4	-80.4	335	20	6.0
2025-11-17T12:00	12050	188	-57.1	-80.5	332	20	6.0
2025-11-17T12:00	12100	186	-56.9	-80.3	330	19	5.8
2025-11-17T12:00	12150	185	-57.1	-80.4	331	18	5.6
2025-11-17T12:00	12200	183	-57.0	-80.7	334	17	5.4
2025-11-17T12:00	12250	182	-55.3	-80.6	337	15	5.2
2025-11-17T12:00	12300	181	-54.9	-80.8	340	13	5.1
2025-11-17T12:00	12350	179	-54.8	-80.8	343	12	5.1
2025-11-17T12:00	12400	178	-55.0	-80.8	345	12	5.0
2025-11-17T12:00	12450	176	-55.3	-80.7	346	11	5.0
2025-11-17T12:00	12500	175	-55.6	-80.7	348	11	5.0
2025-11-17T12:00	12550	174	-56.0	-80.6	351	10	5.0
2025-11-17T12:00	12600	172	-56.5	-80.8	352	10	4.9
2025-11-17T12:00	12650	171	-57.0	-80.8	349	10	4.8
2025-11-17T12:00	12700	169	-57.4	-80.7	344	9	4.8
2025-11-17T12:00	12750	168	-57.7	-80.9	336	8	4.7
2025-11-17T12:00	12800	167	-57.8	-80.8	324	8	4.4
2025-11-17T12:00	12850	166	-57.8	-80.9	312	8	4.2
2025-11-17T12:00	12900	164	-58.0	-81.0	307	9	4.0
2025-11-17T12:00	12950	163	-58.3	-81.2	306	11	3.9
2025-11-17T12:00	13000	162	-58.4	-81.3	305	13	3.9
2025-11-17T12:00	13050	160	-58.6	-81.4	305	13	3.9
2025-11-17T12:00	13100	159	-58.7	-81.5	303	13	3.9
2025-11-17T12:00	13150	158	-58.4	-81.4	303	12	3.8
2025-11-17T12:00	13200	157	-58.5	-81.6	307	13	3.7
2025-11-17T12:00	13250	155	-58.9	-81.9	309	15	3.7
2025-11-17T12:00	13300	154	-59.2	-81.9	309	16	3.7
2025-11-17T12:00	13350	153	-59.6	-82.1	310	17	3.7
2025-11-17T12:00	13400	152	-59.8	-82.1	310	18	3.8
2025-11-17T12:00	13450	150	-60.2	-81.7	307	19	3.9
2025-11-17T12:00	13500	149	-60.2	-81.7	305	20	4.1
2025-11-17T12:00	13550	148	-59.9	-82.6	305	19	4.2
2025-11-17T12:00	13600	147	-58.8	-82.8	307	18	4.4
2025-11-17T12:00	13650	146	-58.1	-82.8	308	17	4.5
2025-11-17T12:00	13700	145	-58.2	-82.9	310	16	4.6
2025-11-17T12:00	13750	143	-58.3	-82.8	313	16	4.7
2025-11-17T12:00	13800	142	-58.4	-82.8	315	15	4.7
2025-11-17T12:00	13850	141	-58.6	-82.9	315	15	4.7
2025-11-17T12:00	13900	140	-58.7	-82.9	315	14	4.7
2025-11-17T12:00	13950	139	-58.6	-83.0	315	14	4.7
2025-11-17T12:00	14000	138	-58.7	-83.2	314	13	4.7
2025-11-17T12:00	14050	137	-58.6	-83.1	311	13	4.6
2025-11-17T12:00	14100	136	-58.6	-83.1	306	13	4.7
2025-11-17T12:00	14150	135	-58.7	-83.0	300	13	5.1
2025-11-17T12:00	14200	133	-58.9	-83.0	294	14	5.1
2025-11-17T12:00	14250	132	-59.2	-83.3	290	13	4.8
2025-11-17T12:00	14300	131	-59.3	-83.4	288	12	4.6
2025-11-17T12:00	14350	130	-59.3	-83.5	289	11	4.5
2025-11-17T12:00	14400	129	-59.3	-83.6	290	10	4.5
2025-11-17T12:00	14450	128	-59.0	-83.6	288	9	4.5
2025-11-17T12:00	14500	127	-58.8	-83.7	284	9	4.4
2025-11-17T12:00	14550	126	-58.5	-83.4	279	9	4.6
2025-11-17T12:00	14600	125	-58.8	-83.5	276	10	5.1
2025-11-17T12:00	14650	124	-58.8	-83.6	277	11	5.6
2025-11-17T12:00	14700	123	-58.5	-83.7	276	11	5.9
2025-11-17T12:00	14750	122	-58.3	-83.6	271	11	6.0
2025-11-17T12:00	14800	121	-58.2	-83.2	268	12	6.1
2025-11-17T12:00	14850	120	-58.7	-83.2	267	12	6.1
2025-11-17T12:00	14900	119	-59.1	-83.6	263	12	6.0
2025-11-17T12:00	14950	118	-59.5	-83.6	254	12	6.0
2025-11-17T12:00	15000	117	-59.9	-83.6	251	12	5.9
2025-11-17T12:00	15050	117	-60.3	-83.6	254	12	5.9
2025-11-17T12:00	15100	116	-60.6	-83.9	259	12	5.8
2025-11-17T12:00	15150	115	-60.7	-84.0	263	12	5.8
2025-11-17T12:00	15200	114	-60.8	-84.1	269	11	5.8
2025-11-17T12:00	15250	113	-61.2	-84.3	278	12	5.8
2025-11-17T12:00	15300	112	-61.0	-84.3	284	12	5.7
2025-11-17T12:00	15350	111	-60.8	-84.4	284	13	5.8
2025-11-17T12:00	15400	110	-60.6	-84.4	280	14	5.9
2025-11-17T12:00	15450	109	-60.6	-84.5	279	14	6.0
2025-11-17T12:00	15500	108	-60.4	-84.6	281	14	6.2
2025-11-17T12:00	15550	108	-59.9	-84.5	279	15	6.3
2025-11-17T12:00	15600	107	-59.6	-84.5	275	15	6.4
2025-11-17T12:00	15650	106	-59.7	-84.8	269	15	6.5
2025-11-17T12:00	15700	105	-59.1	-84.6	264	15	6.6
2025-11-17T12:00	15750	104	-59.2	-84.6	262	16	6.7
2025-11-17T12:00	15800	103	-59.6	-84.4	265	16	6.9
2025-11-17T12:00	15850	102	-60.1	-84.6	268	17	6.9
2025-11-17T12:00	15900	102	-60.0	-84.6	269	18	7.1
2025-11-17T12:00	15950	101	-59.8	-84.5	272	18	7.1
2025-11-17T12:00	16000	100	-60.1	-84.3	276	19	7.0
2025-11-17T12:00	16050	99	-60.2	-84.3	279	19	6.9
2025-11-17T12:00	16100	99	-60.1	-84.6	281	18	6.8
2025-11-17T12:00	16150	98	-60.5	-84.8	282	18	6.6
2025-11-17T12:00	16200	97	-60.6	-84.8	283	18	6.4
2025-11-17T12:00	16250	96	-60.6	-85.0	284	18	6.2
2025-11-17T12:00	16300	95	-60.1	-85.0	285	17	6.2
2025-11-17T12:00	16350	95	-60.2	-85.1	288	17	6.2
2025-11-17T12:00	16400	94	-60.5	-85.1	294	16	6.5
2025-11-17T12:00	16450	93	-60.8	-85.2	295	16	6.8
2025-11-17T12:00	16500	92	-60.8	-85.2	295	16	6.9
2025-11-17T12:00	16550	92	-60.7	-84.7	295	16	7.0
2025-11-17T12:00	16600	91	-60.3	-83.4	293	15	7.1
2025-11-17T12:00	16650	90	-60.2	-82.6	289	14	7.1
2025-11-17T12:00	16700	89	-60.2	-81.8	282	13	6.9
2025-11-17T12:00	16750	89	-59.4	-81.0	273	12	6.9
2025-11-17T12:00	16800	88	-59.0	-81.6	265	12	7.2
2025-11-17T12:00	16850	87	-59.0	-83.1	260	11	7.5
2025-11-17T12:00	16900	87	-59.3	-84.4	261	11	7.7
2025-11-17T12:00	16950	86	-59.6	-85.3	263	10	7.8
2025-11-17T12:00	17000	85	-60.0	-85.4	265	10	7.8
2025-11-17T12:00	17050	85	-60.3	-85.4	266	9	7.9
2025-11-17T12:00	17100	84	-60.8	-85.5	266	9	7.8
2025-11-17T12:00	17150	83	-61.0	-85.1	267	9	7.7
2025-11-17T12:00	17200	83	-61.1	-84.1	267	10	7.6
2025-11-17T12:00	17250	82	-61.5	-84.3	268	10	7.7
2025-11-17T12:00	17300	81	-61.8	-85.4	269	9	7.8
2025-11-17T12:00	17350	81	-61.9	-85.9	269	9	7.9
2025-11-17T12:00	17400	80	-62.2	-86.0	270	10	8.1
2025-11-17T12:00	17450	79	-62.4	-86.1	270	10	8.2
2025-11-17T12:00	17500	79	-62.5	-86.3	269	10	8.1
2025-11-17T12:00	17550	78	-62.4	-86.2	269	10	7.9
2025-11-17T12:00	17600	77	-62.3	-86.1	271	10	7.9
2025-11-17T12:00	17650	77	-62.5	-86.2	270	11	7.8
2025-11-17T12:00	17700	76	-62.5	-86.4	267	12	7.9
2025-11-17T12:00	17750	76	-62.5	-86.5	265	13	8.0
2025-11-17T12:00	17800	75	-62.4	-86.4	265	13	8.4
2025-11-17T12:00	17850	74	-62.5	-86.6	265	13	9.0
2025-11-17T12:00	17900	74	-62.2	-86.5	261	13	9.6
2025-11-17T12:00	17950	73	-62.2	-86.1	257	14	10.1
2025-11-17T12:00	18000	72	-62.0	-85.6	258	15	10.4
2025-11-17T12:00	18050	72	-62.1	-85.6	258	17	10.6
2025-11-17T12:00	18100	71	-62.2	-85.0	257	18	10.8
2025-11-17T12:00	18150	71	-62.0	-84.9	256	18	10.7
2025-11-17T12:00	18200	70	-62.1	-86.1	257	16	10.8
2025-11-17T12:00	18250	70	-62.0	-86.7	258	15	10.8
2025-11-17T12:00	18300	69	-61.6	-86.8	254	14	10.8
2025-11-17T12:00	18350	69	-61.2	-86.8	248	14	10.8
2025-11-17T12:00	18400	68	-60.8	-86.5	246	14	10.8
2025-11-17T12:00	18450	67	-60.8	-86.3	247	14	10.9
2025-11-17T12:00	18500	67	-61.2	-86.4	250	15	11.1
2025-11-17T12:00	18550	66	-61.2	-86.2	256	16	11.1
2025-11-17T12:00	18600	66	-61.5	-85.6	261	16	11.2
2025-11-17T12:00	18650	65	-61.5	-84.5	263	15	11.3
2025-11-17T12:00	18700	65	-61.1	-83.8	267	15	11.4
2025-11-17T12:00	18750	64	-60.6	-83.8	270	14	11.6
2025-11-17T12:00	18800	64	-60.7	-83.1	266	14	11.7
2025-11-17T12:00	18850	63	-60.7	-83.2	260	13	11.9
2025-11-17T12:00	18900	63	-60.6	-83.8	259	13	12.0
2025-11-17T12:00	18950	62	-60.5	-84.9	260	13	12.2
2025-11-17T12:00	19000	62	-60.6	-86.2	260	13	12.4
2025-11-17T12:00	19050	61	-60.2	-86.3	260	13	12.7
2025-11-17T12:00	19100	61	-60.0	-86.1	260	13	12.9
2025-11-17T12:00	19150	60	-59.9	-86.1	258	13	13.1
2025-11-17T12:00	19200	60	-60.0	-86.2	257	14	13.2
2025-11-17T12:00	19250	59	-60.1	-86.1	258	14	13.3
2025-11-17T12:00	19300	59	-60.3	-86.1	260	14	13.4
2025-11-17T12:00	19350	58	-60.2	-86.0	261	13	13.5
2025-11-17T12:00	19400	58	-60.2	-86.2	259	13	13.4
2025-11-17T12:00	19450	57	-60.5	-86.5	253	13	13.4
2025-11-17T12:00	19500	57	-60.3	-86.3	247	13	13.5
2025-11-17T12:00	19550	57	-60.3	-85.9	243	14	13.4
2025-11-17T12:00	19600	56	-60.6	-85.2	242	14	13.5
2025-11-17T12:00	19650	56	-60.6	-84.3	244	15	13.3
2025-11-17T12:00	19700	55	-61.0	-84.2	247	16	13.3
2025-11-17T12:00	19750	55	-61.2	-84.9	248	16	13.4
2025-11-17T12:00	19800	54	-61.5	-86.2	248	17	13.6
2025-11-17T12:00	19850	54	-61.9	-86.4	248	17	13.3
2025-11-17T12:00	19900	53	-62.4	-85.5	250	17	13.1
2025-11-17T12:00	19950	53	-62.6	-84.7	251	18	13.0
2025-11-17T12:00	20000	53	-62.9	-85.1	250	18	13.0
2025-11-17T12:00	20050	52	-63.3		250	18	12.9
2025-11-17T12:00	20100	52	-63.5		252	19	12.8
2025-11-17T12:00	20150	51	-63.6		255	19	12.6
2025-11-17T12:00	20200	51	-63.7		258	19	12.7
2025-11-17T12:00	20250	50	-63.8		260	19	12.5
2025-11-17T12:00	20300	50	-63.9		261	19	12.5
2025-11-17T12:00	20350	50	-64.4		259	19	12.4
2025-11-17T12:00	20400	49	-64.5		257	19	12.4
2025-11-17T12:00	20450	49	-64.8		253	19	12.3
2025-11-17T12:00	20500	48	-64.9		250	19	12.2
2025-11-17T12:00	20550	48	-64.0		252	20	12.0
2025-11-17T12:00	20600	48	-64.0		257	21	11.5
2025-11-17T12:00	20650	47	-64.0		262	21	11.1
2025-11-17T12:00	20700	47	-63.6		266	20	10.8
2025-11-17T12:00	20750	46	-63.6		268	19	10.6
2025-11-17T12:00	20800	46	-64.0		271	18	10.3
2025-11-17T12:00	20850	46	-64.3		273	17	10.2
2025-11-17T12:00	20900	45	-64.4		274	16	10.2
2025-11-17T12:00	20950	45	-64.5		275	15	10.2
2025-11-17T12:00	21000	45	-64.5		275	14	10.2
2025-11-17T12:00	21050	44	-64.9		274	14	10.2
2025-11-17T12:00	21100	44	-65.2		272	13	10.1
2025-11-17T12:00	21150	44	-65.5		268	12	10.1
2025-11-17T12:00	21200	43	-65.6		263	12	10.1
2025-11-17T12:00	21250	43	-65.3		257	13	10.0
2025-11-17T12:00	21300	42	-65.1		254	14	10.0
2025-11-17T12:00	21350	42	-64.8		253	15	10.1
2025-11-17T12:00	21400	42	-65.0		253	17	10.0
2025-11-17T12:00	21450	41	-65.1		252	17	10.0
2025-11-17T12:00	21500	41	-65.2		252	17	10.0
2025-11-17T12:00	21550	41	-65.1		253	17	10.0
2025-11-17T12:00	21600	40	-65.0		255	17	10.0
2025-11-17T12:00	21650	40	-64.5		255	17	10.0
2025-11-17T12:00	21700	40	-64.0		255	16	10.2
2025-11-17T12:00	21750	39	-63.9		258	16	10.4
2025-11-17T12:00	21800	39	-63.7		261	16	10.5
2025-11-17T12:00	21850	39	-63.8		261	16	10.7
2025-11-17T12:00	21900	39	-63.7		260	16	10.8
2025-11-17T12:00	21950	38	-63.6		259	16	10.9
2025-11-17T12:00	22000	38	-63.9		258	16	11.1
2025-11-17T12:00	22050	38	-64.2		259	15	11.2
2025-11-17T12:00	22100	37	-64.6		261	15	11.2
2025-11-17T12:00	22150	37	-64.9		262	15	11.3
2025-11-17T12:00	22200	37	-65.1		262	14	11.4
2025-11-17T12:00	22250	36	-65.6		259	14	11.4
2025-11-17T12:00	22300	36	-65.6		255	14	11.4
2025-11-17T12:00	22350	36	-65.9		252	14	11.5
2025-11-17T12:00	22400	35	-66.2		253	14	11.5
2025-11-17T12:00	22450	35	-66.6		256	14	11.5
2025-11-17T12:00	22500	35	-66.9		258	14	11.4
2025-11-17T12:00	22550	35	-67.2		258	15	11.3
2025-11-17T12:00	22600	34	-67.0		260	15	11.3
2025-11-17T12:00	22650	34	-67.2		263	16	11.2
2025-11-17T12:00	22700	34	-67.5		266	16	11.2
2025-11-17T12:00	22750	33	-67.9		267	17	11.1
2025-11-17T12:00	22800	33	-67.8		267	17	11.0
2025-11-17T12:00	22850	33	-67.5		266	17	10.9
2025-11-17T12:00	22900	33	-67.5		265	16	10.8
2025-11-17T12:00	22950	32	-67.6		263	15	10.6
2025-11-17T12:00	23000	32	-67.8		262	15	10.6
2025-11-17T12:00	23050	32	-67.9		261	15	10.5
2025-11-17T12:00	23100	32	-67.8		261	15	10.5
2025-11-17T12:00	23150	31	-67.9		260	14	10.5
2025-11-17T12:00	23200	31	-68.2		258	13	10.4
2025-11-17T12:00	23250	31	-68.1		256	13	10.4
2025-11-17T12:00	23300	31	-68.2		255	14	10.4
2025-11-17T12:00	23350	30	-67.8		255	16	10.5
2025-11-17T12:00	23400	30	-67.2		255	17	10.6
2025-11-17T12:00	23450	30	-66.9		254	17	10.7
2025-11-17T12:00	23500	30	-66.6		254	19	10.8
2025-11-17T12:00	23550	29	-66.6		256	20	10.9
2025-11-17T12:00	23600	29	-66.7		258	21	10.9
2025-11-17T12:00	23650	29	-66.9		261	21	11.0
2025-11-17T12:00	23700	29	-67.1		263	21	11.0
2025-11-17T12:00	23750	28	-67.4		264	21	11.0
2025-11-17T12:00	23800	28	-67.7		263	20	11.1
2025-11-17T12:00	23850	28	-67.9		261	19	11.0
2025-11-17T12:00	23900	28	-67.8		259	18	11.0
2025-11-17T12:00	23950	27	-67.7		258	17	11.0
2025-11-17T12:00	24000	27	-67.5		256	16	11.0
2025-11-17T12:00	24050	27	-67.5		255	16	10.9
2025-11-17T12:00	24100	27	-67.8		257	16	10.8
2025-11-17T12:00	24150	27	-68.0		256	16	10.8
2025-11-17T12:00	24200	26	-68.2		254	15	10.8
2025-11-17T12:00	24250	26	-68.3		251	14	10.7
2025-11-17T12:00	24300	26	-68.5		249	13	10.6
2025-11-17T12:00	24350	26	-68.7		247	13	10.5
2025-11-17T12:00	24400	25	-68.7		247	14	10.5
2025-11-17T12:00	24450	25	-68.6		250	15	10.4
2025-11-17T12:00	24500	25	-68.7		252	15	10.4
2025-11-17T12:00	24550	25	-68.7		253	16	10.4
2025-11-17T12:00	24600	25	-68.6		255	18	10.3
2025-11-17T12:00	24650	24	-68.5		258	19	10.2
2025-11-17T12:00	24700	24	-68.0		259	19	10.0
2025-11-17T12:00	24750	24	-67.8		258	18	9.9
2025-11-17T12:00	24800	24	-67.4		253	18	9.8
2025-11-17T12:00	24850	24	-66.9		248	18	9.7
2025-11-17T12:00	24900	23	-66.7		246	19	9.8
2025-11-17T12:00	24950	23	-66.2		249	19	9.8
2025-11-17T12:00	25000	23	-65.4		253	19	9.7
2025-11-17T12:00	25050	23	-65.6		258	19	9.7
2025-11-17T12:00	25100	23	-66.0		263	19	9.7
2025-11-17T12:00	25150	22	-66.4		266	20	9.6
2025-11-17T12:00	25200	22	-66.4		266	21	9.6
2025-11-17T12:00	25250	22	-66.4		266	21	9.5
2025-11-17T12:00	25300	22	-66.8		267	21	9.4
2025-11-17T12:00	25350	22	-67.1		267	20	9.3
2025-11-17T12:00	25400	22	-67.1		265	21	9.3
2025-11-17T12:00	25450	21	-66.9		263	22	9.2
2025-11-17T12:00	25500	21	-67.0		260	22	9.2
2025-11-17T12:00	25550	21	-67.0		257	22	9.2
2025-11-17T12:00	25600	21	-67.2		255	24	9.1
2025-11-17T12:00	25650	21	-66.8		252	25	9.1
2025-11-17T12:00	25700	21	-66.9		251	27	9.1
2025-11-17T12:00	25750	20	-67.0		250	27	9.0
2025-11-17T12:00	25800	20	-66.6		251	27	9.0
2025-11-17T12:00	25850	20	-66.4		252	26	9.0
2025-11-17T12:00	25900	20	-66.6		254	26	9.0
2025-11-17T12:00	25950	20	-66.4		255	26	9.0
2025-11-17T12:00	26000	20	-66.5		255	26	9.0
2025-11-17T12:00	26050	19	-66.8		255	26	9.0
2025-11-17T12:00	26100	19	-67.2		255	25	9.0
2025-11-17T12:00	26150	19	-67.5		255	25	8.9
2025-11-17T12:00	26200	19	-67.7		255	25	8.9
2025-11-17T12:00	26250	19	-67.8		255	25	8.8
2025-11-17T12:00	26300	19	-67.9		254	25	8.8
2025-11-17T12:00	26350	18	-68.1		255	25	8.8
2025-11-17T12:00	26400	18	-68.5		257	25	8.7
2025-11-17T12:00	26450	18	-68.9		258	25	8.7
2025-11-17T12:00	26500	18	-69.0		259	26	8.7
2025-11-17T12:00	26550	18	-69.0		259	28	8.7
2025-11-17T12:00	26600	18	-68.8		261	29	8.6
2025-11-17T12:00	26650	18	-68.9		264	30	8.5
2025-11-17T12:00	26700	17	-68.7		267	31	8.5
2025-11-17T12:00	26750	17	-68.7		268	30	8.4
2025-11-17T12:00	26800	17	-68.4		268	29	8.3
2025-11-17T12:00	26850	17	-68.3		267	27	8.2
2025-11-17T12:00	26900	17	-68.4		266	26	8.2
2025-11-17T12:00	26950	17	-68.7		266	24	8.1
2025-11-17T12:00	27000	17	-68.9		264	23	8.0
2025-11-17T12:00	27050	16	-68.9		261	24	7.9
2025-11-17T12:00	27100	16	-68.9		258	26	7.8
2025-11-17T12:00	27150	16	-68.1		257	29	7.8
2025-11-17T12:00	27200	16	-68.2		256	31	7.7
2025-11-17T12:00	27250	16	-68.4		255	33	7.6
2025-11-17T12:00	27300	16	-68.2		255	33	7.6
2025-11-17T12:00	27350	16	-68.0		255	33	7.5
2025-11-17T12:00	27400	15	-68.2		255	32	7.4
2025-11-17T12:00	27450	15	-68.1		255	31	7.3
2025-11-17T12:00	27500	15	-67.7		255	29	7.3
2025-11-17T12:00	27550	15	-67.6		256	28	7.3
2025-11-17T12:00	27600	15	-67.8		256	27	7.3
2025-11-17T12:00	27650	15	-67.9		256	26	7.2
2025-11-17T12:00	27700	15	-68.2		256	25	7.2
2025-11-17T12:00	27750	15	-68.5		256	24	7.1
2025-11-17T12:00	27800	14	-68.7		254	24	7.1
2025-11-17T12:00	27850	14	-68.7		253	25	7.0
2025-11-17T12:00	27900	14	-68.7		252	27	6.9
2025-11-17T12:00	27950	14	-68.8		252	28	6.9
2025-11-17T12:00	28000	14	-68.9		251	30	6.8
2025-11-17T12:00	28050	14	-69.0		251	31	6.7
2025-11-17T12:00	28100	14	-69.2		251	32	6.6
2025-11-17T12:00	28150	14	-69.6		252	32	6.5
2025-11-17T12:00	28200	14	-69.6		253	32	6.4
2025-11-17T12:00	28250	13	-69.5		253	31	6.3
2025-11-17T12:00	28300	13	-69.9		254	31	6.2
2025-11-17T12:00	28350	13	-70.1		252	31	6.1
2025-11-17T12:00	28400	13	-69.9		250	31	6.0
2025-11-17T12:00	28450	13	-69.6		248	32	5.9
2025-11-17T12:00	28500	13	-69.5		248	32	5.8
2025-11-17T12:00	28550	13	-69.1		249	31	5.8
2025-11-17T12:00	28600	13	-69.1		250	31	5.8
2025-11-17T12:00	28650	13	-69.2		250	31	5.7
2025-11-17T12:00	28700	12	-68.9		250	32	5.7
2025-11-17T12:00	28750	12	-69.0		251	33	5.7
2025-11-17T12:00	28800	12	-69.1		251	33	5.6
2025-11-17T12:00	28850	12	-69.2		252	35	5.5
2025-11-17T12:00	28900	12	-69.3		252	36	5.5
2025-11-17T12:00	28950	12	-69.2		252	36	5.5
2025-11-17T12:00	29000	12	-69.1		252	35	5.4
2025-11-17T12:00	29050	12	-69.1		251	35	5.4
2025-11-17T12:00	29100	12	-69.2		250	34	5.3
2025-11-17T12:00	29150	12	-69.3		250	34	5.3
2025-11-17T12:00	29200	11	-69.6		251	34	5.3
2025-11-17T12:00	29250	11	-69.6		251	35	5.2
2025-11-17T12:00	29300	11	-69.3		251	35	
2025-11-17T12:00	29350	11	-69.1		252	36	
2025-11-17T12:00	29400	11	-69.0		252	37	
2025-11-17T12:00	29450	11	-69.3		252	37	
2025-11-17T12:00	29500	11	-69.3		253	36	
2025-11-17T12:00	29550	11	-69.4		254	36	
2025-11-17T12:00	29600	11	-69.2		255	36	
2025-11-17T12:00	29650	11	-69.3		255	36	
2025-11-17T12:00	29700	11	-69.1		254	36	
2025-11-17T12:00	29750	10	-69.2		253	37	
2025-11-17T12:00	29800	10	-69.3		252	38	
2025-11-17T12:00	29850	10	-69.4		252	40	
2025-11-17T12:00	29900	10	-69.1		252	41	
2025-11-17T12:00	29950	10	-68.9		253	42	
2025-11-17T12:00	30000	10	-68.7		254	41	
2025-11-17T12:00	30050	10	-68.7		252	39	
2025-11-17T12:00	30100	10	-68.5		251	39	
2025-11-17T12:00	30150	10	-67.8		251	40	
2025-11-17T12:00	30200	10	-67.1		252	41	
2025-11-17T12:00	30250	10	-66.8		253	40	
2025-11-17T12:00	30300	10	-66.7		253	38	
2025-11-17T12:00	30350	9	-66.7		254	38	
2025-11-17T12:00	30400	9	-65.5		255	39	
2025-11-17T12:00	30450	9	-64.4		257	43	
2025-11-17T12:00	30500	9	-62.5		260	42	
2025-11-17T12:00	30550	9	-61.3		258	39	
2025-11-17T12:00	30600	9	-60.3		257	40	
2025-11-17T12:00	30650	9	-59.7		259	42	
2025-11-17T12:00	30700	9	-59.1		262	43	
2025-11-17T12:00	30750	9	-58.1		263	44	
2025-11-17T12:00	30800	9	-57.8		262	43	
2025-11-17T12:00	30850	9	-57.7		261	42	
2025-11-17T12:00	30900	9	-57.9		260	41	
2025-11-17T12:00	30950	9	-58.0		259	41	
2025-11-17T12:00	31000	9	-58.1		257	42	
2025-11-17T12:00	31050	8	-58.0		257	43	
2025-11-17T12:00	31100	8	-57.9		257	44	
2025-11-17T12:00	31150	8	-58.0		258	45	
2025-11-17T12:00	31200	8	-58.0		258	46	
2025-11-17T12:00	31250	8	-57.9		258	47	
2025-11-17T12:00	31300	8	-57.7		259	47	
2025-11-17T12:00	31350	8	-57.6		259	46	
2025-11-17T12:00	31400	8	-57.8		259	46	
2025-11-17T12:00	31450	8	-58.1		259	45	
2025-11-17T12:00	31500	8	-58.3		259	44	
2025-11-17T12:00	31550	8	-58.6		259	44	
2025-11-17T12:00	31600	8	-59.0		259	43	
2025-11-17T12:00	31650	8	-59.2		260	44	
2025-11-17T12:00	31700	8	-59.4		261	45	
2025-11-17T12:00	31750	8	-59.5		261	47	
2025-11-17T12:00	31800	7	-59.5		262	49	
2025-11-17T12:00	31850	7	-59.1		262	51	
2025-11-17T12:00	31900	7	-58.8		262	52	
2025-11-17T12:00	31950	7	-58.6		260	53	
2025-11-17T12:00	32000	7	-57.8		259	53	
2025-11-17T12:00	32050	7	-55.8		258	53	
2025-11-17T12:00	32100	7	-54.8		257	54	
2025-11-17T12:00	32150	7	-53.2		253	58	
2025-11-17T12:00	32200	7	-51.5		252	59	
2025-11-17T12:00	32250	7	-50.3		251	58	
2025-11-17T12:00	32300	7	-50.1		252	57	
2025-11-17T12:00	32350	7	-50.6		252	57	
2025-11-17T12:00	32400	7	-50.6		253	58	
2025-11-17T12:00	32450	7	-50.2		254	59	
2025-11-17T12:00	32500	7	-49.9		255	60	
2025-11-17T12:00	32550	7	-50.1		256	60	
2025-11-17T12:00	32600	7	-50.4		256	61	
2025-11-17T12:00	32650	7	-50.3		257	61	
2025-11-17T12:00	32700	7	-50.0		258	62	
2025-11-17T12:00	32750	6	-50.0		259	62	
2025-11-17T12:00	32800	6	-50.2		260	62	
2025-11-17T12:00	32850	6	-50.5		261	62	
2025-11-17T12:00	32900	6	-50.8		261	62	
2025-11-17T12:00	32950	6	-51.0		262	63	
2025-11-17T12:00	33000	6	-51.2		262	63	
2025-11-17T12:00	33050	6	-51.4		261	63	
2025-11-17T12:00	33100	6	-51.5		261	64	
2025-11-17T12:00	33150	6	-51.6		260	64	
2025-11-17T12:00	33200	6	-51.5		260	63	
2025-11-17T12:00	33250	6	-51.5		259	62	
2025-11-17T12:00	33300	6	-51.6		259	62	
2025-11-17T12:00	33350	6	-51.9		259	62	
2025-11-17T12:00	33400	6	-52.0		259	63	
2025-11-17T12:00	33450	6	-52.2		259	64	
2025-11-17T12:00	33500	6	-52.4		259	63	
2025-11-17T12:00	33550	6	-51.9		259	62	
2025-11-17T12:00	33600	6	-52.0		259	62	
2025-11-17T12:00	33650	6	-51.5		258	62	
2025-11-17T12:00	33700	6	-50.2		258	63	
2025-11-17T12:00	33750	6	-49.1		258	65	
2025-11-17T12:00	33800	5	-48.1		258	65	
2025-11-17T12:00	33850	5	-47.5		258	64	
2025-11-17T12:00	33900	5	-46.9		260	64	
2025-11-17T12:00	33950	5	-46.3		260	65	
2025-11-17T12:00	34000	5	-45.9		261	66	
2025-11-17T12:00	34050	5	-45.1		260	66	
2025-11-17T12:00	34100	5	-44.5		260	65	
2025-11-17T12:00	34150	5	-43.8		259	67	
2025-11-17T12:00	34200	5	-43.4		259	68	
2025-11-17T12:00	34250	5	-42.9		259	69	
2025-11-17T12:00	34300	5	-42.3		259	69	
2025-11-17T12:00	34350	5	-42.0		259	68	
2025-11-17T12:00	34400	5	-41.8		260	68	
2025-11-17T12:00	34450	5	-41.7		261	69	
2025-11-17T12:00	34500	5	-41.7		261	70	
2025-11-17T12:00	34550	5	-41.7		261	71	
2025-11-17T12:00	34600	5	-41.8		261	72	
2025-11-17T12:00	34650	5	-41.8		261	72	
2025-11-17T12:00	34700	5	-41.7		261	73	
2025-11-17T12:00	34750	5	-41.5		261	74	
2025-11-17T12:00	34800	5	-41.2		261	74	
2025-11-17T12:00	34850	5	-40.9		262	74	
2025-11-17T12:00	34900	5	-40.8		262	74	
2025-11-17T12:00	34950	5	-40.9		263	75	
2025-11-17T12:00	35000	5	-41.0		264	76	
2025-11-17T12:00	35050	5	-40.6		264	76	
2025-11-17T12:00	35100	5	-39.9		264	77	
2025-11-17T12:00	35150	4	-39.6		265	77	
2025-11-17T12:00	35200	4	-39.3		265	77	
2025-11-17T12:00	35250	4	-39.0		265	76	
2025-11-18T00:00	491	961	2.6	0.7	20	2	
2025-11-18T00:00	501	959	2.7	0.5	52	2	
2025-11-18T00:00	520	958	2.9	0.5	61	3	
2025-11-18T00:00	540	956	3.0	0.3	62	3	
2025-11-18T00:00	560	953	3.0	0.2	62	4	
2025-11-18T00:00	580	951	3.0	0.1	62	4	
2025-11-18T00:00	600	949	2.9	0.0	61	5	
2025-11-18T00:00	620	946	2.8	-0.1	60	5	
2025-11-18T00:00	640	944	2.7	-0.3	59	6	
2025-11-18T00:00	660	941	2.7	-0.5	57	6	
2025-11-18T00:00	680	939	2.5	-0.6	56	6	
2025-11-18T00:00	700	937	2.4	-0.6	54	7	
2025-11-18T00:00	720	934	2.2	-0.7	53	7	
2025-11-18T00:00	740	932	2.1	-0.9	51	7	
2025-11-18T00:00	760	930	2.0	-1.1	51	8	
2025-11-18T00:00	780	927	2.0	-1.4	50	8	
2025-11-18T00:00	800	925	1.8	-1.5	49	8	
2025-11-18T00:00	820	923	1.8	-2.0	48	8	
2025-11-18T00:00	840	921	1.7	-2.1	48	9	
2025-11-18T00:00	860	918	1.5	-2.1	47	9	
2025-11-18T00:00	880	916	1.3	-2.1	47	9	
2025-11-18T00:00	900	914	1.1	-2.3	47	9	
2025-11-18T00:00	920	912	1.0	-2.5	46	9	
2025-11-18T00:00	940	909	0.8	-2.6	46	9	
2025-11-18T00:00	960	907	0.6	-2.8	45	8	
2025-11-18T00:00	980	905	0.5	-2.8	44	8	
2025-11-18T00:00	1000	902	0.3	-2.8	43	8	
2025-11-18T00:00	1020	900	0.1	-2.9	43	9	
2025-11-18T00:00	1040	898	-0.1	-2.9	43	9	
2025-11-18T00:00	1060	896	-0.3	-3.0	43	9	
2025-11-18T00:00	1080	893	-0.5	-3.0	43	9	
2025-11-18T00:00	1100	891	-0.7	-3.1	43	9	
2025-11-18T00:00	1120	889	-0.9	-3.1	43	9	
2025-11-18T00:00	1140	887	-1.0	-3.3	44	9	
2025-11-18T00:00	1160	885	-1.2	-3.5	44	9	
2025-11-18T00:00	1180	882	-1.4	-3.6	45	8	
2025-11-18T00:00	1200	880	-1.6	-3.6	46	8	
2025-11-18T00:00	1220	878	-1.7	-3.8	47	9	
2025-11-18T00:00	1240	876	-1.9	-3.8	48	9	
2025-11-18T00:00	1260	874	-2.1	-4.0	49	9	
2025-11-18T00:00	1280	872	-2.2	-4.2	51	9	
2025-11-18T00:00	1300	869	-2.4	-4.3	52	9	
2025-11-18T00:00	1320	867	-2.5	-4.5	52	9	
2025-11-18T00:00	1340	865	-2.7	-4.6	53	9	
2025-11-18T00:00	1360	862	-2.8	-4.9	52	9	
2025-11-18T00:00	1380	860	-2.9	-5.1	52	9	
2025-11-18T00:00	1400	858	-3.1	-5.2	51	9	
2025-11-18T00:00	1420	856	-3.2	-5.4	50	9	
2025-11-18T00:00	1440	854	-3.4	-5.5	49	9	
2025-11-18T00:00	1460	852	-3.6	-5.7	49	9	
2025-11-18T00:00	1480	850	-3.8	-5.8	48	9	
2025-11-18T00:00	1500	848	-3.9	-5.8	48	9	
2025-11-18T00:00	1520	845	-4.1	-6.0	49	9	
2025-11-18T00:00	1540	843	-4.2	-6.3	49	9	
2025-11-18T00:00	1560	841	-4.3	-6.9	50	8	
2025-11-18T00:00	1580	839	-4.5	-7.3	51	8	
2025-11-18T00:00	1600	837	-4.6	-7.5	52	8	
2025-11-18T00:00	1620	835	-4.8	-7.6	53	8	
2025-11-18T00:00	1640	833	-5.0	-7.7	54	8	
2025-11-18T00:00	1660	831	-5.1	-7.8	55	8	
2025-11-18T00:00	1680	829	-5.2	-7.9	55	7	
2025-11-18T00:00	1700	826	-5.5	-8.1	56	7	
2025-11-18T00:00	1720	824	-5.6	-8.0	56	7	
2025-11-18T00:00	1740	822	-5.8	-7.9	57	7	
2025-11-18T00:00	1760	820	-5.9	-7.8	57	7	
2025-11-18T00:00	1780	818	-6.1	-7.9	58	7	
2025-11-18T00:00	1800	816	-6.2	-7.9	59	7	
2025-11-18T00:00	1820	814	-6.4	-8.0	60	7	
2025-11-18T00:00	1840	811	-6.6	-8.1	62	7	
2025-11-18T00:00	1860	809	-6.8	-8.1	63	7	
2025-11-18T00:00	1880	808	-6.9	-8.2	64	7	
2025-11-18T00:00	1900	805	-7.1	-8.2	66	7	
2025-11-18T00:00	1920	803	-7.3	-8.2	67	7	
2025-11-18T00:00	1940	801	-7.6	-8.5	68	7	
2025-11-18T00:00	1960	799	-7.8	-8.6	69	7	
2025-11-18T00:00	1980	797	-7.9	-8.4	69	7	
2025-11-18T00:00	2000	795	-8.1	-8.6	69	6	
2025-11-18T00:00	2020	793	-8.4	-8.8	69	6	
2025-11-18T00:00	2040	791	-8.6	-8.7	69	6	
2025-11-18T00:00	2060	789	-8.8	-8.8	69	6	
2025-11-18T00:00	2080	787	-8.9	-9.0	69	6	
2025-11-18T00:00	2100	785	-9.1	-9.2	69	6	
2025-11-18T00:00	2120	783	-9.0	-10.3	69	6	
2025-11-18T00:00	2140	781	-8.2	-12.6	68	6	
2025-11-18T00:00	2160	779	-8.2	-12.9	67	6	
2025-11-18T00:00	2180	777	-8.4	-13.0	66	6	
2025-11-18T00:00	2200	775	-8.6	-13.0	64	7	
2025-11-18T00:00	2220	773	-8.7	-13.1	61	7	
2025-11-18T00:00	2240	771	-8.9	-13.5	58	7	
2025-11-18T00:00	2260	769	-9.1	-13.5	55	7	
2025-11-18T00:00	2280	767	-9.3	-13.5	52	7	
2025-11-18T00:00	2300	765	-9.5	-13.7	49	6	
2025-11-18T00:00	2320	763	-9.6	-14.2	48	6	
2025-11-18T00:00	2340	761	-9.7	-14.8	47	6	
2025-11-18T00:00	2360	759	-9.6	-15.3	48	5	
2025-11-18T00:00	2380	757	-9.7	-15.1	50	5	
2025-11-18T00:00	2400	755	-9.8	-15.0	53	5	
2025-11-18T00:00	2420	753	-10.0	-14.9	55	5	
2025-11-18T00:00	2440	751	-10.1	-14.8	57	5	
2025-11-18T00:00	2460	749	-10.3	-14.7	58	4	
2025-11-18T00:00	2480	747	-10.5	-14.4	56	4	
2025-11-18T00:00	2500	745	-10.6	-14.4	52	4	
2025-11-18T00:00	2520	743	-10.8	-14.4	48	4	
2025-11-18T00:00	2540	741	-10.7	-15.5	43	5	
2025-11-18T00:00	2560	740	-10.8	-15.6	39	5	
2025-11-18T00:00	2580	738	-10.9	-15.9	36	5	
2025-11-18T00:00	2600	736	-11.0	-16.1	32	5	
2025-11-18T00:00	2620	734	-11.1	-16.4	28	6	
2025-11-18T00:00	2640	732	-11.3	-16.7	26	6	
2025-11-18T00:00	2660	730	-11.3	-17.4	23	6	
2025-11-18T00:00	2680	728	-11.3	-18.3	19	7	
2025-11-18T00:00	2700	726	-11.3	-19.2	17	7	
2025-11-18T00:00	2720	725	-11.4	-19.6	14	8	
2025-11-18T00:00	2740	723	-11.3	-20.8	12	8	
2025-11-18T00:00	2760	721	-11.4	-22.0	11	9	
2025-11-18T00:00	2780	719	-11.0	-27.2	11	10	
2025-11-18T00:00	2800	717	-10.5	-32.8	11	11	
2025-11-18T00:00	2820	715	-10.1	-38.2	11	11	
2025-11-18T00:00	2840	713	-9.7	-42.9	12	12	
2025-11-18T00:00	2860	711	-9.5	-44.7	12	12	
2025-11-18T00:00	2880	709	-8.9	-47.6	11	12	
2025-11-18T00:00	2900	707	-8.3	-49.5	11	12	
2025-11-18T00:00	2920	706	-7.7	-49.3	10	12	
2025-11-18T00:00	2940	704	-7.5	-47.6	8	13	
2025-11-18T00:00	2960	702	-7.5	-46.4	6	13	
2025-11-18T00:00	2980	700	-7.3	-44.5	5	13	
2025-11-18T00:00	3000	699	-7.2	-43.8	5	12	
2025-11-18T00:00	3020	697	-7.3	-44.3	4	12	
2025-11-18T00:00	3040	695	-7.2	-46.1	4	12	
2025-11-18T00:00	3060	693	-7.1	-47.3	4	12	
2025-11-18T00:00	3080	691	-7.2	-47.0	4	12	
2025-11-18T00:00	3100	690	-7.3	-46.3	3	12	
2025-11-18T00:00	3120	688	-7.5	-46.0	2	12	
2025-11-18T00:00	3140	686	-7.7	-45.9	2	12	
2025-11-18T00:00	3160	684	-7.8	-45.5	0	12	
2025-11-18T00:00	3180	683	-8.0	-45.3	359	12	
2025-11-18T00:00	3200	681	-8.1	-45.2	358	12	
2025-11-18T00:00	3220	679	-8.2	-45.1	357	12	
2025-11-18T00:00	3240	677	-8.4	-44.3	357	13	
2025-11-18T00:00	3260	676	-8.5	-43.2	356	13	
2025-11-18T00:00	3280	674	-8.5	-42.5	356	13	
2025-11-18T00:00	3300	672	-8.3	-42.8	356	14	
2025-11-18T00:00	3320	670	-8.4	-43.2	356	14	
2025-11-18T00:00	3340	669	-8.4	-43.4	356	14	
2025-11-18T00:00	3360	667	-8.4	-43.1	356	14	
2025-11-18T00:00	3380	665	-8.6	-42.7	356	14	
2025-11-18T00:00	3400	663	-8.7	-42.6	356	14	
2025-11-18T00:00	3420	662	-8.8	-42.5	356	14	
2025-11-18T00:00	3440	660	-8.9	-42.5	355	14	
2025-11-18T00:00	3460	658	-9.0	-42.6	354	14	
2025-11-18T00:00	3480	657	-9.0	-42.8	353	14	
2025-11-18T00:00	3500	655	-9.1	-43.0	351	14	
2025-11-18T00:00	3520	653	-9.2	-43.3	350	14	
2025-11-18T00:00	3540	652	-9.2	-43.7	348	14	
2025-11-18T00:00	3560	650	-9.3	-44.2	348	14	
2025-11-18T00:00	3580	648	-9.5	-44.4	348	14	
2025-11-18T00:00	3600	646	-9.6	-44.6	348	14	
2025-11-18T00:00	3620	645	-9.7	-45.0	349	14	
2025-11-18T00:00	3640	643	-9.9	-45.2	351	14	
2025-11-18T00:00	3660	641	-10.0	-45.4	352	13	
2025-11-18T00:00	3680	640	-10.2	-45.5	354	13	
2025-11-18T00:00	3700	638	-10.4	-45.7	355	12	
2025-11-18T00:00	3720	637	-10.5	-46.1	355	12	
2025-11-18T00:00	3740	635	-10.6	-46.5	355	12	
2025-11-18T00:00	3760	633	-10.8	-47.5	355	12	
2025-11-18T00:00	3780	632	-10.8	-49.9	354	13	
2025-11-18T00:00	3800	630	-10.8	-50.7	354	13	
2025-11-18T00:00	3820	628	-10.9	-50.6	354	14	
2025-11-18T00:00	3840	626	-10.9	-50.5	355	14	
2025-11-18T00:00	3860	625	-10.9	-50.0	355	15	
2025-11-18T00:00	3880	623	-11.0	-49.1	355	15	
2025-11-18T00:00	3900	622	-11.1	-48.7	354	16	
2025-11-18T00:00	3920	620	-11.3	-48.4	353	16	
2025-11-18T00:00	3940	619	-11.4	-48.0	352	16	
2025-11-18T00:00	3960	617	-11.5	-47.2	351	16	
2025-11-18T00:00	3980	615	-11.5	-47.3	349	16	
2025-11-18T00:00	4000	614	-11.5	-48.5	348	16	
2025-11-18T00:00	4020	612	-11.4	-49.9	347	16	
2025-11-18T00:00	4040	610	-11.3	-50.9	347	16	
2025-11-18T00:00	4060	609	-11.4	-51.1	347	16	
2025-11-18T00:00	4080	607	-11.5	-51.2	348	16	
2025-11-18T00:00	4100	606	-11.4	-51.3	349	15	
2025-11-18T00:00	4120	604	-11.4	-50.6	350	15	
2025-11-18T00:00	4140	603	-11.5	-50.2	351	14	
2025-11-18T00:00	4160	601	-11.6	-49.8	353	14	
2025-11-18T00:00	4180	599	-11.7	-49.4	355	13	
2025-11-18T00:00	4200	598	-11.8	-49.3	358	13	
2025-11-18T00:00	4220	596	-11.9	-48.8	2	13	
2025-11-18T00:00	4240	595	-12.1	-48.1	5	13	
2025-11-18T00:00	4260	593	-12.2	-48.1	7	13	
2025-11-18T00:00	4280	592	-12.3	-47.8	10	14	
2025-11-18T00:00	4300	590	-12.4	-45.4	11	14	
2025-11-18T00:00	4320	589	-12.5	-43.5	11	14	
2025-11-18T00:00	4340	587	-12.7	-42.2	11	15	
2025-11-18T00:00	4360	585	-12.8	-41.1	10	15	
2025-11-18T00:00	4380	584	-13.0	-40.1	9	15	
2025-11-18T00:00	4400	582	-13.2	-39.6	7	15	
2025-11-18T00:00	4420	581	-13.3	-39.8	6	16	
2025-11-18T00:00	4440	579	-13.4	-39.5	5	16	
2025-11-18T00:00	4460	578	-13.6	-39.2	3	16	
2025-11-18T00:00	4480	576	-13.7	-39.1	2	16	
2025-11-18T00:00	4500	575	-13.8	-39.2	2	16	
2025-11-18T00:00	4520	573	-14.0	-38.5	1	16	
2025-11-18T00:00	4540	572	-14.2	-37.6	0	16	
2025-11-18T00:00	4560	570	-14.3	-37.3	0	16	
2025-11-18T00:00	4580	569	-14.4	-37.2	0	16	
2025-11-18T00:00	4600	567	-14.5	-36.9	1	16	
2025-11-18T00:00	4620	566	-14.6	-36.8	2	16	
2025-11-18T00:00	4640	564	-14.7	-37.0	2	17	
2025-11-18T00:00	4660	563	-14.8	-36.8	3	17	
2025-11-18T00:00	4680	561	-15.0	-36.7	4	18	
2025-11-18T00:00	4700	560	-15.1	-36.7	4	18	
2025-11-18T00:00	4720	558	-15.3	-36.6	4	18	
2025-11-18T00:00	4740	557	-15.5	-36.6	3	18	
2025-11-18T00:00	4760	555	-15.6	-36.7	2	17	
2025-11-18T00:00	4780	554	-15.8	-36.9	1	17	
2025-11-18T00:00	4800	552	-15.9	-37.1	360	16	
2025-11-18T00:00	4820	551	-16.1	-37.2	358	16	
2025-11-18T00:00	4840	550	-16.2	-37.5	356	16	
2025-11-18T00:00	4860	548	-16.3	-37.5	356	16	
2025-11-18T00:00	4880	547	-16.5	-37.5	355	16	
2025-11-18T00:00	4900	545	-16.6	-37.6	355	17	
2025-11-18T00:00	4920	544	-16.8	-37.6	355	17	
2025-11-18T00:00	4940	542	-16.9	-37.9	354	16	
2025-11-18T00:00	4960	541	-17.1	-38.5	353	16	
2025-11-18T00:00	4980	539	-17.2	-38.5	352	16	
2025-11-18T00:00	5000	538	-17.3	-38.7	351	16	
2025-11-18T00:00	5020	537	-17.4	-38.9	350	16	
2025-11-18T00:00	5040	535	-17.5	-39.2	350	16	
2025-11-18T00:00	5060	534	-17.6	-38.1	349	15	
2025-11-18T00:00	5080	532	-17.7	-37.5	350	15	
2025-11-18T00:00	5100	531	-17.9	-37.4	351	15	
2025-11-18T00:00	5120	529	-18.1	-37.4	352	15	
2025-11-18T00:00	5140	528	-18.3	-37.7	353	15	
2025-11-18T00:00	5160	526	-18.4	-37.9	354	16	
2025-11-18T00:00	5180	525	-18.6	-38.1	355	16	
2025-11-18T00:00	5200	524	-18.8	-38.0	356	16	
2025-11-18T00:00	5220	522	-18.9	-38.1	357	17	
2025-11-18T00:00	5240	521	-19.1	-38.2	358	17	
2025-11-18T00:00	5260	520	-19.2	-38.2	358	17	
2025-11-18T00:00	5280	518	-19.4	-38.2	358	17	
2025-11-18T00:00	5300	517	-19.5	-38.3	358	17	
2025-11-18T00:00	5320	515	-19.7	-39.0	358	16	
2025-11-18T00:00	5340	514	-19.8	-38.9	357	16	
2025-11-18T00:00	5360	512	-20.0	-38.8	356	16	
2025-11-18T00:00	5380	511	-20.1	-39.1	355	15	
2025-11-18T00:00	5400	510	-20.3	-39.6	355	15	
2025-11-18T00:00	5420	509	-20.5	-39.7	354	15	
2025-11-18T00:00	5440	507	-20.6	-39.9	353	15	
2025-11-18T00:00	5460	506	-20.8	-39.9	353	15	
2025-11-18T00:00	5480	504	-21.0	-39.9	353	16	
2025-11-18T00:00	5500	503	-21.2	-39.8	353	16	
2025-11-18T00:00	5520	502	-21.4	-40.0	354	16	
2025-11-18T00:00	5540	500	-21.6	-40.0	355	16	
2025-11-18T00:00	5560	499	-21.8	-40.0	356	16	
2025-11-18T00:00	5580	498	-21.9	-40.0	357	16	
2025-11-18T00:00	5600	496	-22.1	-40.0	358	16	
2025-11-18T00:00	5620	495	-22.4	-40.2	358	16	
2025-11-18T00:00	5640	493	-22.6	-40.1	359	17	
2025-11-18T00:00	5660	492	-22.8	-40.0	359	17	
2025-11-18T00:00	5680	491	-23.0	-40.0	359	17	
2025-11-18T00:00	5700	489	-23.1	-40.0	358	17	
2025-11-18T00:00	5720	488	-23.4	-40.1	357	18	
2025-11-18T00:00	5740	487	-23.5	-40.3	356	18	
2025-11-18T00:00	5760	486	-23.6	-40.7	356	18	
2025-11-18T00:00	5780	484	-23.6	-42.2	355	19	
2025-11-18T00:00	5800	483	-23.6	-44.2	355	19	
2025-11-18T00:00	5820	481	-23.6	-45.9	355	19	
2025-11-18T00:00	5840	480	-23.5	-47.9	356	19	
2025-11-18T00:00	5860	479	-23.5	-49.1	356	20	
2025-11-18T00:00	5880	477	-23.4	-50.0	356	20	
2025-11-18T00:00	5900	476	-23.3	-47.5	355	20	
2025-11-18T00:00	5920	475	-23.5	-45.6	355	20	
2025-11-18T00:00	5940	474	-23.7	-45.0	355	19	
2025-11-18T00:00	5960	472	-23.9	-44.4	354	19	
2025-11-18T00:00	5980	471	-24.1	-44.1	355	19	
2025-11-18T00:00	6000	470	-24.2	-44.3	355	18	
2025-11-18T00:00	6020	469	-24.4	-44.4	355	18	
2025-11-18T00:00	6040	467	-24.6	-44.7	356	18	
2025-11-18T00:00	6060	466	-24.8	-44.8	356	17	
2025-11-18T00:00	6080	464	-25.0	-45.1	357	17	
2025-11-18T00:00	6100	463	-25.1	-45.2	357	17	
2025-11-18T00:00	6120	462	-25.2	-45.2	357	17	
2025-11-18T00:00	6140	461	-25.4	-45.4	356	18	
2025-11-18T00:00	6160	460	-25.6	-45.5	355	18	
2025-11-18T00:00	6180	458	-25.7	-45.9	354	19	
2025-11-18T00:00	6200	457	-25.8	-46.6	353	20	
2025-11-18T00:00	6220	456	-25.7	-48.8	352	20	
2025-11-18T00:00	6240	455	-25.8	-49.9	351	21	
2025-11-18T00:00	6260	453	-25.8	-50.6	351	22	
2025-11-18T00:00	6280	452	-25.9	-50.9	351	22	
2025-11-18T00:00	6300	451	-26.1	-51.1	351	22	
2025-11-18T00:00	6320	449	-26.1	-51.9	352	22	
2025-11-18T00:00	6340	448	-26.0	-52.0	352	22	
2025-11-18T00:00	6360	447	-26.1	-51.1	352	22	
2025-11-18T00:00	6380	446	-26.1	-51.3	351	22	
2025-11-18T00:00	6400	444	-26.2	-51.0	351	22	
2025-11-18T00:00	6420	443	-26.4	-49.7	349	21	
2025-11-18T00:00	6440	442	-26.5	-49.5	348	21	
2025-11-18T00:00	6460	441	-26.6	-49.6	347	21	
2025-11-18T00:00	6480	440	-26.8	-49.7	347	21	
2025-11-18T00:00	6500	438	-26.9	-49.9	346	21	
2025-11-18T00:00	6520	437	-27.1	-50.1	347	21	
2025-11-18T00:00	6540	436	-27.2	-50.4	348	21	
2025-11-18T00:00	6560	435	-27.3	-51.3	349	22	
2025-11-18T00:00	6580	434	-27.5	-51.6	349	22	
2025-11-18T00:00	6600	432	-27.6	-51.4	350	22	
2025-11-18T00:00	6620	431	-27.8	-51.3	350	22	
2025-11-18T00:00	6640	430	-27.9	-50.7	351	22	
2025-11-18T00:00	6660	429	-28.2	-50.8	351	23	
2025-11-18T00:00	6680	428	-28.3	-50.5	351	23	
2025-11-18T00:00	6700	426	-28.5	-50.2	351	23	
2025-11-18T00:00	6720	425	-28.7	-49.9	351	23	
2025-11-18T00:00	6740	424	-28.9	-50.3	351	23	
2025-11-18T00:00	6760	423	-29.1	-50.2	351	23	
2025-11-18T00:00	6780	422	-29.2	-50.4	351	23	
2025-11-18T00:00	6800	421	-29.4	-51.0	350	23	
2025-11-18T00:00	6820	419	-29.6	-51.2	350	22	
2025-11-18T00:00	6840	418	-29.7	-51.6	349	22	
2025-11-18T00:00	6860	417	-29.9	-51.8	349	21	
2025-11-18T00:00	6880	416	-30.1	-52.0	349	21	
2025-11-18T00:00	6900	415	-30.2	-52.2	349	21	
2025-11-18T00:00	6920	413	-30.4	-51.8	349	21	
2025-11-18T00:00	6940	412	-30.5	-51.1	349	22	
2025-11-18T00:00	6960	411	-30.7	-50.2	349	22	
2025-11-18T00:00	6980	410	-30.8	-49.8	350	22	
2025-11-18T00:00	7000	409	-31.0	-49.6	350	22	
2025-11-18T00:00	7020	408	-31.2	-49.1	350	22	
2025-11-18T00:00	7040	407	-31.4	-48.9	351	22	
2025-11-18T00:00	7060	405	-31.6	-48.9	350	22	
2025-11-18T00:00	7080	404	-31.8	-49.2	349	22	
2025-11-18T00:00	7100	403	-31.9	-49.4	348	22	
2025-11-18T00:00	7120	402	-32.1	-49.4	347	22	
2025-11-18T00:00	7140	401	-32.2	-49.7	346	22	
2025-11-18T00:00	7160	400	-32.4	-49.8	345	22	
2025-11-18T00:00	7180	399	-32.6	-49.5	344	23	
2025-11-18T00:00	7200	397	-32.8	-48.8	344	23	
2025-11-18T00:00	7220	396	-32.9	-48.0	344	23	
2025-11-18T00:00	7240	395	-33.1	-47.9	345	24	
2025-11-18T00:00	7260	394	-33.3	-48.2	346	24	
2025-11-18T00:00	7280	393	-33.4	-48.0	346	24	
2025-11-18T00:00	7300	392	-33.5	-48.4	347	24	
2025-11-18T00:00	7320	391	-33.7	-48.9	347	24	
2025-11-18T00:00	7340	389	-33.8	-49.0	347	24	
2025-11-18T00:00	7360	388	-34.0	-48.9	347	24	
2025-11-18T00:00	7380	387	-34.2	-48.8	347	24	
2025-11-18T00:00	7400	386	-34.4	-48.6	347	24	
2025-11-18T00:00	7420	385	-34.5	-48.7	348	25	
2025-11-18T00:00	7440	384	-34.7	-48.3	348	25	
2025-11-18T00:00	7460	383	-34.9	-48.6	348	25	
2025-11-18T00:00	7480	382	-35.0	-48.8	348	25	
2025-11-18T00:00	7500	381	-35.2	-48.7	348	25	
2025-11-18T00:00	7520	379	-35.4	-48.5	347	25	
2025-11-18T00:00	7540	378	-35.6	-48.8	347	25	
2025-11-18T00:00	7560	377	-35.7	-49.0	346	24	
2025-11-18T00:00	7580	376	-35.9	-49.3	346	25	
2025-11-18T00:00	7600	375	-36.1	-49.3	345	25	
2025-11-18T00:00	7620	374	-36.2	-49.2	345	25	
2025-11-18T00:00	7640	373	-36.4	-49.3	345	25	
2025-11-18T00:00	7660	372	-36.5	-49.3	345	25	
2025-11-18T00:00	7680	371	-36.7	-49.1	346	25	
2025-11-18T00:00	7700	370	-36.9	-49.4	346	25	
2025-11-18T00:00	7720	369	-37.0	-49.8	345	25	
2025-11-18T00:00	7740	368	-37.1	-50.6	345	25	
2025-11-18T00:00	7760	367	-37.3	-51.1	345	25	
2025-11-18T00:00	7780	366	-37.3	-51.6	345	25	
2025-11-18T00:00	7800	365	-37.3	-52.8	345	25	
2025-11-18T00:00	7820	364	-37.5	-53.3	344	25	
2025-11-18T00:00	7840	362	-37.5	-53.9	344	25	
2025-11-18T00:00	7860	361	-37.6	-54.0	344	25	
2025-11-18T00:00	7880	360	-37.8	-54.0	344	25	
2025-11-18T00:00	7900	359	-37.9	-54.1	344	25	
2025-11-18T00:00	7920	358	-38.1	-54.4	344	25	
2025-11-18T00:00	7940	357	-38.2	-54.2	344	25	
2025-11-18T00:00	7960	356	-38.4	-54.0	345	25	
2025-11-18T00:00	7980	355	-38.5	-54.0	345	26	
2025-11-18T00:00	8000	354	-38.7	-54.2	345	26	
2025-11-18T00:00	8020	353	-38.9	-54.4	345	26	
2025-11-18T00:00	8040	352	-39.0	-54.6	346	27	
2025-11-18T00:00	8060	351	-39.2	-54.9	346	27	
2025-11-18T00:00	8080	350	-39.3	-55.1	346	28	
2025-11-18T00:00	8100	349	-39.4	-55.1	346	28	
2025-11-18T00:00	8120	348	-39.6	-55.0	347	28	
2025-11-18T00:00	8140	347	-39.8	-54.9	347	28	
2025-11-18T00:00	8160	346	-39.9	-55.2	347	28	
2025-11-18T00:00	8180	345	-40.1	-55.4	348	28	
2025-11-18T00:00	8200	344	-40.3	-55.6	348	28	
2025-11-18T00:00	8220	343	-40.4	-55.9	349	28	
2025-11-18T00:00	8240	342	-40.6	-55.7	349	28	
2025-11-18T00:00	8260	341	-40.7	-55.4	350	28	
2025-11-18T00:00	8280	340	-40.9	-55.1	350	29	
2025-11-18T00:00	8300	339	-41.1	-55.2	351	29	
2025-11-18T00:00	8320	338	-41.3	-56.0	351	29	
2025-11-18T00:00	8340	337	-41.4	-56.6	351	30	
2025-11-18T00:00	8360	336	-41.5	-57.0	351	30	
2025-11-18T00:00	8380	335	-41.7	-56.6	350	30	
2025-11-18T00:00	8400	334	-41.8	-56.2	350	31	
2025-11-18T00:00	8420	333	-42.0	-56.2	349	31	
2025-11-18T00:00	8440	332	-42.2	-56.2	348	31	
2025-11-18T00:00	8460	331	-42.3	-56.2	348	31	
2025-11-18T00:00	8480	330	-42.5	-56.1	348	31	
2025-11-18T00:00	8500	329	-42.6	-55.9	348	31	
2025-11-18T00:00	8520	328	-42.7	-56.0	349	31	
2025-11-18T00:00	8540	327	-42.8	-56.2	349	31	
2025-11-18T00:00	8560	326	-42.9	-56.6	349	31	
2025-11-18T00:00	8580	325	-43.0	-56.7	349	31	
2025-11-18T00:00	8600	324	-43.2	-56.6	349	31	
2025-11-18T00:00	8620	323	-43.3	-57.1	349	31	
2025-11-18T00:00	8640	322	-43.4	-57.4	348	31	
2025-11-18T00:00	8660	321	-43.6	-57.3	348	31	
2025-11-18T00:00	8680	320	-43.7	-57.2	348	31	
2025-11-18T00:00	8700	320	-43.9	-57.2	347	31	
2025-11-18T00:00	8720	319	-44.1	-57.7	347	31	
2025-11-18T00:00	8740	318	-44.2	-58.3	347	31	
2025-11-18T00:00	8760	316	-44.3	-58.7	347	31	
2025-11-18T00:00	8780	316	-44.5	-58.9	346	30	
2025-11-18T00:00	8800	315	-44.7	-58.9	346	30	
2025-11-18T00:00	8820	314	-44.8	-59.3	346	30	
2025-11-18T00:00	8840	313	-44.9	-59.8	345	30	
2025-11-18T00:00	8860	312	-45.1	-60.9	345	30	
2025-11-18T00:00	8880	311	-45.1	-61.4	345	30	
2025-11-18T00:00	8900	310	-45.3	-61.4	345	30	
2025-11-18T00:00	8920	309	-45.4	-61.6	344	30	
2025-11-18T00:00	8940	308	-45.6	-61.1	344	30	
2025-11-18T00:00	8960	307	-45.7	-60.5	344	31	
2025-11-18T00:00	8980	306	-45.9	-59.9	344	31	
2025-11-18T00:00	9000	305	-46.1	-59.0	343	31	
2025-11-18T00:00	9020	305	-46.2	-58.7	343	31	
2025-11-18T00:00	9040	304	-46.3	-59.2	343	31	
2025-11-18T00:00	9060	303	-46.5	-59.6	343	31	
2025-11-18T00:00	9080	302	-46.6	-59.6	343	32	
2025-11-18T00:00	9100	301	-46.8	-59.5	343	32	
2025-11-18T00:00	9120	300	-46.9	-59.6	343	32	
2025-11-18T00:00	9140	299	-47.0	-59.9	344	32	
2025-11-18T00:00	9160	298	-47.1	-60.2	344	33	
2025-11-18T00:00	9180	297	-47.3	-60.4	344	33	
2025-11-18T00:00	9200	296	-47.4	-60.7	344	33	
2025-11-18T00:00	9220	295	-47.6	-60.6	344	33	
2025-11-18T00:00	9240	295	-47.7	-60.5	345	34	
2025-11-18T00:00	9260	294	-47.9	-60.6	345	34	
2025-11-18T00:00	9280	293	-48.1	-60.7	345	34	
2025-11-18T00:00	9300	292	-48.2	-60.9	345	34	
2025-11-18T00:00	9320	291	-48.4	-61.1	345	34	
2025-11-18T00:00	9340	290	-48.5	-61.3	345	34	
2025-11-18T00:00	9360	289	-48.7	-61.5	345	35	
2025-11-18T00:00	9380	288	-48.9	-61.8	345	35	
2025-11-18T00:00	9400	287	-49.0	-62.1	345	35	
2025-11-18T00:00	9420	287	-49.1	-62.4	345	35	
2025-11-18T00:00	9440	286	-49.3	-62.6	345	35	
2025-11-18T00:00	9460	285	-49.4	-62.7	345	35	
2025-11-18T00:00	9480	284	-49.6	-62.9	346	35	
2025-11-18T00:00	9500	283	-49.7	-63.1	346	35	
2025-11-18T00:00	9520	282	-49.9	-63.2	346	35	
2025-11-18T00:00	9540	281	-50.0	-63.7	347	36	
2025-11-18T00:00	9560	280	-50.1	-64.3	347	36	
2025-11-18T00:00	9580	280	-50.2	-64.6	347	36	
2025-11-18T00:00	9600	279	-50.4	-64.9	347	37	
2025-11-18T00:00	9620	278	-50.6	-65.1	348	37	
2025-11-18T00:00	9640	277	-50.7	-65.3	348	37	
2025-11-18T00:00	9660	276	-50.9	-65.3	348	37	
2025-11-18T00:00	9680	275	-51.1	-65.3	348	38	
2025-11-18T00:00	9700	275	-51.2	-65.4	348	38	
2025-11-18T00:00	9720	274	-51.4	-65.5	348	38	
2025-11-18T00:00	9740	273	-51.5	-65.5	348	38	
2025-11-18T00:00	9760	272	-51.7	-65.4	347	38	
2025-11-18T00:00	9780	271	-51.9	-65.2	347	38	
2025-11-18T00:00	9800	270	-52.0	-65.2	347	38	
2025-11-18T00:00	9820	269	-52.2	-65.3	347	38	
2025-11-18T00:00	9840	269	-52.3	-65.8	347	38	
2025-11-18T00:00	9860	268	-52.5	-66.2	347	38	
2025-11-18T00:00	9880	267	-52.6	-66.7	347	38	
2025-11-18T00:00	9900	266	-52.7	-67.1	347	38	
2025-11-18T00:00	9920	265	-52.9	-67.3	348	38	
2025-11-18T00:00	9940	265	-53.0	-67.4	348	37	
2025-11-18T00:00	9960	264	-53.2	-67.4	348	37	
2025-11-18T00:00	9980	263	-53.3	-67.4	348	37	
2025-11-18T00:00	10000	262	-53.5	-67.3	349	37	
2025-11-18T00:00	10018	261	-53.6	-67.3	349	37	
2025-11-18T00:00	10050	260	-53.8	-67.1	349	36	
2025-11-18T00:00	10100	258	-54.2	-66.6	348	36	
2025-11-18T00:00	10150	256	-54.4	-66.8	348	36	
2025-11-18T00:00	10200	254	-54.7	-67.2	347	36	
2025-11-18T00:00	10250	252	-55.0	-68.5	346	35	
2025-11-18T00:00	10300	250	-55.4	-68.7	346	34	
2025-11-18T00:00	10350	248	-55.6	-67.7	346	33	
2025-11-18T00:00	10400	246	-55.9	-66.8	346	31	
2025-11-18T00:00	10450	244	-56.2	-66.3	345	30	
2025-11-18T00:00	10500	242	-56.5	-66.3	345	29	
2025-11-18T00:00	10550	241	-56.8	-66.6	343	29	
2025-11-18T00:00	10600	239	-56.7	-66.9	341	28	
2025-11-18T00:00	10650	237	-56.9	-67.3	340	27	
2025-11-18T00:00	10700	235	-57.2	-67.7	339	26	
2025-11-18T00:00	10750	233	-57.3	-68.2	339	25	
2025-11-18T00:00	10800	231	-57.5	-68.4	338	25	
2025-11-18T00:00	10850	229	-57.8	-68.6	337	24	
2025-11-18T00:00	10900	228	-58.1	-68.9	336	24	
2025-11-18T00:00	10950	226	-58.4	-69.2	335	23	
2025-11-18T00:00	11000	224	-58.8	-69.5	334	22	
2025-11-18T00:00	11050	222	-59.0	-69.9	333	21	
2025-11-18T00:00	11100	220	-59.3	-70.1	331	21	
2025-11-18T00:00	11150	219	-59.6	-70.2	330	20	
2025-11-18T00:00	11200	217	-59.8	-70.4	329	19	
2025-11-18T00:00	11250	215	-60.2	-70.6	327	19	
2025-11-18T00:00	11300	213	-60.4	-70.7	325	20	
2025-11-18T00:00	11350	212	-60.6	-70.9	326	20	
2025-11-18T00:00	11400	210	-60.9	-71.1	327	21	
2025-11-18T00:00	11450	208	-61.2	-71.2	328	22	
2025-11-18T00:00	11500	207	-61.5	-71.3	328	22	
2025-11-18T00:00	11550	205	-61.9	-71.4	327	23	
2025-11-18T00:00	11600	203	-62.2	-71.4	326	23	
2025-11-18T00:00	11650	202	-62.2	-71.4	326	22	
2025-11-18T00:00	11700	200	-62.1	-71.6	326	22	
2025-11-18T00:00	11750	198	-62.3	-72.1	326	21	
2025-11-18T00:00	11800	197	-62.0	-72.8	325	21	
2025-11-18T00:00	11850	195	-61.7	-73.7	323	22	
2025-11-18T00:00	11900	194	-61.6	-74.3	322	23	
2025-11-18T00:00	11950	192	-61.8	-74.6	320	24	
2025-11-18T00:00	12000	191	-62.0	-74.9	319	25	
2025-11-18T00:00	12050	189	-62.0	-75.0	318	25	
2025-11-18T00:00	12100	188	-62.2	-75.4	317	25	
2025-11-18T00:00	12150	186	-62.1	-75.8	316	24	
2025-11-18T00:00	12200	185	-62.0	-76.3	316	24	
2025-11-18T00:00	12250	183	-62.1	-76.8	315	22	
2025-11-18T00:00	12300	182	-62.2	-77.2	315	21	
2025-11-18T00:00	12350	180	-62.1	-77.5	313	21	
2025-11-18T00:00	12400	179	-62.4	-77.7	310	21	
2025-11-18T00:00	12450	177	-62.5	-77.7	308	21	
2025-11-18T00:00	12500	176	-62.8	-78.0	306	21	
2025-11-18T00:00	12550	174	-63.0	-78.2	304	22	
2025-11-18T00:00	12600	173	-63.0	-78.4	302	22	
2025-11-18T00:00	12650	172	-63.3	-78.6	302	22	
2025-11-18T00:00	12700	170	-63.6	-78.6	301	22	
2025-11-18T00:00	12750	169	-63.9	-78.6	299	22	
2025-11-18T00:00	12800	167	-64.3	-78.8	296	23	
2025-11-18T00:00	12850	166	-64.6	-78.9	293	24	
2025-11-18T00:00	12900	165	-64.6	-79.2	290	25	
2025-11-18T00:00	12950	163	-64.3	-79.2	290	26	
2025-11-18T00:00	13000	162	-64.5	-79.5	292	27	
2025-11-18T00:00	13050	161	-64.6	-79.5	296	28	
2025-11-18T00:00	13100	159	-64.7	-79.6	300	28	
2025-11-18T00:00	13150	158	-64.7	-79.8	303	28	
2025-11-18T00:00	13200	157	-64.7	-80.0	305	27	
2025-11-18T00:00	13250	155	-64.5	-80.4	307	26	
2025-11-18T00:00	13300	154	-64.1	-80.7	308	25	
2025-11-18T00:00	13350	153	-64.1	-81.2	309	24	
2025-11-18T00:00	13400	152	-64.3	-81.5	310	22	
2025-11-18T00:00	13450	150	-64.4	-82.1	311	21	
2025-11-18T00:00	13500	149	-63.8	-82.3	311	19	
2025-11-18T00:00	13550	148	-63.0	-82.5	309	18	
2025-11-18T00:00	13600	147	-62.7	-82.8	303	17	
2025-11-18T00:00	13650	146	-62.5	-83.1	297	17	
2025-11-18T00:00	13700	144	-61.7	-83.2	292	17	
2025-11-18T00:00	13750	143	-61.1	-83.3	285	17	
2025-11-18T00:00	13800	142	-61.0	-83.4	280	17	
2025-11-18T00:00	13850	141	-61.2	-83.4	275	18	
2025-11-18T00:00	13900	140	-61.1	-83.3	273	19	
2025-11-18T00:00	13950	139	-61.3	-83.4	273	19	
2025-11-18T00:00	14000	138	-61.5	-83.5	276	20	
2025-11-18T00:00	14050	137	-61.2	-83.6	279	21	
2025-11-18T00:00	14100	135	-60.8	-83.6	281	21	
2025-11-18T00:00	14150	134	-60.9	-83.7	282	21	
2025-11-18T00:00	14200	133	-60.7	-83.7	282	21	
2025-11-18T00:00	14250	132	-60.7	-83.7	283	21	
2025-11-18T00:00	14300	131	-60.8	-83.7	285	21	
2025-11-18T00:00	14350	130	-60.8	-83.9	287	20	
2025-11-18T00:00	14400	129	-60.4	-83.9	291	20	
2025-11-18T00:00	14450	128	-60.1	-83.8	295	19	
2025-11-18T00:00	14500	127	-60.3	-83.8	298	18	
2025-11-18T00:00	14550	126	-60.5	-84.0	302	17	
2025-11-18T00:00	14600	125	-60.3	-83.9	302	15	
2025-11-18T00:00	14650	124	-60.1	-83.9	301	14	
2025-11-18T00:00	14700	123	-60.0	-83.9	303	13	
2025-11-18T00:00	14750	122	-60.1	-84.0	303	13	
2025-11-18T00:00	14800	121	-60.1	-84.0	300	12	
2025-11-18T00:00	14850	120	-60.3	-84.0	295	12	
2025-11-18T00:00	14900	119	-60.7	-84.1	288	12	
2025-11-18T00:00	14950	118	-60.9	-84.1	283	11	
2025-11-18T00:00	15000	117	-61.1	-84.2	282	11	
2025-11-18T00:00	15050	116	-61.4	-84.3	282	11	
2025-11-18T00:00	15100	115	-61.7	-84.3	280	12	
2025-11-18T00:00	15150	114	-61.9	-84.4	278	11	
2025-11-18T00:00	15200	113	-62.0	-84.4	278	11	
2025-11-18T00:00	15250	113	-62.3	-84.5	280	11	
2025-11-18T00:00	15300	112	-62.8	-84.6	282	10	
2025-11-18T00:00	15350	111	-63.0	-84.7	282	10	
2025-11-18T00:00	15400	110	-63.3	-84.7	278	10	
2025-11-18T00:00	15450	109	-63.6	-84.8	272	10	
2025-11-18T00:00	15500	108	-63.8	-84.8	267	10	
2025-11-18T00:00	15550	107	-64.1	-84.9	265	10	
2025-11-18T00:00	15600	106	-64.3	-84.9	263	11	
2025-11-18T00:00	15650	105	-64.7	-85.0	262	11	
2025-11-18T00:00	15700	105	-65.0	-85.2	263	12	
2025-11-18T00:00	15750	104	-65.0	-85.3	267	14	
2025-11-18T00:00	15800	103	-64.6	-85.4	271	15	
2025-11-18T00:00	15850	102	-64.0	-85.5	274	16	
2025-11-18T00:00	15900	101	-63.4	-85.4	276	15	
2025-11-18T00:00	15950	100	-63.5	-85.5	280	15	
2025-11-18T00:00	16000	100	-63.3	-85.4	285	16	
2025-11-18T00:00	16050	99	-63.4	-85.3	289	15	
2025-11-18T00:00	16100	98	-63.4	-85.5	291	15	
2025-11-18T00:00	16150	97	-62.8	-85.2	290	14	
2025-11-18T00:00	16200	96	-62.4	-85.2	287	14	
2025-11-18T00:00	16250	96	-62.6	-85.3	285	15	
2025-11-18T00:00	16300	95	-62.7	-85.4	285	15	
2025-11-18T00:00	16350	94	-62.6	-85.4	285	15	
2025-11-18T00:00	16400	93	-62.6	-85.5	283	15	
2025-11-18T00:00	16450	93	-62.7	-85.6	281	14	
2025-11-18T00:00	16500	92	-62.7	-85.6	280	13	
2025-11-18T00:00	16550	91	-63.0	-85.8	282	13	
2025-11-18T00:00	16600	90	-62.8	-85.8	281	13	
2025-11-18T00:00	16650	90	-62.9	-85.9	279	14	
2025-11-18T00:00	16700	89	-62.7	-85.7	276	15	
2025-11-18T00:00	16750	88	-62.9	-85.9	275	15	
2025-11-18T00:00	16800	87	-63.1	-85.9	274	15	
2025-11-18T00:00	16850	87	-63.1	-85.9	274	15	
2025-11-18T00:00	16900	86	-63.1	-85.9	275	16	
2025-11-18T00:00	16950	85	-63.2	-85.9	277	16	
2025-11-18T00:00	17000	85	-63.6	-86.1	277	17	
2025-11-18T00:00	17050	84	-63.8	-86.2	278	17	
2025-11-18T00:00	17100	83	-63.7	-86.3	278	17	
2025-11-18T00:00	17150	83	-63.4	-86.2	278	17	
2025-11-18T00:00	17200	82	-63.3	-86.3	277	18	
2025-11-18T00:00	17250	81	-63.4	-86.4	277	18	
2025-11-18T00:00	17300	81	-63.4	-86.5	277	19	
2025-11-18T00:00	17350	80	-63.0	-86.3	278	19	
2025-11-18T00:00	17400	79	-62.8	-86.3	278	19	
2025-11-18T00:00	17450	79	-62.5	-86.2	276	19	
2025-11-18T00:00	17500	78	-62.3	-86.1	275	17	
2025-11-18T00:00	17550	77	-62.3	-86.1	275	16	
2025-11-18T00:00	17600	77	-62.1	-86.0	275	15	
2025-11-18T00:00	17650	76	-62.2	-86.1	274	15	
2025-11-18T00:00	17700	76	-62.0	-86.2	271	15	
2025-11-18T00:00	17750	75	-61.7	-86.1	269	14	
2025-11-18T00:00	17800	74	-61.5	-86.0	269	14	
2025-11-18T00:00	17850	74	-61.4	-85.9	270	13	
2025-11-18T00:00	17900	73	-61.5	-86.0	269	13	
2025-11-18T00:00	17950	73	-61.6	-86.2	266	13	
2025-11-18T00:00	18000	72	-61.7	-86.1	260	13	
2025-11-18T00:00	18050	71	-61.7	-86.2	255	13	
2025-11-18T00:00	18100	71	-61.7	-86.3	253	13	
2025-11-18T00:00	18150	70	-61.7	-86.4	249	13	
2025-11-18T00:00	18200	70	-61.6	-86.4	245	13	
2025-11-18T00:00	18250	69	-61.7	-86.4	241	14	
2025-11-18T00:00	18300	69	-61.8	-86.4	238	15	
2025-11-18T00:00	18350	68	-62.0	-86.4	236	15	
2025-11-18T00:00	18400	67	-62.3	-86.5	235	16	
2025-11-18T00:00	18450	67	-62.3	-86.6	235	16	
2025-11-18T00:00	18500	66	-62.2	-86.7	234	16	
2025-11-18T00:00	18550	66	-62.0	-86.8	229	16	
2025-11-18T00:00	18600	65	-61.6	-86.5	224	16	
2025-11-18T00:00	18650	65	-61.9	-86.5	222	17	
2025-11-18T00:00	18700	64	-62.3	-86.5	222	17	
2025-11-18T00:00	18750	64	-62.8	-86.6	223	17	
2025-11-18T00:00	18800	63	-63.3	-86.8	224	17	
2025-11-18T00:00	18850	63	-63.5	-86.9	225	17	
2025-11-18T00:00	18900	62	-63.7	-87.0	228	16	
2025-11-18T00:00	18950	62	-64.1	-87.1	232	16	
2025-11-18T00:00	19000	61	-64.4	-87.3	236	17	
2025-11-18T00:00	19050	61	-64.2	-87.3	239	18	
2025-11-18T00:00	19100	60	-64.2	-87.4	241	19	
2025-11-18T00:00	19150	60	-64.3	-87.4	244	20	
2025-11-18T00:00	19200	59	-64.5	-87.5	246	20	
2025-11-18T00:00	19250	59	-64.6	-87.7	250	20	
2025-11-18T00:00	19300	58	-64.1	-87.4	255	20	
2025-11-18T00:00	19350	58	-64.3	-87.5	259	20	
2025-11-18T00:00	19400	57	-64.7	-87.7	262	20	
2025-11-18T00:00	19450	57	-64.6	-87.6	265	20	
2025-11-18T00:00	19500	56	-64.3	-87.4	266	19	
2025-11-18T00:00	19550	56	-64.5	-87.6	267	18	
2025-11-18T00:00	19600	56	-64.7	-87.8	269	16	
2025-11-18T00:00	19650	55	-64.4	-87.7	271	15	
2025-11-18T00:00	19700	55	-64.3	-87.6	273	14	
2025-11-18T00:00	19750	54	-64.5	-87.7	274	15	
2025-11-18T00:00	19800	54	-64.5	-87.7	275	16	
2025-11-18T00:00	19850	53	-64.7	-87.9	274	17	
2025-11-18T00:00	19900	53	-64.6	-87.9	273	18	
2025-11-18T00:00	19950	52	-64.5	-87.9	272	20	
2025-11-18T00:00	20000	52	-64.4	-87.9	271	21	
2025-11-18T00:00	20050	52	-64.5		271	22	
2025-11-18T00:00	20100	51	-64.3		270	21	
2025-11-18T00:00	20150	51	-64.4		269	20	
2025-11-18T00:00	20200	50	-64.8		269	19	
2025-11-18T00:00	20250	50	-65.0		270	18	
2025-11-18T00:00	20300	49	-64.9		271	17	
2025-11-18T00:00	20350	49	-64.8		271	16	
2025-11-18T00:00	20400	49	-64.5		269	16	
2025-11-18T00:00	20450	48	-64.4		267	17	
2025-11-18T00:00	20500	48	-64.7		267	18	
2025-11-18T00:00	20550	48	-65.1		268	18	
2025-11-18T00:00	20600	47	-64.9		269	17	
2025-11-18T00:00	20650	47	-64.8		270	16	
2025-11-18T00:00	20700	46	-64.6		270	15	
2025-11-18T00:00	20750	46	-64.0		269	13	
2025-11-18T00:00	20800	46	-63.9		266	12	
2025-11-18T00:00	20850	45	-64.1		261	11	
2025-11-18T00:00	20900	45	-64.2		256	12	
2025-11-18T00:00	20950	45	-64.1		253	13	
2025-11-18T00:00	21000	44	-64.0		252	14	
2025-11-18T00:00	21050	44	-64.2		252	15	
2025-11-18T00:00	21100	43	-64.4		253	16	
2025-11-18T00:00	21150	43	-64.6		253	16	
2025-11-18T00:00	21200	43	-64.8		251	17	
2025-11-18T00:00	21250	42	-64.9		247	17	
2025-11-18T00:00	21300	42	-64.8		243	18	
2025-11-18T00:00	21350	42	-65.0		241	17	
2025-11-18T00:00	21400	41	-65.0		243	17	
2025-11-18T00:00	21450	41	-64.9		246	17	
2025-11-18T00:00	21500	41	-65.0		251	17	
2025-11-18T00:00	21550	40	-65.3		255	17	
2025-11-18T00:00	21600	40	-65.3		259	17	
2025-11-18T00:00	21650	40	-65.4		262	18	
2025-11-18T00:00	21700	39	-65.7		264	18	
2025-11-18T00:00	21750	39	-65.8		264	18	
2025-11-18T00:00	21800	39	-65.9		263	18	
2025-11-18T00:00	21850	38	-65.9		260	17	
2025-11-18T00:00	21900	38	-66.0		258	17	
2025-11-18T00:00	21950	38	-66.2		254	16	
2025-11-18T00:00	22000	37	-66.4		249	16	
2025-11-18T00:00	22050	37	-66.5		243	16	
2025-11-18T00:00	22100	37	-66.7		239	16	
2025-11-18T00:00	22150	37	-66.9		236	16	
2025-11-18T00:00	22200	36	-67.2		233	17	
2025-11-18T00:00	22250	36	-67.2		231	18	
2025-11-18T00:00	22300	36	-67.2		231	18	
2025-11-18T00:00	22350	35	-67.4		232	18	
2025-11-18T00:00	22400	35	-67.7		235	18	
2025-11-18T00:00	22450	35	-67.9		238	17	
2025-11-18T00:00	22500	34	-68.3		240	17	
2025-11-18T00:00	22550	34	-68.5		244	17	
2025-11-18T00:00	22600	34	-68.5		249	17	
2025-11-18T00:00	22650	34	-68.6		255	18	
2025-11-18T00:00	22700	33	-68.7		260	18	
2025-11-18T00:00	22750	33	-68.8		259	19	
2025-11-18T00:00	22800	33	-68.4		256	20	
2025-11-18T00:00	22850	33	-67.8		252	21	
2025-11-18T00:00	22900	32	-67.4		251	22	
2025-11-18T00:00	22950	32	-67.4		252	22	
2025-11-18T00:00	23000	32	-67.4		255	22	
2025-11-18T00:00	23050	31	-67.7		258	22	
2025-11-18T00:00	23100	31	-68.0		258	22	
2025-11-18T00:00	23150	31	-68.1		256	23	
2025-11-18T00:00	23200	31	-67.8		255	23	
2025-11-18T00:00	23250	30	-67.6		255	24	
2025-11-18T00:00	23300	30	-67.3		255	24	
2025-11-18T00:00	23350	30	-67.5		255	25	
2025-11-18T00:00	23400	30	-68.0		257	25	
2025-11-18T00:00	23450	29	-68.4		259	25	
2025-11-18T00:00	23500	29	-68.8		262	25	
2025-11-18T00:00	23550	29	-69.2		263	25	
2025-11-18T00:00	23600	29	-69.3		264	25	
2025-11-18T00:00	23650	28	-69.5		264	25	
2025-11-18T00:00	23700	28	-69.6		262	24	
2025-11-18T00:00	23750	28	-69.6		260	25	
2025-11-18T00:00	23800	28	-69.6		260	25	
2025-11-18T00:00	23850	28	-69.4		261	26	
2025-11-18T00:00	23900	27	-69.1		262	25	
2025-11-18T00:00	23950	27	-69.2		262	25	
2025-11-18T00:00	24000	27	-68.9		261	25	
2025-11-18T00:00	24050	27	-68.7		262	24	
2025-11-18T00:00	24100	26	-68.6		263	23	
2025-11-18T00:00	24150	26	-68.4		264	23	
2025-11-18T00:00	24200	26	-68.6		264	23	
2025-11-18T00:00	24250	26	-68.4		263	23	
2025-11-18T00:00	24300	26	-68.3		263	24	
2025-11-18T00:00	24350	25	-68.1		263	25	
2025-11-18T00:00	24400	25	-67.9		261	25	
2025-11-18T00:00	24450	25	-67.7		260	25	
2025-11-18T00:00	24500	25	-67.5		259	26	
2025-11-18T00:00	24550	24	-66.9		258	26	
2025-11-18T00:00	24600	24	-66.7		257	27	
2025-11-18T00:00	24650	24	-66.7		257	28	
2025-11-18T00:00	24700	24	-66.8		259	28	
2025-11-18T00:00	24750	24	-67.0		261	28	
2025-11-18T00:00	24800	23	-67.0		264	28	
2025-11-18T00:00	24850	23	-66.9		265	28	
2025-11-18T00:00	24900	23	-67.2		266	28	
2025-11-18T00:00	24950	23	-67.1		265	29	
2025-11-18T00:00	25000	23	-66.9		265	29	
2025-11-18T00:00	25050	23	-67.1		265	29	
2025-11-18T00:00	25100	22	-67.4		266	28	
2025-11-18T00:00	25150	22	-67.7		266	27	
2025-11-18T00:00	25200	22	-67.9		266	26	
2025-11-18T00:00	25250	22	-68.1		266	26	
2025-11-18T00:00	25300	22	-68.3		266	25	
2025-11-18T00:00	25350	21	-68.4		265	24	
2025-11-18T00:00	25400	21	-68.3		265	23	
2025-11-18T00:00	25450	21	-68.6		265	23	
2025-11-18T00:00	25500	21	-69.0		264	22	
2025-11-18T00:00	25550	21	-69.3		262	22	
2025-11-18T00:00	25600	21	-69.4		260	22	
2025-11-18T00:00	25650	20	-69.5		258	23	
2025-11-18T00:00	25700	20	-69.6		257	23	
2025-11-18T00:00	25750	20	-69.7		255	23	
2025-11-18T00:00	25800	20	-69.3		255	21	
2025-11-18T00:00	25850	20	-69.4		255	20	
2025-11-18T00:00	25900	20	-69.7		255	19	
2025-11-18T00:00	25950	19	-69.9		255	18	
2025-11-18T00:00	26000	19	-70.3		254	17	
2025-11-18T00:00	26050	19	-70.7		254	16	
2025-11-18T00:00	26100	19	-71.1		254	15	
2025-11-18T00:00	26150	19	-71.5		252	14	
2025-11-18T00:00	26200	19	-71.5		249	14	
2025-11-18T00:00	26250	18	-71.4		245	15	
2025-11-18T00:00	26300	18	-71.2		243	16	
2025-11-18T00:00	26350	18	-71.2		240	17	
2025-11-18T00:00	26400	18	-71.4		238	18	
2025-11-18T00:00	26450	18	-71.6		237	20	
2025-11-18T00:00	26500	18	-71.6		238	22	
2025-11-18T00:00	26550	18	-71.0		241	24	
2025-11-18T00:00	26600	17	-70.6		245	25	
2025-11-18T00:00	26650	17	-70.4		248	26	
2025-11-18T00:00	26700	17	-70.6		250	27	
2025-11-18T00:00	26750	17	-70.5		251	27	
2025-11-18T00:00	26800	17	-70.3		251	26	
2025-11-18T00:00	26850	17	-70.1		251	25	
2025-11-18T00:00	26900	17	-70.2		251	25	
2025-11-18T00:00	26950	16	-70.3		250	26	
2025-11-18T00:00	27000	16	-70.2		249	27	
2025-11-18T00:00	27050	16	-70.0		251	28	
2025-11-18T00:00	27100	16	-69.5		253	28	
2025-11-18T00:00	27150	16	-69.5		255	28	
2025-11-18T00:00	27200	16	-69.2		255	29	
2025-11-18T00:00	27250	16	-68.3		255	30	
2025-11-18T00:00	27300	15	-67.7		255	31	
2025-11-18T00:00	27350	15	-67.3		256	32	
2025-11-18T00:00	27400	15	-67.1		257	32	
2025-11-18T00:00	27450	15	-66.9		258	32	
2025-11-18T00:00	27500	15	-67.1		258	33	
2025-11-18T00:00	27550	15	-67.0		258	33	
2025-11-18T00:00	27600	15	-66.8		257	34	
2025-11-18T00:00	27650	15	-66.9		258	35	
2025-11-18T00:00	27700	14	-66.9		258	36	
2025-11-18T00:00	27750	14	-66.7		258	36	
2025-11-18T00:00	27800	14	-66.6		259	36	
2025-11-18T00:00	27850	14	-66.7		259	35	
2025-11-18T00:00	27900	14	-66.8		260	35	
2025-11-18T00:00	27950	14	-66.7		259	35	
2025-11-18T00:00	28000	14	-66.3		259	36	
2025-11-18T00:00	28050	14	-65.8		259	37	
2025-11-18T00:00	28100	14	-65.5		259	37	
2025-11-18T00:00	28150	13	-65.3		260	37	
2025-11-18T00:00	28200	13	-65.1		260	37	
2025-11-18T00:00	28250	13	-64.5		260	37	
2025-11-18T00:00	28300	13	-64.2		261	37	
2025-11-18T00:00	28350	13	-63.7		261	36	
2025-11-18T00:00	28400	13	-63.8		261	34	
2025-11-18T00:00	28450	13	-63.9		260	32	
2025-11-18T00:00	28500	13	-63.8		257	32	
2025-11-18T00:00	28550	13	-63.5		254	32	
2025-11-18T00:00	28600	12	-63.7		251	33	
2025-11-18T00:00	28650	12	-63.6		248	34	
2025-11-18T00:00	28700	12	-63.5		246	35	
2025-11-18T00:00	28750	12	-63.3		247	36	
2025-11-18T00:00	28800	12	-63.3		249	37	
2025-11-18T00:00	28850	12	-63.4		252	38	
2025-11-18T00:00	28900	12	-63.1		255	38	
2025-11-18T00:00	28950	12	-63.0		257	39	
2025-11-18T00:00	29000	12	-63.0		259	39	
2025-11-18T00:00	29050	12	-62.8		260	38	
2025-11-18T00:00	29100	11	-63.0		261	38	
2025-11-18T00:00	29150	11	-62.9		260	37	
2025-11-18T00:00	29200	11	-63.0		258	37	
2025-11-18T00:00	29250	11	-63.0		256	37	
2025-11-18T00:00	29300	11	-63.0		254	38	
2025-11-18T00:00	29350	11	-62.9		253	39	
2025-11-18T00:00	29400	11	-63.0		252	39	
2025-11-18T00:00	29450	11	-63.2		252	39	
2025-11-18T00:00	29500	11	-63.2		253	38	
2025-11-18T00:00	29550	11	-63.2		253	37	
2025-11-18T00:00	29600	11	-63.1		253	37	
2025-11-18T00:00	29650	11	-63.2		253	37	
2025-11-18T00:00	29700	10	-63.1		252	37	
2025-11-18T00:00	29750	10	-62.7		252	38	
2025-11-18T00:00	29800	10	-62.7		252	38	
2025-11-18T00:00	29850	10	-62.7		253	39	
2025-11-18T00:00	29900	10	-62.9		254	39	
2025-11-18T00:00	29950	10	-63.2		255	39	
2025-11-18T00:00	30000	10	-63.5		255	39	
2025-11-18T00:00	30050	10	-63.6		256	39	
2025-11-18T00:00	30100	10	-63.7		256	39	
2025-11-18T00:00	30150	10	-63.8		256	40	
2025-11-18T00:00	30200	10	-63.9		255	40	
2025-11-18T00:00	30250	10	-64.0		254	41	
2025-11-18T00:00	30300	9	-63.9		253	41	
2025-11-18T00:00	30350	9	-63.5		252	41	
2025-11-18T00:00	30400	9	-62.8		251	41	
2025-11-18T00:00	30450	9	-62.5		251	40	
2025-11-18T00:00	30500	9	-62.8		251	39	
2025-11-18T00:00	30550	9	-62.9		251	39	
2025-11-18T00:00	30600	9	-63.0		253	39	
2025-11-18T00:00	30650	9	-63.1		254	39	
2025-11-18T00:00	30700	9	-63.3		254	39	
2025-11-18T00:00	30750	9	-63.4		254	39	
2025-11-18T00:00	30800	9	-63.0		252	40	
2025-11-18T00:00	30850	9	-62.7		251	42	
2025-11-18T00:00	30900	9	-62.7		249	43	
2025-11-18T00:00	30950	9	-62.6		248	45	
2025-11-18T00:00	31000	8	-62.4		247	47	
2025-11-18T00:00	31050	8	-62.4		247	48	
2025-11-18T00:00	31100	8	-62.5		248	50	
2025-11-18T00:00	31150	8	-62.3		250	50	
2025-11-18T00:00	31200	8	-61.7		252	50	
2025-11-18T00:00	31250	8	-61.4		254	50	
2025-11-18T00:00	31300	8	-61.2		256	50	
2025-11-18T00:00	31350	8	-61.2		259	50	
2025-11-18T00:00	31400	8	-61.0		260	50	
2025-11-18T00:00	31450	8	-60.7		262	50	
2025-11-18T00:00	31500	8	-60.6		262	51	
2025-11-18T00:00	31550	8	-60.4		262	51	
2025-11-18T00:00	31600	8	-60.1		261	52	
2025-11-18T00:00	31650	8	-59.9		260	53	
2025-11-18T00:00	31700	8	-59.3		259	55	
2025-11-18T00:00	31750	7	-58.9		260	56	
2025-11-18T00:00	31800	7	-58.8		262	57	
2025-11-18T00:00	31850	7	-58.4		263	58	
2025-11-18T00:00	31900	7	-57.5		264	58	
2025-11-18T00:00	31950	7	-57.0		264	57	
2025-11-18T00:00	32000	7	-57.2		264	57	
2025-11-18T00:00	32050	7	-57.2		264	57	
2025-11-18T00:00	32100	7	-56.6		264	57	
2025-11-18T00:00	32150	7	-56.1		264	58	
2025-11-18T00:00	32200	7	-55.7		265	59	
2025-11-18T00:00	32250	7	-55.2		266	59	
2025-11-18T00:00	32300	7	-55.2		266	60	
2025-11-18T00:00	32350	7	-55.2		267	61	
2025-11-18T00:00	32400	7	-55.2		267	61	
2025-11-18T00:00	32450	7	-55.2		267	61	
2025-11-18T00:00	32500	7	-55.1		266	60	
2025-11-18T00:00	32550	7	-54.7		266	60	
2025-11-18T00:00	32600	7	-54.5		266	60	
2025-11-18T00:00	32650	6	-54.5		266	60	
2025-11-18T00:00	32700	6	-54.5		266	60	
2025-11-18T00:00	32750	6	-54.3		266	60	
2025-11-18T00:00	32800	6	-54.2		267	60	
2025-11-18T00:00	32850	6	-54.0		267	60	
2025-11-18T00:00	32900	6	-53.9		268	61	
2025-11-18T00:00	32950	6	-53.8		268	61	
2025-11-18T00:00	33000	6	-53.7		267	61	
2025-11-18T00:00	33050	6	-53.5		267	61	
2025-11-18T00:00	33100	6	-53.1		267	60	
2025-11-18T00:00	33150	6	-52.9		267	60	
2025-11-18T00:00	33200	6	-52.7		267	60	
2025-11-18T00:00	33250	6	-52.4		267	60	
2025-11-18T00:00	33300	6	-51.7		265	62	
2025-11-18T00:00	33350	6	-50.7		264	64	
2025-11-18T00:00	33400	6	-50.2		263	66	
2025-11-18T00:00	33450	6	-49.5		263	68	
2025-11-18T00:00	33500	6	-48.2		264	69	
2025-11-18T00:00	33550	6	-47.6		264	69	
2025-11-18T00:00	33600	6	-47.1		265	69	
2025-11-18T00:00	33650	6	-46.7		264	69	
2025-11-18T00:00	33700	6	-46.3		263	69	
2025-11-18T00:00	33750	5	-46.0		262	70	
2025-11-18T00:00	33800	5	-45.4		261	72	
2025-11-18T00:00	33850	5	-44.6		262	73	
2025-11-18T00:00	33900	5	-43.7		262	73	
2025-11-18T00:00	33950	5	-43.6		262	73	
2025-11-18T00:00	34000	5	-43.6		262	73	
2025-11-18T00:00	34050	5	-43.2		262	72	
2025-11-18T00:00	34100	5	-43.2		263	72	
2025-11-18T00:00	34150	5	-43.3		263	71	
2025-11-18T00:00	34200	5	-43.2		264	71	
2025-11-18T00:00	34250	5	-43.0		265	70	
2025-11-18T00:00	34300	5	-42.8		265	70	
2025-11-18T00:00	34350	5	-42.4		265	70	
2025-11-18T00:00	34400	5	-42.4		264	70	
2025-11-18T00:00	34450	5	-42.4		264	71	
2025-11-18T00:00	34500	5	-42.3		263	71	
2025-11-18T00:00	34550	5	-42.1		263	71	
2025-11-18T00:00	34600	5	-41.8		263	72	
2025-11-18T00:00	34650	5	-41.7		262	72	
2025-11-18T00:00	34700	5	-41.4		262	74	
2025-11-18T00:00	34750	5	-40.2		261	75	
2025-11-18T00:00	34800	5	-39.4		260	77	
2025-11-18T00:00	34850	5	-39.0		258	78	
2025-11-18T00:00	34900	5	-38.9		257	79	
2025-11-18T00:00	34950	5	-38.1		257	80	
2025-11-18T00:00	35000	5	-37.5		257	79	
2025-11-18T00:00	35050	5	-37.2		257	78	
2025-11-18T00:00	35100	4	-36.9		258	78	
2025-11-18T00:00	35150	4	-36.6		259	78	
2025-11-18T00:00	35200	4	-36.3		259	78	
2025-11-18T00:00	35250	4	-35.7		260	78	
2025-11-18T00:00	35300	4	-35.5		261	78	
2025-11-18T00:00	35350	4	-34.8		261	79	
2025-11-18T00:00	35400	4	-34.6		261	79	
2025-11-18T00:00	35450	4	-34.5		261	80	
2025-11-18T00:00	35500	4	-34.2		261	81	
2025-11-18T00:00	35550	4	-33.5		262	81	
2025-11-18T00:00	35600	4	-33.4		263	82	
2025-11-18T00:00	35650	4	-33.5		263	82	
2025-11-18T00:00	35700	4	-33.8		264	82	
2025-11-18T00:00	35750	4	-34.1		265	82	
2025-11-18T00:00	35800	4	-34.5		265	83	
2025-11-18T00:00	35850	4	-34.8		266	83	
2025-11-18T00:00	35900	4	-35.2		266	83	
2025-11-18T00:00	35950	4	-35.4		267	83	
2025-11-18T00:00	36000	4	-35.7		267	83	
2025-11-18T00:00	36050	4	-35.7		268	82	
2025-11-18T00:00	36100	4	-35.6		268	82	
2025-11-18T00:00	36150	4	-35.6		268	83	
2025-11-18T00:00	36200	4	-35.6		269	83	
2025-11-18T00:00	36250	4	-35.8		269	83	
2025-11-18T00:00	36300	4	-35.4		268	82	
2025-11-18T00:00	36350	4	-35.0		267	81	
2025-11-18T12:00	491	962	1.9	-1.2	69	0	
2025-11-18T12:00	501	961	2.0	-0.8	197	1	
2025-11-18T12:00	520	959	1.7	-1.0	198	1	
2025-11-18T12:00	540	956	1.4	-1.4	179	0	
2025-11-18T12:00	560	954	1.2	-1.5	105	0	
2025-11-18T12:00	580	952	1.0	-1.5	73	0	
2025-11-18T12:00	600	949	0.8	-1.6	68	1	
2025-11-18T12:00	620	947	0.6	-1.5	72	1	
2025-11-18T12:00	640	945	0.5	-1.4	77	1	
2025-11-18T12:00	660	942	0.2	-1.4	78	2	
2025-11-18T12:00	680	940	0.0	-1.4	77	2	
2025-11-18T12:00	700	937	-0.1	-1.5	73	2	
2025-11-18T12:00	720	935	-0.3	-1.5	68	2	
2025-11-18T12:00	740	933	-0.5	-1.5	61	2	
2025-11-18T12:00	760	931	-0.7	-1.7	55	2	
2025-11-18T12:00	780	928	-0.9	-1.8	50	2	
2025-11-18T12:00	800	926	-1.1	-1.9	46	2	
2025-11-18T12:00	820	924	-1.1	-2.2	44	2	
2025-11-18T12:00	840	921	-1.1	-2.4	43	3	
2025-11-18T12:00	860	919	-1.3	-2.3	43	3	
2025-11-18T12:00	880	917	-1.5	-2.3	44	3	
2025-11-18T12:00	900	915	-1.7	-2.3	45	4	
2025-11-18T12:00	920	912	-1.9	-2.4	46	4	
2025-11-18T12:00	940	910	-2.0	-2.5	47	4	
2025-11-18T12:00	960	907	-2.3	-2.5	47	4	
2025-11-18T12:00	980	905	-2.4	-2.5	46	5	
2025-11-18T12:00	1000	903	-2.6	-2.7	44	5	
2025-11-18T12:00	1020	901	-2.9	-2.9	43	5	
2025-11-18T12:00	1040	898	-3.0	-3.0	42	5	
2025-11-18T12:00	1060	896	-3.1	-3.1	43	5	
2025-11-18T12:00	1080	894	-3.3	-3.3	45	5	
2025-11-18T12:00	1100	891	-3.5	-3.5	47	5	
2025-11-18T12:00	1120	890	-3.6	-3.6	48	5	
2025-11-18T12:00	1140	887	-3.7	-3.7	48	5	
2025-11-18T12:00	1160	885	-3.6	-3.8	47	5	
2025-11-18T12:00	1180	882	-3.6	-4.1	45	5	
2025-11-18T12:00	1200	880	-3.4	-4.8	46	5	
2025-11-18T12:00	1220	878	-3.5	-4.9	50	4	
2025-11-18T12:00	1240	876	-3.3	-5.4	58	4	
2025-11-18T12:00	1260	874	-3.1	-5.6	69	4	
2025-11-18T12:00	1280	871	-2.9	-6.9	78	5	
2025-11-18T12:00	1300	869	-2.9	-7.7	83	5	
2025-11-18T12:00	1320	867	-2.9	-8.2	85	5	
2025-11-18T12:00	1340	865	-2.9	-8.8	85	6	
2025-11-18T12:00	1360	863	-2.9	-10.2	84	6	
2025-11-18T12:00	1380	861	-3.1	-10.6	80	6	
2025-11-18T12:00	1400	858	-3.2	-10.9	75	6	
2025-11-18T12:00	1420	856	-3.3	-11.7	70	7	
2025-11-18T12:00	1440	854	-3.4	-13.1	65	7	
2025-11-18T12:00	1460	852	-3.5	-14.4	62	7	
2025-11-18T12:00	1480	850	-3.7	-14.4	59	7	
2025-11-18T12:00	1500	848	-3.8	-14.7	55	7	
2025-11-18T12:00	1520	845	-4.0	-15.1	52	7	
2025-11-18T12:00	1540	843	-4.0	-15.6	50	6	
2025-11-18T12:00	1560	841	-3.8	-17.4	47	6	
2025-11-18T12:00	1580	839	-3.5	-19.0	43	6	
2025-11-18T12:00	1600	837	-3.6	-19.3	40	6	
2025-11-18T12:00	1620	835	-3.7	-19.4	37	6	
2025-11-18T12:00	1640	833	-3.8	-20.3	33	6	
2025-11-18T12:00	1660	830	-4.0	-20.8	29	5	
2025-11-18T12:00	1680	828	-4.1	-20.9	27	5	
2025-11-18T12:00	1700	826	-4.3	-21.1	25	5	
2025-11-18T12:00	1720	824	-4.3	-21.9	25	4	
2025-11-18T12:00	1740	822	-4.2	-22.5	28	4	
2025-11-18T12:00	1760	820	-4.2	-22.9	34	4	
2025-11-18T12:00	1780	818	-4.2	-23.4	42	3	
2025-11-18T12:00	1800	816	-4.1	-24.7	48	3	
2025-11-18T12:00	1820	814	-4.2	-25.8	54	3	
2025-11-18T12:00	1840	812	-4.2	-26.3	60	3	
2025-11-18T12:00	1860	810	-4.3	-27.5	64	3	
2025-11-18T12:00	1880	808	-4.4	-27.3	66	3	
2025-11-18T12:00	1900	806	-4.4	-30.3	66	3	
2025-11-18T12:00	1920	803	-4.2	-36.4	65	3	
2025-11-18T12:00	1940	802	-3.7	-40.1	63	2	
2025-11-18T12:00	1960	800	-3.2	-40.9	61	2	
2025-11-18T12:00	1980	798	-2.4	-40.7	58	2	
2025-11-18T12:00	2000	795	-2.3	-40.0	51	2	
2025-11-18T12:00	2020	794	-2.4	-37.3	41	2	
2025-11-18T12:00	2040	792	-2.3	-34.5	25	1	
2025-11-18T12:00	2060	789	-2.3	-32.8	7	2	
2025-11-18T12:00	2080	787	-2.1	-32.8	355	2	
2025-11-18T12:00	2100	785	-1.8	-33.2	348	2	
2025-11-18T12:00	2120	783	-1.7	-33.3	349	3	
2025-11-18T12:00	2140	782	-1.9	-33.3	353	3	
2025-11-18T12:00	2160	780	-2.0	-33.3	360	3	
2025-11-18T12:00	2180	778	-2.3	-33.4	6	2	
2025-11-18T12:00	2200	776	-2.4	-33.4	13	3	
2025-11-18T12:00	2220	774	-2.6	-33.4	17	3	
2025-11-18T12:00	2240	772	-2.8	-33.4	18	3	
2025-11-18T12:00	2260	770	-3.0	-33.4	16	3	
2025-11-18T12:00	2280	768	-3.2	-33.4	14	3	
2025-11-18T12:00	2300	766	-3.4	-33.5	12	3	
2025-11-18T12:00	2320	764	-3.5	-33.4	11	3	
2025-11-18T12:00	2340	762	-3.7	-33.4	10	3	
2025-11-18T12:00	2360	760	-3.9	-33.4	9	3	
2025-11-18T12:00	2380	758	-4.1	-33.3	7	3	
2025-11-18T12:00	2400	756	-4.1	-32.9	3	2	
2025-11-18T12:00	2420	754	-4.1	-33.2	356	2	
2025-11-18T12:00	2440	752	-4.1	-33.5	346	2	
2025-11-18T12:00	2460	750	-4.3	-33.7	335	2	
2025-11-18T12:00	2480	749	-4.4	-33.8	327	2	
2025-11-18T12:00	2500	747	-4.5	-33.9	321	2	
2025-11-18T12:00	2520	745	-4.5	-34.0	318	2	
2025-11-18T12:00	2540	743	-4.7	-34.0	321	2	
2025-11-18T12:00	2560	741	-4.8	-34.0	328	2	
2025-11-18T12:00	2580	739	-4.8	-34.0	335	2	
2025-11-18T12:00	2600	737	-4.9	-34.3	342	3	
2025-11-18T12:00	2620	735	-5.0	-34.3	348	3	
2025-11-18T12:00	2640	734	-5.2	-34.4	350	4	
2025-11-18T12:00	2660	732	-5.4	-34.5	350	4	
2025-11-18T12:00	2680	730	-5.5	-34.8	347	4	
2025-11-18T12:00	2700	728	-5.6	-34.9	344	4	
2025-11-18T12:00	2720	726	-5.7	-35.1	340	3	
2025-11-18T12:00	2740	724	-5.9	-35.2	336	3	
2025-11-18T12:00	2760	722	-6.0	-35.5	334	3	
2025-11-18T12:00	2780	721	-6.2	-35.7	334	3	
2025-11-18T12:00	2800	719	-6.4	-35.9	335	3	
2025-11-18T12:00	2820	717	-6.5	-35.9	335	3	
2025-11-18T12:00	2840	715	-6.7	-36.0	334	4	
2025-11-18T12:00	2860	713	-6.9	-36.1	332	4	
2025-11-18T12:00	2880	711	-7.1	-36.3	330	4	
2025-11-18T12:00	2900	710	-7.2	-36.5	328	4	
2025-11-18T12:00	2920	708	-7.4	-36.9	326	4	
2025-11-18T12:00	2940	706	-7.4	-37.5	326	4	
2025-11-18T12:00	2960	704	-7.5	-37.8	326	4	
2025-11-18T12:00	2980	702	-7.6	-38.1	326	4	
2025-11-18T12:00	3000	700	-7.7	-38.4	327	4	
2025-11-18T12:00	3020	699	-7.8	-38.5	327	4	
2025-11-18T12:00	3040	697	-7.9	-38.7	327	4	
2025-11-18T12:00	3060	695	-8.0	-39.4	328	4	
2025-11-18T12:00	3080	694	-8.1	-39.7	330	4	
2025-11-18T12:00	3100	692	-8.2	-40.3	333	4	
2025-11-18T12:00	3120	690	-8.3	-41.5	335	5	
2025-11-18T12:00	3140	688	-8.3	-41.0	336	5	
2025-11-18T12:00	3160	686	-8.5	-38.8	338	5	
2025-11-18T12:00	3180	684	-8.5	-35.6	340	5	
2025-11-18T12:00	3200	683	-8.6	-34.4	342	6	
2025-11-18T12:00	3220	681	-8.8	-33.6	345	6	
2025-11-18T12:00	3240	679	-9.0	-33.4	347	6	
2025-11-18T12:00	3260	677	-9.2	-33.1	348	7	
2025-11-18T12:00	3280	676	-9.3	-33.1	348	7	
2025-11-18T12:00	3300	674	-9.5	-33.6	346	8	
2025-11-18T12:00	3320	672	-9.5	-34.0	344	8	
2025-11-18T12:00	3340	671	-9.6	-34.4	342	8	
2025-11-18T12:00	3360	669	-9.6	-34.4	340	8	
2025-11-18T12:00	3380	667	-9.5	-32.3	339	8	
2025-11-18T12:00	3400	665	-9.6	-30.5	338	8	
2025-11-18T12:00	3420	664	-9.8	-25.2	338	8	
2025-11-18T12:00	3440	662	-9.9	-20.7	336	9	
2025-11-18T12:00	3460	660	-10.1	-19.6	334	9	
2025-11-18T12:00	3480	658	-10.3	-18.6	332	9	
2025-11-18T12:00	3500	657	-10.4	-18.8	328	9	
2025-11-18T12:00	3520	655	-10.5	-19.3	324	10	
2025-11-18T12:00	3540	653	-10.6	-19.6	321	10	
2025-11-18T12:00	3560	651	-10.8	-20.0	320	11	
2025-11-18T12:00	3580	650	-10.8	-20.7	319	11	
2025-11-18T12:00	3600	648	-10.9	-22.3	318	12	
2025-11-18T12:00	3620	646	-11.0	-22.7	318	12	
2025-11-18T12:00	3640	645	-11.1	-22.3	317	12	
2025-11-18T12:00	3660	643	-11.3	-22.0	316	13	
2025-11-18T12:00	3680	642	-11.4	-21.9	314	13	
2025-11-18T12:00	3700	640	-11.5	-21.8	312	13	
2025-11-18T12:00	3720	638	-11.6	-21.4	310	13	
2025-11-18T12:00	3740	636	-11.7	-21.3	308	13	
2025-11-18T12:00	3760	635	-11.8	-21.4	308	13	
2025-11-18T12:00	3780	633	-11.9	-21.8	308	13	
2025-11-18T12:00	3800	632	-12.0	-22.2	308	13	
2025-11-18T12:00	3820	630	-12.2	-22.3	309	13	
2025-11-18T12:00	3840	628	-12.3	-22.3	309	12	
2025-11-18T12:00	3860	627	-12.5	-22.8	310	12	
2025-11-18T12:00	3880	625	-12.6	-23.5	310	12	
2025-11-18T12:00	3900	623	-12.8	-22.9	311	12	
2025-11-18T12:00	3920	622	-13.0	-22.3	311	12	
2025-11-18T12:00	3940	620	-13.1	-22.0	311	12	
2025-11-18T12:00	3960	619	-13.3	-21.6	312	12	
2025-11-18T12:00	3980	617	-13.5	-21.6	312	12	
2025-11-18T12:00	4000	615	-13.7	-21.8	312	13	
2025-11-18T12:00	4020	614	-13.9	-21.8	312	13	
2025-11-18T12:00	4040	612	-14.0	-21.9	312	13	
2025-11-18T12:00	4060	610	-14.2	-21.9	312	13	
2025-11-18T12:00	4080	609	-14.5	-22.1	312	13	
2025-11-18T12:00	4100	607	-14.6	-22.3	312	13	
2025-11-18T12:00	4120	605	-14.8	-23.0	313	13	
2025-11-18T12:00	4140	604	-15.0	-23.8	314	13	
2025-11-18T12:00	4160	602	-15.1	-23.5	315	14	
2025-11-18T12:00	4180	601	-15.1	-25.1	317	14	
2025-11-18T12:00	4200	599	-14.9	-28.0	318	14	
2025-11-18T12:00	4220	598	-14.8	-31.7	318	14	
2025-11-18T12:00	4240	596	-14.6	-35.9	318	14	
2025-11-18T12:00	4260	594	-14.6	-36.1	317	14	
2025-11-18T12:00	4280	593	-14.7	-33.3	316	15	
2025-11-18T12:00	4300	591	-14.9	-30.1	314	15	
2025-11-18T12:00	4320	590	-15.0	-30.5	314	16	
2025-11-18T12:00	4340	588	-15.1	-29.5	313	16	
2025-11-18T12:00	4360	587	-14.9	-35.7	313	16	
2025-11-18T12:00	4380	585	-14.6	-47.4	313	16	
2025-11-18T12:00	4400	583	-14.6	-47.1	314	16	
2025-11-18T12:00	4420	582	-14.7	-45.5	314	16	
2025-11-18T12:00	4440	580	-14.8	-38.5	315	16	
2025-11-18T12:00	4460	579	-14.9	-35.1	316	16	
2025-11-18T12:00	4480	577	-15.1	-33.7	316	16	
2025-11-18T12:00	4500	576	-15.2	-33.2	317	15	
2025-11-18T12:00	4520	574	-15.3	-33.8	317	15	
2025-11-18T12:00	4540	573	-15.5	-34.6	317	15	
2025-11-18T12:00	4560	571	-15.7	-34.3	316	15	
2025-11-18T12:00	4580	570	-15.8	-29.4	315	15	
2025-11-18T12:00	4600	568	-15.9	-28.2	314	15	
2025-11-18T12:00	4620	567	-16.1	-28.6	313	15	
2025-11-18T12:00	4640	565	-16.3	-28.8	313	15	
2025-11-18T12:00	4660	564	-16.5	-29.1	313	16	
2025-11-18T12:00	4680	562	-16.7	-29.1	313	16	
2025-11-18T12:00	4700	561	-16.9	-29.2	314	16	
2025-11-18T12:00	4720	559	-17.0	-29.9	314	16	
2025-11-18T12:00	4740	558	-17.2	-30.5	314	16	
2025-11-18T12:00	4760	556	-17.4	-29.9	314	17	
2025-11-18T12:00	4780	555	-17.6	-29.3	314	17	
2025-11-18T12:00	4800	553	-17.8	-29.0	314	17	
2025-11-18T12:00	4820	552	-17.9	-29.0	315	17	
2025-11-18T12:00	4840	550	-18.1	-29.2	315	17	
2025-11-18T12:00	4860	549	-18.3	-29.5	315	17	
2025-11-18T12:00	4880	547	-18.4	-30.3	315	17	
2025-11-18T12:00	4900	546	-18.5	-30.5	314	18	
2025-11-18T12:00	4920	544	-18.6	-31.2	314	18	
2025-11-18T12:00	4940	543	-18.6	-31.8	313	18	
2025-11-18T12:00	4960	542	-18.7	-32.0	313	19	
2025-11-18T12:00	4980	540	-18.7	-32.3	313	19	
2025-11-18T12:00	5000	539	-18.9	-32.6	312	19	
2025-11-18T12:00	5020	537	-19.0	-32.9	312	20	
2025-11-18T12:00	5040	536	-19.1	-33.8	312	20	
2025-11-18T12:00	5060	534	-19.2	-34.4	312	20	
2025-11-18T12:00	5080	533	-19.3	-34.6	312	21	
2025-11-18T12:00	5100	531	-19.5	-34.9	312	21	
2025-11-18T12:00	5120	530	-19.6	-35.3	312	22	
2025-11-18T12:00	5140	529	-19.7	-35.3	312	22	
2025-11-18T12:00	5160	527	-19.8	-35.4	312	22	
2025-11-18T12:00	5180	526	-19.9	-35.4	311	22	
2025-11-18T12:00	5200	524	-20.0	-35.5	310	22	
2025-11-18T12:00	5220	523	-20.2	-35.5	309	21	
2025-11-18T12:00	5240	521	-20.4	-35.6	308	21	
2025-11-18T12:00	5260	520	-20.6	-35.8	308	20	
2025-11-18T12:00	5280	519	-20.8	-35.9	307	20	
2025-11-18T12:00	5300	517	-20.9	-36.0	307	20	
2025-11-18T12:00	5320	516	-21.1	-36.0	308	20	
2025-11-18T12:00	5340	514	-21.3	-36.2	309	21	
2025-11-18T12:00	5360	513	-21.4	-36.5	310	21	
2025-11-18T12:00	5380	512	-21.5	-36.7	310	21	
2025-11-18T12:00	5400	510	-21.7	-36.7	311	21	
2025-11-18T12:00	5420	509	-21.9	-36.4	311	21	
2025-11-18T12:00	5440	508	-22.1	-35.5	310	21	
2025-11-18T12:00	5460	506	-22.3	-35.3	310	21	
2025-11-18T12:00	5480	505	-22.5	-35.1	310	21	
2025-11-18T12:00	5500	503	-22.6	-35.0	309	21	
2025-11-18T12:00	5520	502	-22.8	-35.0	309	21	
2025-11-18T12:00	5540	501	-23.0	-35.4	309	21	
2025-11-18T12:00	5560	499	-23.1	-35.4	310	21	
2025-11-18T12:00	5580	498	-23.3	-35.5	311	21	
2025-11-18T12:00	5600	497	-23.5	-35.5	311	21	
2025-11-18T12:00	5620	495	-23.7	-35.7	312	21	
2025-11-18T12:00	5640	494	-23.9	-36.4	313	22	
2025-11-18T12:00	5660	493	-24.0	-37.2	314	22	
2025-11-18T12:00	5680	491	-24.1	-38.0	314	23	
2025-11-18T12:00	5700	490	-24.3	-38.4	313	23	
2025-11-18T12:00	5720	488	-24.4	-38.7	313	23	
2025-11-18T12:00	5740	487	-24.5	-39.8	313	23	
2025-11-18T12:00	5760	486	-24.5	-42.0	314	23	
2025-11-18T12:00	5780	484	-24.6	-42.3	314	23	
2025-11-18T12:00	5800	483	-24.6	-42.6	315	23	
2025-11-18T12:00	5820	482	-24.6	-42.0	316	23	
2025-11-18T12:00	5840	481	-24.6	-42.4	316	24	
2025-11-18T12:00	5860	479	-24.8	-42.7	316	24	
2025-11-18T12:00	5880	478	-24.8	-42.9	316	25	
2025-11-18T12:00	5900	477	-25.0	-42.7	316	25	
2025-11-18T12:00	5920	475	-25.0	-42.2	316	25	
2025-11-18T12:00	5940	474	-25.0	-42.7	315	25	
2025-11-18T12:00	5960	473	-25.0	-42.2	315	25	
2025-11-18T12:00	5980	471	-25.0	-41.6	314	24	
2025-11-18T12:00	6000	470	-25.0	-42.2	314	24	
2025-11-18T12:00	6020	469	-25.1	-42.7	314	25	
2025-11-18T12:00	6040	467	-25.2	-42.5	314	25	
2025-11-18T12:00	6060	466	-25.4	-42.7	314	25	
2025-11-18T12:00	6080	465	-25.5	-43.5	314	25	
2025-11-18T12:00	6100	464	-25.6	-43.9	314	26	
2025-11-18T12:00	6120	462	-25.8	-44.0	315	26	
2025-11-18T12:00	6140	461	-25.9	-44.2	315	26	
2025-11-18T12:00	6160	460	-26.1	-44.3	316	27	
2025-11-18T12:00	6180	459	-26.3	-44.4	316	27	
2025-11-18T12:00	6200	457	-26.4	-44.8	316	27	
2025-11-18T12:00	6220	456	-26.6	-45.0	316	27	
2025-11-18T12:00	6240	455	-26.7	-45.2	317	28	
2025-11-18T12:00	6260	453	-26.9	-45.0	317	28	
2025-11-18T12:00	6280	452	-27.1	-45.0	317	28	
2025-11-18T12:00	6300	451	-27.3	-45.1	318	28	
2025-11-18T12:00	6320	450	-27.4	-45.3	318	28	
2025-11-18T12:00	6340	449	-27.6	-45.6	318	28	
2025-11-18T12:00	6360	447	-27.8	-45.5	318	27	
2025-11-18T12:00	6380	446	-28.0	-45.4	318	27	
2025-11-18T12:00	6400	445	-28.2	-45.4	318	27	
2025-11-18T12:00	6420	443	-28.4	-45.4	318	26	
2025-11-18T12:00	6440	442	-28.6	-45.4	318	26	
2025-11-18T12:00	6460	441	-28.8	-45.5	318	26	
2025-11-18T12:00	6480	440	-28.9	-45.5	318	26	
2025-11-18T12:00	6500	439	-29.1	-45.5	318	26	
2025-11-18T12:00	6520	437	-29.3	-45.4	318	27	
2025-11-18T12:00	6540	436	-29.5	-45.5	318	27	
2025-11-18T12:00	6560	435	-29.7	-45.8	318	27	
2025-11-18T12:00	6580	434	-29.8	-46.2	318	28	
2025-11-18T12:00	6600	432	-30.0	-46.3	318	28	
2025-11-18T12:00	6620	431	-30.1	-46.6	318	28	
2025-11-18T12:00	6640	430	-30.3	-46.8	318	28	
2025-11-18T12:00	6660	429	-30.4	-46.8	318	29	
2025-11-18T12:00	6680	428	-30.6	-46.7	317	29	
2025-11-18T12:00	6700	426	-30.8	-46.7	316	29	
2025-11-18T12:00	6720	425	-31.0	-46.7	316	29	
2025-11-18T12:00	6740	424	-31.2	-46.9	315	29	
2025-11-18T12:00	6760	423	-31.4	-47.1	315	28	
2025-11-18T12:00	6780	422	-31.6	-47.1	315	28	
2025-11-18T12:00	6800	420	-31.8	-47.1	315	28	
2025-11-18T12:00	6820	419	-32.0	-47.1	315	28	
2025-11-18T12:00	6840	418	-32.1	-47.1	315	28	
2025-11-18T12:00	6860	417	-32.3	-47.0	315	28	
2025-11-18T12:00	6880	416	-32.5	-47.1	315	28	
2025-11-18T12:00	6900	414	-32.7	-47.2	315	28	
2025-11-18T12:00	6920	413	-32.9	-47.3	315	28	
2025-11-18T12:00	6940	412	-33.1	-47.5	315	28	
2025-11-18T12:00	6960	411	-33.2	-47.5	314	28	
2025-11-18T12:00	6980	410	-33.4	-47.7	314	29	
2025-11-18T12:00	7000	409	-33.5	-47.6	314	29	
2025-11-18T12:00	7020	407	-33.7	-47.7	314	29	
2025-11-18T12:00	7040	406	-33.9	-47.8	314	29	
2025-11-18T12:00	7060	405	-34.1	-47.7	314	29	
2025-11-18T12:00	7080	404	-34.3	-47.3	314	29	
2025-11-18T12:00	7100	403	-34.5	-46.4	314	29	
2025-11-18T12:00	7120	402	-34.6	-45.3	314	29	
2025-11-18T12:00	7140	401	-34.8	-45.5	314	29	
2025-11-18T12:00	7160	399	-35.0	-45.4	314	29	
2025-11-18T12:00	7180	398	-35.2	-45.3	314	29	
2025-11-18T12:00	7200	397	-35.4	-45.3	314	29	
2025-11-18T12:00	7220	396	-35.6	-45.4	314	29	
2025-11-18T12:00	7240	395	-35.8	-45.3	314	29	
2025-11-18T12:00	7260	394	-36.0	-44.8	314	29	
2025-11-18T12:00	7280	393	-36.2	-44.4	314	29	
2025-11-18T12:00	7300	391	-36.3	-44.6	314	29	
2025-11-18T12:00	7320	390	-36.5	-45.2	314	30	
2025-11-18T12:00	7340	389	-36.7	-45.4	314	30	
2025-11-18T12:00	7360	388	-36.9	-45.2	314	30	
2025-11-18T12:00	7380	387	-37.0	-45.6	313	30	
2025-11-18T12:00	7400	386	-37.2	-46.6	313	30	
2025-11-18T12:00	7420	385	-37.4	-46.8	313	29	
2025-11-18T12:00	7440	384	-37.6	-46.7	313	29	
2025-11-18T12:00	7460	382	-37.8	-47.1	312	30	
2025-11-18T12:00	7480	381	-37.9	-47.4	313	30	
2025-11-18T12:00	7500	380	-38.1	-46.7	313	30	
2025-11-18T12:00	7520	379	-38.2	-45.6	313	30	
2025-11-18T12:00	7540	378	-38.5	-45.8	314	31	
2025-11-18T12:00	7560	377	-38.6	-46.1	314	31	
2025-11-18T12:00	7580	376	-38.8	-46.2	314	30	
2025-11-18T12:00	7600	375	-39.0	-46.1	315	30	
2025-11-18T12:00	7620	374	-39.2	-46.2	315	30	
2025-11-18T12:00	7640	373	-39.4	-46.6	315	30	
2025-11-18T12:00	7660	372	-39.4	-50.7	315	29	
2025-11-18T12:00	7680	370	-39.3	-56.3	314	29	
2025-11-18T12:00	7700	369	-39.2	-58.2	314	29	
2025-11-18T12:00	7720	368	-39.3	-56.5	314	29	
2025-11-18T12:00	7740	367	-39.5	-54.9	314	29	
2025-11-18T12:00	7760	366	-39.6	-55.1	314	29	
2025-11-18T12:00	7780	365	-39.8	-55.4	314	29	
2025-11-18T12:00	7800	364	-40.0	-55.4	314	29	
2025-11-18T12:00	7820	363	-40.1	-56.1	314	29	
2025-11-18T12:00	7840	362	-40.2	-57.1	314	29	
2025-11-18T12:00	7860	361	-40.3	-57.8	313	29	
2025-11-18T12:00	7880	360	-40.3	-57.3	313	29	
2025-11-18T12:00	7900	359	-40.5	-56.7	312	29	
2025-11-18T12:00	7920	358	-40.7	-56.8	312	29	
2025-11-18T12:00	7940	357	-40.9	-56.8	311	29	
2025-11-18T12:00	7960	356	-41.1	-56.8	311	29	
2025-11-18T12:00	7980	354	-41.2	-56.5	310	30	
2025-11-18T12:00	8000	353	-41.4	-56.5	310	30	
2025-11-18T12:00	8020	352	-41.6	-56.6	309	31	
2025-11-18T12:00	8040	351	-41.7	-56.9	309	31	
2025-11-18T12:00	8060	350	-41.8	-56.6	309	31	
2025-11-18T12:00	8080	349	-41.8	-57.0	310	32	
2025-11-18T12:00	8100	348	-41.9	-57.8	310	32	
2025-11-18T12:00	8120	347	-42.1	-58.9	310	32	
2025-11-18T12:00	8140	346	-42.2	-59.1	310	32	
2025-11-18T12:00	8160	345	-42.3	-58.7	310	32	
2025-11-18T12:00	8180	344	-42.5	-58.4	311	33	
2025-11-18T12:00	8200	343	-42.6	-58.3	311	33	
2025-11-18T12:00	8220	342	-42.9	-58.3	311	33	
2025-11-18T12:00	8240	341	-43.0	-58.3	311	33	
2025-11-18T12:00	8260	340	-43.2	-58.3	311	33	
2025-11-18T12:00	8280	339	-43.4	-58.5	311	33	
2025-11-18T12:00	8300	338	-43.5	-58.7	311	33	
2025-11-18T12:00	8320	337	-43.6	-59.2	311	33	
2025-11-18T12:00	8340	336	-43.8	-59.2	311	33	
2025-11-18T12:00	8360	335	-44.0	-59.0	312	33	
2025-11-18T12:00	8380	334	-44.1	-59.1	312	33	
2025-11-18T12:00	8400	333	-44.3	-58.9	312	33	
2025-11-18T12:00	8420	332	-44.5	-58.9	312	33	
2025-11-18T12:00	8440	331	-44.7	-59.2	312	33	
2025-11-18T12:00	8460	330	-44.9	-59.4	312	33	
2025-11-18T12:00	8480	329	-45.0	-59.9	311	33	
2025-11-18T12:00	8500	328	-45.2	-60.0	311	33	
2025-11-18T12:00	8520	327	-45.4	-59.8	310	33	
2025-11-18T12:00	8540	326	-45.6	-59.7	310	34	
2025-11-18T12:00	8560	325	-45.7	-59.7	310	34	
2025-11-18T12:00	8580	324	-45.8	-59.8	310	34	
2025-11-18T12:00	8600	323	-46.0	-59.9	310	34	
2025-11-18T12:00	8620	322	-46.2	-59.8	310	34	
2025-11-18T12:00	8640	321	-46.4	-59.8	311	34	
2025-11-18T12:00	8660	320	-46.5	-59.8	311	34	
2025-11-18T12:00	8680	319	-46.7	-60.0	312	34	
2025-11-18T12:00	8700	318	-46.9	-60.2	312	34	
2025-11-18T12:00	8720	317	-47.1	-60.3	312	34	
2025-11-18T12:00	8740	317	-47.2	-60.2	312	34	
2025-11-18T12:00	8760	316	-47.4	-60.2	312	34	
2025-11-18T12:00	8780	315	-47.6	-60.3	312	34	
2025-11-18T12:00	8800	314	-47.8	-60.3	312	34	
2025-11-18T12:00	8820	313	-48.0	-60.3	312	34	
2025-11-18T12:00	8840	312	-48.2	-60.3	312	34	
2025-11-18T12:00	8860	311	-48.4	-60.3	312	34	
2025-11-18T12:00	8880	310	-48.6	-60.3	312	34	
2025-11-18T12:00	8900	309	-48.8	-60.4	312	34	
2025-11-18T12:00	8920	308	-49.0	-60.3	312	34	
2025-11-18T12:00	8940	307	-49.2	-60.3	312	34	
2025-11-18T12:00	8960	306	-49.4	-60.4	313	34	
2025-11-18T12:00	8980	305	-49.6	-60.4	313	34	
2025-11-18T12:00	9000	304	-49.8	-60.5	313	34	
2025-11-18T12:00	9020	303	-50.0	-60.6	314	34	
2025-11-18T12:00	9040	302	-50.1	-60.5	314	34	
2025-11-18T12:00	9060	301	-50.3	-60.3	314	34	
2025-11-18T12:00	9080	301	-50.4	-60.3	315	35	
2025-11-18T12:00	9100	300	-50.6	-60.3	315	35	
2025-11-18T12:00	9120	299	-50.8	-60.3	316	35	
2025-11-18T12:00	9140	298	-50.9	-60.4	316	35	
2025-11-18T12:00	9160	297	-51.1	-61.0	316	35	
2025-11-18T12:00	9180	296	-51.2	-61.9	316	35	
2025-11-18T12:00	9200	295	-51.4	-62.5	316	35	
2025-11-18T12:00	9220	294	-51.5	-62.2	316	35	
2025-11-18T12:00	9240	293	-51.6	-61.4	316	35	
2025-11-18T12:00	9260	292	-51.8	-60.4	315	35	
2025-11-18T12:00	9280	291	-52.0	-60.3	315	35	
2025-11-18T12:00	9300	290	-52.2	-60.3	314	35	
2025-11-18T12:00	9320	290	-52.3	-60.1	314	35	
2025-11-18T12:00	9340	289	-52.5	-59.9	313	35	
2025-11-18T12:00	9360	288	-52.7	-59.7	313	35	
2025-11-18T12:00	9380	287	-52.8	-59.6	312	35	
2025-11-18T12:00	9400	286	-53.0	-59.6	312	35	
2025-11-18T12:00	9420	285	-53.2	-59.7	312	35	
2025-11-18T12:00	9440	284	-53.4	-59.4	312	36	
2025-11-18T12:00	9460	283	-53.6	-59.2	312	36	
2025-11-18T12:00	9480	282	-53.6	-59.5	312	36	
2025-11-18T12:00	9500	282	-53.6	-60.2	312	36	
2025-11-18T12:00	9520	281	-53.5	-61.0	312	36	
2025-11-18T12:00	9540	280	-53.6	-61.4	312	36	
2025-11-18T12:00	9560	279	-53.8	-61.4	312	36	
2025-11-18T12:00	9580	278	-53.9	-61.4	312	36	
2025-11-18T12:00	9600	277	-53.9	-61.6	312	36	
2025-11-18T12:00	9620	276	-54.1	-61.7	312	36	
2025-11-18T12:00	9640	276	-54.3	-61.7	312	36	
2025-11-18T12:00	9660	275	-54.5	-61.7	312	36	
2025-11-18T12:00	9680	274	-54.7	-61.6	312	36	
2025-11-18T12:00	9700	273	-54.9	-61.6	312	36	
2025-11-18T12:00	9720	272	-55.1	-61.7	313	36	
2025-11-18T12:00	9740	271	-55.2	-61.7	313	36	
2025-11-18T12:00	9760	270	-55.4	-62.1	313	36	
2025-11-18T12:00	9780	270	-55.5	-62.5	313	36	
2025-11-18T12:00	9800	269	-55.6	-62.8	313	36	
2025-11-18T12:00	9820	268	-55.8	-63.0	314	36	
2025-11-18T12:00	9840	267	-56.0	-63.0	314	36	
2025-11-18T12:00	9860	266	-56.1	-62.9	314	36	
2025-11-18T12:00	9880	265	-56.3	-62.8	314	36	
2025-11-18T12:00	9900	264	-56.6	-62.5	314	36	
2025-11-18T12:00	9920	264	-56.7	-62.3	315	36	
2025-11-18T12:00	9940	263	-56.9	-62.2	315	36	
2025-11-18T12:00	9960	262	-57.0	-62.0	315	36	
2025-11-18T12:00	9980	261	-57.3	-61.9	315	36	
2025-11-18T12:00	10000	260	-57.5	-62.1	315	36	
2025-11-18T12:00	10018	260	-57.6	-62.3	315	35	
2025-11-18T12:00	10050	258	-57.9	-62.7	314	35	
2025-11-18T12:00	10100	256	-58.3	-63.2	314	35	
2025-11-18T12:00	10150	254	-58.7	-63.8	313	34	
2025-11-18T12:00	10200	252	-59.1	-64.5	313	33	
2025-11-18T12:00	10250	250	-59.5	-64.9	312	33	
2025-11-18T12:00	10300	248	-59.9	-64.9	311	33	
2025-11-18T12:00	10350	246	-60.2	-65.0	310	33	
2025-11-18T12:00	10400	244	-60.4	-65.3	309	33	
2025-11-18T12:00	10450	242	-60.6	-66.1	309	32	
2025-11-18T12:00	10500	240	-60.7	-67.9	308	32	
2025-11-18T12:00	10550	238	-60.6	-69.6	306	31	
2025-11-18T12:00	10600	237	-60.6	-70.4	306	30	
2025-11-18T12:00	10650	235	-60.6	-70.1	305	30	
2025-11-18T12:00	10700	233	-60.7	-70.0	305	30	
2025-11-18T12:00	10750	231	-60.8	-70.1	306	30	
2025-11-18T12:00	10800	229	-60.8	-69.1	308	30	
2025-11-18T12:00	10850	227	-60.4	-68.6	308	30	
2025-11-18T12:00	10900	225	-60.7	-69.3	308	29	
2025-11-18T12:00	10950	224	-60.9	-70.1	307	29	
2025-11-18T12:00	11000	222	-60.8	-71.6	306	28	
2025-11-18T12:00	11050	220	-60.8	-73.1	304	27	
2025-11-18T12:00	11100	218	-61.0	-74.0	303	26	
2025-11-18T12:00	11150	217	-60.9	-74.0	301	25	
2025-11-18T12:00	11200	215	-61.0	-73.7	300	25	
2025-11-18T12:00	11250	213	-61.3	-73.6	299	25	
2025-11-18T12:00	11300	211	-61.6	-73.6	298	25	
2025-11-18T12:00	11350	210	-61.8	-73.5	297	26	
2025-11-18T12:00	11400	208	-61.8	-73.1	294	27	
2025-11-18T12:00	11450	206	-61.7	-72.7	290	28	
2025-11-18T12:00	11500	205	-61.5	-72.6	287	28	
2025-11-18T12:00	11550	203	-61.6	-72.7	284	29	
2025-11-18T12:00	11600	201	-61.6	-73.0	282	30	
2025-11-18T12:00	11650	200	-61.6	-73.1	280	30	
2025-11-18T12:00	11700	198	-61.9	-72.8	279	30	
2025-11-18T12:00	11750	197	-61.9	-72.8	282	31	
2025-11-18T12:00	11800	195	-61.7	-74.1	284	32	
2025-11-18T12:00	11850	193	-61.0	-75.4	285	33	
2025-11-18T12:00	11900	192	-60.8	-76.0	286	33	
2025-11-18T12:00	11950	190	-60.6	-76.7	287	33	
2025-11-18T12:00	12000	189	-60.0	-78.7	288	32	
2025-11-18T12:00	12050	187	-59.3	-80.6	290	30	
2025-11-18T12:00	12100	186	-59.2	-80.8	292	29	
2025-11-18T12:00	12150	184	-59.4	-80.6	295	27	
2025-11-18T12:00	12200	183	-59.2	-80.5	299	26	
2025-11-18T12:00	12250	181	-59.0	-80.3	301	25	
2025-11-18T12:00	12300	180	-58.9	-80.2	300	26	
2025-11-18T12:00	12350	179	-59.3	-80.3	299	27	
2025-11-18T12:00	12400	177	-59.8	-80.5	298	28	
2025-11-18T12:00	12450	176	-60.3	-80.8	299	28	
2025-11-18T12:00	12500	174	-60.4	-80.8	300	28	
2025-11-18T12:00	12550	173	-60.5	-80.9	301	26	
2025-11-18T12:00	12600	172	-60.6	-81.1	302	25	
2025-11-18T12:00	12650	170	-60.8	-81.5	304	24	
2025-11-18T12:00	12700	169	-61.1	-81.8	306	23	
2025-11-18T12:00	12750	167	-61.1	-81.9	306	22	
2025-11-18T12:00	12800	166	-61.0	-82.0	304	20	
2025-11-18T12:00	12850	165	-61.2	-82.1	301	19	
2025-11-18T12:00	12900	163	-61.2	-82.2	298	18	
2025-11-18T12:00	12950	162	-61.0	-82.4	295	18	
2025-11-18T12:00	13000	161	-60.9	-82.5	293	18	
2025-11-18T12:00	13050	160	-60.9	-82.6	292	18	
2025-11-18T12:00	13100	158	-60.2	-82.6	290	18	
2025-11-18T12:00	13150	157	-60.1	-82.8	288	18	
2025-11-18T12:00	13200	156	-60.0	-82.9	289	18	
2025-11-18T12:00	13250	154	-59.9	-83.1	290	19	
2025-11-18T12:00	13300	153	-59.3	-83.0	290	19	
2025-11-18T12:00	13350	152	-59.2	-83.2	289	17	
2025-11-18T12:00	13400	151	-58.4	-83.1	285	15	
2025-11-18T12:00	13450	150	-58.2	-83.1	280	15	
2025-11-18T12:00	13500	148	-58.4	-83.1	275	15	
2025-11-18T12:00	13550	147	-58.6	-83.0	271	16	
2025-11-18T12:00	13600	146	-58.9	-83.2	270	16	
2025-11-18T12:00	13650	145	-58.9	-83.1	272	16	
2025-11-18T12:00	13700	144	-59.0	-83.1	276	16	
2025-11-18T12:00	13750	143	-59.3	-83.2	280	16	
2025-11-18T12:00	13800	141	-59.6	-83.3	284	15	
2025-11-18T12:00	13850	140	-59.8	-83.4	289	15	
2025-11-18T12:00	13900	139	-60.0	-83.4	291	14	
2025-11-18T12:00	13950	138	-60.0	-83.4	289	14	
2025-11-18T12:00	14000	137	-60.0	-83.4	283	13	
2025-11-18T12:00	14050	136	-60.3	-83.5	277	12	
2025-11-18T12:00	14100	135	-60.6	-83.6	269	12	
2025-11-18T12:00	14150	134	-60.9	-83.6	262	12	
2025-11-18T12:00	14200	133	-61.2	-83.7	260	13	
2025-11-18T12:00	14250	132	-61.5	-83.8	263	14	
2025-11-18T12:00	14300	131	-61.5	-83.9	269	15	
2025-11-18T12:00	14350	130	-61.5	-84.0	273	15	
2025-11-18T12:00	14400	129	-61.4	-84.1	273	15	
2025-11-18T12:00	14450	127	-60.8	-84.2	271	15	
2025-11-18T12:00	14500	126	-60.5	-84.2	270	15	
2025-11-18T12:00	14550	125	-61.0	-84.3	271	15	
2025-11-18T12:00	14600	124	-61.4	-84.3	271	16	
2025-11-18T12:00	14650	123	-61.8	-84.3	270	17	
2025-11-18T12:00	14700	122	-62.3	-84.3	269	17	
2025-11-18T12:00	14750	121	-62.7	-84.5	266	18	
2025-11-18T12:00	14800	120	-63.0	-84.6	263	19	
2025-11-18T12:00	14850	120	-63.2	-84.7	262	20	
2025-11-18T12:00	14900	119	-63.4	-85.0	265	20	
2025-11-18T12:00	14950	118	-63.2	-85.0	270	20	
2025-11-18T12:00	15000	117	-63.3	-85.1	274	19	
2025-11-18T12:00	15050	116	-63.3	-85.2	278	19	
2025-11-18T12:00	15100	115	-63.4	-85.1	281	18	
2025-11-18T12:00	15150	114	-63.9	-85.2	283	18	
2025-11-18T12:00	15200	113	-64.2	-85.3	286	18	
2025-11-18T12:00	15250	112	-64.2	-85.4	286	18	
2025-11-18T12:00	15300	111	-64.1	-85.4	283	18	
2025-11-18T12:00	15350	110	-64.1	-85.7	280	18	
2025-11-18T12:00	15400	109	-63.9	-85.6	277	18	
2025-11-18T12:00	15450	108	-63.8	-85.6	275	19	
2025-11-18T12:00	15500	107	-64.2	-85.6	275	19	
2025-11-18T12:00	15550	107	-64.6	-85.6	275	20	
2025-11-18T12:00	15600	106	-65.0	-85.7	276	20	
2025-11-18T12:00	15650	105	-65.5	-85.7	277	21	
2025-11-18T12:00	15700	104	-65.9	-85.9	278	21	
2025-11-18T12:00	15750	103	-65.9	-86.1	280	21	
2025-11-18T12:00	15800	102	-65.4	-86.2	283	21	
2025-11-18T12:00	15850	101	-64.6	-86.1	287	21	
2025-11-18T12:00	15900	101	-64.6	-86.3	288	21	
2025-11-18T12:00	15950	100	-64.5	-86.3	288	20	
2025-11-18T12:00	16000	99	-64.0	-86.3	290	20	
2025-11-18T12:00	16050	98	-63.4	-86.3	291	20	
2025-11-18T12:00	16100	97	-63.1	-86.2	290	20	
2025-11-18T12:00	16150	97	-63.0	-86.0	289	21	
2025-11-18T12:00	16200	96	-63.1	-86.0	287	22	
2025-11-18T12:00	16250	95	-63.2	-86.0	287	23	
2025-11-18T12:00	16300	94	-63.2	-86.1	288	23	
2025-11-18T12:00	16350	94	-63.0	-86.0	289	24	
2025-11-18T12:00	16400	93	-62.9	-86.2	290	24	
2025-11-18T12:00	16450	92	-62.5	-86.1	291	23	
2025-11-18T12:00	16500	91	-62.6	-86.1	292	22	
2025-11-18T12:00	16550	91	-62.8	-86.3	292	21	
2025-11-18T12:00	16600	90	-62.6	-86.2	290	21	
2025-11-18T12:00	16650	89	-62.4	-86.3	287	21	
2025-11-18T12:00	16700	88	-62.0	-86.4	287	21	
2025-11-18T12:00	16750	88	-61.3	-86.3	288	20	
2025-11-18T12:00	16800	87	-61.0	-86.3	289	19	
2025-11-18T12:00	16850	86	-61.1	-86.4	287	18	
2025-11-18T12:00	16900	86	-60.9	-86.3	283	17	
2025-11-18T12:00	16950	85	-60.7	-86.2	279	17	
2025-11-18T12:00	17000	84	-60.7	-86.3	274	17	
2025-11-18T12:00	17050	84	-60.7	-86.3	268	18	
2025-11-18T12:00	17100	83	-60.7	-86.3	265	18	
2025-11-18T12:00	17150	82	-60.7	-86.3	263	18	
2025-11-18T12:00	17200	82	-60.8	-86.3	261	18	
2025-11-18T12:00	17250	81	-60.9	-86.3	260	18	
2025-11-18T12:00	17300	80	-61.2	-86.3	260	17	
2025-11-18T12:00	17350	80	-61.6	-86.4	261	16	
2025-11-18T12:00	17400	79	-62.0	-86.5	263	15	
2025-11-18T12:00	17450	78	-62.2	-86.6	266	16	
2025-11-18T12:00	17500	78	-62.3	-86.7	269	16	
2025-11-18T12:00	17550	77	-62.4	-86.9	268	15	
2025-11-18T12:00	17600	76	-62.2	-86.9	263	14	
2025-11-18T12:00	17650	76	-62.0	-86.9	255	13	
2025-11-18T12:00	17700	75	-62.0	-86.8	249	13	
2025-11-18T12:00	17750	75	-62.3	-86.8	243	13	
2025-11-18T12:00	17800	74	-62.5	-86.8	237	13	
2025-11-18T12:00	17850	73	-62.7	-86.9	234	13	
2025-11-18T12:00	17900	73	-62.9	-87.0	233	14	
2025-11-18T12:00	17950	72	-63.3	-87.1	235	15	
2025-11-18T12:00	18000	72	-63.4	-87.1	238	16	
2025-11-18T12:00	18050	71	-63.7	-87.1	241	17	
2025-11-18T12:00	18100	70	-64.0	-87.3	245	17	
2025-11-18T12:00	18150	70	-64.2	-87.4	248	17	
2025-11-18T12:00	18200	69	-64.2	-87.4	251	17	
2025-11-18T12:00	18250	69	-64.2	-87.5	255	16	
2025-11-18T12:00	18300	68	-64.4	-87.6	260	16	
2025-11-18T12:00	18350	68	-64.3	-87.6	262	16	
2025-11-18T12:00	18400	67	-64.3	-87.7	262	15	
2025-11-18T12:00	18450	67	-64.1	-87.6	265	15	
2025-11-18T12:00	18500	66	-64.3	-87.6	268	15	
2025-11-18T12:00	18550	65	-64.6	-87.7	269	15	
2025-11-18T12:00	18600	65	-64.6	-87.6	264	15	
2025-11-18T12:00	18650	64	-64.9	-87.7	260	16	
2025-11-18T12:00	18700	64	-65.2	-87.7	257	16	
2025-11-18T12:00	18750	63	-65.4	-87.8	255	16	
2025-11-18T12:00	18800	63	-65.6	-88.0	255	17	
2025-11-18T12:00	18850	62	-65.5	-88.0	256	18	
2025-11-18T12:00	18900	62	-65.6	-88.0	258	19	
2025-11-18T12:00	18950	61	-65.7	-88.0	260	21	
2025-11-18T12:00	19000	61	-65.9	-88.1	263	22	
2025-11-18T12:00	19050	60	-66.1	-88.1	267	23	
2025-11-18T12:00	19100	60	-66.4	-88.3	271	23	
2025-11-18T12:00	19150	59	-66.4	-88.4	274	23	
2025-11-18T12:00	19200	59	-66.2	-88.4	277	22	
2025-11-18T12:00	19250	58	-66.3	-88.4	280	21	
2025-11-18T12:00	19300	58	-66.5	-88.4	281	19	
2025-11-18T12:00	19350	57	-66.9	-88.5	281	18	
2025-11-18T12:00	19400	57	-67.3	-88.7	279	17	
2025-11-18T12:00	19450	56	-67.5	-89.0	275	16	
2025-11-18T12:00	19500	56	-67.0	-88.9	270	17	
2025-11-18T12:00	19550	56	-66.7	-89.0	266	18	
2025-11-18T12:00	19600	55	-66.6	-89.1	264	18	
2025-11-18T12:00	19650	55	-66.1	-88.8	265	18	
2025-11-18T12:00	19700	54	-66.3	-88.8	265	19	
2025-11-18T12:00	19750	54	-66.5	-88.7	263	20	
2025-11-18T12:00	19800	53	-66.8	-88.7	260	20	
2025-11-18T12:00	19850	53	-67.0	-88.7	258	21	
2025-11-18T12:00	19900	52	-67.4	-88.8	257	21	
2025-11-18T12:00	19950	52	-67.6	-88.8	258	22	
2025-11-18T12:00	20000	52	-67.9	-88.8	259	22	
2025-11-18T12:00	20050	51	-68.0		261	21	
2025-11-18T12:00	20100	51	-67.9		262	21	
2025-11-18T12:00	20150	50	-67.9		263	21	
2025-11-18T12:00	20200	50	-67.8		264	22	
2025-11-18T12:00	20250	49	-67.8		264	22	
2025-11-18T12:00	20300	49	-67.9		262	21	
2025-11-18T12:00	20350	49	-67.5		262	21	
2025-11-18T12:00	20400	48	-67.3		263	21	
2025-11-18T12:00	20450	48	-67.2		266	22	
2025-11-18T12:00	20500	47	-67.1		268	23	
2025-11-18T12:00	20550	47	-67.0		270	23	
2025-11-18T12:00	20600	47	-67.3		270	23	
2025-11-18T12:00	20650	46	-67.3		268	22	
2025-11-18T12:00	20700	46	-67.0		264	21	
2025-11-18T12:00	20750	45	-67.1		261	21	
2025-11-18T12:00	20800	45	-66.5		258	20	
2025-11-18T12:00	20850	45	-66.3		257	19	
2025-11-18T12:00	20900	44	-66.3		255	18	
2025-11-18T12:00	20950	44	-66.1		252	17	
2025-11-18T12:00	21000	44	-66.0		248	17	
2025-11-18T12:00	21050	43	-65.4		244	17	
2025-11-18T12:00	21100	43	-64.9		242	18	
2025-11-18T12:00	21150	43	-65.0		242	18	
2025-11-18T12:00	21200	42	-65.2		244	19	
2025-11-18T12:00	21250	42	-65.4		247	20	
2025-11-18T12:00	21300	42	-65.3		249	21	
2025-11-18T12:00	21350	41	-65.2		251	22	
2025-11-18T12:00	21400	41	-65.1		252	22	
2025-11-18T12:00	21450	41	-65.1		254	21	
2025-11-18T12:00	21500	40	-65.4		255	21	
2025-11-18T12:00	21550	40	-65.6		254	20	
2025-11-18T12:00	21600	40	-65.8		252	21	
2025-11-18T12:00	21650	39	-65.7		250	22	
2025-11-18T12:00	21700	39	-65.5		249	23	
2025-11-18T12:00	21750	39	-65.4		249	25	
2025-11-18T12:00	21800	38	-65.5		250	25	
2025-11-18T12:00	21850	38	-65.3		253	26	
2025-11-18T12:00	21900	38	-65.2		257	26	
2025-11-18T12:00	21950	37	-65.2		260	25	
2025-11-18T12:00	22000	37	-65.2		261	25	
2025-11-18T12:00	22050	37	-65.5		259	24	
2025-11-18T12:00	22100	36	-65.8		257	23	
2025-11-18T12:00	22150	36	-65.8		258	22	
2025-11-18T12:00	22200	36	-65.8		261	22	
2025-11-18T12:00	22250	36	-65.7		264	23	
2025-11-18T12:00	22300	35	-66.0		267	23	
2025-11-18T12:00	22350	35	-66.4		269	23	
2025-11-18T12:00	22400	35	-66.7		272	23	
2025-11-18T12:00	22450	34	-66.6		273	23	
2025-11-18T12:00	22500	34	-66.7		274	22	
2025-11-18T12:00	22550	34	-66.8		273	22	
2025-11-18T12:00	22600	34	-67.1		272	21	
2025-11-18T12:00	22650	33	-67.3		271	21	
2025-11-18T12:00	22700	33	-67.3		270	20	
2025-11-18T12:00	22750	33	-67.3		270	20	
2025-11-18T12:00	22800	32	-67.5		271	20	
2025-11-18T12:00	22850	32	-67.7		271	20	
2025-11-18T12:00	22900	32	-67.9		270	20	
2025-11-18T12:00	22950	32	-68.0		269	20	
2025-11-18T12:00	23000	31	-68.2		267	19	
2025-11-18T12:00	23050	31	-68.5		263	18	
2025-11-18T12:00	23100	31	-68.7		259	17	
2025-11-18T12:00	23150	31	-68.8		255	17	
2025-11-18T12:00	23200	30	-69.0		252	16	
2025-11-18T12:00	23250	30	-69.2		250	17	
2025-11-18T12:00	23300	30	-68.9		250	17	
2025-11-18T12:00	23350	30	-68.4		253	18	
2025-11-18T12:00	23400	29	-68.4		257	19	
2025-11-18T12:00	23450	29	-68.3		259	20	
2025-11-18T12:00	23500	29	-68.0		259	20	
2025-11-18T12:00	23550	29	-68.2		257	21	
2025-11-18T12:00	23600	28	-68.3		255	21	
2025-11-18T12:00	23650	28	-68.4		253	21	
2025-11-18T12:00	23700	28	-68.6		252	21	
2025-11-18T12:00	23750	28	-68.3		253	21	
2025-11-18T12:00	23800	27	-68.4		255	22	
2025-11-18T12:00	23850	27	-68.7		257	22	
2025-11-18T12:00	23900	27	-69.0		257	22	
2025-11-18T12:00	23950	27	-69.1		255	23	
2025-11-18T12:00	24000	27	-69.1		252	23	
2025-11-18T12:00	24050	26	-69.1		248	24	
2025-11-18T12:00	24100	26	-69.3		246	25	
2025-11-18T12:00	24150	26	-69.4		245	26	
2025-11-18T12:00	24200	26	-69.3		246	27	
2025-11-18T12:00	24250	25	-69.2		248	28	
2025-11-18T12:00	24300	25	-69.3		250	28	
2025-11-18T12:00	24350	25	-69.4		252	28	
2025-11-18T12:00	24400	25	-69.8		252	28	
2025-11-18T12:00	24450	25	-69.3		252	28	
2025-11-18T12:00	24500	24	-68.8		252	28	
2025-11-18T12:00	24550	24	-68.4		251	28	
2025-11-18T12:00	24600	24	-68.0		251	29	
2025-11-18T12:00	24650	24	-67.9		250	31	
2025-11-18T12:00	24700	24	-67.7		248	32	
2025-11-18T12:00	24750	23	-67.4		248	33	
2025-11-18T12:00	24800	23	-67.5		248	34	
2025-11-18T12:00	24850	23	-67.2		248	33	
2025-11-18T12:00	24900	23	-67.4		248	32	
2025-11-18T12:00	24950	23	-67.7		249	31	
2025-11-18T12:00	25000	22	-67.7		249	29	
2025-11-18T12:00	25050	22	-67.9		247	29	
2025-11-18T12:00	25100	22	-68.1		245	28	
2025-11-18T12:00	25150	22	-68.2		245	29	
2025-11-18T12:00	25200	22	-68.0		247	31	
2025-11-18T12:00	25250	22	-67.6		250	31	
2025-11-18T12:00	25300	21	-67.5		253	32	
2025-11-18T12:00	25350	21	-67.6		256	32	
2025-11-18T12:00	25400	21	-67.8		258	32	
2025-11-18T12:00	25450	21	-67.9		260	32	
2025-11-18T12:00	25500	21	-68.0		259	31	
2025-11-18T12:00	25550	21	-68.0		258	30	
2025-11-18T12:00	25600	20	-68.3		256	29	
2025-11-18T12:00	25650	20	-68.4		255	28	
2025-11-18T12:00	25700	20	-68.3		255	28	
2025-11-18T12:00	25750	20	-68.3		256	28	
2025-11-18T12:00	25800	20	-68.5		255	28	
2025-11-18T12:00	25850	20	-68.6		254	28	
2025-11-18T12:00	25900	19	-68.5		253	27	
2025-11-18T12:00	25950	19	-68.5		253	27	
2025-11-18T12:00	26000	19	-68.6		253	27	
2025-11-18T12:00	26050	19	-68.6		253	27	
2025-11-18T12:00	26100	19	-68.7		251	27	
2025-11-18T12:00	26150	19	-68.8		249	28	
2025-11-18T12:00	26200	18	-68.9		248	28	
2025-11-18T12:00	26250	18	-68.9		248	27	
2025-11-18T12:00	26300	18	-69.0		249	26	
2025-11-18T12:00	26350	18	-69.4		249	26	
2025-11-18T12:00	26400	18	-69.7		248	26	
2025-11-18T12:00	26450	18	-69.7		247	27	
2025-11-18T12:00	26500	18	-69.5		246	28	
2025-11-18T12:00	26550	17	-69.6		246	29	
2025-11-18T12:00	26600	17	-69.8		246	29	
2025-11-18T12:00	26650	17	-69.8		247	30	
2025-11-18T12:00	26700	17	-69.8		247	31	
2025-11-18T12:00	26750	17	-70.1		248	31	
2025-11-18T12:00	26800	17	-70.1		249	32	
2025-11-18T12:00	26850	16	-70.0		251	32	
2025-11-18T12:00	26900	16	-70.0		252	32	
2025-11-18T12:00	26950	16	-70.3		253	31	
2025-11-18T12:00	27000	16	-70.4		253	30	
2025-11-18T12:00	27050	16	-70.7		253	28	
2025-11-18T12:00	27100	16	-70.8		253	28	
2025-11-18T12:00	27150	16	-70.6		252	27	
2025-11-18T12:00	27200	16	-71.0		250	28	
2025-11-18T12:00	27250	15	-71.2		248	29	
2025-11-18T12:00	27300	15	-71.2		246	31	
2025-11-18T12:00	27350	15	-70.9		245	33	
2025-11-18T12:00	27400	15	-70.5		246	35	
2025-11-18T12:00	27450	15	-70.4		247	37	
2025-11-18T12:00	27500	15	-70.5		249	37	
2025-11-18T12:00	27550	15	-70.6		248	38	
2025-11-18T12:00	27600	15	-70.3		247	38	
2025-11-18T12:00	27650	14	-69.8		246	39	
2025-11-18T12:00	27700	14	-69.5		244	39	
2025-11-18T12:00	27750	14	-69.4		243	39	
2025-11-18T12:00	27800	14	-69.3		241	39	
2025-11-18T12:00	27850	14	-69.2		240	38	
2025-11-18T12:00	27900	14	-69.2		241	38	
2025-11-18T12:00	27950	14	-69.4		243	38	
2025-11-18T12:00	28000	14	-69.5		246	39	
2025-11-18T12:00	28050	13	-69.5		248	40	
2025-11-18T12:00	28100	13	-69.5		251	40	
2025-11-18T12:00	28150	13	-69.5		253	40	
2025-11-18T12:00	28200	13	-69.4		254	41	
2025-11-18T12:00	28250	13	-68.8		254	43	
2025-11-18T12:00	28300	13	-68.3		254	44	
2025-11-18T12:00	28350	13	-67.7		256	45	
2025-11-18T12:00	28400	13	-67.0		258	44	
2025-11-18T12:00	28450	13	-66.7		260	44	
2025-11-18T12:00	28500	13	-66.5		262	44	
2025-11-18T12:00	28550	12	-66.3		263	44	
2025-11-18T12:00	28600	12	-66.1		262	44	
2025-11-18T12:00	28650	12	-65.9		261	45	
2025-11-18T12:00	28700	12	-65.6		260	45	
2025-11-18T12:00	28750	12	-65.1		260	44	
2025-11-18T12:00	28800	12	-64.9		259	43	
2025-11-18T12:00	28850	12	-64.6		259	43	
2025-11-18T12:00	28900	12	-64.3		258	43	
2025-11-18T12:00	28950	12	-64.2		257	44	
2025-11-18T12:00	29000	12	-64.1		255	45	
2025-11-18T12:00	29050	11	-64.1		253	46	
2025-11-18T12:00	29100	11	-64.1		253	47	
2025-11-18T12:00	29150	11	-63.7		253	49	
2025-11-18T12:00	29200	11	-63.1		253	50	
2025-11-18T12:00	29250	11	-62.4		254	51	
2025-11-18T12:00	29300	11	-62.0		255	51	
2025-11-18T12:00	29350	11	-61.6		257	52	
2025-11-18T12:00	29400	11	-61.2		259	52	
2025-11-18T12:00	29450	11	-61.2		262	52	
2025-11-18T12:00	29500	11	-61.2		264	52	
2025-11-18T12:00	29550	11	-61.4		266	52	
2025-11-18T12:00	29600	10	-61.6		267	51	
2025-11-18T12:00	29650	10	-61.5		267	50	
2025-11-18T12:00	29700	10	-61.0		265	49	
2025-11-18T12:00	29750	10	-60.6		263	49	
2025-11-18T12:00	29800	10	-60.4		261	50	
2025-11-18T12:00	29850	10	-60.0		259	50	
2025-11-18T12:00	29900	10	-59.4		259	51	
2025-11-18T12:00	29950	10	-58.9		259	51	
2025-11-18T12:00	30000	10	-58.8		259	50	
2025-11-18T12:00	30050	10	-58.6		259	50	
2025-11-18T12:00	30100	10	-58.7		259	50	
2025-11-18T12:00	30150	10	-58.7		259	50	
2025-11-18T12:00	30200	10	-58.6		260	50	
2025-11-18T12:00	30250	9	-58.5		261	50	
2025-11-18T12:00	30300	9	-58.7		262	50	
2025-11-18T12:00	30350	9	-58.9		263	50	
2025-11-18T12:00	30400	9	-59.1		263	50	
2025-11-18T12:00	30450	9	-59.0		263	50	
2025-11-18T12:00	30500	9	-58.9		262	51	
2025-11-18T12:00	30550	9	-58.7		262	51	
2025-11-18T12:00	30600	9	-58.6		261	51	
2025-11-18T12:00	30650	9	-58.2		261	51	
2025-11-18T12:00	30700	9	-57.8		260	51	
2025-11-18T12:00	30750	9	-57.6		260	50	
2025-11-18T12:00	30800	9	-57.5		261	49	
2025-11-18T12:00	30850	9	-57.3		261	48	
2025-11-18T12:00	30900	8	-57.3		262	47	
2025-11-18T12:00	30950	8	-57.5		262	46	
2025-11-18T12:00	31000	8	-57.7		262	46	
2025-11-18T12:00	31050	8	-57.8		261	46	
2025-11-18T12:00	31100	8	-57.9		261	46	
2025-11-18T12:00	31150	8	-58.0		260	47	
2025-11-18T12:00	31200	8	-58.1		260	47	
2025-11-18T12:00	31250	8	-58.3		260	48	
2025-11-18T12:00	31300	8	-58.4		259	49	
2025-11-18T12:00	31350	8	-58.1		258	51	
2025-11-18T12:00	31400	8	-57.6		258	53	
2025-11-18T12:00	31450	8	-56.8		259	54	
2025-11-18T12:00	31500	8	-56.1		259	54	
2025-11-18T12:00	31550	8	-55.6		260	54	
2025-11-18T12:00	31600	8	-55.5		260	53	
2025-11-18T12:00	31650	8	-55.1		260	52	
2025-11-18T12:00	31700	7	-54.2		260	52	
2025-11-18T12:00	31750	7	-53.5		261	53	
2025-11-18T12:00	31800	7	-53.0		262	55	
2025-11-18T12:00	31850	7	-52.4		262	59	
2025-11-18T12:00	31900	7	-51.9		261	63	
2025-11-18T12:00	31950	7	-51.4		260	65	
2025-11-18T12:00	32000	7	-50.4		260	65	
2025-11-18T12:00	32050	7	-50.1		260	63	
2025-11-18T12:00	32100	7	-50.0		259	61	
2025-11-18T12:00	32150	7	-49.7		259	59	
2025-11-18T12:00	32200	7	-49.3		259	59	
2025-11-18T12:00	32250	7	-48.8		259	59	
2025-11-18T12:00	32300	7	-48.0		258	61	
2025-11-18T12:00	32350	7	-47.1		258	63	
2025-11-18T12:00	32400	7	-46.4		258	64	
2025-11-18T12:00	32450	7	-45.9		257	64	
2025-11-18T12:00	32500	7	-45.8		257	63	
2025-11-18T12:00	32550	7	-46.1		257	61	
2025-11-18T12:00	32600	7	-46.4		256	61	
2025-11-18T12:00	32650	6	-46.4		255	61	
2025-11-18T12:00	32700	6	-46.0		255	61	
2025-11-18T12:00	32750	6	-45.7		255	62	
2025-11-18T12:00	32800	6	-45.5		255	63	
2025-11-18T12:00	32850	6	-45.2		255	63	
2025-11-18T12:00	32900	6	-45.1		256	64	
2025-11-18T12:00	32950	6	-45.1		256	64	
2025-11-18T12:00	33000	6	-45.2		256	65	
2025-11-18T12:00	33050	6	-45.3		256	65	
2025-11-18T12:00	33100	6	-45.2		256	65	
2025-11-18T12:00	33150	6	-45.1		257	66	
2025-11-18T12:00	33200	6	-45.2		257	66	
2025-11-18T12:00	33250	6	-45.4		257	66	
2025-11-18T12:00	33300	6	-45.6		257	67	
2025-11-18T12:00	33350	6	-45.8		257	68	
2025-11-18T12:00	33400	6	-46.0		258	69	
2025-11-18T12:00	33450	6	-46.0		258	69	
2025-11-18T12:00	33500	6	-45.9		259	70	
2025-11-18T12:00	33550	6	-45.8		260	71	
2025-11-18T12:00	33600	6	-45.9		260	72	
2025-11-18T12:00	33650	6	-46.0		261	72	
2025-11-18T12:00	33700	6	-46.2		261	73	
2025-11-18T12:00	33750	5	-46.3		261	73	
2025-11-18T12:00	33800	5	-46.5		260	73	
2025-11-18T12:00	33850	5	-46.7		260	74	
2025-11-18T12:00	33900	5	-46.9		260	74	
2025-11-18T12:00	33950	5	-47.0		260	74	
2025-11-18T12:00	34000	5	-47.1		260	75	
2025-11-18T12:00	34050	5	-47.2		260	76	
2025-11-18T12:00	34100	5	-47.2		260	77	
2025-11-18T12:00	34150	5	-47.1		261	77	
2025-11-18T12:00	34200	5	-46.9		262	77	
2025-11-18T12:00	34250	5	-46.7		263	78	
2025-11-18T12:00	34300	5	-46.2		264	79	
2025-11-18T12:00	34350	5	-45.1		264	81	
2025-11-18T12:00	34400	5	-42.8		264	82	
2025-11-18T12:00	34450	5	-39.8		267	80	
2025-11-18T12:00	34500	5	-38.5		267	78	
2025-11-18T12:00	34550	5	-37.2		268	77	
2025-11-18T12:00	34600	5	-36.6		268	78	
2025-11-18T12:00	34650	5	-35.5		266	79	
2025-11-18T12:00	34700	5	-34.4		265	79	
2025-11-18T12:00	34750	5	-34.1		264	80	
2025-11-18T12:00	34800	5	-34.0		262	81	
2025-11-18T12:00	34850	5	-33.7		262	82	
2025-11-18T12:00	34900	5	-33.4		262	82	
2025-11-18T12:00	34950	5	-33.3		262	83	
2025-11-18T12:00	35000	5	-33.4		262	84	
2025-11-18T12:00	35050	5	-33.4		263	84	
2025-11-18T12:00	35100	4	-33.4		263	85	
2025-11-18T12:00	35150	4	-33.2		264	85	
2025-11-18T12:00	35200	4	-32.9		264	86	
2025-11-18T12:00	35250	4	-32.8		265	86	
2025-11-19T00:00	491	959	-0.9	-1.3	155	0	
2025-11-19T00:00	520	956	0.1	-1.4	180	1	
2025-11-19T00:00	540	953	1.6	-1.3	182	2	
2025-11-19T00:00	560	951	1.7	-1.4	184	2	
2025-11-19T00:00	580	949	1.6	-1.5	190	2	
2025-11-19T00:00	600	946	1.7	-1.9	202	3	
2025-11-19T00:00	620	944	1.7	-2.1	215	3	
2025-11-19T00:00	640	942	1.6	-2.2	225	3	
2025-11-19T00:00	660	939	1.5	-2.2	234	4	
2025-11-19T00:00	680	937	1.5	-2.1	242	4	
2025-11-19T00:00	700	934	1.4	-2.0	247	5	
2025-11-19T00:00	720	932	1.3	-1.9	249	5	
2025-11-19T00:00	740	930	1.2	-1.8	251	6	
2025-11-19T00:00	760	928	1.1	-1.8	251	6	
2025-11-19T00:00	780	925	0.9	-1.7	250	6	
2025-11-19T00:00	800	923	0.7	-1.5	247	7	
2025-11-19T00:00	820	921	0.5	-1.4	244	7	
2025-11-19T00:00	840	918	0.3	-1.4	241	7	
2025-11-19T00:00	860	916	0.2	-1.5	237	7	
2025-11-19T00:00	880	914	0.1	-1.5	234	6	
2025-11-19T00:00	900	911	0.0	-1.9	232	6	
2025-11-19T00:00	920	909	-0.1	-2.1	230	6	
2025-11-19T00:00	940	907	-0.3	-2.2	229	6	
2025-11-19T00:00	960	904	-0.5	-2.4	228	6	
2025-11-19T00:00	980	902	-0.7	-2.4	228	6	
2025-11-19T00:00	1000	900	-0.9	-2.5	228	6	
2025-11-19T00:00	1020	898	-1.1	-2.6	227	6	
2025-11-19T00:00	1040	895	-1.2	-2.7	227	6	
2025-11-19T00:00	1060	893	-1.4	-2.8	226	7	
2025-11-19T00:00	1080	891	-1.6	-2.9	226	7	
2025-11-19T00:00	1100	889	-1.8	-2.9	225	7	
2025-11-19T00:00	1120	887	-2.0	-2.9	224	7	
2025-11-19T00:00	1140	885	-2.2	-3.0	223	7	
2025-11-19T00:00	1160	882	-2.4	-3.0	223	7	
2025-11-19T00:00	1180	880	-2.6	-3.0	223	7	
2025-11-19T00:00	1200	878	-2.8	-3.2	223	6	
2025-11-19T00:00	1220	876	-3.0	-3.2	224	6	
2025-11-19T00:00	1240	873	-3.2	-3.4	226	6	
2025-11-19T00:00	1260	871	-3.4	-3.5	229	6	
2025-11-19T00:00	1280	869	-3.5	-3.5	233	6	
2025-11-19T00:00	1300	867	-3.7	-3.7	239	6	
2025-11-19T00:00	1320	865	-4.0	-4.0	244	6	
2025-11-19T00:00	1340	862	-4.2	-4.2	245	7	
2025-11-19T00:00	1360	860	-4.3	-4.4	247	7	
2025-11-19T00:00	1380	858	-4.5	-4.5	249	7	
2025-11-19T00:00	1400	856	-4.6	-4.8	252	7	
2025-11-19T00:00	1420	854	-4.8	-6.0	256	7	
2025-11-19T00:00	1440	852	-4.8	-7.0	260	6	
2025-11-19T00:00	1460	849	-4.2	-10.5	264	6	
2025-11-19T00:00	1480	847	-3.5	-19.2	267	6	
2025-11-19T00:00	1500	845	-3.4	-23.5	269	6	
2025-11-19T00:00	1520	843	-3.3	-25.4	269	7	
2025-11-19T00:00	1540	841	-3.0	-26.8	270	7	
2025-11-19T00:00	1560	839	-3.1	-27.5	271	7	
2025-11-19T00:00	1580	837	-3.1	-28.3	272	7	
2025-11-19T00:00	1600	835	-3.2	-29.2	273	7	
2025-11-19T00:00	1620	832	-3.4	-30.1	275	8	
2025-11-19T00:00	1640	830	-3.5	-30.2	275	8	
2025-11-19T00:00	1660	828	-3.7	-30.4	275	8	
2025-11-19T00:00	1680	826	-3.8	-30.4	273	8	
2025-11-19T00:00	1700	824	-4.0	-30.2	270	8	
2025-11-19T00:00	1720	822	-4.1	-30.0	266	8	
2025-11-19T00:00	1740	820	-4.2	-30.6	262	9	
2025-11-19T00:00	1760	818	-4.0	-32.6	259	9	
2025-11-19T00:00	1780	816	-3.8	-35.2	256	9	
2025-11-19T00:00	1800	814	-3.4	-36.5	254	10	
2025-11-19T00:00	1820	812	-3.2	-36.6	252	10	
2025-11-19T00:00	1840	810	-3.2	-36.3	250	10	
2025-11-19T00:00	1860	808	-3.3	-36.1	248	10	
2025-11-19T00:00	1880	806	-3.4	-35.7	246	10	
2025-11-19T00:00	1900	803	-3.5	-35.5	243	10	
2025-11-19T00:00	1920	801	-3.5	-35.9	241	10	
2025-11-19T00:00	1940	799	-3.7	-36.6	239	11	
2025-11-19T00:00	1960	797	-3.7	-35.6	238	11	
2025-11-19T00:00	1980	795	-3.4	-32.5	237	12	
2025-11-19T00:00	2000	793	-3.5	-32.1	236	12	
2025-11-19T00:00	2020	791	-3.5	-30.9	236	12	
2025-11-19T00:00	2040	789	-3.6	-30.2	236	12	
2025-11-19T00:00	2060	787	-3.7	-29.8	236	12	
2025-11-19T00:00	2080	785	-3.9	-29.7	236	12	
2025-11-19T00:00	2100	783	-4.1	-29.3	236	11	
2025-11-19T00:00	2120	781	-4.3	-29.0	238	11	
2025-11-19T00:00	2140	779	-4.5	-28.4	239	11	
2025-11-19T00:00	2160	777	-4.7	-28.1	242	10	
2025-11-19T00:00	2180	775	-4.9	-28.0	246	10	
2025-11-19T00:00	2200	773	-5.0	-28.7	249	10	
2025-11-19T00:00	2220	771	-4.7	-33.5	252	10	
2025-11-19T00:00	2240	769	-4.6	-36.4	253	10	
2025-11-19T00:00	2260	767	-4.7	-37.8	252	10	
2025-11-19T00:00	2280	765	-4.9	-38.6	251	10	
2025-11-19T00:00	2300	764	-4.9	-39.0	249	10	
2025-11-19T00:00	2320	762	-5.0	-38.8	246	10	
2025-11-19T00:00	2340	760	-5.0	-38.4	244	10	
2025-11-19T00:00	2360	758	-5.0	-38.0	242	11	
2025-11-19T00:00	2380	756	-4.8	-38.9	241	11	
2025-11-19T00:00	2400	754	-4.6	-40.8	241	11	
2025-11-19T00:00	2420	752	-4.5	-32.7	241	11	
2025-11-19T00:00	2440	750	-4.7	-24.0	242	11	
2025-11-19T00:00	2460	748	-4.9	-23.8	243	12	
2025-11-19T00:00	2480	746	-5.1	-23.1	243	12	
2025-11-19T00:00	2500	744	-5.3	-21.6	244	13	
2025-11-19T00:00	2520	742	-5.4	-20.9	244	13	
2025-11-19T00:00	2540	740	-5.5	-20.8	244	13	
2025-11-19T00:00	2560	739	-5.6	-20.9	245	14	
2025-11-19T00:00	2580	737	-5.7	-21.0	245	14	
2025-11-19T00:00	2600	735	-5.8	-21.2	247	14	
2025-11-19T00:00	2620	733	-5.9	-21.7	248	14	
2025-11-19T00:00	2640	731	-6.1	-22.4	250	14	
2025-11-19T00:00	2660	729	-6.2	-22.9	252	14	
2025-11-19T00:00	2680	727	-6.3	-24.7	254	14	
2025-11-19T00:00	2700	725	-6.4	-26.5	256	14	
2025-11-19T00:00	2720	724	-6.5	-27.7	256	14	
2025-11-19T00:00	2740	722	-6.5	-28.5	256	14	
2025-11-19T00:00	2760	720	-6.6	-28.3	256	15	
2025-11-19T00:00	2780	718	-6.6	-28.1	256	14	
2025-11-19T00:00	2800	716	-6.7	-28.2	255	14	
2025-11-19T00:00	2820	715	-6.7	-28.3	254	14	
2025-11-19T00:00	2840	713	-6.9	-28.3	253	14	
2025-11-19T00:00	2860	711	-7.0	-28.2	253	13	
2025-11-19T00:00	2880	709	-7.1	-28.3	252	13	
2025-11-19T00:00	2900	707	-7.3	-28.7	253	13	
2025-11-19T00:00	2920	706	-7.4	-28.7	253	13	
2025-11-19T00:00	2940	704	-7.5	-27.7	254	13	
2025-11-19T00:00	2960	702	-7.6	-25.9	254	13	
2025-11-19T00:00	2980	700	-7.7	-24.6	255	14	
2025-11-19T00:00	3000	698	-7.6	-26.9	256	14	
2025-11-19T00:00	3020	696	-7.6	-29.0	257	14	
2025-11-19T00:00	3040	695	-7.7	-25.9	257	14	
2025-11-19T00:00	3060	693	-7.8	-25.2	259	14	
2025-11-19T00:00	3080	691	-7.9	-27.4	260	14	
2025-11-19T00:00	3100	689	-7.9	-27.8	262	14	
2025-11-19T00:00	3120	687	-8.0	-24.6	263	14	
2025-11-19T00:00	3140	685	-8.2	-23.7	265	15	
2025-11-19T00:00	3160	684	-8.4	-23.5	267	15	
2025-11-19T00:00	3180	682	-8.5	-23.0	268	15	
2025-11-19T00:00	3200	680	-8.6	-23.0	268	15	
2025-11-19T00:00	3220	679	-8.6	-23.4	268	15	
2025-11-19T00:00	3240	677	-8.6	-24.3	268	15	
2025-11-19T00:00	3260	675	-8.7	-24.9	268	15	
2025-11-19T00:00	3280	673	-8.8	-25.4	267	15	
2025-11-19T00:00	3300	672	-8.9	-26.2	267	15	
2025-11-19T00:00	3320	670	-9.1	-26.7	268	16	
2025-11-19T00:00	3340	668	-9.2	-27.1	269	16	
2025-11-19T00:00	3360	666	-9.3	-26.9	270	16	
2025-11-19T00:00	3380	665	-9.3	-26.5	272	16	
2025-11-19T00:00	3400	663	-9.4	-26.9	273	16	
2025-11-19T00:00	3420	661	-9.4	-30.8	275	16	
2025-11-19T00:00	3440	659	-9.4	-27.2	277	16	
2025-11-19T00:00	3460	658	-9.5	-26.5	278	16	
2025-11-19T00:00	3480	656	-9.6	-26.5	279	16	
2025-11-19T00:00	3500	655	-9.8	-26.5	280	16	
2025-11-19T00:00	3520	653	-10.0	-26.6	280	16	
2025-11-19T00:00	3540	651	-10.1	-26.6	280	16	
2025-11-19T00:00	3560	650	-10.3	-26.3	280	17	
2025-11-19T00:00	3580	648	-10.4	-26.2	280	17	
2025-11-19T00:00	3600	646	-10.5	-26.2	279	17	
2025-11-19T00:00	3620	644	-10.6	-26.1	278	17	
2025-11-19T00:00	3640	643	-10.7	-26.4	278	17	
2025-11-19T00:00	3660	641	-10.7	-26.9	277	17	
2025-11-19T00:00	3680	639	-10.8	-27.1	275	17	
2025-11-19T00:00	3700	638	-10.8	-28.7	274	17	
2025-11-19T00:00	3720	636	-10.8	-32.9	274	17	
2025-11-19T00:00	3740	634	-10.9	-34.6	274	17	
2025-11-19T00:00	3760	633	-11.0	-33.3	274	17	
2025-11-19T00:00	3780	631	-11.2	-32.1	276	17	
2025-11-19T00:00	3800	629	-11.2	-33.2	277	18	
2025-11-19T00:00	3820	628	-11.3	-31.6	279	18	
2025-11-19T00:00	3840	626	-11.5	-30.6	282	18	
2025-11-19T00:00	3860	624	-11.7	-30.2	283	18	
2025-11-19T00:00	3880	623	-11.8	-29.9	283	18	
2025-11-19T00:00	3900	621	-11.9	-30.2	283	18	
2025-11-19T00:00	3920	620	-12.0	-31.2	283	18	
2025-11-19T00:00	3940	618	-12.2	-31.7	282	18	
2025-11-19T00:00	3960	616	-12.3	-32.5	281	19	
2025-11-19T00:00	3980	615	-12.4	-32.5	280	19	
2025-11-19T00:00	4000	613	-12.5	-32.0	280	19	
2025-11-19T00:00	4020	612	-12.6	-31.7	279	19	
2025-11-19T00:00	4040	610	-12.8	-31.0	278	19	
2025-11-19T00:00	4060	608	-12.9	-31.0	278	19	
2025-11-19T00:00	4080	607	-13.1	-31.5	278	18	
2025-11-19T00:00	4100	605	-13.2	-32.2	279	18	
2025-11-19T00:00	4120	604	-13.3	-32.2	279	18	
2025-11-19T00:00	4140	602	-13.3	-30.8	279	18	
2025-11-19T00:00	4160	600	-13.5	-31.0	279	18	
2025-11-19T00:00	4180	599	-13.6	-31.1	279	18	
2025-11-19T00:00	4200	597	-13.8	-30.9	280	18	
2025-11-19T00:00	4220	596	-14.0	-30.7	280	18	
2025-11-19T00:00	4240	594	-14.1	-30.2	281	18	
2025-11-19T00:00	4260	593	-14.3	-30.1	282	18	
2025-11-19T00:00	4280	591	-14.4	-32.4	282	18	
2025-11-19T00:00	4300	589	-14.4	-34.8	282	18	
2025-11-19T00:00	4320	588	-14.6	-35.7	281	18	
2025-11-19T00:00	4340	586	-14.7	-35.5	280	18	
2025-11-19T00:00	4360	585	-14.8	-34.8	279	18	
2025-11-19T00:00	4380	583	-15.0	-35.2	278	18	
2025-11-19T00:00	4400	582	-15.1	-34.3	278	18	
2025-11-19T00:00	4420	580	-15.3	-32.4	279	18	
2025-11-19T00:00	4440	579	-15.4	-31.8	281	18	
2025-11-19T00:00	4460	577	-15.5	-33.6	283	18	
2025-11-19T00:00	4480	576	-15.5	-34.5	284	18	
2025-11-19T00:00	4500	574	-15.6	-31.9	285	19	
2025-11-19T00:00	4520	573	-15.7	-30.7	287	19	
2025-11-19T00:00	4540	571	-15.8	-31.0	288	19	
2025-11-19T00:00	4560	569	-15.9	-32.0	288	20	
2025-11-19T00:00	4580	568	-15.9	-34.6	287	19	
2025-11-19T00:00	4600	567	-15.9	-34.6	287	19	
2025-11-19T00:00	4620	565	-16.0	-30.3	286	19	
2025-11-19T00:00	4640	564	-16.1	-28.4	284	19	
2025-11-19T00:00	4660	562	-16.2	-28.6	284	19	
2025-11-19T00:00	4680	561	-16.4	-28.5	283	19	
2025-11-19T00:00	4700	559	-16.5	-28.3	283	19	
2025-11-19T00:00	4720	558	-16.7	-28.4	283	20	
2025-11-19T00:00	4740	556	-16.9	-28.5	283	20	
2025-11-19T00:00	4760	555	-17.1	-28.4	283	20	
2025-11-19T00:00	4780	553	-17.3	-28.4	282	20	
2025-11-19T00:00	4800	552	-17.4	-28.6	282	21	
2025-11-19T00:00	4820	550	-17.6	-28.7	281	21	
2025-11-19T00:00	4840	549	-17.8	-28.9	280	21	
2025-11-19T00:00	4860	547	-18.0	-29.5	280	21	
2025-11-19T00:00	4880	546	-18.1	-29.8	280	20	
2025-11-19T00:00	4900	544	-18.2	-30.1	280	20	
2025-11-19T00:00	4920	543	-18.3	-30.6	281	20	
2025-11-19T00:00	4940	541	-18.5	-30.3	282	19	
2025-11-19T00:00	4960	540	-18.7	-30.2	283	19	
2025-11-19T00:00	4980	539	-18.8	-30.8	283	20	
2025-11-19T00:00	5000	537	-18.9	-30.8	284	20	
2025-11-19T00:00	5020	536	-19.1	-31.1	284	20	
2025-11-19T00:00	5040	534	-19.3	-31.8	283	21	
2025-11-19T00:00	5060	533	-19.4	-32.2	283	21	
2025-11-19T00:00	5080	532	-19.5	-32.3	283	21	
2025-11-19T00:00	5100	530	-19.7	-32.2	283	21	
2025-11-19T00:00	5120	528	-19.9	-32.3	282	21	
2025-11-19T00:00	5140	527	-20.1	-32.4	282	21	
2025-11-19T00:00	5160	526	-20.3	-32.3	282	21	
2025-11-19T00:00	5180	524	-20.4	-32.3	282	21	
2025-11-19T00:00	5200	523	-20.6	-32.5	281	21	
2025-11-19T00:00	5220	521	-20.7	-32.7	281	20	
2025-11-19T00:00	5240	520	-20.9	-32.7	280	20	
2025-11-19T00:00	5260	518	-21.0	-32.7	280	20	
2025-11-19T00:00	5280	517	-21.2	-32.4	279	19	
2025-11-19T00:00	5300	516	-21.4	-32.4	278	19	
2025-11-19T00:00	5320	514	-21.5	-32.4	278	19	
2025-11-19T00:00	5340	513	-21.7	-31.8	278	19	
2025-11-19T00:00	5360	511	-21.9	-31.6	278	20	
2025-11-19T00:00	5380	510	-22.0	-31.3	278	20	
2025-11-19T00:00	5400	509	-22.2	-31.0	278	20	
2025-11-19T00:00	5420	507	-22.4	-31.6	279	19	
2025-11-19T00:00	5440	506	-22.5	-31.8	280	19	
2025-11-19T00:00	5460	505	-22.7	-32.1	280	19	
2025-11-19T00:00	5480	503	-22.9	-33.2	281	19	
2025-11-19T00:00	5500	502	-23.0	-33.7	281	18	
2025-11-19T00:00	5520	501	-23.2	-34.1	281	18	
2025-11-19T00:00	5540	499	-23.4	-34.7	280	18	
2025-11-19T00:00	5560	498	-23.5	-35.7	280	18	
2025-11-19T00:00	5580	497	-23.5	-37.6	280	19	
2025-11-19T00:00	5600	495	-23.6	-38.9	280	19	
2025-11-19T00:00	5620	494	-23.6	-39.7	281	19	
2025-11-19T00:00	5640	492	-23.7	-40.3	282	18	
2025-11-19T00:00	5660	491	-23.9	-40.4	283	18	
2025-11-19T00:00	5680	490	-24.0	-40.7	284	18	
2025-11-19T00:00	5700	488	-24.1	-41.6	285	18	
2025-11-19T00:00	5720	487	-24.1	-42.0	286	18	
2025-11-19T00:00	5740	486	-24.2	-43.0	287	18	
2025-11-19T00:00	5760	484	-24.3	-43.7	287	18	
2025-11-19T00:00	5780	483	-24.4	-43.5	287	17	
2025-11-19T00:00	5800	482	-24.6	-43.5	287	17	
2025-11-19T00:00	5820	480	-24.7	-44.0	288	17	
2025-11-19T00:00	5840	479	-24.9	-43.3	288	17	
2025-11-19T00:00	5860	478	-25.0	-42.0	288	17	
2025-11-19T00:00	5880	476	-25.2	-41.8	288	16	
2025-11-19T00:00	5900	475	-25.4	-41.2	288	16	
2025-11-19T00:00	5920	474	-25.6	-40.7	287	17	
2025-11-19T00:00	5940	473	-25.8	-40.8	286	17	
2025-11-19T00:00	5960	471	-26.0	-40.8	286	17	
2025-11-19T00:00	5980	470	-26.2	-40.2	285	17	
2025-11-19T00:00	6000	469	-26.3	-40.2	285	17	
2025-11-19T00:00	6020	467	-26.5	-40.3	285	17	
2025-11-19T00:00	6040	466	-26.7	-40.6	286	18	
2025-11-19T00:00	6060	465	-26.9	-40.5	287	18	
2025-11-19T00:00	6080	463	-27.1	-39.9	288	18	
2025-11-19T00:00	6100	462	-27.3	-40.0	289	18	
2025-11-19T00:00	6120	461	-27.4	-40.8	290	18	
2025-11-19T00:00	6140	460	-27.5	-40.5	290	18	
2025-11-19T00:00	6160	458	-27.7	-41.1	290	18	
2025-11-19T00:00	6180	457	-27.8	-43.3	290	19	
2025-11-19T00:00	6200	456	-28.0	-42.6	290	19	
2025-11-19T00:00	6220	455	-28.0	-44.6	290	19	
2025-11-19T00:00	6240	453	-28.2	-46.2	290	19	
2025-11-19T00:00	6260	452	-28.3	-47.1	290	19	
2025-11-19T00:00	6280	451	-28.4	-45.1	290	19	
2025-11-19T00:00	6300	449	-28.6	-43.5	289	19	
2025-11-19T00:00	6320	448	-28.8	-44.6	289	19	
2025-11-19T00:00	6340	447	-28.9	-46.3	288	19	
2025-11-19T00:00	6360	446	-29.1	-45.5	288	19	
2025-11-19T00:00	6380	444	-29.3	-44.9	287	19	
2025-11-19T00:00	6400	443	-29.4	-44.7	287	19	
2025-11-19T00:00	6420	442	-29.6	-44.2	287	19	
2025-11-19T00:00	6440	441	-29.7	-46.6	286	19	
2025-11-19T00:00	6460	439	-29.9	-46.7	285	19	
2025-11-19T00:00	6480	438	-30.0	-46.1	285	19	
2025-11-19T00:00	6500	437	-30.2	-43.8	283	19	
2025-11-19T00:00	6520	436	-30.4	-45.3	282	19	
2025-11-19T00:00	6540	435	-30.6	-45.9	282	19	
2025-11-19T00:00	6560	433	-30.8	-46.1	282	19	
2025-11-19T00:00	6580	432	-30.9	-45.1	282	19	
2025-11-19T00:00	6600	431	-31.1	-45.5	282	19	
2025-11-19T00:00	6620	430	-31.3	-44.9	282	19	
2025-11-19T00:00	6640	429	-31.5	-45.4	281	19	
2025-11-19T00:00	6660	427	-31.6	-46.5	281	19	
2025-11-19T00:00	6680	426	-31.8	-45.3	281	20	
2025-11-19T00:00	6700	425	-31.9	-46.0	281	20	
2025-11-19T00:00	6720	424	-32.0	-50.4	282	20	
2025-11-19T00:00	6740	423	-32.2	-50.9	282	20	
2025-11-19T00:00	6760	421	-32.3	-50.9	283	21	
2025-11-19T00:00	6780	420	-32.5	-50.9	283	21	
2025-11-19T00:00	6800	419	-32.6	-50.9	284	21	
2025-11-19T00:00	6820	418	-32.8	-51.2	284	21	
2025-11-19T00:00	6840	416	-32.9	-51.1	284	21	
2025-11-19T00:00	6860	415	-33.1	-51.1	283	21	
2025-11-19T00:00	6880	414	-33.3	-51.2	283	21	
2025-11-19T00:00	6900	413	-33.4	-51.2	283	21	
2025-11-19T00:00	6920	412	-33.6	-51.2	283	21	
2025-11-19T00:00	6940	411	-33.8	-50.9	282	21	
2025-11-19T00:00	6960	409	-33.9	-50.9	281	20	
2025-11-19T00:00	6980	408	-34.1	-51.0	280	20	
2025-11-19T00:00	7000	407	-34.3	-51.1	280	20	
2025-11-19T00:00	7020	406	-34.5	-50.9	279	20	
2025-11-19T00:00	7040	405	-34.6	-48.0	279	20	
2025-11-19T00:00	7060	404	-34.7	-39.5	279	20	
2025-11-19T00:00	7080	402	-34.8	-39.7	279	20	
2025-11-19T00:00	7100	401	-35.0	-41.2	280	20	
2025-11-19T00:00	7120	400	-35.2	-40.0	280	20	
2025-11-19T00:00	7140	399	-35.4	-39.7	281	20	
2025-11-19T00:00	7160	398	-35.5	-40.2	281	21	
2025-11-19T00:00	7180	397	-35.7	-40.3	282	21	
2025-11-19T00:00	7200	396	-35.9	-40.2	283	21	
2025-11-19T00:00	7220	395	-36.0	-40.2	283	21	
2025-11-19T00:00	7240	393	-36.2	-40.5	284	21	
2025-11-19T00:00	7260	392	-36.4	-40.9	284	21	
2025-11-19T00:00	7280	391	-36.5	-41.3	285	22	
2025-11-19T00:00	7300	390	-36.6	-41.6	285	22	
2025-11-19T00:00	7320	389	-36.7	-41.5	285	22	
2025-11-19T00:00	7340	388	-36.9	-41.5	285	22	
2025-11-19T00:00	7360	387	-37.1	-41.8	285	22	
2025-11-19T00:00	7380	385	-37.3	-41.8	285	22	
2025-11-19T00:00	7400	384	-37.5	-41.4	285	22	
2025-11-19T00:00	7420	383	-37.6	-43.2	285	22	
2025-11-19T00:00	7440	382	-37.6	-47.1	286	22	
2025-11-19T00:00	7460	381	-37.6	-47.8	286	22	
2025-11-19T00:00	7480	380	-37.8	-46.2	287	22	
2025-11-19T00:00	7500	379	-37.9	-47.4	287	22	
2025-11-19T00:00	7520	378	-38.0	-47.4	288	23	
2025-11-19T00:00	7540	377	-38.2	-47.5	288	23	
2025-11-19T00:00	7560	375	-38.3	-48.2	288	23	
2025-11-19T00:00	7580	374	-38.5	-49.0	289	24	
2025-11-19T00:00	7600	373	-38.7	-48.6	289	24	
2025-11-19T00:00	7620	372	-38.8	-46.7	288	24	
2025-11-19T00:00	7640	371	-39.0	-46.0	287	23	
2025-11-19T00:00	7660	370	-39.2	-46.0	286	23	
2025-11-19T00:00	7680	369	-39.3	-46.0	285	23	
2025-11-19T00:00	7700	368	-39.5	-46.0	284	23	
2025-11-19T00:00	7720	367	-39.7	-46.1	283	23	
2025-11-19T00:00	7740	366	-39.9	-46.1	282	23	
2025-11-19T00:00	7760	365	-40.0	-45.8	281	23	
2025-11-19T00:00	7780	364	-40.1	-44.7	280	23	
2025-11-19T00:00	7800	363	-40.2	-45.0	280	24	
2025-11-19T00:00	7820	361	-40.3	-45.5	280	24	
2025-11-19T00:00	7840	361	-40.5	-45.9	280	24	
2025-11-19T00:00	7860	359	-40.7	-46.4	280	24	
2025-11-19T00:00	7880	358	-40.9	-46.8	280	24	
2025-11-19T00:00	7900	357	-41.1	-46.8	280	24	
2025-11-19T00:00	7920	356	-41.3	-46.4	280	24	
2025-11-19T00:00	7940	355	-41.4	-46.2	280	24	
2025-11-19T00:00	7960	354	-41.6	-46.5	279	24	
2025-11-19T00:00	7980	353	-41.8	-46.5	279	24	
2025-11-19T00:00	8000	352	-42.0	-46.7	278	24	
2025-11-19T00:00	8020	351	-42.2	-47.2	277	24	
2025-11-19T00:00	8040	350	-42.3	-47.4	277	24	
2025-11-19T00:00	8060	349	-42.5	-47.6	276	24	
2025-11-19T00:00	8080	348	-42.7	-47.7	276	24	
2025-11-19T00:00	8100	347	-42.9	-47.6	276	24	
2025-11-19T00:00	8120	346	-43.1	-47.9	276	24	
2025-11-19T00:00	8140	345	-43.2	-48.3	277	24	
2025-11-19T00:00	8160	344	-43.4	-49.0	278	24	
2025-11-19T00:00	8180	343	-43.6	-49.5	279	24	
2025-11-19T00:00	8200	342	-43.7	-49.5	280	25	
2025-11-19T00:00	8220	341	-43.9	-49.3	281	25	
2025-11-19T00:00	8240	340	-44.1	-49.0	282	25	
2025-11-19T00:00	8260	339	-44.2	-49.0	282	25	
2025-11-19T00:00	8280	338	-44.4	-49.1	282	25	
2025-11-19T00:00	8300	337	-44.6	-49.0	282	25	
2025-11-19T00:00	8320	336	-44.8	-48.9	281	25	
2025-11-19T00:00	8340	335	-45.0	-49.0	281	25	
2025-11-19T00:00	8360	334	-45.2	-49.4	281	25	
2025-11-19T00:00	8380	333	-45.4	-49.5	281	25	
2025-11-19T00:00	8400	332	-45.5	-49.4	281	25	
2025-11-19T00:00	8420	331	-45.7	-49.2	282	25	
2025-11-19T00:00	8440	330	-45.9	-49.5	282	25	
2025-11-19T00:00	8460	329	-46.2	-49.7	282	24	
2025-11-19T00:00	8480	328	-46.3	-49.9	282	24	
2025-11-19T00:00	8500	327	-46.5	-49.9	282	24	
2025-11-19T00:00	8520	326	-46.7	-50.0	283	24	
2025-11-19T00:00	8540	325	-46.9	-50.1	283	24	
2025-11-19T00:00	8560	324	-47.1	-50.5	283	24	
2025-11-19T00:00	8580	323	-47.3	-52.3	283	24	
2025-11-19T00:00	8600	322	-47.4	-55.9	284	24	
2025-11-19T00:00	8620	321	-47.6	-59.3	284	24	
2025-11-19T00:00	8640	320	-47.7	-59.6	284	24	
2025-11-19T00:00	8660	319	-47.8	-59.4	284	24	
2025-11-19T00:00	8680	318	-48.0	-58.9	284	24	
2025-11-19T00:00	8700	317	-48.1	-58.4	284	24	
2025-11-19T00:00	8720	316	-48.3	-58.1	284	24	
2025-11-19T00:00	8740	315	-48.5	-57.8	284	24	
2025-11-19T00:00	8760	314	-48.7	-57.7	283	25	
2025-11-19T00:00	8780	313	-48.9	-57.9	283	25	
2025-11-19T00:00	8800	312	-49.0	-58.3	283	25	
2025-11-19T00:00	8820	311	-49.1	-58.5	282	25	
2025-11-19T00:00	8840	310	-49.3	-58.5	282	25	
2025-11-19T00:00	8860	309	-49.5	-58.5	282	26	
2025-11-19T00:00	8880	308	-49.7	-58.5	282	26	
2025-11-19T00:00	8900	307	-49.8	-58.6	282	26	
2025-11-19T00:00	8920	306	-49.9	-58.9	281	27	
2025-11-19T00:00	8940	306	-50.0	-59.2	281	27	
2025-11-19T00:00	8960	305	-50.2	-59.2	281	27	
2025-11-19T00:00	8980	304	-50.4	-58.8	281	27	
2025-11-19T00:00	9000	303	-50.5	-58.7	282	27	
2025-11-19T00:00	9020	302	-50.7	-58.8	282	27	
2025-11-19T00:00	9040	301	-50.9	-58.8	282	27	
2025-11-19T00:00	9060	300	-51.1	-58.9	283	27	
2025-11-19T00:00	9080	299	-51.3	-59.0	283	27	
2025-11-19T00:00	9100	298	-51.5	-59.3	284	27	
2025-11-19T00:00	9120	297	-51.6	-59.6	284	26	
2025-11-19T00:00	9140	296	-51.8	-59.8	285	26	
2025-11-19T00:00	9160	295	-52.0	-59.8	284	26	
2025-11-19T00:00	9180	295	-52.2	-59.7	284	26	
2025-11-19T00:00	9200	294	-52.4	-59.6	284	26	
2025-11-19T00:00	9220	293	-52.6	-59.8	283	26	
2025-11-19T00:00	9240	292	-52.8	-60.2	283	26	
2025-11-19T00:00	9260	291	-53.0	-60.9	283	26	
2025-11-19T00:00	9280	290	-53.2	-61.5	283	26	
2025-11-19T00:00	9300	289	-53.3	-61.7	283	27	
2025-11-19T00:00	9320	288	-53.5	-61.7	284	27	
2025-11-19T00:00	9340	287	-53.7	-61.4	284	27	
2025-11-19T00:00	9360	286	-53.8	-61.3	284	27	
2025-11-19T00:00	9380	286	-54.0	-61.4	284	26	
2025-11-19T00:00	9400	285	-54.1	-61.5	285	26	
2025-11-19T00:00	9420	284	-54.3	-61.7	284	26	
2025-11-19T00:00	9440	283	-54.5	-62.4	284	25	
2025-11-19T00:00	9460	282	-54.7	-63.7	284	25	
2025-11-19T00:00	9480	281	-54.8	-64.7	284	25	
2025-11-19T00:00	9500	280	-55.0	-65.2	284	25	
2025-11-19T00:00	9520	279	-55.1	-65.4	285	25	
2025-11-19T00:00	9540	278	-55.3	-65.2	285	25	
2025-11-19T00:00	9560	278	-55.4	-65.1	285	26	
2025-11-19T00:00	9580	277	-55.5	-65.0	285	26	
2025-11-19T00:00	9600	276	-55.7	-65.1	285	26	
2025-11-19T00:00	9620	275	-55.9	-65.2	285	26	
2025-11-19T00:00	9640	274	-56.0	-65.3	284	25	
2025-11-19T00:00	9660	273	-56.2	-65.5	284	26	
2025-11-19T00:00	9680	272	-56.3	-65.9	283	26	
2025-11-19T00:00	9700	271	-56.4	-66.3	283	26	
2025-11-19T00:00	9720	271	-56.5	-66.7	283	26	
2025-11-19T00:00	9740	270	-56.6	-67.2	283	26	
2025-11-19T00:00	9760	269	-56.6	-67.6	283	26	
2025-11-19T00:00	9780	268	-56.7	-67.8	283	26	
2025-11-19T00:00	9800	267	-56.9	-68.0	284	27	
2025-11-19T00:00	9820	266	-57.1	-67.9	284	27	
2025-11-19T00:00	9840	266	-57.2	-67.8	284	27	
2025-11-19T00:00	9860	265	-57.3	-67.8	284	27	
2025-11-19T00:00	9880	264	-57.5	-67.9	284	27	
2025-11-19T00:00	9900	263	-57.6	-68.0	284	27	
2025-11-19T00:00	9920	262	-57.8	-68.2	284	27	
2025-11-19T00:00	9940	261	-57.9	-68.6	284	27	
2025-11-19T00:00	9960	261	-58.0	-68.9	284	27	
2025-11-19T00:00	9980	260	-58.0	-69.2	285	27	
2025-11-19T00:00	10000	259	-58.1	-69.5	285	27	
2025-11-19T00:00	10018	258	-58.2	-69.7	285	27	
2025-11-19T00:00	10050	257	-58.3	-70.2	286	27	
2025-11-19T00:00	10100	255	-58.5	-70.9	287	26	
2025-11-19T00:00	10150	253	-58.8	-71.1	289	26	
2025-11-19T00:00	10200	251	-59.2	-70.8	290	26	
2025-11-19T00:00	10250	249	-59.3	-70.6	289	26	
2025-11-19T00:00	10300	247	-59.2	-71.0	287	26	
2025-11-19T00:00	10350	245	-59.3	-71.4	285	27	
2025-11-19T00:00	10400	243	-59.5	-71.8	285	28	
2025-11-19T00:00	10450	241	-59.8	-72.2	285	28	
2025-11-19T00:00	10500	239	-60.0	-72.6	286	29	
2025-11-19T00:00	10550	237	-60.3	-73.1	287	29	
2025-11-19T00:00	10600	235	-60.5	-73.3	288	30	
2025-11-19T00:00	10650	233	-60.8	-73.4	290	30	
2025-11-19T00:00	10700	232	-61.1	-73.8	291	31	
2025-11-19T00:00	10750	230	-61.3	-73.8	291	31	
2025-11-19T00:00	10800	228	-61.5	-74.2	291	31	
2025-11-19T00:00	10850	226	-61.4	-74.5	291	31	
2025-11-19T00:00	10900	224	-61.3	-74.8	291	31	
2025-11-19T00:00	10950	222	-61.3	-75.0	291	31	
2025-11-19T00:00	11000	221	-61.4	-75.2	289	31	
2025-11-19T00:00	11050	219	-61.5	-75.0	288	31	
2025-11-19T00:00	11100	217	-61.8	-75.0	287	31	
2025-11-19T00:00	11150	215	-62.0	-74.9	286	30	
2025-11-19T00:00	11200	214	-62.1	-74.7	284	29	
2025-11-19T00:00	11250	212	-62.3	-74.5	282	28	
2025-11-19T00:00	11300	210	-62.4	-74.5	281	27	
2025-11-19T00:00	11350	209	-62.2	-74.1	281	27	
2025-11-19T00:00	11400	207	-62.4	-73.8	282	28	
2025-11-19T00:00	11450	205	-62.8	-73.6	283	29	
2025-11-19T00:00	11500	203	-63.0	-73.3	284	29	
2025-11-19T00:00	11550	202	-62.9	-73.1	285	29	
2025-11-19T00:00	11600	200	-62.8	-73.0	285	29	
2025-11-19T00:00	11650	199	-62.9	-73.4	285	29	
2025-11-19T00:00	11700	197	-62.6	-73.4	284	29	
2025-11-19T00:00	11750	195	-62.2	-73.5	282	29	
2025-11-19T00:00	11800	194	-62.1	-73.9	280	29	
2025-11-19T00:00	11850	192	-62.0	-74.4	280	28	
2025-11-19T00:00	11900	191	-61.9	-74.7	282	28	
2025-11-19T00:00	11950	189	-61.8	-75.4	283	27	
2025-11-19T00:00	12000	188	-61.4	-76.9	283	26	
2025-11-19T00:00	12050	186	-61.4	-78.5	283	25	
2025-11-19T00:00	12100	185	-61.8	-79.1	282	24	
2025-11-19T00:00	12150	183	-61.8	-79.6	279	24	
2025-11-19T00:00	12200	182	-61.3	-80.4	277	23	
2025-11-19T00:00	12250	180	-61.4	-80.6	273	23	
2025-11-19T00:00	12300	179	-61.3	-80.4	270	23	
2025-11-19T00:00	12350	177	-61.0	-80.3	265	23	
2025-11-19T00:00	12400	176	-60.8	-80.5	260	23	
2025-11-19T00:00	12450	175	-61.2	-80.6	256	23	
2025-11-19T00:00	12500	173	-61.5	-80.5	253	24	
2025-11-19T00:00	12550	172	-61.9	-80.4	252	25	
2025-11-19T00:00	12600	170	-62.0	-80.5	254	27	
2025-11-19T00:00	12650	169	-61.9	-80.6	257	28	
2025-11-19T00:00	12700	168	-62.0	-80.9	261	29	
2025-11-19T00:00	12750	166	-62.2	-81.1	264	29	
2025-11-19T00:00	12800	165	-62.2	-81.3	268	29	
2025-11-19T00:00	12850	164	-62.1	-81.7	272	29	
2025-11-19T00:00	12900	162	-61.9	-82.0	276	28	
2025-11-19T00:00	12950	161	-61.1	-82.2	279	27	
2025-11-19T00:00	13000	160	-61.3	-82.6	281	26	
2025-11-19T00:00	13050	158	-61.3	-82.7	280	26	
2025-11-19T00:00	13100	157	-61.0	-82.6	279	26	
2025-11-19T00:00	13150	156	-60.8	-82.8	278	26	
2025-11-19T00:00	13200	155	-60.3	-82.6	278	26	
2025-11-19T00:00	13250	153	-60.3	-82.7	279	25	
2025-11-19T00:00	13300	152	-60.5	-82.7	280	24	
2025-11-19T00:00	13350	151	-60.7	-82.8	282	23	
2025-11-19T00:00	13400	150	-60.8	-82.9	283	22	
2025-11-19T00:00	13450	148	-60.8	-82.9	282	22	
2025-11-19T00:00	13500	147	-60.5	-82.9	279	22	
2025-11-19T00:00	13550	146	-60.7	-83.0	276	22	
2025-11-19T00:00	13600	145	-61.0	-83.1	272	23	
2025-11-19T00:00	13650	144	-61.1	-83.1	270	24	
2025-11-19T00:00	13700	143	-60.9	-83.1	270	25	
2025-11-19T00:00	13750	142	-60.9	-83.3	270	25	
2025-11-19T00:00	13800	140	-60.5	-83.1	271	24	
2025-11-19T00:00	13850	139	-60.6	-83.3	271	23	
2025-11-19T00:00	13900	138	-60.7	-83.4	270	22	
2025-11-19T00:00	13950	137	-60.6	-83.5	270	22	
2025-11-19T00:00	14000	136	-60.6	-83.5	271	23	
2025-11-19T00:00	14050	135	-60.3	-83.5	273	23	
2025-11-19T00:00	14100	134	-60.2	-83.5	273	24	
2025-11-19T00:00	14150	133	-60.4	-83.6	275	25	
2025-11-19T00:00	14200	132	-60.6	-83.7	278	25	
2025-11-19T00:00	14250	131	-60.4	-83.7	279	25	
2025-11-19T00:00	14300	130	-60.3	-83.7	278	25	
2025-11-19T00:00	14350	128	-60.2	-83.7	277	24	
2025-11-19T00:00	14400	127	-60.2	-83.7	277	23	
2025-11-19T00:00	14450	126	-59.9	-83.5	276	23	
2025-11-19T00:00	14500	125	-60.0	-83.5	274	23	
2025-11-19T00:00	14550	124	-60.3	-83.7	273	24	
2025-11-19T00:00	14600	123	-59.9	-83.7	273	25	
2025-11-19T00:00	14650	122	-59.4	-83.8	276	26	
2025-11-19T00:00	14700	121	-59.2	-83.8	278	26	
2025-11-19T00:00	14750	120	-59.2	-83.8	279	25	
2025-11-19T00:00	14800	120	-59.3	-83.8	278	25	
2025-11-19T00:00	14850	119	-59.5	-83.8	275	24	
2025-11-19T00:00	14900	118	-59.9	-83.9	271	24	
2025-11-19T00:00	14950	117	-60.2	-84.0	268	24	
2025-11-19T00:00	15000	116	-60.2	-84.0	268	24	
2025-11-19T00:00	15050	115	-60.4	-84.1	270	25	
2025-11-19T00:00	15100	114	-60.5	-84.1	272	26	
2025-11-19T00:00	15150	113	-60.4	-84.1	274	26	
2025-11-19T00:00	15200	112	-60.5	-84.1	276	26	
2025-11-19T00:00	15250	111	-60.6	-84.1	278	25	
2025-11-19T00:00	15300	110	-60.8	-84.2	278	24	
2025-11-19T00:00	15350	109	-60.9	-84.2	279	24	
2025-11-19T00:00	15400	109	-61.2	-84.3	279	23	
2025-11-19T00:00	15450	108	-61.2	-84.3	278	21	
2025-11-19T00:00	15500	107	-61.3	-84.4	275	20	
2025-11-19T00:00	15550	106	-61.6	-84.5	273	20	
2025-11-19T00:00	15600	105	-61.6	-84.7	272	21	
2025-11-19T00:00	15650	104	-61.4	-84.7	274	23	
2025-11-19T00:00	15700	103	-61.1	-84.7	274	24	
2025-11-19T00:00	15750	103	-61.0	-84.8	273	24	
2025-11-19T00:00	15800	102	-60.9	-84.8	274	23	
2025-11-19T00:00	15850	101	-60.8	-84.8	276	22	
2025-11-19T00:00	15900	100	-60.8	-84.8	278	21	
2025-11-19T00:00	15950	99	-60.6	-84.7	279	21	
2025-11-19T00:00	16000	99	-60.8	-84.8	279	21	
2025-11-19T00:00	16050	98	-60.9	-84.8	278	21	
2025-11-19T00:00	16100	97	-61.1	-84.9	275	21	
2025-11-19T00:00	16150	96	-61.1	-85.0	273	21	
2025-11-19T00:00	16200	95	-60.9	-85.0	271	21	
2025-11-19T00:00	16250	95	-60.8	-84.9	270	22	
2025-11-19T00:00	16300	94	-61.1	-85.0	269	22	
2025-11-19T00:00	16350	93	-61.2	-85.1	268	22	
2025-11-19T00:00	16400	92	-61.4	-85.2	269	22	
2025-11-19T00:00	16450	92	-61.5	-85.1	272	22	
2025-11-19T00:00	16500	91	-61.8	-85.3	275	22	
2025-11-19T00:00	16550	90	-62.0	-85.4	279	22	
2025-11-19T00:00	16600	89	-61.8	-85.4	281	22	
2025-11-19T00:00	16650	89	-61.9	-85.5	282	22	
2025-11-19T00:00	16700	88	-61.9	-85.5	284	22	
2025-11-19T00:00	16750	87	-62.1	-85.6	284	22	
2025-11-19T00:00	16800	87	-62.3	-85.6	284	22	
2025-11-19T00:00	16850	86	-62.4	-85.6	284	22	
2025-11-19T00:00	16900	85	-62.7	-85.7	285	21	
2025-11-19T00:00	16950	85	-63.0	-85.9	284	20	
2025-11-19T00:00	17000	84	-63.1	-85.9	283	19	
2025-11-19T00:00	17050	83	-63.2	-86.0	283	17	
2025-11-19T00:00	17100	83	-63.3	-86.1	283	16	
2025-11-19T00:00	17150	82	-63.4	-86.1	283	14	
2025-11-19T00:00	17200	81	-63.6	-86.2	280	14	
2025-11-19T00:00	17250	81	-63.9	-86.3	277	14	
2025-11-19T00:00	17300	80	-64.1	-86.3	274	14	
2025-11-19T00:00	17350	79	-64.3	-86.3	271	14	
2025-11-19T00:00	17400	79	-64.7	-86.5	268	13	
2025-11-19T00:00	17450	78	-64.9	-86.6	263	13	
2025-11-19T00:00	17500	77	-65.1	-86.7	259	13	
2025-11-19T00:00	17550	77	-65.2	-86.7	257	13	
2025-11-19T00:00	17600	76	-65.2	-86.8	258	14	
2025-11-19T00:00	17650	75	-65.2	-86.8	261	14	
2025-11-19T00:00	17700	75	-65.5	-86.9	265	15	
2025-11-19T00:00	17750	74	-65.6	-86.9	271	17	
2025-11-19T00:00	17800	74	-65.7	-87.0	276	18	
2025-11-19T00:00	17850	73	-65.8	-87.0	280	18	
2025-11-19T00:00	17900	72	-66.1	-87.1	283	19	
2025-11-19T00:00	17950	72	-66.3	-87.3	285	18	
2025-11-19T00:00	18000	71	-66.4	-87.4	285	18	
2025-11-19T00:00	18050	71	-66.4	-87.5	284	18	
2025-11-19T00:00	18100	70	-66.3	-87.5	283	17	
2025-11-19T00:00	18150	69	-66.2	-87.4	283	17	
2025-11-19T00:00	18200	69	-66.3	-87.4	283	17	
2025-11-19T00:00	18250	68	-66.6	-87.5	282	17	
2025-11-19T00:00	18300	68	-66.9	-87.5	281	17	
2025-11-19T00:00	18350	67	-67.2	-87.6	281	17	
2025-11-19T00:00	18400	67	-67.6	-87.7	281	17	
2025-11-19T00:00	18450	66	-67.9	-87.9	279	17	
2025-11-19T00:00	18500	66	-68.1	-87.9	278	16	
2025-11-19T00:00	18550	65	-68.4	-87.9	277	17	
2025-11-19T00:00	18600	64	-68.7	-88.0	275	17	
2025-11-19T00:00	18650	64	-69.1	-88.1	274	18	
2025-11-19T00:00	18700	63	-69.5	-88.3	273	18	
2025-11-19T00:00	18750	63	-69.4	-88.3	274	18	
2025-11-19T00:00	18800	62	-69.4	-88.4	275	18	
2025-11-19T00:00	18850	62	-69.2	-88.5	275	19	
2025-11-19T00:00	18900	61	-68.9	-88.6	277	19	
2025-11-19T00:00	18950	61	-68.5	-88.5	278	20	
2025-11-19T00:00	19000	60	-68.0	-88.3	279	20	
2025-11-19T00:00	19050	60	-67.7	-88.1	277	21	
2025-11-19T00:00	19100	59	-67.5	-87.8	274	21	
2025-11-19T00:00	19150	59	-67.9	-87.9	273	22	
2025-11-19T00:00	19200	58	-68.2	-88.1	272	22	
2025-11-19T00:00	19250	58	-68.0	-88.0	271	23	
2025-11-19T00:00	19300	57	-68.0	-88.1	269	24	
2025-11-19T00:00	19350	57	-68.1	-88.3	268	25	
2025-11-19T00:00	19400	56	-67.7	-88.3	269	25	
2025-11-19T00:00	19450	56	-67.2	-88.2	271	25	
2025-11-19T00:00	19500	55	-67.1	-88.3	273	25	
2025-11-19T00:00	19550	55	-66.8	-88.1	274	25	
2025-11-19T00:00	19600	55	-66.8	-88.1	276	24	
2025-11-19T00:00	19650	54	-66.4	-87.9	275	24	
2025-11-19T00:00	19700	54	-66.3	-88.0	275	24	
2025-11-19T00:00	19750	53	-66.3	-87.9	275	24	
2025-11-19T00:00	19800	53	-66.5	-88.0	276	25	
2025-11-19T00:00	19850	52	-66.6	-87.9	277	25	
2025-11-19T00:00	19900	52	-66.7	-88.0	277	24	
2025-11-19T00:00	19950	52	-66.6	-88.1	276	24	
2025-11-19T00:00	20000	51	-66.1	-88.0	275	23	
2025-11-19T00:00	20050	51	-66.2		274	22	
2025-11-19T00:00	20100	50	-66.4		274	20	
2025-11-19T00:00	20150	50	-66.2		272	19	
2025-11-19T00:00	20200	49	-65.7		268	20	
2025-11-19T00:00	20250	49	-65.5		266	21	
2025-11-19T00:00	20300	49	-65.5		265	22	
2025-11-19T00:00	20350	48	-65.4		264	22	
2025-11-19T00:00	20400	48	-65.3		261	21	
2025-11-19T00:00	20450	47	-65.3		258	21	
2025-11-19T00:00	20500	47	-65.3		255	21	
2025-11-19T00:00	20550	47	-65.3		252	21	
2025-11-19T00:00	20600	46	-65.3		252	21	
2025-11-19T00:00	20650	46	-65.4		252	20	
2025-11-19T00:00	20700	45	-65.7		250	20	
2025-11-19T00:00	20750	45	-65.8		248	20	
2025-11-19T00:00	20800	45	-66.2		246	21	
2025-11-19T00:00	20850	44	-66.6		245	21	
2025-11-19T00:00	20900	44	-66.9		245	21	
2025-11-19T00:00	20950	44	-67.1		245	21	
2025-11-19T00:00	21000	43	-67.4		245	21	
2025-11-19T00:00	21050	43	-67.5		244	21	
2025-11-19T00:00	21100	43	-67.9		242	20	
2025-11-19T00:00	21150	42	-68.1		241	20	
2025-11-19T00:00	21200	42	-68.2		240	19	
2025-11-19T00:00	21250	42	-68.5		239	19	
2025-11-19T00:00	21300	41	-68.8		238	20	
2025-11-19T00:00	21350	41	-69.1		240	21	
2025-11-19T00:00	21400	41	-69.2		243	22	
2025-11-19T00:00	21450	40	-69.1		247	23	
2025-11-19T00:00	21500	40	-69.1		251	23	
2025-11-19T00:00	21550	40	-69.3		255	24	
2025-11-19T00:00	21600	39	-69.3		258	25	
2025-11-19T00:00	21650	39	-69.5		260	26	
2025-11-19T00:00	21700	39	-69.6		261	26	
2025-11-19T00:00	21750	38	-69.4		261	26	
2025-11-19T00:00	21800	38	-69.7		262	25	
2025-11-19T00:00	21850	38	-69.7		262	26	
2025-11-19T00:00	21900	37	-69.5		262	26	
2025-11-19T00:00	21950	37	-69.3		263	28	
2025-11-19T00:00	22000	37	-69.2		264	28	
2025-11-19T00:00	22050	36	-69.4		266	29	
2025-11-19T00:00	22100	36	-69.0		267	28	
2025-11-19T00:00	22150	36	-69.1		266	27	
2025-11-19T00:00	22200	35	-69.5		265	27	
2025-11-19T00:00	22250	35	-69.7		265	27	
2025-11-19T00:00	22300	35	-69.6		265	27	
2025-11-19T00:00	22350	35	-69.8		267	27	
2025-11-19T00:00	22400	34	-69.8		270	28	
2025-11-19T00:00	22450	34	-69.8		272	29	
2025-11-19T00:00	22500	34	-69.8		273	30	
2025-11-19T00:00	22550	33	-70.0		274	31	
2025-11-19T00:00	22600	33	-70.1		275	32	
2025-11-19T00:00	22650	33	-70.2		276	33	
2025-11-19T00:00	22700	33	-70.4		277	33	
2025-11-19T00:00	22750	32	-70.3		276	32	
2025-11-19T00:00	22800	32	-70.5		274	32	
2025-11-19T00:00	22850	32	-70.5		272	31	
2025-11-19T00:00	22900	31	-70.6		271	31	
2025-11-19T00:00	22950	31	-70.6		270	31	
2025-11-19T00:00	23000	31	-70.2		270	32	
2025-11-19T00:00	23050	31	-70.3		270	33	
2025-11-19T00:00	23100	30	-70.3		270	33	
2025-11-19T00:00	23150	30	-70.2		270	33	
2025-11-19T00:00	23200	30	-70.0		270	33	
2025-11-19T00:00	23250	30	-69.8		269	33	
2025-11-19T00:00	23300	29	-69.5		266	33	
2025-11-19T00:00	23350	29	-69.0		264	33	
2025-11-19T00:00	23400	29	-68.5		262	34	
2025-11-19T00:00	23450	29	-67.9		262	34	
2025-11-19T00:00	23500	28	-67.8		262	34	
2025-11-19T00:00	23550	28	-67.7		263	32	
2025-11-19T00:00	23600	28	-67.9		263	32	
2025-11-19T00:00	23650	28	-68.3		263	31	
2025-11-19T00:00	23700	28	-68.3		262	31	
2025-11-19T00:00	23750	27	-67.8		263	30	
2025-11-19T00:00	23800	27	-67.8		263	29	
2025-11-19T00:00	23850	27	-67.8		263	28	
2025-11-19T00:00	23900	27	-67.8		262	28	
2025-11-19T00:00	23950	26	-67.6		260	28	
2025-11-19T00:00	24000	26	-67.7		259	29	
2025-11-19T00:00	24050	26	-67.7		257	29	
2025-11-19T00:00	24100	26	-67.9		256	29	
2025-11-19T00:00	24150	26	-67.7		255	30	
2025-11-19T00:00	24200	25	-67.6		256	30	
2025-11-19T00:00	24250	25	-67.5		257	30	
2025-11-19T00:00	24300	25	-67.7		258	29	
2025-11-19T00:00	24350	25	-67.8		260	29	
2025-11-19T00:00	24400	25	-68.2		261	30	
2025-11-19T00:00	24450	24	-68.4		263	30	
2025-11-19T00:00	24500	24	-68.6		264	30	
2025-11-19T00:00	24550	24	-68.7		265	30	
2025-11-19T00:00	24600	24	-68.9		265	30	
2025-11-19T00:00	24650	24	-69.1		265	30	
2025-11-19T00:00	24700	23	-69.1		264	31	
2025-11-19T00:00	24750	23	-69.3		263	31	
2025-11-19T00:00	24800	23	-69.6		262	31	
2025-11-19T00:00	24850	23	-69.8		261	31	
2025-11-19T00:00	24900	23	-70.0		261	30	
2025-11-19T00:00	24950	22	-70.0		263	29	
2025-11-19T00:00	25000	22	-70.2		264	28	
2025-11-19T00:00	25050	22	-70.4		267	27	
2025-11-19T00:00	25100	22	-70.8		269	26	
2025-11-19T00:00	25150	22	-71.0		270	25	
2025-11-19T00:00	25200	21	-70.9		268	24	
2025-11-19T00:00	25250	21	-70.4		263	25	
2025-11-19T00:00	25300	21	-70.0		260	26	
2025-11-19T00:00	25350	21	-70.0		259	27	
2025-11-19T00:00	25400	21	-70.0		259	28	
2025-11-19T00:00	25450	21	-69.8		259	29	
2025-11-19T00:00	25500	20	-69.4		260	28	
2025-11-19T00:00	25550	20	-69.7		261	27	
2025-11-19T00:00	25600	20	-70.1		261	26	
2025-11-19T00:00	25650	20	-70.3		258	25	
2025-11-19T00:00	25700	20	-69.9		253	24	
2025-11-19T00:00	25750	20	-69.8		248	25	
2025-11-19T00:00	25800	19	-69.9		244	26	
2025-11-19T00:00	25850	19	-70.2		241	28	
2025-11-19T00:00	25900	19	-70.3		238	29	
2025-11-19T00:00	25950	19	-70.1		237	30	
2025-11-19T00:00	26000	19	-70.0		237	31	
2025-11-19T00:00	26050	19	-70.0		237	31	
2025-11-19T00:00	26100	18	-70.1		239	32	
2025-11-19T00:00	26150	18	-70.0		241	33	
2025-11-19T00:00	26200	18	-70.2		242	33	
2025-11-19T00:00	26250	18	-70.3		244	33	
2025-11-19T00:00	26300	18	-70.6		246	32	
2025-11-19T00:00	26350	18	-70.9		248	31	
2025-11-19T00:00	26400	18	-71.1		250	31	
2025-11-19T00:00	26450	17	-71.3		252	31	
2025-11-19T00:00	26500	17	-71.6		254	32	
2025-11-19T00:00	26550	17	-71.7		255	34	
2025-11-19T00:00	26600	17	-71.5		256	35	
2025-11-19T00:00	26650	17	-71.3		256	35	
2025-11-19T00:00	26700	17	-71.5		254	35	
2025-11-19T00:00	26750	17	-71.8		253	35	
2025-11-19T00:00	26800	16	-72.0		251	35	
2025-11-19T00:00	26850	16	-71.7		249	36	
2025-11-19T00:00	26900	16	-71.1		249	37	
2025-11-19T00:00	26950	16	-70.6		251	38	
2025-11-19T00:00	27000	16	-69.9		254	38	
2025-11-19T00:00	27050	16	-69.6		258	39	
2025-11-19T00:00	27100	16	-69.7		261	39	
2025-11-19T00:00	27150	15	-69.3		263	38	
2025-11-19T00:00	27200	15	-69.1		264	38	
2025-11-19T00:00	27250	15	-69.0		264	39	
2025-11-19T00:00	27300	15	-68.5		265	40	
2025-11-19T00:00	27350	15	-68.1		265	40	
2025-11-19T00:00	27400	15	-67.8		264	40	
2025-11-19T00:00	27450	15	-67.7		263	40	
2025-11-19T00:00	27500	15	-67.3		262	40	
2025-11-19T00:00	27550	14	-67.3		261	41	
2025-11-19T00:00	27600	14	-67.3		262	41	
2025-11-19T00:00	27650	14	-67.3		263	41	
2025-11-19T00:00	27700	14	-67.3		264	40	
2025-11-19T00:00	27750	14	-67.4		266	40	
2025-11-19T00:00	27800	14	-67.2		267	41	
2025-11-19T00:00	27850	14	-66.9		268	42	
2025-11-19T00:00	27900	14	-66.5		268	43	
2025-11-19T00:00	27950	14	-66.3		268	44	
2025-11-19T00:00	28000	13	-65.8		266	45	
2025-11-19T00:00	28050	13	-65.5		264	46	
2025-11-19T00:00	28100	13	-65.5		263	47	
2025-11-19T00:00	28150	13	-65.5		261	47	
2025-11-19T00:00	28200	13	-65.5		261	48	
2025-11-19T00:00	28250	13	-65.3		261	48	
2025-11-19T00:00	28300	13	-65.7		262	48	
2025-11-19T00:00	28350	13	-65.5		263	49	
2025-11-19T00:00	28400	13	-65.2		263	49	
2025-11-19T00:00	28450	12	-64.8		263	49	
2025-11-19T00:00	28500	12	-64.4		263	48	
2025-11-19T00:00	28550	12	-64.4		263	46	
2025-11-19T00:00	28600	12	-64.0		263	45	
2025-11-19T00:00	28650	12	-63.7		262	44	
2025-11-19T00:00	28700	12	-63.1		262	44	
2025-11-19T00:00	28750	12	-62.2		263	45	
2025-11-19T00:00	28800	12	-61.9		264	45	
2025-11-19T00:00	28850	12	-61.3		262	44	
2025-11-19T00:00	28900	12	-60.5		259	43	
2025-11-19T00:00	28950	11	-59.9		257	43	
2025-11-19T00:00	29000	11	-59.4		256	43	
2025-11-19T00:00	29050	11	-59.0		255	43	
2025-11-19T00:00	29100	11	-58.9		253	44	
2025-11-19T00:00	29150	11	-58.6		251	45	
2025-11-19T00:00	29200	11	-58.2		250	46	
2025-11-19T00:00	29250	11	-58.0		249	47	
2025-11-19T00:00	29300	11	-57.9		247	48	
2025-11-19T00:00	29350	11	-57.8		247	48	
2025-11-19T00:00	29400	11	-57.7		246	49	
2025-11-19T00:00	29450	11	-57.7		246	49	
2025-11-19T00:00	29500	11	-57.9		247	48	
2025-11-19T00:00	29550	10	-58.2		248	48	
2025-11-19T00:00	29600	10	-58.3		249	47	
2025-11-19T00:00	29650	10	-58.3		251	47	
2025-11-19T00:00	29700	10	-58.4		253	47	
2025-11-19T00:00	29750	10	-58.7		254	47	
2025-11-19T00:00	29800	10	-58.9		255	47	
2025-11-19T00:00	29850	10	-59.1		255	47	
2025-11-19T00:00	29900	10	-59.2		255	47	
2025-11-19T00:00	29950	10	-59.4		254	47	
2025-11-19T00:00	30000	10	-59.4		253	47	
2025-11-19T00:00	30050	10	-59.4		252	47	
2025-11-19T00:00	30100	10	-59.3		251	47	
2025-11-19T00:00	30150	9	-59.3		251	47	
2025-11-19T00:00	30200	9	-59.5		252	46	
2025-11-19T00:00	30250	9	-59.6		253	46	
2025-11-19T00:00	30300	9	-59.9		253	46	
2025-11-19T00:00	30350	9	-60.1		254	47	
2025-11-19T00:00	30400	9	-60.5		254	47	
2025-11-19T00:00	30450	9	-60.9		255	47	
2025-11-19T00:00	30500	9	-61.3		257	48	
2025-11-19T00:00	30550	9	-61.6		258	48	
2025-11-19T00:00	30600	9	-61.4		259	49	
2025-11-19T00:00	30650	9	-61.3		259	49	
2025-11-19T00:00	30700	9	-61.2		259	49	
2025-11-19T00:00	30750	9	-61.2		258	50	
2025-11-19T00:00	30800	9	-60.9		258	51	
2025-11-19T00:00	30850	8	-60.8		257	52	
2025-11-19T00:00	30900	8	-60.8		257	53	
2025-11-19T00:00	30950	8	-60.8		256	54	
2025-11-19T00:00	31000	8	-60.3		256	55	
2025-11-19T00:00	31050	8	-59.9		257	56	
2025-11-19T00:00	31100	8	-59.5		257	57	
2025-11-19T00:00	31150	8	-59.1		258	57	
2025-11-19T00:00	31200	8	-58.5		258	57	
2025-11-19T00:00	31250	8	-58.1		258	58	
2025-11-19T00:00	31300	8	-57.0		257	61	
2025-11-19T00:00	31350	8	-56.3		257	61	
2025-11-19T00:00	31400	8	-56.2		256	60	
2025-11-19T00:00	31450	8	-55.7		256	59	
2025-11-19T00:00	31500	8	-55.7		256	57	
2025-11-19T00:00	31550	8	-55.7		258	57	
2025-11-19T00:00	31600	8	-55.5		259	57	
2025-11-19T00:00	31650	7	-54.8		261	58	
2025-11-19T00:00	31700	7	-53.9		262	59	
2025-11-19T00:00	31750	7	-53.4		263	61	
2025-11-19T00:00	31800	7	-53.0		263	62	
2025-11-19T00:00	31850	7	-52.8		264	63	
2025-11-19T00:00	31900	7	-52.7		264	65	
2025-11-19T00:00	31950	7	-52.9		265	66	
2025-11-19T00:00	32000	7	-53.1		265	67	
2025-11-19T00:00	32050	7	-53.2		264	69	
2025-11-19T00:00	32100	7	-53.4		264	70	
2025-11-19T00:00	32150	7	-53.6		264	70	
2025-11-19T00:00	32200	7	-53.3		264	70	
2025-11-19T00:00	32250	7	-52.7		264	69	
2025-11-19T00:00	32300	7	-52.5		263	68	
2025-11-19T00:00	32350	7	-52.3		262	68	
2025-11-19T00:00	32400	7	-51.5		261	69	
2025-11-19T00:00	32450	7	-50.4		261	72	
2025-11-19T00:00	32500	7	-49.3		263	74	
2025-11-19T00:00	32550	6	-48.5		264	75	
2025-11-19T00:00	32600	6	-47.9		264	75	
2025-11-19T00:00	32650	6	-47.4		264	74	
2025-11-19T00:00	32700	6	-47.5		264	73	
2025-11-19T00:00	32750	6	-47.5		264	72	
2025-11-19T00:00	32800	6	-47.2		263	72	
2025-11-19T00:00	32850	6	-46.8		262	72	
2025-11-19T00:00	32900	6	-46.3		261	72	
2025-11-19T00:00	32950	6	-46.2		260	72	
2025-11-19T00:00	33000	6	-46.1		259	73	
2025-11-19T00:00	33050	6	-46.0		258	73	
2025-11-19T00:00	33100	6	-45.9		258	74	
2025-11-19T00:00	33150	6	-45.9		259	74	
2025-11-19T00:00	33200	6	-45.9		259	75	
2025-11-19T00:00	33250	6	-46.1		260	75	
2025-11-19T00:00	33300	6	-45.9		260	76	
2025-11-19T00:00	33350	6	-45.5		260	76	
2025-11-19T00:00	33400	6	-45.4		260	75	
2025-11-19T00:00	33450	6	-45.4		260	75	
2025-11-19T00:00	33500	6	-45.2		260	74	
2025-11-19T00:00	33550	6	-44.8		260	74	
2025-11-19T00:00	33600	6	-44.3		261	74	
2025-11-19T00:00	33650	5	-43.8		262	74	
2025-11-19T00:00	33700	5	-42.7		262	74	
2025-11-19T00:00	33750	5	-41.4		262	74	
2025-11-19T00:00	33800	5	-41.0		261	75	
2025-11-19T00:00	33850	5	-40.2		260	76	
2025-11-19T00:00	33900	5	-40.1		259	77	
2025-11-19T00:00	33950	5	-39.9		260	78	
2025-11-19T00:00	34000	5	-38.9		262	78	
2025-11-19T00:00	34050	5	-38.0		263	76	
2025-11-19T00:00	34100	5	-37.7		263	74	
2025-11-19T00:00	34150	5	-37.8		262	72	
2025-11-19T00:00	34200	5	-37.9		262	72	
2025-11-19T00:00	34250	5	-37.9		262	71	
2025-11-19T00:00	34300	5	-38.0		262	71	
2025-11-19T00:00	34350	5	-38.2		262	71	
2025-11-19T00:00	34400	5	-38.4		262	70	
2025-11-19T00:00	34450	5	-38.4		262	71	
2025-11-19T00:00	34500	5	-38.5		263	71	
2025-11-19T00:00	34550	5	-38.4		263	72	
2025-11-19T00:00	34600	5	-38.2		264	74	
2025-11-19T00:00	34650	5	-38.2		265	75	
2025-11-19T00:00	34700	5	-38.3		265	76	
2025-11-19T00:00	34750	5	-38.5		265	77	
2025-11-19T00:00	34800	5	-38.5		265	78	
2025-11-19T00:00	34850	5	-38.1		265	80	
2025-11-19T00:00	34900	5	-37.7		264	81	
2025-11-19T00:00	34950	5	-37.5		264	82	
2025-11-19T00:00	35000	5	-37.2		263	82	
2025-11-19T00:00	35050	4	-36.8		263	82	
2025-11-19T00:00	35100	4	-36.7		261	82	
2025-11-19T00:00	35150	4	-34.9		260	83	
2025-11-19T00:00	35200	4	-32.6		258	85	
2025-11-19T00:00	35250	4	-31.9		258	84	
2025-11-19T00:00	35300	4	-31.3		259	84	
2025-11-19T12:00	491	953	3.5	0.0	215	0	1.6
2025-11-19T12:00	501	952	3.7	0.0	284	1	1.6
2025-11-19T12:00	520	950	3.0	-1.2	291	1	1.7
2025-11-19T12:00	540	947	2.8	-1.5	284	1	1.7
2025-11-19T12:00	560	945	2.6	-1.6	270	1	1.7
2025-11-19T12:00	580	943	2.4	-1.5	250	1	1.8
2025-11-19T12:00	600	940	2.2	-1.7	233	1	1.8
2025-11-19T12:00	620	938	2.0	-1.7	222	1	1.8
2025-11-19T12:00	640	936	1.8	-1.7	214	2	1.8
2025-11-19T12:00	660	933	1.6	-1.7	210	2	1.8
2025-11-19T12:00	680	931	1.6	-2.0	208	3	1.9
2025-11-19T12:00	700	929	1.4	-2.1	207	3	1.9
2025-11-19T12:00	720	927	1.3	-2.2	207	4	1.9
2025-11-19T12:00	740	924	1.2	-2.2	208	4	1.9
2025-11-19T12:00	760	922	1.0	-2.3	209	4	2.0
2025-11-19T12:00	780	920	0.8	-2.5	210	5	2.0
2025-11-19T12:00	800	917	0.6	-2.6	211	5	2.0
2025-11-19T12:00	820	915	0.4	-2.3	212	5	2.0
2025-11-19T12:00	840	913	0.3	-2.5	213	5	2.0
2025-11-19T12:00	860	910	0.1	-2.5	214	4	2.0
2025-11-19T12:00	880	908	0.0	-2.5	216	4	2.0
2025-11-19T12:00	900	906	-0.2	-2.6	219	4	2.0
2025-11-19T12:00	920	904	-0.4	-2.6	222	4	2.1
2025-11-19T12:00	940	902	-0.6	-2.7	225	4	2.1
2025-11-19T12:00	960	899	-0.8	-2.7	228	4	2.1
2025-11-19T12:00	980	897	-0.9	-2.7	231	5	2.1
2025-11-19T12:00	1000	895	-1.1	-2.7	234	5	2.1
2025-11-19T12:00	1020	892	-1.3	-2.8	239	5	2.1
2025-11-19T12:00	1040	890	-1.5	-3.2	243	5	2.0
2025-11-19T12:00	1060	888	-1.4	-4.0	245	5	2.1
2025-11-19T12:00	1080	886	-1.5	-4.2	247	5	2.1
2025-11-19T12:00	1100	884	-1.6	-5.0	248	5	2.1
2025-11-19T12:00	1120	881	-1.8	-5.1	247	6	2.2
2025-11-19T12:00	1140	879	-1.9	-5.2	246	6	2.2
2025-11-19T12:00	1160	877	-2.1	-5.3	245	6	2.3
2025-11-19T12:00	1180	874	-2.4	-5.3	244	7	2.3
2025-11-19T12:00	1200	872	-2.6	-5.4	245	7	2.4
2025-11-19T12:00	1220	870	-2.6	-5.8	247	8	2.4
2025-11-19T12:00	1240	868	-2.7	-6.9	249	8	2.4
2025-11-19T12:00	1260	866	-3.0	-6.1	252	8	2.5
2025-11-19T12:00	1280	864	-3.2	-6.4	254	9	2.5
2025-11-19T12:00	1300	861	-3.1	-8.8	256	9	2.5
2025-11-19T12:00	1320	859	-3.1	-9.6	257	10	2.6
2025-11-19T12:00	1340	857	-3.2	-10.0	257	10	2.7
2025-11-19T12:00	1360	855	-3.2	-11.2	257	10	2.8
2025-11-19T12:00	1380	853	-3.3	-11.6	257	11	2.9
2025-11-19T12:00	1400	851	-3.3	-11.7	256	11	3.0
2025-11-19T12:00	1420	848	-3.4	-11.8	256	11	3.1
2025-11-19T12:00	1440	847	-3.3	-12.1	255	11	3.2
2025-11-19T12:00	1460	844	-3.1	-12.7	255	11	3.3
2025-11-19T12:00	1480	842	-3.2	-13.3	254	11	3.4
2025-11-19T12:00	1500	840	-3.0	-13.7	252	11	3.5
2025-11-19T12:00	1520	838	-3.1	-13.7	250	11	3.5
2025-11-19T12:00	1540	836	-3.2	-13.8	247	11	3.6
2025-11-19T12:00	1560	834	-3.3	-13.8	244	12	3.6
2025-11-19T12:00	1580	832	-3.3	-14.1	241	12	3.7
2025-11-19T12:00	1600	830	-2.9	-15.7	237	13	3.7
2025-11-19T12:00	1620	827	-2.3	-18.8	234	14	3.7
2025-11-19T12:00	1640	825	-2.4	-19.2	230	15	3.8
2025-11-19T12:00	1660	823	-2.5	-20.1	227	16	3.9
2025-11-19T12:00	1680	821	-2.4	-21.7	225	16	4.0
2025-11-19T12:00	1700	819	-2.0	-24.3	224	17	4.1
2025-11-19T12:00	1720	817	-1.8	-26.3	224	18	4.2
2025-11-19T12:00	1740	815	-1.6	-28.1	223	18	4.2
2025-11-19T12:00	1760	813	-1.7	-28.3	224	18	4.3
2025-11-19T12:00	1780	811	-1.7	-28.3	225	18	4.3
2025-11-19T12:00	1800	809	-2.0	-28.6	225	18	4.4
2025-11-19T12:00	1820	807	-2.0	-29.6	226	18	4.4
2025-11-19T12:00	1840	805	-2.1	-30.0	226	18	4.5
2025-11-19T12:00	1860	803	-2.2	-30.6	226	18	4.5
2025-11-19T12:00	1880	801	-2.2	-31.9	226	18	4.5
2025-11-19T12:00	1900	798	-1.8	-35.5	225	18	4.4
2025-11-19T12:00	1920	797	-1.3	-37.9	225	18	4.3
2025-11-19T12:00	1940	795	-1.2	-38.1	224	18	4.2
2025-11-19T12:00	1960	793	-1.2	-38.6	224	18	4.1
2025-11-19T12:00	1980	791	-1.4	-38.6	224	18	4.0
2025-11-19T12:00	2000	789	-1.4	-38.1	224	18	4.0
2025-11-19T12:00	2020	787	-1.4	-36.1	223	19	3.9
2025-11-19T12:00	2040	785	-1.5	-35.8	223	19	4.0
2025-11-19T12:00	2060	783	-1.6	-33.2	223	19	4.0
2025-11-19T12:00	2080	781	-1.7	-31.0	223	20	4.0
2025-11-19T12:00	2100	779	-1.9	-29.6	222	20	4.0
2025-11-19T12:00	2120	777	-2.1	-28.1	222	20	4.0
2025-11-19T12:00	2140	775	-2.2	-27.1	222	20	4.1
2025-11-19T12:00	2160	773	-2.3	-25.9	222	20	4.0
2025-11-19T12:00	2180	771	-2.5	-24.1	223	20	4.0
2025-11-19T12:00	2200	769	-2.7	-23.2	223	20	4.0
2025-11-19T12:00	2220	767	-2.8	-22.9	224	20	4.0
2025-11-19T12:00	2240	765	-3.0	-22.7	226	20	4.0
2025-11-19T12:00	2260	763	-3.2	-22.3	227	19	4.0
2025-11-19T12:00	2280	761	-3.4	-21.9	228	19	3.9
2025-11-19T12:00	2300	759	-3.5	-21.4	229	19	3.9
2025-11-19T12:00	2320	758	-3.6	-21.2	230	19	3.9
2025-11-19T12:00	2340	756	-3.7	-20.2	231	19	3.9
2025-11-19T12:00	2360	754	-3.8	-19.4	232	19	3.9
2025-11-19T12:00	2380	752	-3.9	-19.2	232	19	3.9
2025-11-19T12:00	2400	750	-4.0	-19.1	232	18	3.9
2025-11-19T12:00	2420	748	-4.2	-19.1	232	18	3.8
2025-11-19T12:00	2440	746	-4.4	-18.9	233	18	3.8
2025-11-19T12:00	2460	744	-4.5	-18.5	233	18	3.8
2025-11-19T12:00	2480	742	-4.7	-17.7	234	17	3.8
2025-11-19T12:00	2500	740	-4.8	-16.7	235	17	3.8
2025-11-19T12:00	2520	739	-5.0	-16.6	236	17	3.8
2025-11-19T12:00	2540	737	-5.1	-17.3	237	17	3.8
2025-11-19T12:00	2560	735	-5.1	-18.8	238	17	3.8
2025-11-19T12:00	2580	733	-5.2	-19.3	239	17	3.8
2025-11-19T12:00	2600	731	-5.4	-19.4	240	17	3.7
2025-11-19T12:00	2620	729	-5.5	-19.4	241	16	3.7
2025-11-19T12:00	2640	727	-5.7	-19.5	242	16	3.7
2025-11-19T12:00	2660	725	-5.9	-19.5	243	16	3.7
2025-11-19T12:00	2680	724	-6.0	-19.4	243	16	3.7
2025-11-19T12:00	2700	722	-6.1	-19.0	244	16	3.7
2025-11-19T12:00	2720	720	-6.3	-18.7	244	16	3.7
2025-11-19T12:00	2740	718	-6.4	-18.2	244	16	3.7
2025-11-19T12:00	2760	716	-6.4	-18.1	243	17	3.7
2025-11-19T12:00	2780	714	-6.6	-18.1	243	17	3.7
2025-11-19T12:00	2800	713	-6.8	-18.0	243	17	3.7
2025-11-19T12:00	2820	711	-7.0	-17.8	243	17	3.7
2025-11-19T12:00	2840	709	-7.1	-17.9	243	17	3.7
2025-11-19T12:00	2860	707	-7.3	-17.9	244	17	3.6
2025-11-19T12:00	2880	705	-7.4	-17.9	245	17	3.6
2025-11-19T12:00	2900	703	-7.5	-17.7	245	17	3.6
2025-11-19T12:00	2920	702	-7.6	-18.0	246	17	3.6
2025-11-19T12:00	2940	700	-7.7	-18.3	247	17	3.6
2025-11-19T12:00	2960	698	-7.8	-18.3	248	17	3.6
2025-11-19T12:00	2980	696	-7.9	-18.6	248	18	3.6
2025-11-19T12:00	3000	694	-8.1	-18.6	250	18	3.6
2025-11-19T12:00	3020	693	-8.2	-18.8	251	18	3.6
2025-11-19T12:00	3040	691	-8.4	-19.5	251	18	3.6
2025-11-19T12:00	3060	689	-8.5	-20.3	252	18	3.6
2025-11-19T12:00	3080	687	-8.5	-21.1	252	19	3.6
2025-11-19T12:00	3100	686	-8.6	-22.9	253	19	3.6
2025-11-19T12:00	3120	684	-8.6	-23.3	253	19	3.6
2025-11-19T12:00	3140	682	-8.6	-23.2	254	20	3.5
2025-11-19T12:00	3160	680	-8.7	-23.1	254	20	3.5
2025-11-19T12:00	3180	679	-8.8	-22.4	254	21	3.5
2025-11-19T12:00	3200	677	-8.9	-21.5	254	21	3.5
2025-11-19T12:00	3220	675	-8.9	-20.7	254	21	3.5
2025-11-19T12:00	3240	673	-8.9	-20.2	253	21	3.4
2025-11-19T12:00	3260	671	-8.9	-19.6	253	21	3.4
2025-11-19T12:00	3280	670	-9.1	-19.2	253	22	3.4
2025-11-19T12:00	3300	668	-9.2	-19.2	252	22	3.4
2025-11-19T12:00	3320	666	-9.5	-19.2	252	22	3.3
2025-11-19T12:00	3340	664	-9.7	-19.1	252	22	3.3
2025-11-19T12:00	3360	663	-9.8	-19.0	252	22	3.3
2025-11-19T12:00	3380	661	-10.0	-19.0	252	22	3.3
2025-11-19T12:00	3400	660	-10.2	-19.0	253	22	3.2
2025-11-19T12:00	3420	658	-10.4	-19.0	253	21	3.2
2025-11-19T12:00	3440	656	-10.5	-18.9	253	21	3.2
2025-11-19T12:00	3460	654	-10.6	-18.8	254	21	3.2
2025-11-19T12:00	3480	653	-10.8	-18.9	254	21	3.2
2025-11-19T12:00	3500	651	-11.0	-18.9	254	21	3.2
2025-11-19T12:00	3520	649	-11.2	-18.9	254	21	3.1
2025-11-19T12:00	3540	647	-11.4	-18.9	254	22	3.2
2025-11-19T12:00	3560	646	-11.5	-18.8	254	22	3.1
2025-11-19T12:00	3580	644	-11.7	-18.7	253	22	3.1
2025-11-19T12:00	3600	642	-11.9	-18.3	253	22	3.1
2025-11-19T12:00	3620	641	-12.1	-18.3	253	23	3.1
2025-11-19T12:00	3640	639	-12.2	-18.2	253	23	3.1
2025-11-19T12:00	3660	638	-12.4	-18.1	253	23	3.1
2025-11-19T12:00	3680	636	-12.5	-17.9	252	24	3.0
2025-11-19T12:00	3700	634	-12.8	-17.7	252	24	3.0
2025-11-19T12:00	3720	632	-12.9	-17.6	252	24	2.9
2025-11-19T12:00	3740	631	-13.1	-17.7	251	24	2.9
2025-11-19T12:00	3760	629	-13.2	-17.7	251	24	2.8
2025-11-19T12:00	3780	628	-13.5	-17.8	251	24	2.8
2025-11-19T12:00	3800	626	-13.7	-17.8	251	24	2.8
2025-11-19T12:00	3820	624	-13.8	-17.9	250	24	2.7
2025-11-19T12:00	3840	622	-14.0	-17.9	250	24	2.7
2025-11-19T12:00	3860	621	-14.1	-17.8	250	24	2.7
2025-11-19T12:00	3880	619	-14.4	-17.9	250	24	2.6
2025-11-19T12:00	3900	618	-14.5	-18.0	250	23	2.6
2025-11-19T12:00	3920	616	-14.7	-18.1	250	23	2.6
2025-11-19T12:00	3940	614	-14.9	-18.2	251	23	2.6
2025-11-19T12:00	3960	613	-15.1	-18.2	251	22	2.6
2025-11-19T12:00	3980	611	-15.3	-18.2	251	22	2.6
2025-11-19T12:00	4000	610	-15.4	-18.6	251	22	2.6
2025-11-19T12:00	4020	608	-15.5	-19.0	251	22	2.6
2025-11-19T12:00	4040	606	-15.7	-19.4	251	22	2.6
2025-11-19T12:00	4060	605	-15.8	-19.9	251	22	2.6
2025-11-19T12:00	4080	603	-16.0	-20.1	252	22	2.6
2025-11-19T12:00	4100	601	-16.1	-20.3	252	22	2.6
2025-11-19T12:00	4120	600	-16.3	-20.5	251	22	2.6
2025-11-19T12:00	4140	598	-16.5	-20.9	251	22	2.6
2025-11-19T12:00	4160	597	-16.6	-21.2	251	22	2.6
2025-11-19T12:00	4180	595	-16.7	-21.3	251	22	2.6
2025-11-19T12:00	4200	594	-16.9	-21.3	251	22	2.7
2025-11-19T12:00	4220	592	-17.1	-21.5	251	22	2.7
2025-11-19T12:00	4240	590	-17.3	-21.6	251	22	2.7
2025-11-19T12:00	4260	589	-17.4	-21.7	251	22	2.7
2025-11-19T12:00	4280	587	-17.6	-21.6	251	22	2.7
2025-11-19T12:00	4300	586	-17.8	-21.8	252	22	2.7
2025-11-19T12:00	4320	584	-18.0	-22.0	252	22	2.7
2025-11-19T12:00	4340	583	-18.2	-22.0	252	22	2.7
2025-11-19T12:00	4360	581	-18.4	-22.1	252	22	2.7
2025-11-19T12:00	4380	580	-18.6	-22.3	251	22	2.7
2025-11-19T12:00	4400	578	-18.8	-22.4	251	22	2.7
2025-11-19T12:00	4420	576	-18.9	-22.3	250	22	2.7
2025-11-19T12:00	4440	575	-19.1	-22.4	249	22	2.7
2025-11-19T12:00	4460	574	-19.2	-22.6	248	22	2.7
2025-11-19T12:00	4480	572	-19.4	-23.1	247	22	2.7
2025-11-19T12:00	4500	570	-19.5	-24.0	246	22	2.7
2025-11-19T12:00	4520	569	-19.5	-24.8	246	21	2.7
2025-11-19T12:00	4540	567	-19.5	-25.7	245	22	2.7
2025-11-19T12:00	4560	566	-19.7	-26.2	245	21	2.7
2025-11-19T12:00	4580	564	-19.7	-26.3	244	22	2.7
2025-11-19T12:00	4600	563	-19.8	-26.3	245	22	2.7
2025-11-19T12:00	4620	561	-19.9	-26.4	245	22	2.8
2025-11-19T12:00	4640	560	-20.0	-27.0	246	22	2.8
2025-11-19T12:00	4660	558	-19.9	-28.4	247	22	2.8
2025-11-19T12:00	4680	556	-19.9	-28.6	248	22	2.7
2025-11-19T12:00	4700	555	-19.9	-28.7	249	22	2.7
2025-11-19T12:00	4720	554	-19.9	-28.6	251	22	2.8
2025-11-19T12:00	4740	552	-20.1	-28.5	252	22	2.8
2025-11-19T12:00	4760	551	-20.3	-28.4	253	22	2.7
2025-11-19T12:00	4780	549	-20.4	-28.7	253	22	2.7
2025-11-19T12:00	4800	548	-20.6	-29.2	253	21	2.7
2025-11-19T12:00	4820	546	-20.6	-29.7	253	22	2.7
2025-11-19T12:00	4840	545	-20.6	-29.5	253	22	2.7
2025-11-19T12:00	4860	543	-20.7	-29.6	252	22	2.7
2025-11-19T12:00	4880	542	-20.8	-30.1	252	22	2.7
2025-11-19T12:00	4900	540	-20.8	-32.1	252	22	2.7
2025-11-19T12:00	4920	539	-20.7	-33.8	252	22	2.7
2025-11-19T12:00	4940	537	-20.9	-33.5	253	21	2.7
2025-11-19T12:00	4960	536	-21.1	-33.5	253	21	2.7
2025-11-19T12:00	4980	535	-21.1	-33.3	254	21	2.7
2025-11-19T12:00	5000	533	-21.1	-33.1	254	21	2.7
2025-11-19T12:00	5020	532	-21.3	-33.0	255	21	2.7
2025-11-19T12:00	5040	530	-21.5	-33.5	255	20	2.7
2025-11-19T12:00	5060	529	-21.6	-34.6	256	20	2.7
2025-11-19T12:00	5080	527	-21.6	-35.2	257	20	2.7
2025-11-19T12:00	5100	526	-21.8	-36.1	257	20	2.7
2025-11-19T12:00	5120	525	-21.8	-37.3	258	20	2.7
2025-11-19T12:00	5140	523	-21.8	-37.4	257	20	2.7
2025-11-19T12:00	5160	522	-22.0	-37.3	256	20	2.7
2025-11-19T12:00	5180	520	-22.2	-37.4	255	20	2.8
2025-11-19T12:00	5200	519	-22.3	-37.6	253	21	2.7
2025-11-19T12:00	5220	517	-22.3	-38.2	252	21	2.8
2025-11-19T12:00	5240	516	-22.4	-38.8	252	21	2.8
2025-11-19T12:00	5260	515	-22.6	-39.2	251	21	2.8
2025-11-19T12:00	5280	513	-22.6	-40.0	250	21	2.8
2025-11-19T12:00	5300	512	-22.7	-40.6	250	21	2.8
2025-11-19T12:00	5320	511	-22.8	-40.9	250	20	2.8
2025-11-19T12:00	5340	509	-23.0	-41.8	250	20	2.8
2025-11-19T12:00	5360	508	-23.1	-42.5	251	20	2.8
2025-11-19T12:00	5380	506	-23.2	-42.3	251	20	2.8
2025-11-19T12:00	5400	505	-23.3	-42.1	252	20	2.8
2025-11-19T12:00	5420	503	-23.5	-42.1	252	20	2.8
2025-11-19T12:00	5440	502	-23.5	-42.3	252	21	2.8
2025-11-19T12:00	5460	501	-23.5	-41.2	251	21	2.8
2025-11-19T12:00	5480	499	-23.7	-40.3	251	21	2.8
2025-11-19T12:00	5500	498	-23.9	-40.1	250	21	2.8
2025-11-19T12:00	5520	497	-24.1	-40.5	250	21	2.8
2025-11-19T12:00	5540	495	-24.3	-41.2	249	21	2.7
2025-11-19T12:00	5560	494	-24.3	-41.2	249	22	2.7
2025-11-19T12:00	5580	492	-24.3	-39.8	249	21	2.7
2025-11-19T12:00	5600	491	-24.5	-40.3	249	21	2.7
2025-11-19T12:00	5620	490	-24.7	-40.1	249	21	2.7
2025-11-19T12:00	5640	488	-24.8	-39.0	249	21	2.7
2025-11-19T12:00	5660	487	-25.0	-39.0	248	21	2.7
2025-11-19T12:00	5680	486	-25.2	-38.9	248	21	2.7
2025-11-19T12:00	5700	485	-25.3	-38.7	248	21	2.7
2025-11-19T12:00	5720	483	-25.5	-38.8	247	21	2.6
2025-11-19T12:00	5740	482	-25.7	-38.9	248	22	2.6
2025-11-19T12:00	5760	480	-25.9	-38.9	248	22	2.6
2025-11-19T12:00	5780	479	-26.1	-40.2	249	22	2.6
2025-11-19T12:00	5800	478	-26.1	-41.7	249	22	2.6
2025-11-19T12:00	5820	476	-26.3	-41.5	250	22	2.6
2025-11-19T12:00	5840	475	-26.4	-42.1	249	22	2.6
2025-11-19T12:00	5860	474	-26.6	-43.2	249	21	2.7
2025-11-19T12:00	5880	472	-26.7	-43.4	248	21	2.7
2025-11-19T12:00	5900	471	-26.8	-43.0	248	21	2.7
2025-11-19T12:00	5920	470	-27.0	-42.7	248	21	2.7
2025-11-19T12:00	5940	469	-27.1	-43.3	248	21	2.7
2025-11-19T12:00	5960	467	-27.3	-43.2	248	21	2.7
2025-11-19T12:00	5980	466	-27.4	-42.5	248	21	2.7
2025-11-19T12:00	6000	465	-27.6	-41.8	248	21	2.7
2025-11-19T12:00	6020	463	-27.7	-41.9	248	21	2.7
2025-11-19T12:00	6040	462	-27.9	-41.8	248	21	2.6
2025-11-19T12:00	6060	461	-28.2	-41.2	247	21	2.6
2025-11-19T12:00	6080	460	-28.4	-40.4	247	21	2.6
2025-11-19T12:00	6100	458	-28.5	-40.5	247	21	2.6
2025-11-19T12:00	6120	457	-28.8	-40.6	247	22	2.6
2025-11-19T12:00	6140	456	-28.9	-40.7	248	22	2.6
2025-11-19T12:00	6160	454	-29.1	-41.0	249	22	2.5
2025-11-19T12:00	6180	453	-29.3	-41.3	250	22	2.5
2025-11-19T12:00	6200	452	-29.4	-41.3	251	22	2.5
2025-11-19T12:00	6220	451	-29.7	-41.3	252	22	2.5
2025-11-19T12:00	6240	449	-29.8	-41.6	253	22	2.5
2025-11-19T12:00	6260	448	-29.9	-42.0	253	21	2.5
2025-11-19T12:00	6280	447	-30.1	-41.7	253	21	2.5
2025-11-19T12:00	6300	446	-30.3	-41.6	253	21	2.5
2025-11-19T12:00	6320	444	-30.5	-41.8	253	21	2.4
2025-11-19T12:00	6340	443	-30.6	-41.7	252	21	2.4
2025-11-19T12:00	6360	442	-30.8	-41.7	252	21	2.4
2025-11-19T12:00	6380	441	-30.9	-41.6	251	21	2.4
2025-11-19T12:00	6400	439	-31.1	-41.3	250	21	2.4
2025-11-19T12:00	6420	438	-31.3	-41.1	250	22	2.4
2025-11-19T12:00	6440	437	-31.6	-41.3	250	22	2.4
2025-11-19T12:00	6460	436	-31.7	-41.7	250	22	2.4
2025-11-19T12:00	6480	434	-31.9	-41.9	250	22	2.4
2025-11-19T12:00	6500	433	-32.0	-41.9	250	22	2.4
2025-11-19T12:00	6520	432	-32.2	-42.2	250	22	2.3
2025-11-19T12:00	6540	431	-32.4	-42.8	251	22	2.3
2025-11-19T12:00	6560	430	-32.6	-43.5	251	22	2.3
2025-11-19T12:00	6580	428	-32.7	-43.9	252	22	2.3
2025-11-19T12:00	6600	427	-32.9	-44.6	252	22	2.3
2025-11-19T12:00	6620	426	-33.0	-45.1	253	22	2.3
2025-11-19T12:00	6640	425	-33.2	-46.4	254	22	2.3
2025-11-19T12:00	6660	424	-33.4	-46.7	254	22	2.3
2025-11-19T12:00	6680	422	-33.5	-44.2	254	22	2.3
2025-11-19T12:00	6700	421	-33.7	-42.4	255	21	2.3
2025-11-19T12:00	6720	420	-33.9	-42.7	255	21	2.3
2025-11-19T12:00	6740	419	-34.0	-42.8	255	21	2.3
2025-11-19T12:00	6760	418	-34.2	-43.0	255	21	2.4
2025-11-19T12:00	6780	416	-34.2	-44.1	255	21	2.4
2025-11-19T12:00	6800	415	-34.3	-45.8	254	20	2.4
2025-11-19T12:00	6820	414	-34.4	-46.3	253	20	2.3
2025-11-19T12:00	6840	413	-34.5	-46.3	252	20	2.3
2025-11-19T12:00	6860	412	-34.6	-46.5	250	20	2.4
2025-11-19T12:00	6880	410	-34.6	-47.9	249	20	2.4
2025-11-19T12:00	6900	409	-34.6	-44.8	248	20	2.4
2025-11-19T12:00	6920	408	-34.7	-46.2	248	20	2.4
2025-11-19T12:00	6940	407	-34.7	-47.1	247	20	2.3
2025-11-19T12:00	6960	406	-34.9	-45.7	248	20	2.3
2025-11-19T12:00	6980	405	-35.0	-47.9	248	20	2.3
2025-11-19T12:00	7000	403	-35.1	-47.6	248	20	2.3
2025-11-19T12:00	7020	402	-35.2	-46.1	247	20	2.3
2025-11-19T12:00	7040	401	-35.3	-46.2	247	20	2.2
2025-11-19T12:00	7060	400	-35.5	-45.2	247	20	2.2
2025-11-19T12:00	7080	399	-35.6	-44.6	247	21	2.2
2025-11-19T12:00	7100	398	-35.7	-45.3	247	21	2.1
2025-11-19T12:00	7120	397	-35.8	-46.1	247	21	2.1
2025-11-19T12:00	7140	395	-36.0	-46.1	247	21	2.0
2025-11-19T12:00	7160	394	-36.1	-46.6	247	21	2.0
2025-11-19T12:00	7180	393	-36.2	-47.1	247	22	2.0
2025-11-19T12:00	7200	392	-36.4	-47.1	247	22	1.9
2025-11-19T12:00	7220	391	-36.6	-47.3	248	22	1.9
2025-11-19T12:00	7240	390	-36.7	-47.8	248	22	1.9
2025-11-19T12:00	7260	388	-36.8	-48.5	249	22	1.9
2025-11-19T12:00	7280	387	-37.0	-47.8	249	22	1.9
2025-11-19T12:00	7300	386	-37.1	-47.9	249	22	1.8
2025-11-19T12:00	7320	385	-37.3	-48.6	250	22	1.8
2025-11-19T12:00	7340	384	-37.3	-51.4	250	22	1.8
2025-11-19T12:00	7360	383	-37.4	-52.1	249	22	1.8
2025-11-19T12:00	7380	382	-37.4	-50.6	249	22	1.8
2025-11-19T12:00	7400	381	-37.6	-50.0	248	22	1.8
2025-11-19T12:00	7420	380	-37.8	-49.8	248	22	1.8
2025-11-19T12:00	7440	379	-37.9	-49.9	247	22	1.8
2025-11-19T12:00	7460	377	-38.1	-50.0	246	22	1.8
2025-11-19T12:00	7480	376	-38.3	-49.8	246	22	1.8
2025-11-19T12:00	7500	375	-38.5	-52.1	246	22	1.8
2025-11-19T12:00	7520	374	-38.7	-51.0	246	22	1.8
2025-11-19T12:00	7540	373	-38.9	-48.5	246	22	1.8
2025-11-19T12:00	7560	372	-39.1	-49.0	247	22	1.8
2025-11-19T12:00	7580	371	-39.2	-50.7	247	22	1.8
2025-11-19T12:00	7600	370	-39.4	-50.2	248	22	1.8
2025-11-19T12:00	7620	369	-39.6	-51.2	248	23	1.8
2025-11-19T12:00	7640	368	-39.8	-50.9	248	23	1.8
2025-11-19T12:00	7660	367	-40.0	-49.8	248	23	1.8
2025-11-19T12:00	7680	365	-40.2	-49.7	248	23	1.8
2025-11-19T12:00	7700	364	-40.2	-48.1	248	23	1.8
2025-11-19T12:00	7720	363	-40.3	-46.6	248	23	1.7
2025-11-19T12:00	7740	362	-40.4	-46.2	248	23	1.7
2025-11-19T12:00	7760	361	-40.6	-46.3	248	23	1.7
2025-11-19T12:00	7780	360	-40.8	-46.3	248	23	1.7
2025-11-19T12:00	7800	359	-40.9	-46.3	248	23	1.7
2025-11-19T12:00	7820	358	-41.2	-46.6	249	23	1.7
2025-11-19T12:00	7840	357	-41.3	-46.8	249	23	1.7
2025-11-19T12:00	7860	356	-41.5	-46.7	249	23	1.7
2025-11-19T12:00	7880	355	-41.7	-46.4	250	23	1.7
2025-11-19T12:00	7900	354	-41.8	-46.4	250	23	1.7
2025-11-19T12:00	7920	353	-42.0	-46.6	249	23	1.7
2025-11-19T12:00	7940	352	-42.2	-46.7	249	23	1.7
2025-11-19T12:00	7960	351	-42.3	-47.0	249	23	1.7
2025-11-19T12:00	7980	350	-42.5	-46.9	250	23	1.7
2025-11-19T12:00	8000	349	-42.6	-46.6	250	23	1.7
2025-11-19T12:00	8020	348	-42.5	-46.3	251	23	1.7
2025-11-19T12:00	8040	347	-42.7	-46.2	252	23	1.7
2025-11-19T12:00	8060	346	-42.9	-46.0	253	24	1.7
2025-11-19T12:00	8080	345	-42.9	-46.0	253	24	1.7
2025-11-19T12:00	8100	344	-43.1	-46.2	253	24	1.7
2025-11-19T12:00	8120	343	-43.3	-46.5	253	24	1.7
2025-11-19T12:00	8140	342	-43.5	-46.7	252	24	1.7
2025-11-19T12:00	8160	341	-43.7	-46.9	252	24	1.7
2025-11-19T12:00	8180	339	-43.8	-47.1	251	24	1.7
2025-11-19T12:00	8200	338	-44.0	-47.5	250	23	1.6
2025-11-19T12:00	8220	337	-44.2	-47.6	250	23	1.6
2025-11-19T12:00	8240	336	-44.4	-47.6	250	23	1.6
2025-11-19T12:00	8260	335	-44.6	-47.7	249	23	1.6
2025-11-19T12:00	8280	335	-44.7	-47.8	249	22	1.6
2025-11-19T12:00	8300	333	-44.9	-47.9	249	22	1.6
2025-11-19T12:00	8320	332	-45.0	-47.7	249	22	1.6
2025-11-19T12:00	8340	331	-45.0	-48.0	249	22	1.6
2025-11-19T12:00	8360	331	-45.1	-48.2	249	22	1.6
2025-11-19T12:00	8380	329	-45.2	-48.4	249	23	1.6
2025-11-19T12:00	8400	328	-45.3	-48.8	249	23	1.6
2025-11-19T12:00	8420	327	-45.6	-48.9	250	24	1.6
2025-11-19T12:00	8440	327	-45.9	-48.9	250	24	1.6
2025-11-19T12:00	8460	326	-46.0	-49.3	250	25	1.6
2025-11-19T12:00	8480	325	-46.1	-49.4	250	25	1.6
2025-11-19T12:00	8500	324	-46.1	-49.5	250	25	1.6
2025-11-19T12:00	8520	323	-46.2	-49.6	250	24	1.6
2025-11-19T12:00	8540	322	-46.2	-49.5	251	24	1.6
2025-11-19T12:00	8560	321	-46.3	-49.6	251	24	1.6
2025-11-19T12:00	8580	320	-46.5	-50.0	252	24	1.6
2025-11-19T12:00	8600	319	-46.6	-50.3	253	23	1.6
2025-11-19T12:00	8620	318	-46.8	-50.5	253	23	1.6
2025-11-19T12:00	8640	317	-47.0	-50.8	254	23	1.5
2025-11-19T12:00	8660	316	-47.1	-51.2	254	24	1.5
2025-11-19T12:00	8680	315	-47.2	-51.4	254	24	1.5
2025-11-19T12:00	8700	314	-47.2	-51.3	253	24	1.5
2025-11-19T12:00	8720	313	-47.3	-51.3	253	24	1.5
2025-11-19T12:00	8740	312	-47.4	-51.3	252	24	1.5
2025-11-19T12:00	8760	311	-47.5	-51.6	252	25	1.5
2025-11-19T12:00	8780	310	-47.6	-51.9	252	25	1.5
2025-11-19T12:00	8800	309	-47.7	-52.2	251	25	1.5
2025-11-19T12:00	8820	308	-47.8	-52.2	251	26	1.5
2025-11-19T12:00	8840	307	-47.9	-51.9	250	26	1.5
2025-11-19T12:00	8860	306	-48.1	-51.7	248	26	1.6
2025-11-19T12:00	8880	305	-48.2	-51.7	248	26	1.6
2025-11-19T12:00	8900	305	-48.3	-51.9	247	26	1.6
2025-11-19T12:00	8920	304	-48.4	-52.4	246	26	1.7
2025-11-19T12:00	8940	303	-48.5	-52.4	246	26	1.7
2025-11-19T12:00	8960	302	-48.7	-52.2	245	26	1.7
2025-11-19T12:00	8980	301	-48.8	-52.4	245	26	1.7
2025-11-19T12:00	9000	300	-49.0	-52.6	246	26	1.8
2025-11-19T12:00	9020	299	-49.2	-52.5	246	27	1.8
2025-11-19T12:00	9040	298	-49.3	-52.8	247	27	1.7
2025-11-19T12:00	9060	297	-49.3	-52.8	247	27	1.7
2025-11-19T12:00	9080	296	-49.3	-52.9	247	27	1.7
2025-11-19T12:00	9100	295	-49.5	-53.1	247	27	1.7
2025-11-19T12:00	9120	295	-49.6	-53.3	247	27	1.7
2025-11-19T12:00	9140	294	-49.8	-53.7	247	27	1.7
2025-11-19T12:00	9160	293	-49.9	-54.2	247	28	1.7
2025-11-19T12:00	9180	292	-50.0	-54.6	247	28	1.7
2025-11-19T12:00	9200	291	-50.2	-54.9	247	28	1.8
2025-11-19T12:00	9220	290	-50.2	-55.0	246	29	1.8
2025-11-19T12:00	9240	289	-50.3	-54.9	246	29	1.8
2025-11-19T12:00	9260	288	-50.5	-54.6	246	30	1.9
2025-11-19T12:00	9280	287	-50.6	-54.4	245	30	1.9
2025-11-19T12:00	9300	287	-50.5	-54.3	245	31	1.9
2025-11-19T12:00	9320	286	-50.7	-54.4	245	31	1.9
2025-11-19T12:00	9340	285	-50.9	-54.7	245	31	2.0
2025-11-19T12:00	9360	284	-51.0	-54.9	244	32	2.0
2025-11-19T12:00	9380	283	-51.1	-55.2	244	32	2.0
2025-11-19T12:00	9400	282	-51.2	-55.5	244	32	2.0
2025-11-19T12:00	9420	281	-51.4	-55.4	244	33	2.0
2025-11-19T12:00	9440	281	-51.5	-55.4	244	33	2.0
2025-11-19T12:00	9460	280	-51.7	-55.6	244	33	2.0
2025-11-19T12:00	9480	279	-51.8	-55.9	244	33	2.0
2025-11-19T12:00	9500	278	-51.8	-56.1	244	33	2.0
2025-11-19T12:00	9520	277	-51.9	-56.2	244	33	2.0
2025-11-19T12:00	9540	276	-52.0	-56.5	244	33	2.0
2025-11-19T12:00	9560	275	-52.1	-56.6	244	33	2.0
2025-11-19T12:00	9580	274	-52.3	-56.6	244	33	1.9
2025-11-19T12:00	9600	274	-52.5	-56.6	244	34	1.9
2025-11-19T12:00	9620	273	-52.6	-56.7	244	34	1.9
2025-11-19T12:00	9640	272	-52.8	-57.0	244	34	1.9
2025-11-19T12:00	9660	271	-53.0	-57.3	244	34	1.9
2025-11-19T12:00	9680	270	-53.1	-57.8	244	34	1.8
2025-11-19T12:00	9700	269	-53.3	-58.1	244	34	1.8
2025-11-19T12:00	9720	269	-53.6	-58.2	244	34	1.8
2025-11-19T12:00	9740	268	-53.7	-58.0	245	34	1.8
2025-11-19T12:00	9760	267	-53.8	-57.9	245	34	1.7
2025-11-19T12:00	9780	266	-54.0	-58.2	245	34	1.7
2025-11-19T12:00	9800	265	-54.2	-58.3	245	34	1.7
2025-11-19T12:00	9820	264	-54.3	-58.4	245	34	1.7
2025-11-19T12:00	9840	264	-54.5	-58.7	244	34	1.7
2025-11-19T12:00	9860	263	-54.6	-58.9	244	34	1.6
2025-11-19T12:00	9880	262	-54.6	-59.2	244	34	1.6
2025-11-19T12:00	9900	261	-54.8	-59.4	243	34	1.6
2025-11-19T12:00	9920	260	-55.1	-59.5	244	33	1.6
2025-11-19T12:00	9940	259	-55.3	-59.5	244	33	1.6
2025-11-19T12:00	9960	259	-55.5	-59.5	244	33	1.6
2025-11-19T12:00	9980	258	-55.8	-59.8	244	33	1.6
2025-11-19T12:00	10000	257	-55.8	-60.1	244	33	1.6
2025-11-19T12:00	10018	256	-55.9	-60.2	244	33	1.6
2025-11-19T12:00	10050	255	-56.2	-60.5	243	33	1.5
2025-11-19T12:00	10100	253	-56.7	-60.9	242	34	1.5
2025-11-19T12:00	10150	251	-57.1	-61.4	243	34	1.4
2025-11-19T12:00	10200	249	-57.5	-62.1	243	35	1.3
2025-11-19T12:00	10250	247	-58.0	-62.5	243	35	1.2
2025-11-19T12:00	10300	245	-58.5	-63.0	243	36	1.1
2025-11-19T12:00	10350	243	-58.9	-63.1	244	36	1.1
2025-11-19T12:00	10400	241	-59.3	-63.5	244	36	1.0
2025-11-19T12:00	10450	239	-59.6	-64.0	244	37	1.0
2025-11-19T12:00	10500	237	-59.9	-64.4	244	37	1.0
2025-11-19T12:00	10550	235	-60.3	-64.8	244	39	1.0
2025-11-19T12:00	10600	234	-60.7	-65.0	245	40	1.0
2025-11-19T12:00	10650	232	-60.8	-64.9	245	40	1.0
2025-11-19T12:00	10700	230	-61.1	-65.2	245	40	1.0
2025-11-19T12:00	10750	228	-61.5	-65.5	246	40	0.9
2025-11-19T12:00	10800	226	-62.0	-66.2	246	40	0.9
2025-11-19T12:00	10850	224	-62.4	-66.8	247	41	0.9
2025-11-19T12:00	10900	223	-62.7	-67.1	247	42	1.0
2025-11-19T12:00	10950	221	-62.9	-67.1	247	42	1.0
2025-11-19T12:00	11000	219	-63.4	-66.9	247	43	1.0
2025-11-19T12:00	11050	217	-63.7	-67.4	248	43	1.0
2025-11-19T12:00	11100	216	-64.0	-67.8	249	43	1.0
2025-11-19T12:00	11150	214	-64.4	-68.4	250	42	1.0
2025-11-19T12:00	11200	212	-64.6	-68.8	251	42	1.1
2025-11-19T12:00	11250	210	-64.3	-69.2	251	42	1.3
2025-11-19T12:00	11300	209	-64.4	-69.6	252	41	1.7
2025-11-19T12:00	11350	207	-64.6	-70.0	252	39	1.9
2025-11-19T12:00	11400	205	-64.8	-71.1	251	37	2.2
2025-11-19T12:00	11450	203	-64.7	-72.4	250	35	2.4
2025-11-19T12:00	11500	202	-64.1	-74.5	249	34	2.7
2025-11-19T12:00	11550	200	-63.8	-77.3	249	34	3.1
2025-11-19T12:00	11600	199	-63.7	-78.7	248	34	3.6
2025-11-19T12:00	11650	197	-63.7	-78.4	249	34	4.0
2025-11-19T12:00	11700	195	-63.2	-77.8	251	34	4.2
2025-11-19T12:00	11750	194	-62.4	-76.9	253	34	4.2
2025-11-19T12:00	11800	192	-62.5	-77.8	254	34	4.3
2025-11-19T12:00	11850	191	-62.9	-78.4	254	33	4.3
2025-11-19T12:00	11900	189	-63.2	-79.4	253	32	4.5
2025-11-19T12:00	11950	188	-62.9	-79.8	252	31	4.6
2025-11-19T12:00	12000	186	-62.7	-79.4	251	31	4.7
2025-11-19T12:00	12050	185	-62.7	-78.7	249	32	4.6
2025-11-19T12:00	12100	183	-62.6	-78.5	247	33	4.6
2025-11-19T12:00	12150	182	-62.5	-78.5	246	33	4.4
2025-11-19T12:00	12200	180	-62.1	-79.0	248	33	4.3
2025-11-19T12:00	12250	179	-61.2	-79.5	252	33	4.2
2025-11-19T12:00	12300	177	-60.5	-79.8	255	33	4.2
2025-11-19T12:00	12350	176	-60.5	-79.7	257	33	4.2
2025-11-19T12:00	12400	174	-60.8	-79.5	256	32	4.1
2025-11-19T12:00	12450	173	-61.1	-79.3	254	32	3.9
2025-11-19T12:00	12500	172	-61.2	-79.5	253	31	3.6
2025-11-19T12:00	12550	170	-60.6	-79.9	253	31	3.5
2025-11-19T12:00	12600	169	-60.1	-80.3	253	31	3.4
2025-11-19T12:00	12650	168	-59.7	-80.7	251	31	3.4
2025-11-19T12:00	12700	166	-59.9	-81.0	249	31	3.7
2025-11-19T12:00	12750	165	-59.8	-81.3	250	32	4.1
2025-11-19T12:00	12800	164	-59.1	-81.3	252	32	4.3
2025-11-19T12:00	12850	162	-59.0	-81.4	254	32	4.5
2025-11-19T12:00	12900	161	-58.9	-81.4	255	31	4.7
2025-11-19T12:00	12950	160	-58.6	-81.5	255	30	4.8
2025-11-19T12:00	13000	158	-58.7	-81.5	255	30	5.1
2025-11-19T12:00	13050	157	-59.1	-81.6	256	29	5.4
2025-11-19T12:00	13100	156	-59.2	-81.5	257	29	5.5
2025-11-19T12:00	13150	155	-59.1	-81.5	258	29	5.4
2025-11-19T12:00	13200	153	-59.1	-81.6	259	29	5.2
2025-11-19T12:00	13250	152	-59.4	-81.6	259	29	5.1
2025-11-19T12:00	13300	151	-59.7	-81.7	257	29	4.9
2025-11-19T12:00	13350	150	-59.8	-81.9	257	29	4.8
2025-11-19T12:00	13400	149	-59.9	-81.9	257	29	4.7
2025-11-19T12:00	13450	148	-60.1	-82.1	259	29	4.7
2025-11-19T12:00	13500	146	-59.9	-82.2	260	30	4.7
2025-11-19T12:00	13550	145	-59.8	-82.1	262	29	5.1
2025-11-19T12:00	13600	144	-60.0	-82.3	263	29	5.5
2025-11-19T12:00	13650	143	-60.1	-82.4	261	29	5.7
2025-11-19T12:00	13700	142	-60.3	-82.4	258	30	5.8
2025-11-19T12:00	13750	141	-60.4	-82.5	256	31	6.1
2025-11-19T12:00	13800	139	-60.4	-82.6	258	30	6.3
2025-11-19T12:00	13850	138	-60.3	-82.7	261	29	6.5
2025-11-19T12:00	13900	137	-60.1	-82.8	264	29	6.9
2025-11-19T12:00	13950	136	-60.0	-82.7	267	28	7.1
2025-11-19T12:00	14000	135	-60.4	-82.8	267	26	7.3
2025-11-19T12:00	14050	134	-60.6	-82.8	266	25	7.3
2025-11-19T12:00	14100	133	-60.5	-82.9	265	25	7.1
2025-11-19T12:00	14150	132	-60.2	-82.9	264	25	7.0
2025-11-19T12:00	14200	131	-59.9	-82.9	264	25	7.1
2025-11-19T12:00	14250	130	-60.1	-83.0	262	25	7.0
2025-11-19T12:00	14300	129	-60.0	-82.9	260	25	7.0
2025-11-19T12:00	14350	128	-60.0	-82.9	258	24	7.1
2025-11-19T12:00	14400	127	-60.4	-83.0	256	24	7.2
2025-11-19T12:00	14450	126	-60.6	-83.1	256	24	7.1
2025-11-19T12:00	14500	125	-60.6	-83.3	258	24	7.1
2025-11-19T12:00	14550	124	-60.3	-83.2	262	24	7.2
2025-11-19T12:00	14600	123	-60.1	-83.1	265	24	7.4
2025-11-19T12:00	14650	122	-60.2	-83.3	263	24	7.6
2025-11-19T12:00	14700	121	-59.9	-83.2	261	25	7.7
2025-11-19T12:00	14750	120	-60.0	-83.3	260	25	8.0
2025-11-19T12:00	14800	119	-60.1	-83.4	258	25	8.1
2025-11-19T12:00	14850	118	-60.0	-83.5	258	25	8.3
2025-11-19T12:00	14900	117	-59.7	-83.4	259	26	8.9
2025-11-19T12:00	14950	116	-59.8	-83.5	261	26	9.6
2025-11-19T12:00	15000	115	-60.1	-83.5	263	27	10.2
2025-11-19T12:00	15050	114	-60.2	-83.6	263	26	10.5
2025-11-19T12:00	15100	113	-59.9	-83.6	264	24	10.7
2025-11-19T12:00	15150	112	-60.0	-83.7	264	23	11.0
2025-11-19T12:00	15200	111	-60.0	-83.6	263	22	11.2
2025-11-19T12:00	15250	110	-60.2	-83.7	262	22	11.0
2025-11-19T12:00	15300	110	-60.3	-83.8	259	22	10.8
2025-11-19T12:00	15350	109	-60.5	-83.8	258	23	10.4
2025-11-19T12:00	15400	108	-60.4	-83.8	257	23	10.2
2025-11-19T12:00	15450	107	-60.4	-83.9	257	23	10.2
2025-11-19T12:00	15500	106	-60.1	-83.9	258	24	10.6
2025-11-19T12:00	15550	105	-59.9	-83.9	258	24	11.2
2025-11-19T12:00	15600	104	-60.1	-83.9	257	25	11.5
2025-11-19T12:00	15650	104	-60.2	-84.0	256	26	11.7
2025-11-19T12:00	15700	103	-60.1	-83.9	257	26	11.9
2025-11-19T12:00	15750	102	-60.4	-84.0	258	26	12.3
2025-11-19T12:00	15800	101	-60.7	-84.1	260	25	12.4
2025-11-19T12:00	15850	100	-60.9	-84.1	261	26	12.4
2025-11-19T12:00	15900	100	-61.1	-84.3	261	26	12.4
2025-11-19T12:00	15950	99	-61.2	-84.3	261	25	12.3
2025-11-19T12:00	16000	98	-61.3	-84.3	260	24	12.2
2025-11-19T12:00	16050	97	-61.4	-84.4	258	23	11.9
2025-11-19T12:00	16100	96	-61.6	-84.4	257	23	11.8
2025-11-19T12:00	16150	96	-61.7	-84.5	256	23	11.3
2025-11-19T12:00	16200	95	-61.9	-84.6	256	24	10.4
2025-11-19T12:00	16250	94	-62.1	-84.7	257	24	9.5
2025-11-19T12:00	16300	93	-62.2	-84.7	259	25	9.6
2025-11-19T12:00	16350	93	-62.1	-84.7	259	25	9.5
2025-11-19T12:00	16400	92	-62.2	-84.8	257	26	9.3
2025-11-19T12:00	16450	91	-62.3	-84.8	258	26	9.1
2025-11-19T12:00	16500	90	-62.5	-84.8	260	26	8.6
2025-11-19T12:00	16550	90	-62.8	-84.9	259	26	8.3
2025-11-19T12:00	16600	89	-63.1	-85.0	257	27	8.3
2025-11-19T12:00	16650	88	-63.3	-85.1	256	29	8.1
2025-11-19T12:00	16700	87	-63.3	-85.2	256	30	7.8
2025-11-19T12:00	16750	87	-63.5	-85.3	258	31	8.1
2025-11-19T12:00	16800	86	-63.5	-85.4	260	31	8.1
2025-11-19T12:00	16850	85	-63.3	-85.4	262	30	7.7
2025-11-19T12:00	16900	85	-63.3	-85.4	263	30	7.9
2025-11-19T12:00	16950	84	-63.4	-85.4	264	29	8.1
2025-11-19T12:00	17000	83	-63.7	-85.4	264	28	8.3
2025-11-19T12:00	17050	83	-64.0	-85.5	264	27	8.3
2025-11-19T12:00	17100	82	-64.2	-85.6	264	26	8.3
2025-11-19T12:00	17150	81	-64.4	-85.7	264	25	8.1
2025-11-19T12:00	17200	81	-64.0	-85.7	263	25	7.9
2025-11-19T12:00	17250	80	-63.9	-85.8	262	25	8.0
2025-11-19T12:00	17300	79	-63.8	-85.9	260	24	7.8
2025-11-19T12:00	17350	79	-63.5	-85.8	258	24	7.7
2025-11-19T12:00	17400	78	-63.4	-85.8	256	24	7.7
2025-11-19T12:00	17450	77	-63.5	-85.7	254	24	7.6
2025-11-19T12:00	17500	77	-63.7	-85.8	252	25	7.3
2025-11-19T12:00	17550	76	-63.9	-85.8	253	26	7.2
2025-11-19T12:00	17600	75	-64.2	-85.9	253	27	7.4
2025-11-19T12:00	17650	75	-64.3	-86.0	253	27	7.6
2025-11-19T12:00	17700	74	-64.3	-86.2	253	27	7.7
2025-11-19T12:00	17750	74	-64.2	-86.2	254	27	7.9
2025-11-19T12:00	17800	73	-63.9	-86.1	257	27	8.1
2025-11-19T12:00	17850	72	-64.0	-86.2	261	27	8.4
2025-11-19T12:00	17900	72	-64.2	-86.2	264	27	8.7
2025-11-19T12:00	17950	71	-64.4	-86.2	265	27	8.5
2025-11-19T12:00	18000	71	-64.7	-86.3	263	27	8.3
2025-11-19T12:00	18050	70	-65.0	-86.4	261	28	8.2
2025-11-19T12:00	18100	70	-65.3	-86.5	259	27	8.1
2025-11-19T12:00	18150	69	-65.4	-86.6	256	27	8.1
2025-11-19T12:00	18200	68	-65.3	-86.7	255	27	8.1
2025-11-19T12:00	18250	68	-65.4	-86.7	257	27	8.1
2025-11-19T12:00	18300	67	-65.6	-86.8	259	27	8.2
2025-11-19T12:00	18350	67	-65.6	-86.8	260	28	8.2
2025-11-19T12:00	18400	66	-65.7	-86.9	261	29	8.2
2025-11-19T12:00	18450	66	-65.8	-87.0	260	30	8.2
2025-11-19T12:00	18500	65	-65.8	-86.9	259	30	8.2
2025-11-19T12:00	18550	65	-65.8	-86.9	258	29	8.2
2025-11-19T12:00	18600	64	-66.0	-87.0	256	29	8.1
2025-11-19T12:00	18650	64	-66.2	-87.1	257	28	8.2
2025-11-19T12:00	18700	63	-66.4	-87.1	258	28	8.2
2025-11-19T12:00	18750	63	-66.5	-87.1	259	27	8.4
2025-11-19T12:00	18800	62	-66.8	-87.1	260	27	9.1
2025-11-19T12:00	18850	61	-67.2	-87.3	262	27	9.6
2025-11-19T12:00	18900	61	-67.2	-87.4	265	26	10.0
2025-11-19T12:00	18950	60	-67.0	-87.2	265	26	10.4
2025-11-19T12:00	19000	60	-67.0	-87.2	263	25	11.2
2025-11-19T12:00	19050	59	-67.0	-87.2	261	25	11.8
2025-11-19T12:00	19100	59	-66.9	-87.2	259	26	12.3
2025-11-19T12:00	19150	58	-66.7	-87.3	260	27	12.6
2025-11-19T12:00	19200	58	-66.1	-87.2	261	28	12.7
2025-11-19T12:00	19250	58	-65.7	-87.1	263	29	12.8
2025-11-19T12:00	19300	57	-65.6	-87.0	264	29	12.9
2025-11-19T12:00	19350	57	-65.7	-86.9	266	29	12.9
2025-11-19T12:00	19400	56	-66.1	-86.9	267	29	12.9
2025-11-19T12:00	19450	56	-66.4	-87.1	268	28	12.9
2025-11-19T12:00	19500	55	-66.6	-87.2	269	27	12.9
2025-11-19T12:00	19550	55	-66.7	-87.3	270	27	12.9
2025-11-19T12:00	19600	54	-66.5	-87.2	272	26	12.8
2025-11-19T12:00	19650	54	-66.6	-87.3	272	26	12.8
2025-11-19T12:00	19700	53	-66.8	-87.3	272	26	12.8
2025-11-19T12:00	19750	53	-66.9	-87.3	272	26	12.8
2025-11-19T12:00	19800	53	-67.2	-87.4	272	25	12.7
2025-11-19T12:00	19850	52	-67.4	-87.5	273	25	12.7
2025-11-19T12:00	19900	52	-67.9	-87.6	272	25	12.6
2025-11-19T12:00	19950	51	-68.3	-87.8	270	24	12.6
2025-11-19T12:00	20000	51	-68.6	-87.9	267	24	12.5
2025-11-19T12:00	20050	50	-68.5		265	23	12.5
2025-11-19T12:00	20100	50	-68.0		266	24	12.5
2025-11-19T12:00	20150	50	-67.9		269	25	12.5
2025-11-19T12:00	20200	49	-67.9		272	25	12.6
2025-11-19T12:00	20250	49	-68.1		272	25	12.6
2025-11-19T12:00	20300	48	-68.1		269	25	12.6
2025-11-19T12:00	20350	48	-67.5		265	25	12.6
2025-11-19T12:00	20400	48	-67.7		261	24	12.7
2025-11-19T12:00	20450	47	-67.8		256	24	12.8
2025-11-19T12:00	20500	47	-67.4		253	25	13.0
2025-11-19T12:00	20550	46	-66.8		252	25	13.1
2025-11-19T12:00	20600	46	-66.6		252	26	13.2
2025-11-19T12:00	20650	46	-66.7		254	27	13.3
2025-11-19T12:00	20700	45	-66.7		256	27	13.3
2025-11-19T12:00	20750	45	-66.5		257	27	13.4
2025-11-19T12:00	20800	44	-66.5		258	27	13.4
2025-11-19T12:00	20850	44	-66.6		259	28	13.4
2025-11-19T12:00	20900	44	-66.8		260	28	13.3
2025-11-19T12:00	20950	43	-67.0		261	28	13.3
2025-11-19T12:00	21000	43	-67.1		262	28	13.3
2025-11-19T12:00	21050	43	-67.4		263	28	13.2
2025-11-19T12:00	21100	42	-67.5		265	28	13.2
2025-11-19T12:00	21150	42	-67.6		266	28	13.1
2025-11-19T12:00	21200	42	-67.5		267	27	13.1
2025-11-19T12:00	21250	41	-67.5		266	26	13.1
2025-11-19T12:00	21300	41	-67.8		265	27	13.1
2025-11-19T12:00	21350	41	-68.1		263	28	13.1
2025-11-19T12:00	21400	40	-68.2		262	28	13.1
2025-11-19T12:00	21450	40	-68.2		260	27	13.0
2025-11-19T12:00	21500	40	-68.2		258	27	13.0
2025-11-19T12:00	21550	39	-68.0		255	27	12.9
2025-11-19T12:00	21600	39	-67.7		253	28	12.9
2025-11-19T12:00	21650	39	-67.5		252	28	13.0
2025-11-19T12:00	21700	38	-67.5		254	28	12.9
2025-11-19T12:00	21750	38	-67.5		257	29	12.9
2025-11-19T12:00	21800	38	-67.4		261	29	12.8
2025-11-19T12:00	21850	37	-67.3		262	30	12.8
2025-11-19T12:00	21900	37	-67.1		259	29	12.8
2025-11-19T12:00	21950	37	-67.0		255	29	12.8
2025-11-19T12:00	22000	36	-67.0		252	29	12.8
2025-11-19T12:00	22050	36	-67.0		249	28	12.7
2025-11-19T12:00	22100	36	-67.0		248	28	12.6
2025-11-19T12:00	22150	36	-67.2		248	28	12.5
2025-11-19T12:00	22200	35	-67.2		250	27	12.3
2025-11-19T12:00	22250	35	-67.4		249	27	12.2
2025-11-19T12:00	22300	35	-67.8		249	27	12.1
2025-11-19T12:00	22350	34	-68.2		248	28	12.0
2025-11-19T12:00	22400	34	-68.5		248	28	11.9
2025-11-19T12:00	22450	34	-68.8		248	29	11.8
2025-11-19T12:00	22500	34	-69.1		249	29	11.8
2025-11-19T12:00	22550	33	-69.5		251	29	11.7
2025-11-19T12:00	22600	33	-69.8		251	28	11.7
2025-11-19T12:00	22650	33	-70.0		251	28	11.6
2025-11-19T12:00	22700	32	-70.1		252	28	11.6
2025-11-19T12:00	22750	32	-70.2		254	28	11.7
2025-11-19T12:00	22800	32	-70.4		256	28	11.8
2025-11-19T12:00	22850	32	-70.6		257	28	11.8
2025-11-19T12:00	22900	31	-70.9		256	28	11.9
2025-11-19T12:00	22950	31	-70.8		255	28	12.0
2025-11-19T12:00	23000	31	-70.8		253	27	12.0
2025-11-19T12:00	23050	31	-71.0		250	27	12.1
2025-11-19T12:00	23100	30	-71.1		248	27	12.1
2025-11-19T12:00	23150	30	-71.2		246	28	12.1
2025-11-19T12:00	23200	30	-71.3		246	28	12.1
2025-11-19T12:00	23250	30	-71.3		248	29	12.0
2025-11-19T12:00	23300	29	-71.3		250	30	12.0
2025-11-19T12:00	23350	29	-71.6		251	30	11.9
2025-11-19T12:00	23400	29	-71.9		254	31	11.8
2025-11-19T12:00	23450	29	-71.9		255	32	11.7
2025-11-19T12:00	23500	28	-71.9		255	32	11.5
2025-11-19T12:00	23550	28	-72.1		255	33	11.4
2025-11-19T12:00	23600	28	-71.8		255	34	11.3
2025-11-19T12:00	23650	28	-71.2		255	35	11.2
2025-11-19T12:00	23700	27	-71.0		254	35	11.4
2025-11-19T12:00	23750	27	-70.9		253	34	11.5
2025-11-19T12:00	23800	27	-71.1		252	34	11.6
2025-11-19T12:00	23850	27	-70.9		252	34	11.7
2025-11-19T12:00	23900	26	-70.4		253	34	11.7
2025-11-19T12:00	23950	26	-70.0		255	36	11.6
2025-11-19T12:00	24000	26	-69.8		257	38	11.7
2025-11-19T12:00	24050	26	-69.8		258	39	11.7
2025-11-19T12:00	24100	26	-69.5		258	39	11.7
2025-11-19T12:00	24150	25	-69.0		259	37	11.7
2025-11-19T12:00	24200	25	-68.8		260	34	11.6
2025-11-19T12:00	24250	25	-68.8		261	33	11.4
2025-11-19T12:00	24300	25	-69.0		263	33	11.3
2025-11-19T12:00	24350	25	-68.6		263	33	11.2
2025-11-19T12:00	24400	24	-68.2		262	35	11.0
2025-11-19T12:00	24450	24	-68.2		262	35	10.9
2025-11-19T12:00	24500	24	-68.2		263	35	10.8
2025-11-19T12:00	24550	24	-67.9		264	35	10.8
2025-11-19T12:00	24600	24	-67.3		266	34	10.6
2025-11-19T12:00	24650	23	-67.0		266	34	10.5
2025-11-19T12:00	24700	23	-67.0		264	34	10.3
2025-11-19T12:00	24750	23	-67.2		262	35	10.1
2025-11-19T12:00	24800	23	-67.5		259	37	9.9
2025-11-19T12:00	24850	23	-67.5		257	38	9.8
2025-11-19T12:00	24900	22	-67.2		257	39	9.7
2025-11-19T12:00	24950	22	-66.8		259	39	9.4
2025-11-19T12:00	25000	22	-66.8		262	37	9.2
2025-11-19T12:00	25050	22	-66.8		263	36	8.9
2025-11-19T12:00	25100	22	-67.0		263	35	8.7
2025-11-19T12:00	25150	22	-66.6		260	34	8.5
2025-11-19T12:00	25200	21	-66.3		259	33	8.4
2025-11-19T12:00	25250	21	-66.3		257	32	8.3
2025-11-19T12:00	25300	21	-66.2		256	33	8.1
2025-11-19T12:00	25350	21	-66.0		255	35	8.0
2025-11-19T12:00	25400	21	-65.9		255	37	7.9
2025-11-19T12:00	25450	20	-65.9		255	37	7.9
2025-11-19T12:00	25500	20	-65.9		256	37	7.9
2025-11-19T12:00	25550	20	-65.7		257	38	7.8
2025-11-19T12:00	25600	20	-65.6		256	38	7.8
2025-11-19T12:00	25650	20	-65.7		256	39	7.8
2025-11-19T12:00	25700	20	-65.8		255	39	7.7
2025-11-19T12:00	25750	19	-65.9		255	38	7.7
2025-11-19T12:00	25800	19	-66.0		255	38	7.7
2025-11-19T12:00	25850	19	-66.2		255	38	7.7
2025-11-19T12:00	25900	19	-66.5		255	39	7.6
2025-11-19T12:00	25950	19	-66.5		255	39	7.6
2025-11-19T12:00	26000	19	-66.4		255	39	7.5
2025-11-19T12:00	26050	19	-66.2		255	38	7.4
2025-11-19T12:00	26100	18	-66.3		255	37	7.3
2025-11-19T12:00	26150	18	-66.4		256	37	7.3
2025-11-19T12:00	26200	18	-66.7		256	37	7.2
2025-11-19T12:00	26250	18	-67.0		256	37	7.1
2025-11-19T12:00	26300	18	-67.2		256	36	7.1
2025-11-19T12:00	26350	18	-67.6		255	36	7.1
2025-11-19T12:00	26400	17	-68.0		255	35	7.0
2025-11-19T12:00	26450	17	-68.4		255	35	7.0
2025-11-19T12:00	26500	17	-68.8		255	34	6.9
2025-11-19T12:00	26550	17	-69.0		255	35	6.9
2025-11-19T12:00	26600	17	-68.9		254	36	6.8
2025-11-19T12:00	26650	17	-69.1		254	37	6.8
2025-11-19T12:00	26700	17	-69.4		254	38	6.7
2025-11-19T12:00	26750	16	-69.6		255	39	6.7
2025-11-19T12:00	26800	16	-69.6		257	40	6.6
2025-11-19T12:00	26850	16	-69.3		258	40	6.6
2025-11-19T12:00	26900	16	-69.1		259	41	6.6
2025-11-19T12:00	26950	16	-68.6		261	42	6.5
2025-11-19T12:00	27000	16	-68.2		262	43	6.4
2025-11-19T12:00	27050	16	-67.7		261	44	6.2
2025-11-19T12:00	27100	16	-67.4		259	44	6.1
2025-11-19T12:00	27150	15	-67.0		257	43	6.1
2025-11-19T12:00	27200	15	-66.8		255	43	6.1
2025-11-19T12:00	27250	15	-66.7		254	43	6.0
2025-11-19T12:00	27300	15	-66.6		254	44	6.0
2025-11-19T12:00	27350	15	-66.1		255	44	6.0
2025-11-19T12:00	27400	15	-65.9		256	43	5.9
2025-11-19T12:00	27450	15	-66.4		256	43	5.8
2025-11-19T12:00	27500	15	-66.6		258	43	5.8
2025-11-19T12:00	27550	14	-66.2		259	43	5.8
2025-11-19T12:00	27600	14	-65.9		258	44	5.7
2025-11-19T12:00	27650	14	-65.7		257	43	5.6
2025-11-19T12:00	27700	14	-65.6		256	43	5.6
2025-11-19T12:00	27750	14	-65.5		256	43	5.6
2025-11-19T12:00	27800	14	-65.3		256	43	5.5
2025-11-19T12:00	27850	14	-65.3		256	43	5.5
2025-11-19T12:00	27900	14	-64.9		258	43	5.5
2025-11-19T12:00	27950	14	-64.2		260	44	5.6
2025-11-19T12:00	28000	13	-64.1		263	44	5.7
2025-11-19T12:00	28050	13	-64.3		265	44	5.6
2025-11-19T12:00	28100	13	-64.3		268	45	5.6
2025-11-19T12:00	28150	13	-64.2		269	46	5.6
2025-11-19T12:00	28200	13	-63.8		269	47	5.5
2025-11-19T12:00	28250	13	-63.2		269	47	5.5
2025-11-19T12:00	28300	13	-63.1		268	46	5.5
2025-11-19T12:00	28350	13	-63.3		267	46	5.5
2025-11-19T12:00	28400	13	-63.4		266	46	5.5
2025-11-19T12:00	28450	12	-63.6		265	46	5.5
2025-11-19T12:00	28500	12	-63.9		263	46	5.4
2025-11-19T12:00	28550	12	-64.1		262	46	5.5
2025-11-19T12:00	28600	12	-64.3		261	47	5.4
2025-11-19T12:00	28650	12	-64.3		259	48	5.4
2025-11-19T12:00	28700	12	-64.3		258	49	5.3
2025-11-19T12:00	28750	12	-64.0		257	51	5.2
2025-11-19T12:00	28800	12	-63.4		257	52	5.2
2025-11-19T12:00	28850	12	-62.7		258	53	5.2
2025-11-19T12:00	28900	12	-62.2		259	54	5.0
2025-11-19T12:00	28950	11	-62.0		261	54	5.0
2025-11-19T12:00	29000	11	-61.5		263	54	4.9
2025-11-19T12:00	29050	11	-60.8		264	54	4.8
2025-11-19T12:00	29100	11	-60.3		263	57	4.7
2025-11-19T12:00	29150	11	-59.2		262	60	4.7
2025-11-19T12:00	29200	11	-58.3		261	60	4.7
2025-11-19T12:00	29250	11	-57.4		258	59	4.7
2025-11-19T12:00	29300	11	-56.4		256	59	4.7
2025-11-19T12:00	29350	11	-55.7		254	58	4.7
2025-11-19T12:00	29400	11	-55.2		252	57	4.7
2025-11-19T12:00	29450	11	-54.7		251	56	4.6
2025-11-19T12:00	29500	11	-54.7		249	55	4.6
2025-11-19T12:00	29550	10	-54.8		248	55	4.6
2025-11-19T12:00	29600	10	-54.8		248	55	4.6
2025-11-19T12:00	29650	10	-54.7		248	55	4.5
2025-11-19T12:00	29700	10	-54.8		248	56	4.5
2025-11-19T12:00	29750	10	-54.8		249	57	4.5
2025-11-19T12:00	29800	10	-54.7		250	57	4.5
2025-11-19T12:00	29850	10	-54.5		250	56	4.5
2025-11-19T12:00	29900	10	-54.4		250	55	4.5
2025-11-19T12:00	29950	10	-54.2		251	54	4.5
2025-11-19T12:00	30000	10	-54.2		251	53	4.5
2025-11-19T12:00	30050	10	-54.3		251	52	4.5
2025-11-19T12:00	30100	10	-54.2		252	51	4.4
2025-11-19T12:00	30150	10	-53.9		252	50	4.4
2025-11-19T12:00	30200	9	-53.4		253	50	4.4
2025-11-19T12:00	30250	9	-52.9		253	49	4.4
2025-11-19T12:00	30300	9	-52.9		253	49	4.4
2025-11-19T12:00	30350	9	-53.0		253	49	4.3
2025-11-19T12:00	30400	9	-53.2		253	49	4.4
2025-11-19T12:00	30450	9	-53.6		253	49	4.3
2025-11-19T12:00	30500	9	-53.9		254	49	4.3
2025-11-19T12:00	30550	9	-54.2		254	49	4.3
2025-11-19T12:00	30600	9	-54.0		254	49	4.2
2025-11-19T12:00	30650	9	-53.7		254	49	4.2
2025-11-19T12:00	30700	9	-53.6		253	50	4.1
2025-11-19T12:00	30750	9	-53.4		252	51	4.1
2025-11-19T12:00	30800	9	-53.3		253	53	4.1
2025-11-19T12:00	30850	9	-53.3		254	55	4.0
2025-11-19T12:00	30900	8	-53.1		255	57	4.0
2025-11-19T12:00	30950	8	-53.0		255	59	4.0
2025-11-19T12:00	31000	8	-52.8		255	61	
2025-11-19T12:00	31050	8	-52.4		254	62	
2025-11-19T12:00	31100	8	-52.0		253	65	
2025-11-19T12:00	31150	8	-51.6		252	66	
2025-11-19T12:00	31200	8	-50.7		251	68	
2025-11-19T12:00	31250	8	-49.1		252	65	
2025-11-19T12:00	31300	8	-47.8		252	66	
2025-11-19T12:00	31350	8	-46.3		249	66	
2025-11-19T12:00	31400	8	-45.3		247	65	
2025-11-19T12:00	31450	8	-45.0		247	65	
2025-11-19T12:00	31500	8	-44.9		246	66	
2025-11-19T12:00	31550	8	-45.0		245	66	
2025-11-19T12:00	31600	8	-45.3		244	66	
2025-11-19T12:00	31650	8	-45.5		244	66	
2025-11-19T12:00	31700	7	-45.9		244	66	
2025-11-19T12:00	31750	7	-46.2		244	66	
2025-11-19T12:00	31800	7	-46.6		244	67	
2025-11-19T12:00	31850	7	-46.7		244	67	
2025-11-19T12:00	31900	7	-47.0		244	67	
2025-11-19T12:00	31950	7	-47.3		245	67	
2025-11-19T12:00	32000	7	-47.6		245	68	
2025-11-19T12:00	32050	7	-47.8		246	68	
2025-11-19T12:00	32100	7	-48.0		247	68	
2025-11-19T12:00	32150	7	-48.0		247	68	
2025-11-19T12:00	32200	7	-48.0		248	68	
2025-11-19T12:00	32250	7	-48.1		249	68	
2025-11-19T12:00	32300	7	-48.1		250	68	
2025-11-19T12:00	32350	7	-48.1		250	69	
2025-11-19T12:00	32400	7	-48.1		251	70	
2025-11-19T12:00	32450	7	-48.0		251	71	
2025-11-19T12:00	32500	7	-47.9		251	72	
2025-11-19T12:00	32550	7	-48.0		251	74	
2025-11-19T12:00	32600	7	-48.2		251	75	
2025-11-19T12:00	32650	6	-48.6		251	76	
2025-11-19T12:00	32700	6	-48.9		252	77	
2025-11-19T12:00	32750	6	-49.2		252	78	
2025-11-19T12:00	32800	6	-49.2		252	80	
2025-11-19T12:00	32850	6	-49.0		253	81	
2025-11-19T12:00	32900	6	-48.7		253	81	
2025-11-19T12:00	32950	6	-48.3		254	80	
2025-11-19T12:00	33000	6	-46.1		257	78	
2025-11-19T12:00	33050	6	-42.9		261	80	
2025-11-19T12:00	33100	6	-42.1		262	81	
2025-11-19T12:00	33150	6	-41.6		262	80	
2025-11-19T12:00	33200	6	-41.6		262	80	
2025-11-19T12:00	33250	6	-41.7		262	81	
2025-11-19T12:00	33300	6	-41.8		262	82	
2025-11-19T12:00	33350	6	-41.8		262	83	
2025-11-19T12:00	33400	6	-41.9		262	84	
2025-11-19T12:00	33450	6	-41.8		262	85	
2025-11-19T12:00	33500	6	-41.9		263	86	
2025-11-19T12:00	33550	6	-42.1		263	87	
2025-11-19T12:00	33600	6	-42.5		263	89	
2025-11-19T12:00	33650	6	-42.8		264	90	
2025-11-19T12:00	33700	6	-43.1		264	91	
2025-11-19T12:00	33750	6	-43.4		264	91	
2025-11-19T12:00	33800	5	-43.4		264	92	
2025-11-19T12:00	33850	5	-43.6		264	91	
2025-11-19T12:00	33900	5	-43.8		264	91	
2025-11-19T12:00	33950	5	-43.8		263	91	
2025-11-19T12:00	34000	5	-43.6		263	91	
2025-11-19T12:00	34050	5	-42.8		262	89	
2025-11-19T12:00	34100	5	-41.9		263	86	
2025-11-19T12:00	34150	5	-40.9		263	84	
2025-11-19T12:00	34200	5	-39.6		263	82	
2025-11-19T12:00	34250	5	-38.9		262	81	
2025-11-19T12:00	34300	5	-37.6		261	79	
2025-11-19T12:00	34350	5	-36.7		260	79	
2025-11-19T12:00	34400	5	-36.1		261	81	
2025-11-19T12:00	34450	5	-35.7		263	83	
2025-11-19T12:00	34500	5	-35.6		264	85	
2025-11-19T12:00	34550	5	-35.4		265	86	
2025-11-19T12:00	34600	5	-35.4		265	87	
2025-11-19T12:00	34650	5	-35.6		265	89	
2025-11-19T12:00	34700	5	-35.6		265	90	
2025-11-19T12:00	34750	5	-35.6		266	91	
2025-11-19T12:00	34800	5	-35.6		266	90	
2025-11-19T12:00	34850	5	-35.4		267	90	
2025-11-19T12:00	34900	5	-34.6		267	91	
2025-11-19T12:00	34950	5	-33.6		267	90	
2025-11-19T12:00	35000	5	-33.1		267	90	
2025-11-19T12:00	35050	5	-33.0		266	92	
2025-11-19T12:00	35100	5	-32.8		265	93	
2025-11-19T12:00	35150	4	-32.8		265	94	
2025-11-19T12:00	35200	4	-33.1		264	94	
2025-11-19T12:00	35250	4	-33.4		264	94	
2025-11-19T12:00	35300	4	-33.3		263	94	
2025-11-19T12:00	35350	4	-33.3		263	94	
2025-11-19T12:00	35400	4	-33.4		262	94	
2025-11-19T12:00	35450	4	-33.3		262	93	
2025-11-19T12:00	35500	4	-33.3		261	92	
2025-11-19T12:00	35550	4	-33.3		262	91	
2025-11-19T12:00	35600	4	-33.6		262	91	
2025-11-19T12:00	35650	4	-33.8		262	90	
2025-11-19T12:00	35700	4	-33.8		262	90	
2025-11-19T12:00	35750	4	-33.9		263	90	
2025-11-19T12:00	35800	4	-34.1		263	91	
2025-11-19T12:00	35850	4	-34.3		264	91	
2025-11-19T12:00	35900	4	-34.7		264	92	
2025-11-19T12:00	35950	4	-34.3		264	92	
2025-11-19T12:00	36000	4	-32.9		263	90	
2025-11-19T12:00	36050	4	-34.3		263	92	
2025-11-19T12:00	36100	4	-31.4		261	85	
2025-11-19T12:00	36150	4	-31.1		259	85	
2025-11-19T12:00	36200	4	-32.3		258	90	
2025-11-19T12:00	36250	4	-32.7		260	89	
2025-11-20T00:00	491	949	2.1	0.9	232	3	
2025-11-20T00:00	501	948	1.9	1.0	217	3	
2025-11-20T00:00	520	946	1.8	0.9	212	4	
2025-11-20T00:00	540	944	1.6	0.7	213	5	
2025-11-20T00:00	560	941	1.5	0.5	213	6	
2025-11-20T00:00	580	939	1.4	0.3	214	7	
2025-11-20T00:00	600	937	1.3	0.2	214	8	
2025-11-20T00:00	620	935	1.1	0.3	216	10	
2025-11-20T00:00	640	932	0.9	0.3	216	11	
2025-11-20T00:00	660	930	0.7	0.2	217	12	
2025-11-20T00:00	680	927	0.5	0.2	217	13	
2025-11-20T00:00	700	925	0.3	0.2	216	14	
2025-11-20T00:00	720	923	0.3	0.1	216	15	
2025-11-20T00:00	740	921	0.2	-0.1	215	16	
2025-11-20T00:00	760	918	0.0	-0.1	216	16	
2025-11-20T00:00	780	916	0.0	-0.3	216	16	
2025-11-20T00:00	800	914	0.2	-0.7	217	17	
2025-11-20T00:00	820	911	0.2	-0.8	219	17	
2025-11-20T00:00	840	909	0.1	-0.9	221	17	
2025-11-20T00:00	860	907	0.1	-1.0	224	17	
2025-11-20T00:00	880	905	0.2	-1.1	226	17	
2025-11-20T00:00	900	902	0.3	-1.1	229	17	
2025-11-20T00:00	920	900	0.3	-1.3	231	16	
2025-11-20T00:00	940	898	0.2	-1.4	233	16	
2025-11-20T00:00	960	896	0.2	-1.5	235	16	
2025-11-20T00:00	980	893	0.1	-1.5	236	16	
2025-11-20T00:00	1000	891	-0.1	-1.6	238	15	
2025-11-20T00:00	1020	889	-0.3	-1.7	239	15	
2025-11-20T00:00	1040	887	-0.4	-1.8	241	15	
2025-11-20T00:00	1060	885	-0.5	-1.8	242	15	
2025-11-20T00:00	1080	882	-0.7	-2.0	243	15	
2025-11-20T00:00	1100	880	-0.8	-2.1	244	15	
2025-11-20T00:00	1120	878	-0.9	-2.4	245	15	
2025-11-20T00:00	1140	876	-1.1	-2.5	247	15	
2025-11-20T00:00	1160	873	-1.2	-2.6	248	15	
2025-11-20T00:00	1180	871	-1.4	-2.7	249	15	
2025-11-20T00:00	1200	869	-1.6	-2.7	249	15	
2025-11-20T00:00	1220	867	-1.7	-2.9	249	15	
2025-11-20T00:00	1240	865	-1.9	-3.0	250	15	
2025-11-20T00:00	1260	862	-2.1	-3.0	250	15	
2025-11-20T00:00	1280	860	-2.2	-3.2	251	15	
2025-11-20T00:00	1300	858	-2.3	-3.4	252	15	
2025-11-20T00:00	1320	856	-2.5	-3.4	253	15	
2025-11-20T00:00	1340	854	-2.7	-3.6	253	15	
2025-11-20T00:00	1360	852	-2.9	-3.7	254	15	
2025-11-20T00:00	1380	850	-3.0	-3.9	254	15	
2025-11-20T00:00	1400	847	-3.1	-4.0	255	15	
2025-11-20T00:00	1420	845	-3.3	-4.0	255	15	
2025-11-20T00:00	1440	843	-3.5	-4.1	256	15	
2025-11-20T00:00	1460	841	-3.7	-4.2	256	15	
2025-11-20T00:00	1480	839	-3.8	-4.3	257	16	
2025-11-20T00:00	1500	837	-4.0	-4.4	257	16	
2025-11-20T00:00	1520	835	-4.2	-4.4	257	16	
2025-11-20T00:00	1540	833	-4.4	-4.5	258	16	
2025-11-20T00:00	1560	831	-4.5	-4.6	259	17	
2025-11-20T00:00	1580	828	-4.7	-4.9	259	17	
2025-11-20T00:00	1600	826	-4.9	-5.0	259	17	
2025-11-20T00:00	1620	824	-5.0	-5.4	259	18	
2025-11-20T00:00	1640	822	-5.2	-5.7	259	18	
2025-11-20T00:00	1660	820	-5.3	-5.9	259	18	
2025-11-20T00:00	1680	818	-5.4	-6.1	258	18	
2025-11-20T00:00	1700	816	-5.5	-6.2	258	18	
2025-11-20T00:00	1720	814	-5.7	-6.3	258	18	
2025-11-20T00:00	1740	812	-5.8	-6.5	258	18	
2025-11-20T00:00	1760	810	-6.0	-6.6	258	18	
2025-11-20T00:00	1780	807	-6.1	-6.7	259	17	
2025-11-20T00:00	1800	806	-6.3	-6.8	259	17	
2025-11-20T00:00	1820	803	-6.4	-7.0	260	17	
2025-11-20T00:00	1840	801	-6.5	-7.2	260	16	
2025-11-20T00:00	1860	799	-6.5	-7.3	260	16	
2025-11-20T00:00	1880	797	-6.6	-7.3	260	16	
2025-11-20T00:00	1900	795	-6.6	-7.4	259	16	
2025-11-20T00:00	1920	793	-6.8	-7.5	259	16	
2025-11-20T00:00	1940	791	-6.8	-7.7	258	16	
2025-11-20T00:00	1960	789	-6.9	-7.8	258	16	
2025-11-20T00:00	1980	787	-7.0	-7.9	257	16	
2025-11-20T00:00	2000	785	-7.1	-8.2	257	16	
2025-11-20T00:00	2020	783	-7.2	-8.4	256	16	
2025-11-20T00:00	2040	781	-7.4	-8.5	256	16	
2025-11-20T00:00	2060	779	-7.5	-8.6	256	17	
2025-11-20T00:00	2080	777	-7.6	-8.7	255	17	
2025-11-20T00:00	2100	775	-7.8	-8.8	255	17	
2025-11-20T00:00	2120	773	-7.9	-8.9	254	17	
2025-11-20T00:00	2140	771	-8.0	-9.0	254	17	
2025-11-20T00:00	2160	769	-8.1	-9.2	253	17	
2025-11-20T00:00	2180	767	-8.2	-9.3	253	17	
2025-11-20T00:00	2200	765	-8.4	-9.6	253	17	
2025-11-20T00:00	2220	763	-8.5	-9.8	253	17	
2025-11-20T00:00	2240	761	-8.6	-10.0	254	17	
2025-11-20T00:00	2260	759	-8.8	-10.2	254	17	
2025-11-20T00:00	2280	757	-8.9	-10.4	255	17	
2025-11-20T00:00	2300	755	-9.0	-10.6	256	18	
2025-11-20T00:00	2320	753	-9.2	-10.8	256	18	
2025-11-20T00:00	2340	751	-9.3	-11.0	256	18	
2025-11-20T00:00	2360	750	-9.5	-11.2	256	18	
2025-11-20T00:00	2380	748	-9.6	-11.4	257	18	
2025-11-20T00:00	2400	746	-9.8	-11.5	258	18	
2025-11-20T00:00	2420	744	-9.9	-11.6	258	18	
2025-11-20T00:00	2440	742	-10.1	-11.8	259	18	
2025-11-20T00:00	2460	740	-10.2	-12.1	260	18	
2025-11-20T00:00	2480	738	-10.3	-12.2	260	18	
2025-11-20T00:00	2500	736	-10.5	-12.3	260	18	
2025-11-20T00:00	2520	734	-10.6	-12.5	260	18	
2025-11-20T00:00	2540	732	-10.8	-12.6	260	19	
2025-11-20T00:00	2560	730	-10.9	-12.8	259	19	
2025-11-20T00:00	2580	728	-11.1	-13.0	259	19	
2025-11-20T00:00	2600	726	-11.2	-13.0	258	19	
2025-11-20T00:00	2620	725	-11.3	-13.2	258	19	
2025-11-20T00:00	2640	723	-11.4	-13.3	257	19	
2025-11-20T00:00	2660	721	-11.5	-13.4	256	19	
2025-11-20T00:00	2680	719	-11.7	-13.4	255	19	
2025-11-20T00:00	2700	717	-11.8	-13.5	255	18	
2025-11-20T00:00	2720	715	-11.8	-13.6	254	18	
2025-11-20T00:00	2740	714	-12.0	-13.6	253	18	
2025-11-20T00:00	2760	712	-12.1	-13.7	253	18	
2025-11-20T00:00	2780	710	-12.2	-13.8	253	18	
2025-11-20T00:00	2800	708	-12.4	-13.9	252	18	
2025-11-20T00:00	2820	706	-12.6	-14.1	252	18	
2025-11-20T00:00	2840	704	-12.7	-14.2	252	18	
2025-11-20T00:00	2860	702	-12.9	-14.3	252	17	
2025-11-20T00:00	2880	700	-13.0	-14.5	252	17	
2025-11-20T00:00	2900	699	-13.1	-14.7	252	17	
2025-11-20T00:00	2920	697	-13.2	-14.9	252	17	
2025-11-20T00:00	2940	695	-13.4	-15.0	252	17	
2025-11-20T00:00	2960	693	-13.6	-15.1	252	16	
2025-11-20T00:00	2980	691	-13.7	-15.2	253	16	
2025-11-20T00:00	3000	690	-13.8	-15.4	253	16	
2025-11-20T00:00	3020	688	-14.0	-15.5	253	16	
2025-11-20T00:00	3040	686	-14.1	-15.6	253	16	
2025-11-20T00:00	3060	684	-14.2	-15.7	253	16	
2025-11-20T00:00	3080	682	-14.3	-15.8	253	16	
2025-11-20T00:00	3100	680	-14.5	-16.0	252	16	
2025-11-20T00:00	3120	679	-14.6	-16.1	251	16	
2025-11-20T00:00	3140	677	-14.8	-16.2	249	16	
2025-11-20T00:00	3160	675	-14.9	-16.4	247	16	
2025-11-20T00:00	3180	673	-15.0	-16.5	245	16	
2025-11-20T00:00	3200	671	-15.1	-16.7	242	16	
2025-11-20T00:00	3220	670	-15.2	-16.8	240	16	
2025-11-20T00:00	3240	668	-15.3	-16.9	238	16	
2025-11-20T00:00	3260	666	-15.4	-17.0	237	15	
2025-11-20T00:00	3280	665	-15.5	-17.1	237	15	
2025-11-20T00:00	3300	663	-15.6	-17.1	238	15	
2025-11-20T00:00	3320	661	-15.7	-17.2	238	14	
2025-11-20T00:00	3340	659	-15.8	-17.4	239	14	
2025-11-20T00:00	3360	658	-15.9	-17.6	238	14	
2025-11-20T00:00	3380	656	-16.1	-17.7	237	14	
2025-11-20T00:00	3400	654	-16.2	-17.8	235	14	
2025-11-20T00:00	3420	652	-16.3	-17.9	233	14	
2025-11-20T00:00	3440	650	-16.4	-18.0	231	14	
2025-11-20T00:00	3460	649	-16.5	-18.1	230	14	
2025-11-20T00:00	3480	647	-16.6	-18.2	229	15	
2025-11-20T00:00	3500	645	-16.8	-18.3	228	15	
2025-11-20T00:00	3520	644	-16.9	-18.5	228	16	
2025-11-20T00:00	3540	642	-16.9	-18.6	227	16	
2025-11-20T00:00	3560	640	-17.0	-18.5	227	16	
2025-11-20T00:00	3580	638	-17.0	-18.6	226	17	
2025-11-20T00:00	3600	637	-17.1	-18.8	225	17	
2025-11-20T00:00	3620	635	-17.2	-18.8	224	18	
2025-11-20T00:00	3640	633	-17.3	-18.8	224	18	
2025-11-20T00:00	3660	632	-17.3	-18.9	223	19	
2025-11-20T00:00	3680	630	-17.3	-18.9	223	19	
2025-11-20T00:00	3700	628	-17.4	-18.9	222	20	
2025-11-20T00:00	3720	627	-17.5	-19.0	222	20	
2025-11-20T00:00	3740	625	-17.6	-19.1	223	21	
2025-11-20T00:00	3760	623	-17.7	-19.3	223	21	
2025-11-20T00:00	3780	622	-17.8	-19.3	224	21	
2025-11-20T00:00	3800	620	-17.9	-19.5	224	21	
2025-11-20T00:00	3820	618	-18.0	-19.6	225	21	
2025-11-20T00:00	3840	617	-18.0	-19.9	226	21	
2025-11-20T00:00	3860	615	-18.2	-20.0	227	21	
2025-11-20T00:00	3880	613	-18.3	-20.2	227	21	
2025-11-20T00:00	3900	612	-18.5	-20.4	226	21	
2025-11-20T00:00	3920	610	-18.7	-20.7	225	21	
2025-11-20T00:00	3940	609	-18.8	-20.7	224	21	
2025-11-20T00:00	3960	607	-18.9	-20.8	224	21	
2025-11-20T00:00	3980	605	-19.1	-21.0	224	21	
2025-11-20T00:00	4000	604	-19.3	-21.1	224	21	
2025-11-20T00:00	4020	602	-19.5	-21.2	225	21	
2025-11-20T00:00	4040	601	-19.6	-21.2	225	21	
2025-11-20T00:00	4060	599	-19.8	-21.5	224	21	
2025-11-20T00:00	4080	597	-19.9	-21.7	224	21	
2025-11-20T00:00	4100	595	-20.1	-21.8	224	20	
2025-11-20T00:00	4120	594	-20.3	-21.9	224	20	
2025-11-20T00:00	4140	592	-20.4	-22.1	224	20	
2025-11-20T00:00	4160	591	-20.6	-22.2	224	20	
2025-11-20T00:00	4180	589	-20.7	-22.4	223	20	
2025-11-20T00:00	4200	588	-20.9	-22.5	223	21	
2025-11-20T00:00	4220	586	-21.0	-22.7	222	21	
2025-11-20T00:00	4240	584	-21.2	-22.8	222	21	
2025-11-20T00:00	4260	583	-21.3	-22.9	221	21	
2025-11-20T00:00	4280	581	-21.4	-23.0	221	21	
2025-11-20T00:00	4300	580	-21.5	-23.2	220	21	
2025-11-20T00:00	4320	578	-21.6	-23.3	220	22	
2025-11-20T00:00	4340	576	-21.7	-23.5	220	21	
2025-11-20T00:00	4360	575	-21.8	-23.7	219	21	
2025-11-20T00:00	4380	574	-22.0	-24.0	219	21	
2025-11-20T00:00	4400	572	-22.1	-24.2	219	21	
2025-11-20T00:00	4420	570	-22.3	-24.3	219	21	
2025-11-20T00:00	4440	569	-22.5	-24.5	220	21	
2025-11-20T00:00	4460	567	-22.6	-24.7	220	20	
2025-11-20T00:00	4480	566	-22.8	-24.8	220	20	
2025-11-20T00:00	4500	564	-22.9	-24.9	220	21	
2025-11-20T00:00	4520	563	-23.1	-25.1	220	21	
2025-11-20T00:00	4540	561	-23.2	-25.2	220	21	
2025-11-20T00:00	4560	559	-23.4	-25.4	221	21	
2025-11-20T00:00	4580	558	-23.6	-25.5	222	21	
2025-11-20T00:00	4600	556	-23.7	-25.6	223	21	
2025-11-20T00:00	4620	555	-23.9	-25.8	224	21	
2025-11-20T00:00	4640	553	-24.0	-25.9	225	21	
2025-11-20T00:00	4660	552	-24.2	-26.1	225	21	
2025-11-20T00:00	4680	550	-24.4	-26.5	225	21	
2025-11-20T00:00	4700	549	-24.5	-26.7	225	21	
2025-11-20T00:00	4720	547	-24.7	-26.8	225	21	
2025-11-20T00:00	4740	546	-24.9	-27.0	225	22	
2025-11-20T00:00	4760	544	-25.0	-27.0	225	22	
2025-11-20T00:00	4780	543	-25.1	-27.2	225	23	
2025-11-20T00:00	4800	541	-25.3	-27.4	225	23	
2025-11-20T00:00	4820	540	-25.4	-27.4	224	24	
2025-11-20T00:00	4840	538	-25.5	-27.5	224	24	
2025-11-20T00:00	4860	537	-25.6	-27.6	224	25	
2025-11-20T00:00	4880	536	-25.8	-27.7	224	25	
2025-11-20T00:00	4900	534	-26.0	-27.8	224	25	
2025-11-20T00:00	4920	533	-26.1	-27.9	224	25	
2025-11-20T00:00	4940	531	-26.3	-28.0	224	25	
2025-11-20T00:00	4960	529	-26.5	-28.3	224	25	
2025-11-20T00:00	4980	528	-26.7	-28.7	224	25	
2025-11-20T00:00	5000	527	-26.8	-28.7	225	24	
2025-11-20T00:00	5020	525	-27.0	-28.8	225	24	
2025-11-20T00:00	5040	524	-27.2	-29.2	225	24	
2025-11-20T00:00	5060	522	-27.3	-29.4	225	24	
2025-11-20T00:00	5080	521	-27.5	-29.6	225	23	
2025-11-20T00:00	5100	519	-27.7	-29.8	224	23	
2025-11-20T00:00	5120	518	-27.9	-30.1	224	23	
2025-11-20T00:00	5140	517	-28.1	-30.1	224	23	
2025-11-20T00:00	5160	515	-28.3	-30.4	223	23	
2025-11-20T00:00	5180	513	-28.5	-30.5	223	23	
2025-11-20T00:00	5200	512	-28.6	-30.7	223	24	
2025-11-20T00:00	5220	511	-28.8	-31.0	222	24	
2025-11-20T00:00	5240	509	-28.9	-31.3	222	24	
2025-11-20T00:00	5260	508	-28.9	-31.2	222	24	
2025-11-20T00:00	5280	507	-29.0	-31.3	222	24	
2025-11-20T00:00	5300	505	-29.2	-31.3	221	25	
2025-11-20T00:00	5320	504	-29.4	-31.3	220	25	
2025-11-20T00:00	5340	502	-29.5	-31.5	219	25	
2025-11-20T00:00	5360	501	-29.8	-31.6	218	26	
2025-11-20T00:00	5380	499	-29.9	-31.8	218	26	
2025-11-20T00:00	5400	498	-30.0	-32.0	218	27	
2025-11-20T00:00	5420	496	-30.1	-32.3	219	27	
2025-11-20T00:00	5440	495	-30.2	-32.2	220	27	
2025-11-20T00:00	5460	494	-30.4	-32.4	221	27	
2025-11-20T00:00	5480	492	-30.6	-32.3	222	27	
2025-11-20T00:00	5500	491	-30.8	-32.4	224	28	
2025-11-20T00:00	5520	490	-31.0	-32.5	226	28	
2025-11-20T00:00	5540	488	-31.2	-32.5	227	29	
2025-11-20T00:00	5560	487	-31.3	-32.5	227	29	
2025-11-20T00:00	5580	485	-31.5	-32.7	228	30	
2025-11-20T00:00	5600	484	-31.7	-32.7	228	30	
2025-11-20T00:00	5620	483	-31.8	-32.7	228	29	
2025-11-20T00:00	5640	481	-32.0	-32.8	228	29	
2025-11-20T00:00	5660	480	-32.1	-33.0	228	28	
2025-11-20T00:00	5680	479	-32.3	-33.1	228	28	
2025-11-20T00:00	5700	477	-32.4	-33.4	227	28	
2025-11-20T00:00	5720	476	-32.5	-34.2	227	28	
2025-11-20T00:00	5740	475	-32.6	-34.5	226	28	
2025-11-20T00:00	5760	473	-32.8	-34.4	225	28	
2025-11-20T00:00	5780	472	-33.0	-34.7	224	27	
2025-11-20T00:00	5800	471	-33.1	-34.8	224	27	
2025-11-20T00:00	5820	469	-33.3	-35.0	224	27	
2025-11-20T00:00	5840	468	-33.5	-35.1	224	27	
2025-11-20T00:00	5860	467	-33.6	-35.6	225	27	
2025-11-20T00:00	5880	465	-33.8	-36.4	225	27	
2025-11-20T00:00	5900	464	-33.9	-36.6	226	28	
2025-11-20T00:00	5920	463	-34.0	-36.7	225	28	
2025-11-20T00:00	5940	461	-34.2	-36.8	225	28	
2025-11-20T00:00	5960	460	-34.3	-36.5	225	29	
2025-11-20T00:00	5980	459	-34.5	-36.8	225	29	
2025-11-20T00:00	6000	457	-34.6	-37.1	225	29	
2025-11-20T00:00	6020	456	-34.8	-37.4	226	30	
2025-11-20T00:00	6040	455	-34.8	-37.2	227	30	
2025-11-20T00:00	6060	454	-35.0	-37.3	228	30	
2025-11-20T00:00	6080	452	-35.1	-38.0	230	29	
2025-11-20T00:00	6100	451	-35.3	-38.3	232	29	
2025-11-20T00:00	6120	450	-35.5	-38.8	233	29	
2025-11-20T00:00	6140	448	-35.6	-38.9	233	29	
2025-11-20T00:00	6160	447	-35.8	-39.0	233	29	
2025-11-20T00:00	6180	446	-36.0	-39.6	234	30	
2025-11-20T00:00	6200	444	-36.1	-44.5	235	30	
2025-11-20T00:00	6220	443	-36.2	-45.7	236	30	
2025-11-20T00:00	6240	442	-36.3	-45.6	237	30	
2025-11-20T00:00	6260	441	-36.4	-46.9	238	31	
2025-11-20T00:00	6280	439	-36.3	-50.1	238	31	
2025-11-20T00:00	6300	438	-36.3	-56.9	238	31	
2025-11-20T00:00	6320	437	-36.4	-57.0	238	32	
2025-11-20T00:00	6340	435	-36.5	-55.6	238	32	
2025-11-20T00:00	6360	434	-36.5	-55.0	238	32	
2025-11-20T00:00	6380	433	-36.6	-52.9	238	32	
2025-11-20T00:00	6400	432	-36.7	-53.3	239	32	
2025-11-20T00:00	6420	430	-36.7	-53.3	240	33	
2025-11-20T00:00	6440	429	-36.7	-52.8	240	33	
2025-11-20T00:00	6460	428	-36.7	-53.2	240	33	
2025-11-20T00:00	6480	427	-36.8	-53.1	240	33	
2025-11-20T00:00	6500	426	-36.9	-53.3	240	33	
2025-11-20T00:00	6520	424	-37.1	-53.8	239	33	
2025-11-20T00:00	6540	423	-37.1	-53.9	238	33	
2025-11-20T00:00	6560	422	-37.2	-54.1	237	33	
2025-11-20T00:00	6580	421	-37.2	-54.3	237	33	
2025-11-20T00:00	6600	419	-37.2	-54.6	236	33	
2025-11-20T00:00	6620	418	-37.2	-54.9	236	33	
2025-11-20T00:00	6640	417	-37.4	-54.9	236	33	
2025-11-20T00:00	6660	416	-37.5	-55.0	236	34	
2025-11-20T00:00	6680	415	-37.6	-54.7	237	34	
2025-11-20T00:00	6700	414	-37.7	-54.8	237	34	
2025-11-20T00:00	6720	412	-37.9	-54.7	237	34	
2025-11-20T00:00	6740	411	-38.0	-55.5	237	34	
2025-11-20T00:00	6760	410	-38.1	-56.5	237	34	
2025-11-20T00:00	6780	409	-38.2	-55.7	238	34	
2025-11-20T00:00	6800	408	-38.4	-55.0	238	35	
2025-11-20T00:00	6820	406	-38.6	-55.0	238	35	
2025-11-20T00:00	6840	405	-38.8	-55.0	238	35	
2025-11-20T00:00	6860	404	-38.9	-54.8	238	35	
2025-11-20T00:00	6880	403	-39.1	-53.6	238	35	
2025-11-20T00:00	6900	402	-39.2	-53.6	238	35	
2025-11-20T00:00	6920	400	-39.3	-53.9	237	35	
2025-11-20T00:00	6940	399	-39.5	-54.4	237	35	
2025-11-20T00:00	6960	398	-39.6	-55.5	237	35	
2025-11-20T00:00	6980	397	-39.7	-56.4	238	35	
2025-11-20T00:00	7000	396	-39.9	-56.3	238	35	
2025-11-20T00:00	7020	395	-40.0	-56.7	238	35	
2025-11-20T00:00	7040	393	-40.1	-57.5	239	34	
2025-11-20T00:00	7060	392	-40.2	-57.6	239	34	
2025-11-20T00:00	7080	391	-40.4	-57.5	239	34	
2025-11-20T00:00	7100	390	-40.6	-57.8	240	34	
2025-11-20T00:00	7120	389	-40.7	-58.3	240	34	
2025-11-20T00:00	7140	388	-40.7	-59.1	240	34	
2025-11-20T00:00	7160	387	-40.9	-59.1	241	35	
2025-11-20T00:00	7180	385	-41.0	-58.6	241	35	
2025-11-20T00:00	7200	384	-41.0	-57.8	241	35	
2025-11-20T00:00	7220	383	-41.2	-57.8	241	35	
2025-11-20T00:00	7240	382	-41.4	-58.0	241	35	
2025-11-20T00:00	7260	381	-41.6	-58.1	240	35	
2025-11-20T00:00	7280	380	-41.8	-58.0	240	35	
2025-11-20T00:00	7300	379	-42.0	-58.0	239	35	
2025-11-20T00:00	7320	378	-42.1	-57.9	239	36	
2025-11-20T00:00	7340	376	-42.3	-57.9	239	36	
2025-11-20T00:00	7360	375	-42.5	-57.8	238	36	
2025-11-20T00:00	7380	374	-42.7	-57.0	238	37	
2025-11-20T00:00	7400	373	-42.6	-56.4	238	37	
2025-11-20T00:00	7420	372	-42.7	-56.9	238	37	
2025-11-20T00:00	7440	371	-42.9	-57.9	238	37	
2025-11-20T00:00	7460	370	-43.0	-58.4	238	36	
2025-11-20T00:00	7480	369	-43.1	-58.1	238	36	
2025-11-20T00:00	7500	368	-43.3	-57.5	238	36	
2025-11-20T00:00	7520	367	-43.5	-56.9	238	36	
2025-11-20T00:00	7540	365	-43.6	-56.5	237	36	
2025-11-20T00:00	7560	364	-43.8	-55.7	237	36	
2025-11-20T00:00	7580	363	-43.9	-55.6	237	36	
2025-11-20T00:00	7600	362	-44.0	-55.8	237	36	
2025-11-20T00:00	7620	361	-44.1	-55.7	237	35	
2025-11-20T00:00	7640	360	-44.2	-55.5	236	35	
2025-11-20T00:00	7660	359	-44.3	-55.3	236	35	
2025-11-20T00:00	7680	358	-44.4	-55.2	236	34	
2025-11-20T00:00	7700	357	-44.6	-55.5	235	34	
2025-11-20T00:00	7720	356	-44.7	-55.8	235	34	
2025-11-20T00:00	7740	355	-44.8	-56.1	235	34	
2025-11-20T00:00	7760	354	-44.8	-57.1	234	34	
2025-11-20T00:00	7780	353	-45.0	-56.7	234	34	
2025-11-20T00:00	7800	352	-45.2	-56.5	234	34	
2025-11-20T00:00	7820	350	-45.2	-56.9	235	34	
2025-11-20T00:00	7840	349	-45.3	-57.3	235	34	
2025-11-20T00:00	7860	348	-45.5	-57.4	236	34	
2025-11-20T00:00	7880	347	-45.6	-57.7	236	34	
2025-11-20T00:00	7900	346	-45.7	-57.8	236	34	
2025-11-20T00:00	7920	345	-45.9	-57.8	236	34	
2025-11-20T00:00	7940	344	-46.0	-57.7	235	34	
2025-11-20T00:00	7960	343	-46.1	-57.6	235	34	
2025-11-20T00:00	7980	342	-46.3	-57.6	235	34	
2025-11-20T00:00	8000	341	-46.4	-57.4	235	34	
2025-11-20T00:00	8020	340	-46.6	-57.2	235	34	
2025-11-20T00:00	8040	339	-46.8	-57.1	235	33	
2025-11-20T00:00	8060	338	-46.9	-57.2	236	33	
2025-11-20T00:00	8080	337	-47.1	-57.5	236	33	
2025-11-20T00:00	8100	336	-47.2	-57.8	236	33	
2025-11-20T00:00	8120	335	-47.4	-58.3	236	33	
2025-11-20T00:00	8140	334	-47.6	-58.3	236	33	
2025-11-20T00:00	8160	333	-47.7	-58.4	236	33	
2025-11-20T00:00	8180	332	-47.8	-58.6	235	33	
2025-11-20T00:00	8200	331	-48.0	-58.9	235	33	
2025-11-20T00:00	8220	330	-48.1	-59.1	235	33	
2025-11-20T00:00	8240	329	-48.3	-59.1	235	33	
2025-11-20T00:00	8260	328	-48.5	-59.2	235	33	
2025-11-20T00:00	8280	327	-48.7	-59.4	235	33	
2025-11-20T00:00	8300	326	-48.9	-59.5	235	33	
2025-11-20T00:00	8320	325	-49.1	-59.5	236	33	
2025-11-20T00:00	8340	324	-49.2	-59.9	236	33	
2025-11-20T00:00	8360	323	-49.3	-60.6	237	33	
2025-11-20T00:00	8380	322	-49.4	-61.0	238	33	
2025-11-20T00:00	8400	321	-49.5	-61.2	238	33	
2025-11-20T00:00	8420	320	-49.6	-61.7	239	33	
2025-11-20T00:00	8440	319	-49.7	-62.3	240	33	
2025-11-20T00:00	8460	318	-49.8	-62.5	241	32	
2025-11-20T00:00	8480	317	-50.0	-62.6	242	32	
2025-11-20T00:00	8500	316	-50.1	-63.0	242	32	
2025-11-20T00:00	8520	315	-50.1	-63.4	242	32	
2025-11-20T00:00	8540	314	-50.2	-63.6	242	32	
2025-11-20T00:00	8560	313	-50.3	-63.5	242	32	
2025-11-20T00:00	8580	312	-50.5	-63.4	241	32	
2025-11-20T00:00	8600	311	-50.6	-63.6	241	31	
2025-11-20T00:00	8620	310	-50.6	-64.1	240	31	
2025-11-20T00:00	8640	309	-50.6	-65.1	240	31	
2025-11-20T00:00	8660	308	-50.3	-66.1	239	30	
2025-11-20T00:00	8680	308	-50.3	-66.3	239	30	
2025-11-20T00:00	8700	307	-50.4	-66.1	238	30	
2025-11-20T00:00	8720	306	-50.6	-66.0	237	30	
2025-11-20T00:00	8740	305	-50.7	-66.3	236	29	
2025-11-20T00:00	8760	304	-50.7	-66.7	236	29	
2025-11-20T00:00	8780	303	-50.7	-67.2	235	29	
2025-11-20T00:00	8800	302	-50.8	-67.4	234	29	
2025-11-20T00:00	8820	301	-50.9	-67.5	234	29	
2025-11-20T00:00	8840	300	-51.0	-67.6	234	29	
2025-11-20T00:00	8860	299	-51.1	-67.6	234	29	
2025-11-20T00:00	8880	298	-51.2	-67.8	234	29	
2025-11-20T00:00	8900	297	-51.3	-68.0	234	29	
2025-11-20T00:00	8920	296	-51.4	-68.2	235	29	
2025-11-20T00:00	8940	296	-51.5	-68.2	235	30	
2025-11-20T00:00	8960	295	-51.6	-68.1	235	30	
2025-11-20T00:00	8980	294	-51.7	-68.1	235	30	
2025-11-20T00:00	9000	293	-51.8	-68.2	235	30	
2025-11-20T00:00	9020	292	-51.8	-68.3	234	29	
2025-11-20T00:00	9040	291	-52.0	-68.5	234	29	
2025-11-20T00:00	9060	290	-52.0	-68.6	234	29	
2025-11-20T00:00	9080	289	-52.1	-68.7	233	29	
2025-11-20T00:00	9100	288	-52.1	-68.7	233	29	
2025-11-20T00:00	9120	287	-52.2	-68.7	234	29	
2025-11-20T00:00	9140	286	-52.3	-68.8	234	29	
2025-11-20T00:00	9160	286	-52.4	-68.9	235	29	
2025-11-20T00:00	9180	285	-52.6	-69.1	235	29	
2025-11-20T00:00	9200	284	-52.8	-69.2	236	29	
2025-11-20T00:00	9220	283	-52.9	-69.2	236	29	
2025-11-20T00:00	9240	282	-53.1	-69.3	237	29	
2025-11-20T00:00	9260	281	-53.3	-69.4	237	29	
2025-11-20T00:00	9280	280	-53.5	-69.5	236	29	
2025-11-20T00:00	9300	279	-53.7	-69.4	235	29	
2025-11-20T00:00	9320	279	-53.9	-69.4	235	28	
2025-11-20T00:00	9340	278	-54.0	-69.4	234	28	
2025-11-20T00:00	9360	277	-54.1	-69.4	234	28	
2025-11-20T00:00	9380	276	-54.2	-69.4	233	27	
2025-11-20T00:00	9400	275	-54.3	-69.4	233	27	
2025-11-20T00:00	9420	274	-54.4	-69.3	232	27	
2025-11-20T00:00	9440	273	-54.5	-69.4	232	27	
2025-11-20T00:00	9460	273	-54.6	-69.6	232	28	
2025-11-20T00:00	9480	272	-54.8	-69.5	233	28	
2025-11-20T00:00	9500	271	-54.8	-69.5	234	29	
2025-11-20T00:00	9520	270	-54.7	-69.5	235	29	
2025-11-20T00:00	9540	269	-54.6	-69.6	236	30	
2025-11-20T00:00	9560	268	-54.7	-69.7	236	30	
2025-11-20T00:00	9580	267	-54.8	-69.8	237	30	
2025-11-20T00:00	9600	267	-55.0	-69.8	238	31	
2025-11-20T00:00	9620	266	-55.1	-69.9	238	31	
2025-11-20T00:00	9640	265	-55.3	-69.8	238	31	
2025-11-20T00:00	9660	264	-55.4	-69.7	238	31	
2025-11-20T00:00	9680	263	-55.4	-69.6	238	31	
2025-11-20T00:00	9700	263	-55.4	-69.5	238	31	
2025-11-20T00:00	9720	262	-55.1	-69.3	237	31	
2025-11-20T00:00	9740	261	-55.0	-69.1	237	31	
2025-11-20T00:00	9760	260	-54.9	-68.9	237	31	
2025-11-20T00:00	9780	259	-54.9	-68.7	238	30	
2025-11-20T00:00	9800	258	-55.1	-68.8	238	30	
2025-11-20T00:00	9820	258	-55.2	-68.8	238	30	
2025-11-20T00:00	9840	257	-55.4	-68.9	239	30	
2025-11-20T00:00	9860	256	-55.6	-68.9	239	30	
2025-11-20T00:00	9880	255	-55.7	-68.8	239	30	
2025-11-20T00:00	9900	255	-55.8	-68.7	239	29	
2025-11-20T00:00	9920	254	-55.9	-68.6	239	29	
2025-11-20T00:00	9940	253	-56.1	-68.5	239	29	
2025-11-20T00:00	9960	252	-56.2	-68.5	238	29	
2025-11-20T00:00	9980	251	-56.3	-68.4	237	29	
2025-11-20T00:00	10000	250	-56.5	-68.5	237	29	
2025-11-20T00:00	10018	250	-56.6	-68.5	236	29	
2025-11-20T00:00	10050	248	-56.7	-68.5	235	30	
2025-11-20T00:00	10100	247	-56.7	-68.4	234	31	
2025-11-20T00:00	10150	245	-56.9	-68.5	234	32	
2025-11-20T00:00	10200	243	-57.1	-68.7	235	33	
2025-11-20T00:00	10250	241	-57.2	-69.0	235	34	
2025-11-20T00:00	10300	239	-57.4	-69.1	236	34	
2025-11-20T00:00	10350	237	-57.7	-69.3	238	35	
2025-11-20T00:00	10400	235	-57.6	-70.0	240	36	
2025-11-20T00:00	10450	233	-57.4	-71.1	242	37	
2025-11-20T00:00	10500	231	-56.9	-72.5	244	37	
2025-11-20T00:00	10550	230	-56.7	-72.9	245	36	
2025-11-20T00:00	10600	228	-56.8	-72.9	246	35	
2025-11-20T00:00	10650	226	-56.6	-73.0	246	33	
2025-11-20T00:00	10700	224	-56.6	-73.6	246	32	
2025-11-20T00:00	10750	222	-56.4	-74.4	246	32	
2025-11-20T00:00	10800	221	-56.7	-74.7	246	31	
2025-11-20T00:00	10850	219	-57.0	-74.8	245	30	
2025-11-20T00:00	10900	217	-56.7	-75.6	243	29	
2025-11-20T00:00	10950	216	-56.6	-76.1	240	28	
2025-11-20T00:00	11000	214	-56.4	-76.7	236	27	
2025-11-20T00:00	11050	212	-56.5	-77.4	231	26	
2025-11-20T00:00	11100	211	-55.9	-78.5	227	26	
2025-11-20T00:00	11150	209	-55.6	-79.1	226	26	
2025-11-20T00:00	11200	207	-55.8	-79.0	227	26	
2025-11-20T00:00	11250	206	-55.9	-79.1	228	27	
2025-11-20T00:00	11300	204	-55.9	-79.1	230	27	
2025-11-20T00:00	11350	202	-56.1	-79.3	232	28	
2025-11-20T00:00	11400	201	-56.4	-79.6	235	30	
2025-11-20T00:00	11450	199	-56.3	-79.8	238	30	
2025-11-20T00:00	11500	198	-56.3	-79.9	239	30	
2025-11-20T00:00	11550	196	-56.4	-80.1	241	30	
2025-11-20T00:00	11600	195	-56.4	-80.2	243	30	
2025-11-20T00:00	11650	193	-56.5	-80.2	245	30	
2025-11-20T00:00	11700	192	-56.6	-80.3	246	30	
2025-11-20T00:00	11750	190	-56.5	-80.5	246	30	
2025-11-20T00:00	11800	189	-56.4	-80.6	245	29	
2025-11-20T00:00	11850	187	-56.3	-80.6	245	30	
2025-11-20T00:00	11900	186	-56.2	-80.8	244	31	
2025-11-20T00:00	11950	184	-56.3	-80.8	242	32	
2025-11-20T00:00	12000	183	-56.4	-80.8	241	32	
2025-11-20T00:00	12050	181	-56.9	-80.9	240	33	
2025-11-20T00:00	12100	180	-57.3	-81.1	240	33	
2025-11-20T00:00	12150	178	-57.5	-81.1	241	32	
2025-11-20T00:00	12200	177	-57.7	-81.2	242	32	
2025-11-20T00:00	12250	176	-58.0	-81.3	242	31	
2025-11-20T00:00	12300	174	-58.1	-81.4	242	31	
2025-11-20T00:00	12350	173	-57.8	-81.4	243	31	
2025-11-20T00:00	12400	172	-57.8	-81.4	245	31	
2025-11-20T00:00	12450	170	-58.0	-81.5	248	31	
2025-11-20T00:00	12500	169	-57.9	-81.5	250	31	
2025-11-20T00:00	12550	167	-57.7	-81.6	251	31	
2025-11-20T00:00	12600	166	-57.8	-81.8	250	30	
2025-11-20T00:00	12650	165	-58.0	-81.9	250	30	
2025-11-20T00:00	12700	164	-58.0	-82.0	249	30	
2025-11-20T00:00	12750	162	-57.9	-82.2	248	30	
2025-11-20T00:00	12800	161	-57.7	-82.2	248	30	
2025-11-20T00:00	12850	160	-57.5	-82.2	248	30	
2025-11-20T00:00	12900	158	-57.4	-82.3	248	30	
2025-11-20T00:00	12950	157	-57.1	-82.3	247	29	
2025-11-20T00:00	13000	156	-57.1	-82.3	248	29	
2025-11-20T00:00	13050	155	-57.1	-82.3	247	29	
2025-11-20T00:00	13100	153	-57.1	-82.3	246	30	
2025-11-20T00:00	13150	152	-57.4	-82.4	246	31	
2025-11-20T00:00	13200	151	-57.4	-82.4	247	31	
2025-11-20T00:00	13250	150	-57.3	-82.5	250	31	
2025-11-20T00:00	13300	149	-57.0	-82.5	253	30	
2025-11-20T00:00	13350	148	-56.6	-82.4	256	29	
2025-11-20T00:00	13400	146	-56.7	-82.5	258	29	
2025-11-20T00:00	13450	145	-56.8	-82.4	259	29	
2025-11-20T00:00	13500	144	-57.0	-82.5	258	29	
2025-11-20T00:00	13550	143	-56.9	-82.5	257	29	
2025-11-20T00:00	13600	142	-57.3	-82.6	256	30	
2025-11-20T00:00	13650	141	-57.4	-82.7	255	29	
2025-11-20T00:00	13700	140	-57.1	-82.7	255	29	
2025-11-20T00:00	13750	138	-56.7	-82.7	254	29	
2025-11-20T00:00	13800	137	-56.7	-82.6	255	30	
2025-11-20T00:00	13850	136	-57.0	-82.7	255	30	
2025-11-20T00:00	13900	135	-57.3	-82.8	256	31	
2025-11-20T00:00	13950	134	-57.3	-82.9	257	31	
2025-11-20T00:00	14000	133	-57.4	-83.0	257	30	
2025-11-20T00:00	14050	132	-57.0	-83.0	257	29	
2025-11-20T00:00	14100	131	-57.2	-83.1	257	29	
2025-11-20T00:00	14150	130	-57.4	-83.1	256	29	
2025-11-20T00:00	14200	129	-57.6	-83.2	255	29	
2025-11-20T00:00	14250	128	-57.6	-83.2	254	30	
2025-11-20T00:00	14300	127	-57.7	-83.3	255	29	
2025-11-20T00:00	14350	126	-57.9	-83.4	255	29	
2025-11-20T00:00	14400	125	-57.7	-83.4	255	29	
2025-11-20T00:00	14450	124	-57.8	-83.5	254	29	
2025-11-20T00:00	14500	123	-57.9	-83.7	255	30	
2025-11-20T00:00	14550	122	-57.7	-83.7	255	29	
2025-11-20T00:00	14600	121	-57.7	-83.7	254	28	
2025-11-20T00:00	14650	120	-57.5	-83.8	252	28	
2025-11-20T00:00	14700	119	-57.3	-83.7	249	28	
2025-11-20T00:00	14750	118	-57.4	-83.8	247	28	
2025-11-20T00:00	14800	117	-57.3	-83.8	247	28	
2025-11-20T00:00	14850	116	-57.2	-83.9	248	28	
2025-11-20T00:00	14900	115	-57.2	-83.9	247	28	
2025-11-20T00:00	14950	115	-57.1	-83.8	246	27	
2025-11-20T00:00	15000	114	-57.2	-83.9	245	27	
2025-11-20T00:00	15050	113	-57.4	-83.8	246	28	
2025-11-20T00:00	15100	112	-57.7	-83.9	246	28	
2025-11-20T00:00	15150	111	-58.1	-84.0	246	28	
2025-11-20T00:00	15200	110	-58.2	-84.1	246	28	
2025-11-20T00:00	15250	109	-58.3	-84.1	246	27	
2025-11-20T00:00	15300	108	-58.4	-84.2	246	26	
2025-11-20T00:00	15350	107	-58.6	-84.2	247	26	
2025-11-20T00:00	15400	107	-58.7	-84.2	247	26	
2025-11-20T00:00	15450	106	-59.1	-84.3	249	26	
2025-11-20T00:00	15500	105	-59.5	-84.5	250	26	
2025-11-20T00:00	15550	104	-59.7	-84.4	251	25	
2025-11-20T00:00	15600	103	-60.0	-84.6	252	25	
2025-11-20T00:00	15650	102	-60.0	-84.7	253	25	
2025-11-20T00:00	15700	102	-59.9	-84.7	253	25	
2025-11-20T00:00	15750	101	-60.1	-84.9	254	25	
2025-11-20T00:00	15800	100	-60.3	-84.9	254	25	
2025-11-20T00:00	15850	99	-60.5	-85.0	254	25	
2025-11-20T00:00	15900	98	-60.7	-85.1	255	25	
2025-11-20T00:00	15950	98	-60.9	-85.2	255	25	
2025-11-20T00:00	16000	97	-61.2	-85.2	256	25	
2025-11-20T00:00	16050	96	-61.5	-85.3	255	25	
2025-11-20T00:00	16100	95	-61.7	-85.5	255	25	
2025-11-20T00:00	16150	95	-61.6	-85.5	256	25	
2025-11-20T00:00	16200	94	-61.8	-85.5	257	25	
2025-11-20T00:00	16250	93	-62.1	-85.7	258	26	
2025-11-20T00:00	16300	92	-61.9	-85.6	257	27	
2025-11-20T00:00	16350	92	-62.0	-85.8	257	27	
2025-11-20T00:00	16400	91	-61.5	-85.7	255	26	
2025-11-20T00:00	16450	90	-61.5	-85.8	253	24	
2025-11-20T00:00	16500	89	-61.2	-85.7	254	24	
2025-11-20T00:00	16550	89	-60.9	-85.6	253	25	
2025-11-20T00:00	16600	88	-61.2	-85.6	252	26	
2025-11-20T00:00	16650	87	-61.6	-85.7	252	26	
2025-11-20T00:00	16700	87	-61.7	-85.7	251	25	
2025-11-20T00:00	16750	86	-61.8	-85.8	249	25	
2025-11-20T00:00	16800	85	-62.0	-85.8	248	25	
2025-11-20T00:00	16850	84	-62.3	-85.8	248	25	
2025-11-20T00:00	16900	84	-62.5	-85.9	249	26	
2025-11-20T00:00	16950	83	-62.8	-86.0	250	27	
2025-11-20T00:00	17000	82	-63.1	-86.1	251	27	
2025-11-20T00:00	17050	82	-63.2	-86.1	251	28	
2025-11-20T00:00	17100	81	-63.4	-86.3	251	28	
2025-11-20T00:00	17150	80	-63.4	-86.4	249	28	
2025-11-20T00:00	17200	80	-63.2	-86.3	247	28	
2025-11-20T00:00	17250	79	-63.4	-86.5	248	28	
2025-11-20T00:00	17300	78	-63.5	-86.5	250	28	
2025-11-20T00:00	17350	78	-63.5	-86.5	251	28	
2025-11-20T00:00	17400	77	-63.7	-86.5	251	28	
2025-11-20T00:00	17450	77	-64.2	-86.6	251	29	
2025-11-20T00:00	17500	76	-64.6	-86.7	251	29	
2025-11-20T00:00	17550	75	-65.1	-86.9	252	29	
2025-11-20T00:00	17600	75	-65.0	-87.1	253	29	
2025-11-20T00:00	17650	74	-64.7	-87.1	253	29	
2025-11-20T00:00	17700	74	-64.6	-87.1	253	29	
2025-11-20T00:00	17750	73	-64.8	-87.2	253	29	
2025-11-20T00:00	17800	72	-64.9	-87.1	253	29	
2025-11-20T00:00	17850	72	-65.0	-87.1	254	28	
2025-11-20T00:00	17900	71	-65.0	-87.1	256	29	
2025-11-20T00:00	17950	71	-65.3	-87.2	257	29	
2025-11-20T00:00	18000	70	-65.6	-87.3	257	28	
2025-11-20T00:00	18050	69	-65.9	-87.5	256	27	
2025-11-20T00:00	18100	69	-65.8	-87.5	254	26	
2025-11-20T00:00	18150	68	-65.7	-87.6	253	26	
2025-11-20T00:00	18200	68	-65.4	-87.6	252	27	
2025-11-20T00:00	18250	67	-65.1	-87.4	253	29	
2025-11-20T00:00	18300	67	-65.2	-87.3	254	30	
2025-11-20T00:00	18350	66	-65.5	-87.4	256	31	
2025-11-20T00:00	18400	65	-65.8	-87.5	257	32	
2025-11-20T00:00	18450	65	-65.9	-87.5	257	32	
2025-11-20T00:00	18500	64	-65.6	-87.5	257	31	
2025-11-20T00:00	18550	64	-65.7	-87.7	255	30	
2025-11-20T00:00	18600	63	-65.1	-87.6	253	30	
2025-11-20T00:00	18650	63	-64.5	-87.6	251	30	
2025-11-20T00:00	18700	62	-63.5	-87.1	252	30	
2025-11-20T00:00	18750	62	-63.7	-87.1	252	29	
2025-11-20T00:00	18800	61	-63.8	-87.1	249	30	
2025-11-20T00:00	18850	61	-63.5	-87.0	247	30	
2025-11-20T00:00	18900	60	-63.5	-87.0	247	30	
2025-11-20T00:00	18950	60	-63.5	-87.0	248	30	
2025-11-20T00:00	19000	59	-63.8	-87.0	249	30	
2025-11-20T00:00	19050	59	-64.0	-87.1	250	30	
2025-11-20T00:00	19100	58	-64.3	-87.2	251	30	
2025-11-20T00:00	19150	58	-64.6	-87.3	253	30	
2025-11-20T00:00	19200	57	-64.7	-87.3	255	31	
2025-11-20T00:00	19250	57	-64.7	-87.3	257	31	
2025-11-20T00:00	19300	57	-64.9	-87.4	257	31	
2025-11-20T00:00	19350	56	-65.1	-87.6	256	31	
2025-11-20T00:00	19400	56	-65.1	-87.5	254	31	
2025-11-20T00:00	19450	55	-65.3	-87.6	253	31	
2025-11-20T00:00	19500	55	-65.6	-87.8	252	32	
2025-11-20T00:00	19550	54	-65.7	-88.1	253	33	
2025-11-20T00:00	19600	54	-65.1	-88.0	254	33	
2025-11-20T00:00	19650	53	-64.8	-88.0	255	33	
2025-11-20T00:00	19700	53	-64.9	-88.0	256	34	
2025-11-20T00:00	19750	53	-65.1	-88.0	256	33	
2025-11-20T00:00	19800	52	-64.9	-87.8	255	32	
2025-11-20T00:00	19850	52	-65.0	-88.0	255	31	
2025-11-20T00:00	19900	51	-65.0	-88.1	254	31	
2025-11-20T00:00	19950	51	-64.8	-87.9	254	32	
2025-11-20T00:00	20000	50	-65.0	-88.0	255	32	
2025-11-20T00:00	20050	50	-64.9		254	33	
2025-11-20T00:00	20100	50	-64.8		254	33	
2025-11-20T00:00	20150	49	-65.0		255	32	
2025-11-20T00:00	20200	49	-65.3		256	32	
2025-11-20T00:00	20250	48	-65.5		257	31	
2025-11-20T00:00	20300	48	-65.6		260	30	
2025-11-20T00:00	20350	48	-65.7		263	29	
2025-11-20T00:00	20400	47	-65.8		264	29	
2025-11-20T00:00	20450	47	-65.9		263	30	
2025-11-20T00:00	20500	46	-66.2		263	30	
2025-11-20T00:00	20550	46	-66.5		263	31	
2025-11-20T00:00	20600	46	-67.0		264	31	
2025-11-20T00:00	20650	45	-67.4		265	31	
2025-11-20T00:00	20700	45	-67.4		265	32	
2025-11-20T00:00	20750	45	-67.4		265	32	
2025-11-20T00:00	20800	44	-67.5		263	32	
2025-11-20T00:00	20850	44	-67.8		262	32	
2025-11-20T00:00	20900	43	-68.1		260	31	
2025-11-20T00:00	20950	43	-68.4		259	32	
2025-11-20T00:00	21000	43	-68.6		259	32	
2025-11-20T00:00	21050	42	-68.9		260	33	
2025-11-20T00:00	21100	42	-69.2		261	33	
2025-11-20T00:00	21150	42	-69.2		261	34	
2025-11-20T00:00	21200	41	-68.9		262	34	
2025-11-20T00:00	21250	41	-69.0		262	34	
2025-11-20T00:00	21300	41	-69.0		263	34	
2025-11-20T00:00	21350	40	-68.9		265	33	
2025-11-20T00:00	21400	40	-69.2		266	33	
2025-11-20T00:00	21450	40	-69.5		267	33	
2025-11-20T00:00	21500	39	-69.6		267	32	
2025-11-20T00:00	21550	39	-69.6		265	32	
2025-11-20T00:00	21600	39	-69.0		262	32	
2025-11-20T00:00	21650	38	-68.5		261	32	
2025-11-20T00:00	21700	38	-68.4		262	32	
2025-11-20T00:00	21750	38	-67.9		261	31	
2025-11-20T00:00	21800	37	-67.6		257	31	
2025-11-20T00:00	21850	37	-67.2		257	33	
2025-11-20T00:00	21900	37	-67.0		258	33	
2025-11-20T00:00	21950	36	-67.0		259	33	
2025-11-20T00:00	22000	36	-67.0		261	32	
2025-11-20T00:00	22050	36	-67.0		262	31	
2025-11-20T00:00	22100	36	-66.9		262	29	
2025-11-20T00:00	22150	35	-67.0		262	28	
2025-11-20T00:00	22200	35	-67.3		262	27	
2025-11-20T00:00	22250	35	-67.6		261	26	
2025-11-20T00:00	22300	34	-67.8		260	26	
2025-11-20T00:00	22350	34	-68.0		258	26	
2025-11-20T00:00	22400	34	-68.3		256	26	
2025-11-20T00:00	22450	34	-68.6		254	26	
2025-11-20T00:00	22500	33	-68.9		254	26	
2025-11-20T00:00	22550	33	-69.1		254	27	
2025-11-20T00:00	22600	33	-69.2		253	29	
2025-11-20T00:00	22650	32	-69.4		253	30	
2025-11-20T00:00	22700	32	-69.7		252	30	
2025-11-20T00:00	22750	32	-70.0		252	31	
2025-11-20T00:00	22800	32	-70.2		251	32	
2025-11-20T00:00	22850	31	-70.2		249	33	
2025-11-20T00:00	22900	31	-70.4		248	33	
2025-11-20T00:00	22950	31	-70.7		248	33	
2025-11-20T00:00	23000	31	-71.0		248	34	
2025-11-20T00:00	23050	30	-71.3		249	34	
2025-11-20T00:00	23100	30	-71.7		250	35	
2025-11-20T00:00	23150	30	-72.0		250	35	
2025-11-20T00:00	23200	30	-72.3		251	35	
2025-11-20T00:00	23250	29	-72.2		252	35	
2025-11-20T00:00	23300	29	-72.2		253	35	
2025-11-20T00:00	23350	29	-72.4		253	35	
2025-11-20T00:00	23400	29	-72.6		253	35	
2025-11-20T00:00	23450	28	-73.0		253	36	
2025-11-20T00:00	23500	28	-72.4		253	38	
2025-11-20T00:00	23550	28	-71.7		253	40	
2025-11-20T00:00	23600	28	-71.2		256	40	
2025-11-20T00:00	23650	27	-70.8		256	39	
2025-11-20T00:00	23700	27	-70.2		255	38	
2025-11-20T00:00	23750	27	-69.7		253	37	
2025-11-20T00:00	23800	27	-69.3		254	37	
2025-11-20T00:00	23850	26	-69.3		255	37	
2025-11-20T00:00	23900	26	-69.3		256	37	
2025-11-20T00:00	23950	26	-69.3		257	37	
2025-11-20T00:00	24000	26	-69.5		257	37	
2025-11-20T00:00	24050	26	-69.1		256	36	
2025-11-20T00:00	24100	25	-69.3		255	36	
2025-11-20T00:00	24150	25	-69.5		254	36	
2025-11-20T00:00	24200	25	-69.6		254	36	
2025-11-20T00:00	24250	25	-69.7		253	35	
2025-11-20T00:00	24300	25	-69.9		254	35	
2025-11-20T00:00	24350	24	-70.1		254	35	
2025-11-20T00:00	24400	24	-70.1		256	36	
2025-11-20T00:00	24450	24	-70.2		257	37	
2025-11-20T00:00	24500	24	-70.4		258	38	
2025-11-20T00:00	24550	24	-70.5		258	39	
2025-11-20T00:00	24600	23	-70.6		259	39	
2025-11-20T00:00	24650	23	-70.6		260	39	
2025-11-20T00:00	24700	23	-70.8		260	39	
2025-11-20T00:00	24750	23	-70.6		259	39	
2025-11-20T00:00	24800	23	-70.6		258	39	
2025-11-20T00:00	24850	22	-70.9		257	39	
2025-11-20T00:00	24900	22	-71.2		257	39	
2025-11-20T00:00	24950	22	-71.5		257	39	
2025-11-20T00:00	25000	22	-71.2		257	39	
2025-11-20T00:00	25050	22	-70.9		258	40	
2025-11-20T00:00	25100	21	-70.2		257	42	
2025-11-20T00:00	25150	21	-69.0		256	43	
2025-11-20T00:00	25200	21	-68.2		257	45	
2025-11-20T00:00	25250	21	-67.9		258	46	
2025-11-20T00:00	25300	21	-67.0		259	46	
2025-11-20T00:00	25350	21	-66.7		260	45	
2025-11-20T00:00	25400	20	-66.8		261	44	
2025-11-20T00:00	25450	20	-66.8		262	44	
2025-11-20T00:00	25500	20	-66.8		263	44	
2025-11-20T00:00	25550	20	-66.9		264	45	
2025-11-20T00:00	25600	20	-67.0		264	45	
2025-11-20T00:00	25650	20	-66.9		263	46	
2025-11-20T00:00	25700	19	-67.2		263	47	
2025-11-20T00:00	25750	19	-67.1		263	47	
2025-11-20T00:00	25800	19	-67.1		264	47	
2025-11-20T00:00	25850	19	-67.0		264	48	
2025-11-20T00:00	25900	19	-67.3		264	48	
2025-11-20T00:00	25950	19	-67.6		264	49	
2025-11-20T00:00	26000	18	-67.7		263	49	
2025-11-20T00:00	26050	18	-67.7		262	49	
2025-11-20T00:00	26100	18	-67.7		260	50	
2025-11-20T00:00	26150	18	-67.7		258	51	
2025-11-20T00:00	26200	18	-67.7		257	51	
2025-11-20T00:00	26250	18	-67.5		256	51	
2025-11-20T00:00	26300	18	-67.1		256	51	
2025-11-20T00:00	26350	17	-66.5		257	49	
2025-11-20T00:00	26400	17	-66.4		259	47	
2025-11-20T00:00	26450	17	-65.7		263	46	
2025-11-20T00:00	26500	17	-63.6		259	44	
2025-11-20T00:00	26550	17	-61.9		252	44	
2025-11-20T00:00	26600	17	-60.7		249	43	
2025-11-20T00:00	26650	17	-59.3		252	42	
2025-11-20T00:00	26700	16	-59.6		255	41	
2025-11-20T00:00	26750	16	-60.0		257	40	
2025-11-20T00:00	26800	16	-59.9		256	40	
2025-11-20T00:00	26850	16	-59.3		254	39	
2025-11-20T00:00	26900	16	-58.9		252	39	
2025-11-20T00:00	26950	16	-58.8		250	39	
2025-11-20T00:00	27000	16	-59.0		249	40	
2025-11-20T00:00	27050	16	-59.2		249	40	
2025-11-20T00:00	27100	15	-59.5		249	41	
2025-11-20T00:00	27150	15	-59.8		248	41	
2025-11-20T00:00	27200	15	-60.0		248	41	
2025-11-20T00:00	27250	15	-60.2		247	42	
2025-11-20T00:00	27300	15	-60.3		247	42	
2025-11-20T00:00	27350	15	-60.3		246	42	
2025-11-20T00:00	27400	15	-60.5		246	42	
2025-11-20T00:00	27450	15	-60.9		246	42	
2025-11-20T00:00	27500	14	-61.2		246	42	
2025-11-20T00:00	27550	14	-61.5		246	42	
2025-11-20T00:00	27600	14	-61.8		246	42	
2025-11-20T00:00	27650	14	-62.1		246	41	
2025-11-20T00:00	27700	14	-62.5		247	42	
2025-11-20T00:00	27750	14	-63.0		247	42	
2025-11-20T00:00	27800	14	-63.3		247	42	
2025-11-20T00:00	27850	14	-63.8		247	42	
2025-11-20T00:00	27900	14	-64.1		247	43	
2025-11-20T00:00	27950	13	-64.5		247	43	
2025-11-20T00:00	28000	13	-64.9		247	43	
2025-11-20T00:00	28050	13	-65.3		247	43	
2025-11-20T00:00	28100	13	-65.6		247	44	
2025-11-20T00:00	28150	13	-65.9		247	44	
2025-11-20T00:00	28200	13	-66.2		247	44	
2025-11-20T00:00	28250	13	-66.5		247	45	
2025-11-20T00:00	28300	13	-66.8		247	45	
2025-11-20T00:00	28350	13	-67.1		247	45	
2025-11-20T00:00	28400	13	-67.4		248	46	
2025-11-20T00:00	28450	12	-67.7		250	46	
2025-11-20T00:00	28500	12	-68.1		251	47	
2025-11-20T00:00	28550	12	-68.2		253	48	
2025-11-20T00:00	28600	12	-68.3		255	49	
2025-11-20T00:00	28650	12	-68.4		256	50	
2025-11-20T00:00	28700	12	-68.1		257	51	
2025-11-20T00:00	28750	12	-68.0		259	52	
2025-11-20T00:00	28800	12	-67.5		260	54	
2025-11-20T00:00	28850	12	-67.4		263	56	
2025-11-20T00:00	28900	12	-63.9		260	55	
2025-11-20T00:00	28950	11	-59.4		256	54	
2025-11-20T00:00	29000	11	-58.9		259	54	
2025-11-20T00:00	29050	11	-58.4		261	54	
2025-11-20T00:00	29100	11	-58.0		262	55	
2025-11-20T00:00	29150	11	-57.9		263	55	
2025-11-20T00:00	29200	11	-58.0		264	56	
2025-11-20T00:00	29250	11	-58.4		264	56	
2025-11-20T00:00	29300	11	-58.7		265	57	
2025-11-20T00:00	29350	11	-58.8		266	58	
2025-11-20T00:00	29400	11	-59.1		267	58	
2025-11-20T00:00	29450	11	-58.9		267	59	
2025-11-20T00:00	29500	10	-58.4		268	60	
2025-11-20T00:00	29550	10	-58.4		268	60	
2025-11-20T00:00	29600	10	-58.6		268	60	
2025-11-20T00:00	29650	10	-58.8		268	61	
2025-11-20T00:00	29700	10	-59.1		268	61	
2025-11-20T00:00	29750	10	-59.3		268	61	
2025-11-20T00:00	29800	10	-59.5		268	62	
2025-11-20T00:00	29850	10	-59.7		267	62	
2025-11-20T00:00	29900	10	-60.1		266	62	
2025-11-20T00:00	29950	10	-60.1		266	62	
2025-11-20T00:00	30000	10	-60.1		265	63	
2025-11-20T00:00	30050	10	-60.3		265	63	
2025-11-20T00:00	30100	10	-60.6		264	63	
2025-11-20T00:00	30150	9	-60.9		263	64	
2025-11-20T00:00	30200	9	-61.1		262	64	
2025-11-20T00:00	30250	9	-61.4		262	65	
2025-11-20T00:00	30300	9	-61.6		261	65	
2025-11-20T00:00	30350	9	-61.8		261	66	
2025-11-20T00:00	30400	9	-61.9		260	66	
2025-11-20T00:00	30450	9	-62.1		260	66	
2025-11-20T00:00	30500	9	-62.1		259	66	
2025-11-20T00:00	30550	9	-61.9		259	66	
2025-11-20T00:00	30600	9	-62.3		259	65	
2025-11-20T00:00	30650	9	-62.3		258	63	
2025-11-20T00:00	30700	9	-62.2		256	62	
2025-11-20T00:00	30750	9	-60.0		255	63	
2025-11-20T00:00	30800	8	-51.8		252	64	
2025-11-20T00:00	30850	8	-51.4		253	66	
2025-11-20T00:00	30900	8	-51.2		253	68	
2025-11-20T00:00	30950	8	-50.7		254	69	
2025-11-20T00:00	31000	8	-50.2		255	69	
2025-11-20T00:00	31050	8	-50.3		256	69	
2025-11-20T00:00	31100	8	-50.5		256	70	
2025-11-20T00:00	31150	8	-50.6		257	71	
2025-11-20T00:00	31200	8	-50.8		258	72	
2025-11-20T00:00	31250	8	-51.0		259	73	
2025-11-20T00:00	31300	8	-51.1		260	73	
2025-11-20T00:00	31350	8	-51.3		261	74	
2025-11-20T00:00	31400	8	-51.5		262	74	
2025-11-20T00:00	31450	8	-51.8		263	74	
2025-11-20T00:00	31500	8	-52.0		265	75	
2025-11-20T00:00	31550	8	-52.0		266	76	
2025-11-20T00:00	31600	8	-51.3		267	77	
2025-11-20T00:00	31650	7	-51.1		267	78	
2025-11-20T00:00	31700	7	-51.1		268	78	
2025-11-20T00:00	31750	7	-51.0		268	79	
2025-11-20T00:00	31800	7	-51.0		270	79	
2025-11-20T00:00	31850	7	-50.0		271	78	
2025-11-20T00:00	31900	7	-49.1		272	76	
2025-11-20T00:00	31950	7	-47.5		271	74	
2025-11-20T00:00	32000	7	-46.3		269	71	
2025-11-20T00:00	32050	7	-46.0		267	70	
2025-11-20T00:00	32100	7	-45.4		265	69	
2025-11-20T00:00	32150	7	-44.9		263	68	
2025-11-20T00:00	32200	7	-45.0		262	68	
2025-11-20T00:00	32250	7	-44.9		261	67	
2025-11-20T00:00	32300	7	-44.7		259	67	
2025-11-20T00:00	32350	7	-44.8		258	67	
2025-11-20T00:00	32400	7	-44.3		256	68	
2025-11-20T00:00	32450	7	-43.8		256	69	
2025-11-20T00:00	32500	7	-43.7		255	70	
2025-11-20T00:00	32550	7	-43.8		255	71	
2025-11-20T00:00	32600	6	-43.9		255	72	
2025-11-20T00:00	32650	6	-44.0		254	73	
2025-11-20T00:00	32700	6	-44.0		254	74	
2025-11-20T00:00	32750	6	-44.1		254	75	
2025-11-20T00:00	32800	6	-43.9		254	76	
2025-11-20T00:00	32850	6	-43.6		254	77	
2025-11-20T00:00	32900	6	-43.6		254	78	
2025-11-20T00:00	32950	6	-43.7		254	78	
2025-11-20T00:00	33000	6	-43.8		254	78	
2025-11-20T00:00	33050	6	-43.9		253	78	
2025-11-20T00:00	33100	6	-43.7		253	78	
2025-11-20T00:00	33150	6	-43.5		253	78	
2025-11-20T00:00	33200	6	-43.8		252	77	
2025-11-20T00:00	33250	6	-44.0		252	77	
2025-11-20T00:00	33300	6	-44.0		253	77	
2025-11-20T00:00	33350	6	-44.1		253	77	
2025-11-20T00:00	33400	6	-44.5		254	76	
2025-11-20T00:00	33450	6	-44.8		255	76	
2025-11-20T00:00	33500	6	-45.0		255	75	
2025-11-20T00:00	33550	6	-44.6		255	75	
2025-11-20T00:00	33600	6	-43.2		255	74	
2025-11-20T00:00	33650	6	-42.0		257	72	
2025-11-20T00:00	33700	5	-41.5		260	71	
2025-11-20T00:00	33750	5	-40.8		262	69	
2025-11-20T00:00	33800	5	-39.9		262	70	
2025-11-20T00:00	33850	5	-39.7		261	70	
2025-11-20T00:00	33900	5	-39.8		260	71	
2025-11-20T00:00	33950	5	-40.1		260	71	
2025-11-20T00:00	34000	5	-40.1		259	72	
2025-11-20T00:00	34050	5	-40.2		260	74	
2025-11-20T00:00	34100	5	-40.2		260	75	
2025-11-20T00:00	34150	5	-39.7		261	76	
2025-11-20T00:00	34200	5	-39.3		261	77	
2025-11-20T00:00	34250	5	-38.8		260	78	
2025-11-20T00:00	34300	5	-38.4		260	79	
2025-11-20T00:00	34350	5	-38.5		259	80	
2025-11-20T00:00	34400	5	-38.9		259	81	
2025-11-20T00:00	34450	5	-39.3		258	82	
2025-11-20T00:00	34500	5	-39.5		258	83	
2025-11-20T00:00	34550	5	-39.8		257	84	
2025-11-20T00:00	34600	5	-40.0		257	85	
2025-11-20T00:00	34650	5	-40.0		257	86	
2025-11-20T00:00	34700	5	-39.8		257	88	
2025-11-20T00:00	34750	5	-39.8		258	89	
2025-11-20T12:00	491	954	3.6	-0.6	229	2	
2025-11-20T12:00	501	952	3.1	-1.2	229	3	
2025-11-20T12:00	520	950	2.9	-1.5	230	3	
2025-11-20T12:00	540	948	2.7	-1.7	230	3	
2025-11-20T12:00	560	945	2.5	-1.9	230	4	
2025-11-20T12:00	580	943	2.2	-2.3	230	4	
2025-11-20T12:00	600	941	2.0	-2.5	229	4	
2025-11-20T12:00	620	939	1.8	-2.4	228	5	
2025-11-20T12:00	640	936	1.6	-2.5	227	5	
2025-11-20T12:00	660	934	1.4	-2.5	226	5	
2025-11-20T12:00	680	932	1.2	-2.6	228	5	
2025-11-20T12:00	700	929	1.0	-2.6	229	5	
2025-11-20T12:00	720	927	0.8	-2.6	232	5	
2025-11-20T12:00	740	925	0.6	-2.7	235	4	
2025-11-20T12:00	760	922	0.4	-3.0	237	4	
2025-11-20T12:00	780	920	0.3	-3.4	239	4	
2025-11-20T12:00	800	918	0.1	-3.2	239	4	
2025-11-20T12:00	820	916	-0.1	-3.3	239	4	
2025-11-20T12:00	840	913	-0.3	-3.2	240	4	
2025-11-20T12:00	860	911	-0.5	-3.2	241	4	
2025-11-20T12:00	880	909	-0.7	-3.3	243	4	
2025-11-20T12:00	900	907	-0.9	-3.3	245	4	
2025-11-20T12:00	920	904	-1.1	-3.2	248	4	
2025-11-20T12:00	940	902	-1.3	-3.2	251	4	
2025-11-20T12:00	960	900	-1.4	-3.4	254	4	
2025-11-20T12:00	980	897	-1.6	-3.3	257	3	
2025-11-20T12:00	1000	895	-1.8	-3.6	261	3	
2025-11-20T12:00	1020	893	-2.0	-4.0	266	2	
2025-11-20T12:00	1040	890	-2.1	-4.3	270	2	
2025-11-20T12:00	1060	888	-2.3	-4.9	265	1	
2025-11-20T12:00	1080	886	-2.4	-4.9	249	1	
2025-11-20T12:00	1100	884	-2.6	-5.1	240	1	
2025-11-20T12:00	1120	882	-2.7	-5.3	236	2	
2025-11-20T12:00	1140	879	-2.9	-5.4	235	2	
2025-11-20T12:00	1160	877	-3.1	-5.4	237	3	
2025-11-20T12:00	1180	875	-3.3	-5.4	239	3	
2025-11-20T12:00	1200	873	-3.5	-5.5	242	3	
2025-11-20T12:00	1220	871	-3.7	-5.6	245	3	
2025-11-20T12:00	1240	868	-3.8	-5.6	250	3	
2025-11-20T12:00	1260	866	-4.0	-5.6	255	3	
2025-11-20T12:00	1280	864	-4.2	-5.9	263	3	
2025-11-20T12:00	1300	862	-4.2	-6.1	275	4	
2025-11-20T12:00	1320	860	-4.4	-6.2	284	4	
2025-11-20T12:00	1340	858	-4.6	-6.3	292	4	
2025-11-20T12:00	1360	855	-4.8	-6.3	295	5	
2025-11-20T12:00	1380	853	-5.0	-6.4	296	5	
2025-11-20T12:00	1400	851	-5.2	-6.4	293	5	
2025-11-20T12:00	1420	849	-5.3	-6.5	290	5	
2025-11-20T12:00	1440	847	-5.4	-6.8	287	5	
2025-11-20T12:00	1460	844	-5.5	-7.1	284	6	
2025-11-20T12:00	1480	842	-5.6	-7.2	284	6	
2025-11-20T12:00	1500	840	-5.8	-7.3	285	5	
2025-11-20T12:00	1520	838	-6.0	-7.3	288	5	
2025-11-20T12:00	1540	836	-6.2	-7.6	291	5	
2025-11-20T12:00	1560	834	-6.4	-7.5	294	5	
2025-11-20T12:00	1580	832	-6.6	-7.6	295	5	
2025-11-20T12:00	1600	829	-6.7	-7.9	295	5	
2025-11-20T12:00	1620	827	-6.8	-8.2	294	5	
2025-11-20T12:00	1640	825	-7.0	-8.5	292	5	
2025-11-20T12:00	1660	823	-7.1	-9.0	291	5	
2025-11-20T12:00	1680	821	-7.2	-9.3	288	5	
2025-11-20T12:00	1700	819	-7.3	-9.6	286	5	
2025-11-20T12:00	1720	817	-7.5	-9.7	283	5	
2025-11-20T12:00	1740	815	-7.6	-9.7	280	5	
2025-11-20T12:00	1760	813	-7.8	-9.8	277	5	
2025-11-20T12:00	1780	811	-8.0	-10.2	276	5	
2025-11-20T12:00	1800	808	-8.1	-10.3	278	5	
2025-11-20T12:00	1820	806	-8.3	-10.3	282	5	
2025-11-20T12:00	1840	804	-8.4	-10.3	286	4	
2025-11-20T12:00	1860	802	-8.5	-10.6	291	4	
2025-11-20T12:00	1880	800	-8.7	-11.1	295	4	
2025-11-20T12:00	1900	798	-8.8	-11.3	298	4	
2025-11-20T12:00	1920	796	-9.0	-11.7	298	4	
2025-11-20T12:00	1940	794	-9.1	-11.9	297	4	
2025-11-20T12:00	1960	792	-9.3	-12.2	294	4	
2025-11-20T12:00	1980	790	-9.5	-12.1	290	4	
2025-11-20T12:00	2000	788	-9.7	-12.1	286	4	
2025-11-20T12:00	2020	786	-9.8	-12.2	284	4	
2025-11-20T12:00	2040	784	-10.0	-12.4	283	4	
2025-11-20T12:00	2060	782	-10.1	-12.5	284	4	
2025-11-20T12:00	2080	780	-10.2	-12.6	287	5	
2025-11-20T12:00	2100	778	-10.4	-12.9	290	5	
2025-11-20T12:00	2120	776	-10.6	-13.1	294	5	
2025-11-20T12:00	2140	774	-10.7	-13.1	297	5	
2025-11-20T12:00	2160	772	-10.9	-13.4	299	5	
2025-11-20T12:00	2180	770	-11.0	-13.5	298	5	
2025-11-20T12:00	2200	767	-11.2	-13.6	296	5	
2025-11-20T12:00	2220	766	-11.4	-13.9	293	5	
2025-11-20T12:00	2240	764	-11.5	-14.1	288	5	
2025-11-20T12:00	2260	762	-11.7	-14.1	283	5	
2025-11-20T12:00	2280	760	-11.8	-14.4	278	5	
2025-11-20T12:00	2300	758	-11.9	-14.6	276	4	
2025-11-20T12:00	2320	756	-12.1	-14.6	276	4	
2025-11-20T12:00	2340	754	-12.2	-14.8	277	4	
2025-11-20T12:00	2360	752	-12.4	-15.1	281	3	
2025-11-20T12:00	2380	750	-12.6	-15.4	288	3	
2025-11-20T12:00	2400	748	-12.7	-15.7	296	3	
2025-11-20T12:00	2420	746	-12.9	-15.7	307	3	
2025-11-20T12:00	2440	744	-13.1	-15.8	317	3	
2025-11-20T12:00	2460	742	-13.2	-16.0	322	3	
2025-11-20T12:00	2480	740	-13.4	-16.3	326	3	
2025-11-20T12:00	2500	738	-13.6	-16.3	329	3	
2025-11-20T12:00	2520	736	-13.8	-16.4	330	3	
2025-11-20T12:00	2540	734	-14.0	-16.5	327	3	
2025-11-20T12:00	2560	732	-14.2	-16.5	316	2	
2025-11-20T12:00	2580	730	-14.3	-16.6	302	2	
2025-11-20T12:00	2600	728	-14.4	-16.7	286	2	
2025-11-20T12:00	2620	726	-14.6	-16.8	273	3	
2025-11-20T12:00	2640	725	-14.7	-16.9	264	3	
2025-11-20T12:00	2660	723	-14.9	-17.0	260	3	
2025-11-20T12:00	2680	721	-15.1	-17.2	258	4	
2025-11-20T12:00	2700	719	-15.2	-17.6	255	4	
2025-11-20T12:00	2720	717	-15.3	-17.7	251	4	
2025-11-20T12:00	2740	715	-15.4	-17.7	246	4	
2025-11-20T12:00	2760	713	-15.6	-17.8	239	4	
2025-11-20T12:00	2780	711	-15.8	-17.8	232	4	
2025-11-20T12:00	2800	709	-16.0	-17.8	228	4	
2025-11-20T12:00	2820	707	-16.2	-17.8	227	4	
2025-11-20T12:00	2840	705	-16.3	-17.8	229	4	
2025-11-20T12:00	2860	704	-16.5	-17.8	234	4	
2025-11-20T12:00	2880	702	-16.7	-17.8	239	4	
2025-11-20T12:00	2900	700	-16.8	-17.6	245	4	
2025-11-20T12:00	2920	698	-16.9	-17.6	249	4	
2025-11-20T12:00	2940	696	-17.1	-17.8	254	4	
2025-11-20T12:00	2960	694	-17.2	-18.0	256	4	
2025-11-20T12:00	2980	693	-17.3	-18.1	258	4	
2025-11-20T12:00	3000	691	-17.5	-18.3	260	4	
2025-11-20T12:00	3020	689	-17.7	-18.5	261	4	
2025-11-20T12:00	3040	687	-17.8	-18.6	262	4	
2025-11-20T12:00	3060	685	-18.0	-18.6	262	4	
2025-11-20T12:00	3080	684	-18.2	-18.9	260	3	
2025-11-20T12:00	3100	682	-18.3	-19.2	258	3	
2025-11-20T12:00	3120	680	-18.4	-19.1	255	4	
2025-11-20T12:00	3140	678	-18.6	-19.3	255	4	
2025-11-20T12:00	3160	676	-18.7	-19.5	255	4	
2025-11-20T12:00	3180	674	-18.8	-19.7	256	4	
2025-11-20T12:00	3200	672	-19.0	-19.8	258	4	
2025-11-20T12:00	3220	671	-19.1	-20.1	260	4	
2025-11-20T12:00	3240	669	-19.3	-20.5	264	4	
2025-11-20T12:00	3260	667	-19.4	-20.6	267	4	
2025-11-20T12:00	3280	665	-19.5	-20.8	270	5	
2025-11-20T12:00	3300	663	-19.6	-20.9	272	5	
2025-11-20T12:00	3320	662	-19.7	-21.1	273	6	
2025-11-20T12:00	3340	660	-19.8	-21.3	272	6	
2025-11-20T12:00	3360	658	-19.9	-21.4	270	7	
2025-11-20T12:00	3380	656	-20.0	-21.6	268	7	
2025-11-20T12:00	3400	655	-20.1	-21.8	266	7	
2025-11-20T12:00	3420	653	-20.3	-22.1	263	7	
2025-11-20T12:00	3440	651	-20.5	-22.2	261	7	
2025-11-20T12:00	3460	649	-20.6	-22.3	258	7	
2025-11-20T12:00	3480	648	-20.8	-22.5	257	7	
2025-11-20T12:00	3500	646	-20.9	-22.7	255	7	
2025-11-20T12:00	3520	644	-21.0	-22.8	255	7	
2025-11-20T12:00	3540	642	-21.1	-22.9	257	7	
2025-11-20T12:00	3560	640	-21.3	-23.1	258	8	
2025-11-20T12:00	3580	639	-21.4	-23.3	258	8	
2025-11-20T12:00	3600	637	-21.5	-23.5	259	9	
2025-11-20T12:00	3620	635	-21.6	-23.6	260	10	
2025-11-20T12:00	3640	634	-21.7	-23.7	259	10	
2025-11-20T12:00	3660	632	-21.8	-24.0	258	11	
2025-11-20T12:00	3680	630	-22.0	-24.2	258	11	
2025-11-20T12:00	3700	628	-22.2	-24.4	256	11	
2025-11-20T12:00	3720	627	-22.3	-24.8	254	11	
2025-11-20T12:00	3740	625	-22.4	-25.1	252	11	
2025-11-20T12:00	3760	623	-22.6	-25.3	250	11	
2025-11-20T12:00	3780	622	-22.7	-25.5	250	10	
2025-11-20T12:00	3800	620	-22.9	-25.6	251	10	
2025-11-20T12:00	3820	618	-23.1	-25.8	252	10	
2025-11-20T12:00	3840	617	-23.2	-26.0	254	10	
2025-11-20T12:00	3860	615	-23.4	-26.0	254	10	
2025-11-20T12:00	3880	613	-23.6	-25.8	253	10	
2025-11-20T12:00	3900	612	-23.8	-25.9	250	10	
2025-11-20T12:00	3920	610	-24.0	-26.0	248	11	
2025-11-20T12:00	3940	608	-24.2	-26.3	245	11	
2025-11-20T12:00	3960	607	-24.4	-26.5	243	12	
2025-11-20T12:00	3980	605	-24.5	-27.4	241	12	
2025-11-20T12:00	4000	603	-24.6	-28.2	241	12	
2025-11-20T12:00	4020	602	-24.7	-28.0	241	12	
2025-11-20T12:00	4040	600	-24.9	-28.0	242	12	
2025-11-20T12:00	4060	598	-25.1	-28.2	244	12	
2025-11-20T12:00	4080	597	-25.2	-28.8	245	12	
2025-11-20T12:00	4100	595	-25.4	-28.8	247	12	
2025-11-20T12:00	4120	593	-25.6	-28.4	249	12	
2025-11-20T12:00	4140	592	-25.8	-28.8	250	12	
2025-11-20T12:00	4160	590	-26.0	-29.4	250	12	
2025-11-20T12:00	4180	588	-26.1	-29.4	250	12	
2025-11-20T12:00	4200	587	-26.3	-29.1	250	12	
2025-11-20T12:00	4220	585	-26.5	-29.5	249	13	
2025-11-20T12:00	4240	584	-26.7	-29.5	247	13	
2025-11-20T12:00	4260	582	-26.9	-29.5	245	13	
2025-11-20T12:00	4280	581	-27.0	-29.6	243	13	
2025-11-20T12:00	4300	579	-27.2	-29.8	240	13	
2025-11-20T12:00	4320	577	-27.3	-30.6	238	13	
2025-11-20T12:00	4340	576	-27.3	-31.6	236	12	
2025-11-20T12:00	4360	574	-27.5	-31.2	234	12	
2025-11-20T12:00	4380	572	-27.8	-30.5	233	12	
2025-11-20T12:00	4400	571	-27.9	-30.8	232	12	
2025-11-20T12:00	4420	569	-28.2	-30.6	231	12	
2025-11-20T12:00	4440	568	-28.4	-30.6	230	12	
2025-11-20T12:00	4460	566	-28.6	-30.8	230	13	
2025-11-20T12:00	4480	564	-28.6	-31.6	229	13	
2025-11-20T12:00	4500	563	-28.7	-31.5	229	13	
2025-11-20T12:00	4520	561	-28.8	-31.8	228	14	
2025-11-20T12:00	4540	560	-28.9	-32.0	227	14	
2025-11-20T12:00	4560	558	-29.0	-31.9	227	14	
2025-11-20T12:00	4580	557	-29.3	-32.0	226	14	
2025-11-20T12:00	4600	555	-29.5	-31.9	225	13	
2025-11-20T12:00	4620	553	-29.6	-32.0	224	13	
2025-11-20T12:00	4640	552	-29.7	-31.9	223	13	
2025-11-20T12:00	4660	550	-29.8	-32.4	222	13	
2025-11-20T12:00	4680	549	-30.0	-32.7	222	13	
2025-11-20T12:00	4700	547	-30.1	-32.7	222	13	
2025-11-20T12:00	4720	546	-30.3	-33.0	223	13	
2025-11-20T12:00	4740	544	-30.5	-33.2	224	13	
2025-11-20T12:00	4760	543	-30.7	-33.3	226	13	
2025-11-20T12:00	4780	541	-30.8	-33.6	227	13	
2025-11-20T12:00	4800	540	-31.0	-33.6	229	13	
2025-11-20T12:00	4820	538	-31.2	-33.6	230	13	
2025-11-20T12:00	4840	537	-31.4	-33.7	231	13	
2025-11-20T12:00	4860	535	-31.5	-33.8	231	13	
2025-11-20T12:00	4880	534	-31.7	-34.0	230	13	
2025-11-20T12:00	4900	532	-31.9	-34.0	229	13	
2025-11-20T12:00	4920	531	-32.1	-33.9	228	13	
2025-11-20T12:00	4940	529	-32.3	-34.1	226	13	
2025-11-20T12:00	4960	528	-32.4	-34.4	225	13	
2025-11-20T12:00	4980	526	-32.6	-34.3	223	12	
2025-11-20T12:00	5000	525	-32.8	-34.7	222	12	
2025-11-20T12:00	5020	523	-32.9	-34.8	221	12	
2025-11-20T12:00	5040	522	-33.1	-34.9	220	11	
2025-11-20T12:00	5060	520	-33.3	-34.9	220	11	
2025-11-20T12:00	5080	519	-33.5	-35.1	220	11	
2025-11-20T12:00	5100	517	-33.7	-35.4	220	12	
2025-11-20T12:00	5120	516	-33.9	-35.2	220	12	
2025-11-20T12:00	5140	514	-34.1	-35.0	220	12	
2025-11-20T12:00	5160	513	-34.2	-35.3	221	13	
2025-11-20T12:00	5180	511	-34.3	-35.3	221	13	
2025-11-20T12:00	5200	510	-34.5	-35.3	221	13	
2025-11-20T12:00	5220	509	-34.6	-35.4	222	14	
2025-11-20T12:00	5240	507	-34.8	-35.5	222	14	
2025-11-20T12:00	5260	506	-35.0	-35.4	223	14	
2025-11-20T12:00	5280	504	-35.2	-35.5	224	14	
2025-11-20T12:00	5300	503	-35.3	-35.5	225	14	
2025-11-20T12:00	5320	501	-35.5	-35.5	226	14	
2025-11-20T12:00	5340	500	-35.6	-35.8	226	14	
2025-11-20T12:00	5360	498	-35.8	-37.5	227	14	
2025-11-20T12:00	5380	497	-36.0	-41.2	228	14	
2025-11-20T12:00	5400	495	-36.2	-40.4	229	14	
2025-11-20T12:00	5420	494	-36.3	-40.7	230	14	
2025-11-20T12:00	5440	493	-36.5	-41.7	232	14	
2025-11-20T12:00	5460	491	-36.7	-41.2	234	15	
2025-11-20T12:00	5480	490	-36.9	-41.6	235	15	
2025-11-20T12:00	5500	488	-37.1	-46.3	237	15	
2025-11-20T12:00	5520	487	-37.3	-46.6	238	16	
2025-11-20T12:00	5540	485	-37.4	-53.7	239	16	
2025-11-20T12:00	5560	484	-37.4	-55.2	240	16	
2025-11-20T12:00	5580	483	-37.5	-54.9	240	15	
2025-11-20T12:00	5600	481	-37.6	-54.0	241	15	
2025-11-20T12:00	5620	480	-37.6	-49.8	242	15	
2025-11-20T12:00	5640	479	-37.5	-45.4	243	15	
2025-11-20T12:00	5660	477	-37.5	-43.0	244	16	
2025-11-20T12:00	5680	476	-37.7	-44.0	244	16	
2025-11-20T12:00	5700	474	-37.8	-43.5	245	17	
2025-11-20T12:00	5720	473	-37.9	-43.8	245	17	
2025-11-20T12:00	5740	472	-38.0	-45.3	246	18	
2025-11-20T12:00	5760	470	-38.0	-46.9	246	18	
2025-11-20T12:00	5780	469	-37.8	-49.7	247	19	
2025-11-20T12:00	5800	467	-37.7	-49.1	248	19	
2025-11-20T12:00	5820	466	-37.6	-48.7	249	20	
2025-11-20T12:00	5840	465	-37.5	-48.5	249	20	
2025-11-20T12:00	5860	464	-37.6	-47.6	250	20	
2025-11-20T12:00	5880	462	-37.7	-47.4	251	20	
2025-11-20T12:00	5900	461	-37.9	-47.4	251	20	
2025-11-20T12:00	5920	459	-38.0	-47.4	251	20	
2025-11-20T12:00	5940	458	-38.2	-47.3	250	20	
2025-11-20T12:00	5960	457	-38.3	-46.7	250	20	
2025-11-20T12:00	5980	455	-38.5	-46.4	249	20	
2025-11-20T12:00	6000	454	-38.6	-46.5	248	20	
2025-11-20T12:00	6020	453	-38.8	-46.5	248	20	
2025-11-20T12:00	6040	452	-38.9	-46.7	248	20	
2025-11-20T12:00	6060	450	-39.1	-46.4	247	20	
2025-11-20T12:00	6080	449	-39.2	-46.5	247	20	
2025-11-20T12:00	6100	448	-39.3	-46.5	247	20	
2025-11-20T12:00	6120	446	-39.4	-47.6	247	21	
2025-11-20T12:00	6140	445	-39.3	-48.7	247	21	
2025-11-20T12:00	6160	444	-39.4	-48.0	247	21	
2025-11-20T12:00	6180	442	-39.4	-48.7	247	21	
2025-11-20T12:00	6200	441	-39.4	-51.5	247	21	
2025-11-20T12:00	6220	440	-39.3	-54.3	247	21	
2025-11-20T12:00	6240	439	-39.4	-53.0	247	21	
2025-11-20T12:00	6260	437	-39.4	-51.1	248	21	
2025-11-20T12:00	6280	436	-39.3	-52.4	248	21	
2025-11-20T12:00	6300	435	-38.9	-56.3	249	21	
2025-11-20T12:00	6320	433	-38.5	-56.7	249	21	
2025-11-20T12:00	6340	432	-38.6	-55.5	248	21	
2025-11-20T12:00	6360	431	-38.7	-54.2	247	21	
2025-11-20T12:00	6380	430	-38.8	-53.8	246	21	
2025-11-20T12:00	6400	428	-38.9	-55.2	245	22	
2025-11-20T12:00	6420	427	-39.0	-58.6	245	22	
2025-11-20T12:00	6440	426	-39.0	-56.1	244	22	
2025-11-20T12:00	6460	425	-39.2	-57.3	243	22	
2025-11-20T12:00	6480	423	-39.3	-55.3	243	22	
2025-11-20T12:00	6500	422	-39.5	-54.3	244	23	
2025-11-20T12:00	6520	421	-39.7	-55.1	244	23	
2025-11-20T12:00	6540	420	-39.8	-54.1	243	23	
2025-11-20T12:00	6560	419	-40.0	-53.6	243	24	
2025-11-20T12:00	6580	417	-40.1	-53.9	242	24	
2025-11-20T12:00	6600	416	-40.2	-55.0	240	24	
2025-11-20T12:00	6620	415	-40.3	-56.2	239	24	
2025-11-20T12:00	6640	414	-40.5	-56.0	238	23	
2025-11-20T12:00	6660	412	-40.6	-55.3	238	23	
2025-11-20T12:00	6680	411	-40.8	-54.2	238	23	
2025-11-20T12:00	6700	410	-41.0	-54.4	238	22	
2025-11-20T12:00	6720	409	-41.1	-54.2	239	22	
2025-11-20T12:00	6740	408	-41.3	-55.4	240	22	
2025-11-20T12:00	6760	406	-41.5	-57.7	241	22	
2025-11-20T12:00	6780	405	-41.6	-57.0	242	22	
2025-11-20T12:00	6800	404	-41.7	-55.8	242	22	
2025-11-20T12:00	6820	403	-41.9	-55.3	242	23	
2025-11-20T12:00	6840	402	-41.9	-55.7	241	23	
2025-11-20T12:00	6860	400	-42.1	-56.1	240	23	
2025-11-20T12:00	6880	399	-42.2	-56.1	240	23	
2025-11-20T12:00	6900	398	-42.3	-55.3	239	22	
2025-11-20T12:00	6920	397	-42.4	-55.1	239	22	
2025-11-20T12:00	6940	396	-42.4	-55.8	239	22	
2025-11-20T12:00	6960	395	-42.5	-56.2	239	22	
2025-11-20T12:00	6980	393	-42.7	-56.0	240	22	
2025-11-20T12:00	7000	392	-42.8	-56.0	240	22	
2025-11-20T12:00	7020	391	-43.0	-56.1	240	22	
2025-11-20T12:00	7040	390	-43.1	-56.5	240	22	
2025-11-20T12:00	7060	389	-43.2	-56.5	240	22	
2025-11-20T12:00	7080	388	-43.3	-56.3	240	22	
2025-11-20T12:00	7100	386	-43.4	-56.0	239	22	
2025-11-20T12:00	7120	385	-43.6	-56.0	239	22	
2025-11-20T12:00	7140	384	-43.8	-56.0	239	22	
2025-11-20T12:00	7160	383	-43.9	-56.5	239	22	
2025-11-20T12:00	7180	382	-44.0	-56.6	239	22	
2025-11-20T12:00	7200	381	-44.2	-56.4	239	22	
2025-11-20T12:00	7220	380	-44.3	-56.3	238	22	
2025-11-20T12:00	7240	378	-44.4	-56.4	238	22	
2025-11-20T12:00	7260	377	-44.6	-56.6	237	21	
2025-11-20T12:00	7280	376	-44.8	-56.7	237	21	
2025-11-20T12:00	7300	375	-44.9	-56.7	237	21	
2025-11-20T12:00	7320	374	-45.1	-56.6	236	21	
2025-11-20T12:00	7340	373	-45.3	-56.5	236	21	
2025-11-20T12:00	7360	372	-45.5	-56.9	237	21	
2025-11-20T12:00	7380	371	-45.6	-57.3	237	21	
2025-11-20T12:00	7400	370	-45.7	-57.4	238	22	
2025-11-20T12:00	7420	368	-45.9	-57.3	238	22	
2025-11-20T12:00	7440	367	-46.1	-57.1	239	22	
2025-11-20T12:00	7460	366	-46.2	-57.2	239	22	
2025-11-20T12:00	7480	365	-46.3	-57.6	239	22	
2025-11-20T12:00	7500	364	-46.4	-58.1	239	23	
2025-11-20T12:00	7520	363	-46.6	-58.2	238	23	
2025-11-20T12:00	7540	362	-46.7	-58.1	237	23	
2025-11-20T12:00	7560	361	-46.8	-58.2	237	23	
2025-11-20T12:00	7580	360	-46.9	-58.3	236	24	
2025-11-20T12:00	7600	359	-47.1	-58.3	236	24	
2025-11-20T12:00	7620	357	-47.2	-58.7	236	24	
2025-11-20T12:00	7640	356	-47.2	-59.2	237	25	
2025-11-20T12:00	7660	355	-47.4	-59.0	237	25	
2025-11-20T12:00	7680	354	-47.6	-59.0	238	25	
2025-11-20T12:00	7700	353	-47.7	-59.2	238	25	
2025-11-20T12:00	7720	352	-47.8	-59.4	239	25	
2025-11-20T12:00	7740	351	-47.9	-59.8	239	25	
2025-11-20T12:00	7760	350	-48.1	-61.0	239	25	
2025-11-20T12:00	7780	349	-48.0	-64.7	239	25	
2025-11-20T12:00	7800	348	-47.9	-66.5	238	25	
2025-11-20T12:00	7820	347	-48.0	-64.9	237	26	
2025-11-20T12:00	7840	346	-48.1	-63.7	236	26	
2025-11-20T12:00	7860	345	-48.2	-61.7	235	26	
2025-11-20T12:00	7880	344	-48.4	-60.1	234	26	
2025-11-20T12:00	7900	343	-48.5	-60.0	234	26	
2025-11-20T12:00	7920	342	-48.7	-60.0	235	26	
2025-11-20T12:00	7940	340	-48.8	-60.6	235	26	
2025-11-20T12:00	7960	339	-48.9	-61.7	235	26	
2025-11-20T12:00	7980	338	-49.0	-62.6	235	26	
2025-11-20T12:00	8000	337	-49.1	-63.2	235	26	
2025-11-20T12:00	8020	336	-49.2	-63.0	235	26	
2025-11-20T12:00	8040	335	-49.3	-61.9	235	26	
2025-11-20T12:00	8060	334	-49.4	-61.6	236	26	
2025-11-20T12:00	8080	333	-49.4	-62.4	236	26	
2025-11-20T12:00	8100	332	-49.3	-63.1	236	26	
2025-11-20T12:00	8120	331	-49.4	-63.3	237	26	
2025-11-20T12:00	8140	330	-49.6	-63.2	237	26	
2025-11-20T12:00	8160	329	-49.8	-63.2	238	26	
2025-11-20T12:00	8180	328	-49.9	-63.3	238	26	
2025-11-20T12:00	8200	327	-50.1	-63.4	238	26	
2025-11-20T12:00	8220	326	-50.2	-63.5	239	26	
2025-11-20T12:00	8240	325	-50.4	-63.6	239	26	
2025-11-20T12:00	8260	324	-50.5	-63.6	239	26	
2025-11-20T12:00	8280	323	-50.6	-63.5	238	26	
2025-11-20T12:00	8300	322	-50.8	-63.6	238	26	
2025-11-20T12:00	8320	321	-50.9	-63.7	238	26	
2025-11-20T12:00	8340	320	-51.0	-63.8	238	27	
2025-11-20T12:00	8360	319	-51.0	-64.2	238	27	
2025-11-20T12:00	8380	318	-51.1	-64.6	238	27	
2025-11-20T12:00	8400	317	-51.1	-64.5	239	27	
2025-11-20T12:00	8420	316	-51.2	-64.4	239	28	
2025-11-20T12:00	8440	315	-51.3	-64.5	240	28	
2025-11-20T12:00	8460	314	-51.4	-64.9	240	28	
2025-11-20T12:00	8480	313	-51.5	-65.2	240	28	
2025-11-20T12:00	8500	313	-51.6	-65.6	239	28	
2025-11-20T12:00	8520	312	-51.7	-66.1	239	28	
2025-11-20T12:00	8540	311	-51.7	-66.3	238	28	
2025-11-20T12:00	8560	310	-51.8	-66.2	237	28	
2025-11-20T12:00	8580	309	-51.8	-65.8	236	28	
2025-11-20T12:00	8600	308	-51.9	-65.5	236	28	
2025-11-20T12:00	8620	307	-52.1	-65.5	235	27	
2025-11-20T12:00	8640	306	-52.2	-65.6	235	27	
2025-11-20T12:00	8660	305	-52.3	-65.8	235	27	
2025-11-20T12:00	8680	304	-52.4	-66.0	235	27	
2025-11-20T12:00	8700	303	-52.3	-66.2	236	27	
2025-11-20T12:00	8720	302	-52.3	-66.4	236	27	
2025-11-20T12:00	8740	301	-52.2	-66.6	237	28	
2025-11-20T12:00	8760	300	-52.2	-66.6	237	28	
2025-11-20T12:00	8780	299	-52.3	-66.6	237	28	
2025-11-20T12:00	8800	298	-52.5	-66.5	237	28	
2025-11-20T12:00	8820	297	-52.6	-66.5	237	29	
2025-11-20T12:00	8840	297	-52.7	-66.4	237	29	
2025-11-20T12:00	8860	296	-52.8	-66.3	236	29	
2025-11-20T12:00	8880	295	-53.0	-66.4	236	28	
2025-11-20T12:00	8900	294	-53.0	-66.4	235	28	
2025-11-20T12:00	8920	293	-53.1	-66.5	234	28	
2025-11-20T12:00	8940	292	-53.2	-66.6	234	28	
2025-11-20T12:00	8960	291	-53.4	-66.6	234	28	
2025-11-20T12:00	8980	290	-53.5	-66.7	234	28	
2025-11-20T12:00	9000	289	-53.6	-66.6	234	28	
2025-11-20T12:00	9020	288	-53.6	-66.5	235	28	
2025-11-20T12:00	9040	287	-53.7	-66.4	235	28	
2025-11-20T12:00	9060	287	-53.8	-66.5	236	28	
2025-11-20T12:00	9080	286	-53.9	-66.5	236	28	
2025-11-20T12:00	9100	285	-53.9	-66.6	237	28	
2025-11-20T12:00	9120	284	-54.0	-66.7	237	28	
2025-11-20T12:00	9140	283	-54.1	-66.8	237	28	
2025-11-20T12:00	9160	282	-54.2	-66.9	237	28	
2025-11-20T12:00	9180	281	-54.3	-67.0	237	28	
2025-11-20T12:00	9200	280	-54.3	-67.2	236	28	
2025-11-20T12:00	9220	279	-54.3	-67.6	236	28	
2025-11-20T12:00	9240	279	-54.3	-67.7	235	29	
2025-11-20T12:00	9260	278	-54.4	-67.9	235	29	
2025-11-20T12:00	9280	277	-54.6	-67.9	234	29	
2025-11-20T12:00	9300	276	-54.7	-68.1	234	29	
2025-11-20T12:00	9320	275	-54.8	-68.2	234	29	
2025-11-20T12:00	9340	274	-54.8	-68.4	234	29	
2025-11-20T12:00	9360	273	-54.9	-68.6	234	29	
2025-11-20T12:00	9380	273	-55.0	-68.8	235	29	
2025-11-20T12:00	9400	272	-55.0	-69.0	235	29	
2025-11-20T12:00	9420	271	-55.1	-69.2	236	29	
2025-11-20T12:00	9440	270	-55.2	-69.3	236	29	
2025-11-20T12:00	9460	269	-55.3	-69.3	236	29	
2025-11-20T12:00	9480	268	-55.3	-69.3	236	29	
2025-11-20T12:00	9500	267	-55.4	-69.2	236	29	
2025-11-20T12:00	9520	267	-55.5	-69.2	236	29	
2025-11-20T12:00	9540	266	-55.5	-69.2	236	30	
2025-11-20T12:00	9560	265	-55.5	-69.4	236	30	
2025-11-20T12:00	9580	264	-55.6	-69.5	236	30	
2025-11-20T12:00	9600	263	-55.6	-69.7	236	30	
2025-11-20T12:00	9620	263	-55.6	-70.0	237	29	
2025-11-20T12:00	9640	262	-55.5	-70.1	237	29	
2025-11-20T12:00	9660	261	-55.5	-70.4	238	29	
2025-11-20T12:00	9680	260	-55.5	-70.5	238	28	
2025-11-20T12:00	9700	259	-55.5	-70.7	238	28	
2025-11-20T12:00	9720	258	-55.5	-70.8	238	27	
2025-11-20T12:00	9740	258	-55.4	-70.8	238	27	
2025-11-20T12:00	9760	257	-55.3	-70.9	238	27	
2025-11-20T12:00	9780	256	-55.2	-71.1	238	28	
2025-11-20T12:00	9800	255	-55.2	-71.3	238	28	
2025-11-20T12:00	9820	254	-55.1	-71.7	238	28	
2025-11-20T12:00	9840	254	-55.1	-72.0	238	29	
2025-11-20T12:00	9860	253	-55.0	-72.1	237	29	
2025-11-20T12:00	9880	252	-55.0	-72.2	237	29	
2025-11-20T12:00	9900	251	-55.1	-72.4	237	29	
2025-11-20T12:00	9920	250	-55.1	-72.7	237	28	
2025-11-20T12:00	9940	250	-55.1	-73.0	237	28	
2025-11-20T12:00	9960	249	-55.0	-73.2	237	28	
2025-11-20T12:00	9980	248	-54.9	-73.6	237	28	
2025-11-20T12:00	10000	247	-54.6	-73.8	237	28	
2025-11-20T12:00	10018	247	-54.4	-73.9	238	28	
2025-11-20T12:00	10050	245	-54.2	-74.0	238	28	
2025-11-20T12:00	10100	243	-54.3	-73.9	239	28	
2025-11-20T12:00	10150	242	-54.3	-73.6	241	28	
2025-11-20T12:00	10200	240	-54.2	-73.7	240	28	
2025-11-20T12:00	10250	238	-54.0	-74.2	237	28	
2025-11-20T12:00	10300	236	-53.7	-74.9	234	28	
2025-11-20T12:00	10350	234	-53.7	-75.3	232	27	
2025-11-20T12:00	10400	232	-53.4	-75.6	233	27	
2025-11-20T12:00	10450	231	-53.4	-75.7	234	27	
2025-11-20T12:00	10500	229	-53.5	-75.8	234	27	
2025-11-20T12:00	10550	227	-53.4	-76.0	233	27	
2025-11-20T12:00	10600	225	-53.4	-76.0	231	28	
2025-11-20T12:00	10650	224	-53.3	-76.5	229	29	
2025-11-20T12:00	10700	222	-53.4	-76.7	229	29	
2025-11-20T12:00	10750	220	-53.8	-76.7	230	30	
2025-11-20T12:00	10800	218	-54.1	-76.8	231	30	
2025-11-20T12:00	10850	217	-54.4	-76.9	233	30	
2025-11-20T12:00	10900	215	-54.7	-77.1	234	31	
2025-11-20T12:00	10950	213	-54.5	-77.3	236	32	
2025-11-20T12:00	11000	212	-54.0	-77.6	237	32	
2025-11-20T12:00	11050	210	-54.1	-77.8	238	31	
2025-11-20T12:00	11100	208	-54.3	-77.9	239	30	
2025-11-20T12:00	11150	207	-54.6	-78.0	239	30	
2025-11-20T12:00	11200	205	-54.6	-78.0	238	30	
2025-11-20T12:00	11250	203	-54.8	-78.2	239	31	
2025-11-20T12:00	11300	202	-55.0	-78.3	239	31	
2025-11-20T12:00	11350	200	-55.0	-78.5	238	31	
2025-11-20T12:00	11400	199	-55.1	-78.6	237	32	
2025-11-20T12:00	11450	197	-55.5	-78.8	238	32	
2025-11-20T12:00	11500	196	-55.3	-79.2	240	31	
2025-11-20T12:00	11550	194	-55.2	-79.6	243	29	
2025-11-20T12:00	11600	193	-54.9	-79.9	246	28	
2025-11-20T12:00	11650	191	-54.9	-80.0	249	27	
2025-11-20T12:00	11700	190	-54.8	-80.1	250	27	
2025-11-20T12:00	11750	188	-54.6	-80.0	247	27	
2025-11-20T12:00	11800	187	-54.8	-80.2	244	28	
2025-11-20T12:00	11850	185	-55.0	-80.3	244	29	
2025-11-20T12:00	11900	184	-55.2	-80.4	245	30	
2025-11-20T12:00	11950	182	-55.1	-80.6	245	30	
2025-11-20T12:00	12000	181	-55.0	-80.8	246	30	
2025-11-20T12:00	12050	180	-54.8	-80.7	246	30	
2025-11-20T12:00	12100	178	-54.9	-80.7	245	30	
2025-11-20T12:00	12150	177	-55.3	-80.8	245	30	
2025-11-20T12:00	12200	175	-55.3	-80.9	247	30	
2025-11-20T12:00	12250	174	-55.4	-80.9	249	29	
2025-11-20T12:00	12300	173	-55.5	-81.1	250	29	
2025-11-20T12:00	12350	171	-55.5	-81.1	251	29	
2025-11-20T12:00	12400	170	-55.7	-81.1	251	29	
2025-11-20T12:00	12450	169	-55.9	-81.2	251	29	
2025-11-20T12:00	12500	167	-56.0	-81.3	252	29	
2025-11-20T12:00	12550	166	-56.1	-81.4	253	28	
2025-11-20T12:00	12600	165	-56.0	-81.4	255	27	
2025-11-20T12:00	12650	163	-56.2	-81.5	257	26	
2025-11-20T12:00	12700	162	-56.3	-81.6	257	25	
2025-11-20T12:00	12750	161	-56.0	-81.7	256	24	
2025-11-20T12:00	12800	160	-55.8	-81.7	255	23	
2025-11-20T12:00	12850	158	-55.6	-81.7	256	21	
2025-11-20T12:00	12900	157	-55.4	-81.7	257	20	
2025-11-20T12:00	12950	156	-55.6	-81.7	259	18	
2025-11-20T12:00	13000	155	-55.7	-81.8	261	16	
2025-11-20T12:00	13050	154	-55.2	-81.8	260	15	
2025-11-20T12:00	13100	152	-54.9	-81.7	256	15	
2025-11-20T12:00	13150	151	-55.2	-81.7	253	15	
2025-11-20T12:00	13200	150	-55.6	-81.7	251	17	
2025-11-20T12:00	13250	149	-56.0	-81.8	251	18	
2025-11-20T12:00	13300	148	-56.2	-81.9	252	20	
2025-11-20T12:00	13350	146	-56.0	-82.0	252	21	
2025-11-20T12:00	13400	145	-56.1	-82.0	252	21	
2025-11-20T12:00	13450	144	-56.4	-82.1	253	22	
2025-11-20T12:00	13500	143	-56.6	-82.2	254	23	
2025-11-20T12:00	13550	142	-56.2	-82.2	254	24	
2025-11-20T12:00	13600	141	-56.1	-82.3	254	24	
2025-11-20T12:00	13650	140	-56.2	-82.4	254	23	
2025-11-20T12:00	13700	139	-56.1	-82.4	255	22	
2025-11-20T12:00	13750	137	-55.9	-82.4	256	22	
2025-11-20T12:00	13800	136	-56.0	-82.5	255	22	
2025-11-20T12:00	13850	135	-56.1	-82.6	254	23	
2025-11-20T12:00	13900	134	-56.1	-82.5	252	24	
2025-11-20T12:00	13950	133	-56.1	-82.6	251	25	
2025-11-20T12:00	14000	132	-56.1	-82.7	252	24	
2025-11-20T12:00	14050	131	-56.2	-82.8	254	23	
2025-11-20T12:00	14100	130	-56.2	-82.8	254	22	
2025-11-20T12:00	14150	129	-56.0	-82.8	253	22	
2025-11-20T12:00	14200	128	-55.9	-82.9	251	21	
2025-11-20T12:00	14250	127	-56.1	-82.9	250	21	
2025-11-20T12:00	14300	126	-56.2	-82.9	248	21	
2025-11-20T12:00	14350	125	-56.2	-83.0	247	20	
2025-11-20T12:00	14400	124	-56.2	-83.1	245	19	
2025-11-20T12:00	14450	123	-56.1	-83.0	242	19	
2025-11-20T12:00	14500	122	-55.8	-83.0	241	20	
2025-11-20T12:00	14550	121	-56.1	-83.1	243	21	
2025-11-20T12:00	14600	120	-56.1	-83.1	247	21	
2025-11-20T12:00	14650	119	-55.9	-83.1	250	22	
2025-11-20T12:00	14700	118	-56.0	-83.1	250	22	
2025-11-20T12:00	14750	117	-56.3	-83.2	248	22	
2025-11-20T12:00	14800	117	-56.3	-83.2	246	21	
2025-11-20T12:00	14850	116	-56.5	-83.2	245	21	
2025-11-20T12:00	14900	115	-56.6	-83.3	245	20	
2025-11-20T12:00	14950	114	-56.9	-83.3	247	20	
2025-11-20T12:00	15000	113	-57.2	-83.4	248	20	
2025-11-20T12:00	15050	112	-57.6	-83.4	248	21	
2025-11-20T12:00	15100	111	-58.0	-83.5	249	21	
2025-11-20T12:00	15150	110	-58.4	-83.7	249	21	
2025-11-20T12:00	15200	109	-58.7	-83.7	248	20	
2025-11-20T12:00	15250	109	-59.1	-83.9	248	20	
2025-11-20T12:00	15300	108	-59.6	-84.0	248	20	
2025-11-20T12:00	15350	107	-59.9	-84.1	248	20	
2025-11-20T12:00	15400	106	-60.3	-84.3	248	20	
2025-11-20T12:00	15450	105	-60.6	-84.3	248	20	
2025-11-20T12:00	15500	104	-61.0	-84.4	250	20	
2025-11-20T12:00	15550	103	-61.4	-84.6	252	20	
2025-11-20T12:00	15600	103	-61.4	-84.7	255	21	
2025-11-20T12:00	15650	102	-61.4	-84.8	256	22	
2025-11-20T12:00	15700	101	-61.3	-84.8	255	22	
2025-11-20T12:00	15750	100	-61.4	-84.8	254	22	
2025-11-20T12:00	15800	99	-61.7	-84.9	254	22	
2025-11-20T12:00	15850	99	-61.8	-84.8	255	22	
2025-11-20T12:00	15900	98	-62.0	-84.9	255	23	
2025-11-20T12:00	15950	97	-62.2	-85.0	256	24	
2025-11-20T12:00	16000	96	-62.2	-85.0	258	25	
2025-11-20T12:00	16050	95	-62.2	-85.2	260	25	
2025-11-20T12:00	16100	95	-61.9	-85.2	262	24	
2025-11-20T12:00	16150	94	-61.9	-85.2	262	23	
2025-11-20T12:00	16200	93	-62.0	-85.3	262	23	
2025-11-20T12:00	16250	92	-61.8	-85.3	261	23	
2025-11-20T12:00	16300	92	-61.8	-85.3	259	23	
2025-11-20T12:00	16350	91	-61.9	-85.4	256	22	
2025-11-20T12:00	16400	90	-61.8	-85.5	251	22	
2025-11-20T12:00	16450	89	-61.3	-85.3	247	23	
2025-11-20T12:00	16500	89	-61.4	-85.3	245	24	
2025-11-20T12:00	16550	88	-61.6	-85.4	246	25	
2025-11-20T12:00	16600	87	-61.5	-85.3	246	26	
2025-11-20T12:00	16650	87	-61.8	-85.6	247	26	
2025-11-20T12:00	16700	86	-61.3	-85.5	249	26	
2025-11-20T12:00	16750	85	-60.9	-85.5	253	25	
2025-11-20T12:00	16800	85	-60.4	-85.5	258	24	
2025-11-20T12:00	16850	84	-60.2	-85.4	261	23	
2025-11-20T12:00	16900	83	-60.4	-85.3	263	22	
2025-11-20T12:00	16950	83	-60.4	-85.2	263	22	
2025-11-20T12:00	17000	82	-60.7	-85.2	264	22	
2025-11-20T12:00	17050	81	-61.2	-85.4	264	22	
2025-11-20T12:00	17100	81	-61.6	-85.5	266	22	
2025-11-20T12:00	17150	80	-61.9	-85.6	268	21	
2025-11-20T12:00	17200	79	-62.1	-85.7	270	21	
2025-11-20T12:00	17250	79	-62.3	-85.8	271	22	
2025-11-20T12:00	17300	78	-62.4	-85.8	272	22	
2025-11-20T12:00	17350	77	-62.5	-85.9	272	23	
2025-11-20T12:00	17400	77	-62.7	-86.0	273	23	
2025-11-20T12:00	17450	76	-63.0	-86.1	272	22	
2025-11-20T12:00	17500	75	-63.1	-86.2	270	22	
2025-11-20T12:00	17550	75	-63.3	-86.2	267	22	
2025-11-20T12:00	17600	74	-63.6	-86.3	264	22	
2025-11-20T12:00	17650	74	-63.9	-86.4	262	22	
2025-11-20T12:00	17700	73	-64.2	-86.5	258	22	
2025-11-20T12:00	17750	72	-64.4	-86.6	254	23	
2025-11-20T12:00	17800	72	-64.4	-86.6	252	25	
2025-11-20T12:00	17850	71	-64.4	-86.6	250	26	
2025-11-20T12:00	17900	71	-64.5	-86.7	250	26	
2025-11-20T12:00	17950	70	-64.6	-86.7	251	26	
2025-11-20T12:00	18000	70	-64.7	-86.8	253	26	
2025-11-20T12:00	18050	69	-64.7	-86.8	255	26	
2025-11-20T12:00	18100	68	-64.7	-86.8	258	26	
2025-11-20T12:00	18150	68	-64.8	-86.8	260	26	
2025-11-20T12:00	18200	67	-65.1	-86.8	262	26	
2025-11-20T12:00	18250	67	-65.3	-86.9	262	27	
2025-11-20T12:00	18300	66	-65.2	-86.9	260	28	
2025-11-20T12:00	18350	66	-65.1	-86.9	258	30	
2025-11-20T12:00	18400	65	-65.1	-87.0	258	30	
2025-11-20T12:00	18450	65	-65.1	-87.0	258	29	
2025-11-20T12:00	18500	64	-64.8	-87.2	257	29	
2025-11-20T12:00	18550	64	-63.8	-87.1	257	29	
2025-11-20T12:00	18600	63	-62.7	-87.0	257	29	
2025-11-20T12:00	18650	63	-61.9	-86.6	258	30	
2025-11-20T12:00	18700	62	-61.7	-86.6	259	30	
2025-11-20T12:00	18750	62	-61.2	-86.4	259	29	
2025-11-20T12:00	18800	61	-60.8	-86.2	259	29	
2025-11-20T12:00	18850	61	-61.2	-86.2	258	28	
2025-11-20T12:00	18900	60	-61.5	-86.2	256	29	
2025-11-20T12:00	18950	60	-61.8	-86.2	255	29	
2025-11-20T12:00	19000	59	-61.9	-86.3	255	30	
2025-11-20T12:00	19050	59	-62.2	-86.4	255	30	
2025-11-20T12:00	19100	58	-62.5	-86.6	254	31	
2025-11-20T12:00	19150	58	-62.5	-86.5	254	32	
2025-11-20T12:00	19200	57	-62.7	-86.7	254	32	
2025-11-20T12:00	19250	57	-62.7	-86.8	254	32	
2025-11-20T12:00	19300	56	-62.6	-86.8	254	32	
2025-11-20T12:00	19350	56	-62.5	-86.7	253	32	
2025-11-20T12:00	19400	55	-62.6	-86.7	251	31	
2025-11-20T12:00	19450	55	-62.7	-86.8	251	31	
2025-11-20T12:00	19500	54	-62.7	-86.8	251	30	
2025-11-20T12:00	19550	54	-62.8	-86.8	253	29	
2025-11-20T12:00	19600	54	-62.9	-86.7	254	29	
2025-11-20T12:00	19650	53	-63.4	-86.8	256	28	
2025-11-20T12:00	19700	53	-63.6	-86.9	258	27	
2025-11-20T12:00	19750	52	-63.9	-87.0	259	27	
2025-11-20T12:00	19800	52	-64.1	-87.0	260	26	
2025-11-20T12:00	19850	51	-64.3	-87.0	259	26	
2025-11-20T12:00	19900	51	-64.6	-87.1	258	25	
2025-11-20T12:00	19950	51	-64.9	-87.3	256	25	
2025-11-20T12:00	20000	50	-65.0	-87.4	254	25	
2025-11-20T12:00	20050	50	-65.1		252	25	
2025-11-20T12:00	20100	49	-65.4		250	25	
2025-11-20T12:00	20150	49	-65.4		248	26	
2025-11-20T12:00	20200	49	-65.7		245	27	
2025-11-20T12:00	20250	48	-66.0		242	28	
2025-11-20T12:00	20300	48	-66.2		241	29	
2025-11-20T12:00	20350	47	-66.2		241	30	
2025-11-20T12:00	20400	47	-66.2		241	29	
2025-11-20T12:00	20450	47	-66.4		241	29	
2025-11-20T12:00	20500	46	-66.4		241	30	
2025-11-20T12:00	20550	46	-66.3		242	30	
2025-11-20T12:00	20600	46	-66.5		244	31	
2025-11-20T12:00	20650	45	-66.4		245	30	
2025-11-20T12:00	20700	45	-66.5		245	30	
2025-11-20T12:00	20750	44	-66.8		246	30	
2025-11-20T12:00	20800	44	-66.6		248	30	
2025-11-20T12:00	20850	44	-66.5		248	31	
2025-11-20T12:00	20900	43	-66.7		248	31	
2025-11-20T12:00	20950	43	-66.8		250	31	
2025-11-20T12:00	21000	43	-66.6		253	31	
2025-11-20T12:00	21050	42	-66.3		254	32	
2025-11-20T12:00	21100	42	-66.0		255	34	
2025-11-20T12:00	21150	42	-65.9		257	34	
2025-11-20T12:00	21200	41	-65.4		258	33	
2025-11-20T12:00	21250	41	-65.1		258	33	
2025-11-20T12:00	21300	41	-65.0		256	33	
2025-11-20T12:00	21350	40	-64.7		254	35	
2025-11-20T12:00	21400	40	-64.5		252	36	
2025-11-20T12:00	21450	40	-64.4		251	37	
2025-11-20T12:00	21500	39	-64.8		252	38	
2025-11-20T12:00	21550	39	-64.9		253	37	
2025-11-20T12:00	21600	39	-64.8		255	36	
2025-11-20T12:00	21650	38	-64.9		256	35	
2025-11-20T12:00	21700	38	-65.0		258	35	
2025-11-20T12:00	21750	38	-65.1		259	34	
2025-11-20T12:00	21800	37	-65.1		260	34	
2025-11-20T12:00	21850	37	-65.3		259	34	
2025-11-20T12:00	21900	37	-65.2		258	33	
2025-11-20T12:00	21950	36	-65.1		257	32	
2025-11-20T12:00	22000	36	-65.1		256	31	
2025-11-20T12:00	22050	36	-65.4		254	31	
2025-11-20T12:00	22100	36	-65.9		252	32	
2025-11-20T12:00	22150	35	-65.9		250	33	
2025-11-20T12:00	22200	35	-65.9		250	34	
2025-11-20T12:00	22250	35	-66.1		250	34	
2025-11-20T12:00	22300	34	-66.3		249	34	
2025-11-20T12:00	22350	34	-66.3		249	34	
2025-11-20T12:00	22400	34	-66.4		250	34	
2025-11-20T12:00	22450	34	-66.6		251	34	
2025-11-20T12:00	22500	33	-66.8		253	34	
2025-11-20T12:00	22550	33	-66.8		255	34	
2025-11-20T12:00	22600	33	-67.0		257	34	
2025-11-20T12:00	22650	32	-67.4		259	34	
2025-11-20T12:00	22700	32	-67.7		260	34	
2025-11-20T12:00	22750	32	-67.8		260	33	
2025-11-20T12:00	22800	32	-67.8		259	33	
2025-11-20T12:00	22850	31	-67.8		258	32	
2025-11-20T12:00	22900	31	-67.8		257	32	
2025-11-20T12:00	22950	31	-67.4		255	31	
2025-11-20T12:00	23000	31	-67.0		254	31	
2025-11-20T12:00	23050	30	-66.9		253	32	
2025-11-20T12:00	23100	30	-67.0		252	33	
2025-11-20T12:00	23150	30	-67.1		251	33	
2025-11-20T12:00	23200	30	-67.3		251	33	
2025-11-20T12:00	23250	29	-67.3		252	33	
2025-11-20T12:00	23300	29	-67.0		254	32	
2025-11-20T12:00	23350	29	-67.3		255	32	
2025-11-20T12:00	23400	29	-67.5		254	32	
2025-11-20T12:00	23450	28	-67.6		254	32	
2025-11-20T12:00	23500	28	-67.9		253	32	
2025-11-20T12:00	23550	28	-68.1		254	32	
2025-11-20T12:00	23600	28	-68.2		255	31	
2025-11-20T12:00	23650	27	-68.1		256	31	
2025-11-20T12:00	23700	27	-68.0		257	31	
2025-11-20T12:00	23750	27	-68.0		257	31	
2025-11-20T12:00	23800	27	-68.1		256	30	
2025-11-20T12:00	23850	27	-68.2		255	30	
2025-11-20T12:00	23900	26	-68.4		253	31	
2025-11-20T12:00	23950	26	-68.5		251	31	
2025-11-20T12:00	24000	26	-68.2		250	32	
2025-11-20T12:00	24050	26	-68.3		250	32	
2025-11-20T12:00	24100	25	-68.3		250	32	
2025-11-20T12:00	24150	25	-68.2		251	33	
2025-11-20T12:00	24200	25	-68.1		252	35	
2025-11-20T12:00	24250	25	-68.2		252	36	
2025-11-20T12:00	24300	25	-68.1		252	36	
2025-11-20T12:00	24350	24	-68.0		252	35	
2025-11-20T12:00	24400	24	-68.3		252	34	
2025-11-20T12:00	24450	24	-68.4		252	34	
2025-11-20T12:00	24500	24	-68.2		253	34	
2025-11-20T12:00	24550	24	-68.4		254	35	
2025-11-20T12:00	24600	23	-68.6		254	35	
2025-11-20T12:00	24650	23	-68.6		254	35	
2025-11-20T12:00	24700	23	-68.8		254	34	
2025-11-20T12:00	24750	23	-68.8		254	35	
2025-11-20T12:00	24800	23	-68.5		254	35	
2025-11-20T12:00	24850	22	-68.4		254	36	
2025-11-20T12:00	24900	22	-68.4		254	37	
2025-11-20T12:00	24950	22	-68.4		254	38	
2025-11-20T12:00	25000	22	-67.9		255	39	
2025-11-20T12:00	25050	22	-67.6		256	40	
2025-11-20T12:00	25100	22	-67.5		257	40	
2025-11-20T12:00	25150	21	-67.4		258	40	
2025-11-20T12:00	25200	21	-67.3		259	41	
2025-11-20T12:00	25250	21	-67.5		260	41	
2025-11-20T12:00	25300	21	-67.8		260	42	
2025-11-20T12:00	25350	21	-67.9		259	43	
2025-11-20T12:00	25400	21	-68.1		258	44	
2025-11-20T12:00	25450	20	-68.1		257	45	
2025-11-20T12:00	25500	20	-67.8		257	45	
2025-11-20T12:00	25550	20	-67.5		258	45	
2025-11-20T12:00	25600	20	-67.5		259	44	
2025-11-20T12:00	25650	20	-67.5		260	43	
2025-11-20T12:00	25700	20	-67.1		260	43	
2025-11-20T12:00	25750	19	-66.9		261	43	
2025-11-20T12:00	25800	19	-66.8		261	43	
2025-11-20T12:00	25850	19	-66.3		259	43	
2025-11-20T12:00	25900	19	-65.9		256	45	
2025-11-20T12:00	25950	19	-65.4		254	46	
2025-11-20T12:00	26000	19	-65.1		252	47	
2025-11-20T12:00	26050	18	-64.9		251	48	
2025-11-20T12:00	26100	18	-64.7		249	49	
2025-11-20T12:00	26150	18	-64.1		249	50	
2025-11-20T12:00	26200	18	-63.8		250	50	
2025-11-20T12:00	26250	18	-63.8		251	50	
2025-11-20T12:00	26300	18	-63.9		252	50	
2025-11-20T12:00	26350	18	-64.2		253	49	
2025-11-20T12:00	26400	17	-64.3		254	50	
2025-11-20T12:00	26450	17	-64.3		255	50	
2025-11-20T12:00	26500	17	-64.4		255	51	
2025-11-20T12:00	26550	17	-64.5		254	51	
2025-11-20T12:00	26600	17	-64.3		253	52	
2025-11-20T12:00	26650	17	-64.1		252	51	
2025-11-20T12:00	26700	17	-63.8		252	51	
2025-11-20T12:00	26750	16	-63.7		251	50	
2025-11-20T12:00	26800	16	-63.9		251	49	
2025-11-20T12:00	26850	16	-64.2		251	49	
2025-11-20T12:00	26900	16	-64.5		252	49	
2025-11-20T12:00	26950	16	-64.5		252	50	
2025-11-20T12:00	27000	16	-64.8		252	50	
2025-11-20T12:00	27050	16	-65.2		253	51	
2025-11-20T12:00	27100	16	-65.4		254	52	
2025-11-20T12:00	27150	15	-65.2		255	53	
2025-11-20T12:00	27200	15	-64.8		257	53	
2025-11-20T12:00	27250	15	-64.2		259	53	
2025-11-20T12:00	27300	15	-63.7		260	52	
2025-11-20T12:00	27350	15	-63.5		260	52	
2025-11-20T12:00	27400	15	-63.7		260	51	
2025-11-20T12:00	27450	15	-63.4		258	51	
2025-11-20T12:00	27500	15	-63.1		256	51	
2025-11-20T12:00	27550	14	-63.1		255	52	
2025-11-20T12:00	27600	14	-63.0		253	52	
2025-11-20T12:00	27650	14	-62.2		252	51	
2025-11-20T12:00	27700	14	-62.2		251	51	
2025-11-20T12:00	27750	14	-62.5		250	50	
2025-11-20T12:00	27800	14	-62.7		249	50	
2025-11-20T12:00	27850	14	-62.6		248	50	
2025-11-20T12:00	27900	14	-61.8		249	50	
2025-11-20T12:00	27950	14	-61.3		250	50	
2025-11-20T12:00	28000	13	-61.0		251	51	
2025-11-20T12:00	28050	13	-61.2		253	52	
2025-11-20T12:00	28100	13	-61.5		253	53	
2025-11-20T12:00	28150	13	-61.7		254	53	
2025-11-20T12:00	28200	13	-61.7		254	53	
2025-11-20T12:00	28250	13	-61.7		254	53	
2025-11-20T12:00	28300	13	-61.7		254	53	
2025-11-20T12:00	28350	13	-61.7		253	53	
2025-11-20T12:00	28400	13	-61.7		252	53	
2025-11-20T12:00	28450	12	-61.6		251	53	
2025-11-20T12:00	28500	12	-61.6		250	53	
2025-11-20T12:00	28550	12	-61.5		250	53	
2025-11-20T12:00	28600	12	-61.3		250	54	
2025-11-20T12:00	28650	12	-61.0		251	54	
2025-11-20T12:00	28700	12	-60.9		251	55	
2025-11-20T12:00	28750	12	-60.9		252	55	
2025-11-20T12:00	28800	12	-60.8		253	56	
2025-11-20T12:00	28850	12	-60.7		253	56	
2025-11-20T12:00	28900	12	-60.6		254	57	
2025-11-20T12:00	28950	12	-60.7		254	58	
2025-11-20T12:00	29000	11	-60.9		254	59	
2025-11-20T12:00	29050	11	-61.3		254	60	
2025-11-20T12:00	29100	11	-61.6		254	61	
2025-11-20T12:00	29150	11	-61.6		254	61	
2025-11-20T12:00	29200	11	-61.5		255	62	
2025-11-20T12:00	29250	11	-61.4		255	63	
2025-11-20T12:00	29300	11	-61.5		255	63	
2025-11-20T12:00	29350	11	-61.5		255	64	
2025-11-20T12:00	29400	11	-61.3		256	66	
2025-11-20T12:00	29450	11	-61.2		256	68	
2025-11-20T12:00	29500	11	-61.3		256	69	
2025-11-20T12:00	29550	10	-61.1		256	70	
2025-11-20T12:00	29600	10	-60.4		255	71	
2025-11-20T12:00	29650	10	-59.7		254	72	
2025-11-20T12:00	29700	10	-59.0		254	71	
2025-11-20T12:00	29750	10	-58.4		254	68	
2025-11-20T12:00	29800	10	-58.1		255	66	
2025-11-20T12:00	29850	10	-57.2		258	65	
2025-11-20T12:00	29900	10	-56.7		260	66	
2025-11-20T12:00	29950	10	-55.8		261	68	
2025-11-20T12:00	30000	10	-54.9		261	71	
2025-11-20T12:00	30050	10	-54.5		260	73	
2025-11-20T12:00	30100	10	-54.1		260	73	
2025-11-20T12:00	30150	10	-54.0		259	73	
2025-11-20T12:00	30200	9	-54.0		259	72	
2025-11-20T12:00	30250	9	-54.1		259	71	
2025-11-20T12:00	30300	9	-54.2		259	70	
2025-11-20T12:00	30350	9	-54.3		258	70	
2025-11-20T12:00	30400	9	-54.1		258	70	
2025-11-20T12:00	30450	9	-53.5		257	71	
2025-11-20T12:00	30500	9	-53.2		257	72	
2025-11-20T12:00	30550	9	-52.9		257	72	
2025-11-20T12:00	30600	9	-52.5		257	72	
2025-11-20T12:00	30650	9	-52.1		258	71	
2025-11-20T12:00	30700	9	-51.8		258	71	
2025-11-20T12:00	30750	9	-51.5		258	71	
2025-11-20T12:00	30800	9	-50.7		257	72	
2025-11-20T12:00	30850	9	-50.0		256	72	
2025-11-20T12:00	30900	8	-49.6		255	72	
2025-11-20T12:00	30950	8	-49.4		254	72	
2025-11-20T12:00	31000	8	-49.4		253	73	
2025-11-20T12:00	31050	8	-49.6		252	73	
2025-11-20T12:00	31100	8	-49.7		251	74	
2025-11-20T12:00	31150	8	-49.4		250	75	
2025-11-20T12:00	31200	8	-48.9		249	76	
2025-11-20T12:00	31250	8	-48.6		249	76	
2025-11-20T12:00	31300	8	-48.7		249	76	
2025-11-20T12:00	31350	8	-48.7		249	76	
2025-11-20T12:00	31400	8	-48.2		250	77	
2025-11-20T12:00	31450	8	-48.0		251	78	
2025-11-20T12:00	31500	8	-48.1		252	79	
2025-11-20T12:00	31550	8	-48.1		253	79	
2025-11-20T12:00	31600	8	-48.2		254	80	
2025-11-20T12:00	31650	8	-48.3		255	81	
2025-11-20T12:00	31700	7	-48.4		256	82	
2025-11-20T12:00	31750	7	-48.3		257	82	
2025-11-20T12:00	31800	7	-48.3		258	82	
2025-11-20T12:00	31850	7	-48.5		258	82	
2025-11-20T12:00	31900	7	-48.6		259	83	
2025-11-20T12:00	31950	7	-48.8		259	83	
2025-11-20T12:00	32000	7	-48.7		259	83	
2025-11-20T12:00	32050	7	-48.8		258	84	
2025-11-20T12:00	32100	7	-48.9		258	84	
2025-11-20T12:00	32150	7	-49.0		258	85	
2025-11-20T12:00	32200	7	-49.2		257	85	
2025-11-20T12:00	32250	7	-49.1		258	86	
2025-11-20T12:00	32300	7	-48.7		258	86	
2025-11-20T12:00	32350	7	-48.6		259	85	
2025-11-20T12:00	32400	7	-48.3		259	84	
2025-11-20T12:00	32450	7	-47.5		260	83	
2025-11-20T12:00	32500	7	-46.4		261	83	
2025-11-20T12:00	32550	7	-45.3		261	86	
2025-11-20T12:00	32600	7	-43.7		261	89	
2025-11-20T12:00	32650	6	-42.2		261	88	
2025-11-20T12:00	32700	6	-41.8		262	86	
2025-11-20T12:00	32750	6	-41.2		263	86	
2025-11-20T12:00	32800	6	-40.5		264	87	
2025-11-20T12:00	32850	6	-40.0		264	88	
2025-11-20T12:00	32900	6	-39.6		265	89	
2025-11-20T12:00	32950	6	-39.6		265	89	
2025-11-20T12:00	33000	6	-39.6		265	89	
2025-11-20T12:00	33050	6	-39.6		265	89	
2025-11-20T12:00	33100	6	-39.7		266	90	
2025-11-20T12:00	33150	6	-39.8		266	90	
2025-11-20T12:00	33200	6	-39.3		266	90	
2025-11-20T12:00	33250	6	-38.2		265	90	
2025-11-20T12:00	33300	6	-37.4		265	89	
2025-11-20T12:00	33350	6	-37.1		264	88	
2025-11-20T12:00	33400	6	-37.1		264	87	
2025-11-20T12:00	33450	6	-37.2		264	87	
2025-11-20T12:00	33500	6	-37.3		263	86	
2025-11-20T12:00	33550	6	-37.4		263	85	
2025-11-20T12:00	33600	6	-37.4		262	85	
2025-11-20T12:00	33650	6	-37.5		262	85	
2025-11-20T12:00	33700	6	-37.7		262	85	
2025-11-20T12:00	33750	6	-38.1		262	85	
2025-11-20T12:00	33800	5	-38.3		261	86	
2025-11-20T12:00	33850	5	-38.5		261	87	
2025-11-20T12:00	33900	5	-38.7		261	88	
2025-11-20T12:00	33950	5	-39.0		262	89	
2025-11-20T12:00	34000	5	-39.2		262	90	
2025-11-20T12:00	34050	5	-39.4		262	90	
2025-11-20T12:00	34100	5	-39.5		262	90	
2025-11-20T12:00	34150	5	-39.3		262	90	
2025-11-20T12:00	34200	5	-39.1		262	89	
2025-11-20T12:00	34250	5	-38.9		263	89	
2025-11-20T12:00	34300	5	-38.9		263	89	
2025-11-20T12:00	34350	5	-38.8		264	90	
2025-11-20T12:00	34400	5	-38.8		264	90	
2025-11-20T12:00	34450	5	-38.8		265	91	
2025-11-20T12:00	34500	5	-38.5		265	91	
2025-11-20T12:00	34550	5	-38.0		265	92	
2025-11-20T12:00	34600	5	-37.6		266	93	
2025-11-20T12:00	34650	5	-37.5		266	93	
2025-11-20T12:00	34700	5	-37.7		267	94	
2025-11-20T12:00	34750	5	-37.7		267	93	
2025-11-20T12:00	34800	5	-36.9		264	92	
2025-11-20T12:00	34850	5	-33.5		260	95	
2025-11-20T12:00	34900	5	-29.4		259	101	
2025-11-20T12:00	34950	5	-29.3		260	102	
2025-11-20T12:00	35000	5	-29.2		260	102	
2025-11-20T12:00	35050	5	-29.3		261	102	
2025-11-20T12:00	35100	5	-29.6		261	102	
2025-11-20T12:00	35150	5	-29.8		262	102	
2025-11-20T12:00	35200	4	-30.2		263	102	
2025-11-20T12:00	35250	4	-30.4		263	103	
2025-11-20T12:00	35300	4	-30.7		264	103	
2025-11-20T12:00	35350	4	-31.0		264	104	
2025-11-20T12:00	35400	4	-31.1		265	104	
2025-11-20T12:00	35450	4	-31.1		265	104	
2025-11-20T12:00	35500	4	-31.2		265	104	
2025-11-20T12:00	35550	4	-31.4		266	105	
2025-11-20T12:00	35600	4	-31.7		266	105	
2025-11-20T12:00	35650	4	-31.9		267	105	
2025-11-20T12:00	35700	4	-32.1		267	105	
2025-11-20T12:00	35750	4	-32.4		267	105	
2025-11-20T12:00	35800	4	-32.8		267	105	
2025-11-20T12:00	35850	4	-33.0		267	106	
2025-11-20T12:00	35900	4	-33.2		267	106	
2025-11-20T12:00	35950	4	-33.2		267	106	
2025-11-20T12:00	36000	4	-33.3		266	107	
2025-11-20T12:00	36050	4	-33.3		266	107	
2025-11-20T12:00	36100	4	-33.4		266	108	
2025-11-20T12:00	36150	4	-33.5		266	108	
2025-11-20T12:00	36200	4	-33.8		266	108	
2025-11-20T12:00	36250	4	-34.1		266	109	
2025-11-20T12:00	36300	4	-34.0		265	109	
2025-11-21T00:00	491	955	-0.4	-0.8	178	0	
2025-11-21T00:00	501	953	-0.4	-0.8	146	0	
2025-11-21T00:00	520	952	-0.4	-1.0	131	1	
2025-11-21T00:00	540	949	-0.5	-1.4	122	1	
2025-11-21T00:00	560	947	-0.6	-1.6	111	1	
2025-11-21T00:00	580	945	-0.6	-1.8	103	1	
2025-11-21T00:00	600	943	-0.7	-2.0	96	1	
2025-11-21T00:00	620	940	-0.9	-2.1	90	1	
2025-11-21T00:00	640	938	-1.0	-2.2	86	1	
2025-11-21T00:00	660	935	-1.2	-2.2	84	1	
2025-11-21T00:00	680	933	-1.4	-2.3	81	0	
2025-11-21T00:00	700	931	-1.5	-2.4	71	0	
2025-11-21T00:00	720	928	-1.5	-2.6	39	0	
2025-11-21T00:00	740	926	-1.6	-2.8	19	0	
2025-11-21T00:00	760	924	-1.7	-2.9	12	1	
2025-11-21T00:00	780	922	-1.9	-2.9	6	1	
2025-11-21T00:00	800	919	-2.1	-3.1	2	1	
2025-11-21T00:00	820	917	-2.3	-3.1	358	2	
2025-11-21T00:00	840	915	-2.4	-3.3	353	2	
2025-11-21T00:00	860	912	-2.6	-3.4	350	2	
2025-11-21T00:00	880	910	-2.7	-3.8	348	3	
2025-11-21T00:00	900	908	-2.8	-3.9	348	3	
2025-11-21T00:00	920	905	-3.0	-4.0	349	3	
2025-11-21T00:00	940	903	-3.2	-4.1	353	3	
2025-11-21T00:00	960	901	-3.3	-4.2	358	4	
2025-11-21T00:00	980	898	-3.4	-4.7	3	4	
2025-11-21T00:00	1000	896	-3.5	-5.1	7	5	
2025-11-21T00:00	1020	894	-3.7	-5.2	10	5	
2025-11-21T00:00	1040	892	-3.8	-5.5	13	6	
2025-11-21T00:00	1060	889	-4.0	-5.7	15	6	
2025-11-21T00:00	1080	887	-4.1	-5.8	16	7	
2025-11-21T00:00	1100	885	-4.3	-5.8	16	7	
2025-11-21T00:00	1120	883	-4.4	-6.6	16	8	
2025-11-21T00:00	1140	880	-4.5	-7.1	15	8	
2025-11-21T00:00	1160	878	-4.7	-7.2	14	8	
2025-11-21T00:00	1180	876	-4.8	-7.4	12	8	
2025-11-21T00:00	1200	874	-4.9	-7.6	11	8	
2025-11-21T00:00	1220	872	-5.1	-7.6	10	8	
2025-11-21T00:00	1240	869	-5.3	-7.5	10	8	
2025-11-21T00:00	1260	867	-5.4	-7.5	10	8	
2025-11-21T00:00	1280	865	-5.6	-7.6	9	7	
2025-11-21T00:00	1300	862	-5.8	-7.7	10	7	
2025-11-21T00:00	1320	860	-6.0	-7.8	10	7	
2025-11-21T00:00	1340	858	-6.1	-8.0	11	7	
2025-11-21T00:00	1360	856	-6.3	-8.1	11	7	
2025-11-21T00:00	1380	854	-6.5	-8.2	11	7	
2025-11-21T00:00	1400	852	-6.7	-8.2	11	7	
2025-11-21T00:00	1420	850	-6.8	-8.3	10	7	
2025-11-21T00:00	1440	847	-7.1	-8.4	7	7	
2025-11-21T00:00	1460	845	-7.2	-8.5	5	7	
2025-11-21T00:00	1480	843	-7.4	-8.5	3	7	
2025-11-21T00:00	1500	841	-7.6	-8.6	1	7	
2025-11-21T00:00	1520	839	-7.7	-8.8	1	7	
2025-11-21T00:00	1540	836	-7.9	-9.0	0	7	
2025-11-21T00:00	1560	834	-8.0	-9.1	1	7	
2025-11-21T00:00	1580	832	-8.2	-9.1	3	6	
2025-11-21T00:00	1600	830	-8.3	-9.2	4	6	
2025-11-21T00:00	1620	828	-8.4	-9.4	7	6	
2025-11-21T00:00	1640	826	-8.5	-9.7	10	6	
2025-11-21T00:00	1660	824	-8.5	-10.0	13	5	
2025-11-21T00:00	1680	822	-8.6	-10.2	17	5	
2025-11-21T00:00	1700	819	-8.7	-10.3	21	5	
2025-11-21T00:00	1720	817	-8.9	-10.3	25	5	
2025-11-21T00:00	1740	815	-9.1	-10.3	28	5	
2025-11-21T00:00	1760	813	-9.3	-10.4	30	5	
2025-11-21T00:00	1780	811	-9.4	-10.4	32	5	
2025-11-21T00:00	1800	809	-9.5	-10.4	34	5	
2025-11-21T00:00	1820	807	-9.6	-10.4	34	5	
2025-11-21T00:00	1840	805	-9.8	-10.4	34	5	
2025-11-21T00:00	1860	803	-9.9	-10.6	34	5	
2025-11-21T00:00	1880	800	-10.1	-10.8	32	5	
2025-11-21T00:00	1900	799	-10.2	-10.9	31	5	
2025-11-21T00:00	1920	797	-10.4	-11.1	29	5	
2025-11-21T00:00	1940	794	-10.6	-11.3	27	5	
2025-11-21T00:00	1960	792	-10.7	-11.4	25	5	
2025-11-21T00:00	1980	790	-10.9	-11.6	24	5	
2025-11-21T00:00	2000	788	-11.1	-11.7	23	5	
2025-11-21T00:00	2020	786	-11.2	-11.8	22	5	
2025-11-21T00:00	2040	784	-11.4	-12.1	22	5	
2025-11-21T00:00	2060	782	-11.5	-12.3	21	6	
2025-11-21T00:00	2080	780	-11.7	-12.6	21	6	
2025-11-21T00:00	2100	778	-11.8	-12.9	21	6	
2025-11-21T00:00	2120	776	-11.9	-13.6	21	6	
2025-11-21T00:00	2140	774	-11.9	-14.0	22	6	
2025-11-21T00:00	2160	772	-12.1	-14.1	23	6	
2025-11-21T00:00	2180	770	-12.2	-14.1	26	6	
2025-11-21T00:00	2200	768	-12.4	-14.2	30	5	
2025-11-21T00:00	2220	766	-12.6	-14.2	34	4	
2025-11-21T00:00	2240	764	-12.8	-14.3	36	4	
2025-11-21T00:00	2260	762	-12.9	-14.3	34	3	
2025-11-21T00:00	2280	760	-13.0	-14.2	30	3	
2025-11-21T00:00	2300	758	-13.2	-14.1	25	3	
2025-11-21T00:00	2320	756	-13.3	-14.1	21	3	
2025-11-21T00:00	2340	754	-13.4	-14.2	19	4	
2025-11-21T00:00	2360	752	-13.6	-14.4	19	4	
2025-11-21T00:00	2380	750	-13.7	-14.6	21	4	
2025-11-21T00:00	2400	748	-13.8	-14.9	24	3	
2025-11-21T00:00	2420	746	-13.9	-15.0	28	3	
2025-11-21T00:00	2440	744	-14.1	-15.3	32	3	
2025-11-21T00:00	2460	742	-14.2	-15.6	36	3	
2025-11-21T00:00	2480	740	-14.4	-15.9	38	3	
2025-11-21T00:00	2500	738	-14.5	-15.9	38	3	
2025-11-21T00:00	2520	736	-14.6	-15.9	37	3	
2025-11-21T00:00	2540	734	-14.8	-16.0	35	3	
2025-11-21T00:00	2560	732	-14.9	-16.1	34	3	
2025-11-21T00:00	2580	730	-15.1	-16.0	34	3	
2025-11-21T00:00	2600	728	-15.2	-16.0	35	3	
2025-11-21T00:00	2620	727	-15.4	-16.1	36	3	
2025-11-21T00:00	2640	725	-15.5	-16.1	38	3	
2025-11-21T00:00	2660	723	-15.5	-16.1	40	2	
2025-11-21T00:00	2680	721	-15.6	-16.3	40	1	
2025-11-21T00:00	2700	719	-15.7	-17.2	39	1	
2025-11-21T00:00	2720	717	-15.8	-18.6	24	0	
2025-11-21T00:00	2740	715	-16.0	-18.9	312	0	
2025-11-21T00:00	2760	713	-16.2	-19.0	274	0	
2025-11-21T00:00	2780	711	-16.3	-19.0	287	0	
2025-11-21T00:00	2800	709	-16.5	-19.2	324	1	
2025-11-21T00:00	2820	707	-16.7	-19.7	352	1	
2025-11-21T00:00	2840	705	-16.9	-19.9	4	1	
2025-11-21T00:00	2860	704	-17.0	-20.1	11	2	
2025-11-21T00:00	2880	702	-17.2	-20.0	14	2	
2025-11-21T00:00	2900	700	-17.4	-20.1	16	2	
2025-11-21T00:00	2920	698	-17.6	-20.2	18	3	
2025-11-21T00:00	2940	696	-17.7	-20.3	18	3	
2025-11-21T00:00	2960	694	-17.9	-20.3	16	3	
2025-11-21T00:00	2980	693	-18.1	-20.6	13	2	
2025-11-21T00:00	3000	691	-18.2	-20.8	9	2	
2025-11-21T00:00	3020	689	-18.4	-21.0	2	2	
2025-11-21T00:00	3040	687	-18.6	-21.1	355	1	
2025-11-21T00:00	3060	685	-18.7	-21.4	352	1	
2025-11-21T00:00	3080	683	-18.9	-22.0	355	1	
2025-11-21T00:00	3100	682	-19.0	-22.4	6	1	
2025-11-21T00:00	3120	680	-19.2	-22.3	16	1	
2025-11-21T00:00	3140	678	-19.4	-22.5	20	1	
2025-11-21T00:00	3160	676	-19.6	-22.6	20	1	
2025-11-21T00:00	3180	674	-19.8	-22.8	13	1	
2025-11-21T00:00	3200	672	-20.0	-22.9	0	1	
2025-11-21T00:00	3220	671	-20.1	-23.2	346	1	
2025-11-21T00:00	3240	669	-20.2	-23.7	335	1	
2025-11-21T00:00	3260	667	-20.4	-24.2	330	2	
2025-11-21T00:00	3280	665	-20.5	-24.5	330	2	
2025-11-21T00:00	3300	663	-20.7	-24.5	335	2	
2025-11-21T00:00	3320	661	-20.9	-24.6	342	2	
2025-11-21T00:00	3340	660	-21.1	-24.5	349	2	
2025-11-21T00:00	3360	658	-21.2	-24.6	357	2	
2025-11-21T00:00	3380	656	-21.4	-24.4	6	2	
2025-11-21T00:00	3400	654	-21.5	-24.2	16	2	
2025-11-21T00:00	3420	653	-21.7	-24.3	27	2	
2025-11-21T00:00	3440	651	-21.9	-24.3	38	2	
2025-11-21T00:00	3460	649	-22.0	-24.6	47	2	
2025-11-21T00:00	3480	647	-22.2	-24.8	56	2	
2025-11-21T00:00	3500	646	-22.3	-25.0	64	2	
2025-11-21T00:00	3520	644	-22.2	-25.7	73	2	
2025-11-21T00:00	3540	642	-22.3	-25.8	82	2	
2025-11-21T00:00	3560	640	-22.4	-25.7	92	2	
2025-11-21T00:00	3580	639	-22.6	-25.8	99	2	
2025-11-21T00:00	3600	637	-22.8	-25.9	105	2	
2025-11-21T00:00	3620	635	-23.0	-25.8	107	2	
2025-11-21T00:00	3640	633	-23.2	-26.0	106	2	
2025-11-21T00:00	3660	632	-23.4	-26.1	104	2	
2025-11-21T00:00	3680	630	-23.6	-25.9	100	2	
2025-11-21T00:00	3700	628	-23.8	-26.0	99	2	
2025-11-21T00:00	3720	627	-24.0	-26.0	102	3	
2025-11-21T00:00	3740	625	-24.1	-26.1	105	3	
2025-11-21T00:00	3760	623	-24.3	-26.3	110	3	
2025-11-21T00:00	3780	621	-24.5	-26.2	114	3	
2025-11-21T00:00	3800	620	-24.7	-26.3	117	3	
2025-11-21T00:00	3820	618	-24.9	-26.6	119	4	
2025-11-21T00:00	3840	616	-25.0	-26.6	120	4	
2025-11-21T00:00	3860	615	-25.2	-26.6	120	4	
2025-11-21T00:00	3880	613	-25.4	-26.8	119	4	
2025-11-21T00:00	3900	611	-25.6	-27.0	119	4	
2025-11-21T00:00	3920	610	-25.8	-27.1	119	4	
2025-11-21T00:00	3940	608	-25.9	-27.0	119	4	
2025-11-21T00:00	3960	606	-26.1	-27.0	119	4	
2025-11-21T00:00	3980	605	-26.3	-27.1	119	4	
2025-11-21T00:00	4000	603	-26.5	-27.1	117	4	
2025-11-21T00:00	4020	601	-26.7	-27.2	115	4	
2025-11-21T00:00	4040	600	-26.9	-27.1	112	3	
2025-11-21T00:00	4060	598	-27.1	-27.2	110	3	
2025-11-21T00:00	4080	596	-27.3	-27.5	109	4	
2025-11-21T00:00	4100	594	-27.5	-27.6	109	4	
2025-11-21T00:00	4120	593	-27.6	-27.7	110	4	
2025-11-21T00:00	4140	591	-27.8	-27.8	112	4	
2025-11-21T00:00	4160	590	-27.9	-28.0	115	4	
2025-11-21T00:00	4180	588	-28.1	-28.2	118	4	
2025-11-21T00:00	4200	586	-28.3	-28.3	122	5	
2025-11-21T00:00	4220	585	-28.5	-28.5	126	5	
2025-11-21T00:00	4240	583	-28.7	-28.7	130	5	
2025-11-21T00:00	4260	581	-28.8	-28.8	132	5	
2025-11-21T00:00	4280	580	-29.0	-29.1	133	6	
2025-11-21T00:00	4300	578	-29.3	-29.4	133	6	
2025-11-21T00:00	4320	576	-29.4	-29.4	132	6	
2025-11-21T00:00	4340	575	-29.5	-29.5	132	6	
2025-11-21T00:00	4360	573	-29.6	-29.6	131	6	
2025-11-21T00:00	4380	572	-29.7	-30.1	130	7	
2025-11-21T00:00	4400	570	-29.8	-30.6	130	7	
2025-11-21T00:00	4420	568	-30.0	-30.5	130	7	
2025-11-21T00:00	4440	567	-30.1	-30.9	131	7	
2025-11-21T00:00	4460	565	-30.2	-31.8	133	8	
2025-11-21T00:00	4480	564	-30.3	-32.0	135	8	
2025-11-21T00:00	4500	562	-30.5	-32.6	136	8	
2025-11-21T00:00	4520	560	-30.7	-32.8	137	7	
2025-11-21T00:00	4540	559	-30.8	-33.0	136	7	
2025-11-21T00:00	4560	557	-30.9	-33.4	134	7	
2025-11-21T00:00	4580	556	-31.1	-33.7	132	7	
2025-11-21T00:00	4600	554	-31.3	-33.8	130	7	
2025-11-21T00:00	4620	553	-31.4	-33.7	129	7	
2025-11-21T00:00	4640	551	-31.6	-33.6	129	7	
2025-11-21T00:00	4660	550	-31.6	-34.1	131	7	
2025-11-21T00:00	4680	548	-31.7	-34.0	134	6	
2025-11-21T00:00	4700	547	-31.9	-34.1	138	5	
2025-11-21T00:00	4720	545	-32.1	-34.4	141	5	
2025-11-21T00:00	4740	543	-32.2	-34.5	144	5	
2025-11-21T00:00	4760	542	-32.5	-34.5	146	5	
2025-11-21T00:00	4780	540	-32.6	-34.5	149	5	
2025-11-21T00:00	4800	539	-32.8	-35.1	153	5	
2025-11-21T00:00	4820	537	-32.9	-35.4	159	6	
2025-11-21T00:00	4840	536	-33.0	-35.6	167	6	
2025-11-21T00:00	4860	534	-33.1	-36.0	174	6	
2025-11-21T00:00	4880	533	-33.3	-36.1	180	6	
2025-11-21T00:00	4900	531	-33.4	-36.6	182	7	
2025-11-21T00:00	4920	530	-33.4	-36.7	183	7	
2025-11-21T00:00	4940	528	-33.5	-36.0	182	7	
2025-11-21T00:00	4960	527	-33.5	-36.2	182	7	
2025-11-21T00:00	4980	525	-33.7	-36.7	182	7	
2025-11-21T00:00	5000	524	-33.8	-37.1	183	7	
2025-11-21T00:00	5020	522	-33.9	-36.8	184	6	
2025-11-21T00:00	5040	521	-34.1	-36.8	185	6	
2025-11-21T00:00	5060	519	-34.3	-37.2	186	6	
2025-11-21T00:00	5080	518	-34.5	-37.9	186	6	
2025-11-21T00:00	5100	516	-34.6	-40.3	186	6	
2025-11-21T00:00	5120	515	-34.8	-41.6	186	6	
2025-11-21T00:00	5140	513	-34.9	-42.8	188	5	
2025-11-21T00:00	5160	512	-35.1	-43.5	190	5	
2025-11-21T00:00	5180	510	-35.3	-44.5	196	5	
2025-11-21T00:00	5200	509	-35.5	-45.1	204	5	
2025-11-21T00:00	5220	507	-35.7	-46.0	210	5	
2025-11-21T00:00	5240	506	-35.9	-46.6	214	6	
2025-11-21T00:00	5260	505	-36.0	-48.6	216	6	
2025-11-21T00:00	5280	503	-36.2	-50.5	216	6	
2025-11-21T00:00	5300	502	-36.3	-50.5	215	7	
2025-11-21T00:00	5320	500	-36.5	-49.8	213	7	
2025-11-21T00:00	5340	499	-36.6	-49.3	211	7	
2025-11-21T00:00	5360	497	-36.6	-50.6	209	8	
2025-11-21T00:00	5380	496	-36.7	-50.9	206	8	
2025-11-21T00:00	5400	494	-36.8	-51.1	204	8	
2025-11-21T00:00	5420	493	-36.9	-51.1	202	9	
2025-11-21T00:00	5440	491	-37.0	-51.5	200	9	
2025-11-21T00:00	5460	490	-37.0	-48.8	198	9	
2025-11-21T00:00	5480	489	-37.1	-45.3	196	10	
2025-11-21T00:00	5500	487	-37.2	-44.1	195	10	
2025-11-21T00:00	5520	486	-37.3	-43.2	194	10	
2025-11-21T00:00	5540	484	-37.4	-43.7	193	11	
2025-11-21T00:00	5560	483	-37.6	-43.8	193	11	
2025-11-21T00:00	5580	482	-37.8	-43.8	193	11	
2025-11-21T00:00	5600	480	-37.9	-43.6	195	10	
2025-11-21T00:00	5620	479	-38.1	-43.8	196	10	
2025-11-21T00:00	5640	478	-38.3	-43.9	198	10	
2025-11-21T00:00	5660	476	-38.4	-44.0	199	10	
2025-11-21T00:00	5680	475	-38.6	-44.0	200	10	
2025-11-21T00:00	5700	473	-38.8	-43.5	201	10	
2025-11-21T00:00	5720	472	-39.0	-43.3	200	11	
2025-11-21T00:00	5740	471	-39.1	-43.1	200	11	
2025-11-21T00:00	5760	469	-39.3	-43.2	199	11	
2025-11-21T00:00	5780	468	-39.5	-43.8	198	12	
2025-11-21T00:00	5800	467	-39.7	-43.8	197	12	
2025-11-21T00:00	5820	465	-39.9	-44.0	197	13	
2025-11-21T00:00	5840	464	-40.0	-44.1	196	13	
2025-11-21T00:00	5860	462	-40.2	-44.0	196	14	
2025-11-21T00:00	5880	461	-40.4	-44.0	196	14	
2025-11-21T00:00	5900	460	-40.6	-44.0	196	14	
2025-11-21T00:00	5920	458	-40.7	-43.9	195	15	
2025-11-21T00:00	5940	457	-40.9	-44.2	195	15	
2025-11-21T00:00	5960	456	-41.1	-44.6	194	15	
2025-11-21T00:00	5980	454	-41.3	-45.1	194	15	
2025-11-21T00:00	6000	453	-41.4	-45.0	194	15	
2025-11-21T00:00	6020	452	-41.6	-45.4	195	15	
2025-11-21T00:00	6040	450	-41.8	-46.1	196	15	
2025-11-21T00:00	6060	449	-41.9	-46.3	197	15	
2025-11-21T00:00	6080	448	-42.1	-46.2	197	15	
2025-11-21T00:00	6100	446	-42.3	-46.1	197	15	
2025-11-21T00:00	6120	445	-42.4	-46.5	197	15	
2025-11-21T00:00	6140	444	-42.6	-47.1	197	15	
2025-11-21T00:00	6160	442	-42.8	-47.0	197	15	
2025-11-21T00:00	6180	441	-42.9	-46.8	198	15	
2025-11-21T00:00	6200	440	-43.1	-47.1	199	15	
2025-11-21T00:00	6220	438	-43.2	-47.3	200	15	
2025-11-21T00:00	6240	437	-43.4	-47.6	202	15	
2025-11-21T00:00	6260	436	-43.5	-47.7	204	15	
2025-11-21T00:00	6280	435	-43.7	-47.4	206	16	
2025-11-21T00:00	6300	433	-43.9	-47.3	206	16	
2025-11-21T00:00	6320	432	-44.1	-47.6	207	17	
2025-11-21T00:00	6340	431	-44.2	-47.8	207	17	
2025-11-21T00:00	6360	429	-44.4	-47.6	207	17	
2025-11-21T00:00	6380	428	-44.6	-47.4	206	17	
2025-11-21T00:00	6400	427	-44.7	-47.4	206	17	
2025-11-21T00:00	6420	426	-44.9	-47.6	206	18	
2025-11-21T00:00	6440	424	-45.0	-47.9	206	18	
2025-11-21T00:00	6460	423	-45.2	-47.7	206	18	
2025-11-21T00:00	6480	422	-45.3	-47.6	208	18	
2025-11-21T00:00	6500	421	-45.5	-48.0	209	18	
2025-11-21T00:00	6520	419	-45.7	-48.2	210	18	
2025-11-21T00:00	6540	418	-45.8	-48.2	212	17	
2025-11-21T00:00	6560	417	-45.9	-48.9	212	17	
2025-11-21T00:00	6580	415	-45.8	-50.6	213	16	
2025-11-21T00:00	6600	414	-45.8	-52.0	213	15	
2025-11-21T00:00	6620	413	-45.6	-52.9	213	15	
2025-11-21T00:00	6640	412	-45.6	-53.4	212	14	
2025-11-21T00:00	6660	410	-45.6	-54.1	212	14	
2025-11-21T00:00	6680	409	-45.6	-54.6	212	13	
2025-11-21T00:00	6700	408	-45.7	-54.4	211	13	
2025-11-21T00:00	6720	407	-45.8	-54.0	210	12	
2025-11-21T00:00	6740	406	-46.0	-54.2	209	12	
2025-11-21T00:00	6760	404	-46.1	-54.4	208	12	
2025-11-21T00:00	6780	403	-46.2	-55.0	208	12	
2025-11-21T00:00	6800	402	-46.3	-55.6	208	12	
2025-11-21T00:00	6820	401	-46.4	-55.9	208	12	
2025-11-21T00:00	6840	400	-46.4	-56.5	208	12	
2025-11-21T00:00	6860	398	-46.3	-57.2	208	12	
2025-11-21T00:00	6880	397	-46.3	-57.7	208	13	
2025-11-21T00:00	6900	396	-46.4	-58.2	208	13	
2025-11-21T00:00	6920	395	-46.4	-58.4	209	13	
2025-11-21T00:00	6940	394	-46.4	-58.7	209	13	
2025-11-21T00:00	6960	392	-46.5	-58.4	209	13	
2025-11-21T00:00	6980	391	-46.6	-58.2	209	13	
2025-11-21T00:00	7000	390	-46.7	-58.3	209	13	
2025-11-21T00:00	7020	389	-46.8	-58.5	208	13	
2025-11-21T00:00	7040	388	-46.9	-58.7	208	12	
2025-11-21T00:00	7060	387	-46.9	-58.5	208	12	
2025-11-21T00:00	7080	385	-47.0	-58.5	208	12	
2025-11-21T00:00	7100	384	-47.2	-58.5	208	11	
2025-11-21T00:00	7120	383	-47.3	-58.9	209	11	
2025-11-21T00:00	7140	382	-47.4	-59.1	210	11	
2025-11-21T00:00	7160	381	-47.6	-59.1	211	11	
2025-11-21T00:00	7180	380	-47.7	-59.5	211	12	
2025-11-21T00:00	7200	378	-47.8	-60.1	210	12	
2025-11-21T00:00	7220	377	-47.8	-60.6	209	12	
2025-11-21T00:00	7240	376	-47.9	-60.8	208	13	
2025-11-21T00:00	7260	375	-48.1	-60.7	206	13	
2025-11-21T00:00	7280	374	-48.2	-60.4	205	13	
2025-11-21T00:00	7300	373	-48.3	-59.9	204	13	
2025-11-21T00:00	7320	372	-48.5	-59.2	203	13	
2025-11-21T00:00	7340	370	-48.6	-58.5	203	13	
2025-11-21T00:00	7360	369	-48.6	-58.1	203	13	
2025-11-21T00:00	7380	368	-48.7	-58.2	203	12	
2025-11-21T00:00	7400	367	-48.8	-58.7	204	12	
2025-11-21T00:00	7420	366	-48.8	-59.2	204	12	
2025-11-21T00:00	7440	365	-48.8	-59.6	203	12	
2025-11-21T00:00	7460	364	-48.9	-59.8	202	12	
2025-11-21T00:00	7480	363	-49.0	-60.1	201	12	
2025-11-21T00:00	7500	362	-49.1	-60.5	201	12	
2025-11-21T00:00	7520	360	-49.2	-60.9	201	12	
2025-11-21T00:00	7540	359	-49.3	-61.4	202	13	
2025-11-21T00:00	7560	358	-49.3	-62.3	203	13	
2025-11-21T00:00	7580	357	-49.3	-63.8	204	12	
2025-11-21T00:00	7600	356	-49.2	-65.2	205	12	
2025-11-21T00:00	7620	355	-49.1	-65.0	206	12	
2025-11-21T00:00	7640	354	-49.2	-64.8	207	12	
2025-11-21T00:00	7660	353	-49.2	-64.7	207	12	
2025-11-21T00:00	7680	352	-49.2	-64.4	206	12	
2025-11-21T00:00	7700	351	-49.3	-64.3	206	12	
2025-11-21T00:00	7720	350	-49.3	-64.3	206	12	
2025-11-21T00:00	7740	349	-49.4	-64.4	206	13	
2025-11-21T00:00	7760	347	-49.5	-64.4	205	13	
2025-11-21T00:00	7780	346	-49.6	-64.6	205	13	
2025-11-21T00:00	7800	345	-49.8	-64.8	204	13	
2025-11-21T00:00	7820	344	-49.9	-65.2	204	13	
2025-11-21T00:00	7840	343	-50.0	-65.4	204	13	
2025-11-21T00:00	7860	342	-50.1	-65.3	204	13	
2025-11-21T00:00	7880	341	-50.2	-65.2	204	13	
2025-11-21T00:00	7900	340	-50.3	-65.2	205	13	
2025-11-21T00:00	7920	339	-50.5	-65.3	204	13	
2025-11-21T00:00	7940	338	-50.7	-65.4	204	14	
2025-11-21T00:00	7960	337	-50.8	-65.5	204	14	
2025-11-21T00:00	7980	336	-50.9	-65.6	203	14	
2025-11-21T00:00	8000	335	-51.0	-65.7	202	14	
2025-11-21T00:00	8020	334	-51.0	-65.9	201	14	
2025-11-21T00:00	8040	333	-51.0	-65.8	201	14	
2025-11-21T00:00	8060	332	-51.0	-65.8	200	13	
2025-11-21T00:00	8080	331	-51.0	-65.8	200	13	
2025-11-21T00:00	8100	330	-51.1	-66.0	199	13	
2025-11-21T00:00	8120	329	-51.1	-66.1	199	13	
2025-11-21T00:00	8140	328	-51.1	-66.4	199	13	
2025-11-21T00:00	8160	327	-51.1	-66.5	198	13	
2025-11-21T00:00	8180	326	-51.2	-66.6	198	13	
2025-11-21T00:00	8200	325	-51.3	-66.7	197	13	
2025-11-21T00:00	8220	324	-51.5	-66.8	197	13	
2025-11-21T00:00	8240	323	-51.5	-66.9	198	13	
2025-11-21T00:00	8260	322	-51.4	-67.1	198	14	
2025-11-21T00:00	8280	321	-51.4	-67.3	198	14	
2025-11-21T00:00	8300	320	-51.2	-67.3	198	14	
2025-11-21T00:00	8320	319	-51.2	-67.5	198	15	
2025-11-21T00:00	8340	318	-51.4	-67.7	198	15	
2025-11-21T00:00	8360	317	-51.4	-67.5	198	15	
2025-11-21T00:00	8380	316	-51.4	-67.4	198	15	
2025-11-21T00:00	8400	315	-51.4	-67.5	198	15	
2025-11-21T00:00	8420	314	-51.2	-67.9	198	15	
2025-11-21T00:00	8440	313	-51.2	-68.5	198	15	
2025-11-21T00:00	8460	312	-51.2	-69.1	198	15	
2025-11-21T00:00	8480	311	-51.2	-69.7	199	16	
2025-11-21T00:00	8500	310	-51.1	-69.9	199	16	
2025-11-21T00:00	8520	309	-51.1	-69.8	199	16	
2025-11-21T00:00	8540	308	-51.1	-69.6	199	16	
2025-11-21T00:00	8560	307	-51.0	-69.5	199	16	
2025-11-21T00:00	8580	306	-51.0	-69.4	200	16	
2025-11-21T00:00	8600	305	-51.1	-69.6	200	16	
2025-11-21T00:00	8620	304	-51.1	-69.8	201	16	
2025-11-21T00:00	8640	304	-51.0	-70.0	202	16	
2025-11-21T00:00	8660	303	-50.9	-69.9	203	16	
2025-11-21T00:00	8680	302	-50.9	-69.9	203	16	
2025-11-21T00:00	8700	301	-50.9	-70.0	203	16	
2025-11-21T00:00	8720	300	-50.8	-70.1	203	16	
2025-11-21T00:00	8740	299	-50.8	-70.0	203	16	
2025-11-21T00:00	8760	298	-50.9	-70.0	203	16	
2025-11-21T00:00	8780	297	-50.9	-70.2	204	17	
2025-11-21T00:00	8800	296	-50.8	-70.5	205	17	
2025-11-21T00:00	8820	295	-50.7	-71.1	205	17	
2025-11-21T00:00	8840	294	-50.5	-71.6	205	17	
2025-11-21T00:00	8860	294	-50.6	-72.0	205	17	
2025-11-21T00:00	8880	293	-50.5	-72.4	204	17	
2025-11-21T00:00	8900	292	-50.4	-72.8	204	16	
2025-11-21T00:00	8920	291	-50.5	-73.0	203	16	
2025-11-21T00:00	8940	290	-50.6	-73.2	204	16	
2025-11-21T00:00	8960	289	-50.5	-73.4	204	16	
2025-11-21T00:00	8980	288	-50.6	-73.5	205	16	
2025-11-21T00:00	9000	287	-50.7	-73.5	206	16	
2025-11-21T00:00	9020	286	-50.7	-73.6	207	16	
2025-11-21T00:00	9040	285	-50.8	-73.6	207	16	
2025-11-21T00:00	9060	285	-50.9	-73.6	208	16	
2025-11-21T00:00	9080	284	-50.9	-73.7	208	16	
2025-11-21T00:00	9100	283	-50.9	-73.9	208	16	
2025-11-21T00:00	9120	282	-50.8	-74.0	208	16	
2025-11-21T00:00	9140	281	-50.8	-74.1	208	17	
2025-11-21T00:00	9160	280	-50.9	-74.0	208	17	
2025-11-21T00:00	9180	279	-51.0	-74.0	208	18	
2025-11-21T00:00	9200	279	-51.0	-74.1	207	18	
2025-11-21T00:00	9220	278	-51.1	-74.1	207	18	
2025-11-21T00:00	9240	277	-51.1	-74.1	206	19	
2025-11-21T00:00	9260	276	-51.0	-74.1	205	19	
2025-11-21T00:00	9280	275	-51.0	-74.3	205	19	
2025-11-21T00:00	9300	274	-51.1	-74.7	204	19	
2025-11-21T00:00	9320	273	-51.2	-75.0	204	19	
2025-11-21T00:00	9340	273	-51.2	-74.9	205	19	
2025-11-21T00:00	9360	272	-51.2	-74.6	205	19	
2025-11-21T00:00	9380	271	-51.3	-74.5	206	19	
2025-11-21T00:00	9400	270	-51.5	-74.4	208	19	
2025-11-21T00:00	9420	269	-51.7	-74.3	209	19	
2025-11-21T00:00	9440	268	-51.9	-74.2	211	18	
2025-11-21T00:00	9460	268	-52.0	-74.2	212	18	
2025-11-21T00:00	9480	267	-52.0	-74.3	214	18	
2025-11-21T00:00	9500	266	-51.9	-74.5	214	18	
2025-11-21T00:00	9520	265	-52.0	-74.8	215	18	
2025-11-21T00:00	9540	264	-52.0	-74.9	215	18	
2025-11-21T00:00	9560	264	-52.0	-75.0	215	19	
2025-11-21T00:00	9580	263	-52.0	-75.2	215	19	
2025-11-21T00:00	9600	262	-52.0	-75.3	215	19	
2025-11-21T00:00	9620	261	-52.1	-75.3	216	19	
2025-11-21T00:00	9640	260	-52.1	-75.2	216	19	
2025-11-21T00:00	9660	259	-52.1	-75.2	217	19	
2025-11-21T00:00	9680	259	-52.1	-75.4	218	18	
2025-11-21T00:00	9700	258	-52.2	-75.5	220	18	
2025-11-21T00:00	9720	257	-52.2	-75.6	220	18	
2025-11-21T00:00	9740	256	-52.2	-75.6	222	18	
2025-11-21T00:00	9760	255	-52.2	-75.7	222	18	
2025-11-21T00:00	9780	255	-52.3	-75.7	223	18	
2025-11-21T00:00	9800	254	-52.4	-75.8	224	18	
2025-11-21T00:00	9820	253	-52.5	-75.8	224	18	
2025-11-21T00:00	9840	252	-52.6	-75.8	225	18	
2025-11-21T00:00	9860	252	-52.7	-75.9	225	18	
2025-11-21T00:00	9880	251	-52.8	-75.9	226	18	
2025-11-21T00:00	9900	250	-52.8	-76.0	226	18	
2025-11-21T00:00	9920	249	-52.7	-75.9	226	18	
2025-11-21T00:00	9940	248	-52.5	-76.0	226	18	
2025-11-21T00:00	9960	248	-52.5	-76.1	226	18	
2025-11-21T00:00	9980	247	-52.3	-76.2	226	18	
2025-11-21T00:00	10000	246	-52.0	-76.6	226	18	
2025-11-21T00:00	10018	246	-51.8	-76.9	226	17	
2025-11-21T00:00	10050	244	-51.7	-77.1	226	17	
2025-11-21T00:00	10100	242	-51.8	-77.3	226	17	
2025-11-21T00:00	10150	240	-52.0	-77.5	228	17	
2025-11-21T00:00	10200	239	-52.2	-77.7	231	18	
2025-11-21T00:00	10250	237	-52.3	-77.9	232	18	
2025-11-21T00:00	10300	235	-52.0	-77.9	231	17	
2025-11-21T00:00	10350	233	-52.3	-78.0	228	17	
2025-11-21T00:00	10400	231	-52.6	-78.2	228	17	
2025-11-21T00:00	10450	230	-52.6	-78.4	231	17	
2025-11-21T00:00	10500	228	-52.9	-78.5	234	17	
2025-11-21T00:00	10550	226	-53.2	-78.6	238	17	
2025-11-21T00:00	10600	224	-52.9	-78.8	240	17	
2025-11-21T00:00	10650	223	-52.6	-78.9	243	16	
2025-11-21T00:00	10700	221	-52.4	-78.9	244	16	
2025-11-21T00:00	10750	219	-52.2	-78.8	245	16	
2025-11-21T00:00	10800	217	-51.9	-78.9	244	16	
2025-11-21T00:00	10850	216	-51.7	-79.3	242	15	
2025-11-21T00:00	10900	214	-51.8	-79.4	241	15	
2025-11-21T00:00	10950	213	-51.7	-79.5	241	15	
2025-11-21T00:00	11000	211	-51.6	-79.5	240	16	
2025-11-21T00:00	11050	209	-51.7	-79.6	239	16	
2025-11-21T00:00	11100	208	-51.8	-79.7	239	16	
2025-11-21T00:00	11150	206	-51.8	-79.6	240	17	
2025-11-21T00:00	11200	205	-51.7	-79.7	240	17	
2025-11-21T00:00	11250	203	-51.6	-79.8	241	17	
2025-11-21T00:00	11300	201	-51.5	-79.9	241	17	
2025-11-21T00:00	11350	200	-51.6	-79.9	243	17	
2025-11-21T00:00	11400	198	-51.8	-80.0	245	17	
2025-11-21T00:00	11450	197	-51.8	-80.1	249	17	
2025-11-21T00:00	11500	195	-51.9	-80.1	251	16	
2025-11-21T00:00	11550	194	-52.1	-80.1	252	15	
2025-11-21T00:00	11600	192	-52.3	-80.2	252	15	
2025-11-21T00:00	11650	191	-52.3	-80.3	252	14	
2025-11-21T00:00	11700	189	-52.4	-80.3	252	13	
2025-11-21T00:00	11750	188	-52.4	-80.5	252	12	
2025-11-21T00:00	11800	186	-52.0	-80.5	251	12	
2025-11-21T00:00	11850	185	-51.8	-80.6	249	11	
2025-11-21T00:00	11900	184	-51.9	-80.5	245	11	
2025-11-21T00:00	11950	182	-52.0	-80.6	243	11	
2025-11-21T00:00	12000	181	-52.1	-80.6	240	12	
2025-11-21T00:00	12050	179	-52.2	-80.7	237	12	
2025-11-21T00:00	12100	178	-52.3	-80.7	235	12	
2025-11-21T00:00	12150	177	-52.3	-80.8	233	13	
2025-11-21T00:00	12200	175	-52.1	-80.8	231	13	
2025-11-21T00:00	12250	174	-52.1	-80.9	229	13	
2025-11-21T00:00	12300	173	-52.3	-80.9	228	14	
2025-11-21T00:00	12350	171	-52.5	-80.9	225	15	
2025-11-21T00:00	12400	170	-52.6	-80.9	223	15	
2025-11-21T00:00	12450	169	-52.6	-81.0	222	14	
2025-11-21T00:00	12500	167	-52.9	-81.2	221	14	
2025-11-21T00:00	12550	166	-53.1	-81.2	222	14	
2025-11-21T00:00	12600	165	-53.3	-81.3	224	14	
2025-11-21T00:00	12650	163	-53.6	-81.4	227	15	
2025-11-21T00:00	12700	162	-53.9	-81.5	230	16	
2025-11-21T00:00	12750	161	-54.4	-81.5	232	16	
2025-11-21T00:00	12800	160	-54.7	-81.7	234	16	
2025-11-21T00:00	12850	158	-55.0	-81.8	236	15	
2025-11-21T00:00	12900	157	-55.0	-81.8	235	14	
2025-11-21T00:00	12950	156	-55.4	-82.0	234	13	
2025-11-21T00:00	13000	155	-55.7	-82.2	235	13	
2025-11-21T00:00	13050	153	-55.8	-82.2	236	14	
2025-11-21T00:00	13100	152	-56.2	-82.2	238	15	
2025-11-21T00:00	13150	151	-56.5	-82.3	238	16	
2025-11-21T00:00	13200	150	-56.8	-82.3	237	16	
2025-11-21T00:00	13250	149	-57.1	-82.4	238	16	
2025-11-21T00:00	13300	148	-57.4	-82.5	241	17	
2025-11-21T00:00	13350	146	-57.6	-82.6	242	18	
2025-11-21T00:00	13400	145	-57.7	-82.8	243	18	
2025-11-21T00:00	13450	144	-57.6	-82.8	245	18	
2025-11-21T00:00	13500	143	-57.6	-82.9	250	17	
2025-11-21T00:00	13550	142	-57.7	-82.9	254	18	
2025-11-21T00:00	13600	141	-57.9	-82.9	258	18	
2025-11-21T00:00	13650	140	-58.0	-83.0	264	19	
2025-11-21T00:00	13700	138	-57.3	-83.2	269	21	
2025-11-21T00:00	13750	137	-56.5	-83.2	271	21	
2025-11-21T00:00	13800	136	-56.2	-83.2	271	19	
2025-11-21T00:00	13850	135	-56.2	-83.1	270	19	
2025-11-21T00:00	13900	134	-55.7	-83.2	267	18	
2025-11-21T00:00	13950	133	-55.2	-83.2	265	18	
2025-11-21T00:00	14000	132	-54.6	-83.2	266	18	
2025-11-21T00:00	14050	131	-54.6	-83.2	267	18	
2025-11-21T00:00	14100	130	-54.5	-83.1	265	18	
2025-11-21T00:00	14150	129	-54.4	-83.1	261	17	
2025-11-21T00:00	14200	128	-54.4	-83.0	257	17	
2025-11-21T00:00	14250	127	-54.5	-83.0	254	16	
2025-11-21T00:00	14300	126	-54.4	-83.0	254	16	
2025-11-21T00:00	14350	125	-54.5	-83.0	256	15	
2025-11-21T00:00	14400	124	-54.8	-83.1	259	15	
2025-11-21T00:00	14450	123	-55.2	-83.2	262	14	
2025-11-21T00:00	14500	122	-55.7	-83.2	264	14	
2025-11-21T00:00	14550	121	-56.2	-83.3	266	14	
2025-11-21T00:00	14600	120	-56.6	-83.4	269	14	
2025-11-21T00:00	14650	119	-57.0	-83.5	273	15	
2025-11-21T00:00	14700	118	-57.4	-83.7	279	15	
2025-11-21T00:00	14750	117	-57.4	-83.8	283	15	
2025-11-21T00:00	14800	117	-57.7	-84.0	284	15	
2025-11-21T00:00	14850	116	-57.4	-84.0	280	15	
2025-11-21T00:00	14900	115	-57.1	-84.0	273	15	
2025-11-21T00:00	14950	114	-57.0	-84.1	268	16	
2025-11-21T00:00	15000	113	-57.2	-84.0	267	16	
2025-11-21T00:00	15050	112	-57.7	-84.0	267	17	
2025-11-21T00:00	15100	111	-58.1	-84.1	265	17	
2025-11-21T00:00	15150	110	-58.4	-84.2	262	18	
2025-11-21T00:00	15200	109	-58.7	-84.3	258	20	
2025-11-21T00:00	15250	108	-58.7	-84.4	254	21	
2025-11-21T00:00	15300	108	-58.7	-84.5	253	21	
2025-11-21T00:00	15350	107	-58.4	-84.5	254	21	
2025-11-21T00:00	15400	106	-58.4	-84.6	255	22	
2025-11-21T00:00	15450	105	-58.2	-84.5	255	22	
2025-11-21T00:00	15500	104	-58.6	-84.8	257	21	
2025-11-21T00:00	15550	103	-58.7	-84.7	258	20	
2025-11-21T00:00	15600	103	-59.0	-84.7	260	19	
2025-11-21T00:00	15650	102	-59.2	-84.7	263	19	
2025-11-21T00:00	15700	101	-59.6	-84.9	265	19	
2025-11-21T00:00	15750	100	-59.7	-85.1	265	18	
2025-11-21T00:00	15800	99	-59.2	-85.0	263	17	
2025-11-21T00:00	15850	99	-59.0	-85.1	259	17	
2025-11-21T00:00	15900	98	-59.0	-85.2	255	16	
2025-11-21T00:00	15950	97	-59.1	-85.2	252	15	
2025-11-21T00:00	16000	96	-58.9	-85.2	252	14	
2025-11-21T00:00	16050	95	-59.0	-85.2	252	13	
2025-11-21T00:00	16100	95	-59.3	-85.3	251	13	
2025-11-21T00:00	16150	94	-59.6	-85.4	249	13	
2025-11-21T00:00	16200	93	-59.3	-85.3	248	13	
2025-11-21T00:00	16250	92	-59.1	-85.3	248	13	
2025-11-21T00:00	16300	92	-59.2	-85.4	246	13	
2025-11-21T00:00	16350	91	-59.4	-85.4	245	12	
2025-11-21T00:00	16400	90	-59.6	-85.4	247	13	
2025-11-21T00:00	16450	90	-59.7	-85.5	250	14	
2025-11-21T00:00	16500	89	-59.5	-85.6	248	15	
2025-11-21T00:00	16550	88	-59.4	-85.7	246	15	
2025-11-21T00:00	16600	87	-59.6	-85.7	250	16	
2025-11-21T00:00	16650	87	-59.7	-85.8	256	16	
2025-11-21T00:00	16700	86	-59.6	-85.7	261	15	
2025-11-21T00:00	16750	85	-59.8	-85.8	261	14	
2025-11-21T00:00	16800	85	-60.2	-85.9	258	13	
2025-11-21T00:00	16850	84	-60.5	-86.0	255	13	
2025-11-21T00:00	16900	83	-60.6	-86.0	254	13	
2025-11-21T00:00	16950	83	-60.4	-86.0	256	12	
2025-11-21T00:00	17000	82	-60.7	-86.1	257	12	
2025-11-21T00:00	17050	81	-61.0	-86.1	260	12	
2025-11-21T00:00	17100	81	-61.3	-86.2	262	13	
2025-11-21T00:00	17150	80	-61.6	-86.2	263	13	
2025-11-21T00:00	17200	79	-62.0	-86.3	262	13	
2025-11-21T00:00	17250	79	-62.4	-86.5	262	13	
2025-11-21T00:00	17300	78	-62.3	-86.5	262	13	
2025-11-21T00:00	17350	78	-62.3	-86.5	260	14	
2025-11-21T00:00	17400	77	-62.7	-86.5	257	14	
2025-11-21T00:00	17450	76	-63.1	-86.6	254	15	
2025-11-21T00:00	17500	76	-63.6	-86.8	253	16	
2025-11-21T00:00	17550	75	-63.8	-86.9	251	17	
2025-11-21T00:00	17600	74	-63.8	-86.8	249	18	
2025-11-21T00:00	17650	74	-63.9	-86.9	248	19	
2025-11-21T00:00	17700	73	-64.1	-87.0	247	20	
2025-11-21T00:00	17750	73	-64.0	-87.0	248	21	
2025-11-21T00:00	17800	72	-64.0	-87.0	249	21	
2025-11-21T00:00	17850	71	-64.1	-87.0	250	22	
2025-11-21T00:00	17900	71	-64.5	-87.1	249	23	
2025-11-21T00:00	17950	70	-64.4	-87.0	249	23	
2025-11-21T00:00	18000	70	-64.5	-87.1	250	24	
2025-11-21T00:00	18050	69	-64.5	-87.2	253	25	
2025-11-21T00:00	18100	69	-64.3	-87.1	256	26	
2025-11-21T00:00	18150	68	-64.2	-87.0	258	26	
2025-11-21T00:00	18200	67	-64.6	-87.0	259	26	
2025-11-21T00:00	18250	67	-65.1	-87.1	261	27	
2025-11-21T00:00	18300	66	-65.4	-87.3	266	27	
2025-11-21T00:00	18350	66	-65.2	-87.3	270	27	
2025-11-21T00:00	18400	65	-64.9	-87.4	274	26	
2025-11-21T00:00	18450	65	-64.5	-87.6	277	26	
2025-11-21T00:00	18500	64	-64.0	-87.5	280	24	
2025-11-21T00:00	18550	64	-64.0	-87.5	280	22	
2025-11-21T00:00	18600	63	-64.2	-87.6	278	21	
2025-11-21T00:00	18650	63	-64.1	-87.5	277	19	
2025-11-21T00:00	18700	62	-64.1	-87.5	277	20	
2025-11-21T00:00	18750	62	-64.1	-87.5	277	21	
2025-11-21T00:00	18800	61	-64.3	-87.5	277	22	
2025-11-21T00:00	18850	61	-64.5	-87.6	274	22	
2025-11-21T00:00	18900	60	-64.5	-87.7	272	23	
2025-11-21T00:00	18950	60	-64.2	-87.7	269	24	
2025-11-21T00:00	19000	59	-64.1	-87.8	267	25	
2025-11-21T00:00	19050	59	-63.9	-87.8	264	25	
2025-11-21T00:00	19100	58	-63.4	-87.7	262	24	
2025-11-21T00:00	19150	58	-63.4	-87.7	259	24	
2025-11-21T00:00	19200	57	-63.6	-87.7	257	24	
2025-11-21T00:00	19250	57	-63.9	-87.7	255	24	
2025-11-21T00:00	19300	56	-64.2	-87.7	253	24	
2025-11-21T00:00	19350	56	-64.5	-87.8	252	24	
2025-11-21T00:00	19400	55	-64.9	-87.9	251	24	
2025-11-21T00:00	19450	55	-65.2	-88.0	251	24	
2025-11-21T00:00	19500	55	-65.3	-88.0	250	24	
2025-11-21T00:00	19550	54	-65.6	-88.2	249	25	
2025-11-21T00:00	19600	54	-65.7	-88.3	250	25	
2025-11-21T00:00	19650	53	-65.7	-88.3	251	25	
2025-11-21T00:00	19700	53	-65.8	-88.3	253	25	
2025-11-21T00:00	19750	52	-66.2	-88.4	256	25	
2025-11-21T00:00	19800	52	-66.7	-88.6	259	25	
2025-11-21T00:00	19850	51	-66.8	-88.7	262	26	
2025-11-21T00:00	19900	51	-66.7	-88.6	263	27	
2025-11-21T00:00	19950	51	-66.8	-88.7	264	27	
2025-11-21T00:00	20000	50	-66.8	-88.7	265	28	
2025-11-21T00:00	20050	50	-66.8		266	29	
2025-11-21T00:00	20100	49	-66.8		266	29	
2025-11-21T00:00	20150	49	-67.0		268	29	
2025-11-21T00:00	20200	49	-67.2		268	29	
2025-11-21T00:00	20250	48	-67.4		267	29	
2025-11-21T00:00	20300	48	-67.3		265	30	
2025-11-21T00:00	20350	47	-67.1		265	31	
2025-11-21T00:00	20400	47	-67.0		266	31	
2025-11-21T00:00	20450	47	-66.7		267	31	
2025-11-21T00:00	20500	46	-66.2		268	30	
2025-11-21T00:00	20550	46	-66.4		267	29	
2025-11-21T00:00	20600	45	-66.3		266	29	
2025-11-21T00:00	20650	45	-65.8		265	30	
2025-11-21T00:00	20700	45	-65.9		266	30	
2025-11-21T00:00	20750	44	-65.8		267	30	
2025-11-21T00:00	20800	44	-65.9		266	29	
2025-11-21T00:00	20850	44	-65.8		266	28	
2025-11-21T00:00	20900	43	-65.7		265	27	
2025-11-21T00:00	20950	43	-66.0		263	26	
2025-11-21T00:00	21000	43	-66.1		261	26	
2025-11-21T00:00	21050	42	-65.5		259	25	
2025-11-21T00:00	21100	42	-65.2		258	25	
2025-11-21T00:00	21150	42	-65.4		258	25	
2025-11-21T00:00	21200	41	-65.6		257	25	
2025-11-21T00:00	21250	41	-65.8		256	25	
2025-11-21T00:00	21300	41	-65.8		256	26	
2025-11-21T00:00	21350	40	-65.8		255	25	
2025-11-21T00:00	21400	40	-65.8		255	25	
2025-11-21T00:00	21450	40	-65.8		254	25	
2025-11-21T00:00	21500	39	-65.5		253	26	
2025-11-21T00:00	21550	39	-65.7		252	27	
2025-11-21T00:00	21600	39	-65.8		250	28	
2025-11-21T00:00	21650	38	-65.9		249	29	
2025-11-21T00:00	21700	38	-66.1		248	30	
2025-11-21T00:00	21750	38	-66.2		248	31	
2025-11-21T00:00	21800	37	-65.9		250	31	
2025-11-21T00:00	21850	37	-65.7		252	31	
2025-11-21T00:00	21900	37	-65.8		254	30	
2025-11-21T00:00	21950	36	-66.0		256	30	
2025-11-21T00:00	22000	36	-66.0		256	29	
2025-11-21T00:00	22050	36	-65.8		255	29	
2025-11-21T00:00	22100	36	-65.8		255	29	
2025-11-21T00:00	22150	35	-65.8		257	29	
2025-11-21T00:00	22200	35	-66.0		256	29	
2025-11-21T00:00	22250	35	-65.5		255	30	
2025-11-21T00:00	22300	34	-65.3		255	30	
2025-11-21T00:00	22350	34	-65.5		255	30	
2025-11-21T00:00	22400	34	-65.6		255	30	
2025-11-21T00:00	22450	34	-65.7		257	30	
2025-11-21T00:00	22500	33	-65.9		258	31	
2025-11-21T00:00	22550	33	-66.1		258	31	
2025-11-21T00:00	22600	33	-66.1		257	31	
2025-11-21T00:00	22650	32	-66.0		256	32	
2025-11-21T00:00	22700	32	-65.8		255	33	
2025-11-21T00:00	22750	32	-65.6		254	34	
2025-11-21T00:00	22800	32	-65.6		253	35	
2025-11-21T00:00	22850	31	-66.0		253	35	
2025-11-21T00:00	22900	31	-66.4		253	35	
2025-11-21T00:00	22950	31	-66.6		254	35	
2025-11-21T00:00	23000	31	-66.8		255	36	
2025-11-21T00:00	23050	30	-66.8		255	36	
2025-11-21T00:00	23100	30	-67.1		255	36	
2025-11-21T00:00	23150	30	-67.0		255	37	
2025-11-21T00:00	23200	30	-67.0		256	37	
2025-11-21T00:00	23250	29	-67.1		257	38	
2025-11-21T00:00	23300	29	-67.2		258	38	
2025-11-21T00:00	23350	29	-67.1		259	39	
2025-11-21T00:00	23400	29	-66.9		259	39	
2025-11-21T00:00	23450	28	-66.9		259	39	
2025-11-21T00:00	23500	28	-66.9		259	39	
2025-11-21T00:00	23550	28	-67.2		258	39	
2025-11-21T00:00	23600	28	-67.2		256	40	
2025-11-21T00:00	23650	27	-67.1		255	40	
2025-11-21T00:00	23700	27	-67.0		255	40	
2025-11-21T00:00	23750	27	-67.0		256	40	
2025-11-21T00:00	23800	27	-67.1		257	39	
2025-11-21T00:00	23850	27	-67.4		258	39	
2025-11-21T00:00	23900	26	-67.5		258	38	
2025-11-21T00:00	23950	26	-67.8		258	38	
2025-11-21T00:00	24000	26	-68.0		257	38	
2025-11-21T00:00	24050	26	-68.4		257	39	
2025-11-21T00:00	24100	26	-68.6		257	40	
2025-11-21T00:00	24150	25	-68.8		257	40	
2025-11-21T00:00	24200	25	-68.7		256	41	
2025-11-21T00:00	24250	25	-68.8		255	41	
2025-11-21T00:00	24300	25	-68.9		255	41	
2025-11-21T00:00	24350	24	-68.5		256	40	
2025-11-21T00:00	24400	24	-68.2		257	40	
2025-11-21T00:00	24450	24	-68.2		258	41	
2025-11-21T00:00	24500	24	-68.4		258	42	
2025-11-21T00:00	24550	24	-68.4		260	43	
2025-11-21T00:00	24600	23	-68.1		262	45	
2025-11-21T00:00	24650	23	-67.6		263	46	
2025-11-21T00:00	24700	23	-67.3		264	47	
2025-11-21T00:00	24750	23	-67.4		264	48	
2025-11-21T00:00	24800	23	-67.0		263	47	
2025-11-21T00:00	24850	23	-67.0		261	47	
2025-11-21T00:00	24900	22	-66.8		261	47	
2025-11-21T00:00	24950	22	-65.9		261	48	
2025-11-21T00:00	25000	22	-65.3		263	48	
2025-11-21T00:00	25050	22	-65.1		264	49	
2025-11-21T00:00	25100	22	-64.9		264	49	
2025-11-21T00:00	25150	21	-64.8		264	49	
2025-11-21T00:00	25200	21	-64.8		264	49	
2025-11-21T00:00	25250	21	-64.7		263	49	
2025-11-21T00:00	25300	21	-64.1		263	48	
2025-11-21T00:00	25350	21	-63.8		263	48	
2025-11-21T00:00	25400	21	-63.5		263	48	
2025-11-21T00:00	25450	20	-63.4		264	48	
2025-11-21T00:00	25500	20	-63.3		264	49	
2025-11-21T00:00	25550	20	-63.0		264	49	
2025-11-21T00:00	25600	20	-62.9		264	49	
2025-11-21T00:00	25650	20	-62.9		264	49	
2025-11-21T00:00	25700	20	-63.0		264	48	
2025-11-21T00:00	25750	19	-63.0		264	48	
2025-11-21T00:00	25800	19	-63.2		263	48	
2025-11-21T00:00	25850	19	-63.5		261	49	
2025-11-21T00:00	25900	19	-63.4		260	50	
2025-11-21T00:00	25950	19	-63.2		258	50	
2025-11-21T00:00	26000	19	-62.9		258	51	
2025-11-21T00:00	26050	19	-62.6		258	51	
2025-11-21T00:00	26100	18	-62.2		258	52	
2025-11-21T00:00	26150	18	-62.4		259	52	
2025-11-21T00:00	26200	18	-62.8		259	51	
2025-11-21T00:00	26250	18	-63.2		259	50	
2025-11-21T00:00	26300	18	-63.6		260	50	
2025-11-21T00:00	26350	18	-63.9		260	51	
2025-11-21T00:00	26400	17	-63.9		261	52	
2025-11-21T00:00	26450	17	-63.5		260	53	
2025-11-21T00:00	26500	17	-62.3		259	55	
2025-11-21T00:00	26550	17	-61.5		258	56	
2025-11-21T00:00	26600	17	-60.8		259	57	
2025-11-21T00:00	26650	17	-60.1		260	57	
2025-11-21T00:00	26700	17	-59.8		262	57	
2025-11-21T00:00	26750	17	-59.8		263	57	
2025-11-21T00:00	26800	16	-59.9		263	57	
2025-11-21T00:00	26850	16	-59.6		262	57	
2025-11-21T00:00	26900	16	-59.6		262	57	
2025-11-21T00:00	26950	16	-60.0		262	57	
2025-11-21T00:00	27000	16	-60.3		261	56	
2025-11-21T00:00	27050	16	-60.7		261	56	
2025-11-21T00:00	27100	16	-61.0		260	56	
2025-11-21T00:00	27150	16	-61.2		260	55	
2025-11-21T00:00	27200	15	-61.5		259	55	
2025-11-21T00:00	27250	15	-61.8		259	55	
2025-11-21T00:00	27300	15	-62.0		258	54	
2025-11-21T00:00	27350	15	-62.0		258	54	
2025-11-21T00:00	27400	15	-61.9		258	54	
2025-11-21T00:00	27450	15	-62.0		258	55	
2025-11-21T00:00	27500	15	-61.6		257	56	
2025-11-21T00:00	27550	15	-61.1		257	57	
2025-11-21T00:00	27600	14	-60.8		257	58	
2025-11-21T00:00	27650	14	-60.7		258	57	
2025-11-21T00:00	27700	14	-60.6		258	57	
2025-11-21T00:00	27750	14	-59.8		259	56	
2025-11-21T00:00	27800	14	-58.9		259	56	
2025-11-21T00:00	27850	14	-58.3		260	57	
2025-11-21T00:00	27900	14	-57.8		261	59	
2025-11-21T00:00	27950	14	-57.1		260	59	
2025-11-21T00:00	28000	14	-56.2		260	58	
2025-11-21T00:00	28050	13	-55.9		259	57	
2025-11-21T00:00	28100	13	-56.1		259	57	
2025-11-21T00:00	28150	13	-55.9		260	57	
2025-11-21T00:00	28200	13	-55.8		260	57	
2025-11-21T00:00	28250	13	-55.9		260	57	
2025-11-21T00:00	28300	13	-55.8		261	56	
2025-11-21T00:00	28350	13	-55.6		261	54	
2025-11-21T00:00	28400	13	-55.5		261	53	
2025-11-21T00:00	28450	13	-55.6		260	53	
2025-11-21T00:00	28500	12	-55.8		259	53	
2025-11-21T00:00	28550	12	-56.0		257	53	
2025-11-21T00:00	28600	12	-55.8		256	53	
2025-11-21T00:00	28650	12	-55.4		255	54	
2025-11-21T00:00	28700	12	-55.3		255	55	
2025-11-21T00:00	28750	12	-55.2		255	56	
2025-11-21T00:00	28800	12	-55.2		255	57	
2025-11-21T00:00	28850	12	-55.1		255	58	
2025-11-21T00:00	28900	12	-54.6		256	58	
2025-11-21T00:00	28950	12	-54.2		256	58	
2025-11-21T00:00	29000	12	-54.3		256	57	
2025-11-21T00:00	29050	11	-54.4		257	57	
2025-11-21T00:00	29100	11	-54.4		257	58	
2025-11-21T00:00	29150	11	-54.4		257	59	
2025-11-21T00:00	29200	11	-54.0		257	59	
2025-11-21T00:00	29250	11	-53.6		257	60	
2025-11-21T00:00	29300	11	-54.0		258	59	
2025-11-21T00:00	29350	11	-54.3		259	60	
2025-11-21T00:00	29400	11	-54.3		259	60	
2025-11-21T00:00	29450	11	-54.1		259	60	
2025-11-21T00:00	29500	11	-53.3		259	60	
2025-11-21T00:00	29550	11	-53.4		258	60	
2025-11-21T00:00	29600	11	-53.7		258	60	
2025-11-21T00:00	29650	10	-54.1		258	60	
2025-11-21T00:00	29700	10	-54.2		258	60	
2025-11-21T00:00	29750	10	-54.5		258	60	
2025-11-21T00:00	29800	10	-54.8		259	60	
2025-11-21T00:00	29850	10	-54.6		259	61	
2025-11-21T00:00	29900	10	-54.6		260	62	
2025-11-21T00:00	29950	10	-54.8		261	63	
2025-11-21T00:00	30000	10	-55.0		262	63	
2025-11-21T00:00	30050	10	-55.1		264	64	
2025-11-21T00:00	30100	10	-55.2		265	65	
2025-11-21T00:00	30150	10	-55.2		265	65	
2025-11-21T00:00	30200	10	-55.5		265	65	
2025-11-21T00:00	30250	10	-55.5		265	65	
2025-11-21T00:00	30300	9	-54.9		264	65	
2025-11-21T00:00	30350	9	-54.7		263	65	
2025-11-21T00:00	30400	9	-54.9		262	64	
2025-11-21T00:00	30450	9	-55.0		261	65	
2025-11-21T00:00	30500	9	-54.8		260	65	
2025-11-21T00:00	30550	9	-54.4		259	65	
2025-11-21T00:00	30600	9	-53.6		259	65	
2025-11-21T00:00	30650	9	-53.5		259	66	
2025-11-21T00:00	30700	9	-53.7		260	66	
2025-11-21T00:00	30750	9	-53.9		260	67	
2025-11-21T00:00	30800	9	-53.8		260	67	
2025-11-21T00:00	30850	9	-53.6		260	68	
2025-11-21T00:00	30900	9	-53.3		260	69	
2025-11-21T00:00	30950	9	-52.8		260	70	
2025-11-21T00:00	31000	8	-52.3		261	72	
2025-11-21T00:00	31050	8	-51.9		262	73	
2025-11-21T00:00	31100	8	-51.3		263	74	
2025-11-21T00:00	31150	8	-50.5		263	74	
2025-11-21T00:00	31200	8	-49.8		263	74	
2025-11-21T00:00	31250	8	-48.9		262	74	
2025-11-21T00:00	31300	8	-48.3		262	74	
2025-11-21T00:00	31350	8	-48.0		262	74	
2025-11-21T00:00	31400	8	-48.0		263	74	
2025-11-21T00:00	31450	8	-48.2		264	74	
2025-11-21T00:00	31500	8	-48.0		265	74	
2025-11-21T00:00	31550	8	-48.0		264	75	
2025-11-21T00:00	31600	8	-47.8		264	75	
2025-11-21T00:00	31650	8	-47.6		264	75	
2025-11-21T00:00	31700	8	-47.5		264	76	
2025-11-21T00:00	31750	8	-47.3		264	76	
2025-11-21T00:00	31800	7	-47.5		265	77	
2025-11-21T00:00	31850	7	-47.6		265	77	
2025-11-21T00:00	31900	7	-47.3		265	78	
2025-11-21T00:00	31950	7	-47.2		265	79	
2025-11-21T00:00	32000	7	-47.2		265	79	
2025-11-21T00:00	32050	7	-47.3		265	80	
2025-11-21T00:00	32100	7	-47.2		266	81	
2025-11-21T00:00	32150	7	-47.0		266	81	
2025-11-21T00:00	32200	7	-46.5		266	82	
2025-11-21T00:00	32250	7	-46.3		266	82	
2025-11-21T00:00	32300	7	-46.2		266	82	
2025-11-21T00:00	32350	7	-46.0		265	83	
2025-11-21T00:00	32400	7	-46.0		265	84	
2025-11-21T00:00	32450	7	-46.0		265	85	
2025-11-21T00:00	32500	7	-46.2		265	87	
2025-11-21T00:00	32550	7	-46.0		265	87	
2025-11-21T00:00	32600	7	-45.9		265	88	
2025-11-21T00:00	32650	7	-46.1		264	88	
2025-11-21T00:00	32700	7	-46.3		264	88	
2025-11-21T00:00	32750	6	-46.4		264	88	
2025-11-21T00:00	32800	6	-45.9		264	88	
2025-11-21T00:00	32850	6	-45.6		264	88	
2025-11-21T00:00	32900	6	-45.2		265	88	
2025-11-21T00:00	32950	6	-44.5		266	88	
2025-11-21T00:00	33000	6	-44.0		266	87	
2025-11-21T00:00	33050	6	-43.1		266	87	
2025-11-21T00:00	33100	6	-42.4		265	88	
2025-11-21T00:00	33150	6	-42.1		265	88	
2025-11-21T12:00	491	958	0.9	-3.0	64	6	2.9
2025-11-21T12:00	501	957	0.2	-2.7	66	5	2.9
2025-11-21T12:00	520	955	-0.1	-2.9	67	5	2.9
2025-11-21T12:00	540	953	-0.2	-3.1	67	7	2.9
2025-11-21T12:00	560	950	-0.5	-3.5	67	7	2.9
2025-11-21T12:00	580	948	-0.7	-3.5	67	8	3.0
2025-11-21T12:00	600	945	-0.9	-3.5	67	8	3.0
2025-11-21T12:00	620	943	-1.1	-3.7	67	9	3.0
2025-11-21T12:00	640	941	-1.3	-3.8	67	9	3.0
2025-11-21T12:00	660	938	-1.4	-4.0	66	9	3.0
2025-11-21T12:00	680	936	-1.6	-3.9	65	8	3.0
2025-11-21T12:00	700	934	-1.8	-3.9	64	8	3.0
2025-11-21T12:00	720	931	-2.0	-3.9	61	7	3.0
2025-11-21T12:00	740	929	-2.2	-4.0	58	7	3.0
2025-11-21T12:00	760	927	-2.4	-4.0	56	7	3.0
2025-11-21T12:00	780	925	-2.6	-4.0	54	6	3.0
2025-11-21T12:00	800	922	-2.8	-4.2	53	6	3.0
2025-11-21T12:00	820	920	-2.9	-4.3	53	6	3.0
2025-11-21T12:00	840	917	-2.9	-5.2	53	7	3.0
2025-11-21T12:00	860	915	-3.0	-5.6	53	7	3.1
2025-11-21T12:00	880	913	-3.3	-5.3	52	8	3.1
2025-11-21T12:00	900	911	-3.5	-5.1	50	8	3.1
2025-11-21T12:00	920	908	-3.7	-5.1	48	9	3.1
2025-11-21T12:00	940	906	-3.9	-5.4	45	9	3.1
2025-11-21T12:00	960	904	-4.0	-5.5	43	9	3.1
2025-11-21T12:00	980	901	-4.0	-6.1	42	10	3.1
2025-11-21T12:00	1000	899	-4.2	-6.1	41	10	3.1
2025-11-21T12:00	1020	897	-4.3	-6.2	41	10	3.1
2025-11-21T12:00	1040	895	-4.5	-6.3	41	11	3.1
2025-11-21T12:00	1060	892	-4.6	-6.3	40	11	3.1
2025-11-21T12:00	1080	890	-4.8	-6.3	39	11	3.1
2025-11-21T12:00	1100	888	-4.9	-6.4	37	11	3.0
2025-11-21T12:00	1120	885	-5.1	-6.5	36	11	3.0
2025-11-21T12:00	1140	883	-5.2	-6.5	35	11	3.0
2025-11-21T12:00	1160	881	-5.4	-6.6	35	11	3.0
2025-11-21T12:00	1180	879	-5.5	-6.6	35	11	3.0
2025-11-21T12:00	1200	876	-5.7	-6.7	35	10	3.0
2025-11-21T12:00	1220	874	-5.8	-6.9	34	10	3.0
2025-11-21T12:00	1240	872	-6.0	-6.9	34	10	3.0
2025-11-21T12:00	1260	870	-6.2	-7.0	33	10	3.0
2025-11-21T12:00	1280	867	-6.4	-7.0	32	10	2.9
2025-11-21T12:00	1300	865	-6.5	-7.2	31	10	2.9
2025-11-21T12:00	1320	863	-6.6	-7.3	30	10	2.9
2025-11-21T12:00	1340	861	-6.8	-7.5	29	10	2.9
2025-11-21T12:00	1360	859	-6.9	-7.6	29	10	2.9
2025-11-21T12:00	1380	856	-7.1	-7.6	29	10	3.0
2025-11-21T12:00	1400	854	-7.2	-7.7	29	11	2.9
2025-11-21T12:00	1420	852	-7.4	-7.7	29	11	2.9
2025-11-21T12:00	1440	850	-7.6	-7.7	29	11	2.9
2025-11-21T12:00	1460	848	-7.7	-8.0	30	11	2.9
2025-11-21T12:00	1480	846	-7.9	-8.1	30	11	2.9
2025-11-21T12:00	1500	843	-8.1	-8.2	31	11	2.9
2025-11-21T12:00	1520	841	-8.2	-8.3	32	11	2.9
2025-11-21T12:00	1540	839	-8.3	-8.4	32	11	2.9
2025-11-21T12:00	1560	837	-8.5	-8.5	32	11	2.9
2025-11-21T12:00	1580	835	-8.6	-8.6	32	11	2.9
2025-11-21T12:00	1600	833	-8.8	-8.8	32	11	2.9
2025-11-21T12:00	1620	830	-8.9	-9.0	32	11	2.9
2025-11-21T12:00	1640	828	-9.0	-9.1	32	12	2.9
2025-11-21T12:00	1660	826	-9.1	-9.1	33	11	2.9
2025-11-21T12:00	1680	824	-9.3	-9.3	33	11	2.9
2025-11-21T12:00	1700	822	-9.4	-9.4	34	12	2.9
2025-11-21T12:00	1720	820	-9.5	-9.6	35	12	2.9
2025-11-21T12:00	1740	818	-9.7	-9.9	36	12	2.9
2025-11-21T12:00	1760	815	-9.9	-10.1	37	12	2.9
2025-11-21T12:00	1780	813	-10.0	-10.3	38	12	2.9
2025-11-21T12:00	1800	811	-10.1	-10.4	38	12	2.9
2025-11-21T12:00	1820	809	-10.3	-10.6	38	12	2.9
2025-11-21T12:00	1840	807	-10.4	-10.7	38	12	2.9
2025-11-21T12:00	1860	805	-10.6	-10.9	38	12	2.9
2025-11-21T12:00	1880	803	-10.7	-11.2	38	12	2.9
2025-11-21T12:00	1900	801	-10.8	-11.3	38	12	2.9
2025-11-21T12:00	1920	799	-11.0	-11.3	39	12	2.9
2025-11-21T12:00	1940	797	-11.1	-11.3	39	13	2.9
2025-11-21T12:00	1960	795	-11.3	-11.5	40	13	2.9
2025-11-21T12:00	1980	792	-11.4	-11.7	40	13	2.9
2025-11-21T12:00	2000	791	-11.6	-11.9	41	13	2.9
2025-11-21T12:00	2020	788	-11.7	-12.0	41	13	2.9
2025-11-21T12:00	2040	786	-11.9	-12.0	42	13	2.8
2025-11-21T12:00	2060	784	-12.0	-12.2	42	13	2.8
2025-11-21T12:00	2080	782	-12.1	-12.4	42	12	2.8
2025-11-21T12:00	2100	780	-12.2	-12.5	42	12	2.8
2025-11-21T12:00	2120	778	-12.4	-12.5	42	12	2.8
2025-11-21T12:00	2140	776	-12.5	-12.7	42	12	2.8
2025-11-21T12:00	2160	774	-12.7	-12.9	42	12	2.8
2025-11-21T12:00	2180	772	-12.8	-13.0	43	12	2.8
2025-11-21T12:00	2200	770	-13.0	-13.2	43	12	2.8
2025-11-21T12:00	2220	768	-13.1	-13.4	43	13	2.8
2025-11-21T12:00	2240	766	-13.2	-13.5	43	13	2.8
2025-11-21T12:00	2260	764	-13.4	-13.7	43	13	2.8
2025-11-21T12:00	2280	762	-13.6	-13.9	43	13	2.7
2025-11-21T12:00	2300	760	-13.7	-14.3	43	13	2.7
2025-11-21T12:00	2320	758	-13.8	-14.6	43	12	2.7
2025-11-21T12:00	2340	756	-13.9	-14.9	44	12	2.7
2025-11-21T12:00	2360	754	-14.1	-15.1	45	12	2.7
2025-11-21T12:00	2380	752	-14.2	-15.3	46	12	2.7
2025-11-21T12:00	2400	750	-14.3	-15.5	47	12	2.7
2025-11-21T12:00	2420	748	-14.5	-15.6	48	12	2.7
2025-11-21T12:00	2440	746	-14.5	-15.7	50	13	2.7
2025-11-21T12:00	2460	744	-14.2	-15.5	51	13	2.7
2025-11-21T12:00	2480	742	-14.4	-15.8	52	12	2.7
2025-11-21T12:00	2500	740	-14.4	-16.0	54	12	2.7
2025-11-21T12:00	2520	738	-14.5	-16.1	55	12	2.7
2025-11-21T12:00	2540	736	-14.7	-16.1	56	12	2.7
2025-11-21T12:00	2560	734	-14.8	-16.3	58	12	2.7
2025-11-21T12:00	2580	732	-15.0	-16.4	58	12	2.7
2025-11-21T12:00	2600	730	-15.2	-16.7	59	12	2.6
2025-11-21T12:00	2620	729	-15.3	-16.8	60	12	2.6
2025-11-21T12:00	2640	727	-15.5	-16.9	59	12	2.6
2025-11-21T12:00	2660	725	-15.6	-17.2	59	12	2.6
2025-11-21T12:00	2680	723	-15.8	-17.3	58	12	2.6
2025-11-21T12:00	2700	721	-15.9	-17.3	57	12	2.6
2025-11-21T12:00	2720	719	-16.0	-17.4	55	11	2.6
2025-11-21T12:00	2740	717	-16.1	-17.7	54	11	2.6
2025-11-21T12:00	2760	715	-16.2	-17.8	52	11	2.6
2025-11-21T12:00	2780	713	-16.5	-17.9	51	11	2.6
2025-11-21T12:00	2800	711	-16.6	-18.1	50	12	2.6
2025-11-21T12:00	2820	710	-16.7	-18.3	49	12	2.5
2025-11-21T12:00	2840	708	-16.9	-18.6	49	12	2.5
2025-11-21T12:00	2860	706	-17.0	-18.7	48	12	2.5
2025-11-21T12:00	2880	704	-17.2	-18.7	48	12	2.5
2025-11-21T12:00	2900	702	-17.3	-18.9	48	12	2.6
2025-11-21T12:00	2920	700	-17.5	-19.1	48	12	2.6
2025-11-21T12:00	2940	698	-17.6	-19.2	48	13	2.6
2025-11-21T12:00	2960	696	-17.8	-19.4	48	13	2.7
2025-11-21T12:00	2980	694	-17.9	-19.6	48	13	2.7
2025-11-21T12:00	3000	692	-18.1	-19.7	49	14	2.7
2025-11-21T12:00	3020	691	-18.1	-19.8	49	14	2.7
2025-11-21T12:00	3040	689	-18.3	-19.7	49	14	2.7
2025-11-21T12:00	3060	687	-18.3	-20.0	49	14	2.7
2025-11-21T12:00	3080	685	-18.4	-20.1	49	14	2.7
2025-11-21T12:00	3100	684	-18.6	-20.1	48	14	2.7
2025-11-21T12:00	3120	682	-18.8	-20.3	47	14	2.7
2025-11-21T12:00	3140	680	-18.9	-20.6	47	14	2.7
2025-11-21T12:00	3160	678	-19.1	-20.9	46	15	2.7
2025-11-21T12:00	3180	676	-19.2	-21.0	45	15	2.7
2025-11-21T12:00	3200	674	-19.4	-21.1	44	15	2.7
2025-11-21T12:00	3220	672	-19.5	-21.4	44	15	2.7
2025-11-21T12:00	3240	671	-19.7	-21.6	45	15	2.7
2025-11-21T12:00	3260	669	-19.8	-21.8	45	15	2.7
2025-11-21T12:00	3280	667	-20.0	-21.9	46	15	2.7
2025-11-21T12:00	3300	665	-20.1	-22.1	46	15	2.7
2025-11-21T12:00	3320	664	-20.3	-22.3	47	15	2.7
2025-11-21T12:00	3340	662	-20.5	-22.4	47	15	2.7
2025-11-21T12:00	3360	660	-20.7	-22.5	47	15	2.7
2025-11-21T12:00	3380	658	-20.7	-22.7	48	15	2.7
2025-11-21T12:00	3400	656	-20.9	-22.7	48	15	2.7
2025-11-21T12:00	3420	654	-21.1	-22.8	48	15	2.7
2025-11-21T12:00	3440	653	-21.2	-23.0	48	15	2.6
2025-11-21T12:00	3460	651	-21.4	-23.1	48	14	2.6
2025-11-21T12:00	3480	649	-21.6	-23.2	48	14	2.6
2025-11-21T12:00	3500	648	-21.8	-23.5	48	14	2.6
2025-11-21T12:00	3520	646	-21.9	-23.9	48	14	2.6
2025-11-21T12:00	3540	644	-22.1	-24.2	48	14	2.6
2025-11-21T12:00	3560	642	-22.2	-24.3	49	14	2.6
2025-11-21T12:00	3580	641	-22.3	-24.4	50	14	2.6
2025-11-21T12:00	3600	639	-22.5	-24.5	50	14	2.6
2025-11-21T12:00	3620	637	-22.6	-24.7	51	14	2.6
2025-11-21T12:00	3640	635	-22.8	-24.8	52	14	2.6
2025-11-21T12:00	3660	634	-23.0	-25.0	52	14	2.6
2025-11-21T12:00	3680	632	-23.2	-25.3	52	14	2.6
2025-11-21T12:00	3700	630	-23.3	-25.5	52	14	2.6
2025-11-21T12:00	3720	628	-23.5	-25.7	52	14	2.6
2025-11-21T12:00	3740	627	-23.6	-25.8	51	14	2.6
2025-11-21T12:00	3760	625	-23.8	-25.8	51	14	2.6
2025-11-21T12:00	3780	623	-23.9	-25.9	51	14	2.6
2025-11-21T12:00	3800	622	-24.0	-26.1	51	14	2.6
2025-11-21T12:00	3820	620	-24.2	-26.3	52	14	2.6
2025-11-21T12:00	3840	618	-24.4	-26.5	52	14	2.5
2025-11-21T12:00	3860	616	-24.5	-26.8	53	14	2.5
2025-11-21T12:00	3880	615	-24.7	-26.9	53	14	2.5
2025-11-21T12:00	3900	613	-24.9	-27.0	54	14	2.5
2025-11-21T12:00	3920	612	-25.0	-27.3	54	14	2.5
2025-11-21T12:00	3940	610	-25.2	-27.5	54	14	2.5
2025-11-21T12:00	3960	608	-25.3	-27.8	53	14	2.5
2025-11-21T12:00	3980	606	-25.5	-27.8	52	14	2.5
2025-11-21T12:00	4000	605	-25.7	-28.0	51	14	2.5
2025-11-21T12:00	4020	603	-25.9	-28.3	50	14	2.5
2025-11-21T12:00	4040	601	-26.1	-28.8	49	13	2.5
2025-11-21T12:00	4060	600	-26.2	-29.1	49	13	2.5
2025-11-21T12:00	4080	598	-26.4	-29.1	49	13	2.5
2025-11-21T12:00	4100	596	-26.5	-29.1	49	13	2.4
2025-11-21T12:00	4120	595	-26.6	-29.5	50	13	2.4
2025-11-21T12:00	4140	593	-26.7	-29.6	50	13	2.4
2025-11-21T12:00	4160	591	-26.9	-29.6	49	14	2.4
2025-11-21T12:00	4180	590	-27.1	-29.9	48	14	2.4
2025-11-21T12:00	4200	588	-27.2	-30.1	47	14	2.4
2025-11-21T12:00	4220	587	-27.4	-30.2	46	13	2.4
2025-11-21T12:00	4240	585	-27.5	-30.4	46	13	2.4
2025-11-21T12:00	4260	583	-27.6	-30.6	46	13	2.4
2025-11-21T12:00	4280	582	-27.9	-30.5	47	12	2.5
2025-11-21T12:00	4300	580	-28.0	-30.8	48	12	2.4
2025-11-21T12:00	4320	578	-28.1	-31.2	49	12	2.4
2025-11-21T12:00	4340	577	-28.2	-31.4	50	12	2.4
2025-11-21T12:00	4360	575	-28.3	-31.3	51	12	2.4
2025-11-21T12:00	4380	574	-28.5	-31.4	51	13	2.4
2025-11-21T12:00	4400	572	-28.6	-31.7	51	13	2.4
2025-11-21T12:00	4420	570	-28.8	-31.8	51	13	2.4
2025-11-21T12:00	4440	569	-28.9	-32.0	52	13	2.3
2025-11-21T12:00	4460	567	-29.1	-32.3	53	13	2.3
2025-11-21T12:00	4480	566	-29.3	-32.4	55	14	2.3
2025-11-21T12:00	4500	564	-29.3	-32.6	55	14	2.2
2025-11-21T12:00	4520	563	-29.5	-32.8	56	14	2.2
2025-11-21T12:00	4540	561	-29.6	-32.9	57	13	2.2
2025-11-21T12:00	4560	559	-29.8	-32.9	58	13	2.2
2025-11-21T12:00	4580	558	-30.1	-32.9	59	13	2.2
2025-11-21T12:00	4600	556	-30.2	-33.2	60	13	2.2
2025-11-21T12:00	4620	555	-30.2	-33.7	61	14	2.2
2025-11-21T12:00	4640	553	-30.3	-33.8	62	14	2.2
2025-11-21T12:00	4660	551	-30.6	-33.7	63	14	2.2
2025-11-21T12:00	4680	550	-30.7	-33.8	63	14	2.2
2025-11-21T12:00	4700	548	-30.7	-34.0	64	14	2.2
2025-11-21T12:00	4720	547	-30.8	-34.3	64	14	2.3
2025-11-21T12:00	4740	545	-30.9	-34.3	64	14	2.3
2025-11-21T12:00	4760	544	-31.1	-34.4	65	14	2.3
2025-11-21T12:00	4780	542	-31.3	-34.6	65	14	2.3
2025-11-21T12:00	4800	541	-31.4	-34.9	66	14	2.2
2025-11-21T12:00	4820	539	-31.5	-35.0	67	13	2.2
2025-11-21T12:00	4840	538	-31.6	-34.9	67	13	2.2
2025-11-21T12:00	4860	536	-31.8	-34.9	67	13	2.2
2025-11-21T12:00	4880	535	-31.8	-35.0	67	13	2.2
2025-11-21T12:00	4900	533	-31.9	-35.3	66	13	2.1
2025-11-21T12:00	4920	531	-32.0	-35.5	65	12	2.1
2025-11-21T12:00	4940	530	-32.0	-35.8	65	12	2.1
2025-11-21T12:00	4960	529	-32.1	-35.5	64	12	2.1
2025-11-21T12:00	4980	527	-32.2	-35.7	64	12	2.1
2025-11-21T12:00	5000	526	-32.3	-35.8	65	11	2.1
2025-11-21T12:00	5020	524	-32.4	-36.0	65	11	2.1
2025-11-21T12:00	5040	523	-32.5	-36.1	66	10	2.2
2025-11-21T12:00	5060	521	-32.6	-36.3	67	9	2.2
2025-11-21T12:00	5080	520	-32.8	-36.2	67	8	2.2
2025-11-21T12:00	5100	518	-32.9	-36.2	68	8	2.2
2025-11-21T12:00	5120	517	-33.1	-36.4	68	8	2.2
2025-11-21T12:00	5140	515	-33.3	-36.6	69	7	2.2
2025-11-21T12:00	5160	514	-33.3	-36.9	70	7	2.2
2025-11-21T12:00	5180	512	-33.5	-37.2	71	7	2.2
2025-11-21T12:00	5200	511	-33.7	-37.2	72	7	2.2
2025-11-21T12:00	5220	510	-33.8	-37.1	73	7	2.2
2025-11-21T12:00	5240	508	-34.0	-37.4	75	7	2.3
2025-11-21T12:00	5260	506	-34.2	-37.4	76	7	2.3
2025-11-21T12:00	5280	505	-34.4	-37.3	78	7	2.3
2025-11-21T12:00	5300	504	-34.5	-37.5	79	6	2.3
2025-11-21T12:00	5320	502	-34.6	-37.7	80	6	2.3
2025-11-21T12:00	5340	501	-34.8	-37.6	81	6	2.3
2025-11-21T12:00	5360	499	-35.0	-37.9	82	6	2.3
2025-11-21T12:00	5380	498	-35.2	-38.1	83	6	2.3
2025-11-21T12:00	5400	496	-35.3	-38.7	84	5	2.3
2025-11-21T12:00	5420	495	-35.4	-39.1	86	5	2.3
2025-11-21T12:00	5440	494	-35.7	-39.1	88	5	2.3
2025-11-21T12:00	5460	492	-35.9	-39.2	90	5	2.4
2025-11-21T12:00	5480	491	-36.0	-40.3	93	5	2.3
2025-11-21T12:00	5500	489	-36.1	-40.5	95	5	2.3
2025-11-21T12:00	5520	488	-36.3	-40.5	98	5	2.3
2025-11-21T12:00	5540	487	-36.5	-40.2	102	5	2.3
2025-11-21T12:00	5560	485	-36.7	-40.5	106	5	2.3
2025-11-21T12:00	5580	484	-36.9	-40.6	110	5	2.3
2025-11-21T12:00	5600	482	-37.0	-40.9	113	5	2.3
2025-11-21T12:00	5620	481	-37.2	-40.9	116	5	2.3
2025-11-21T12:00	5640	480	-37.4	-40.7	117	5	2.3
2025-11-21T12:00	5660	478	-37.7	-40.9	118	5	2.3
2025-11-21T12:00	5680	477	-37.8	-41.4	119	5	2.3
2025-11-21T12:00	5700	475	-38.0	-41.6	119	5	2.3
2025-11-21T12:00	5720	474	-38.1	-41.8	120	5	2.3
2025-11-21T12:00	5740	473	-38.3	-41.7	122	5	2.4
2025-11-21T12:00	5760	471	-38.5	-41.6	125	6	2.4
2025-11-21T12:00	5780	470	-38.6	-42.2	128	6	2.3
2025-11-21T12:00	5800	469	-38.7	-42.2	130	7	2.3
2025-11-21T12:00	5820	467	-38.9	-41.9	132	7	2.3
2025-11-21T12:00	5840	466	-39.2	-41.7	134	7	2.3
2025-11-21T12:00	5860	465	-39.2	-42.2	136	8	2.3
2025-11-21T12:00	5880	463	-39.2	-42.7	137	8	2.3
2025-11-21T12:00	5900	462	-39.4	-42.6	138	9	2.2
2025-11-21T12:00	5920	461	-39.5	-42.4	139	9	2.2
2025-11-21T12:00	5940	459	-39.8	-42.4	139	9	2.2
2025-11-21T12:00	5960	458	-40.0	-42.6	140	10	2.2
2025-11-21T12:00	5980	456	-40.0	-42.9	140	10	2.2
2025-11-21T12:00	6000	455	-40.1	-43.3	141	11	2.2
2025-11-21T12:00	6020	454	-40.2	-43.0	141	11	2.1
2025-11-21T12:00	6040	452	-40.5	-42.8	141	12	2.2
2025-11-21T12:00	6060	451	-40.7	-42.7	141	12	2.1
2025-11-21T12:00	6080	450	-40.7	-43.1	140	13	2.1
2025-11-21T12:00	6100	449	-40.8	-43.7	140	13	2.1
2025-11-21T12:00	6120	447	-40.8	-43.8	140	14	2.1
2025-11-21T12:00	6140	446	-41.1	-43.5	140	14	2.1
2025-11-21T12:00	6160	445	-41.3	-43.3	140	15	2.1
2025-11-21T12:00	6180	443	-41.4	-43.6	140	15	2.0
2025-11-21T12:00	6200	442	-41.5	-44.1	139	15	2.0
2025-11-21T12:00	6220	441	-41.6	-44.1	139	15	2.0
2025-11-21T12:00	6240	439	-41.8	-43.9	138	15	2.0
2025-11-21T12:00	6260	438	-42.0	-43.9	138	15	2.0
2025-11-21T12:00	6280	437	-42.2	-43.9	138	15	2.0
2025-11-21T12:00	6300	435	-42.4	-44.1	137	15	2.0
2025-11-21T12:00	6320	434	-42.6	-44.6	137	16	1.9
2025-11-21T12:00	6340	433	-42.7	-45.1	137	16	1.9
2025-11-21T12:00	6360	432	-43.0	-45.0	136	16	1.9
2025-11-21T12:00	6380	430	-43.2	-45.0	136	16	1.9
2025-11-21T12:00	6400	429	-43.3	-45.5	135	17	1.9
2025-11-21T12:00	6420	428	-43.4	-45.8	134	17	1.9
2025-11-21T12:00	6440	427	-43.5	-45.6	132	16	1.9
2025-11-21T12:00	6460	425	-43.8	-45.2	131	16	1.9
2025-11-21T12:00	6480	424	-43.9	-45.8	131	16	1.9
2025-11-21T12:00	6500	423	-44.0	-46.1	130	15	1.8
2025-11-21T12:00	6520	421	-44.2	-45.8	130	15	1.8
2025-11-21T12:00	6540	420	-44.4	-46.4	129	16	1.8
2025-11-21T12:00	6560	419	-44.5	-46.5	129	16	1.8
2025-11-21T12:00	6580	418	-44.7	-46.6	128	17	1.8
2025-11-21T12:00	6600	416	-44.8	-47.0	127	17	1.7
2025-11-21T12:00	6620	415	-45.0	-46.9	127	18	1.7
2025-11-21T12:00	6640	414	-45.3	-46.8	126	18	1.7
2025-11-21T12:00	6660	413	-45.4	-47.2	126	18	1.7
2025-11-21T12:00	6680	411	-45.5	-47.6	127	17	1.7
2025-11-21T12:00	6700	410	-45.7	-47.4	128	17	1.6
2025-11-21T12:00	6720	409	-45.9	-47.3	130	17	1.6
2025-11-21T12:00	6740	408	-46.1	-47.7	131	17	1.6
2025-11-21T12:00	6760	406	-46.1	-48.0	133	16	1.6
2025-11-21T12:00	6780	405	-46.2	-48.2	134	16	1.6
2025-11-21T12:00	6800	404	-46.2	-48.4	135	16	1.5
2025-11-21T12:00	6820	403	-46.4	-48.7	136	16	1.5
2025-11-21T12:00	6840	402	-46.6	-48.8	136	16	1.6
2025-11-21T12:00	6860	400	-46.7	-48.7	136	16	1.6
2025-11-21T12:00	6880	399	-46.9	-48.8	136	16	1.6
2025-11-21T12:00	6900	398	-47.2	-49.1	136	16	1.6
2025-11-21T12:00	6920	397	-47.3	-49.9	136	16	1.7
2025-11-21T12:00	6940	396	-47.5	-50.7	136	15	1.7
2025-11-21T12:00	6960	394	-47.7	-51.3	136	15	1.7
2025-11-21T12:00	6980	393	-47.8	-52.3	136	14	1.7
2025-11-21T12:00	7000	392	-48.0	-53.2	135	14	1.7
2025-11-21T12:00	7020	391	-48.2	-53.5	135	14	1.8
2025-11-21T12:00	7040	390	-48.3	-53.5	135	13	1.8
2025-11-21T12:00	7060	388	-48.5	-53.5	135	13	1.9
2025-11-21T12:00	7080	387	-48.7	-53.6	136	12	1.9
2025-11-21T12:00	7100	386	-48.8	-54.5	136	12	1.9
2025-11-21T12:00	7120	385	-48.9	-56.7	137	11	1.9
2025-11-21T12:00	7140	384	-49.0	-59.7	138	11	1.9
2025-11-21T12:00	7160	383	-49.0	-62.0	139	11	1.9
2025-11-21T12:00	7180	381	-48.9	-62.6	139	10	2.0
2025-11-21T12:00	7200	380	-48.8	-62.0	137	10	2.0
2025-11-21T12:00	7220	379	-48.9	-61.5	136	10	2.1
2025-11-21T12:00	7240	378	-48.9	-61.4	136	10	2.1
2025-11-21T12:00	7260	377	-48.9	-61.6	137	10	2.1
2025-11-21T12:00	7280	376	-48.9	-61.7	140	11	2.2
2025-11-21T12:00	7300	375	-48.8	-61.8	143	11	2.2
2025-11-21T12:00	7320	373	-48.8	-62.3	146	11	2.3
2025-11-21T12:00	7340	372	-48.8	-62.6	149	11	2.3
2025-11-21T12:00	7360	371	-48.8	-62.8	150	11	2.3
2025-11-21T12:00	7380	370	-48.8	-62.7	152	10	2.3
2025-11-21T12:00	7400	369	-48.8	-62.8	154	9	2.3
2025-11-21T12:00	7420	368	-49.0	-63.1	155	9	2.4
2025-11-21T12:00	7440	367	-49.1	-63.2	158	8	2.4
2025-11-21T12:00	7460	366	-49.1	-63.4	160	7	2.4
2025-11-21T12:00	7480	364	-49.0	-63.4	162	6	2.4
2025-11-21T12:00	7500	363	-49.1	-63.4	163	6	2.5
2025-11-21T12:00	7520	362	-49.2	-63.5	165	5	2.5
2025-11-21T12:00	7540	361	-49.2	-63.7	167	5	2.6
2025-11-21T12:00	7560	360	-49.2	-63.9	168	5	2.6
2025-11-21T12:00	7580	359	-49.4	-64.1	170	4	2.7
2025-11-21T12:00	7600	358	-49.5	-63.9	170	4	2.8
2025-11-21T12:00	7620	357	-49.7	-63.8	170	4	2.9
2025-11-21T12:00	7640	356	-49.7	-63.8	169	4	2.9
2025-11-21T12:00	7660	354	-49.9	-64.0	168	4	3.0
2025-11-21T12:00	7680	353	-50.1	-64.2	168	3	3.0
2025-11-21T12:00	7700	352	-50.3	-64.1	168	3	3.0
2025-11-21T12:00	7720	351	-50.4	-64.1	169	3	3.1
2025-11-21T12:00	7740	350	-50.6	-64.5	169	3	3.1
2025-11-21T12:00	7760	349	-50.8	-64.5	169	3	3.2
2025-11-21T12:00	7780	348	-50.9	-64.4	169	3	3.2
2025-11-21T12:00	7800	347	-51.1	-64.5	169	3	3.2
2025-11-21T12:00	7820	346	-51.1	-64.8	169	3	3.2
2025-11-21T12:00	7840	345	-51.0	-65.2	169	3	3.2
2025-11-21T12:00	7860	344	-50.6	-65.8	170	3	3.3
2025-11-21T12:00	7880	343	-50.6	-65.9	172	3	3.5
2025-11-21T12:00	7900	342	-50.6	-65.6	174	3	3.6
2025-11-21T12:00	7920	341	-50.6	-65.6	176	2	3.6
2025-11-21T12:00	7940	340	-50.6	-65.6	180	2	3.7
2025-11-21T12:00	7960	339	-50.7	-65.7	183	2	3.8
2025-11-21T12:00	7980	338	-50.7	-66.0	185	2	3.9
2025-11-21T12:00	8000	336	-50.8	-66.1	186	2	3.9
2025-11-21T12:00	8020	336	-50.8	-66.0	185	2	3.9
2025-11-21T12:00	8040	335	-50.8	-65.7	182	2	4.0
2025-11-21T12:00	8060	333	-50.7	-65.3	177	2	4.1
2025-11-21T12:00	8080	332	-50.7	-65.2	166	2	4.1
2025-11-21T12:00	8100	331	-50.7	-65.1	151	1	4.1
2025-11-21T12:00	8120	330	-50.8	-65.3	135	1	4.1
2025-11-21T12:00	8140	329	-50.7	-65.8	119	1	4.1
2025-11-21T12:00	8160	328	-50.7	-66.3	107	1	4.1
2025-11-21T12:00	8180	327	-50.9	-66.4	98	1	4.2
2025-11-21T12:00	8200	326	-51.0	-66.3	92	1	4.2
2025-11-21T12:00	8220	325	-51.1	-66.5	88	1	4.3
2025-11-21T12:00	8240	324	-51.2	-66.6	83	1	4.3
2025-11-21T12:00	8260	323	-51.3	-66.8	76	1	4.4
2025-11-21T12:00	8280	322	-51.4	-67.0	65	1	4.4
2025-11-21T12:00	8300	321	-51.4	-67.1	53	1	4.4
2025-11-21T12:00	8320	320	-51.6	-67.4	45	1	4.4
2025-11-21T12:00	8340	319	-51.9	-67.3	41	1	4.4
2025-11-21T12:00	8360	318	-52.0	-67.0	39	2	4.4
2025-11-21T12:00	8380	317	-52.1	-67.2	36	3	4.5
2025-11-21T12:00	8400	316	-52.3	-67.4	33	3	4.5
2025-11-21T12:00	8420	315	-52.4	-67.4	31	3	4.5
2025-11-21T12:00	8440	314	-52.5	-67.4	30	4	4.5
2025-11-21T12:00	8460	313	-52.6	-67.5	29	4	4.5
2025-11-21T12:00	8480	312	-52.7	-67.7	28	4	4.5
2025-11-21T12:00	8500	311	-52.5	-67.6	28	4	4.6
2025-11-21T12:00	8520	310	-52.4	-67.5	29	4	4.6
2025-11-21T12:00	8540	310	-52.4	-67.6	30	4	4.6
2025-11-21T12:00	8560	309	-52.3	-67.8	31	3	4.7
2025-11-21T12:00	8580	308	-52.2	-68.1	34	3	4.7
2025-11-21T12:00	8600	307	-52.0	-68.3	36	3	4.7
2025-11-21T12:00	8620	306	-52.0	-68.5	40	2	4.7
2025-11-21T12:00	8640	305	-52.1	-68.9	49	2	4.8
2025-11-21T12:00	8660	304	-52.2	-68.9	63	1	4.8
2025-11-21T12:00	8680	303	-52.2	-68.9	78	1	4.9
2025-11-21T12:00	8700	302	-52.2	-69.0	94	1	4.9
2025-11-21T12:00	8720	301	-52.2	-69.3	108	1	5.0
2025-11-21T12:00	8740	300	-52.3	-69.7	124	1	5.0
2025-11-21T12:00	8760	299	-52.4	-70.0	145	1	5.0
2025-11-21T12:00	8780	298	-52.6	-70.1	177	1	5.1
2025-11-21T12:00	8800	297	-52.7	-70.2	211	1	5.1
2025-11-21T12:00	8820	296	-52.8	-70.2	230	1	5.2
2025-11-21T12:00	8840	296	-52.9	-70.6	239	1	5.3
2025-11-21T12:00	8860	295	-52.9	-71.0	244	2	5.3
2025-11-21T12:00	8880	294	-52.8	-71.2	248	2	5.3
2025-11-21T12:00	8900	293	-52.8	-71.4	257	2	5.4
2025-11-21T12:00	8920	292	-52.9	-71.5	271	1	5.5
2025-11-21T12:00	8940	291	-52.8	-71.5	296	2	5.5
2025-11-21T12:00	8960	290	-52.4	-71.6	320	2	5.5
2025-11-21T12:00	8980	289	-52.5	-71.9	332	3	5.6
2025-11-21T12:00	9000	288	-52.4	-71.8	338	3	5.6
2025-11-21T12:00	9020	287	-52.5	-71.5	341	3	5.7
2025-11-21T12:00	9040	287	-52.5	-71.7	343	4	5.7
2025-11-21T12:00	9060	286	-52.1	-71.9	344	3	5.7
2025-11-21T12:00	9080	285	-52.0	-72.0	343	3	5.7
2025-11-21T12:00	9100	284	-52.1	-72.1	343	3	5.7
2025-11-21T12:00	9120	283	-52.2	-72.2	345	3	5.7
2025-11-21T12:00	9140	282	-51.9	-72.6	348	2	5.7
2025-11-21T12:00	9160	281	-51.5	-72.8	354	2	5.7
2025-11-21T12:00	9180	280	-51.6	-72.9	1	2	5.8
2025-11-21T12:00	9200	280	-51.7	-72.9	7	2	5.8
2025-11-21T12:00	9220	279	-51.7	-73.0	14	2	5.8
2025-11-21T12:00	9240	278	-51.5	-73.1	21	2	5.7
2025-11-21T12:00	9260	277	-51.5	-73.3	27	1	5.7
2025-11-21T12:00	9280	276	-51.6	-73.5	30	1	5.7
2025-11-21T12:00	9300	275	-51.6	-73.7	31	1	5.7
2025-11-21T12:00	9320	274	-51.3	-74.0	31	1	5.7
2025-11-21T12:00	9340	274	-51.0	-74.2	27	1	5.7
2025-11-21T12:00	9360	273	-51.0	-74.3	24	1	5.8
2025-11-21T12:00	9380	272	-51.2	-74.6	18	1	5.8
2025-11-21T12:00	9400	271	-51.1	-74.8	14	2	5.9
2025-11-21T12:00	9420	270	-51.1	-74.8	8	2	5.9
2025-11-21T12:00	9440	269	-51.2	-74.9	359	2	6.0
2025-11-21T12:00	9460	269	-51.2	-75.0	348	2	6.1
2025-11-21T12:00	9480	268	-51.1	-75.1	337	3	6.1
2025-11-21T12:00	9500	267	-50.9	-75.2	331	3	6.2
2025-11-21T12:00	9520	266	-50.9	-75.2	329	3	6.2
2025-11-21T12:00	9540	265	-51.1	-75.3	331	3	6.2
2025-11-21T12:00	9560	264	-51.2	-75.3	335	4	6.1
2025-11-21T12:00	9580	264	-50.9	-75.4	341	4	6.1
2025-11-21T12:00	9600	263	-50.2	-75.8	347	5	6.2
2025-11-21T12:00	9620	262	-50.2	-76.1	351	6	6.2
2025-11-21T12:00	9640	261	-50.1	-76.2	353	6	6.3
2025-11-21T12:00	9660	260	-50.1	-76.3	354	7	6.3
2025-11-21T12:00	9680	260	-50.1	-76.3	355	7	6.3
2025-11-21T12:00	9700	259	-50.2	-76.5	357	8	6.4
2025-11-21T12:00	9720	258	-50.3	-76.6	358	8	6.4
2025-11-21T12:00	9740	257	-50.4	-76.6	0	7	6.5
2025-11-21T12:00	9760	257	-50.3	-76.7	1	7	6.6
2025-11-21T12:00	9780	256	-50.3	-76.8	2	7	6.6
2025-11-21T12:00	9800	255	-50.2	-76.9	2	6	6.6
2025-11-21T12:00	9820	254	-50.1	-76.9	1	6	6.7
2025-11-21T12:00	9840	253	-50.0	-77.0	359	6	6.6
2025-11-21T12:00	9860	253	-50.1	-77.1	356	5	6.7
2025-11-21T12:00	9880	252	-50.1	-77.1	350	5	6.8
2025-11-21T12:00	9900	251	-50.1	-77.1	343	4	6.8
2025-11-21T12:00	9920	250	-50.2	-77.0	333	4	6.8
2025-11-21T12:00	9940	250	-50.2	-77.1	326	4	6.8
2025-11-21T12:00	9960	249	-50.2	-77.1	321	4	6.8
2025-11-21T12:00	9980	248	-50.1	-77.0	317	4	6.7
2025-11-21T12:00	10000	247	-50.1	-76.8	318	3	6.7
2025-11-21T12:00	10018	247	-50.4	-76.8	321	3	6.6
2025-11-21T12:00	10050	245	-50.4	-77.1	329	2	6.5
2025-11-21T12:00	10100	244	-49.6	-77.3	351	2	6.5
2025-11-21T12:00	10150	242	-49.8	-77.4	349	1	6.5
2025-11-21T12:00	10200	240	-50.0	-77.4	281	1	6.5
2025-11-21T12:00	10250	238	-50.2	-77.6	248	2	6.5
2025-11-21T12:00	10300	236	-50.3	-77.9	244	2	6.5
2025-11-21T12:00	10350	234	-50.7	-78.0	249	2	6.6
2025-11-21T12:00	10400	233	-50.8	-78.2	257	2	6.6
2025-11-21T12:00	10450	231	-51.1	-78.2	271	1	6.7
2025-11-21T12:00	10500	229	-51.2	-78.4	321	1	6.8
2025-11-21T12:00	10550	227	-51.1	-78.4	23	1	6.7
2025-11-21T12:00	10600	225	-51.0	-78.3	4	1	6.6
2025-11-21T12:00	10650	224	-51.1	-78.4	340	2	6.6
2025-11-21T12:00	10700	222	-51.3	-78.6	330	3	6.4
2025-11-21T12:00	10750	220	-51.5	-78.2	325	2	6.4
2025-11-21T12:00	10800	219	-51.6	-78.6	324	2	6.3
2025-11-21T12:00	10850	217	-51.7	-78.7	323	3	6.3
2025-11-21T12:00	10900	215	-51.8	-78.9	318	3	6.2
2025-11-21T12:00	10950	214	-51.8	-78.9	304	2	6.2
2025-11-21T12:00	11000	212	-51.6	-79.2	280	2	6.2
2025-11-21T12:00	11050	210	-51.8	-79.3	254	2	6.3
2025-11-21T12:00	11100	209	-52.2	-79.4	249	2	6.4
2025-11-21T12:00	11150	207	-52.3	-79.6	255	3	6.4
2025-11-21T12:00	11200	206	-52.3	-79.6	259	3	6.4
2025-11-21T12:00	11250	204	-52.4	-79.4	264	4	6.4
2025-11-21T12:00	11300	202	-52.6	-79.8	270	4	6.3
2025-11-21T12:00	11350	201	-52.6	-79.7	281	5	6.2
2025-11-21T12:00	11400	199	-52.7	-80.0	287	6	6.2
2025-11-21T12:00	11450	198	-52.8	-80.0	288	6	6.4
2025-11-21T12:00	11500	196	-52.6	-79.9	286	6	6.5
2025-11-21T12:00	11550	195	-52.6	-80.1	281	5	6.6
2025-11-21T12:00	11600	193	-52.7	-80.2	276	4	6.6
2025-11-21T12:00	11650	192	-52.8	-80.3	286	4	6.7
2025-11-21T12:00	11700	190	-52.7	-80.4	298	5	6.8
2025-11-21T12:00	11750	189	-52.8	-80.4	303	6	6.9
2025-11-21T12:00	11800	187	-53.1	-80.6	304	7	6.8
2025-11-21T12:00	11850	186	-52.9	-80.6	304	8	6.9
2025-11-21T12:00	11900	184	-52.8	-80.6	305	8	6.9
2025-11-21T12:00	11950	183	-52.7	-80.7	307	7	7.0
2025-11-21T12:00	12000	182	-52.6	-80.7	312	7	7.1
2025-11-21T12:00	12050	180	-52.8	-80.8	315	6	7.2
2025-11-21T12:00	12100	179	-53.0	-80.9	314	6	7.4
2025-11-21T12:00	12150	177	-52.9	-80.8	307	5	7.4
2025-11-21T12:00	12200	176	-53.1	-80.9	299	5	7.5
2025-11-21T12:00	12250	175	-53.4	-81.0	296	5	7.5
2025-11-21T12:00	12300	173	-53.3	-80.9	296	6	7.5
2025-11-21T12:00	12350	172	-53.5	-81.0	294	6	7.6
2025-11-21T12:00	12400	171	-53.5	-81.2	288	6	7.6
2025-11-21T12:00	12450	169	-53.3	-81.2	282	6	7.7
2025-11-21T12:00	12500	168	-53.6	-81.3	277	6	7.9
2025-11-21T12:00	12550	167	-53.7	-81.4	277	6	8.1
2025-11-21T12:00	12600	165	-53.6	-81.5	282	6	8.3
2025-11-21T12:00	12650	164	-53.5	-81.3	292	6	8.5
2025-11-21T12:00	12700	163	-53.9	-81.6	299	7	8.7
2025-11-21T12:00	12750	162	-54.2	-81.6	298	9	8.8
2025-11-21T12:00	12800	160	-54.2	-81.6	291	9	9.0
2025-11-21T12:00	12850	159	-53.9	-81.8	284	9	9.2
2025-11-21T12:00	12900	158	-53.9	-81.7	282	9	9.5
2025-11-21T12:00	12950	157	-54.3	-81.9	280	8	9.7
2025-11-21T12:00	13000	155	-54.5	-81.9	275	8	9.8
2025-11-21T12:00	13050	154	-54.8	-81.9	271	9	9.8
2025-11-21T12:00	13100	153	-54.7	-81.9	274	10	9.9
2025-11-21T12:00	13150	152	-54.7	-82.2	277	10	10.0
2025-11-21T12:00	13200	151	-54.8	-82.2	276	9	10.1
2025-11-21T12:00	13250	149	-54.7	-82.3	268	9	10.2
2025-11-21T12:00	13300	148	-54.7	-82.3	262	9	10.2
2025-11-21T12:00	13350	147	-54.7	-82.2	266	9	10.1
2025-11-21T12:00	13400	146	-54.9	-82.5	273	10	10.1
2025-11-21T12:00	13450	145	-55.1	-82.5	277	10	10.1
2025-11-21T12:00	13500	144	-55.2	-82.4	280	11	10.0
2025-11-21T12:00	13550	143	-55.3	-82.5	282	11	9.9
2025-11-21T12:00	13600	141	-55.3	-82.6	282	12	9.8
2025-11-21T12:00	13650	140	-55.5	-82.6	278	11	9.8
2025-11-21T12:00	13700	139	-55.5	-82.6	275	10	9.7
2025-11-21T12:00	13750	138	-55.8	-82.8	275	10	9.7
2025-11-21T12:00	13800	137	-55.8	-82.8	273	11	9.7
2025-11-21T12:00	13850	136	-55.9	-82.9	268	11	9.7
2025-11-21T12:00	13900	135	-55.8	-82.9	261	11	9.6
2025-11-21T12:00	13950	134	-56.0	-83.0	256	11	9.4
2025-11-21T12:00	14000	133	-56.1	-83.0	250	11	9.3
2025-11-21T12:00	14050	132	-56.1	-82.9	246	11	9.1
2025-11-21T12:00	14100	131	-56.4	-83.0	244	11	8.9
2025-11-21T12:00	14150	130	-56.7	-83.0	246	11	8.9
2025-11-21T12:00	14200	129	-57.0	-83.1	250	11	8.7
2025-11-21T12:00	14250	128	-57.2	-83.2	254	11	8.6
2025-11-21T12:00	14300	127	-57.5	-83.3	256	11	8.6
2025-11-21T12:00	14350	126	-57.8	-83.4	259	12	8.5
2025-11-21T12:00	14400	125	-57.8	-83.5	264	13	8.5
2025-11-21T12:00	14450	124	-57.8	-83.5	267	14	8.4
2025-11-21T12:00	14500	123	-57.8	-83.5	266	16	8.5
2025-11-21T12:00	14550	122	-57.5	-83.7	263	16	8.9
2025-11-21T12:00	14600	121	-57.9	-83.9	258	16	9.3
2025-11-21T12:00	14650	120	-58.0	-83.8	254	16	9.6
2025-11-21T12:00	14700	119	-58.1	-84.0	256	16	9.7
2025-11-21T12:00	14750	118	-58.1	-84.0	261	16	9.8
2025-11-21T12:00	14800	117	-58.4	-84.1	266	16	10.0
2025-11-21T12:00	14850	116	-58.5	-84.2	267	17	10.3
2025-11-21T12:00	14900	115	-58.2	-84.3	265	18	10.6
2025-11-21T12:00	14950	114	-58.0	-84.3	267	18	10.9
2025-11-21T12:00	15000	113	-57.9	-84.3	272	19	11.2
2025-11-21T12:00	15050	113	-57.8	-84.3	275	19	11.6
2025-11-21T12:00	15100	112	-57.5	-84.3	275	18	12.3
2025-11-21T12:00	15150	111	-57.0	-84.4	276	17	12.9
2025-11-21T12:00	15200	110	-56.7	-84.2	275	17	13.7
2025-11-21T12:00	15250	109	-56.8	-84.1	273	17	14.3
2025-11-21T12:00	15300	108	-56.9	-84.1	271	16	14.8
2025-11-21T12:00	15350	107	-56.8	-84.1	271	16	15.1
2025-11-21T12:00	15400	106	-56.7	-84.1	272	16	15.2
2025-11-21T12:00	15450	106	-56.9	-84.0	276	16	15.4
2025-11-21T12:00	15500	105	-57.1	-84.1	278	15	15.5
2025-11-21T12:00	15550	104	-57.2	-84.2	279	15	15.3
2025-11-21T12:00	15600	103	-57.4	-84.2	280	15	15.2
2025-11-21T12:00	15650	102	-57.8	-84.3	278	14	15.5
2025-11-21T12:00	15700	102	-57.9	-84.3	275	14	15.5
2025-11-21T12:00	15750	101	-58.0	-84.4	273	14	15.7
2025-11-21T12:00	15800	100	-58.2	-84.5	273	15	16.0
2025-11-21T12:00	15850	99	-58.6	-84.7	275	15	16.0
2025-11-21T12:00	15900	98	-58.6	-84.8	278	15	16.1
2025-11-21T12:00	15950	98	-58.6	-84.8	279	14	16.1
2025-11-21T12:00	16000	97	-58.7	-84.9	281	14	15.9
2025-11-21T12:00	16050	96	-58.5	-84.9	283	14	15.7
2025-11-21T12:00	16100	95	-58.5	-84.9	282	15	15.6
2025-11-21T12:00	16150	94	-58.6	-84.9	280	16	15.4
2025-11-21T12:00	16200	94	-58.6	-84.9	282	17	15.5
2025-11-21T12:00	16250	93	-58.8	-85.1	282	18	15.4
2025-11-21T12:00	16300	92	-57.8	-85.0	279	19	15.2
2025-11-21T12:00	16350	92	-57.3	-84.9	275	19	14.8
2025-11-21T12:00	16400	91	-57.6	-84.8	272	18	14.8
2025-11-21T12:00	16450	90	-57.9	-84.8	268	18	14.8
2025-11-21T12:00	16500	89	-58.1	-84.9	263	19	14.7
2025-11-21T12:00	16550	89	-58.4	-85.0	259	19	14.6
2025-11-21T12:00	16600	88	-58.5	-85.1	259	19	14.5
2025-11-21T12:00	16650	87	-58.6	-85.1	261	18	14.7
2025-11-21T12:00	16700	87	-58.9	-85.2	263	17	14.9
2025-11-21T12:00	16750	86	-59.1	-85.2	264	16	14.8
2025-11-21T12:00	16800	85	-59.4	-85.4	266	15	14.8
2025-11-21T12:00	16850	85	-59.3	-85.4	268	14	14.7
2025-11-21T12:00	16900	84	-59.5	-85.6	266	14	14.3
2025-11-21T12:00	16950	83	-59.2	-85.6	266	13	14.0
2025-11-21T12:00	17000	83	-59.0	-85.5	269	12	13.8
2025-11-21T12:00	17050	82	-59.1	-85.6	272	13	13.6
2025-11-21T12:00	17100	81	-59.0	-85.5	272	13	13.6
2025-11-21T12:00	17150	81	-59.2	-85.4	272	14	13.7
2025-11-21T12:00	17200	80	-59.7	-85.6	269	16	13.7
2025-11-21T12:00	17250	79	-60.0	-85.7	266	17	13.9
2025-11-21T12:00	17300	79	-59.8	-85.7	264	18	14.1
2025-11-21T12:00	17350	78	-60.0	-85.8	261	18	14.2
2025-11-21T12:00	17400	77	-60.3	-85.8	261	19	14.2
2025-11-21T12:00	17450	77	-60.1	-85.9	263	19	14.1
2025-11-21T12:00	17500	76	-60.1	-85.9	266	18	14.1
2025-11-21T12:00	17550	76	-60.3	-85.9	269	18	13.9
2025-11-21T12:00	17600	75	-60.5	-86.0	269	17	13.6
2025-11-21T12:00	17650	74	-60.5	-86.1	267	16	13.0
2025-11-21T12:00	17700	74	-60.6	-86.3	262	16	12.4
2025-11-21T12:00	17750	73	-60.7	-86.3	258	16	11.8
2025-11-21T12:00	17800	73	-60.6	-86.4	257	16	11.4
2025-11-21T12:00	17850	72	-60.3	-86.3	260	15	11.2
2025-11-21T12:00	17900	71	-60.3	-86.2	262	13	11.0
2025-11-21T12:00	17950	71	-60.3	-86.4	264	13	11.0
2025-11-21T12:00	18000	70	-60.2	-86.4	266	13	11.1
2025-11-21T12:00	18050	70	-60.4	-86.3	267	14	11.2
2025-11-21T12:00	18100	69	-60.8	-86.4	271	15	11.2
2025-11-21T12:00	18150	69	-61.0	-86.5	275	15	11.0
2025-11-21T12:00	18200	68	-61.1	-86.6	276	14	11.0
2025-11-21T12:00	18250	68	-61.4	-86.7	276	14	10.9
2025-11-21T12:00	18300	67	-61.5	-86.7	274	14	10.9
2025-11-21T12:00	18350	66	-61.8	-86.8	271	14	10.9
2025-11-21T12:00	18400	66	-61.9	-86.8	267	14	10.8
2025-11-21T12:00	18450	65	-62.1	-86.9	264	14	10.8
2025-11-21T12:00	18500	65	-62.4	-87.0	262	14	10.8
2025-11-21T12:00	18550	64	-62.8	-87.1	259	14	10.7
2025-11-21T12:00	18600	64	-63.2	-87.2	257	15	10.6
2025-11-21T12:00	18650	63	-63.5	-87.4	257	16	10.6
2025-11-21T12:00	18700	63	-63.5	-87.4	257	17	10.6
2025-11-21T12:00	18750	62	-63.7	-87.5	256	19	10.5
2025-11-21T12:00	18800	62	-63.9	-87.7	258	19	10.4
2025-11-21T12:00	18850	61	-63.7	-87.7	261	19	10.5
2025-11-21T12:00	18900	61	-63.5	-87.6	264	18	10.5
2025-11-21T12:00	18950	60	-63.6	-87.6	268	17	10.6
2025-11-21T12:00	19000	60	-64.0	-87.6	271	17	10.6
2025-11-21T12:00	19050	59	-64.3	-87.6	275	18	10.7
2025-11-21T12:00	19100	59	-64.6	-87.8	279	19	10.6
2025-11-21T12:00	19150	58	-64.7	-87.9	280	20	10.7
2025-11-21T12:00	19200	58	-64.9	-88.1	278	20	10.7
2025-11-21T12:00	19250	57	-64.5	-88.1	271	19	10.8
2025-11-21T12:00	19300	57	-64.2	-87.9	266	19	10.9
2025-11-21T12:00	19350	56	-64.4	-87.8	262	19	11.1
2025-11-21T12:00	19400	56	-64.8	-87.9	260	20	11.1
2025-11-21T12:00	19450	56	-65.1	-87.9	260	21	11.2
2025-11-21T12:00	19500	55	-65.4	-88.0	260	22	11.2
2025-11-21T12:00	19550	55	-65.4	-88.1	260	22	11.3
2025-11-21T12:00	19600	54	-65.5	-88.1	260	23	11.4
2025-11-21T12:00	19650	54	-65.6	-88.1	261	24	11.4
2025-11-21T12:00	19700	53	-65.9	-88.2	262	24	11.5
2025-11-21T12:00	19750	53	-66.2	-88.4	263	24	11.6
2025-11-21T12:00	19800	52	-66.1	-88.2	264	23	11.7
2025-11-21T12:00	19850	52	-66.5	-88.4	265	24	11.7
2025-11-21T12:00	19900	52	-66.6	-88.4	264	25	11.8
2025-11-21T12:00	19950	51	-66.8	-88.4	264	26	11.9
2025-11-21T12:00	20000	51	-67.0	-88.6	265	26	11.9
2025-11-21T12:00	20050	50	-66.9		266	25	12.0
2025-11-21T12:00	20100	50	-66.9		267	25	12.0
2025-11-21T12:00	20150	49	-67.3		266	25	12.2
2025-11-21T12:00	20200	49	-67.3		265	26	12.1
2025-11-21T12:00	20250	49	-66.9		265	27	12.1
2025-11-21T12:00	20300	48	-66.6		262	28	12.2
2025-11-21T12:00	20350	48	-66.5		259	29	12.2
2025-11-21T12:00	20400	47	-66.7		258	30	12.2
2025-11-21T12:00	20450	47	-66.7		260	30	12.2
2025-11-21T12:00	20500	47	-66.8		263	30	12.4
2025-11-21T12:00	20550	46	-67.1		266	30	12.5
2025-11-21T12:00	20600	46	-67.3		267	30	12.3
2025-11-21T12:00	20650	46	-67.3		269	29	12.0
2025-11-21T12:00	20700	45	-67.5		270	29	11.6
2025-11-21T12:00	20750	45	-67.4		270	29	11.5
2025-11-21T12:00	20800	44	-67.5		269	29	11.4
2025-11-21T12:00	20850	44	-67.5		269	29	11.3
2025-11-21T12:00	20900	44	-67.7		269	29	11.6
2025-11-21T12:00	20950	43	-67.8		269	29	11.6
2025-11-21T12:00	21000	43	-68.2		270	29	11.7
2025-11-21T12:00	21050	43	-68.3		271	28	12.1
2025-11-21T12:00	21100	42	-68.5		271	28	12.6
2025-11-21T12:00	21150	42	-68.9		270	28	12.7
2025-11-21T12:00	21200	42	-69.0		269	28	12.6
2025-11-21T12:00	21250	41	-69.1		269	29	12.4
2025-11-21T12:00	21300	41	-68.7		268	31	12.3
2025-11-21T12:00	21350	41	-68.5		268	32	12.1
2025-11-21T12:00	21400	40	-68.2		268	32	12.4
2025-11-21T12:00	21450	40	-67.6		268	33	12.8
2025-11-21T12:00	21500	40	-67.1		267	34	13.0
2025-11-21T12:00	21550	39	-66.6		267	34	13.2
2025-11-21T12:00	21600	39	-66.1		268	33	13.3
2025-11-21T12:00	21650	39	-65.4		268	33	13.4
2025-11-21T12:00	21700	38	-64.9		267	32	13.5
2025-11-21T12:00	21750	38	-64.7		264	32	13.6
2025-11-21T12:00	21800	38	-64.2		261	33	13.6
2025-11-21T12:00	21850	37	-64.2		259	33	13.7
2025-11-21T12:00	21900	37	-64.6		259	34	13.8
2025-11-21T12:00	21950	37	-65.0		258	34	13.8
2025-11-21T12:00	22000	36	-65.2		256	36	13.8
2025-11-21T12:00	22050	36	-65.5		254	37	13.8
2025-11-21T12:00	22100	36	-65.9		254	37	13.9
2025-11-21T12:00	22150	36	-65.2		255	37	14.1
2025-11-21T12:00	22200	35	-65.1		256	37	14.2
2025-11-21T12:00	22250	35	-65.3		257	36	14.2
2025-11-21T12:00	22300	35	-65.4		256	36	14.1
2025-11-21T12:00	22350	34	-65.5		254	37	14.0
2025-11-21T12:00	22400	34	-65.3		254	37	13.8
2025-11-21T12:00	22450	34	-65.9		254	37	13.6
2025-11-21T12:00	22500	34	-66.1		255	37	13.3
2025-11-21T12:00	22550	33	-66.4		257	37	13.0
2025-11-21T12:00	22600	33	-66.6		258	36	12.7
2025-11-21T12:00	22650	33	-66.7		258	36	12.5
2025-11-21T12:00	22700	32	-66.9		258	35	12.4
2025-11-21T12:00	22750	32	-66.8		258	34	12.3
2025-11-21T12:00	22800	32	-66.9		258	33	12.1
2025-11-21T12:00	22850	32	-66.9		258	33	12.0
2025-11-21T12:00	22900	31	-67.1		257	33	12.0
2025-11-21T12:00	22950	31	-67.1		256	34	11.9
2025-11-21T12:00	23000	31	-66.8		255	35	11.8
2025-11-21T12:00	23050	31	-66.7		255	37	11.8
2025-11-21T12:00	23100	30	-67.0		256	38	11.8
2025-11-21T12:00	23150	30	-67.1		257	39	11.7
2025-11-21T12:00	23200	30	-67.0		257	39	11.7
2025-11-21T12:00	23250	30	-67.2		258	38	11.7
2025-11-21T12:00	23300	29	-67.3		259	38	11.7
2025-11-21T12:00	23350	29	-67.4		261	37	11.7
2025-11-21T12:00	23400	29	-67.6		262	37	11.6
2025-11-21T12:00	23450	29	-67.6		262	37	11.5
2025-11-21T12:00	23500	28	-67.4		262	38	11.5
2025-11-21T12:00	23550	28	-67.4		262	38	11.5
2025-11-21T12:00	23600	28	-66.7		262	38	11.6
2025-11-21T12:00	23650	28	-66.8		261	37	11.7
2025-11-21T12:00	23700	27	-66.8		259	37	11.7
2025-11-21T12:00	23750	27	-66.5		257	38	11.7
2025-11-21T12:00	23800	27	-66.0		256	39	11.7
2025-11-21T12:00	23850	27	-64.9		254	40	11.7
2025-11-21T12:00	23900	27	-64.7		255	39	11.7
2025-11-21T12:00	23950	26	-64.1		257	39	11.7
2025-11-21T12:00	24000	26	-64.1		260	39	11.7
2025-11-21T12:00	24050	26	-64.3		262	38	11.7
2025-11-21T12:00	24100	26	-64.6		263	38	11.6
2025-11-21T12:00	24150	26	-64.6		264	38	11.6
2025-11-21T12:00	24200	25	-64.7		264	38	11.6
2025-11-21T12:00	24250	25	-64.8		263	37	11.6
2025-11-21T12:00	24300	25	-64.8		261	36	11.6
2025-11-21T12:00	24350	25	-64.6		260	37	11.5
2025-11-21T12:00	24400	25	-64.6		258	37	11.3
2025-11-21T12:00	24450	24	-64.8		257	37	11.2
2025-11-21T12:00	24500	24	-64.8		256	37	10.9
2025-11-21T12:00	24550	24	-65.1		254	38	10.7
2025-11-21T12:00	24600	24	-65.5		254	39	10.5
2025-11-21T12:00	24650	24	-65.5		254	40	10.3
2025-11-21T12:00	24700	23	-65.2		255	41	10.1
2025-11-21T12:00	24750	23	-64.7		257	41	10.0
2025-11-21T12:00	24800	23	-64.8		260	40	9.7
2025-11-21T12:00	24850	23	-64.5		260	40	9.5
2025-11-21T12:00	24900	23	-63.5		257	39	9.2
2025-11-21T12:00	24950	22	-63.0		255	39	8.9
2025-11-21T12:00	25000	22	-63.0		252	39	8.8
2025-11-21T12:00	25050	22	-62.9		250	39	8.7
2025-11-21T12:00	25100	22	-63.0		248	39	8.6
2025-11-21T12:00	25150	22	-62.9		249	39	8.6
2025-11-21T12:00	25200	22	-62.8		251	40	8.6
2025-11-21T12:00	25250	21	-62.3		252	42	8.6
2025-11-21T12:00	25300	21	-62.1		253	44	8.7
2025-11-21T12:00	25350	21	-61.7		253	45	8.7
2025-11-21T12:00	25400	21	-61.5		252	44	8.7
2025-11-21T12:00	25450	21	-61.5		252	44	8.7
2025-11-21T12:00	25500	20	-61.7		252	44	8.6
2025-11-21T12:00	25550	20	-61.5		254	45	8.6
2025-11-21T12:00	25600	20	-61.2		255	46	8.5
2025-11-21T12:00	25650	20	-60.4		256	46	8.5
2025-11-21T12:00	25700	20	-60.2		256	47	8.5
2025-11-21T12:00	25750	20	-60.3		256	48	8.4
2025-11-21T12:00	25800	20	-60.7		255	49	8.3
2025-11-21T12:00	25850	19	-60.4		254	51	8.2
2025-11-21T12:00	25900	19	-60.4		254	52	8.2
2025-11-21T12:00	25950	19	-60.3		253	52	8.2
2025-11-21T12:00	26000	19	-60.1		254	52	8.1
2025-11-21T12:00	26050	19	-60.1		255	52	8.1
2025-11-21T12:00	26100	19	-60.2		256	51	8.0
2025-11-21T12:00	26150	18	-60.6		257	51	7.9
2025-11-21T12:00	26200	18	-60.9		257	51	7.8
2025-11-21T12:00	26250	18	-60.2		256	50	7.7
2025-11-21T12:00	26300	18	-60.0		255	50	7.6
2025-11-21T12:00	26350	18	-60.4		254	49	7.5
2025-11-21T12:00	26400	18	-60.8		253	49	7.4
2025-11-21T12:00	26450	18	-61.1		253	49	7.4
2025-11-21T12:00	26500	17	-61.1		254	49	7.3
2025-11-21T12:00	26550	17	-60.6		255	49	7.2
2025-11-21T12:00	26600	17	-59.8		257	49	7.2
2025-11-21T12:00	26650	17	-59.5		258	48	7.3
2025-11-21T12:00	26700	17	-59.5		259	47	7.3
2025-11-21T12:00	26750	17	-59.7		259	48	7.3
2025-11-21T12:00	26800	17	-59.5		260	48	7.2
2025-11-21T12:00	26850	16	-59.7		261	48	7.2
2025-11-21T12:00	26900	16	-60.1		262	46	7.2
2025-11-21T12:00	26950	16	-60.2		261	46	7.1
2025-11-21T12:00	27000	16	-59.9		259	45	7.1
2025-11-21T12:00	27050	16	-59.7		257	46	7.0
2025-11-21T12:00	27100	16	-59.1		256	46	7.0
2025-11-21T12:00	27150	16	-58.5		255	47	7.0
2025-11-21T12:00	27200	16	-58.0		256	47	7.1
2025-11-21T12:00	27250	15	-57.5		258	48	7.1
2025-11-21T12:00	27300	15	-56.9		258	48	7.2
2025-11-21T12:00	27350	15	-56.8		259	49	7.2
2025-11-21T12:00	27400	15	-57.1		260	49	7.3
2025-11-21T12:00	27450	15	-57.2		260	50	7.3
2025-11-21T12:00	27500	15	-56.8		260	52	7.3
2025-11-21T12:00	27550	15	-56.5		260	53	7.3
2025-11-21T12:00	27600	15	-56.1		259	54	7.2
2025-11-21T12:00	27650	15	-55.8		258	55	7.2
2025-11-21T12:00	27700	14	-55.4		258	56	7.1
2025-11-21T12:00	27750	14	-55.3		257	56	7.1
2025-11-21T12:00	27800	14	-55.4		256	55	7.0
2025-11-21T12:00	27850	14	-55.5		255	54	7.0
2025-11-21T12:00	27900	14	-55.0		254	53	6.9
2025-11-21T12:00	27950	14	-54.1		255	53	6.9
2025-11-21T12:00	28000	14	-53.7		255	52	6.8
2025-11-21T12:00	28050	14	-53.9		255	51	6.7
2025-11-21T12:00	28100	14	-54.3		254	51	6.6
2025-11-21T12:00	28150	13	-54.2		253	51	6.6
2025-11-21T12:00	28200	13	-53.7		251	51	6.6
2025-11-21T12:00	28250	13	-54.0		249	51	6.5
2025-11-21T12:00	28300	13	-54.0		247	51	6.5
2025-11-21T12:00	28350	13	-53.7		246	51	6.5
2025-11-21T12:00	28400	13	-54.0		246	51	6.4
2025-11-21T12:00	28450	13	-54.4		245	50	6.3
2025-11-21T12:00	28500	13	-54.8		245	50	6.2
2025-11-21T12:00	28550	13	-55.1		245	50	6.1
2025-11-21T12:00	28600	13	-55.4		244	50	6.1
2025-11-21T12:00	28650	12	-55.6		244	51	6.0
2025-11-21T12:00	28700	12	-55.7		244	51	5.9
2025-11-21T12:00	28750	12	-55.6		244	52	5.9
2025-11-21T12:00	28800	12	-55.7		244	53	5.8
2025-11-21T12:00	28850	12	-55.6		243	54	5.7
2025-11-21T12:00	28900	12	-55.4		243	55	5.7
2025-11-21T12:00	28950	12	-55.7		243	55	5.6
2025-11-21T12:00	29000	12	-56.0		243	56	5.6
2025-11-21T12:00	29050	12	-56.3		244	56	5.5
2025-11-21T12:00	29100	12	-56.8		244	57	5.5
2025-11-21T12:00	29150	11	-57.3		245	57	5.4
2025-11-21T12:00	29200	11	-57.6		246	58	5.4
2025-11-21T12:00	29250	11	-58.1		247	59	5.3
2025-11-21T12:00	29300	11	-58.4		248	59	5.3
2025-11-21T12:00	29350	11	-58.4		249	59	5.2
2025-11-21T12:00	29400	11	-58.5		249	60	5.2
2025-11-21T12:00	29450	11	-58.7		250	60	5.1
2025-11-21T12:00	29500	11	-58.9		252	61	5.1
2025-11-21T12:00	29550	11	-59.0		253	62	5.0
2025-11-21T12:00	29600	11	-59.1		255	63	5.0
2025-11-21T12:00	29650	11	-59.1		256	64	4.9
2025-11-21T12:00	29700	11	-58.6		258	65	4.9
2025-11-21T12:00	29750	10	-58.4		259	67	4.8
2025-11-21T12:00	29800	10	-58.1		259	68	4.8
2025-11-21T12:00	29850	10	-57.1		259	68	4.7
2025-11-21T12:00	29900	10	-56.8		260	68	
2025-11-21T12:00	29950	10	-55.8		260	68	
2025-11-21T12:00	30000	10	-55.3		262	68	
2025-11-21T12:00	30050	10	-55.0		262	68	
2025-11-21T12:00	30100	10	-54.7		263	68	
2025-11-21T12:00	30150	10	-54.3		262	69	
2025-11-21T12:00	30200	10	-54.1		261	69	
2025-11-21T12:00	30250	10	-54.4		261	70	
2025-11-21T12:00	30300	10	-54.5		261	71	
2025-11-21T12:00	30350	10	-54.7		261	72	
2025-11-21T12:00	30400	9	-54.7		260	72	
2025-11-21T12:00	30450	9	-54.4		260	72	
2025-11-21T12:00	30500	9	-54.1		260	72	
2025-11-21T12:00	30550	9	-54.3		261	72	
2025-11-21T12:00	30600	9	-54.4		261	72	
2025-11-21T12:00	30650	9	-54.5		261	73	
2025-11-21T12:00	30700	9	-54.4		261	73	
2025-11-21T12:00	30750	9	-54.3		262	73	
2025-11-21T12:00	30800	9	-54.4		262	74	
2025-11-21T12:00	30850	9	-54.7		262	74	
2025-11-21T12:00	30900	9	-54.8		262	75	
2025-11-21T12:00	30950	9	-55.1		262	75	
2025-11-21T12:00	31000	9	-55.0		262	76	
2025-11-21T12:00	31050	9	-54.6		262	76	
2025-11-21T12:00	31100	8	-54.4		262	78	
2025-11-21T12:00	31150	8	-54.1		262	80	
2025-11-21T12:00	31200	8	-54.1		261	83	
2025-11-21T12:00	31250	8	-53.7		260	86	
2025-11-21T12:00	31300	8	-50.9		258	89	
2025-11-21T12:00	31350	8	-47.5		258	88	
2025-11-21T12:00	31400	8	-47.1		258	89	
2025-11-21T12:00	31450	8	-47.3		259	90	
2025-11-21T12:00	31500	8	-47.4		259	90	
2025-11-21T12:00	31550	8	-47.2		260	90	
2025-11-21T12:00	31600	8	-46.4		260	91	
2025-11-21T12:00	31650	8	-46.4		261	91	
2025-11-21T12:00	31700	8	-46.6		262	91	
2025-11-21T12:00	31750	8	-46.2		263	90	
2025-11-21T12:00	31800	8	-45.9		263	90	
2025-11-21T12:00	31850	8	-45.8		263	89	
2025-11-21T12:00	31900	7	-45.9		263	88	
2025-11-21T12:00	31950	7	-45.6		263	88	
2025-11-21T12:00	32000	7	-45.1		263	89	
2025-11-21T12:00	32050	7	-44.4		262	89	
2025-11-21T12:00	32100	7	-44.0		262	90	
2025-11-21T12:00	32150	7	-43.6		261	90	
2025-11-21T12:00	32200	7	-43.2		261	92	
2025-11-21T12:00	32250	7	-43.1		260	93	
2025-11-21T12:00	32300	7	-43.0		260	94	
2025-11-21T12:00	32350	7	-42.7		259	94	
2025-11-21T12:00	32400	7	-42.5		259	95	
2025-11-21T12:00	32450	7	-41.5		259	94	
2025-11-21T12:00	32500	7	-41.6		260	94	
2025-11-21T12:00	32550	7	-41.5		260	95	
2025-11-21T12:00	32600	7	-40.9		261	96	
2025-11-21T12:00	32650	7	-40.8		261	96	
2025-11-21T12:00	32700	7	-40.5		260	96	
2025-11-21T12:00	32750	7	-39.8		261	97	
2025-11-21T12:00	32800	7	-39.2		261	98	
2025-11-21T12:00	32850	7	-37.6		261	98	
2025-11-21T12:00	32900	6	-35.7		261	97	
2025-11-21T12:00	32950	6	-35.1		261	97	
2025-11-21T12:00	33000	6	-35.3		261	99	
2025-11-21T12:00	33050	6	-35.0		260	99	
2025-11-21T12:00	33100	6	-34.6		260	99	
2025-11-21T12:00	33150	6	-35.0		260	99	
2025-11-21T12:00	33200	6	-35.3		260	100	
2025-11-21T12:00	33250	6	-35.6		261	99	
2025-11-21T12:00	33300	6	-35.4		260	100	
2025-11-21T12:00	33350	6	-35.3		260	101	
2025-11-21T12:00	33400	6	-35.3		259	102	
2025-11-21T12:00	33450	6	-35.3		258	102	
2025-11-21T12:00	33500	6	-35.5		257	104	
2025-11-21T12:00	33550	6	-35.5		257	105	
2025-11-21T12:00	33600	6	-35.3		258	106	
2025-11-21T12:00	33650	6	-35.0		258	105	
2025-11-21T12:00	33700	6	-34.6		258	105	
2025-11-21T12:00	33750	6	-34.8		259	105	
2025-11-21T12:00	33800	6	-35.2		259	104	
2025-11-21T12:00	33850	6	-35.2		260	104	
2025-11-21T12:00	33900	6	-35.4		260	103	
2025-11-21T12:00	33950	6	-35.5		260	104	
2025-11-21T12:00	34000	6	-35.4		260	105	
2025-11-21T12:00	34050	5	-35.2		259	106	
2025-11-21T12:00	34100	5	-35.1		259	107	
2025-11-21T12:00	34150	5	-35.2		259	107	
2025-11-21T12:00	34200	5	-35.2		258	107	
2025-11-21T12:00	34250	5	-35.3		259	108	
2025-11-21T12:00	34300	5	-35.8		259	108	
2025-11-21T12:00	34350	5	-36.1		259	108	
2025-11-21T12:00	34400	5	-36.6		259	109	
2025-11-21T12:00	34450	5	-37.3		260	110	
2025-11-21T12:00	34500	5	-37.4		260	110	
2025-11-21T12:00	34550	5	-37.5		260	110	
2025-11-21T12:00	34600	5	-37.6		261	111	
2025-11-21T12:00	34650	5	-37.6		261	111	
2025-11-21T12:00	34700	5	-37.3		261	112	
2025-11-21T12:00	34750	5	-37.2		261	112	
2025-11-21T12:00	34800	5	-37.5		261	113	
2025-11-21T12:00	34850	5	-37.8		261	113	
2025-11-21T12:00	34900	5	-38.0		261	113	
2025-11-21T12:00	34950	5	-38.1		261	114	
2025-11-21T12:00	35000	5	-38.4		261	115	
2025-11-21T12:00	35050	5	-38.5		261	115	
2025-11-21T12:00	35100	5	-37.6		260	116	
2025-11-21T12:00	35150	5	-36.4		260	116	
2025-11-21T12:00	35200	5	-35.2		261	118	
2025-11-21T12:00	35250	5	-34.7		262	118	
2025-11-21T12:00	35300	5	-34.7		262	119	
2025-11-21T12:00	35350	5	-35.2		263	119	
2025-11-21T12:00	35400	5	-34.4		262	116	
2025-11-21T12:00	35450	4	-32.9		261	115	
2025-11-21T12:00	35500	4	-32.1		260	114	
2025-11-21T12:00	35550	4	-32.0		259	113	
2025-11-21T12:00	35600	4	-32.1		259	113	
2025-11-21T12:00	35650	4	-31.9		259	112	
2025-11-21T12:00	35700	4	-29.9		260	111	
2025-11-21T12:00	35750	4	-30.7		260	112	
2025-11-21T12:00	35800	4	-31.7		260	113	
2025-11-21T12:00	35850	4	-31.6		261	115	
2025-11-22T00:00	491	964	-0.6	-4.5	49	3	
2025-11-22T00:00	501	963	-0.9	-4.4	38	4	
2025-11-22T00:00	520	961	-1.0	-4.6	38	5	
2025-11-22T00:00	540	958	-1.1	-4.9	37	6	
2025-11-22T00:00	560	956	-1.3	-5.0	36	7	
2025-11-22T00:00	580	954	-1.5	-5.1	36	8	
2025-11-22T00:00	600	951	-1.7	-5.2	36	9	
2025-11-22T00:00	620	949	-1.9	-5.3	37	10	
2025-11-22T00:00	640	946	-2.0	-5.3	39	10	
2025-11-22T00:00	660	944	-2.3	-5.4	41	10	
2025-11-22T00:00	680	941	-2.4	-5.4	43	10	
2025-11-22T00:00	700	939	-2.6	-5.4	45	10	
2025-11-22T00:00	720	937	-2.8	-5.4	47	10	
2025-11-22T00:00	740	934	-3.1	-5.5	48	10	
2025-11-22T00:00	760	932	-3.2	-5.5	48	11	
2025-11-22T00:00	780	930	-3.4	-5.6	48	11	
2025-11-22T00:00	800	927	-3.6	-5.6	49	12	
2025-11-22T00:00	820	925	-3.8	-5.7	49	12	
2025-11-22T00:00	840	923	-4.0	-5.8	49	13	
2025-11-22T00:00	860	920	-4.2	-5.8	50	13	
2025-11-22T00:00	880	918	-4.3	-6.0	50	13	
2025-11-22T00:00	900	916	-4.5	-6.0	50	13	
2025-11-22T00:00	920	914	-4.7	-6.1	51	13	
2025-11-22T00:00	940	911	-4.8	-6.2	52	13	
2025-11-22T00:00	960	909	-5.0	-6.2	52	13	
2025-11-22T00:00	980	907	-5.2	-6.3	53	13	
2025-11-22T00:00	1000	904	-5.4	-6.4	53	13	
2025-11-22T00:00	1020	902	-5.5	-6.5	53	14	
2025-11-22T00:00	1040	899	-5.7	-6.6	53	14	
2025-11-22T00:00	1060	897	-5.9	-6.6	53	15	
2025-11-22T00:00	1080	895	-5.9	-6.9	52	15	
2025-11-22T00:00	1100	893	-5.9	-7.1	51	15	
2025-11-22T00:00	1120	891	-6.1	-7.2	51	15	
2025-11-22T00:00	1140	888	-6.3	-7.2	50	15	
2025-11-22T00:00	1160	886	-6.4	-7.3	50	15	
2025-11-22T00:00	1180	884	-6.6	-7.4	49	15	
2025-11-22T00:00	1200	881	-6.7	-7.5	49	15	
2025-11-22T00:00	1220	879	-6.8	-7.5	50	15	
2025-11-22T00:00	1240	877	-7.0	-7.5	51	15	
2025-11-22T00:00	1260	875	-7.1	-7.6	52	14	
2025-11-22T00:00	1280	872	-7.3	-7.5	54	14	
2025-11-22T00:00	1300	870	-7.4	-7.6	55	14	
2025-11-22T00:00	1320	868	-7.3	-7.6	57	14	
2025-11-22T00:00	1340	866	-7.3	-7.9	58	14	
2025-11-22T00:00	1360	863	-7.2	-8.3	59	14	
2025-11-22T00:00	1380	861	-7.4	-8.4	60	14	
2025-11-22T00:00	1400	859	-7.5	-8.5	60	14	
2025-11-22T00:00	1420	857	-7.7	-8.5	61	14	
2025-11-22T00:00	1440	855	-7.9	-8.6	61	14	
2025-11-22T00:00	1460	852	-8.1	-8.7	62	14	
2025-11-22T00:00	1480	850	-8.2	-8.8	62	14	
2025-11-22T00:00	1500	848	-8.5	-8.7	62	15	
2025-11-22T00:00	1520	846	-8.7	-8.9	62	15	
2025-11-22T00:00	1540	844	-8.8	-8.9	61	15	
2025-11-22T00:00	1560	841	-9.0	-9.0	61	15	
2025-11-22T00:00	1580	839	-9.2	-9.2	61	14	
2025-11-22T00:00	1600	837	-9.2	-9.5	61	14	
2025-11-22T00:00	1620	835	-9.1	-10.0	61	14	
2025-11-22T00:00	1640	833	-9.2	-10.1	61	15	
2025-11-22T00:00	1660	831	-9.0	-10.6	61	15	
2025-11-22T00:00	1680	828	-9.0	-10.9	61	15	
2025-11-22T00:00	1700	826	-8.9	-11.1	60	15	
2025-11-22T00:00	1720	824	-9.0	-11.4	60	16	
2025-11-22T00:00	1740	822	-9.1	-11.6	60	16	
2025-11-22T00:00	1760	820	-9.3	-11.7	60	16	
2025-11-22T00:00	1780	818	-9.5	-11.8	59	16	
2025-11-22T00:00	1800	816	-9.6	-11.9	59	16	
2025-11-22T00:00	1820	814	-9.8	-11.9	59	16	
2025-11-22T00:00	1840	812	-10.0	-11.9	59	16	
2025-11-22T00:00	1860	810	-10.1	-11.9	59	16	
2025-11-22T00:00	1880	807	-10.3	-12.0	59	16	
2025-11-22T00:00	1900	805	-10.5	-12.1	59	16	
2025-11-22T00:00	1920	803	-10.7	-12.2	59	16	
2025-11-22T00:00	1940	801	-10.9	-12.3	60	15	
2025-11-22T00:00	1960	799	-11.1	-12.4	61	15	
2025-11-22T00:00	1980	797	-11.2	-12.5	63	15	
2025-11-22T00:00	2000	795	-11.3	-12.6	64	15	
2025-11-22T00:00	2020	793	-11.5	-12.7	65	14	
2025-11-22T00:00	2040	791	-11.7	-12.7	66	14	
2025-11-22T00:00	2060	789	-11.8	-12.8	67	14	
2025-11-22T00:00	2080	787	-12.0	-12.9	66	14	
2025-11-22T00:00	2100	785	-12.2	-12.9	66	14	
2025-11-22T00:00	2120	782	-12.4	-13.0	65	14	
2025-11-22T00:00	2140	780	-12.6	-13.0	65	14	
2025-11-22T00:00	2160	779	-12.8	-13.1	64	15	
2025-11-22T00:00	2180	777	-13.0	-13.2	64	15	
2025-11-22T00:00	2200	774	-13.2	-13.3	64	15	
2025-11-22T00:00	2220	772	-13.3	-13.5	64	15	
2025-11-22T00:00	2240	770	-13.5	-13.5	64	15	
2025-11-22T00:00	2260	768	-13.7	-13.7	65	15	
2025-11-22T00:00	2280	766	-13.8	-13.8	65	15	
2025-11-22T00:00	2300	764	-14.0	-14.0	65	15	
2025-11-22T00:00	2320	762	-14.2	-14.2	65	15	
2025-11-22T00:00	2340	760	-14.3	-14.4	65	16	
2025-11-22T00:00	2360	758	-14.4	-14.7	64	16	
2025-11-22T00:00	2380	756	-14.6	-14.7	64	16	
2025-11-22T00:00	2400	754	-14.7	-14.8	63	16	
2025-11-22T00:00	2420	752	-14.9	-14.9	62	16	
2025-11-22T00:00	2440	750	-15.2	-15.2	61	16	
2025-11-22T00:00	2460	748	-15.2	-15.5	60	17	
2025-11-22T00:00	2480	746	-14.6	-16.3	59	17	
2025-11-22T00:00	2500	744	-14.3	-16.7	58	17	
2025-11-22T00:00	2520	742	-14.0	-17.1	57	17	
2025-11-22T00:00	2540	741	-13.9	-17.5	56	17	
2025-11-22T00:00	2560	738	-14.1	-17.5	56	17	
2025-11-22T00:00	2580	736	-14.2	-17.5	56	17	
2025-11-22T00:00	2600	735	-14.3	-17.6	56	17	
2025-11-22T00:00	2620	733	-14.3	-18.1	57	17	
2025-11-22T00:00	2640	731	-14.2	-18.5	58	18	
2025-11-22T00:00	2660	729	-14.3	-18.6	60	18	
2025-11-22T00:00	2680	727	-14.4	-18.7	61	18	
2025-11-22T00:00	2700	725	-14.6	-18.8	62	18	
2025-11-22T00:00	2720	723	-14.8	-19.1	63	19	
2025-11-22T00:00	2740	721	-14.8	-19.4	63	19	
2025-11-22T00:00	2760	719	-14.8	-19.4	63	19	
2025-11-22T00:00	2780	717	-14.8	-19.1	63	19	
2025-11-22T00:00	2800	716	-14.7	-19.4	62	19	
2025-11-22T00:00	2820	714	-14.8	-19.6	61	18	
2025-11-22T00:00	2840	712	-15.0	-20.0	60	18	
2025-11-22T00:00	2860	710	-15.0	-20.1	59	18	
2025-11-22T00:00	2880	708	-14.8	-20.4	58	18	
2025-11-22T00:00	2900	706	-14.9	-20.6	58	17	
2025-11-22T00:00	2920	704	-15.1	-20.7	57	17	
2025-11-22T00:00	2940	702	-15.2	-20.8	57	17	
2025-11-22T00:00	2960	700	-15.4	-21.1	56	17	
2025-11-22T00:00	2980	699	-15.5	-21.4	56	17	
2025-11-22T00:00	3000	697	-15.6	-21.5	56	17	
2025-11-22T00:00	3020	695	-15.8	-21.5	55	17	
2025-11-22T00:00	3040	693	-16.0	-21.5	55	16	
2025-11-22T00:00	3060	691	-16.1	-21.5	54	16	
2025-11-22T00:00	3080	689	-16.3	-21.7	54	16	
2025-11-22T00:00	3100	687	-16.3	-21.6	53	16	
2025-11-22T00:00	3120	686	-16.2	-21.7	53	16	
2025-11-22T00:00	3140	684	-16.2	-21.6	53	16	
2025-11-22T00:00	3160	682	-16.3	-21.7	53	16	
2025-11-22T00:00	3180	680	-16.4	-21.7	53	15	
2025-11-22T00:00	3200	679	-16.5	-21.8	54	15	
2025-11-22T00:00	3220	677	-16.6	-21.7	55	15	
2025-11-22T00:00	3240	675	-16.7	-21.8	57	14	
2025-11-22T00:00	3260	673	-16.7	-22.1	58	14	
2025-11-22T00:00	3280	671	-16.4	-22.7	59	14	
2025-11-22T00:00	3300	669	-16.4	-23.1	59	14	
2025-11-22T00:00	3320	668	-16.4	-23.6	59	14	
2025-11-22T00:00	3340	666	-16.5	-23.7	59	13	
2025-11-22T00:00	3360	664	-16.7	-23.7	60	13	
2025-11-22T00:00	3380	662	-16.8	-23.8	59	13	
2025-11-22T00:00	3400	661	-17.0	-23.8	58	12	
2025-11-22T00:00	3420	659	-17.2	-24.0	55	12	
2025-11-22T00:00	3440	657	-17.3	-24.1	52	12	
2025-11-22T00:00	3460	655	-17.3	-24.4	48	12	
2025-11-22T00:00	3480	654	-17.3	-24.6	45	12	
2025-11-22T00:00	3500	652	-17.4	-24.7	44	13	
2025-11-22T00:00	3520	650	-17.5	-24.8	45	13	
2025-11-22T00:00	3540	648	-17.7	-24.9	47	13	
2025-11-22T00:00	3560	647	-17.8	-25.0	49	13	
2025-11-22T00:00	3580	645	-18.0	-25.2	50	13	
2025-11-22T00:00	3600	643	-18.2	-25.2	51	13	
2025-11-22T00:00	3620	642	-18.3	-25.4	51	12	
2025-11-22T00:00	3640	640	-18.4	-26.1	52	12	
2025-11-22T00:00	3660	638	-18.4	-26.8	52	12	
2025-11-22T00:00	3680	636	-18.5	-27.3	53	12	
2025-11-22T00:00	3700	635	-18.6	-27.9	54	12	
2025-11-22T00:00	3720	633	-18.6	-28.4	54	12	
2025-11-22T00:00	3740	631	-18.8	-28.5	54	11	
2025-11-22T00:00	3760	630	-19.0	-28.6	54	11	
2025-11-22T00:00	3780	628	-19.1	-28.6	54	11	
2025-11-22T00:00	3800	626	-19.3	-28.9	54	11	
2025-11-22T00:00	3820	625	-19.4	-29.3	54	11	
2025-11-22T00:00	3840	623	-19.6	-29.5	55	11	
2025-11-22T00:00	3860	621	-19.7	-29.6	56	10	
2025-11-22T00:00	3880	620	-19.8	-29.7	56	10	
2025-11-22T00:00	3900	618	-20.0	-29.9	57	10	
2025-11-22T00:00	3920	616	-20.2	-29.9	56	10	
2025-11-22T00:00	3940	615	-20.4	-29.9	56	9	
2025-11-22T00:00	3960	613	-20.6	-30.1	54	9	
2025-11-22T00:00	3980	611	-20.8	-30.2	52	9	
2025-11-22T00:00	4000	610	-20.9	-30.2	50	9	
2025-11-22T00:00	4020	608	-21.1	-30.4	48	9	
2025-11-22T00:00	4040	606	-21.3	-30.5	47	9	
2025-11-22T00:00	4060	605	-21.5	-30.6	46	9	
2025-11-22T00:00	4080	603	-21.6	-31.1	46	9	
2025-11-22T00:00	4100	601	-21.8	-31.2	46	9	
2025-11-22T00:00	4120	600	-21.9	-31.5	47	9	
2025-11-22T00:00	4140	598	-22.1	-31.7	48	9	
2025-11-22T00:00	4160	596	-22.2	-32.0	50	9	
2025-11-22T00:00	4180	595	-22.3	-32.5	52	9	
2025-11-22T00:00	4200	593	-22.5	-32.9	52	9	
2025-11-22T00:00	4220	592	-22.6	-33.5	53	9	
2025-11-22T00:00	4240	590	-22.7	-34.2	53	9	
2025-11-22T00:00	4260	589	-22.8	-34.4	54	9	
2025-11-22T00:00	4280	587	-22.9	-34.9	54	9	
2025-11-22T00:00	4300	585	-23.1	-35.7	56	8	
2025-11-22T00:00	4320	584	-23.2	-36.6	58	8	
2025-11-22T00:00	4340	582	-23.4	-37.6	59	8	
2025-11-22T00:00	4360	581	-23.5	-37.8	60	8	
2025-11-22T00:00	4380	579	-23.6	-38.6	59	8	
2025-11-22T00:00	4400	577	-23.8	-39.0	56	8	
2025-11-22T00:00	4420	576	-23.9	-38.9	53	8	
2025-11-22T00:00	4440	574	-24.1	-39.2	51	8	
2025-11-22T00:00	4460	572	-24.3	-39.0	50	8	
2025-11-22T00:00	4480	571	-24.4	-38.5	49	8	
2025-11-22T00:00	4500	569	-24.6	-38.5	49	8	
2025-11-22T00:00	4520	568	-24.8	-38.4	49	8	
2025-11-22T00:00	4540	566	-25.0	-38.7	50	8	
2025-11-22T00:00	4560	565	-25.2	-38.7	50	8	
2025-11-22T00:00	4580	563	-25.4	-38.8	49	8	
2025-11-22T00:00	4600	562	-25.6	-39.0	49	8	
2025-11-22T00:00	4620	560	-25.8	-39.1	48	8	
2025-11-22T00:00	4640	559	-25.9	-39.1	48	8	
2025-11-22T00:00	4660	557	-26.1	-39.5	49	8	
2025-11-22T00:00	4680	555	-26.3	-39.6	51	8	
2025-11-22T00:00	4700	554	-26.5	-39.7	53	9	
2025-11-22T00:00	4720	552	-26.7	-39.7	54	9	
2025-11-22T00:00	4740	551	-26.9	-39.7	53	9	
2025-11-22T00:00	4760	549	-27.1	-39.8	50	9	
2025-11-22T00:00	4780	548	-27.3	-40.0	46	9	
2025-11-22T00:00	4800	546	-27.5	-40.0	43	9	
2025-11-22T00:00	4820	545	-27.7	-40.1	41	9	
2025-11-22T00:00	4840	543	-27.9	-40.2	40	9	
2025-11-22T00:00	4860	542	-28.0	-40.2	41	9	
2025-11-22T00:00	4880	540	-28.2	-40.3	43	9	
2025-11-22T00:00	4900	539	-28.4	-40.3	45	9	
2025-11-22T00:00	4920	537	-28.6	-40.4	46	10	
2025-11-22T00:00	4940	536	-28.8	-40.4	46	10	
2025-11-22T00:00	4960	534	-29.0	-40.5	46	10	
2025-11-22T00:00	4980	533	-29.2	-40.5	46	10	
2025-11-22T00:00	5000	531	-29.4	-40.6	47	9	
2025-11-22T00:00	5020	530	-29.6	-40.6	48	9	
2025-11-22T00:00	5040	528	-29.8	-40.8	49	9	
2025-11-22T00:00	5060	527	-30.0	-40.7	51	9	
2025-11-22T00:00	5080	525	-30.2	-40.9	52	8	
2025-11-22T00:00	5100	524	-30.4	-40.8	52	8	
2025-11-22T00:00	5120	522	-30.6	-40.9	50	8	
2025-11-22T00:00	5140	521	-30.8	-41.0	48	8	
2025-11-22T00:00	5160	519	-30.9	-41.0	45	8	
2025-11-22T00:00	5180	518	-31.1	-41.1	43	9	
2025-11-22T00:00	5200	516	-31.3	-41.3	41	9	
2025-11-22T00:00	5220	515	-31.5	-41.7	41	9	
2025-11-22T00:00	5240	513	-31.7	-41.8	41	9	
2025-11-22T00:00	5260	512	-31.9	-41.9	41	9	
2025-11-22T00:00	5280	511	-32.1	-41.7	41	9	
2025-11-22T00:00	5300	509	-32.3	-42.0	42	9	
2025-11-22T00:00	5320	508	-32.5	-42.3	42	9	
2025-11-22T00:00	5340	506	-32.7	-41.9	42	9	
2025-11-22T00:00	5360	505	-32.9	-42.3	42	9	
2025-11-22T00:00	5380	504	-33.0	-42.3	42	9	
2025-11-22T00:00	5400	502	-33.2	-42.3	42	9	
2025-11-22T00:00	5420	500	-33.5	-42.4	43	9	
2025-11-22T00:00	5440	499	-33.7	-42.8	43	9	
2025-11-22T00:00	5460	498	-33.8	-43.1	45	9	
2025-11-22T00:00	5480	496	-34.0	-43.6	47	9	
2025-11-22T00:00	5500	495	-34.1	-43.9	48	9	
2025-11-22T00:00	5520	494	-34.3	-44.2	51	9	
2025-11-22T00:00	5540	492	-34.5	-44.6	53	9	
2025-11-22T00:00	5560	491	-34.7	-46.1	55	9	
2025-11-22T00:00	5580	489	-34.8	-45.9	57	9	
2025-11-22T00:00	5600	488	-35.0	-46.1	58	10	
2025-11-22T00:00	5620	487	-35.2	-46.3	59	10	
2025-11-22T00:00	5640	485	-35.4	-46.5	59	10	
2025-11-22T00:00	5660	484	-35.6	-46.6	58	10	
2025-11-22T00:00	5680	482	-35.8	-46.6	57	10	
2025-11-22T00:00	5700	481	-36.0	-46.8	56	10	
2025-11-22T00:00	5720	479	-36.2	-46.9	54	10	
2025-11-22T00:00	5740	478	-36.3	-47.2	53	10	
2025-11-22T00:00	5760	477	-36.5	-47.1	52	10	
2025-11-22T00:00	5780	475	-36.7	-46.6	52	9	
2025-11-22T00:00	5800	474	-36.9	-46.3	52	9	
2025-11-22T00:00	5820	473	-37.0	-46.3	53	9	
2025-11-22T00:00	5840	471	-37.2	-46.3	55	9	
2025-11-22T00:00	5860	470	-37.4	-46.4	57	9	
2025-11-22T00:00	5880	468	-37.6	-46.3	59	9	
2025-11-22T00:00	5900	467	-37.8	-46.4	60	9	
2025-11-22T00:00	5920	466	-38.0	-46.5	61	9	
2025-11-22T00:00	5940	464	-38.2	-46.4	61	8	
2025-11-22T00:00	5960	463	-38.4	-46.4	59	8	
2025-11-22T00:00	5980	462	-38.5	-46.4	57	8	
2025-11-22T00:00	6000	461	-38.7	-46.2	55	8	
2025-11-22T00:00	6020	459	-38.9	-46.4	54	8	
2025-11-22T00:00	6040	458	-39.0	-46.8	52	8	
2025-11-22T00:00	6060	456	-39.1	-47.4	50	8	
2025-11-22T00:00	6080	455	-39.3	-47.2	49	9	
2025-11-22T00:00	6100	454	-39.5	-47.3	47	9	
2025-11-22T00:00	6120	452	-39.7	-47.4	45	9	
2025-11-22T00:00	6140	451	-39.8	-48.1	43	10	
2025-11-22T00:00	6160	450	-40.0	-49.2	42	10	
2025-11-22T00:00	6180	448	-40.2	-48.9	40	10	
2025-11-22T00:00	6200	447	-40.3	-48.9	40	10	
2025-11-22T00:00	6220	446	-40.5	-48.9	42	10	
2025-11-22T00:00	6240	445	-40.7	-49.1	43	10	
2025-11-22T00:00	6260	443	-40.9	-49.1	45	10	
2025-11-22T00:00	6280	442	-41.1	-49.0	46	11	
2025-11-22T00:00	6300	441	-41.3	-49.4	46	11	
2025-11-22T00:00	6320	439	-41.4	-49.4	47	12	
2025-11-22T00:00	6340	438	-41.6	-49.4	48	12	
2025-11-22T00:00	6360	437	-41.8	-49.3	49	12	
2025-11-22T00:00	6380	436	-42.0	-49.6	51	12	
2025-11-22T00:00	6400	434	-42.1	-49.9	53	13	
2025-11-22T00:00	6420	433	-42.2	-50.5	55	13	
2025-11-22T00:00	6440	432	-42.3	-50.6	57	13	
2025-11-22T00:00	6460	430	-42.2	-51.5	58	14	
2025-11-22T00:00	6480	429	-42.2	-52.4	59	14	
2025-11-22T00:00	6500	428	-42.3	-53.8	60	14	
2025-11-22T00:00	6520	427	-42.2	-54.1	60	14	
2025-11-22T00:00	6540	425	-42.3	-53.6	60	15	
2025-11-22T00:00	6560	424	-42.5	-53.4	59	15	
2025-11-22T00:00	6580	423	-42.7	-53.5	60	15	
2025-11-22T00:00	6600	422	-42.8	-53.4	60	15	
2025-11-22T00:00	6620	420	-43.0	-52.9	61	15	
2025-11-22T00:00	6640	419	-43.2	-53.2	62	14	
2025-11-22T00:00	6660	418	-43.2	-53.7	64	14	
2025-11-22T00:00	6680	417	-43.2	-52.9	66	13	
2025-11-22T00:00	6700	415	-43.4	-52.8	66	12	
2025-11-22T00:00	6720	414	-43.5	-52.8	65	11	
2025-11-22T00:00	6740	413	-43.6	-52.9	64	11	
2025-11-22T00:00	6760	412	-43.6	-53.2	62	10	
2025-11-22T00:00	6780	411	-43.6	-54.1	59	10	
2025-11-22T00:00	6800	409	-43.7	-54.8	57	10	
2025-11-22T00:00	6820	408	-43.8	-55.5	54	9	
2025-11-22T00:00	6840	407	-43.9	-56.8	51	9	
2025-11-22T00:00	6860	406	-44.1	-56.7	48	9	
2025-11-22T00:00	6880	404	-44.2	-57.1	44	9	
2025-11-22T00:00	6900	403	-44.3	-57.5	42	9	
2025-11-22T00:00	6920	402	-44.0	-58.6	39	9	
2025-11-22T00:00	6940	401	-43.7	-59.7	38	9	
2025-11-22T00:00	6960	400	-43.7	-60.2	38	9	
2025-11-22T00:00	6980	398	-43.7	-60.1	39	9	
2025-11-22T00:00	7000	397	-43.9	-60.1	40	9	
2025-11-22T00:00	7020	396	-44.0	-60.0	43	10	
2025-11-22T00:00	7040	395	-44.2	-59.7	45	10	
2025-11-22T00:00	7060	394	-44.4	-59.8	48	10	
2025-11-22T00:00	7080	393	-44.5	-59.8	51	11	
2025-11-22T00:00	7100	391	-44.6	-60.2	52	11	
2025-11-22T00:00	7120	390	-44.7	-60.8	52	11	
2025-11-22T00:00	7140	389	-44.7	-62.0	52	11	
2025-11-22T00:00	7160	388	-44.6	-62.8	50	11	
2025-11-22T00:00	7180	387	-44.6	-62.7	47	11	
2025-11-22T00:00	7200	385	-44.6	-62.7	45	11	
2025-11-22T00:00	7220	384	-44.6	-62.7	43	11	
2025-11-22T00:00	7240	383	-44.7	-62.9	40	11	
2025-11-22T00:00	7260	382	-44.9	-63.0	38	12	
2025-11-22T00:00	7280	381	-45.0	-62.9	37	12	
2025-11-22T00:00	7300	380	-45.2	-63.1	35	13	
2025-11-22T00:00	7320	379	-45.2	-63.2	33	13	
2025-11-22T00:00	7340	377	-45.4	-63.2	31	14	
2025-11-22T00:00	7360	376	-45.5	-63.2	30	14	
2025-11-22T00:00	7380	375	-45.7	-63.3	28	14	
2025-11-22T00:00	7400	374	-45.9	-63.5	27	14	
2025-11-22T00:00	7420	373	-45.9	-63.5	26	14	
2025-11-22T00:00	7440	372	-46.0	-63.7	25	14	
2025-11-22T00:00	7460	371	-46.0	-63.8	25	14	
2025-11-22T00:00	7480	370	-46.2	-63.8	25	15	
2025-11-22T00:00	7500	368	-46.3	-63.7	25	15	
2025-11-22T00:00	7520	367	-46.5	-63.8	25	15	
2025-11-22T00:00	7540	366	-46.7	-63.8	24	15	
2025-11-22T00:00	7560	365	-46.9	-63.9	24	15	
2025-11-22T00:00	7580	364	-47.1	-63.9	24	15	
2025-11-22T00:00	7600	363	-47.2	-64.0	25	15	
2025-11-22T00:00	7620	362	-47.4	-64.0	26	14	
2025-11-22T00:00	7640	361	-47.6	-64.0	28	14	
2025-11-22T00:00	7660	360	-47.7	-63.9	29	14	
2025-11-22T00:00	7680	359	-47.9	-63.8	31	14	
2025-11-22T00:00	7700	357	-48.0	-63.8	33	14	
2025-11-22T00:00	7720	356	-48.2	-64.0	33	15	
2025-11-22T00:00	7740	355	-48.3	-64.1	34	15	
2025-11-22T00:00	7760	354	-48.4	-64.0	34	15	
2025-11-22T00:00	7780	353	-48.6	-63.9	34	15	
2025-11-22T00:00	7800	352	-48.8	-63.8	34	15	
2025-11-22T00:00	7820	351	-49.0	-64.0	35	16	
2025-11-22T00:00	7840	350	-49.1	-64.1	37	16	
2025-11-22T00:00	7860	349	-49.2	-64.0	38	16	
2025-11-22T00:00	7880	348	-49.3	-64.1	39	16	
2025-11-22T00:00	7900	347	-49.5	-64.1	40	16	
2025-11-22T00:00	7920	346	-49.6	-64.1	41	16	
2025-11-22T00:00	7940	345	-49.8	-64.1	41	16	
2025-11-22T00:00	7960	344	-50.0	-64.2	40	15	
2025-11-22T00:00	7980	343	-50.1	-64.4	39	15	
2025-11-22T00:00	8000	342	-50.0	-64.3	37	15	
2025-11-22T00:00	8020	341	-49.9	-64.3	36	15	
2025-11-22T00:00	8040	339	-50.1	-64.7	34	16	
2025-11-22T00:00	8060	338	-49.9	-65.1	33	16	
2025-11-22T00:00	8080	337	-49.9	-65.5	32	17	
2025-11-22T00:00	8100	336	-50.1	-65.7	32	18	
2025-11-22T00:00	8120	335	-50.3	-65.6	32	18	
2025-11-22T00:00	8140	334	-50.4	-65.6	32	19	
2025-11-22T00:00	8160	333	-50.5	-65.8	32	19	
2025-11-22T00:00	8180	332	-50.4	-66.0	32	19	
2025-11-22T00:00	8200	331	-50.3	-66.4	32	19	
2025-11-22T00:00	8220	330	-50.4	-66.6	32	19	
2025-11-22T00:00	8240	329	-50.4	-66.6	32	19	
2025-11-22T00:00	8260	328	-50.4	-66.6	31	19	
2025-11-22T00:00	8280	327	-50.5	-66.8	30	19	
2025-11-22T00:00	8300	326	-50.6	-66.9	29	20	
2025-11-22T00:00	8320	325	-50.6	-67.0	28	20	
2025-11-22T00:00	8340	324	-50.6	-67.3	28	21	
2025-11-22T00:00	8360	323	-50.7	-67.6	27	22	
2025-11-22T00:00	8380	322	-50.8	-68.0	26	23	
2025-11-22T00:00	8400	321	-50.8	-68.3	26	23	
2025-11-22T00:00	8420	320	-50.7	-68.5	25	24	
2025-11-22T00:00	8440	319	-50.8	-68.5	25	24	
2025-11-22T00:00	8460	318	-50.8	-68.5	26	24	
2025-11-22T00:00	8480	317	-50.8	-68.7	27	24	
2025-11-22T00:00	8500	316	-50.9	-68.6	27	24	
2025-11-22T00:00	8520	315	-51.0	-68.5	27	25	
2025-11-22T00:00	8540	314	-51.1	-68.6	28	25	
2025-11-22T00:00	8560	313	-51.1	-68.5	28	25	
2025-11-22T00:00	8580	312	-51.0	-68.4	28	26	
2025-11-22T00:00	8600	312	-50.9	-68.6	27	26	
2025-11-22T00:00	8620	311	-50.8	-68.8	27	26	
2025-11-22T00:00	8640	310	-50.8	-68.7	27	26	
2025-11-22T00:00	8660	309	-50.8	-68.3	27	26	
2025-11-22T00:00	8680	308	-50.8	-68.0	26	26	
2025-11-22T00:00	8700	307	-50.7	-67.9	26	26	
2025-11-22T00:00	8720	306	-50.6	-68.2	25	26	
2025-11-22T00:00	8740	305	-50.6	-68.5	24	26	
2025-11-22T00:00	8760	304	-50.7	-68.9	23	26	
2025-11-22T00:00	8780	303	-50.7	-69.3	22	26	
2025-11-22T00:00	8800	302	-50.6	-69.5	21	26	
2025-11-22T00:00	8820	301	-50.6	-69.9	20	26	
2025-11-22T00:00	8840	300	-50.7	-70.1	19	26	
2025-11-22T00:00	8860	299	-50.8	-70.1	18	26	
2025-11-22T00:00	8880	298	-50.9	-70.1	18	26	
2025-11-22T00:00	8900	297	-51.1	-70.2	18	25	
2025-11-22T00:00	8920	297	-51.2	-70.3	18	25	
2025-11-22T00:00	8940	296	-51.3	-70.3	18	25	
2025-11-22T00:00	8960	295	-51.2	-70.4	18	26	
2025-11-22T00:00	8980	294	-51.0	-70.2	19	26	
2025-11-22T00:00	9000	293	-50.9	-70.0	19	26	
2025-11-22T00:00	9020	292	-51.0	-69.9	20	26	
2025-11-22T00:00	9040	291	-51.1	-70.0	21	26	
2025-11-22T00:00	9060	290	-51.3	-70.0	22	26	
2025-11-22T00:00	9080	289	-51.4	-70.0	23	26	
2025-11-22T00:00	9100	288	-51.6	-69.9	23	26	
2025-11-22T00:00	9120	288	-51.7	-69.9	24	27	
2025-11-22T00:00	9140	287	-51.8	-69.9	24	27	
2025-11-22T00:00	9160	286	-51.9	-69.9	25	28	
2025-11-22T00:00	9180	285	-51.9	-70.0	25	28	
2025-11-22T00:00	9200	284	-51.9	-70.4	25	28	
2025-11-22T00:00	9220	283	-51.8	-70.7	26	28	
2025-11-22T00:00	9240	282	-51.8	-71.0	26	28	
2025-11-22T00:00	9260	281	-51.8	-71.1	25	28	
2025-11-22T00:00	9280	281	-51.7	-71.3	25	27	
2025-11-22T00:00	9300	280	-51.7	-71.5	24	27	
2025-11-22T00:00	9320	279	-51.7	-71.6	23	27	
2025-11-22T00:00	9340	278	-51.6	-71.6	22	26	
2025-11-22T00:00	9360	277	-51.6	-71.7	21	26	
2025-11-22T00:00	9380	276	-51.7	-71.8	20	26	
2025-11-22T00:00	9400	275	-51.9	-71.8	19	25	
2025-11-22T00:00	9420	275	-52.0	-71.9	19	25	
2025-11-22T00:00	9440	274	-52.1	-72.0	18	25	
2025-11-22T00:00	9460	273	-52.2	-72.1	18	24	
2025-11-22T00:00	9480	272	-52.3	-72.3	17	24	
2025-11-22T00:00	9500	271	-52.2	-72.6	18	24	
2025-11-22T00:00	9520	270	-52.1	-72.9	18	24	
2025-11-22T00:00	9540	270	-52.1	-73.1	19	24	
2025-11-22T00:00	9560	269	-52.0	-73.2	19	24	
2025-11-22T00:00	9580	268	-52.0	-73.1	20	24	
2025-11-22T00:00	9600	267	-52.0	-73.2	21	24	
2025-11-22T00:00	9620	266	-52.1	-73.3	21	23	
2025-11-22T00:00	9640	265	-52.2	-73.5	22	23	
2025-11-22T00:00	9660	265	-52.3	-73.6	22	23	
2025-11-22T00:00	9680	264	-52.4	-73.9	23	23	
2025-11-22T00:00	9700	263	-52.4	-74.0	23	23	
2025-11-22T00:00	9720	262	-52.6	-74.0	24	23	
2025-11-22T00:00	9740	261	-52.7	-74.0	24	23	
2025-11-22T00:00	9760	261	-52.9	-73.9	24	22	
2025-11-22T00:00	9780	260	-53.1	-73.9	25	22	
2025-11-22T00:00	9800	259	-53.2	-74.0	25	22	
2025-11-22T00:00	9820	258	-53.2	-74.0	25	22	
2025-11-22T00:00	9840	257	-53.4	-74.2	25	22	
2025-11-22T00:00	9860	256	-53.4	-74.4	25	21	
2025-11-22T00:00	9880	256	-53.4	-74.4	26	21	
2025-11-22T00:00	9900	255	-53.5	-74.7	26	21	
2025-11-22T00:00	9920	254	-53.4	-74.9	27	21	
2025-11-22T00:00	9940	253	-53.3	-75.1	27	20	
2025-11-22T00:00	9960	253	-53.2	-75.2	27	20	
2025-11-22T00:00	9980	252	-53.2	-75.4	27	20	
2025-11-22T00:00	10000	251	-53.1	-75.6	26	20	
2025-11-22T00:00	10018	250	-53.2	-75.7	25	20	
2025-11-22T00:00	10050	249	-53.3	-75.7	24	21	
2025-11-22T00:00	10100	247	-53.6	-75.8	21	21	
2025-11-22T00:00	10150	245	-53.7	-76.0	18	22	
2025-11-22T00:00	10200	243	-53.5	-76.5	15	22	
2025-11-22T00:00	10250	241	-52.9	-76.4	13	22	
2025-11-22T00:00	10300	240	-52.9	-76.4	11	22	
2025-11-22T00:00	10350	238	-53.0	-76.4	9	22	
2025-11-22T00:00	10400	236	-53.3	-76.6	9	22	
2025-11-22T00:00	10450	234	-53.1	-76.8	10	21	
2025-11-22T00:00	10500	232	-53.0	-76.9	11	20	
2025-11-22T00:00	10550	230	-52.9	-77.3	13	20	
2025-11-22T00:00	10600	229	-52.7	-77.6	13	19	
2025-11-22T00:00	10650	227	-53.0	-77.4	15	19	
2025-11-22T00:00	10700	225	-53.2	-78.0	17	18	
2025-11-22T00:00	10750	223	-53.5	-78.1	17	18	
2025-11-22T00:00	10800	222	-53.8	-78.3	15	17	
2025-11-22T00:00	10850	220	-54.0	-78.4	11	17	
2025-11-22T00:00	10900	218	-53.7	-78.6	6	16	
2025-11-22T00:00	10950	217	-53.3	-78.8	2	16	
2025-11-22T00:00	11000	215	-52.9	-78.7	360	16	
2025-11-22T00:00	11050	213	-52.7	-78.7	358	15	
2025-11-22T00:00	11100	212	-53.0	-79.0	354	14	
2025-11-22T00:00	11150	210	-53.3	-79.1	350	14	
2025-11-22T00:00	11200	208	-53.3	-79.3	348	13	
2025-11-22T00:00	11250	207	-53.0	-79.3	349	14	
2025-11-22T00:00	11300	205	-53.3	-79.3	350	14	
2025-11-22T00:00	11350	203	-53.8	-79.3	352	14	
2025-11-22T00:00	11400	202	-54.0	-79.5	353	14	
2025-11-22T00:00	11450	200	-53.9	-79.5	353	14	
2025-11-22T00:00	11500	199	-54.3	-79.6	354	15	
2025-11-22T00:00	11550	197	-54.6	-79.8	356	15	
2025-11-22T00:00	11600	196	-54.7	-79.9	360	15	
2025-11-22T00:00	11650	194	-54.8	-80.0	4	15	
2025-11-22T00:00	11700	193	-55.1	-80.2	8	14	
2025-11-22T00:00	11750	191	-55.3	-80.3	10	13	
2025-11-22T00:00	11800	190	-55.1	-80.4	12	12	
2025-11-22T00:00	11850	188	-54.9	-80.5	15	11	
2025-11-22T00:00	11900	187	-54.9	-80.5	20	11	
2025-11-22T00:00	11950	185	-55.0	-80.6	22	10	
2025-11-22T00:00	12000	184	-55.4	-80.6	21	10	
2025-11-22T00:00	12050	182	-55.6	-80.8	18	10	
2025-11-22T00:00	12100	181	-55.9	-80.9	14	10	
2025-11-22T00:00	12150	180	-56.0	-81.0	7	10	
2025-11-22T00:00	12200	178	-56.3	-81.1	2	11	
2025-11-22T00:00	12250	177	-56.5	-81.3	359	13	
2025-11-22T00:00	12300	175	-56.5	-81.3	355	14	
2025-11-22T00:00	12350	174	-56.5	-81.4	351	14	
2025-11-22T00:00	12400	173	-56.5	-81.5	347	15	
2025-11-22T00:00	12450	171	-56.2	-81.5	346	15	
2025-11-22T00:00	12500	170	-56.0	-81.6	344	15	
2025-11-22T00:00	12550	169	-55.7	-81.6	342	15	
2025-11-22T00:00	12600	167	-55.6	-81.6	339	15	
2025-11-22T00:00	12650	166	-55.7	-81.6	338	15	
2025-11-22T00:00	12700	165	-55.6	-81.7	339	14	
2025-11-22T00:00	12750	163	-55.3	-81.6	340	14	
2025-11-22T00:00	12800	162	-55.2	-81.6	341	14	
2025-11-22T00:00	12850	161	-55.4	-81.6	343	14	
2025-11-22T00:00	12900	160	-55.6	-81.8	343	14	
2025-11-22T00:00	12950	158	-55.7	-81.9	340	15	
2025-11-22T00:00	13000	157	-55.5	-81.8	336	14	
2025-11-22T00:00	13050	156	-55.3	-81.9	334	13	
2025-11-22T00:00	13100	155	-55.0	-82.0	334	13	
2025-11-22T00:00	13150	153	-54.7	-82.0	334	13	
2025-11-22T00:00	13200	152	-54.7	-82.0	331	14	
2025-11-22T00:00	13250	151	-54.9	-82.1	327	13	
2025-11-22T00:00	13300	150	-54.8	-82.1	323	13	
2025-11-22T00:00	13350	149	-54.1	-82.0	321	13	
2025-11-22T00:00	13400	148	-54.0	-82.0	319	13	
2025-11-22T00:00	13450	146	-54.1	-81.8	316	14	
2025-11-22T00:00	13500	145	-54.1	-81.8	315	13	
2025-11-22T00:00	13550	144	-54.0	-81.8	317	12	
2025-11-22T00:00	13600	143	-54.1	-81.8	318	11	
2025-11-22T00:00	13650	142	-54.3	-81.8	318	11	
2025-11-22T00:00	13700	141	-54.6	-82.0	321	10	
2025-11-22T00:00	13750	140	-54.8	-82.0	326	9	
2025-11-22T00:00	13800	139	-55.0	-82.1	328	9	
2025-11-22T00:00	13850	138	-55.2	-82.2	326	8	
2025-11-22T00:00	13900	136	-55.2	-82.3	322	8	
2025-11-22T00:00	13950	135	-55.1	-82.3	318	8	
2025-11-22T00:00	14000	134	-55.2	-82.4	314	8	
2025-11-22T00:00	14050	133	-55.5	-82.4	310	8	
2025-11-22T00:00	14100	132	-55.9	-82.5	307	9	
2025-11-22T00:00	14150	131	-56.2	-82.6	309	9	
2025-11-22T00:00	14200	130	-56.5	-82.7	314	9	
2025-11-22T00:00	14250	129	-56.8	-82.8	319	9	
2025-11-22T00:00	14300	128	-57.2	-82.9	322	10	
2025-11-22T00:00	14350	127	-57.7	-83.1	320	11	
2025-11-22T00:00	14400	126	-57.8	-83.3	315	12	
2025-11-22T00:00	14450	125	-57.8	-83.3	312	13	
2025-11-22T00:00	14500	124	-57.8	-83.3	311	13	
2025-11-22T00:00	14550	123	-58.0	-83.3	311	14	
2025-11-22T00:00	14600	122	-58.3	-83.5	311	14	
2025-11-22T00:00	14650	121	-58.3	-83.5	311	14	
2025-11-22T00:00	14700	120	-58.5	-83.6	309	14	
2025-11-22T00:00	14750	119	-58.7	-83.8	307	13	
2025-11-22T00:00	14800	118	-58.7	-83.9	306	13	
2025-11-22T00:00	14850	117	-58.6	-83.8	307	12	
2025-11-22T00:00	14900	116	-58.7	-83.9	308	11	
2025-11-22T00:00	14950	116	-58.8	-84.0	310	11	
2025-11-22T00:00	15000	115	-59.1	-84.0	310	11	
2025-11-22T00:00	15050	114	-59.3	-84.1	307	11	
2025-11-22T00:00	15100	113	-59.4	-84.3	304	12	
2025-11-22T00:00	15150	112	-59.3	-84.3	303	12	
2025-11-22T00:00	15200	111	-59.2	-84.3	301	13	
2025-11-22T00:00	15250	110	-59.1	-84.3	297	13	
2025-11-22T00:00	15300	109	-59.3	-84.4	293	13	
2025-11-22T00:00	15350	108	-59.4	-84.4	291	13	
2025-11-22T00:00	15400	108	-59.6	-84.5	290	14	
2025-11-22T00:00	15450	107	-59.6	-84.5	291	14	
2025-11-22T00:00	15500	106	-59.6	-84.6	290	15	
2025-11-22T00:00	15550	105	-59.5	-84.7	289	15	
2025-11-22T00:00	15600	104	-59.6	-84.7	289	15	
2025-11-22T00:00	15650	103	-59.6	-84.6	289	14	
2025-11-22T00:00	15700	103	-59.7	-84.7	290	14	
2025-11-22T00:00	15750	102	-59.8	-84.7	290	14	
2025-11-22T00:00	15800	101	-60.1	-84.8	288	14	
2025-11-22T00:00	15850	100	-60.3	-84.9	285	16	
2025-11-22T00:00	15900	99	-60.5	-85.1	282	17	
2025-11-22T00:00	15950	98	-60.2	-85.0	280	18	
2025-11-22T00:00	16000	98	-59.9	-84.9	279	18	
2025-11-22T00:00	16050	97	-60.2	-85.1	278	18	
2025-11-22T00:00	16100	96	-60.3	-85.2	277	18	
2025-11-22T00:00	16150	95	-60.0	-85.1	276	18	
2025-11-22T00:00	16200	95	-59.9	-85.1	276	18	
2025-11-22T00:00	16250	94	-60.2	-85.2	276	18	
2025-11-22T00:00	16300	93	-60.4	-85.3	276	18	
2025-11-22T00:00	16350	92	-60.4	-85.2	276	18	
2025-11-22T00:00	16400	92	-60.4	-85.4	273	18	
2025-11-22T00:00	16450	91	-60.2	-85.4	270	19	
2025-11-22T00:00	16500	90	-59.9	-85.6	266	20	
2025-11-22T00:00	16550	89	-59.1	-85.2	263	21	
2025-11-22T00:00	16600	89	-59.2	-85.2	260	22	
2025-11-22T00:00	16650	88	-59.5	-85.2	259	22	
2025-11-22T00:00	16700	87	-59.6	-85.2	258	22	
2025-11-22T00:00	16750	87	-59.7	-85.2	258	21	
2025-11-22T00:00	16800	86	-59.8	-85.5	257	20	
2025-11-22T00:00	16850	85	-59.1	-85.3	255	19	
2025-11-22T00:00	16900	85	-58.8	-85.2	253	19	
2025-11-22T00:00	16950	84	-59.0	-85.1	254	19	
2025-11-22T00:00	17000	83	-59.3	-85.2	256	19	
2025-11-22T00:00	17050	83	-59.7	-85.3	259	19	
2025-11-22T00:00	17100	82	-60.0	-85.3	264	19	
2025-11-22T00:00	17150	81	-60.1	-85.5	269	19	
2025-11-22T00:00	17200	81	-60.1	-85.4	274	18	
2025-11-22T00:00	17250	80	-60.4	-85.5	276	18	
2025-11-22T00:00	17300	79	-60.5	-85.5	278	18	
2025-11-22T00:00	17350	79	-60.7	-85.6	279	18	
2025-11-22T00:00	17400	78	-60.8	-85.7	281	18	
2025-11-22T00:00	17450	77	-60.8	-85.7	282	18	
2025-11-22T00:00	17500	77	-60.9	-85.8	284	18	
2025-11-22T00:00	17550	76	-61.0	-85.9	287	18	
2025-11-22T00:00	17600	76	-60.9	-86.0	290	19	
2025-11-22T00:00	17650	75	-60.8	-86.0	292	19	
2025-11-22T00:00	17700	74	-60.6	-86.0	293	18	
2025-11-22T00:00	17750	74	-60.7	-86.1	292	18	
2025-11-22T00:00	17800	73	-60.7	-86.0	289	18	
2025-11-22T00:00	17850	73	-60.7	-86.0	286	18	
2025-11-22T00:00	17900	72	-60.8	-86.0	283	19	
2025-11-22T00:00	17950	71	-60.7	-85.9	280	20	
2025-11-22T00:00	18000	71	-61.1	-85.9	279	21	
2025-11-22T00:00	18050	70	-61.5	-85.9	279	22	
2025-11-22T00:00	18100	70	-61.7	-86.0	279	23	
2025-11-22T00:00	18150	69	-62.0	-86.2	279	23	
2025-11-22T00:00	18200	69	-62.2	-86.3	279	22	
2025-11-22T00:00	18250	68	-62.2	-86.4	278	22	
2025-11-22T00:00	18300	68	-61.9	-86.4	277	21	
2025-11-22T00:00	18350	67	-62.0	-86.5	276	21	
2025-11-22T00:00	18400	66	-62.1	-86.5	275	22	
2025-11-22T00:00	18450	66	-62.2	-86.7	274	22	
2025-11-22T00:00	18500	65	-62.0	-86.6	272	22	
2025-11-22T00:00	18550	65	-62.0	-86.6	270	22	
2025-11-22T00:00	18600	64	-62.1	-86.6	267	22	
2025-11-22T00:00	18650	64	-62.3	-86.6	266	22	
2025-11-22T00:00	18700	63	-62.5	-86.7	267	22	
2025-11-22T00:00	18750	63	-62.5	-86.8	269	22	
2025-11-22T00:00	18800	62	-62.4	-86.8	270	22	
2025-11-22T00:00	18850	62	-62.5	-86.8	270	22	
2025-11-22T00:00	18900	61	-62.7	-86.8	270	21	
2025-11-22T00:00	18950	61	-63.0	-86.8	271	21	
2025-11-22T00:00	19000	60	-63.3	-87.0	271	20	
2025-11-22T00:00	19050	60	-63.2	-86.9	270	19	
2025-11-22T00:00	19100	59	-63.6	-87.1	270	19	
2025-11-22T00:00	19150	59	-63.8	-87.2	270	20	
2025-11-22T00:00	19200	58	-63.9	-87.2	269	21	
2025-11-22T00:00	19250	58	-64.2	-87.3	268	22	
2025-11-22T00:00	19300	57	-64.3	-87.5	266	23	
2025-11-22T00:00	19350	57	-64.3	-87.6	266	22	
2025-11-22T00:00	19400	56	-63.9	-87.5	265	20	
2025-11-22T00:00	19450	56	-63.8	-87.4	265	20	
2025-11-22T00:00	19500	56	-63.9	-87.5	265	20	
2025-11-22T00:00	19550	55	-64.0	-87.4	264	21	
2025-11-22T00:00	19600	55	-64.2	-87.5	264	22	
2025-11-22T00:00	19650	54	-64.4	-87.5	264	23	
2025-11-22T00:00	19700	54	-64.3	-87.3	264	23	
2025-11-22T00:00	19750	53	-64.6	-87.5	264	23	
2025-11-22T00:00	19800	53	-64.7	-87.5	264	22	
2025-11-22T00:00	19850	52	-64.7	-87.5	264	22	
2025-11-22T00:00	19900	52	-64.8	-87.6	264	22	
2025-11-22T00:00	19950	52	-64.8	-87.5	264	23	
2025-11-22T00:00	20000	51	-65.1	-87.6	264	23	
2025-11-22T00:00	20050	51	-65.3		265	22	
2025-11-22T00:00	20100	50	-65.4		267	21	
2025-11-22T00:00	20150	50	-65.6		268	21	
2025-11-22T00:00	20200	50	-65.8		269	20	
2025-11-22T00:00	20250	49	-65.9		270	20	
2025-11-22T00:00	20300	49	-65.9		269	20	
2025-11-22T00:00	20350	48	-65.8		266	20	
2025-11-22T00:00	20400	48	-65.6		262	20	
2025-11-22T00:00	20450	48	-65.7		257	20	
2025-11-22T00:00	20500	47	-65.9		254	20	
2025-11-22T00:00	20550	47	-66.2		251	20	
2025-11-22T00:00	20600	46	-66.2		249	21	
2025-11-22T00:00	20650	46	-66.0		249	22	
2025-11-22T00:00	20700	46	-66.0		251	22	
2025-11-22T00:00	20750	45	-66.2		252	23	
2025-11-22T00:00	20800	45	-66.0		250	22	
2025-11-22T00:00	20850	45	-66.3		249	22	
2025-11-22T00:00	20900	44	-66.1		249	23	
2025-11-22T00:00	20950	44	-65.0		250	24	
2025-11-22T00:00	21000	43	-65.0		251	25	
2025-11-22T00:00	21050	43	-65.0		250	25	
2025-11-22T00:00	21100	43	-64.9		250	25	
2025-11-22T00:00	21150	42	-65.2		252	24	
2025-11-22T00:00	21200	42	-65.4		252	24	
2025-11-22T00:00	21250	42	-65.4		252	23	
2025-11-22T00:00	21300	41	-65.1		251	23	
2025-11-22T00:00	21350	41	-65.2		251	24	
2025-11-22T00:00	21400	41	-65.6		252	24	
2025-11-22T00:00	21450	40	-65.8		252	25	
2025-11-22T00:00	21500	40	-66.1		254	25	
2025-11-22T00:00	21550	40	-66.3		254	26	
2025-11-22T00:00	21600	39	-66.0		253	26	
2025-11-22T00:00	21650	39	-66.2		252	25	
2025-11-22T00:00	21700	39	-66.5		252	25	
2025-11-22T00:00	21750	38	-66.8		253	24	
2025-11-22T00:00	21800	38	-67.2		254	24	
2025-11-22T00:00	21850	38	-67.2		254	23	
2025-11-22T00:00	21900	37	-67.2		256	24	
2025-11-22T00:00	21950	37	-67.2		259	25	
2025-11-22T00:00	22000	37	-66.9		260	26	
2025-11-22T00:00	22050	37	-66.7		258	26	
2025-11-22T00:00	22100	36	-66.8		255	26	
2025-11-22T00:00	22150	36	-66.9		253	27	
2025-11-22T00:00	22200	36	-67.3		253	27	
2025-11-22T00:00	22250	35	-67.6		255	27	
2025-11-22T00:00	22300	35	-67.5		257	27	
2025-11-22T00:00	22350	35	-67.8		258	27	
2025-11-22T00:00	22400	34	-67.9		259	29	
2025-11-22T00:00	22450	34	-68.0		260	30	
2025-11-22T00:00	22500	34	-68.1		261	31	
2025-11-22T00:00	22550	34	-68.2		263	32	
2025-11-22T00:00	22600	33	-68.1		262	34	
2025-11-22T00:00	22650	33	-67.8		261	36	
2025-11-22T00:00	22700	33	-67.8		261	38	
2025-11-22T00:00	22750	32	-67.8		261	39	
2025-11-22T00:00	22800	32	-67.7		262	41	
2025-11-22T00:00	22850	32	-67.0		263	42	
2025-11-22T00:00	22900	32	-66.7		264	42	
2025-11-22T00:00	22950	31	-67.1		265	41	
2025-11-22T00:00	23000	31	-67.5		266	41	
2025-11-22T00:00	23050	31	-67.8		267	41	
2025-11-22T00:00	23100	31	-67.7		268	40	
2025-11-22T00:00	23150	30	-67.6		269	40	
2025-11-22T00:00	23200	30	-67.5		270	39	
2025-11-22T00:00	23250	30	-67.8		270	39	
2025-11-22T00:00	23300	30	-68.2		270	39	
2025-11-22T00:00	23350	29	-68.2		271	38	
2025-11-22T00:00	23400	29	-67.8		272	37	
2025-11-22T00:00	23450	29	-67.8		272	37	
2025-11-22T00:00	23500	29	-67.6		271	36	
2025-11-22T00:00	23550	28	-66.6		269	36	
2025-11-22T00:00	23600	28	-65.9		267	36	
2025-11-22T00:00	23650	28	-66.0		266	38	
2025-11-22T00:00	23700	28	-66.0		265	39	
2025-11-22T00:00	23750	28	-66.1		265	40	
2025-11-22T00:00	23800	27	-65.9		265	40	
2025-11-22T00:00	23850	27	-65.9		266	40	
2025-11-22T00:00	23900	27	-65.0		266	40	
2025-11-22T00:00	23950	27	-64.5		266	41	
2025-11-22T00:00	24000	26	-64.3		266	42	
2025-11-22T00:00	24050	26	-64.5		266	43	
2025-11-22T00:00	24100	26	-64.7		265	45	
2025-11-22T00:00	24150	26	-65.1		263	46	
2025-11-22T00:00	24200	26	-64.7		262	46	
2025-11-22T00:00	24250	25	-64.0		261	45	
2025-11-22T00:00	24300	25	-63.3		261	44	
2025-11-22T00:00	24350	25	-63.3		260	43	
2025-11-22T00:00	24400	25	-63.5		259	41	
2025-11-22T00:00	24450	25	-63.7		257	41	
2025-11-22T00:00	24500	24	-63.3		255	41	
2025-11-22T00:00	24550	24	-62.7		253	42	
2025-11-22T00:00	24600	24	-62.6		252	43	
2025-11-22T00:00	24650	24	-62.2		251	44	
2025-11-22T00:00	24700	24	-62.0		251	45	
2025-11-22T00:00	24750	23	-62.1		250	45	
2025-11-22T00:00	24800	23	-61.7		250	45	
2025-11-22T00:00	24850	23	-61.5		250	44	
2025-11-22T00:00	24900	23	-61.0		250	44	
2025-11-22T00:00	24950	23	-60.6		250	44	
2025-11-22T00:00	25000	22	-59.8		250	44	
2025-11-22T00:00	25050	22	-59.6		251	44	
2025-11-22T00:00	25100	22	-59.3		251	44	
2025-11-22T00:00	25150	22	-59.2		251	45	
2025-11-22T00:00	25200	22	-59.5		251	46	
2025-11-22T00:00	25250	22	-59.3		252	47	
2025-11-22T00:00	25300	21	-59.2		251	47	
2025-11-22T00:00	25350	21	-59.3		250	47	
2025-11-22T00:00	25400	21	-59.4		249	47	
2025-11-22T00:00	25450	21	-59.4		247	47	
2025-11-22T00:00	25500	21	-59.6		246	47	
2025-11-22T00:00	25550	21	-59.3		244	47	
2025-11-22T00:00	25600	20	-58.9		243	47	
2025-11-22T00:00	25650	20	-59.0		243	47	
2025-11-22T00:00	25700	20	-59.3		243	47	
2025-11-22T00:00	25750	20	-59.7		243	47	
2025-11-22T00:00	25800	20	-60.1		243	47	
2025-11-22T00:00	25850	20	-60.6		244	47	
2025-11-22T00:00	25900	19	-61.0		244	47	
2025-11-22T00:00	25950	19	-61.4		245	47	
2025-11-22T00:00	26000	19	-61.7		245	47	
2025-11-22T00:00	26050	19	-61.8		246	47	
2025-11-22T00:00	26100	19	-62.1		247	47	
2025-11-22T00:00	26150	19	-62.1		246	48	
2025-11-22T00:00	26200	19	-62.2		246	48	
2025-11-22T00:00	26250	18	-62.6		245	49	
2025-11-22T00:00	26300	18	-62.8		246	50	
2025-11-22T00:00	26350	18	-63.0		247	51	
2025-11-22T00:00	26400	18	-63.1		249	51	
2025-11-22T00:00	26450	18	-62.7		250	53	
2025-11-22T00:00	26500	18	-62.3		251	54	
2025-11-22T00:00	26550	18	-61.9		252	55	
2025-11-22T00:00	26600	17	-61.9		253	55	
2025-11-22T00:00	26650	17	-61.9		254	54	
2025-11-22T00:00	26700	17	-62.0		256	54	
2025-11-22T00:00	26750	17	-61.9		257	54	
2025-11-22T00:00	26800	17	-61.9		257	54	
2025-11-22T00:00	26850	17	-61.6		258	54	
2025-11-22T00:00	26900	17	-61.5		259	54	
2025-11-22T00:00	26950	16	-61.4		259	54	
2025-11-22T00:00	27000	16	-61.2		259	55	
2025-11-22T00:00	27050	16	-60.9		258	56	
2025-11-22T00:00	27100	16	-60.9		259	56	
2025-11-22T00:00	27150	16	-60.7		261	56	
2025-11-22T00:00	27200	16	-60.7		262	56	
2025-11-22T00:00	27250	16	-60.6		263	55	
2025-11-22T00:00	27300	16	-60.4		264	54	
2025-11-22T00:00	27350	15	-60.7		264	54	
2025-11-22T00:00	27400	15	-60.8		264	54	
2025-11-22T00:00	27450	15	-60.9		263	54	
2025-11-22T00:00	27500	15	-60.8		262	54	
2025-11-22T00:00	27550	15	-61.1		261	54	
2025-11-22T00:00	27600	15	-61.3		260	54	
2025-11-22T00:00	27650	15	-61.6		260	55	
2025-11-22T00:00	27700	15	-61.6		260	56	
2025-11-22T00:00	27750	14	-61.6		260	57	
2025-11-22T00:00	27800	14	-61.5		260	58	
2025-11-22T00:00	27850	14	-61.7		261	59	
2025-11-22T00:00	27900	14	-61.9		261	60	
2025-11-22T00:00	27950	14	-61.8		261	60	
2025-11-22T00:00	28000	14	-61.8		260	60	
2025-11-22T00:00	28050	14	-61.7		260	60	
2025-11-22T00:00	28100	14	-61.7		259	60	
2025-11-22T00:00	28150	14	-61.7		259	60	
2025-11-22T00:00	28200	13	-61.7		260	60	
2025-11-22T00:00	28250	13	-61.9		260	60	
2025-11-22T00:00	28300	13	-62.1		261	60	
2025-11-22T00:00	28350	13	-62.3		262	61	
2025-11-22T00:00	28400	13	-62.6		263	61	
2025-11-22T00:00	28450	13	-62.8		264	61	
2025-11-22T00:00	28500	13	-63.1		265	61	
2025-11-22T00:00	28550	13	-63.2		266	62	
2025-11-22T00:00	28600	13	-63.2		267	62	
2025-11-22T00:00	28650	12	-62.8		268	63	
2025-11-22T00:00	28700	12	-62.6		269	63	
2025-11-22T00:00	28750	12	-62.5		269	64	
2025-11-22T00:00	28800	12	-62.0		269	65	
2025-11-22T00:00	28850	12	-61.5		269	66	
2025-11-22T00:00	28900	12	-61.2		270	66	
2025-11-22T00:00	28950	12	-61.1		270	67	
2025-11-22T00:00	29000	12	-61.1		270	67	
2025-11-22T00:00	29050	12	-60.8		270	67	
2025-11-22T00:00	29100	12	-60.5		270	68	
2025-11-22T00:00	29150	11	-60.6		269	69	
2025-11-22T00:00	29200	11	-60.2		269	71	
2025-11-22T00:00	29250	11	-59.9		269	72	
2025-11-22T00:00	29300	11	-59.8		268	74	
2025-11-22T00:00	29350	11	-59.5		268	75	
2025-11-22T00:00	29400	11	-58.7		268	76	
2025-11-22T00:00	29450	11	-58.6		268	77	
2025-11-22T00:00	29500	11	-58.2		269	78	
2025-11-22T00:00	29550	11	-57.9		269	81	
2025-11-22T00:00	29600	11	-57.5		270	82	
2025-11-22T00:00	29650	11	-57.1		270	84	
2025-11-22T00:00	29700	11	-56.6		270	85	
2025-11-22T00:00	29750	10	-56.1		271	85	
2025-11-22T00:00	29800	10	-55.9		271	84	
2025-11-22T00:00	29850	10	-55.7		272	82	
2025-11-22T00:00	29900	10	-55.7		272	81	
2025-11-22T00:00	29950	10	-55.2		272	82	
2025-11-22T00:00	30000	10	-54.5		271	83	
2025-11-22T00:00	30050	10	-54.1		270	85	
2025-11-22T00:00	30100	10	-53.7		269	86	
2025-11-22T00:00	30150	10	-53.3		268	87	
2025-11-22T00:00	30200	10	-52.6		268	87	
2025-11-22T00:00	30250	10	-52.4		268	86	
2025-11-22T00:00	30300	10	-52.2		268	86	
2025-11-22T00:00	30350	10	-52.4		268	86	
2025-11-22T00:00	30400	9	-52.6		268	86	
2025-11-22T00:00	30450	9	-52.6		268	86	
2025-11-22T00:00	30500	9	-52.6		267	87	
2025-11-22T00:00	30550	9	-52.5		267	87	
2025-11-22T00:00	30600	9	-52.3		267	88	
2025-11-22T00:00	30650	9	-52.0		267	88	
2025-11-22T00:00	30700	9	-51.8		267	88	
2025-11-22T00:00	30750	9	-51.8		268	88	
2025-11-22T00:00	30800	9	-51.8		268	88	
2025-11-22T00:00	30850	9	-51.6		269	88	
2025-11-22T00:00	30900	9	-51.5		269	88	
2025-11-22T00:00	30950	9	-51.6		269	87	
2025-11-22T00:00	31000	9	-51.4		268	87	
2025-11-22T00:00	31050	9	-51.0		266	86	
2025-11-22T00:00	31100	8	-50.5		266	86	
2025-11-22T00:00	31150	8	-49.7		267	85	
2025-11-22T00:00	31200	8	-49.1		268	86	
2025-11-22T00:00	31250	8	-48.4		270	86	
2025-11-22T00:00	31300	8	-47.7		270	87	
2025-11-22T00:00	31350	8	-47.2		269	87	
2025-11-22T00:00	31400	8	-46.3		266	86	
2025-11-22T00:00	31450	8	-45.9		265	86	
2025-11-22T00:00	31500	8	-45.3		264	86	
2025-11-22T00:00	31550	8	-44.8		265	87	
2025-11-22T00:00	31600	8	-44.6		264	87	
2025-11-22T00:00	31650	8	-44.5		264	88	
2025-11-22T00:00	31700	8	-43.7		263	89	
2025-11-22T00:00	31750	8	-43.2		263	89	
2025-11-22T00:00	31800	8	-43.0		263	89	
2025-11-22T00:00	31850	8	-42.5		263	90	
2025-11-22T00:00	31900	8	-42.2		263	90	
2025-11-22T00:00	31950	7	-42.1		262	90	
2025-11-22T00:00	32000	7	-42.0		262	90	
2025-11-22T00:00	32050	7	-42.0		261	90	
2025-11-22T00:00	32100	7	-41.8		261	91	
2025-11-22T00:00	32150	7	-41.7		260	92	
2025-11-22T00:00	32200	7	-41.6		259	93	
2025-11-22T00:00	32250	7	-41.7		258	94	
2025-11-22T00:00	32300	7	-41.5		257	94	
2025-11-22T00:00	32350	7	-41.1		257	95	
2025-11-22T00:00	32400	7	-41.2		257	95	
2025-11-22T00:00	32450	7	-41.4		258	96	
2025-11-22T00:00	32500	7	-41.4		258	97	
2025-11-22T00:00	32550	7	-41.6		258	98	
2025-11-22T00:00	32600	7	-41.8		258	99	
2025-11-22T00:00	32650	7	-42.2		258	99	
2025-11-22T00:00	32700	7	-42.7		258	100	
2025-11-22T00:00	32750	7	-43.0		258	101	
2025-11-22T00:00	32800	7	-43.4		258	101	
2025-11-22T00:00	32850	7	-43.7		258	102	
2025-11-22T00:00	32900	6	-43.5		258	103	
2025-11-22T00:00	32950	6	-42.8		258	104	
2025-11-22T00:00	33000	6	-42.1		259	105	
2025-11-22T00:00	33050	6	-41.2		260	105	
2025-11-22T00:00	33100	6	-40.9		261	104	
2025-11-22T00:00	33150	6	-41.2		261	102	
2025-11-22T00:00	33200	6	-41.3		262	101	
2025-11-22T00:00	33250	6	-41.1		261	100	
2025-11-22T00:00	33300	6	-40.9		261	100	
2025-11-22T00:00	33350	6	-40.5		261	100	
2025-11-22T00:00	33400	6	-39.5		261	100	
2025-11-22T00:00	33450	6	-38.9		262	100	
2025-11-22T00:00	33500	6	-38.4		262	100	
2025-11-22T00:00	33550	6	-38.1		262	99	
2025-11-22T00:00	33600	6	-38.3		261	100	
2025-11-22T00:00	33650	6	-38.0		261	100	
2025-11-22T00:00	33700	6	-36.9		260	101	
2025-11-22T00:00	33750	6	-36.4		260	101	
2025-11-22T00:00	33800	6	-36.5		260	101	
2025-11-22T00:00	33850	6	-36.7		260	101	
2025-11-22T00:00	33900	6	-36.8		260	102	
2025-11-22T00:00	33950	6	-36.6		259	103	
2025-11-22T00:00	34000	6	-36.4		259	105	
2025-11-22T00:00	34050	5	-36.3		260	105	
2025-11-22T12:00	491	967	-0.4	-4.8	40	4	
2025-11-22T12:00	501	965	-0.9	-4.8	44	2	
2025-11-22T12:00	520	964	-1.3	-5.1	54	1	
2025-11-22T12:00	540	961	-1.5	-5.3	56	2	
2025-11-22T12:00	560	958	-1.7	-5.4	56	3	
2025-11-22T12:00	580	956	-1.9	-5.5	54	3	
2025-11-22T12:00	600	954	-2.2	-5.7	50	4	
2025-11-22T12:00	620	951	-2.5	-5.7	47	4	
2025-11-22T12:00	640	949	-2.7	-5.8	44	4	
2025-11-22T12:00	660	947	-2.8	-5.8	42	5	
2025-11-22T12:00	680	944	-3.0	-6.0	40	5	
2025-11-22T12:00	700	942	-3.1	-6.5	40	5	
2025-11-22T12:00	720	939	-3.3	-6.6	42	5	
2025-11-22T12:00	740	937	-3.5	-6.6	44	5	
2025-11-22T12:00	760	935	-3.7	-6.6	48	5	
2025-11-22T12:00	780	932	-3.9	-6.8	50	6	
2025-11-22T12:00	800	930	-4.0	-6.9	53	6	
2025-11-22T12:00	820	928	-4.2	-6.9	55	6	
2025-11-22T12:00	840	925	-4.4	-7.0	57	6	
2025-11-22T12:00	860	923	-4.5	-7.3	57	6	
2025-11-22T12:00	880	921	-4.5	-7.5	58	6	
2025-11-22T12:00	900	918	-4.7	-7.5	59	6	
2025-11-22T12:00	920	916	-4.9	-7.6	61	6	
2025-11-22T12:00	940	914	-5.1	-7.6	63	7	
2025-11-22T12:00	960	911	-5.3	-7.7	65	7	
2025-11-22T12:00	980	909	-5.5	-7.8	67	7	
2025-11-22T12:00	1000	907	-5.6	-7.8	68	8	
2025-11-22T12:00	1020	904	-5.8	-7.8	69	8	
2025-11-22T12:00	1040	902	-6.0	-7.8	68	9	
2025-11-22T12:00	1060	900	-6.1	-8.2	66	9	
2025-11-22T12:00	1080	897	-6.2	-8.6	64	9	
2025-11-22T12:00	1100	895	-6.4	-8.5	63	10	
2025-11-22T12:00	1120	892	-6.6	-8.6	62	10	
2025-11-22T12:00	1140	890	-6.8	-9.0	62	11	
2025-11-22T12:00	1160	888	-6.5	-10.6	62	11	
2025-11-22T12:00	1180	886	-6.5	-10.9	62	11	
2025-11-22T12:00	1200	884	-6.6	-11.5	64	12	
2025-11-22T12:00	1220	881	-6.5	-12.8	65	12	
2025-11-22T12:00	1240	879	-6.4	-14.2	66	12	
2025-11-22T12:00	1260	877	-6.1	-16.1	67	12	
2025-11-22T12:00	1280	875	-6.1	-17.3	68	12	
2025-11-22T12:00	1300	872	-6.1	-18.4	68	12	
2025-11-22T12:00	1320	870	-6.1	-19.6	68	12	
2025-11-22T12:00	1340	868	-6.0	-21.6	68	12	
2025-11-22T12:00	1360	866	-5.9	-23.1	68	13	
2025-11-22T12:00	1380	864	-5.7	-24.7	68	13	
2025-11-22T12:00	1400	861	-5.7	-26.1	68	13	
2025-11-22T12:00	1420	859	-5.8	-27.5	67	13	
2025-11-22T12:00	1440	857	-5.8	-29.4	67	13	
2025-11-22T12:00	1460	855	-5.8	-29.6	66	13	
2025-11-22T12:00	1480	853	-5.8	-28.8	66	14	
2025-11-22T12:00	1500	851	-5.8	-29.6	66	14	
2025-11-22T12:00	1520	848	-5.9	-29.0	65	13	
2025-11-22T12:00	1540	846	-5.9	-28.0	65	13	
2025-11-22T12:00	1560	844	-6.1	-27.2	65	13	
2025-11-22T12:00	1580	842	-6.1	-26.5	65	13	
2025-11-22T12:00	1600	840	-6.2	-26.4	64	13	
2025-11-22T12:00	1620	838	-6.3	-30.0	62	13	
2025-11-22T12:00	1640	836	-6.2	-37.0	60	13	
2025-11-22T12:00	1660	833	-6.4	-36.3	58	13	
2025-11-22T12:00	1680	831	-6.6	-36.0	56	13	
2025-11-22T12:00	1700	829	-6.8	-35.8	54	13	
2025-11-22T12:00	1720	827	-7.0	-35.7	53	13	
2025-11-22T12:00	1740	825	-7.1	-35.6	52	13	
2025-11-22T12:00	1760	823	-7.2	-35.2	51	13	
2025-11-22T12:00	1780	820	-7.4	-34.7	50	13	
2025-11-22T12:00	1800	818	-7.5	-34.6	49	13	
2025-11-22T12:00	1820	816	-7.7	-34.8	48	14	
2025-11-22T12:00	1840	814	-7.9	-34.7	48	13	
2025-11-22T12:00	1860	812	-8.1	-33.7	48	13	
2025-11-22T12:00	1880	810	-8.2	-33.8	49	13	
2025-11-22T12:00	1900	808	-8.3	-34.3	48	13	
2025-11-22T12:00	1920	806	-8.5	-33.9	47	12	
2025-11-22T12:00	1940	804	-8.7	-33.2	45	12	
2025-11-22T12:00	1960	802	-8.8	-33.3	42	11	
2025-11-22T12:00	1980	800	-9.0	-32.8	39	11	
2025-11-22T12:00	2000	798	-9.2	-33.0	37	11	
2025-11-22T12:00	2020	796	-9.4	-33.4	35	11	
2025-11-22T12:00	2040	794	-9.6	-33.1	35	12	
2025-11-22T12:00	2060	791	-9.7	-34.6	36	12	
2025-11-22T12:00	2080	789	-9.9	-36.1	37	12	
2025-11-22T12:00	2100	787	-10.1	-35.3	40	12	
2025-11-22T12:00	2120	785	-10.3	-35.3	44	12	
2025-11-22T12:00	2140	783	-10.4	-35.8	48	12	
2025-11-22T12:00	2160	781	-10.6	-36.3	52	13	
2025-11-22T12:00	2180	779	-10.8	-36.4	55	13	
2025-11-22T12:00	2200	777	-10.9	-36.2	57	13	
2025-11-22T12:00	2220	775	-11.1	-36.0	59	14	
2025-11-22T12:00	2240	773	-11.3	-35.7	59	14	
2025-11-22T12:00	2260	771	-11.4	-35.4	60	15	
2025-11-22T12:00	2280	769	-11.6	-34.5	59	15	
2025-11-22T12:00	2300	767	-11.7	-33.8	58	15	
2025-11-22T12:00	2320	765	-11.9	-32.7	57	14	
2025-11-22T12:00	2340	763	-12.1	-32.5	56	14	
2025-11-22T12:00	2360	761	-12.3	-31.9	54	14	
2025-11-22T12:00	2380	759	-12.4	-32.1	52	14	
2025-11-22T12:00	2400	757	-12.6	-32.4	51	14	
2025-11-22T12:00	2420	755	-12.7	-32.6	51	14	
2025-11-22T12:00	2440	753	-12.8	-30.8	50	14	
2025-11-22T12:00	2460	751	-12.9	-27.9	50	14	
2025-11-22T12:00	2480	749	-13.1	-28.1	50	14	
2025-11-22T12:00	2500	747	-13.3	-26.8	49	14	
2025-11-22T12:00	2520	745	-13.5	-25.7	48	14	
2025-11-22T12:00	2540	743	-13.7	-25.6	47	13	
2025-11-22T12:00	2560	741	-13.9	-24.7	46	13	
2025-11-22T12:00	2580	739	-14.1	-22.6	45	13	
2025-11-22T12:00	2600	737	-14.2	-21.4	45	12	
2025-11-22T12:00	2620	735	-14.3	-21.9	45	12	
2025-11-22T12:00	2640	734	-14.5	-22.4	46	12	
2025-11-22T12:00	2660	732	-14.6	-22.9	47	12	
2025-11-22T12:00	2680	730	-14.7	-23.6	48	12	
2025-11-22T12:00	2700	728	-14.9	-24.3	49	12	
2025-11-22T12:00	2720	726	-15.0	-24.9	48	12	
2025-11-22T12:00	2740	724	-15.2	-24.1	47	13	
2025-11-22T12:00	2760	722	-15.3	-22.1	46	13	
2025-11-22T12:00	2780	720	-15.4	-22.0	44	13	
2025-11-22T12:00	2800	718	-15.6	-22.0	43	13	
2025-11-22T12:00	2820	716	-15.8	-21.9	43	13	
2025-11-22T12:00	2840	714	-16.0	-22.0	43	14	
2025-11-22T12:00	2860	712	-16.1	-22.2	45	14	
2025-11-22T12:00	2880	710	-16.0	-25.0	47	14	
2025-11-22T12:00	2900	709	-15.9	-31.0	49	14	
2025-11-22T12:00	2920	707	-15.8	-32.6	50	14	
2025-11-22T12:00	2940	705	-15.8	-33.6	50	14	
2025-11-22T12:00	2960	703	-15.8	-33.7	50	13	
2025-11-22T12:00	2980	701	-15.7	-35.9	48	13	
2025-11-22T12:00	3000	700	-15.6	-37.2	46	13	
2025-11-22T12:00	3020	698	-15.3	-38.5	43	13	
2025-11-22T12:00	3040	696	-15.3	-38.7	40	13	
2025-11-22T12:00	3060	694	-15.3	-39.7	38	13	
2025-11-22T12:00	3080	692	-15.4	-40.2	37	13	
2025-11-22T12:00	3100	690	-15.5	-40.4	38	12	
2025-11-22T12:00	3120	688	-15.6	-41.4	38	12	
2025-11-22T12:00	3140	686	-15.7	-41.9	39	12	
2025-11-22T12:00	3160	685	-15.9	-42.1	39	12	
2025-11-22T12:00	3180	683	-16.1	-42.4	38	12	
2025-11-22T12:00	3200	681	-16.2	-42.9	37	13	
2025-11-22T12:00	3220	679	-16.3	-45.0	35	14	
2025-11-22T12:00	3240	677	-16.2	-47.7	34	15	
2025-11-22T12:00	3260	676	-16.2	-48.3	34	16	
2025-11-22T12:00	3280	674	-16.2	-47.8	34	16	
2025-11-22T12:00	3300	672	-16.2	-47.3	35	15	
2025-11-22T12:00	3320	670	-16.1	-48.1	36	15	
2025-11-22T12:00	3340	669	-16.2	-48.0	37	14	
2025-11-22T12:00	3360	667	-16.1	-48.1	37	14	
2025-11-22T12:00	3380	665	-16.2	-47.9	38	13	
2025-11-22T12:00	3400	663	-16.2	-47.3	38	12	
2025-11-22T12:00	3420	661	-16.1	-47.3	37	12	
2025-11-22T12:00	3440	660	-16.2	-47.3	37	11	
2025-11-22T12:00	3460	658	-16.4	-47.7	36	11	
2025-11-22T12:00	3480	656	-16.5	-49.0	37	11	
2025-11-22T12:00	3500	654	-16.6	-50.5	38	11	
2025-11-22T12:00	3520	653	-16.6	-49.7	40	11	
2025-11-22T12:00	3540	651	-16.7	-49.3	41	11	
2025-11-22T12:00	3560	649	-16.8	-49.0	42	11	
2025-11-22T12:00	3580	647	-17.0	-48.4	43	11	
2025-11-22T12:00	3600	646	-17.2	-48.6	43	11	
2025-11-22T12:00	3620	644	-17.3	-48.9	42	11	
2025-11-22T12:00	3640	642	-17.4	-49.4	41	11	
2025-11-22T12:00	3660	641	-17.5	-50.3	39	11	
2025-11-22T12:00	3680	639	-17.3	-51.7	38	11	
2025-11-22T12:00	3700	637	-17.4	-51.6	38	12	
2025-11-22T12:00	3720	636	-17.6	-51.6	38	12	
2025-11-22T12:00	3740	634	-17.8	-51.7	38	12	
2025-11-22T12:00	3760	632	-17.8	-51.5	38	12	
2025-11-22T12:00	3780	630	-17.7	-51.0	37	13	
2025-11-22T12:00	3800	629	-17.9	-51.0	36	13	
2025-11-22T12:00	3820	627	-18.0	-51.1	34	13	
2025-11-22T12:00	3840	625	-18.2	-51.2	31	13	
2025-11-22T12:00	3860	624	-18.3	-51.5	27	12	
2025-11-22T12:00	3880	622	-18.2	-51.9	23	12	
2025-11-22T12:00	3900	620	-18.3	-52.2	21	11	
2025-11-22T12:00	3920	619	-18.3	-52.3	20	11	
2025-11-22T12:00	3940	617	-18.5	-52.4	21	11	
2025-11-22T12:00	3960	615	-18.6	-52.6	23	11	
2025-11-22T12:00	3980	614	-18.7	-52.7	26	12	
2025-11-22T12:00	4000	612	-18.8	-52.9	27	12	
2025-11-22T12:00	4020	611	-18.8	-53.2	29	12	
2025-11-22T12:00	4040	609	-18.9	-53.4	29	12	
2025-11-22T12:00	4060	607	-19.0	-53.4	29	12	
2025-11-22T12:00	4080	606	-19.1	-53.5	29	12	
2025-11-22T12:00	4100	604	-19.3	-53.7	28	12	
2025-11-22T12:00	4120	602	-19.3	-54.1	28	12	
2025-11-22T12:00	4140	601	-19.4	-54.5	28	12	
2025-11-22T12:00	4160	599	-19.4	-54.4	28	12	
2025-11-22T12:00	4180	597	-19.5	-54.2	28	13	
2025-11-22T12:00	4200	596	-19.5	-54.8	28	13	
2025-11-22T12:00	4220	594	-19.5	-55.0	27	13	
2025-11-22T12:00	4240	593	-19.6	-54.6	27	13	
2025-11-22T12:00	4260	591	-19.7	-53.6	26	13	
2025-11-22T12:00	4280	589	-19.8	-53.2	25	14	
2025-11-22T12:00	4300	588	-20.0	-53.3	24	14	
2025-11-22T12:00	4320	586	-20.1	-54.5	24	14	
2025-11-22T12:00	4340	585	-20.2	-54.2	24	14	
2025-11-22T12:00	4360	583	-20.2	-51.8	25	14	
2025-11-22T12:00	4380	582	-20.4	-50.6	25	14	
2025-11-22T12:00	4400	580	-20.5	-49.3	25	14	
2025-11-22T12:00	4420	578	-20.7	-48.7	24	14	
2025-11-22T12:00	4440	577	-20.8	-48.6	23	14	
2025-11-22T12:00	4460	575	-21.0	-48.3	22	15	
2025-11-22T12:00	4480	574	-21.1	-48.2	21	15	
2025-11-22T12:00	4500	572	-21.2	-48.2	20	15	
2025-11-22T12:00	4520	571	-21.4	-48.2	20	15	
2025-11-22T12:00	4540	569	-21.5	-47.9	20	15	
2025-11-22T12:00	4560	568	-21.7	-47.4	21	15	
2025-11-22T12:00	4580	566	-21.8	-47.2	23	15	
2025-11-22T12:00	4600	565	-21.9	-47.0	24	15	
2025-11-22T12:00	4620	563	-22.1	-46.8	25	15	
2025-11-22T12:00	4640	561	-22.2	-45.8	25	15	
2025-11-22T12:00	4660	560	-22.3	-44.8	24	16	
2025-11-22T12:00	4680	558	-22.4	-43.9	24	16	
2025-11-22T12:00	4700	557	-22.5	-43.3	23	16	
2025-11-22T12:00	4720	555	-22.5	-43.0	23	17	
2025-11-22T12:00	4740	554	-22.6	-42.8	23	17	
2025-11-22T12:00	4760	552	-22.8	-42.6	23	17	
2025-11-22T12:00	4780	551	-22.9	-42.2	23	17	
2025-11-22T12:00	4800	549	-23.0	-42.1	23	17	
2025-11-22T12:00	4820	548	-23.1	-41.8	24	17	
2025-11-22T12:00	4840	546	-23.2	-41.3	24	18	
2025-11-22T12:00	4860	545	-23.3	-40.7	25	18	
2025-11-22T12:00	4880	543	-23.5	-40.0	25	18	
2025-11-22T12:00	4900	542	-23.7	-39.5	25	18	
2025-11-22T12:00	4920	541	-23.8	-39.5	25	18	
2025-11-22T12:00	4940	539	-23.9	-39.5	25	18	
2025-11-22T12:00	4960	537	-24.0	-39.5	25	18	
2025-11-22T12:00	4980	536	-24.1	-39.6	25	18	
2025-11-22T12:00	5000	534	-24.2	-39.7	26	18	
2025-11-22T12:00	5020	533	-24.3	-39.8	26	18	
2025-11-22T12:00	5040	532	-24.5	-40.0	26	19	
2025-11-22T12:00	5060	530	-24.6	-39.7	25	19	
2025-11-22T12:00	5080	529	-24.8	-39.4	25	19	
2025-11-22T12:00	5100	527	-24.9	-39.1	24	19	
2025-11-22T12:00	5120	526	-25.0	-38.7	24	20	
2025-11-22T12:00	5140	524	-25.2	-38.4	23	20	
2025-11-22T12:00	5160	523	-25.4	-38.3	23	20	
2025-11-22T12:00	5180	521	-25.6	-38.3	23	20	
2025-11-22T12:00	5200	520	-25.7	-38.2	23	21	
2025-11-22T12:00	5220	519	-25.8	-38.0	23	21	
2025-11-22T12:00	5240	517	-25.9	-38.0	23	21	
2025-11-22T12:00	5260	516	-26.1	-38.2	22	21	
2025-11-22T12:00	5280	514	-26.3	-38.4	21	20	
2025-11-22T12:00	5300	513	-26.4	-38.2	20	20	
2025-11-22T12:00	5320	511	-26.5	-38.2	20	20	
2025-11-22T12:00	5340	510	-26.6	-38.7	19	20	
2025-11-22T12:00	5360	509	-26.6	-39.6	19	20	
2025-11-22T12:00	5380	507	-26.8	-39.7	19	20	
2025-11-22T12:00	5400	506	-26.9	-40.2	19	20	
2025-11-22T12:00	5420	504	-26.9	-40.7	19	20	
2025-11-22T12:00	5440	503	-26.9	-41.3	19	21	
2025-11-22T12:00	5460	502	-27.0	-41.7	19	21	
2025-11-22T12:00	5480	500	-27.2	-41.9	20	21	
2025-11-22T12:00	5500	499	-27.3	-41.8	20	21	
2025-11-22T12:00	5520	497	-27.5	-41.8	21	21	
2025-11-22T12:00	5540	496	-27.6	-41.7	21	20	
2025-11-22T12:00	5560	495	-27.8	-41.6	21	20	
2025-11-22T12:00	5580	493	-28.0	-41.4	20	20	
2025-11-22T12:00	5600	492	-28.2	-41.0	20	20	
2025-11-22T12:00	5620	491	-28.3	-40.7	20	20	
2025-11-22T12:00	5640	489	-28.5	-40.8	19	20	
2025-11-22T12:00	5660	488	-28.6	-41.9	19	20	
2025-11-22T12:00	5680	486	-28.7	-43.0	18	20	
2025-11-22T12:00	5700	485	-28.8	-43.6	18	20	
2025-11-22T12:00	5720	484	-28.9	-44.6	18	20	
2025-11-22T12:00	5740	482	-29.0	-45.1	18	21	
2025-11-22T12:00	5760	481	-29.2	-45.1	18	21	
2025-11-22T12:00	5780	480	-29.4	-44.6	17	21	
2025-11-22T12:00	5800	478	-29.5	-44.3	16	21	
2025-11-22T12:00	5820	477	-29.6	-43.7	16	21	
2025-11-22T12:00	5840	476	-29.6	-43.6	15	21	
2025-11-22T12:00	5860	474	-29.7	-44.1	14	21	
2025-11-22T12:00	5880	473	-29.9	-44.5	13	21	
2025-11-22T12:00	5900	472	-30.0	-45.4	12	22	
2025-11-22T12:00	5920	470	-30.1	-45.6	11	22	
2025-11-22T12:00	5940	469	-30.3	-44.4	10	22	
2025-11-22T12:00	5960	468	-30.5	-44.2	10	22	
2025-11-22T12:00	5980	466	-30.6	-44.4	9	22	
2025-11-22T12:00	6000	465	-30.8	-44.8	9	23	
2025-11-22T12:00	6020	464	-30.9	-45.5	8	23	
2025-11-22T12:00	6040	462	-30.9	-45.8	8	23	
2025-11-22T12:00	6060	461	-31.1	-45.6	8	23	
2025-11-22T12:00	6080	460	-31.3	-45.7	8	23	
2025-11-22T12:00	6100	459	-31.4	-45.9	9	23	
2025-11-22T12:00	6120	457	-31.5	-45.8	10	22	
2025-11-22T12:00	6140	456	-31.7	-45.8	10	22	
2025-11-22T12:00	6160	455	-31.9	-45.9	11	22	
2025-11-22T12:00	6180	454	-32.0	-45.9	11	22	
2025-11-22T12:00	6200	452	-32.2	-46.0	12	22	
2025-11-22T12:00	6220	451	-32.3	-46.1	11	22	
2025-11-22T12:00	6240	450	-32.4	-46.3	11	23	
2025-11-22T12:00	6260	448	-32.4	-46.6	10	23	
2025-11-22T12:00	6280	447	-32.5	-46.3	10	23	
2025-11-22T12:00	6300	446	-32.7	-46.2	9	23	
2025-11-22T12:00	6320	444	-32.9	-46.2	9	23	
2025-11-22T12:00	6340	443	-33.1	-46.1	10	23	
2025-11-22T12:00	6360	442	-33.3	-46.1	10	23	
2025-11-22T12:00	6380	441	-33.4	-46.3	10	23	
2025-11-22T12:00	6400	439	-33.6	-46.3	11	23	
2025-11-22T12:00	6420	438	-33.8	-46.3	11	23	
2025-11-22T12:00	6440	437	-33.9	-46.0	11	23	
2025-11-22T12:00	6460	436	-34.1	-46.2	10	23	
2025-11-22T12:00	6480	434	-34.2	-46.3	9	23	
2025-11-22T12:00	6500	433	-34.3	-46.7	9	23	
2025-11-22T12:00	6520	432	-34.3	-47.4	8	23	
2025-11-22T12:00	6540	431	-34.4	-47.5	8	23	
2025-11-22T12:00	6560	430	-34.5	-47.4	7	24	
2025-11-22T12:00	6580	428	-34.7	-47.2	6	24	
2025-11-22T12:00	6600	427	-34.9	-47.1	5	24	
2025-11-22T12:00	6620	426	-35.0	-47.2	4	24	
2025-11-22T12:00	6640	425	-35.2	-47.4	3	25	
2025-11-22T12:00	6660	423	-35.3	-47.6	3	25	
2025-11-22T12:00	6680	422	-35.5	-47.7	3	25	
2025-11-22T12:00	6700	421	-35.7	-47.6	3	25	
2025-11-22T12:00	6720	420	-35.8	-47.8	3	25	
2025-11-22T12:00	6740	419	-36.0	-47.8	4	26	
2025-11-22T12:00	6760	417	-36.2	-47.5	4	26	
2025-11-22T12:00	6780	416	-36.3	-47.5	5	26	
2025-11-22T12:00	6800	415	-36.4	-47.8	5	26	
2025-11-22T12:00	6820	414	-36.5	-47.9	6	26	
2025-11-22T12:00	6840	413	-36.6	-48.1	7	26	
2025-11-22T12:00	6860	411	-36.7	-48.4	8	26	
2025-11-22T12:00	6880	410	-36.8	-51.0	8	26	
2025-11-22T12:00	6900	409	-36.8	-54.3	9	26	
2025-11-22T12:00	6920	408	-37.0	-53.6	9	27	
2025-11-22T12:00	6940	407	-37.1	-53.5	8	27	
2025-11-22T12:00	6960	405	-37.2	-54.1	8	27	
2025-11-22T12:00	6980	404	-37.3	-54.6	8	27	
2025-11-22T12:00	7000	403	-37.4	-54.4	7	27	
2025-11-22T12:00	7020	402	-37.5	-54.2	7	27	
2025-11-22T12:00	7040	401	-37.7	-54.2	8	27	
2025-11-22T12:00	7060	400	-37.8	-54.3	8	27	
2025-11-22T12:00	7080	398	-38.0	-54.4	8	27	
2025-11-22T12:00	7100	397	-38.1	-54.5	7	27	
2025-11-22T12:00	7120	396	-38.3	-54.4	7	28	
2025-11-22T12:00	7140	395	-38.4	-54.0	7	28	
2025-11-22T12:00	7160	394	-38.6	-53.5	7	29	
2025-11-22T12:00	7180	393	-38.8	-53.2	7	29	
2025-11-22T12:00	7200	392	-38.9	-52.9	7	29	
2025-11-22T12:00	7220	390	-39.1	-53.0	7	29	
2025-11-22T12:00	7240	389	-39.3	-53.1	8	29	
2025-11-22T12:00	7260	388	-39.4	-53.0	9	29	
2025-11-22T12:00	7280	387	-39.6	-53.1	10	29	
2025-11-22T12:00	7300	386	-39.7	-52.7	11	29	
2025-11-22T12:00	7320	385	-39.8	-52.3	12	29	
2025-11-22T12:00	7340	384	-39.9	-51.8	12	29	
2025-11-22T12:00	7360	383	-40.1	-51.5	13	29	
2025-11-22T12:00	7380	381	-40.3	-51.6	13	29	
2025-11-22T12:00	7400	380	-40.5	-51.6	12	29	
2025-11-22T12:00	7420	379	-40.6	-51.6	12	30	
2025-11-22T12:00	7440	378	-40.8	-51.4	12	30	
2025-11-22T12:00	7460	377	-41.0	-51.3	12	30	
2025-11-22T12:00	7480	376	-41.2	-51.0	13	31	
2025-11-22T12:00	7500	375	-41.3	-50.8	13	31	
2025-11-22T12:00	7520	374	-41.5	-51.0	14	31	
2025-11-22T12:00	7540	372	-41.6	-51.2	14	30	
2025-11-22T12:00	7560	371	-41.8	-51.5	14	30	
2025-11-22T12:00	7580	370	-41.9	-52.1	15	30	
2025-11-22T12:00	7600	369	-42.0	-52.2	15	30	
2025-11-22T12:00	7620	368	-42.2	-52.4	15	29	
2025-11-22T12:00	7640	367	-42.3	-52.8	15	29	
2025-11-22T12:00	7660	366	-42.5	-53.1	16	29	
2025-11-22T12:00	7680	365	-42.6	-53.2	16	29	
2025-11-22T12:00	7700	364	-42.8	-53.2	16	29	
2025-11-22T12:00	7720	363	-42.9	-53.1	15	30	
2025-11-22T12:00	7740	361	-43.0	-53.4	15	30	
2025-11-22T12:00	7760	360	-43.1	-54.0	14	30	
2025-11-22T12:00	7780	359	-43.2	-54.1	14	31	
2025-11-22T12:00	7800	358	-43.3	-54.0	13	31	
2025-11-22T12:00	7820	357	-43.5	-54.0	12	31	
2025-11-22T12:00	7840	356	-43.6	-53.9	11	30	
2025-11-22T12:00	7860	355	-43.8	-53.9	10	30	
2025-11-22T12:00	7880	354	-43.9	-54.0	10	30	
2025-11-22T12:00	7900	353	-44.0	-53.9	10	29	
2025-11-22T12:00	7920	352	-44.2	-54.1	10	29	
2025-11-22T12:00	7940	351	-44.3	-54.5	9	29	
2025-11-22T12:00	7960	350	-44.5	-54.7	9	30	
2025-11-22T12:00	7980	349	-44.6	-54.8	9	30	
2025-11-22T12:00	8000	348	-44.7	-55.2	8	30	
2025-11-22T12:00	8020	347	-44.8	-54.7	8	31	
2025-11-22T12:00	8040	346	-44.9	-54.1	7	31	
2025-11-22T12:00	8060	345	-45.1	-54.1	7	31	
2025-11-22T12:00	8080	344	-45.2	-54.5	7	31	
2025-11-22T12:00	8100	343	-45.4	-54.5	7	32	
2025-11-22T12:00	8120	342	-45.5	-54.6	7	32	
2025-11-22T12:00	8140	341	-45.6	-55.0	7	32	
2025-11-22T12:00	8160	340	-45.7	-55.5	7	32	
2025-11-22T12:00	8180	339	-45.8	-55.7	7	32	
2025-11-22T12:00	8200	338	-46.0	-55.9	7	32	
2025-11-22T12:00	8220	337	-46.1	-56.2	7	32	
2025-11-22T12:00	8240	336	-46.2	-56.6	7	32	
2025-11-22T12:00	8260	335	-46.3	-57.2	6	32	
2025-11-22T12:00	8280	334	-46.3	-58.1	6	32	
2025-11-22T12:00	8300	333	-46.3	-58.3	5	32	
2025-11-22T12:00	8320	332	-46.5	-58.2	5	32	
2025-11-22T12:00	8340	331	-46.7	-58.1	4	32	
2025-11-22T12:00	8360	330	-46.8	-58.2	4	32	
2025-11-22T12:00	8380	329	-46.8	-58.0	3	32	
2025-11-22T12:00	8400	328	-47.0	-57.8	3	32	
2025-11-22T12:00	8420	327	-47.2	-57.8	3	31	
2025-11-22T12:00	8440	326	-47.3	-57.9	3	31	
2025-11-22T12:00	8460	325	-47.5	-58.0	2	31	
2025-11-22T12:00	8480	324	-47.7	-57.9	2	31	
2025-11-22T12:00	8500	323	-47.9	-57.8	2	32	
2025-11-22T12:00	8520	322	-48.1	-57.8	1	32	
2025-11-22T12:00	8540	321	-48.3	-57.9	1	32	
2025-11-22T12:00	8560	320	-48.5	-57.9	0	32	
2025-11-22T12:00	8580	319	-48.6	-58.0	360	32	
2025-11-22T12:00	8600	318	-48.8	-58.4	359	32	
2025-11-22T12:00	8620	317	-48.9	-58.9	359	32	
2025-11-22T12:00	8640	316	-48.9	-59.6	358	31	
2025-11-22T12:00	8660	315	-49.0	-60.2	358	31	
2025-11-22T12:00	8680	314	-49.1	-60.4	358	31	
2025-11-22T12:00	8700	313	-49.3	-60.4	358	31	
2025-11-22T12:00	8720	312	-49.4	-60.3	357	32	
2025-11-22T12:00	8740	311	-49.6	-60.1	357	32	
2025-11-22T12:00	8760	310	-49.7	-60.0	357	32	
2025-11-22T12:00	8780	309	-49.9	-60.1	357	32	
2025-11-22T12:00	8800	308	-50.0	-60.3	357	32	
2025-11-22T12:00	8820	307	-50.1	-60.3	357	32	
2025-11-22T12:00	8840	306	-50.3	-60.2	357	32	
2025-11-22T12:00	8860	305	-50.5	-60.2	356	32	
2025-11-22T12:00	8880	305	-50.6	-60.2	356	32	
2025-11-22T12:00	8900	304	-50.8	-60.4	356	32	
2025-11-22T12:00	8920	303	-51.1	-60.5	356	32	
2025-11-22T12:00	8940	302	-51.3	-60.6	356	32	
2025-11-22T12:00	8960	301	-51.4	-60.7	356	32	
2025-11-22T12:00	8980	300	-51.6	-60.8	357	31	
2025-11-22T12:00	9000	299	-51.7	-61.0	357	31	
2025-11-22T12:00	9020	298	-51.9	-61.2	357	32	
2025-11-22T12:00	9040	297	-52.1	-61.2	358	32	
2025-11-22T12:00	9060	296	-52.2	-61.1	358	32	
2025-11-22T12:00	9080	295	-52.4	-60.9	359	32	
2025-11-22T12:00	9100	294	-52.4	-60.8	359	32	
2025-11-22T12:00	9120	293	-52.6	-60.9	359	32	
2025-11-22T12:00	9140	293	-52.8	-61.4	360	32	
2025-11-22T12:00	9160	292	-52.9	-62.1	360	32	
2025-11-22T12:00	9180	291	-53.0	-62.7	0	31	
2025-11-22T12:00	9200	290	-53.1	-63.0	0	31	
2025-11-22T12:00	9220	289	-53.2	-63.1	0	31	
2025-11-22T12:00	9240	288	-53.3	-63.1	0	31	
2025-11-22T12:00	9260	287	-53.5	-63.1	0	31	
2025-11-22T12:00	9280	286	-53.7	-63.1	360	31	
2025-11-22T12:00	9300	285	-53.8	-63.3	360	31	
2025-11-22T12:00	9320	284	-54.0	-63.4	0	32	
2025-11-22T12:00	9340	284	-54.2	-63.5	0	32	
2025-11-22T12:00	9360	283	-54.4	-63.7	0	32	
2025-11-22T12:00	9380	282	-54.5	-63.7	1	32	
2025-11-22T12:00	9400	281	-54.7	-63.6	1	32	
2025-11-22T12:00	9420	280	-54.9	-63.7	1	32	
2025-11-22T12:00	9440	279	-55.0	-63.9	1	31	
2025-11-22T12:00	9460	278	-55.2	-64.0	2	31	
2025-11-22T12:00	9480	277	-55.3	-64.1	2	31	
2025-11-22T12:00	9500	277	-55.5	-64.1	2	31	
2025-11-22T12:00	9520	276	-55.7	-63.9	2	31	
2025-11-22T12:00	9540	275	-55.8	-63.9	3	31	
2025-11-22T12:00	9560	274	-55.9	-63.9	3	31	
2025-11-22T12:00	9580	273	-56.1	-64.1	3	31	
2025-11-22T12:00	9600	272	-56.2	-64.3	4	31	
2025-11-22T12:00	9620	271	-56.3	-64.5	4	31	
2025-11-22T12:00	9640	270	-56.4	-64.6	5	31	
2025-11-22T12:00	9660	270	-56.5	-64.7	5	31	
2025-11-22T12:00	9680	269	-56.7	-64.7	6	31	
2025-11-22T12:00	9700	268	-56.9	-64.6	6	31	
2025-11-22T12:00	9720	267	-57.1	-64.6	7	31	
2025-11-22T12:00	9740	266	-57.2	-64.8	7	31	
2025-11-22T12:00	9760	265	-57.3	-65.4	7	31	
2025-11-22T12:00	9780	265	-57.3	-66.2	8	31	
2025-11-22T12:00	9800	264	-57.3	-67.3	8	31	
2025-11-22T12:00	9820	263	-57.3	-68.3	8	30	
2025-11-22T12:00	9840	262	-57.1	-68.7	8	30	
2025-11-22T12:00	9860	261	-57.0	-68.9	7	30	
2025-11-22T12:00	9880	260	-57.0	-69.1	7	29	
2025-11-22T12:00	9900	260	-57.1	-69.3	7	29	
2025-11-22T12:00	9920	259	-57.2	-69.3	7	29	
2025-11-22T12:00	9940	258	-57.4	-69.3	7	29	
2025-11-22T12:00	9960	257	-57.6	-69.1	7	28	
2025-11-22T12:00	9980	256	-57.8	-69.0	7	28	
2025-11-22T12:00	10000	256	-58.0	-68.9	7	28	
2025-11-22T12:00	10018	255	-58.2	-68.9	8	28	
2025-11-22T12:00	10050	254	-58.4	-68.8	8	28	
2025-11-22T12:00	10100	252	-58.9	-68.6	6	27	
2025-11-22T12:00	10150	250	-59.2	-68.6	3	27	
2025-11-22T12:00	10200	247	-59.5	-68.7	358	27	
2025-11-22T12:00	10250	246	-59.5	-69.1	354	27	
2025-11-22T12:00	10300	244	-59.4	-70.2	352	28	
2025-11-22T12:00	10350	242	-59.1	-71.4	351	29	
2025-11-22T12:00	10400	240	-58.7	-72.0	349	29	
2025-11-22T12:00	10450	238	-58.8	-71.9	350	29	
2025-11-22T12:00	10500	236	-58.5	-71.6	354	27	
2025-11-22T12:00	10550	234	-58.1	-71.1	358	25	
2025-11-22T12:00	10600	232	-58.2	-70.8	3	24	
2025-11-22T12:00	10650	230	-58.4	-70.6	5	24	
2025-11-22T12:00	10700	229	-58.5	-70.5	6	22	
2025-11-22T12:00	10750	227	-58.8	-70.6	3	21	
2025-11-22T12:00	10800	225	-59.0	-70.4	357	21	
2025-11-22T12:00	10850	223	-59.1	-70.3	352	21	
2025-11-22T12:00	10900	221	-59.1	-70.2	348	22	
2025-11-22T12:00	10950	220	-58.9	-70.2	346	23	
2025-11-22T12:00	11000	218	-59.0	-70.2	347	23	
2025-11-22T12:00	11050	216	-59.0	-70.4	348	23	
2025-11-22T12:00	11100	214	-58.7	-70.9	349	22	
2025-11-22T12:00	11150	213	-58.3	-71.5	349	22	
2025-11-22T12:00	11200	211	-58.5	-71.8	350	22	
2025-11-22T12:00	11250	209	-58.8	-72.0	351	22	
2025-11-22T12:00	11300	208	-58.6	-72.5	351	22	
2025-11-22T12:00	11350	206	-58.3	-73.4	352	21	
2025-11-22T12:00	11400	204	-58.4	-73.8	351	20	
2025-11-22T12:00	11450	203	-58.8	-74.3	350	19	
2025-11-22T12:00	11500	201	-58.9	-74.6	348	18	
2025-11-22T12:00	11550	200	-59.1	-75.3	345	17	
2025-11-22T12:00	11600	198	-58.9	-76.4	341	17	
2025-11-22T12:00	11650	197	-58.6	-76.9	340	17	
2025-11-22T12:00	11700	195	-58.7	-76.9	342	16	
2025-11-22T12:00	11750	193	-58.9	-77.3	342	16	
2025-11-22T12:00	11800	192	-58.8	-78.3	340	16	
2025-11-22T12:00	11850	190	-58.9	-78.9	336	17	
2025-11-22T12:00	11900	189	-59.0	-79.1	333	17	
2025-11-22T12:00	11950	187	-58.9	-79.7	331	18	
2025-11-22T12:00	12000	186	-58.6	-79.9	331	18	
2025-11-22T12:00	12050	184	-58.6	-80.1	331	18	
2025-11-22T12:00	12100	183	-58.7	-80.2	334	17	
2025-11-22T12:00	12150	181	-58.9	-80.5	338	16	
2025-11-22T12:00	12200	180	-58.6	-80.9	341	15	
2025-11-22T12:00	12250	179	-58.3	-81.2	341	14	
2025-11-22T12:00	12300	177	-58.0	-81.3	341	13	
2025-11-22T12:00	12350	176	-57.9	-81.3	342	12	
2025-11-22T12:00	12400	174	-58.2	-81.2	344	11	
2025-11-22T12:00	12450	173	-58.3	-81.2	342	11	
2025-11-22T12:00	12500	172	-57.8	-81.3	342	12	
2025-11-22T12:00	12550	170	-57.8	-81.5	347	11	
2025-11-22T12:00	12600	169	-57.6	-81.7	359	10	
2025-11-22T12:00	12650	168	-56.8	-81.7	10	9	
2025-11-22T12:00	12700	166	-56.6	-81.6	11	8	
2025-11-22T12:00	12750	165	-56.8	-81.6	357	7	
2025-11-22T12:00	12800	164	-56.9	-81.8	342	8	
2025-11-22T12:00	12850	162	-56.4	-81.7	337	8	
2025-11-22T12:00	12900	161	-56.7	-81.9	336	8	
2025-11-22T12:00	12950	160	-56.4	-82.0	332	7	
2025-11-22T12:00	13000	159	-56.1	-82.1	323	7	
2025-11-22T12:00	13050	157	-55.9	-82.0	315	8	
2025-11-22T12:00	13100	156	-56.1	-81.9	310	9	
2025-11-22T12:00	13150	155	-56.3	-81.9	307	9	
2025-11-22T12:00	13200	154	-56.6	-82.0	307	10	
2025-11-22T12:00	13250	152	-56.9	-82.1	306	11	
2025-11-22T12:00	13300	151	-57.2	-82.2	306	12	
2025-11-22T12:00	13350	150	-57.5	-82.3	306	12	
2025-11-22T12:00	13400	149	-57.7	-82.2	307	13	
2025-11-22T12:00	13450	148	-58.0	-82.5	307	14	
2025-11-22T12:00	13500	147	-58.2	-82.5	307	15	
2025-11-22T12:00	13550	145	-58.5	-82.6	307	16	
2025-11-22T12:00	13600	144	-58.8	-82.6	305	16	
2025-11-22T12:00	13650	143	-59.1	-82.8	303	16	
2025-11-22T12:00	13700	142	-59.2	-82.9	304	16	
2025-11-22T12:00	13750	141	-59.5	-82.9	306	16	
2025-11-22T12:00	13800	140	-59.8	-83.1	311	15	
2025-11-22T12:00	13850	139	-59.7	-83.3	313	15	
2025-11-22T12:00	13900	137	-59.5	-83.4	314	13	
2025-11-22T12:00	13950	136	-59.5	-83.5	314	13	
2025-11-22T12:00	14000	135	-59.6	-83.3	314	12	
2025-11-22T12:00	14050	134	-59.7	-83.4	311	12	
2025-11-22T12:00	14100	133	-59.5	-83.4	308	11	
2025-11-22T12:00	14150	132	-59.3	-83.5	306	11	
2025-11-22T12:00	14200	131	-58.7	-83.4	301	10	
2025-11-22T12:00	14250	130	-58.6	-83.5	296	10	
2025-11-22T12:00	14300	129	-58.0	-83.3	293	10	
2025-11-22T12:00	14350	128	-58.2	-83.4	289	11	
2025-11-22T12:00	14400	127	-58.3	-83.4	287	13	
2025-11-22T12:00	14450	126	-58.1	-83.3	288	13	
2025-11-22T12:00	14500	125	-58.5	-83.4	290	14	
2025-11-22T12:00	14550	124	-58.8	-83.5	291	15	
2025-11-22T12:00	14600	123	-59.2	-83.6	291	16	
2025-11-22T12:00	14650	122	-59.4	-83.7	290	17	
2025-11-22T12:00	14700	121	-59.5	-83.6	289	16	
2025-11-22T12:00	14750	120	-60.0	-83.8	289	15	
2025-11-22T12:00	14800	119	-60.2	-83.9	288	14	
2025-11-22T12:00	14850	118	-60.2	-84.0	288	14	
2025-11-22T12:00	14900	117	-60.2	-84.1	289	15	
2025-11-22T12:00	14950	116	-60.3	-84.0	291	15	
2025-11-22T12:00	15000	115	-60.5	-84.1	293	16	
2025-11-22T12:00	15050	114	-60.6	-84.1	293	16	
2025-11-22T12:00	15100	113	-60.7	-84.2	294	16	
2025-11-22T12:00	15150	113	-60.9	-84.2	294	16	
2025-11-22T12:00	15200	112	-61.2	-84.3	295	15	
2025-11-22T12:00	15250	111	-61.4	-84.4	295	15	
2025-11-22T12:00	15300	110	-61.3	-84.4	296	15	
2025-11-22T12:00	15350	109	-61.4	-84.4	297	15	
2025-11-22T12:00	15400	108	-61.6	-84.5	297	14	
2025-11-22T12:00	15450	107	-61.7	-84.6	294	14	
2025-11-22T12:00	15500	106	-61.8	-84.8	289	15	
2025-11-22T12:00	15550	106	-61.4	-84.8	286	16	
2025-11-22T12:00	15600	105	-61.1	-84.8	287	16	
2025-11-22T12:00	15650	104	-61.2	-84.8	288	16	
2025-11-22T12:00	15700	103	-61.4	-84.9	289	16	
2025-11-22T12:00	15750	102	-61.4	-85.0	288	15	
2025-11-22T12:00	15800	101	-61.2	-85.0	284	16	
2025-11-22T12:00	15850	101	-61.0	-85.0	279	16	
2025-11-22T12:00	15900	100	-61.0	-85.2	274	16	
2025-11-22T12:00	15950	99	-60.5	-85.0	270	16	
2025-11-22T12:00	16000	98	-60.3	-84.9	271	16	
2025-11-22T12:00	16050	97	-60.6	-85.0	273	16	
2025-11-22T12:00	16100	97	-60.7	-85.0	273	15	
2025-11-22T12:00	16150	96	-60.7	-85.1	270	16	
2025-11-22T12:00	16200	95	-60.7	-85.1	267	16	
2025-11-22T12:00	16250	94	-60.8	-85.3	266	16	
2025-11-22T12:00	16300	94	-60.7	-85.4	265	16	
2025-11-22T12:00	16350	93	-60.5	-85.4	264	16	
2025-11-22T12:00	16400	92	-60.2	-85.4	263	16	
2025-11-22T12:00	16450	91	-59.9	-85.3	262	15	
2025-11-22T12:00	16500	91	-59.8	-85.3	263	14	
2025-11-22T12:00	16550	90	-59.9	-85.2	264	15	
2025-11-22T12:00	16600	89	-60.3	-85.3	266	15	
2025-11-22T12:00	16650	88	-60.7	-85.3	267	16	
2025-11-22T12:00	16700	88	-61.1	-85.4	268	16	
2025-11-22T12:00	16750	87	-61.3	-85.5	267	16	
2025-11-22T12:00	16800	86	-61.3	-85.7	265	16	
2025-11-22T12:00	16850	86	-61.4	-85.7	262	16	
2025-11-22T12:00	16900	85	-61.5	-85.7	259	16	
2025-11-22T12:00	16950	84	-61.7	-85.8	256	15	
2025-11-22T12:00	17000	84	-62.0	-85.8	253	15	
2025-11-22T12:00	17050	83	-62.3	-86.0	250	15	
2025-11-22T12:00	17100	82	-62.5	-86.0	246	15	
2025-11-22T12:00	17150	82	-62.8	-86.0	243	15	
2025-11-22T12:00	17200	81	-63.0	-86.1	242	15	
2025-11-22T12:00	17250	80	-63.3	-86.2	243	14	
2025-11-22T12:00	17300	80	-63.7	-86.3	246	14	
2025-11-22T12:00	17350	79	-64.0	-86.4	250	13	
2025-11-22T12:00	17400	78	-64.4	-86.6	254	13	
2025-11-22T12:00	17450	78	-64.5	-86.6	257	13	
2025-11-22T12:00	17500	77	-64.5	-86.6	260	14	
2025-11-22T12:00	17550	76	-64.7	-86.8	259	14	
2025-11-22T12:00	17600	76	-64.6	-86.9	254	15	
2025-11-22T12:00	17650	75	-64.3	-86.9	249	15	
2025-11-22T12:00	17700	75	-64.3	-87.0	246	16	
2025-11-22T12:00	17750	74	-64.2	-86.9	247	16	
2025-11-22T12:00	17800	73	-64.1	-86.9	250	16	
2025-11-22T12:00	17850	73	-64.3	-86.8	253	16	
2025-11-22T12:00	17900	72	-64.7	-86.9	258	16	
2025-11-22T12:00	17950	72	-65.1	-87.0	261	16	
2025-11-22T12:00	18000	71	-65.4	-87.2	262	16	
2025-11-22T12:00	18050	70	-65.0	-87.1	261	16	
2025-11-22T12:00	18100	70	-65.1	-87.2	259	15	
2025-11-22T12:00	18150	69	-65.4	-87.3	257	15	
2025-11-22T12:00	18200	69	-65.5	-87.4	256	14	
2025-11-22T12:00	18250	68	-65.3	-87.4	256	14	
2025-11-22T12:00	18300	68	-65.0	-87.3	256	14	
2025-11-22T12:00	18350	67	-65.1	-87.4	256	14	
2025-11-22T12:00	18400	66	-65.2	-87.4	256	15	
2025-11-22T12:00	18450	66	-65.3	-87.4	257	15	
2025-11-22T12:00	18500	65	-65.2	-87.4	259	16	
2025-11-22T12:00	18550	65	-65.4	-87.4	261	17	
2025-11-22T12:00	18600	64	-65.7	-87.5	263	18	
2025-11-22T12:00	18650	64	-65.9	-87.6	263	17	
2025-11-22T12:00	18700	63	-65.9	-87.5	261	17	
2025-11-22T12:00	18750	63	-66.1	-87.6	256	17	
2025-11-22T12:00	18800	62	-66.2	-87.7	252	17	
2025-11-22T12:00	18850	62	-66.3	-87.7	248	18	
2025-11-22T12:00	18900	61	-66.4	-87.7	246	19	
2025-11-22T12:00	18950	61	-66.7	-87.7	246	19	
2025-11-22T12:00	19000	60	-67.1	-87.9	248	19	
2025-11-22T12:00	19050	60	-67.0	-87.9	252	19	
2025-11-22T12:00	19100	59	-67.1	-88.0	255	18	
2025-11-22T12:00	19150	59	-67.2	-88.1	256	18	
2025-11-22T12:00	19200	58	-67.0	-88.0	255	18	
2025-11-22T12:00	19250	58	-66.8	-88.0	255	19	
2025-11-22T12:00	19300	57	-66.6	-87.9	255	20	
2025-11-22T12:00	19350	57	-66.5	-87.9	256	20	
2025-11-22T12:00	19400	56	-66.5	-87.9	257	21	
2025-11-22T12:00	19450	56	-66.4	-87.9	256	22	
2025-11-22T12:00	19500	55	-65.8	-87.7	254	23	
2025-11-22T12:00	19550	55	-65.8	-87.8	253	24	
2025-11-22T12:00	19600	55	-65.6	-87.9	254	25	
2025-11-22T12:00	19650	54	-65.1	-87.7	254	25	
2025-11-22T12:00	19700	54	-65.0	-87.9	248	25	
2025-11-22T12:00	19750	53	-64.4	-87.6	242	26	
2025-11-22T12:00	19800	53	-64.1	-87.5	239	27	
2025-11-22T12:00	19850	52	-64.1	-87.3	237	27	
2025-11-22T12:00	19900	52	-64.4	-87.3	236	28	
2025-11-22T12:00	19950	51	-64.7	-87.4	235	28	
2025-11-22T12:00	20000	51	-65.1	-87.4	235	29	
2025-11-22T12:00	20050	51	-65.5		236	30	
2025-11-22T12:00	20100	50	-65.7		236	31	
2025-11-22T12:00	20150	50	-65.8		237	32	
2025-11-22T12:00	20200	49	-65.3		237	32	
2025-11-22T12:00	20250	49	-65.1		238	32	
2025-11-22T12:00	20300	49	-65.2		239	33	
2025-11-22T12:00	20350	48	-65.3		240	34	
2025-11-22T12:00	20400	48	-64.6		242	34	
2025-11-22T12:00	20450	47	-64.2		244	33	
2025-11-22T12:00	20500	47	-64.4		246	33	
2025-11-22T12:00	20550	47	-64.6		249	32	
2025-11-22T12:00	20600	46	-64.8		251	32	
2025-11-22T12:00	20650	46	-65.0		254	32	
2025-11-22T12:00	20700	46	-65.1		256	31	
2025-11-22T12:00	20750	45	-64.9		257	30	
2025-11-22T12:00	20800	45	-64.7		257	30	
2025-11-22T12:00	20850	44	-65.1		258	29	
2025-11-22T12:00	20900	44	-65.5		259	29	
2025-11-22T12:00	20950	44	-65.7		259	28	
2025-11-22T12:00	21000	43	-66.0		259	28	
2025-11-22T12:00	21050	43	-66.3		260	28	
2025-11-22T12:00	21100	43	-66.3		261	28	
2025-11-22T12:00	21150	42	-66.5		263	28	
2025-11-22T12:00	21200	42	-66.5		265	29	
2025-11-22T12:00	21250	42	-66.5		266	29	
2025-11-22T12:00	21300	41	-66.5		267	28	
2025-11-22T12:00	21350	41	-66.7		267	28	
2025-11-22T12:00	21400	41	-66.8		266	28	
2025-11-22T12:00	21450	40	-67.0		266	27	
2025-11-22T12:00	21500	40	-67.1		267	27	
2025-11-22T12:00	21550	40	-67.3		269	27	
2025-11-22T12:00	21600	39	-67.7		269	27	
2025-11-22T12:00	21650	39	-67.6		268	26	
2025-11-22T12:00	21700	39	-67.8		267	25	
2025-11-22T12:00	21750	38	-68.1		267	25	
2025-11-22T12:00	21800	38	-67.9		268	25	
2025-11-22T12:00	21850	38	-67.7		268	26	
2025-11-22T12:00	21900	37	-67.9		268	27	
2025-11-22T12:00	21950	37	-67.7		266	27	
2025-11-22T12:00	22000	37	-67.5		264	28	
2025-11-22T12:00	22050	36	-67.7		263	29	
2025-11-22T12:00	22100	36	-67.3		262	30	
2025-11-22T12:00	22150	36	-66.3		263	31	
2025-11-22T12:00	22200	36	-65.5		264	32	
2025-11-22T12:00	22250	35	-65.2		266	33	
2025-11-22T12:00	22300	35	-65.4		268	34	
2025-11-22T12:00	22350	35	-65.7		269	34	
2025-11-22T12:00	22400	34	-65.7		268	35	
2025-11-22T12:00	22450	34	-65.2		266	35	
2025-11-22T12:00	22500	34	-65.2		263	34	
2025-11-22T12:00	22550	34	-65.1		260	33	
2025-11-22T12:00	22600	33	-64.9		258	33	
2025-11-22T12:00	22650	33	-64.4		259	33	
2025-11-22T12:00	22700	33	-63.6		261	33	
2025-11-22T12:00	22750	32	-63.6		264	33	
2025-11-22T12:00	22800	32	-63.7		267	33	
2025-11-22T12:00	22850	32	-64.0		269	33	
2025-11-22T12:00	22900	32	-64.4		270	33	
2025-11-22T12:00	22950	31	-64.6		269	33	
2025-11-22T12:00	23000	31	-64.5		267	33	
2025-11-22T12:00	23050	31	-64.3		265	32	
2025-11-22T12:00	23100	31	-64.0		264	31	
2025-11-22T12:00	23150	30	-64.2		264	31	
2025-11-22T12:00	23200	30	-64.3		264	31	
2025-11-22T12:00	23250	30	-64.2		264	31	
2025-11-22T12:00	23300	30	-63.8		263	30	
2025-11-22T12:00	23350	29	-63.6		262	29	
2025-11-22T12:00	23400	29	-63.7		259	28	
2025-11-22T12:00	23450	29	-63.8		257	28	
2025-11-22T12:00	23500	29	-63.9		254	28	
2025-11-22T12:00	23550	28	-63.9		252	29	
2025-11-22T12:00	23600	28	-63.9		251	29	
2025-11-22T12:00	23650	28	-63.9		251	30	
2025-11-22T12:00	23700	28	-64.0		251	30	
2025-11-22T12:00	23750	28	-64.0		250	30	
2025-11-22T12:00	23800	27	-63.8		247	30	
2025-11-22T12:00	23850	27	-64.0		245	29	
2025-11-22T12:00	23900	27	-64.4		243	28	
2025-11-22T12:00	23950	27	-64.7		240	28	
2025-11-22T12:00	24000	26	-65.0		239	27	
2025-11-22T12:00	24050	26	-65.2		240	27	
2025-11-22T12:00	24100	26	-65.1		242	28	
2025-11-22T12:00	24150	26	-65.0		245	29	
2025-11-22T12:00	24200	26	-65.0		248	30	
2025-11-22T12:00	24250	25	-65.1		250	32	
2025-11-22T12:00	24300	25	-65.0		252	33	
2025-11-22T12:00	24350	25	-65.0		253	35	
2025-11-22T12:00	24400	25	-64.9		253	36	
2025-11-22T12:00	24450	25	-65.0		253	37	
2025-11-22T12:00	24500	24	-65.1		254	38	
2025-11-22T12:00	24550	24	-65.0		255	38	
2025-11-22T12:00	24600	24	-65.3		255	37	
2025-11-22T12:00	24650	24	-65.0		254	36	
2025-11-22T12:00	24700	24	-64.5		252	36	
2025-11-22T12:00	24750	23	-64.5		251	37	
2025-11-22T12:00	24800	23	-64.3		251	39	
2025-11-22T12:00	24850	23	-63.8		251	40	
2025-11-22T12:00	24900	23	-63.6		251	41	
2025-11-22T12:00	24950	23	-63.2		251	41	
2025-11-22T12:00	25000	22	-63.0		251	41	
2025-11-22T12:00	25050	22	-63.2		251	40	
2025-11-22T12:00	25100	22	-63.6		251	39	
2025-11-22T12:00	25150	22	-63.7		250	39	
2025-11-22T12:00	25200	22	-63.2		250	40	
2025-11-22T12:00	25250	22	-62.7		250	42	
2025-11-22T12:00	25300	21	-62.1		250	43	
2025-11-22T12:00	25350	21	-61.9		250	44	
2025-11-22T12:00	25400	21	-61.8		249	45	
2025-11-22T12:00	25450	21	-61.8		248	45	
2025-11-22T12:00	25500	21	-61.9		247	45	
2025-11-22T12:00	25550	21	-61.9		247	45	
2025-11-22T12:00	25600	20	-62.0		247	45	
2025-11-22T12:00	25650	20	-62.2		249	45	
2025-11-22T12:00	25700	20	-62.6		249	44	
2025-11-22T12:00	25750	20	-63.0		249	44	
2025-11-22T12:00	25800	20	-63.2		249	43	
2025-11-22T12:00	25850	20	-63.5		249	43	
2025-11-22T12:00	25900	19	-63.7		251	43	
2025-11-22T12:00	25950	19	-63.8		252	44	
2025-11-22T12:00	26000	19	-63.8		254	44	
2025-11-22T12:00	26050	19	-63.8		256	44	
2025-11-22T12:00	26100	19	-63.9		258	44	
2025-11-22T12:00	26150	19	-64.0		259	45	
2025-11-22T12:00	26200	18	-64.2		259	45	
2025-11-22T12:00	26250	18	-64.3		257	46	
2025-11-22T12:00	26300	18	-64.1		255	46	
2025-11-22T12:00	26350	18	-64.1		254	47	
2025-11-22T12:00	26400	18	-64.3		254	48	
2025-11-22T12:00	26450	18	-64.0		255	49	
2025-11-22T12:00	26500	18	-63.7		255	50	
2025-11-22T12:00	26550	17	-63.4		255	52	
2025-11-22T12:00	26600	17	-63.0		254	53	
2025-11-22T12:00	26650	17	-62.7		254	54	
2025-11-22T12:00	26700	17	-62.6		253	55	
2025-11-22T12:00	26750	17	-62.6		253	56	
2025-11-22T12:00	26800	17	-62.4		254	57	
2025-11-22T12:00	26850	17	-61.8		255	57	
2025-11-22T12:00	26900	16	-61.3		256	57	
2025-11-22T12:00	26950	16	-60.7		257	57	
2025-11-22T12:00	27000	16	-59.9		258	57	
2025-11-22T12:00	27050	16	-58.9		257	58	
2025-11-22T12:00	27100	16	-58.1		256	59	
2025-11-22T12:00	27150	16	-57.7		255	60	
2025-11-22T12:00	27200	16	-57.7		254	61	
2025-11-22T12:00	27250	16	-57.6		255	61	
2025-11-22T12:00	27300	15	-57.8		256	62	
2025-11-22T12:00	27350	15	-57.9		258	62	
2025-11-22T12:00	27400	15	-57.8		260	63	
2025-11-22T12:00	27450	15	-57.6		261	63	
2025-11-22T12:00	27500	15	-57.4		262	63	
2025-11-22T12:00	27550	15	-57.3		262	62	
2025-11-22T12:00	27600	15	-57.6		263	61	
2025-11-22T12:00	27650	15	-58.0		263	61	
2025-11-22T12:00	27700	15	-58.1		264	62	
2025-11-22T12:00	27750	14	-57.7		265	62	
2025-11-22T12:00	27800	14	-57.5		265	62	
2025-11-22T12:00	27850	14	-57.1		264	62	
2025-11-22T12:00	27900	14	-57.0		263	61	
2025-11-22T12:00	27950	14	-56.9		262	61	
2025-11-22T12:00	28000	14	-56.9		261	62	
2025-11-22T12:00	28050	14	-56.6		260	62	
2025-11-22T12:00	28100	14	-56.4		259	62	
2025-11-22T12:00	28150	14	-56.2		259	62	
2025-11-22T12:00	28200	13	-55.9		258	62	
2025-11-22T12:00	28250	13	-55.8		257	62	
2025-11-22T12:00	28300	13	-56.0		257	62	
2025-11-22T12:00	28350	13	-56.2		256	62	
2025-11-22T12:00	28400	13	-56.2		255	63	
2025-11-22T12:00	28450	13	-56.1		255	63	
2025-11-22T12:00	28500	13	-55.8		255	64	
2025-11-22T12:00	28550	13	-55.5		254	64	
2025-11-22T12:00	28600	13	-55.4		254	65	
2025-11-22T12:00	28650	12	-55.4		254	66	
2025-11-22T12:00	28700	12	-55.0		253	67	
2025-11-22T12:00	28750	12	-54.3		253	68	
2025-11-22T12:00	28800	12	-53.8		253	68	
2025-11-22T12:00	28850	12	-53.3		252	68	
2025-11-22T12:00	28900	12	-52.7		253	69	
2025-11-22T12:00	28950	12	-52.5		253	70	
2025-11-22T12:00	29000	12	-52.6		253	72	
2025-11-22T12:00	29050	12	-52.8		254	73	
2025-11-22T12:00	29100	12	-52.8		254	73	
2025-11-22T12:00	29150	12	-52.2		255	73	
2025-11-22T12:00	29200	11	-52.3		256	72	
2025-11-22T12:00	29250	11	-52.6		256	71	
2025-11-22T12:00	29300	11	-52.7		256	70	
2025-11-22T12:00	29350	11	-52.6		256	70	
2025-11-22T12:00	29400	11	-52.3		255	70	
2025-11-22T12:00	29450	11	-52.1		255	71	
2025-11-22T12:00	29500	11	-52.1		255	71	
2025-11-22T12:00	29550	11	-52.1		254	71	
2025-11-22T12:00	29600	11	-52.0		254	71	
2025-11-22T12:00	29650	11	-51.9		253	72	
2025-11-22T12:00	29700	11	-51.9		253	73	
2025-11-22T12:00	29750	11	-51.9		253	73	
2025-11-22T12:00	29800	10	-51.9		253	74	
2025-11-22T12:00	29850	10	-51.9		253	74	
2025-11-22T12:00	29900	10	-51.7		252	75	
2025-11-22T12:00	29950	10	-51.7		252	74	
2025-11-22T12:00	30000	10	-51.6		252	74	
2025-11-22T12:00	30050	10	-51.5		252	74	
2025-11-22T12:00	30100	10	-51.5		252	75	
2025-11-22T12:00	30150	10	-51.6		252	76	
2025-11-22T12:00	30200	10	-51.8		252	76	
2025-11-22T12:00	30250	10	-51.8		253	77	
2025-11-22T12:00	30300	10	-51.7		253	78	
2025-11-22T12:00	30350	10	-51.8		254	79	
2025-11-22T12:00	30400	10	-52.1		254	80	
2025-11-22T12:00	30450	9	-52.3		254	81	
2025-11-22T12:00	30500	9	-52.5		254	82	
2025-11-22T12:00	30550	9	-52.7		254	83	
2025-11-22T12:00	30600	9	-52.8		254	83	
2025-11-22T12:00	30650	9	-52.9		254	83	
2025-11-22T12:00	30700	9	-52.9		255	83	
2025-11-22T12:00	30750	9	-52.9		256	83	
2025-11-22T12:00	30800	9	-52.8		257	83	
2025-11-22T12:00	30850	9	-52.6		257	84	
2025-11-22T12:00	30900	9	-52.4		257	83	
2025-11-22T12:00	30950	9	-52.3		257	83	
2025-11-22T12:00	31000	9	-51.9		257	83	
2025-11-22T12:00	31050	9	-51.5		257	82	
2025-11-22T12:00	31100	9	-51.4		257	82	
2025-11-22T12:00	31150	8	-51.5		257	82	
2025-11-22T12:00	31200	8	-51.6		257	83	
2025-11-22T12:00	31250	8	-51.8		257	83	
2025-11-22T12:00	31300	8	-52.0		257	84	
2025-11-22T12:00	31350	8	-52.2		257	85	
2025-11-22T12:00	31400	8	-52.2		258	85	
2025-11-22T12:00	31450	8	-52.3		258	85	
2025-11-22T12:00	31500	8	-52.3		258	85	
2025-11-22T12:00	31550	8	-52.2		258	86	
2025-11-22T12:00	31600	8	-51.8		257	87	
2025-11-22T12:00	31650	8	-51.4		257	88	
2025-11-22T12:00	31700	8	-51.0		257	87	
2025-11-22T12:00	31750	8	-49.9		256	88	
2025-11-22T12:00	31800	8	-49.0		256	89	
2025-11-22T12:00	31850	8	-49.0		255	90	
2025-11-22T12:00	31900	8	-48.6		256	91	
2025-11-22T12:00	31950	8	-47.7		257	94	
2025-11-22T12:00	32000	7	-47.2		257	95	
2025-11-22T12:00	32050	7	-46.9		257	95	
2025-11-22T12:00	32100	7	-46.6		257	96	
2025-11-22T12:00	32150	7	-46.5		257	96	
2025-11-22T12:00	32200	7	-46.6		257	96	
2025-11-22T12:00	32250	7	-46.5		258	96	
2025-11-22T12:00	32300	7	-46.2		259	97	
2025-11-22T12:00	32350	7	-46.0		259	98	
2025-11-22T12:00	32400	7	-45.3		260	99	
2025-11-22T12:00	32450	7	-45.0		260	100	
2025-11-22T12:00	32500	7	-45.0		260	100	
2025-11-22T12:00	32550	7	-45.1		260	101	
2025-11-22T12:00	32600	7	-45.2		261	101	
2025-11-22T12:00	32650	7	-45.2		261	101	
2025-11-22T12:00	32700	7	-45.2		261	102	
2025-11-22T12:00	32750	7	-45.3		261	102	
2025-11-22T12:00	32800	7	-45.2		261	102	
2025-11-22T12:00	32850	7	-45.2		261	102	
2025-11-22T12:00	32900	7	-45.1		261	101	
2025-11-22T12:00	32950	6	-45.1		261	101	
2025-11-22T12:00	33000	6	-45.0		261	101	
2025-11-22T12:00	33050	6	-45.0		260	102	
2025-11-22T12:00	33100	6	-45.0		260	102	
2025-11-22T12:00	33150	6	-44.7		260	103	
2025-11-22T12:00	33200	6	-44.1		260	104	
2025-11-22T12:00	33250	6	-43.5		260	104	
2025-11-22T12:00	33300	6	-42.9		261	104	
2025-11-22T12:00	33350	6	-42.7		261	103	
2025-11-22T12:00	33400	6	-42.6		262	102	
2025-11-22T12:00	33450	6	-42.5		262	103	
2025-11-22T12:00	33500	6	-42.4		261	104	
2025-11-22T12:00	33550	6	-42.2		261	105	
2025-11-22T12:00	33600	6	-41.6		260	106	
2025-11-22T12:00	33650	6	-40.9		260	107	
2025-11-22T12:00	33700	6	-40.5		260	107	
2025-11-23T00:00	491	964	-6.1	-7.1	167	0	
2025-11-23T00:00	501	962	-5.8	-7.1	201	1	
2025-11-23T00:00	520	961	-5.4	-6.8	205	2	
2025-11-23T00:00	540	958	-5.2	-6.9	206	2	
2025-11-23T00:00	560	955	-4.9	-6.7	207	2	
2025-11-23T00:00	580	953	-4.7	-6.7	206	2	
2025-11-23T00:00	600	950	-4.8	-6.7	202	1	
2025-11-23T00:00	620	948	-4.8	-6.7	191	1	
2025-11-23T00:00	640	946	-5.0	-6.8	166	1	
2025-11-23T00:00	660	943	-5.0	-6.9	118	1	
2025-11-23T00:00	680	941	-5.0	-7.1	77	1	
2025-11-23T00:00	700	938	-5.2	-7.2	59	1	
2025-11-23T00:00	720	936	-5.3	-7.3	50	1	
2025-11-23T00:00	740	934	-5.3	-7.4	45	2	
2025-11-23T00:00	760	932	-5.2	-7.4	41	2	
2025-11-23T00:00	780	929	-5.3	-7.5	39	2	
2025-11-23T00:00	800	927	-5.5	-7.6	38	2	
2025-11-23T00:00	820	924	-5.7	-7.6	38	2	
2025-11-23T00:00	840	922	-5.8	-7.6	39	2	
2025-11-23T00:00	860	920	-5.8	-7.7	41	1	
2025-11-23T00:00	880	917	-5.8	-7.7	42	1	
2025-11-23T00:00	900	915	-5.8	-7.9	44	1	
2025-11-23T00:00	920	913	-5.8	-8.0	42	1	
2025-11-23T00:00	940	910	-6.0	-8.0	38	1	
2025-11-23T00:00	960	908	-6.1	-8.2	32	1	
2025-11-23T00:00	980	905	-6.1	-8.3	28	1	
2025-11-23T00:00	1000	903	-6.2	-8.5	25	1	
2025-11-23T00:00	1020	901	-6.4	-8.5	25	1	
2025-11-23T00:00	1040	898	-6.6	-8.6	27	1	
2025-11-23T00:00	1060	896	-6.8	-8.6	33	1	
2025-11-23T00:00	1080	894	-6.7	-8.8	44	1	
2025-11-23T00:00	1100	892	-6.6	-8.9	65	1	
2025-11-23T00:00	1120	890	-6.8	-8.0	88	1	
2025-11-23T00:00	1140	887	-6.9	-7.3	99	1	
2025-11-23T00:00	1160	885	-6.9	-7.5	102	1	
2025-11-23T00:00	1180	883	-6.7	-9.2	101	1	
2025-11-23T00:00	1200	880	-6.6	-9.1	98	1	
2025-11-23T00:00	1220	878	-6.6	-9.4	95	2	
2025-11-23T00:00	1240	876	-6.5	-10.5	93	2	
2025-11-23T00:00	1260	874	-6.3	-12.2	91	2	
2025-11-23T00:00	1280	872	-6.3	-12.7	91	3	
2025-11-23T00:00	1300	869	-6.5	-12.9	91	3	
2025-11-23T00:00	1320	867	-6.4	-14.1	92	3	
2025-11-23T00:00	1340	865	-5.7	-16.9	93	3	
2025-11-23T00:00	1360	862	-5.4	-20.1	94	4	
2025-11-23T00:00	1380	860	-5.2	-22.0	93	4	
2025-11-23T00:00	1400	858	-5.2	-22.6	93	5	
2025-11-23T00:00	1420	856	-5.2	-23.4	91	5	
2025-11-23T00:00	1440	854	-5.1	-25.1	90	5	
2025-11-23T00:00	1460	852	-5.0	-25.7	88	5	
2025-11-23T00:00	1480	850	-5.1	-24.9	87	5	
2025-11-23T00:00	1500	848	-5.2	-24.2	85	5	
2025-11-23T00:00	1520	845	-5.3	-23.6	82	4	
2025-11-23T00:00	1540	843	-5.4	-22.4	80	4	
2025-11-23T00:00	1560	841	-5.5	-22.9	77	4	
2025-11-23T00:00	1580	839	-5.6	-23.5	74	3	
2025-11-23T00:00	1600	836	-5.7	-23.3	71	3	
2025-11-23T00:00	1620	834	-5.8	-22.8	71	3	
2025-11-23T00:00	1640	832	-5.9	-22.7	72	3	
2025-11-23T00:00	1660	830	-6.0	-23.1	74	3	
2025-11-23T00:00	1680	828	-6.1	-23.6	79	2	
2025-11-23T00:00	1700	826	-6.2	-23.8	82	2	
2025-11-23T00:00	1720	824	-6.2	-24.5	86	3	
2025-11-23T00:00	1740	822	-6.2	-25.3	88	3	
2025-11-23T00:00	1760	820	-6.2	-26.3	89	3	
2025-11-23T00:00	1780	818	-6.3	-26.6	90	3	
2025-11-23T00:00	1800	816	-6.4	-27.4	90	3	
2025-11-23T00:00	1820	813	-6.6	-29.0	92	3	
2025-11-23T00:00	1840	811	-6.7	-31.0	94	3	
2025-11-23T00:00	1860	809	-6.8	-32.8	98	3	
2025-11-23T00:00	1880	807	-6.9	-33.8	104	3	
2025-11-23T00:00	1900	805	-7.0	-34.4	108	3	
2025-11-23T00:00	1920	803	-7.1	-34.6	112	3	
2025-11-23T00:00	1940	801	-7.2	-35.0	116	3	
2025-11-23T00:00	1960	799	-7.3	-36.0	119	3	
2025-11-23T00:00	1980	797	-7.3	-38.6	120	3	
2025-11-23T00:00	2000	795	-7.2	-37.7	120	3	
2025-11-23T00:00	2020	793	-7.3	-35.7	120	3	
2025-11-23T00:00	2040	791	-7.4	-35.9	119	3	
2025-11-23T00:00	2060	789	-7.5	-37.9	117	3	
2025-11-23T00:00	2080	787	-7.6	-39.8	114	3	
2025-11-23T00:00	2100	785	-7.6	-42.5	111	3	
2025-11-23T00:00	2120	783	-7.6	-43.6	104	2	
2025-11-23T00:00	2140	781	-7.7	-43.4	95	2	
2025-11-23T00:00	2160	779	-7.7	-42.6	83	2	
2025-11-23T00:00	2180	777	-7.7	-41.5	69	2	
2025-11-23T00:00	2200	775	-7.7	-44.7	58	2	
2025-11-23T00:00	2220	773	-7.8	-45.0	50	2	
2025-11-23T00:00	2240	771	-7.7	-43.9	46	2	
2025-11-23T00:00	2260	768	-7.5	-45.6	44	2	
2025-11-23T00:00	2280	767	-7.5	-45.9	43	2	
2025-11-23T00:00	2300	765	-7.6	-45.6	43	2	
2025-11-23T00:00	2320	763	-7.7	-45.2	42	3	
2025-11-23T00:00	2340	761	-7.7	-45.4	40	3	
2025-11-23T00:00	2360	759	-7.7	-44.0	38	3	
2025-11-23T00:00	2380	757	-7.7	-43.2	35	3	
2025-11-23T00:00	2400	755	-7.7	-42.4	31	3	
2025-11-23T00:00	2420	753	-7.8	-41.1	27	3	
2025-11-23T00:00	2440	751	-7.8	-40.7	23	4	
2025-11-23T00:00	2460	749	-7.8	-41.4	19	4	
2025-11-23T00:00	2480	747	-7.8	-45.1	15	4	
2025-11-23T00:00	2500	745	-7.9	-47.4	12	5	
2025-11-23T00:00	2520	744	-7.8	-47.5	9	5	
2025-11-23T00:00	2540	741	-7.7	-46.5	7	5	
2025-11-23T00:00	2560	739	-7.8	-45.5	6	5	
2025-11-23T00:00	2580	738	-7.7	-40.9	5	5	
2025-11-23T00:00	2600	736	-7.7	-39.1	4	6	
2025-11-23T00:00	2620	734	-7.9	-38.5	3	5	
2025-11-23T00:00	2640	732	-8.0	-37.8	2	6	
2025-11-23T00:00	2660	730	-8.1	-36.8	1	6	
2025-11-23T00:00	2680	728	-8.2	-35.7	1	6	
2025-11-23T00:00	2700	726	-8.2	-34.5	1	6	
2025-11-23T00:00	2720	724	-8.2	-32.5	2	6	
2025-11-23T00:00	2740	723	-8.3	-31.6	4	6	
2025-11-23T00:00	2760	721	-8.4	-30.7	5	6	
2025-11-23T00:00	2780	719	-8.6	-30.1	5	7	
2025-11-23T00:00	2800	717	-8.7	-29.5	5	7	
2025-11-23T00:00	2820	715	-8.8	-29.2	4	7	
2025-11-23T00:00	2840	713	-8.9	-29.1	2	7	
2025-11-23T00:00	2860	712	-9.0	-29.1	360	7	
2025-11-23T00:00	2880	710	-9.1	-29.0	356	7	
2025-11-23T00:00	2900	708	-9.2	-29.0	353	7	
2025-11-23T00:00	2920	706	-9.3	-28.9	350	7	
2025-11-23T00:00	2940	704	-9.3	-28.9	348	7	
2025-11-23T00:00	2960	702	-9.4	-28.4	345	7	
2025-11-23T00:00	2980	700	-9.5	-27.7	343	7	
2025-11-23T00:00	3000	699	-9.6	-27.4	342	7	
2025-11-23T00:00	3020	697	-9.8	-27.1	341	7	
2025-11-23T00:00	3040	695	-9.9	-27.1	340	7	
2025-11-23T00:00	3060	693	-10.0	-26.6	339	6	
2025-11-23T00:00	3080	691	-10.1	-26.2	339	6	
2025-11-23T00:00	3100	690	-10.3	-26.3	338	6	
2025-11-23T00:00	3120	688	-10.5	-26.2	338	6	
2025-11-23T00:00	3140	686	-10.7	-26.1	339	6	
2025-11-23T00:00	3160	684	-10.8	-25.9	340	6	
2025-11-23T00:00	3180	683	-10.9	-25.9	342	6	
2025-11-23T00:00	3200	681	-11.1	-25.9	344	6	
2025-11-23T00:00	3220	679	-11.2	-25.9	346	6	
2025-11-23T00:00	3240	677	-11.3	-26.0	347	7	
2025-11-23T00:00	3260	676	-11.3	-26.2	348	7	
2025-11-23T00:00	3280	674	-11.3	-26.3	347	7	
2025-11-23T00:00	3300	672	-11.4	-26.2	347	8	
2025-11-23T00:00	3320	670	-11.5	-26.2	346	8	
2025-11-23T00:00	3340	669	-11.5	-26.0	344	8	
2025-11-23T00:00	3360	667	-11.6	-26.0	343	8	
2025-11-23T00:00	3380	665	-11.8	-26.0	342	8	
2025-11-23T00:00	3400	663	-12.0	-25.9	341	8	
2025-11-23T00:00	3420	662	-12.2	-25.8	341	8	
2025-11-23T00:00	3440	660	-12.3	-25.5	341	7	
2025-11-23T00:00	3460	658	-12.3	-25.5	342	7	
2025-11-23T00:00	3480	656	-12.4	-25.8	343	7	
2025-11-23T00:00	3500	655	-12.5	-25.8	345	7	
2025-11-23T00:00	3520	653	-12.6	-25.9	347	7	
2025-11-23T00:00	3540	651	-12.6	-25.8	348	7	
2025-11-23T00:00	3560	650	-12.6	-26.0	349	7	
2025-11-23T00:00	3580	648	-12.6	-25.9	348	7	
2025-11-23T00:00	3600	646	-12.7	-25.9	346	7	
2025-11-23T00:00	3620	644	-12.9	-26.1	344	7	
2025-11-23T00:00	3640	643	-13.0	-26.1	342	7	
2025-11-23T00:00	3660	641	-13.1	-26.2	341	7	
2025-11-23T00:00	3680	639	-13.3	-26.2	340	8	
2025-11-23T00:00	3700	638	-13.4	-26.3	341	8	
2025-11-23T00:00	3720	636	-13.5	-26.4	342	8	
2025-11-23T00:00	3740	634	-13.6	-26.6	342	8	
2025-11-23T00:00	3760	633	-13.6	-26.6	344	8	
2025-11-23T00:00	3780	631	-13.7	-26.4	344	8	
2025-11-23T00:00	3800	629	-13.8	-26.3	345	8	
2025-11-23T00:00	3820	628	-13.9	-26.3	345	8	
2025-11-23T00:00	3840	626	-14.0	-26.3	345	8	
2025-11-23T00:00	3860	624	-14.1	-26.4	345	8	
2025-11-23T00:00	3880	623	-14.3	-26.8	344	8	
2025-11-23T00:00	3900	621	-14.4	-27.6	344	8	
2025-11-23T00:00	3920	619	-14.4	-27.6	345	8	
2025-11-23T00:00	3940	618	-14.5	-27.5	345	8	
2025-11-23T00:00	3960	616	-14.6	-27.2	346	8	
2025-11-23T00:00	3980	614	-14.7	-27.1	347	9	
2025-11-23T00:00	4000	613	-14.8	-26.3	347	9	
2025-11-23T00:00	4020	611	-15.0	-25.4	347	10	
2025-11-23T00:00	4040	610	-15.2	-25.0	347	10	
2025-11-23T00:00	4060	608	-15.4	-24.5	346	10	
2025-11-23T00:00	4080	606	-15.6	-24.4	345	10	
2025-11-23T00:00	4100	605	-15.7	-24.2	343	10	
2025-11-23T00:00	4120	603	-15.9	-23.8	342	10	
2025-11-23T00:00	4140	602	-16.0	-23.5	340	10	
2025-11-23T00:00	4160	600	-16.1	-23.8	339	10	
2025-11-23T00:00	4180	598	-16.2	-23.9	338	10	
2025-11-23T00:00	4200	597	-16.3	-24.1	337	10	
2025-11-23T00:00	4220	595	-16.5	-24.1	336	11	
2025-11-23T00:00	4240	594	-16.6	-24.2	336	11	
2025-11-23T00:00	4260	592	-16.7	-24.3	335	11	
2025-11-23T00:00	4280	591	-16.9	-24.3	335	11	
2025-11-23T00:00	4300	589	-17.1	-24.3	335	12	
2025-11-23T00:00	4320	588	-17.2	-24.4	335	12	
2025-11-23T00:00	4340	586	-17.4	-24.4	335	12	
2025-11-23T00:00	4360	584	-17.6	-24.4	336	12	
2025-11-23T00:00	4380	583	-17.7	-24.4	336	12	
2025-11-23T00:00	4400	581	-17.8	-24.4	336	11	
2025-11-23T00:00	4420	580	-17.9	-24.4	337	12	
2025-11-23T00:00	4440	578	-18.0	-24.6	337	12	
2025-11-23T00:00	4460	576	-18.1	-24.7	337	12	
2025-11-23T00:00	4480	575	-18.2	-24.7	337	12	
2025-11-23T00:00	4500	574	-18.4	-24.8	337	12	
2025-11-23T00:00	4520	572	-18.5	-24.7	337	13	
2025-11-23T00:00	4540	571	-18.7	-24.6	337	13	
2025-11-23T00:00	4560	569	-18.9	-24.7	337	13	
2025-11-23T00:00	4580	567	-19.1	-24.7	338	13	
2025-11-23T00:00	4600	566	-19.3	-24.5	339	13	
2025-11-23T00:00	4620	564	-19.4	-24.5	340	13	
2025-11-23T00:00	4640	563	-19.6	-25.0	341	13	
2025-11-23T00:00	4660	561	-19.7	-25.2	342	12	
2025-11-23T00:00	4680	560	-19.8	-25.4	343	12	
2025-11-23T00:00	4700	558	-19.9	-25.9	344	12	
2025-11-23T00:00	4720	557	-20.0	-26.4	344	13	
2025-11-23T00:00	4740	555	-20.1	-26.8	344	13	
2025-11-23T00:00	4760	554	-20.1	-27.2	343	13	
2025-11-23T00:00	4780	552	-20.2	-27.4	342	13	
2025-11-23T00:00	4800	551	-20.3	-27.6	341	13	
2025-11-23T00:00	4820	549	-20.4	-27.9	340	14	
2025-11-23T00:00	4840	548	-20.5	-28.2	338	14	
2025-11-23T00:00	4860	546	-20.6	-28.4	337	14	
2025-11-23T00:00	4880	545	-20.8	-28.6	337	14	
2025-11-23T00:00	4900	543	-20.8	-28.8	336	14	
2025-11-23T00:00	4920	542	-20.9	-29.4	336	14	
2025-11-23T00:00	4940	541	-20.9	-30.0	336	14	
2025-11-23T00:00	4960	539	-21.1	-29.8	337	14	
2025-11-23T00:00	4980	538	-21.3	-29.8	337	14	
2025-11-23T00:00	5000	536	-21.4	-29.7	337	13	
2025-11-23T00:00	5020	535	-21.6	-29.8	338	13	
2025-11-23T00:00	5040	533	-21.8	-29.8	338	14	
2025-11-23T00:00	5060	532	-22.0	-29.9	338	14	
2025-11-23T00:00	5080	530	-22.1	-30.4	337	14	
2025-11-23T00:00	5100	529	-22.1	-30.9	337	14	
2025-11-23T00:00	5120	527	-22.3	-30.9	336	14	
2025-11-23T00:00	5140	526	-22.4	-30.9	336	14	
2025-11-23T00:00	5160	525	-22.6	-31.0	335	14	
2025-11-23T00:00	5180	523	-22.8	-31.2	335	14	
2025-11-23T00:00	5200	522	-22.9	-31.3	335	14	
2025-11-23T00:00	5220	520	-23.0	-31.6	336	14	
2025-11-23T00:00	5240	519	-23.2	-31.6	337	15	
2025-11-23T00:00	5260	517	-23.4	-31.3	338	15	
2025-11-23T00:00	5280	516	-23.5	-31.0	339	15	
2025-11-23T00:00	5300	515	-23.7	-30.8	340	15	
2025-11-23T00:00	5320	513	-23.9	-30.6	340	15	
2025-11-23T00:00	5340	512	-24.0	-30.5	339	15	
2025-11-23T00:00	5360	511	-24.2	-30.4	338	15	
2025-11-23T00:00	5380	509	-24.4	-30.4	338	15	
2025-11-23T00:00	5400	508	-24.5	-31.1	336	15	
2025-11-23T00:00	5420	506	-24.6	-31.8	336	15	
2025-11-23T00:00	5440	505	-24.8	-31.8	335	15	
2025-11-23T00:00	5460	503	-25.0	-31.8	335	15	
2025-11-23T00:00	5480	502	-25.1	-31.7	335	15	
2025-11-23T00:00	5500	500	-25.3	-31.8	335	15	
2025-11-23T00:00	5520	499	-25.5	-31.9	335	16	
2025-11-23T00:00	5540	498	-25.7	-32.1	334	16	
2025-11-23T00:00	5560	497	-25.9	-32.7	334	16	
2025-11-23T00:00	5580	495	-26.0	-33.5	334	16	
2025-11-23T00:00	5600	494	-26.0	-34.3	334	17	
2025-11-23T00:00	5620	493	-26.1	-34.5	334	17	
2025-11-23T00:00	5640	491	-26.3	-34.4	334	17	
2025-11-23T00:00	5660	490	-26.5	-34.5	334	17	
2025-11-23T00:00	5680	488	-26.7	-34.5	335	17	
2025-11-23T00:00	5700	487	-26.9	-34.2	335	17	
2025-11-23T00:00	5720	486	-27.1	-34.1	335	17	
2025-11-23T00:00	5740	484	-27.3	-34.4	336	17	
2025-11-23T00:00	5760	483	-27.5	-34.2	336	17	
2025-11-23T00:00	5780	482	-27.7	-34.3	336	17	
2025-11-23T00:00	5800	480	-27.9	-34.4	336	17	
2025-11-23T00:00	5820	479	-28.1	-34.3	334	17	
2025-11-23T00:00	5840	478	-28.2	-34.5	333	17	
2025-11-23T00:00	5860	476	-28.4	-35.0	331	17	
2025-11-23T00:00	5880	475	-28.5	-35.7	330	17	
2025-11-23T00:00	5900	474	-28.6	-36.9	329	17	
2025-11-23T00:00	5920	472	-28.7	-37.4	328	16	
2025-11-23T00:00	5940	471	-28.8	-37.6	327	16	
2025-11-23T00:00	5960	470	-29.0	-38.0	327	16	
2025-11-23T00:00	5980	468	-29.1	-38.3	328	16	
2025-11-23T00:00	6000	467	-29.2	-38.4	328	16	
2025-11-23T00:00	6020	466	-29.4	-38.5	329	16	
2025-11-23T00:00	6040	464	-29.6	-38.9	331	16	
2025-11-23T00:00	6060	463	-29.8	-39.5	332	16	
2025-11-23T00:00	6080	462	-29.9	-39.8	334	17	
2025-11-23T00:00	6100	461	-30.1	-40.3	335	17	
2025-11-23T00:00	6120	459	-30.2	-40.6	335	17	
2025-11-23T00:00	6140	458	-30.4	-41.0	336	18	
2025-11-23T00:00	6160	457	-30.6	-42.1	336	18	
2025-11-23T00:00	6180	455	-30.7	-42.4	336	18	
2025-11-23T00:00	6200	454	-30.9	-42.7	335	19	
2025-11-23T00:00	6220	453	-31.1	-43.4	335	19	
2025-11-23T00:00	6240	452	-31.2	-44.4	334	19	
2025-11-23T00:00	6260	450	-31.4	-44.9	333	19	
2025-11-23T00:00	6280	449	-31.5	-45.5	333	20	
2025-11-23T00:00	6300	448	-31.7	-45.5	333	20	
2025-11-23T00:00	6320	446	-32.0	-46.0	333	20	
2025-11-23T00:00	6340	445	-32.1	-46.1	334	20	
2025-11-23T00:00	6360	444	-32.3	-46.3	335	20	
2025-11-23T00:00	6380	443	-32.4	-46.4	335	20	
2025-11-23T00:00	6400	441	-32.6	-46.5	336	20	
2025-11-23T00:00	6420	440	-32.7	-46.7	336	20	
2025-11-23T00:00	6440	439	-32.8	-47.1	336	21	
2025-11-23T00:00	6460	438	-32.9	-47.4	336	21	
2025-11-23T00:00	6480	436	-33.0	-47.8	337	21	
2025-11-23T00:00	6500	435	-33.1	-47.9	337	21	
2025-11-23T00:00	6520	434	-33.3	-47.9	338	21	
2025-11-23T00:00	6540	433	-33.4	-47.9	338	21	
2025-11-23T00:00	6560	431	-33.6	-47.8	338	21	
2025-11-23T00:00	6580	430	-33.8	-47.9	338	21	
2025-11-23T00:00	6600	429	-33.9	-48.0	337	21	
2025-11-23T00:00	6620	428	-34.1	-47.6	336	21	
2025-11-23T00:00	6640	427	-34.2	-47.1	335	22	
2025-11-23T00:00	6660	425	-34.3	-47.1	335	22	
2025-11-23T00:00	6680	424	-34.5	-46.3	334	22	
2025-11-23T00:00	6700	423	-34.6	-46.2	334	22	
2025-11-23T00:00	6720	422	-34.8	-46.5	335	22	
2025-11-23T00:00	6740	420	-35.0	-46.7	335	22	
2025-11-23T00:00	6760	419	-35.1	-47.4	336	22	
2025-11-23T00:00	6780	418	-35.2	-47.8	337	22	
2025-11-23T00:00	6800	417	-35.5	-47.6	338	22	
2025-11-23T00:00	6820	416	-35.6	-48.0	339	22	
2025-11-23T00:00	6840	414	-35.8	-48.6	340	22	
2025-11-23T00:00	6860	413	-36.0	-48.6	340	22	
2025-11-23T00:00	6880	412	-36.2	-48.6	340	22	
2025-11-23T00:00	6900	411	-36.3	-48.4	340	21	
2025-11-23T00:00	6920	410	-36.5	-48.6	340	21	
2025-11-23T00:00	6940	409	-36.7	-49.2	340	21	
2025-11-23T00:00	6960	407	-36.9	-49.5	340	22	
2025-11-23T00:00	6980	406	-37.1	-49.7	340	22	
2025-11-23T00:00	7000	405	-37.2	-50.0	340	22	
2025-11-23T00:00	7020	404	-37.4	-50.1	340	22	
2025-11-23T00:00	7040	403	-37.6	-50.6	340	22	
2025-11-23T00:00	7060	402	-37.8	-51.1	340	22	
2025-11-23T00:00	7080	400	-37.9	-51.0	340	23	
2025-11-23T00:00	7100	399	-38.1	-51.0	340	23	
2025-11-23T00:00	7120	398	-38.3	-51.4	340	23	
2025-11-23T00:00	7140	397	-38.4	-51.4	340	24	
2025-11-23T00:00	7160	396	-38.6	-51.5	339	24	
2025-11-23T00:00	7180	395	-38.8	-51.8	338	24	
2025-11-23T00:00	7200	393	-38.9	-51.1	336	24	
2025-11-23T00:00	7220	392	-39.1	-50.6	335	25	
2025-11-23T00:00	7240	391	-39.2	-50.3	333	25	
2025-11-23T00:00	7260	390	-39.4	-50.6	332	25	
2025-11-23T00:00	7280	389	-39.6	-51.0	331	25	
2025-11-23T00:00	7300	388	-39.8	-50.7	332	25	
2025-11-23T00:00	7320	387	-40.0	-50.6	332	25	
2025-11-23T00:00	7340	386	-40.1	-50.4	333	25	
2025-11-23T00:00	7360	384	-40.3	-49.5	333	25	
2025-11-23T00:00	7380	383	-40.6	-49.7	334	25	
2025-11-23T00:00	7400	382	-40.8	-49.9	334	25	
2025-11-23T00:00	7420	381	-40.9	-49.5	334	25	
2025-11-23T00:00	7440	380	-41.1	-49.3	334	25	
2025-11-23T00:00	7460	379	-41.3	-49.5	334	25	
2025-11-23T00:00	7480	378	-41.4	-49.8	334	26	
2025-11-23T00:00	7500	377	-41.6	-50.0	334	26	
2025-11-23T00:00	7520	375	-41.8	-50.2	334	26	
2025-11-23T00:00	7540	374	-42.0	-50.3	334	27	
2025-11-23T00:00	7560	373	-42.2	-50.4	334	26	
2025-11-23T00:00	7580	372	-42.3	-50.3	334	26	
2025-11-23T00:00	7600	371	-42.5	-50.3	334	26	
2025-11-23T00:00	7620	370	-42.7	-50.4	334	26	
2025-11-23T00:00	7640	369	-42.9	-50.7	334	26	
2025-11-23T00:00	7660	368	-43.1	-50.9	333	26	
2025-11-23T00:00	7680	367	-43.3	-51.1	333	26	
2025-11-23T00:00	7700	366	-43.5	-51.2	333	26	
2025-11-23T00:00	7720	364	-43.7	-51.0	332	26	
2025-11-23T00:00	7740	363	-43.9	-50.7	332	26	
2025-11-23T00:00	7760	362	-44.1	-50.9	332	26	
2025-11-23T00:00	7780	361	-44.3	-51.2	333	26	
2025-11-23T00:00	7800	360	-44.5	-51.3	333	26	
2025-11-23T00:00	7820	359	-44.7	-51.4	332	26	
2025-11-23T00:00	7840	358	-44.8	-51.5	332	26	
2025-11-23T00:00	7860	357	-45.0	-51.7	332	26	
2025-11-23T00:00	7880	356	-45.2	-52.1	332	26	
2025-11-23T00:00	7900	355	-45.4	-52.8	332	26	
2025-11-23T00:00	7920	354	-45.6	-53.1	332	26	
2025-11-23T00:00	7940	353	-45.7	-53.0	333	25	
2025-11-23T00:00	7960	352	-45.9	-53.3	333	25	
2025-11-23T00:00	7980	351	-46.0	-53.2	334	25	
2025-11-23T00:00	8000	349	-46.2	-53.3	334	25	
2025-11-23T00:00	8020	348	-46.4	-53.5	334	24	
2025-11-23T00:00	8040	347	-46.6	-53.7	334	24	
2025-11-23T00:00	8060	346	-46.8	-53.8	334	24	
2025-11-23T00:00	8080	345	-47.0	-54.0	333	24	
2025-11-23T00:00	8100	344	-47.1	-54.1	333	24	
2025-11-23T00:00	8120	343	-47.3	-54.2	332	24	
2025-11-23T00:00	8140	342	-47.5	-54.8	330	24	
2025-11-23T00:00	8160	341	-47.6	-55.1	329	25	
2025-11-23T00:00	8180	340	-47.7	-55.1	328	25	
2025-11-23T00:00	8200	339	-47.7	-55.2	327	25	
2025-11-23T00:00	8220	338	-47.6	-55.2	327	25	
2025-11-23T00:00	8240	337	-47.7	-55.3	326	26	
2025-11-23T00:00	8260	336	-47.9	-55.2	326	26	
2025-11-23T00:00	8280	335	-48.1	-55.3	325	26	
2025-11-23T00:00	8300	334	-48.2	-55.5	325	26	
2025-11-23T00:00	8320	333	-48.2	-55.9	325	27	
2025-11-23T00:00	8340	332	-48.2	-57.1	324	27	
2025-11-23T00:00	8360	331	-48.3	-58.8	324	26	
2025-11-23T00:00	8380	330	-48.4	-57.6	324	26	
2025-11-23T00:00	8400	329	-48.6	-56.8	324	26	
2025-11-23T00:00	8420	328	-48.7	-57.0	324	26	
2025-11-23T00:00	8440	327	-48.9	-57.1	324	26	
2025-11-23T00:00	8460	326	-49.1	-56.5	325	26	
2025-11-23T00:00	8480	325	-49.2	-55.8	325	26	
2025-11-23T00:00	8500	324	-49.3	-55.6	325	26	
2025-11-23T00:00	8520	323	-49.4	-55.7	325	26	
2025-11-23T00:00	8540	322	-49.6	-55.7	326	26	
2025-11-23T00:00	8560	321	-49.7	-55.8	326	26	
2025-11-23T00:00	8580	320	-49.8	-56.0	326	26	
2025-11-23T00:00	8600	319	-49.9	-56.1	326	26	
2025-11-23T00:00	8620	318	-50.1	-56.1	326	26	
2025-11-23T00:00	8640	317	-50.3	-56.2	326	26	
2025-11-23T00:00	8660	316	-50.4	-56.3	326	26	
2025-11-23T00:00	8680	315	-50.6	-56.7	327	26	
2025-11-23T00:00	8700	314	-50.7	-57.3	327	26	
2025-11-23T00:00	8720	313	-50.8	-57.5	328	26	
2025-11-23T00:00	8740	312	-50.9	-57.4	328	26	
2025-11-23T00:00	8760	311	-51.1	-57.4	328	26	
2025-11-23T00:00	8780	310	-51.3	-57.3	328	26	
2025-11-23T00:00	8800	309	-51.4	-57.4	328	26	
2025-11-23T00:00	8820	308	-51.6	-57.4	328	26	
2025-11-23T00:00	8840	308	-51.7	-57.5	329	26	
2025-11-23T00:00	8860	307	-51.9	-57.6	329	26	
2025-11-23T00:00	8880	306	-52.1	-57.9	329	26	
2025-11-23T00:00	8900	305	-52.2	-57.9	329	26	
2025-11-23T00:00	8920	304	-52.4	-57.9	330	25	
2025-11-23T00:00	8940	303	-52.5	-58.2	330	25	
2025-11-23T00:00	8960	302	-52.7	-58.7	329	25	
2025-11-23T00:00	8980	301	-52.8	-59.5	329	25	
2025-11-23T00:00	9000	300	-52.9	-59.9	329	25	
2025-11-23T00:00	9020	299	-53.1	-59.8	329	24	
2025-11-23T00:00	9040	298	-53.2	-59.6	329	24	
2025-11-23T00:00	9060	297	-53.3	-59.6	329	24	
2025-11-23T00:00	9080	296	-53.4	-59.8	329	24	
2025-11-23T00:00	9100	295	-53.5	-60.1	329	25	
2025-11-23T00:00	9120	294	-53.6	-60.3	329	25	
2025-11-23T00:00	9140	294	-53.8	-60.4	329	25	
2025-11-23T00:00	9160	293	-53.9	-60.6	329	25	
2025-11-23T00:00	9180	292	-54.0	-60.7	329	25	
2025-11-23T00:00	9200	291	-54.2	-60.9	329	25	
2025-11-23T00:00	9220	290	-54.3	-61.1	330	25	
2025-11-23T00:00	9240	289	-54.4	-61.5	330	26	
2025-11-23T00:00	9260	288	-54.6	-61.8	331	26	
2025-11-23T00:00	9280	287	-54.7	-62.0	332	26	
2025-11-23T00:00	9300	286	-54.8	-62.3	333	26	
2025-11-23T00:00	9320	285	-55.0	-62.4	334	26	
2025-11-23T00:00	9340	285	-55.1	-62.4	334	26	
2025-11-23T00:00	9360	284	-55.3	-62.3	334	26	
2025-11-23T00:00	9380	283	-55.5	-62.3	335	26	
2025-11-23T00:00	9400	282	-55.7	-62.3	335	26	
2025-11-23T00:00	9420	281	-55.8	-62.3	335	26	
2025-11-23T00:00	9440	280	-56.0	-62.3	334	26	
2025-11-23T00:00	9460	279	-56.1	-62.4	334	25	
2025-11-23T00:00	9480	278	-56.2	-62.5	333	25	
2025-11-23T00:00	9500	277	-56.3	-62.7	333	25	
2025-11-23T00:00	9520	277	-56.5	-62.8	332	25	
2025-11-23T00:00	9540	276	-56.7	-62.9	331	25	
2025-11-23T00:00	9560	275	-56.8	-63.1	330	25	
2025-11-23T00:00	9580	274	-57.0	-63.3	330	24	
2025-11-23T00:00	9600	273	-57.1	-63.5	329	24	
2025-11-23T00:00	9620	272	-57.3	-63.6	328	24	
2025-11-23T00:00	9640	271	-57.3	-63.9	327	24	
2025-11-23T00:00	9660	271	-57.4	-64.2	326	24	
2025-11-23T00:00	9680	270	-57.4	-64.6	325	23	
2025-11-23T00:00	9700	269	-57.4	-64.9	324	23	
2025-11-23T00:00	9720	268	-57.4	-64.9	323	23	
2025-11-23T00:00	9740	267	-57.5	-64.9	322	23	
2025-11-23T00:00	9760	266	-57.7	-64.9	322	23	
2025-11-23T00:00	9780	265	-57.8	-64.8	322	23	
2025-11-23T00:00	9800	265	-58.0	-64.8	322	23	
2025-11-23T00:00	9820	264	-58.2	-64.8	322	23	
2025-11-23T00:00	9840	263	-58.3	-64.9	322	24	
2025-11-23T00:00	9860	262	-58.4	-65.1	322	24	
2025-11-23T00:00	9880	261	-58.5	-65.1	322	24	
2025-11-23T00:00	9900	260	-58.6	-65.2	322	24	
2025-11-23T00:00	9920	260	-58.7	-65.3	322	24	
2025-11-23T00:00	9940	259	-58.8	-65.4	322	24	
2025-11-23T00:00	9960	258	-58.8	-65.4	323	24	
2025-11-23T00:00	9980	257	-58.8	-65.3	324	24	
2025-11-23T00:00	10000	256	-58.9	-65.3	325	24	
2025-11-23T00:00	10018	256	-59.0	-65.2	326	24	
2025-11-23T00:00	10050	254	-59.1	-65.0	328	23	
2025-11-23T00:00	10100	252	-58.9	-64.8	329	22	
2025-11-23T00:00	10150	250	-59.2	-65.3	328	22	
2025-11-23T00:00	10200	248	-59.4	-65.9	326	22	
2025-11-23T00:00	10250	246	-59.2	-65.9	323	22	
2025-11-23T00:00	10300	244	-59.3	-66.3	322	23	
2025-11-23T00:00	10350	242	-59.5	-66.4	321	23	
2025-11-23T00:00	10400	240	-59.4	-66.6	321	24	
2025-11-23T00:00	10450	238	-59.2	-67.1	322	24	
2025-11-23T00:00	10500	237	-59.3	-67.7	321	24	
2025-11-23T00:00	10550	235	-59.2	-68.4	320	24	
2025-11-23T00:00	10600	233	-58.5	-69.6	320	24	
2025-11-23T00:00	10650	231	-58.5	-70.8	322	24	
2025-11-23T00:00	10700	229	-57.9	-72.0	326	23	
2025-11-23T00:00	10750	227	-57.8	-72.9	328	22	
2025-11-23T00:00	10800	226	-57.9	-73.0	330	21	
2025-11-23T00:00	10850	224	-58.4	-73.1	330	21	
2025-11-23T00:00	10900	222	-58.8	-72.9	328	21	
2025-11-23T00:00	10950	220	-59.3	-72.9	325	20	
2025-11-23T00:00	11000	219	-59.5	-72.9	322	20	
2025-11-23T00:00	11050	217	-59.2	-73.2	322	20	
2025-11-23T00:00	11100	215	-59.1	-73.6	325	20	
2025-11-23T00:00	11150	213	-59.2	-73.8	328	20	
2025-11-23T00:00	11200	212	-59.4	-74.1	328	21	
2025-11-23T00:00	11250	210	-59.4	-74.6	327	21	
2025-11-23T00:00	11300	208	-59.0	-74.9	327	21	
2025-11-23T00:00	11350	207	-59.1	-75.1	326	20	
2025-11-23T00:00	11400	205	-59.3	-75.2	326	20	
2025-11-23T00:00	11450	203	-59.3	-75.1	325	19	
2025-11-23T00:00	11500	202	-59.2	-75.3	324	20	
2025-11-23T00:00	11550	200	-59.1	-75.9	325	21	
2025-11-23T00:00	11600	199	-59.1	-76.4	323	23	
2025-11-23T00:00	11650	197	-59.3	-76.6	322	24	
2025-11-23T00:00	11700	195	-59.4	-76.8	323	24	
2025-11-23T00:00	11750	194	-59.4	-77.3	325	24	
2025-11-23T00:00	11800	192	-58.7	-77.5	329	22	
2025-11-23T00:00	11850	191	-58.8	-77.9	331	21	
2025-11-23T00:00	11900	189	-59.1	-78.0	334	20	
2025-11-23T00:00	11950	188	-59.3	-78.1	332	19	
2025-11-23T00:00	12000	186	-59.6	-78.3	329	18	
2025-11-23T00:00	12050	185	-59.9	-78.6	324	17	
2025-11-23T00:00	12100	183	-59.9	-79.0	321	17	
2025-11-23T00:00	12150	182	-59.7	-79.4	320	17	
2025-11-23T00:00	12200	180	-59.3	-79.8	320	17	
2025-11-23T00:00	12250	179	-58.9	-80.0	320	16	
2025-11-23T00:00	12300	178	-58.6	-80.1	319	15	
2025-11-23T00:00	12350	176	-58.6	-80.4	320	14	
2025-11-23T00:00	12400	175	-58.6	-80.6	319	12	
2025-11-23T00:00	12450	173	-58.7	-80.6	316	11	
2025-11-23T00:00	12500	172	-58.7	-80.7	314	10	
2025-11-23T00:00	12550	171	-59.1	-80.8	312	10	
2025-11-23T00:00	12600	169	-59.6	-80.8	307	10	
2025-11-23T00:00	12650	168	-59.9	-81.1	301	10	
2025-11-23T00:00	12700	167	-60.1	-81.0	298	11	
2025-11-23T00:00	12750	165	-60.1	-81.1	297	12	
2025-11-23T00:00	12800	164	-60.3	-81.5	296	14	
2025-11-23T00:00	12850	163	-60.1	-81.7	294	16	
2025-11-23T00:00	12900	161	-59.7	-81.9	294	17	
2025-11-23T00:00	12950	160	-59.7	-82.1	294	17	
2025-11-23T00:00	13000	159	-59.8	-82.5	293	17	
2025-11-23T00:00	13050	157	-59.8	-82.6	293	17	
2025-11-23T00:00	13100	156	-59.6	-82.5	293	17	
2025-11-23T00:00	13150	155	-59.3	-82.6	291	17	
2025-11-23T00:00	13200	154	-59.1	-82.7	287	17	
2025-11-23T00:00	13250	153	-59.3	-83.0	283	18	
2025-11-23T00:00	13300	151	-59.0	-82.7	281	18	
2025-11-23T00:00	13350	150	-58.9	-82.9	283	17	
2025-11-23T00:00	13400	149	-58.4	-82.9	287	16	
2025-11-23T00:00	13450	148	-58.3	-83.0	292	15	
2025-11-23T00:00	13500	147	-58.5	-82.8	295	15	
2025-11-23T00:00	13550	145	-58.8	-82.9	297	16	
2025-11-23T00:00	13600	144	-59.0	-83.1	298	16	
2025-11-23T00:00	13650	143	-59.1	-83.2	301	16	
2025-11-23T00:00	13700	142	-58.8	-83.1	306	16	
2025-11-23T00:00	13750	141	-58.5	-83.2	310	16	
2025-11-23T00:00	13800	140	-58.4	-83.3	311	16	
2025-11-23T00:00	13850	139	-58.7	-83.3	308	17	
2025-11-23T00:00	13900	138	-58.9	-83.3	306	17	
2025-11-23T00:00	13950	136	-58.6	-83.3	304	16	
2025-11-23T00:00	14000	135	-58.5	-83.4	302	15	
2025-11-23T00:00	14050	134	-59.0	-83.5	301	14	
2025-11-23T00:00	14100	133	-59.4	-83.4	300	13	
2025-11-23T00:00	14150	132	-59.8	-83.5	300	13	
2025-11-23T00:00	14200	131	-60.3	-83.6	298	12	
2025-11-23T00:00	14250	130	-60.8	-83.7	293	12	
2025-11-23T00:00	14300	129	-61.2	-83.8	288	13	
2025-11-23T00:00	14350	128	-61.0	-83.8	286	13	
2025-11-23T00:00	14400	127	-61.2	-84.1	288	14	
2025-11-23T00:00	14450	126	-61.4	-84.0	290	16	
2025-11-23T00:00	14500	125	-61.5	-84.1	293	17	
2025-11-23T00:00	14550	124	-61.7	-84.2	295	18	
2025-11-23T00:00	14600	123	-61.6	-84.2	296	17	
2025-11-23T00:00	14650	122	-61.8	-84.3	294	17	
2025-11-23T00:00	14700	121	-61.8	-84.3	289	17	
2025-11-23T00:00	14750	120	-61.8	-84.4	287	16	
2025-11-23T00:00	14800	119	-61.4	-84.4	289	16	
2025-11-23T00:00	14850	118	-60.9	-84.5	288	16	
2025-11-23T00:00	14900	117	-60.7	-84.5	284	17	
2025-11-23T00:00	14950	116	-60.6	-84.4	282	18	
2025-11-23T00:00	15000	115	-60.6	-84.6	281	17	
2025-11-23T00:00	15050	114	-60.0	-84.4	281	15	
2025-11-23T00:00	15100	113	-59.9	-84.4	278	14	
2025-11-23T00:00	15150	113	-60.2	-84.4	275	13	
2025-11-23T00:00	15200	112	-60.6	-84.5	273	13	
2025-11-23T00:00	15250	111	-60.8	-84.6	272	13	
2025-11-23T00:00	15300	110	-60.6	-84.5	274	13	
2025-11-23T00:00	15350	109	-60.8	-84.6	277	13	
2025-11-23T00:00	15400	108	-61.2	-84.7	280	14	
2025-11-23T00:00	15450	107	-61.5	-84.8	282	15	
2025-11-23T00:00	15500	106	-61.8	-84.9	283	15	
2025-11-23T00:00	15550	105	-62.1	-85.0	284	15	
2025-11-23T00:00	15600	105	-62.1	-85.2	285	13	
2025-11-23T00:00	15650	104	-62.2	-85.2	283	12	
2025-11-23T00:00	15700	103	-62.3	-85.2	279	12	
2025-11-23T00:00	15750	102	-62.6	-85.4	277	12	
2025-11-23T00:00	15800	101	-62.8	-85.5	276	12	
2025-11-23T00:00	15850	100	-62.8	-85.6	273	13	
2025-11-23T00:00	15900	100	-62.5	-85.5	268	14	
2025-11-23T00:00	15950	99	-62.5	-85.8	263	15	
2025-11-23T00:00	16000	98	-61.7	-85.5	263	17	
2025-11-23T00:00	16050	97	-61.6	-85.6	265	18	
2025-11-23T00:00	16100	96	-61.4	-85.5	267	19	
2025-11-23T00:00	16150	96	-61.6	-85.5	269	19	
2025-11-23T00:00	16200	95	-61.8	-85.5	270	20	
2025-11-23T00:00	16250	94	-61.8	-85.5	268	20	
2025-11-23T00:00	16300	93	-61.8	-85.5	265	21	
2025-11-23T00:00	16350	93	-62.1	-85.6	264	21	
2025-11-23T00:00	16400	92	-62.2	-85.7	266	21	
2025-11-23T00:00	16450	91	-61.9	-85.7	271	20	
2025-11-23T00:00	16500	90	-61.8	-85.7	275	19	
2025-11-23T00:00	16550	90	-62.1	-85.7	277	19	
2025-11-23T00:00	16600	89	-62.4	-85.8	279	18	
2025-11-23T00:00	16650	88	-62.6	-85.9	282	18	
2025-11-23T00:00	16700	88	-62.7	-86.0	284	18	
2025-11-23T00:00	16750	87	-62.5	-86.1	285	18	
2025-11-23T00:00	16800	86	-62.3	-86.2	282	17	
2025-11-23T00:00	16850	85	-61.8	-86.1	277	17	
2025-11-23T00:00	16900	85	-61.9	-86.1	272	17	
2025-11-23T00:00	16950	84	-61.9	-86.1	269	17	
2025-11-23T00:00	17000	83	-62.1	-86.2	267	17	
2025-11-23T00:00	17050	83	-62.1	-86.2	270	16	
2025-11-23T00:00	17100	82	-62.1	-86.2	274	16	
2025-11-23T00:00	17150	81	-62.3	-86.2	280	15	
2025-11-23T00:00	17200	81	-62.6	-86.3	284	15	
2025-11-23T00:00	17250	80	-62.9	-86.4	286	15	
2025-11-23T00:00	17300	79	-62.9	-86.4	285	15	
2025-11-23T00:00	17350	79	-62.9	-86.5	283	15	
2025-11-23T00:00	17400	78	-62.9	-86.5	282	15	
2025-11-23T00:00	17450	78	-62.9	-86.4	282	14	
2025-11-23T00:00	17500	77	-63.2	-86.5	282	13	
2025-11-23T00:00	17550	76	-63.5	-86.7	279	13	
2025-11-23T00:00	17600	76	-63.5	-86.6	276	14	
2025-11-23T00:00	17650	75	-63.7	-86.8	274	14	
2025-11-23T00:00	17700	74	-63.6	-86.8	273	14	
2025-11-23T00:00	17750	74	-63.7	-86.8	274	13	
2025-11-23T00:00	17800	73	-63.8	-87.0	273	12	
2025-11-23T00:00	17850	73	-63.8	-86.9	270	13	
2025-11-23T00:00	17900	72	-64.0	-87.1	268	15	
2025-11-23T00:00	17950	71	-63.9	-87.0	269	17	
2025-11-23T00:00	18000	71	-63.9	-87.1	271	19	
2025-11-23T00:00	18050	70	-63.8	-87.3	274	20	
2025-11-23T00:00	18100	70	-63.1	-87.2	276	21	
2025-11-23T00:00	18150	69	-62.5	-87.0	279	20	
2025-11-23T00:00	18200	69	-62.6	-86.9	279	19	
2025-11-23T00:00	18250	68	-62.7	-86.9	279	18	
2025-11-23T00:00	18300	68	-62.8	-86.9	278	18	
2025-11-23T00:00	18350	67	-63.1	-86.9	276	17	
2025-11-23T00:00	18400	66	-63.4	-86.9	273	16	
2025-11-23T00:00	18450	66	-63.7	-87.0	270	15	
2025-11-23T00:00	18500	65	-63.7	-87.1	269	14	
2025-11-23T00:00	18550	65	-63.8	-87.0	270	13	
2025-11-23T00:00	18600	64	-64.2	-87.2	269	13	
2025-11-23T00:00	18650	64	-64.5	-87.3	265	12	
2025-11-23T00:00	18700	63	-64.7	-87.4	261	13	
2025-11-23T00:00	18750	63	-64.7	-87.4	256	13	
2025-11-23T00:00	18800	62	-65.0	-87.5	250	14	
2025-11-23T00:00	18850	62	-65.4	-87.6	245	15	
2025-11-23T00:00	18900	61	-65.6	-87.7	241	16	
2025-11-23T00:00	18950	61	-66.0	-87.9	237	17	
2025-11-23T00:00	19000	60	-66.1	-88.0	235	17	
2025-11-23T00:00	19050	60	-65.7	-87.8	235	18	
2025-11-23T00:00	19100	59	-65.9	-87.8	237	18	
2025-11-23T00:00	19150	59	-66.3	-87.9	241	18	
2025-11-23T00:00	19200	58	-66.8	-88.0	245	19	
2025-11-23T00:00	19250	58	-67.1	-88.1	249	20	
2025-11-23T00:00	19300	57	-67.5	-88.3	252	21	
2025-11-23T00:00	19350	57	-67.7	-88.4	253	22	
2025-11-23T00:00	19400	56	-67.9	-88.6	253	22	
2025-11-23T00:00	19450	56	-67.4	-88.3	254	22	
2025-11-23T00:00	19500	55	-67.6	-88.6	254	22	
2025-11-23T00:00	19550	55	-67.8	-88.7	255	23	
2025-11-23T00:00	19600	54	-67.7	-88.7	257	23	
2025-11-23T00:00	19650	54	-67.3	-88.6	258	24	
2025-11-23T00:00	19700	54	-66.9	-88.4	259	25	
2025-11-23T00:00	19750	53	-67.0	-88.6	259	25	
2025-11-23T00:00	19800	53	-66.7	-88.7	257	25	
2025-11-23T00:00	19850	52	-65.9	-88.5	256	25	
2025-11-23T00:00	19900	52	-65.0	-88.0	256	25	
2025-11-23T00:00	19950	51	-65.1	-87.9	258	25	
2025-11-23T00:00	20000	51	-65.4	-87.9	260	26	
2025-11-23T00:00	20050	51	-65.7		262	26	
2025-11-23T00:00	20100	50	-65.4		264	26	
2025-11-23T00:00	20150	50	-65.2		264	26	
2025-11-23T00:00	20200	49	-65.2		264	25	
2025-11-23T00:00	20250	49	-65.2		263	25	
2025-11-23T00:00	20300	49	-65.2		262	25	
2025-11-23T00:00	20350	48	-65.1		261	26	
2025-11-23T00:00	20400	48	-65.0		260	27	
2025-11-23T00:00	20450	47	-65.0		258	28	
2025-11-23T00:00	20500	47	-64.9		256	29	
2025-11-23T00:00	20550	47	-64.7		254	29	
2025-11-23T00:00	20600	46	-64.6		253	29	
2025-11-23T00:00	20650	46	-64.7		255	29	
2025-11-23T00:00	20700	45	-64.6		257	29	
2025-11-23T00:00	20750	45	-64.7		260	29	
2025-11-23T00:00	20800	45	-65.0		262	29	
2025-11-23T00:00	20850	44	-65.3		264	28	
2025-11-23T00:00	20900	44	-65.6		265	27	
2025-11-23T00:00	20950	44	-65.5		265	27	
2025-11-23T00:00	21000	43	-65.3		265	26	
2025-11-23T00:00	21050	43	-65.3		264	26	
2025-11-23T00:00	21100	43	-65.6		264	26	
2025-11-23T00:00	21150	42	-65.8		262	26	
2025-11-23T00:00	21200	42	-65.9		261	26	
2025-11-23T00:00	21250	42	-66.0		262	26	
2025-11-23T00:00	21300	41	-65.9		263	27	
2025-11-23T00:00	21350	41	-65.7		265	27	
2025-11-23T00:00	21400	41	-65.6		267	27	
2025-11-23T00:00	21450	40	-65.8		268	27	
2025-11-23T00:00	21500	40	-65.7		269	27	
2025-11-23T00:00	21550	40	-65.6		268	27	
2025-11-23T00:00	21600	39	-65.6		267	27	
2025-11-23T00:00	21650	39	-65.7		264	27	
2025-11-23T00:00	21700	39	-65.7		263	27	
2025-11-23T00:00	21750	38	-65.6		262	28	
2025-11-23T00:00	21800	38	-65.6		262	29	
2025-11-23T00:00	21850	38	-65.4		262	30	
2025-11-23T00:00	21900	37	-65.2		261	31	
2025-11-23T00:00	21950	37	-65.0		261	31	
2025-11-23T00:00	22000	37	-64.7		261	31	
2025-11-23T00:00	22050	36	-64.5		262	31	
2025-11-23T00:00	22100	36	-64.3		262	31	
2025-11-23T00:00	22150	36	-64.0		261	29	
2025-11-23T00:00	22200	36	-64.0		259	28	
2025-11-23T00:00	22250	35	-63.9		256	28	
2025-11-23T00:00	22300	35	-63.7		254	28	
2025-11-23T00:00	22350	35	-63.2		253	29	
2025-11-23T00:00	22400	34	-63.2		254	30	
2025-11-23T00:00	22450	34	-63.2		254	31	
2025-11-23T00:00	22500	34	-62.7		253	31	
2025-11-23T00:00	22550	34	-62.5		249	31	
2025-11-23T00:00	22600	33	-62.3		246	31	
2025-11-23T00:00	22650	33	-62.2		244	32	
2025-11-23T00:00	22700	33	-62.3		243	33	
2025-11-23T00:00	22750	33	-62.0		244	33	
2025-11-23T00:00	22800	32	-61.9		245	32	
2025-11-23T00:00	22850	32	-62.1		246	32	
2025-11-23T00:00	22900	32	-62.4		247	32	
2025-11-23T00:00	22950	31	-62.6		248	32	
2025-11-23T00:00	23000	31	-62.9		248	33	
2025-11-23T00:00	23050	31	-63.4		248	34	
2025-11-23T00:00	23100	31	-63.8		249	34	
2025-11-23T00:00	23150	30	-64.2		250	35	
2025-11-23T00:00	23200	30	-64.5		251	35	
2025-11-23T00:00	23250	30	-64.6		252	35	
2025-11-23T00:00	23300	30	-64.6		252	35	
2025-11-23T00:00	23350	29	-64.8		251	34	
2025-11-23T00:00	23400	29	-64.8		248	34	
2025-11-23T00:00	23450	29	-64.8		247	34	
2025-11-23T00:00	23500	29	-64.8		245	35	
2025-11-23T00:00	23550	29	-64.5		244	36	
2025-11-23T00:00	23600	28	-64.8		244	37	
2025-11-23T00:00	23650	28	-65.1		244	38	
2025-11-23T00:00	23700	28	-65.4		244	40	
2025-11-23T00:00	23750	28	-65.6		245	41	
2025-11-23T00:00	23800	27	-65.8		246	41	
2025-11-23T00:00	23850	27	-65.7		247	41	
2025-11-23T00:00	23900	27	-65.6		248	41	
2025-11-23T00:00	23950	27	-65.9		249	40	
2025-11-23T00:00	24000	26	-66.3		250	39	
2025-11-23T00:00	24050	26	-66.8		252	39	
2025-11-23T00:00	24100	26	-67.2		253	38	
2025-11-23T00:00	24150	26	-67.4		253	39	
2025-11-23T00:00	24200	26	-67.2		253	40	
2025-11-23T00:00	24250	25	-66.9		252	41	
2025-11-23T00:00	24300	25	-66.9		251	42	
2025-11-23T00:00	24350	25	-66.7		251	43	
2025-11-23T00:00	24400	25	-66.9		251	45	
2025-11-23T00:00	24450	25	-67.2		252	47	
2025-11-23T00:00	24500	24	-67.2		253	48	
2025-11-23T00:00	24550	24	-66.7		255	50	
2025-11-23T00:00	24600	24	-65.6		256	50	
2025-11-23T00:00	24650	24	-64.9		257	49	
2025-11-23T00:00	24700	24	-65.2		257	48	
2025-11-23T00:00	24750	23	-65.5		257	47	
2025-11-23T00:00	24800	23	-65.9		257	46	
2025-11-23T00:00	24850	23	-66.3		257	46	
2025-11-23T00:00	24900	23	-66.4		258	47	
2025-11-23T00:00	24950	23	-64.7		258	48	
2025-11-23T00:00	25000	22	-64.3		258	51	
2025-11-23T00:00	25050	22	-64.2		258	53	
2025-11-23T00:00	25100	22	-64.0		258	55	
2025-11-23T00:00	25150	22	-64.0		259	56	
2025-11-23T00:00	25200	22	-63.8		260	56	
2025-11-23T00:00	25250	22	-63.1		260	55	
2025-11-23T00:00	25300	21	-63.0		261	55	
2025-11-23T00:00	25350	21	-63.2		261	54	
2025-11-23T00:00	25400	21	-63.5		261	54	
2025-11-23T00:00	25450	21	-63.9		261	54	
2025-11-23T00:00	25500	21	-64.3		261	54	
2025-11-23T00:00	25550	21	-64.5		261	54	
2025-11-23T00:00	25600	20	-64.5		261	55	
2025-11-23T00:00	25650	20	-64.3		262	56	
2025-11-23T00:00	25700	20	-64.1		263	57	
2025-11-23T00:00	25750	20	-64.0		263	59	
2025-11-23T00:00	25800	20	-64.1		264	59	
2025-11-23T00:00	25850	20	-63.9		264	59	
2025-11-23T00:00	25900	19	-63.5		264	59	
2025-11-23T00:00	25950	19	-62.9		264	59	
2025-11-23T00:00	26000	19	-62.1		265	59	
2025-11-23T00:00	26050	19	-62.1		266	59	
2025-11-23T00:00	26100	19	-62.4		267	58	
2025-11-23T00:00	26150	19	-62.5		268	58	
2025-11-23T00:00	26200	18	-62.8		269	57	
2025-11-23T00:00	26250	18	-62.9		269	57	
2025-11-23T00:00	26300	18	-62.6		268	57	
2025-11-23T00:00	26350	18	-61.9		267	58	
2025-11-23T00:00	26400	18	-61.1		266	59	
2025-11-23T00:00	26450	18	-60.5		265	60	
2025-11-23T00:00	26500	18	-60.1		265	60	
2025-11-23T00:00	26550	17	-60.0		264	61	
2025-11-23T00:00	26600	17	-59.9		264	62	
2025-11-23T00:00	26650	17	-59.8		264	63	
2025-11-23T00:00	26700	17	-59.6		264	63	
2025-11-23T00:00	26750	17	-59.2		264	63	
2025-11-23T00:00	26800	17	-58.9		264	63	
2025-11-23T00:00	26850	17	-59.0		263	63	
2025-11-23T00:00	26900	17	-59.1		262	63	
2025-11-23T00:00	26950	16	-59.0		261	63	
2025-11-23T00:00	27000	16	-58.2		260	63	
2025-11-23T00:00	27050	16	-58.2		259	62	
2025-11-23T00:00	27100	16	-58.1		258	61	
2025-11-23T00:00	27150	16	-57.7		258	61	
2025-11-23T00:00	27200	16	-57.9		258	61	
2025-11-23T00:00	27250	16	-58.2		257	61	
2025-11-23T00:00	27300	15	-58.1		257	61	
2025-11-23T00:00	27350	15	-58.1		257	61	
2025-11-23T00:00	27400	15	-58.1		257	61	
2025-11-23T00:00	27450	15	-58.1		257	62	
2025-11-23T00:00	27500	15	-58.3		257	63	
2025-11-23T00:00	27550	15	-58.3		258	64	
2025-11-23T00:00	27600	15	-58.4		258	65	
2025-11-23T00:00	27650	15	-58.0		259	66	
2025-11-23T00:00	27700	15	-57.7		259	67	
2025-11-23T00:00	27750	14	-57.3		259	68	
2025-11-23T00:00	27800	14	-56.9		259	69	
2025-11-23T00:00	27850	14	-56.4		259	69	
2025-11-23T00:00	27900	14	-55.8		259	69	
2025-11-23T00:00	27950	14	-56.0		259	69	
2025-11-23T00:00	28000	14	-56.2		259	68	
2025-11-23T00:00	28050	14	-56.4		259	67	
2025-11-23T00:00	28100	14	-56.6		259	67	
2025-11-23T00:00	28150	14	-56.5		259	67	
2025-11-23T00:00	28200	13	-56.5		260	68	
2025-11-23T00:00	28250	13	-56.8		261	68	
2025-11-23T00:00	28300	13	-57.2		262	69	
2025-11-23T00:00	28350	13	-57.2		263	69	
2025-11-23T00:00	28400	13	-57.0		263	69	
2025-11-23T00:00	28450	13	-56.7		263	68	
2025-11-23T00:00	28500	13	-56.8		263	67	
2025-11-23T00:00	28550	13	-56.7		263	67	
2025-11-23T00:00	28600	13	-56.6		263	68	
2025-11-23T00:00	28650	13	-56.7		263	68	
2025-11-23T00:00	28700	12	-56.9		263	68	
2025-11-23T00:00	28750	12	-56.9		262	69	
2025-11-23T00:00	28800	12	-57.0		262	70	
2025-11-23T00:00	28850	12	-56.6		262	71	
2025-11-23T00:00	28900	12	-56.0		261	72	
2025-11-23T00:00	28950	12	-55.7		261	73	
2025-11-23T00:00	29000	12	-55.4		262	74	
2025-11-23T00:00	29050	12	-55.6		262	75	
2025-11-23T00:00	29100	12	-55.8		262	75	
2025-11-23T00:00	29150	12	-55.6		262	75	
2025-11-23T00:00	29200	11	-55.2		262	76	
2025-11-23T00:00	29250	11	-54.8		262	75	
2025-11-23T00:00	29300	11	-55.0		263	75	
2025-11-23T00:00	29350	11	-55.1		263	75	
2025-11-23T00:00	29400	11	-55.0		263	74	
2025-11-23T00:00	29450	11	-54.7		263	74	
2025-11-23T00:00	29500	11	-54.3		263	73	
2025-11-23T00:00	29550	11	-54.3		263	73	
2025-11-23T00:00	29600	11	-54.4		263	72	
2025-11-23T00:00	29650	11	-54.4		263	72	
2025-11-23T00:00	29700	11	-54.6		263	72	
2025-11-23T00:00	29750	11	-54.7		263	73	
2025-11-23T00:00	29800	10	-54.8		262	74	
2025-11-23T00:00	29850	10	-55.1		261	74	
2025-11-23T00:00	29900	10	-54.9		261	74	
2025-11-23T00:00	29950	10	-55.2		261	75	
2025-11-23T00:00	30000	10	-55.2		261	76	
2025-11-23T00:00	30050	10	-55.3		261	76	
2025-11-23T00:00	30100	10	-55.6		262	77	
2025-11-23T00:00	30150	10	-55.9		262	77	
2025-11-23T00:00	30200	10	-56.3		263	78	
2025-11-23T00:00	30250	10	-56.4		263	79	
2025-11-23T00:00	30300	10	-56.4		263	80	
2025-11-23T00:00	30350	10	-56.6		263	81	
2025-11-23T00:00	30400	10	-56.7		263	81	
2025-11-23T00:00	30450	9	-56.6		263	81	
2025-11-23T00:00	30500	9	-55.7		264	81	
2025-11-23T00:00	30550	9	-54.7		265	80	
2025-11-23T00:00	30600	9	-54.6		266	80	
2025-11-23T00:00	30650	9	-53.9		267	80	
2025-11-23T00:00	30700	9	-53.4		267	80	
2025-11-23T00:00	30750	9	-52.9		267	80	
2025-11-23T00:00	30800	9	-52.5		266	80	
2025-11-23T00:00	30850	9	-52.5		266	81	
2025-11-23T00:00	30900	9	-52.7		265	81	
2025-11-23T00:00	30950	9	-52.6		264	81	
2025-11-23T00:00	31000	9	-52.7		264	82	
2025-11-23T00:00	31050	9	-52.5		263	83	
2025-11-23T00:00	31100	9	-52.5		263	84	
2025-11-23T00:00	31150	8	-52.5		262	85	
2025-11-23T00:00	31200	8	-52.7		262	86	
2025-11-23T00:00	31250	8	-52.5		262	87	
2025-11-23T00:00	31300	8	-52.2		262	87	
2025-11-23T00:00	31350	8	-51.7		262	88	
2025-11-23T00:00	31400	8	-51.0		263	88	
2025-11-23T00:00	31450	8	-51.2		263	87	
2025-11-23T00:00	31500	8	-51.1		263	87	
2025-11-23T00:00	31550	8	-50.8		263	87	
2025-11-23T00:00	31600	8	-50.5		263	86	
2025-11-23T00:00	31650	8	-50.2		263	85	
2025-11-23T00:00	31700	8	-50.2		262	84	
2025-11-23T00:00	31750	8	-50.2		262	83	
2025-11-23T00:00	31800	8	-49.8		262	83	
2025-11-23T00:00	31850	8	-49.4		262	83	
2025-11-23T00:00	31900	8	-49.0		263	83	
2025-11-23T00:00	31950	7	-48.9		263	82	
2025-11-23T00:00	32000	7	-48.6		263	82	
2025-11-23T00:00	32050	7	-48.6		263	82	
2025-11-23T00:00	32100	7	-48.6		262	82	
2025-11-23T00:00	32150	7	-48.4		262	81	
2025-11-23T00:00	32200	7	-48.5		262	81	
2025-11-23T00:00	32250	7	-48.8		263	80	
2025-11-23T00:00	32300	7	-48.9		264	80	
2025-11-23T00:00	32350	7	-49.0		264	80	
2025-11-23T00:00	32400	7	-49.3		265	80	
2025-11-23T00:00	32450	7	-49.4		265	80	
2025-11-23T00:00	32500	7	-49.2		264	81	
2025-11-23T00:00	32550	7	-49.0		264	82	
2025-11-23T00:00	32600	7	-49.1		264	82	
2025-11-23T00:00	32650	7	-49.2		264	83	
2025-11-23T00:00	32700	7	-49.4		264	84	
2025-11-23T00:00	32750	7	-49.5		264	84	
2025-11-23T00:00	32800	7	-49.1		264	84	
2025-11-23T00:00	32850	7	-48.9		264	83	
2025-11-23T00:00	32900	6	-49.1		264	82	
2025-11-23T00:00	32950	6	-49.3		264	81	
2025-11-23T00:00	33000	6	-49.5		264	80	
2025-11-23T00:00	33050	6	-49.5		264	80	
2025-11-23T00:00	33100	6	-49.3		265	80	
2025-11-23T00:00	33150	6	-49.0		265	81	
2025-11-23T00:00	33200	6	-48.8		266	82	
2025-11-23T00:00	33250	6	-48.8		265	82	
2025-11-23T00:00	33300	6	-48.7		265	82	
2025-11-23T00:00	33350	6	-48.7		264	82	
2025-11-23T00:00	33400	6	-48.7		263	82	
2025-11-23T00:00	33450	6	-48.6		261	81	
2025-11-23T00:00	33500	6	-48.7		261	82	
2025-11-23T00:00	33550	6	-48.7		260	82	
2025-11-23T00:00	33600	6	-48.8		259	82	
2025-11-23T00:00	33650	6	-49.1		259	83	
2025-11-23T00:00	33700	6	-49.2		259	85	
2025-11-23T00:00	33750	6	-49.3		260	87	
2025-11-23T00:00	33800	6	-48.3		260	88	
2025-11-23T00:00	33850	6	-47.6		260	90	
2025-11-23T00:00	33900	6	-47.0		259	91	
2025-11-23T00:00	33950	6	-47.1		259	93	
2025-11-23T00:00	34000	5	-47.2		258	94	
2025-11-23T00:00	34050	5	-46.7		258	95	
2025-11-23T00:00	34100	5	-46.4		259	96	
2025-11-23T00:00	34150	5	-44.6		260	98	
2025-11-23T00:00	34200	5	-44.0		260	99	
2025-11-23T00:00	34250	5	-43.6		260	96	
2025-11-23T00:00	34300	5	-43.0		258	94	
2025-11-23T00:00	34350	5	-41.5		257	93	
2025-11-23T00:00	34400	5	-40.1		258	94	
2025-11-23T00:00	34450	5	-39.4		258	95	
2025-11-23T00:00	34500	5	-38.5		258	95	
2025-11-23T00:00	34550	5	-37.6		259	94	
2025-11-23T00:00	34600	5	-37.5		259	94	
2025-11-23T00:00	34650	5	-37.8		259	93	
2025-11-23T00:00	34700	5	-37.8		259	93	
2025-11-23T00:00	34750	5	-37.4		259	92	
2025-11-23T00:00	34800	5	-37.1		259	92	
2025-11-23T00:00	34850	5	-37.0		258	93	
2025-11-23T00:00	34900	5	-37.1		258	93	
2025-11-23T00:00	34950	5	-37.3		258	93	
2025-11-23T00:00	35000	5	-37.5		257	93	
2025-11-23T00:00	35050	5	-37.8		257	93	
2025-11-23T00:00	35100	5	-38.0		256	93	
2025-11-23T00:00	35150	5	-38.2		256	92	
2025-11-23T00:00	35200	5	-38.5		256	92	
2025-11-23T00:00	35250	5	-38.8		256	93	
2025-11-23T00:00	35300	5	-39.0		256	93	
2025-11-23T12:00	491	958	-0.3	-4.7	236	2	
2025-11-23T12:00	501	956	-0.5	-4.7	232	1	
2025-11-23T12:00	520	955	-1.0	-4.9	229	1	
2025-11-23T12:00	540	953	-1.2	-5.1	228	2	
2025-11-23T12:00	560	950	-1.4	-5.3	225	2	
2025-11-23T12:00	580	948	-1.7	-5.6	221	2	
2025-11-23T12:00	600	945	-1.9	-5.6	216	2	
2025-11-23T12:00	620	943	-2.1	-5.6	210	2	
2025-11-23T12:00	640	940	-2.3	-5.5	204	2	
2025-11-23T12:00	660	938	-2.5	-5.5	200	2	
2025-11-23T12:00	680	936	-2.7	-5.6	197	2	
2025-11-23T12:00	700	934	-2.9	-5.7	196	2	
2025-11-23T12:00	720	931	-3.0	-5.8	198	2	
2025-11-23T12:00	740	929	-3.2	-5.8	202	2	
2025-11-23T12:00	760	926	-3.4	-5.8	210	2	
2025-11-23T12:00	780	924	-3.6	-5.9	218	3	
2025-11-23T12:00	800	922	-3.8	-5.7	226	3	
2025-11-23T12:00	820	919	-4.0	-5.7	232	3	
2025-11-23T12:00	840	917	-4.1	-5.6	235	4	
2025-11-23T12:00	860	915	-4.1	-5.6	235	4	
2025-11-23T12:00	880	913	-4.2	-5.7	235	5	
2025-11-23T12:00	900	910	-4.2	-5.8	233	5	
2025-11-23T12:00	920	908	-4.4	-6.0	231	6	
2025-11-23T12:00	940	905	-4.5	-6.3	228	7	
2025-11-23T12:00	960	903	-4.3	-7.1	226	8	
2025-11-23T12:00	980	901	-4.2	-7.6	224	8	
2025-11-23T12:00	1000	899	-4.3	-7.9	222	9	
2025-11-23T12:00	1020	896	-4.1	-8.8	221	10	
2025-11-23T12:00	1040	894	-4.1	-9.6	221	11	
2025-11-23T12:00	1060	892	-3.6	-11.2	221	11	
2025-11-23T12:00	1080	890	-3.3	-12.1	221	12	
2025-11-23T12:00	1100	887	-3.2	-12.7	222	12	
2025-11-23T12:00	1120	885	-3.4	-12.7	223	12	
2025-11-23T12:00	1140	883	-3.5	-12.7	224	13	
2025-11-23T12:00	1160	880	-3.7	-12.9	225	13	
2025-11-23T12:00	1180	878	-3.6	-13.6	226	14	
2025-11-23T12:00	1200	876	-3.1	-15.3	227	14	
2025-11-23T12:00	1220	874	-2.5	-16.8	227	15	
2025-11-23T12:00	1240	872	-2.1	-18.3	228	15	
2025-11-23T12:00	1260	870	-0.8	-25.0	228	16	
2025-11-23T12:00	1280	867	-0.5	-30.3	229	16	
2025-11-23T12:00	1300	865	-0.6	-31.8	229	16	
2025-11-23T12:00	1320	863	-0.3	-36.6	229	16	
2025-11-23T12:00	1340	861	-0.1	-38.3	229	17	
2025-11-23T12:00	1360	859	-0.1	-39.8	228	17	
2025-11-23T12:00	1380	857	-0.1	-40.5	228	17	
2025-11-23T12:00	1400	854	-0.2	-40.5	228	17	
2025-11-23T12:00	1420	852	-0.2	-38.8	227	17	
2025-11-23T12:00	1440	850	-0.2	-39.6	227	17	
2025-11-23T12:00	1460	848	-0.3	-39.9	226	17	
2025-11-23T12:00	1480	846	-0.3	-38.1	226	17	
2025-11-23T12:00	1500	844	-0.2	-34.9	226	17	
2025-11-23T12:00	1520	842	-0.3	-34.3	226	17	
2025-11-23T12:00	1540	840	-0.4	-34.4	225	17	
2025-11-23T12:00	1560	838	-0.6	-34.6	225	17	
2025-11-23T12:00	1580	836	-0.5	-38.8	225	17	
2025-11-23T12:00	1600	833	-0.1	-42.0	225	18	
2025-11-23T12:00	1620	831	-0.1	-42.0	225	18	
2025-11-23T12:00	1640	829	-0.2	-42.0	225	18	
2025-11-23T12:00	1660	827	-0.2	-41.0	225	18	
2025-11-23T12:00	1680	825	-0.4	-40.3	226	18	
2025-11-23T12:00	1700	823	-0.4	-38.2	226	18	
2025-11-23T12:00	1720	821	-0.6	-37.0	227	18	
2025-11-23T12:00	1740	819	-0.7	-36.1	227	18	
2025-11-23T12:00	1760	817	-0.8	-35.7	228	18	
2025-11-23T12:00	1780	815	-0.9	-34.4	229	17	
2025-11-23T12:00	1800	813	-1.0	-32.2	230	17	
2025-11-23T12:00	1820	811	-1.1	-29.5	231	17	
2025-11-23T12:00	1840	809	-1.3	-28.2	232	16	
2025-11-23T12:00	1860	806	-1.5	-26.0	234	16	
2025-11-23T12:00	1880	805	-1.7	-20.5	235	16	
2025-11-23T12:00	1900	803	-1.9	-13.7	235	16	
2025-11-23T12:00	1920	800	-2.0	-12.4	236	15	
2025-11-23T12:00	1940	799	-2.2	-12.9	237	15	
2025-11-23T12:00	1960	797	-2.4	-13.5	239	15	
2025-11-23T12:00	1980	795	-2.6	-13.9	239	15	
2025-11-23T12:00	2000	793	-2.8	-12.5	241	14	
2025-11-23T12:00	2020	791	-2.8	-10.1	242	14	
2025-11-23T12:00	2040	789	-3.0	-9.0	243	14	
2025-11-23T12:00	2060	787	-3.1	-8.4	244	14	
2025-11-23T12:00	2080	784	-3.2	-7.7	245	13	
2025-11-23T12:00	2100	782	-3.4	-7.5	245	13	
2025-11-23T12:00	2120	781	-3.6	-7.5	245	13	
2025-11-23T12:00	2140	779	-3.7	-7.4	244	13	
2025-11-23T12:00	2160	777	-3.9	-7.3	243	12	
2025-11-23T12:00	2180	775	-4.0	-7.0	242	12	
2025-11-23T12:00	2200	773	-4.1	-6.9	241	12	
2025-11-23T12:00	2220	771	-4.3	-7.1	240	12	
2025-11-23T12:00	2240	769	-4.4	-7.3	239	12	
2025-11-23T12:00	2260	767	-4.6	-7.4	239	12	
2025-11-23T12:00	2280	765	-4.7	-7.7	239	12	
2025-11-23T12:00	2300	763	-4.9	-7.4	240	12	
2025-11-23T12:00	2320	761	-5.1	-7.3	241	11	
2025-11-23T12:00	2340	759	-5.2	-7.4	242	11	
2025-11-23T12:00	2360	757	-5.4	-6.6	244	11	
2025-11-23T12:00	2380	755	-5.4	-5.9	246	11	
2025-11-23T12:00	2400	753	-5.4	-5.8	248	11	
2025-11-23T12:00	2420	751	-4.8	-5.6	250	11	
2025-11-23T12:00	2440	749	-4.7	-5.6	251	12	
2025-11-23T12:00	2460	748	-4.6	-5.5	252	12	
2025-11-23T12:00	2480	746	-4.7	-5.7	252	12	
2025-11-23T12:00	2500	744	-4.6	-5.9	253	12	
2025-11-23T12:00	2520	742	-4.7	-6.0	254	12	
2025-11-23T12:00	2540	740	-4.9	-6.1	255	12	
2025-11-23T12:00	2560	738	-5.0	-6.2	256	12	
2025-11-23T12:00	2580	736	-5.1	-6.3	257	11	
2025-11-23T12:00	2600	735	-5.2	-6.3	259	11	
2025-11-23T12:00	2620	733	-5.4	-6.3	260	11	
2025-11-23T12:00	2640	731	-5.5	-6.5	262	11	
2025-11-23T12:00	2660	729	-5.6	-6.5	264	12	
2025-11-23T12:00	2680	727	-5.6	-6.7	265	12	
2025-11-23T12:00	2700	725	-5.5	-6.9	267	12	
2025-11-23T12:00	2720	723	-5.5	-7.1	268	12	
2025-11-23T12:00	2740	722	-5.7	-7.1	270	13	
2025-11-23T12:00	2760	720	-5.9	-7.1	271	13	
2025-11-23T12:00	2780	718	-6.0	-7.2	273	13	
2025-11-23T12:00	2800	716	-6.2	-7.2	275	13	
2025-11-23T12:00	2820	714	-6.4	-7.2	276	13	
2025-11-23T12:00	2840	712	-6.5	-7.2	278	13	
2025-11-23T12:00	2860	711	-6.7	-7.3	279	13	
2025-11-23T12:00	2880	709	-6.8	-7.3	281	14	
2025-11-23T12:00	2900	707	-7.0	-7.3	283	14	
2025-11-23T12:00	2920	705	-7.2	-7.5	284	14	
2025-11-23T12:00	2940	703	-7.3	-7.7	285	15	
2025-11-23T12:00	2960	701	-7.4	-7.6	285	15	
2025-11-23T12:00	2980	700	-7.6	-7.7	285	15	
2025-11-23T12:00	3000	698	-7.8	-7.9	285	15	
2025-11-23T12:00	3020	696	-7.9	-8.1	285	15	
2025-11-23T12:00	3040	694	-8.1	-8.2	284	14	
2025-11-23T12:00	3060	693	-8.3	-8.3	283	14	
2025-11-23T12:00	3080	691	-8.5	-8.5	282	14	
2025-11-23T12:00	3100	689	-8.6	-8.6	280	14	
2025-11-23T12:00	3120	687	-8.8	-8.8	280	13	
2025-11-23T12:00	3140	685	-8.9	-8.9	279	13	
2025-11-23T12:00	3160	683	-9.1	-9.1	278	13	
2025-11-23T12:00	3180	682	-9.2	-9.2	278	13	
2025-11-23T12:00	3200	680	-9.4	-9.4	279	13	
2025-11-23T12:00	3220	678	-9.5	-9.5	279	13	
2025-11-23T12:00	3240	677	-9.7	-9.7	280	12	
2025-11-23T12:00	3260	675	-9.8	-9.8	281	12	
2025-11-23T12:00	3280	673	-10.0	-10.0	282	12	
2025-11-23T12:00	3300	671	-10.1	-10.1	283	12	
2025-11-23T12:00	3320	670	-10.1	-10.1	283	11	
2025-11-23T12:00	3340	668	-10.1	-10.1	284	11	
2025-11-23T12:00	3360	666	-10.2	-10.6	285	11	
2025-11-23T12:00	3380	665	-10.2	-11.3	285	11	
2025-11-23T12:00	3400	663	-10.4	-11.5	286	11	
2025-11-23T12:00	3420	661	-10.6	-11.8	286	11	
2025-11-23T12:00	3440	659	-10.7	-11.9	286	11	
2025-11-23T12:00	3460	657	-10.9	-12.0	285	11	
2025-11-23T12:00	3480	656	-11.1	-12.1	285	11	
2025-11-23T12:00	3500	654	-11.3	-12.3	284	11	
2025-11-23T12:00	3520	652	-11.4	-12.5	283	11	
2025-11-23T12:00	3540	651	-11.5	-12.7	282	11	
2025-11-23T12:00	3560	649	-11.7	-12.8	281	11	
2025-11-23T12:00	3580	647	-11.7	-13.2	281	11	
2025-11-23T12:00	3600	646	-11.9	-13.4	282	11	
2025-11-23T12:00	3620	644	-12.0	-13.7	283	11	
2025-11-23T12:00	3640	642	-12.2	-13.9	285	11	
2025-11-23T12:00	3660	641	-12.3	-14.2	287	12	
2025-11-23T12:00	3680	639	-12.4	-14.3	290	12	
2025-11-23T12:00	3700	637	-12.6	-14.4	292	12	
2025-11-23T12:00	3720	636	-12.8	-14.5	294	13	
2025-11-23T12:00	3740	634	-13.0	-14.7	296	13	
2025-11-23T12:00	3760	632	-13.1	-15.0	297	13	
2025-11-23T12:00	3780	630	-13.3	-15.1	297	14	
2025-11-23T12:00	3800	629	-13.4	-15.5	297	14	
2025-11-23T12:00	3820	627	-13.4	-17.1	296	14	
2025-11-23T12:00	3840	626	-13.4	-18.4	296	14	
2025-11-23T12:00	3860	624	-13.5	-18.9	294	14	
2025-11-23T12:00	3880	622	-13.6	-19.3	294	14	
2025-11-23T12:00	3900	621	-13.8	-19.4	293	14	
2025-11-23T12:00	3920	619	-14.0	-19.2	293	14	
2025-11-23T12:00	3940	617	-14.1	-19.2	293	14	
2025-11-23T12:00	3960	616	-14.3	-19.2	293	14	
2025-11-23T12:00	3980	614	-14.5	-19.3	292	14	
2025-11-23T12:00	4000	613	-14.7	-19.5	292	14	
2025-11-23T12:00	4020	611	-14.8	-20.1	292	14	
2025-11-23T12:00	4040	609	-14.9	-20.9	291	14	
2025-11-23T12:00	4060	608	-15.1	-20.9	291	13	
2025-11-23T12:00	4080	606	-15.2	-21.1	292	13	
2025-11-23T12:00	4100	605	-15.4	-21.7	296	14	
2025-11-23T12:00	4120	603	-15.5	-22.5	298	14	
2025-11-23T12:00	4140	601	-15.5	-24.2	302	14	
2025-11-23T12:00	4160	600	-15.4	-26.5	306	15	
2025-11-23T12:00	4180	598	-15.4	-28.2	309	16	
2025-11-23T12:00	4200	597	-15.3	-30.0	312	16	
2025-11-23T12:00	4220	595	-15.2	-32.3	315	17	
2025-11-23T12:00	4240	593	-15.0	-35.2	316	18	
2025-11-23T12:00	4260	592	-14.8	-37.0	318	19	
2025-11-23T12:00	4280	590	-14.8	-38.9	319	19	
2025-11-23T12:00	4300	589	-14.9	-39.9	319	19	
2025-11-23T12:00	4320	587	-15.0	-40.9	319	19	
2025-11-23T12:00	4340	586	-15.0	-43.2	318	19	
2025-11-23T12:00	4360	584	-15.1	-43.6	317	18	
2025-11-23T12:00	4380	583	-15.2	-43.7	317	18	
2025-11-23T12:00	4400	581	-15.4	-43.7	316	18	
2025-11-23T12:00	4420	580	-15.5	-43.6	316	18	
2025-11-23T12:00	4440	578	-15.7	-43.5	315	17	
2025-11-23T12:00	4460	576	-15.9	-43.5	315	17	
2025-11-23T12:00	4480	575	-16.0	-43.0	315	17	
2025-11-23T12:00	4500	573	-16.1	-42.8	315	17	
2025-11-23T12:00	4520	572	-16.1	-42.9	315	17	
2025-11-23T12:00	4540	570	-16.2	-43.4	315	17	
2025-11-23T12:00	4560	569	-16.2	-44.0	315	17	
2025-11-23T12:00	4580	567	-16.2	-43.1	315	17	
2025-11-23T12:00	4600	566	-16.4	-42.4	316	17	
2025-11-23T12:00	4620	564	-16.6	-42.3	316	17	
2025-11-23T12:00	4640	563	-16.8	-42.4	316	17	
2025-11-23T12:00	4660	561	-17.0	-42.5	315	17	
2025-11-23T12:00	4680	560	-17.1	-42.6	315	17	
2025-11-23T12:00	4700	558	-17.3	-42.8	314	16	
2025-11-23T12:00	4720	557	-17.5	-42.9	313	16	
2025-11-23T12:00	4740	555	-17.6	-43.1	313	16	
2025-11-23T12:00	4760	554	-17.8	-43.2	312	15	
2025-11-23T12:00	4780	552	-18.0	-43.4	313	15	
2025-11-23T12:00	4800	551	-18.2	-43.3	314	15	
2025-11-23T12:00	4820	549	-18.3	-43.1	316	15	
2025-11-23T12:00	4840	548	-18.5	-43.0	318	15	
2025-11-23T12:00	4860	547	-18.7	-42.0	320	15	
2025-11-23T12:00	4880	545	-18.8	-41.9	322	16	
2025-11-23T12:00	4900	544	-19.0	-42.0	323	16	
2025-11-23T12:00	4920	542	-19.2	-41.6	324	17	
2025-11-23T12:00	4940	541	-19.4	-41.2	324	17	
2025-11-23T12:00	4960	539	-19.5	-40.8	324	17	
2025-11-23T12:00	4980	538	-19.7	-41.0	323	18	
2025-11-23T12:00	5000	536	-19.9	-41.3	323	18	
2025-11-23T12:00	5020	535	-20.0	-42.1	322	18	
2025-11-23T12:00	5040	533	-20.2	-43.2	322	18	
2025-11-23T12:00	5060	532	-20.3	-44.1	322	18	
2025-11-23T12:00	5080	530	-20.5	-44.3	321	19	
2025-11-23T12:00	5100	529	-20.7	-43.5	320	19	
2025-11-23T12:00	5120	528	-20.8	-39.6	320	19	
2025-11-23T12:00	5140	526	-21.0	-36.5	319	19	
2025-11-23T12:00	5160	525	-21.1	-36.7	318	19	
2025-11-23T12:00	5180	523	-21.3	-36.8	317	19	
2025-11-23T12:00	5200	522	-21.4	-37.1	316	19	
2025-11-23T12:00	5220	520	-21.6	-37.2	315	19	
2025-11-23T12:00	5240	519	-21.8	-37.3	315	19	
2025-11-23T12:00	5260	518	-21.9	-37.3	315	19	
2025-11-23T12:00	5280	516	-22.1	-37.3	315	19	
2025-11-23T12:00	5300	515	-22.2	-37.1	315	19	
2025-11-23T12:00	5320	514	-22.3	-36.1	315	20	
2025-11-23T12:00	5340	512	-22.5	-34.7	315	20	
2025-11-23T12:00	5360	511	-22.7	-34.3	316	20	
2025-11-23T12:00	5380	509	-22.9	-33.9	316	20	
2025-11-23T12:00	5400	508	-23.1	-33.6	316	21	
2025-11-23T12:00	5420	506	-23.3	-33.6	317	21	
2025-11-23T12:00	5440	505	-23.5	-34.1	318	22	
2025-11-23T12:00	5460	504	-23.6	-35.1	318	22	
2025-11-23T12:00	5480	502	-23.8	-33.8	318	23	
2025-11-23T12:00	5500	501	-24.0	-34.0	319	23	
2025-11-23T12:00	5520	500	-24.1	-34.4	319	23	
2025-11-23T12:00	5540	498	-24.3	-35.3	319	23	
2025-11-23T12:00	5560	497	-24.5	-36.7	318	22	
2025-11-23T12:00	5580	495	-24.6	-35.2	319	22	
2025-11-23T12:00	5600	494	-24.8	-34.2	319	22	
2025-11-23T12:00	5620	493	-25.0	-34.0	319	21	
2025-11-23T12:00	5640	491	-25.2	-33.6	319	21	
2025-11-23T12:00	5660	490	-25.4	-33.7	319	21	
2025-11-23T12:00	5680	489	-25.6	-33.7	319	20	
2025-11-23T12:00	5700	487	-25.7	-33.7	318	20	
2025-11-23T12:00	5720	486	-25.9	-33.8	318	21	
2025-11-23T12:00	5740	485	-26.1	-33.8	318	21	
2025-11-23T12:00	5760	484	-26.2	-33.9	317	21	
2025-11-23T12:00	5780	482	-26.4	-33.8	318	21	
2025-11-23T12:00	5800	481	-26.6	-33.6	318	22	
2025-11-23T12:00	5820	479	-26.8	-33.8	319	22	
2025-11-23T12:00	5840	478	-26.9	-33.9	319	22	
2025-11-23T12:00	5860	477	-27.1	-33.9	320	22	
2025-11-23T12:00	5880	475	-27.3	-34.0	320	22	
2025-11-23T12:00	5900	474	-27.5	-34.1	320	23	
2025-11-23T12:00	5920	473	-27.7	-34.3	320	23	
2025-11-23T12:00	5940	472	-27.8	-34.4	320	23	
2025-11-23T12:00	5960	470	-28.0	-34.5	320	24	
2025-11-23T12:00	5980	469	-28.2	-35.2	320	24	
2025-11-23T12:00	6000	468	-28.4	-35.4	320	24	
2025-11-23T12:00	6020	466	-28.5	-35.9	319	24	
2025-11-23T12:00	6040	465	-28.7	-36.1	319	23	
2025-11-23T12:00	6060	464	-28.8	-36.0	319	23	
2025-11-23T12:00	6080	462	-29.0	-36.4	319	23	
2025-11-23T12:00	6100	461	-29.1	-36.8	319	22	
2025-11-23T12:00	6120	460	-29.2	-37.5	319	22	
2025-11-23T12:00	6140	458	-29.3	-38.2	320	23	
2025-11-23T12:00	6160	457	-29.4	-38.7	320	23	
2025-11-23T12:00	6180	456	-29.6	-39.5	320	24	
2025-11-23T12:00	6200	455	-29.7	-39.0	320	25	
2025-11-23T12:00	6220	453	-29.8	-38.4	319	25	
2025-11-23T12:00	6240	452	-29.9	-37.8	319	25	
2025-11-23T12:00	6260	451	-30.0	-37.2	318	26	
2025-11-23T12:00	6280	450	-30.2	-37.0	317	25	
2025-11-23T12:00	6300	448	-30.4	-37.1	316	25	
2025-11-23T12:00	6320	447	-30.6	-37.1	315	25	
2025-11-23T12:00	6340	446	-30.8	-37.1	314	25	
2025-11-23T12:00	6360	445	-30.9	-37.0	313	25	
2025-11-23T12:00	6380	443	-31.1	-37.1	313	25	
2025-11-23T12:00	6400	442	-31.3	-37.1	313	25	
2025-11-23T12:00	6420	441	-31.5	-37.0	313	26	
2025-11-23T12:00	6440	440	-31.7	-37.1	314	26	
2025-11-23T12:00	6460	438	-31.8	-37.2	314	26	
2025-11-23T12:00	6480	437	-31.9	-37.5	315	26	
2025-11-23T12:00	6500	436	-32.0	-38.0	316	25	
2025-11-23T12:00	6520	435	-32.1	-38.3	316	25	
2025-11-23T12:00	6540	433	-32.3	-38.5	316	25	
2025-11-23T12:00	6560	432	-32.4	-38.9	316	25	
2025-11-23T12:00	6580	431	-32.6	-38.8	316	26	
2025-11-23T12:00	6600	430	-32.8	-38.8	316	26	
2025-11-23T12:00	6620	428	-33.0	-38.5	316	26	
2025-11-23T12:00	6640	427	-33.1	-38.0	316	27	
2025-11-23T12:00	6660	426	-33.3	-37.9	316	27	
2025-11-23T12:00	6680	425	-33.4	-38.5	315	27	
2025-11-23T12:00	6700	424	-33.5	-38.7	314	27	
2025-11-23T12:00	6720	422	-33.7	-38.7	313	27	
2025-11-23T12:00	6740	421	-33.8	-39.1	312	27	
2025-11-23T12:00	6760	420	-34.0	-39.0	311	26	
2025-11-23T12:00	6780	419	-34.2	-39.0	310	26	
2025-11-23T12:00	6800	418	-34.3	-38.9	310	27	
2025-11-23T12:00	6820	416	-34.5	-38.9	309	27	
2025-11-23T12:00	6840	415	-34.7	-38.2	309	27	
2025-11-23T12:00	6860	414	-34.8	-37.9	309	27	
2025-11-23T12:00	6880	413	-35.0	-37.8	310	27	
2025-11-23T12:00	6900	412	-35.1	-37.9	310	27	
2025-11-23T12:00	6920	411	-35.3	-37.9	311	27	
2025-11-23T12:00	6940	409	-35.5	-38.0	312	27	
2025-11-23T12:00	6960	408	-35.6	-38.2	312	27	
2025-11-23T12:00	6980	407	-35.8	-38.6	313	27	
2025-11-23T12:00	7000	406	-36.0	-39.2	313	26	
2025-11-23T12:00	7020	405	-36.1	-40.4	312	26	
2025-11-23T12:00	7040	404	-36.2	-40.4	312	27	
2025-11-23T12:00	7060	402	-36.3	-40.6	311	27	
2025-11-23T12:00	7080	401	-36.5	-40.4	310	27	
2025-11-23T12:00	7100	400	-36.6	-41.2	309	27	
2025-11-23T12:00	7120	399	-36.8	-42.8	308	27	
2025-11-23T12:00	7140	398	-37.0	-42.8	308	27	
2025-11-23T12:00	7160	397	-37.1	-42.7	308	28	
2025-11-23T12:00	7180	395	-37.3	-43.0	308	28	
2025-11-23T12:00	7200	394	-37.4	-43.8	308	28	
2025-11-23T12:00	7220	393	-37.6	-44.1	308	28	
2025-11-23T12:00	7240	392	-37.8	-44.4	308	28	
2025-11-23T12:00	7260	391	-37.9	-44.4	308	28	
2025-11-23T12:00	7280	390	-38.1	-44.9	308	27	
2025-11-23T12:00	7300	389	-38.3	-44.9	308	27	
2025-11-23T12:00	7320	387	-38.5	-45.0	309	27	
2025-11-23T12:00	7340	386	-38.7	-45.5	309	27	
2025-11-23T12:00	7360	385	-38.8	-45.9	310	27	
2025-11-23T12:00	7380	384	-39.0	-46.5	310	27	
2025-11-23T12:00	7400	383	-39.2	-46.9	311	27	
2025-11-23T12:00	7420	382	-39.4	-47.0	312	27	
2025-11-23T12:00	7440	381	-39.6	-47.0	313	27	
2025-11-23T12:00	7460	380	-39.8	-47.2	315	27	
2025-11-23T12:00	7480	378	-39.9	-47.9	316	27	
2025-11-23T12:00	7500	377	-40.1	-48.8	317	27	
2025-11-23T12:00	7520	376	-40.3	-48.9	318	27	
2025-11-23T12:00	7540	375	-40.4	-49.4	318	27	
2025-11-23T12:00	7560	374	-40.6	-50.4	318	28	
2025-11-23T12:00	7580	373	-40.8	-51.9	318	28	
2025-11-23T12:00	7600	372	-40.9	-51.7	317	28	
2025-11-23T12:00	7620	371	-41.1	-52.0	317	28	
2025-11-23T12:00	7640	370	-41.3	-52.4	317	28	
2025-11-23T12:00	7660	369	-41.5	-52.4	317	28	
2025-11-23T12:00	7680	368	-41.7	-52.3	317	28	
2025-11-23T12:00	7700	366	-41.9	-52.1	317	28	
2025-11-23T12:00	7720	365	-42.0	-52.7	318	28	
2025-11-23T12:00	7740	364	-42.2	-53.6	318	28	
2025-11-23T12:00	7760	363	-42.4	-55.2	319	28	
2025-11-23T12:00	7780	362	-42.5	-57.7	319	28	
2025-11-23T12:00	7800	361	-42.6	-59.8	319	28	
2025-11-23T12:00	7820	360	-42.8	-60.3	319	28	
2025-11-23T12:00	7840	359	-43.0	-60.0	319	28	
2025-11-23T12:00	7860	358	-43.1	-59.6	319	28	
2025-11-23T12:00	7880	357	-43.3	-59.2	318	27	
2025-11-23T12:00	7900	356	-43.4	-58.4	318	27	
2025-11-23T12:00	7920	355	-43.6	-58.0	318	27	
2025-11-23T12:00	7940	354	-43.8	-58.0	318	28	
2025-11-23T12:00	7960	353	-43.9	-57.9	318	28	
2025-11-23T12:00	7980	352	-44.1	-56.7	319	28	
2025-11-23T12:00	8000	350	-44.3	-54.3	319	29	
2025-11-23T12:00	8020	349	-44.4	-53.4	320	29	
2025-11-23T12:00	8040	348	-44.5	-54.1	320	29	
2025-11-23T12:00	8060	347	-44.6	-55.1	321	29	
2025-11-23T12:00	8080	346	-44.7	-55.8	322	29	
2025-11-23T12:00	8100	345	-44.9	-55.9	322	29	
2025-11-23T12:00	8120	344	-45.0	-56.2	323	29	
2025-11-23T12:00	8140	343	-45.1	-56.3	324	29	
2025-11-23T12:00	8160	342	-45.3	-56.5	325	29	
2025-11-23T12:00	8180	341	-45.4	-56.6	325	30	
2025-11-23T12:00	8200	340	-45.6	-56.5	326	30	
2025-11-23T12:00	8220	339	-45.8	-56.3	327	30	
2025-11-23T12:00	8240	338	-45.9	-55.4	327	31	
2025-11-23T12:00	8260	337	-46.1	-53.8	327	31	
2025-11-23T12:00	8280	336	-46.3	-53.1	327	31	
2025-11-23T12:00	8300	335	-46.4	-53.1	328	31	
2025-11-23T12:00	8320	334	-46.6	-53.2	328	31	
2025-11-23T12:00	8340	333	-46.8	-52.8	328	32	
2025-11-23T12:00	8360	332	-46.9	-52.7	328	32	
2025-11-23T12:00	8380	331	-47.1	-52.8	328	32	
2025-11-23T12:00	8400	330	-47.3	-52.6	328	32	
2025-11-23T12:00	8420	329	-47.5	-52.8	328	32	
2025-11-23T12:00	8440	328	-47.6	-53.1	329	33	
2025-11-23T12:00	8460	327	-47.8	-53.1	329	33	
2025-11-23T12:00	8480	326	-48.0	-52.9	329	34	
2025-11-23T12:00	8500	325	-48.1	-52.8	329	34	
2025-11-23T12:00	8520	324	-48.2	-52.7	329	35	
2025-11-23T12:00	8540	323	-48.3	-52.9	329	35	
2025-11-23T12:00	8560	322	-48.4	-53.0	328	35	
2025-11-23T12:00	8580	321	-48.5	-53.0	328	36	
2025-11-23T12:00	8600	320	-48.6	-53.1	328	36	
2025-11-23T12:00	8620	319	-48.8	-53.2	328	36	
2025-11-23T12:00	8640	318	-48.9	-53.3	328	36	
2025-11-23T12:00	8660	317	-49.1	-53.5	328	37	
2025-11-23T12:00	8680	316	-49.2	-53.7	328	37	
2025-11-23T12:00	8700	315	-49.4	-53.9	328	37	
2025-11-23T12:00	8720	314	-49.5	-54.0	327	38	
2025-11-23T12:00	8740	313	-49.7	-53.9	327	38	
2025-11-23T12:00	8760	312	-49.9	-54.0	327	38	
2025-11-23T12:00	8780	311	-50.0	-54.2	327	38	
2025-11-23T12:00	8800	311	-50.2	-54.3	326	39	
2025-11-23T12:00	8820	310	-50.4	-54.5	326	39	
2025-11-23T12:00	8840	309	-50.6	-54.8	326	39	
2025-11-23T12:00	8860	308	-50.7	-55.0	326	39	
2025-11-23T12:00	8880	307	-50.9	-55.0	326	39	
2025-11-23T12:00	8900	306	-51.1	-55.0	326	39	
2025-11-23T12:00	8920	305	-51.2	-55.2	326	39	
2025-11-23T12:00	8940	304	-51.4	-55.3	326	39	
2025-11-23T12:00	8960	303	-51.6	-55.4	326	39	
2025-11-23T12:00	8980	302	-51.8	-55.6	326	39	
2025-11-23T12:00	9000	301	-51.9	-55.8	326	40	
2025-11-23T12:00	9020	300	-52.1	-56.1	326	40	
2025-11-23T12:00	9040	299	-52.3	-56.3	327	40	
2025-11-23T12:00	9060	298	-52.4	-56.5	327	40	
2025-11-23T12:00	9080	297	-52.6	-56.7	327	40	
2025-11-23T12:00	9100	297	-52.8	-56.8	327	40	
2025-11-23T12:00	9120	296	-52.9	-56.8	327	40	
2025-11-23T12:00	9140	295	-53.1	-56.8	327	40	
2025-11-23T12:00	9160	294	-53.1	-56.8	327	41	
2025-11-23T12:00	9180	293	-53.2	-56.9	327	41	
2025-11-23T12:00	9200	292	-53.3	-57.0	327	41	
2025-11-23T12:00	9220	291	-53.4	-57.1	327	42	
2025-11-23T12:00	9240	290	-53.6	-57.3	327	42	
2025-11-23T12:00	9260	289	-53.7	-57.5	327	43	
2025-11-23T12:00	9280	288	-53.9	-57.7	326	43	
2025-11-23T12:00	9300	287	-54.0	-57.9	326	43	
2025-11-23T12:00	9320	287	-54.0	-58.0	326	44	
2025-11-23T12:00	9340	286	-54.1	-58.2	326	45	
2025-11-23T12:00	9360	285	-54.3	-58.2	326	45	
2025-11-23T12:00	9380	284	-54.4	-58.3	327	46	
2025-11-23T12:00	9400	283	-54.5	-58.3	327	46	
2025-11-23T12:00	9420	282	-54.6	-58.3	327	47	
2025-11-23T12:00	9440	281	-54.8	-58.3	327	47	
2025-11-23T12:00	9460	280	-54.9	-58.5	327	47	
2025-11-23T12:00	9480	279	-55.1	-58.7	326	47	
2025-11-23T12:00	9500	279	-55.3	-58.7	326	47	
2025-11-23T12:00	9520	278	-55.4	-58.6	326	47	
2025-11-23T12:00	9540	277	-55.5	-58.5	326	47	
2025-11-23T12:00	9560	276	-55.7	-58.6	325	47	
2025-11-23T12:00	9580	275	-55.8	-58.9	325	47	
2025-11-23T12:00	9600	274	-55.9	-59.2	325	47	
2025-11-23T12:00	9620	273	-56.1	-59.5	325	47	
2025-11-23T12:00	9640	272	-56.3	-59.7	325	47	
2025-11-23T12:00	9660	272	-56.5	-59.8	325	48	
2025-11-23T12:00	9680	271	-56.6	-59.9	325	48	
2025-11-23T12:00	9700	270	-56.8	-60.1	324	48	
2025-11-23T12:00	9720	269	-57.0	-60.3	324	48	
2025-11-23T12:00	9740	268	-57.2	-60.5	324	48	
2025-11-23T12:00	9760	267	-57.3	-60.8	324	49	
2025-11-23T12:00	9780	267	-57.5	-61.0	324	49	
2025-11-23T12:00	9800	266	-57.6	-61.2	324	49	
2025-11-23T12:00	9820	265	-57.7	-61.4	324	50	
2025-11-23T12:00	9840	264	-57.8	-61.5	324	50	
2025-11-23T12:00	9860	263	-57.8	-61.6	324	51	
2025-11-23T12:00	9880	262	-57.9	-61.7	324	51	
2025-11-23T12:00	9900	261	-58.0	-61.9	324	51	
2025-11-23T12:00	9920	261	-58.2	-62.2	324	51	
2025-11-23T12:00	9940	260	-58.4	-62.4	324	52	
2025-11-23T12:00	9960	259	-58.5	-62.5	325	52	
2025-11-23T12:00	9980	258	-58.7	-62.7	325	52	
2025-11-23T12:00	10000	257	-58.8	-63.1	325	52	
2025-11-23T12:00	10018	257	-58.9	-63.3	325	52	
2025-11-23T12:00	10050	255	-59.0	-63.3	326	52	
2025-11-23T12:00	10100	253	-59.3	-63.7	326	52	
2025-11-23T12:00	10150	251	-59.7	-64.2	326	52	
2025-11-23T12:00	10200	249	-60.0	-64.3	327	52	
2025-11-23T12:00	10250	247	-60.3	-64.7	327	52	
2025-11-23T12:00	10300	245	-60.7	-64.9	328	52	
2025-11-23T12:00	10350	243	-61.1	-65.4	328	52	
2025-11-23T12:00	10400	241	-61.5	-65.9	328	52	
2025-11-23T12:00	10450	239	-61.9	-66.4	328	52	
2025-11-23T12:00	10500	237	-62.3	-67.1	329	51	
2025-11-23T12:00	10550	236	-62.8	-67.5	329	51	
2025-11-23T12:00	10600	234	-63.2	-67.9	330	50	
2025-11-23T12:00	10650	232	-63.5	-68.3	331	50	
2025-11-23T12:00	10700	230	-63.9	-68.7	332	49	
2025-11-23T12:00	10750	228	-64.2	-68.7	332	47	
2025-11-23T12:00	10800	226	-64.3	-69.0	332	46	
2025-11-23T12:00	10850	224	-64.6	-69.1	332	44	
2025-11-23T12:00	10900	223	-64.9	-69.5	332	42	
2025-11-23T12:00	10950	221	-65.1	-69.8	332	41	
2025-11-23T12:00	11000	219	-65.3	-70.0	332	39	
2025-11-23T12:00	11050	217	-65.4	-70.2	330	37	
2025-11-23T12:00	11100	215	-65.5	-70.2	328	35	
2025-11-23T12:00	11150	214	-65.5	-70.5	328	33	
2025-11-23T12:00	11200	212	-65.6	-70.7	326	31	
2025-11-23T12:00	11250	210	-65.4	-71.2	323	29	
2025-11-23T12:00	11300	208	-64.8	-72.0	319	27	
2025-11-23T12:00	11350	207	-63.9	-73.1	316	28	
2025-11-23T12:00	11400	205	-63.9	-74.0	314	28	
2025-11-23T12:00	11450	203	-63.1	-74.6	312	29	
2025-11-23T12:00	11500	202	-62.2	-75.3	312	31	
2025-11-23T12:00	11550	200	-61.3	-75.5	311	30	
2025-11-23T12:00	11600	198	-61.2	-76.0	311	29	
2025-11-23T12:00	11650	197	-60.8	-76.7	312	29	
2025-11-23T12:00	11700	195	-60.8	-77.3	313	29	
2025-11-23T12:00	11750	194	-60.2	-78.3	315	29	
2025-11-23T12:00	11800	192	-59.6	-78.7	315	27	
2025-11-23T12:00	11850	191	-59.6	-78.3	315	26	
2025-11-23T12:00	11900	189	-59.8	-78.5	314	25	
2025-11-23T12:00	11950	188	-59.5	-79.2	314	23	
2025-11-23T12:00	12000	186	-59.3	-79.8	314	22	
2025-11-23T12:00	12050	185	-59.5	-79.8	315	21	
2025-11-23T12:00	12100	183	-59.7	-79.7	314	20	
2025-11-23T12:00	12150	182	-59.6	-79.3	313	21	
2025-11-23T12:00	12200	180	-59.2	-79.2	312	21	
2025-11-23T12:00	12250	179	-59.0	-79.4	311	22	
2025-11-23T12:00	12300	177	-59.0	-79.8	309	21	
2025-11-23T12:00	12350	176	-58.9	-80.3	306	21	
2025-11-23T12:00	12400	175	-59.2	-80.8	303	22	
2025-11-23T12:00	12450	173	-59.5	-80.9	300	22	
2025-11-23T12:00	12500	172	-59.7	-81.1	300	23	
2025-11-23T12:00	12550	170	-59.8	-81.3	300	23	
2025-11-23T12:00	12600	169	-59.5	-81.5	301	24	
2025-11-23T12:00	12650	168	-59.3	-81.6	301	24	
2025-11-23T12:00	12700	166	-59.3	-81.7	302	24	
2025-11-23T12:00	12750	165	-59.1	-81.6	304	23	
2025-11-23T12:00	12800	164	-59.3	-81.7	306	22	
2025-11-23T12:00	12850	163	-59.4	-81.9	306	21	
2025-11-23T12:00	12900	161	-58.9	-82.0	306	19	
2025-11-23T12:00	12950	160	-58.8	-82.0	304	18	
2025-11-23T12:00	13000	159	-59.0	-82.2	300	17	
2025-11-23T12:00	13050	157	-58.6	-82.1	296	15	
2025-11-23T12:00	13100	156	-58.6	-82.1	293	15	
2025-11-23T12:00	13150	155	-59.0	-82.1	291	15	
2025-11-23T12:00	13200	154	-59.4	-82.2	290	15	
2025-11-23T12:00	13250	152	-59.7	-82.3	293	16	
2025-11-23T12:00	13300	151	-59.9	-82.3	296	18	
2025-11-23T12:00	13350	150	-60.1	-82.5	295	18	
2025-11-23T12:00	13400	149	-60.2	-82.6	294	18	
2025-11-23T12:00	13450	148	-60.3	-82.8	295	17	
2025-11-23T12:00	13500	146	-59.8	-82.7	297	17	
2025-11-23T12:00	13550	145	-59.6	-82.8	297	17	
2025-11-23T12:00	13600	144	-59.4	-82.7	295	18	
2025-11-23T12:00	13650	143	-59.6	-82.8	295	19	
2025-11-23T12:00	13700	142	-59.7	-82.9	297	19	
2025-11-23T12:00	13750	141	-59.3	-82.8	300	19	
2025-11-23T12:00	13800	140	-59.0	-82.9	301	18	
2025-11-23T12:00	13850	139	-58.6	-82.8	301	18	
2025-11-23T12:00	13900	137	-58.8	-82.9	301	19	
2025-11-23T12:00	13950	136	-59.1	-82.9	300	20	
2025-11-23T12:00	14000	135	-59.5	-82.9	298	21	
2025-11-23T12:00	14050	134	-59.8	-83.0	298	21	
2025-11-23T12:00	14100	133	-59.9	-83.1	298	20	
2025-11-23T12:00	14150	132	-60.0	-83.1	299	19	
2025-11-23T12:00	14200	131	-60.4	-83.2	298	18	
2025-11-23T12:00	14250	130	-60.7	-83.2	297	17	
2025-11-23T12:00	14300	129	-61.1	-83.3	296	16	
2025-11-23T12:00	14350	128	-61.5	-83.4	293	16	
2025-11-23T12:00	14400	127	-61.9	-83.4	291	16	
2025-11-23T12:00	14450	126	-62.3	-83.6	292	16	
2025-11-23T12:00	14500	125	-62.3	-83.8	294	16	
2025-11-23T12:00	14550	124	-62.1	-83.8	296	15	
2025-11-23T12:00	14600	123	-61.9	-83.9	296	15	
2025-11-23T12:00	14650	122	-61.9	-84.0	296	15	
2025-11-23T12:00	14700	121	-61.9	-84.0	294	15	
2025-11-23T12:00	14750	120	-61.7	-84.1	293	15	
2025-11-23T12:00	14800	119	-61.7	-84.0	291	16	
2025-11-23T12:00	14850	118	-61.9	-84.1	289	16	
2025-11-23T12:00	14900	117	-62.1	-84.2	287	17	
2025-11-23T12:00	14950	116	-61.7	-84.2	285	16	
2025-11-23T12:00	15000	115	-61.3	-84.2	284	16	
2025-11-23T12:00	15050	114	-61.4	-84.3	282	15	
2025-11-23T12:00	15100	113	-61.7	-84.3	282	15	
2025-11-23T12:00	15150	112	-62.0	-84.4	283	14	
2025-11-23T12:00	15200	111	-61.9	-84.4	283	14	
2025-11-23T12:00	15250	111	-61.9	-84.5	282	15	
2025-11-23T12:00	15300	110	-61.9	-84.5	282	16	
2025-11-23T12:00	15350	109	-61.8	-84.6	282	17	
2025-11-23T12:00	15400	108	-61.9	-84.5	281	17	
2025-11-23T12:00	15450	107	-62.4	-84.7	280	17	
2025-11-23T12:00	15500	106	-62.7	-84.9	279	17	
2025-11-23T12:00	15550	105	-62.4	-84.9	277	18	
2025-11-23T12:00	15600	104	-61.9	-85.0	274	18	
2025-11-23T12:00	15650	104	-61.4	-85.0	273	18	
2025-11-23T12:00	15700	103	-61.0	-85.0	272	19	
2025-11-23T12:00	15750	102	-60.8	-85.0	272	18	
2025-11-23T12:00	15800	101	-60.7	-84.9	272	17	
2025-11-23T12:00	15850	100	-61.0	-85.0	273	16	
2025-11-23T12:00	15900	100	-61.1	-85.0	272	16	
2025-11-23T12:00	15950	99	-60.9	-84.9	270	16	
2025-11-23T12:00	16000	98	-61.1	-85.0	268	17	
2025-11-23T12:00	16050	97	-61.5	-85.0	269	17	
2025-11-23T12:00	16100	96	-61.7	-85.0	272	18	
2025-11-23T12:00	16150	96	-61.9	-85.1	275	18	
2025-11-23T12:00	16200	95	-62.1	-85.3	278	18	
2025-11-23T12:00	16250	94	-62.0	-85.4	280	18	
2025-11-23T12:00	16300	93	-62.0	-85.3	281	18	
2025-11-23T12:00	16350	93	-62.2	-85.4	283	18	
2025-11-23T12:00	16400	92	-62.3	-85.5	285	18	
2025-11-23T12:00	16450	91	-62.3	-85.5	285	18	
2025-11-23T12:00	16500	90	-62.6	-85.5	285	17	
2025-11-23T12:00	16550	90	-63.0	-85.6	286	17	
2025-11-23T12:00	16600	89	-63.1	-85.7	287	16	
2025-11-23T12:00	16650	88	-63.1	-85.7	288	16	
2025-11-23T12:00	16700	87	-63.4	-85.8	288	15	
2025-11-23T12:00	16750	87	-63.6	-85.8	288	15	
2025-11-23T12:00	16800	86	-63.8	-86.0	285	15	
2025-11-23T12:00	16850	85	-63.9	-85.9	281	15	
2025-11-23T12:00	16900	85	-64.1	-86.0	277	16	
2025-11-23T12:00	16950	84	-64.3	-86.2	273	16	
2025-11-23T12:00	17000	83	-64.3	-86.1	270	16	
2025-11-23T12:00	17050	83	-64.3	-86.3	268	17	
2025-11-23T12:00	17100	82	-63.9	-86.2	268	17	
2025-11-23T12:00	17150	81	-63.7	-86.2	267	18	
2025-11-23T12:00	17200	81	-64.0	-86.3	266	18	
2025-11-23T12:00	17250	80	-64.2	-86.3	266	18	
2025-11-23T12:00	17300	79	-64.1	-86.4	263	18	
2025-11-23T12:00	17350	79	-64.1	-86.4	261	18	
2025-11-23T12:00	17400	78	-64.2	-86.5	260	19	
2025-11-23T12:00	17450	77	-64.1	-86.3	261	19	
2025-11-23T12:00	17500	77	-64.6	-86.5	262	20	
2025-11-23T12:00	17550	76	-64.9	-86.6	264	21	
2025-11-23T12:00	17600	75	-65.0	-86.7	266	22	
2025-11-23T12:00	17650	75	-65.2	-86.9	268	22	
2025-11-23T12:00	17700	74	-65.0	-86.8	269	22	
2025-11-23T12:00	17750	74	-64.8	-86.7	270	22	
2025-11-23T12:00	17800	73	-65.1	-86.8	271	21	
2025-11-23T12:00	17850	72	-65.3	-86.9	272	21	
2025-11-23T12:00	17900	72	-65.6	-87.0	271	20	
2025-11-23T12:00	17950	71	-65.8	-87.1	270	20	
2025-11-23T12:00	18000	71	-65.8	-87.2	270	20	
2025-11-23T12:00	18050	70	-65.7	-87.3	271	20	
2025-11-23T12:00	18100	70	-65.4	-87.1	273	21	
2025-11-23T12:00	18150	69	-65.5	-87.2	274	22	
2025-11-23T12:00	18200	68	-65.7	-87.2	275	21	
2025-11-23T12:00	18250	68	-65.9	-87.3	274	21	
2025-11-23T12:00	18300	67	-66.2	-87.5	272	20	
2025-11-23T12:00	18350	67	-65.9	-87.4	271	19	
2025-11-23T12:00	18400	66	-65.8	-87.4	271	19	
2025-11-23T12:00	18450	66	-65.8	-87.5	270	20	
2025-11-23T12:00	18500	65	-66.0	-87.4	269	21	
2025-11-23T12:00	18550	65	-66.4	-87.6	266	21	
2025-11-23T12:00	18600	64	-66.5	-87.7	263	21	
2025-11-23T12:00	18650	63	-66.4	-87.8	261	20	
2025-11-23T12:00	18700	63	-66.3	-87.8	262	21	
2025-11-23T12:00	18750	62	-66.3	-87.7	264	21	
2025-11-23T12:00	18800	62	-66.4	-87.8	264	22	
2025-11-23T12:00	18850	61	-66.2	-87.7	265	23	
2025-11-23T12:00	18900	61	-66.4	-87.9	265	23	
2025-11-23T12:00	18950	60	-66.4	-88.0	264	23	
2025-11-23T12:00	19000	60	-66.3	-88.0	262	23	
2025-11-23T12:00	19050	59	-66.1	-87.9	260	23	
2025-11-23T12:00	19100	59	-66.2	-87.9	257	23	
2025-11-23T12:00	19150	58	-66.0	-87.8	256	23	
2025-11-23T12:00	19200	58	-66.0	-87.8	256	23	
2025-11-23T12:00	19250	58	-66.2	-87.9	257	23	
2025-11-23T12:00	19300	57	-66.3	-88.0	258	23	
2025-11-23T12:00	19350	57	-66.1	-87.9	257	24	
2025-11-23T12:00	19400	56	-66.2	-88.0	256	24	
2025-11-23T12:00	19450	56	-66.0	-88.1	255	23	
2025-11-23T12:00	19500	55	-65.4	-87.9	256	22	
2025-11-23T12:00	19550	55	-65.2	-87.8	257	22	
2025-11-23T12:00	19600	54	-65.3	-87.9	257	21	
2025-11-23T12:00	19650	54	-65.2	-87.7	257	21	
2025-11-23T12:00	19700	53	-65.4	-87.7	258	21	
2025-11-23T12:00	19750	53	-65.6	-87.7	259	21	
2025-11-23T12:00	19800	53	-66.0	-87.8	260	21	
2025-11-23T12:00	19850	52	-66.3	-87.9	260	21	
2025-11-23T12:00	19900	52	-66.6	-88.0	259	21	
2025-11-23T12:00	19950	51	-66.6	-88.1	258	21	
2025-11-23T12:00	20000	51	-66.6	-88.1	258	21	
2025-11-23T12:00	20050	50	-66.8		258	21	
2025-11-23T12:00	20100	50	-66.9		258	22	
2025-11-23T12:00	20150	50	-67.0		259	23	
2025-11-23T12:00	20200	49	-66.7		261	23	
2025-11-23T12:00	20250	49	-66.6		263	23	
2025-11-23T12:00	20300	48	-66.4		263	23	
2025-11-23T12:00	20350	48	-66.2		264	22	
2025-11-23T12:00	20400	48	-66.3		265	21	
2025-11-23T12:00	20450	47	-65.9		263	21	
2025-11-23T12:00	20500	47	-65.7		261	22	
2025-11-23T12:00	20550	46	-65.6		259	23	
2025-11-23T12:00	20600	46	-65.3		257	23	
2025-11-23T12:00	20650	46	-65.2		256	24	
2025-11-23T12:00	20700	45	-65.3		257	24	
2025-11-23T12:00	20750	45	-65.3		257	25	
2025-11-23T12:00	20800	45	-65.2		257	25	
2025-11-23T12:00	20850	44	-65.3		257	26	
2025-11-23T12:00	20900	44	-64.9		257	26	
2025-11-23T12:00	20950	43	-64.7		258	26	
2025-11-23T12:00	21000	43	-64.7		258	26	
2025-11-23T12:00	21050	43	-64.8		259	26	
2025-11-23T12:00	21100	42	-65.1		260	27	
2025-11-23T12:00	21150	42	-65.4		260	28	
2025-11-23T12:00	21200	42	-65.6		261	29	
2025-11-23T12:00	21250	41	-65.9		261	30	
2025-11-23T12:00	21300	41	-66.2		261	30	
2025-11-23T12:00	21350	41	-66.5		262	30	
2025-11-23T12:00	21400	40	-66.9		262	30	
2025-11-23T12:00	21450	40	-67.1		262	29	
2025-11-23T12:00	21500	40	-67.4		261	28	
2025-11-23T12:00	21550	39	-67.7		260	27	
2025-11-23T12:00	21600	39	-67.6		260	27	
2025-11-23T12:00	21650	39	-67.4		260	28	
2025-11-23T12:00	21700	38	-67.3		261	28	
2025-11-23T12:00	21750	38	-67.5		261	28	
2025-11-23T12:00	21800	38	-67.7		262	28	
2025-11-23T12:00	21850	37	-67.9		263	28	
2025-11-23T12:00	21900	37	-68.0		263	28	
2025-11-23T12:00	21950	37	-68.1		263	28	
2025-11-23T12:00	22000	37	-68.4		262	28	
2025-11-23T12:00	22050	36	-68.7		261	28	
2025-11-23T12:00	22100	36	-68.9		258	29	
2025-11-23T12:00	22150	36	-68.8		257	29	
2025-11-23T12:00	22200	35	-68.8		257	30	
2025-11-23T12:00	22250	35	-68.8		257	30	
2025-11-23T12:00	22300	35	-68.6		258	30	
2025-11-23T12:00	22350	34	-68.6		258	29	
2025-11-23T12:00	22400	34	-68.4		259	29	
2025-11-23T12:00	22450	34	-68.2		261	30	
2025-11-23T12:00	22500	34	-68.3		262	31	
2025-11-23T12:00	22550	33	-68.0		263	32	
2025-11-23T12:00	22600	33	-67.9		263	33	
2025-11-23T12:00	22650	33	-68.1		262	34	
2025-11-23T12:00	22700	32	-68.3		261	35	
2025-11-23T12:00	22750	32	-68.4		260	35	
2025-11-23T12:00	22800	32	-68.5		259	36	
2025-11-23T12:00	22850	32	-68.4		260	36	
2025-11-23T12:00	22900	31	-68.5		261	35	
2025-11-23T12:00	22950	31	-68.7		263	34	
2025-11-23T12:00	23000	31	-68.6		263	33	
2025-11-23T12:00	23050	31	-68.5		263	34	
2025-11-23T12:00	23100	30	-67.9		265	35	
2025-11-23T12:00	23150	30	-67.3		266	38	
2025-11-23T12:00	23200	30	-67.3		266	39	
2025-11-23T12:00	23250	30	-66.5		265	41	
2025-11-23T12:00	23300	29	-66.0		265	41	
2025-11-23T12:00	23350	29	-65.7		264	41	
2025-11-23T12:00	23400	29	-65.8		264	41	
2025-11-23T12:00	23450	29	-65.7		263	41	
2025-11-23T12:00	23500	28	-65.3		261	40	
2025-11-23T12:00	23550	28	-65.1		259	40	
2025-11-23T12:00	23600	28	-65.2		258	41	
2025-11-23T12:00	23650	28	-64.0		258	44	
2025-11-23T12:00	23700	28	-63.0		259	46	
2025-11-23T12:00	23750	27	-62.6		259	47	
2025-11-23T12:00	23800	27	-62.3		260	47	
2025-11-23T12:00	23850	27	-62.1		261	47	
2025-11-23T12:00	23900	27	-61.9		263	46	
2025-11-23T12:00	23950	26	-62.0		265	45	
2025-11-23T12:00	24000	26	-61.9		267	44	
2025-11-23T12:00	24050	26	-61.8		267	44	
2025-11-23T12:00	24100	26	-62.0		267	44	
2025-11-23T12:00	24150	26	-62.3		266	44	
2025-11-23T12:00	24200	25	-62.5		264	44	
2025-11-23T12:00	24250	25	-62.2		261	43	
2025-11-23T12:00	24300	25	-61.8		258	44	
2025-11-23T12:00	24350	25	-61.5		256	44	
2025-11-23T12:00	24400	25	-60.9		255	44	
2025-11-23T12:00	24450	24	-60.7		255	44	
2025-11-23T12:00	24500	24	-60.5		255	43	
2025-11-23T12:00	24550	24	-60.4		255	42	
2025-11-23T12:00	24600	24	-60.5		253	42	
2025-11-23T12:00	24650	24	-60.4		252	41	
2025-11-23T12:00	24700	23	-60.2		251	41	
2025-11-23T12:00	24750	23	-60.5		250	41	
2025-11-23T12:00	24800	23	-60.9		250	41	
2025-11-23T12:00	24850	23	-61.1		249	42	
2025-11-23T12:00	24900	23	-61.1		249	42	
2025-11-23T12:00	24950	22	-61.1		249	42	
2025-11-23T12:00	25000	22	-61.2		250	42	
2025-11-23T12:00	25050	22	-61.4		251	42	
2025-11-23T12:00	25100	22	-61.5		252	43	
2025-11-23T12:00	25150	22	-61.4		254	43	
2025-11-23T12:00	25200	22	-61.5		255	44	
2025-11-23T12:00	25250	21	-61.7		256	45	
2025-11-23T12:00	25300	21	-62.0		256	45	
2025-11-23T12:00	25350	21	-62.0		256	45	
2025-11-23T12:00	25400	21	-61.9		254	45	
2025-11-23T12:00	25450	21	-61.6		253	44	
2025-11-23T12:00	25500	21	-61.7		251	44	
2025-11-23T12:00	25550	20	-61.8		251	44	
2025-11-23T12:00	25600	20	-61.8		252	44	
2025-11-23T12:00	25650	20	-61.8		253	44	
2025-11-23T12:00	25700	20	-61.8		253	45	
2025-11-23T12:00	25750	20	-61.6		252	45	
2025-11-23T12:00	25800	20	-61.8		251	46	
2025-11-23T12:00	25850	19	-62.0		250	47	
2025-11-23T12:00	25900	19	-62.4		250	48	
2025-11-23T12:00	25950	19	-62.8		250	49	
2025-11-23T12:00	26000	19	-63.0		250	50	
2025-11-23T12:00	26050	19	-62.8		250	51	
2025-11-23T12:00	26100	19	-62.6		250	52	
2025-11-23T12:00	26150	19	-62.7		250	53	
2025-11-23T12:00	26200	18	-62.8		250	53	
2025-11-23T12:00	26250	18	-62.9		251	53	
2025-11-23T12:00	26300	18	-62.7		252	54	
2025-11-23T12:00	26350	18	-62.5		252	55	
2025-11-23T12:00	26400	18	-62.6		254	56	
2025-11-23T12:00	26450	18	-62.5		255	57	
2025-11-23T12:00	26500	18	-62.4		255	58	
2025-11-23T12:00	26550	17	-61.7		256	59	
2025-11-23T12:00	26600	17	-61.0		256	59	
2025-11-23T12:00	26650	17	-60.8		256	58	
2025-11-23T12:00	26700	17	-60.6		256	57	
2025-11-23T12:00	26750	17	-60.4		256	56	
2025-11-23T12:00	26800	17	-60.2		256	55	
2025-11-23T12:00	26850	17	-59.7		255	55	
2025-11-23T12:00	26900	16	-59.4		255	55	
2025-11-23T12:00	26950	16	-59.1		254	56	
2025-11-23T12:00	27000	16	-58.6		254	57	
2025-11-23T12:00	27050	16	-58.0		255	58	
2025-11-23T12:00	27100	16	-57.8		256	60	
2025-11-23T12:00	27150	16	-57.6		257	60	
2025-11-23T12:00	27200	16	-57.4		257	60	
2025-11-23T12:00	27250	16	-57.3		256	61	
2025-11-23T12:00	27300	15	-57.2		256	61	
2025-11-23T12:00	27350	15	-57.1		255	61	
2025-11-23T12:00	27400	15	-57.3		254	61	
2025-11-23T12:00	27450	15	-57.4		253	62	
2025-11-23T12:00	27500	15	-57.3		253	62	
2025-11-23T12:00	27550	15	-57.2		253	62	
2025-11-23T12:00	27600	15	-57.4		253	62	
2025-11-23T12:00	27650	15	-57.4		254	62	
2025-11-23T12:00	27700	14	-57.2		253	62	
2025-11-23T12:00	27750	14	-57.1		253	62	
2025-11-23T12:00	27800	14	-57.0		253	62	
2025-11-23T12:00	27850	14	-56.9		252	62	
2025-11-23T12:00	27900	14	-57.0		252	62	
2025-11-23T12:00	27950	14	-57.1		251	61	
2025-11-23T12:00	28000	14	-57.0		251	60	
2025-11-23T12:00	28050	14	-56.9		251	60	
2025-11-23T12:00	28100	14	-56.7		251	61	
2025-11-23T12:00	28150	13	-56.5		252	62	
2025-11-23T12:00	28200	13	-56.5		252	63	
2025-11-23T12:00	28250	13	-56.8		252	64	
2025-11-23T12:00	28300	13	-57.0		253	64	
2025-11-23T12:00	28350	13	-57.1		253	64	
2025-11-23T12:00	28400	13	-56.9		253	63	
2025-11-23T12:00	28450	13	-56.5		253	63	
2025-11-23T12:00	28500	13	-56.2		253	63	
2025-11-23T12:00	28550	13	-56.0		253	63	
2025-11-23T12:00	28600	13	-56.0		253	63	
2025-11-23T12:00	28650	12	-56.3		252	63	
2025-11-23T12:00	28700	12	-56.7		252	63	
2025-11-23T12:00	28750	12	-57.1		252	63	
2025-11-23T12:00	28800	12	-57.3		251	63	
2025-11-23T12:00	28850	12	-57.5		251	63	
2025-11-23T12:00	28900	12	-57.8		251	63	
2025-11-23T12:00	28950	12	-58.2		251	63	
2025-11-23T12:00	29000	12	-58.6		252	64	
2025-11-23T12:00	29050	12	-58.8		253	65	
2025-11-23T12:00	29100	12	-58.6		254	66	
2025-11-23T12:00	29150	12	-58.6		255	67	
2025-11-23T12:00	29200	11	-58.8		255	68	
2025-11-23T12:00	29250	11	-58.9		255	68	
2025-11-23T12:00	29300	11	-58.9		255	69	
2025-11-23T12:00	29350	11	-59.1		256	70	
2025-11-23T12:00	29400	11	-59.3		256	70	
2025-11-23T12:00	29450	11	-59.3		256	71	
2025-11-23T12:00	29500	11	-59.5		256	71	
2025-11-23T12:00	29550	11	-59.7		256	72	
2025-11-23T12:00	29600	11	-59.6		255	73	
2025-11-23T12:00	29650	11	-59.6		256	74	
2025-11-23T12:00	29700	11	-59.6		256	74	
2025-11-23T12:00	29750	10	-59.5		256	74	
2025-11-23T12:00	29800	10	-59.3		256	76	
2025-11-23T12:00	29850	10	-58.3		256	78	
2025-11-23T12:00	29900	10	-57.8		256	80	
2025-11-23T12:00	29950	10	-57.6		257	81	
2025-11-23T12:00	30000	10	-56.9		257	81	
2025-11-23T12:00	30050	10	-56.4		258	80	
2025-11-23T12:00	30100	10	-55.9		257	80	
2025-11-23T12:00	30150	10	-55.3		256	81	
2025-11-23T12:00	30200	10	-54.6		256	82	
2025-11-23T12:00	30250	10	-54.4		256	82	
2025-11-23T12:00	30300	10	-54.3		257	83	
2025-11-23T12:00	30350	10	-54.2		257	84	
2025-11-23T12:00	30400	9	-53.7		257	86	
2025-11-23T12:00	30450	9	-53.1		257	86	
2025-11-23T12:00	30500	9	-52.7		257	86	
2025-11-23T12:00	30550	9	-52.6		256	85	
2025-11-23T12:00	30600	9	-52.7		256	85	
2025-11-23T12:00	30650	9	-53.0		255	85	
2025-11-23T12:00	30700	9	-53.2		255	85	
2025-11-23T12:00	30750	9	-53.5		254	86	
2025-11-23T12:00	30800	9	-53.7		254	87	
2025-11-23T12:00	30850	9	-53.8		254	87	
2025-11-23T12:00	30900	9	-54.0		254	87	
2025-11-23T12:00	30950	9	-54.3		254	87	
2025-11-23T12:00	31000	9	-54.6		254	87	
2025-11-23T12:00	31050	9	-54.7		255	86	
2025-11-23T12:00	31100	8	-55.0		255	87	
2025-11-23T12:00	31150	8	-55.3		255	87	
2025-11-23T12:00	31200	8	-55.6		256	87	
2025-11-23T12:00	31250	8	-55.6		256	88	
2025-11-23T12:00	31300	8	-55.7		257	88	
2025-11-23T12:00	31350	8	-55.7		257	88	
2025-11-23T12:00	31400	8	-55.6		257	88	
2025-11-23T12:00	31450	8	-55.4		257	88	
2025-11-23T12:00	31500	8	-55.3		257	88	
2025-11-23T12:00	31550	8	-55.5		257	87	
2025-11-23T12:00	31600	8	-55.7		257	87	
2025-11-23T12:00	31650	8	-55.8		257	86	
2025-11-23T12:00	31700	8	-55.7		257	86	
2025-11-23T12:00	31750	8	-55.4		257	85	
2025-11-23T12:00	31800	8	-55.2		257	86	
2025-11-23T12:00	31850	8	-55.0		257	86	
2025-11-23T12:00	31900	7	-54.9		258	87	
2025-11-23T12:00	31950	7	-55.0		258	88	
2025-11-23T12:00	32000	7	-55.1		259	89	
2025-11-23T12:00	32050	7	-55.3		259	90	
2025-11-23T12:00	32100	7	-55.2		259	90	
2025-11-23T12:00	32150	7	-54.9		259	91	
2025-11-23T12:00	32200	7	-54.7		260	91	
2025-11-23T12:00	32250	7	-54.3		260	92	
2025-11-23T12:00	32300	7	-53.9		260	95	
2025-11-23T12:00	32350	7	-53.1		260	96	
2025-11-23T12:00	32400	7	-51.8		260	95	
2025-11-23T12:00	32450	7	-51.3		259	96	
2025-11-23T12:00	32500	7	-51.5		259	96	
2025-11-23T12:00	32550	7	-51.9		258	97	
2025-11-23T12:00	32600	7	-52.2		258	97	
2025-11-23T12:00	32650	7	-52.4		258	97	
2025-11-23T12:00	32700	7	-52.2		258	98	
2025-11-23T12:00	32750	7	-52.2		259	98	
2025-11-23T12:00	32800	6	-52.0		259	99	
2025-11-23T12:00	32850	6	-51.4		260	99	
2025-11-23T12:00	32900	6	-51.1		261	99	
2025-11-23T12:00	32950	6	-51.1		261	99	
2025-11-23T12:00	33000	6	-51.1		262	99	
2025-11-23T12:00	33050	6	-51.2		262	99	
2025-11-23T12:00	33100	6	-51.4		262	98	
2025-11-23T12:00	33150	6	-51.6		262	98	
2025-11-23T12:00	33200	6	-51.9		262	98	
2025-11-23T12:00	33250	6	-52.0		262	98	
2025-11-23T12:00	33300	6	-52.2		262	98	
2025-11-23T12:00	33350	6	-52.3		262	97	
2025-11-23T12:00	33400	6	-52.3		262	97	
2025-11-23T12:00	33450	6	-52.1		262	97	
2025-11-23T12:00	33500	6	-51.5		262	97	
2025-11-23T12:00	33550	6	-51.0		262	97	
2025-11-23T12:00	33600	6	-51.0		263	97	
2025-11-23T12:00	33650	6	-51.2		263	98	
2025-11-23T12:00	33700	6	-51.4		263	98	
2025-11-23T12:00	33750	6	-51.5		264	98	
2025-11-23T12:00	33800	6	-51.5		264	99	
2025-11-23T12:00	33850	6	-51.5		265	99	
2025-11-23T12:00	33900	5	-51.7		265	100	
2025-11-23T12:00	33950	5	-51.7		265	100	
2025-11-23T12:00	34000	5	-51.0		265	100	
2025-11-23T12:00	34050	5	-50.1		265	101	
2025-11-23T12:00	34100	5	-49.8		264	102	
2025-11-23T12:00	34150	5	-50.1		264	103	
2025-11-23T12:00	34200	5	-50.4		264	104	
2025-11-23T12:00	34250	5	-50.7		264	105	
2025-11-23T12:00	34300	5	-50.9		264	106	
2025-11-23T12:00	34350	5	-50.6		265	105	
2025-11-23T12:00	34400	5	-50.6		265	103	
2025-11-23T12:00	34450	5	-50.8		265	101	
2025-11-23T12:00	34500	5	-50.9		264	101	
2025-11-23T12:00	34550	5	-50.7		264	102	
2025-11-23T12:00	34600	5	-50.1		265	103	
2025-11-23T12:00	34650	5	-49.2		265	104	
2025-11-23T12:00	34700	5	-48.3		265	105	
2025-11-23T12:00	34750	5	-47.7		266	105	
2025-11-23T12:00	34800	5	-47.6		266	105	
2025-11-23T12:00	34850	5	-47.8		266	104	
2025-11-23T12:00	34900	5	-48.1		266	104	
2025-11-23T12:00	34950	5	-48.3		266	104	
2025-11-23T12:00	35000	5	-48.3		266	104	
2025-11-23T12:00	35050	5	-48.3		265	104	
2025-11-23T12:00	35100	5	-48.4		265	104	
2025-11-23T12:00	35150	5	-48.5		265	104	
2025-11-23T12:00	35200	4	-48.2		264	104	
2025-11-23T12:00	35250	4	-47.9		264	104	
2025-11-23T12:00	35300	4	-47.8		264	105	
2025-11-23T12:00	35350	4	-48.0		263	106	
2025-11-23T12:00	35400	4	-48.1		263	107	
2025-11-23T12:00	35450	4	-48.0		263	108	
2025-11-23T12:00	35500	4	-47.6		263	110	
2025-11-23T12:00	35550	4	-47.0		264	110	
2025-11-23T12:00	35600	4	-46.5		264	111	
2025-11-23T12:00	35650	4	-46.1		264	111	
2025-11-23T12:00	35700	4	-45.7		264	111	
2025-11-23T12:00	35750	4	-44.9		264	110	
2025-11-23T12:00	35800	4	-44.1		264	108	
2025-11-23T12:00	35850	4	-43.4		264	105	
2025-11-24T00:00	491	948	3.5	2.3	202	4	
2025-11-24T00:00	501	946	3.5	2.4	221	4	
2025-11-24T00:00	520	945	3.4	2.4	229	5	
2025-11-24T00:00	540	943	3.3	2.2	228	6	
2025-11-24T00:00	560	940	3.3	2.1	227	8	
2025-11-24T00:00	580	938	3.1	2.1	226	10	
2025-11-24T00:00	600	936	3.1	2.1	223	11	
2025-11-24T00:00	620	933	3.0	2.2	220	12	
2025-11-24T00:00	640	931	2.9	2.2	219	12	
2025-11-24T00:00	660	929	2.8	2.1	217	13	
2025-11-24T00:00	680	926	2.8	2.1	215	13	
2025-11-24T00:00	700	924	2.7	2.1	214	14	
2025-11-24T00:00	720	922	2.6	2.2	214	14	
2025-11-24T00:00	740	920	2.4	2.1	215	14	
2025-11-24T00:00	760	917	2.3	2.1	216	15	
2025-11-24T00:00	780	915	2.3	2.0	217	16	
2025-11-24T00:00	800	913	2.3	2.1	218	16	
2025-11-24T00:00	820	911	2.8	2.3	218	17	
2025-11-24T00:00	840	908	3.0	2.3	218	18	
2025-11-24T00:00	860	906	3.3	2.5	217	18	
2025-11-24T00:00	880	904	3.3	2.5	215	19	
2025-11-24T00:00	900	902	3.3	2.5	213	19	
2025-11-24T00:00	920	899	3.5	2.4	212	19	
2025-11-24T00:00	940	897	3.7	2.3	211	20	
2025-11-24T00:00	960	895	4.3	2.2	210	20	
2025-11-24T00:00	980	893	4.6	2.3	210	21	
2025-11-24T00:00	1000	890	4.4	2.4	211	21	
2025-11-24T00:00	1020	888	4.3	2.4	211	22	
2025-11-24T00:00	1040	886	4.2	2.4	212	22	
2025-11-24T00:00	1060	884	4.2	2.3	212	23	
2025-11-24T00:00	1080	882	4.1	2.3	213	23	
2025-11-24T00:00	1100	880	3.9	2.3	213	23	
2025-11-24T00:00	1120	878	3.7	2.3	214	24	
2025-11-24T00:00	1140	875	3.5	2.3	214	24	
2025-11-24T00:00	1160	873	3.5	2.3	215	24	
2025-11-24T00:00	1180	871	3.4	2.3	216	24	
2025-11-24T00:00	1200	869	3.3	2.2	217	25	
2025-11-24T00:00	1220	867	3.2	2.2	219	25	
2025-11-24T00:00	1240	865	3.3	2.3	219	25	
2025-11-24T00:00	1260	863	3.2	2.3	220	25	
2025-11-24T00:00	1280	860	3.2	2.3	220	26	
2025-11-24T00:00	1300	858	3.2	2.5	221	26	
2025-11-24T00:00	1320	856	3.1	2.4	221	26	
2025-11-24T00:00	1340	854	3.1	2.4	221	26	
2025-11-24T00:00	1360	852	3.0	2.4	221	26	
2025-11-24T00:00	1380	850	2.8	2.4	222	27	
2025-11-24T00:00	1400	848	2.6	2.4	222	27	
2025-11-24T00:00	1420	846	2.4	2.3	222	27	
2025-11-24T00:00	1440	844	2.3	2.3	223	27	
2025-11-24T00:00	1460	842	2.2	2.1	223	27	
2025-11-24T00:00	1480	839	2.0	2.0	224	27	
2025-11-24T00:00	1500	838	1.8	1.8	225	28	
2025-11-24T00:00	1520	835	1.7	1.7	225	28	
2025-11-24T00:00	1540	833	1.6	1.6	226	28	
2025-11-24T00:00	1560	831	1.4	1.4	226	28	
2025-11-24T00:00	1580	829	1.3	1.3	227	28	
2025-11-24T00:00	1600	827	1.1	1.1	228	28	
2025-11-24T00:00	1620	825	1.0	0.9	230	27	
2025-11-24T00:00	1640	823	1.0	0.8	232	27	
2025-11-24T00:00	1660	821	1.0	0.6	233	26	
2025-11-24T00:00	1680	819	0.9	0.5	234	25	
2025-11-24T00:00	1700	817	0.9	0.4	234	25	
2025-11-24T00:00	1720	815	0.7	0.4	234	25	
2025-11-24T00:00	1740	813	0.5	0.4	233	25	
2025-11-24T00:00	1760	811	0.4	0.3	232	25	
2025-11-24T00:00	1780	809	0.3	0.2	232	25	
2025-11-24T00:00	1800	807	0.1	0.1	232	25	
2025-11-24T00:00	1820	805	-0.1	-0.1	233	24	
2025-11-24T00:00	1840	803	-0.2	-0.2	234	24	
2025-11-24T00:00	1860	801	-0.2	-0.2	235	24	
2025-11-24T00:00	1880	799	-0.2	-0.2	236	25	
2025-11-24T00:00	1900	797	-0.3	-0.3	238	25	
2025-11-24T00:00	1920	795	-0.4	-0.4	240	25	
2025-11-24T00:00	1940	793	-0.6	-0.6	241	25	
2025-11-24T00:00	1960	791	-0.7	-0.7	243	26	
2025-11-24T00:00	1980	789	-0.8	-0.8	245	26	
2025-11-24T00:00	2000	787	-0.9	-0.9	247	26	
2025-11-24T00:00	2020	785	-1.0	-1.0	250	26	
2025-11-24T00:00	2040	783	-1.0	-1.1	252	25	
2025-11-24T00:00	2060	781	-1.0	-1.1	253	25	
2025-11-24T00:00	2080	779	-1.1	-1.1	254	24	
2025-11-24T00:00	2100	777	-1.0	-1.1	255	24	
2025-11-24T00:00	2120	775	-0.8	-1.0	256	24	
2025-11-24T00:00	2140	773	-0.7	-1.1	257	24	
2025-11-24T00:00	2160	771	-0.8	-1.2	258	24	
2025-11-24T00:00	2180	769	-0.8	-1.3	259	24	
2025-11-24T00:00	2200	767	-0.7	-1.3	259	24	
2025-11-24T00:00	2220	765	-0.7	-1.4	258	25	
2025-11-24T00:00	2240	764	-0.8	-1.5	256	25	
2025-11-24T00:00	2260	762	-0.8	-1.7	255	25	
2025-11-24T00:00	2280	760	-1.0	-1.7	255	25	
2025-11-24T00:00	2300	758	-1.0	-1.8	254	25	
2025-11-24T00:00	2320	756	-1.1	-1.9	254	26	
2025-11-24T00:00	2340	754	-1.2	-2.0	253	26	
2025-11-24T00:00	2360	752	-1.2	-2.1	253	26	
2025-11-24T00:00	2380	750	-1.3	-2.2	254	26	
2025-11-24T00:00	2400	748	-1.4	-2.3	254	26	
2025-11-24T00:00	2420	747	-1.5	-2.4	254	26	
2025-11-24T00:00	2440	745	-1.7	-2.4	255	26	
2025-11-24T00:00	2460	743	-1.8	-2.5	256	26	
2025-11-24T00:00	2480	741	-1.9	-2.7	256	26	
2025-11-24T00:00	2500	739	-2.0	-2.8	257	26	
2025-11-24T00:00	2520	737	-2.2	-2.9	257	26	
2025-11-24T00:00	2540	735	-2.3	-2.9	258	26	
2025-11-24T00:00	2560	734	-2.4	-3.1	258	26	
2025-11-24T00:00	2580	732	-2.4	-3.3	259	26	
2025-11-24T00:00	2600	730	-2.5	-3.3	259	25	
2025-11-24T00:00	2620	728	-2.7	-3.4	259	25	
2025-11-24T00:00	2640	726	-2.7	-3.6	259	25	
2025-11-24T00:00	2660	724	-2.9	-3.7	259	25	
2025-11-24T00:00	2680	722	-3.0	-3.8	258	25	
2025-11-24T00:00	2700	720	-3.2	-3.9	258	26	
2025-11-24T00:00	2720	719	-3.3	-4.0	258	26	
2025-11-24T00:00	2740	717	-3.5	-4.1	258	26	
2025-11-24T00:00	2760	715	-3.6	-4.1	258	26	
2025-11-24T00:00	2780	714	-3.7	-4.2	258	26	
2025-11-24T00:00	2800	712	-3.8	-4.3	259	26	
2025-11-24T00:00	2820	710	-4.0	-4.5	259	25	
2025-11-24T00:00	2840	708	-4.1	-4.6	259	25	
2025-11-24T00:00	2860	706	-4.2	-4.6	258	25	
2025-11-24T00:00	2880	704	-4.4	-4.8	258	25	
2025-11-24T00:00	2900	703	-4.5	-4.9	257	25	
2025-11-24T00:00	2920	701	-4.6	-5.0	257	25	
2025-11-24T00:00	2940	699	-4.8	-5.1	257	25	
2025-11-24T00:00	2960	697	-4.9	-5.2	257	25	
2025-11-24T00:00	2980	695	-5.0	-5.3	258	25	
2025-11-24T00:00	3000	694	-5.1	-5.4	259	24	
2025-11-24T00:00	3020	692	-5.3	-5.5	260	24	
2025-11-24T00:00	3040	690	-5.4	-5.6	260	24	
2025-11-24T00:00	3060	689	-5.5	-5.7	261	24	
2025-11-24T00:00	3080	687	-5.6	-5.9	261	24	
2025-11-24T00:00	3100	685	-5.8	-6.0	261	24	
2025-11-24T00:00	3120	683	-5.8	-6.1	260	24	
2025-11-24T00:00	3140	682	-6.0	-6.2	260	25	
2025-11-24T00:00	3160	680	-6.1	-6.4	260	25	
2025-11-24T00:00	3180	678	-6.2	-6.4	260	25	
2025-11-24T00:00	3200	676	-6.3	-6.5	260	25	
2025-11-24T00:00	3220	675	-6.5	-6.7	260	25	
2025-11-24T00:00	3240	673	-6.6	-6.7	260	25	
2025-11-24T00:00	3260	671	-6.7	-6.8	260	25	
2025-11-24T00:00	3280	669	-6.8	-7.0	259	25	
2025-11-24T00:00	3300	668	-6.9	-7.1	259	25	
2025-11-24T00:00	3320	666	-7.0	-7.3	259	25	
2025-11-24T00:00	3340	664	-7.2	-7.4	259	25	
2025-11-24T00:00	3360	663	-7.3	-7.5	259	25	
2025-11-24T00:00	3380	661	-7.4	-7.6	258	25	
2025-11-24T00:00	3400	659	-7.5	-7.7	258	25	
2025-11-24T00:00	3420	658	-7.6	-7.8	257	25	
2025-11-24T00:00	3440	656	-7.7	-7.9	257	25	
2025-11-24T00:00	3460	654	-7.9	-8.0	257	25	
2025-11-24T00:00	3480	653	-8.0	-8.2	256	26	
2025-11-24T00:00	3500	651	-8.1	-8.3	256	26	
2025-11-24T00:00	3520	649	-8.2	-8.4	256	26	
2025-11-24T00:00	3540	648	-8.3	-8.5	256	26	
2025-11-24T00:00	3560	646	-8.4	-8.7	256	26	
2025-11-24T00:00	3580	644	-8.5	-8.9	257	26	
2025-11-24T00:00	3600	643	-8.7	-9.0	258	26	
2025-11-24T00:00	3620	641	-8.8	-9.1	259	26	
2025-11-24T00:00	3640	639	-8.9	-9.2	259	26	
2025-11-24T00:00	3660	638	-9.0	-9.2	260	26	
2025-11-24T00:00	3680	636	-9.1	-9.4	260	26	
2025-11-24T00:00	3700	634	-9.2	-9.6	261	26	
2025-11-24T00:00	3720	633	-9.3	-9.7	260	26	
2025-11-24T00:00	3740	631	-9.4	-9.8	260	26	
2025-11-24T00:00	3760	629	-9.6	-9.9	260	26	
2025-11-24T00:00	3780	628	-9.7	-10.1	259	25	
2025-11-24T00:00	3800	626	-9.8	-10.3	259	25	
2025-11-24T00:00	3820	624	-10.0	-10.4	258	25	
2025-11-24T00:00	3840	623	-10.1	-10.5	257	26	
2025-11-24T00:00	3860	621	-10.3	-10.7	257	26	
2025-11-24T00:00	3880	620	-10.3	-10.8	256	26	
2025-11-24T00:00	3900	618	-10.4	-10.9	256	26	
2025-11-24T00:00	3920	616	-10.6	-11.0	256	26	
2025-11-24T00:00	3940	615	-10.7	-11.1	257	26	
2025-11-24T00:00	3960	613	-10.8	-11.3	257	26	
2025-11-24T00:00	3980	612	-10.9	-11.4	257	26	
2025-11-24T00:00	4000	610	-11.1	-11.5	257	26	
2025-11-24T00:00	4020	608	-11.2	-11.6	256	26	
2025-11-24T00:00	4040	607	-11.3	-11.8	256	26	
2025-11-24T00:00	4060	605	-11.4	-11.9	255	26	
2025-11-24T00:00	4080	604	-11.5	-12.1	255	26	
2025-11-24T00:00	4100	602	-11.6	-12.2	255	27	
2025-11-24T00:00	4120	600	-11.8	-12.3	255	27	
2025-11-24T00:00	4140	599	-11.9	-12.6	255	27	
2025-11-24T00:00	4160	597	-12.0	-12.8	256	27	
2025-11-24T00:00	4180	596	-12.2	-12.9	256	27	
2025-11-24T00:00	4200	594	-12.3	-13.1	255	27	
2025-11-24T00:00	4220	593	-12.5	-13.2	255	27	
2025-11-24T00:00	4240	591	-12.6	-13.4	255	28	
2025-11-24T00:00	4260	590	-12.7	-13.5	255	28	
2025-11-24T00:00	4280	588	-12.9	-13.7	256	28	
2025-11-24T00:00	4300	587	-13.0	-13.8	256	28	
2025-11-24T00:00	4320	585	-13.1	-13.9	256	28	
2025-11-24T00:00	4340	584	-13.3	-14.0	256	28	
2025-11-24T00:00	4360	582	-13.4	-14.2	257	28	
2025-11-24T00:00	4380	581	-13.5	-14.5	257	28	
2025-11-24T00:00	4400	579	-13.7	-14.6	258	28	
2025-11-24T00:00	4420	577	-13.8	-14.8	258	28	
2025-11-24T00:00	4440	576	-13.8	-14.9	258	28	
2025-11-24T00:00	4460	574	-14.0	-15.0	258	28	
2025-11-24T00:00	4480	573	-14.1	-15.0	257	28	
2025-11-24T00:00	4500	571	-14.2	-15.1	257	27	
2025-11-24T00:00	4520	570	-14.4	-15.3	257	27	
2025-11-24T00:00	4540	568	-14.5	-15.4	256	27	
2025-11-24T00:00	4560	567	-14.7	-15.6	256	26	
2025-11-24T00:00	4580	565	-14.8	-15.8	255	26	
2025-11-24T00:00	4600	564	-14.9	-15.9	255	26	
2025-11-24T00:00	4620	562	-15.1	-16.2	256	26	
2025-11-24T00:00	4640	561	-15.2	-16.4	256	26	
2025-11-24T00:00	4660	559	-15.4	-16.6	257	26	
2025-11-24T00:00	4680	558	-15.5	-16.6	257	26	
2025-11-24T00:00	4700	557	-15.5	-16.8	257	26	
2025-11-24T00:00	4720	555	-15.6	-16.8	258	26	
2025-11-24T00:00	4740	554	-15.7	-16.9	259	25	
2025-11-24T00:00	4760	552	-15.8	-17.0	259	25	
2025-11-24T00:00	4780	551	-15.8	-17.1	260	25	
2025-11-24T00:00	4800	549	-16.0	-17.1	260	25	
2025-11-24T00:00	4820	548	-16.1	-17.4	261	25	
2025-11-24T00:00	4840	546	-16.2	-17.5	261	26	
2025-11-24T00:00	4860	545	-16.3	-17.6	261	26	
2025-11-24T00:00	4880	543	-16.4	-17.7	261	26	
2025-11-24T00:00	4900	542	-16.6	-17.9	261	26	
2025-11-24T00:00	4920	541	-16.7	-18.0	261	26	
2025-11-24T00:00	4940	539	-16.8	-18.2	261	26	
2025-11-24T00:00	4960	538	-17.0	-18.3	262	25	
2025-11-24T00:00	4980	536	-17.1	-18.5	262	25	
2025-11-24T00:00	5000	535	-17.2	-18.6	262	25	
2025-11-24T00:00	5020	533	-17.3	-18.8	263	25	
2025-11-24T00:00	5040	532	-17.4	-18.9	263	25	
2025-11-24T00:00	5060	531	-17.6	-18.9	263	25	
2025-11-24T00:00	5080	529	-17.7	-19.2	264	26	
2025-11-24T00:00	5100	528	-17.8	-19.3	265	26	
2025-11-24T00:00	5120	526	-17.9	-19.4	265	26	
2025-11-24T00:00	5140	525	-18.0	-19.5	266	27	
2025-11-24T00:00	5160	523	-18.2	-19.6	267	27	
2025-11-24T00:00	5180	522	-18.3	-19.8	267	27	
2025-11-24T00:00	5200	521	-18.4	-19.9	267	27	
2025-11-24T00:00	5220	519	-18.5	-20.2	267	27	
2025-11-24T00:00	5240	518	-18.6	-20.2	267	27	
2025-11-24T00:00	5260	516	-18.8	-20.4	266	27	
2025-11-24T00:00	5280	515	-18.9	-20.6	266	26	
2025-11-24T00:00	5300	514	-19.0	-20.7	265	26	
2025-11-24T00:00	5320	512	-19.2	-20.8	264	26	
2025-11-24T00:00	5340	511	-19.3	-20.8	264	26	
2025-11-24T00:00	5360	510	-19.5	-21.2	264	27	
2025-11-24T00:00	5380	508	-19.7	-21.3	264	27	
2025-11-24T00:00	5400	507	-19.8	-21.5	266	27	
2025-11-24T00:00	5420	505	-19.9	-21.6	267	27	
2025-11-24T00:00	5440	504	-20.1	-21.7	268	27	
2025-11-24T00:00	5460	503	-20.2	-21.9	268	27	
2025-11-24T00:00	5480	501	-20.4	-22.0	269	26	
2025-11-24T00:00	5500	500	-20.5	-22.1	269	26	
2025-11-24T00:00	5520	499	-20.7	-22.3	269	26	
2025-11-24T00:00	5540	497	-20.9	-22.5	269	26	
2025-11-24T00:00	5560	496	-21.1	-22.7	269	26	
2025-11-24T00:00	5580	495	-21.2	-22.9	268	26	
2025-11-24T00:00	5600	493	-21.3	-23.0	268	27	
2025-11-24T00:00	5620	492	-21.5	-23.2	268	27	
2025-11-24T00:00	5640	491	-21.6	-23.3	267	27	
2025-11-24T00:00	5660	489	-21.8	-23.5	267	27	
2025-11-24T00:00	5680	488	-21.9	-23.7	267	27	
2025-11-24T00:00	5700	487	-22.1	-23.9	268	26	
2025-11-24T00:00	5720	485	-22.2	-24.0	269	26	
2025-11-24T00:00	5740	484	-22.3	-24.1	270	26	
2025-11-24T00:00	5760	483	-22.5	-24.2	270	26	
2025-11-24T00:00	5780	481	-22.7	-24.4	270	26	
2025-11-24T00:00	5800	480	-22.8	-24.8	270	26	
2025-11-24T00:00	5820	479	-23.0	-25.1	270	26	
2025-11-24T00:00	5840	478	-23.1	-25.2	269	26	
2025-11-24T00:00	5860	476	-23.3	-25.3	268	26	
2025-11-24T00:00	5880	475	-23.4	-25.5	267	26	
2025-11-24T00:00	5900	474	-23.6	-25.7	266	27	
2025-11-24T00:00	5920	472	-23.7	-25.8	266	27	
2025-11-24T00:00	5940	471	-23.9	-26.0	266	27	
2025-11-24T00:00	5960	470	-24.1	-26.2	266	28	
2025-11-24T00:00	5980	468	-24.2	-26.4	266	28	
2025-11-24T00:00	6000	467	-24.3	-26.6	266	29	
2025-11-24T00:00	6020	466	-24.5	-26.9	267	29	
2025-11-24T00:00	6040	464	-24.7	-27.0	267	29	
2025-11-24T00:00	6060	463	-24.9	-27.2	267	29	
2025-11-24T00:00	6080	462	-25.0	-27.3	267	29	
2025-11-24T00:00	6100	461	-25.1	-27.5	267	28	
2025-11-24T00:00	6120	460	-25.3	-27.6	267	28	
2025-11-24T00:00	6140	458	-25.4	-27.7	267	28	
2025-11-24T00:00	6160	457	-25.6	-28.0	267	27	
2025-11-24T00:00	6180	456	-25.7	-28.3	267	27	
2025-11-24T00:00	6200	454	-25.9	-28.5	267	28	
2025-11-24T00:00	6220	453	-26.1	-28.6	266	28	
2025-11-24T00:00	6240	452	-26.2	-28.9	266	28	
2025-11-24T00:00	6260	451	-26.4	-29.0	266	28	
2025-11-24T00:00	6280	449	-26.6	-29.2	266	28	
2025-11-24T00:00	6300	448	-26.8	-29.3	266	29	
2025-11-24T00:00	6320	447	-26.9	-29.4	267	29	
2025-11-24T00:00	6340	446	-27.1	-29.6	267	29	
2025-11-24T00:00	6360	445	-27.2	-29.7	268	28	
2025-11-24T00:00	6380	443	-27.4	-29.8	268	28	
2025-11-24T00:00	6400	442	-27.6	-30.0	269	28	
2025-11-24T00:00	6420	441	-27.7	-30.2	269	28	
2025-11-24T00:00	6440	440	-27.9	-30.5	269	27	
2025-11-24T00:00	6460	438	-28.0	-30.5	269	27	
2025-11-24T00:00	6480	437	-28.2	-30.6	269	27	
2025-11-24T00:00	6500	436	-28.4	-30.9	269	27	
2025-11-24T00:00	6520	435	-28.5	-31.0	268	27	
2025-11-24T00:00	6540	434	-28.7	-31.3	268	27	
2025-11-24T00:00	6560	432	-28.8	-31.4	269	27	
2025-11-24T00:00	6580	431	-29.0	-31.6	269	28	
2025-11-24T00:00	6600	430	-29.2	-31.9	269	28	
2025-11-24T00:00	6620	429	-29.4	-32.1	269	28	
2025-11-24T00:00	6640	428	-29.5	-32.3	270	29	
2025-11-24T00:00	6660	426	-29.7	-32.4	270	29	
2025-11-24T00:00	6680	425	-29.9	-32.6	270	29	
2025-11-24T00:00	6700	424	-30.0	-32.8	270	29	
2025-11-24T00:00	6720	423	-30.2	-33.1	270	28	
2025-11-24T00:00	6740	421	-30.4	-33.3	270	28	
2025-11-24T00:00	6760	420	-30.5	-33.4	270	28	
2025-11-24T00:00	6780	419	-30.7	-33.4	270	28	
2025-11-24T00:00	6800	418	-30.9	-33.6	270	28	
2025-11-24T00:00	6820	417	-31.0	-34.0	269	28	
2025-11-24T00:00	6840	416	-31.2	-34.0	269	28	
2025-11-24T00:00	6860	414	-31.4	-34.0	269	28	
2025-11-24T00:00	6880	413	-31.6	-34.2	270	29	
2025-11-24T00:00	6900	412	-31.7	-34.4	270	29	
2025-11-24T00:00	6920	411	-31.9	-34.6	270	29	
2025-11-24T00:00	6940	410	-32.1	-34.7	271	29	
2025-11-24T00:00	6960	409	-32.2	-34.9	271	30	
2025-11-24T00:00	6980	408	-32.4	-35.0	271	30	
2025-11-24T00:00	7000	406	-32.6	-35.2	271	30	
2025-11-24T00:00	7020	405	-32.7	-35.3	271	30	
2025-11-24T00:00	7040	404	-32.9	-35.5	271	30	
2025-11-24T00:00	7060	403	-33.1	-35.7	271	30	
2025-11-24T00:00	7080	402	-33.2	-35.9	271	30	
2025-11-24T00:00	7100	401	-33.4	-36.0	271	30	
2025-11-24T00:00	7120	400	-33.6	-36.1	272	30	
2025-11-24T00:00	7140	398	-33.8	-36.3	272	30	
2025-11-24T00:00	7160	397	-34.0	-36.4	272	30	
2025-11-24T00:00	7180	396	-34.1	-36.6	272	30	
2025-11-24T00:00	7200	395	-34.3	-36.9	272	30	
2025-11-24T00:00	7220	394	-34.5	-37.0	272	30	
2025-11-24T00:00	7240	393	-34.6	-37.1	272	30	
2025-11-24T00:00	7260	392	-34.8	-37.3	272	30	
2025-11-24T00:00	7280	390	-35.0	-37.4	272	30	
2025-11-24T00:00	7300	389	-35.2	-37.6	273	30	
2025-11-24T00:00	7320	388	-35.4	-37.7	273	30	
2025-11-24T00:00	7340	387	-35.5	-38.0	273	30	
2025-11-24T00:00	7360	386	-35.7	-38.3	274	30	
2025-11-24T00:00	7380	385	-35.9	-38.5	274	30	
2025-11-24T00:00	7400	384	-36.1	-38.6	274	31	
2025-11-24T00:00	7420	383	-36.3	-38.7	274	31	
2025-11-24T00:00	7440	382	-36.4	-38.7	274	31	
2025-11-24T00:00	7460	380	-36.6	-39.0	273	31	
2025-11-24T00:00	7480	379	-36.8	-39.2	273	31	
2025-11-24T00:00	7500	378	-37.0	-39.5	273	31	
2025-11-24T00:00	7520	377	-37.2	-39.6	273	30	
2025-11-24T00:00	7540	376	-37.3	-39.8	274	30	
2025-11-24T00:00	7560	375	-37.5	-39.9	274	30	
2025-11-24T00:00	7580	374	-37.7	-40.1	274	30	
2025-11-24T00:00	7600	373	-37.9	-40.3	275	30	
2025-11-24T00:00	7620	372	-38.0	-40.4	275	30	
2025-11-24T00:00	7640	371	-38.2	-40.6	275	31	
2025-11-24T00:00	7660	369	-38.4	-40.8	274	31	
2025-11-24T00:00	7680	368	-38.6	-41.0	274	31	
2025-11-24T00:00	7700	367	-38.7	-41.2	274	31	
2025-11-24T00:00	7720	366	-38.9	-41.1	274	31	
2025-11-24T00:00	7740	365	-39.1	-41.3	274	31	
2025-11-24T00:00	7760	364	-39.2	-41.5	274	31	
2025-11-24T00:00	7780	363	-39.4	-41.9	274	31	
2025-11-24T00:00	7800	362	-39.5	-41.8	275	31	
2025-11-24T00:00	7820	361	-39.7	-41.8	275	31	
2025-11-24T00:00	7840	360	-39.9	-42.2	275	31	
2025-11-24T00:00	7860	359	-40.1	-42.5	275	31	
2025-11-24T00:00	7880	358	-40.2	-42.7	275	31	
2025-11-24T00:00	7900	357	-40.4	-42.8	274	31	
2025-11-24T00:00	7920	356	-40.5	-43.0	274	31	
2025-11-24T00:00	7940	355	-40.7	-43.1	274	31	
2025-11-24T00:00	7960	354	-40.9	-43.6	274	31	
2025-11-24T00:00	7980	353	-41.0	-43.4	274	30	
2025-11-24T00:00	8000	352	-41.2	-43.5	273	30	
2025-11-24T00:00	8020	351	-41.3	-43.5	273	30	
2025-11-24T00:00	8040	350	-41.4	-43.6	273	30	
2025-11-24T00:00	8060	348	-41.6	-43.8	272	30	
2025-11-24T00:00	8080	347	-41.8	-44.1	272	29	
2025-11-24T00:00	8100	346	-41.9	-44.2	272	29	
2025-11-24T00:00	8120	345	-42.1	-44.2	272	29	
2025-11-24T00:00	8140	344	-42.1	-44.3	272	29	
2025-11-24T00:00	8160	343	-42.2	-44.6	273	29	
2025-11-24T00:00	8180	342	-42.3	-44.8	273	29	
2025-11-24T00:00	8200	341	-42.4	-44.7	273	29	
2025-11-24T00:00	8220	340	-42.5	-44.6	273	29	
2025-11-24T00:00	8240	339	-42.7	-44.9	273	29	
2025-11-24T00:00	8260	338	-42.8	-45.3	273	29	
2025-11-24T00:00	8280	337	-42.9	-45.5	273	29	
2025-11-24T00:00	8300	336	-43.1	-45.6	274	29	
2025-11-24T00:00	8320	335	-43.2	-45.5	274	30	
2025-11-24T00:00	8340	334	-43.3	-45.7	274	30	
2025-11-24T00:00	8360	333	-43.5	-45.9	274	30	
2025-11-24T00:00	8380	332	-43.6	-46.2	274	30	
2025-11-24T00:00	8400	331	-43.7	-46.2	274	30	
2025-11-24T00:00	8420	330	-43.9	-46.4	274	30	
2025-11-24T00:00	8440	329	-44.0	-46.6	274	30	
2025-11-24T00:00	8460	328	-44.2	-46.9	274	30	
2025-11-24T00:00	8480	328	-44.3	-47.2	274	30	
2025-11-24T00:00	8500	327	-44.5	-47.5	273	30	
2025-11-24T00:00	8520	325	-44.7	-47.5	273	30	
2025-11-24T00:00	8540	324	-44.9	-47.7	273	30	
2025-11-24T00:00	8560	324	-45.1	-48.0	273	31	
2025-11-24T00:00	8580	323	-45.2	-48.1	274	31	
2025-11-24T00:00	8600	322	-45.3	-48.4	274	31	
2025-11-24T00:00	8620	321	-45.5	-48.5	274	31	
2025-11-24T00:00	8640	320	-45.7	-48.7	274	31	
2025-11-24T00:00	8660	319	-45.8	-48.9	274	32	
2025-11-24T00:00	8680	318	-46.0	-49.3	274	32	
2025-11-24T00:00	8700	317	-46.1	-49.4	274	32	
2025-11-24T00:00	8720	316	-46.3	-49.5	273	32	
2025-11-24T00:00	8740	315	-46.4	-49.8	273	32	
2025-11-24T00:00	8760	314	-46.6	-50.1	274	32	
2025-11-24T00:00	8780	313	-46.7	-50.2	274	32	
2025-11-24T00:00	8800	312	-46.9	-50.3	274	32	
2025-11-24T00:00	8820	311	-47.1	-50.5	275	31	
2025-11-24T00:00	8840	310	-47.2	-50.7	275	31	
2025-11-24T00:00	8860	309	-47.3	-50.7	275	31	
2025-11-24T00:00	8880	308	-47.4	-50.8	275	30	
2025-11-24T00:00	8900	307	-47.6	-51.0	275	30	
2025-11-24T00:00	8920	306	-47.7	-51.4	275	30	
2025-11-24T00:00	8940	306	-47.9	-51.6	275	30	
2025-11-24T00:00	8960	305	-48.1	-51.7	275	30	
2025-11-24T00:00	8980	304	-48.3	-52.0	275	30	
2025-11-24T00:00	9000	303	-48.5	-52.2	275	30	
2025-11-24T00:00	9020	302	-48.7	-52.4	275	30	
2025-11-24T00:00	9040	301	-48.9	-52.7	275	30	
2025-11-24T00:00	9060	300	-49.0	-52.9	274	30	
2025-11-24T00:00	9080	299	-49.2	-53.2	274	30	
2025-11-24T00:00	9100	298	-49.4	-53.3	274	30	
2025-11-24T00:00	9120	297	-49.5	-53.5	274	30	
2025-11-24T00:00	9140	296	-49.7	-53.7	274	30	
2025-11-24T00:00	9160	295	-49.8	-53.8	275	30	
2025-11-24T00:00	9180	295	-49.9	-53.9	275	30	
2025-11-24T00:00	9200	294	-50.0	-54.0	276	30	
2025-11-24T00:00	9220	293	-50.2	-54.1	276	30	
2025-11-24T00:00	9240	292	-50.4	-54.5	276	30	
2025-11-24T00:00	9260	291	-50.6	-54.8	275	30	
2025-11-24T00:00	9280	290	-50.8	-55.0	275	30	
2025-11-24T00:00	9300	289	-51.0	-55.1	276	30	
2025-11-24T00:00	9320	288	-51.2	-55.2	276	30	
2025-11-24T00:00	9340	287	-51.3	-55.3	277	30	
2025-11-24T00:00	9360	287	-51.5	-55.5	277	30	
2025-11-24T00:00	9380	286	-51.7	-55.7	278	30	
2025-11-24T00:00	9400	285	-51.9	-55.9	278	30	
2025-11-24T00:00	9420	284	-52.0	-56.1	279	30	
2025-11-24T00:00	9440	283	-52.2	-56.3	279	31	
2025-11-24T00:00	9460	282	-52.3	-56.4	279	31	
2025-11-24T00:00	9480	281	-52.5	-56.6	278	31	
2025-11-24T00:00	9500	280	-52.7	-57.0	278	31	
2025-11-24T00:00	9520	280	-52.9	-57.1	278	31	
2025-11-24T00:00	9540	279	-53.1	-57.2	278	31	
2025-11-24T00:00	9560	278	-53.3	-57.3	277	31	
2025-11-24T00:00	9580	277	-53.4	-57.6	277	31	
2025-11-24T00:00	9600	276	-53.6	-57.8	277	31	
2025-11-24T00:00	9620	275	-53.8	-57.9	276	31	
2025-11-24T00:00	9640	274	-54.0	-58.0	276	31	
2025-11-24T00:00	9660	274	-54.2	-58.1	276	31	
2025-11-24T00:00	9680	273	-54.4	-58.3	276	31	
2025-11-24T00:00	9700	272	-54.6	-58.6	276	30	
2025-11-24T00:00	9720	271	-54.7	-58.8	277	30	
2025-11-24T00:00	9740	270	-54.9	-59.0	277	30	
2025-11-24T00:00	9760	269	-55.1	-59.1	278	30	
2025-11-24T00:00	9780	268	-55.3	-59.3	278	30	
2025-11-24T00:00	9800	268	-55.5	-59.6	279	31	
2025-11-24T00:00	9820	267	-55.7	-59.8	279	31	
2025-11-24T00:00	9840	266	-55.8	-60.0	279	31	
2025-11-24T00:00	9860	265	-56.0	-60.2	279	31	
2025-11-24T00:00	9880	264	-56.2	-60.4	279	32	
2025-11-24T00:00	9900	263	-56.3	-60.5	279	32	
2025-11-24T00:00	9920	263	-56.5	-60.6	279	32	
2025-11-24T00:00	9940	262	-56.7	-60.7	279	32	
2025-11-24T00:00	9960	261	-56.9	-60.9	279	32	
2025-11-24T00:00	9980	260	-57.1	-61.0	280	32	
2025-11-24T00:00	10000	259	-57.2	-61.2	280	32	
2025-11-24T00:00	10018	259	-57.4	-61.3	281	32	
2025-11-24T00:00	10050	257	-57.7	-61.8	282	32	
2025-11-24T00:00	10100	255	-58.2	-62.2	282	33	
2025-11-24T00:00	10150	253	-58.6	-62.5	282	33	
2025-11-24T00:00	10200	251	-59.1	-63.0	281	33	
2025-11-24T00:00	10250	249	-59.6	-63.2	281	34	
2025-11-24T00:00	10300	247	-60.0	-63.8	281	34	
2025-11-24T00:00	10350	245	-60.5	-64.8	280	34	
2025-11-24T00:00	10400	243	-61.0	-65.1	281	33	
2025-11-24T00:00	10450	241	-61.5	-65.9	281	33	
2025-11-24T00:00	10500	239	-62.0	-67.1	281	33	
2025-11-24T00:00	10550	237	-62.4	-67.2	280	33	
2025-11-24T00:00	10600	235	-62.9	-67.8	279	34	
2025-11-24T00:00	10650	234	-63.4	-68.8	279	34	
2025-11-24T00:00	10700	232	-63.9	-69.3	278	34	
2025-11-24T00:00	10750	230	-64.4	-69.5	279	33	
2025-11-24T00:00	10800	228	-64.9	-70.0	280	33	
2025-11-24T00:00	10850	226	-65.4	-70.3	280	34	
2025-11-24T00:00	10900	224	-65.8	-70.7	280	34	
2025-11-24T00:00	10950	222	-66.3	-71.2	280	33	
2025-11-24T00:00	11000	221	-66.7	-71.4	281	33	
2025-11-24T00:00	11050	219	-67.2	-71.8	283	34	
2025-11-24T00:00	11100	217	-67.5	-72.0	286	34	
2025-11-24T00:00	11150	215	-67.8	-71.8	290	33	
2025-11-24T00:00	11200	213	-67.2	-71.1	292	33	
2025-11-24T00:00	11250	212	-66.5	-70.4	291	32	
2025-11-24T00:00	11300	210	-66.0	-70.5	289	32	
2025-11-24T00:00	11350	208	-65.6	-71.1	286	33	
2025-11-24T00:00	11400	206	-64.9	-71.5	284	34	
2025-11-24T00:00	11450	205	-64.9	-71.6	283	36	
2025-11-24T00:00	11500	203	-64.9	-71.9	282	37	
2025-11-24T00:00	11550	201	-64.9	-72.3	282	39	
2025-11-24T00:00	11600	200	-64.8	-72.6	282	39	
2025-11-24T00:00	11650	198	-64.7	-73.0	281	39	
2025-11-24T00:00	11700	197	-64.6	-73.6	281	39	
2025-11-24T00:00	11750	195	-64.6	-74.0	283	40	
2025-11-24T00:00	11800	193	-64.8	-74.2	285	41	
2025-11-24T00:00	11850	192	-64.9	-74.8	287	40	
2025-11-24T00:00	11900	190	-64.4	-75.5	289	39	
2025-11-24T00:00	11950	189	-63.7	-76.6	291	38	
2025-11-24T00:00	12000	187	-63.0	-77.6	293	37	
2025-11-24T00:00	12050	186	-62.7	-78.7	294	37	
2025-11-24T00:00	12100	184	-62.4	-78.9	294	35	
2025-11-24T00:00	12150	183	-62.0	-78.4	294	34	
2025-11-24T00:00	12200	181	-61.9	-78.5	295	33	
2025-11-24T00:00	12250	180	-61.7	-79.3	299	32	
2025-11-24T00:00	12300	178	-61.1	-79.3	301	32	
2025-11-24T00:00	12350	177	-61.1	-79.2	303	30	
2025-11-24T00:00	12400	175	-61.4	-79.1	304	29	
2025-11-24T00:00	12450	174	-61.7	-79.1	304	27	
2025-11-24T00:00	12500	173	-62.0	-79.2	302	26	
2025-11-24T00:00	12550	171	-62.2	-79.3	300	24	
2025-11-24T00:00	12600	170	-62.2	-79.5	298	23	
2025-11-24T00:00	12650	168	-62.1	-79.8	296	23	
2025-11-24T00:00	12700	167	-62.4	-80.1	295	24	
2025-11-24T00:00	12750	166	-62.6	-80.2	293	25	
2025-11-24T00:00	12800	164	-62.8	-80.3	289	26	
2025-11-24T00:00	12850	163	-62.6	-80.3	287	27	
2025-11-24T00:00	12900	162	-62.2	-80.4	287	27	
2025-11-24T00:00	12950	160	-62.1	-80.5	289	26	
2025-11-24T00:00	13000	159	-61.9	-80.7	290	25	
2025-11-24T00:00	13050	158	-61.7	-80.6	288	25	
2025-11-24T00:00	13100	157	-61.7	-80.6	288	27	
2025-11-24T00:00	13150	155	-61.6	-80.5	287	27	
2025-11-24T00:00	13200	154	-61.8	-80.8	289	28	
2025-11-24T00:00	13250	153	-61.9	-80.8	291	27	
2025-11-24T00:00	13300	152	-62.0	-81.2	291	25	
2025-11-24T00:00	13350	150	-61.6	-81.1	288	24	
2025-11-24T00:00	13400	149	-61.6	-81.2	286	24	
2025-11-24T00:00	13450	148	-61.6	-81.3	286	24	
2025-11-24T00:00	13500	147	-61.1	-81.4	288	24	
2025-11-24T00:00	13550	146	-60.9	-81.5	289	24	
2025-11-24T00:00	13600	144	-60.8	-81.5	289	24	
2025-11-24T00:00	13650	143	-60.8	-81.4	288	24	
2025-11-24T00:00	13700	142	-60.8	-81.3	288	24	
2025-11-24T00:00	13750	141	-61.1	-81.5	288	23	
2025-11-24T00:00	13800	140	-61.1	-81.5	289	23	
2025-11-24T00:00	13850	139	-61.1	-81.5	290	22	
2025-11-24T00:00	13900	138	-61.3	-81.6	291	21	
2025-11-24T00:00	13950	137	-61.5	-81.9	290	21	
2025-11-24T00:00	14000	135	-61.3	-82.0	288	21	
2025-11-24T00:00	14050	134	-61.4	-82.0	287	21	
2025-11-24T00:00	14100	133	-61.7	-82.1	284	20	
2025-11-24T00:00	14150	132	-62.0	-82.3	282	20	
2025-11-24T00:00	14200	131	-61.9	-82.3	283	21	
2025-11-24T00:00	14250	130	-62.1	-82.7	285	21	
2025-11-24T00:00	14300	129	-62.2	-82.8	288	22	
2025-11-24T00:00	14350	128	-62.2	-82.8	287	22	
2025-11-24T00:00	14400	127	-62.0	-82.8	288	21	
2025-11-24T00:00	14450	126	-61.9	-82.5	287	19	
2025-11-24T00:00	14500	125	-62.0	-82.6	285	18	
2025-11-24T00:00	14550	124	-62.4	-83.1	282	18	
2025-11-24T00:00	14600	123	-62.6	-83.0	280	18	
2025-11-24T00:00	14650	122	-62.7	-83.0	280	18	
2025-11-24T00:00	14700	121	-63.0	-83.1	279	17	
2025-11-24T00:00	14750	120	-63.3	-83.4	277	18	
2025-11-24T00:00	14800	119	-63.3	-83.5	274	19	
2025-11-24T00:00	14850	118	-63.4	-83.6	272	19	
2025-11-24T00:00	14900	117	-63.6	-83.5	272	20	
2025-11-24T00:00	14950	116	-63.9	-83.6	273	21	
2025-11-24T00:00	15000	115	-64.1	-83.8	272	21	
2025-11-24T00:00	15050	114	-64.2	-83.7	272	21	
2025-11-24T00:00	15100	113	-64.2	-83.7	272	21	
2025-11-24T00:00	15150	112	-64.3	-83.8	272	21	
2025-11-24T00:00	15200	111	-64.6	-84.0	273	21	
2025-11-24T00:00	15250	111	-64.6	-84.0	273	21	
2025-11-24T00:00	15300	110	-64.8	-84.1	273	21	
2025-11-24T00:00	15350	109	-64.9	-84.1	273	20	
2025-11-24T00:00	15400	108	-65.0	-84.1	274	20	
2025-11-24T00:00	15450	107	-65.1	-84.2	274	20	
2025-11-24T00:00	15500	106	-65.1	-84.3	274	19	
2025-11-24T00:00	15550	105	-65.1	-84.4	272	19	
2025-11-24T00:00	15600	104	-65.3	-84.5	269	20	
2025-11-24T00:00	15650	104	-65.5	-84.6	267	21	
2025-11-24T00:00	15700	103	-65.1	-84.7	268	22	
2025-11-24T00:00	15750	102	-64.9	-84.7	270	23	
2025-11-24T00:00	15800	101	-64.6	-84.6	273	23	
2025-11-24T00:00	15850	100	-64.6	-84.7	274	24	
2025-11-24T00:00	15900	99	-64.7	-84.8	277	24	
2025-11-24T00:00	15950	99	-64.3	-84.8	281	23	
2025-11-24T00:00	16000	98	-64.1	-84.7	282	22	
2025-11-24T00:00	16050	97	-63.8	-84.6	284	21	
2025-11-24T00:00	16100	96	-64.0	-84.7	284	21	
2025-11-24T00:00	16150	95	-64.2	-84.7	284	21	
2025-11-24T00:00	16200	95	-64.3	-84.7	283	20	
2025-11-24T00:00	16250	94	-64.5	-84.7	281	19	
2025-11-24T00:00	16300	93	-64.3	-84.6	277	18	
2025-11-24T00:00	16350	92	-64.2	-84.8	275	17	
2025-11-24T00:00	16400	92	-64.4	-85.1	274	17	
2025-11-24T00:00	16450	91	-64.7	-85.2	272	17	
2025-11-24T00:00	16500	90	-65.1	-85.4	271	18	
2025-11-24T00:00	16550	89	-65.0	-85.3	272	19	
2025-11-24T00:00	16600	89	-65.0	-85.5	273	20	
2025-11-24T00:00	16650	88	-64.8	-85.4	274	20	
2025-11-24T00:00	16700	87	-64.7	-85.5	277	19	
2025-11-24T00:00	16750	86	-64.7	-85.6	278	20	
2025-11-24T00:00	16800	86	-64.7	-85.7	278	22	
2025-11-24T00:00	16850	85	-64.5	-85.7	280	23	
2025-11-24T00:00	16900	84	-64.1	-85.8	282	23	
2025-11-24T00:00	16950	84	-64.1	-85.9	286	22	
2025-11-24T00:00	17000	83	-63.9	-85.7	288	21	
2025-11-24T00:00	17050	82	-64.1	-85.7	287	21	
2025-11-24T00:00	17100	82	-64.5	-85.8	286	20	
2025-11-24T00:00	17150	81	-64.9	-86.0	285	20	
2025-11-24T00:00	17200	80	-64.8	-86.0	284	21	
2025-11-24T00:00	17250	80	-64.6	-86.1	282	20	
2025-11-24T00:00	17300	79	-64.2	-86.0	278	20	
2025-11-24T00:00	17350	78	-64.3	-86.0	274	19	
2025-11-24T00:00	17400	78	-64.5	-85.7	270	18	
2025-11-24T00:00	17450	77	-64.9	-85.7	265	19	
2025-11-24T00:00	17500	76	-65.1	-86.0	260	20	
2025-11-24T00:00	17550	76	-64.7	-86.3	257	22	
2025-11-24T00:00	17600	75	-64.3	-86.3	256	23	
2025-11-24T00:00	17650	75	-64.4	-86.3	256	23	
2025-11-24T00:00	17700	74	-64.7	-86.3	258	22	
2025-11-24T00:00	17750	73	-64.9	-86.3	259	22	
2025-11-24T00:00	17800	73	-64.9	-86.4	258	21	
2025-11-24T00:00	17850	72	-65.1	-86.5	258	21	
2025-11-24T00:00	17900	72	-65.0	-86.4	259	22	
2025-11-24T00:00	17950	71	-65.0	-86.5	257	22	
2025-11-24T00:00	18000	70	-65.0	-86.7	254	22	
2025-11-24T00:00	18050	70	-64.6	-86.6	253	22	
2025-11-24T00:00	18100	69	-64.4	-86.6	255	22	
2025-11-24T00:00	18150	69	-64.4	-86.5	253	22	
2025-11-24T00:00	18200	68	-64.6	-86.5	253	21	
2025-11-24T00:00	18250	68	-64.8	-86.6	254	21	
2025-11-24T00:00	18300	67	-65.0	-86.6	254	20	
2025-11-24T00:00	18350	67	-65.2	-86.8	254	19	
2025-11-24T00:00	18400	66	-65.0	-86.6	256	20	
2025-11-24T00:00	18450	65	-65.2	-86.8	258	20	
2025-11-24T00:00	18500	65	-65.6	-86.8	261	21	
2025-11-24T00:00	18550	64	-65.7	-86.8	262	21	
2025-11-24T00:00	18600	64	-65.9	-86.8	261	22	
2025-11-24T00:00	18650	63	-66.0	-86.9	262	21	
2025-11-24T00:00	18700	63	-66.1	-86.8	263	21	
2025-11-24T00:00	18750	62	-66.5	-86.8	264	20	
2025-11-24T00:00	18800	62	-66.8	-86.9	265	19	
2025-11-24T00:00	18850	61	-67.0	-87.0	265	19	
2025-11-24T00:00	18900	61	-67.2	-87.0	266	20	
2025-11-24T00:00	18950	60	-67.4	-87.1	264	20	
2025-11-24T00:00	19000	60	-67.8	-87.4	262	21	
2025-11-24T00:00	19050	59	-67.9	-87.4	261	22	
2025-11-24T00:00	19100	59	-68.2	-87.5	260	23	
2025-11-24T00:00	19150	58	-68.4	-87.7	261	23	
2025-11-24T00:00	19200	58	-68.4	-87.7	263	23	
2025-11-24T00:00	19250	57	-68.6	-87.7	265	22	
2025-11-24T00:00	19300	57	-68.8	-87.8	267	22	
2025-11-24T00:00	19350	56	-69.1	-87.8	268	22	
2025-11-24T00:00	19400	56	-69.6	-88.0	269	22	
2025-11-24T00:00	19450	55	-69.9	-88.1	268	22	
2025-11-24T00:00	19500	55	-70.0	-88.1	266	23	
2025-11-24T00:00	19550	54	-70.3	-88.2	265	23	
2025-11-24T00:00	19600	54	-70.6	-88.3	263	24	
2025-11-24T00:00	19650	54	-70.9	-88.5	262	24	
2025-11-24T00:00	19700	53	-71.0	-88.6	262	25	
2025-11-24T00:00	19750	53	-71.1	-88.7	263	26	
2025-11-24T00:00	19800	52	-71.3	-88.9	263	26	
2025-11-24T00:00	19850	52	-70.9	-88.8	262	27	
2025-11-24T00:00	19900	51	-70.8	-88.7	262	27	
2025-11-24T00:00	19950	51	-70.8	-88.7	265	27	
2025-11-24T00:00	20000	50	-70.8	-88.7	267	27	
2025-11-24T00:00	20050	50	-70.9		268	28	
2025-11-24T00:00	20100	50	-70.4		267	29	
2025-11-24T00:00	20150	49	-70.2		269	30	
2025-11-24T00:00	20200	49	-70.2		271	30	
2025-11-24T00:00	20250	48	-69.9		270	30	
2025-11-24T00:00	20300	48	-69.7		267	30	
2025-11-24T00:00	20350	48	-69.3		264	31	
2025-11-24T00:00	20400	47	-68.7		262	32	
2025-11-24T00:00	20450	47	-68.1		263	33	
2025-11-24T00:00	20500	46	-67.9		264	33	
2025-11-24T00:00	20550	46	-67.9		265	33	
2025-11-24T00:00	20600	46	-68.0		266	33	
2025-11-24T00:00	20650	45	-68.4		266	33	
2025-11-24T00:00	20700	45	-68.5		266	34	
2025-11-24T00:00	20750	45	-68.5		267	34	
2025-11-24T00:00	20800	44	-68.4		267	35	
2025-11-24T00:00	20850	44	-68.4		268	35	
2025-11-24T00:00	20900	43	-68.4		270	34	
2025-11-24T00:00	20950	43	-68.7		270	33	
2025-11-24T00:00	21000	43	-68.8		270	32	
2025-11-24T00:00	21050	42	-68.4		268	32	
2025-11-24T00:00	21100	42	-67.9		264	31	
2025-11-24T00:00	21150	42	-67.6		261	30	
2025-11-24T00:00	21200	41	-66.9		262	31	
2025-11-24T00:00	21250	41	-66.8		264	31	
2025-11-24T00:00	21300	41	-66.6		267	31	
2025-11-24T00:00	21350	40	-66.2		270	31	
2025-11-24T00:00	21400	40	-66.5		272	31	
2025-11-24T00:00	21450	40	-66.7		272	31	
2025-11-24T00:00	21500	39	-66.7		271	30	
2025-11-24T00:00	21550	39	-66.8		269	30	
2025-11-24T00:00	21600	39	-66.9		267	30	
2025-11-24T00:00	21650	38	-67.0		264	30	
2025-11-24T00:00	21700	38	-67.3		262	30	
2025-11-24T00:00	21750	38	-67.4		261	30	
2025-11-24T00:00	21800	37	-67.2		261	29	
2025-11-24T00:00	21850	37	-66.8		263	29	
2025-11-24T00:00	21900	37	-66.9		265	29	
2025-11-24T00:00	21950	36	-67.2		267	29	
2025-11-24T00:00	22000	36	-67.5		268	29	
2025-11-24T00:00	22050	36	-67.4		267	28	
2025-11-24T00:00	22100	36	-67.3		263	27	
2025-11-24T00:00	22150	35	-67.1		259	26	
2025-11-24T00:00	22200	35	-66.2		256	27	
2025-11-24T00:00	22250	35	-65.3		252	28	
2025-11-24T00:00	22300	34	-64.7		251	30	
2025-11-24T00:00	22350	34	-63.9		252	32	
2025-11-24T00:00	22400	34	-63.6		252	32	
2025-11-24T00:00	22450	34	-62.9		251	31	
2025-11-24T00:00	22500	33	-63.2		250	31	
2025-11-24T00:00	22550	33	-63.7		250	30	
2025-11-24T00:00	22600	33	-64.1		251	29	
2025-11-24T00:00	22650	33	-64.3		253	29	
2025-11-24T00:00	22700	32	-64.3		255	30	
2025-11-24T00:00	22750	32	-64.4		257	32	
2025-11-24T00:00	22800	32	-64.4		258	33	
2025-11-24T00:00	22850	31	-64.6		257	35	
2025-11-24T00:00	22900	31	-64.3		256	35	
2025-11-24T00:00	22950	31	-64.1		254	36	
2025-11-24T00:00	23000	31	-64.2		253	36	
2025-11-24T00:00	23050	30	-64.5		253	36	
2025-11-24T00:00	23100	30	-64.9		252	36	
2025-11-24T00:00	23150	30	-65.2		253	37	
2025-11-24T00:00	23200	30	-65.3		254	38	
2025-11-24T00:00	23250	29	-65.4		255	39	
2025-11-24T00:00	23300	29	-65.5		255	40	
2025-11-24T00:00	23350	29	-65.8		255	41	
2025-11-24T00:00	23400	29	-65.7		254	42	
2025-11-24T00:00	23450	29	-65.6		253	42	
2025-11-24T00:00	23500	28	-65.7		252	42	
2025-11-24T00:00	23550	28	-65.2		252	42	
2025-11-24T00:00	23600	28	-65.3		252	41	
2025-11-24T00:00	23650	28	-65.6		252	40	
2025-11-24T00:00	23700	27	-65.9		254	39	
2025-11-24T00:00	23750	27	-66.1		254	39	
2025-11-24T00:00	23800	27	-66.0		255	40	
2025-11-24T00:00	23850	27	-65.7		255	40	
2025-11-24T00:00	23900	26	-66.0		255	41	
2025-11-24T00:00	23950	26	-66.3		256	41	
2025-11-24T00:00	24000	26	-66.4		257	42	
2025-11-24T00:00	24050	26	-66.3		256	42	
2025-11-24T00:00	24100	26	-66.1		256	42	
2025-11-24T00:00	24150	25	-66.0		256	42	
2025-11-24T00:00	24200	25	-66.2		256	43	
2025-11-24T00:00	24250	25	-66.3		257	44	
2025-11-24T00:00	24300	25	-66.2		258	44	
2025-11-24T00:00	24350	25	-65.8		259	44	
2025-11-24T00:00	24400	24	-65.7		258	44	
2025-11-24T00:00	24450	24	-65.6		258	44	
2025-11-24T00:00	24500	24	-65.7		258	44	
2025-11-24T00:00	24550	24	-65.7		257	45	
2025-11-24T00:00	24600	24	-66.0		257	45	
2025-11-24T00:00	24650	23	-66.0		257	45	
2025-11-24T00:00	24700	23	-66.0		256	45	
2025-11-24T00:00	24750	23	-65.7		256	46	
2025-11-24T00:00	24800	23	-65.4		257	47	
2025-11-24T00:00	24850	23	-65.3		258	48	
2025-11-24T00:00	24900	22	-64.8		256	49	
2025-11-24T00:00	24950	22	-65.0		255	49	
2025-11-24T00:00	25000	22	-65.1		256	50	
2025-11-24T00:00	25050	22	-65.4		256	50	
2025-11-24T00:00	25100	22	-65.8		257	50	
2025-11-24T00:00	25150	22	-65.9		257	51	
2025-11-24T00:00	25200	21	-65.9		258	51	
2025-11-24T00:00	25250	21	-65.5		258	52	
2025-11-24T00:00	25300	21	-65.1		259	53	
2025-11-24T00:00	25350	21	-64.4		259	54	
2025-11-24T00:00	25400	21	-64.1		258	55	
2025-11-24T00:00	25450	21	-64.1		258	56	
2025-11-24T00:00	25500	20	-64.4		258	56	
2025-11-24T00:00	25550	20	-64.3		259	57	
2025-11-24T00:00	25600	20	-64.5		261	57	
2025-11-24T00:00	25650	20	-64.8		262	58	
2025-11-24T00:00	25700	20	-64.9		263	59	
2025-11-24T00:00	25750	20	-64.3		263	61	
2025-11-24T00:00	25800	19	-63.5		263	62	
2025-11-24T00:00	25850	19	-63.0		262	62	
2025-11-24T00:00	25900	19	-63.1		262	62	
2025-11-24T00:00	25950	19	-63.4		262	62	
2025-11-24T00:00	26000	19	-62.9		263	63	
2025-11-24T00:00	26050	19	-62.9		263	64	
2025-11-24T00:00	26100	18	-62.3		263	66	
2025-11-24T00:00	26150	18	-61.2		264	66	
2025-11-24T00:00	26200	18	-60.7		263	66	
2025-11-24T00:00	26250	18	-60.4		263	66	
2025-11-24T00:00	26300	18	-60.1		264	66	
2025-11-24T00:00	26350	18	-59.9		264	66	
2025-11-24T00:00	26400	18	-59.6		264	65	
2025-11-24T00:00	26450	17	-59.4		263	65	
2025-11-24T00:00	26500	17	-59.2		262	65	
2025-11-24T00:00	26550	17	-59.2		262	65	
2025-11-24T00:00	26600	17	-59.3		262	65	
2025-11-24T00:00	26650	17	-59.4		262	64	
2025-11-24T00:00	26700	17	-59.2		263	64	
2025-11-24T00:00	26750	17	-59.4		263	63	
2025-11-24T00:00	26800	17	-59.8		262	63	
2025-11-24T00:00	26850	16	-59.8		261	63	
2025-11-24T00:00	26900	16	-59.5		260	64	
2025-11-24T00:00	26950	16	-59.5		259	65	
2025-11-24T00:00	27000	16	-59.5		258	65	
2025-11-24T00:00	27050	16	-59.4		257	67	
2025-11-24T00:00	27100	16	-58.7		256	68	
2025-11-24T00:00	27150	16	-57.1		255	69	
2025-11-24T00:00	27200	15	-56.1		254	68	
2025-11-24T00:00	27250	15	-55.6		254	68	
2025-11-24T00:00	27300	15	-55.0		255	68	
2025-11-24T00:00	27350	15	-54.8		256	68	
2025-11-24T00:00	27400	15	-55.0		256	68	
2025-11-24T00:00	27450	15	-55.0		257	67	
2025-11-24T00:00	27500	15	-55.4		257	67	
2025-11-24T00:00	27550	15	-55.8		257	68	
2025-11-24T00:00	27600	15	-56.0		257	68	
2025-11-24T00:00	27650	14	-55.7		257	69	
2025-11-24T00:00	27700	14	-55.8		257	70	
2025-11-24T00:00	27750	14	-56.2		257	71	
2025-11-24T00:00	27800	14	-56.4		256	72	
2025-11-24T00:00	27850	14	-56.3		256	73	
2025-11-24T00:00	27900	14	-56.3		256	74	
2025-11-24T00:00	27950	14	-56.2		256	75	
2025-11-24T00:00	28000	14	-56.0		257	75	
2025-11-24T00:00	28050	14	-56.0		257	76	
2025-11-24T00:00	28100	13	-56.1		257	77	
2025-11-24T00:00	28150	13	-56.4		257	77	
2025-11-24T00:00	28200	13	-56.7		256	78	
2025-11-24T00:00	28250	13	-57.0		255	78	
2025-11-24T00:00	28300	13	-57.2		255	79	
2025-11-24T00:00	28350	13	-56.8		256	79	
2025-11-24T00:00	28400	13	-55.8		259	76	
2025-11-24T00:00	28450	13	-55.2		261	73	
2025-11-24T00:00	28500	13	-55.0		261	72	
2025-11-24T00:00	28550	13	-55.2		261	71	
2025-11-24T00:00	28600	12	-55.0		260	70	
2025-11-24T00:00	28650	12	-54.9		260	70	
2025-11-24T00:00	28700	12	-55.1		261	70	
2025-11-24T00:00	28750	12	-55.3		262	71	
2025-11-24T00:00	28800	12	-55.5		262	71	
2025-11-24T00:00	28850	12	-55.7		263	71	
2025-11-24T00:00	28900	12	-56.0		263	71	
2025-11-24T00:00	28950	12	-56.3		262	72	
2025-11-24T00:00	29000	12	-56.5		262	72	
2025-11-24T00:00	29050	12	-56.6		261	73	
2025-11-24T00:00	29100	11	-56.8		260	73	
2025-11-24T00:00	29150	11	-57.2		259	74	
2025-11-24T00:00	29200	11	-57.5		258	75	
2025-11-24T00:00	29250	11	-58.0		258	76	
2025-11-24T00:00	29300	11	-58.4		258	76	
2025-11-24T00:00	29350	11	-58.8		258	77	
2025-11-24T00:00	29400	11	-59.0		258	76	
2025-11-24T00:00	29450	11	-59.0		259	76	
2025-11-24T00:00	29500	11	-59.3		260	75	
2025-11-24T00:00	29550	11	-59.6		261	75	
2025-11-24T00:00	29600	11	-59.7		261	75	
2025-11-24T00:00	29650	11	-59.9		262	75	
2025-11-24T00:00	29700	10	-59.9		262	74	
2025-11-24T00:00	29750	10	-60.0		263	74	
2025-11-24T00:00	29800	10	-60.1		264	74	
2025-11-24T00:00	29850	10	-59.6		263	74	
2025-11-24T00:00	29900	10	-58.3		263	73	
2025-11-24T00:00	29950	10	-57.2		263	73	
2025-11-24T00:00	30000	10	-56.2		263	72	
2025-11-24T00:00	30050	10	-56.0		264	71	
2025-11-24T12:00	491	942	7.5	5.8	236	2	2.4
2025-11-24T12:00	501	941	7.3	5.8	224	3	2.5
2025-11-24T12:00	520	939	7.2	5.7	224	4	2.5
2025-11-24T12:00	540	937	7.1	5.5	225	4	2.5
2025-11-24T12:00	560	934	6.9	5.5	227	5	2.6
2025-11-24T12:00	580	932	6.7	5.4	228	6	2.6
2025-11-24T12:00	600	930	6.6	5.4	228	6	2.6
2025-11-24T12:00	620	928	6.4	5.4	227	7	2.6
2025-11-24T12:00	640	925	6.2	5.2	226	7	2.6
2025-11-24T12:00	660	923	6.1	5.1	224	8	2.7
2025-11-24T12:00	680	921	6.0	5.0	223	8	2.7
2025-11-24T12:00	700	919	5.9	4.9	222	9	2.7
2025-11-24T12:00	720	917	5.7	4.8	223	9	2.8
2025-11-24T12:00	740	914	5.6	4.9	224	10	2.8
2025-11-24T12:00	760	912	5.6	4.8	225	10	2.8
2025-11-24T12:00	780	910	5.4	4.8	227	10	2.8
2025-11-24T12:00	800	908	5.3	4.9	229	10	2.8
2025-11-24T12:00	820	906	5.2	4.9	231	11	2.9
2025-11-24T12:00	840	903	5.0	4.8	233	11	2.9
2025-11-24T12:00	860	901	5.1	4.8	234	11	2.9
2025-11-24T12:00	880	899	5.0	5.0	236	11	2.9
2025-11-24T12:00	900	897	4.9	4.8	237	11	2.9
2025-11-24T12:00	920	894	4.8	4.7	237	12	2.9
2025-11-24T12:00	940	892	4.6	4.6	236	12	2.9
2025-11-24T12:00	960	890	4.5	4.5	235	12	2.9
2025-11-24T12:00	980	888	4.4	4.4	234	12	2.9
2025-11-24T12:00	1000	886	4.3	4.3	233	12	2.9
2025-11-24T12:00	1020	884	4.1	4.1	231	13	2.9
2025-11-24T12:00	1040	881	4.0	4.0	229	14	2.9
2025-11-24T12:00	1060	879	3.9	3.9	227	14	3.0
2025-11-24T12:00	1080	877	3.8	3.8	226	15	3.0
2025-11-24T12:00	1100	875	3.7	3.7	226	16	3.0
2025-11-24T12:00	1120	873	3.6	3.6	226	17	3.0
2025-11-24T12:00	1140	871	3.6	3.5	226	17	3.0
2025-11-24T12:00	1160	869	3.5	3.3	227	18	3.0
2025-11-24T12:00	1180	866	3.4	3.2	228	19	3.0
2025-11-24T12:00	1200	864	3.3	3.1	229	19	3.0
2025-11-24T12:00	1220	862	3.2	3.0	229	19	3.0
2025-11-24T12:00	1240	860	3.0	2.9	229	20	3.0
2025-11-24T12:00	1260	858	2.9	2.8	229	20	3.1
2025-11-24T12:00	1280	856	2.7	2.7	229	20	3.0
2025-11-24T12:00	1300	854	2.6	2.6	228	20	3.0
2025-11-24T12:00	1320	852	2.5	2.5	228	21	3.0
2025-11-24T12:00	1340	850	2.3	2.3	227	21	3.0
2025-11-24T12:00	1360	847	2.2	2.2	227	22	3.1
2025-11-24T12:00	1380	845	2.1	2.1	227	22	3.1
2025-11-24T12:00	1400	843	2.0	2.0	227	22	3.0
2025-11-24T12:00	1420	841	1.9	1.9	227	22	3.0
2025-11-24T12:00	1440	839	1.7	1.7	227	22	3.1
2025-11-24T12:00	1460	837	1.6	1.6	227	22	3.1
2025-11-24T12:00	1480	835	1.5	1.5	226	22	3.0
2025-11-24T12:00	1500	833	1.4	1.4	226	22	3.0
2025-11-24T12:00	1520	831	1.2	1.2	226	23	3.0
2025-11-24T12:00	1540	829	1.1	1.1	225	23	3.0
2025-11-24T12:00	1560	827	1.0	1.0	225	23	3.0
2025-11-24T12:00	1580	825	0.9	0.9	225	23	3.0
2025-11-24T12:00	1600	823	0.8	0.8	225	23	3.0
2025-11-24T12:00	1620	820	0.6	0.6	226	23	3.0
2025-11-24T12:00	1640	818	0.5	0.5	227	23	3.0
2025-11-24T12:00	1660	816	0.4	0.4	227	23	3.0
2025-11-24T12:00	1680	814	0.3	0.3	229	24	3.0
2025-11-24T12:00	1700	812	0.2	0.2	229	24	3.0
2025-11-24T12:00	1720	810	0.0	0.0	230	25	3.0
2025-11-24T12:00	1740	808	-0.1	-0.1	230	25	3.0
2025-11-24T12:00	1760	806	-0.2	-0.2	230	26	3.0
2025-11-24T12:00	1780	804	-0.3	-0.3	230	26	3.0
2025-11-24T12:00	1800	802	-0.4	-0.4	230	26	3.0
2025-11-24T12:00	1820	800	-0.5	-0.5	229	26	3.0
2025-11-24T12:00	1840	798	-0.5	-0.5	229	26	3.0
2025-11-24T12:00	1860	796	-0.6	-0.6	229	26	3.0
2025-11-24T12:00	1880	794	-0.7	-0.7	229	26	3.0
2025-11-24T12:00	1900	792	-0.8	-0.8	229	26	3.0
2025-11-24T12:00	1920	790	-0.9	-0.9	229	26	2.9
2025-11-24T12:00	1940	788	-1.0	-1.0	229	26	2.9
2025-11-24T12:00	1960	786	-1.0	-1.0	230	26	2.9
2025-11-24T12:00	1980	784	-1.1	-1.1	230	26	2.9
2025-11-24T12:00	2000	782	-1.2	-1.2	230	26	2.9
2025-11-24T12:00	2020	780	-1.3	-1.3	231	26	2.9
2025-11-24T12:00	2040	778	-1.4	-1.4	231	26	2.9
2025-11-24T12:00	2060	777	-1.5	-1.5	231	26	2.9
2025-11-24T12:00	2080	775	-1.6	-1.6	231	26	2.9
2025-11-24T12:00	2100	773	-1.7	-1.7	231	26	2.8
2025-11-24T12:00	2120	771	-1.9	-1.9	231	26	2.8
2025-11-24T12:00	2140	769	-2.0	-2.0	231	26	2.8
2025-11-24T12:00	2160	767	-2.1	-2.1	231	26	2.8
2025-11-24T12:00	2180	765	-2.2	-2.2	231	25	2.8
2025-11-24T12:00	2200	763	-2.4	-2.4	232	25	2.8
2025-11-24T12:00	2220	761	-2.5	-2.5	232	25	2.8
2025-11-24T12:00	2240	759	-2.6	-2.6	233	25	2.8
2025-11-24T12:00	2260	757	-2.7	-2.7	234	24	2.8
2025-11-24T12:00	2280	755	-2.7	-2.7	234	24	2.7
2025-11-24T12:00	2300	753	-2.8	-2.8	235	24	2.7
2025-11-24T12:00	2320	751	-2.9	-2.9	235	23	2.7
2025-11-24T12:00	2340	750	-3.0	-3.0	235	23	2.7
2025-11-24T12:00	2360	748	-3.1	-3.1	235	23	2.7
2025-11-24T12:00	2380	746	-3.2	-3.2	235	23	2.7
2025-11-24T12:00	2400	744	-3.3	-3.3	235	23	2.7
2025-11-24T12:00	2420	742	-3.4	-3.4	234	22	2.7
2025-11-24T12:00	2440	740	-3.5	-3.5	234	22	2.7
2025-11-24T12:00	2460	738	-3.6	-3.6	234	22	2.7
2025-11-24T12:00	2480	737	-3.7	-3.7	234	22	2.7
2025-11-24T12:00	2500	735	-3.8	-3.8	234	21	2.7
2025-11-24T12:00	2520	733	-3.9	-3.9	235	21	2.8
2025-11-24T12:00	2540	731	-4.0	-4.0	236	21	2.8
2025-11-24T12:00	2560	729	-4.1	-4.1	237	21	2.8
2025-11-24T12:00	2580	727	-4.2	-4.2	238	21	2.8
2025-11-24T12:00	2600	725	-4.4	-4.4	239	21	2.8
2025-11-24T12:00	2620	724	-4.5	-4.6	239	21	2.8
2025-11-24T12:00	2640	722	-4.7	-4.8	239	21	2.8
2025-11-24T12:00	2660	720	-4.8	-4.8	239	21	2.8
2025-11-24T12:00	2680	718	-4.9	-4.9	239	21	2.8
2025-11-24T12:00	2700	716	-5.0	-5.0	239	21	2.8
2025-11-24T12:00	2720	714	-5.1	-5.2	240	21	2.8
2025-11-24T12:00	2740	713	-5.3	-5.3	241	21	2.8
2025-11-24T12:00	2760	711	-5.4	-5.4	241	21	2.8
2025-11-24T12:00	2780	709	-5.5	-5.6	240	21	2.8
2025-11-24T12:00	2800	707	-5.6	-5.7	239	22	2.8
2025-11-24T12:00	2820	705	-5.7	-5.8	239	22	2.8
2025-11-24T12:00	2840	704	-5.8	-6.0	239	23	2.8
2025-11-24T12:00	2860	702	-5.9	-6.0	239	23	2.8
2025-11-24T12:00	2880	700	-6.0	-6.1	241	23	2.8
2025-11-24T12:00	2900	698	-6.1	-6.2	242	23	2.8
2025-11-24T12:00	2920	697	-6.2	-6.4	244	23	2.8
2025-11-24T12:00	2940	695	-6.3	-6.5	245	22	2.7
2025-11-24T12:00	2960	693	-6.4	-6.7	246	22	2.8
2025-11-24T12:00	2980	691	-6.5	-6.8	247	21	2.8
2025-11-24T12:00	3000	689	-6.6	-6.9	247	21	2.7
2025-11-24T12:00	3020	688	-6.7	-7.1	247	21	2.8
2025-11-24T12:00	3040	686	-6.8	-7.3	248	22	2.8
2025-11-24T12:00	3060	684	-6.8	-7.5	248	22	2.7
2025-11-24T12:00	3080	682	-6.8	-7.5	249	23	2.7
2025-11-24T12:00	3100	681	-6.8	-7.4	249	23	2.7
2025-11-24T12:00	3120	679	-6.9	-7.6	249	24	2.7
2025-11-24T12:00	3140	677	-7.0	-7.7	249	25	2.7
2025-11-24T12:00	3160	675	-6.9	-7.8	249	25	2.7
2025-11-24T12:00	3180	674	-6.9	-7.8	248	26	2.8
2025-11-24T12:00	3200	672	-7.0	-8.0	248	26	2.8
2025-11-24T12:00	3220	670	-7.1	-8.0	248	26	2.8
2025-11-24T12:00	3240	669	-7.2	-8.1	247	26	2.8
2025-11-24T12:00	3260	667	-7.3	-8.2	246	26	2.8
2025-11-24T12:00	3280	665	-7.4	-8.3	246	26	2.8
2025-11-24T12:00	3300	663	-7.6	-8.5	247	26	2.8
2025-11-24T12:00	3320	662	-7.7	-8.6	248	26	2.8
2025-11-24T12:00	3340	660	-7.9	-8.6	249	26	2.8
2025-11-24T12:00	3360	658	-8.0	-8.7	250	25	2.8
2025-11-24T12:00	3380	657	-8.1	-8.9	251	25	2.8
2025-11-24T12:00	3400	655	-8.2	-9.1	252	25	2.8
2025-11-24T12:00	3420	653	-8.3	-9.2	253	24	2.8
2025-11-24T12:00	3440	652	-8.5	-9.4	253	24	2.8
2025-11-24T12:00	3460	650	-8.6	-9.5	254	24	2.8
2025-11-24T12:00	3480	648	-8.8	-9.6	254	24	2.8
2025-11-24T12:00	3500	647	-8.9	-9.8	254	24	2.8
2025-11-24T12:00	3520	645	-9.1	-9.9	254	24	2.8
2025-11-24T12:00	3540	643	-9.2	-10.0	254	24	2.8
2025-11-24T12:00	3560	642	-9.3	-10.1	253	23	2.8
2025-11-24T12:00	3580	640	-9.5	-10.1	253	23	2.8
2025-11-24T12:00	3600	638	-9.6	-10.3	253	23	2.8
2025-11-24T12:00	3620	637	-9.7	-10.5	254	24	2.8
2025-11-24T12:00	3640	635	-9.9	-10.5	254	24	2.8
2025-11-24T12:00	3660	633	-10.1	-10.6	255	25	2.8
2025-11-24T12:00	3680	632	-10.2	-10.6	255	25	2.8
2025-11-24T12:00	3700	630	-10.3	-10.8	256	25	2.8
2025-11-24T12:00	3720	628	-10.5	-10.9	256	25	2.8
2025-11-24T12:00	3740	627	-10.6	-11.1	257	26	2.8
2025-11-24T12:00	3760	625	-10.8	-11.3	257	25	2.8
2025-11-24T12:00	3780	624	-10.9	-11.3	257	25	2.7
2025-11-24T12:00	3800	622	-11.1	-11.4	258	25	2.7
2025-11-24T12:00	3820	620	-11.2	-11.6	258	25	2.7
2025-11-24T12:00	3840	619	-11.3	-11.7	258	25	2.7
2025-11-24T12:00	3860	617	-11.4	-11.9	257	24	2.7
2025-11-24T12:00	3880	615	-11.5	-11.9	256	25	2.7
2025-11-24T12:00	3900	614	-11.7	-12.1	255	25	2.7
2025-11-24T12:00	3920	612	-11.8	-12.3	254	25	2.7
2025-11-24T12:00	3940	611	-11.9	-12.5	253	25	2.7
2025-11-24T12:00	3960	609	-12.0	-12.6	252	25	2.7
2025-11-24T12:00	3980	607	-12.2	-12.9	251	25	2.7
2025-11-24T12:00	4000	606	-12.3	-13.0	251	25	2.7
2025-11-24T12:00	4020	604	-12.4	-13.3	251	25	2.7
2025-11-24T12:00	4040	603	-12.5	-13.4	250	24	2.8
2025-11-24T12:00	4060	601	-12.6	-13.5	250	24	2.7
2025-11-24T12:00	4080	600	-12.8	-13.6	250	24	2.7
2025-11-24T12:00	4100	598	-13.0	-13.8	250	25	2.7
2025-11-24T12:00	4120	596	-13.1	-13.9	250	25	2.7
2025-11-24T12:00	4140	595	-13.2	-14.0	251	25	2.7
2025-11-24T12:00	4160	593	-13.3	-14.1	251	25	2.7
2025-11-24T12:00	4180	592	-13.5	-14.2	252	24	2.7
2025-11-24T12:00	4200	590	-13.7	-14.4	253	24	2.7
2025-11-24T12:00	4220	589	-13.8	-14.6	253	23	2.7
2025-11-24T12:00	4240	587	-13.9	-14.7	254	23	2.7
2025-11-24T12:00	4260	585	-14.0	-14.8	255	23	2.7
2025-11-24T12:00	4280	584	-14.1	-14.9	255	23	2.7
2025-11-24T12:00	4300	582	-14.3	-15.1	255	24	2.7
2025-11-24T12:00	4320	581	-14.4	-15.2	255	24	2.7
2025-11-24T12:00	4340	579	-14.6	-15.4	254	25	2.6
2025-11-24T12:00	4360	578	-14.7	-15.5	254	25	2.6
2025-11-24T12:00	4380	576	-14.9	-15.7	253	25	2.6
2025-11-24T12:00	4400	575	-15.0	-15.8	253	25	2.6
2025-11-24T12:00	4420	573	-15.1	-15.9	253	25	2.6
2025-11-24T12:00	4440	572	-15.3	-16.1	253	25	2.6
2025-11-24T12:00	4460	570	-15.4	-16.3	254	24	2.6
2025-11-24T12:00	4480	569	-15.6	-16.4	254	24	2.6
2025-11-24T12:00	4500	567	-15.7	-16.7	254	23	2.6
2025-11-24T12:00	4520	566	-15.8	-16.8	254	23	2.6
2025-11-24T12:00	4540	564	-16.0	-17.1	254	24	2.6
2025-11-24T12:00	4560	563	-16.1	-17.2	254	24	2.6
2025-11-24T12:00	4580	561	-16.3	-17.4	255	25	2.6
2025-11-24T12:00	4600	560	-16.4	-17.6	255	25	2.6
2025-11-24T12:00	4620	558	-16.5	-17.5	255	25	2.6
2025-11-24T12:00	4640	557	-16.6	-17.7	255	25	2.6
2025-11-24T12:00	4660	555	-16.9	-17.8	255	25	2.6
2025-11-24T12:00	4680	554	-17.0	-18.1	254	25	2.5
2025-11-24T12:00	4700	553	-17.1	-18.2	253	25	2.5
2025-11-24T12:00	4720	551	-17.3	-18.1	252	25	2.5
2025-11-24T12:00	4740	549	-17.5	-18.3	252	25	2.5
2025-11-24T12:00	4760	548	-17.6	-18.6	251	25	2.5
2025-11-24T12:00	4780	546	-17.7	-18.6	251	25	2.5
2025-11-24T12:00	4800	545	-17.8	-18.7	251	25	2.5
2025-11-24T12:00	4820	544	-17.9	-19.0	251	25	2.5
2025-11-24T12:00	4840	542	-18.1	-19.1	251	25	2.5
2025-11-24T12:00	4860	541	-18.3	-19.3	252	24	2.5
2025-11-24T12:00	4880	539	-18.5	-19.8	252	24	2.5
2025-11-24T12:00	4900	538	-18.6	-20.1	252	24	2.5
2025-11-24T12:00	4920	536	-18.7	-20.1	252	24	2.5
2025-11-24T12:00	4940	535	-18.8	-20.3	252	24	2.5
2025-11-24T12:00	4960	534	-19.0	-20.5	251	24	2.5
2025-11-24T12:00	4980	532	-19.2	-20.7	251	24	2.4
2025-11-24T12:00	5000	531	-19.3	-20.8	250	24	2.4
2025-11-24T12:00	5020	529	-19.5	-20.8	249	24	2.4
2025-11-24T12:00	5040	528	-19.6	-21.0	249	24	2.5
2025-11-24T12:00	5060	526	-19.8	-21.0	248	24	2.5
2025-11-24T12:00	5080	525	-20.0	-21.3	248	24	2.5
2025-11-24T12:00	5100	524	-20.1	-21.7	247	24	2.5
2025-11-24T12:00	5120	522	-20.2	-21.6	247	23	2.5
2025-11-24T12:00	5140	521	-20.5	-21.8	247	23	2.5
2025-11-24T12:00	5160	519	-20.6	-22.1	247	23	2.4
2025-11-24T12:00	5180	518	-20.8	-22.3	247	23	2.4
2025-11-24T12:00	5200	516	-20.9	-22.3	247	23	2.5
2025-11-24T12:00	5220	515	-21.0	-22.5	247	23	2.5
2025-11-24T12:00	5240	514	-21.2	-22.8	247	23	2.4
2025-11-24T12:00	5260	512	-21.3	-22.7	246	23	2.4
2025-11-24T12:00	5280	511	-21.5	-22.8	246	23	2.4
2025-11-24T12:00	5300	510	-21.6	-23.0	246	23	2.4
2025-11-24T12:00	5320	508	-21.7	-23.2	246	23	2.4
2025-11-24T12:00	5340	507	-21.9	-23.3	246	23	2.4
2025-11-24T12:00	5360	505	-22.0	-23.3	246	24	2.4
2025-11-24T12:00	5380	504	-22.1	-23.6	246	24	2.4
2025-11-24T12:00	5400	503	-22.3	-23.7	247	24	2.3
2025-11-24T12:00	5420	501	-22.5	-23.7	247	24	2.3
2025-11-24T12:00	5440	500	-22.6	-23.8	247	24	2.3
2025-11-24T12:00	5460	499	-22.7	-24.0	247	25	2.3
2025-11-24T12:00	5480	497	-22.8	-24.2	247	25	2.3
2025-11-24T12:00	5500	496	-23.0	-24.3	247	25	2.3
2025-11-24T12:00	5520	494	-23.2	-24.4	247	25	2.3
2025-11-24T12:00	5540	493	-23.4	-24.6	247	25	2.3
2025-11-24T12:00	5560	492	-23.6	-24.7	247	25	2.3
2025-11-24T12:00	5580	490	-23.7	-25.0	248	25	2.3
2025-11-24T12:00	5600	489	-23.9	-25.1	248	25	2.3
2025-11-24T12:00	5620	488	-24.0	-25.1	248	25	2.3
2025-11-24T12:00	5640	486	-24.2	-25.2	249	25	2.2
2025-11-24T12:00	5660	485	-24.4	-25.2	250	25	2.2
2025-11-24T12:00	5680	484	-24.5	-25.2	250	25	2.2
2025-11-24T12:00	5700	483	-24.6	-25.3	250	25	2.2
2025-11-24T12:00	5720	481	-24.8	-25.6	250	25	2.2
2025-11-24T12:00	5740	480	-25.0	-25.9	250	25	2.2
2025-11-24T12:00	5760	478	-25.2	-26.0	250	25	2.2
2025-11-24T12:00	5780	477	-25.3	-26.2	250	25	2.2
2025-11-24T12:00	5800	476	-25.5	-26.3	249	26	2.2
2025-11-24T12:00	5820	475	-25.7	-26.3	249	26	2.2
2025-11-24T12:00	5840	473	-25.8	-26.3	248	26	2.2
2025-11-24T12:00	5860	472	-26.0	-26.8	248	26	2.1
2025-11-24T12:00	5880	471	-26.0	-27.0	248	26	2.1
2025-11-24T12:00	5900	469	-26.0	-27.1	248	27	2.1
2025-11-24T12:00	5920	468	-26.2	-27.1	248	27	2.2
2025-11-24T12:00	5940	467	-26.3	-27.4	248	27	2.2
2025-11-24T12:00	5960	466	-26.3	-27.7	248	27	2.2
2025-11-24T12:00	5980	464	-26.5	-27.9	248	27	2.2
2025-11-24T12:00	6000	463	-26.7	-28.2	249	27	2.2
2025-11-24T12:00	6020	462	-26.8	-28.5	249	28	2.2
2025-11-24T12:00	6040	460	-26.9	-28.7	249	28	2.1
2025-11-24T12:00	6060	459	-27.1	-29.1	249	28	2.1
2025-11-24T12:00	6080	458	-27.2	-29.7	249	28	2.1
2025-11-24T12:00	6100	456	-27.4	-30.0	250	28	2.1
2025-11-24T12:00	6120	455	-27.6	-30.0	250	28	2.1
2025-11-24T12:00	6140	454	-27.8	-30.5	250	28	2.1
2025-11-24T12:00	6160	453	-28.0	-31.4	251	28	2.1
2025-11-24T12:00	6180	451	-28.2	-31.3	251	28	2.1
2025-11-24T12:00	6200	450	-28.4	-31.6	251	28	2.1
2025-11-24T12:00	6220	449	-28.5	-31.6	251	28	2.1
2025-11-24T12:00	6240	448	-28.6	-31.8	252	28	2.1
2025-11-24T12:00	6260	446	-28.8	-32.2	252	28	2.1
2025-11-24T12:00	6280	445	-29.1	-32.5	252	28	2.1
2025-11-24T12:00	6300	444	-29.2	-32.7	252	28	2.1
2025-11-24T12:00	6320	443	-29.4	-32.8	252	28	2.1
2025-11-24T12:00	6340	442	-29.6	-32.8	252	28	2.1
2025-11-24T12:00	6360	440	-29.7	-33.0	252	28	2.1
2025-11-24T12:00	6380	439	-29.9	-33.2	252	28	2.1
2025-11-24T12:00	6400	438	-30.0	-33.2	252	28	2.1
2025-11-24T12:00	6420	437	-30.3	-33.2	252	28	2.1
2025-11-24T12:00	6440	435	-30.5	-33.2	252	28	2.1
2025-11-24T12:00	6460	434	-30.6	-33.5	252	28	2.1
2025-11-24T12:00	6480	433	-30.8	-33.9	252	28	2.1
2025-11-24T12:00	6500	432	-31.0	-34.0	252	28	2.0
2025-11-24T12:00	6520	430	-31.1	-34.0	251	28	2.0
2025-11-24T12:00	6540	429	-31.2	-34.4	251	28	2.0
2025-11-24T12:00	6560	428	-31.4	-34.6	251	28	2.0
2025-11-24T12:00	6580	427	-31.6	-34.7	251	28	2.0
2025-11-24T12:00	6600	426	-31.7	-34.8	251	28	2.0
2025-11-24T12:00	6620	424	-31.9	-34.7	251	28	2.0
2025-11-24T12:00	6640	423	-32.1	-34.6	251	28	2.0
2025-11-24T12:00	6660	422	-32.3	-34.7	251	28	2.0
2025-11-24T12:00	6680	421	-32.5	-35.1	250	28	2.0
2025-11-24T12:00	6700	420	-32.6	-36.1	250	28	2.0
2025-11-24T12:00	6720	419	-32.7	-36.3	250	28	2.0
2025-11-24T12:00	6740	417	-32.9	-36.3	250	28	2.0
2025-11-24T12:00	6760	416	-33.1	-36.3	250	28	2.0
2025-11-24T12:00	6780	415	-33.3	-36.4	249	28	2.0
2025-11-24T12:00	6800	414	-33.5	-36.7	249	28	2.0
2025-11-24T12:00	6820	412	-33.6	-36.9	249	28	2.0
2025-11-24T12:00	6840	411	-33.8	-37.0	249	28	2.0
2025-11-24T12:00	6860	410	-34.0	-36.5	249	28	2.0
2025-11-24T12:00	6880	409	-34.1	-36.7	249	28	2.0
2025-11-24T12:00	6900	408	-34.3	-36.9	249	28	2.1
2025-11-24T12:00	6920	407	-34.5	-37.2	249	28	2.0
2025-11-24T12:00	6940	405	-34.6	-37.1	249	28	2.0
2025-11-24T12:00	6960	404	-34.8	-37.1	249	28	2.0
2025-11-24T12:00	6980	403	-35.0	-37.2	250	28	2.0
2025-11-24T12:00	7000	402	-35.2	-37.8	250	28	2.0
2025-11-24T12:00	7020	401	-35.4	-38.3	251	28	1.9
2025-11-24T12:00	7040	400	-35.5	-38.4	251	28	1.9
2025-11-24T12:00	7060	399	-35.7	-39.0	252	29	1.9
2025-11-24T12:00	7080	397	-35.9	-38.7	252	29	1.9
2025-11-24T12:00	7100	396	-36.0	-39.3	253	29	1.9
2025-11-24T12:00	7120	395	-36.2	-40.0	253	29	1.9
2025-11-24T12:00	7140	394	-36.5	-40.1	253	30	1.9
2025-11-24T12:00	7160	393	-36.7	-40.1	253	30	1.9
2025-11-24T12:00	7180	392	-36.9	-40.5	253	30	1.9
2025-11-24T12:00	7200	391	-37.1	-40.9	253	31	1.9
2025-11-24T12:00	7220	390	-37.2	-40.8	253	31	1.9
2025-11-24T12:00	7240	388	-37.4	-40.9	252	31	1.9
2025-11-24T12:00	7260	387	-37.6	-41.2	252	31	1.9
2025-11-24T12:00	7280	386	-37.9	-41.3	253	31	1.9
2025-11-24T12:00	7300	385	-38.0	-41.1	253	31	1.9
2025-11-24T12:00	7320	384	-38.2	-41.3	253	31	1.9
2025-11-24T12:00	7340	383	-38.4	-41.5	254	32	1.9
2025-11-24T12:00	7360	382	-38.6	-41.5	254	32	1.9
2025-11-24T12:00	7380	380	-38.7	-41.4	255	32	2.0
2025-11-24T12:00	7400	379	-39.0	-41.4	255	32	2.0
2025-11-24T12:00	7420	378	-39.1	-41.5	255	32	2.0
2025-11-24T12:00	7440	377	-39.3	-42.0	255	32	2.0
2025-11-24T12:00	7460	376	-39.3	-43.6	255	32	1.9
2025-11-24T12:00	7480	375	-39.3	-45.4	256	32	1.9
2025-11-24T12:00	7500	374	-39.3	-46.8	256	32	2.0
2025-11-24T12:00	7520	373	-39.4	-47.5	255	32	2.0
2025-11-24T12:00	7540	372	-39.5	-49.4	255	32	2.0
2025-11-24T12:00	7560	371	-39.6	-49.7	255	32	2.0
2025-11-24T12:00	7580	370	-39.6	-51.5	255	33	2.0
2025-11-24T12:00	7600	368	-39.6	-53.3	256	33	2.1
2025-11-24T12:00	7620	367	-39.7	-52.9	256	33	2.1
2025-11-24T12:00	7640	366	-39.9	-53.1	257	33	2.1
2025-11-24T12:00	7660	365	-40.0	-52.9	257	34	2.1
2025-11-24T12:00	7680	364	-40.1	-52.8	258	34	2.1
2025-11-24T12:00	7700	363	-40.2	-52.9	258	34	2.1
2025-11-24T12:00	7720	362	-40.3	-52.6	259	34	2.1
2025-11-24T12:00	7740	361	-40.5	-52.4	259	34	2.1
2025-11-24T12:00	7760	360	-40.7	-52.8	259	34	2.0
2025-11-24T12:00	7780	359	-40.9	-52.7	259	34	2.0
2025-11-24T12:00	7800	358	-41.1	-52.6	259	34	2.0
2025-11-24T12:00	7820	357	-41.2	-52.7	259	34	2.0
2025-11-24T12:00	7840	356	-41.4	-52.4	259	34	2.0
2025-11-24T12:00	7860	355	-41.6	-52.7	259	34	2.0
2025-11-24T12:00	7880	354	-41.8	-52.9	259	34	2.0
2025-11-24T12:00	7900	352	-42.0	-52.6	259	34	2.0
2025-11-24T12:00	7920	351	-42.2	-52.2	259	34	2.0
2025-11-24T12:00	7940	350	-42.3	-52.3	259	34	2.0
2025-11-24T12:00	7960	350	-42.6	-52.1	259	34	1.9
2025-11-24T12:00	7980	348	-42.7	-51.7	259	34	1.9
2025-11-24T12:00	8000	347	-42.8	-51.7	259	34	1.9
2025-11-24T12:00	8020	346	-43.0	-51.7	259	34	1.9
2025-11-24T12:00	8040	345	-43.3	-51.7	259	34	2.0
2025-11-24T12:00	8060	344	-43.5	-51.8	259	34	1.9
2025-11-24T12:00	8080	343	-43.7	-51.9	259	35	1.9
2025-11-24T12:00	8100	342	-43.8	-51.9	259	35	1.9
2025-11-24T12:00	8120	341	-44.0	-51.9	259	35	1.9
2025-11-24T12:00	8140	340	-44.2	-51.7	260	35	1.9
2025-11-24T12:00	8160	339	-44.4	-51.9	260	35	1.9
2025-11-24T12:00	8180	338	-44.6	-51.9	260	35	1.9
2025-11-24T12:00	8200	337	-44.9	-51.6	261	35	1.9
2025-11-24T12:00	8220	336	-45.1	-51.2	261	35	1.9
2025-11-24T12:00	8240	335	-45.2	-50.8	261	34	1.9
2025-11-24T12:00	8260	334	-45.3	-49.8	261	34	1.9
2025-11-24T12:00	8280	333	-45.4	-48.6	261	34	1.9
2025-11-24T12:00	8300	332	-45.6	-48.8	261	34	1.9
2025-11-24T12:00	8320	331	-45.8	-49.2	261	34	1.8
2025-11-24T12:00	8340	330	-46.0	-49.5	261	34	1.8
2025-11-24T12:00	8360	329	-46.2	-49.8	261	34	1.8
2025-11-24T12:00	8380	328	-46.3	-50.1	261	34	1.8
2025-11-24T12:00	8400	327	-46.5	-50.4	260	34	1.8
2025-11-24T12:00	8420	326	-46.7	-50.5	260	34	1.7
2025-11-24T12:00	8440	325	-46.9	-50.4	260	33	1.7
2025-11-24T12:00	8460	324	-47.1	-50.3	260	33	1.7
2025-11-24T12:00	8480	323	-47.3	-50.5	260	33	1.7
2025-11-24T12:00	8500	322	-47.5	-50.6	259	33	1.7
2025-11-24T12:00	8520	322	-47.6	-50.7	259	33	1.7
2025-11-24T12:00	8540	320	-47.9	-51.0	259	33	1.7
2025-11-24T12:00	8560	319	-48.1	-51.4	259	33	1.7
2025-11-24T12:00	8580	318	-48.3	-51.8	259	33	1.7
2025-11-24T12:00	8600	317	-48.4	-51.7	259	33	1.6
2025-11-24T12:00	8620	317	-48.7	-51.7	259	33	1.6
2025-11-24T12:00	8640	316	-48.8	-51.8	260	33	1.6
2025-11-24T12:00	8660	315	-49.0	-52.1	260	33	1.6
2025-11-24T12:00	8680	314	-49.2	-52.6	260	33	1.6
2025-11-24T12:00	8700	313	-49.2	-52.9	260	34	1.6
2025-11-24T12:00	8720	312	-49.4	-53.3	261	34	1.6
2025-11-24T12:00	8740	311	-49.4	-53.4	261	34	1.6
2025-11-24T12:00	8760	310	-49.6	-53.4	261	34	1.7
2025-11-24T12:00	8780	309	-49.8	-53.3	262	34	1.7
2025-11-24T12:00	8800	308	-49.9	-53.2	262	34	1.7
2025-11-24T12:00	8820	307	-50.1	-53.3	263	34	1.7
2025-11-24T12:00	8840	306	-50.2	-53.5	264	34	1.7
2025-11-24T12:00	8860	305	-50.4	-53.9	264	35	1.8
2025-11-24T12:00	8880	304	-50.4	-54.2	265	35	1.8
2025-11-24T12:00	8900	303	-50.6	-54.4	265	35	1.7
2025-11-24T12:00	8920	302	-50.8	-54.5	266	35	1.7
2025-11-24T12:00	8940	301	-50.9	-54.5	266	35	1.7
2025-11-24T12:00	8960	300	-51.0	-54.6	267	36	1.7
2025-11-24T12:00	8980	300	-51.1	-54.6	267	36	1.7
2025-11-24T12:00	9000	299	-51.3	-54.8	267	36	1.7
2025-11-24T12:00	9020	298	-51.4	-54.9	267	37	1.6
2025-11-24T12:00	9040	297	-51.5	-55.3	267	37	1.6
2025-11-24T12:00	9060	296	-51.7	-55.6	267	37	1.6
2025-11-24T12:00	9080	295	-51.9	-56.0	267	37	1.6
2025-11-24T12:00	9100	294	-52.1	-56.4	267	37	1.6
2025-11-24T12:00	9120	293	-52.3	-56.8	267	37	1.6
2025-11-24T12:00	9140	292	-52.4	-57.0	267	38	1.5
2025-11-24T12:00	9160	291	-52.5	-57.1	267	38	1.5
2025-11-24T12:00	9180	290	-52.6	-57.1	267	38	1.5
2025-11-24T12:00	9200	290	-52.8	-57.3	267	38	1.5
2025-11-24T12:00	9220	289	-52.9	-57.4	268	39	1.5
2025-11-24T12:00	9240	288	-53.0	-57.5	268	39	1.5
2025-11-24T12:00	9260	287	-53.2	-57.7	268	39	1.5
2025-11-24T12:00	9280	286	-53.4	-58.0	268	40	1.5
2025-11-24T12:00	9300	285	-53.6	-58.2	268	40	1.5
2025-11-24T12:00	9320	284	-53.8	-58.5	268	40	1.5
2025-11-24T12:00	9340	283	-53.9	-58.9	268	40	1.4
2025-11-24T12:00	9360	283	-54.1	-59.3	269	40	1.4
2025-11-24T12:00	9380	282	-54.2	-59.5	269	41	1.4
2025-11-24T12:00	9400	281	-54.3	-59.6	269	41	1.4
2025-11-24T12:00	9420	280	-54.5	-59.6	270	41	1.4
2025-11-24T12:00	9440	279	-54.7	-59.8	270	41	1.4
2025-11-24T12:00	9460	278	-54.8	-60.1	270	41	1.4
2025-11-24T12:00	9480	277	-55.0	-60.8	270	41	1.4
2025-11-24T12:00	9500	276	-55.2	-61.6	270	41	1.4
2025-11-24T12:00	9520	275	-55.3	-61.8	271	40	1.4
2025-11-24T12:00	9540	275	-55.4	-61.6	271	40	1.4
2025-11-24T12:00	9560	274	-55.4	-61.2	271	40	1.4
2025-11-24T12:00	9580	273	-55.5	-61.2	271	40	1.5
2025-11-24T12:00	9600	272	-55.7	-61.2	271	40	1.5
2025-11-24T12:00	9620	271	-55.8	-61.1	271	40	1.5
2025-11-24T12:00	9640	270	-56.0	-61.2	271	40	1.5
2025-11-24T12:00	9660	270	-56.2	-61.4	271	40	1.5
2025-11-24T12:00	9680	269	-56.3	-61.6	271	40	1.5
2025-11-24T12:00	9700	268	-56.6	-61.8	271	40	1.5
2025-11-24T12:00	9720	267	-56.8	-61.9	271	40	1.6
2025-11-24T12:00	9740	266	-57.0	-61.9	271	39	1.6
2025-11-24T12:00	9760	265	-57.1	-62.2	271	39	1.6
2025-11-24T12:00	9780	264	-57.2	-62.7	271	39	1.6
2025-11-24T12:00	9800	264	-57.3	-63.4	271	39	1.6
2025-11-24T12:00	9820	263	-57.4	-64.4	271	38	1.6
2025-11-24T12:00	9840	262	-57.4	-65.1	271	38	1.6
2025-11-24T12:00	9860	261	-57.6	-65.6	270	37	1.6
2025-11-24T12:00	9880	260	-57.7	-65.3	270	37	1.6
2025-11-24T12:00	9900	259	-57.9	-65.0	269	36	1.6
2025-11-24T12:00	9920	259	-58.1	-64.7	269	36	1.7
2025-11-24T12:00	9940	258	-58.1	-64.3	268	35	1.7
2025-11-24T12:00	9960	257	-58.2	-63.9	268	35	1.7
2025-11-24T12:00	9980	256	-58.4	-63.7	267	34	1.7
2025-11-24T12:00	10000	255	-58.6	-63.5	267	34	1.8
2025-11-24T12:00	10018	255	-58.7	-63.3	267	34	1.8
2025-11-24T12:00	10050	253	-58.9	-63.0	266	34	1.8
2025-11-24T12:00	10100	251	-59.3	-62.7	265	34	1.9
2025-11-24T12:00	10150	249	-59.7	-63.3	264	34	1.9
2025-11-24T12:00	10200	247	-60.1	-63.9	264	34	1.9
2025-11-24T12:00	10250	245	-60.3	-64.5	263	34	1.9
2025-11-24T12:00	10300	243	-60.4	-65.1	262	33	2.0
2025-11-24T12:00	10350	241	-60.7	-64.9	262	32	2.0
2025-11-24T12:00	10400	239	-61.0	-64.5	262	32	2.1
2025-11-24T12:00	10450	238	-61.0	-64.7	261	32	2.1
2025-11-24T12:00	10500	236	-61.1	-66.9	260	32	2.2
2025-11-24T12:00	10550	234	-60.9	-69.2	259	32	2.3
2025-11-24T12:00	10600	232	-60.8	-71.1	257	31	2.4
2025-11-24T12:00	10650	230	-60.9	-71.8	255	30	2.5
2025-11-24T12:00	10700	228	-61.2	-71.9	252	31	2.6
2025-11-24T12:00	10750	226	-61.5	-72.4	250	31	2.7
2025-11-24T12:00	10800	224	-61.8	-72.5	249	32	2.8
2025-11-24T12:00	10850	223	-61.9	-72.6	248	33	2.8
2025-11-24T12:00	10900	221	-62.3	-73.0	249	34	2.9
2025-11-24T12:00	10950	219	-62.5	-73.2	250	35	2.9
2025-11-24T12:00	11000	217	-62.6	-73.7	250	35	2.9
2025-11-24T12:00	11050	216	-62.1	-73.9	252	35	3.0
2025-11-24T12:00	11100	214	-61.9	-74.3	253	34	3.2
2025-11-24T12:00	11150	212	-61.6	-74.4	254	33	3.5
2025-11-24T12:00	11200	210	-61.1	-75.0	254	33	3.6
2025-11-24T12:00	11250	209	-60.3	-75.4	254	34	3.8
2025-11-24T12:00	11300	207	-60.2	-76.0	255	36	3.9
2025-11-24T12:00	11350	206	-60.1	-76.2	256	38	4.0
2025-11-24T12:00	11400	204	-59.4	-76.5	258	39	4.0
2025-11-24T12:00	11450	202	-58.8	-76.7	261	38	4.1
2025-11-24T12:00	11500	201	-58.4	-76.5	264	36	4.1
2025-11-24T12:00	11550	199	-58.3	-76.6	267	34	4.0
2025-11-24T12:00	11600	197	-57.8	-78.0	266	32	4.0
2025-11-24T12:00	11650	196	-57.6	-79.6	265	31	4.4
2025-11-24T12:00	11700	194	-57.3	-80.1	265	31	5.0
2025-11-24T12:00	11750	193	-56.7	-80.0	264	30	5.2
2025-11-24T12:00	11800	191	-56.1	-80.0	264	29	5.3
2025-11-24T12:00	11850	190	-55.9	-79.7	265	28	5.1
2025-11-24T12:00	11900	188	-55.9	-79.8	265	27	4.9
2025-11-24T12:00	11950	187	-55.7	-80.2	265	26	4.8
2025-11-24T12:00	12000	185	-55.6	-80.2	263	24	5.1
2025-11-24T12:00	12050	184	-55.7	-80.2	263	23	5.3
2025-11-24T12:00	12100	183	-55.9	-80.4	262	23	5.5
2025-11-24T12:00	12150	181	-55.8	-80.6	261	22	5.6
2025-11-24T12:00	12200	180	-56.1	-80.5	259	22	5.6
2025-11-24T12:00	12250	178	-56.2	-79.7	257	22	5.7
2025-11-24T12:00	12300	177	-56.5	-79.3	256	21	5.7
2025-11-24T12:00	12350	175	-56.7	-80.2	257	20	5.7
2025-11-24T12:00	12400	174	-56.8	-80.8	257	18	5.6
2025-11-24T12:00	12450	173	-57.0	-80.7	258	18	5.5
2025-11-24T12:00	12500	171	-57.4	-80.8	258	17	5.4
2025-11-24T12:00	12550	170	-57.7	-80.8	257	17	5.4
2025-11-24T12:00	12600	169	-57.9	-80.9	256	17	5.4
2025-11-24T12:00	12650	167	-58.2	-81.0	254	17	5.4
2025-11-24T12:00	12700	166	-58.5	-81.1	252	17	5.5
2025-11-24T12:00	12750	165	-58.8	-80.5	250	17	5.5
2025-11-24T12:00	12800	163	-59.2	-80.5	249	18	5.5
2025-11-24T12:00	12850	162	-59.3	-81.4	248	19	5.5
2025-11-24T12:00	12900	161	-59.8	-81.8	248	19	5.5
2025-11-24T12:00	12950	159	-60.0	-81.0	248	20	5.5
2025-11-24T12:00	13000	158	-60.2	-80.7	249	20	5.5
2025-11-24T12:00	13050	157	-60.3	-81.1	250	20	5.5
2025-11-24T12:00	13100	156	-60.3	-81.9	251	20	5.5
2025-11-24T12:00	13150	154	-60.3	-82.1	253	21	5.7
2025-11-24T12:00	13200	153	-60.6	-82.3	255	22	5.8
2025-11-24T12:00	13250	152	-60.8	-82.5	256	24	5.8
2025-11-24T12:00	13300	151	-60.7	-82.5	257	25	6.0
2025-11-24T12:00	13350	150	-60.9	-82.6	257	24	6.2
2025-11-24T12:00	13400	148	-61.0	-82.5	256	23	6.3
2025-11-24T12:00	13450	147	-60.9	-82.4	256	21	6.4
2025-11-24T12:00	13500	146	-60.9	-82.4	259	22	6.2
2025-11-24T12:00	13550	145	-60.8	-82.7	264	23	6.0
2025-11-24T12:00	13600	144	-60.7	-82.8	266	24	5.8
2025-11-24T12:00	13650	142	-60.5	-82.3	264	23	5.4
2025-11-24T12:00	13700	141	-60.5	-81.5	262	23	4.9
2025-11-24T12:00	13750	140	-60.3	-82.1	263	23	4.5
2025-11-24T12:00	13800	139	-60.0	-82.7	263	23	4.2
2025-11-24T12:00	13850	138	-60.1	-83.0	261	22	4.0
2025-11-24T12:00	13900	137	-60.2	-83.0	258	22	3.8
2025-11-24T12:00	13950	136	-60.5	-83.0	257	22	3.7
2025-11-24T12:00	14000	135	-60.9	-82.7	256	22	3.6
2025-11-24T12:00	14050	134	-61.4	-81.8	254	22	3.5
2025-11-24T12:00	14100	133	-61.8	-81.2	251	23	3.5
2025-11-24T12:00	14150	131	-62.1	-81.6	248	23	3.4
2025-11-24T12:00	14200	130	-62.2	-82.6	246	23	3.4
2025-11-24T12:00	14250	129	-62.5	-83.1	246	24	3.3
2025-11-24T12:00	14300	128	-62.9	-83.1	246	24	3.3
2025-11-24T12:00	14350	127	-62.6	-83.4	249	24	3.1
2025-11-24T12:00	14400	126	-62.5	-83.7	253	24	3.0
2025-11-24T12:00	14450	125	-62.5	-83.8	255	24	3.1
2025-11-24T12:00	14500	124	-62.8	-83.8	256	25	3.1
2025-11-24T12:00	14550	123	-63.0	-83.9	258	25	3.2
2025-11-24T12:00	14600	122	-63.2	-84.2	260	25	3.2
2025-11-24T12:00	14650	121	-62.8	-83.9	262	25	3.3
2025-11-24T12:00	14700	120	-62.3	-83.3	261	25	4.2
2025-11-24T12:00	14750	119	-62.5	-83.0	260	26	4.8
2025-11-24T12:00	14800	118	-62.5	-83.4	261	26	5.3
2025-11-24T12:00	14850	117	-62.2	-84.0	263	25	6.0
2025-11-24T12:00	14900	116	-62.4	-84.5	265	25	6.6
2025-11-24T12:00	14950	116	-62.4	-84.3	266	25	6.8
2025-11-24T12:00	15000	115	-62.6	-84.3	266	26	6.8
2025-11-24T12:00	15050	114	-63.0	-84.3	266	26	6.7
2025-11-24T12:00	15100	113	-63.2	-84.2	266	25	6.7
2025-11-24T12:00	15150	112	-63.2	-83.8	268	24	6.7
2025-11-24T12:00	15200	111	-63.6	-83.9	272	24	6.4
2025-11-24T12:00	15250	110	-63.6	-84.2	274	24	6.1
2025-11-24T12:00	15300	109	-63.5	-84.6	274	25	5.8
2025-11-24T12:00	15350	108	-63.3	-84.5	274	25	5.8
2025-11-24T12:00	15400	107	-63.4	-84.5	273	25	5.8
2025-11-24T12:00	15450	106	-63.3	-84.4	272	25	5.8
2025-11-24T12:00	15500	106	-63.1	-84.1	271	26	5.9
2025-11-24T12:00	15550	105	-63.0	-84.2	273	27	6.0
2025-11-24T12:00	15600	104	-63.1	-84.5	276	29	6.0
2025-11-24T12:00	15650	103	-63.0	-84.6	278	30	6.0
2025-11-24T12:00	15700	102	-63.3	-84.8	281	30	6.1
2025-11-24T12:00	15750	101	-63.5	-84.9	283	29	6.0
2025-11-24T12:00	15800	101	-63.7	-84.7	284	27	6.0
2025-11-24T12:00	15850	100	-63.9	-84.3	283	26	5.9
2025-11-24T12:00	15900	99	-64.3	-83.6	283	25	5.9
2025-11-24T12:00	15950	98	-64.3	-83.1	282	25	6.0
2025-11-24T12:00	16000	97	-64.3	-83.5	281	26	6.2
2025-11-24T12:00	16050	97	-64.3	-84.5	281	27	6.3
2025-11-24T12:00	16100	96	-64.3	-85.1	281	27	6.4
2025-11-24T12:00	16150	95	-64.3	-85.5	282	27	6.4
2025-11-24T12:00	16200	94	-63.9	-85.5	283	27	6.5
2025-11-24T12:00	16250	93	-63.8	-85.5	284	28	6.5
2025-11-24T12:00	16300	93	-64.0	-85.6	284	27	6.5
2025-11-24T12:00	16350	92	-63.9	-85.6	284	27	6.5
2025-11-24T12:00	16400	91	-63.7	-85.6	285	26	6.4
2025-11-24T12:00	16450	90	-63.8	-86.0	285	25	6.3
2025-11-24T12:00	16500	90	-63.4	-85.7	283	25	6.4
2025-11-24T12:00	16550	89	-63.5	-85.7	281	25	6.5
2025-11-24T12:00	16600	88	-63.8	-85.9	279	24	6.6
2025-11-24T12:00	16650	88	-63.7	-85.6	279	24	6.9
2025-11-24T12:00	16700	87	-63.7	-85.5	281	23	6.9
2025-11-24T12:00	16750	86	-63.5	-85.4	282	23	7.0
2025-11-24T12:00	16800	85	-63.4	-85.8	281	22	7.2
2025-11-24T12:00	16850	85	-63.3	-85.8	281	21	7.3
2025-11-24T12:00	16900	84	-63.0	-85.0	278	21	7.7
2025-11-24T12:00	16950	83	-62.7	-84.2	273	21	8.0
2025-11-24T12:00	17000	83	-62.6	-84.2	268	20	8.3
2025-11-24T12:00	17050	82	-62.7	-84.1	265	19	8.5
2025-11-24T12:00	17100	81	-62.7	-83.8	263	20	8.7
2025-11-24T12:00	17150	81	-62.3	-83.6	265	20	8.9
2025-11-24T12:00	17200	80	-62.1	-84.0	269	19	9.3
2025-11-24T12:00	17250	79	-62.2	-84.8	272	17	9.7
2025-11-24T12:00	17300	79	-62.1	-84.8	274	17	10.3
2025-11-24T12:00	17350	78	-62.6	-84.4	276	16	10.8
2025-11-24T12:00	17400	78	-63.1	-84.5	276	15	11.1
2025-11-24T12:00	17450	77	-63.4	-85.2	275	14	11.3
2025-11-24T12:00	17500	76	-63.7	-85.9	274	13	11.3
2025-11-24T12:00	17550	76	-64.0	-85.9	273	13	11.4
2025-11-24T12:00	17600	75	-64.3	-85.6	270	11	11.5
2025-11-24T12:00	17650	74	-64.4	-85.2	264	11	11.5
2025-11-24T12:00	17700	74	-64.6	-84.8	259	11	11.7
2025-11-24T12:00	17750	73	-65.0	-84.7	256	11	11.7
2025-11-24T12:00	17800	73	-65.3	-84.8	254	11	11.8
2025-11-24T12:00	17850	72	-65.6	-85.0	250	11	11.8
2025-11-24T12:00	17900	71	-65.7	-84.9	248	11	12.0
2025-11-24T12:00	17950	71	-65.9	-85.1	245	11	12.1
2025-11-24T12:00	18000	70	-66.1	-85.6	244	13	12.2
2025-11-24T12:00	18050	70	-66.3	-85.9	242	14	12.2
2025-11-24T12:00	18100	69	-66.5	-85.7	241	14	12.2
2025-11-24T12:00	18150	69	-66.8	-85.4	242	14	12.2
2025-11-24T12:00	18200	68	-67.0	-85.7	243	14	12.0
2025-11-24T12:00	18250	67	-67.2	-86.0	243	15	11.7
2025-11-24T12:00	18300	67	-67.5	-86.2	243	16	11.6
2025-11-24T12:00	18350	66	-67.8	-85.9	244	16	11.3
2025-11-24T12:00	18400	66	-68.0	-85.5	247	16	10.9
2025-11-24T12:00	18450	65	-68.3	-85.5	250	16	10.6
2025-11-24T12:00	18500	65	-68.3	-85.6	252	18	10.6
2025-11-24T12:00	18550	64	-68.5	-86.2	254	20	11.1
2025-11-24T12:00	18600	64	-68.2	-86.4	253	22	11.4
2025-11-24T12:00	18650	63	-67.8	-86.6	253	23	11.7
2025-11-24T12:00	18700	63	-67.9	-87.3	254	23	11.6
2025-11-24T12:00	18750	62	-68.2	-87.8	253	23	11.1
2025-11-24T12:00	18800	62	-68.0	-87.8	251	25	10.8
2025-11-24T12:00	18850	61	-67.9	-87.6	250	25	10.6
2025-11-24T12:00	18900	60	-67.9	-87.2	250	26	10.4
2025-11-24T12:00	18950	60	-67.9	-86.6	250	26	10.4
2025-11-24T12:00	19000	59	-67.8	-85.9	251	27	10.4
2025-11-24T12:00	19050	59	-68.0	-85.8	253	27	10.7
2025-11-24T12:00	19100	58	-68.0	-86.0	253	28	11.0
2025-11-24T12:00	19150	58	-68.3	-86.6	252	29	11.3
2025-11-24T12:00	19200	58	-68.6	-87.0	252	29	11.5
2025-11-24T12:00	19250	57	-68.9	-87.1	253	28	11.4
2025-11-24T12:00	19300	57	-69.1	-86.7	256	27	11.5
2025-11-24T12:00	19350	56	-69.5	-86.5	260	27	11.6
2025-11-24T12:00	19400	56	-69.7	-86.3	262	27	11.8
2025-11-24T12:00	19450	55	-70.2	-86.3	263	26	12.1
2025-11-24T12:00	19500	55	-70.6	-86.3	264	25	12.3
2025-11-24T12:00	19550	54	-71.0	-86.4	265	25	12.3
2025-11-24T12:00	19600	54	-70.7	-86.3	265	25	12.4
2025-11-24T12:00	19650	53	-70.0	-86.2	265	25	12.7
2025-11-24T12:00	19700	53	-69.8	-86.4	267	26	13.0
2025-11-24T12:00	19750	52	-69.8	-86.4	269	26	13.4
2025-11-24T12:00	19800	52	-69.9	-86.4	271	25	13.5
2025-11-24T12:00	19850	52	-69.8	-86.5	270	24	13.6
2025-11-24T12:00	19900	51	-69.6	-86.8	268	24	13.7
2025-11-24T12:00	19950	51	-69.6	-87.5	265	25	13.9
2025-11-24T12:00	20000	50	-69.3	-87.7	263	26	13.9
2025-11-24T12:00	20050	50	-68.9		261	27	13.9
2025-11-24T12:00	20100	49	-68.6		260	28	13.9
2025-11-24T12:00	20150	49	-68.6		261	30	13.9
2025-11-24T12:00	20200	49	-69.0		262	30	13.8
2025-11-24T12:00	20250	48	-69.1		264	30	13.9
2025-11-24T12:00	20300	48	-69.4		266	29	13.9
2025-11-24T12:00	20350	47	-69.6		267	29	13.9
2025-11-24T12:00	20400	47	-69.6		267	29	13.9
2025-11-24T12:00	20450	47	-69.7		267	30	13.8
2025-11-24T12:00	20500	46	-69.8		268	30	13.9
2025-11-24T12:00	20550	46	-70.1		269	31	13.9
2025-11-24T12:00	20600	45	-70.1		269	32	13.9
2025-11-24T12:00	20650	45	-70.2		270	32	13.9
2025-11-24T12:00	20700	45	-70.4		270	34	13.8
2025-11-24T12:00	20750	44	-70.5		272	35	13.8
2025-11-24T12:00	20800	44	-70.4		273	36	13.7
2025-11-24T12:00	20850	44	-70.3		273	36	13.6
2025-11-24T12:00	20900	43	-70.3		272	35	13.7
2025-11-24T12:00	20950	43	-70.4		271	34	13.7
2025-11-24T12:00	21000	43	-70.5		270	32	13.8
2025-11-24T12:00	21050	42	-70.4		269	31	13.7
2025-11-24T12:00	21100	42	-70.1		269	31	13.6
2025-11-24T12:00	21150	41	-69.6		270	30	13.5
2025-11-24T12:00	21200	41	-69.3		269	31	13.5
2025-11-24T12:00	21250	41	-69.1		268	32	13.5
2025-11-24T12:00	21300	40	-68.4		267	32	13.7
2025-11-24T12:00	21350	40	-67.6		266	31	13.6
2025-11-24T12:00	21400	40	-67.1		264	29	13.6
2025-11-24T12:00	21450	39	-66.6		262	28	13.6
2025-11-24T12:00	21500	39	-66.4		261	27	13.6
2025-11-24T12:00	21550	39	-66.5		261	27	13.8
2025-11-24T12:00	21600	38	-66.2		260	27	13.7
2025-11-24T12:00	21650	38	-66.3		258	27	13.6
2025-11-24T12:00	21700	38	-66.4		256	27	13.5
2025-11-24T12:00	21750	38	-66.5		256	28	13.5
2025-11-24T12:00	21800	37	-66.2		257	29	13.6
2025-11-24T12:00	21850	37	-66.2		259	30	13.6
2025-11-24T12:00	21900	37	-66.1		261	31	13.5
2025-11-24T12:00	21950	36	-66.0		262	32	13.6
2025-11-24T12:00	22000	36	-65.9		262	32	13.5
2025-11-24T12:00	22050	36	-66.0		262	32	13.5
2025-11-24T12:00	22100	35	-66.0		261	33	13.5
2025-11-24T12:00	22150	35	-66.1		261	33	13.4
2025-11-24T12:00	22200	35	-66.3		261	33	13.5
2025-11-24T12:00	22250	35	-66.5		261	32	13.5
2025-11-24T12:00	22300	34	-66.5		261	32	13.4
2025-11-24T12:00	22350	34	-66.1		259	33	13.4
2025-11-24T12:00	22400	34	-65.5		257	35	13.2
2025-11-24T12:00	22450	33	-65.4		255	36	13.4
2025-11-24T12:00	22500	33	-65.5		254	38	13.2
2025-11-24T12:00	22550	33	-65.6		254	39	13.3
2025-11-24T12:00	22600	33	-65.7		255	41	13.2
2025-11-24T12:00	22650	32	-64.9		257	40	13.3
2025-11-24T12:00	22700	32	-64.8		259	38	13.3
2025-11-24T12:00	22750	32	-65.0		260	37	13.4
2025-11-24T12:00	22800	32	-65.3		261	36	13.2
2025-11-24T12:00	22850	31	-65.2		261	36	13.1
2025-11-24T12:00	22900	31	-65.0		260	36	13.0
2025-11-24T12:00	22950	31	-65.0		259	36	12.9
2025-11-24T12:00	23000	31	-65.1		258	36	13.0
2025-11-24T12:00	23050	30	-65.1		257	36	13.0
2025-11-24T12:00	23100	30	-65.2		256	36	13.0
2025-11-24T12:00	23150	30	-65.1		256	37	13.0
2025-11-24T12:00	23200	30	-64.9		256	37	13.0
2025-11-24T12:00	23250	29	-64.8		257	37	12.9
2025-11-24T12:00	23300	29	-64.8		258	37	12.7
2025-11-24T12:00	23350	29	-64.8		260	38	12.7
2025-11-24T12:00	23400	29	-64.8		260	38	12.7
2025-11-24T12:00	23450	28	-65.0		261	38	12.7
2025-11-24T12:00	23500	28	-65.5		262	38	12.7
2025-11-24T12:00	23550	28	-65.5		263	38	12.7
2025-11-24T12:00	23600	28	-65.4		263	39	12.6
2025-11-24T12:00	23650	27	-65.5		264	39	12.5
2025-11-24T12:00	23700	27	-65.4		264	40	12.5
2025-11-24T12:00	23750	27	-65.4		264	42	12.4
2025-11-24T12:00	23800	27	-65.6		263	43	12.4
2025-11-24T12:00	23850	27	-66.1		263	43	12.5
2025-11-24T12:00	23900	26	-66.5		262	44	12.5
2025-11-24T12:00	23950	26	-66.5		261	44	12.4
2025-11-24T12:00	24000	26	-66.0		260	44	12.3
2025-11-24T12:00	24050	26	-65.8		259	43	12.1
2025-11-24T12:00	24100	25	-66.1		259	43	12.1
2025-11-24T12:00	24150	25	-65.7		260	42	12.1
2025-11-24T12:00	24200	25	-64.7		259	42	12.2
2025-11-24T12:00	24250	25	-64.5		258	43	12.2
2025-11-24T12:00	24300	25	-64.3		258	45	12.1
2025-11-24T12:00	24350	24	-64.5		258	45	12.2
2025-11-24T12:00	24400	24	-64.5		259	46	12.2
2025-11-24T12:00	24450	24	-64.3		261	46	12.1
2025-11-24T12:00	24500	24	-64.2		262	47	12.2
2025-11-24T12:00	24550	24	-64.2		263	47	12.3
2025-11-24T12:00	24600	23	-63.7		262	46	12.2
2025-11-24T12:00	24650	23	-63.6		261	46	12.1
2025-11-24T12:00	24700	23	-63.7		260	45	12.1
2025-11-24T12:00	24750	23	-63.9		260	45	12.0
2025-11-24T12:00	24800	23	-64.0		260	45	11.9
2025-11-24T12:00	24850	23	-64.4		261	45	11.9
2025-11-24T12:00	24900	22	-64.6		262	45	11.8
2025-11-24T12:00	24950	22	-64.5		263	45	11.8
2025-11-24T12:00	25000	22	-64.3		265	45	11.7
2025-11-24T12:00	25050	22	-64.0		266	45	11.6
2025-11-24T12:00	25100	22	-63.8		267	46	11.5
2025-11-24T12:00	25150	21	-63.4		268	46	11.6
2025-11-24T12:00	25200	21	-63.1		269	46	11.5
2025-11-24T12:00	25250	21	-62.9		269	45	11.3
2025-11-24T12:00	25300	21	-62.7		268	45	11.1
2025-11-24T12:00	25350	21	-62.8		266	45	10.7
2025-11-24T12:00	25400	21	-63.1		264	45	10.7
2025-11-24T12:00	25450	20	-63.2		261	45	10.7
2025-11-24T12:00	25500	20	-63.1		259	46	10.7
2025-11-24T12:00	25550	20	-63.2		259	47	10.6
2025-11-24T12:00	25600	20	-63.3		260	47	10.5
2025-11-24T12:00	25650	20	-63.3		260	47	10.3
2025-11-24T12:00	25700	20	-63.4		260	47	10.3
2025-11-24T12:00	25750	19	-63.3		260	48	10.1
2025-11-24T12:00	25800	19	-63.4		260	48	10.1
2025-11-24T12:00	25850	19	-63.1		260	48	10.0
2025-11-24T12:00	25900	19	-62.9		259	49	10.0
2025-11-24T12:00	25950	19	-62.8		258	50	10.0
2025-11-24T12:00	26000	19	-62.9		258	50	10.0
2025-11-24T12:00	26050	19	-62.9		259	49	9.7
2025-11-24T12:00	26100	18	-62.8		259	49	9.7
2025-11-24T12:00	26150	18	-62.8		259	48	9.7
2025-11-24T12:00	26200	18	-62.7		258	48	9.6
2025-11-24T12:00	26250	18	-62.5		258	49	9.4
2025-11-24T12:00	26300	18	-62.6		258	50	9.4
2025-11-24T12:00	26350	18	-62.9		259	51	9.3
2025-11-24T12:00	26400	18	-63.2		259	52	9.1
2025-11-24T12:00	26450	17	-62.6		258	53	9.2
2025-11-24T12:00	26500	17	-62.5		258	53	9.1
2025-11-24T12:00	26550	17	-62.5		258	53	9.1
2025-11-24T12:00	26600	17	-62.5		257	53	9.0
2025-11-24T12:00	26650	17	-62.6		257	53	8.8
2025-11-24T12:00	26700	17	-62.9		256	53	8.7
2025-11-24T12:00	26750	17	-62.9		255	54	8.7
2025-11-24T12:00	26800	16	-62.7		254	54	8.6
2025-11-24T12:00	26850	16	-62.5		253	55	8.6
2025-11-24T12:00	26900	16	-62.3		253	55	8.6
2025-11-24T12:00	26950	16	-62.2		253	55	8.5
2025-11-24T12:00	27000	16	-62.1		253	55	8.4
2025-11-24T12:00	27050	16	-62.0		253	56	8.3
2025-11-24T12:00	27100	16	-62.1		254	57	8.2
2025-11-24T12:00	27150	16	-62.3		254	58	8.1
2025-11-24T12:00	27200	15	-62.5		255	59	8.1
2025-11-24T12:00	27250	15	-62.6		255	60	8.1
2025-11-24T12:00	27300	15	-62.7		255	60	8.0
2025-11-24T12:00	27350	15	-62.7		255	61	7.9
2025-11-24T12:00	27400	15	-62.7		254	61	7.9
2025-11-24T12:00	27450	15	-62.8		255	61	7.9
2025-11-24T12:00	27500	15	-62.8		255	61	7.8
2025-11-24T12:00	27550	15	-62.6		256	60	7.7
2025-11-24T12:00	27600	14	-62.6		256	60	7.7
2025-11-24T12:00	27650	14	-62.5		257	61	7.5
2025-11-24T12:00	27700	14	-61.9		257	62	7.5
2025-11-24T12:00	27750	14	-61.8		257	62	7.5
2025-11-24T12:00	27800	14	-61.8		258	62	7.5
2025-11-24T12:00	27850	14	-61.8		258	62	7.4
2025-11-24T12:00	27900	14	-62.1		258	62	7.3
2025-11-24T12:00	27950	14	-62.0		257	62	7.3
2025-11-24T12:00	28000	14	-61.7		256	61	7.2
2025-11-24T12:00	28050	13	-61.2		255	61	7.0
2025-11-24T12:00	28100	13	-61.3		255	61	6.8
2025-11-24T12:00	28150	13	-61.6		255	61	6.6
2025-11-24T12:00	28200	13	-61.6		255	61	6.5
2025-11-24T12:00	28250	13	-61.4		255	60	6.5
2025-11-24T12:00	28300	13	-61.2		255	59	6.2
2025-11-24T12:00	28350	13	-61.1		255	60	6.1
2025-11-24T12:00	28400	13	-60.8		255	60	5.9
2025-11-24T12:00	28450	13	-60.5		254	61	5.8
2025-11-24T12:00	28500	12	-60.6		254	62	5.8
2025-11-24T12:00	28550	12	-60.8		254	63	5.8
2025-11-24T12:00	28600	12	-61.1		253	64	5.7
2025-11-24T12:00	28650	12	-61.3		252	65	5.7
2025-11-24T12:00	28700	12	-61.2		251	66	5.6
2025-11-24T12:00	28750	12	-61.0		250	66	5.6
2025-11-24T12:00	28800	12	-60.8		250	67	5.5
2025-11-24T12:00	28850	12	-60.7		249	68	5.5
2025-11-24T12:00	28900	12	-60.4		249	68	5.5
2025-11-24T12:00	28950	12	-60.4		250	69	5.5
2025-11-24T12:00	29000	12	-60.1		252	70	5.4
2025-11-24T12:00	29050	11	-59.5		254	71	5.4
2025-11-24T12:00	29100	11	-59.3		255	72	5.3
2025-11-24T12:00	29150	11	-59.2		255	73	5.3
2025-11-24T12:00	29200	11	-59.1		256	73	5.3
2025-11-24T12:00	29250	11	-59.2		255	72	5.3
2025-11-24T12:00	29300	11	-59.0		254	71	5.2
2025-11-24T12:00	29350	11	-59.1		253	71	5.2
2025-11-24T12:00	29400	11	-59.2		252	71	5.2
2025-11-24T12:00	29450	11	-59.3		251	71	5.2
2025-11-24T12:00	29500	11	-59.3		250	72	5.1
2025-11-24T12:00	29550	11	-58.8		250	73	5.1
2025-11-24T12:00	29600	10	-58.3		249	74	5.1
2025-11-24T12:00	29650	10	-57.4		248	75	5.1
2025-11-24T12:00	29700	10	-56.4		247	75	5.1
2025-11-24T12:00	29750	10	-55.9		246	76	5.0
2025-11-24T12:00	29800	10	-55.7		246	76	5.0
2025-11-24T12:00	29850	10	-55.7		246	77	5.1
2025-11-24T12:00	29900	10	-55.7		247	77	5.0
2025-11-24T12:00	29950	10	-55.7		247	78	5.0
2025-11-24T12:00	30000	10	-56.0		248	79	4.9
2025-11-24T12:00	30050	10	-56.0		249	80	4.9
2025-11-24T12:00	30100	10	-56.0		250	81	4.9
2025-11-24T12:00	30150	10	-55.9		250	82	4.9
2025-11-24T12:00	30200	10	-55.3		250	83	5.0
2025-11-24T12:00	30250	9	-54.8		249	83	4.9
2025-11-24T12:00	30300	9	-54.6		249	84	4.9
2025-11-24T12:00	30350	9	-54.6		249	85	4.8
2025-11-24T12:00	30400	9	-54.7		250	86	4.8
2025-11-24T12:00	30450	9	-54.8		250	86	4.8
2025-11-24T12:00	30500	9	-55.1		250	87	4.8
2025-11-24T12:00	30550	9	-55.3		251	88	4.7
2025-11-24T12:00	30600	9	-55.6		251	89	4.7
2025-11-24T12:00	30650	9	-55.8		251	89	4.7
2025-11-24T12:00	30700	9	-56.1		251	90	4.7
2025-11-24T12:00	30750	9	-56.4		251	90	4.7
2025-11-24T12:00	30800	9	-56.7		251	90	4.6
2025-11-24T12:00	30850	9	-56.9		252	91	4.6
2025-11-24T12:00	30900	9	-57.3		253	91	4.6
2025-11-24T12:00	30950	8	-57.8		253	92	4.5
2025-11-24T12:00	31000	8	-58.1		254	93	4.4
2025-11-24T12:00	31050	8	-58.3		255	93	4.5
2025-11-24T12:00	31100	8	-58.1		255	94	4.5
2025-11-24T12:00	31150	8	-57.9		256	94	4.4
2025-11-24T12:00	31200	8	-57.9		256	94	4.4
2025-11-24T12:00	31250	8	-58.1		257	94	
2025-11-24T12:00	31300	8	-58.5		257	93	
2025-11-24T12:00	31350	8	-58.6		258	93	
2025-11-24T12:00	31400	8	-58.6		258	92	
2025-11-24T12:00	31450	8	-58.4		258	92	
2025-11-24T12:00	31500	8	-57.6		258	92	
2025-11-24T12:00	31550	8	-57.0		258	93	
2025-11-25T00:00	491	944	5.2	3.4	235	5	
2025-11-25T00:00	501	943	5.0	3.4	223	4	
2025-11-25T00:00	520	941	5.0	3.3	214	4	
2025-11-25T00:00	540	938	4.9	3.1	213	5	
2025-11-25T00:00	560	936	4.7	3.0	212	6	
2025-11-25T00:00	580	934	4.6	2.9	210	7	
2025-11-25T00:00	600	932	4.6	2.5	209	8	
2025-11-25T00:00	620	929	4.4	2.4	207	9	
2025-11-25T00:00	640	927	4.3	2.3	205	10	
2025-11-25T00:00	660	925	4.1	2.2	204	10	
2025-11-25T00:00	680	923	4.1	1.9	202	10	
2025-11-25T00:00	700	920	4.0	1.8	201	11	
2025-11-25T00:00	720	918	3.8	1.7	201	11	
2025-11-25T00:00	740	916	3.6	1.6	202	11	
2025-11-25T00:00	760	913	3.4	1.6	204	12	
2025-11-25T00:00	780	911	3.2	1.5	206	12	
2025-11-25T00:00	800	909	3.1	1.3	208	12	
2025-11-25T00:00	820	907	3.0	1.0	211	12	
2025-11-25T00:00	840	904	3.0	0.8	214	12	
2025-11-25T00:00	860	902	3.0	0.7	217	12	
2025-11-25T00:00	880	900	2.9	0.6	220	12	
2025-11-25T00:00	900	898	2.8	0.6	223	13	
2025-11-25T00:00	920	896	2.6	0.6	226	13	
2025-11-25T00:00	940	893	2.3	0.6	228	13	
2025-11-25T00:00	960	891	2.1	0.5	230	13	
2025-11-25T00:00	980	889	1.9	0.5	231	13	
2025-11-25T00:00	1000	887	1.8	0.4	232	13	
2025-11-25T00:00	1020	885	1.6	0.4	232	13	
2025-11-25T00:00	1040	882	1.4	0.4	231	12	
2025-11-25T00:00	1060	880	1.3	0.3	230	12	
2025-11-25T00:00	1080	878	1.1	0.3	229	12	
2025-11-25T00:00	1100	876	0.9	0.2	229	12	
2025-11-25T00:00	1120	874	0.8	-0.1	229	11	
2025-11-25T00:00	1140	872	0.6	-0.3	230	11	
2025-11-25T00:00	1160	869	0.5	-0.7	232	11	
2025-11-25T00:00	1180	867	0.3	-0.9	234	11	
2025-11-25T00:00	1200	865	0.1	-1.0	236	11	
2025-11-25T00:00	1220	863	0.0	-1.1	237	11	
2025-11-25T00:00	1240	861	-0.1	-1.2	238	11	
2025-11-25T00:00	1260	858	-0.3	-1.3	239	11	
2025-11-25T00:00	1280	857	-0.5	-1.3	241	11	
2025-11-25T00:00	1300	854	-0.6	-1.5	242	10	
2025-11-25T00:00	1320	852	-0.6	-1.7	243	11	
2025-11-25T00:00	1340	850	-0.8	-1.7	244	11	
2025-11-25T00:00	1360	848	-0.9	-1.9	244	11	
2025-11-25T00:00	1380	846	-1.0	-2.2	244	11	
2025-11-25T00:00	1400	844	-1.1	-2.2	244	10	
2025-11-25T00:00	1420	842	-1.2	-2.4	246	10	
2025-11-25T00:00	1440	839	-1.4	-2.5	248	10	
2025-11-25T00:00	1460	837	-1.5	-2.7	251	10	
2025-11-25T00:00	1480	835	-1.5	-3.0	252	9	
2025-11-25T00:00	1500	833	-1.7	-3.1	254	9	
2025-11-25T00:00	1520	831	-1.8	-3.4	254	9	
2025-11-25T00:00	1540	829	-1.9	-3.6	254	9	
2025-11-25T00:00	1560	827	-2.1	-3.6	253	9	
2025-11-25T00:00	1580	825	-2.2	-3.6	252	9	
2025-11-25T00:00	1600	823	-2.4	-3.7	251	9	
2025-11-25T00:00	1620	821	-2.5	-3.8	250	9	
2025-11-25T00:00	1640	818	-2.7	-3.9	248	9	
2025-11-25T00:00	1660	816	-2.8	-4.0	247	9	
2025-11-25T00:00	1680	815	-2.9	-4.0	246	8	
2025-11-25T00:00	1700	813	-3.1	-4.1	246	8	
2025-11-25T00:00	1720	810	-3.2	-4.3	247	8	
2025-11-25T00:00	1740	808	-3.3	-4.5	247	8	
2025-11-25T00:00	1760	806	-3.5	-4.6	248	8	
2025-11-25T00:00	1780	804	-3.6	-4.6	248	8	
2025-11-25T00:00	1800	802	-3.8	-4.7	248	8	
2025-11-25T00:00	1820	800	-4.0	-4.9	248	7	
2025-11-25T00:00	1840	798	-4.1	-5.2	247	7	
2025-11-25T00:00	1860	796	-4.3	-5.2	246	7	
2025-11-25T00:00	1880	794	-4.5	-5.7	245	7	
2025-11-25T00:00	1900	792	-4.6	-6.3	244	7	
2025-11-25T00:00	1920	790	-4.8	-5.8	242	7	
2025-11-25T00:00	1940	788	-4.9	-5.4	242	8	
2025-11-25T00:00	1960	786	-5.1	-5.5	241	8	
2025-11-25T00:00	1980	784	-5.1	-5.6	241	8	
2025-11-25T00:00	2000	782	-5.1	-6.1	242	8	
2025-11-25T00:00	2020	780	-5.3	-6.1	243	8	
2025-11-25T00:00	2040	778	-5.4	-6.2	244	9	
2025-11-25T00:00	2060	776	-5.6	-6.2	244	9	
2025-11-25T00:00	2080	774	-5.7	-6.4	245	9	
2025-11-25T00:00	2100	772	-5.6	-6.7	245	10	
2025-11-25T00:00	2120	770	-5.7	-6.8	244	10	
2025-11-25T00:00	2140	768	-5.8	-6.8	244	10	
2025-11-25T00:00	2160	766	-6.0	-6.9	244	11	
2025-11-25T00:00	2180	764	-6.3	-6.9	244	11	
2025-11-25T00:00	2200	762	-6.5	-6.9	244	11	
2025-11-25T00:00	2220	760	-6.7	-7.0	245	12	
2025-11-25T00:00	2240	759	-6.8	-7.2	245	12	
2025-11-25T00:00	2260	757	-6.9	-7.2	245	12	
2025-11-25T00:00	2280	755	-7.1	-7.2	245	12	
2025-11-25T00:00	2300	753	-7.3	-7.3	246	12	
2025-11-25T00:00	2320	751	-7.4	-7.4	248	11	
2025-11-25T00:00	2340	749	-7.5	-7.5	250	11	
2025-11-25T00:00	2360	747	-7.6	-7.7	254	10	
2025-11-25T00:00	2380	745	-7.8	-7.8	256	10	
2025-11-25T00:00	2400	743	-7.8	-8.1	258	10	
2025-11-25T00:00	2420	741	-7.9	-8.3	259	10	
2025-11-25T00:00	2440	739	-8.0	-8.5	259	10	
2025-11-25T00:00	2460	737	-8.1	-8.6	258	10	
2025-11-25T00:00	2480	736	-8.3	-8.6	257	10	
2025-11-25T00:00	2500	734	-8.4	-8.5	257	10	
2025-11-25T00:00	2520	732	-8.6	-8.6	256	10	
2025-11-25T00:00	2540	730	-8.7	-8.7	256	10	
2025-11-25T00:00	2560	728	-8.8	-8.8	255	10	
2025-11-25T00:00	2580	726	-9.0	-9.0	254	11	
2025-11-25T00:00	2600	724	-9.1	-9.1	253	11	
2025-11-25T00:00	2620	722	-9.3	-9.3	252	11	
2025-11-25T00:00	2640	720	-9.4	-9.4	251	11	
2025-11-25T00:00	2660	719	-9.5	-9.5	250	12	
2025-11-25T00:00	2680	717	-9.7	-9.7	249	12	
2025-11-25T00:00	2700	715	-9.9	-9.9	249	12	
2025-11-25T00:00	2720	713	-10.0	-10.0	248	12	
2025-11-25T00:00	2740	711	-10.1	-10.1	248	12	
2025-11-25T00:00	2760	709	-10.2	-10.2	248	12	
2025-11-25T00:00	2780	707	-10.4	-10.4	248	12	
2025-11-25T00:00	2800	706	-10.5	-10.5	248	12	
2025-11-25T00:00	2820	704	-10.6	-10.6	249	12	
2025-11-25T00:00	2840	702	-10.7	-10.7	251	12	
2025-11-25T00:00	2860	700	-10.8	-10.9	252	13	
2025-11-25T00:00	2880	698	-11.0	-11.1	254	13	
2025-11-25T00:00	2900	697	-11.1	-11.1	255	13	
2025-11-25T00:00	2920	695	-11.2	-11.3	256	12	
2025-11-25T00:00	2940	693	-11.3	-11.4	256	12	
2025-11-25T00:00	2960	691	-11.4	-11.6	255	12	
2025-11-25T00:00	2980	689	-11.6	-11.7	255	12	
2025-11-25T00:00	3000	687	-11.7	-11.8	254	12	
2025-11-25T00:00	3020	686	-11.8	-11.9	254	12	
2025-11-25T00:00	3040	684	-12.0	-12.1	254	12	
2025-11-25T00:00	3060	682	-12.1	-12.2	254	12	
2025-11-25T00:00	3080	681	-12.2	-12.4	255	12	
2025-11-25T00:00	3100	679	-12.4	-12.5	256	12	
2025-11-25T00:00	3120	677	-12.5	-12.7	258	11	
2025-11-25T00:00	3140	675	-12.4	-12.7	259	11	
2025-11-25T00:00	3160	673	-12.7	-12.9	260	11	
2025-11-25T00:00	3180	672	-12.8	-13.0	261	11	
2025-11-25T00:00	3200	670	-13.0	-13.2	261	10	
2025-11-25T00:00	3220	668	-13.1	-13.3	262	10	
2025-11-25T00:00	3240	666	-13.3	-13.6	262	10	
2025-11-25T00:00	3260	664	-13.3	-13.9	262	10	
2025-11-25T00:00	3280	663	-13.5	-14.2	262	10	
2025-11-25T00:00	3300	661	-13.6	-14.3	261	10	
2025-11-25T00:00	3320	659	-13.8	-14.3	261	11	
2025-11-25T00:00	3340	658	-14.0	-14.5	260	11	
2025-11-25T00:00	3360	656	-14.1	-14.5	259	11	
2025-11-25T00:00	3380	654	-14.3	-14.7	258	11	
2025-11-25T00:00	3400	652	-14.4	-14.8	257	12	
2025-11-25T00:00	3420	651	-14.6	-15.0	257	12	
2025-11-25T00:00	3440	649	-14.7	-15.1	256	12	
2025-11-25T00:00	3460	647	-14.8	-15.2	255	12	
2025-11-25T00:00	3480	646	-15.0	-15.2	255	13	
2025-11-25T00:00	3500	644	-15.1	-15.4	254	13	
2025-11-25T00:00	3520	642	-15.3	-15.6	253	13	
2025-11-25T00:00	3540	640	-15.6	-16.8	252	14	
2025-11-25T00:00	3560	639	-15.9	-18.0	252	14	
2025-11-25T00:00	3580	637	-16.1	-19.5	252	14	
2025-11-25T00:00	3600	635	-16.3	-19.9	253	14	
2025-11-25T00:00	3620	634	-16.5	-20.7	253	14	
2025-11-25T00:00	3640	632	-16.7	-22.7	253	15	
2025-11-25T00:00	3660	630	-16.9	-24.9	254	15	
2025-11-25T00:00	3680	628	-17.1	-26.0	253	15	
2025-11-25T00:00	3700	627	-17.3	-28.1	253	16	
2025-11-25T00:00	3720	625	-17.2	-27.4	253	16	
2025-11-25T00:00	3740	624	-17.3	-27.5	252	17	
2025-11-25T00:00	3760	622	-17.5	-27.4	252	17	
2025-11-25T00:00	3780	620	-17.6	-27.0	252	18	
2025-11-25T00:00	3800	619	-17.6	-26.7	252	18	
2025-11-25T00:00	3820	617	-17.8	-27.2	251	19	
2025-11-25T00:00	3840	615	-17.8	-27.0	250	19	
2025-11-25T00:00	3860	614	-18.0	-26.8	249	19	
2025-11-25T00:00	3880	612	-18.1	-27.3	248	19	
2025-11-25T00:00	3900	610	-18.2	-27.5	248	19	
2025-11-25T00:00	3920	609	-18.5	-27.5	248	19	
2025-11-25T00:00	3940	607	-18.6	-27.8	248	20	
2025-11-25T00:00	3960	605	-18.8	-27.9	248	20	
2025-11-25T00:00	3980	604	-19.0	-27.9	248	20	
2025-11-25T00:00	4000	602	-19.1	-28.0	248	21	
2025-11-25T00:00	4020	601	-19.3	-28.4	248	21	
2025-11-25T00:00	4040	599	-19.4	-28.7	248	22	
2025-11-25T00:00	4060	598	-19.5	-29.0	248	22	
2025-11-25T00:00	4080	596	-19.6	-28.8	247	23	
2025-11-25T00:00	4100	594	-19.7	-28.6	246	23	
2025-11-25T00:00	4120	593	-19.9	-28.6	244	23	
2025-11-25T00:00	4140	591	-20.0	-28.4	243	23	
2025-11-25T00:00	4160	589	-20.1	-28.0	241	23	
2025-11-25T00:00	4180	588	-20.4	-28.9	240	24	
2025-11-25T00:00	4200	586	-20.5	-28.3	240	24	
2025-11-25T00:00	4220	585	-20.7	-28.1	240	24	
2025-11-25T00:00	4240	583	-20.8	-28.4	240	25	
2025-11-25T00:00	4260	581	-21.0	-28.4	241	25	
2025-11-25T00:00	4280	580	-21.0	-26.8	241	25	
2025-11-25T00:00	4300	578	-20.9	-25.7	242	25	
2025-11-25T00:00	4320	577	-21.0	-25.8	242	26	
2025-11-25T00:00	4340	575	-21.2	-26.0	242	26	
2025-11-25T00:00	4360	574	-21.4	-26.1	242	26	
2025-11-25T00:00	4380	572	-21.5	-26.1	242	26	
2025-11-25T00:00	4400	571	-21.7	-26.2	242	26	
2025-11-25T00:00	4420	569	-21.8	-26.2	242	25	
2025-11-25T00:00	4440	568	-21.9	-26.4	242	25	
2025-11-25T00:00	4460	566	-22.1	-26.4	242	25	
2025-11-25T00:00	4480	564	-22.3	-26.8	242	25	
2025-11-25T00:00	4500	563	-22.3	-26.9	243	25	
2025-11-25T00:00	4520	561	-22.4	-26.8	244	25	
2025-11-25T00:00	4540	560	-22.6	-26.8	244	25	
2025-11-25T00:00	4560	558	-22.8	-26.8	245	25	
2025-11-25T00:00	4580	557	-22.8	-26.8	245	25	
2025-11-25T00:00	4600	555	-22.9	-27.1	246	25	
2025-11-25T00:00	4620	554	-23.0	-27.2	245	24	
2025-11-25T00:00	4640	552	-23.2	-27.3	244	24	
2025-11-25T00:00	4660	551	-23.3	-27.3	243	24	
2025-11-25T00:00	4680	549	-23.4	-27.4	241	23	
2025-11-25T00:00	4700	548	-23.4	-27.0	239	23	
2025-11-25T00:00	4720	546	-23.3	-26.7	237	23	
2025-11-25T00:00	4740	545	-23.4	-26.7	235	22	
2025-11-25T00:00	4760	543	-23.5	-26.7	234	22	
2025-11-25T00:00	4780	542	-23.3	-26.3	233	22	
2025-11-25T00:00	4800	540	-23.4	-26.3	232	22	
2025-11-25T00:00	4820	539	-23.6	-26.4	231	22	
2025-11-25T00:00	4840	537	-23.8	-26.5	231	22	
2025-11-25T00:00	4860	536	-23.9	-26.5	231	22	
2025-11-25T00:00	4880	534	-24.1	-26.6	230	23	
2025-11-25T00:00	4900	533	-24.3	-26.7	230	23	
2025-11-25T00:00	4920	531	-24.5	-26.8	229	23	
2025-11-25T00:00	4940	530	-24.6	-27.2	228	23	
2025-11-25T00:00	4960	528	-24.8	-27.3	228	23	
2025-11-25T00:00	4980	527	-24.9	-27.4	227	22	
2025-11-25T00:00	5000	526	-25.1	-27.5	227	22	
2025-11-25T00:00	5020	524	-25.3	-27.6	227	21	
2025-11-25T00:00	5040	523	-25.4	-27.4	226	21	
2025-11-25T00:00	5060	521	-25.6	-27.7	226	21	
2025-11-25T00:00	5080	520	-25.7	-27.8	225	21	
2025-11-25T00:00	5100	518	-25.8	-27.8	224	21	
2025-11-25T00:00	5120	517	-26.0	-28.0	224	21	
2025-11-25T00:00	5140	516	-26.1	-28.4	223	21	
2025-11-25T00:00	5160	514	-26.2	-28.6	223	21	
2025-11-25T00:00	5180	513	-26.4	-28.6	222	21	
2025-11-25T00:00	5200	511	-26.6	-28.4	222	22	
2025-11-25T00:00	5220	510	-26.8	-28.6	222	22	
2025-11-25T00:00	5240	509	-27.0	-28.9	221	22	
2025-11-25T00:00	5260	507	-27.2	-28.9	221	22	
2025-11-25T00:00	5280	506	-27.3	-29.0	221	22	
2025-11-25T00:00	5300	504	-27.5	-29.0	222	22	
2025-11-25T00:00	5320	503	-27.7	-29.1	222	21	
2025-11-25T00:00	5340	502	-27.9	-29.3	222	21	
2025-11-25T00:00	5360	500	-28.1	-29.5	223	20	
2025-11-25T00:00	5380	499	-28.2	-29.7	222	20	
2025-11-25T00:00	5400	497	-28.3	-29.9	221	20	
2025-11-25T00:00	5420	496	-28.5	-30.0	220	20	
2025-11-25T00:00	5440	495	-28.7	-30.2	219	20	
2025-11-25T00:00	5460	493	-28.8	-30.3	218	20	
2025-11-25T00:00	5480	492	-29.0	-30.7	216	20	
2025-11-25T00:00	5500	490	-29.2	-30.9	215	20	
2025-11-25T00:00	5520	489	-29.3	-31.1	213	20	
2025-11-25T00:00	5540	488	-29.4	-31.3	213	20	
2025-11-25T00:00	5560	486	-29.6	-31.6	212	20	
2025-11-25T00:00	5580	485	-29.7	-31.8	211	20	
2025-11-25T00:00	5600	484	-29.8	-31.8	211	20	
2025-11-25T00:00	5620	482	-30.0	-32.2	212	20	
2025-11-25T00:00	5640	481	-30.2	-32.4	212	19	
2025-11-25T00:00	5660	480	-30.3	-32.5	212	19	
2025-11-25T00:00	5680	478	-30.5	-32.9	211	19	
2025-11-25T00:00	5700	477	-30.6	-33.1	211	19	
2025-11-25T00:00	5720	476	-30.8	-33.1	211	19	
2025-11-25T00:00	5740	474	-30.9	-33.3	211	18	
2025-11-25T00:00	5760	473	-31.1	-33.6	211	18	
2025-11-25T00:00	5780	471	-31.3	-33.6	211	18	
2025-11-25T00:00	5800	470	-31.5	-34.0	212	17	
2025-11-25T00:00	5820	469	-31.6	-34.2	213	17	
2025-11-25T00:00	5840	467	-31.8	-34.3	213	17	
2025-11-25T00:00	5860	466	-32.0	-34.5	214	16	
2025-11-25T00:00	5880	465	-32.1	-35.0	214	16	
2025-11-25T00:00	5900	464	-32.3	-35.1	214	16	
2025-11-25T00:00	5920	462	-32.5	-35.1	214	16	
2025-11-25T00:00	5940	461	-32.6	-35.1	214	16	
2025-11-25T00:00	5960	460	-32.8	-35.4	214	16	
2025-11-25T00:00	5980	458	-33.0	-35.8	214	16	
2025-11-25T00:00	6000	457	-33.2	-35.9	214	16	
2025-11-25T00:00	6020	456	-33.4	-36.4	213	16	
2025-11-25T00:00	6040	454	-33.6	-36.6	213	16	
2025-11-25T00:00	6060	453	-33.8	-36.4	213	16	
2025-11-25T00:00	6080	452	-33.9	-36.8	213	16	
2025-11-25T00:00	6100	450	-34.1	-37.0	213	16	
2025-11-25T00:00	6120	449	-34.3	-37.0	213	17	
2025-11-25T00:00	6140	448	-34.5	-37.1	214	17	
2025-11-25T00:00	6160	447	-34.6	-37.1	214	17	
2025-11-25T00:00	6180	446	-34.8	-37.4	214	17	
2025-11-25T00:00	6200	444	-35.0	-37.6	214	18	
2025-11-25T00:00	6220	443	-35.1	-37.9	214	18	
2025-11-25T00:00	6240	442	-35.3	-38.0	215	18	
2025-11-25T00:00	6260	440	-35.5	-38.1	215	18	
2025-11-25T00:00	6280	439	-35.7	-38.2	215	18	
2025-11-25T00:00	6300	438	-35.8	-38.3	216	18	
2025-11-25T00:00	6320	437	-36.0	-38.5	217	18	
2025-11-25T00:00	6340	435	-36.2	-38.8	218	18	
2025-11-25T00:00	6360	434	-36.4	-39.3	218	18	
2025-11-25T00:00	6380	433	-36.5	-39.6	218	18	
2025-11-25T00:00	6400	431	-36.7	-39.6	218	19	
2025-11-25T00:00	6420	430	-36.9	-39.6	219	19	
2025-11-25T00:00	6440	429	-37.0	-39.8	218	19	
2025-11-25T00:00	6460	428	-37.1	-40.0	218	19	
2025-11-25T00:00	6480	427	-37.3	-40.2	218	19	
2025-11-25T00:00	6500	425	-37.5	-40.4	218	19	
2025-11-25T00:00	6520	424	-37.7	-40.8	218	19	
2025-11-25T00:00	6540	423	-37.8	-40.9	217	19	
2025-11-25T00:00	6560	422	-38.0	-41.1	216	19	
2025-11-25T00:00	6580	421	-38.1	-41.3	214	20	
2025-11-25T00:00	6600	419	-38.3	-41.5	212	20	
2025-11-25T00:00	6620	418	-38.4	-41.6	211	20	
2025-11-25T00:00	6640	417	-38.6	-41.9	209	20	
2025-11-25T00:00	6660	416	-38.7	-41.8	208	20	
2025-11-25T00:00	6680	414	-38.8	-41.8	207	19	
2025-11-25T00:00	6700	413	-38.9	-41.9	207	20	
2025-11-25T00:00	6720	412	-39.1	-42.1	207	20	
2025-11-25T00:00	6740	411	-39.3	-42.4	208	20	
2025-11-25T00:00	6760	410	-39.4	-42.8	208	20	
2025-11-25T00:00	6780	408	-39.6	-42.9	208	20	
2025-11-25T00:00	6800	407	-39.8	-43.2	208	20	
2025-11-25T00:00	6820	406	-39.9	-43.1	208	20	
2025-11-25T00:00	6840	405	-40.1	-43.4	208	20	
2025-11-25T00:00	6860	404	-40.3	-43.8	208	20	
2025-11-25T00:00	6880	402	-40.5	-43.8	207	20	
2025-11-25T00:00	6900	401	-40.6	-43.6	207	20	
2025-11-25T00:00	6920	400	-40.8	-43.8	206	20	
2025-11-25T00:00	6940	399	-41.0	-44.0	206	20	
2025-11-25T00:00	6960	398	-41.1	-44.7	205	21	
2025-11-25T00:00	6980	397	-41.3	-45.1	205	21	
2025-11-25T00:00	7000	395	-41.5	-45.0	205	21	
2025-11-25T00:00	7020	394	-41.7	-44.7	205	21	
2025-11-25T00:00	7040	393	-41.9	-44.5	206	21	
2025-11-25T00:00	7060	392	-42.0	-44.7	206	21	
2025-11-25T00:00	7080	391	-42.2	-45.4	206	21	
2025-11-25T00:00	7100	389	-42.4	-45.8	206	22	
2025-11-25T00:00	7120	388	-42.6	-46.1	205	22	
2025-11-25T00:00	7140	387	-42.7	-46.4	205	22	
2025-11-25T00:00	7160	386	-42.8	-46.6	204	22	
2025-11-25T00:00	7180	385	-43.0	-47.0	204	22	
2025-11-25T00:00	7200	384	-43.2	-47.5	203	22	
2025-11-25T00:00	7220	383	-43.3	-47.6	203	22	
2025-11-25T00:00	7240	382	-43.5	-47.6	203	22	
2025-11-25T00:00	7260	381	-43.7	-47.6	203	22	
2025-11-25T00:00	7280	379	-43.8	-47.8	203	22	
2025-11-25T00:00	7300	378	-44.0	-47.9	203	22	
2025-11-25T00:00	7320	377	-44.2	-48.1	203	22	
2025-11-25T00:00	7340	376	-44.4	-48.4	204	22	
2025-11-25T00:00	7360	375	-44.6	-48.7	204	23	
2025-11-25T00:00	7380	374	-44.8	-48.8	204	23	
2025-11-25T00:00	7400	373	-44.9	-48.4	205	23	
2025-11-25T00:00	7420	371	-45.1	-48.3	205	23	
2025-11-25T00:00	7440	370	-45.3	-48.4	205	23	
2025-11-25T00:00	7460	369	-45.5	-49.2	205	23	
2025-11-25T00:00	7480	368	-45.5	-50.1	205	23	
2025-11-25T00:00	7500	367	-45.7	-50.0	206	24	
2025-11-25T00:00	7520	366	-45.9	-49.6	206	24	
2025-11-25T00:00	7540	365	-46.1	-49.3	207	24	
2025-11-25T00:00	7560	364	-46.3	-49.5	208	24	
2025-11-25T00:00	7580	363	-46.5	-49.7	209	24	
2025-11-25T00:00	7600	362	-46.7	-49.9	210	24	
2025-11-25T00:00	7620	360	-46.9	-50.3	211	24	
2025-11-25T00:00	7640	359	-47.1	-50.8	212	24	
2025-11-25T00:00	7660	358	-47.2	-51.1	212	24	
2025-11-25T00:00	7680	357	-47.4	-51.3	212	24	
2025-11-25T00:00	7700	356	-47.6	-51.9	211	25	
2025-11-25T00:00	7720	355	-47.8	-52.3	211	25	
2025-11-25T00:00	7740	354	-47.9	-52.3	211	25	
2025-11-25T00:00	7760	353	-48.1	-52.2	212	25	
2025-11-25T00:00	7780	352	-48.3	-52.1	212	25	
2025-11-25T00:00	7800	351	-48.5	-52.1	213	25	
2025-11-25T00:00	7820	350	-48.7	-52.3	214	25	
2025-11-25T00:00	7840	349	-48.8	-52.4	215	26	
2025-11-25T00:00	7860	348	-49.0	-52.4	216	26	
2025-11-25T00:00	7880	347	-49.1	-52.3	216	27	
2025-11-25T00:00	7900	345	-49.2	-52.1	217	27	
2025-11-25T00:00	7920	344	-49.2	-52.0	218	28	
2025-11-25T00:00	7940	343	-49.3	-51.7	219	28	
2025-11-25T00:00	7960	342	-49.3	-51.4	220	28	
2025-11-25T00:00	7980	341	-49.3	-51.6	220	28	
2025-11-25T00:00	8000	340	-49.3	-52.8	221	27	
2025-11-25T00:00	8020	339	-49.2	-54.3	222	27	
2025-11-25T00:00	8040	338	-49.3	-54.7	223	26	
2025-11-25T00:00	8060	337	-49.4	-54.8	223	26	
2025-11-25T00:00	8080	336	-49.4	-55.0	224	26	
2025-11-25T00:00	8100	335	-49.6	-55.1	225	25	
2025-11-25T00:00	8120	334	-49.7	-55.1	226	25	
2025-11-25T00:00	8140	333	-49.8	-55.3	228	24	
2025-11-25T00:00	8160	332	-49.9	-55.9	229	24	
2025-11-25T00:00	8180	331	-49.9	-56.7	231	24	
2025-11-25T00:00	8200	330	-50.0	-57.9	232	24	
2025-11-25T00:00	8220	329	-49.9	-60.2	234	25	
2025-11-25T00:00	8240	328	-49.4	-62.5	235	25	
2025-11-25T00:00	8260	327	-48.9	-62.9	236	25	
2025-11-25T00:00	8280	326	-48.9	-61.8	236	25	
2025-11-25T00:00	8300	325	-49.0	-60.5	237	25	
2025-11-25T00:00	8320	324	-49.1	-60.3	237	25	
2025-11-25T00:00	8340	323	-49.2	-61.0	238	25	
2025-11-25T00:00	8360	322	-49.2	-62.5	238	25	
2025-11-25T00:00	8380	321	-49.3	-63.5	238	24	
2025-11-25T00:00	8400	320	-49.4	-63.5	238	24	
2025-11-25T00:00	8420	319	-49.5	-62.7	239	24	
2025-11-25T00:00	8440	318	-49.5	-61.7	240	23	
2025-11-25T00:00	8460	317	-49.4	-61.6	240	23	
2025-11-25T00:00	8480	316	-49.3	-62.5	241	23	
2025-11-25T00:00	8500	315	-49.4	-63.3	242	22	
2025-11-25T00:00	8520	314	-49.6	-63.6	243	22	
2025-11-25T00:00	8540	313	-49.7	-63.6	244	22	
2025-11-25T00:00	8560	312	-49.7	-63.5	244	21	
2025-11-25T00:00	8580	311	-49.7	-63.7	245	21	
2025-11-25T00:00	8600	310	-49.6	-64.5	245	21	
2025-11-25T00:00	8620	310	-49.7	-65.6	245	21	
2025-11-25T00:00	8640	309	-49.8	-66.0	246	21	
2025-11-25T00:00	8660	308	-49.9	-66.0	246	21	
2025-11-25T00:00	8680	307	-50.0	-65.9	246	21	
2025-11-25T00:00	8700	306	-50.1	-66.0	245	21	
2025-11-25T00:00	8720	305	-50.2	-66.2	245	21	
2025-11-25T00:00	8740	304	-50.2	-66.1	244	21	
2025-11-25T00:00	8760	303	-50.2	-65.8	244	22	
2025-11-25T00:00	8780	302	-50.1	-65.8	243	22	
2025-11-25T00:00	8800	301	-50.2	-66.1	243	22	
2025-11-25T00:00	8820	300	-50.2	-66.4	242	22	
2025-11-25T00:00	8840	299	-50.2	-66.5	242	22	
2025-11-25T00:00	8860	298	-50.3	-66.6	242	22	
2025-11-25T00:00	8880	297	-50.4	-66.8	242	22	
2025-11-25T00:00	8900	296	-50.3	-66.8	242	22	
2025-11-25T00:00	8920	296	-50.4	-66.8	243	22	
2025-11-25T00:00	8940	295	-50.4	-67.1	243	22	
2025-11-25T00:00	8960	294	-50.4	-67.3	243	22	
2025-11-25T00:00	8980	293	-50.4	-67.5	244	22	
2025-11-25T00:00	9000	292	-50.4	-67.6	245	21	
2025-11-25T00:00	9020	291	-50.5	-67.7	245	21	
2025-11-25T00:00	9040	290	-50.6	-67.6	245	21	
2025-11-25T00:00	9060	289	-50.8	-67.6	245	21	
2025-11-25T00:00	9080	288	-50.9	-67.9	245	21	
2025-11-25T00:00	9100	288	-51.0	-68.3	245	20	
2025-11-25T00:00	9120	287	-50.9	-69.0	245	20	
2025-11-25T00:00	9140	286	-50.6	-69.5	245	20	
2025-11-25T00:00	9160	285	-50.7	-70.0	245	20	
2025-11-25T00:00	9180	284	-50.8	-70.0	245	19	
2025-11-25T00:00	9200	283	-50.8	-69.9	244	19	
2025-11-25T00:00	9220	282	-50.8	-69.8	244	19	
2025-11-25T00:00	9240	281	-50.8	-70.0	244	19	
2025-11-25T00:00	9260	281	-50.6	-70.0	244	19	
2025-11-25T00:00	9280	280	-50.6	-69.9	243	19	
2025-11-25T00:00	9300	279	-50.7	-70.0	243	19	
2025-11-25T00:00	9320	278	-50.7	-70.1	243	19	
2025-11-25T00:00	9340	277	-50.8	-70.5	244	19	
2025-11-25T00:00	9360	276	-50.8	-70.8	244	19	
2025-11-25T00:00	9380	275	-50.7	-70.5	244	19	
2025-11-25T00:00	9400	275	-50.8	-70.1	245	19	
2025-11-25T00:00	9420	274	-50.9	-70.3	245	19	
2025-11-25T00:00	9440	273	-51.1	-70.6	245	19	
2025-11-25T00:00	9460	272	-51.3	-70.4	245	19	
2025-11-25T00:00	9480	271	-51.4	-70.4	245	19	
2025-11-25T00:00	9500	270	-51.5	-70.5	245	18	
2025-11-25T00:00	9520	270	-51.6	-70.6	244	18	
2025-11-25T00:00	9540	269	-51.7	-70.7	244	18	
2025-11-25T00:00	9560	268	-51.8	-70.8	243	18	
2025-11-25T00:00	9580	267	-51.7	-71.0	243	18	
2025-11-25T00:00	9600	266	-51.6	-71.1	242	18	
2025-11-25T00:00	9620	265	-51.6	-71.3	242	18	
2025-11-25T00:00	9640	265	-51.8	-71.1	242	18	
2025-11-25T00:00	9660	264	-51.8	-70.4	242	18	
2025-11-25T00:00	9680	263	-51.9	-69.8	243	19	
2025-11-25T00:00	9700	262	-52.1	-69.2	243	19	
2025-11-25T00:00	9720	261	-52.2	-68.4	244	20	
2025-11-25T00:00	9740	261	-52.2	-68.1	244	20	
2025-11-25T00:00	9760	260	-52.3	-68.1	245	20	
2025-11-25T00:00	9780	259	-52.4	-68.4	245	20	
2025-11-25T00:00	9800	258	-52.5	-68.6	245	20	
2025-11-25T00:00	9820	257	-52.7	-68.7	244	20	
2025-11-25T00:00	9840	257	-52.6	-68.6	244	20	
2025-11-25T00:00	9860	256	-52.7	-68.7	243	19	
2025-11-25T00:00	9880	255	-52.8	-69.0	242	18	
2025-11-25T00:00	9900	254	-52.9	-69.2	241	18	
2025-11-25T00:00	9920	253	-53.0	-69.4	241	18	
2025-11-25T00:00	9940	253	-53.1	-69.6	241	17	
2025-11-25T00:00	9960	252	-53.2	-69.9	241	17	
2025-11-25T00:00	9980	251	-53.2	-70.3	242	18	
2025-11-25T00:00	10000	250	-53.2	-70.9	243	18	
2025-11-25T00:00	10018	250	-53.2	-71.2	244	18	
2025-11-25T00:00	10050	248	-52.9	-71.0	244	19	
2025-11-25T00:00	10100	246	-53.1	-71.2	243	18	
2025-11-25T00:00	10150	245	-52.9	-71.3	239	18	
2025-11-25T00:00	10200	243	-53.0	-71.3	236	17	
2025-11-25T00:00	10250	241	-53.1	-71.1	239	17	
2025-11-25T00:00	10300	239	-53.0	-70.6	243	18	
2025-11-25T00:00	10350	237	-52.7	-71.1	246	19	
2025-11-25T00:00	10400	235	-52.9	-71.4	248	19	
2025-11-25T00:00	10450	233	-52.9	-71.4	247	19	
2025-11-25T00:00	10500	232	-53.0	-72.1	247	19	
2025-11-25T00:00	10550	230	-53.2	-73.7	248	18	
2025-11-25T00:00	10600	228	-53.3	-73.6	248	18	
2025-11-25T00:00	10650	226	-53.3	-73.9	247	18	
2025-11-25T00:00	10700	224	-53.1	-74.3	247	19	
2025-11-25T00:00	10750	223	-52.9	-75.5	249	19	
2025-11-25T00:00	10800	221	-52.9	-75.7	251	19	
2025-11-25T00:00	10850	219	-53.2	-76.4	253	19	
2025-11-25T00:00	10900	218	-52.9	-77.1	254	19	
2025-11-25T00:00	10950	216	-52.8	-76.6	255	19	
2025-11-25T00:00	11000	214	-52.9	-75.8	256	19	
2025-11-25T00:00	11050	213	-53.1	-76.1	256	19	
2025-11-25T00:00	11100	211	-53.2	-76.4	255	19	
2025-11-25T00:00	11150	209	-53.6	-76.5	253	19	
2025-11-25T00:00	11200	208	-54.0	-76.5	252	20	
2025-11-25T00:00	11250	206	-54.5	-76.6	252	20	
2025-11-25T00:00	11300	204	-54.6	-76.6	254	20	
2025-11-25T00:00	11350	203	-54.5	-76.8	258	20	
2025-11-25T00:00	11400	201	-54.7	-77.0	262	20	
2025-11-25T00:00	11450	200	-54.9	-77.0	265	20	
2025-11-25T00:00	11500	198	-54.9	-77.3	268	20	
2025-11-25T00:00	11550	197	-55.0	-77.6	269	19	
2025-11-25T00:00	11600	195	-54.9	-77.5	269	19	
2025-11-25T00:00	11650	194	-55.2	-77.6	269	18	
2025-11-25T00:00	11700	192	-55.4	-77.8	267	17	
2025-11-25T00:00	11750	191	-55.6	-78.0	264	17	
2025-11-25T00:00	11800	189	-55.4	-78.1	261	17	
2025-11-25T00:00	11850	188	-55.4	-78.2	261	17	
2025-11-25T00:00	11900	186	-55.4	-78.3	262	16	
2025-11-25T00:00	11950	185	-55.5	-78.7	261	16	
2025-11-25T00:00	12000	183	-55.0	-78.5	257	16	
2025-11-25T00:00	12050	182	-54.7	-78.7	255	17	
2025-11-25T00:00	12100	180	-54.6	-78.7	254	19	
2025-11-25T00:00	12150	179	-54.9	-79.1	254	20	
2025-11-25T00:00	12200	178	-54.9	-78.6	254	20	
2025-11-25T00:00	12250	176	-54.7	-78.5	256	20	
2025-11-25T00:00	12300	175	-54.9	-78.9	258	20	
2025-11-25T00:00	12350	173	-55.2	-79.1	257	19	
2025-11-25T00:00	12400	172	-55.4	-79.2	256	19	
2025-11-25T00:00	12450	171	-55.3	-79.3	255	20	
2025-11-25T00:00	12500	170	-55.3	-79.2	255	20	
2025-11-25T00:00	12550	168	-55.6	-78.7	255	20	
2025-11-25T00:00	12600	167	-55.6	-78.8	255	20	
2025-11-25T00:00	12650	166	-55.5	-79.3	254	20	
2025-11-25T00:00	12700	164	-55.1	-79.3	254	20	
2025-11-25T00:00	12750	163	-55.4	-79.4	253	20	
2025-11-25T00:00	12800	162	-55.7	-79.6	253	21	
2025-11-25T00:00	12850	160	-55.9	-79.7	252	21	
2025-11-25T00:00	12900	159	-56.2	-79.9	252	21	
2025-11-25T00:00	12950	158	-56.6	-80.0	254	21	
2025-11-25T00:00	13000	157	-56.8	-79.9	255	21	
2025-11-25T00:00	13050	155	-56.9	-80.0	256	22	
2025-11-25T00:00	13100	154	-56.9	-80.1	257	22	
2025-11-25T00:00	13150	153	-56.4	-80.1	260	22	
2025-11-25T00:00	13200	152	-56.4	-80.2	263	22	
2025-11-25T00:00	13250	151	-56.6	-80.1	267	22	
2025-11-25T00:00	13300	149	-56.8	-80.2	270	22	
2025-11-25T00:00	13350	148	-57.1	-80.8	274	23	
2025-11-25T00:00	13400	147	-57.1	-80.7	276	22	
2025-11-25T00:00	13450	146	-56.8	-80.1	276	21	
2025-11-25T00:00	13500	145	-56.7	-79.9	275	20	
2025-11-25T00:00	13550	144	-56.7	-80.4	273	20	
2025-11-25T00:00	13600	142	-56.8	-81.1	271	20	
2025-11-25T00:00	13650	141	-56.8	-81.0	270	20	
2025-11-25T00:00	13700	140	-56.8	-80.8	269	19	
2025-11-25T00:00	13750	139	-56.6	-81.0	266	19	
2025-11-25T00:00	13800	138	-56.7	-81.1	266	19	
2025-11-25T00:00	13850	137	-56.8	-81.0	269	18	
2025-11-25T00:00	13900	136	-56.9	-81.1	272	17	
2025-11-25T00:00	13950	135	-56.8	-81.1	274	17	
2025-11-25T00:00	14000	134	-56.8	-81.1	277	17	
2025-11-25T00:00	14050	133	-57.0	-81.2	280	17	
2025-11-25T00:00	14100	132	-57.4	-81.3	282	17	
2025-11-25T00:00	14150	131	-57.7	-81.5	284	17	
2025-11-25T00:00	14200	130	-57.8	-81.6	285	16	
2025-11-25T00:00	14250	129	-57.7	-81.7	283	16	
2025-11-25T00:00	14300	128	-57.7	-81.7	281	15	
2025-11-25T00:00	14350	127	-57.9	-81.8	280	15	
2025-11-25T00:00	14400	126	-58.1	-81.9	277	15	
2025-11-25T00:00	14450	125	-58.4	-82.0	274	15	
2025-11-25T00:00	14500	124	-58.6	-82.2	271	15	
2025-11-25T00:00	14550	123	-58.5	-82.2	268	15	
2025-11-25T00:00	14600	122	-58.6	-82.2	266	16	
2025-11-25T00:00	14650	121	-58.8	-82.3	265	16	
2025-11-25T00:00	14700	120	-59.0	-82.4	265	16	
2025-11-25T00:00	14750	119	-59.1	-82.4	265	17	
2025-11-25T00:00	14800	118	-59.5	-82.6	265	18	
2025-11-25T00:00	14850	117	-59.8	-82.7	266	19	
2025-11-25T00:00	14900	116	-60.0	-82.8	268	19	
2025-11-25T00:00	14950	115	-60.1	-82.8	269	19	
2025-11-25T00:00	15000	114	-60.2	-82.9	272	20	
2025-11-25T00:00	15050	113	-60.5	-83.2	274	20	
2025-11-25T00:00	15100	112	-60.5	-83.3	276	21	
2025-11-25T00:00	15150	111	-60.5	-83.4	276	21	
2025-11-25T00:00	15200	110	-60.4	-83.5	278	20	
2025-11-25T00:00	15250	110	-60.3	-83.4	279	18	
2025-11-25T00:00	15300	109	-60.4	-83.5	281	17	
2025-11-25T00:00	15350	108	-60.2	-83.5	282	16	
2025-11-25T00:00	15400	107	-60.1	-83.6	282	15	
2025-11-25T00:00	15450	106	-60.1	-83.6	283	14	
2025-11-25T00:00	15500	105	-60.2	-83.6	283	13	
2025-11-25T00:00	15550	104	-60.4	-83.7	283	12	
2025-11-25T00:00	15600	104	-60.6	-83.8	282	12	
2025-11-25T00:00	15650	103	-60.8	-83.9	281	12	
2025-11-25T00:00	15700	102	-61.0	-84.0	281	12	
2025-11-25T00:00	15750	101	-61.3	-84.2	280	12	
2025-11-25T00:00	15800	100	-61.0	-84.1	278	12	
2025-11-25T00:00	15850	100	-61.0	-84.2	276	12	
2025-11-25T00:00	15900	99	-61.2	-84.2	274	13	
2025-11-25T00:00	15950	98	-61.5	-84.4	271	13	
2025-11-25T00:00	16000	97	-61.4	-84.4	271	14	
2025-11-25T00:00	16050	96	-61.6	-84.4	271	15	
2025-11-25T00:00	16100	96	-61.8	-84.5	271	15	
2025-11-25T00:00	16150	95	-62.0	-84.6	271	15	
2025-11-25T00:00	16200	94	-62.3	-84.7	271	15	
2025-11-25T00:00	16250	93	-62.6	-84.7	271	15	
2025-11-25T00:00	16300	93	-62.8	-84.8	271	16	
2025-11-25T00:00	16350	92	-63.1	-84.9	271	17	
2025-11-25T00:00	16400	91	-63.5	-85.0	271	18	
2025-11-25T00:00	16450	90	-63.7	-85.1	271	18	
2025-11-25T00:00	16500	90	-64.0	-85.2	272	19	
2025-11-25T00:00	16550	89	-64.2	-85.2	272	19	
2025-11-25T00:00	16600	88	-64.4	-85.2	272	18	
2025-11-25T00:00	16650	87	-64.7	-85.1	271	18	
2025-11-25T00:00	16700	87	-65.0	-85.1	269	18	
2025-11-25T00:00	16750	86	-65.1	-85.1	268	18	
2025-11-25T00:00	16800	85	-65.3	-85.3	269	18	
2025-11-25T00:00	16850	85	-65.3	-85.5	270	18	
2025-11-25T00:00	16900	84	-65.5	-85.5	271	18	
2025-11-25T00:00	16950	83	-65.7	-85.5	271	19	
2025-11-25T00:00	17000	83	-65.7	-85.7	269	21	
2025-11-25T00:00	17050	82	-65.6	-85.9	267	23	
2025-11-25T00:00	17100	81	-65.8	-86.2	266	23	
2025-11-25T00:00	17150	80	-65.6	-86.0	267	23	
2025-11-25T00:00	17200	80	-65.6	-86.0	268	22	
2025-11-25T00:00	17250	79	-65.7	-86.2	269	22	
2025-11-25T00:00	17300	79	-65.6	-86.2	267	22	
2025-11-25T00:00	17350	78	-65.5	-86.4	266	23	
2025-11-25T00:00	17400	77	-65.2	-86.2	266	25	
2025-11-25T00:00	17450	77	-65.3	-86.3	266	26	
2025-11-25T00:00	17500	76	-65.6	-86.4	265	27	
2025-11-25T00:00	17550	75	-65.7	-86.3	265	27	
2025-11-25T00:00	17600	75	-65.7	-86.2	265	26	
2025-11-25T00:00	17650	74	-65.8	-86.2	265	25	
2025-11-25T00:00	17700	74	-65.8	-86.1	267	24	
2025-11-25T00:00	17750	73	-65.6	-85.7	269	24	
2025-11-25T00:00	17800	72	-65.7	-85.6	270	23	
2025-11-25T00:00	17850	72	-65.7	-85.6	268	23	
2025-11-25T00:00	17900	71	-65.5	-85.5	265	23	
2025-11-25T00:00	17950	71	-65.4	-85.6	262	23	
2025-11-25T00:00	18000	70	-65.5	-85.8	263	23	
2025-11-25T00:00	18050	69	-65.5	-86.0	265	23	
2025-11-25T00:00	18100	69	-65.6	-86.2	268	23	
2025-11-25T00:00	18150	68	-65.9	-86.4	269	22	
2025-11-25T00:00	18200	68	-65.8	-86.4	267	21	
2025-11-25T00:00	18250	67	-65.6	-86.5	263	20	
2025-11-25T00:00	18300	67	-65.2	-86.4	256	20	
2025-11-25T00:00	18350	66	-65.0	-86.4	250	20	
2025-11-25T00:00	18400	66	-64.6	-86.2	246	21	
2025-11-25T00:00	18450	65	-64.6	-86.3	244	22	
2025-11-25T00:00	18500	65	-64.3	-86.0	244	22	
2025-11-25T00:00	18550	64	-64.6	-86.0	245	22	
2025-11-25T00:00	18600	63	-65.0	-86.1	246	21	
2025-11-25T00:00	18650	63	-65.4	-86.2	248	21	
2025-11-25T00:00	18700	62	-65.9	-86.3	253	21	
2025-11-25T00:00	18750	62	-66.3	-86.5	257	22	
2025-11-25T00:00	18800	61	-66.6	-86.7	260	23	
2025-11-25T00:00	18850	61	-66.4	-86.8	262	23	
2025-11-25T00:00	18900	60	-66.6	-86.9	262	22	
2025-11-25T00:00	18950	60	-66.8	-87.1	261	21	
2025-11-25T00:00	19000	59	-67.0	-87.2	261	21	
2025-11-25T00:00	19050	59	-67.1	-87.3	260	20	
2025-11-25T00:00	19100	58	-67.0	-87.3	257	19	
2025-11-25T00:00	19150	58	-66.8	-87.3	255	19	
2025-11-25T00:00	19200	57	-66.8	-87.3	254	18	
2025-11-25T00:00	19250	57	-66.8	-87.2	257	18	
2025-11-25T00:00	19300	57	-67.0	-87.3	260	18	
2025-11-25T00:00	19350	56	-67.2	-87.2	265	19	
2025-11-25T00:00	19400	56	-67.4	-87.2	269	19	
2025-11-25T00:00	19450	55	-67.7	-87.4	272	19	
2025-11-25T00:00	19500	55	-68.0	-87.7	273	19	
2025-11-25T00:00	19550	54	-67.7	-87.6	271	19	
2025-11-25T00:00	19600	54	-67.5	-87.5	269	19	
2025-11-25T00:00	19650	53	-67.5	-87.5	266	18	
2025-11-25T00:00	19700	53	-67.7	-87.5	263	17	
2025-11-25T00:00	19750	52	-67.8	-87.3	261	17	
2025-11-25T00:00	19800	52	-68.1	-87.4	260	16	
2025-11-25T00:00	19850	52	-68.0	-87.3	262	16	
2025-11-25T00:00	19900	51	-67.8	-87.3	264	16	
2025-11-25T00:00	19950	51	-67.9	-87.5	264	17	
2025-11-25T00:00	20000	50	-67.9	-87.7	265	17	
2025-11-25T00:00	20050	50	-67.8		265	18	
2025-11-25T00:00	20100	49	-67.9		266	18	
2025-11-25T00:00	20150	49	-68.1		268	18	
2025-11-25T00:00	20200	49	-68.1		269	19	
2025-11-25T00:00	20250	48	-68.0		270	21	
2025-11-25T00:00	20300	48	-68.1		271	21	
2025-11-25T00:00	20350	47	-68.1		272	22	
2025-11-25T00:00	20400	47	-68.1		271	22	
2025-11-25T00:00	20450	47	-68.4		269	22	
2025-11-25T00:00	20500	46	-68.7		267	22	
2025-11-25T00:00	20550	46	-68.8		266	22	
2025-11-25T00:00	20600	45	-68.5		269	23	
2025-11-25T00:00	20650	45	-67.8		272	25	
2025-11-25T00:00	20700	45	-68.0		275	26	
2025-11-25T00:00	20750	44	-68.2		280	27	
2025-11-25T00:00	20800	44	-68.2		283	27	
2025-11-25T00:00	20850	44	-67.9		284	27	
2025-11-25T00:00	20900	43	-67.3		282	27	
2025-11-25T00:00	20950	43	-67.3		280	27	
2025-11-25T00:00	21000	43	-67.0		279	27	
2025-11-25T00:00	21050	42	-66.7		280	27	
2025-11-25T00:00	21100	42	-66.9		281	26	
2025-11-25T00:00	21150	42	-67.1		281	26	
2025-11-25T00:00	21200	41	-67.2		280	26	
2025-11-25T00:00	21250	41	-67.0		278	26	
2025-11-25T00:00	21300	41	-67.4		276	27	
2025-11-25T00:00	21350	40	-67.7		275	27	
2025-11-25T00:00	21400	40	-67.9		276	27	
2025-11-25T00:00	21450	40	-67.9		277	27	
2025-11-25T00:00	21500	39	-68.0		278	27	
2025-11-25T00:00	21550	39	-67.7		279	27	
2025-11-25T00:00	21600	39	-67.4		278	28	
2025-11-25T00:00	21650	38	-67.5		278	28	
2025-11-25T00:00	21700	38	-67.5		278	29	
2025-11-25T00:00	21750	38	-67.8		278	29	
2025-11-25T00:00	21800	37	-67.7		278	30	
2025-11-25T00:00	21850	37	-67.4		278	31	
2025-11-25T00:00	21900	37	-67.1		277	31	
2025-11-25T00:00	21950	36	-66.7		275	32	
2025-11-25T00:00	22000	36	-66.5		274	32	
2025-11-25T00:00	22050	36	-66.4		273	33	
2025-11-25T00:00	22100	35	-66.1		273	32	
2025-11-25T00:00	22150	35	-65.9		273	30	
2025-11-25T00:00	22200	35	-65.6		274	28	
2025-11-25T00:00	22250	35	-65.2		273	29	
2025-11-25T00:00	22300	34	-64.5		273	29	
2025-11-25T00:00	22350	34	-64.1		273	28	
2025-11-25T00:00	22400	34	-64.0		274	27	
2025-11-25T00:00	22450	33	-63.4		274	26	
2025-11-25T00:00	22500	33	-63.0		271	24	
2025-11-25T00:00	22550	33	-62.9		267	23	
2025-11-25T00:00	22600	33	-62.5		262	23	
2025-11-25T00:00	22650	32	-62.5		258	22	
2025-11-25T00:00	22700	32	-62.6		255	23	
2025-11-25T00:00	22750	32	-62.8		253	24	
2025-11-25T00:00	22800	32	-63.0		251	25	
2025-11-25T00:00	22850	31	-63.3		249	26	
2025-11-25T00:00	22900	31	-63.1		247	27	
2025-11-25T00:00	22950	31	-63.1		246	27	
2025-11-25T00:00	23000	31	-63.4		246	27	
2025-11-25T00:00	23050	30	-63.8		245	27	
2025-11-25T00:00	23100	30	-64.2		245	26	
2025-11-25T00:00	23150	30	-64.4		245	26	
2025-11-25T00:00	23200	30	-64.6		245	25	
2025-11-25T00:00	23250	29	-64.8		246	24	
2025-11-25T00:00	23300	29	-65.1		248	25	
2025-11-25T00:00	23350	29	-65.4		249	25	
2025-11-25T00:00	23400	29	-65.8		249	26	
2025-11-25T00:00	23450	28	-66.1		250	26	
2025-11-25T00:00	23500	28	-66.3		252	27	
2025-11-25T00:00	23550	28	-66.6		255	27	
2025-11-25T00:00	23600	28	-66.9		258	28	
2025-11-25T00:00	23650	28	-66.7		261	28	
2025-11-25T00:00	23700	27	-66.8		263	29	
2025-11-25T00:00	23750	27	-66.5		263	31	
2025-11-25T00:00	23800	27	-66.2		262	32	
2025-11-25T00:00	23850	27	-66.1		262	33	
2025-11-25T00:00	23900	26	-65.8		263	33	
2025-11-25T00:00	23950	26	-65.6		264	33	
2025-11-25T00:00	24000	26	-65.3		265	33	
2025-11-25T00:00	24050	26	-65.4		264	33	
2025-11-25T00:00	24100	26	-65.6		263	33	
2025-11-25T00:00	24150	25	-64.9		264	34	
2025-11-25T00:00	24200	25	-64.6		264	35	
2025-11-25T00:00	24250	25	-64.7		263	36	
2025-11-25T00:00	24300	25	-64.8		262	37	
2025-11-25T00:00	24350	25	-64.9		261	37	
2025-11-25T00:00	24400	24	-64.9		259	36	
2025-11-25T00:00	24450	24	-64.7		257	36	
2025-11-25T00:00	24500	24	-64.4		254	36	
2025-11-25T00:00	24550	24	-64.6		253	37	
2025-11-25T00:00	24600	24	-65.1		252	37	
2025-11-25T00:00	24650	23	-65.5		252	38	
2025-11-25T00:00	24700	23	-65.6		252	38	
2025-11-25T00:00	24750	23	-65.7		253	38	
2025-11-25T00:00	24800	23	-66.0		254	37	
2025-11-25T00:00	24850	23	-66.3		255	37	
2025-11-25T00:00	24900	22	-66.7		255	37	
2025-11-25T00:00	24950	22	-67.1		256	37	
2025-11-25T00:00	25000	22	-67.1		257	37	
2025-11-25T00:00	25050	22	-67.2		257	37	
2025-11-25T00:00	25100	22	-67.2		257	38	
2025-11-25T00:00	25150	21	-67.2		256	38	
2025-11-25T00:00	25200	21	-67.4		255	38	
2025-11-25T00:00	25250	21	-67.7		253	39	
2025-11-25T00:00	25300	21	-67.7		252	40	
2025-11-25T00:00	25350	21	-67.4		251	42	
2025-11-25T00:00	25400	21	-67.0		250	43	
2025-11-25T00:00	25450	20	-67.1		250	44	
2025-11-25T00:00	25500	20	-67.4		250	44	
2025-11-25T00:00	25550	20	-67.9		250	45	
2025-11-25T00:00	25600	20	-68.2		250	46	
2025-11-25T00:00	25650	20	-68.6		250	47	
2025-11-25T00:00	25700	20	-68.1		250	47	
2025-11-25T00:00	25750	19	-68.0		251	47	
2025-11-25T00:00	25800	19	-68.1		251	47	
2025-11-25T00:00	25850	19	-68.3		251	47	
2025-11-25T00:00	25900	19	-68.2		251	47	
2025-11-25T00:00	25950	19	-68.2		250	47	
2025-11-25T00:00	26000	19	-68.4		249	48	
2025-11-25T00:00	26050	19	-68.6		248	49	
2025-11-25T00:00	26100	18	-68.7		248	49	
2025-11-25T00:00	26150	18	-69.1		249	49	
2025-11-25T00:00	26200	18	-69.2		250	51	
2025-11-25T00:00	26250	18	-68.7		251	53	
2025-11-25T00:00	26300	18	-68.0		253	54	
2025-11-25T00:00	26350	18	-67.9		254	54	
2025-11-25T00:00	26400	17	-68.2		256	54	
2025-11-25T00:00	26450	17	-68.5		257	54	
2025-11-25T00:00	26500	17	-68.4		259	54	
2025-11-25T00:00	26550	17	-67.9		260	54	
2025-11-25T00:00	26600	17	-67.9		260	54	
2025-11-25T00:00	26650	17	-68.0		261	54	
2025-11-25T00:00	26700	17	-67.9		261	55	
2025-11-25T00:00	26750	16	-67.8		261	56	
2025-11-25T00:00	26800	16	-68.1		261	57	
2025-11-25T00:00	26850	16	-67.4		262	57	
2025-11-25T00:00	26900	16	-67.5		262	57	
2025-11-25T00:00	26950	16	-67.6		262	57	
2025-11-25T00:00	27000	16	-67.7		262	57	
2025-11-25T00:00	27050	16	-67.9		262	57	
2025-11-25T00:00	27100	16	-67.6		263	58	
2025-11-25T00:00	27150	15	-67.3		264	58	
2025-11-25T00:00	27200	15	-67.2		264	58	
2025-11-25T00:00	27250	15	-67.2		264	58	
2025-11-25T00:00	27300	15	-67.3		263	58	
2025-11-25T00:00	27350	15	-67.1		264	59	
2025-11-25T00:00	27400	15	-66.8		265	60	
2025-11-25T00:00	27450	15	-66.1		264	61	
2025-11-25T00:00	27500	15	-65.2		265	64	
2025-11-25T00:00	27550	14	-63.3		264	64	
2025-11-25T00:00	27600	14	-61.6		265	63	
2025-11-25T00:00	27650	14	-60.8		265	61	
2025-11-25T00:00	27700	14	-59.3		263	59	
2025-11-25T00:00	27750	14	-58.5		261	58	
2025-11-25T00:00	27800	14	-57.9		259	58	
2025-11-25T00:00	27850	14	-57.8		258	58	
2025-11-25T00:00	27900	14	-57.8		258	58	
2025-11-25T00:00	27950	14	-57.8		258	59	
2025-11-25T00:00	28000	13	-57.9		257	60	
2025-11-25T00:00	28050	13	-58.2		257	61	
2025-11-25T00:00	28100	13	-58.2		256	61	
2025-11-25T00:00	28150	13	-58.3		256	62	
2025-11-25T00:00	28200	13	-58.6		255	63	
2025-11-25T00:00	28250	13	-58.7		255	63	
2025-11-25T00:00	28300	13	-58.9		255	64	
2025-11-25T00:00	28350	13	-59.1		255	65	
2025-11-25T00:00	28400	13	-59.2		254	65	
2025-11-25T00:00	28450	13	-59.5		254	66	
2025-11-25T00:00	28500	12	-59.8		254	67	
2025-11-25T00:00	28550	12	-60.1		253	68	
2025-11-25T00:00	28600	12	-60.4		253	68	
2025-11-25T00:00	28650	12	-60.7		252	69	
2025-11-25T00:00	28700	12	-61.0		252	69	
2025-11-25T00:00	28750	12	-61.4		251	70	
2025-11-25T00:00	28800	12	-61.7		251	70	
2025-11-25T00:00	28850	12	-61.9		251	71	
2025-11-25T00:00	28900	12	-62.0		251	71	
2025-11-25T00:00	28950	12	-62.4		252	71	
2025-11-25T00:00	29000	11	-62.9		253	70	
2025-11-25T00:00	29050	11	-63.3		253	70	
2025-11-25T00:00	29100	11	-63.7		254	70	
2025-11-25T00:00	29150	11	-63.5		254	70	
2025-11-25T00:00	29200	11	-63.5		254	71	
2025-11-25T00:00	29250	11	-63.8		254	72	
2025-11-25T00:00	29300	11	-63.7		255	73	
2025-11-25T00:00	29350	11	-63.5		256	75	
2025-11-25T00:00	29400	11	-63.7		258	75	
2025-11-25T00:00	29450	11	-63.2		260	74	
2025-11-25T00:00	29500	11	-62.6		262	74	
2025-11-25T00:00	29550	10	-62.5		263	74	
2025-11-25T00:00	29600	10	-61.6		263	73	
2025-11-25T12:00	491	947	4.9	2.6	204	5	
2025-11-25T12:00	501	946	4.6	2.3	220	5	
2025-11-25T12:00	520	944	4.3	2.0	224	6	
2025-11-25T12:00	540	941	4.1	1.7	223	7	
2025-11-25T12:00	560	939	3.9	1.5	224	8	
2025-11-25T12:00	580	937	3.7	1.4	224	8	
2025-11-25T12:00	600	934	3.5	1.3	224	9	
2025-11-25T12:00	620	932	3.4	1.3	225	9	
2025-11-25T12:00	640	930	3.3	1.2	226	9	
2025-11-25T12:00	660	928	3.1	1.0	228	9	
2025-11-25T12:00	680	925	3.0	0.9	230	9	
2025-11-25T12:00	700	923	2.7	1.0	233	9	
2025-11-25T12:00	720	921	2.5	0.9	236	9	
2025-11-25T12:00	740	919	2.4	0.7	238	9	
2025-11-25T12:00	760	916	2.3	0.5	241	10	
2025-11-25T12:00	780	914	2.1	0.6	243	10	
2025-11-25T12:00	800	912	1.9	0.5	245	10	
2025-11-25T12:00	820	909	1.8	0.0	247	10	
2025-11-25T12:00	840	907	1.6	-0.1	250	10	
2025-11-25T12:00	860	905	1.5	-0.2	251	10	
2025-11-25T12:00	880	903	1.3	-0.4	253	10	
2025-11-25T12:00	900	901	1.1	-0.4	254	10	
2025-11-25T12:00	920	898	0.9	-0.3	255	10	
2025-11-25T12:00	940	896	0.8	-0.7	256	10	
2025-11-25T12:00	960	894	0.6	-0.8	258	10	
2025-11-25T12:00	980	892	0.5	-0.9	260	10	
2025-11-25T12:00	1000	889	0.3	-1.0	262	10	
2025-11-25T12:00	1020	887	0.2	-1.1	264	10	
2025-11-25T12:00	1040	885	-0.1	-0.7	266	10	
2025-11-25T12:00	1060	883	-0.2	-1.2	268	10	
2025-11-25T12:00	1080	881	-0.2	-1.6	270	10	
2025-11-25T12:00	1100	878	-0.4	-1.6	272	9	
2025-11-25T12:00	1120	876	-0.5	-1.7	274	9	
2025-11-25T12:00	1140	874	-0.6	-1.9	275	9	
2025-11-25T12:00	1160	872	-0.8	-2.0	278	9	
2025-11-25T12:00	1180	870	-0.8	-2.2	279	9	
2025-11-25T12:00	1200	868	-1.0	-2.3	280	9	
2025-11-25T12:00	1220	865	-1.1	-2.5	281	10	
2025-11-25T12:00	1240	863	-1.2	-2.7	282	10	
2025-11-25T12:00	1260	861	-1.3	-2.8	283	10	
2025-11-25T12:00	1280	859	-1.3	-3.1	284	10	
2025-11-25T12:00	1300	857	-1.5	-3.1	285	11	
2025-11-25T12:00	1320	854	-1.6	-3.2	286	11	
2025-11-25T12:00	1340	852	-1.8	-3.3	287	11	
2025-11-25T12:00	1360	850	-2.0	-3.5	287	11	
2025-11-25T12:00	1380	848	-2.1	-3.5	288	11	
2025-11-25T12:00	1400	846	-2.3	-3.5	288	11	
2025-11-25T12:00	1420	844	-2.5	-3.6	288	11	
2025-11-25T12:00	1440	842	-2.6	-3.7	288	11	
2025-11-25T12:00	1460	840	-2.8	-3.7	288	12	
2025-11-25T12:00	1480	838	-3.1	-3.7	288	12	
2025-11-25T12:00	1500	835	-3.3	-3.8	288	12	
2025-11-25T12:00	1520	833	-3.5	-3.9	289	12	
2025-11-25T12:00	1540	831	-3.6	-3.9	290	13	
2025-11-25T12:00	1560	829	-3.8	-4.0	290	13	
2025-11-25T12:00	1580	827	-4.0	-4.1	291	13	
2025-11-25T12:00	1600	825	-4.1	-4.3	292	13	
2025-11-25T12:00	1620	823	-4.1	-4.6	292	13	
2025-11-25T12:00	1640	821	-4.1	-5.0	292	13	
2025-11-25T12:00	1660	819	-4.2	-5.3	291	13	
2025-11-25T12:00	1680	816	-4.4	-5.4	291	13	
2025-11-25T12:00	1700	815	-4.4	-5.6	290	13	
2025-11-25T12:00	1720	813	-4.4	-5.9	290	13	
2025-11-25T12:00	1740	810	-4.4	-6.3	289	13	
2025-11-25T12:00	1760	808	-4.6	-6.3	288	13	
2025-11-25T12:00	1780	806	-4.7	-6.5	287	13	
2025-11-25T12:00	1800	804	-4.9	-6.7	287	13	
2025-11-25T12:00	1820	802	-5.0	-6.9	286	13	
2025-11-25T12:00	1840	800	-5.1	-7.2	286	13	
2025-11-25T12:00	1860	798	-5.2	-7.5	285	13	
2025-11-25T12:00	1880	796	-5.3	-7.7	284	13	
2025-11-25T12:00	1900	794	-5.5	-7.7	284	13	
2025-11-25T12:00	1920	792	-5.6	-7.9	283	13	
2025-11-25T12:00	1940	790	-5.7	-8.5	282	13	
2025-11-25T12:00	1960	788	-5.8	-8.7	281	13	
2025-11-25T12:00	1980	786	-6.0	-8.8	280	13	
2025-11-25T12:00	2000	784	-6.1	-9.0	280	13	
2025-11-25T12:00	2020	782	-6.3	-9.2	279	13	
2025-11-25T12:00	2040	780	-6.4	-9.2	279	13	
2025-11-25T12:00	2060	778	-6.6	-9.2	279	13	
2025-11-25T12:00	2080	776	-6.8	-9.4	279	13	
2025-11-25T12:00	2100	774	-6.9	-9.7	280	14	
2025-11-25T12:00	2120	772	-7.0	-10.0	280	14	
2025-11-25T12:00	2140	770	-7.2	-10.2	280	14	
2025-11-25T12:00	2160	768	-7.3	-10.4	281	13	
2025-11-25T12:00	2180	766	-7.5	-10.4	281	13	
2025-11-25T12:00	2200	764	-7.6	-10.4	282	13	
2025-11-25T12:00	2220	762	-7.8	-10.5	282	12	
2025-11-25T12:00	2240	760	-8.0	-10.7	283	12	
2025-11-25T12:00	2260	758	-8.0	-10.8	283	12	
2025-11-25T12:00	2280	756	-8.1	-10.9	284	11	
2025-11-25T12:00	2300	754	-8.3	-10.9	284	11	
2025-11-25T12:00	2320	752	-8.5	-11.1	284	11	
2025-11-25T12:00	2340	750	-8.6	-11.2	283	11	
2025-11-25T12:00	2360	749	-8.8	-11.3	283	11	
2025-11-25T12:00	2380	747	-9.0	-11.3	282	11	
2025-11-25T12:00	2400	745	-9.1	-11.3	282	11	
2025-11-25T12:00	2420	743	-9.3	-11.3	282	11	
2025-11-25T12:00	2440	741	-9.5	-11.3	282	11	
2025-11-25T12:00	2460	739	-9.7	-11.3	282	11	
2025-11-25T12:00	2480	737	-9.8	-11.5	283	11	
2025-11-25T12:00	2500	735	-9.9	-11.7	283	11	
2025-11-25T12:00	2520	733	-10.1	-11.8	285	11	
2025-11-25T12:00	2540	732	-10.2	-12.1	286	11	
2025-11-25T12:00	2560	729	-10.3	-12.8	287	11	
2025-11-25T12:00	2580	728	-10.4	-12.9	288	11	
2025-11-25T12:00	2600	726	-10.6	-13.0	289	11	
2025-11-25T12:00	2620	724	-10.7	-13.4	290	11	
2025-11-25T12:00	2640	722	-10.9	-13.5	290	11	
2025-11-25T12:00	2660	720	-11.0	-13.7	290	11	
2025-11-25T12:00	2680	718	-11.1	-13.9	290	11	
2025-11-25T12:00	2700	717	-11.3	-13.9	289	11	
2025-11-25T12:00	2720	715	-11.5	-14.0	288	11	
2025-11-25T12:00	2740	713	-11.7	-14.0	287	11	
2025-11-25T12:00	2760	711	-11.9	-14.0	285	11	
2025-11-25T12:00	2780	709	-12.1	-14.1	284	11	
2025-11-25T12:00	2800	707	-12.3	-14.0	283	11	
2025-11-25T12:00	2820	705	-12.5	-14.0	281	10	
2025-11-25T12:00	2840	703	-12.6	-13.6	281	10	
2025-11-25T12:00	2860	701	-12.7	-13.5	280	10	
2025-11-25T12:00	2880	700	-12.8	-13.5	279	10	
2025-11-25T12:00	2900	698	-13.0	-13.5	279	10	
2025-11-25T12:00	2920	696	-13.2	-13.4	279	10	
2025-11-25T12:00	2940	694	-13.3	-13.5	279	10	
2025-11-25T12:00	2960	692	-13.4	-13.7	280	10	
2025-11-25T12:00	2980	691	-13.5	-13.8	280	9	
2025-11-25T12:00	3000	689	-13.6	-14.0	281	10	
2025-11-25T12:00	3020	687	-13.8	-14.1	282	10	
2025-11-25T12:00	3040	685	-14.0	-14.2	282	10	
2025-11-25T12:00	3060	684	-14.2	-14.2	283	10	
2025-11-25T12:00	3080	682	-14.3	-14.4	283	10	
2025-11-25T12:00	3100	680	-14.5	-14.5	283	10	
2025-11-25T12:00	3120	678	-14.6	-14.7	282	10	
2025-11-25T12:00	3140	676	-14.7	-15.0	282	10	
2025-11-25T12:00	3160	674	-14.9	-15.1	281	10	
2025-11-25T12:00	3180	673	-15.0	-15.2	280	10	
2025-11-25T12:00	3200	671	-15.1	-15.4	278	10	
2025-11-25T12:00	3220	669	-15.2	-15.7	277	10	
2025-11-25T12:00	3240	667	-15.2	-15.9	277	10	
2025-11-25T12:00	3260	666	-15.3	-16.1	276	10	
2025-11-25T12:00	3280	664	-15.3	-16.4	275	10	
2025-11-25T12:00	3300	662	-15.4	-16.5	274	10	
2025-11-25T12:00	3320	660	-15.5	-16.5	273	10	
2025-11-25T12:00	3340	658	-15.7	-16.6	272	10	
2025-11-25T12:00	3360	657	-15.9	-16.8	272	10	
2025-11-25T12:00	3380	655	-16.0	-16.9	271	10	
2025-11-25T12:00	3400	653	-16.2	-17.2	270	10	
2025-11-25T12:00	3420	652	-16.3	-17.1	270	10	
2025-11-25T12:00	3440	650	-16.5	-17.2	270	11	
2025-11-25T12:00	3460	648	-16.7	-17.6	271	11	
2025-11-25T12:00	3480	646	-16.8	-17.9	272	11	
2025-11-25T12:00	3500	645	-16.9	-18.5	273	11	
2025-11-25T12:00	3520	643	-17.0	-18.7	274	11	
2025-11-25T12:00	3540	641	-17.1	-18.7	275	11	
2025-11-25T12:00	3560	640	-17.3	-18.9	276	11	
2025-11-25T12:00	3580	638	-17.5	-19.1	277	11	
2025-11-25T12:00	3600	636	-17.6	-19.6	277	11	
2025-11-25T12:00	3620	634	-17.8	-20.2	278	11	
2025-11-25T12:00	3640	633	-18.0	-20.3	278	10	
2025-11-25T12:00	3660	631	-18.1	-20.3	279	10	
2025-11-25T12:00	3680	629	-18.3	-20.3	279	10	
2025-11-25T12:00	3700	628	-18.5	-20.3	280	10	
2025-11-25T12:00	3720	626	-18.7	-20.5	280	10	
2025-11-25T12:00	3740	624	-18.9	-20.5	280	10	
2025-11-25T12:00	3760	622	-19.1	-20.6	280	10	
2025-11-25T12:00	3780	621	-19.3	-20.6	280	10	
2025-11-25T12:00	3800	619	-19.4	-20.7	280	10	
2025-11-25T12:00	3820	618	-19.6	-21.0	280	10	
2025-11-25T12:00	3840	616	-19.8	-21.0	280	10	
2025-11-25T12:00	3860	614	-19.9	-21.0	280	10	
2025-11-25T12:00	3880	613	-20.1	-21.0	280	10	
2025-11-25T12:00	3900	611	-20.3	-21.1	279	10	
2025-11-25T12:00	3920	609	-20.5	-21.2	279	10	
2025-11-25T12:00	3940	608	-20.6	-21.7	279	9	
2025-11-25T12:00	3960	606	-20.7	-22.2	279	9	
2025-11-25T12:00	3980	604	-20.7	-22.6	279	9	
2025-11-25T12:00	4000	603	-20.8	-22.7	280	9	
2025-11-25T12:00	4020	601	-21.0	-23.0	281	8	
2025-11-25T12:00	4040	600	-21.0	-23.3	282	8	
2025-11-25T12:00	4060	598	-21.2	-23.4	284	8	
2025-11-25T12:00	4080	596	-21.4	-23.4	286	8	
2025-11-25T12:00	4100	595	-21.5	-23.8	288	8	
2025-11-25T12:00	4120	593	-21.6	-24.1	290	8	
2025-11-25T12:00	4140	592	-21.8	-24.3	292	8	
2025-11-25T12:00	4160	590	-21.9	-24.4	295	8	
2025-11-25T12:00	4180	588	-22.0	-24.9	297	8	
2025-11-25T12:00	4200	587	-22.2	-24.9	299	8	
2025-11-25T12:00	4220	585	-22.4	-24.8	300	8	
2025-11-25T12:00	4240	583	-22.6	-24.9	302	8	
2025-11-25T12:00	4260	582	-22.8	-25.1	302	8	
2025-11-25T12:00	4280	580	-23.0	-25.1	302	8	
2025-11-25T12:00	4300	579	-23.1	-25.3	302	8	
2025-11-25T12:00	4320	577	-23.3	-25.3	302	8	
2025-11-25T12:00	4340	575	-23.5	-25.4	302	8	
2025-11-25T12:00	4360	574	-23.7	-25.5	302	8	
2025-11-25T12:00	4380	572	-23.8	-25.5	302	8	
2025-11-25T12:00	4400	571	-24.0	-25.6	302	8	
2025-11-25T12:00	4420	569	-24.2	-25.6	301	8	
2025-11-25T12:00	4440	568	-24.4	-25.6	300	8	
2025-11-25T12:00	4460	566	-24.6	-25.8	298	8	
2025-11-25T12:00	4480	565	-24.7	-25.8	296	8	
2025-11-25T12:00	4500	563	-24.9	-25.8	294	8	
2025-11-25T12:00	4520	561	-25.1	-25.9	293	9	
2025-11-25T12:00	4540	560	-25.3	-26.2	292	9	
2025-11-25T12:00	4560	559	-25.4	-26.5	291	9	
2025-11-25T12:00	4580	557	-25.5	-27.1	292	9	
2025-11-25T12:00	4600	555	-25.6	-27.4	292	10	
2025-11-25T12:00	4620	554	-25.7	-27.6	292	10	
2025-11-25T12:00	4640	552	-25.9	-27.7	292	10	
2025-11-25T12:00	4660	551	-26.1	-27.9	292	10	
2025-11-25T12:00	4680	549	-26.3	-27.9	292	9	
2025-11-25T12:00	4700	548	-26.5	-28.0	291	9	
2025-11-25T12:00	4720	546	-26.6	-28.0	290	9	
2025-11-25T12:00	4740	545	-26.8	-28.2	290	9	
2025-11-25T12:00	4760	543	-26.9	-28.3	289	9	
2025-11-25T12:00	4780	542	-27.1	-28.4	289	9	
2025-11-25T12:00	4800	540	-27.3	-28.4	290	9	
2025-11-25T12:00	4820	539	-27.5	-28.5	290	9	
2025-11-25T12:00	4840	537	-27.7	-28.9	290	9	
2025-11-25T12:00	4860	536	-27.9	-29.2	290	9	
2025-11-25T12:00	4880	534	-28.0	-29.1	290	9	
2025-11-25T12:00	4900	533	-28.2	-29.2	290	9	
2025-11-25T12:00	4920	531	-28.3	-29.3	290	9	
2025-11-25T12:00	4940	530	-28.5	-29.2	290	9	
2025-11-25T12:00	4960	528	-28.7	-28.9	289	9	
2025-11-25T12:00	4980	527	-28.9	-29.0	289	9	
2025-11-25T12:00	5000	525	-29.0	-29.2	288	9	
2025-11-25T12:00	5020	524	-29.2	-29.4	288	9	
2025-11-25T12:00	5040	522	-29.4	-29.5	288	9	
2025-11-25T12:00	5060	521	-29.6	-29.7	288	10	
2025-11-25T12:00	5080	519	-29.7	-29.9	288	10	
2025-11-25T12:00	5100	518	-29.9	-30.0	288	10	
2025-11-25T12:00	5120	516	-30.0	-30.3	288	10	
2025-11-25T12:00	5140	515	-30.2	-30.4	288	10	
2025-11-25T12:00	5160	514	-30.3	-30.7	288	10	
2025-11-25T12:00	5180	512	-30.6	-30.8	289	10	
2025-11-25T12:00	5200	511	-30.8	-31.1	289	10	
2025-11-25T12:00	5220	509	-30.9	-31.2	290	10	
2025-11-25T12:00	5240	508	-31.2	-31.5	291	9	
2025-11-25T12:00	5260	507	-31.4	-31.5	293	9	
2025-11-25T12:00	5280	505	-31.5	-31.6	294	9	
2025-11-25T12:00	5300	504	-31.7	-32.0	296	9	
2025-11-25T12:00	5320	502	-31.9	-32.1	297	9	
2025-11-25T12:00	5340	501	-31.9	-33.1	298	9	
2025-11-25T12:00	5360	499	-32.0	-34.2	299	9	
2025-11-25T12:00	5380	498	-32.2	-34.6	299	9	
2025-11-25T12:00	5400	497	-32.3	-34.9	298	9	
2025-11-25T12:00	5420	495	-32.5	-36.1	298	9	
2025-11-25T12:00	5440	494	-32.6	-36.1	297	9	
2025-11-25T12:00	5460	492	-32.8	-36.4	296	9	
2025-11-25T12:00	5480	491	-32.9	-36.6	295	9	
2025-11-25T12:00	5500	490	-33.1	-36.9	294	9	
2025-11-25T12:00	5520	488	-33.3	-37.1	294	9	
2025-11-25T12:00	5540	487	-33.4	-37.3	294	9	
2025-11-25T12:00	5560	485	-33.6	-37.5	294	9	
2025-11-25T12:00	5580	484	-33.7	-37.5	295	9	
2025-11-25T12:00	5600	483	-33.9	-37.3	295	9	
2025-11-25T12:00	5620	481	-34.1	-37.3	295	10	
2025-11-25T12:00	5640	480	-34.2	-37.5	296	10	
2025-11-25T12:00	5660	478	-34.4	-37.7	296	10	
2025-11-25T12:00	5680	477	-34.5	-37.7	297	11	
2025-11-25T12:00	5700	476	-34.6	-37.7	298	11	
2025-11-25T12:00	5720	474	-34.8	-38.0	299	11	
2025-11-25T12:00	5740	473	-34.9	-37.5	300	11	
2025-11-25T12:00	5760	472	-35.0	-37.4	301	11	
2025-11-25T12:00	5780	470	-35.2	-38.9	302	10	
2025-11-25T12:00	5800	469	-35.3	-40.6	302	10	
2025-11-25T12:00	5820	468	-35.5	-40.0	302	11	
2025-11-25T12:00	5840	466	-35.6	-39.8	302	11	
2025-11-25T12:00	5860	465	-35.8	-39.8	302	11	
2025-11-25T12:00	5880	464	-35.9	-39.9	303	11	
2025-11-25T12:00	5900	462	-36.1	-39.9	304	11	
2025-11-25T12:00	5920	461	-36.3	-40.0	305	12	
2025-11-25T12:00	5940	460	-36.4	-40.4	306	12	
2025-11-25T12:00	5960	458	-36.6	-40.8	306	12	
2025-11-25T12:00	5980	457	-36.7	-41.6	305	12	
2025-11-25T12:00	6000	456	-36.8	-42.1	304	12	
2025-11-25T12:00	6020	454	-37.0	-42.1	303	12	
2025-11-25T12:00	6040	453	-37.1	-42.6	303	12	
2025-11-25T12:00	6060	452	-37.2	-43.1	303	12	
2025-11-25T12:00	6080	450	-37.4	-43.2	304	12	
2025-11-25T12:00	6100	449	-37.6	-44.0	305	12	
2025-11-25T12:00	6120	448	-37.7	-44.6	306	11	
2025-11-25T12:00	6140	446	-37.9	-44.4	307	11	
2025-11-25T12:00	6160	445	-38.1	-44.4	307	11	
2025-11-25T12:00	6180	444	-38.2	-44.7	307	11	
2025-11-25T12:00	6200	443	-38.4	-44.6	305	11	
2025-11-25T12:00	6220	441	-38.6	-44.7	303	11	
2025-11-25T12:00	6240	440	-38.8	-44.6	300	11	
2025-11-25T12:00	6260	439	-39.0	-44.8	298	11	
2025-11-25T12:00	6280	437	-39.1	-45.1	294	11	
2025-11-25T12:00	6300	436	-39.1	-45.9	292	11	
2025-11-25T12:00	6320	435	-39.2	-46.2	290	11	
2025-11-25T12:00	6340	434	-39.4	-47.0	289	11	
2025-11-25T12:00	6360	432	-39.3	-49.4	289	11	
2025-11-25T12:00	6380	431	-39.4	-49.0	289	11	
2025-11-25T12:00	6400	430	-39.5	-49.3	291	12	
2025-11-25T12:00	6420	429	-39.7	-50.2	293	12	
2025-11-25T12:00	6440	427	-39.8	-50.7	294	12	
2025-11-25T12:00	6460	426	-39.9	-50.5	295	12	
2025-11-25T12:00	6480	425	-40.0	-50.6	297	13	
2025-11-25T12:00	6500	424	-40.2	-51.0	297	13	
2025-11-25T12:00	6520	422	-40.3	-51.1	297	13	
2025-11-25T12:00	6540	421	-40.5	-51.5	297	13	
2025-11-25T12:00	6560	420	-40.6	-52.0	297	13	
2025-11-25T12:00	6580	419	-40.6	-52.7	297	13	
2025-11-25T12:00	6600	417	-40.7	-52.7	297	13	
2025-11-25T12:00	6620	416	-40.7	-53.1	297	13	
2025-11-25T12:00	6640	415	-40.8	-53.0	296	13	
2025-11-25T12:00	6660	414	-40.9	-52.6	296	13	
2025-11-25T12:00	6680	412	-41.0	-52.9	296	13	
2025-11-25T12:00	6700	411	-41.2	-53.2	296	13	
2025-11-25T12:00	6720	410	-41.3	-53.4	296	13	
2025-11-25T12:00	6740	409	-41.5	-53.5	297	13	
2025-11-25T12:00	6760	408	-41.6	-53.6	297	13	
2025-11-25T12:00	6780	407	-41.6	-53.9	298	13	
2025-11-25T12:00	6800	405	-41.7	-54.3	299	13	
2025-11-25T12:00	6820	404	-41.7	-54.8	300	13	
2025-11-25T12:00	6840	403	-41.8	-54.9	300	14	
2025-11-25T12:00	6860	402	-41.9	-54.8	301	14	
2025-11-25T12:00	6880	401	-41.9	-54.6	301	14	
2025-11-25T12:00	6900	400	-42.0	-54.7	300	15	
2025-11-25T12:00	6920	398	-42.0	-54.6	300	15	
2025-11-25T12:00	6940	397	-42.1	-54.6	299	15	
2025-11-25T12:00	6960	396	-42.1	-54.3	298	16	
2025-11-25T12:00	6980	395	-42.1	-54.7	296	16	
2025-11-25T12:00	7000	393	-42.2	-54.9	294	16	
2025-11-25T12:00	7020	392	-42.3	-55.0	293	15	
2025-11-25T12:00	7040	391	-42.4	-55.2	291	15	
2025-11-25T12:00	7060	390	-42.5	-55.1	289	15	
2025-11-25T12:00	7080	389	-42.7	-55.2	287	14	
2025-11-25T12:00	7100	388	-42.9	-55.4	286	14	
2025-11-25T12:00	7120	387	-43.1	-55.4	286	14	
2025-11-25T12:00	7140	385	-43.2	-55.7	287	14	
2025-11-25T12:00	7160	384	-43.3	-55.8	289	15	
2025-11-25T12:00	7180	383	-43.4	-56.3	291	15	
2025-11-25T12:00	7200	382	-43.5	-56.6	292	15	
2025-11-25T12:00	7220	381	-43.7	-57.0	293	15	
2025-11-25T12:00	7240	380	-43.9	-57.5	293	15	
2025-11-25T12:00	7260	379	-44.0	-58.2	293	15	
2025-11-25T12:00	7280	378	-44.1	-58.0	291	15	
2025-11-25T12:00	7300	376	-44.2	-57.9	289	14	
2025-11-25T12:00	7320	375	-44.3	-57.5	287	14	
2025-11-25T12:00	7340	374	-44.4	-57.4	284	14	
2025-11-25T12:00	7360	373	-44.4	-58.0	281	14	
2025-11-25T12:00	7380	372	-44.4	-58.9	280	13	
2025-11-25T12:00	7400	371	-44.4	-60.6	280	14	
2025-11-25T12:00	7420	370	-44.5	-61.7	280	13	
2025-11-25T12:00	7440	369	-44.5	-62.3	281	14	
2025-11-25T12:00	7460	368	-44.6	-62.4	282	14	
2025-11-25T12:00	7480	366	-44.6	-62.3	284	13	
2025-11-25T12:00	7500	365	-44.7	-62.1	285	13	
2025-11-25T12:00	7520	364	-44.8	-62.1	286	13	
2025-11-25T12:00	7540	363	-45.0	-62.2	287	13	
2025-11-25T12:00	7560	362	-45.2	-62.2	288	13	
2025-11-25T12:00	7580	361	-45.4	-62.3	289	13	
2025-11-25T12:00	7600	360	-45.6	-62.3	290	12	
2025-11-25T12:00	7620	359	-45.7	-62.2	290	12	
2025-11-25T12:00	7640	358	-45.8	-62.4	291	12	
2025-11-25T12:00	7660	357	-45.9	-62.4	291	12	
2025-11-25T12:00	7680	356	-46.1	-62.5	291	11	
2025-11-25T12:00	7700	354	-46.2	-62.7	290	11	
2025-11-25T12:00	7720	353	-46.2	-62.7	290	11	
2025-11-25T12:00	7740	352	-46.3	-62.8	290	11	
2025-11-25T12:00	7760	351	-46.4	-62.9	289	10	
2025-11-25T12:00	7780	350	-46.6	-62.9	290	10	
2025-11-25T12:00	7800	349	-46.7	-62.7	290	10	
2025-11-25T12:00	7820	348	-46.9	-62.5	290	10	
2025-11-25T12:00	7840	347	-47.0	-62.5	290	10	
2025-11-25T12:00	7860	346	-47.2	-62.8	289	10	
2025-11-25T12:00	7880	345	-47.2	-62.8	285	10	
2025-11-25T12:00	7900	344	-47.4	-62.6	281	10	
2025-11-25T12:00	7920	343	-47.4	-62.5	278	9	
2025-11-25T12:00	7940	342	-47.5	-62.5	273	9	
2025-11-25T12:00	7960	341	-47.1	-62.5	266	9	
2025-11-25T12:00	7980	340	-47.0	-62.8	261	9	
2025-11-25T12:00	8000	339	-47.1	-62.7	257	9	
2025-11-25T12:00	8020	338	-47.1	-62.6	252	9	
2025-11-25T12:00	8040	337	-47.0	-62.7	247	9	
2025-11-25T12:00	8060	336	-46.9	-62.9	242	9	
2025-11-25T12:00	8080	335	-46.9	-63.1	237	9	
2025-11-25T12:00	8100	334	-46.9	-63.3	233	9	
2025-11-25T12:00	8120	333	-47.1	-63.3	228	9	
2025-11-25T12:00	8140	332	-47.2	-63.2	223	9	
2025-11-25T12:00	8160	331	-47.1	-63.3	219	9	
2025-11-25T12:00	8180	330	-47.1	-63.7	215	9	
2025-11-25T12:00	8200	329	-47.1	-63.8	212	9	
2025-11-25T12:00	8220	328	-47.2	-63.7	210	9	
2025-11-25T12:00	8240	327	-47.4	-63.6	209	10	
2025-11-25T12:00	8260	326	-47.5	-63.5	208	10	
2025-11-25T12:00	8280	325	-47.7	-63.6	208	10	
2025-11-25T12:00	8300	324	-47.9	-63.6	208	10	
2025-11-25T12:00	8320	323	-48.1	-63.8	208	10	
2025-11-25T12:00	8340	322	-48.2	-63.9	209	10	
2025-11-25T12:00	8360	321	-48.3	-63.9	210	10	
2025-11-25T12:00	8380	320	-48.5	-63.9	212	9	
2025-11-25T12:00	8400	319	-48.7	-63.8	215	9	
2025-11-25T12:00	8420	318	-48.9	-63.8	218	9	
2025-11-25T12:00	8440	317	-49.1	-63.8	222	9	
2025-11-25T12:00	8460	316	-49.4	-63.9	226	8	
2025-11-25T12:00	8480	315	-49.6	-63.9	229	8	
2025-11-25T12:00	8500	314	-49.8	-63.9	231	9	
2025-11-25T12:00	8520	313	-50.0	-63.8	234	9	
2025-11-25T12:00	8540	312	-50.3	-63.8	236	9	
2025-11-25T12:00	8560	311	-50.5	-63.8	237	9	
2025-11-25T12:00	8580	310	-50.7	-63.9	238	10	
2025-11-25T12:00	8600	309	-50.8	-63.9	239	10	
2025-11-25T12:00	8620	308	-50.9	-64.1	241	10	
2025-11-25T12:00	8640	307	-51.0	-64.3	243	10	
2025-11-25T12:00	8660	306	-51.1	-64.2	246	10	
2025-11-25T12:00	8680	306	-51.3	-64.3	248	10	
2025-11-25T12:00	8700	305	-51.3	-64.5	251	9	
2025-11-25T12:00	8720	304	-51.3	-64.7	253	9	
2025-11-25T12:00	8740	303	-51.3	-64.8	256	9	
2025-11-25T12:00	8760	302	-51.3	-65.0	258	9	
2025-11-25T12:00	8780	301	-51.5	-65.1	261	9	
2025-11-25T12:00	8800	300	-51.6	-65.1	264	9	
2025-11-25T12:00	8820	299	-51.7	-65.1	267	9	
2025-11-25T12:00	8840	298	-51.8	-65.2	270	9	
2025-11-25T12:00	8860	297	-52.0	-65.1	274	9	
2025-11-25T12:00	8880	296	-52.1	-65.2	278	9	
2025-11-25T12:00	8900	295	-52.0	-65.5	283	9	
2025-11-25T12:00	8920	294	-52.0	-65.7	287	9	
2025-11-25T12:00	8940	294	-52.0	-65.7	290	9	
2025-11-25T12:00	8960	293	-52.0	-65.8	292	9	
2025-11-25T12:00	8980	292	-52.1	-66.1	295	9	
2025-11-25T12:00	9000	291	-52.1	-66.7	296	9	
2025-11-25T12:00	9020	290	-51.9	-67.0	295	9	
2025-11-25T12:00	9040	289	-52.0	-67.1	292	9	
2025-11-25T12:00	9060	288	-52.1	-67.0	287	9	
2025-11-25T12:00	9080	287	-52.3	-67.2	283	9	
2025-11-25T12:00	9100	286	-52.3	-67.4	278	9	
2025-11-25T12:00	9120	285	-52.3	-67.9	272	9	
2025-11-25T12:00	9140	285	-52.3	-68.1	268	9	
2025-11-25T12:00	9160	284	-52.3	-68.3	266	10	
2025-11-25T12:00	9180	283	-52.3	-68.5	263	10	
2025-11-25T12:00	9200	282	-52.4	-68.7	262	10	
2025-11-25T12:00	9220	281	-52.5	-68.9	261	11	
2025-11-25T12:00	9240	280	-52.5	-69.2	261	11	
2025-11-25T12:00	9260	279	-52.4	-70.0	262	12	
2025-11-25T12:00	9280	278	-51.9	-70.9	263	12	
2025-11-25T12:00	9300	278	-51.3	-71.6	264	12	
2025-11-25T12:00	9320	277	-51.1	-71.5	265	12	
2025-11-25T12:00	9340	276	-51.1	-71.2	265	12	
2025-11-25T12:00	9360	275	-50.9	-70.5	264	13	
2025-11-25T12:00	9380	274	-50.9	-70.0	264	13	
2025-11-25T12:00	9400	273	-51.0	-69.6	264	13	
2025-11-25T12:00	9420	273	-51.0	-69.4	264	14	
2025-11-25T12:00	9440	272	-51.1	-69.6	265	14	
2025-11-25T12:00	9460	271	-51.1	-69.9	265	14	
2025-11-25T12:00	9480	270	-51.1	-70.1	266	14	
2025-11-25T12:00	9500	269	-51.0	-70.3	268	14	
2025-11-25T12:00	9520	268	-51.1	-70.6	269	14	
2025-11-25T12:00	9540	268	-51.0	-70.9	270	14	
2025-11-25T12:00	9560	267	-50.9	-71.0	272	14	
2025-11-25T12:00	9580	266	-50.9	-71.2	274	14	
2025-11-25T12:00	9600	265	-50.8	-71.5	276	13	
2025-11-25T12:00	9620	264	-50.6	-71.7	278	13	
2025-11-25T12:00	9640	263	-50.5	-71.9	280	13	
2025-11-25T12:00	9660	263	-50.5	-71.7	282	13	
2025-11-25T12:00	9680	262	-50.4	-71.2	283	13	
2025-11-25T12:00	9700	261	-50.5	-71.1	284	13	
2025-11-25T12:00	9720	260	-50.6	-71.1	284	13	
2025-11-25T12:00	9740	259	-50.7	-71.2	285	14	
2025-11-25T12:00	9760	259	-50.9	-71.2	286	14	
2025-11-25T12:00	9780	258	-51.1	-71.4	287	14	
2025-11-25T12:00	9800	257	-51.2	-71.4	288	14	
2025-11-25T12:00	9820	256	-51.2	-71.5	289	14	
2025-11-25T12:00	9840	256	-51.2	-71.7	291	14	
2025-11-25T12:00	9860	255	-51.2	-71.9	292	14	
2025-11-25T12:00	9880	254	-51.2	-72.1	293	14	
2025-11-25T12:00	9900	253	-51.2	-72.3	294	13	
2025-11-25T12:00	9920	252	-51.3	-72.7	295	13	
2025-11-25T12:00	9940	252	-51.3	-73.1	295	13	
2025-11-25T12:00	9960	251	-51.3	-73.7	294	13	
2025-11-25T12:00	9980	250	-51.3	-74.2	292	12	
2025-11-25T12:00	10000	249	-51.2	-74.4	290	12	
2025-11-25T12:00	10018	249	-51.2	-74.7	288	12	
2025-11-25T12:00	10050	247	-51.0	-75.3	285	12	
2025-11-25T12:00	10100	246	-50.5	-75.6	281	12	
2025-11-25T12:00	10150	244	-50.4	-75.0	281	13	
2025-11-25T12:00	10200	242	-50.3	-76.0	282	13	
2025-11-25T12:00	10250	240	-50.3	-76.4	285	13	
2025-11-25T12:00	10300	238	-50.4	-76.3	286	13	
2025-11-25T12:00	10350	236	-50.5	-75.7	286	12	
2025-11-25T12:00	10400	234	-50.4	-76.0	284	11	
2025-11-25T12:00	10450	233	-50.5	-75.9	282	12	
2025-11-25T12:00	10500	231	-50.2	-75.7	280	12	
2025-11-25T12:00	10550	229	-50.0	-76.4	279	12	
2025-11-25T12:00	10600	227	-49.9	-76.8	281	12	
2025-11-25T12:00	10650	226	-50.0	-77.0	282	11	
2025-11-25T12:00	10700	224	-50.1	-77.1	281	10	
2025-11-25T12:00	10750	222	-49.9	-77.6	279	11	
2025-11-25T12:00	10800	221	-49.9	-78.2	276	11	
2025-11-25T12:00	10850	219	-49.8	-78.1	273	12	
2025-11-25T12:00	10900	217	-49.8	-78.2	270	12	
2025-11-25T12:00	10950	215	-49.9	-78.3	268	13	
2025-11-25T12:00	11000	214	-49.8	-78.5	266	14	
2025-11-25T12:00	11050	212	-49.7	-78.8	263	15	
2025-11-25T12:00	11100	211	-49.9	-78.9	261	16	
2025-11-25T12:00	11150	209	-50.0	-78.9	263	14	
2025-11-25T12:00	11200	207	-49.8	-78.8	270	13	
2025-11-25T12:00	11250	206	-50.0	-78.9	275	12	
2025-11-25T12:00	11300	204	-50.3	-78.8	277	11	
2025-11-25T12:00	11350	203	-50.6	-78.9	275	11	
2025-11-25T12:00	11400	201	-50.7	-79.1	272	11	
2025-11-25T12:00	11450	200	-51.0	-79.2	270	11	
2025-11-25T12:00	11500	198	-51.4	-79.4	271	10	
2025-11-25T12:00	11550	197	-51.6	-79.4	274	10	
2025-11-25T12:00	11600	195	-51.6	-79.5	277	9	
2025-11-25T12:00	11650	194	-51.6	-79.8	280	7	
2025-11-25T12:00	11700	192	-51.7	-79.7	280	6	
2025-11-25T12:00	11750	191	-51.9	-79.8	277	5	
2025-11-25T12:00	11800	189	-52.2	-79.9	274	5	
2025-11-25T12:00	11850	188	-52.6	-80.1	271	6	
2025-11-25T12:00	11900	186	-52.9	-80.3	270	6	
2025-11-25T12:00	11950	185	-53.2	-80.3	269	7	
2025-11-25T12:00	12000	183	-53.5	-80.5	270	8	
2025-11-25T12:00	12050	182	-53.7	-80.8	272	8	
2025-11-25T12:00	12100	181	-54.0	-80.9	275	9	
2025-11-25T12:00	12150	179	-54.0	-81.1	277	10	
2025-11-25T12:00	12200	178	-54.1	-81.4	279	10	
2025-11-25T12:00	12250	176	-53.8	-81.5	280	10	
2025-11-25T12:00	12300	175	-53.6	-81.5	283	9	
2025-11-25T12:00	12350	174	-53.8	-81.7	284	8	
2025-11-25T12:00	12400	172	-53.6	-81.7	284	7	
2025-11-25T12:00	12450	171	-53.8	-81.6	287	7	
2025-11-25T12:00	12500	170	-54.0	-81.6	288	6	
2025-11-25T12:00	12550	168	-54.1	-81.8	283	6	
2025-11-25T12:00	12600	167	-54.2	-81.9	273	7	
2025-11-25T12:00	12650	166	-54.2	-81.9	264	7	
2025-11-25T12:00	12700	164	-54.4	-82.0	254	7	
2025-11-25T12:00	12750	163	-54.7	-82.0	245	6	
2025-11-25T12:00	12800	162	-54.9	-82.1	240	6	
2025-11-25T12:00	12850	161	-55.1	-82.3	243	7	
2025-11-25T12:00	12900	159	-55.3	-82.4	249	8	
2025-11-25T12:00	12950	158	-55.4	-82.2	254	9	
2025-11-25T12:00	13000	157	-55.8	-82.3	256	9	
2025-11-25T12:00	13050	156	-56.2	-82.5	260	9	
2025-11-25T12:00	13100	154	-56.4	-82.5	265	11	
2025-11-25T12:00	13150	153	-56.6	-82.6	269	11	
2025-11-25T12:00	13200	152	-57.0	-82.7	272	12	
2025-11-25T12:00	13250	151	-57.4	-82.8	273	12	
2025-11-25T12:00	13300	150	-57.6	-82.9	274	12	
2025-11-25T12:00	13350	148	-57.7	-83.0	274	12	
2025-11-25T12:00	13400	147	-57.7	-83.0	273	12	
2025-11-25T12:00	13450	146	-58.0	-83.2	272	12	
2025-11-25T12:00	13500	145	-58.1	-83.4	273	12	
2025-11-25T12:00	13550	144	-57.9	-83.3	273	13	
2025-11-25T12:00	13600	143	-57.8	-83.3	270	13	
2025-11-25T12:00	13650	142	-57.7	-83.3	267	14	
2025-11-25T12:00	13700	140	-57.7	-83.5	268	15	
2025-11-25T12:00	13750	139	-57.7	-83.6	271	15	
2025-11-25T12:00	13800	138	-57.8	-83.4	277	15	
2025-11-25T12:00	13850	137	-58.1	-83.4	282	16	
2025-11-25T12:00	13900	136	-58.5	-83.6	286	17	
2025-11-25T12:00	13950	135	-58.6	-83.7	287	17	
2025-11-25T12:00	14000	134	-58.7	-83.7	286	16	
2025-11-25T12:00	14050	133	-58.5	-83.9	284	16	
2025-11-25T12:00	14100	132	-58.3	-83.8	281	16	
2025-11-25T12:00	14150	131	-58.3	-83.9	280	16	
2025-11-25T12:00	14200	130	-58.3	-83.9	281	15	
2025-11-25T12:00	14250	129	-58.4	-84.0	284	15	
2025-11-25T12:00	14300	128	-58.6	-83.9	285	15	
2025-11-25T12:00	14350	127	-58.6	-83.9	285	15	
2025-11-25T12:00	14400	126	-58.5	-84.0	287	14	
2025-11-25T12:00	14450	125	-58.7	-84.1	290	14	
2025-11-25T12:00	14500	124	-58.6	-84.0	287	13	
2025-11-25T12:00	14550	123	-58.7	-84.2	282	13	
2025-11-25T12:00	14600	122	-58.7	-84.4	280	14	
2025-11-25T12:00	14650	121	-58.3	-84.6	283	15	
2025-11-25T12:00	14700	120	-58.1	-84.4	287	16	
2025-11-25T12:00	14750	119	-58.1	-84.3	291	16	
2025-11-25T12:00	14800	118	-58.4	-84.2	294	17	
2025-11-25T12:00	14850	117	-58.6	-84.4	296	17	
2025-11-25T12:00	14900	116	-58.4	-84.7	296	16	
2025-11-25T12:00	14950	115	-58.4	-84.6	296	16	
2025-11-25T12:00	15000	114	-58.6	-84.8	295	16	
2025-11-25T12:00	15050	113	-58.8	-84.9	295	15	
2025-11-25T12:00	15100	112	-59.0	-84.9	294	15	
2025-11-25T12:00	15150	111	-59.2	-84.9	292	16	
2025-11-25T12:00	15200	111	-59.1	-84.8	290	17	
2025-11-25T12:00	15250	110	-59.2	-84.8	289	18	
2025-11-25T12:00	15300	109	-59.2	-84.9	288	17	
2025-11-25T12:00	15350	108	-59.0	-85.0	288	16	
2025-11-25T12:00	15400	107	-59.2	-84.8	291	16	
2025-11-25T12:00	15450	106	-59.5	-84.6	294	17	
2025-11-25T12:00	15500	105	-59.8	-84.9	295	17	
2025-11-25T12:00	15550	105	-60.0	-85.2	296	18	
2025-11-25T12:00	15600	104	-59.9	-85.2	299	18	
2025-11-25T12:00	15650	103	-60.0	-85.1	302	18	
2025-11-25T12:00	15700	102	-60.3	-85.1	304	18	
2025-11-25T12:00	15750	101	-60.6	-85.3	304	17	
2025-11-25T12:00	15800	100	-60.5	-85.4	303	16	
2025-11-25T12:00	15850	100	-60.5	-85.6	302	16	
2025-11-25T12:00	15900	99	-60.5	-85.6	302	15	
2025-11-25T12:00	15950	98	-60.5	-85.6	302	15	
2025-11-25T12:00	16000	97	-60.2	-85.6	302	15	
2025-11-25T12:00	16050	97	-59.9	-85.7	302	15	
2025-11-25T12:00	16100	96	-59.7	-85.6	302	15	
2025-11-25T12:00	16150	95	-59.8	-85.6	304	15	
2025-11-25T12:00	16200	94	-60.1	-85.6	306	14	
2025-11-25T12:00	16250	93	-60.2	-85.7	308	14	
2025-11-25T12:00	16300	93	-60.2	-85.8	308	14	
2025-11-25T12:00	16350	92	-60.4	-85.7	308	14	
2025-11-25T12:00	16400	91	-60.5	-85.6	310	14	
2025-11-25T12:00	16450	91	-60.6	-85.7	313	14	
2025-11-25T12:00	16500	90	-61.0	-85.7	311	13	
2025-11-25T12:00	16550	89	-61.3	-85.7	309	13	
2025-11-25T12:00	16600	88	-61.7	-85.9	308	12	
2025-11-25T12:00	16650	88	-61.9	-86.0	310	12	
2025-11-25T12:00	16700	87	-62.2	-86.1	311	12	
2025-11-25T12:00	16750	86	-62.3	-86.2	309	12	
2025-11-25T12:00	16800	86	-62.5	-86.3	307	12	
2025-11-25T12:00	16850	85	-62.7	-86.3	303	12	
2025-11-25T12:00	16900	84	-62.5	-86.0	297	12	
2025-11-25T12:00	16950	83	-62.7	-86.1	292	13	
2025-11-25T12:00	17000	83	-63.1	-86.2	287	13	
2025-11-25T12:00	17050	82	-63.4	-86.4	283	14	
2025-11-25T12:00	17100	81	-63.7	-86.5	282	14	
2025-11-25T12:00	17150	81	-63.8	-86.6	283	14	
2025-11-25T12:00	17200	80	-63.8	-86.7	286	13	
2025-11-25T12:00	17250	79	-63.8	-86.8	287	14	
2025-11-25T12:00	17300	79	-63.8	-86.8	286	14	
2025-11-25T12:00	17350	78	-63.8	-86.8	285	14	
2025-11-25T12:00	17400	78	-64.0	-86.9	284	13	
2025-11-25T12:00	17450	77	-64.3	-86.9	285	13	
2025-11-25T12:00	17500	76	-64.5	-86.9	286	13	
2025-11-25T12:00	17550	76	-64.6	-86.9	285	13	
2025-11-25T12:00	17600	75	-64.7	-87.0	284	13	
2025-11-25T12:00	17650	74	-64.8	-87.0	284	13	
2025-11-25T12:00	17700	74	-65.1	-87.1	284	13	
2025-11-25T12:00	17750	73	-65.4	-87.2	285	14	
2025-11-25T12:00	17800	73	-65.5	-87.3	285	15	
2025-11-25T12:00	17850	72	-65.6	-87.3	285	17	
2025-11-25T12:00	17900	71	-65.9	-87.4	285	18	
2025-11-25T12:00	17950	71	-66.0	-87.5	285	18	
2025-11-25T12:00	18000	70	-65.8	-87.4	286	17	
2025-11-25T12:00	18050	70	-65.9	-87.4	285	16	
2025-11-25T12:00	18100	69	-65.8	-87.3	286	15	
2025-11-25T12:00	18150	69	-65.9	-87.3	289	14	
2025-11-25T12:00	18200	68	-65.9	-87.3	292	14	
2025-11-25T12:00	18250	67	-65.9	-87.4	292	16	
2025-11-25T12:00	18300	67	-66.0	-87.5	290	16	
2025-11-25T12:00	18350	66	-65.5	-87.2	291	15	
2025-11-25T12:00	18400	66	-65.6	-87.3	292	14	
2025-11-25T12:00	18450	65	-65.6	-87.3	290	13	
2025-11-25T12:00	18500	65	-65.7	-87.3	283	12	
2025-11-25T12:00	18550	64	-65.2	-87.2	274	12	
2025-11-25T12:00	18600	64	-64.9	-87.3	264	11	
2025-11-25T12:00	18650	63	-64.5	-87.3	256	11	
2025-11-25T12:00	18700	63	-64.1	-87.2	254	11	
2025-11-25T12:00	18750	62	-64.3	-87.2	258	10	
2025-11-25T12:00	18800	62	-64.4	-87.2	263	10	
2025-11-25T12:00	18850	61	-64.8	-87.3	266	11	
2025-11-25T12:00	18900	61	-65.2	-87.3	267	11	
2025-11-25T12:00	18950	60	-65.4	-87.2	268	11	
2025-11-25T12:00	19000	60	-65.8	-87.3	271	10	
2025-11-25T12:00	19050	59	-66.4	-87.5	274	11	
2025-11-25T12:00	19100	59	-66.8	-87.6	277	11	
2025-11-25T12:00	19150	58	-67.1	-87.6	280	12	
2025-11-25T12:00	19200	58	-67.5	-87.7	283	13	
2025-11-25T12:00	19250	57	-68.0	-87.9	285	14	
2025-11-25T12:00	19300	57	-68.4	-88.0	288	15	
2025-11-25T12:00	19350	56	-68.7	-88.2	290	17	
2025-11-25T12:00	19400	56	-68.7	-88.2	292	18	
2025-11-25T12:00	19450	55	-68.8	-88.4	294	18	
2025-11-25T12:00	19500	55	-68.7	-88.3	295	17	
2025-11-25T12:00	19550	54	-68.7	-88.3	294	16	
2025-11-25T12:00	19600	54	-68.9	-88.5	292	14	
2025-11-25T12:00	19650	54	-69.2	-88.5	288	13	
2025-11-25T12:00	19700	53	-69.6	-88.5	284	12	
2025-11-25T12:00	19750	53	-69.9	-88.5	281	11	
2025-11-25T12:00	19800	52	-70.4	-88.7	279	11	
2025-11-25T12:00	19850	52	-70.8	-88.8	276	11	
2025-11-25T12:00	19900	51	-71.0	-88.8	274	11	
2025-11-25T12:00	19950	51	-71.1	-88.8	272	12	
2025-11-25T12:00	20000	50	-71.4	-89.0	273	13	
2025-11-25T12:00	20050	50	-71.6		276	14	
2025-11-25T12:00	20100	50	-71.3		279	15	
2025-11-25T12:00	20150	49	-71.5		281	15	
2025-11-25T12:00	20200	49	-71.8		284	16	
2025-11-25T12:00	20250	48	-71.8		285	17	
2025-11-25T12:00	20300	48	-71.5		285	19	
2025-11-25T12:00	20350	48	-71.5		285	20	
2025-11-25T12:00	20400	47	-71.7		284	21	
2025-11-25T12:00	20450	47	-71.7		283	22	
2025-11-25T12:00	20500	46	-71.6		282	23	
2025-11-25T12:00	20550	46	-71.5		281	23	
2025-11-25T12:00	20600	46	-71.4		281	24	
2025-11-25T12:00	20650	45	-71.1		282	24	
2025-11-25T12:00	20700	45	-71.1		281	24	
2025-11-25T12:00	20750	44	-70.6		278	25	
2025-11-25T12:00	20800	44	-70.7		274	26	
2025-11-25T12:00	20850	44	-70.7		271	26	
2025-11-25T12:00	20900	43	-70.5		271	27	
2025-11-25T12:00	20950	43	-70.3		272	28	
2025-11-25T12:00	21000	43	-70.2		274	29	
2025-11-25T12:00	21050	42	-69.8		275	29	
2025-11-26T00:00	491	952	3.0	1.7	212	2	
2025-11-26T00:00	501	951	2.8	1.6	199	3	
2025-11-26T00:00	520	949	2.7	1.4	196	3	
2025-11-26T00:00	540	947	2.6	1.1	198	4	
2025-11-26T00:00	560	944	2.6	1.0	199	4	
2025-11-26T00:00	580	942	2.4	0.8	201	5	
2025-11-26T00:00	600	940	2.4	0.7	204	5	
2025-11-26T00:00	620	938	2.3	0.5	207	5	
2025-11-26T00:00	640	935	2.2	0.4	211	5	
2025-11-26T00:00	660	933	2.1	0.3	216	5	
2025-11-26T00:00	680	930	2.1	0.1	222	5	
2025-11-26T00:00	700	928	2.3	-0.1	230	4	
2025-11-26T00:00	720	926	2.5	-0.4	239	4	
2025-11-26T00:00	740	924	2.4	-0.6	245	4	
2025-11-26T00:00	760	921	2.3	-0.7	253	3	
2025-11-26T00:00	780	919	2.2	-0.7	263	3	
2025-11-26T00:00	800	917	2.0	-0.9	274	3	
2025-11-26T00:00	820	914	1.9	-1.0	284	2	
2025-11-26T00:00	840	912	1.7	-1.0	292	2	
2025-11-26T00:00	860	910	1.6	-1.1	299	2	
2025-11-26T00:00	880	908	1.5	-1.1	301	2	
2025-11-26T00:00	900	906	1.3	-1.1	298	2	
2025-11-26T00:00	920	903	1.1	-1.2	295	2	
2025-11-26T00:00	940	901	0.9	-1.3	296	2	
2025-11-26T00:00	960	899	0.7	-1.2	299	2	
2025-11-26T00:00	980	897	0.5	-1.3	304	2	
2025-11-26T00:00	1000	894	0.3	-1.3	312	2	
2025-11-26T00:00	1020	892	0.1	-1.4	320	3	
2025-11-26T00:00	1040	890	0.0	-1.4	326	3	
2025-11-26T00:00	1060	888	-0.3	-1.4	331	3	
2025-11-26T00:00	1080	885	-0.4	-1.5	334	3	
2025-11-26T00:00	1100	883	-0.6	-1.6	336	4	
2025-11-26T00:00	1120	881	-0.8	-1.5	337	4	
2025-11-26T00:00	1140	879	-1.0	-1.6	338	5	
2025-11-26T00:00	1160	877	-1.2	-1.7	339	5	
2025-11-26T00:00	1180	875	-1.3	-1.8	340	5	
2025-11-26T00:00	1200	872	-1.4	-2.0	340	6	
2025-11-26T00:00	1220	870	-1.6	-2.2	340	6	
2025-11-26T00:00	1240	868	-1.7	-2.2	340	6	
2025-11-26T00:00	1260	866	-1.9	-2.3	340	7	
2025-11-26T00:00	1280	864	-2.0	-2.4	341	7	
2025-11-26T00:00	1300	861	-2.2	-2.5	341	7	
2025-11-26T00:00	1320	859	-2.3	-2.7	342	7	
2025-11-26T00:00	1340	857	-2.4	-2.8	343	8	
2025-11-26T00:00	1360	855	-2.6	-2.9	344	8	
2025-11-26T00:00	1380	853	-2.7	-3.0	345	8	
2025-11-26T00:00	1400	850	-2.8	-3.3	346	8	
2025-11-26T00:00	1420	849	-2.9	-3.4	346	8	
2025-11-26T00:00	1440	846	-3.1	-3.4	347	8	
2025-11-26T00:00	1460	844	-3.1	-3.6	348	8	
2025-11-26T00:00	1480	842	-3.2	-3.8	349	8	
2025-11-26T00:00	1500	840	-3.2	-3.9	350	8	
2025-11-26T00:00	1520	838	-3.4	-4.0	351	7	
2025-11-26T00:00	1540	836	-3.5	-3.9	353	7	
2025-11-26T00:00	1560	833	-3.8	-4.0	355	7	
2025-11-26T00:00	1580	831	-3.9	-4.1	359	7	
2025-11-26T00:00	1600	829	-4.1	-4.1	2	6	
2025-11-26T00:00	1620	827	-4.3	-4.3	4	6	
2025-11-26T00:00	1640	825	-4.3	-4.4	6	6	
2025-11-26T00:00	1660	823	-4.4	-4.6	7	6	
2025-11-26T00:00	1680	821	-4.5	-4.8	6	6	
2025-11-26T00:00	1700	819	-4.6	-4.9	4	6	
2025-11-26T00:00	1720	817	-4.8	-5.0	3	6	
2025-11-26T00:00	1740	815	-4.9	-5.2	2	6	
2025-11-26T00:00	1760	813	-5.0	-5.3	1	6	
2025-11-26T00:00	1780	811	-5.2	-5.4	1	6	
2025-11-26T00:00	1800	808	-5.3	-5.6	1	6	
2025-11-26T00:00	1820	806	-5.4	-5.7	2	6	
2025-11-26T00:00	1840	804	-5.5	-5.9	1	6	
2025-11-26T00:00	1860	802	-5.6	-6.1	1	6	
2025-11-26T00:00	1880	800	-5.8	-6.2	1	7	
2025-11-26T00:00	1900	798	-6.0	-6.3	1	7	
2025-11-26T00:00	1920	796	-6.1	-6.4	1	7	
2025-11-26T00:00	1940	794	-6.2	-6.5	2	7	
2025-11-26T00:00	1960	792	-6.3	-6.7	3	6	
2025-11-26T00:00	1980	790	-6.5	-6.7	5	6	
2025-11-26T00:00	2000	788	-6.6	-6.9	7	6	
2025-11-26T00:00	2020	786	-6.7	-7.1	8	5	
2025-11-26T00:00	2040	784	-6.8	-7.2	9	5	
2025-11-26T00:00	2060	782	-7.0	-7.4	10	5	
2025-11-26T00:00	2080	780	-7.1	-7.6	11	5	
2025-11-26T00:00	2100	778	-7.3	-7.6	11	5	
2025-11-26T00:00	2120	776	-7.4	-7.7	10	5	
2025-11-26T00:00	2140	774	-7.6	-7.8	8	5	
2025-11-26T00:00	2160	772	-7.7	-8.0	6	5	
2025-11-26T00:00	2180	770	-7.9	-8.1	4	5	
2025-11-26T00:00	2200	768	-8.0	-8.2	2	5	
2025-11-26T00:00	2220	766	-8.1	-8.4	2	5	
2025-11-26T00:00	2240	764	-8.2	-8.5	1	6	
2025-11-26T00:00	2260	762	-8.3	-8.7	2	6	
2025-11-26T00:00	2280	760	-8.5	-8.8	3	6	
2025-11-26T00:00	2300	758	-8.6	-8.8	4	6	
2025-11-26T00:00	2320	757	-8.8	-9.0	4	6	
2025-11-26T00:00	2340	755	-8.9	-9.2	5	6	
2025-11-26T00:00	2360	753	-9.0	-9.5	5	7	
2025-11-26T00:00	2380	751	-9.2	-9.5	5	7	
2025-11-26T00:00	2400	749	-9.3	-9.6	5	7	
2025-11-26T00:00	2420	747	-9.4	-9.8	6	7	
2025-11-26T00:00	2440	745	-9.5	-9.8	6	7	
2025-11-26T00:00	2460	743	-9.6	-10.0	6	7	
2025-11-26T00:00	2480	741	-9.8	-10.1	6	7	
2025-11-26T00:00	2500	739	-9.9	-10.3	5	7	
2025-11-26T00:00	2520	737	-10.0	-10.4	4	7	
2025-11-26T00:00	2540	735	-10.2	-10.5	2	7	
2025-11-26T00:00	2560	733	-10.3	-10.7	359	7	
2025-11-26T00:00	2580	731	-10.4	-10.7	357	7	
2025-11-26T00:00	2600	730	-10.5	-10.9	355	7	
2025-11-26T00:00	2620	728	-10.6	-11.0	354	7	
2025-11-26T00:00	2640	726	-10.8	-11.2	354	7	
2025-11-26T00:00	2660	724	-11.0	-11.5	356	7	
2025-11-26T00:00	2680	722	-11.1	-11.6	358	7	
2025-11-26T00:00	2700	720	-11.2	-11.8	0	7	
2025-11-26T00:00	2720	718	-11.4	-12.2	4	8	
2025-11-26T00:00	2740	716	-11.6	-12.4	7	8	
2025-11-26T00:00	2760	714	-11.7	-12.6	10	8	
2025-11-26T00:00	2780	713	-11.8	-12.7	11	8	
2025-11-26T00:00	2800	711	-12.0	-12.9	12	8	
2025-11-26T00:00	2820	709	-12.1	-12.9	12	8	
2025-11-26T00:00	2840	707	-12.3	-13.1	11	8	
2025-11-26T00:00	2860	705	-12.4	-13.2	10	8	
2025-11-26T00:00	2880	703	-12.5	-13.4	9	8	
2025-11-26T00:00	2900	702	-12.6	-13.5	9	8	
2025-11-26T00:00	2920	700	-12.7	-13.6	9	8	
2025-11-26T00:00	2940	698	-12.8	-13.8	8	8	
2025-11-26T00:00	2960	696	-13.0	-14.1	8	8	
2025-11-26T00:00	2980	694	-13.2	-14.3	8	8	
2025-11-26T00:00	3000	692	-13.3	-14.4	8	8	
2025-11-26T00:00	3020	691	-13.4	-14.5	7	8	
2025-11-26T00:00	3040	689	-13.6	-14.7	7	9	
2025-11-26T00:00	3060	687	-13.8	-14.9	7	9	
2025-11-26T00:00	3080	685	-13.9	-15.0	7	9	
2025-11-26T00:00	3100	683	-14.1	-15.2	7	9	
2025-11-26T00:00	3120	682	-14.2	-15.3	7	9	
2025-11-26T00:00	3140	680	-14.3	-15.4	7	9	
2025-11-26T00:00	3160	678	-14.5	-15.6	7	10	
2025-11-26T00:00	3180	676	-14.7	-15.8	7	10	
2025-11-26T00:00	3200	674	-14.8	-15.9	7	10	
2025-11-26T00:00	3220	673	-14.9	-16.0	8	10	
2025-11-26T00:00	3240	671	-15.1	-16.2	8	9	
2025-11-26T00:00	3260	669	-15.2	-16.3	8	9	
2025-11-26T00:00	3280	667	-15.4	-16.5	8	9	
2025-11-26T00:00	3300	665	-15.5	-16.7	8	9	
2025-11-26T00:00	3320	664	-15.6	-16.9	8	9	
2025-11-26T00:00	3340	662	-15.8	-17.0	7	8	
2025-11-26T00:00	3360	660	-15.9	-17.2	7	8	
2025-11-26T00:00	3380	659	-16.1	-17.3	7	8	
2025-11-26T00:00	3400	657	-16.3	-17.5	7	7	
2025-11-26T00:00	3420	655	-16.4	-17.7	7	7	
2025-11-26T00:00	3440	653	-16.5	-17.8	7	7	
2025-11-26T00:00	3460	652	-16.7	-18.0	8	8	
2025-11-26T00:00	3480	650	-16.8	-18.2	8	8	
2025-11-26T00:00	3500	648	-17.0	-18.3	8	8	
2025-11-26T00:00	3520	646	-17.2	-18.5	9	8	
2025-11-26T00:00	3540	645	-17.3	-18.6	9	8	
2025-11-26T00:00	3560	643	-17.5	-18.7	9	8	
2025-11-26T00:00	3580	641	-17.6	-18.9	10	8	
2025-11-26T00:00	3600	639	-17.8	-19.0	10	8	
2025-11-26T00:00	3620	638	-17.9	-19.1	10	8	
2025-11-26T00:00	3640	636	-18.1	-19.2	10	8	
2025-11-26T00:00	3660	634	-18.2	-19.2	10	8	
2025-11-26T00:00	3680	633	-18.4	-19.3	10	8	
2025-11-26T00:00	3700	631	-18.5	-19.5	9	8	
2025-11-26T00:00	3720	629	-18.7	-19.9	8	8	
2025-11-26T00:00	3740	628	-18.9	-20.3	8	8	
2025-11-26T00:00	3760	626	-19.0	-20.3	7	9	
2025-11-26T00:00	3780	624	-19.2	-20.5	7	9	
2025-11-26T00:00	3800	623	-19.3	-20.8	7	9	
2025-11-26T00:00	3820	621	-19.4	-20.9	8	9	
2025-11-26T00:00	3840	619	-19.6	-21.1	9	9	
2025-11-26T00:00	3860	618	-19.8	-21.4	10	9	
2025-11-26T00:00	3880	616	-19.9	-21.6	11	9	
2025-11-26T00:00	3900	614	-20.1	-21.7	12	9	
2025-11-26T00:00	3920	612	-20.2	-21.9	12	9	
2025-11-26T00:00	3940	611	-20.3	-22.3	13	9	
2025-11-26T00:00	3960	609	-20.5	-22.5	13	9	
2025-11-26T00:00	3980	608	-20.6	-22.8	13	9	
2025-11-26T00:00	4000	606	-20.8	-23.0	13	8	
2025-11-26T00:00	4020	604	-21.0	-23.2	12	8	
2025-11-26T00:00	4040	603	-21.1	-23.3	12	8	
2025-11-26T00:00	4060	601	-21.3	-23.4	11	8	
2025-11-26T00:00	4080	600	-21.4	-23.5	11	8	
2025-11-26T00:00	4100	598	-21.6	-23.7	10	8	
2025-11-26T00:00	4120	596	-21.8	-23.9	10	8	
2025-11-26T00:00	4140	594	-21.9	-24.0	9	9	
2025-11-26T00:00	4160	593	-22.1	-24.1	9	9	
2025-11-26T00:00	4180	591	-22.3	-24.3	8	9	
2025-11-26T00:00	4200	590	-22.4	-24.6	8	9	
2025-11-26T00:00	4220	588	-22.6	-24.8	8	9	
2025-11-26T00:00	4240	587	-22.8	-24.9	9	8	
2025-11-26T00:00	4260	585	-22.9	-25.1	9	8	
2025-11-26T00:00	4280	583	-23.1	-25.1	10	8	
2025-11-26T00:00	4300	582	-23.3	-25.1	11	8	
2025-11-26T00:00	4320	580	-23.4	-25.3	12	8	
2025-11-26T00:00	4340	579	-23.6	-25.4	13	8	
2025-11-26T00:00	4360	577	-23.8	-25.3	14	8	
2025-11-26T00:00	4380	575	-23.9	-25.5	14	8	
2025-11-26T00:00	4400	574	-24.1	-25.7	15	8	
2025-11-26T00:00	4420	572	-24.2	-25.7	15	8	
2025-11-26T00:00	4440	571	-24.4	-25.8	14	8	
2025-11-26T00:00	4460	569	-24.5	-25.9	13	8	
2025-11-26T00:00	4480	568	-24.7	-25.9	13	8	
2025-11-26T00:00	4500	566	-24.9	-25.8	12	8	
2025-11-26T00:00	4520	564	-25.1	-26.1	12	8	
2025-11-26T00:00	4540	563	-25.2	-26.2	11	8	
2025-11-26T00:00	4560	561	-25.4	-26.4	11	8	
2025-11-26T00:00	4580	560	-25.6	-26.4	11	8	
2025-11-26T00:00	4600	558	-25.7	-26.6	12	8	
2025-11-26T00:00	4620	557	-25.9	-26.8	12	8	
2025-11-26T00:00	4640	555	-26.1	-26.7	12	8	
2025-11-26T00:00	4660	553	-26.3	-26.8	12	8	
2025-11-26T00:00	4680	552	-26.4	-27.0	12	9	
2025-11-26T00:00	4700	550	-26.6	-27.3	12	9	
2025-11-26T00:00	4720	549	-26.7	-27.5	12	9	
2025-11-26T00:00	4740	548	-26.9	-27.6	12	9	
2025-11-26T00:00	4760	546	-27.1	-27.9	12	9	
2025-11-26T00:00	4780	544	-27.3	-27.9	11	8	
2025-11-26T00:00	4800	543	-27.4	-27.8	10	8	
2025-11-26T00:00	4820	542	-27.6	-28.0	8	8	
2025-11-26T00:00	4840	540	-27.8	-28.6	6	8	
2025-11-26T00:00	4860	538	-28.0	-29.4	4	7	
2025-11-26T00:00	4880	537	-28.1	-29.6	4	8	
2025-11-26T00:00	4900	535	-28.3	-29.8	5	8	
2025-11-26T00:00	4920	534	-28.4	-29.9	7	8	
2025-11-26T00:00	4940	532	-28.6	-30.2	9	8	
2025-11-26T00:00	4960	531	-28.7	-30.5	10	8	
2025-11-26T00:00	4980	530	-28.9	-30.9	12	8	
2025-11-26T00:00	5000	528	-29.1	-31.3	12	8	
2025-11-26T00:00	5020	527	-29.2	-31.4	12	8	
2025-11-26T00:00	5040	525	-29.4	-31.6	11	8	
2025-11-26T00:00	5060	523	-29.6	-31.8	10	8	
2025-11-26T00:00	5080	522	-29.8	-32.1	9	8	
2025-11-26T00:00	5100	521	-29.9	-32.1	8	8	
2025-11-26T00:00	5120	519	-30.1	-32.3	7	8	
2025-11-26T00:00	5140	518	-30.3	-32.4	7	8	
2025-11-26T00:00	5160	516	-30.5	-32.5	8	7	
2025-11-26T00:00	5180	515	-30.6	-32.7	8	7	
2025-11-26T00:00	5200	513	-30.8	-32.9	9	7	
2025-11-26T00:00	5220	512	-31.0	-33.0	9	7	
2025-11-26T00:00	5240	511	-31.2	-33.4	9	7	
2025-11-26T00:00	5260	509	-31.4	-33.6	9	7	
2025-11-26T00:00	5280	508	-31.6	-33.8	9	7	
2025-11-26T00:00	5300	506	-31.7	-34.1	9	7	
2025-11-26T00:00	5320	505	-31.9	-34.3	9	7	
2025-11-26T00:00	5340	503	-32.1	-34.6	10	7	
2025-11-26T00:00	5360	502	-32.3	-35.0	11	7	
2025-11-26T00:00	5380	500	-32.5	-35.1	12	7	
2025-11-26T00:00	5400	499	-32.7	-35.0	13	7	
2025-11-26T00:00	5420	498	-32.9	-35.2	13	7	
2025-11-26T00:00	5440	496	-33.0	-35.7	13	7	
2025-11-26T00:00	5460	495	-33.2	-35.9	11	6	
2025-11-26T00:00	5480	494	-33.4	-35.9	10	6	
2025-11-26T00:00	5500	492	-33.6	-35.8	10	6	
2025-11-26T00:00	5520	491	-33.8	-36.0	10	6	
2025-11-26T00:00	5540	489	-34.0	-36.5	10	7	
2025-11-26T00:00	5560	488	-34.1	-37.1	11	7	
2025-11-26T00:00	5580	487	-34.2	-36.6	12	7	
2025-11-26T00:00	5600	485	-34.3	-36.3	13	8	
2025-11-26T00:00	5620	484	-34.5	-37.4	13	8	
2025-11-26T00:00	5640	482	-34.7	-37.9	15	8	
2025-11-26T00:00	5660	481	-34.9	-37.8	16	8	
2025-11-26T00:00	5680	479	-35.0	-37.6	17	8	
2025-11-26T00:00	5700	478	-35.2	-37.5	19	9	
2025-11-26T00:00	5720	477	-35.3	-37.5	20	9	
2025-11-26T00:00	5740	475	-35.5	-37.4	19	9	
2025-11-26T00:00	5760	474	-35.6	-37.2	19	8	
2025-11-26T00:00	5780	473	-35.7	-37.0	16	8	
2025-11-26T00:00	5800	471	-35.9	-36.8	12	8	
2025-11-26T00:00	5820	470	-36.0	-37.1	8	8	
2025-11-26T00:00	5840	469	-36.2	-37.5	5	8	
2025-11-26T00:00	5860	467	-36.4	-38.0	4	9	
2025-11-26T00:00	5880	466	-36.5	-38.7	3	9	
2025-11-26T00:00	5900	465	-36.7	-39.0	2	9	
2025-11-26T00:00	5920	463	-36.9	-39.5	3	9	
2025-11-26T00:00	5940	462	-37.0	-38.9	4	9	
2025-11-26T00:00	5960	461	-37.2	-39.0	5	10	
2025-11-26T00:00	5980	459	-37.4	-39.5	7	10	
2025-11-26T00:00	6000	458	-37.6	-39.8	8	10	
2025-11-26T00:00	6020	457	-37.8	-40.2	9	9	
2025-11-26T00:00	6040	455	-37.9	-40.2	10	9	
2025-11-26T00:00	6060	454	-38.1	-40.1	12	9	
2025-11-26T00:00	6080	453	-38.3	-40.3	12	9	
2025-11-26T00:00	6100	451	-38.5	-40.4	13	9	
2025-11-26T00:00	6120	450	-38.7	-40.7	13	9	
2025-11-26T00:00	6140	449	-38.9	-40.9	14	8	
2025-11-26T00:00	6160	447	-39.0	-41.8	14	8	
2025-11-26T00:00	6180	446	-39.2	-42.2	14	7	
2025-11-26T00:00	6200	445	-39.3	-42.5	15	7	
2025-11-26T00:00	6220	444	-39.5	-42.7	16	7	
2025-11-26T00:00	6240	442	-39.7	-42.7	17	7	
2025-11-26T00:00	6260	441	-39.9	-42.8	17	7	
2025-11-26T00:00	6280	440	-40.1	-42.3	15	7	
2025-11-26T00:00	6300	438	-40.2	-42.6	13	8	
2025-11-26T00:00	6320	437	-40.4	-43.1	11	8	
2025-11-26T00:00	6340	436	-40.6	-44.1	9	8	
2025-11-26T00:00	6360	434	-40.8	-44.9	7	9	
2025-11-26T00:00	6380	433	-41.0	-45.3	6	9	
2025-11-26T00:00	6400	432	-41.1	-45.7	6	9	
2025-11-26T00:00	6420	431	-41.2	-45.9	5	10	
2025-11-26T00:00	6440	430	-41.3	-45.7	4	10	
2025-11-26T00:00	6460	428	-41.5	-45.3	3	11	
2025-11-26T00:00	6480	427	-41.6	-45.4	1	11	
2025-11-26T00:00	6500	426	-41.8	-45.5	0	11	
2025-11-26T00:00	6520	424	-42.0	-45.5	0	11	
2025-11-26T00:00	6540	423	-42.1	-45.6	1	12	
2025-11-26T00:00	6560	422	-42.3	-45.7	2	12	
2025-11-26T00:00	6580	421	-42.5	-45.4	4	12	
2025-11-26T00:00	6600	419	-42.7	-45.6	5	12	
2025-11-26T00:00	6620	418	-42.8	-45.9	6	13	
2025-11-26T00:00	6640	417	-43.0	-45.9	6	13	
2025-11-26T00:00	6660	416	-43.1	-45.9	7	13	
2025-11-26T00:00	6680	415	-43.3	-46.1	6	13	
2025-11-26T00:00	6700	413	-43.4	-47.0	6	14	
2025-11-26T00:00	6720	412	-43.5	-48.3	6	14	
2025-11-26T00:00	6740	411	-43.7	-48.5	6	13	
2025-11-26T00:00	6760	409	-43.9	-48.2	5	13	
2025-11-26T00:00	6780	408	-44.1	-48.1	4	12	
2025-11-26T00:00	6800	407	-44.2	-48.4	3	12	
2025-11-26T00:00	6820	406	-44.4	-49.0	3	12	
2025-11-26T00:00	6840	405	-44.6	-49.0	4	12	
2025-11-26T00:00	6860	403	-44.8	-48.9	6	11	
2025-11-26T00:00	6880	402	-45.0	-48.8	9	11	
2025-11-26T00:00	6900	401	-45.1	-48.8	11	11	
2025-11-26T00:00	6920	400	-45.3	-48.9	12	12	
2025-11-26T00:00	6940	399	-45.5	-49.3	12	12	
2025-11-26T00:00	6960	397	-45.7	-49.6	12	12	
2025-11-26T00:00	6980	396	-45.9	-49.6	12	12	
2025-11-26T00:00	7000	395	-46.1	-49.6	11	12	
2025-11-26T00:00	7020	394	-46.3	-50.0	11	12	
2025-11-26T00:00	7040	393	-46.5	-50.3	11	12	
2025-11-26T00:00	7060	392	-46.6	-50.5	11	11	
2025-11-26T00:00	7080	390	-46.8	-50.7	11	11	
2025-11-26T00:00	7100	389	-47.0	-50.7	10	11	
2025-11-26T00:00	7120	388	-47.2	-50.9	10	12	
2025-11-26T00:00	7140	387	-47.3	-51.5	9	12	
2025-11-26T00:00	7160	386	-47.4	-52.0	9	12	
2025-11-26T00:00	7180	385	-47.5	-52.2	8	12	
2025-11-26T00:00	7200	383	-47.7	-52.3	8	12	
2025-11-26T00:00	7220	382	-47.8	-52.3	6	12	
2025-11-26T00:00	7240	381	-48.0	-52.3	3	12	
2025-11-26T00:00	7260	380	-48.1	-52.4	1	12	
2025-11-26T00:00	7280	379	-48.3	-52.7	358	12	
2025-11-26T00:00	7300	378	-48.4	-52.9	356	13	
2025-11-26T00:00	7320	376	-48.5	-52.8	355	13	
2025-11-26T00:00	7340	375	-48.7	-52.5	356	14	
2025-11-26T00:00	7360	374	-48.8	-52.2	357	15	
2025-11-26T00:00	7380	373	-48.8	-52.3	358	16	
2025-11-26T00:00	7400	372	-48.8	-53.1	359	16	
2025-11-26T00:00	7420	371	-48.8	-53.4	359	17	
2025-11-26T00:00	7440	370	-48.9	-53.4	359	17	
2025-11-26T00:00	7460	368	-49.0	-53.3	358	17	
2025-11-26T00:00	7480	367	-49.1	-53.3	358	17	
2025-11-26T00:00	7500	366	-49.2	-53.4	358	16	
2025-11-26T00:00	7520	365	-49.2	-53.6	358	16	
2025-11-26T00:00	7540	364	-49.3	-54.1	359	15	
2025-11-26T00:00	7560	363	-49.2	-55.0	2	14	
2025-11-26T00:00	7580	362	-49.2	-55.6	5	13	
2025-11-26T00:00	7600	361	-49.2	-56.3	7	13	
2025-11-26T00:00	7620	360	-49.1	-57.4	9	13	
2025-11-26T00:00	7640	358	-49.1	-58.4	9	12	
2025-11-26T00:00	7660	357	-48.8	-59.1	9	12	
2025-11-26T00:00	7680	356	-48.8	-59.2	9	12	
2025-11-26T00:00	7700	355	-48.8	-59.3	8	12	
2025-11-26T00:00	7720	354	-48.7	-59.7	8	12	
2025-11-26T00:00	7740	353	-48.7	-60.1	8	12	
2025-11-26T00:00	7760	352	-48.7	-60.1	8	13	
2025-11-26T00:00	7780	351	-48.8	-60.4	8	13	
2025-11-26T00:00	7800	350	-48.8	-60.4	9	13	
2025-11-26T00:00	7820	349	-48.7	-60.4	9	13	
2025-11-26T00:00	7840	348	-48.7	-60.6	8	13	
2025-11-26T00:00	7860	347	-48.8	-61.0	8	13	
2025-11-26T00:00	7880	346	-48.7	-61.4	7	12	
2025-11-26T00:00	7900	345	-48.6	-61.3	6	12	
2025-11-26T00:00	7920	343	-48.6	-61.1	5	11	
2025-11-26T00:00	7940	342	-48.7	-60.9	3	11	
2025-11-26T00:00	7960	341	-48.8	-60.9	1	11	
2025-11-26T00:00	7980	340	-49.0	-61.3	359	10	
2025-11-26T00:00	8000	339	-49.1	-62.0	358	10	
2025-11-26T00:00	8020	338	-49.2	-62.5	358	10	
2025-11-26T00:00	8040	337	-49.3	-62.5	358	9	
2025-11-26T00:00	8060	336	-49.3	-63.1	0	9	
2025-11-26T00:00	8080	335	-49.1	-64.0	2	8	
2025-11-26T00:00	8100	334	-49.1	-64.3	4	8	
2025-11-26T00:00	8120	333	-49.2	-63.5	4	8	
2025-11-26T00:00	8140	332	-49.2	-63.2	4	8	
2025-11-26T00:00	8160	331	-49.3	-63.6	3	8	
2025-11-26T00:00	8180	330	-49.4	-63.7	3	8	
2025-11-26T00:00	8200	329	-49.4	-63.9	3	8	
2025-11-26T00:00	8220	328	-49.4	-63.5	4	8	
2025-11-26T00:00	8240	327	-49.5	-63.9	5	8	
2025-11-26T00:00	8260	326	-49.6	-63.8	6	8	
2025-11-26T00:00	8280	325	-49.7	-63.3	7	8	
2025-11-26T00:00	8300	324	-49.8	-63.1	8	8	
2025-11-26T00:00	8320	323	-49.9	-62.2	9	8	
2025-11-26T00:00	8340	322	-49.9	-62.0	11	8	
2025-11-26T00:00	8360	321	-50.0	-62.6	11	8	
2025-11-26T00:00	8380	320	-50.1	-63.2	11	8	
2025-11-26T00:00	8400	319	-50.1	-63.5	11	8	
2025-11-26T00:00	8420	318	-50.2	-63.8	10	8	
2025-11-26T00:00	8440	317	-50.2	-64.3	10	9	
2025-11-26T00:00	8460	316	-50.2	-64.8	10	9	
2025-11-26T00:00	8480	315	-50.3	-65.1	10	9	
2025-11-26T00:00	8500	314	-50.3	-65.2	10	9	
2025-11-26T00:00	8520	313	-50.1	-64.6	11	9	
2025-11-26T00:00	8540	312	-50.1	-64.2	12	9	
2025-11-26T00:00	8560	312	-50.1	-64.4	12	8	
2025-11-26T00:00	8580	311	-50.2	-64.7	12	8	
2025-11-26T00:00	8600	310	-50.2	-65.3	10	7	
2025-11-26T00:00	8620	309	-50.1	-66.2	7	7	
2025-11-26T00:00	8640	308	-50.2	-66.5	2	6	
2025-11-26T00:00	8660	307	-50.3	-65.9	356	6	
2025-11-26T00:00	8680	306	-50.4	-65.6	351	6	
2025-11-26T00:00	8700	305	-50.6	-65.9	347	6	
2025-11-26T00:00	8720	304	-50.7	-66.2	344	6	
2025-11-26T00:00	8740	303	-50.7	-65.9	342	5	
2025-11-26T00:00	8760	302	-50.3	-66.3	341	5	
2025-11-26T00:00	8780	301	-50.0	-67.3	340	5	
2025-11-26T00:00	8800	300	-49.8	-66.7	340	5	
2025-11-26T00:00	8820	299	-49.7	-65.6	341	5	
2025-11-26T00:00	8840	298	-49.6	-65.6	344	5	
2025-11-26T00:00	8860	298	-49.6	-66.7	346	6	
2025-11-26T00:00	8880	297	-49.5	-67.5	349	6	
2025-11-26T00:00	8900	296	-49.3	-66.8	350	6	
2025-11-26T00:00	8920	295	-49.2	-66.5	350	6	
2025-11-26T00:00	8940	294	-49.2	-67.2	348	6	
2025-11-26T00:00	8960	293	-49.2	-66.8	346	6	
2025-11-26T00:00	8980	292	-49.3	-66.7	344	6	
2025-11-26T00:00	9000	291	-49.3	-67.0	343	6	
2025-11-26T00:00	9020	290	-49.0	-67.5	342	6	
2025-11-26T00:00	9040	289	-48.9	-68.1	341	7	
2025-11-26T00:00	9060	288	-49.0	-67.9	340	7	
2025-11-26T00:00	9080	288	-49.1	-68.1	340	8	
2025-11-26T00:00	9100	287	-49.2	-68.7	340	8	
2025-11-26T00:00	9120	286	-49.2	-69.2	340	9	
2025-11-26T00:00	9140	285	-49.3	-68.8	340	9	
2025-11-26T00:00	9160	284	-49.5	-68.8	341	9	
2025-11-26T00:00	9180	283	-49.5	-68.8	342	9	
2025-11-26T00:00	9200	282	-49.6	-68.8	344	9	
2025-11-26T00:00	9220	282	-49.6	-68.9	347	9	
2025-11-26T00:00	9240	281	-49.4	-68.7	349	9	
2025-11-26T00:00	9260	280	-49.5	-68.9	351	9	
2025-11-26T00:00	9280	279	-49.6	-69.0	354	8	
2025-11-26T00:00	9300	278	-49.7	-69.1	356	8	
2025-11-26T00:00	9320	277	-49.8	-69.5	356	8	
2025-11-26T00:00	9340	276	-49.9	-69.8	356	8	
2025-11-26T00:00	9360	276	-50.0	-70.0	354	8	
2025-11-26T00:00	9380	275	-49.9	-69.6	352	8	
2025-11-26T00:00	9400	274	-50.0	-69.7	349	8	
2025-11-26T00:00	9420	273	-50.1	-70.0	347	8	
2025-11-26T00:00	9440	272	-50.2	-69.9	344	9	
2025-11-26T00:00	9460	271	-50.4	-69.7	341	9	
2025-11-26T00:00	9480	271	-50.6	-70.0	340	9	
2025-11-26T00:00	9500	270	-50.7	-70.3	340	10	
2025-11-26T00:00	9520	269	-50.8	-70.6	341	10	
2025-11-26T00:00	9540	268	-50.7	-70.6	342	10	
2025-11-26T00:00	9560	267	-50.5	-70.2	344	10	
2025-11-26T00:00	9580	267	-50.5	-70.3	346	10	
2025-11-26T00:00	9600	266	-50.6	-70.4	347	10	
2025-11-26T00:00	9620	265	-50.6	-70.5	348	9	
2025-11-26T00:00	9640	264	-50.4	-70.5	348	9	
2025-11-26T00:00	9660	263	-50.3	-70.6	348	9	
2025-11-26T00:00	9680	262	-50.3	-70.8	348	10	
2025-11-26T00:00	9700	262	-50.1	-70.9	349	10	
2025-11-26T00:00	9720	261	-50.2	-71.2	350	10	
2025-11-26T00:00	9740	260	-50.1	-71.4	352	10	
2025-11-26T00:00	9760	259	-50.2	-71.6	353	10	
2025-11-26T00:00	9780	259	-50.3	-72.0	354	11	
2025-11-26T00:00	9800	258	-50.3	-72.2	353	11	
2025-11-26T00:00	9820	257	-50.1	-72.4	353	11	
2025-11-26T00:00	9840	256	-50.0	-72.5	351	10	
2025-11-26T00:00	9860	255	-50.1	-73.3	350	10	
2025-11-26T00:00	9880	255	-50.0	-73.5	349	9	
2025-11-26T00:00	9900	254	-50.0	-73.6	348	8	
2025-11-26T00:00	9920	253	-49.9	-73.5	348	8	
2025-11-26T00:00	9940	252	-49.9	-73.3	349	8	
2025-11-26T00:00	9960	251	-49.8	-73.0	351	8	
2025-11-26T00:00	9980	251	-49.7	-72.7	352	8	
2025-11-26T00:00	10000	250	-49.8	-72.8	352	8	
2025-11-26T00:00	10018	249	-49.9	-72.8	352	8	
2025-11-26T00:00	10050	248	-50.2	-73.0	351	9	
2025-11-26T00:00	10100	246	-50.5	-72.9	350	9	
2025-11-26T00:00	10150	244	-50.6	-73.2	344	8	
2025-11-26T00:00	10200	242	-50.7	-73.7	335	7	
2025-11-26T00:00	10250	240	-51.0	-74.3	325	7	
2025-11-26T00:00	10300	239	-51.4	-74.4	320	7	
2025-11-26T00:00	10350	237	-51.7	-74.9	317	8	
2025-11-26T00:00	10400	235	-51.6	-75.4	314	9	
2025-11-26T00:00	10450	233	-51.3	-75.1	313	10	
2025-11-26T00:00	10500	231	-51.2	-74.7	313	10	
2025-11-26T00:00	10550	230	-50.8	-76.0	313	10	
2025-11-26T00:00	10600	228	-50.1	-77.0	314	9	
2025-11-26T00:00	10650	226	-50.0	-77.1	314	9	
2025-11-26T00:00	10700	224	-49.9	-77.0	314	9	
2025-11-26T00:00	10750	223	-49.8	-76.9	315	8	
2025-11-26T00:00	10800	221	-49.8	-77.2	314	8	
2025-11-26T00:00	10850	219	-49.6	-77.2	314	8	
2025-11-26T00:00	10900	218	-49.8	-77.2	317	8	
2025-11-26T00:00	10950	216	-49.9	-77.5	320	9	
2025-11-26T00:00	11000	214	-50.2	-77.9	323	9	
2025-11-26T00:00	11050	213	-50.3	-78.1	323	9	
2025-11-26T00:00	11100	211	-50.3	-78.1	323	8	
2025-11-26T00:00	11150	209	-50.2	-78.1	324	9	
2025-11-26T00:00	11200	208	-50.5	-78.4	327	9	
2025-11-26T00:00	11250	206	-50.7	-78.5	330	10	
2025-11-26T00:00	11300	205	-50.9	-78.5	333	11	
2025-11-26T00:00	11350	203	-51.1	-78.6	338	11	
2025-11-26T00:00	11400	202	-51.2	-78.9	341	11	
2025-11-26T00:00	11450	200	-51.3	-79.0	342	11	
2025-11-26T00:00	11500	198	-51.3	-79.1	341	9	
2025-11-26T00:00	11550	197	-51.3	-79.3	337	8	
2025-11-26T00:00	11600	195	-51.4	-79.5	329	7	
2025-11-26T00:00	11650	194	-51.2	-79.6	321	8	
2025-11-26T00:00	11700	193	-51.3	-79.5	317	8	
2025-11-26T00:00	11750	191	-51.4	-79.7	313	8	
2025-11-26T00:00	11800	190	-51.6	-79.8	312	8	
2025-11-26T00:00	11850	188	-51.3	-79.9	317	8	
2025-11-26T00:00	11900	187	-51.0	-79.9	322	8	
2025-11-26T00:00	11950	185	-50.9	-79.8	325	8	
2025-11-26T00:00	12000	184	-50.9	-80.0	329	8	
2025-11-26T00:00	12050	182	-51.0	-80.0	329	8	
2025-11-26T00:00	12100	181	-51.0	-80.0	327	7	
2025-11-26T00:00	12150	180	-51.0	-79.9	324	7	
2025-11-26T00:00	12200	178	-51.0	-80.0	324	7	
2025-11-26T00:00	12250	177	-51.1	-80.0	327	7	
2025-11-26T00:00	12300	176	-51.3	-80.0	331	7	
2025-11-26T00:00	12350	174	-51.6	-80.1	330	7	
2025-11-26T00:00	12400	173	-51.7	-80.2	328	8	
2025-11-26T00:00	12450	171	-51.8	-80.4	329	8	
2025-11-26T00:00	12500	170	-51.9	-80.5	330	8	
2025-11-26T00:00	12550	169	-52.2	-80.5	330	8	
2025-11-26T00:00	12600	168	-52.4	-80.6	331	7	
2025-11-26T00:00	12650	166	-52.7	-80.7	333	7	
2025-11-26T00:00	12700	165	-53.0	-80.9	335	8	
2025-11-26T00:00	12750	164	-53.1	-80.9	334	9	
2025-11-26T00:00	12800	162	-53.1	-81.1	332	9	
2025-11-26T00:00	12850	161	-53.3	-81.0	331	8	
2025-11-26T00:00	12900	160	-53.7	-81.2	328	8	
2025-11-26T00:00	12950	159	-54.1	-81.4	323	8	
2025-11-26T00:00	13000	157	-54.3	-81.4	322	8	
2025-11-26T00:00	13050	156	-54.5	-81.7	323	8	
2025-11-26T00:00	13100	155	-54.7	-81.6	324	8	
2025-11-26T00:00	13150	154	-54.8	-81.8	319	8	
2025-11-26T00:00	13200	153	-55.0	-81.9	310	8	
2025-11-26T00:00	13250	151	-55.0	-81.9	306	8	
2025-11-26T00:00	13300	150	-55.1	-82.0	308	8	
2025-11-26T00:00	13350	149	-55.3	-82.0	311	9	
2025-11-26T00:00	13400	148	-55.4	-82.0	312	9	
2025-11-26T00:00	13450	147	-55.5	-82.2	310	9	
2025-11-26T00:00	13500	146	-55.6	-82.3	310	10	
2025-11-26T00:00	13550	144	-55.6	-82.3	307	10	
2025-11-26T00:00	13600	143	-55.7	-82.3	303	10	
2025-11-26T00:00	13650	142	-55.8	-82.4	300	10	
2025-11-26T00:00	13700	141	-55.7	-82.4	299	10	
2025-11-26T00:00	13750	140	-55.8	-82.4	299	10	
2025-11-26T00:00	13800	139	-56.1	-82.6	298	10	
2025-11-26T00:00	13850	138	-56.2	-82.5	296	10	
2025-11-26T00:00	13900	137	-56.5	-82.7	296	10	
2025-11-26T00:00	13950	136	-56.7	-82.6	299	9	
2025-11-26T00:00	14000	135	-56.8	-82.8	304	9	
2025-11-26T00:00	14050	134	-57.0	-83.0	309	9	
2025-11-26T00:00	14100	132	-57.1	-83.1	315	10	
2025-11-26T00:00	14150	131	-57.2	-83.2	318	11	
2025-11-26T00:00	14200	130	-57.3	-83.2	315	12	
2025-11-26T00:00	14250	129	-57.6	-83.4	313	12	
2025-11-26T00:00	14300	128	-57.8	-83.4	315	13	
2025-11-26T00:00	14350	127	-57.7	-83.4	318	12	
2025-11-26T00:00	14400	126	-57.9	-83.4	322	12	
2025-11-26T00:00	14450	125	-58.1	-83.4	324	11	
2025-11-26T00:00	14500	124	-58.3	-83.5	325	11	
2025-11-26T00:00	14550	123	-58.2	-83.6	322	11	
2025-11-26T00:00	14600	122	-58.1	-83.6	319	10	
2025-11-26T00:00	14650	121	-58.1	-83.7	317	9	
2025-11-26T00:00	14700	120	-57.7	-83.7	313	10	
2025-11-26T00:00	14750	119	-57.6	-83.7	310	10	
2025-11-26T00:00	14800	119	-58.0	-83.8	309	11	
2025-11-26T00:00	14850	118	-58.2	-83.9	308	11	
2025-11-26T00:00	14900	117	-57.9	-83.9	307	10	
2025-11-26T00:00	14950	116	-57.8	-83.9	307	11	
2025-11-26T00:00	15000	115	-57.7	-83.9	307	11	
2025-11-26T00:00	15050	114	-57.6	-83.9	308	12	
2025-11-26T00:00	15100	113	-58.0	-83.9	308	13	
2025-11-26T00:00	15150	112	-58.4	-84.0	308	14	
2025-11-26T00:00	15200	111	-58.1	-84.0	307	13	
2025-11-26T00:00	15250	110	-57.9	-84.0	306	13	
2025-11-26T00:00	15300	110	-58.2	-84.1	306	12	
2025-11-26T00:00	15350	109	-58.5	-84.2	308	12	
2025-11-26T00:00	15400	108	-58.7	-84.2	308	13	
2025-11-26T00:00	15450	107	-58.9	-84.2	309	14	
2025-11-26T00:00	15500	106	-59.1	-84.3	309	14	
2025-11-26T00:00	15550	105	-59.2	-84.4	312	14	
2025-11-26T00:00	15600	104	-59.4	-84.5	316	14	
2025-11-26T00:00	15650	104	-59.5	-84.5	320	14	
2025-11-26T00:00	15700	103	-59.8	-84.6	323	15	
2025-11-26T00:00	15750	102	-60.1	-84.7	324	15	
2025-11-26T00:00	15800	101	-60.4	-84.8	325	15	
2025-11-26T00:00	15850	100	-60.5	-84.8	323	15	
2025-11-26T00:00	15900	99	-60.7	-84.9	319	15	
2025-11-26T00:00	15950	99	-60.9	-85.0	313	16	
2025-11-26T00:00	16000	98	-61.0	-85.1	307	16	
2025-11-26T00:00	16050	97	-61.1	-85.2	305	16	
2025-11-26T00:00	16100	96	-61.1	-85.2	308	15	
2025-11-26T00:00	16150	96	-61.0	-85.3	313	14	
2025-11-26T00:00	16200	95	-61.0	-85.4	319	14	
2025-11-26T00:00	16250	94	-60.8	-85.3	320	15	
2025-11-26T00:00	16300	93	-60.8	-85.3	320	15	
2025-11-26T00:00	16350	93	-60.8	-85.3	321	15	
2025-11-26T00:00	16400	92	-60.9	-85.3	321	14	
2025-11-26T00:00	16450	91	-61.2	-85.5	321	14	
2025-11-26T00:00	16500	90	-61.2	-85.4	319	14	
2025-11-26T00:00	16550	90	-61.5	-85.5	317	14	
2025-11-26T00:00	16600	89	-61.8	-85.6	316	14	
2025-11-26T00:00	16650	88	-61.9	-85.7	316	14	
2025-11-26T00:00	16700	87	-62.0	-85.7	316	14	
2025-11-26T00:00	16750	87	-62.1	-85.8	316	13	
2025-11-26T00:00	16800	86	-62.3	-85.8	317	13	
2025-11-26T00:00	16850	85	-62.7	-85.9	318	12	
2025-11-26T00:00	16900	85	-62.8	-86.0	318	12	
2025-11-26T00:00	16950	84	-63.0	-86.2	318	13	
2025-11-26T00:00	17000	83	-63.0	-86.2	318	14	
2025-11-26T00:00	17050	83	-62.9	-86.2	317	14	
2025-11-26T00:00	17100	82	-63.0	-86.1	314	15	
2025-11-26T00:00	17150	81	-63.4	-86.2	310	16	
2025-11-26T00:00	17200	81	-63.7	-86.3	308	18	
2025-11-26T00:00	17250	80	-63.8	-86.5	307	19	
2025-11-26T00:00	17300	79	-63.6	-86.4	309	19	
2025-11-26T00:00	17350	79	-63.6	-86.4	312	18	
2025-11-26T00:00	17400	78	-63.9	-86.5	315	17	
2025-11-26T00:00	17450	77	-64.1	-86.5	316	16	
2025-11-26T00:00	17500	77	-64.4	-86.6	317	15	
2025-11-26T00:00	17550	76	-64.6	-86.6	318	15	
2025-11-26T00:00	17600	76	-65.1	-86.7	317	14	
2025-11-26T00:00	17650	75	-65.5	-86.8	315	14	
2025-11-26T00:00	17700	74	-65.9	-87.0	311	14	
2025-11-26T00:00	17750	74	-65.9	-87.1	308	14	
2025-11-26T00:00	17800	73	-65.8	-87.2	305	14	
2025-11-26T00:00	17850	73	-65.6	-87.1	304	15	
2025-11-26T00:00	17900	72	-65.7	-87.1	304	16	
2025-11-26T00:00	17950	71	-65.8	-87.2	305	17	
2025-11-26T00:00	18000	71	-65.9	-87.1	306	18	
2025-11-26T00:00	18050	70	-66.1	-87.2	307	19	
2025-11-26T00:00	18100	70	-66.1	-87.2	308	18	
2025-11-26T00:00	18150	69	-66.0	-87.1	309	17	
2025-11-26T00:00	18200	68	-66.3	-87.2	309	16	
2025-11-26T00:00	18250	68	-66.6	-87.5	307	15	
2025-11-26T00:00	18300	67	-66.1	-87.3	303	14	
2025-11-26T00:00	18350	67	-65.9	-87.3	297	13	
2025-11-26T00:00	18400	66	-65.8	-87.3	290	13	
2025-11-26T00:00	18450	66	-65.8	-87.3	284	13	
2025-11-26T00:00	18500	65	-65.6	-87.2	278	14	
2025-11-26T00:00	18550	65	-65.7	-87.2	275	14	
2025-11-26T00:00	18600	64	-65.9	-87.2	275	15	
2025-11-26T00:00	18650	64	-66.0	-87.2	279	15	
2025-11-26T00:00	18700	63	-66.4	-87.3	282	15	
2025-11-26T00:00	18750	62	-66.6	-87.3	285	16	
2025-11-26T00:00	18800	62	-66.8	-87.4	286	17	
2025-11-26T00:00	18850	61	-66.8	-87.4	288	18	
2025-11-26T00:00	18900	61	-66.8	-87.5	290	18	
2025-11-26T00:00	18950	60	-66.8	-87.5	291	18	
2025-11-26T00:00	19000	60	-66.9	-87.6	291	18	
2025-11-26T00:00	19050	59	-67.1	-87.8	293	19	
2025-11-26T00:00	19100	59	-67.0	-87.8	293	20	
2025-11-26T00:00	19150	58	-67.0	-87.9	293	20	
2025-11-26T00:00	19200	58	-66.8	-87.9	294	21	
2025-11-26T00:00	19250	58	-66.8	-87.9	294	21	
2025-11-26T00:00	19300	57	-66.7	-87.8	292	21	
2025-11-26T00:00	19350	57	-66.7	-87.8	292	21	
2025-11-26T00:00	19400	56	-67.0	-88.1	293	21	
2025-11-26T00:00	19450	56	-66.8	-88.0	296	20	
2025-11-26T00:00	19500	55	-66.5	-87.7	298	20	
2025-11-26T00:00	19550	55	-66.6	-87.7	299	20	
2025-11-26T00:00	19600	54	-67.1	-87.8	300	19	
2025-11-26T00:00	19650	54	-67.5	-88.0	300	19	
2025-11-26T00:00	19700	53	-67.5	-88.0	297	18	
2025-11-26T00:00	19750	53	-67.6	-88.1	292	17	
2025-11-26T00:00	19800	52	-67.6	-88.1	288	16	
2025-11-26T00:00	19850	52	-67.6	-88.2	287	15	
2025-11-26T00:00	19900	52	-67.6	-88.3	288	15	
2025-11-26T00:00	19950	51	-67.7	-88.5	290	15	
2025-11-26T00:00	20000	51	-67.2	-88.4	289	15	
2025-11-26T00:00	20050	50	-66.4		287	15	
2025-11-26T00:00	20100	50	-65.3		287	15	
2025-11-26T00:00	20150	50	-64.9		287	15	
2025-11-26T00:00	20200	49	-64.4		285	14	
2025-11-26T00:00	20250	49	-64.2		279	14	
2025-11-26T00:00	20300	48	-64.0		276	15	
2025-11-26T00:00	20350	48	-64.4		276	15	
2025-11-26T00:00	20400	48	-64.8		277	16	
2025-11-26T00:00	20450	47	-65.0		279	16	
2025-11-26T00:00	20500	47	-65.0		283	16	
2025-11-26T00:00	20550	46	-64.6		288	14	
2025-11-26T00:00	20600	46	-64.5		294	12	
2025-11-26T00:00	20650	46	-64.6		300	10	
2025-11-26T00:00	20700	45	-64.7		305	9	
2025-11-26T00:00	20750	45	-64.6		309	8	
2025-11-26T00:00	20800	45	-64.8		311	7	
2025-11-26T00:00	20850	44	-65.0		309	7	
2025-11-26T00:00	20900	44	-65.2		304	6	
2025-11-26T00:00	20950	43	-65.4		300	7	
2025-11-26T00:00	21000	43	-65.6		298	7	
2025-11-26T00:00	21050	43	-66.0		295	8	
2025-11-26T00:00	21100	42	-66.4		293	9	
2025-11-26T00:00	21150	42	-66.8		290	10	
2025-11-26T00:00	21200	42	-67.0		288	11	
2025-11-26T00:00	21250	41	-66.8		288	11	
2025-11-26T00:00	21300	41	-67.0		287	12	
2025-11-26T00:00	21350	41	-67.2		286	13	
2025-11-26T00:00	21400	40	-67.3		284	13	
2025-11-26T00:00	21450	40	-67.6		282	14	
2025-11-26T00:00	21500	40	-68.0		278	15	
2025-11-26T00:00	21550	39	-68.3		274	15	
2025-11-26T00:00	21600	39	-68.5		271	16	
2025-11-26T00:00	21650	39	-68.4		267	17	
2025-11-26T00:00	21700	38	-68.3		264	18	
2025-11-26T00:00	21750	38	-68.6		260	19	
2025-11-26T00:00	21800	38	-68.7		257	20	
2025-11-26T00:00	21850	37	-69.1		255	21	
2025-11-26T00:00	21900	37	-69.4		254	22	
2025-11-26T00:00	21950	37	-69.6		257	23	
2025-11-26T00:00	22000	37	-69.7		261	23	
2025-11-26T00:00	22050	36	-69.0		266	23	
2025-11-26T00:00	22100	36	-68.8		271	22	
2025-11-26T00:00	22150	36	-68.5		276	22	
2025-11-26T00:00	22200	35	-68.4		281	23	
2025-11-26T00:00	22250	35	-68.3		285	24	
2025-11-26T00:00	22300	35	-68.0		288	24	
2025-11-26T00:00	22350	34	-67.3		290	22	
2025-11-26T00:00	22400	34	-67.0		292	21	
2025-11-26T00:00	22450	34	-67.3		293	20	
2025-11-26T00:00	22500	34	-67.7		295	19	
2025-11-26T00:00	22550	33	-68.0		295	19	
2025-11-26T00:00	22600	33	-68.0		293	19	
2025-11-26T00:00	22650	33	-68.0		291	19	
2025-11-26T00:00	22700	32	-67.9		290	20	
2025-11-26T00:00	22750	32	-67.9		290	21	
2025-11-26T00:00	22800	32	-68.2		291	22	
2025-11-26T00:00	22850	32	-68.5		291	22	
2025-11-26T00:00	22900	31	-68.7		292	23	
2025-11-26T00:00	22950	31	-68.5		291	22	
2025-11-26T00:00	23000	31	-68.5		290	21	
2025-11-26T00:00	23050	31	-68.2		289	20	
2025-11-26T00:00	23100	30	-68.3		290	19	
2025-11-26T00:00	23150	30	-68.4		293	19	
2025-11-26T00:00	23200	30	-68.7		294	20	
2025-11-26T00:00	23250	30	-68.8		291	20	
2025-11-26T00:00	23300	29	-68.5		286	21	
2025-11-26T00:00	23350	29	-67.9		280	21	
2025-11-26T00:00	23400	29	-67.7		275	23	
2025-11-26T00:00	23450	29	-66.7		271	25	
2025-11-26T00:00	23500	28	-66.1		270	26	
2025-11-26T00:00	23550	28	-65.7		268	26	
2025-11-26T00:00	23600	28	-65.5		268	26	
2025-11-26T00:00	23650	28	-65.7		271	26	
2025-11-26T00:00	23700	28	-65.8		273	27	
2025-11-26T00:00	23750	27	-65.7		274	28	
2025-11-26T00:00	23800	27	-65.4		275	29	
2025-11-26T00:00	23850	27	-65.3		276	29	
2025-11-26T00:00	23900	27	-65.7		275	29	
2025-11-26T00:00	23950	26	-65.6		274	28	
2025-11-26T00:00	24000	26	-65.6		273	27	
2025-11-26T00:00	24050	26	-65.7		274	26	
2025-11-26T00:00	24100	26	-65.8		273	26	
2025-11-26T00:00	24150	26	-65.5		271	27	
2025-11-26T00:00	24200	25	-65.2		270	28	
2025-11-26T00:00	24250	25	-65.1		269	28	
2025-11-26T00:00	24300	25	-64.1		268	27	
2025-11-26T00:00	24350	25	-64.3		266	27	
2025-11-26T00:00	24400	25	-64.5		263	27	
2025-11-26T00:00	24450	24	-64.5		261	27	
2025-11-26T00:00	24500	24	-64.4		260	26	
2025-11-26T00:00	24550	24	-64.7		260	26	
2025-11-26T00:00	24600	24	-65.0		258	26	
2025-11-26T00:00	24650	24	-64.2		256	26	
2025-11-26T00:00	24700	23	-64.0		254	27	
2025-11-26T00:00	24750	23	-64.0		254	27	
2025-11-26T00:00	24800	23	-64.1		256	26	
2025-11-26T00:00	24850	23	-64.1		259	26	
2025-11-26T00:00	24900	23	-64.1		261	25	
2025-11-26T00:00	24950	22	-64.4		263	25	
2025-11-26T00:00	25000	22	-64.7		264	25	
2025-11-26T00:00	25050	22	-64.7		266	24	
2025-11-26T00:00	25100	22	-64.8		268	24	
2025-11-26T00:00	25150	22	-64.9		270	24	
2025-11-26T00:00	25200	22	-64.9		270	25	
2025-11-26T00:00	25250	21	-65.0		270	25	
2025-11-26T00:00	25300	21	-65.1		270	26	
2025-11-26T00:00	25350	21	-65.0		269	26	
2025-11-26T00:00	25400	21	-65.1		268	28	
2025-11-26T00:00	25450	21	-65.1		266	29	
2025-11-26T00:00	25500	20	-64.8		264	29	
2025-11-26T00:00	25550	20	-64.7		262	29	
2025-11-26T00:00	25600	20	-64.6		260	31	
2025-11-26T00:00	25650	20	-64.2		260	33	
2025-11-26T00:00	25700	20	-64.4		260	36	
2025-11-26T00:00	25750	20	-64.1		261	37	
2025-11-26T00:00	25800	20	-62.6		261	37	
2025-11-26T00:00	25850	19	-61.7		260	37	
2025-11-26T00:00	25900	19	-61.4		259	37	
2025-11-26T00:00	25950	19	-61.3		258	37	
2025-11-26T00:00	26000	19	-60.4		256	37	
2025-11-26T00:00	26050	19	-59.9		255	37	
2025-11-26T00:00	26100	19	-59.7		254	38	
2025-11-26T00:00	26150	18	-60.1		254	38	
2025-11-26T00:00	26200	18	-60.5		253	38	
2025-11-26T00:00	26250	18	-60.9		252	38	
2025-11-26T00:00	26300	18	-61.1		252	38	
2025-11-26T00:00	26350	18	-61.4		252	38	
2025-11-26T00:00	26400	18	-61.7		252	37	
2025-11-26T00:00	26450	18	-61.9		253	37	
2025-11-26T00:00	26500	17	-62.0		254	36	
2025-11-26T00:00	26550	17	-62.3		256	36	
2025-11-26T00:00	26600	17	-62.6		258	35	
2025-11-26T00:00	26650	17	-62.4		260	35	
2025-11-26T00:00	26700	17	-62.5		261	35	
2025-11-26T00:00	26750	17	-62.8		262	36	
2025-11-26T00:00	26800	17	-63.2		262	36	
2025-11-26T00:00	26850	16	-63.6		262	37	
2025-11-26T00:00	26900	16	-63.9		262	38	
2025-11-26T00:00	26950	16	-64.1		263	39	
2025-11-26T00:00	27000	16	-64.3		264	39	
2025-11-26T00:00	27050	16	-64.5		266	39	
2025-11-26T00:00	27100	16	-64.8		268	39	
2025-11-26T00:00	27150	16	-64.9		269	39	
2025-11-26T00:00	27200	16	-64.9		271	40	
2025-11-26T00:00	27250	15	-64.7		272	39	
2025-11-26T00:00	27300	15	-63.7		272	38	
2025-11-26T00:00	27350	15	-63.3		271	36	
2025-11-26T00:00	27400	15	-63.1		271	36	
2025-11-26T00:00	27450	15	-61.7		272	35	
2025-11-26T00:00	27500	15	-60.4		274	35	
2025-11-26T00:00	27550	15	-60.2		274	35	
2025-11-26T00:00	27600	15	-60.4		274	36	
2025-11-26T00:00	27650	14	-59.8		273	37	
2025-11-26T00:00	27700	14	-59.5		271	38	
2025-11-26T00:00	27750	14	-59.0		270	39	
2025-11-26T00:00	27800	14	-59.0		269	39	
2025-11-26T00:00	27850	14	-58.8		268	38	
2025-11-26T00:00	27900	14	-58.4		267	37	
2025-11-26T00:00	27950	14	-58.5		265	37	
2025-11-26T00:00	28000	14	-58.8		263	36	
2025-11-26T00:00	28050	14	-59.0		261	36	
2025-11-26T00:00	28100	13	-59.3		259	36	
2025-11-26T00:00	28150	13	-59.6		257	36	
2025-11-26T00:00	28200	13	-59.5		254	36	
2025-11-26T00:00	28250	13	-59.3		252	37	
2025-11-26T00:00	28300	13	-59.6		251	37	
2025-11-26T00:00	28350	13	-59.6		250	37	
2025-11-26T00:00	28400	13	-59.8		250	37	
2025-11-26T00:00	28450	13	-60.1		250	38	
2025-11-26T00:00	28500	13	-60.4		249	39	
2025-11-26T00:00	28550	13	-60.5		249	39	
2025-11-26T00:00	28600	12	-60.1		249	39	
2025-11-26T00:00	28650	12	-60.4		250	39	
2025-11-26T00:00	28700	12	-60.5		250	39	
2025-11-26T00:00	28750	12	-60.4		251	40	
2025-11-26T00:00	28800	12	-60.3		252	41	
2025-11-26T00:00	28850	12	-60.3		252	41	
2025-11-26T00:00	28900	12	-60.4		252	42	
2025-11-26T00:00	28950	12	-60.5		252	43	
2025-11-26T00:00	29000	12	-60.4		252	44	
2025-11-26T00:00	29050	12	-60.7		253	44	
2025-11-26T00:00	29100	11	-61.0		255	45	
2025-11-26T00:00	29150	11	-61.1		257	45	
2025-11-26T00:00	29200	11	-60.7		258	46	
2025-11-26T00:00	29250	11	-60.8		258	46	
2025-11-26T00:00	29300	11	-61.0		258	46	
2025-11-26T00:00	29350	11	-61.3		256	47	
2025-11-26T00:00	29400	11	-61.2		255	48	
2025-11-26T00:00	29450	11	-61.5		255	49	
2025-11-26T00:00	29500	11	-61.8		256	50	
2025-11-26T00:00	29550	11	-62.1		257	51	
2025-11-26T00:00	29600	11	-62.0		258	52	
2025-11-26T00:00	29650	10	-61.5		259	51	
2025-11-26T00:00	29700	10	-61.0		260	51	
2025-11-26T00:00	29750	10	-60.7		259	52	
2025-11-26T00:00	29800	10	-60.8		259	52	
2025-11-26T00:00	29850	10	-60.5		259	51	
2025-11-26T00:00	29900	10	-60.2		260	50	
2025-11-26T00:00	29950	10	-59.5		260	50	
2025-11-26T00:00	30000	10	-58.2		260	52	
2025-11-26T00:00	30050	10	-57.3		259	53	
2025-11-26T00:00	30100	10	-56.8		258	54	
2025-11-26T00:00	30150	10	-57.0		258	55	
2025-11-26T00:00	30200	10	-57.3		258	55	
2025-11-26T00:00	30250	10	-57.6		259	54	
2025-11-26T00:00	30300	9	-57.9		259	54	
2025-11-26T00:00	30350	9	-58.2		260	54	
2025-11-26T00:00	30400	9	-58.5		260	54	
2025-11-26T00:00	30450	9	-58.8		260	54	
2025-11-26T00:00	30500	9	-59.0		260	54	
2025-11-26T00:00	30550	9	-59.4		259	53	
2025-11-26T00:00	30600	9	-59.6		259	52	
2025-11-26T00:00	30650	9	-59.7		259	52	
2025-11-26T00:00	30700	9	-59.8		258	51	
2025-11-26T00:00	30750	9	-59.8		258	51	
2025-11-26T00:00	30800	9	-58.9		258	51	
2025-11-26T00:00	30850	9	-58.5		258	51	
2025-11-26T00:00	30900	9	-58.8		257	51	
2025-11-26T00:00	30950	9	-59.0		257	51	
2025-11-26T00:00	31000	8	-58.9		256	52	
2025-11-26T00:00	31050	8	-59.0		255	52	
2025-11-26T00:00	31100	8	-59.2		255	53	
2025-11-26T00:00	31150	8	-59.4		255	54	
2025-11-26T00:00	31200	8	-59.5		254	55	
2025-11-26T00:00	31250	8	-59.6		254	56	
2025-11-26T00:00	31300	8	-59.9		254	57	
2025-11-26T00:00	31350	8	-60.3		254	58	
2025-11-26T00:00	31400	8	-60.2		254	58	
2025-11-26T00:00	31450	8	-60.4		254	59	
2025-11-26T00:00	31500	8	-60.5		254	60	
2025-11-26T00:00	31550	8	-60.4		255	60	
2025-11-26T00:00	31600	8	-60.3		255	60	
2025-11-26T00:00	31650	8	-60.5		256	60	
2025-11-26T00:00	31700	8	-60.7		256	60	
2025-11-26T00:00	31750	7	-61.1		256	59	
2025-11-26T00:00	31800	7	-61.4		256	59	
2025-11-26T00:00	31850	7	-61.6		257	58	
2025-11-26T00:00	31900	7	-62.0		257	58	
2025-11-26T00:00	31950	7	-62.2		257	58	
2025-11-26T00:00	32000	7	-62.4		256	57	
2025-11-26T00:00	32050	7	-62.6		255	57	
2025-11-26T00:00	32100	7	-62.8		254	58	
2025-11-26T00:00	32150	7	-62.7		252	58	
2025-11-26T00:00	32200	7	-62.5		251	60	
2025-11-26T00:00	32250	7	-62.4		251	62	
2025-11-26T00:00	32300	7	-62.1		252	64	
2025-11-26T00:00	32350	7	-61.8		253	64	
2025-11-26T00:00	32400	7	-61.4		254	63	
2025-11-26T00:00	32450	7	-61.3		254	63	
2025-11-26T00:00	32500	7	-61.3		255	63	
2025-11-26T00:00	32550	7	-61.0		256	63	
2025-11-26T00:00	32600	7	-60.9		257	64	
2025-11-26T00:00	32650	6	-60.2		257	65	
2025-11-26T00:00	32700	6	-59.7		257	66	
2025-11-26T00:00	32750	6	-59.9		256	68	
2025-11-26T00:00	32800	6	-59.8		256	69	
2025-11-26T00:00	32850	6	-59.6		257	71	
2025-11-26T00:00	32900	6	-59.5		257	72	
2025-11-26T00:00	32950	6	-59.4		257	73	
2025-11-26T00:00	33000	6	-59.3		258	74	
2025-11-26T00:00	33050	6	-59.1		259	75	
2025-11-26T00:00	33100	6	-58.9		260	75	
2025-11-26T00:00	33150	6	-59.0		260	75	
2025-11-26T00:00	33200	6	-58.8		260	74	
2025-11-26T00:00	33250	6	-58.5		260	73	
2025-11-26T00:00	33300	6	-58.3		260	73	
2025-11-26T00:00	33350	6	-57.9		260	73	
2025-11-26T00:00	33400	6	-57.6		260	74	
2025-11-26T00:00	33450	6	-57.5		261	75	
2025-11-26T00:00	33500	6	-57.3		262	75	
2025-11-26T00:00	33550	6	-56.4		261	75	
2025-11-26T00:00	33600	6	-56.0		260	75	
2025-11-26T00:00	33650	6	-55.6		260	74	
2025-11-26T00:00	33700	5	-54.7		261	73	
2025-11-26T00:00	33750	5	-53.3		262	72	
2025-11-26T00:00	33800	5	-53.0		263	71	
2025-11-26T00:00	33850	5	-53.1		263	70	
2025-11-26T00:00	33900	5	-52.2		263	70	
2025-11-26T00:00	33950	5	-52.4		263	71	
2025-11-26T00:00	34000	5	-52.7		262	72	
2025-11-26T00:00	34050	5	-53.0		262	73	
2025-11-26T00:00	34100	5	-53.1		261	74	
2025-11-26T00:00	34150	5	-53.1		261	74	
2025-11-26T00:00	34200	5	-53.2		261	74	
2025-11-26T00:00	34250	5	-53.1		261	74	
2025-11-26T00:00	34300	5	-53.1		260	74	
2025-11-26T00:00	34350	5	-53.3		260	74	
2025-11-26T00:00	34400	5	-53.3		260	74	
2025-11-26T00:00	34450	5	-53.3		259	74	
2025-11-26T00:00	34500	5	-53.1		259	73	
2025-11-26T00:00	34550	5	-53.3		259	73	
2025-11-26T00:00	34600	5	-53.7		259	73	
2025-11-26T00:00	34650	5	-54.1		259	72	
2025-11-26T00:00	34700	5	-54.3		259	72	
2025-11-26T00:00	34750	5	-54.5		259	73	
2025-11-26T00:00	34800	5	-54.4		258	73	
2025-11-26T00:00	34850	5	-54.1		258	74	
2025-11-26T12:00	491	959	2.9	1.6	111	0	1.5
2025-11-26T12:00	501	958	2.9	1.5	144	1	1.5
2025-11-26T12:00	520	956	2.6	1.2	133	1	1.5
2025-11-26T12:00	540	953	2.5	1.1	125	1	1.5
2025-11-26T12:00	560	951	2.3	1.2	117	1	1.5
2025-11-26T12:00	580	948	2.2	1.4	111	1	1.5
2025-11-26T12:00	600	946	2.0	1.4	106	1	1.5
2025-11-26T12:00	620	944	1.7	0.9	98	1	1.5
2025-11-26T12:00	640	941	1.5	0.3	88	1	1.6
2025-11-26T12:00	660	939	1.4	-0.1	77	1	1.6
2025-11-26T12:00	680	937	1.2	-0.1	66	1	1.7
2025-11-26T12:00	700	935	1.0	-0.2	57	1	1.7
2025-11-26T12:00	720	932	0.8	-0.2	47	1	1.8
2025-11-26T12:00	740	930	0.6	-0.2	39	1	1.8
2025-11-26T12:00	760	928	0.5	-0.2	32	2	1.8
2025-11-26T12:00	780	925	0.3	-0.3	26	2	1.8
2025-11-26T12:00	800	923	0.2	-0.3	19	2	1.8
2025-11-26T12:00	820	921	0.1	-0.4	12	2	1.9
2025-11-26T12:00	840	918	-0.1	-0.5	5	3	1.9
2025-11-26T12:00	860	916	-0.2	-0.6	359	3	1.9
2025-11-26T12:00	880	914	-0.4	-0.6	355	3	1.9
2025-11-26T12:00	900	912	-0.5	-0.7	352	4	1.9
2025-11-26T12:00	920	909	-0.6	-0.8	349	4	1.9
2025-11-26T12:00	940	907	-0.7	-0.8	348	4	1.8
2025-11-26T12:00	960	905	-0.9	-0.9	346	5	1.8
2025-11-26T12:00	980	902	-1.0	-1.1	345	5	1.8
2025-11-26T12:00	1000	900	-1.1	-1.3	343	5	1.8
2025-11-26T12:00	1020	898	-1.1	-1.5	341	5	1.8
2025-11-26T12:00	1040	896	-1.2	-1.6	340	5	1.8
2025-11-26T12:00	1060	894	-1.2	-1.7	339	5	1.8
2025-11-26T12:00	1080	891	-1.2	-2.0	338	5	1.8
2025-11-26T12:00	1100	889	-1.3	-2.1	338	5	1.8
2025-11-26T12:00	1120	887	-1.5	-2.3	339	6	1.8
2025-11-26T12:00	1140	885	-1.7	-2.3	340	6	1.8
2025-11-26T12:00	1160	882	-1.9	-2.5	341	6	1.8
2025-11-26T12:00	1180	880	-2.1	-2.5	342	6	1.7
2025-11-26T12:00	1200	878	-2.3	-2.5	343	6	1.8
2025-11-26T12:00	1220	875	-2.5	-2.8	344	6	1.8
2025-11-26T12:00	1240	873	-2.6	-2.9	344	6	1.8
2025-11-26T12:00	1260	871	-2.7	-3.0	344	7	1.8
2025-11-26T12:00	1280	869	-2.9	-3.1	345	7	1.8
2025-11-26T12:00	1300	867	-3.0	-3.2	345	7	1.8
2025-11-26T12:00	1320	865	-3.1	-3.5	346	7	1.7
2025-11-26T12:00	1340	863	-3.2	-3.6	347	8	1.7
2025-11-26T12:00	1360	860	-3.3	-3.7	347	8	1.7
2025-11-26T12:00	1380	858	-3.5	-3.8	348	8	1.8
2025-11-26T12:00	1400	856	-3.6	-4.1	348	8	1.8
2025-11-26T12:00	1420	854	-3.6	-4.3	348	9	1.8
2025-11-26T12:00	1440	852	-3.8	-4.5	348	9	1.8
2025-11-26T12:00	1460	850	-3.9	-4.8	348	9	1.8
2025-11-26T12:00	1480	848	-3.9	-5.2	349	9	1.8
2025-11-26T12:00	1500	845	-4.1	-5.3	350	10	2.0
2025-11-26T12:00	1520	843	-4.2	-5.4	352	10	2.1
2025-11-26T12:00	1540	841	-4.4	-5.5	355	11	2.2
2025-11-26T12:00	1560	839	-4.5	-5.5	360	11	2.2
2025-11-26T12:00	1580	837	-4.7	-5.6	4	11	2.3
2025-11-26T12:00	1600	835	-4.8	-5.6	9	10	2.3
2025-11-26T12:00	1620	833	-4.9	-5.6	13	10	2.3
2025-11-26T12:00	1640	830	-5.1	-5.7	17	9	2.3
2025-11-26T12:00	1660	828	-5.1	-5.9	19	8	2.3
2025-11-26T12:00	1680	826	-5.1	-6.0	17	7	2.2
2025-11-26T12:00	1700	824	-5.3	-6.1	14	7	2.2
2025-11-26T12:00	1720	822	-5.4	-6.2	10	7	2.2
2025-11-26T12:00	1740	820	-5.6	-6.3	9	8	2.2
2025-11-26T12:00	1760	818	-5.7	-6.4	10	9	2.1
2025-11-26T12:00	1780	816	-5.8	-6.5	12	9	2.1
2025-11-26T12:00	1800	814	-5.9	-6.6	14	9	2.1
2025-11-26T12:00	1820	811	-6.1	-6.7	17	9	2.1
2025-11-26T12:00	1840	809	-6.2	-6.8	18	8	2.1
2025-11-26T12:00	1860	807	-6.3	-7.0	19	8	2.0
2025-11-26T12:00	1880	805	-6.3	-7.2	20	8	2.0
2025-11-26T12:00	1900	803	-6.4	-7.3	22	8	2.0
2025-11-26T12:00	1920	801	-6.5	-7.5	24	8	1.9
2025-11-26T12:00	1940	799	-6.6	-7.5	25	8	1.9
2025-11-26T12:00	1960	797	-6.8	-7.5	27	7	1.9
2025-11-26T12:00	1980	795	-7.0	-7.6	27	7	1.9
2025-11-26T12:00	2000	793	-7.1	-7.6	28	7	1.8
2025-11-26T12:00	2020	791	-7.3	-7.6	28	7	1.8
2025-11-26T12:00	2040	789	-7.5	-7.7	29	7	1.8
2025-11-26T12:00	2060	787	-7.6	-7.8	30	7	1.8
2025-11-26T12:00	2080	785	-7.7	-7.9	31	6	1.7
2025-11-26T12:00	2100	783	-7.8	-8.1	33	6	1.7
2025-11-26T12:00	2120	781	-8.0	-8.1	35	6	1.7
2025-11-26T12:00	2140	779	-8.2	-8.2	39	6	1.7
2025-11-26T12:00	2160	777	-8.3	-8.3	41	6	1.7
2025-11-26T12:00	2180	775	-8.4	-8.4	44	6	1.7
2025-11-26T12:00	2200	773	-8.6	-8.6	47	5	1.7
2025-11-26T12:00	2220	771	-8.8	-8.8	49	5	1.7
2025-11-26T12:00	2240	769	-8.8	-8.9	50	5	1.7
2025-11-26T12:00	2260	767	-8.8	-9.0	50	5	1.7
2025-11-26T12:00	2280	765	-8.8	-9.2	51	5	1.7
2025-11-26T12:00	2300	763	-9.0	-9.2	51	5	1.7
2025-11-26T12:00	2320	761	-9.2	-9.3	50	5	1.7
2025-11-26T12:00	2340	759	-9.3	-9.4	49	5	1.8
2025-11-26T12:00	2360	757	-9.5	-9.6	48	5	1.8
2025-11-26T12:00	2380	755	-9.6	-9.9	47	5	1.8
2025-11-26T12:00	2400	753	-9.7	-10.0	45	5	1.8
2025-11-26T12:00	2420	751	-9.8	-10.2	45	5	1.8
2025-11-26T12:00	2440	749	-9.8	-10.5	45	5	1.8
2025-11-26T12:00	2460	748	-9.9	-10.8	45	5	1.8
2025-11-26T12:00	2480	746	-10.0	-11.0	45	5	1.8
2025-11-26T12:00	2500	744	-10.1	-11.1	45	4	1.8
2025-11-26T12:00	2520	742	-10.4	-11.1	44	4	1.9
2025-11-26T12:00	2540	740	-10.5	-11.5	44	4	1.9
2025-11-26T12:00	2560	738	-10.6	-11.7	43	5	1.9
2025-11-26T12:00	2580	736	-10.7	-11.8	43	5	1.9
2025-11-26T12:00	2600	734	-10.9	-11.9	43	5	1.9
2025-11-26T12:00	2620	732	-11.1	-12.1	42	5	2.0
2025-11-26T12:00	2640	730	-11.3	-12.2	42	5	2.0
2025-11-26T12:00	2660	728	-11.5	-12.3	41	5	2.1
2025-11-26T12:00	2680	727	-11.6	-12.4	40	4	2.1
2025-11-26T12:00	2700	724	-11.7	-12.5	39	4	2.1
2025-11-26T12:00	2720	723	-11.9	-12.6	36	4	2.1
2025-11-26T12:00	2740	721	-12.0	-12.7	34	4	2.1
2025-11-26T12:00	2760	719	-12.1	-12.9	32	4	2.1
2025-11-26T12:00	2780	717	-12.3	-13.0	30	5	2.1
2025-11-26T12:00	2800	715	-12.4	-13.2	28	5	2.1
2025-11-26T12:00	2820	713	-12.5	-13.4	28	5	2.0
2025-11-26T12:00	2840	711	-12.6	-13.6	28	5	2.0
2025-11-26T12:00	2860	709	-12.8	-13.8	28	5	1.9
2025-11-26T12:00	2880	708	-12.9	-14.0	28	5	1.9
2025-11-26T12:00	2900	706	-13.0	-14.1	29	5	1.9
2025-11-26T12:00	2920	704	-13.2	-14.3	29	5	1.9
2025-11-26T12:00	2940	702	-13.3	-14.7	29	5	1.9
2025-11-26T12:00	2960	700	-13.5	-14.9	29	5	2.0
2025-11-26T12:00	2980	699	-13.6	-14.9	28	5	2.0
2025-11-26T12:00	3000	697	-13.8	-15.0	28	5	2.1
2025-11-26T12:00	3020	695	-13.9	-15.1	27	5	2.1
2025-11-26T12:00	3040	693	-14.0	-15.3	27	5	2.1
2025-11-26T12:00	3060	691	-14.3	-15.3	27	6	2.1
2025-11-26T12:00	3080	689	-14.4	-15.4	27	6	2.1
2025-11-26T12:00	3100	687	-14.6	-15.6	28	6	2.1
2025-11-26T12:00	3120	685	-14.7	-15.8	29	6	2.1
2025-11-26T12:00	3140	684	-14.9	-15.9	30	6	2.1
2025-11-26T12:00	3160	682	-15.0	-16.0	32	6	2.1
2025-11-26T12:00	3180	680	-15.2	-16.2	34	6	2.2
2025-11-26T12:00	3200	678	-15.4	-16.3	36	6	2.2
2025-11-26T12:00	3220	677	-15.5	-16.5	38	7	2.2
2025-11-26T12:00	3240	675	-15.7	-16.7	39	7	2.2
2025-11-26T12:00	3260	673	-15.8	-17.5	41	7	2.2
2025-11-26T12:00	3280	671	-15.9	-17.9	42	7	2.2
2025-11-26T12:00	3300	670	-16.1	-18.0	42	7	2.2
2025-11-26T12:00	3320	668	-16.2	-18.1	42	7	2.2
2025-11-26T12:00	3340	666	-16.4	-18.3	42	7	2.2
2025-11-26T12:00	3360	664	-16.6	-18.2	41	7	2.2
2025-11-26T12:00	3380	662	-16.7	-18.6	40	7	2.2
2025-11-26T12:00	3400	661	-16.9	-18.8	38	7	2.2
2025-11-26T12:00	3420	659	-17.2	-18.9	37	7	2.2
2025-11-26T12:00	3440	657	-17.2	-19.1	35	6	2.2
2025-11-26T12:00	3460	655	-17.4	-19.0	33	6	2.2
2025-11-26T12:00	3480	654	-17.6	-19.1	30	6	2.2
2025-11-26T12:00	3500	652	-17.8	-19.1	28	6	2.2
2025-11-26T12:00	3520	650	-18.0	-19.2	25	6	2.2
2025-11-26T12:00	3540	648	-18.1	-19.4	24	6	2.2
2025-11-26T12:00	3560	647	-18.3	-19.4	23	6	2.2
2025-11-26T12:00	3580	645	-18.5	-19.6	23	7	2.2
2025-11-26T12:00	3600	643	-18.6	-19.6	25	7	2.2
2025-11-26T12:00	3620	641	-18.8	-19.5	26	7	2.2
2025-11-26T12:00	3640	640	-18.9	-19.8	26	7	2.2
2025-11-26T12:00	3660	638	-19.1	-20.0	26	7	2.2
2025-11-26T12:00	3680	636	-19.3	-20.1	24	7	2.2
2025-11-26T12:00	3700	635	-19.5	-20.1	21	7	2.2
2025-11-26T12:00	3720	633	-19.7	-20.2	16	7	2.2
2025-11-26T12:00	3740	631	-19.9	-20.2	12	7	2.2
2025-11-26T12:00	3760	629	-20.1	-20.3	10	7	2.2
2025-11-26T12:00	3780	628	-20.0	-20.9	8	7	2.2
2025-11-26T12:00	3800	626	-19.9	-21.6	8	7	2.2
2025-11-26T12:00	3820	625	-20.0	-21.8	9	7	2.2
2025-11-26T12:00	3840	623	-20.2	-22.2	11	7	2.2
2025-11-26T12:00	3860	621	-20.3	-22.5	13	7	2.2
2025-11-26T12:00	3880	619	-20.3	-22.9	15	7	2.2
2025-11-26T12:00	3900	618	-20.5	-23.2	19	7	2.2
2025-11-26T12:00	3920	616	-20.7	-23.4	22	7	2.3
2025-11-26T12:00	3940	614	-20.8	-24.5	24	7	2.3
2025-11-26T12:00	3960	613	-20.8	-25.3	26	7	2.3
2025-11-26T12:00	3980	611	-20.9	-25.7	28	7	2.3
2025-11-26T12:00	4000	609	-21.1	-25.8	29	7	2.3
2025-11-26T12:00	4020	608	-21.3	-25.8	29	7	2.3
2025-11-26T12:00	4040	606	-21.5	-25.9	30	8	2.3
2025-11-26T12:00	4060	604	-21.7	-26.0	30	8	2.3
2025-11-26T12:00	4080	603	-21.8	-25.8	31	8	2.3
2025-11-26T12:00	4100	601	-22.0	-25.8	32	8	2.2
2025-11-26T12:00	4120	600	-22.1	-25.8	33	8	2.2
2025-11-26T12:00	4140	598	-22.5	-25.6	34	7	2.2
2025-11-26T12:00	4160	596	-22.7	-25.7	36	7	2.2
2025-11-26T12:00	4180	595	-22.8	-25.8	37	7	2.2
2025-11-26T12:00	4200	593	-23.0	-25.9	38	7	2.2
2025-11-26T12:00	4220	591	-23.2	-25.8	39	6	2.2
2025-11-26T12:00	4240	590	-23.3	-25.8	41	6	2.2
2025-11-26T12:00	4260	588	-23.5	-25.9	42	6	2.2
2025-11-26T12:00	4280	587	-23.6	-25.9	42	6	2.2
2025-11-26T12:00	4300	585	-23.8	-26.0	41	6	2.2
2025-11-26T12:00	4320	583	-23.9	-26.1	37	6	2.2
2025-11-26T12:00	4340	582	-24.2	-26.2	35	6	2.2
2025-11-26T12:00	4360	580	-24.4	-26.4	32	6	2.2
2025-11-26T12:00	4380	579	-24.5	-26.6	28	6	2.2
2025-11-26T12:00	4400	577	-24.7	-26.5	25	6	2.2
2025-11-26T12:00	4420	576	-24.9	-26.7	23	6	2.2
2025-11-26T12:00	4440	574	-25.1	-27.1	21	6	2.2
2025-11-26T12:00	4460	572	-25.3	-27.8	20	6	2.1
2025-11-26T12:00	4480	571	-25.4	-27.9	19	6	2.1
2025-11-26T12:00	4500	569	-25.5	-28.0	18	6	2.1
2025-11-26T12:00	4520	567	-25.6	-28.2	19	6	2.1
2025-11-26T12:00	4540	566	-25.8	-27.9	20	6	2.1
2025-11-26T12:00	4560	564	-26.1	-27.9	21	6	2.1
2025-11-26T12:00	4580	563	-26.2	-28.4	23	7	2.1
2025-11-26T12:00	4600	561	-26.4	-28.6	26	7	2.1
2025-11-26T12:00	4620	560	-26.5	-28.5	28	8	2.0
2025-11-26T12:00	4640	558	-26.6	-28.6	30	8	2.0
2025-11-26T12:00	4660	557	-26.9	-28.8	31	8	2.0
2025-11-26T12:00	4680	555	-27.1	-29.1	33	9	2.0
2025-11-26T12:00	4700	554	-27.3	-29.2	33	9	2.0
2025-11-26T12:00	4720	552	-27.3	-29.5	34	10	2.0
2025-11-26T12:00	4740	550	-27.2	-29.7	35	10	1.9
2025-11-26T12:00	4760	549	-27.3	-29.7	35	11	1.9
2025-11-26T12:00	4780	547	-27.4	-29.9	35	11	1.9
2025-11-26T12:00	4800	546	-27.6	-29.8	36	12	1.9
2025-11-26T12:00	4820	544	-27.6	-29.9	36	12	1.9
2025-11-26T12:00	4840	543	-27.7	-30.3	36	12	1.9
2025-11-26T12:00	4860	542	-27.7	-30.4	36	13	1.9
2025-11-26T12:00	4880	540	-27.6	-30.3	37	13	1.9
2025-11-26T12:00	4900	538	-27.7	-30.7	37	13	1.9
2025-11-26T12:00	4920	537	-27.8	-31.2	38	14	2.0
2025-11-26T12:00	4940	535	-28.0	-31.7	39	14	2.0
2025-11-26T12:00	4960	534	-28.1	-32.1	40	14	2.1
2025-11-26T12:00	4980	532	-28.2	-32.3	40	14	2.1
2025-11-26T12:00	5000	531	-28.5	-32.2	40	14	2.1
2025-11-26T12:00	5020	529	-28.6	-32.6	40	14	2.1
2025-11-26T12:00	5040	528	-28.7	-32.6	40	14	2.1
2025-11-26T12:00	5060	527	-28.9	-32.7	39	14	2.1
2025-11-26T12:00	5080	525	-29.0	-32.8	38	14	2.2
2025-11-26T12:00	5100	524	-29.2	-32.4	37	14	2.2
2025-11-26T12:00	5120	522	-29.3	-32.3	36	13	2.2
2025-11-26T12:00	5140	521	-29.5	-32.5	35	13	2.2
2025-11-26T12:00	5160	519	-29.7	-32.6	34	13	2.1
2025-11-26T12:00	5180	518	-29.8	-32.7	33	14	2.1
2025-11-26T12:00	5200	516	-30.0	-33.1	33	14	2.1
2025-11-26T12:00	5220	515	-30.1	-33.6	32	14	2.1
2025-11-26T12:00	5240	513	-30.2	-34.8	32	14	2.1
2025-11-26T12:00	5260	512	-30.3	-35.5	32	14	2.1
2025-11-26T12:00	5280	510	-30.5	-35.4	31	14	2.1
2025-11-26T12:00	5300	509	-30.6	-35.7	31	13	2.0
2025-11-26T12:00	5320	508	-30.8	-35.7	31	13	2.0
2025-11-26T12:00	5340	506	-31.0	-35.7	30	13	2.0
2025-11-26T12:00	5360	505	-31.0	-36.3	30	13	2.0
2025-11-26T12:00	5380	504	-31.0	-38.4	30	12	2.0
2025-11-26T12:00	5400	502	-31.1	-39.1	30	12	2.0
2025-11-26T12:00	5420	500	-31.2	-39.5	31	12	1.9
2025-11-26T12:00	5440	499	-31.4	-39.8	31	12	1.9
2025-11-26T12:00	5460	498	-31.6	-39.9	31	12	1.9
2025-11-26T12:00	5480	496	-31.7	-40.0	31	12	1.9
2025-11-26T12:00	5500	495	-31.9	-40.0	31	12	1.9
2025-11-26T12:00	5520	494	-32.1	-39.9	31	12	1.9
2025-11-26T12:00	5540	492	-32.3	-40.0	31	12	1.9
2025-11-26T12:00	5560	491	-32.5	-40.4	31	13	1.9
2025-11-26T12:00	5580	489	-32.6	-40.6	31	13	1.9
2025-11-26T12:00	5600	488	-32.8	-40.5	32	13	1.9
2025-11-26T12:00	5620	487	-33.0	-40.5	32	13	1.9
2025-11-26T12:00	5640	485	-33.1	-40.5	32	13	1.9
2025-11-26T12:00	5660	484	-33.3	-40.6	32	13	1.9
2025-11-26T12:00	5680	482	-33.6	-40.5	32	12	1.9
2025-11-26T12:00	5700	481	-33.7	-40.7	32	12	1.9
2025-11-26T12:00	5720	480	-33.8	-40.7	32	12	1.9
2025-11-26T12:00	5740	478	-34.0	-40.9	31	12	1.9
2025-11-26T12:00	5760	477	-34.2	-41.0	31	11	1.9
2025-11-26T12:00	5780	475	-34.4	-41.3	31	11	1.9
2025-11-26T12:00	5800	474	-34.6	-41.6	32	11	1.9
2025-11-26T12:00	5820	473	-34.7	-41.7	33	11	1.9
2025-11-26T12:00	5840	471	-34.9	-41.9	34	11	1.9
2025-11-26T12:00	5860	470	-35.1	-42.1	34	11	1.9
2025-11-26T12:00	5880	469	-35.2	-42.1	35	11	2.0
2025-11-26T12:00	5900	467	-35.4	-42.3	35	11	2.0
2025-11-26T12:00	5920	466	-35.6	-42.9	35	11	1.9
2025-11-26T12:00	5940	465	-35.7	-43.2	34	11	2.0
2025-11-26T12:00	5960	463	-36.0	-43.2	34	11	2.0
2025-11-26T12:00	5980	462	-36.1	-43.3	34	11	1.9
2025-11-26T12:00	6000	461	-36.3	-43.7	35	11	2.0
2025-11-26T12:00	6020	459	-36.5	-43.9	35	11	2.0
2025-11-26T12:00	6040	458	-36.6	-44.3	36	11	1.9
2025-11-26T12:00	6060	457	-36.8	-44.4	37	11	1.9
2025-11-26T12:00	6080	456	-36.9	-44.8	38	11	1.9
2025-11-26T12:00	6100	454	-37.1	-45.3	39	10	1.9
2025-11-26T12:00	6120	453	-37.2	-45.4	39	11	2.0
2025-11-26T12:00	6140	452	-37.4	-46.1	40	11	2.0
2025-11-26T12:00	6160	450	-37.6	-46.2	40	11	2.0
2025-11-26T12:00	6180	449	-37.7	-46.3	40	11	1.9
2025-11-26T12:00	6200	448	-37.9	-46.3	40	11	1.9
2025-11-26T12:00	6220	446	-38.0	-46.4	40	11	1.9
2025-11-26T12:00	6240	445	-38.3	-46.0	40	11	1.9
2025-11-26T12:00	6260	444	-38.4	-45.3	40	11	1.9
2025-11-26T12:00	6280	442	-38.6	-45.4	39	11	1.9
2025-11-26T12:00	6300	441	-38.7	-46.0	39	11	1.9
2025-11-26T12:00	6320	440	-38.9	-46.0	39	11	1.9
2025-11-26T12:00	6340	439	-39.0	-45.9	40	11	1.9
2025-11-26T12:00	6360	437	-39.2	-46.1	40	12	1.9
2025-11-26T12:00	6380	436	-39.5	-46.2	41	12	1.9
2025-11-26T12:00	6400	435	-39.7	-46.3	41	12	1.9
2025-11-26T12:00	6420	433	-39.9	-46.5	42	12	1.8
2025-11-26T12:00	6440	432	-40.0	-46.7	42	12	1.8
2025-11-26T12:00	6460	431	-40.2	-46.8	42	12	1.8
2025-11-26T12:00	6480	430	-40.4	-46.5	42	12	1.8
2025-11-26T12:00	6500	428	-40.6	-46.8	42	12	1.8
2025-11-26T12:00	6520	427	-40.8	-47.0	42	12	1.8
2025-11-26T12:00	6540	426	-41.0	-46.9	42	12	1.8
2025-11-26T12:00	6560	425	-41.2	-46.9	42	13	1.8
2025-11-26T12:00	6580	423	-41.3	-47.1	42	13	1.8
2025-11-26T12:00	6600	422	-41.5	-47.2	42	13	1.8
2025-11-26T12:00	6620	421	-41.7	-47.4	43	14	1.8
2025-11-26T12:00	6640	420	-41.9	-47.4	43	14	1.8
2025-11-26T12:00	6660	419	-42.0	-47.4	44	14	1.8
2025-11-26T12:00	6680	417	-42.2	-47.4	44	14	1.8
2025-11-26T12:00	6700	416	-42.4	-47.4	45	14	1.8
2025-11-26T12:00	6720	415	-42.6	-47.6	46	14	1.8
2025-11-26T12:00	6740	414	-42.7	-48.2	46	14	1.8
2025-11-26T12:00	6760	412	-42.8	-49.2	48	14	1.8
2025-11-26T12:00	6780	411	-42.9	-49.8	49	14	1.8
2025-11-26T12:00	6800	410	-43.0	-49.8	51	14	1.7
2025-11-26T12:00	6820	409	-43.0	-50.2	53	14	1.7
2025-11-26T12:00	6840	408	-43.2	-50.2	54	13	1.8
2025-11-26T12:00	6860	406	-43.4	-50.0	56	13	1.7
2025-11-26T12:00	6880	405	-43.5	-49.9	58	13	1.8
2025-11-26T12:00	6900	404	-43.5	-50.4	58	13	1.8
2025-11-26T12:00	6920	403	-43.7	-50.6	59	13	1.8
2025-11-26T12:00	6940	402	-43.9	-50.4	59	13	1.8
2025-11-26T12:00	6960	400	-44.1	-50.5	59	12	1.8
2025-11-26T12:00	6980	399	-44.2	-50.8	58	12	1.8
2025-11-26T12:00	7000	398	-44.3	-51.1	57	12	1.8
2025-11-26T12:00	7020	397	-44.6	-51.1	56	11	1.9
2025-11-26T12:00	7040	395	-44.8	-50.9	55	11	1.9
2025-11-26T12:00	7060	394	-44.9	-51.2	55	10	1.9
2025-11-26T12:00	7080	393	-45.1	-51.4	54	10	1.9
2025-11-26T12:00	7100	392	-45.3	-51.4	54	9	1.9
2025-11-26T12:00	7120	391	-45.4	-51.6	54	9	1.9
2025-11-26T12:00	7140	390	-45.5	-51.8	53	8	2.0
2025-11-26T12:00	7160	388	-45.7	-52.0	53	8	2.0
2025-11-26T12:00	7180	387	-45.8	-52.2	51	8	2.0
2025-11-26T12:00	7200	386	-45.8	-52.4	49	8	2.0
2025-11-26T12:00	7220	385	-46.0	-52.5	46	8	2.1
2025-11-26T12:00	7240	384	-46.1	-52.6	42	8	2.1
2025-11-26T12:00	7260	383	-46.2	-53.0	39	9	2.2
2025-11-26T12:00	7280	382	-46.2	-53.5	36	10	2.2
2025-11-26T12:00	7300	381	-46.3	-54.0	34	11	2.2
2025-11-26T12:00	7320	379	-46.4	-54.7	33	11	2.3
2025-11-26T12:00	7340	378	-46.3	-55.3	32	12	2.3
2025-11-26T12:00	7360	377	-46.3	-55.6	31	13	2.3
2025-11-26T12:00	7380	376	-46.4	-56.2	31	14	2.4
2025-11-26T12:00	7400	375	-46.0	-57.9	31	15	2.5
2025-11-26T12:00	7420	374	-45.6	-59.3	31	15	2.5
2025-11-26T12:00	7440	372	-45.5	-59.7	31	15	2.6
2025-11-26T12:00	7460	371	-45.3	-60.4	31	15	2.7
2025-11-26T12:00	7480	370	-45.3	-60.6	32	16	2.8
2025-11-26T12:00	7500	369	-45.2	-60.6	32	16	2.9
2025-11-26T12:00	7520	368	-45.3	-60.7	32	16	3.0
2025-11-26T12:00	7540	367	-45.4	-60.7	32	16	3.1
2025-11-26T12:00	7560	366	-45.4	-60.8	32	16	3.1
2025-11-26T12:00	7580	365	-45.5	-60.9	31	17	3.2
2025-11-26T12:00	7600	364	-45.5	-60.9	30	17	3.2
2025-11-26T12:00	7620	362	-45.5	-61.0	29	17	3.3
2025-11-26T12:00	7640	361	-45.6	-61.1	28	18	3.4
2025-11-26T12:00	7660	360	-45.7	-61.0	28	18	3.4
2025-11-26T12:00	7680	359	-45.8	-61.0	27	18	3.4
2025-11-26T12:00	7700	358	-45.9	-61.1	26	18	3.4
2025-11-26T12:00	7720	357	-45.9	-61.3	26	18	3.4
2025-11-26T12:00	7740	356	-45.9	-61.4	26	19	3.4
2025-11-26T12:00	7760	355	-46.1	-61.5	26	19	3.4
2025-11-26T12:00	7780	354	-46.2	-61.7	26	19	3.4
2025-11-26T12:00	7800	353	-46.3	-61.7	26	19	3.4
2025-11-26T12:00	7820	352	-46.4	-61.8	25	19	3.4
2025-11-26T12:00	7840	351	-46.5	-62.1	25	19	3.3
2025-11-26T12:00	7860	350	-46.6	-62.3	24	19	3.4
2025-11-26T12:00	7880	349	-46.8	-62.3	24	19	3.4
2025-11-26T12:00	7900	348	-46.8	-62.5	23	20	3.4
2025-11-26T12:00	7920	346	-46.8	-62.7	22	19	3.4
2025-11-26T12:00	7940	345	-46.9	-62.9	21	19	3.4
2025-11-26T12:00	7960	344	-46.9	-63.0	20	19	3.4
2025-11-26T12:00	7980	343	-46.8	-63.1	20	19	3.5
2025-11-26T12:00	8000	342	-46.7	-63.4	19	19	3.5
2025-11-26T12:00	8020	341	-46.6	-63.7	18	19	3.5
2025-11-26T12:00	8040	340	-46.8	-63.8	18	19	3.5
2025-11-26T12:00	8060	339	-47.0	-63.7	18	19	3.5
2025-11-26T12:00	8080	338	-47.0	-63.7	18	19	3.6
2025-11-26T12:00	8100	337	-47.1	-63.9	18	19	3.6
2025-11-26T12:00	8120	336	-47.2	-64.0	19	19	3.6
2025-11-26T12:00	8140	335	-47.4	-64.0	19	19	3.6
2025-11-26T12:00	8160	334	-47.5	-64.1	19	19	3.6
2025-11-26T12:00	8180	333	-47.5	-64.3	19	19	3.6
2025-11-26T12:00	8200	332	-47.5	-64.4	19	19	3.6
2025-11-26T12:00	8220	331	-47.6	-64.5	19	19	3.6
2025-11-26T12:00	8240	330	-47.8	-64.4	19	19	3.6
2025-11-26T12:00	8260	329	-48.0	-64.4	19	20	3.7
2025-11-26T12:00	8280	328	-48.0	-64.4	18	20	3.7
2025-11-26T12:00	8300	327	-48.1	-64.6	18	20	3.7
2025-11-26T12:00	8320	326	-48.2	-64.8	17	21	3.7
2025-11-26T12:00	8340	325	-48.3	-64.8	16	21	3.7
2025-11-26T12:00	8360	324	-48.3	-64.9	16	21	3.7
2025-11-26T12:00	8380	323	-48.4	-65.0	15	21	3.7
2025-11-26T12:00	8400	322	-48.6	-65.0	15	21	3.7
2025-11-26T12:00	8420	321	-48.7	-65.0	15	21	3.7
2025-11-26T12:00	8440	320	-48.8	-65.2	15	22	3.7
2025-11-26T12:00	8460	319	-48.8	-65.4	15	22	3.7
2025-11-26T12:00	8480	318	-48.8	-65.6	15	22	3.7
2025-11-26T12:00	8500	317	-48.8	-65.8	16	22	3.7
2025-11-26T12:00	8520	316	-48.5	-65.8	16	23	3.7
2025-11-26T12:00	8540	315	-48.4	-65.8	16	23	3.8
2025-11-26T12:00	8560	314	-48.5	-66.0	17	23	3.9
2025-11-26T12:00	8580	314	-48.5	-66.0	17	23	3.9
2025-11-26T12:00	8600	313	-48.6	-66.0	18	23	4.0
2025-11-26T12:00	8620	312	-48.8	-66.0	19	23	4.1
2025-11-26T12:00	8640	311	-48.9	-66.1	19	24	4.1
2025-11-26T12:00	8660	310	-49.0	-66.2	20	24	4.1
2025-11-26T12:00	8680	309	-49.1	-66.3	20	24	4.1
2025-11-26T12:00	8700	308	-49.3	-66.4	21	24	4.1
2025-11-26T12:00	8720	307	-49.3	-66.5	21	24	4.1
2025-11-26T12:00	8740	306	-49.2	-66.6	22	24	4.1
2025-11-26T12:00	8760	305	-49.3	-66.7	22	24	4.1
2025-11-26T12:00	8780	304	-49.5	-66.8	22	24	4.2
2025-11-26T12:00	8800	303	-49.5	-66.8	21	24	4.3
2025-11-26T12:00	8820	302	-49.7	-66.9	21	25	4.3
2025-11-26T12:00	8840	301	-49.8	-67.0	21	25	4.2
2025-11-26T12:00	8860	300	-49.9	-67.2	20	25	4.2
2025-11-26T12:00	8880	299	-50.0	-67.3	20	25	4.3
2025-11-26T12:00	8900	299	-50.1	-67.4	20	25	4.3
2025-11-26T12:00	8920	298	-50.2	-67.6	19	25	4.3
2025-11-26T12:00	8940	297	-50.3	-67.7	19	25	4.3
2025-11-26T12:00	8960	296	-50.3	-67.9	18	24	4.3
2025-11-26T12:00	8980	295	-50.4	-67.9	17	24	4.3
2025-11-26T12:00	9000	294	-50.4	-68.0	17	24	4.3
2025-11-26T12:00	9020	293	-50.5	-68.2	16	24	4.3
2025-11-26T12:00	9040	292	-50.6	-68.5	16	24	4.3
2025-11-26T12:00	9060	291	-50.6	-68.5	16	24	4.3
2025-11-26T12:00	9080	290	-50.6	-68.5	16	24	4.3
2025-11-26T12:00	9100	290	-50.6	-68.5	16	24	4.3
2025-11-26T12:00	9120	289	-50.5	-68.4	16	24	4.3
2025-11-26T12:00	9140	288	-50.2	-68.4	17	24	4.3
2025-11-26T12:00	9160	287	-50.1	-68.6	18	24	4.3
2025-11-26T12:00	9180	286	-50.1	-68.8	18	24	4.2
2025-11-26T12:00	9200	285	-50.1	-69.0	19	23	4.2
2025-11-26T12:00	9220	284	-50.1	-69.1	19	23	4.2
2025-11-26T12:00	9240	283	-50.2	-69.4	20	23	4.2
2025-11-26T12:00	9260	282	-50.3	-69.7	20	22	4.2
2025-11-26T12:00	9280	282	-50.2	-70.0	20	22	4.2
2025-11-26T12:00	9300	281	-50.1	-70.3	20	22	4.2
2025-11-26T12:00	9320	280	-50.2	-70.7	19	21	4.2
2025-11-26T12:00	9340	279	-50.2	-70.9	19	21	4.3
2025-11-26T12:00	9360	278	-50.2	-71.1	18	21	4.3
2025-11-26T12:00	9380	277	-50.1	-71.5	18	21	4.4
2025-11-26T12:00	9400	276	-50.0	-71.9	17	22	4.4
2025-11-26T12:00	9420	276	-49.8	-72.2	17	22	4.5
2025-11-26T12:00	9440	275	-49.8	-72.3	16	22	4.6
2025-11-26T12:00	9460	274	-50.0	-72.4	16	22	4.7
2025-11-26T12:00	9480	273	-50.0	-72.4	15	22	4.7
2025-11-26T12:00	9500	272	-50.1	-72.3	15	22	4.8
2025-11-26T12:00	9520	271	-50.2	-72.4	15	22	4.8
2025-11-26T12:00	9540	271	-50.3	-72.5	15	22	4.8
2025-11-26T12:00	9560	270	-50.3	-72.6	15	22	4.8
2025-11-26T12:00	9580	269	-50.4	-72.7	15	22	4.9
2025-11-26T12:00	9600	268	-50.2	-72.8	15	22	4.9
2025-11-26T12:00	9620	267	-50.2	-73.0	16	22	4.9
2025-11-26T12:00	9640	267	-50.3	-73.1	16	22	4.9
2025-11-26T12:00	9660	266	-50.4	-73.1	16	22	4.9
2025-11-26T12:00	9680	265	-50.6	-73.2	16	22	4.9
2025-11-26T12:00	9700	264	-50.6	-73.2	17	23	4.9
2025-11-26T12:00	9720	263	-50.6	-73.3	17	23	5.0
2025-11-26T12:00	9740	262	-50.8	-73.4	17	23	5.0
2025-11-26T12:00	9760	262	-50.9	-73.5	16	23	5.0
2025-11-26T12:00	9780	261	-50.8	-73.4	16	23	5.0
2025-11-26T12:00	9800	260	-50.9	-73.5	16	22	5.1
2025-11-26T12:00	9820	259	-50.7	-73.5	15	22	5.0
2025-11-26T12:00	9840	258	-50.6	-73.5	14	22	5.0
2025-11-26T12:00	9860	258	-50.6	-73.5	13	22	5.0
2025-11-26T12:00	9880	257	-50.6	-73.5	13	22	4.9
2025-11-26T12:00	9900	256	-50.6	-73.6	12	22	4.9
2025-11-26T12:00	9920	255	-50.7	-73.6	12	21	4.9
2025-11-26T12:00	9940	255	-50.9	-73.7	11	21	4.9
2025-11-26T12:00	9960	254	-51.0	-73.7	11	21	4.9
2025-11-26T12:00	9980	253	-50.9	-73.6	11	21	4.9
2025-11-26T12:00	10000	252	-50.9	-73.6	11	21	4.8
2025-11-26T12:00	10018	252	-50.9	-73.6	11	21	4.8
2025-11-26T12:00	10050	250	-50.9	-74.0	12	21	4.8
2025-11-26T12:00	10100	248	-50.6	-74.8	12	20	4.8
2025-11-26T12:00	10150	246	-50.3	-75.3	11	20	4.8
2025-11-26T12:00	10200	245	-49.6	-75.1	10	19	4.9
2025-11-26T12:00	10250	243	-49.8	-74.9	8	19	4.9
2025-11-26T12:00	10300	241	-49.9	-74.6	6	19	4.7
2025-11-26T12:00	10350	239	-50.0	-75.1	5	20	4.6
2025-11-26T12:00	10400	237	-49.8	-75.8	6	20	4.5
2025-11-26T12:00	10450	235	-49.9	-76.0	8	20	4.5
2025-11-26T12:00	10500	234	-50.1	-75.8	10	20	4.5
2025-11-26T12:00	10550	232	-50.2	-76.2	12	20	4.6
2025-11-26T12:00	10600	230	-50.3	-76.8	14	20	4.7
2025-11-26T12:00	10650	228	-50.3	-76.7	15	19	4.9
2025-11-26T12:00	10700	227	-50.4	-76.6	16	19	4.9
2025-11-26T12:00	10750	225	-50.6	-76.7	17	19	4.9
2025-11-26T12:00	10800	223	-50.6	-77.1	17	19	4.8
2025-11-26T12:00	10850	221	-50.8	-77.2	17	19	4.9
2025-11-26T12:00	10900	220	-51.0	-76.8	17	19	5.0
2025-11-26T12:00	10950	218	-51.1	-76.6	17	18	4.8
2025-11-26T12:00	11000	216	-51.2	-77.1	16	18	4.6
2025-11-26T12:00	11050	215	-51.3	-77.0	14	17	4.5
2025-11-26T12:00	11100	213	-51.3	-77.3	12	17	4.4
2025-11-26T12:00	11150	211	-51.3	-77.9	11	17	4.4
2025-11-26T12:00	11200	210	-51.4	-78.2	11	16	4.4
2025-11-26T12:00	11250	208	-51.4	-78.3	12	16	4.4
2025-11-26T12:00	11300	207	-51.6	-78.5	12	16	4.3
2025-11-26T12:00	11350	205	-52.0	-78.7	11	16	4.1
2025-11-26T12:00	11400	203	-51.8	-78.9	9	15	4.0
2025-11-26T12:00	11450	202	-51.6	-79.1	7	15	4.0
2025-11-26T12:00	11500	200	-51.5	-79.2	5	14	4.0
2025-11-26T12:00	11550	199	-51.4	-79.3	4	13	4.1
2025-11-26T12:00	11600	197	-51.4	-79.3	2	13	3.9
2025-11-26T12:00	11650	196	-51.3	-79.3	0	12	3.7
2025-11-26T12:00	11700	194	-51.3	-79.4	358	12	3.6
2025-11-26T12:00	11750	193	-51.6	-79.6	356	12	3.4
2025-11-26T12:00	11800	191	-51.6	-79.5	355	12	3.5
2025-11-26T12:00	11850	190	-51.5	-79.5	354	11	3.6
2025-11-26T12:00	11900	188	-51.5	-79.4	353	11	3.9
2025-11-26T12:00	11950	187	-51.6	-79.6	352	11	4.2
2025-11-26T12:00	12000	185	-51.8	-79.7	352	11	4.6
2025-11-26T12:00	12050	184	-52.2	-79.7	353	12	5.0
2025-11-26T12:00	12100	183	-52.6	-79.8	354	13	5.2
2025-11-26T12:00	12150	181	-52.9	-79.9	355	13	5.4
2025-11-26T12:00	12200	180	-53.0	-80.1	355	13	5.4
2025-11-26T12:00	12250	178	-53.2	-80.1	354	14	5.4
2025-11-26T12:00	12300	177	-53.4	-80.1	352	14	5.4
2025-11-26T12:00	12350	176	-53.7	-80.4	351	15	5.3
2025-11-26T12:00	12400	174	-53.7	-80.5	351	15	5.2
2025-11-26T12:00	12450	173	-53.7	-80.3	354	15	5.1
2025-11-26T12:00	12500	172	-53.9	-80.3	357	15	5.3
2025-11-26T12:00	12550	170	-54.2	-80.2	360	15	5.6
2025-11-26T12:00	12600	169	-54.5	-80.6	0	15	5.9
2025-11-26T12:00	12650	168	-54.9	-80.9	0	15	6.1
2025-11-26T12:00	12700	166	-55.1	-81.1	360	16	6.4
2025-11-26T12:00	12750	165	-55.2	-81.1	360	16	6.7
2025-11-26T12:00	12800	164	-55.4	-81.1	360	16	6.9
2025-11-26T12:00	12850	162	-55.7	-81.2	360	15	7.2
2025-11-26T12:00	12900	161	-55.8	-81.3	359	14	7.3
2025-11-26T12:00	12950	160	-55.8	-81.4	358	14	7.4
2025-11-26T12:00	13000	159	-55.9	-81.6	356	14	7.4
2025-11-26T12:00	13050	157	-56.1	-81.6	352	14	7.6
2025-11-26T12:00	13100	156	-56.3	-81.8	348	14	7.7
2025-11-26T12:00	13150	155	-56.2	-81.8	345	15	7.6
2025-11-26T12:00	13200	154	-56.0	-81.7	343	15	7.6
2025-11-26T12:00	13250	153	-55.7	-81.7	343	15	7.5
2025-11-26T12:00	13300	151	-55.9	-81.9	345	15	7.6
2025-11-26T12:00	13350	150	-55.9	-82.1	345	15	7.7
2025-11-26T12:00	13400	149	-55.6	-82.0	345	16	7.7
2025-11-26T12:00	13450	148	-55.5	-81.9	346	16	7.8
2025-11-26T12:00	13500	147	-55.8	-82.1	348	16	8.0
2025-11-26T12:00	13550	145	-56.1	-82.3	350	16	8.0
2025-11-26T12:00	13600	144	-55.5	-82.1	352	15	8.1
2025-11-26T12:00	13650	143	-55.1	-82.2	351	14	8.2
2025-11-26T12:00	13700	142	-55.1	-82.1	348	13	8.2
2025-11-26T12:00	13750	141	-55.1	-82.0	343	12	8.1
2025-11-26T12:00	13800	140	-55.1	-81.9	340	13	8.0
2025-11-26T12:00	13850	139	-55.2	-82.1	339	13	8.1
2025-11-26T12:00	13900	138	-55.4	-82.2	339	13	8.0
2025-11-26T12:00	13950	137	-55.5	-82.2	339	13	7.8
2025-11-26T12:00	14000	136	-55.8	-82.3	340	13	7.8
2025-11-26T12:00	14050	135	-55.9	-82.3	341	13	7.8
2025-11-26T12:00	14100	134	-55.9	-82.4	343	13	8.0
2025-11-26T12:00	14150	132	-56.1	-82.5	345	14	8.0
2025-11-26T12:00	14200	131	-56.5	-82.6	346	15	7.9
2025-11-26T12:00	14250	130	-56.7	-82.5	346	16	7.9
2025-11-26T12:00	14300	129	-57.0	-82.6	345	16	7.8
2025-11-26T12:00	14350	128	-56.9	-82.6	345	16	7.8
2025-11-26T12:00	14400	127	-56.9	-82.8	346	16	7.8
2025-11-26T12:00	14450	126	-56.9	-82.9	347	15	7.9
2025-11-26T12:00	14500	125	-57.1	-82.9	348	14	7.9
2025-11-26T12:00	14550	124	-57.3	-82.9	349	14	7.8
2025-11-26T12:00	14600	123	-57.5	-83.0	350	13	7.8
2025-11-26T12:00	14650	122	-57.7	-83.1	350	13	7.7
2025-11-26T12:00	14700	121	-57.9	-83.1	350	13	7.7
2025-11-26T12:00	14750	121	-58.0	-83.2	349	13	7.7
2025-11-26T12:00	14800	120	-58.2	-83.2	348	13	7.8
2025-11-26T12:00	14850	119	-58.4	-83.2	349	13	7.7
2025-11-26T12:00	14900	118	-58.6	-83.2	347	12	7.6
2025-11-26T12:00	14950	117	-58.6	-83.3	343	12	7.7
2025-11-26T12:00	15000	116	-58.7	-83.6	338	12	8.0
2025-11-26T12:00	15050	115	-58.7	-83.6	333	12	8.0
2025-11-26T12:00	15100	114	-58.6	-83.4	329	13	8.1
2025-11-26T12:00	15150	113	-58.7	-83.5	326	13	8.1
2025-11-26T12:00	15200	112	-58.6	-83.6	326	12	8.1
2025-11-26T12:00	15250	111	-58.3	-83.6	327	12	8.0
2025-11-26T12:00	15300	110	-58.5	-83.8	327	12	8.0
2025-11-26T12:00	15350	109	-58.4	-83.6	327	12	8.0
2025-11-26T12:00	15400	109	-58.3	-83.4	327	12	8.2
2025-11-26T12:00	15450	108	-58.4	-83.4	327	12	8.2
2025-11-26T12:00	15500	107	-58.8	-83.6	326	13	8.3
2025-11-26T12:00	15550	106	-59.1	-83.8	325	13	8.3
2025-11-26T12:00	15600	105	-58.9	-83.8	324	12	8.4
2025-11-26T12:00	15650	104	-58.9	-83.9	325	12	8.6
2025-11-26T12:00	15700	104	-59.0	-84.0	327	12	8.7
2025-11-26T12:00	15750	103	-58.8	-83.8	327	13	8.8
2025-11-26T12:00	15800	102	-58.9	-83.9	326	14	9.0
2025-11-26T12:00	15850	101	-59.0	-83.8	325	14	8.9
2025-11-26T12:00	15900	100	-59.1	-83.9	326	15	8.8
2025-11-26T12:00	15950	100	-59.2	-84.0	327	15	8.8
2025-11-26T12:00	16000	99	-59.4	-84.1	327	15	8.8
2025-11-26T12:00	16050	98	-59.7	-84.2	326	14	8.8
2025-11-26T12:00	16100	97	-60.1	-84.3	324	14	8.9
2025-11-26T12:00	16150	96	-60.4	-84.4	323	13	8.9
2025-11-26T12:00	16200	96	-60.7	-84.4	326	12	8.9
2025-11-26T12:00	16250	95	-61.0	-84.6	324	12	8.8
2025-11-26T12:00	16300	94	-61.0	-84.8	321	11	8.9
2025-11-26T12:00	16350	93	-60.7	-84.9	320	11	8.9
2025-11-26T12:00	16400	93	-60.7	-84.8	322	10	9.0
2025-11-26T12:00	16450	92	-61.0	-84.9	324	9	9.0
2025-11-26T12:00	16500	91	-61.1	-84.9	321	9	9.1
2025-11-26T12:00	16550	90	-61.1	-84.9	314	9	9.2
2025-11-26T12:00	16600	90	-60.9	-85.0	306	9	9.5
2025-11-26T12:00	16650	89	-60.9	-84.9	300	10	9.8
2025-11-26T12:00	16700	88	-61.2	-84.9	297	10	10.1
2025-11-26T12:00	16750	87	-61.6	-84.9	297	11	10.3
2025-11-26T12:00	16800	87	-62.0	-85.0	297	12	10.4
2025-11-26T12:00	16850	86	-62.3	-85.1	298	13	10.3
2025-11-26T12:00	16900	85	-62.5	-85.3	301	14	10.4
2025-11-26T12:00	16950	85	-62.7	-85.5	304	15	10.5
2025-11-26T12:00	17000	84	-62.3	-85.5	307	14	11.3
2025-11-26T12:00	17050	83	-61.7	-85.4	309	12	12.5
2025-11-26T12:00	17100	83	-61.6	-85.3	308	11	13.5
2025-11-26T12:00	17150	82	-61.6	-85.2	308	11	14.4
2025-11-26T12:00	17200	81	-61.8	-85.3	309	11	14.9
2025-11-26T12:00	17250	81	-62.0	-85.3	308	12	15.2
2025-11-26T12:00	17300	80	-62.1	-85.4	308	12	15.4
2025-11-26T12:00	17350	79	-62.0	-85.4	311	13	15.5
2025-11-26T12:00	17400	79	-62.2	-85.4	316	14	15.5
2025-11-26T12:00	17450	78	-62.2	-85.4	323	14	15.5
2025-11-26T12:00	17500	77	-62.4	-85.6	328	15	15.0
2025-11-26T12:00	17550	77	-62.6	-85.7	330	14	14.9
2025-11-26T12:00	17600	76	-62.8	-85.8	330	13	14.5
2025-11-26T12:00	17650	76	-62.8	-85.8	330	12	14.0
2025-11-26T12:00	17700	75	-62.9	-85.8	327	11	13.9
2025-11-26T12:00	17750	74	-63.1	-85.8	325	10	13.7
2025-11-26T12:00	17800	74	-63.4	-86.0	325	10	13.6
2025-11-26T12:00	17850	73	-63.4	-85.9	329	10	13.7
2025-11-26T12:00	17900	73	-63.6	-86.1	334	10	13.7
2025-11-26T12:00	17950	72	-64.0	-86.2	337	10	14.0
2025-11-26T12:00	18000	71	-64.1	-86.2	336	10	13.8
2025-11-26T12:00	18050	71	-64.3	-86.2	332	9	13.4
2025-11-26T12:00	18100	70	-64.7	-86.4	327	9	13.3
2025-11-26T12:00	18150	70	-64.8	-86.4	325	10	13.3
2025-11-26T12:00	18200	69	-64.9	-86.5	325	11	13.2
2025-11-26T12:00	18250	69	-65.0	-86.6	326	11	13.2
2025-11-26T12:00	18300	68	-65.0	-86.6	327	11	13.2
2025-11-26T12:00	18350	67	-65.1	-86.5	328	10	13.5
2025-11-26T12:00	18400	67	-65.4	-86.7	327	9	13.6
2025-11-26T12:00	18450	66	-65.4	-86.6	323	9	13.6
2025-11-26T12:00	18500	66	-65.6	-86.6	313	8	13.6
2025-11-26T12:00	18550	65	-65.8	-86.7	302	8	13.4
2025-11-26T12:00	18600	65	-66.0	-86.8	295	8	13.3
2025-11-26T12:00	18650	64	-66.2	-86.9	300	7	13.3
2025-11-26T12:00	18700	64	-66.3	-86.9	317	7	13.2
2025-11-26T12:00	18750	63	-66.4	-87.0	330	8	13.1
2025-11-26T12:00	18800	63	-66.3	-87.0	336	9	13.1
2025-11-26T12:00	18850	62	-66.4	-87.1	336	9	13.2
2025-11-26T12:00	18900	62	-66.5	-87.1	334	9	13.2
2025-11-26T12:00	18950	61	-66.6	-87.2	331	9	13.3
2025-11-26T12:00	19000	61	-66.8	-87.2	324	10	13.4
2025-11-26T12:00	19050	60	-66.9	-87.3	315	10	13.3
2025-11-26T12:00	19100	60	-66.7	-87.1	305	10	13.3
2025-11-26T12:00	19150	59	-66.9	-87.2	298	11	13.3
2025-11-26T12:00	19200	59	-67.3	-87.3	294	11	13.1
2025-11-26T12:00	19250	58	-67.5	-87.5	294	12	13.0
2025-11-26T12:00	19300	58	-67.3	-87.4	299	11	13.0
2025-11-26T12:00	19350	57	-67.4	-87.5	306	10	13.0
2025-11-26T12:00	19400	57	-67.7	-87.7	315	10	12.7
2025-11-26T12:00	19450	56	-67.6	-87.6	320	10	12.7
2025-11-26T12:00	19500	56	-67.7	-87.6	325	11	12.6
2025-11-26T12:00	19550	55	-68.0	-87.9	330	12	12.5
2025-11-26T12:00	19600	55	-68.0	-87.9	333	12	12.5
2025-11-26T12:00	19650	54	-68.0	-87.9	333	12	12.6
2025-11-26T12:00	19700	54	-67.9	-87.9	330	11	12.6
2025-11-26T12:00	19750	54	-68.0	-87.9	324	10	12.7
2025-11-26T12:00	19800	53	-68.1	-87.8	318	9	12.8
2025-11-26T12:00	19850	53	-68.2	-87.8	312	8	13.0
2025-11-26T12:00	19900	52	-68.4	-87.9	307	8	13.2
2025-11-26T12:00	19950	52	-68.4	-87.9	303	8	13.4
2025-11-26T12:00	20000	51	-68.4	-88.0	301	8	13.5
2025-11-26T12:00	20050	51	-68.1		302	9	13.9
2025-11-26T12:00	20100	50	-68.1		303	11	14.2
2025-11-26T12:00	20150	50	-68.1		305	13	14.4
2025-11-26T12:00	20200	50	-67.9		308	14	14.5
2025-11-26T12:00	20250	49	-67.8		310	14	14.5
2025-11-26T12:00	20300	49	-67.7		311	14	14.5
2025-11-26T12:00	20350	48	-67.5		310	13	14.5
2025-11-26T12:00	20400	48	-67.3		308	12	14.5
2025-11-26T12:00	20450	48	-67.2		304	12	14.4
2025-11-26T12:00	20500	47	-67.2		302	12	14.3
2025-11-26T12:00	20550	47	-67.4		303	14	14.1
2025-11-26T12:00	20600	46	-67.4		303	15	14.0
2025-11-26T12:00	20650	46	-67.5		303	16	14.1
2025-11-26T12:00	20700	46	-67.6		302	15	14.0
2025-11-26T12:00	20750	45	-67.6		300	15	14.0
2025-11-26T12:00	20800	45	-67.5		299	14	14.0
2025-11-26T12:00	20850	45	-67.5		297	14	14.7
2025-11-26T12:00	20900	44	-67.6		295	14	14.7
2025-11-26T12:00	20950	44	-67.6		292	15	14.4
2025-11-26T12:00	21000	43	-67.4		290	15	14.3
2025-11-26T12:00	21050	43	-67.5		290	15	14.2
2025-11-26T12:00	21100	43	-67.7		289	15	14.0
2025-11-26T12:00	21150	42	-67.9		288	15	13.8
2025-11-26T12:00	21200	42	-67.8		286	15	13.7
2025-11-26T12:00	21250	42	-67.4		284	15	13.5
2025-11-26T12:00	21300	41	-67.5		283	15	13.4
2025-11-26T12:00	21350	41	-67.7		282	16	13.3
2025-11-26T12:00	21400	41	-68.0		280	16	13.2
2025-11-26T12:00	21450	40	-67.9		277	17	13.1
2025-11-26T12:00	21500	40	-67.0		277	18	13.0
2025-11-26T12:00	21550	40	-66.1		281	18	13.1
2025-11-26T12:00	21600	39	-66.1		285	18	13.2
2025-11-26T12:00	21650	39	-65.6		288	19	13.4
2025-11-26T12:00	21700	39	-65.8		288	19	13.5
2025-11-26T12:00	21750	38	-65.5		287	19	13.6
2025-11-26T12:00	21800	38	-65.5		287	19	13.7
2025-11-26T12:00	21850	38	-65.7		288	20	13.7
2025-11-26T12:00	21900	37	-65.8		289	19	13.7
2025-11-26T12:00	21950	37	-65.6		289	19	13.7
2025-11-26T12:00	22000	37	-65.5		290	18	13.7
2025-11-26T12:00	22050	37	-65.4		290	17	13.6
2025-11-26T12:00	22100	36	-65.1		287	17	13.6
2025-11-26T12:00	22150	36	-65.0		282	17	13.5
2025-11-26T12:00	22200	36	-64.9		277	17	13.5
2025-11-26T12:00	22250	35	-65.0		274	18	13.3
2025-11-26T12:00	22300	35	-64.7		273	18	13.1
2025-11-26T12:00	22350	35	-64.6		273	19	13.0
2025-11-26T12:00	22400	34	-64.9		273	19	13.0
2025-11-26T12:00	22450	34	-65.1		274	20	12.9
2025-11-26T12:00	22500	34	-65.2		274	21	12.9
2025-11-26T12:00	22550	34	-65.6		276	21	12.8
2025-11-26T12:00	22600	33	-66.0		277	21	12.8
2025-11-26T12:00	22650	33	-66.1		279	20	12.7
2025-11-26T12:00	22700	33	-66.3		282	20	12.5
2025-11-26T12:00	22750	33	-66.6		285	19	12.5
2025-11-26T12:00	22800	32	-67.0		290	19	12.5
2025-11-26T12:00	22850	32	-67.1		295	19	12.5
2025-11-26T12:00	22900	32	-67.1		298	19	12.5
2025-11-26T12:00	22950	31	-67.0		300	19	12.7
2025-11-26T12:00	23000	31	-66.9		301	17	12.8
2025-11-26T12:00	23050	31	-67.1		301	16	12.9
2025-11-26T12:00	23100	31	-67.3		300	15	12.9
2025-11-26T12:00	23150	30	-67.5		296	14	12.9
2025-11-26T12:00	23200	30	-67.4		291	13	12.9
2025-11-26T12:00	23250	30	-66.9		286	14	12.9
2025-11-26T12:00	23300	30	-66.8		282	14	12.9
2025-11-26T12:00	23350	29	-66.4		279	15	12.9
2025-11-26T12:00	23400	29	-66.0		277	17	12.7
2025-11-26T12:00	23450	29	-66.0		275	18	12.6
2025-11-26T12:00	23500	29	-66.2		273	18	12.5
2025-11-26T12:00	23550	29	-66.2		272	19	12.5
2025-11-26T12:00	23600	28	-66.2		271	19	12.3
2025-11-26T12:00	23650	28	-66.2		270	19	12.2
2025-11-26T12:00	23700	28	-66.3		269	19	12.0
2025-11-26T12:00	23750	28	-66.4		266	19	11.9
2025-11-26T12:00	23800	27	-66.4		265	19	11.8
2025-11-26T12:00	23850	27	-66.0		265	19	11.8
2025-11-26T12:00	23900	27	-65.5		265	18	11.7
2025-11-26T12:00	23950	27	-65.1		264	16	11.6
2025-11-26T12:00	24000	26	-65.0		262	16	11.6
2025-11-26T12:00	24050	26	-64.5		262	17	11.5
2025-11-26T12:00	24100	26	-64.3		264	18	11.4
2025-11-26T12:00	24150	26	-64.5		265	19	11.3
2025-11-26T12:00	24200	26	-64.7		266	20	11.3
2025-11-26T12:00	24250	25	-64.8		265	21	11.2
2025-11-26T12:00	24300	25	-64.8		262	21	11.2
2025-11-26T12:00	24350	25	-64.7		260	22	11.0
2025-11-26T12:00	24400	25	-64.4		259	22	11.0
2025-11-26T12:00	24450	25	-64.4		261	22	10.8
2025-11-26T12:00	24500	24	-64.6		264	22	10.7
2025-11-26T12:00	24550	24	-64.6		266	21	10.5
2025-11-26T12:00	24600	24	-64.0		268	21	10.4
2025-11-26T12:00	24650	24	-64.0		270	21	10.3
2025-11-26T12:00	24700	24	-63.9		271	21	10.2
2025-11-26T12:00	24750	23	-63.6		272	22	10.2
2025-11-26T12:00	24800	23	-63.8		272	22	10.1
2025-11-26T12:00	24850	23	-63.5		270	22	10.0
2025-11-26T12:00	24900	23	-63.2		267	22	10.0
2025-11-26T12:00	24950	23	-63.2		264	22	10.0
2025-11-26T12:00	25000	22	-63.3		260	22	9.9
2025-11-26T12:00	25050	22	-63.2		256	22	9.9
2025-11-26T12:00	25100	22	-63.2		253	22	9.8
2025-11-26T12:00	25150	22	-63.2		251	22	9.7
2025-11-26T12:00	25200	22	-63.2		251	22	9.6
2025-11-26T12:00	25250	22	-63.3		252	22	9.5
2025-11-26T12:00	25300	21	-63.5		252	22	9.4
2025-11-26T12:00	25350	21	-63.7		251	21	9.4
2025-11-26T12:00	25400	21	-63.9		254	21	9.3
2025-11-26T12:00	25450	21	-64.0		259	21	9.3
2025-11-26T12:00	25500	21	-64.2		264	22	9.2
2025-11-26T12:00	25550	21	-64.4		270	23	9.0
2025-11-26T12:00	25600	20	-64.2		273	22	9.0
2025-11-26T12:00	25650	20	-64.1		274	22	8.9
2025-11-26T12:00	25700	20	-64.0		272	22	8.6
2025-11-26T12:00	25750	20	-63.9		269	22	8.4
2025-11-26T12:00	25800	20	-63.8		265	22	8.2
2025-11-26T12:00	25850	20	-64.0		261	23	8.1
2025-11-26T12:00	25900	19	-64.2		258	24	8.0
2025-11-26T12:00	25950	19	-64.2		257	25	7.9
2025-11-26T12:00	26000	19	-64.4		255	26	7.7
2025-11-26T12:00	26050	19	-64.5		253	26	7.6
2025-11-26T12:00	26100	19	-64.6		252	27	7.6
2025-11-26T12:00	26150	19	-64.7		250	28	7.5
2025-11-26T12:00	26200	18	-64.8		251	28	7.4
2025-11-26T12:00	26250	18	-65.0		252	29	7.4
2025-11-26T12:00	26300	18	-65.3		253	29	7.4
2025-11-26T12:00	26350	18	-65.6		254	29	7.2
2025-11-26T12:00	26400	18	-66.0		255	30	7.1
2025-11-26T12:00	26450	18	-66.4		256	30	7.1
2025-11-26T12:00	26500	18	-66.8		256	31	7.1
2025-11-26T12:00	26550	17	-67.0		256	31	7.0
2025-11-26T12:00	26600	17	-66.8		256	32	6.9
2025-11-26T12:00	26650	17	-65.8		256	32	6.8
2025-11-26T12:00	26700	17	-65.6		257	32	6.8
2025-11-26T12:00	26750	17	-65.6		258	31	6.8
2025-11-26T12:00	26800	17	-65.6		259	31	6.7
2025-11-26T12:00	26850	17	-64.7		260	31	6.7
2025-11-26T12:00	26900	16	-64.3		261	31	6.6
2025-11-26T12:00	26950	16	-64.5		261	30	6.5
2025-11-26T12:00	27000	16	-64.1		260	29	6.5
2025-11-26T12:00	27050	16	-63.1		259	29	6.4
2025-11-26T12:00	27100	16	-62.4		257	29	6.4
2025-11-26T12:00	27150	16	-62.4		256	29	6.4
2025-11-26T12:00	27200	16	-62.5		255	30	6.4
2025-11-26T12:00	27250	16	-62.8		254	31	6.4
2025-11-26T12:00	27300	15	-62.9		254	31	6.3
2025-11-26T12:00	27350	15	-63.2		253	32	6.3
2025-11-26T12:00	27400	15	-63.5		253	33	6.3
2025-11-26T12:00	27450	15	-63.7		253	34	6.3
2025-11-26T12:00	27500	15	-63.8		252	34	6.2
2025-11-26T12:00	27550	15	-63.6		251	36	6.2
2025-11-26T12:00	27600	15	-63.2		251	37	6.1
2025-11-26T12:00	27650	15	-63.1		250	38	6.0
2025-11-26T12:00	27700	14	-63.2		249	39	6.0
2025-11-26T12:00	27750	14	-63.0		247	40	5.9
2025-11-26T12:00	27800	14	-62.2		245	42	5.9
2025-11-26T12:00	27850	14	-61.6		244	43	5.9
2025-11-26T12:00	27900	14	-61.2		243	43	5.9
2025-11-26T12:00	27950	14	-61.2		242	43	5.8
2025-11-26T12:00	28000	14	-61.3		243	43	5.8
2025-11-26T12:00	28050	14	-61.7		245	43	5.8
2025-11-26T12:00	28100	14	-61.8		247	42	5.8
2025-11-26T12:00	28150	13	-61.5		250	42	5.7
2025-11-26T12:00	28200	13	-61.5		251	42	5.7
2025-11-26T12:00	28250	13	-61.6		253	41	5.6
2025-11-26T12:00	28300	13	-61.8		254	41	5.5
2025-11-26T12:00	28350	13	-62.2		254	40	5.5
2025-11-26T12:00	28400	13	-62.5		254	39	5.4
2025-11-26T12:00	28450	13	-62.8		254	38	5.4
2025-11-26T12:00	28500	13	-63.1		253	37	5.3
2025-11-26T12:00	28550	13	-63.5		251	36	5.4
2025-11-26T12:00	28600	12	-63.4		251	35	5.3
2025-11-26T12:00	28650	12	-63.2		251	34	5.4
2025-11-26T12:00	28700	12	-63.2		251	34	5.3
2025-11-26T12:00	28750	12	-63.1		251	34	5.3
2025-11-26T12:00	28800	12	-63.2		253	35	5.3
2025-11-26T12:00	28850	12	-63.4		255	36	5.3
2025-11-26T12:00	28900	12	-63.6		257	37	5.3
2025-11-26T12:00	28950	12	-63.7		258	38	5.3
2025-11-26T12:00	29000	12	-63.5		259	38	5.2
2025-11-26T12:00	29050	12	-63.2		258	39	5.2
2025-11-26T12:00	29100	12	-63.2		257	39	5.2
2025-11-26T12:00	29150	11	-63.3		256	38	5.1
2025-11-26T12:00	29200	11	-63.5		254	38	5.1
2025-11-26T12:00	29250	11	-63.5		253	38	5.1
2025-11-26T12:00	29300	11	-63.1		253	39	5.0
2025-11-26T12:00	29350	11	-63.0		253	40	5.0
2025-11-26T12:00	29400	11	-63.2		254	40	5.0
2025-11-26T12:00	29450	11	-63.3		255	41	4.9
2025-11-26T12:00	29500	11	-63.2		255	41	4.9
2025-11-26T12:00	29550	11	-63.1		255	42	4.9
2025-11-26T12:00	29600	11	-62.9		256	42	4.9
2025-11-26T12:00	29650	11	-62.5		256	43	4.9
2025-11-26T12:00	29700	10	-62.1		256	44	4.8
2025-11-26T12:00	29750	10	-61.9		256	45	4.8
2025-11-26T12:00	29800	10	-61.8		256	45	4.8
2025-11-26T12:00	29850	10	-61.6		257	45	4.8
2025-11-26T12:00	29900	10	-61.4		257	45	4.8
2025-11-26T12:00	29950	10	-61.2		258	45	4.7
2025-11-26T12:00	30000	10	-61.2		259	45	4.6
2025-11-26T12:00	30050	10	-61.2		260	45	4.6
2025-11-26T12:00	30100	10	-61.1		261	46	4.5
2025-11-26T12:00	30150	10	-60.8		263	47	4.5
2025-11-26T12:00	30200	10	-60.4		264	47	4.4
2025-11-26T12:00	30250	10	-60.4		264	47	4.4
2025-11-26T12:00	30300	9	-60.6		264	47	4.4
2025-11-26T12:00	30350	9	-60.7		263	47	4.4
2025-11-26T12:00	30400	9	-60.4		262	47	4.4
2025-11-26T12:00	30450	9	-60.2		262	47	4.3
2025-11-26T12:00	30500	9	-60.2		262	48	4.3
2025-11-26T12:00	30550	9	-60.2		263	49	4.2
2025-11-26T12:00	30600	9	-60.0		262	50	4.1
2025-11-26T12:00	30650	9	-59.6		261	51	4.1
2025-11-26T12:00	30700	9	-59.5		260	52	4.1
2025-11-26T12:00	30750	9	-59.8		259	53	4.1
2025-11-26T12:00	30800	9	-60.0		260	53	4.1
2025-11-26T12:00	30850	9	-60.2		260	53	4.1
2025-11-26T12:00	30900	9	-60.4		262	53	4.2
2025-11-26T12:00	30950	9	-60.5		262	54	4.1
2025-11-26T12:00	31000	8	-60.5		262	54	4.1
2025-11-26T12:00	31050	8	-60.6		262	55	4.0
2025-11-26T12:00	31100	8	-60.8		262	56	4.1
2025-11-26T12:00	31150	8	-60.8		261	57	4.1
2025-11-26T12:00	31200	8	-60.5		260	58	4.0
2025-11-26T12:00	31250	8	-60.7		259	58	4.0
2025-11-26T12:00	31300	8	-61.0		258	59	4.0
2025-11-26T12:00	31350	8	-61.0		258	59	4.0
2025-11-26T12:00	31400	8	-60.7		259	59	3.9
2025-11-26T12:00	31450	8	-60.4		260	60	3.9
2025-11-26T12:00	31500	8	-60.5		261	61	3.9
2025-11-26T12:00	31550	8	-60.6		262	61	3.9
2025-11-26T12:00	31600	8	-60.7		262	63	3.9
2025-11-26T12:00	31650	8	-60.7		262	64	3.9
2025-11-26T12:00	31700	8	-60.4		263	65	3.8
2025-11-26T12:00	31750	8	-60.4		263	66	3.8
2025-11-26T12:00	31800	7	-60.5		263	66	3.8
2025-11-26T12:00	31850	7	-60.8		263	66	3.8
2025-11-26T12:00	31900	7	-61.0		264	65	3.7
2025-11-26T12:00	31950	7	-61.1		265	64	3.7
2025-11-26T12:00	32000	7	-61.0		265	64	3.6
2025-11-26T12:00	32050	7	-60.9		265	63	3.6
2025-11-26T12:00	32100	7	-60.7		266	63	3.5
2025-11-26T12:00	32150	7	-60.4		267	63	3.5
2025-11-26T12:00	32200	7	-59.8		268	63	3.5
2025-11-26T12:00	32250	7	-59.3		269	63	3.5
2025-11-26T12:00	32300	7	-59.1		270	62	3.4
2025-11-26T12:00	32350	7	-59.0		271	61	3.3
2025-11-26T12:00	32400	7	-58.7		271	60	3.3
2025-11-26T12:00	32450	7	-58.3		271	60	3.2
2025-11-26T12:00	32500	7	-58.3		271	59	3.2
2025-11-26T12:00	32550	7	-58.2		269	59	3.2
2025-11-26T12:00	32600	7	-57.4		268	60	3.2
2025-11-26T12:00	32650	7	-56.7		266	60	3.2
2025-11-26T12:00	32700	6	-56.5		266	61	3.1
2025-11-26T12:00	32750	6	-56.2		265	62	3.1
2025-11-26T12:00	32800	6	-55.6		265	63	3.1
2025-11-26T12:00	32850	6	-55.4		264	65	3.0
2025-11-26T12:00	32900	6	-55.3		264	67	3.0
2025-11-26T12:00	32950	6	-54.7		263	69	3.0
2025-11-26T12:00	33000	6	-54.3		263	70	3.0
2025-11-26T12:00	33050	6	-54.3		262	71	3.0
2025-11-26T12:00	33100	6	-54.2		262	72	3.0
2025-11-26T12:00	33150	6	-53.9		261	72	3.0
2025-11-26T12:00	33200	6	-53.7		261	71	3.0
2025-11-26T12:00	33250	6	-53.9		262	71	3.0
2025-11-26T12:00	33300	6	-54.2		262	70	2.9
2025-11-26T12:00	33350	6	-54.5		263	70	2.9
2025-11-26T12:00	33400	6	-54.6		263	70	2.9
2025-11-26T12:00	33450	6	-54.5		263	70	2.9
2025-11-26T12:00	33500	6	-54.4		263	71	2.8
2025-11-26T12:00	33550	6	-54.1		263	72	2.8
2025-11-26T12:00	33600	6	-53.8		263	72	2.8
2025-11-26T12:00	33650	6	-53.6		263	73	2.8
2025-11-26T12:00	33700	6	-53.6		264	72	2.8
2025-11-26T12:00	33750	5	-53.5		264	72	
2025-11-26T12:00	33800	5	-53.0		264	71	
2025-11-26T12:00	33850	5	-52.9		263	70	
2025-11-26T12:00	33900	5	-53.1		263	69	
2025-11-26T12:00	33950	5	-53.4		262	68	
2025-11-26T12:00	34000	5	-53.6		262	67	
2025-11-26T12:00	34050	5	-53.9		262	65	
2025-11-26T12:00	34100	5	-53.9		262	65	
2025-11-26T12:00	34150	5	-53.6		261	65	
2025-11-26T12:00	34200	5	-52.8		261	65	
2025-11-26T12:00	34250	5	-52.2		262	64	
2025-11-26T12:00	34300	5	-51.7		262	65	
2025-11-26T12:00	34350	5	-50.9		261	66	
2025-11-26T12:00	34400	5	-50.6		261	67	
2025-11-26T12:00	34450	5	-50.2		262	66	
2025-11-26T12:00	34500	5	-50.0		262	64	
2025-11-26T12:00	34550	5	-49.4		261	62	
2025-11-26T12:00	34600	5	-49.2		260	61	
2025-11-26T12:00	34650	5	-49.1		259	61	
2025-11-26T12:00	34700	5	-48.5		257	63	
2025-11-26T12:00	34750	5	-48.0		257	64	
2025-11-26T12:00	34800	5	-47.9		256	66	
2025-11-26T12:00	34850	5	-47.9		256	67	
2025-11-26T12:00	34900	5	-47.9		255	68	
2025-11-26T12:00	34950	5	-47.9		255	70	
2025-11-26T12:00	35000	5	-47.8		255	72	
2025-11-26T12:00	35050	4	-47.7		256	73	
2025-11-26T12:00	35100	4	-47.5		257	75	
2025-11-26T12:00	35150	4	-47.4		258	76	
2025-11-26T12:00	35200	4	-47.5		258	77	
2025-11-26T12:00	35250	4	-47.7		259	78	
2025-11-26T12:00	35300	4	-47.9		260	78	
2025-11-26T12:00	35350	4	-48.1		260	79	
2025-11-26T12:00	35400	4	-48.1		260	79	
2025-11-26T12:00	35450	4	-47.9		259	78	
2025-11-26T12:00	35500	4	-47.9		259	78	
2025-11-26T12:00	35550	4	-48.0		259	77	
2025-11-26T12:00	35600	4	-47.9		258	77	
2025-11-26T12:00	35650	4	-47.8		258	78	
2025-11-26T12:00	35700	4	-47.7		257	79	
2025-11-26T12:00	35750	4	-47.5		257	80	
2025-11-26T12:00	35800	4	-47.4		256	81	
2025-11-26T12:00	35850	4	-46.9		256	80	
2025-11-26T12:00	35900	4	-46.1		255	80	
2025-11-26T12:00	35950	4	-45.6		255	81	
2025-11-26T12:00	36000	4	-44.9		257	82	
2025-11-26T12:00	36050	4	-44.2		258	84	
2025-11-26T12:00	36100	4	-44.0		258	85	
2025-11-26T12:00	36150	4	-43.6		257	85	
2025-11-26T12:00	36200	4	-43.2		257	85	
2025-11-26T12:00	36250	4	-42.5		258	84	
2025-11-26T12:00	36300	4	-42.3		259	83	
2025-11-26T12:00	36350	4	-42.5		259	83	
2025-11-26T12:00	36400	4	-42.5		259	82	
2025-11-26T12:00	36450	4	-42.4		259	81	
2025-11-26T12:00	36500	4	-42.4		258	81	
2025-11-26T12:00	36550	4	-42.5		257	80	
2025-11-26T12:00	36600	4	-42.6		257	80	
2025-11-26T12:00	36650	4	-42.7		256	79	
2025-11-26T12:00	36700	4	-42.8		256	79	
2025-11-26T12:00	36750	3	-42.9		256	79	
2025-11-26T12:00	36800	3	-43.0		255	79	
2025-11-26T12:00	36850	3	-43.3		255	79	
2025-11-26T12:00	36900	3	-43.6		255	79	
2025-11-26T12:00	36950	3	-43.8		255	79	
2025-11-26T12:00	37000	3	-43.7		256	80	
2025-11-26T12:00	37050	3	-43.4		256	80	
2025-11-26T12:00	37100	3	-43.5		256	81	
2025-11-26T12:00	37150	3	-43.8		257	81	
2025-11-26T12:00	37200	3	-44.1		258	82	
2025-11-26T12:00	37250	3	-44.4		258	83	
2025-11-26T12:00	37300	3	-44.7		259	84	
2025-11-26T12:00	37350	3	-44.9		259	86	
2025-11-26T12:00	37400	3	-45.0		259	87	
2025-11-26T12:00	37450	3	-44.8		258	87	
2025-11-26T12:00	37500	3	-44.5		258	86	
2025-11-27T00:00	491	964	2.0	0.2	37	2	
2025-11-27T00:00	501	962	1.9	0.3	71	2	
2025-11-27T00:00	520	960	1.9	0.2	79	2	
2025-11-27T00:00	540	958	1.8	0.0	77	2	
2025-11-27T00:00	560	956	1.7	-0.3	74	3	
2025-11-27T00:00	580	953	1.7	-0.5	71	3	
2025-11-27T00:00	600	951	1.6	-0.6	67	4	
2025-11-27T00:00	620	949	1.6	-0.7	63	4	
2025-11-27T00:00	640	946	1.5	-0.8	60	5	
2025-11-27T00:00	660	944	1.4	-0.9	57	5	
2025-11-27T00:00	680	941	1.2	-1.1	55	6	
2025-11-27T00:00	700	939	1.1	-1.5	54	6	
2025-11-27T00:00	720	937	0.9	-1.7	52	7	
2025-11-27T00:00	740	935	0.8	-1.9	50	7	
2025-11-27T00:00	760	932	0.7	-2.1	48	7	
2025-11-27T00:00	780	930	0.5	-2.3	46	7	
2025-11-27T00:00	800	928	0.3	-2.3	43	8	
2025-11-27T00:00	820	925	0.1	-2.4	42	8	
2025-11-27T00:00	840	923	0.0	-2.7	40	8	
2025-11-27T00:00	860	921	-0.2	-2.9	39	8	
2025-11-27T00:00	880	918	-0.3	-3.3	39	8	
2025-11-27T00:00	900	916	-0.4	-3.5	38	9	
2025-11-27T00:00	920	914	-0.6	-3.5	39	9	
2025-11-27T00:00	940	912	-0.7	-3.6	39	8	
2025-11-27T00:00	960	909	-0.9	-3.6	39	8	
2025-11-27T00:00	980	907	-1.1	-3.7	39	8	
2025-11-27T00:00	1000	905	-1.3	-3.7	39	8	
2025-11-27T00:00	1020	903	-1.5	-3.8	39	8	
2025-11-27T00:00	1040	900	-1.6	-3.9	39	8	
2025-11-27T00:00	1060	898	-1.8	-3.9	39	8	
2025-11-27T00:00	1080	896	-2.0	-4.1	39	8	
2025-11-27T00:00	1100	893	-2.1	-4.5	39	7	
2025-11-27T00:00	1120	891	-2.3	-4.5	39	7	
2025-11-27T00:00	1140	889	-2.4	-4.5	39	7	
2025-11-27T00:00	1160	887	-2.6	-4.6	38	7	
2025-11-27T00:00	1180	884	-2.7	-4.7	38	7	
2025-11-27T00:00	1200	882	-2.9	-4.8	36	6	
2025-11-27T00:00	1220	880	-3.0	-5.0	35	6	
2025-11-27T00:00	1240	878	-3.1	-5.1	33	6	
2025-11-27T00:00	1260	876	-3.3	-5.4	31	6	
2025-11-27T00:00	1280	874	-3.4	-5.7	29	5	
2025-11-27T00:00	1300	871	-3.4	-5.9	28	5	
2025-11-27T00:00	1320	869	-3.5	-6.2	27	5	
2025-11-27T00:00	1340	867	-3.6	-6.3	26	5	
2025-11-27T00:00	1360	865	-3.8	-6.4	27	5	
2025-11-27T00:00	1380	862	-4.0	-6.5	29	5	
2025-11-27T00:00	1400	860	-4.1	-6.6	31	5	
2025-11-27T00:00	1420	858	-4.3	-6.6	34	5	
2025-11-27T00:00	1440	856	-4.4	-6.7	36	5	
2025-11-27T00:00	1460	854	-4.6	-6.8	38	5	
2025-11-27T00:00	1480	852	-4.8	-6.8	39	5	
2025-11-27T00:00	1500	849	-4.9	-6.8	41	4	
2025-11-27T00:00	1520	847	-5.1	-6.8	41	4	
2025-11-27T00:00	1540	845	-5.3	-6.9	41	4	
2025-11-27T00:00	1560	843	-5.5	-6.9	41	4	
2025-11-27T00:00	1580	841	-5.7	-6.9	41	4	
2025-11-27T00:00	1600	838	-5.9	-7.1	42	4	
2025-11-27T00:00	1620	836	-6.1	-7.1	42	4	
2025-11-27T00:00	1640	834	-6.3	-7.2	44	4	
2025-11-27T00:00	1660	832	-6.4	-7.2	45	4	
2025-11-27T00:00	1680	830	-6.6	-7.3	48	4	
2025-11-27T00:00	1700	828	-6.8	-7.4	51	4	
2025-11-27T00:00	1720	826	-7.0	-7.6	53	4	
2025-11-27T00:00	1740	824	-7.2	-7.6	55	4	
2025-11-27T00:00	1760	822	-7.3	-7.7	57	4	
2025-11-27T00:00	1780	819	-7.5	-7.9	57	4	
2025-11-27T00:00	1800	817	-7.6	-8.2	57	4	
2025-11-27T00:00	1820	815	-7.4	-8.7	57	4	
2025-11-27T00:00	1840	813	-7.4	-9.1	56	4	
2025-11-27T00:00	1860	811	-7.5	-9.3	56	4	
2025-11-27T00:00	1880	809	-7.5	-9.4	56	4	
2025-11-27T00:00	1900	807	-7.7	-9.3	57	4	
2025-11-27T00:00	1920	805	-7.8	-9.3	56	4	
2025-11-27T00:00	1940	803	-8.0	-9.3	55	4	
2025-11-27T00:00	1960	801	-8.2	-9.5	52	4	
2025-11-27T00:00	1980	799	-8.3	-9.6	48	4	
2025-11-27T00:00	2000	797	-8.5	-9.7	43	4	
2025-11-27T00:00	2020	795	-8.7	-9.7	41	5	
2025-11-27T00:00	2040	793	-8.8	-9.8	43	5	
2025-11-27T00:00	2060	791	-9.0	-10.0	48	5	
2025-11-27T00:00	2080	788	-9.1	-10.3	53	6	
2025-11-27T00:00	2100	786	-9.2	-10.6	57	6	
2025-11-27T00:00	2120	784	-9.4	-10.8	62	6	
2025-11-27T00:00	2140	782	-9.6	-10.8	66	7	
2025-11-27T00:00	2160	780	-9.7	-10.8	69	7	
2025-11-27T00:00	2180	778	-9.9	-10.9	71	7	
2025-11-27T00:00	2200	776	-10.0	-11.0	73	7	
2025-11-27T00:00	2220	774	-10.2	-11.0	74	7	
2025-11-27T00:00	2240	772	-10.4	-11.2	75	7	
2025-11-27T00:00	2260	770	-10.5	-11.4	78	7	
2025-11-27T00:00	2280	768	-10.6	-11.9	80	7	
2025-11-27T00:00	2300	766	-10.7	-12.4	83	6	
2025-11-27T00:00	2320	764	-10.8	-12.7	84	6	
2025-11-27T00:00	2340	762	-10.8	-12.8	85	6	
2025-11-27T00:00	2360	760	-10.8	-12.6	85	5	
2025-11-27T00:00	2380	758	-10.8	-12.9	83	5	
2025-11-27T00:00	2400	756	-10.9	-13.2	80	5	
2025-11-27T00:00	2420	754	-11.1	-13.2	78	5	
2025-11-27T00:00	2440	752	-11.3	-13.3	77	5	
2025-11-27T00:00	2460	750	-11.4	-13.3	77	6	
2025-11-27T00:00	2480	749	-11.5	-13.2	77	6	
2025-11-27T00:00	2500	747	-11.6	-13.3	77	6	
2025-11-27T00:00	2520	744	-11.5	-14.0	77	6	
2025-11-27T00:00	2540	743	-11.3	-15.2	76	6	
2025-11-27T00:00	2560	741	-11.3	-15.5	73	5	
2025-11-27T00:00	2580	739	-11.3	-15.7	68	5	
2025-11-27T00:00	2600	737	-11.3	-16.1	62	5	
2025-11-27T00:00	2620	735	-11.4	-16.3	54	5	
2025-11-27T00:00	2640	733	-11.5	-16.5	46	5	
2025-11-27T00:00	2660	731	-11.6	-16.9	39	6	
2025-11-27T00:00	2680	729	-11.5	-17.5	32	6	
2025-11-27T00:00	2700	727	-11.5	-18.1	27	7	
2025-11-27T00:00	2720	725	-11.5	-18.5	25	7	
2025-11-27T00:00	2740	724	-11.6	-18.9	26	8	
2025-11-27T00:00	2760	722	-11.7	-19.4	29	8	
2025-11-27T00:00	2780	720	-11.7	-19.9	33	9	
2025-11-27T00:00	2800	718	-11.7	-20.4	36	9	
2025-11-27T00:00	2820	716	-11.8	-20.8	39	10	
2025-11-27T00:00	2840	714	-11.9	-20.9	41	10	
2025-11-27T00:00	2860	712	-12.0	-20.8	42	10	
2025-11-27T00:00	2880	710	-12.0	-20.5	42	11	
2025-11-27T00:00	2900	708	-12.0	-20.4	42	11	
2025-11-27T00:00	2920	707	-12.0	-20.5	42	12	
2025-11-27T00:00	2940	705	-12.1	-20.6	41	12	
2025-11-27T00:00	2960	703	-12.2	-20.8	40	12	
2025-11-27T00:00	2980	701	-12.3	-21.1	39	12	
2025-11-27T00:00	3000	700	-12.4	-21.4	38	12	
2025-11-27T00:00	3020	698	-12.4	-22.4	37	12	
2025-11-27T00:00	3040	696	-12.3	-24.0	35	13	
2025-11-27T00:00	3060	694	-12.3	-25.1	34	13	
2025-11-27T00:00	3080	692	-12.3	-26.3	33	13	
2025-11-27T00:00	3100	691	-12.4	-26.5	32	13	
2025-11-27T00:00	3120	689	-12.4	-27.2	31	13	
2025-11-27T00:00	3140	687	-12.5	-28.0	29	13	
2025-11-27T00:00	3160	685	-12.5	-28.2	27	13	
2025-11-27T00:00	3180	683	-12.6	-28.6	26	13	
2025-11-27T00:00	3200	681	-12.6	-29.3	24	13	
2025-11-27T00:00	3220	680	-12.8	-29.4	23	13	
2025-11-27T00:00	3240	678	-12.9	-31.5	23	13	
2025-11-27T00:00	3260	676	-12.7	-34.5	22	14	
2025-11-27T00:00	3280	674	-12.8	-35.0	22	14	
2025-11-27T00:00	3300	672	-12.9	-35.3	21	14	
2025-11-27T00:00	3320	671	-13.0	-35.3	21	14	
2025-11-27T00:00	3340	669	-13.2	-35.4	22	15	
2025-11-27T00:00	3360	667	-13.4	-35.4	23	15	
2025-11-27T00:00	3380	665	-13.5	-35.2	23	15	
2025-11-27T00:00	3400	664	-13.7	-35.3	24	15	
2025-11-27T00:00	3420	662	-13.8	-34.9	25	15	
2025-11-27T00:00	3440	660	-14.0	-34.7	24	15	
2025-11-27T00:00	3460	659	-14.2	-34.4	24	15	
2025-11-27T00:00	3480	657	-14.4	-34.4	22	15	
2025-11-27T00:00	3500	655	-14.6	-34.6	21	15	
2025-11-27T00:00	3520	653	-14.7	-34.9	20	15	
2025-11-27T00:00	3540	652	-14.9	-35.2	20	15	
2025-11-27T00:00	3560	650	-15.1	-35.6	20	15	
2025-11-27T00:00	3580	648	-15.2	-36.0	21	15	
2025-11-27T00:00	3600	646	-15.4	-36.6	23	15	
2025-11-27T00:00	3620	645	-15.5	-37.3	25	15	
2025-11-27T00:00	3640	643	-15.7	-37.7	26	15	
2025-11-27T00:00	3660	641	-15.8	-37.7	28	15	
2025-11-27T00:00	3680	640	-16.0	-37.8	29	15	
2025-11-27T00:00	3700	638	-16.2	-38.0	28	15	
2025-11-27T00:00	3720	636	-16.4	-38.0	27	15	
2025-11-27T00:00	3740	634	-16.5	-38.1	26	15	
2025-11-27T00:00	3760	633	-16.7	-38.3	24	15	
2025-11-27T00:00	3780	631	-16.8	-38.0	22	15	
2025-11-27T00:00	3800	629	-17.0	-36.4	20	15	
2025-11-27T00:00	3820	628	-17.2	-37.6	18	14	
2025-11-27T00:00	3840	626	-17.3	-36.9	17	14	
2025-11-27T00:00	3860	624	-17.5	-37.4	16	14	
2025-11-27T00:00	3880	623	-17.6	-37.3	15	14	
2025-11-27T00:00	3900	621	-17.7	-37.9	16	14	
2025-11-27T00:00	3920	619	-17.8	-38.7	17	14	
2025-11-27T00:00	3940	618	-18.0	-37.7	18	15	
2025-11-27T00:00	3960	616	-18.2	-37.9	19	15	
2025-11-27T00:00	3980	614	-18.3	-37.5	20	16	
2025-11-27T00:00	4000	613	-18.5	-38.2	20	17	
2025-11-27T00:00	4020	611	-18.6	-39.5	21	17	
2025-11-27T00:00	4040	609	-18.6	-40.9	21	17	
2025-11-27T00:00	4060	608	-18.6	-42.2	22	17	
2025-11-27T00:00	4080	606	-18.7	-42.4	23	16	
2025-11-27T00:00	4100	605	-18.8	-42.5	25	16	
2025-11-27T00:00	4120	603	-18.9	-42.4	27	16	
2025-11-27T00:00	4140	601	-19.1	-41.8	30	15	
2025-11-27T00:00	4160	600	-19.2	-41.6	33	15	
2025-11-27T00:00	4180	598	-19.3	-41.9	35	14	
2025-11-27T00:00	4200	597	-19.4	-41.6	36	14	
2025-11-27T00:00	4220	595	-19.6	-41.2	35	14	
2025-11-27T00:00	4240	593	-19.8	-41.3	33	15	
2025-11-27T00:00	4260	592	-20.0	-40.7	30	15	
2025-11-27T00:00	4280	590	-20.1	-40.0	28	16	
2025-11-27T00:00	4300	589	-20.3	-39.7	26	16	
2025-11-27T00:00	4320	587	-20.4	-39.6	25	16	
2025-11-27T00:00	4340	585	-20.6	-39.8	25	17	
2025-11-27T00:00	4360	584	-20.7	-39.9	25	17	
2025-11-27T00:00	4380	582	-20.8	-40.0	25	17	
2025-11-27T00:00	4400	581	-21.0	-40.1	26	17	
2025-11-27T00:00	4420	579	-21.2	-40.2	28	17	
2025-11-27T00:00	4440	578	-21.4	-40.4	29	17	
2025-11-27T00:00	4460	576	-21.5	-40.5	31	17	
2025-11-27T00:00	4480	574	-21.7	-40.6	33	17	
2025-11-27T00:00	4500	573	-21.9	-40.7	34	16	
2025-11-27T00:00	4520	571	-22.0	-41.0	34	16	
2025-11-27T00:00	4540	570	-22.1	-41.2	32	17	
2025-11-27T00:00	4560	568	-22.3	-41.3	30	17	
2025-11-27T00:00	4580	567	-22.4	-41.3	28	17	
2025-11-27T00:00	4600	565	-22.5	-41.7	26	17	
2025-11-27T00:00	4620	563	-22.6	-42.4	24	17	
2025-11-27T00:00	4640	562	-22.7	-42.9	23	17	
2025-11-27T00:00	4660	561	-22.9	-43.2	22	17	
2025-11-27T00:00	4680	559	-23.1	-44.4	21	17	
2025-11-27T00:00	4700	557	-23.1	-45.0	22	17	
2025-11-27T00:00	4720	556	-23.1	-43.9	22	17	
2025-11-27T00:00	4740	554	-23.2	-43.7	23	17	
2025-11-27T00:00	4760	553	-23.4	-43.6	25	16	
2025-11-27T00:00	4780	551	-23.5	-43.7	26	16	
2025-11-27T00:00	4800	550	-23.7	-44.0	29	16	
2025-11-27T00:00	4820	548	-23.8	-44.1	30	17	
2025-11-27T00:00	4840	547	-24.0	-44.7	32	17	
2025-11-27T00:00	4860	545	-24.2	-44.8	33	17	
2025-11-27T00:00	4880	544	-24.3	-45.0	34	17	
2025-11-27T00:00	4900	542	-24.4	-45.6	34	18	
2025-11-27T00:00	4920	541	-24.6	-46.2	33	18	
2025-11-27T00:00	4940	540	-24.7	-46.4	32	18	
2025-11-27T00:00	4960	538	-24.9	-46.6	31	18	
2025-11-27T00:00	4980	536	-25.1	-46.5	30	18	
2025-11-27T00:00	5000	535	-25.3	-46.5	29	17	
2025-11-27T00:00	5020	533	-25.5	-46.5	29	17	
2025-11-27T00:00	5040	532	-25.6	-46.6	29	17	
2025-11-27T00:00	5060	531	-25.8	-46.7	28	17	
2025-11-27T00:00	5080	529	-26.0	-46.9	28	17	
2025-11-27T00:00	5100	528	-26.2	-47.0	27	17	
2025-11-27T00:00	5120	526	-26.3	-46.8	27	18	
2025-11-27T00:00	5140	525	-26.5	-47.0	26	18	
2025-11-27T00:00	5160	523	-26.6	-47.0	26	18	
2025-11-27T00:00	5180	522	-26.8	-47.1	26	18	
2025-11-27T00:00	5200	520	-27.0	-47.2	26	19	
2025-11-27T00:00	5220	519	-27.1	-47.4	28	19	
2025-11-27T00:00	5240	518	-27.3	-47.6	29	19	
2025-11-27T00:00	5260	516	-27.3	-48.2	31	19	
2025-11-27T00:00	5280	515	-27.5	-47.9	32	19	
2025-11-27T00:00	5300	513	-27.6	-47.8	32	20	
2025-11-27T00:00	5320	512	-27.8	-47.9	32	20	
2025-11-27T00:00	5340	510	-28.0	-48.1	31	20	
2025-11-27T00:00	5360	509	-28.1	-47.7	31	20	
2025-11-27T00:00	5380	507	-28.3	-47.7	29	21	
2025-11-27T00:00	5400	506	-28.5	-47.9	28	21	
2025-11-27T00:00	5420	505	-28.6	-48.2	27	21	
2025-11-27T00:00	5440	503	-28.8	-49.8	26	21	
2025-11-27T00:00	5460	502	-28.9	-51.4	25	21	
2025-11-27T00:00	5480	500	-29.1	-52.1	25	21	
2025-11-27T00:00	5500	499	-29.1	-52.1	25	21	
2025-11-27T00:00	5520	498	-29.3	-50.9	25	21	
2025-11-27T00:00	5540	496	-29.5	-49.6	26	21	
2025-11-27T00:00	5560	495	-29.6	-49.8	26	22	
2025-11-27T00:00	5580	493	-29.7	-50.1	26	22	
2025-11-27T00:00	5600	492	-29.8	-50.3	27	22	
2025-11-27T00:00	5620	491	-29.9	-50.3	27	23	
2025-11-27T00:00	5640	489	-30.0	-50.6	27	23	
2025-11-27T00:00	5660	488	-30.0	-51.1	27	24	
2025-11-27T00:00	5680	487	-30.0	-51.6	27	24	
2025-11-27T00:00	5700	485	-30.1	-52.0	26	25	
2025-11-27T00:00	5720	484	-30.2	-52.0	25	26	
2025-11-27T00:00	5740	483	-30.3	-52.1	25	26	
2025-11-27T00:00	5760	481	-30.5	-52.1	24	27	
2025-11-27T00:00	5780	480	-30.6	-52.2	24	28	
2025-11-27T00:00	5800	478	-30.8	-51.9	24	28	
2025-11-27T00:00	5820	477	-30.9	-52.0	23	29	
2025-11-27T00:00	5840	476	-30.8	-52.2	23	29	
2025-11-27T00:00	5860	474	-30.8	-52.0	23	30	
2025-11-27T00:00	5880	473	-30.8	-52.0	22	30	
2025-11-27T00:00	5900	472	-30.8	-52.2	22	31	
2025-11-27T00:00	5920	470	-31.0	-53.1	22	31	
2025-11-27T00:00	5940	469	-31.0	-54.9	23	32	
2025-11-27T00:00	5960	468	-31.1	-55.1	23	32	
2025-11-27T00:00	5980	466	-31.2	-54.9	24	33	
2025-11-27T00:00	6000	465	-31.1	-55.2	25	33	
2025-11-27T00:00	6020	464	-31.1	-55.2	25	33	
2025-11-27T00:00	6040	463	-31.1	-54.8	26	34	
2025-11-27T00:00	6060	461	-31.1	-54.7	26	34	
2025-11-27T00:00	6080	460	-31.1	-54.6	27	34	
2025-11-27T00:00	6100	459	-31.2	-54.6	27	34	
2025-11-27T00:00	6120	457	-31.2	-54.1	27	34	
2025-11-27T00:00	6140	456	-31.3	-53.9	27	35	
2025-11-27T00:00	6160	455	-31.5	-53.6	28	36	
2025-11-27T00:00	6180	454	-31.6	-52.5	28	36	
2025-11-27T00:00	6200	452	-31.7	-51.4	28	37	
2025-11-27T00:00	6220	451	-31.8	-50.2	28	37	
2025-11-27T00:00	6240	450	-32.0	-48.4	27	37	
2025-11-27T00:00	6260	448	-32.1	-47.3	27	37	
2025-11-27T00:00	6280	447	-32.3	-46.2	27	37	
2025-11-27T00:00	6300	446	-32.5	-45.8	26	37	
2025-11-27T00:00	6320	445	-32.6	-45.9	26	37	
2025-11-27T00:00	6340	443	-32.8	-46.9	26	37	
2025-11-27T00:00	6360	442	-32.9	-47.2	25	37	
2025-11-27T00:00	6380	441	-33.1	-47.0	25	38	
2025-11-27T00:00	6400	440	-33.2	-46.7	25	38	
2025-11-27T00:00	6420	438	-33.4	-46.5	25	38	
2025-11-27T00:00	6440	437	-33.6	-46.2	26	38	
2025-11-27T00:00	6460	436	-33.8	-46.4	26	39	
2025-11-27T00:00	6480	435	-34.0	-46.4	26	39	
2025-11-27T00:00	6500	433	-34.2	-46.4	27	39	
2025-11-27T00:00	6520	432	-34.4	-46.3	27	39	
2025-11-27T00:00	6540	431	-34.5	-46.6	27	39	
2025-11-27T00:00	6560	430	-34.7	-47.0	28	40	
2025-11-27T00:00	6580	428	-34.9	-47.4	27	40	
2025-11-27T00:00	6600	427	-35.0	-48.0	27	41	
2025-11-27T00:00	6620	426	-35.1	-48.0	27	41	
2025-11-27T00:00	6640	425	-35.3	-47.5	26	41	
2025-11-27T00:00	6660	423	-35.5	-47.3	25	42	
2025-11-27T00:00	6680	422	-35.6	-47.3	25	41	
2025-11-27T00:00	6700	421	-35.8	-47.7	24	41	
2025-11-27T00:00	6720	420	-36.0	-47.7	24	41	
2025-11-27T00:00	6740	419	-36.1	-47.6	24	41	
2025-11-27T00:00	6760	418	-36.3	-47.1	24	41	
2025-11-27T00:00	6780	416	-36.4	-48.3	24	41	
2025-11-27T00:00	6800	415	-36.5	-50.8	25	41	
2025-11-27T00:00	6820	414	-36.6	-50.7	25	41	
2025-11-27T00:00	6840	413	-36.7	-50.3	25	42	
2025-11-27T00:00	6860	411	-36.9	-50.0	25	42	
2025-11-27T00:00	6880	410	-37.1	-50.1	25	42	
2025-11-27T00:00	6900	409	-37.2	-50.3	25	42	
2025-11-27T00:00	6920	408	-37.4	-50.4	25	43	
2025-11-27T00:00	6940	407	-37.5	-50.4	25	43	
2025-11-27T00:00	6960	406	-37.6	-50.6	25	43	
2025-11-27T00:00	6980	404	-37.8	-50.6	25	43	
2025-11-27T00:00	7000	403	-38.0	-50.8	25	43	
2025-11-27T00:00	7020	402	-38.1	-50.6	25	43	
2025-11-27T00:00	7040	401	-38.2	-50.6	25	43	
2025-11-27T00:00	7060	400	-38.3	-50.8	25	43	
2025-11-27T00:00	7080	398	-38.5	-50.8	25	43	
2025-11-27T00:00	7100	397	-38.7	-50.9	24	43	
2025-11-27T00:00	7120	396	-38.8	-51.0	24	43	
2025-11-27T00:00	7140	395	-39.0	-51.5	24	43	
2025-11-27T00:00	7160	394	-39.0	-51.8	23	43	
2025-11-27T00:00	7180	393	-39.0	-51.8	23	43	
2025-11-27T00:00	7200	391	-39.1	-52.4	23	43	
2025-11-27T00:00	7220	390	-39.3	-52.5	23	43	
2025-11-27T00:00	7240	389	-39.4	-52.3	24	43	
2025-11-27T00:00	7260	388	-39.5	-52.1	24	43	
2025-11-27T00:00	7280	387	-39.5	-52.4	24	43	
2025-11-27T00:00	7300	386	-39.7	-52.8	24	43	
2025-11-27T00:00	7320	385	-39.8	-53.3	24	43	
2025-11-27T00:00	7340	384	-39.9	-54.3	24	43	
2025-11-27T00:00	7360	383	-40.0	-54.8	24	43	
2025-11-27T00:00	7380	381	-40.1	-55.8	24	43	
2025-11-27T00:00	7400	380	-40.2	-56.2	24	43	
2025-11-27T00:00	7420	379	-40.3	-56.4	24	43	
2025-11-27T00:00	7440	378	-40.5	-56.8	24	43	
2025-11-27T00:00	7460	377	-40.5	-58.5	25	42	
2025-11-27T00:00	7480	376	-40.6	-59.7	25	42	
2025-11-27T00:00	7500	375	-40.5	-60.4	26	42	
2025-11-27T00:00	7520	374	-40.3	-62.2	26	42	
2025-11-27T00:00	7540	373	-40.3	-63.4	26	42	
2025-11-27T00:00	7560	371	-40.5	-63.6	26	42	
2025-11-27T00:00	7580	370	-40.7	-65.4	26	42	
2025-11-27T00:00	7600	369	-40.9	-65.3	26	42	
2025-11-27T00:00	7620	368	-41.0	-65.9	25	42	
2025-11-27T00:00	7640	367	-41.1	-65.7	25	43	
2025-11-27T00:00	7660	366	-41.2	-65.9	25	43	
2025-11-27T00:00	7680	365	-41.3	-66.3	24	43	
2025-11-27T00:00	7700	364	-41.4	-66.7	24	43	
2025-11-27T00:00	7720	363	-41.4	-65.9	24	44	
2025-11-27T00:00	7740	362	-41.5	-63.6	24	44	
2025-11-27T00:00	7760	361	-41.5	-63.6	24	44	
2025-11-27T00:00	7780	360	-41.5	-64.0	24	44	
2025-11-27T00:00	7800	359	-41.6	-64.6	23	44	
2025-11-27T00:00	7820	357	-41.5	-64.3	23	44	
2025-11-27T00:00	7840	356	-41.7	-64.3	23	44	
2025-11-27T00:00	7860	355	-41.8	-64.9	23	44	
2025-11-27T00:00	7880	354	-41.9	-65.2	23	45	
2025-11-27T00:00	7900	353	-41.9	-65.2	23	45	
2025-11-27T00:00	7920	352	-42.1	-65.6	23	45	
2025-11-27T00:00	7940	351	-42.3	-66.0	23	46	
2025-11-27T00:00	7960	350	-42.4	-65.7	24	46	
2025-11-27T00:00	7980	349	-42.5	-65.4	24	46	
2025-11-27T00:00	8000	348	-42.7	-65.5	24	46	
2025-11-27T00:00	8020	347	-42.9	-65.5	24	46	
2025-11-27T00:00	8040	346	-43.1	-65.5	25	46	
2025-11-27T00:00	8060	345	-43.3	-65.5	25	46	
2025-11-27T00:00	8080	344	-43.5	-65.5	25	46	
2025-11-27T00:00	8100	343	-43.6	-65.5	25	46	
2025-11-27T00:00	8120	342	-43.8	-65.4	25	46	
2025-11-27T00:00	8140	341	-43.9	-65.3	25	46	
2025-11-27T00:00	8160	340	-43.9	-65.2	25	46	
2025-11-27T00:00	8180	339	-44.0	-65.1	25	46	
2025-11-27T00:00	8200	338	-44.1	-65.4	24	47	
2025-11-27T00:00	8220	337	-44.2	-66.0	24	47	
2025-11-27T00:00	8240	336	-44.3	-66.5	24	47	
2025-11-27T00:00	8260	335	-44.5	-66.9	24	48	
2025-11-27T00:00	8280	334	-44.7	-67.2	23	48	
2025-11-27T00:00	8300	333	-44.7	-66.9	23	49	
2025-11-27T00:00	8320	332	-44.8	-65.9	23	49	
2025-11-27T00:00	8340	331	-44.9	-65.2	23	49	
2025-11-27T00:00	8360	330	-44.9	-64.8	23	49	
2025-11-27T00:00	8380	329	-44.9	-64.8	23	48	
2025-11-27T00:00	8400	328	-45.0	-65.3	24	48	
2025-11-27T00:00	8420	327	-45.2	-65.8	24	48	
2025-11-27T00:00	8440	326	-45.3	-65.9	24	48	
2025-11-27T00:00	8460	325	-45.4	-65.8	24	48	
2025-11-27T00:00	8480	324	-45.5	-65.8	24	48	
2025-11-27T00:00	8500	323	-45.7	-66.0	24	47	
2025-11-27T00:00	8520	322	-45.8	-66.4	24	47	
2025-11-27T00:00	8540	321	-46.0	-66.6	24	47	
2025-11-27T00:00	8560	320	-46.2	-66.7	24	47	
2025-11-27T00:00	8580	319	-46.3	-66.9	23	47	
2025-11-27T00:00	8600	318	-46.5	-67.6	23	47	
2025-11-27T00:00	8620	317	-46.6	-68.1	23	47	
2025-11-27T00:00	8640	316	-46.7	-68.5	23	47	
2025-11-27T00:00	8660	315	-46.7	-68.7	23	47	
2025-11-27T00:00	8680	314	-46.8	-68.2	23	47	
2025-11-27T00:00	8700	314	-46.9	-67.6	23	48	
2025-11-27T00:00	8720	313	-46.9	-67.4	23	48	
2025-11-27T00:00	8740	312	-46.8	-67.6	23	48	
2025-11-27T00:00	8760	311	-46.8	-68.0	23	49	
2025-11-27T00:00	8780	310	-46.9	-68.3	23	49	
2025-11-27T00:00	8800	309	-47.1	-68.3	24	49	
2025-11-27T00:00	8820	308	-47.3	-68.1	24	49	
2025-11-27T00:00	8840	307	-47.5	-67.9	24	49	
2025-11-27T00:00	8860	306	-47.7	-67.8	23	49	
2025-11-27T00:00	8880	305	-47.8	-67.7	23	49	
2025-11-27T00:00	8900	304	-47.9	-67.7	23	49	
2025-11-27T00:00	8920	303	-48.0	-68.0	22	49	
2025-11-27T00:00	8940	302	-48.2	-68.6	22	49	
2025-11-27T00:00	8960	301	-48.3	-69.1	21	48	
2025-11-27T00:00	8980	300	-48.4	-69.3	21	49	
2025-11-27T00:00	9000	300	-48.5	-68.9	21	49	
2025-11-27T00:00	9020	299	-48.6	-68.2	21	49	
2025-11-27T00:00	9040	298	-48.8	-68.2	21	50	
2025-11-27T00:00	9060	297	-48.8	-68.0	21	50	
2025-11-27T00:00	9080	296	-49.0	-68.0	21	51	
2025-11-27T00:00	9100	295	-49.1	-68.0	22	51	
2025-11-27T00:00	9120	294	-49.2	-68.1	22	52	
2025-11-27T00:00	9140	293	-49.4	-68.4	22	52	
2025-11-27T00:00	9160	292	-49.5	-68.7	22	53	
2025-11-27T00:00	9180	291	-49.6	-68.9	22	53	
2025-11-27T00:00	9200	291	-49.8	-69.0	22	53	
2025-11-27T00:00	9220	290	-50.0	-69.1	23	53	
2025-11-27T00:00	9240	289	-50.1	-69.3	23	54	
2025-11-27T00:00	9260	288	-50.2	-69.4	23	54	
2025-11-27T00:00	9280	287	-50.4	-69.5	23	54	
2025-11-27T00:00	9300	286	-50.5	-69.5	24	53	
2025-11-27T00:00	9320	285	-50.7	-69.6	24	53	
2025-11-27T00:00	9340	284	-50.8	-69.6	24	53	
2025-11-27T00:00	9360	284	-50.9	-69.5	24	53	
2025-11-27T00:00	9380	283	-51.0	-69.5	24	53	
2025-11-27T00:00	9400	282	-51.2	-69.6	25	53	
2025-11-27T00:00	9420	281	-51.3	-69.7	25	53	
2025-11-27T00:00	9440	280	-51.4	-69.6	25	53	
2025-11-27T00:00	9460	279	-51.6	-69.5	26	53	
2025-11-27T00:00	9480	278	-51.7	-69.5	26	53	
2025-11-27T00:00	9500	277	-51.8	-69.5	27	52	
2025-11-27T00:00	9520	277	-51.8	-69.5	27	52	
2025-11-27T00:00	9540	276	-52.0	-69.4	28	51	
2025-11-27T00:00	9560	275	-52.1	-69.4	28	51	
2025-11-27T00:00	9580	274	-51.8	-69.3	29	50	
2025-11-27T00:00	9600	273	-51.6	-69.3	29	50	
2025-11-27T00:00	9620	272	-51.7	-69.5	29	49	
2025-11-27T00:00	9640	272	-51.7	-69.7	29	49	
2025-11-27T00:00	9660	271	-51.8	-69.7	29	48	
2025-11-27T00:00	9680	270	-51.8	-69.8	28	48	
2025-11-27T00:00	9700	269	-51.9	-69.9	28	48	
2025-11-27T00:00	9720	268	-52.0	-70.2	28	47	
2025-11-27T00:00	9740	267	-52.0	-70.4	29	47	
2025-11-27T00:00	9760	267	-52.1	-70.7	29	46	
2025-11-27T00:00	9780	266	-52.3	-70.8	29	46	
2025-11-27T00:00	9800	265	-52.3	-70.8	28	45	
2025-11-27T00:00	9820	264	-52.5	-70.8	28	44	
2025-11-27T00:00	9840	263	-52.5	-70.7	28	43	
2025-11-27T00:00	9860	262	-52.6	-70.4	27	43	
2025-11-27T00:00	9880	262	-52.6	-70.1	27	42	
2025-11-27T00:00	9900	261	-52.7	-69.9	27	42	
2025-11-27T00:00	9920	260	-52.8	-69.9	26	42	
2025-11-27T00:00	9940	259	-52.9	-69.7	26	42	
2025-11-27T00:00	9960	258	-53.0	-69.4	26	42	
2025-11-27T00:00	9980	258	-53.1	-69.2	26	42	
2025-11-27T00:00	10000	257	-53.2	-69.0	27	41	
2025-11-27T00:00	10018	256	-53.3	-69.1	27	41	
2025-11-27T00:00	10050	255	-53.4	-69.5	28	41	
2025-11-27T00:00	10100	253	-53.5	-69.9	29	40	
2025-11-27T00:00	10150	251	-53.7	-70.3	29	41	
2025-11-27T00:00	10200	249	-53.9	-70.4	29	41	
2025-11-27T00:00	10250	247	-53.8	-70.2	30	40	
2025-11-27T00:00	10300	245	-53.9	-69.4	29	39	
2025-11-27T00:00	10350	243	-53.8	-70.0	29	37	
2025-11-27T00:00	10400	241	-53.1	-71.1	28	36	
2025-11-27T00:00	10450	239	-53.1	-71.5	28	35	
2025-11-27T00:00	10500	238	-53.4	-72.0	28	34	
2025-11-27T00:00	10550	236	-53.6	-72.6	28	32	
2025-11-27T00:00	10600	234	-53.5	-73.1	27	31	
2025-11-27T00:00	10650	232	-53.4	-73.4	25	31	
2025-11-27T00:00	10700	230	-53.3	-73.6	24	31	
2025-11-27T00:00	10750	229	-53.4	-73.9	24	30	
2025-11-27T00:00	10800	227	-53.5	-74.2	25	28	
2025-11-27T00:00	10850	225	-53.4	-73.6	26	28	
2025-11-27T00:00	10900	223	-53.5	-73.8	24	28	
2025-11-27T00:00	10950	222	-53.5	-73.8	22	28	
2025-11-27T00:00	11000	220	-53.6	-74.1	20	28	
2025-11-27T00:00	11050	218	-53.6	-74.8	19	28	
2025-11-27T00:00	11100	216	-53.5	-75.6	20	28	
2025-11-27T00:00	11150	215	-53.3	-76.3	22	28	
2025-11-27T00:00	11200	213	-53.3	-76.2	23	27	
2025-11-27T00:00	11250	211	-53.4	-75.4	23	27	
2025-11-27T00:00	11300	210	-53.5	-75.1	20	26	
2025-11-27T00:00	11350	208	-53.2	-75.7	18	27	
2025-11-27T00:00	11400	207	-53.4	-76.3	16	27	
2025-11-27T00:00	11450	205	-53.3	-76.3	15	26	
2025-11-27T00:00	11500	203	-53.3	-76.7	15	26	
2025-11-27T00:00	11550	202	-53.3	-77.0	14	25	
2025-11-27T00:00	11600	200	-53.3	-77.3	13	25	
2025-11-27T00:00	11650	199	-53.5	-77.6	15	24	
2025-11-27T00:00	11700	197	-53.6	-78.0	18	23	
2025-11-27T00:00	11750	196	-53.8	-78.2	22	23	
2025-11-27T00:00	11800	194	-54.0	-78.5	23	22	
2025-11-27T00:00	11850	193	-54.1	-79.2	20	21	
2025-11-27T00:00	11900	191	-53.7	-79.7	16	22	
2025-11-27T00:00	11950	190	-53.6	-79.7	12	22	
2025-11-27T00:00	12000	188	-54.0	-79.6	10	23	
2025-11-27T00:00	12050	187	-54.4	-79.5	8	24	
2025-11-27T00:00	12100	185	-54.9	-79.4	6	24	
2025-11-27T00:00	12150	184	-55.3	-79.4	6	25	
2025-11-27T00:00	12200	182	-55.8	-79.4	6	26	
2025-11-27T00:00	12250	181	-56.2	-79.3	5	26	
2025-11-27T00:00	12300	180	-56.5	-79.4	5	26	
2025-11-27T00:00	12350	178	-56.4	-79.5	4	25	
2025-11-27T00:00	12400	177	-56.5	-80.0	3	24	
2025-11-27T00:00	12450	175	-56.7	-80.4	3	25	
2025-11-27T00:00	12500	174	-56.8	-80.3	4	26	
2025-11-27T00:00	12550	173	-57.1	-80.2	4	27	
2025-11-27T00:00	12600	171	-57.4	-80.4	5	28	
2025-11-27T00:00	12650	170	-57.1	-80.6	5	27	
2025-11-27T00:00	12700	169	-56.9	-80.6	5	26	
2025-11-27T00:00	12750	167	-56.8	-80.7	5	25	
2025-11-27T00:00	12800	166	-56.9	-81.1	7	25	
2025-11-27T00:00	12850	165	-56.8	-81.2	7	25	
2025-11-27T00:00	12900	163	-56.6	-81.2	6	25	
2025-11-27T00:00	12950	162	-56.5	-81.2	5	25	
2025-11-27T00:00	13000	161	-56.6	-81.3	4	25	
2025-11-27T00:00	13050	159	-56.5	-81.5	4	25	
2025-11-27T00:00	13100	158	-56.7	-81.5	4	25	
2025-11-27T00:00	13150	157	-56.9	-81.8	3	25	
2025-11-27T00:00	13200	156	-57.2	-81.9	2	24	
2025-11-27T00:00	13250	155	-57.5	-82.0	2	24	
2025-11-27T00:00	13300	153	-57.8	-82.1	2	24	
2025-11-27T00:00	13350	152	-58.1	-82.2	1	25	
2025-11-27T00:00	13400	151	-58.5	-82.2	1	25	
2025-11-27T00:00	13450	150	-58.8	-82.5	3	25	
2025-11-27T00:00	13500	149	-58.9	-82.5	4	26	
2025-11-27T00:00	13550	147	-59.0	-82.6	6	26	
2025-11-27T00:00	13600	146	-59.0	-82.7	8	27	
2025-11-27T00:00	13650	145	-58.9	-82.7	9	26	
2025-11-27T00:00	13700	144	-58.5	-83.0	11	24	
2025-11-27T00:00	13750	143	-57.8	-82.8	11	23	
2025-11-27T00:00	13800	142	-57.9	-82.9	12	21	
2025-11-27T00:00	13850	140	-57.7	-82.9	12	21	
2025-11-27T00:00	13900	139	-57.6	-82.8	12	20	
2025-11-27T00:00	13950	138	-57.6	-82.9	14	19	
2025-11-27T00:00	14000	137	-57.2	-82.9	15	19	
2025-11-27T00:00	14050	136	-57.1	-82.9	17	18	
2025-11-27T00:00	14100	135	-57.0	-82.8	18	17	
2025-11-27T00:00	14150	134	-56.9	-82.8	18	17	
2025-11-27T00:00	14200	133	-57.1	-82.8	17	16	
2025-11-27T00:00	14250	132	-57.4	-82.9	15	16	
2025-11-27T00:00	14300	131	-57.4	-82.8	16	17	
2025-11-27T00:00	14350	130	-57.6	-83.0	16	17	
2025-11-27T00:00	14400	129	-57.7	-83.0	17	16	
2025-11-27T00:00	14450	128	-57.7	-83.1	18	16	
2025-11-27T00:00	14500	127	-57.8	-83.2	19	16	
2025-11-27T00:00	14550	126	-57.8	-83.1	21	16	
2025-11-27T00:00	14600	125	-57.9	-83.2	21	15	
2025-11-27T00:00	14650	124	-58.2	-83.3	21	14	
2025-11-27T00:00	14700	123	-58.4	-83.3	20	14	
2025-11-27T00:00	14750	122	-58.5	-83.3	15	15	
2025-11-27T00:00	14800	121	-58.5	-83.3	11	15	
2025-11-27T00:00	14850	120	-58.4	-83.4	10	14	
2025-11-27T00:00	14900	119	-58.2	-83.4	10	13	
2025-11-27T00:00	14950	118	-57.8	-83.4	9	12	
2025-11-27T00:00	15000	117	-58.0	-83.4	8	12	
2025-11-27T00:00	15050	116	-58.1	-83.5	8	12	
2025-11-27T00:00	15100	115	-58.5	-83.5	7	13	
2025-11-27T00:00	15150	114	-58.9	-83.6	4	13	
2025-11-27T00:00	15200	113	-59.1	-83.7	1	12	
2025-11-27T00:00	15250	112	-59.4	-83.8	358	12	
2025-11-27T00:00	15300	112	-59.7	-84.0	354	12	
2025-11-27T00:00	15350	111	-59.9	-84.1	348	11	
2025-11-27T00:00	15400	110	-60.1	-84.1	343	10	
2025-11-27T00:00	15450	109	-60.3	-84.3	340	11	
2025-11-27T00:00	15500	108	-60.3	-84.3	336	12	
2025-11-27T00:00	15550	107	-60.3	-84.5	333	13	
2025-11-27T00:00	15600	106	-60.1	-84.4	332	15	
2025-11-27T00:00	15650	105	-60.2	-84.4	332	16	
2025-11-27T00:00	15700	105	-60.3	-84.4	331	16	
2025-11-27T00:00	15750	104	-60.4	-84.6	331	16	
2025-11-27T00:00	15800	103	-60.2	-84.7	331	16	
2025-11-27T00:00	15850	102	-59.8	-84.7	332	15	
2025-11-27T00:00	15900	101	-59.8	-84.7	334	16	
2025-11-27T00:00	15950	101	-59.9	-84.7	336	17	
2025-11-27T00:00	16000	100	-59.9	-84.8	335	16	
2025-11-27T00:00	16050	99	-59.7	-84.7	332	15	
2025-11-27T00:00	16100	98	-60.0	-84.8	331	14	
2025-11-27T00:00	16150	97	-60.1	-84.8	333	15	
2025-11-27T00:00	16200	97	-60.0	-84.8	337	16	
2025-11-27T00:00	16250	96	-60.0	-84.8	339	17	
2025-11-27T00:00	16300	95	-60.0	-84.9	339	17	
2025-11-27T00:00	16350	94	-60.1	-84.9	340	17	
2025-11-27T00:00	16400	93	-60.0	-85.0	344	16	
2025-11-27T00:00	16450	93	-59.9	-85.0	350	16	
2025-11-27T00:00	16500	92	-59.9	-85.0	357	15	
2025-11-27T00:00	16550	91	-59.9	-85.0	2	15	
2025-11-27T00:00	16600	91	-60.2	-85.0	5	14	
2025-11-27T00:00	16650	90	-60.5	-85.0	6	13	
2025-11-27T00:00	16700	89	-60.7	-85.1	6	12	
2025-11-27T00:00	16750	88	-61.0	-85.1	6	11	
2025-11-27T00:00	16800	88	-61.5	-85.3	6	10	
2025-11-27T00:00	16850	87	-62.0	-85.4	6	10	
2025-11-27T00:00	16900	86	-62.4	-85.6	8	10	
2025-11-27T00:00	16950	86	-62.6	-85.6	10	10	
2025-11-27T00:00	17000	85	-62.7	-85.8	9	9	
2025-11-27T00:00	17050	84	-62.9	-85.8	5	9	
2025-11-27T00:00	17100	84	-63.1	-85.9	359	9	
2025-11-27T00:00	17150	83	-63.5	-85.9	356	9	
2025-11-27T00:00	17200	82	-63.9	-86.0	353	9	
2025-11-27T00:00	17250	82	-64.3	-86.1	348	9	
2025-11-27T00:00	17300	81	-64.7	-86.2	342	9	
2025-11-27T00:00	17350	80	-64.8	-86.4	341	8	
2025-11-27T00:00	17400	80	-64.7	-86.4	346	8	
2025-11-27T00:00	17450	79	-64.6	-86.5	352	7	
2025-11-27T00:00	17500	78	-64.4	-86.6	353	6	
2025-11-27T00:00	17550	78	-64.2	-86.4	349	6	
2025-11-27T00:00	17600	77	-64.4	-86.5	342	7	
2025-11-27T00:00	17650	76	-64.8	-86.6	336	8	
2025-11-27T00:00	17700	76	-64.9	-86.7	335	8	
2025-11-27T00:00	17750	75	-64.9	-86.7	340	8	
2025-11-27T00:00	17800	75	-64.9	-86.7	345	8	
2025-11-27T00:00	17850	74	-64.7	-86.6	346	8	
2025-11-27T00:00	17900	73	-64.8	-86.6	347	7	
2025-11-27T00:00	17950	73	-64.8	-86.6	350	7	
2025-11-27T00:00	18000	72	-64.9	-86.6	351	7	
2025-11-27T00:00	18050	72	-65.2	-86.6	349	7	
2025-11-27T00:00	18100	71	-65.5	-86.7	346	8	
2025-11-27T00:00	18150	70	-65.8	-86.8	343	9	
2025-11-27T00:00	18200	70	-66.1	-86.9	340	10	
2025-11-27T00:00	18250	69	-66.3	-87.1	338	11	
2025-11-27T00:00	18300	69	-66.3	-87.1	338	11	
2025-11-27T00:00	18350	68	-66.4	-87.1	338	11	
2025-11-27T00:00	18400	67	-66.5	-87.1	338	10	
2025-11-27T00:00	18450	67	-66.8	-87.2	337	9	
2025-11-27T00:00	18500	66	-67.1	-87.5	333	9	
2025-11-27T00:00	18550	66	-66.7	-87.4	329	10	
2025-11-27T00:00	18600	65	-66.4	-87.3	326	10	
2025-11-27T00:00	18650	65	-66.4	-87.3	325	10	
2025-11-27T00:00	18700	64	-66.5	-87.3	325	9	
2025-11-27T00:00	18750	64	-66.7	-87.3	324	9	
2025-11-27T00:00	18800	63	-66.9	-87.4	325	10	
2025-11-27T00:00	18850	63	-67.1	-87.4	325	10	
2025-11-27T00:00	18900	62	-67.3	-87.4	323	11	
2025-11-27T00:00	18950	62	-67.5	-87.5	321	12	
2025-11-27T00:00	19000	61	-67.7	-87.5	323	13	
2025-11-27T00:00	19050	61	-67.9	-87.6	325	14	
2025-11-27T00:00	19100	60	-68.0	-87.7	326	14	
2025-11-27T00:00	19150	60	-67.9	-87.7	325	14	
2025-11-27T00:00	19200	59	-68.1	-87.9	322	15	
2025-11-27T00:00	19250	59	-68.0	-87.9	319	16	
2025-11-27T00:00	19300	58	-67.7	-87.8	317	16	
2025-11-27T00:00	19350	58	-67.9	-87.9	316	17	
2025-11-27T00:00	19400	57	-68.2	-88.1	316	18	
2025-11-27T00:00	19450	57	-68.3	-88.1	317	18	
2025-11-27T00:00	19500	56	-68.1	-88.1	319	18	
2025-11-27T00:00	19550	56	-67.8	-88.0	322	17	
2025-11-27T00:00	19600	55	-67.8	-87.9	327	16	
2025-11-27T00:00	19650	55	-67.8	-87.8	329	16	
2025-11-27T00:00	19700	54	-67.8	-87.9	327	15	
2025-11-27T00:00	19750	54	-67.8	-87.9	322	16	
2025-11-27T00:00	19800	53	-67.6	-87.9	320	17	
2025-11-27T00:00	19850	53	-67.3	-87.9	321	17	
2025-11-27T00:00	19900	53	-66.9	-87.8	324	17	
2025-11-27T00:00	19950	52	-66.8	-87.7	329	16	
2025-11-27T00:00	20000	52	-67.0	-87.9	331	15	
2025-11-27T00:00	20050	51	-66.6		329	14	
2025-11-27T00:00	20100	51	-66.2		328	13	
2025-11-27T00:00	20150	50	-66.2		332	11	
2025-11-27T00:00	20200	50	-66.3		335	10	
2025-11-27T00:00	20250	50	-66.3		333	10	
2025-11-27T00:00	20300	49	-66.1		328	10	
2025-11-27T00:00	20350	49	-66.1		324	11	
2025-11-27T00:00	20400	48	-66.3		321	12	
2025-11-27T00:00	20450	48	-66.5		318	12	
2025-11-27T00:00	20500	48	-66.2		316	12	
2025-11-27T00:00	20550	47	-66.1		313	12	
2025-11-27T00:00	20600	47	-66.1		312	12	
2025-11-27T00:00	20650	46	-65.9		312	11	
2025-11-27T00:00	20700	46	-65.8		312	10	
2025-11-27T00:00	20750	46	-65.7		313	11	
2025-11-27T00:00	20800	45	-65.6		316	12	
2025-11-27T00:00	20850	45	-65.5		316	13	
2025-11-27T00:00	20900	45	-65.5		315	12	
2025-11-27T00:00	20950	44	-65.3		313	11	
2025-11-27T00:00	21000	44	-65.2		309	10	
2025-11-27T00:00	21050	44	-65.0		299	10	
2025-11-27T00:00	21100	43	-65.2		288	10	
2025-11-27T00:00	21150	43	-64.9		281	12	
2025-11-27T00:00	21200	42	-64.2		278	13	
2025-11-27T00:00	21250	42	-64.5		279	13	
2025-11-27T00:00	21300	42	-64.7		282	13	
2025-11-27T00:00	21350	41	-65.2		287	13	
2025-11-27T00:00	21400	41	-65.4		288	13	
2025-11-27T00:00	21450	41	-65.5		285	12	
2025-11-27T00:00	21500	40	-65.5		280	12	
2025-11-27T00:00	21550	40	-65.1		276	12	
2025-11-27T00:00	21600	40	-65.0		276	12	
2025-11-27T00:00	21650	39	-64.9		279	12	
2025-11-27T00:00	21700	39	-64.9		282	13	
2025-11-27T00:00	21750	39	-65.0		281	13	
2025-11-27T00:00	21800	38	-64.9		279	13	
2025-11-27T00:00	21850	38	-64.6		277	12	
2025-11-27T00:00	21900	38	-64.7		276	12	
2025-11-27T00:00	21950	38	-64.9		276	12	
2025-11-27T00:00	22000	37	-64.8		276	12	
2025-11-27T00:00	22050	37	-65.1		278	11	
2025-11-27T00:00	22100	37	-65.3		279	11	
2025-11-27T00:00	22150	36	-65.6		278	10	
2025-11-27T00:00	22200	36	-66.0		275	11	
2025-11-27T00:00	22250	36	-66.0		271	11	
2025-11-27T00:00	22300	35	-65.7		267	11	
2025-11-27T00:00	22350	35	-65.3		263	11	
2025-11-27T00:00	22400	35	-65.2		260	11	
2025-11-27T00:00	22450	35	-65.3		259	12	
2025-11-27T00:00	22500	34	-65.7		258	12	
2025-11-27T00:00	22550	34	-66.1		258	13	
2025-11-27T00:00	22600	34	-66.6		259	13	
2025-11-27T00:00	22650	33	-67.0		261	14	
2025-11-27T00:00	22700	33	-67.4		263	15	
2025-11-27T00:00	22750	33	-67.9		269	16	
2025-11-27T00:00	22800	33	-67.5		276	17	
2025-11-27T00:00	22850	32	-67.0		281	17	
2025-11-27T00:00	22900	32	-66.6		283	16	
2025-11-27T00:00	22950	32	-66.8		285	16	
2025-11-27T00:00	23000	32	-66.9		286	17	
2025-11-27T00:00	23050	31	-66.9		285	19	
2025-11-27T00:00	23100	31	-66.9		285	19	
2025-11-27T00:00	23150	31	-67.1		286	19	
2025-11-27T00:00	23200	31	-67.2		286	18	
2025-11-27T00:00	23250	30	-67.0		285	18	
2025-11-27T00:00	23300	30	-66.3		283	18	
2025-11-27T00:00	23350	30	-65.9		282	18	
2025-11-27T00:00	23400	30	-65.6		280	18	
2025-11-27T00:00	23450	29	-65.4		277	17	
2025-11-27T00:00	23500	29	-65.4		272	17	
2025-11-27T00:00	23550	29	-65.4		268	16	
2025-11-27T00:00	23600	29	-65.5		263	15	
2025-11-27T00:00	23650	28	-65.5		259	14	
2025-11-27T00:00	23700	28	-65.4		257	13	
2025-11-27T00:00	23750	28	-65.5		259	12	
2025-11-27T00:00	23800	28	-65.7		265	12	
2025-11-27T00:00	23850	27	-65.9		272	13	
2025-11-27T00:00	23900	27	-65.8		277	14	
2025-11-27T00:00	23950	27	-66.0		281	15	
2025-11-27T00:00	24000	27	-65.5		283	15	
2025-11-27T00:00	24050	27	-64.9		284	14	
2025-11-27T00:00	24100	26	-64.8		285	14	
2025-11-27T00:00	24150	26	-64.9		287	14	
2025-11-27T00:00	24200	26	-64.8		292	13	
2025-11-27T00:00	24250	26	-64.9		296	14	
2025-11-27T00:00	24300	25	-65.1		300	14	
2025-11-27T00:00	24350	25	-65.4		301	14	
2025-11-27T00:00	24400	25	-65.2		299	13	
2025-11-27T00:00	24450	25	-65.4		292	11	
2025-11-27T00:00	24500	25	-65.2		283	11	
2025-11-27T00:00	24550	24	-65.2		276	12	
2025-11-27T00:00	24600	24	-65.1		271	13	
2025-11-27T00:00	24650	24	-65.4		268	14	
2025-11-27T00:00	24700	24	-65.7		266	16	
2025-11-27T00:00	24750	24	-65.6		265	17	
2025-11-27T00:00	24800	23	-65.8		264	17	
2025-11-27T00:00	24850	23	-65.7		263	17	
2025-11-27T00:00	24900	23	-65.6		260	16	
2025-11-27T00:00	24950	23	-65.8		257	15	
2025-11-27T00:00	25000	23	-65.7		253	14	
2025-11-27T00:00	25050	23	-65.5		250	15	
2025-11-27T00:00	25100	22	-65.8		250	15	
2025-11-27T00:00	25150	22	-65.9		252	15	
2025-11-27T00:00	25200	22	-66.0		256	15	
2025-11-27T00:00	25250	22	-65.9		260	16	
2025-11-27T00:00	25300	22	-66.1		263	17	
2025-11-27T00:00	25350	21	-66.5		265	18	
2025-11-27T00:00	25400	21	-66.9		267	20	
2025-11-27T00:00	25450	21	-67.2		270	20	
2025-11-27T00:00	25500	21	-67.3		273	21	
2025-11-27T00:00	25550	21	-67.3		275	21	
2025-11-27T00:00	25600	21	-67.3		277	22	
2025-11-27T00:00	25650	20	-67.4		279	23	
2025-11-27T00:00	25700	20	-67.4		280	23	
2025-11-27T00:00	25750	20	-67.0		280	23	
2025-11-27T00:00	25800	20	-66.3		279	23	
2025-11-27T00:00	25850	20	-66.1		278	23	
2025-11-27T00:00	25900	20	-65.6		277	22	
2025-11-27T00:00	25950	19	-65.0		276	21	
2025-11-27T00:00	26000	19	-65.1		274	21	
2025-11-27T00:00	26050	19	-65.0		272	22	
2025-11-27T00:00	26100	19	-65.1		270	23	
2025-11-27T00:00	26150	19	-64.8		269	24	
2025-11-27T00:00	26200	19	-64.5		269	24	
2025-11-27T00:00	26250	18	-64.7		271	24	
2025-11-27T00:00	26300	18	-64.7		273	23	
2025-11-27T00:00	26350	18	-64.2		274	23	
2025-11-27T00:00	26400	18	-63.8		273	22	
2025-11-27T00:00	26450	18	-63.5		272	21	
2025-11-27T00:00	26500	18	-63.7		271	21	
2025-11-27T00:00	26550	18	-63.8		270	21	
2025-11-27T00:00	26600	17	-63.5		268	21	
2025-11-27T00:00	26650	17	-63.5		267	22	
2025-11-27T00:00	26700	17	-63.8		266	22	
2025-11-27T00:00	26750	17	-63.9		266	23	
2025-11-27T00:00	26800	17	-63.8		265	23	
2025-11-27T00:00	26850	17	-63.8		264	24	
2025-11-27T00:00	26900	17	-63.3		262	24	
2025-11-27T00:00	26950	16	-62.6		261	25	
2025-11-27T00:00	27000	16	-61.2		261	27	
2025-11-27T00:00	27050	16	-60.0		263	29	
2025-11-27T00:00	27100	16	-59.7		264	31	
2025-11-27T00:00	27150	16	-59.5		265	32	
2025-11-27T00:00	27200	16	-59.6		263	33	
2025-11-27T00:00	27250	16	-59.3		259	33	
2025-11-27T00:00	27300	16	-59.1		255	32	
2025-11-27T00:00	27350	15	-59.1		252	32	
2025-11-27T00:00	27400	15	-59.1		249	31	
2025-11-27T00:00	27450	15	-59.2		247	31	
2025-11-27T00:00	27500	15	-59.5		246	30	
2025-11-27T00:00	27550	15	-59.8		244	29	
2025-11-27T00:00	27600	15	-60.1		243	29	
2025-11-27T00:00	27650	15	-59.8		242	28	
2025-11-27T00:00	27700	15	-60.3		241	28	
2025-11-27T00:00	27750	15	-60.8		241	28	
2025-11-27T00:00	27800	14	-61.3		243	28	
2025-11-27T00:00	27850	14	-62.0		245	28	
2025-11-27T00:00	27900	14	-62.5		246	27	
2025-11-27T00:00	27950	14	-62.9		246	27	
2025-11-27T00:00	28000	14	-63.3		246	27	
2025-11-27T00:00	28050	14	-63.5		246	27	
2025-11-27T00:00	28100	14	-63.8		246	27	
2025-11-27T00:00	28150	14	-64.2		248	27	
2025-11-27T00:00	28200	13	-64.5		251	26	
2025-11-27T00:00	28250	13	-64.7		254	26	
2025-11-27T00:00	28300	13	-65.0		256	27	
2025-11-27T00:00	28350	13	-64.9		258	27	
2025-11-27T00:00	28400	13	-65.1		257	28	
2025-11-27T00:00	28450	13	-65.5		255	28	
2025-11-27T00:00	28500	13	-65.7		253	29	
2025-11-27T00:00	28550	13	-66.1		251	29	
2025-11-27T00:00	28600	13	-66.5		250	30	
2025-11-27T00:00	28650	13	-66.9		249	31	
2025-11-27T00:00	28700	12	-67.4		251	32	
2025-11-27T00:00	28750	12	-67.4		254	33	
2025-11-27T00:00	28800	12	-67.6		256	33	
2025-11-27T00:00	28850	12	-67.4		258	32	
2025-11-27T00:00	28900	12	-67.5		260	33	
2025-11-27T00:00	28950	12	-67.5		260	33	
2025-11-27T00:00	29000	12	-67.6		260	34	
2025-11-27T00:00	29050	12	-67.9		261	36	
2025-11-27T00:00	29100	12	-67.6		261	37	
2025-11-27T00:00	29150	12	-66.8		262	39	
2025-11-27T00:00	29200	11	-66.2		262	40	
2025-11-27T00:00	29250	11	-66.1		262	40	
2025-11-27T00:00	29300	11	-65.7		263	41	
2025-11-27T00:00	29350	11	-65.3		263	42	
2025-11-27T00:00	29400	11	-65.3		262	43	
2025-11-27T00:00	29450	11	-65.5		262	44	
2025-11-27T00:00	29500	11	-65.8		261	45	
2025-11-27T00:00	29550	11	-65.7		261	46	
2025-11-27T00:00	29600	11	-65.7		261	47	
2025-11-27T00:00	29650	11	-66.1		262	47	
2025-11-27T00:00	29700	11	-66.5		262	47	
2025-11-27T00:00	29750	10	-66.5		263	47	
2025-11-27T00:00	29800	10	-66.5		265	46	
2025-11-27T00:00	29850	10	-66.5		266	46	
2025-11-27T00:00	29900	10	-65.9		267	46	
2025-11-27T00:00	29950	10	-65.2		267	47	
2025-11-27T00:00	30000	10	-64.7		268	47	
2025-11-27T00:00	30050	10	-64.3		269	47	
2025-11-27T00:00	30100	10	-63.6		270	47	
2025-11-27T00:00	30150	10	-63.1		270	47	
2025-11-27T00:00	30200	10	-63.0		270	47	
2025-11-27T00:00	30250	10	-63.1		270	47	
2025-11-27T00:00	30300	10	-62.8		269	47	
2025-11-27T00:00	30350	9	-62.5		268	46	
2025-11-27T00:00	30400	9	-62.0		266	47	
2025-11-27T00:00	30450	9	-61.4		264	47	
2025-11-27T00:00	30500	9	-60.0		263	46	
2025-11-27T00:00	30550	9	-59.7		263	47	
2025-11-27T00:00	30600	9	-59.3		265	47	
2025-11-27T00:00	30650	9	-58.6		267	47	
2025-11-27T00:00	30700	9	-58.4		268	46	
2025-11-27T00:00	30750	9	-58.5		269	46	
2025-11-27T00:00	30800	9	-58.5		268	46	
2025-11-27T00:00	30850	9	-58.2		268	46	
2025-11-27T00:00	30900	9	-57.8		268	46	
2025-11-27T00:00	30950	9	-57.4		268	47	
2025-11-27T00:00	31000	9	-57.3		269	47	
2025-11-27T00:00	31050	8	-57.3		269	47	
2025-11-27T00:00	31100	8	-57.5		269	47	
2025-11-27T00:00	31150	8	-57.7		269	46	
2025-11-27T00:00	31200	8	-57.9		269	46	
2025-11-27T00:00	31250	8	-58.0		268	45	
2025-11-27T00:00	31300	8	-57.3		267	44	
2025-11-27T00:00	31350	8	-56.5		266	43	
2025-11-27T00:00	31400	8	-56.2		266	43	
2025-11-27T00:00	31450	8	-56.3		264	44	
2025-11-27T00:00	31500	8	-56.1		263	45	
2025-11-27T00:00	31550	8	-55.9		263	47	
2025-11-27T00:00	31600	8	-56.1		263	48	
2025-11-27T00:00	31650	8	-55.9		263	48	
2025-11-27T00:00	31700	8	-56.0		264	48	
2025-11-27T00:00	31750	8	-55.7		263	48	
2025-11-27T00:00	31800	8	-55.4		262	49	
2025-11-27T00:00	31850	7	-55.4		261	50	
2025-11-27T00:00	31900	7	-55.6		261	51	
2025-11-27T00:00	31950	7	-55.9		261	52	
2025-11-27T00:00	32000	7	-56.2		261	52	
2025-11-27T00:00	32050	7	-56.3		261	52	
2025-11-27T00:00	32100	7	-56.3		261	51	
2025-11-27T00:00	32150	7	-56.5		261	50	
2025-11-27T00:00	32200	7	-56.7		262	51	
2025-11-27T00:00	32250	7	-56.8		262	51	
2025-11-27T00:00	32300	7	-56.8		263	51	
2025-11-27T00:00	32350	7	-56.9		264	51	
2025-11-27T00:00	32400	7	-56.7		264	51	
2025-11-27T00:00	32450	7	-56.7		264	51	
2025-11-27T00:00	32500	7	-56.4		263	51	
2025-11-27T00:00	32550	7	-56.1		263	51	
2025-11-27T00:00	32600	7	-56.2		264	51	
2025-11-27T00:00	32650	7	-56.3		264	52	
2025-11-27T00:00	32700	7	-56.0		263	52	
2025-11-27T00:00	32750	6	-55.6		263	53	
2025-11-27T00:00	32800	6	-55.6		263	53	
2025-11-27T00:00	32850	6	-55.9		262	53	
2025-11-27T00:00	32900	6	-55.8		261	53	
2025-11-27T00:00	32950	6	-55.5		259	52	
2025-11-27T00:00	33000	6	-55.5		259	53	
2025-11-27T00:00	33050	6	-55.4		258	53	
2025-11-27T00:00	33100	6	-55.2		259	54	
2025-11-27T00:00	33150	6	-55.2		260	54	
2025-11-27T00:00	33200	6	-55.2		260	54	
2025-11-27T00:00	33250	6	-55.2		259	55	
2025-11-27T00:00	33300	6	-55.2		258	55	
2025-11-27T00:00	33350	6	-54.9		258	55	
2025-11-27T00:00	33400	6	-54.5		258	55	
2025-11-27T00:00	33450	6	-54.7		258	55	
2025-11-27T00:00	33500	6	-54.5		258	55	
2025-11-27T00:00	33550	6	-54.2		257	56	
2025-11-27T00:00	33600	6	-53.8		255	57	
2025-11-27T00:00	33650	6	-53.6		254	57	
2025-11-27T00:00	33700	6	-53.3		254	57	
2025-11-27T00:00	33750	6	-52.8		254	56	
2025-11-27T00:00	33800	5	-52.6		255	56	
2025-11-27T00:00	33850	5	-52.6		255	56	
2025-11-27T00:00	33900	5	-52.9		255	56	
2025-11-27T00:00	33950	5	-53.0		255	57	
2025-11-27T00:00	34000	5	-52.6		256	58	
2025-11-27T00:00	34050	5	-52.4		256	59	
2025-11-27T00:00	34100	5	-52.7		257	60	
2025-11-27T00:00	34150	5	-53.1		257	60	
2025-11-27T00:00	34200	5	-53.4		258	61	
2025-11-27T00:00	34250	5	-53.4		259	61	
2025-11-27T00:00	34300	5	-52.9		259	62	
2025-11-27T00:00	34350	5	-52.9		259	62	
2025-11-27T00:00	34400	5	-53.1		259	63	
2025-11-27T00:00	34450	5	-53.3		260	63	
2025-11-27T00:00	34500	5	-53.4		260	63	
2025-11-27T00:00	34550	5	-53.5		261	63	
2025-11-27T00:00	34600	5	-53.5		261	63	
2025-11-27T00:00	34650	5	-53.6		261	63	
2025-11-27T00:00	34700	5	-53.7		262	64	
2025-11-27T00:00	34750	5	-53.7		262	64	
2025-11-27T00:00	34800	5	-53.7		264	65	
2025-11-27T00:00	34850	5	-53.8		265	65	
2025-11-27T00:00	34900	5	-53.9		265	64	
2025-11-27T00:00	34950	5	-54.1		265	63	
2025-11-27T00:00	35000	5	-53.8		265	62	
2025-11-27T00:00	35050	5	-53.4		263	62	
2025-11-27T00:00	35100	4	-52.8		261	63	
2025-11-27T00:00	35150	4	-52.7		259	64	
2025-11-27T00:00	35200	4	-52.6		257	65	
2025-11-27T00:00	35250	4	-52.3		256	66	
2025-11-27T00:00	35300	4	-52.4		255	68	
2025-11-27T00:00	35350	4	-52.7		255	69	
2025-11-27T00:00	35400	4	-52.5		255	71	
2025-11-27T00:00	35450	4	-51.3		256	72	
2025-11-27T00:00	35500	4	-50.4		256	73	
2025-11-27T00:00	35550	4	-50.3		256	74	
2025-11-27T00:00	35600	4	-50.2		256	74	
2025-11-27T00:00	35650	4	-50.3		257	73	
2025-11-27T12:00	491	965	2.7	-0.4	96	2	
2025-11-27T12:00	501	964	2.3	0.0	96	2	
2025-11-27T12:00	520	962	1.8	-0.2	93	2	
2025-11-27T12:00	540	960	1.4	-0.7	89	2	
2025-11-27T12:00	560	957	1.2	-0.7	82	2	
2025-11-27T12:00	580	955	1.1	-0.8	75	2	
2025-11-27T12:00	600	952	1.0	-0.8	69	3	
2025-11-27T12:00	620	950	0.8	-0.8	64	3	
2025-11-27T12:00	640	948	0.6	-0.9	62	3	
2025-11-27T12:00	660	945	0.4	-0.9	61	4	
2025-11-27T12:00	680	943	0.3	-1.0	60	4	
2025-11-27T12:00	700	941	0.1	-1.1	59	4	
2025-11-27T12:00	720	938	-0.1	-1.0	57	4	
2025-11-27T12:00	740	936	-0.3	-1.0	55	4	
2025-11-27T12:00	760	933	-0.5	-1.2	52	4	
2025-11-27T12:00	780	931	-0.7	-1.3	48	4	
2025-11-27T12:00	800	929	-0.9	-1.4	44	4	
2025-11-27T12:00	820	927	-1.1	-1.4	39	4	
2025-11-27T12:00	840	924	-1.2	-1.6	36	4	
2025-11-27T12:00	860	922	-1.4	-1.6	33	5	
2025-11-27T12:00	880	920	-1.5	-1.7	31	5	
2025-11-27T12:00	900	917	-1.7	-1.8	29	5	
2025-11-27T12:00	920	915	-1.7	-2.1	29	5	
2025-11-27T12:00	940	913	-1.8	-2.3	31	5	
2025-11-27T12:00	960	911	-1.9	-2.8	34	5	
2025-11-27T12:00	980	908	-2.0	-3.1	38	5	
2025-11-27T12:00	1000	906	-2.0	-4.0	44	5	
2025-11-27T12:00	1020	904	-2.1	-4.7	49	5	
2025-11-27T12:00	1040	902	-2.1	-4.8	51	5	
2025-11-27T12:00	1060	899	-2.3	-4.7	50	5	
2025-11-27T12:00	1080	897	-2.5	-4.6	49	5	
2025-11-27T12:00	1100	895	-2.7	-4.7	48	5	
2025-11-27T12:00	1120	893	-2.8	-5.0	49	5	
2025-11-27T12:00	1140	890	-2.8	-5.4	50	5	
2025-11-27T12:00	1160	888	-2.9	-5.6	52	6	
2025-11-27T12:00	1180	886	-2.9	-5.7	54	6	
2025-11-27T12:00	1200	883	-2.9	-5.8	55	6	
2025-11-27T12:00	1220	881	-2.8	-5.9	56	6	
2025-11-27T12:00	1240	879	-2.9	-6.1	57	6	
2025-11-27T12:00	1260	877	-3.0	-6.4	58	6	
2025-11-27T12:00	1280	875	-3.1	-6.6	61	6	
2025-11-27T12:00	1300	873	-3.2	-6.9	64	6	
2025-11-27T12:00	1320	870	-3.1	-7.7	68	7	
2025-11-27T12:00	1340	868	-3.0	-8.2	74	7	
2025-11-27T12:00	1360	866	-3.0	-8.8	78	8	
2025-11-27T12:00	1380	864	-3.0	-9.2	82	8	
2025-11-27T12:00	1400	862	-3.1	-9.5	84	8	
2025-11-27T12:00	1420	859	-2.9	-10.3	83	7	
2025-11-27T12:00	1440	857	-2.6	-10.5	78	6	
2025-11-27T12:00	1460	855	-2.5	-11.8	71	6	
2025-11-27T12:00	1480	853	-2.4	-12.5	62	6	
2025-11-27T12:00	1500	851	-2.5	-12.0	56	6	
2025-11-27T12:00	1520	849	-2.6	-11.8	54	6	
2025-11-27T12:00	1540	846	-2.6	-11.7	54	7	
2025-11-27T12:00	1560	844	-2.6	-13.4	55	8	
2025-11-27T12:00	1580	842	-2.7	-13.4	57	8	
2025-11-27T12:00	1600	840	-2.8	-13.4	58	8	
2025-11-27T12:00	1620	838	-3.0	-13.4	59	8	
2025-11-27T12:00	1640	836	-3.2	-13.4	59	8	
2025-11-27T12:00	1660	833	-3.3	-13.4	59	8	
2025-11-27T12:00	1680	831	-3.3	-13.7	60	7	
2025-11-27T12:00	1700	830	-3.3	-13.3	61	7	
2025-11-27T12:00	1720	827	-3.5	-13.1	62	7	
2025-11-27T12:00	1740	825	-3.7	-13.1	63	7	
2025-11-27T12:00	1760	823	-3.8	-13.1	65	7	
2025-11-27T12:00	1780	821	-3.8	-13.6	67	7	
2025-11-27T12:00	1800	819	-3.8	-14.3	69	7	
2025-11-27T12:00	1820	817	-3.8	-14.8	70	8	
2025-11-27T12:00	1840	815	-3.9	-15.1	70	8	
2025-11-27T12:00	1860	813	-4.0	-16.0	71	8	
2025-11-27T12:00	1880	811	-4.0	-16.7	71	8	
2025-11-27T12:00	1900	809	-4.0	-16.8	71	8	
2025-11-27T12:00	1920	807	-4.0	-17.3	70	8	
2025-11-27T12:00	1940	804	-4.0	-18.7	69	7	
2025-11-27T12:00	1960	803	-4.0	-19.4	67	7	
2025-11-27T12:00	1980	800	-4.0	-19.0	64	8	
2025-11-27T12:00	2000	799	-4.0	-19.4	61	8	
2025-11-27T12:00	2020	797	-4.1	-19.7	58	8	
2025-11-27T12:00	2040	795	-4.2	-19.6	55	9	
2025-11-27T12:00	2060	792	-4.3	-19.9	51	9	
2025-11-27T12:00	2080	791	-4.4	-20.1	48	9	
2025-11-27T12:00	2100	788	-4.5	-20.9	47	9	
2025-11-27T12:00	2120	787	-4.6	-21.9	47	9	
2025-11-27T12:00	2140	785	-4.7	-22.1	47	9	
2025-11-27T12:00	2160	782	-4.8	-21.8	48	9	
2025-11-27T12:00	2180	780	-5.0	-21.9	49	9	
2025-11-27T12:00	2200	778	-5.2	-21.8	49	9	
2025-11-27T12:00	2220	776	-5.3	-21.8	50	10	
2025-11-27T12:00	2240	774	-5.5	-21.8	49	9	
2025-11-27T12:00	2260	772	-5.6	-21.8	49	9	
2025-11-27T12:00	2280	770	-5.7	-22.5	48	9	
2025-11-27T12:00	2300	769	-5.8	-23.8	47	9	
2025-11-27T12:00	2320	767	-5.8	-25.0	46	9	
2025-11-27T12:00	2340	765	-5.8	-26.4	44	9	
2025-11-27T12:00	2360	763	-5.8	-27.0	42	9	
2025-11-27T12:00	2380	761	-5.9	-26.5	40	9	
2025-11-27T12:00	2400	759	-6.0	-26.5	39	10	
2025-11-27T12:00	2420	757	-6.0	-26.4	38	10	
2025-11-27T12:00	2440	755	-6.0	-27.8	37	11	
2025-11-27T12:00	2460	753	-5.5	-32.5	38	11	
2025-11-27T12:00	2480	751	-5.4	-33.4	39	11	
2025-11-27T12:00	2500	749	-5.5	-33.8	41	11	
2025-11-27T12:00	2520	747	-5.5	-34.1	42	11	
2025-11-27T12:00	2540	745	-5.6	-34.1	44	11	
2025-11-27T12:00	2560	743	-5.7	-34.5	46	10	
2025-11-27T12:00	2580	742	-5.8	-33.3	47	10	
2025-11-27T12:00	2600	740	-5.9	-33.6	48	10	
2025-11-27T12:00	2620	738	-6.1	-32.9	48	10	
2025-11-27T12:00	2640	736	-6.2	-32.1	47	10	
2025-11-27T12:00	2660	734	-6.1	-32.3	46	10	
2025-11-27T12:00	2680	732	-6.2	-33.0	44	10	
2025-11-27T12:00	2700	730	-6.2	-33.6	43	10	
2025-11-27T12:00	2720	728	-6.3	-33.7	42	10	
2025-11-27T12:00	2740	727	-6.4	-33.9	41	11	
2025-11-27T12:00	2760	725	-6.4	-34.6	40	11	
2025-11-27T12:00	2780	723	-6.5	-35.2	40	11	
2025-11-27T12:00	2800	721	-6.6	-35.7	41	11	
2025-11-27T12:00	2820	719	-6.7	-36.8	42	11	
2025-11-27T12:00	2840	717	-6.8	-36.9	43	11	
2025-11-27T12:00	2860	715	-6.9	-36.9	44	11	
2025-11-27T12:00	2880	714	-7.0	-36.6	44	11	
2025-11-27T12:00	2900	712	-7.0	-37.6	43	11	
2025-11-27T12:00	2920	710	-6.9	-39.1	43	11	
2025-11-27T12:00	2940	708	-7.1	-38.7	43	11	
2025-11-27T12:00	2960	706	-7.2	-38.5	44	11	
2025-11-27T12:00	2980	705	-7.3	-38.9	45	11	
2025-11-27T12:00	3000	703	-7.4	-38.3	47	11	
2025-11-27T12:00	3020	701	-7.4	-38.6	48	11	
2025-11-27T12:00	3040	699	-7.5	-38.8	49	11	
2025-11-27T12:00	3060	697	-7.6	-39.3	48	11	
2025-11-27T12:00	3080	696	-7.8	-39.8	47	11	
2025-11-27T12:00	3100	694	-7.9	-40.0	45	11	
2025-11-27T12:00	3120	692	-8.1	-39.5	42	12	
2025-11-27T12:00	3140	690	-8.3	-39.5	40	12	
2025-11-27T12:00	3160	688	-8.4	-39.8	38	12	
2025-11-27T12:00	3180	687	-8.5	-39.9	37	12	
2025-11-27T12:00	3200	685	-8.7	-40.0	37	12	
2025-11-27T12:00	3220	683	-8.8	-40.4	37	12	
2025-11-27T12:00	3240	682	-8.8	-42.2	37	12	
2025-11-27T12:00	3260	680	-8.9	-44.0	37	13	
2025-11-27T12:00	3280	678	-9.0	-45.4	37	13	
2025-11-27T12:00	3300	676	-9.1	-45.3	37	13	
2025-11-27T12:00	3320	674	-9.1	-43.5	37	14	
2025-11-27T12:00	3340	672	-9.1	-41.9	37	15	
2025-11-27T12:00	3360	671	-9.2	-41.9	37	15	
2025-11-27T12:00	3380	669	-9.1	-42.7	38	15	
2025-11-27T12:00	3400	667	-9.1	-43.4	39	15	
2025-11-27T12:00	3420	666	-9.1	-43.4	40	15	
2025-11-27T12:00	3440	664	-9.1	-42.5	41	15	
2025-11-27T12:00	3460	662	-9.1	-42.2	42	15	
2025-11-27T12:00	3480	660	-9.2	-41.4	43	15	
2025-11-27T12:00	3500	659	-9.2	-39.8	43	15	
2025-11-27T12:00	3520	657	-9.3	-38.7	43	16	
2025-11-27T12:00	3540	655	-9.5	-38.5	42	16	
2025-11-27T12:00	3560	654	-9.7	-38.5	42	16	
2025-11-27T12:00	3580	652	-9.9	-38.8	42	16	
2025-11-27T12:00	3600	650	-10.0	-38.8	42	16	
2025-11-27T12:00	3620	649	-10.1	-40.2	42	16	
2025-11-27T12:00	3640	647	-10.1	-42.7	42	16	
2025-11-27T12:00	3660	645	-10.3	-42.4	43	16	
2025-11-27T12:00	3680	644	-10.4	-42.9	43	16	
2025-11-27T12:00	3700	642	-10.5	-43.3	42	16	
2025-11-27T12:00	3720	640	-10.6	-44.0	41	16	
2025-11-27T12:00	3740	639	-10.8	-44.1	40	16	
2025-11-27T12:00	3760	637	-10.9	-44.1	39	17	
2025-11-27T12:00	3780	635	-11.0	-36.7	38	17	
2025-11-27T12:00	3800	634	-11.2	-30.6	37	17	
2025-11-27T12:00	3820	632	-11.4	-29.0	36	17	
2025-11-27T12:00	3840	630	-11.6	-27.4	36	17	
2025-11-27T12:00	3860	629	-11.7	-27.2	36	17	
2025-11-27T12:00	3880	627	-11.9	-26.9	35	17	
2025-11-27T12:00	3900	625	-12.1	-26.8	34	17	
2025-11-27T12:00	3920	624	-12.3	-26.8	34	18	
2025-11-27T12:00	3940	622	-12.4	-27.0	34	18	
2025-11-27T12:00	3960	621	-12.5	-27.2	34	18	
2025-11-27T12:00	3980	619	-12.7	-27.3	35	18	
2025-11-27T12:00	4000	617	-12.8	-27.1	36	17	
2025-11-27T12:00	4020	616	-13.0	-27.1	37	17	
2025-11-27T12:00	4040	614	-13.2	-27.1	37	17	
2025-11-27T12:00	4060	612	-13.3	-27.1	38	17	
2025-11-27T12:00	4080	611	-13.4	-27.7	37	18	
2025-11-27T12:00	4100	609	-13.5	-28.1	37	18	
2025-11-27T12:00	4120	608	-13.6	-28.2	36	18	
2025-11-27T12:00	4140	606	-13.8	-28.2	35	18	
2025-11-27T12:00	4160	604	-14.0	-28.3	35	18	
2025-11-27T12:00	4180	603	-14.2	-28.4	34	18	
2025-11-27T12:00	4200	601	-14.3	-28.3	34	18	
2025-11-27T12:00	4220	600	-14.4	-28.0	33	19	
2025-11-27T12:00	4240	598	-14.5	-28.0	33	19	
2025-11-27T12:00	4260	596	-14.7	-28.1	33	19	
2025-11-27T12:00	4280	595	-14.8	-28.4	32	19	
2025-11-27T12:00	4300	593	-14.9	-29.1	31	19	
2025-11-27T12:00	4320	592	-15.0	-29.5	30	19	
2025-11-27T12:00	4340	590	-15.2	-29.7	29	19	
2025-11-27T12:00	4360	589	-15.3	-29.8	28	19	
2025-11-27T12:00	4380	587	-15.4	-29.8	28	19	
2025-11-27T12:00	4400	586	-15.6	-29.7	28	19	
2025-11-27T12:00	4420	584	-15.7	-29.8	28	19	
2025-11-27T12:00	4440	582	-15.8	-29.7	29	19	
2025-11-27T12:00	4460	581	-16.0	-29.8	29	19	
2025-11-27T12:00	4480	580	-16.2	-29.6	29	19	
2025-11-27T12:00	4500	578	-16.4	-29.8	29	19	
2025-11-27T12:00	4520	576	-16.6	-29.8	29	19	
2025-11-27T12:00	4540	575	-16.8	-29.6	28	18	
2025-11-27T12:00	4560	573	-17.0	-29.8	28	18	
2025-11-27T12:00	4580	572	-17.2	-29.8	27	18	
2025-11-27T12:00	4600	570	-17.3	-29.9	28	18	
2025-11-27T12:00	4620	569	-17.5	-29.8	29	18	
2025-11-27T12:00	4640	567	-17.7	-30.0	30	18	
2025-11-27T12:00	4660	565	-17.8	-30.3	32	19	
2025-11-27T12:00	4680	564	-17.9	-30.5	33	19	
2025-11-27T12:00	4700	563	-18.0	-30.7	33	19	
2025-11-27T12:00	4720	561	-18.1	-31.0	33	20	
2025-11-27T12:00	4740	560	-18.2	-31.3	32	20	
2025-11-27T12:00	4760	558	-18.4	-31.4	31	20	
2025-11-27T12:00	4780	557	-18.6	-31.8	31	20	
2025-11-27T12:00	4800	555	-18.7	-31.9	31	20	
2025-11-27T12:00	4820	554	-18.8	-32.2	31	20	
2025-11-27T12:00	4840	552	-18.9	-32.4	31	20	
2025-11-27T12:00	4860	551	-19.0	-32.8	31	20	
2025-11-27T12:00	4880	549	-19.1	-33.1	31	20	
2025-11-27T12:00	4900	548	-19.2	-33.3	32	20	
2025-11-27T12:00	4920	546	-19.3	-33.4	31	19	
2025-11-27T12:00	4940	545	-19.5	-33.4	31	19	
2025-11-27T12:00	4960	543	-19.6	-33.5	31	18	
2025-11-27T12:00	4980	542	-19.8	-33.6	30	18	
2025-11-27T12:00	5000	540	-20.0	-33.5	30	18	
2025-11-27T12:00	5020	539	-20.2	-33.5	30	18	
2025-11-27T12:00	5040	538	-20.3	-33.5	30	18	
2025-11-27T12:00	5060	536	-20.5	-33.4	30	18	
2025-11-27T12:00	5080	535	-20.6	-33.5	30	19	
2025-11-27T12:00	5100	533	-20.8	-33.6	30	19	
2025-11-27T12:00	5120	532	-20.9	-33.9	30	19	
2025-11-27T12:00	5140	530	-21.1	-34.6	31	20	
2025-11-27T12:00	5160	529	-21.2	-35.6	31	20	
2025-11-27T12:00	5180	527	-21.2	-36.3	32	21	
2025-11-27T12:00	5200	526	-21.3	-36.7	33	21	
2025-11-27T12:00	5220	525	-21.4	-37.2	34	22	
2025-11-27T12:00	5240	523	-21.4	-38.2	35	22	
2025-11-27T12:00	5260	522	-21.3	-39.8	36	22	
2025-11-27T12:00	5280	520	-21.3	-41.3	37	23	
2025-11-27T12:00	5300	519	-21.3	-42.8	37	23	
2025-11-27T12:00	5320	517	-21.3	-43.4	37	24	
2025-11-27T12:00	5340	516	-21.3	-44.5	37	24	
2025-11-27T12:00	5360	515	-21.2	-46.5	37	24	
2025-11-27T12:00	5380	513	-21.1	-46.4	36	25	
2025-11-27T12:00	5400	512	-21.2	-46.5	36	25	
2025-11-27T12:00	5420	511	-21.2	-46.7	35	25	
2025-11-27T12:00	5440	509	-21.2	-46.5	35	25	
2025-11-27T12:00	5460	508	-21.3	-46.2	35	25	
2025-11-27T12:00	5480	506	-21.5	-46.3	36	25	
2025-11-27T12:00	5500	505	-21.6	-46.1	36	26	
2025-11-27T12:00	5520	504	-21.8	-45.6	37	26	
2025-11-27T12:00	5540	502	-21.9	-43.8	38	26	
2025-11-27T12:00	5560	501	-22.0	-43.8	38	26	
2025-11-27T12:00	5580	500	-22.2	-44.5	38	27	
2025-11-27T12:00	5600	498	-22.3	-44.6	39	27	
2025-11-27T12:00	5620	497	-22.5	-43.8	38	27	
2025-11-27T12:00	5640	495	-22.6	-42.8	38	28	
2025-11-27T12:00	5660	494	-22.8	-42.5	38	28	
2025-11-27T12:00	5680	493	-22.9	-41.1	37	29	
2025-11-27T12:00	5700	491	-23.0	-38.0	35	29	
2025-11-27T12:00	5720	490	-23.0	-36.2	34	29	
2025-11-27T12:00	5740	489	-23.0	-35.8	33	29	
2025-11-27T12:00	5760	487	-23.0	-34.9	32	29	
2025-11-27T12:00	5780	486	-23.1	-34.1	32	29	
2025-11-27T12:00	5800	485	-23.3	-33.7	33	29	
2025-11-27T12:00	5820	483	-23.4	-33.6	33	29	
2025-11-27T12:00	5840	482	-23.6	-33.4	34	28	
2025-11-27T12:00	5860	481	-23.8	-33.5	34	28	
2025-11-27T12:00	5880	479	-24.0	-33.3	34	28	
2025-11-27T12:00	5900	478	-24.1	-33.1	34	29	
2025-11-27T12:00	5920	477	-24.2	-33.6	34	29	
2025-11-27T12:00	5940	475	-24.4	-34.0	33	29	
2025-11-27T12:00	5960	474	-24.5	-34.3	33	29	
2025-11-27T12:00	5980	473	-24.7	-34.1	33	29	
2025-11-27T12:00	6000	471	-24.8	-32.8	33	29	
2025-11-27T12:00	6020	470	-25.0	-32.1	33	29	
2025-11-27T12:00	6040	469	-25.1	-32.5	33	30	
2025-11-27T12:00	6060	468	-25.1	-31.8	34	30	
2025-11-27T12:00	6080	466	-25.2	-33.1	34	30	
2025-11-27T12:00	6100	465	-25.4	-31.8	34	30	
2025-11-27T12:00	6120	464	-25.5	-32.0	34	30	
2025-11-27T12:00	6140	462	-25.6	-32.2	34	30	
2025-11-27T12:00	6160	461	-25.7	-31.6	34	30	
2025-11-27T12:00	6180	460	-25.7	-31.6	34	31	
2025-11-27T12:00	6200	459	-25.7	-32.1	34	31	
2025-11-27T12:00	6220	457	-25.8	-32.3	35	31	
2025-11-27T12:00	6240	456	-25.9	-32.1	34	30	
2025-11-27T12:00	6260	455	-26.0	-32.4	34	30	
2025-11-27T12:00	6280	454	-26.1	-32.6	34	30	
2025-11-27T12:00	6300	452	-26.2	-32.6	33	30	
2025-11-27T12:00	6320	451	-26.4	-33.0	32	31	
2025-11-27T12:00	6340	450	-26.5	-33.5	31	31	
2025-11-27T12:00	6360	449	-26.7	-33.8	31	31	
2025-11-27T12:00	6380	448	-26.8	-34.2	30	31	
2025-11-27T12:00	6400	446	-27.0	-34.7	30	31	
2025-11-27T12:00	6420	445	-27.2	-35.1	30	31	
2025-11-27T12:00	6440	444	-27.3	-35.5	30	31	
2025-11-27T12:00	6460	443	-27.4	-35.8	31	32	
2025-11-27T12:00	6480	442	-27.6	-35.8	31	32	
2025-11-27T12:00	6500	440	-27.8	-35.6	31	32	
2025-11-27T12:00	6520	439	-27.9	-35.6	32	32	
2025-11-27T12:00	6540	438	-28.1	-35.9	32	32	
2025-11-27T12:00	6560	436	-28.2	-35.9	32	32	
2025-11-27T12:00	6580	435	-28.4	-35.7	32	32	
2025-11-27T12:00	6600	434	-28.6	-35.8	33	33	
2025-11-27T12:00	6620	433	-28.8	-35.9	33	33	
2025-11-27T12:00	6640	431	-29.0	-36.0	33	33	
2025-11-27T12:00	6660	430	-29.2	-36.1	33	33	
2025-11-27T12:00	6680	429	-29.4	-35.8	34	34	
2025-11-27T12:00	6700	428	-29.6	-35.8	34	34	
2025-11-27T12:00	6720	427	-29.7	-35.7	34	35	
2025-11-27T12:00	6740	426	-29.8	-36.0	35	35	
2025-11-27T12:00	6760	424	-29.9	-36.2	35	36	
2025-11-27T12:00	6780	423	-29.9	-37.3	36	36	
2025-11-27T12:00	6800	422	-29.9	-38.4	37	37	
2025-11-27T12:00	6820	421	-29.9	-39.2	37	37	
2025-11-27T12:00	6840	420	-29.9	-40.5	38	38	
2025-11-27T12:00	6860	418	-30.0	-41.1	39	38	
2025-11-27T12:00	6880	417	-30.0	-41.5	39	39	
2025-11-27T12:00	6900	416	-30.1	-41.6	39	39	
2025-11-27T12:00	6920	415	-30.2	-41.7	40	40	
2025-11-27T12:00	6940	414	-30.3	-42.2	40	40	
2025-11-27T12:00	6960	413	-30.3	-42.5	40	40	
2025-11-27T12:00	6980	412	-30.5	-42.4	40	40	
2025-11-27T12:00	7000	410	-30.6	-42.3	40	41	
2025-11-27T12:00	7020	409	-30.8	-42.1	39	41	
2025-11-27T12:00	7040	408	-30.9	-41.6	39	41	
2025-11-27T12:00	7060	407	-31.1	-41.2	39	42	
2025-11-27T12:00	7080	406	-31.2	-40.8	39	42	
2025-11-27T12:00	7100	405	-31.4	-40.5	39	42	
2025-11-27T12:00	7120	403	-31.6	-40.3	39	43	
2025-11-27T12:00	7140	402	-31.8	-39.8	38	43	
2025-11-27T12:00	7160	401	-31.9	-39.3	38	43	
2025-11-27T12:00	7180	400	-32.0	-39.6	38	43	
2025-11-27T12:00	7200	399	-32.2	-40.1	37	43	
2025-11-27T12:00	7220	398	-32.3	-40.5	37	44	
2025-11-27T12:00	7240	397	-32.4	-41.5	37	44	
2025-11-27T12:00	7260	395	-32.4	-42.4	37	44	
2025-11-27T12:00	7280	394	-32.5	-42.9	37	44	
2025-11-27T12:00	7300	393	-32.7	-43.2	36	44	
2025-11-27T12:00	7320	392	-32.8	-44.3	36	44	
2025-11-27T12:00	7340	391	-32.9	-45.6	36	44	
2025-11-27T12:00	7360	390	-33.1	-45.7	36	44	
2025-11-27T12:00	7380	389	-33.3	-45.1	36	44	
2025-11-27T12:00	7400	388	-33.4	-44.9	36	44	
2025-11-27T12:00	7420	387	-33.6	-45.2	36	44	
2025-11-27T12:00	7440	385	-33.8	-44.9	36	44	
2025-11-27T12:00	7460	384	-33.9	-44.5	36	44	
2025-11-27T12:00	7480	383	-34.1	-44.2	36	44	
2025-11-27T12:00	7500	382	-34.3	-44.1	36	44	
2025-11-27T12:00	7520	381	-34.5	-43.8	35	44	
2025-11-27T12:00	7540	380	-34.6	-44.7	35	44	
2025-11-27T12:00	7560	379	-34.8	-44.8	35	44	
2025-11-27T12:00	7580	378	-34.9	-44.3	35	44	
2025-11-27T12:00	7600	377	-35.0	-44.0	35	44	
2025-11-27T12:00	7620	376	-35.2	-43.4	35	45	
2025-11-27T12:00	7640	375	-35.3	-43.2	35	45	
2025-11-27T12:00	7660	374	-35.4	-43.7	35	45	
2025-11-27T12:00	7680	372	-35.6	-44.9	35	45	
2025-11-27T12:00	7700	371	-35.7	-46.1	35	45	
2025-11-27T12:00	7720	370	-35.9	-46.6	35	45	
2025-11-27T12:00	7740	369	-36.0	-46.4	35	45	
2025-11-27T12:00	7760	368	-36.2	-46.8	35	45	
2025-11-27T12:00	7780	367	-36.3	-47.2	35	45	
2025-11-27T12:00	7800	366	-36.5	-47.4	35	44	
2025-11-27T12:00	7820	365	-36.7	-47.4	36	44	
2025-11-27T12:00	7840	364	-36.8	-47.6	36	44	
2025-11-27T12:00	7860	363	-37.1	-48.0	36	44	
2025-11-27T12:00	7880	362	-37.2	-48.4	37	44	
2025-11-27T12:00	7900	361	-37.4	-48.6	37	45	
2025-11-27T12:00	7920	360	-37.6	-49.0	37	45	
2025-11-27T12:00	7940	359	-37.8	-48.8	37	45	
2025-11-27T12:00	7960	358	-38.0	-48.7	37	45	
2025-11-27T12:00	7980	357	-38.2	-48.8	37	46	
2025-11-27T12:00	8000	356	-38.3	-49.2	37	46	
2025-11-27T12:00	8020	355	-38.5	-49.3	37	46	
2025-11-27T12:00	8040	354	-38.7	-49.8	37	46	
2025-11-27T12:00	8060	353	-38.8	-50.6	38	46	
2025-11-27T12:00	8080	352	-39.0	-51.4	38	46	
2025-11-27T12:00	8100	350	-39.1	-51.7	38	46	
2025-11-27T12:00	8120	349	-39.3	-51.4	39	47	
2025-11-27T12:00	8140	348	-39.4	-51.3	39	47	
2025-11-27T12:00	8160	347	-39.6	-51.3	39	47	
2025-11-27T12:00	8180	346	-39.8	-51.2	38	47	
2025-11-27T12:00	8200	345	-40.0	-51.1	38	47	
2025-11-27T12:00	8220	344	-40.2	-51.3	38	47	
2025-11-27T12:00	8240	343	-40.3	-52.2	38	47	
2025-11-27T12:00	8260	342	-40.4	-53.1	38	47	
2025-11-27T12:00	8280	341	-40.6	-53.3	38	47	
2025-11-27T12:00	8300	340	-40.8	-53.7	37	47	
2025-11-27T12:00	8320	339	-41.0	-53.7	37	47	
2025-11-27T12:00	8340	338	-41.2	-53.4	37	47	
2025-11-27T12:00	8360	337	-41.3	-53.8	36	47	
2025-11-27T12:00	8380	336	-41.5	-54.1	36	47	
2025-11-27T12:00	8400	335	-41.7	-54.2	36	47	
2025-11-27T12:00	8420	334	-41.8	-55.4	36	47	
2025-11-27T12:00	8440	333	-42.0	-55.6	36	47	
2025-11-27T12:00	8460	332	-42.1	-55.5	36	47	
2025-11-27T12:00	8480	331	-42.3	-56.0	36	47	
2025-11-27T12:00	8500	331	-42.4	-56.7	37	47	
2025-11-27T12:00	8520	330	-42.5	-57.2	37	47	
2025-11-27T12:00	8540	328	-42.7	-57.2	37	47	
2025-11-27T12:00	8560	328	-42.9	-57.2	37	47	
2025-11-27T12:00	8580	327	-43.0	-57.2	37	47	
2025-11-27T12:00	8600	326	-43.2	-57.1	37	47	
2025-11-27T12:00	8620	325	-43.4	-57.1	37	47	
2025-11-27T12:00	8640	324	-43.6	-57.3	37	47	
2025-11-27T12:00	8660	323	-43.8	-57.5	37	46	
2025-11-27T12:00	8680	322	-44.0	-57.8	37	46	
2025-11-27T12:00	8700	321	-44.1	-58.1	37	46	
2025-11-27T12:00	8720	320	-44.3	-58.6	36	46	
2025-11-27T12:00	8740	319	-44.4	-59.2	36	46	
2025-11-27T12:00	8760	318	-44.4	-59.4	36	46	
2025-11-27T12:00	8780	317	-44.6	-59.2	36	47	
2025-11-27T12:00	8800	316	-44.8	-59.4	35	47	
2025-11-27T12:00	8820	315	-44.9	-60.0	35	47	
2025-11-27T12:00	8840	314	-45.0	-59.8	35	48	
2025-11-27T12:00	8860	313	-45.2	-58.7	35	48	
2025-11-27T12:00	8880	312	-45.3	-58.3	35	48	
2025-11-27T12:00	8900	311	-45.5	-58.5	35	48	
2025-11-27T12:00	8920	310	-45.7	-58.9	35	48	
2025-11-27T12:00	8940	309	-45.8	-59.4	35	48	
2025-11-27T12:00	8960	309	-45.9	-60.0	35	48	
2025-11-27T12:00	8980	308	-46.1	-60.1	35	48	
2025-11-27T12:00	9000	307	-46.3	-60.0	36	48	
2025-11-27T12:00	9020	306	-46.5	-60.0	36	48	
2025-11-27T12:00	9040	305	-46.7	-60.2	36	48	
2025-11-27T12:00	9060	304	-46.9	-60.5	35	48	
2025-11-27T12:00	9080	303	-47.1	-60.7	35	48	
2025-11-27T12:00	9100	302	-47.2	-60.8	35	48	
2025-11-27T12:00	9120	301	-47.4	-60.7	35	48	
2025-11-27T12:00	9140	300	-47.6	-60.7	35	48	
2025-11-27T12:00	9160	299	-47.7	-61.0	35	48	
2025-11-27T12:00	9180	298	-47.9	-61.0	35	48	
2025-11-27T12:00	9200	297	-48.1	-60.9	35	48	
2025-11-27T12:00	9220	297	-48.2	-60.9	35	48	
2025-11-27T12:00	9240	296	-48.4	-60.7	35	48	
2025-11-27T12:00	9260	295	-48.6	-59.6	34	48	
2025-11-27T12:00	9280	294	-48.7	-58.9	34	48	
2025-11-27T12:00	9300	293	-48.9	-58.7	34	48	
2025-11-27T12:00	9320	292	-49.1	-58.7	34	48	
2025-11-27T12:00	9340	291	-49.2	-59.7	34	48	
2025-11-27T12:00	9360	291	-49.4	-61.0	34	48	
2025-11-27T12:00	9380	290	-49.6	-61.5	34	48	
2025-11-27T12:00	9400	289	-49.8	-61.7	34	48	
2025-11-27T12:00	9420	288	-49.9	-62.1	34	49	
2025-11-27T12:00	9440	287	-50.1	-62.8	34	49	
2025-11-27T12:00	9460	286	-50.2	-63.1	34	49	
2025-11-27T12:00	9480	285	-50.5	-63.2	34	49	
2025-11-27T12:00	9500	284	-50.7	-63.1	34	49	
2025-11-27T12:00	9520	283	-50.9	-63.2	35	49	
2025-11-27T12:00	9540	282	-51.0	-63.3	35	49	
2025-11-27T12:00	9560	282	-51.2	-63.4	34	49	
2025-11-27T12:00	9580	281	-51.4	-63.4	34	49	
2025-11-27T12:00	9600	280	-51.6	-63.4	34	49	
2025-11-27T12:00	9620	279	-51.8	-63.4	34	49	
2025-11-27T12:00	9640	278	-52.0	-63.3	34	49	
2025-11-27T12:00	9660	277	-52.2	-63.2	34	49	
2025-11-27T12:00	9680	276	-52.4	-63.2	34	49	
2025-11-27T12:00	9700	276	-52.6	-63.3	34	48	
2025-11-27T12:00	9720	275	-52.8	-63.4	35	48	
2025-11-27T12:00	9740	274	-53.0	-63.7	35	48	
2025-11-27T12:00	9760	273	-53.2	-63.9	35	48	
2025-11-27T12:00	9780	272	-53.4	-64.2	35	47	
2025-11-27T12:00	9800	271	-53.5	-64.3	35	47	
2025-11-27T12:00	9820	270	-53.7	-64.4	36	47	
2025-11-27T12:00	9840	270	-53.9	-64.4	36	47	
2025-11-27T12:00	9860	269	-54.1	-64.7	36	46	
2025-11-27T12:00	9880	268	-54.3	-65.2	37	46	
2025-11-27T12:00	9900	267	-54.4	-65.8	37	46	
2025-11-27T12:00	9920	266	-54.3	-66.3	36	46	
2025-11-27T12:00	9940	265	-54.3	-66.6	36	46	
2025-11-27T12:00	9960	265	-54.5	-66.5	35	46	
2025-11-27T12:00	9980	264	-54.6	-66.3	35	45	
2025-11-27T12:00	10000	263	-54.8	-66.3	34	45	
2025-11-27T12:00	10018	262	-54.8	-66.4	34	46	
2025-11-27T12:00	10050	261	-55.0	-66.7	34	46	
2025-11-27T12:00	10100	259	-55.4	-66.6	34	46	
2025-11-27T12:00	10150	257	-55.8	-66.5	33	46	
2025-11-27T12:00	10200	255	-56.3	-66.8	31	46	
2025-11-27T12:00	10250	253	-56.4	-66.8	30	47	
2025-11-27T12:00	10300	251	-56.8	-67.0	30	47	
2025-11-27T12:00	10350	249	-57.1	-67.0	31	48	
2025-11-27T12:00	10400	247	-57.4	-67.3	31	48	
2025-11-27T12:00	10450	245	-57.8	-67.4	32	48	
2025-11-27T12:00	10500	243	-58.2	-67.5	33	48	
2025-11-27T12:00	10550	241	-58.6	-67.5	33	48	
2025-11-27T12:00	10600	239	-59.0	-67.5	34	48	
2025-11-27T12:00	10650	237	-59.5	-67.6	34	48	
2025-11-27T12:00	10700	235	-59.9	-67.6	35	48	
2025-11-27T12:00	10750	234	-60.3	-67.6	35	48	
2025-11-27T12:00	10800	232	-60.7	-67.6	35	49	
2025-11-27T12:00	10850	230	-61.1	-67.6	35	49	
2025-11-27T12:00	10900	228	-61.4	-67.4	35	50	
2025-11-27T12:00	10950	226	-61.7	-67.5	35	50	
2025-11-27T12:00	11000	224	-62.0	-67.5	35	50	
2025-11-27T12:00	11050	223	-61.7	-67.7	34	48	
2025-11-27T12:00	11100	221	-61.4	-68.0	33	47	
2025-11-27T12:00	11150	219	-61.2	-68.3	30	47	
2025-11-27T12:00	11200	217	-61.3	-69.2	28	46	
2025-11-27T12:00	11250	216	-61.2	-70.6	27	45	
2025-11-27T12:00	11300	214	-61.1	-71.6	27	43	
2025-11-27T12:00	11350	212	-60.8	-72.9	28	41	
2025-11-27T12:00	11400	210	-60.3	-74.8	27	40	
2025-11-27T12:00	11450	209	-60.2	-75.6	26	40	
2025-11-27T12:00	11500	207	-60.3	-75.3	25	40	
2025-11-27T12:00	11550	205	-60.7	-75.0	26	41	
2025-11-27T12:00	11600	204	-61.0	-75.2	26	40	
2025-11-27T12:00	11650	202	-61.2	-76.0	26	39	
2025-11-27T12:00	11700	200	-60.7	-77.7	24	39	
2025-11-27T12:00	11750	199	-60.6	-78.5	22	39	
2025-11-27T12:00	11800	197	-60.7	-78.3	19	39	
2025-11-27T12:00	11850	196	-60.5	-78.0	17	40	
2025-11-27T12:00	11900	194	-60.2	-77.8	16	40	
2025-11-27T12:00	11950	193	-59.8	-78.2	17	40	
2025-11-27T12:00	12000	191	-58.9	-78.3	19	39	
2025-11-27T12:00	12050	189	-58.3	-78.5	23	38	
2025-11-27T12:00	12100	188	-57.8	-79.1	26	37	
2025-11-27T12:00	12150	186	-57.0	-79.6	28	36	
2025-11-27T12:00	12200	185	-57.1	-79.8	30	35	
2025-11-27T12:00	12250	184	-57.4	-79.6	30	34	
2025-11-27T12:00	12300	182	-57.7	-79.6	28	33	
2025-11-27T12:00	12350	181	-58.1	-79.7	26	32	
2025-11-27T12:00	12400	179	-58.4	-79.8	24	30	
2025-11-27T12:00	12450	178	-58.5	-79.9	23	30	
2025-11-27T12:00	12500	176	-58.7	-80.0	23	30	
2025-11-27T12:00	12550	175	-58.6	-80.4	26	29	
2025-11-27T12:00	12600	174	-57.6	-80.5	28	29	
2025-11-27T12:00	12650	172	-57.5	-80.6	29	28	
2025-11-27T12:00	12700	171	-57.8	-80.7	28	27	
2025-11-27T12:00	12750	170	-57.8	-80.7	28	26	
2025-11-27T12:00	12800	168	-57.9	-80.9	28	25	
2025-11-27T12:00	12850	167	-57.5	-80.9	28	24	
2025-11-27T12:00	12900	166	-57.7	-81.1	28	23	
2025-11-27T12:00	12950	164	-57.9	-81.2	28	23	
2025-11-27T12:00	13000	163	-58.2	-81.3	26	22	
2025-11-27T12:00	13050	162	-58.3	-81.4	24	22	
2025-11-27T12:00	13100	160	-58.4	-81.6	22	23	
2025-11-27T12:00	13150	159	-58.5	-81.7	21	23	
2025-11-27T12:00	13200	158	-58.6	-81.8	19	23	
2025-11-27T12:00	13250	157	-58.7	-81.9	16	22	
2025-11-27T12:00	13300	155	-58.6	-82.0	15	22	
2025-11-27T12:00	13350	154	-58.1	-82.0	15	23	
2025-11-27T12:00	13400	153	-58.0	-82.2	15	23	
2025-11-27T12:00	13450	152	-58.2	-82.2	16	23	
2025-11-27T12:00	13500	151	-58.5	-82.2	16	23	
2025-11-27T12:00	13550	149	-58.8	-82.2	17	22	
2025-11-27T12:00	13600	148	-59.2	-82.4	18	21	
2025-11-27T12:00	13650	147	-59.7	-82.4	18	21	
2025-11-27T12:00	13700	146	-60.1	-82.5	17	20	
2025-11-27T12:00	13750	145	-60.6	-82.7	14	20	
2025-11-27T12:00	13800	143	-60.8	-82.8	12	20	
2025-11-27T12:00	13850	142	-60.8	-82.9	11	20	
2025-11-27T12:00	13900	141	-60.6	-83.1	12	20	
2025-11-27T12:00	13950	140	-60.2	-83.2	17	19	
2025-11-27T12:00	14000	139	-59.9	-83.3	21	18	
2025-11-27T12:00	14050	138	-59.6	-83.3	22	18	
2025-11-27T12:00	14100	137	-59.9	-83.3	21	18	
2025-11-27T12:00	14150	136	-60.0	-83.3	19	19	
2025-11-27T12:00	14200	135	-60.3	-83.3	19	20	
2025-11-27T12:00	14250	133	-60.6	-83.4	17	20	
2025-11-27T12:00	14300	132	-60.7	-83.6	15	20	
2025-11-27T12:00	14350	131	-60.3	-83.6	12	21	
2025-11-27T12:00	14400	130	-60.3	-83.8	13	21	
2025-11-27T12:00	14450	129	-59.9	-83.9	17	21	
2025-11-27T12:00	14500	128	-59.7	-83.8	22	20	
2025-11-27T12:00	14550	127	-60.0	-84.0	24	19	
2025-11-27T12:00	14600	126	-60.3	-84.0	24	18	
2025-11-27T12:00	14650	125	-60.4	-84.1	22	18	
2025-11-27T12:00	14700	124	-60.6	-84.3	19	17	
2025-11-27T12:00	14750	123	-60.8	-84.5	17	17	
2025-11-27T12:00	14800	122	-60.7	-84.5	17	17	
2025-11-27T12:00	14850	121	-61.0	-84.6	18	17	
2025-11-27T12:00	14900	120	-61.1	-84.6	20	17	
2025-11-27T12:00	14950	119	-61.2	-84.6	21	18	
2025-11-27T12:00	15000	118	-61.4	-84.6	23	18	
2025-11-27T12:00	15050	117	-61.7	-84.7	26	18	
2025-11-27T12:00	15100	116	-61.9	-84.7	27	17	
2025-11-27T12:00	15150	115	-62.1	-84.7	25	17	
2025-11-27T12:00	15200	115	-62.1	-84.7	19	16	
2025-11-27T12:00	15250	114	-62.2	-84.6	14	16	
2025-11-27T12:00	15300	113	-62.5	-84.7	10	16	
2025-11-27T12:00	15350	112	-62.3	-84.7	9	16	
2025-11-27T12:00	15400	111	-62.1	-84.7	12	16	
2025-11-27T12:00	15450	110	-62.2	-84.8	16	15	
2025-11-27T12:00	15500	109	-62.1	-84.7	19	14	
2025-11-27T12:00	15550	108	-62.2	-84.8	22	14	
2025-11-27T12:00	15600	107	-62.4	-84.8	25	13	
2025-11-27T12:00	15650	107	-62.7	-84.9	28	13	
2025-11-27T12:00	15700	106	-63.1	-84.9	29	13	
2025-11-27T12:00	15750	105	-63.6	-84.9	27	13	
2025-11-27T12:00	15800	104	-64.0	-85.1	22	13	
2025-11-27T12:00	15850	103	-64.2	-85.2	18	13	
2025-11-27T12:00	15900	102	-64.3	-85.3	15	14	
2025-11-27T12:00	15950	101	-64.0	-85.4	13	14	
2025-11-27T12:00	16000	101	-63.5	-85.3	13	14	
2025-11-27T12:00	16050	100	-63.6	-85.4	12	15	
2025-11-27T12:00	16100	99	-63.8	-85.4	10	14	
2025-11-27T12:00	16150	98	-64.1	-85.6	10	14	
2025-11-27T12:00	16200	97	-64.0	-85.5	10	14	
2025-11-27T12:00	16250	97	-64.0	-85.5	8	14	
2025-11-27T12:00	16300	96	-64.2	-85.6	4	14	
2025-11-27T12:00	16350	95	-64.4	-85.8	2	14	
2025-11-27T12:00	16400	94	-64.3	-85.9	4	14	
2025-11-27T12:00	16450	93	-63.7	-85.9	8	13	
2025-11-27T12:00	16500	93	-63.2	-85.9	11	12	
2025-11-27T12:00	16550	92	-63.1	-86.0	14	12	
2025-11-27T12:00	16600	91	-62.9	-85.9	16	12	
2025-11-27T12:00	16650	90	-63.1	-86.0	13	11	
2025-11-27T12:00	16700	90	-63.1	-86.0	2	10	
2025-11-27T12:00	16750	89	-63.0	-86.2	350	9	
2025-11-27T12:00	16800	88	-62.1	-86.2	339	10	
2025-11-27T12:00	16850	88	-61.6	-86.2	330	9	
2025-11-27T12:00	16900	87	-61.5	-86.1	324	9	
2025-11-27T12:00	16950	86	-61.6	-86.1	325	9	
2025-11-27T12:00	17000	85	-61.5	-86.0	331	9	
2025-11-27T12:00	17050	85	-61.6	-86.0	336	9	
2025-11-27T12:00	17100	84	-61.7	-86.1	336	9	
2025-11-27T12:00	17150	83	-61.6	-86.0	334	8	
2025-11-27T12:00	17200	83	-61.6	-86.1	329	8	
2025-11-27T12:00	17250	82	-61.7	-86.1	326	8	
2025-11-27T12:00	17300	81	-61.8	-86.1	326	8	
2025-11-27T12:00	17350	81	-61.9	-86.1	329	8	
2025-11-27T12:00	17400	80	-61.9	-86.1	330	8	
2025-11-27T12:00	17450	79	-62.1	-86.1	328	8	
2025-11-27T12:00	17500	79	-62.4	-86.2	323	8	
2025-11-27T12:00	17550	78	-62.8	-86.3	317	8	
2025-11-27T12:00	17600	78	-63.2	-86.3	313	8	
2025-11-27T12:00	17650	77	-63.6	-86.4	314	8	
2025-11-27T12:00	17700	76	-63.9	-86.5	318	8	
2025-11-27T12:00	17750	76	-64.0	-86.6	324	8	
2025-11-27T12:00	17800	75	-64.4	-86.7	328	7	
2025-11-27T12:00	17850	74	-64.7	-86.9	331	7	
2025-11-27T12:00	17900	74	-64.8	-87.0	335	7	
2025-11-27T12:00	17950	73	-64.8	-86.9	340	7	
2025-11-27T12:00	18000	73	-65.0	-86.9	346	7	
2025-11-27T12:00	18050	72	-65.5	-87.1	350	7	
2025-11-27T12:00	18100	72	-65.8	-87.1	354	7	
2025-11-27T12:00	18150	71	-66.1	-87.1	357	7	
2025-11-27T12:00	18200	70	-66.6	-87.3	358	6	
2025-11-27T12:00	18250	70	-66.9	-87.4	359	5	
2025-11-27T12:00	18300	69	-67.1	-87.5	358	4	
2025-11-27T12:00	18350	69	-67.4	-87.7	352	4	
2025-11-27T12:00	18400	68	-67.6	-87.7	345	4	
2025-11-27T12:00	18450	67	-67.8	-87.8	346	5	
2025-11-27T12:00	18500	67	-68.0	-87.9	352	6	
2025-11-27T12:00	18550	66	-67.9	-87.9	356	7	
2025-11-27T12:00	18600	66	-67.9	-88.0	352	7	
2025-11-27T12:00	18650	65	-67.9	-88.0	343	8	
2025-11-27T12:00	18700	65	-68.0	-88.0	340	10	
2025-11-27T12:00	18750	64	-67.9	-88.1	344	10	
2025-11-27T12:00	18800	64	-67.8	-88.0	354	10	
2025-11-27T12:00	18850	63	-68.1	-88.1	360	9	
2025-11-27T12:00	18900	63	-68.1	-88.0	360	9	
2025-11-27T12:00	18950	62	-68.1	-87.9	355	9	
2025-11-27T12:00	19000	62	-68.4	-88.0	349	10	
2025-11-27T12:00	19050	61	-68.6	-88.0	344	10	
2025-11-27T12:00	19100	61	-68.6	-88.0	340	10	
2025-11-27T12:00	19150	60	-68.6	-88.0	340	10	
2025-11-27T12:00	19200	60	-68.5	-87.9	340	10	
2025-11-27T12:00	19250	59	-68.8	-88.0	339	9	
2025-11-27T12:00	19300	59	-69.0	-88.1	336	9	
2025-11-27T12:00	19350	58	-69.0	-88.2	334	10	
2025-11-27T12:00	19400	58	-68.7	-88.1	332	11	
2025-11-27T12:00	19450	57	-68.6	-88.2	332	13	
2025-11-27T12:00	19500	57	-68.5	-88.0	333	13	
2025-11-27T12:00	19550	56	-68.7	-88.1	334	13	
2025-11-27T12:00	19600	56	-68.9	-88.2	336	12	
2025-11-27T12:00	19650	55	-69.1	-88.3	337	11	
2025-11-27T12:00	19700	55	-69.2	-88.3	337	11	
2025-11-27T12:00	19750	54	-69.3	-88.5	335	11	
2025-11-27T12:00	19800	54	-69.1	-88.6	333	12	
2025-11-27T12:00	19850	53	-68.8	-88.6	331	13	
2025-11-27T12:00	19900	53	-68.6	-88.6	328	14	
2025-11-27T12:00	19950	53	-68.7	-88.6	326	14	
2025-11-27T12:00	20000	52	-68.8	-88.6	330	14	
2025-11-27T12:00	20050	52	-68.8		337	14	
2025-11-27T12:00	20100	51	-68.8		342	14	
2025-11-27T12:00	20150	51	-68.7		342	13	
2025-11-27T12:00	20200	50	-68.5		340	13	
2025-11-27T12:00	20250	50	-68.6		336	13	
2025-11-27T12:00	20300	50	-68.4		334	13	
2025-11-27T12:00	20350	49	-68.0		334	12	
2025-11-27T12:00	20400	49	-67.6		331	11	
2025-11-27T12:00	20450	48	-67.5		327	11	
2025-11-27T12:00	20500	48	-67.4		323	11	
2025-11-27T12:00	20550	48	-67.0		320	11	
2025-11-27T12:00	20600	47	-66.4		314	10	
2025-11-27T12:00	20650	47	-66.4		308	10	
2025-11-27T12:00	20700	46	-66.5		300	10	
2025-11-27T12:00	20750	46	-66.5		296	11	
2025-11-27T12:00	20800	46	-66.5		295	12	
2025-11-27T12:00	20850	45	-66.9		299	12	
2025-11-27T12:00	20900	45	-67.0		306	11	
2025-11-27T12:00	20950	44	-67.0		312	11	
2025-11-27T12:00	21000	44	-67.2		313	12	
2025-11-27T12:00	21050	44	-66.9		311	12	
2025-11-27T12:00	21100	43	-66.6		310	12	
2025-11-27T12:00	21150	43	-66.6		312	12	
2025-11-27T12:00	21200	43	-66.6		313	11	
2025-11-27T12:00	21250	42	-66.7		314	10	
2025-11-27T12:00	21300	42	-66.3		314	9	
2025-11-27T12:00	21350	42	-66.2		313	9	
2025-11-27T12:00	21400	41	-66.1		310	9	
2025-11-27T12:00	21450	41	-66.2		307	10	
2025-11-27T12:00	21500	41	-66.2		306	10	
2025-11-27T12:00	21550	40	-66.2		307	10	
2025-11-27T12:00	21600	40	-66.4		309	10	
2025-11-27T12:00	21650	40	-66.5		307	10	
2025-11-27T12:00	21700	39	-66.6		301	10	
2025-11-27T12:00	21750	39	-66.7		296	10	
2025-11-27T12:00	21800	39	-66.7		294	10	
2025-11-27T12:00	21850	38	-66.8		294	10	
2025-11-27T12:00	21900	38	-67.0		293	10	
2025-11-27T12:00	21950	38	-67.3		291	10	
2025-11-27T12:00	22000	37	-67.7		286	10	
2025-11-27T12:00	22050	37	-67.8		279	9	
2025-11-27T12:00	22100	37	-67.9		272	9	
2025-11-27T12:00	22150	36	-67.6		267	8	
2025-11-27T12:00	22200	36	-67.6		263	9	
2025-11-27T12:00	22250	36	-67.6		261	9	
2025-11-27T12:00	22300	36	-67.6		262	10	
2025-11-27T12:00	22350	35	-67.8		267	10	
2025-11-27T12:00	22400	35	-67.9		276	9	
2025-11-27T12:00	22450	35	-67.6		288	9	
2025-11-27T12:00	22500	34	-67.5		298	9	
2025-11-27T12:00	22550	34	-67.2		302	9	
2025-11-27T12:00	22600	34	-67.1		301	9	
2025-11-27T12:00	22650	34	-66.9		300	8	
2025-11-27T12:00	22700	33	-67.0		305	8	
2025-11-27T12:00	22750	33	-67.3		313	8	
2025-11-27T12:00	22800	33	-67.5		317	8	
2025-11-27T12:00	22850	32	-67.6		309	7	
2025-11-27T12:00	22900	32	-67.2		289	6	
2025-11-27T12:00	22950	32	-66.9		269	7	
2025-11-27T12:00	23000	32	-67.0		258	8	
2025-11-27T12:00	23050	31	-67.3		252	9	
2025-11-27T12:00	23100	31	-67.6		249	9	
2025-11-27T12:00	23150	31	-68.0		250	10	
2025-11-27T12:00	23200	31	-68.4		252	10	
2025-11-27T12:00	23250	30	-68.7		254	11	
2025-11-27T12:00	23300	30	-69.2		256	12	
2025-11-27T12:00	23350	30	-69.4		259	13	
2025-11-27T12:00	23400	30	-69.3		262	14	
2025-11-27T12:00	23450	29	-69.0		265	14	
2025-11-27T12:00	23500	29	-68.8		267	14	
2025-11-27T12:00	23550	29	-68.7		270	13	
2025-11-27T12:00	23600	29	-68.5		273	12	
2025-11-27T12:00	23650	28	-67.8		276	11	
2025-11-27T12:00	23700	28	-67.5		278	11	
2025-11-27T12:00	23750	28	-67.1		278	12	
2025-11-27T12:00	23800	28	-67.0		276	14	
2025-11-27T12:00	23850	27	-66.6		276	15	
2025-11-27T12:00	23900	27	-66.3		276	15	
2025-11-27T12:00	23950	27	-66.2		275	15	
2025-11-27T12:00	24000	27	-65.6		272	15	
2025-11-27T12:00	24050	27	-65.3		269	15	
2025-11-27T12:00	24100	26	-65.4		269	15	
2025-11-27T12:00	24150	26	-64.8		270	15	
2025-11-27T12:00	24200	26	-64.7		271	15	
2025-11-27T12:00	24250	26	-64.9		270	14	
2025-11-27T12:00	24300	26	-65.0		265	14	
2025-11-27T12:00	24350	25	-65.1		261	14	
2025-11-27T12:00	24400	25	-65.3		259	14	
2025-11-27T12:00	24450	25	-65.6		261	14	
2025-11-27T12:00	24500	25	-65.9		265	15	
2025-11-27T12:00	24550	25	-66.1		269	16	
2025-11-27T12:00	24600	24	-66.1		272	16	
2025-11-27T12:00	24650	24	-66.2		274	16	
2025-11-27T12:00	24700	24	-66.4		275	16	
2025-11-27T12:00	24750	24	-66.3		275	15	
2025-11-27T12:00	24800	23	-66.5		276	15	
2025-11-27T12:00	24850	23	-66.9		275	15	
2025-11-27T12:00	24900	23	-67.2		273	15	
2025-11-27T12:00	24950	23	-67.5		270	14	
2025-11-27T12:00	25000	23	-67.5		266	13	
2025-11-27T12:00	25050	23	-67.5		264	13	
2025-11-27T12:00	25100	22	-67.8		261	13	
2025-11-27T12:00	25150	22	-68.1		259	13	
2025-11-27T12:00	25200	22	-68.3		256	13	
2025-11-27T12:00	25250	22	-68.2		254	14	
2025-11-27T12:00	25300	22	-68.0		255	14	
2025-11-27T12:00	25350	21	-67.9		259	13	
2025-11-27T12:00	25400	21	-68.0		265	14	
2025-11-27T12:00	25450	21	-67.9		269	15	
2025-11-27T12:00	25500	21	-67.3		268	17	
2025-11-27T12:00	25550	21	-66.4		266	18	
2025-11-27T12:00	25600	21	-66.4		264	19	
2025-11-27T12:00	25650	20	-66.8		265	19	
2025-11-27T12:00	25700	20	-67.1		268	20	
2025-11-27T12:00	25750	20	-67.1		270	21	
2025-11-27T12:00	25800	20	-67.0		271	20	
2025-11-27T12:00	25850	20	-67.1		273	20	
2025-11-27T12:00	25900	20	-66.9		272	21	
2025-11-27T12:00	25950	19	-66.5		270	21	
2025-11-27T12:00	26000	19	-66.4		267	22	
2025-11-27T12:00	26050	19	-66.1		265	22	
2025-11-27T12:00	26100	19	-65.4		265	22	
2025-11-27T12:00	26150	19	-65.2		266	21	
2025-11-27T12:00	26200	19	-65.4		266	22	
2025-11-27T12:00	26250	18	-65.4		265	22	
2025-11-27T12:00	26300	18	-65.6		265	23	
2025-11-27T12:00	26350	18	-65.6		264	23	
2025-11-27T12:00	26400	18	-65.6		263	22	
2025-11-27T12:00	26450	18	-65.8		261	22	
2025-11-27T12:00	26500	18	-66.0		260	21	
2025-11-27T12:00	26550	18	-66.0		260	21	
2025-11-27T12:00	26600	17	-66.0		260	21	
2025-11-27T12:00	26650	17	-65.9		261	21	
2025-11-27T12:00	26700	17	-65.0		261	21	
2025-11-27T12:00	26750	17	-64.6		260	21	
2025-11-27T12:00	26800	17	-64.2		257	21	
2025-11-27T12:00	26850	17	-63.9		252	22	
2025-11-27T12:00	26900	17	-63.8		250	23	
2025-11-27T12:00	26950	16	-63.6		248	25	
2025-11-27T12:00	27000	16	-63.5		250	26	
2025-11-27T12:00	27050	16	-63.8		253	27	
2025-11-27T12:00	27100	16	-63.2		256	26	
2025-11-27T12:00	27150	16	-62.9		260	26	
2025-11-27T12:00	27200	16	-62.9		263	24	
2025-11-27T12:00	27250	16	-63.1		266	24	
2025-11-27T12:00	27300	16	-63.3		267	23	
2025-11-27T12:00	27350	15	-63.7		269	22	
2025-11-27T12:00	27400	15	-64.2		270	22	
2025-11-27T12:00	27450	15	-64.3		271	23	
2025-11-27T12:00	27500	15	-64.4		270	24	
2025-11-27T12:00	27550	15	-64.5		270	25	
2025-11-27T12:00	27600	15	-64.9		270	26	
2025-11-27T12:00	27650	15	-65.2		270	27	
2025-11-27T12:00	27700	15	-65.3		271	27	
2025-11-27T12:00	27750	14	-64.8		270	28	
2025-11-27T12:00	27800	14	-64.1		269	29	
2025-11-27T12:00	27850	14	-62.8		267	29	
2025-11-27T12:00	27900	14	-62.0		265	29	
2025-11-27T12:00	27950	14	-61.4		264	30	
2025-11-27T12:00	28000	14	-61.1		263	31	
2025-11-27T12:00	28050	14	-60.9		263	30	
2025-11-27T12:00	28100	14	-60.6		264	29	
2025-11-27T12:00	28150	14	-60.7		266	29	
2025-11-27T12:00	28200	13	-60.9		267	28	
2025-11-27T12:00	28250	13	-60.9		266	29	
2025-11-27T12:00	28300	13	-60.6		265	29	
2025-11-27T12:00	28350	13	-60.4		265	30	
2025-11-27T12:00	28400	13	-60.4		265	31	
2025-11-27T12:00	28450	13	-60.5		265	32	
2025-11-27T12:00	28500	13	-60.5		264	32	
2025-11-27T12:00	28550	13	-60.2		263	32	
2025-11-27T12:00	28600	13	-59.7		262	33	
2025-11-27T12:00	28650	13	-59.7		261	34	
2025-11-27T12:00	28700	12	-59.4		261	34	
2025-11-27T12:00	28750	12	-59.0		262	35	
2025-11-27T12:00	28800	12	-58.8		262	34	
2025-11-27T12:00	28850	12	-58.8		262	34	
2025-11-27T12:00	28900	12	-58.8		262	35	
2025-11-27T12:00	28950	12	-59.0		262	35	
2025-11-27T12:00	29000	12	-59.1		261	35	
2025-11-27T12:00	29050	12	-58.7		260	35	
2025-11-27T12:00	29100	12	-58.1		259	34	
2025-11-27T12:00	29150	12	-58.1		257	34	
2025-11-27T12:00	29200	11	-58.2		255	34	
2025-11-27T12:00	29250	11	-58.1		254	35	
2025-11-27T12:00	29300	11	-57.9		254	36	
2025-11-27T12:00	29350	11	-57.8		254	36	
2025-11-27T12:00	29400	11	-58.1		254	36	
2025-11-27T12:00	29450	11	-58.2		255	36	
2025-11-27T12:00	29500	11	-58.2		255	36	
2025-11-27T12:00	29550	11	-58.4		255	35	
2025-11-27T12:00	29600	11	-58.7		255	35	
2025-11-27T12:00	29650	11	-58.7		255	35	
2025-11-27T12:00	29700	11	-58.6		255	36	
2025-11-27T12:00	29750	10	-58.2		255	36	
2025-11-27T12:00	29800	10	-57.9		254	37	
2025-11-27T12:00	29850	10	-58.1		255	38	
2025-11-27T12:00	29900	10	-58.6		256	38	
2025-11-27T12:00	29950	10	-59.0		258	39	
2025-11-27T12:00	30000	10	-59.3		259	39	
2025-11-27T12:00	30050	10	-59.5		261	40	
2025-11-27T12:00	30100	10	-59.6		262	40	
2025-11-27T12:00	30150	10	-59.9		263	40	
2025-11-27T12:00	30200	10	-60.2		264	40	
2025-11-27T12:00	30250	10	-60.3		264	40	
2025-11-27T12:00	30300	10	-60.3		263	40	
2025-11-27T12:00	30350	10	-60.3		262	40	
2025-11-27T12:00	30400	9	-60.5		260	39	
2025-11-27T12:00	30450	9	-60.7		258	39	
2025-11-27T12:00	30500	9	-60.8		256	39	
2025-11-27T12:00	30550	9	-60.9		254	39	
2025-11-27T12:00	30600	9	-61.2		252	40	
2025-11-27T12:00	30650	9	-61.3		250	40	
2025-11-27T12:00	30700	9	-61.4		249	40	
2025-11-27T12:00	30750	9	-61.5		249	41	
2025-11-27T12:00	30800	9	-61.5		249	41	
2025-11-27T12:00	30850	9	-61.2		251	41	
2025-11-27T12:00	30900	9	-60.9		253	41	
2025-11-27T12:00	30950	9	-60.7		255	42	
2025-11-27T12:00	31000	9	-60.4		257	42	
2025-11-27T12:00	31050	9	-60.1		258	42	
2025-11-27T12:00	31100	8	-60.1		258	42	
2025-11-27T12:00	31150	8	-60.0		257	42	
2025-11-27T12:00	31200	8	-59.8		257	43	
2025-11-27T12:00	31250	8	-59.8		257	43	
2025-11-27T12:00	31300	8	-59.6		257	43	
2025-11-27T12:00	31350	8	-59.2		256	43	
2025-11-27T12:00	31400	8	-59.0		255	44	
2025-11-27T12:00	31450	8	-59.0		254	45	
2025-11-27T12:00	31500	8	-59.1		253	46	
2025-11-27T12:00	31550	8	-59.3		253	47	
2025-11-27T12:00	31600	8	-59.3		254	49	
2025-11-27T12:00	31650	8	-59.6		254	50	
2025-11-27T12:00	31700	8	-59.9		255	51	
2025-11-27T12:00	31750	8	-60.2		255	52	
2025-11-27T12:00	31800	8	-60.4		256	53	
2025-11-27T12:00	31850	7	-60.4		256	53	
2025-11-27T12:00	31900	7	-60.2		257	54	
2025-11-27T12:00	31950	7	-59.9		259	54	
2025-11-27T12:00	32000	7	-59.4		261	55	
2025-11-27T12:00	32050	7	-59.0		261	55	
2025-11-27T12:00	32100	7	-58.4		262	55	
2025-11-27T12:00	32150	7	-58.1		262	55	
2025-11-27T12:00	32200	7	-58.1		262	55	
2025-11-27T12:00	32250	7	-57.9		262	56	
2025-11-27T12:00	32300	7	-57.5		263	57	
2025-11-27T12:00	32350	7	-57.5		263	56	
2025-11-27T12:00	32400	7	-57.4		263	56	
2025-11-27T12:00	32450	7	-57.2		263	56	
2025-11-27T12:00	32500	7	-57.3		262	57	
2025-11-27T12:00	32550	7	-57.3		262	58	
2025-11-27T12:00	32600	7	-56.8		262	59	
2025-11-27T12:00	32650	7	-56.5		262	61	
2025-11-27T12:00	32700	7	-56.2		262	62	
2025-11-27T12:00	32750	6	-55.9		263	62	
2025-11-27T12:00	32800	6	-55.8		263	63	
2025-11-27T12:00	32850	6	-55.8		263	63	
2025-11-27T12:00	32900	6	-55.8		264	63	
2025-11-27T12:00	32950	6	-55.8		266	62	
2025-11-27T12:00	33000	6	-56.0		267	62	
2025-11-27T12:00	33050	6	-56.3		268	61	
2025-11-27T12:00	33100	6	-56.6		269	60	
2025-11-27T12:00	33150	6	-57.0		269	59	
2025-11-27T12:00	33200	6	-57.3		268	58	
2025-11-27T12:00	33250	6	-57.6		268	58	
2025-11-27T12:00	33300	6	-57.8		267	57	
2025-11-27T12:00	33350	6	-57.9		267	56	
2025-11-27T12:00	33400	6	-57.8		267	55	
2025-11-27T12:00	33450	6	-57.8		267	54	
2025-11-27T12:00	33500	6	-57.9		267	53	
2025-11-27T12:00	33550	6	-57.8		265	53	
2025-11-27T12:00	33600	6	-57.3		263	54	
2025-11-27T12:00	33650	6	-56.7		261	56	
2025-11-27T12:00	33700	6	-56.2		260	59	
2025-11-27T12:00	33750	6	-55.5		260	61	
2025-11-27T12:00	33800	6	-54.8		260	63	
2025-11-27T12:00	33850	5	-54.4		261	64	
2025-11-27T12:00	33900	5	-54.3		261	65	
2025-11-27T12:00	33950	5	-54.0		262	65	
2025-11-27T12:00	34000	5	-53.7		262	65	
2025-11-27T12:00	34050	5	-53.4		262	66	
2025-11-27T12:00	34100	5	-53.4		261	67	
2025-11-27T12:00	34150	5	-53.7		261	68	
2025-11-27T12:00	34200	5	-53.9		262	69	
2025-11-27T12:00	34250	5	-53.8		263	70	
2025-11-27T12:00	34300	5	-53.5		264	70	
2025-11-27T12:00	34350	5	-53.0		264	70	
2025-11-27T12:00	34400	5	-52.4		266	70	
2025-11-27T12:00	34450	5	-51.7		267	70	
2025-11-27T12:00	34500	5	-51.0		267	68	
2025-11-27T12:00	34550	5	-50.7		267	67	
2025-11-27T12:00	34600	5	-50.6		267	66	
2025-11-27T12:00	34650	5	-50.5		267	65	
2025-11-27T12:00	34700	5	-50.5		266	65	
2025-11-27T12:00	34750	5	-50.1		266	65	
2025-11-27T12:00	34800	5	-49.5		265	66	
2025-11-27T12:00	34850	5	-49.3		265	66	
2025-11-27T12:00	34900	5	-48.8		264	67	
2025-11-27T12:00	34950	5	-48.4		264	67	
2025-11-27T12:00	35000	5	-48.1		264	67	
2025-11-27T12:00	35050	5	-48.0		263	67	
2025-11-27T12:00	35100	5	-47.9		263	67	
2025-11-28T00:00	491	966	-2.4	-2.7	217	1	
2025-11-28T00:00	501	964	-1.9	-2.5	186	0	
2025-11-28T00:00	520	963	-1.4	-2.3	74	0	
2025-11-28T00:00	540	960	-0.9	-2.5	60	0	
2025-11-28T00:00	560	958	-0.7	-2.4	20	0	
2025-11-28T00:00	580	955	-0.5	-2.4	357	0	
2025-11-28T00:00	600	953	-0.4	-2.4	358	0	
2025-11-28T00:00	620	951	-0.1	-2.4	13	0	
2025-11-28T00:00	640	948	-0.1	-2.4	32	1	
2025-11-28T00:00	660	946	-0.1	-2.2	46	1	
2025-11-28T00:00	680	943	-0.2	-2.1	53	1	
2025-11-28T00:00	700	941	-0.2	-2.1	55	2	
2025-11-28T00:00	720	939	0.0	-2.3	55	2	
2025-11-28T00:00	740	936	0.0	-2.6	53	2	
2025-11-28T00:00	760	934	-0.1	-2.6	51	2	
2025-11-28T00:00	780	932	-0.3	-2.6	48	2	
2025-11-28T00:00	800	930	-0.5	-2.7	46	2	
2025-11-28T00:00	820	927	-0.6	-2.7	45	2	
2025-11-28T00:00	840	925	-0.8	-2.8	44	2	
2025-11-28T00:00	860	922	-1.0	-2.8	47	2	
2025-11-28T00:00	880	920	-1.1	-2.9	50	2	
2025-11-28T00:00	900	918	-1.3	-2.9	54	2	
2025-11-28T00:00	920	916	-1.5	-3.0	56	2	
2025-11-28T00:00	940	913	-1.5	-3.1	56	2	
2025-11-28T00:00	960	911	-1.6	-3.2	54	2	
2025-11-28T00:00	980	909	-1.8	-3.3	48	3	
2025-11-28T00:00	1000	906	-1.9	-3.4	41	3	
2025-11-28T00:00	1020	904	-2.0	-3.5	36	3	
2025-11-28T00:00	1040	902	-2.1	-3.7	33	3	
2025-11-28T00:00	1060	900	-2.2	-4.1	35	4	
2025-11-28T00:00	1080	897	-2.0	-4.5	38	4	
2025-11-28T00:00	1100	895	-1.8	-5.3	42	5	
2025-11-28T00:00	1120	893	-1.1	-8.1	47	5	
2025-11-28T00:00	1140	891	0.1	-11.6	51	5	
2025-11-28T00:00	1160	889	1.0	-13.8	55	6	
2025-11-28T00:00	1180	886	1.1	-13.5	57	6	
2025-11-28T00:00	1200	884	1.0	-13.4	59	6	
2025-11-28T00:00	1220	882	0.8	-13.4	59	6	
2025-11-28T00:00	1240	880	0.7	-13.6	59	6	
2025-11-28T00:00	1260	877	0.8	-14.3	60	6	
2025-11-28T00:00	1280	875	0.9	-15.0	60	6	
2025-11-28T00:00	1300	873	1.1	-15.6	60	6	
2025-11-28T00:00	1320	871	1.1	-16.2	60	6	
2025-11-28T00:00	1340	869	1.1	-17.3	59	6	
2025-11-28T00:00	1360	867	1.1	-17.2	58	6	
2025-11-28T00:00	1380	864	1.0	-18.0	55	6	
2025-11-28T00:00	1400	862	1.0	-18.8	53	6	
2025-11-28T00:00	1420	860	1.0	-19.0	50	6	
2025-11-28T00:00	1440	858	0.9	-19.2	48	6	
2025-11-28T00:00	1460	856	0.9	-19.9	45	6	
2025-11-28T00:00	1480	854	1.3	-22.1	43	6	
2025-11-28T00:00	1500	852	1.3	-22.0	40	6	
2025-11-28T00:00	1520	850	1.1	-22.3	39	6	
2025-11-28T00:00	1540	847	1.1	-23.2	38	7	
2025-11-28T00:00	1560	845	1.0	-24.2	38	7	
2025-11-28T00:00	1580	843	1.0	-25.0	38	7	
2025-11-28T00:00	1600	841	0.9	-24.6	39	7	
2025-11-28T00:00	1620	839	0.8	-23.7	41	7	
2025-11-28T00:00	1640	837	0.6	-23.8	43	7	
2025-11-28T00:00	1660	835	0.5	-23.8	44	7	
2025-11-28T00:00	1680	833	0.5	-24.2	46	7	
2025-11-28T00:00	1700	831	0.4	-24.2	46	7	
2025-11-28T00:00	1720	829	0.4	-24.7	47	7	
2025-11-28T00:00	1740	826	0.3	-25.2	46	7	
2025-11-28T00:00	1760	824	0.2	-25.1	46	7	
2025-11-28T00:00	1780	822	0.1	-25.6	45	7	
2025-11-28T00:00	1800	820	0.0	-25.9	45	7	
2025-11-28T00:00	1820	818	-0.1	-26.5	45	8	
2025-11-28T00:00	1840	816	-0.2	-26.9	46	8	
2025-11-28T00:00	1860	814	-0.3	-27.2	46	8	
2025-11-28T00:00	1880	812	-0.3	-26.9	47	8	
2025-11-28T00:00	1900	810	-0.3	-26.8	47	8	
2025-11-28T00:00	1920	808	-0.4	-27.4	48	9	
2025-11-28T00:00	1940	806	-0.2	-27.7	48	9	
2025-11-28T00:00	1960	804	-0.2	-28.0	48	9	
2025-11-28T00:00	1980	802	-0.3	-29.0	47	9	
2025-11-28T00:00	2000	800	-0.4	-30.4	46	9	
2025-11-28T00:00	2020	798	-0.3	-31.8	43	9	
2025-11-28T00:00	2040	796	-0.4	-31.8	41	9	
2025-11-28T00:00	2060	794	-0.6	-32.2	38	9	
2025-11-28T00:00	2080	792	-0.6	-34.0	36	9	
2025-11-28T00:00	2100	790	-0.7	-34.9	35	9	
2025-11-28T00:00	2120	788	-0.8	-34.7	35	10	
2025-11-28T00:00	2140	786	-0.9	-34.0	37	10	
2025-11-28T00:00	2160	784	-1.0	-32.7	38	10	
2025-11-28T00:00	2180	782	-1.2	-31.3	40	10	
2025-11-28T00:00	2200	780	-1.3	-33.4	41	10	
2025-11-28T00:00	2220	778	-1.4	-34.8	42	10	
2025-11-28T00:00	2240	776	-1.5	-34.9	43	10	
2025-11-28T00:00	2260	774	-1.6	-36.5	44	10	
2025-11-28T00:00	2280	773	-1.7	-35.0	45	9	
2025-11-28T00:00	2300	770	-1.9	-33.2	46	9	
2025-11-28T00:00	2320	769	-2.0	-33.8	47	9	
2025-11-28T00:00	2340	767	-1.9	-38.2	47	9	
2025-11-28T00:00	2360	765	-2.0	-38.4	48	9	
2025-11-28T00:00	2380	763	-2.1	-37.5	48	9	
2025-11-28T00:00	2400	761	-2.2	-37.9	48	9	
2025-11-28T00:00	2420	759	-2.2	-36.7	48	9	
2025-11-28T00:00	2440	757	-2.3	-37.1	47	9	
2025-11-28T00:00	2460	755	-2.3	-40.7	47	9	
2025-11-28T00:00	2480	753	-2.4	-38.8	47	9	
2025-11-28T00:00	2500	751	-2.3	-35.4	47	10	
2025-11-28T00:00	2520	749	-2.4	-35.8	47	10	
2025-11-28T00:00	2540	748	-2.5	-36.2	46	10	
2025-11-28T00:00	2560	746	-2.7	-37.0	46	10	
2025-11-28T00:00	2580	744	-2.8	-37.4	46	10	
2025-11-28T00:00	2600	742	-2.9	-37.4	46	10	
2025-11-28T00:00	2620	740	-3.0	-36.8	46	10	
2025-11-28T00:00	2640	738	-3.2	-36.8	46	10	
2025-11-28T00:00	2660	736	-3.4	-36.8	45	10	
2025-11-28T00:00	2680	735	-3.5	-36.7	44	10	
2025-11-28T00:00	2700	733	-3.7	-36.6	43	10	
2025-11-28T00:00	2720	731	-3.8	-36.6	42	10	
2025-11-28T00:00	2740	729	-3.8	-37.0	41	10	
2025-11-28T00:00	2760	727	-3.9	-37.4	40	10	
2025-11-28T00:00	2780	725	-4.0	-37.6	40	10	
2025-11-28T00:00	2800	723	-4.2	-38.2	38	10	
2025-11-28T00:00	2820	722	-4.3	-39.0	37	10	
2025-11-28T00:00	2840	720	-4.4	-40.3	35	10	
2025-11-28T00:00	2860	718	-4.5	-41.2	33	10	
2025-11-28T00:00	2880	716	-4.6	-40.9	32	11	
2025-11-28T00:00	2900	714	-4.7	-41.5	31	11	
2025-11-28T00:00	2920	712	-4.8	-43.2	31	11	
2025-11-28T00:00	2940	710	-4.9	-43.8	31	11	
2025-11-28T00:00	2960	709	-5.1	-44.2	32	11	
2025-11-28T00:00	2980	707	-5.1	-42.6	33	11	
2025-11-28T00:00	3000	705	-5.2	-33.5	34	11	
2025-11-28T00:00	3020	704	-5.3	-26.4	35	11	
2025-11-28T00:00	3040	702	-5.4	-22.0	36	11	
2025-11-28T00:00	3060	700	-5.6	-18.9	38	11	
2025-11-28T00:00	3080	698	-5.8	-17.5	39	11	
2025-11-28T00:00	3100	696	-6.0	-17.4	40	11	
2025-11-28T00:00	3120	695	-6.1	-16.4	41	11	
2025-11-28T00:00	3140	693	-6.2	-17.9	41	12	
2025-11-28T00:00	3160	691	-6.3	-18.8	41	12	
2025-11-28T00:00	3180	689	-6.4	-18.1	41	12	
2025-11-28T00:00	3200	687	-6.6	-16.7	41	12	
2025-11-28T00:00	3220	686	-6.8	-16.4	41	12	
2025-11-28T00:00	3240	684	-6.9	-17.8	42	11	
2025-11-28T00:00	3260	682	-6.9	-18.2	42	11	
2025-11-28T00:00	3280	680	-7.0	-19.2	43	11	
2025-11-28T00:00	3300	679	-7.1	-19.0	44	11	
2025-11-28T00:00	3320	677	-7.2	-19.7	45	11	
2025-11-28T00:00	3340	675	-7.3	-20.4	45	11	
2025-11-28T00:00	3360	674	-7.4	-21.2	44	11	
2025-11-28T00:00	3380	672	-7.5	-21.1	44	11	
2025-11-28T00:00	3400	670	-7.7	-21.2	43	11	
2025-11-28T00:00	3420	668	-7.9	-21.0	41	11	
2025-11-28T00:00	3440	666	-8.1	-21.3	40	12	
2025-11-28T00:00	3460	665	-8.3	-21.6	40	12	
2025-11-28T00:00	3480	663	-8.4	-21.6	40	12	
2025-11-28T00:00	3500	662	-8.6	-21.3	40	12	
2025-11-28T00:00	3520	660	-8.7	-21.1	41	12	
2025-11-28T00:00	3540	658	-8.8	-22.0	42	12	
2025-11-28T00:00	3560	656	-8.9	-21.9	42	12	
2025-11-28T00:00	3580	655	-9.1	-22.4	43	12	
2025-11-28T00:00	3600	653	-9.2	-22.9	44	12	
2025-11-28T00:00	3620	651	-9.4	-22.6	45	12	
2025-11-28T00:00	3640	649	-9.5	-22.3	46	12	
2025-11-28T00:00	3660	648	-9.6	-22.4	48	12	
2025-11-28T00:00	3680	646	-9.7	-22.7	49	12	
2025-11-28T00:00	3700	644	-9.9	-21.7	50	12	
2025-11-28T00:00	3720	643	-10.0	-18.8	51	12	
2025-11-28T00:00	3740	641	-10.1	-21.8	51	12	
2025-11-28T00:00	3760	640	-10.1	-23.6	52	12	
2025-11-28T00:00	3780	638	-10.1	-24.5	52	12	
2025-11-28T00:00	3800	636	-10.1	-25.1	52	12	
2025-11-28T00:00	3820	635	-10.1	-25.3	52	12	
2025-11-28T00:00	3840	633	-10.1	-24.6	52	13	
2025-11-28T00:00	3860	631	-10.1	-23.2	53	13	
2025-11-28T00:00	3880	630	-10.0	-24.2	53	13	
2025-11-28T00:00	3900	628	-10.0	-25.0	53	13	
2025-11-28T00:00	3920	626	-10.0	-26.8	52	14	
2025-11-28T00:00	3940	625	-10.0	-23.0	51	14	
2025-11-28T00:00	3960	623	-10.1	-19.7	50	14	
2025-11-28T00:00	3980	622	-10.2	-18.7	49	15	
2025-11-28T00:00	4000	620	-10.2	-18.6	47	15	
2025-11-28T00:00	4020	618	-10.2	-18.0	46	15	
2025-11-28T00:00	4040	617	-10.2	-17.8	46	15	
2025-11-28T00:00	4060	615	-10.1	-17.1	46	15	
2025-11-28T00:00	4080	614	-10.3	-16.8	46	15	
2025-11-28T00:00	4100	612	-10.4	-16.8	48	15	
2025-11-28T00:00	4120	610	-10.6	-17.3	49	15	
2025-11-28T00:00	4140	609	-10.7	-17.6	50	15	
2025-11-28T00:00	4160	607	-10.8	-17.9	51	16	
2025-11-28T00:00	4180	606	-10.8	-17.9	51	16	
2025-11-28T00:00	4200	604	-10.9	-18.0	51	17	
2025-11-28T00:00	4220	602	-10.7	-18.2	51	17	
2025-11-28T00:00	4240	601	-10.6	-17.6	51	18	
2025-11-28T00:00	4260	599	-10.4	-17.0	52	18	
2025-11-28T00:00	4280	598	-10.4	-16.5	52	18	
2025-11-28T00:00	4300	596	-10.5	-16.3	53	17	
2025-11-28T00:00	4320	595	-10.6	-16.2	53	17	
2025-11-28T00:00	4340	593	-10.7	-16.3	53	16	
2025-11-28T00:00	4360	592	-10.8	-16.6	53	16	
2025-11-28T00:00	4380	590	-10.9	-17.1	52	16	
2025-11-28T00:00	4400	588	-11.1	-17.3	52	16	
2025-11-28T00:00	4420	587	-11.2	-16.9	51	16	
2025-11-28T00:00	4440	586	-11.3	-16.9	51	16	
2025-11-28T00:00	4460	584	-11.4	-17.1	51	15	
2025-11-28T00:00	4480	582	-11.5	-17.3	51	15	
2025-11-28T00:00	4500	581	-11.7	-17.4	51	15	
2025-11-28T00:00	4520	579	-11.8	-17.7	50	15	
2025-11-28T00:00	4540	578	-11.9	-17.9	49	15	
2025-11-28T00:00	4560	576	-12.1	-18.1	47	15	
2025-11-28T00:00	4580	575	-12.2	-18.2	44	15	
2025-11-28T00:00	4600	573	-12.3	-18.5	41	15	
2025-11-28T00:00	4620	572	-12.2	-19.0	40	15	
2025-11-28T00:00	4640	570	-12.2	-18.8	39	15	
2025-11-28T00:00	4660	569	-12.3	-18.1	40	16	
2025-11-28T00:00	4680	567	-12.5	-17.8	41	16	
2025-11-28T00:00	4700	566	-12.7	-17.9	43	16	
2025-11-28T00:00	4720	564	-12.9	-17.9	44	16	
2025-11-28T00:00	4740	563	-13.1	-18.0	45	17	
2025-11-28T00:00	4760	561	-13.3	-17.8	45	17	
2025-11-28T00:00	4780	560	-13.4	-17.9	44	17	
2025-11-28T00:00	4800	558	-13.6	-18.0	43	17	
2025-11-28T00:00	4820	557	-13.8	-18.0	42	17	
2025-11-28T00:00	4840	556	-14.0	-18.0	41	17	
2025-11-28T00:00	4860	554	-14.2	-18.0	38	17	
2025-11-28T00:00	4880	553	-14.4	-18.0	37	17	
2025-11-28T00:00	4900	551	-14.5	-18.1	37	17	
2025-11-28T00:00	4920	550	-14.7	-18.2	37	17	
2025-11-28T00:00	4940	548	-14.8	-18.3	37	17	
2025-11-28T00:00	4960	547	-14.6	-18.5	38	17	
2025-11-28T00:00	4980	545	-14.6	-19.1	38	17	
2025-11-28T00:00	5000	544	-14.7	-19.3	38	16	
2025-11-28T00:00	5020	542	-14.8	-19.4	38	16	
2025-11-28T00:00	5040	541	-14.9	-19.6	38	16	
2025-11-28T00:00	5060	540	-15.0	-19.7	37	16	
2025-11-28T00:00	5080	538	-15.1	-19.8	35	16	
2025-11-28T00:00	5100	537	-15.3	-19.9	34	16	
2025-11-28T00:00	5120	536	-15.3	-20.3	33	16	
2025-11-28T00:00	5140	534	-15.4	-20.4	32	16	
2025-11-28T00:00	5160	532	-15.6	-20.3	32	17	
2025-11-28T00:00	5180	531	-15.7	-20.1	32	17	
2025-11-28T00:00	5200	530	-15.9	-20.3	32	17	
2025-11-28T00:00	5220	528	-16.1	-20.3	32	18	
2025-11-28T00:00	5240	527	-16.2	-20.4	32	18	
2025-11-28T00:00	5260	526	-16.3	-20.5	32	18	
2025-11-28T00:00	5280	524	-16.4	-20.6	32	18	
2025-11-28T00:00	5300	523	-16.6	-20.7	32	18	
2025-11-28T00:00	5320	521	-16.7	-20.8	32	18	
2025-11-28T00:00	5340	520	-16.8	-21.1	32	18	
2025-11-28T00:00	5360	519	-16.9	-21.6	32	18	
2025-11-28T00:00	5380	517	-16.9	-21.9	32	18	
2025-11-28T00:00	5400	516	-17.0	-22.0	33	18	
2025-11-28T00:00	5420	514	-17.1	-21.9	33	18	
2025-11-28T00:00	5440	513	-17.2	-21.6	33	19	
2025-11-28T00:00	5460	512	-17.4	-21.9	34	19	
2025-11-28T00:00	5480	510	-17.5	-22.2	34	19	
2025-11-28T00:00	5500	509	-17.7	-22.1	35	19	
2025-11-28T00:00	5520	508	-17.9	-21.9	36	19	
2025-11-28T00:00	5540	506	-18.0	-22.3	36	20	
2025-11-28T00:00	5560	505	-18.2	-22.3	35	20	
2025-11-28T00:00	5580	503	-18.3	-22.1	34	20	
2025-11-28T00:00	5600	502	-18.5	-22.0	33	20	
2025-11-28T00:00	5620	501	-18.6	-22.0	32	20	
2025-11-28T00:00	5640	500	-18.8	-22.1	31	19	
2025-11-28T00:00	5660	498	-19.0	-22.2	30	20	
2025-11-28T00:00	5680	497	-19.1	-22.6	29	20	
2025-11-28T00:00	5700	495	-19.2	-22.8	29	20	
2025-11-28T00:00	5720	494	-19.3	-22.7	29	20	
2025-11-28T00:00	5740	493	-19.5	-23.2	28	20	
2025-11-28T00:00	5760	492	-19.6	-23.1	28	21	
2025-11-28T00:00	5780	490	-19.7	-23.5	28	21	
2025-11-28T00:00	5800	489	-19.8	-23.5	28	21	
2025-11-28T00:00	5820	488	-20.0	-23.3	28	22	
2025-11-28T00:00	5840	486	-20.1	-23.5	28	22	
2025-11-28T00:00	5860	485	-20.3	-23.6	28	22	
2025-11-28T00:00	5880	484	-20.5	-23.8	28	22	
2025-11-28T00:00	5900	482	-20.6	-24.0	28	22	
2025-11-28T00:00	5920	481	-20.8	-24.1	28	22	
2025-11-28T00:00	5940	480	-20.9	-24.2	27	21	
2025-11-28T00:00	5960	478	-21.1	-24.1	27	21	
2025-11-28T00:00	5980	477	-21.3	-24.2	27	21	
2025-11-28T00:00	6000	476	-21.5	-24.2	26	21	
2025-11-28T00:00	6020	475	-21.7	-24.4	26	21	
2025-11-28T00:00	6040	473	-21.8	-24.5	25	21	
2025-11-28T00:00	6060	472	-22.0	-24.6	24	21	
2025-11-28T00:00	6080	471	-22.2	-24.6	24	21	
2025-11-28T00:00	6100	470	-22.3	-24.9	23	21	
2025-11-28T00:00	6120	468	-22.5	-24.9	23	21	
2025-11-28T00:00	6140	467	-22.7	-25.0	24	21	
2025-11-28T00:00	6160	466	-22.9	-25.3	25	22	
2025-11-28T00:00	6180	464	-23.1	-25.6	27	22	
2025-11-28T00:00	6200	463	-23.2	-25.7	28	22	
2025-11-28T00:00	6220	462	-23.4	-25.7	29	22	
2025-11-28T00:00	6240	460	-23.6	-25.9	30	22	
2025-11-28T00:00	6260	459	-23.8	-26.1	30	22	
2025-11-28T00:00	6280	458	-24.0	-26.3	30	22	
2025-11-28T00:00	6300	457	-24.1	-26.5	30	22	
2025-11-28T00:00	6320	455	-24.3	-26.9	30	22	
2025-11-28T00:00	6340	454	-24.5	-27.0	30	21	
2025-11-28T00:00	6360	453	-24.6	-27.1	30	21	
2025-11-28T00:00	6380	452	-24.9	-27.2	30	21	
2025-11-28T00:00	6400	451	-25.0	-26.9	30	20	
2025-11-28T00:00	6420	449	-25.2	-27.0	30	20	
2025-11-28T00:00	6440	448	-25.4	-27.1	29	20	
2025-11-28T00:00	6460	447	-25.7	-27.3	29	20	
2025-11-28T00:00	6480	446	-25.8	-27.2	29	19	
2025-11-28T00:00	6500	444	-26.1	-27.2	29	19	
2025-11-28T00:00	6520	443	-26.3	-27.1	28	19	
2025-11-28T00:00	6540	442	-26.4	-27.2	28	20	
2025-11-28T00:00	6560	441	-26.7	-27.7	27	20	
2025-11-28T00:00	6580	439	-26.9	-27.5	27	20	
2025-11-28T00:00	6600	438	-27.1	-27.7	27	21	
2025-11-28T00:00	6620	437	-27.3	-27.7	28	21	
2025-11-28T00:00	6640	436	-27.5	-27.9	28	21	
2025-11-28T00:00	6660	435	-27.6	-28.2	29	20	
2025-11-28T00:00	6680	433	-27.7	-28.8	30	20	
2025-11-28T00:00	6700	432	-27.7	-29.2	30	20	
2025-11-28T00:00	6720	431	-27.8	-29.4	30	20	
2025-11-28T00:00	6740	430	-27.9	-29.6	29	20	
2025-11-28T00:00	6760	429	-28.0	-30.3	29	19	
2025-11-28T00:00	6780	427	-28.0	-30.9	29	19	
2025-11-28T00:00	6800	426	-28.1	-31.2	29	19	
2025-11-28T00:00	6820	425	-28.2	-31.3	30	19	
2025-11-28T00:00	6840	424	-28.3	-31.8	30	18	
2025-11-28T00:00	6860	423	-28.3	-32.7	31	18	
2025-11-28T00:00	6880	422	-28.4	-33.0	31	18	
2025-11-28T00:00	6900	420	-28.5	-33.0	31	18	
2025-11-28T00:00	6920	419	-28.6	-33.0	31	18	
2025-11-28T00:00	6940	418	-28.8	-33.2	30	18	
2025-11-28T00:00	6960	417	-28.9	-33.7	30	18	
2025-11-28T00:00	6980	416	-29.0	-34.0	30	18	
2025-11-28T00:00	7000	415	-29.2	-34.2	30	19	
2025-11-28T00:00	7020	413	-29.3	-34.4	30	19	
2025-11-28T00:00	7040	412	-29.4	-34.3	30	20	
2025-11-28T00:00	7060	411	-29.5	-33.9	30	20	
2025-11-28T00:00	7080	410	-29.6	-33.6	30	21	
2025-11-28T00:00	7100	409	-29.8	-33.1	29	21	
2025-11-28T00:00	7120	407	-30.0	-32.8	29	21	
2025-11-28T00:00	7140	406	-30.1	-32.7	28	21	
2025-11-28T00:00	7160	405	-30.3	-32.6	28	21	
2025-11-28T00:00	7180	404	-30.4	-32.4	27	21	
2025-11-28T00:00	7200	403	-30.4	-33.1	27	21	
2025-11-28T00:00	7220	402	-30.5	-33.5	28	21	
2025-11-28T00:00	7240	401	-30.6	-33.4	28	21	
2025-11-28T00:00	7260	400	-30.7	-33.2	29	22	
2025-11-28T00:00	7280	398	-30.9	-33.6	29	22	
2025-11-28T00:00	7300	397	-31.0	-34.2	30	22	
2025-11-28T00:00	7320	396	-31.0	-34.8	31	23	
2025-11-28T00:00	7340	395	-31.0	-35.9	32	23	
2025-11-28T00:00	7360	394	-31.1	-36.2	33	23	
2025-11-28T00:00	7380	393	-31.1	-36.2	34	24	
2025-11-28T00:00	7400	392	-31.2	-36.4	36	24	
2025-11-28T00:00	7420	391	-31.4	-36.4	36	24	
2025-11-28T00:00	7440	390	-31.5	-36.8	37	24	
2025-11-28T00:00	7460	389	-31.6	-37.4	37	24	
2025-11-28T00:00	7480	387	-31.7	-37.6	37	25	
2025-11-28T00:00	7500	386	-31.9	-37.8	37	25	
2025-11-28T00:00	7520	385	-31.8	-38.4	37	25	
2025-11-28T00:00	7540	384	-31.8	-38.8	37	25	
2025-11-28T00:00	7560	383	-31.9	-39.0	37	25	
2025-11-28T00:00	7580	382	-32.1	-39.2	37	25	
2025-11-28T00:00	7600	381	-32.2	-39.9	37	26	
2025-11-28T00:00	7620	380	-32.3	-41.2	37	26	
2025-11-28T00:00	7640	379	-32.3	-42.7	37	26	
2025-11-28T00:00	7660	378	-32.3	-43.3	36	27	
2025-11-28T00:00	7680	377	-32.3	-43.9	35	27	
2025-11-28T00:00	7700	376	-32.4	-43.9	34	27	
2025-11-28T00:00	7720	375	-32.5	-44.0	33	27	
2025-11-28T00:00	7740	373	-32.7	-44.3	32	27	
2025-11-28T00:00	7760	372	-32.8	-45.0	31	27	
2025-11-28T00:00	7780	371	-33.0	-45.5	31	27	
2025-11-28T00:00	7800	370	-33.1	-46.2	31	27	
2025-11-28T00:00	7820	369	-33.2	-48.4	31	27	
2025-11-28T00:00	7840	368	-33.3	-48.7	32	27	
2025-11-28T00:00	7860	367	-33.4	-48.5	33	27	
2025-11-28T00:00	7880	366	-33.6	-48.5	34	27	
2025-11-28T00:00	7900	365	-33.8	-48.4	35	27	
2025-11-28T00:00	7920	364	-34.0	-48.4	35	28	
2025-11-28T00:00	7940	363	-34.2	-48.6	35	28	
2025-11-28T00:00	7960	362	-34.4	-48.8	36	28	
2025-11-28T00:00	7980	361	-34.5	-48.7	36	28	
2025-11-28T00:00	8000	360	-34.7	-48.7	37	28	
2025-11-28T00:00	8020	359	-34.9	-48.6	37	28	
2025-11-28T00:00	8040	358	-35.1	-48.3	38	28	
2025-11-28T00:00	8060	357	-35.3	-48.4	38	28	
2025-11-28T00:00	8080	356	-35.5	-47.8	38	28	
2025-11-28T00:00	8100	355	-35.7	-47.3	37	28	
2025-11-28T00:00	8120	354	-35.9	-46.5	37	28	
2025-11-28T00:00	8140	353	-36.1	-46.7	36	28	
2025-11-28T00:00	8160	352	-36.2	-46.8	36	28	
2025-11-28T00:00	8180	351	-36.5	-46.8	35	28	
2025-11-28T00:00	8200	350	-36.7	-46.8	35	28	
2025-11-28T00:00	8220	349	-36.8	-46.8	34	28	
2025-11-28T00:00	8240	348	-37.0	-46.6	34	28	
2025-11-28T00:00	8260	347	-37.2	-46.5	33	28	
2025-11-28T00:00	8280	346	-37.4	-46.7	33	28	
2025-11-28T00:00	8300	345	-37.6	-46.8	33	28	
2025-11-28T00:00	8320	344	-37.8	-46.8	33	28	
2025-11-28T00:00	8340	343	-38.0	-46.8	33	28	
2025-11-28T00:00	8360	342	-38.2	-46.6	34	29	
2025-11-28T00:00	8380	341	-38.3	-47.5	34	29	
2025-11-28T00:00	8400	340	-38.3	-49.1	35	28	
2025-11-28T00:00	8420	339	-38.5	-49.6	35	28	
2025-11-28T00:00	8440	338	-38.6	-50.8	35	28	
2025-11-28T00:00	8460	337	-38.8	-51.7	35	28	
2025-11-28T00:00	8480	336	-39.0	-51.8	35	28	
2025-11-28T00:00	8500	335	-39.2	-51.8	35	28	
2025-11-28T00:00	8520	334	-39.3	-51.5	34	28	
2025-11-28T00:00	8540	333	-39.5	-51.6	34	28	
2025-11-28T00:00	8560	332	-39.7	-51.7	34	28	
2025-11-28T00:00	8580	331	-39.9	-51.8	33	28	
2025-11-28T00:00	8600	330	-40.1	-51.9	33	28	
2025-11-28T00:00	8620	329	-40.3	-51.7	33	28	
2025-11-28T00:00	8640	328	-40.4	-51.5	33	28	
2025-11-28T00:00	8660	327	-40.6	-51.5	33	28	
2025-11-28T00:00	8680	326	-40.8	-51.7	33	28	
2025-11-28T00:00	8700	325	-41.0	-52.0	33	28	
2025-11-28T00:00	8720	324	-41.2	-52.0	32	28	
2025-11-28T00:00	8740	323	-41.4	-52.1	32	29	
2025-11-28T00:00	8760	322	-41.5	-52.2	31	29	
2025-11-28T00:00	8780	321	-41.7	-52.5	31	29	
2025-11-28T00:00	8800	320	-41.9	-52.9	30	29	
2025-11-28T00:00	8820	319	-42.1	-53.0	30	29	
2025-11-28T00:00	8840	318	-42.3	-52.4	29	29	
2025-11-28T00:00	8860	317	-42.4	-52.0	29	29	
2025-11-28T00:00	8880	317	-42.6	-51.8	28	29	
2025-11-28T00:00	8900	316	-42.8	-51.7	28	29	
2025-11-28T00:00	8920	315	-42.9	-52.7	28	29	
2025-11-28T00:00	8940	314	-43.0	-53.0	28	29	
2025-11-28T00:00	8960	313	-43.2	-51.8	27	29	
2025-11-28T00:00	8980	312	-43.4	-51.4	27	29	
2025-11-28T00:00	9000	311	-43.6	-51.3	27	29	
2025-11-28T00:00	9020	310	-43.8	-51.1	27	29	
2025-11-28T00:00	9040	309	-44.0	-51.3	27	29	
2025-11-28T00:00	9060	308	-44.2	-51.8	26	30	
2025-11-28T00:00	9080	307	-44.4	-52.0	26	29	
2025-11-28T00:00	9100	306	-44.5	-52.0	26	30	
2025-11-28T00:00	9120	305	-44.7	-52.1	25	30	
2025-11-28T00:00	9140	304	-44.9	-52.4	24	30	
2025-11-28T00:00	9160	304	-45.0	-52.7	24	30	
2025-11-28T00:00	9180	303	-45.1	-53.2	23	30	
2025-11-28T00:00	9200	302	-45.2	-54.5	23	30	
2025-11-28T00:00	9220	301	-45.2	-55.6	22	30	
2025-11-28T00:00	9240	300	-45.3	-55.7	22	30	
2025-11-28T00:00	9260	299	-45.5	-55.4	22	31	
2025-11-28T00:00	9280	298	-45.7	-55.2	23	31	
2025-11-28T00:00	9300	297	-45.9	-55.1	23	31	
2025-11-28T00:00	9320	296	-46.1	-55.1	23	31	
2025-11-28T00:00	9340	296	-46.3	-55.1	23	31	
2025-11-28T00:00	9360	295	-46.5	-55.2	23	31	
2025-11-28T00:00	9380	294	-46.7	-55.3	23	30	
2025-11-28T00:00	9400	293	-46.8	-55.7	23	30	
2025-11-28T00:00	9420	292	-47.0	-56.0	23	30	
2025-11-28T00:00	9440	291	-47.2	-56.1	23	30	
2025-11-28T00:00	9460	290	-47.4	-56.2	23	30	
2025-11-28T00:00	9480	289	-47.6	-56.0	23	30	
2025-11-28T00:00	9500	288	-47.8	-55.9	23	30	
2025-11-28T00:00	9520	288	-48.0	-56.1	23	30	
2025-11-28T00:00	9540	287	-48.1	-56.5	24	30	
2025-11-28T00:00	9560	286	-48.3	-56.8	24	30	
2025-11-28T00:00	9580	285	-48.4	-56.9	24	31	
2025-11-28T00:00	9600	284	-48.4	-56.7	24	31	
2025-11-28T00:00	9620	283	-48.5	-56.4	24	32	
2025-11-28T00:00	9640	282	-48.7	-56.1	23	32	
2025-11-28T00:00	9660	282	-48.8	-55.9	23	33	
2025-11-28T00:00	9680	281	-48.9	-56.0	23	33	
2025-11-28T00:00	9700	280	-49.0	-56.5	22	33	
2025-11-28T00:00	9720	279	-49.1	-57.1	22	33	
2025-11-28T00:00	9740	278	-49.3	-57.6	23	33	
2025-11-28T00:00	9760	277	-49.5	-57.5	23	33	
2025-11-28T00:00	9780	276	-49.6	-57.4	23	33	
2025-11-28T00:00	9800	276	-49.8	-57.4	23	33	
2025-11-28T00:00	9820	275	-49.9	-57.7	23	33	
2025-11-28T00:00	9840	274	-50.1	-58.4	24	33	
2025-11-28T00:00	9860	273	-50.2	-59.1	23	33	
2025-11-28T00:00	9880	272	-50.4	-59.3	23	33	
2025-11-28T00:00	9900	271	-50.5	-59.6	23	33	
2025-11-28T00:00	9920	271	-50.6	-60.0	22	33	
2025-11-28T00:00	9940	270	-50.8	-60.2	22	33	
2025-11-28T00:00	9960	269	-50.9	-60.0	22	33	
2025-11-28T00:00	9980	268	-51.0	-59.7	21	33	
2025-11-28T00:00	10000	267	-51.2	-59.5	21	33	
2025-11-28T00:00	10018	266	-51.4	-59.3	21	34	
2025-11-28T00:00	10050	265	-51.7	-59.0	21	34	
2025-11-28T00:00	10100	263	-52.2	-58.8	20	34	
2025-11-28T00:00	10150	261	-52.6	-58.8	19	35	
2025-11-28T00:00	10200	259	-53.0	-59.0	19	35	
2025-11-28T00:00	10250	257	-53.5	-58.8	19	35	
2025-11-28T00:00	10300	255	-53.9	-58.4	19	34	
2025-11-28T00:00	10350	253	-54.3	-59.0	20	34	
2025-11-28T00:00	10400	251	-54.8	-59.4	20	34	
2025-11-28T00:00	10450	249	-55.3	-59.6	20	34	
2025-11-28T00:00	10500	247	-55.8	-59.9	21	34	
2025-11-28T00:00	10550	245	-56.1	-60.2	21	35	
2025-11-28T00:00	10600	243	-56.4	-60.5	22	35	
2025-11-28T00:00	10650	241	-56.8	-61.1	22	35	
2025-11-28T00:00	10700	240	-57.1	-61.6	22	35	
2025-11-28T00:00	10750	238	-57.4	-62.1	23	35	
2025-11-28T00:00	10800	236	-57.8	-62.6	23	35	
2025-11-28T00:00	10850	234	-58.2	-63.1	24	35	
2025-11-28T00:00	10900	232	-58.4	-64.0	24	36	
2025-11-28T00:00	10950	230	-58.7	-64.7	24	36	
2025-11-28T00:00	11000	228	-59.2	-65.1	24	36	
2025-11-28T00:00	11050	227	-59.6	-65.3	25	36	
2025-11-28T00:00	11100	225	-60.0	-65.7	26	36	
2025-11-28T00:00	11150	223	-60.3	-66.1	28	36	
2025-11-28T00:00	11200	221	-60.6	-66.5	30	36	
2025-11-28T00:00	11250	219	-60.8	-67.0	32	36	
2025-11-28T00:00	11300	218	-61.1	-67.4	33	36	
2025-11-28T00:00	11350	216	-61.3	-68.4	33	36	
2025-11-28T00:00	11400	214	-61.5	-69.8	33	35	
2025-11-28T00:00	11450	212	-61.7	-70.9	32	34	
2025-11-28T00:00	11500	211	-62.1	-71.1	32	34	
2025-11-28T00:00	11550	209	-62.4	-71.2	30	34	
2025-11-28T00:00	11600	207	-62.6	-71.4	28	33	
2025-11-28T00:00	11650	206	-62.6	-71.5	25	34	
2025-11-28T00:00	11700	204	-62.3	-71.2	23	34	
2025-11-28T00:00	11750	202	-62.5	-71.2	22	35	
2025-11-28T00:00	11800	201	-62.9	-71.5	22	36	
2025-11-28T00:00	11850	199	-63.4	-71.6	21	36	
2025-11-28T00:00	11900	197	-63.8	-71.8	20	36	
2025-11-28T00:00	11950	196	-64.2	-72.2	18	37	
2025-11-28T00:00	12000	194	-64.3	-72.4	17	37	
2025-11-28T00:00	12050	193	-64.3	-72.7	18	37	
2025-11-28T00:00	12100	191	-64.5	-73.3	21	37	
2025-11-28T00:00	12150	190	-64.5	-73.5	24	36	
2025-11-28T00:00	12200	188	-64.6	-73.2	27	36	
2025-11-28T00:00	12250	187	-64.7	-72.7	30	36	
2025-11-28T00:00	12300	185	-64.7	-72.3	32	36	
2025-11-28T00:00	12350	184	-64.7	-72.0	33	35	
2025-11-28T00:00	12400	182	-64.7	-72.2	33	33	
2025-11-28T00:00	12450	181	-64.9	-72.8	32	32	
2025-11-28T00:00	12500	179	-65.1	-73.5	30	32	
2025-11-28T00:00	12550	178	-65.1	-74.1	28	32	
2025-11-28T00:00	12600	176	-65.1	-74.6	27	32	
2025-11-28T00:00	12650	175	-65.4	-75.2	26	32	
2025-11-28T00:00	12700	173	-65.4	-75.6	27	32	
2025-11-28T00:00	12750	172	-65.4	-76.1	27	32	
2025-11-28T00:00	12800	170	-65.4	-76.8	29	31	
2025-11-28T00:00	12850	169	-65.4	-77.5	31	31	
2025-11-28T00:00	12900	168	-65.1	-77.9	33	30	
2025-11-28T00:00	12950	166	-65.0	-78.4	35	29	
2025-11-28T00:00	13000	165	-65.1	-79.2	36	28	
2025-11-28T00:00	13050	163	-65.3	-79.7	36	27	
2025-11-28T00:00	13100	162	-65.5	-80.1	34	26	
2025-11-28T00:00	13150	161	-65.5	-80.6	31	24	
2025-11-28T00:00	13200	159	-65.1	-80.7	27	24	
2025-11-28T00:00	13250	158	-65.1	-81.1	24	23	
2025-11-28T00:00	13300	157	-65.1	-81.5	22	23	
2025-11-28T00:00	13350	156	-64.7	-81.5	20	23	
2025-11-28T00:00	13400	154	-64.6	-81.9	18	22	
2025-11-28T00:00	13450	153	-63.8	-82.1	17	22	
2025-11-28T00:00	13500	152	-62.4	-82.0	15	22	
2025-11-28T00:00	13550	151	-61.8	-82.3	15	22	
2025-11-28T00:00	13600	149	-61.7	-82.6	16	22	
2025-11-28T00:00	13650	148	-61.3	-82.7	18	21	
2025-11-28T00:00	13700	147	-60.9	-82.7	19	19	
2025-11-28T00:00	13750	146	-60.6	-82.9	20	18	
2025-11-28T00:00	13800	145	-60.0	-82.7	21	18	
2025-11-28T00:00	13850	144	-60.2	-82.9	23	18	
2025-11-28T00:00	13900	142	-60.2	-82.7	23	18	
2025-11-28T00:00	13950	141	-60.2	-82.6	21	18	
2025-11-28T00:00	14000	140	-60.4	-82.7	18	18	
2025-11-28T00:00	14050	139	-60.6	-82.7	15	18	
2025-11-28T00:00	14100	138	-60.8	-82.8	16	17	
2025-11-28T00:00	14150	137	-60.8	-82.9	18	17	
2025-11-28T00:00	14200	136	-60.4	-82.9	21	16	
2025-11-28T00:00	14250	135	-60.3	-82.9	23	16	
2025-11-28T00:00	14300	134	-60.4	-83.0	24	16	
2025-11-28T00:00	14350	133	-60.8	-83.1	25	16	
2025-11-28T00:00	14400	131	-61.3	-83.1	25	17	
2025-11-28T00:00	14450	130	-61.7	-83.2	26	17	
2025-11-28T00:00	14500	129	-62.1	-83.3	27	17	
2025-11-28T00:00	14550	128	-62.3	-83.3	29	16	
2025-11-28T00:00	14600	127	-62.5	-83.5	30	15	
2025-11-28T00:00	14650	126	-62.6	-83.5	32	15	
2025-11-28T00:00	14700	125	-62.8	-83.6	33	15	
2025-11-28T00:00	14750	124	-63.2	-83.7	33	15	
2025-11-28T00:00	14800	123	-63.5	-83.9	33	14	
2025-11-28T00:00	14850	122	-63.6	-84.0	33	13	
2025-11-28T00:00	14900	121	-63.1	-83.9	31	12	
2025-11-28T00:00	14950	120	-63.1	-84.1	30	12	
2025-11-28T00:00	15000	119	-62.9	-84.0	29	12	
2025-11-28T00:00	15050	118	-63.0	-84.1	28	12	
2025-11-28T00:00	15100	117	-63.0	-84.1	27	11	
2025-11-28T00:00	15150	116	-63.2	-84.1	24	11	
2025-11-28T00:00	15200	115	-63.6	-84.2	20	11	
2025-11-28T00:00	15250	114	-63.9	-84.3	17	11	
2025-11-28T00:00	15300	114	-64.2	-84.4	16	12	
2025-11-28T00:00	15350	113	-64.3	-84.5	15	12	
2025-11-28T00:00	15400	112	-64.3	-84.6	12	12	
2025-11-28T00:00	15450	111	-64.3	-84.7	10	12	
2025-11-28T00:00	15500	110	-64.5	-85.0	13	11	
2025-11-28T00:00	15550	109	-64.1	-84.9	16	10	
2025-11-28T00:00	15600	108	-64.1	-85.1	18	10	
2025-11-28T00:00	15650	107	-63.9	-85.0	19	11	
2025-11-28T00:00	15700	106	-64.1	-85.0	18	11	
2025-11-28T00:00	15750	106	-64.5	-85.1	18	12	
2025-11-28T00:00	15800	105	-64.5	-85.1	20	11	
2025-11-28T00:00	15850	104	-64.7	-85.2	23	11	
2025-11-28T00:00	15900	103	-64.9	-85.3	21	10	
2025-11-28T00:00	15950	102	-65.0	-85.3	13	10	
2025-11-28T00:00	16000	101	-65.0	-85.4	2	10	
2025-11-28T00:00	16050	100	-64.9	-85.4	354	11	
2025-11-28T00:00	16100	100	-64.3	-85.3	350	12	
2025-11-28T00:00	16150	99	-63.7	-85.3	350	12	
2025-11-28T00:00	16200	98	-63.5	-85.2	352	11	
2025-11-28T00:00	16250	97	-63.7	-85.3	353	11	
2025-11-28T00:00	16300	96	-63.6	-85.2	353	11	
2025-11-28T00:00	16350	96	-63.9	-85.3	351	12	
2025-11-28T00:00	16400	95	-64.2	-85.3	351	13	
2025-11-28T00:00	16450	94	-64.3	-85.4	353	13	
2025-11-28T00:00	16500	93	-64.3	-85.5	354	13	
2025-11-28T00:00	16550	93	-64.1	-85.5	353	12	
2025-11-28T00:00	16600	92	-64.1	-85.6	350	12	
2025-11-28T00:00	16650	91	-64.3	-85.8	348	12	
2025-11-28T00:00	16700	90	-64.1	-85.9	349	12	
2025-11-28T00:00	16750	90	-63.6	-85.7	349	11	
2025-11-28T00:00	16800	89	-63.8	-85.8	351	10	
2025-11-28T00:00	16850	88	-64.1	-85.8	354	10	
2025-11-28T00:00	16900	87	-64.3	-85.8	357	10	
2025-11-28T00:00	16950	87	-64.5	-85.9	360	10	
2025-11-28T00:00	17000	86	-64.6	-86.1	1	10	
2025-11-28T00:00	17050	85	-64.2	-86.1	359	10	
2025-11-28T00:00	17100	85	-64.1	-86.1	354	10	
2025-11-28T00:00	17150	84	-64.3	-86.2	349	10	
2025-11-28T00:00	17200	83	-64.4	-86.3	346	10	
2025-11-28T00:00	17250	83	-64.0	-86.2	346	9	
2025-11-28T00:00	17300	82	-63.9	-86.3	347	8	
2025-11-28T00:00	17350	81	-63.7	-86.2	349	6	
2025-11-28T00:00	17400	81	-63.6	-86.2	350	4	
2025-11-28T00:00	17450	80	-63.6	-86.2	346	4	
2025-11-28T00:00	17500	79	-63.8	-86.2	339	3	
2025-11-28T00:00	17550	79	-64.1	-86.3	335	3	
2025-11-28T00:00	17600	78	-64.5	-86.4	335	3	
2025-11-28T00:00	17650	77	-64.8	-86.5	340	3	
2025-11-28T00:00	17700	77	-65.0	-86.6	342	2	
2025-11-28T00:00	17750	76	-65.0	-86.6	314	1	
2025-11-28T00:00	17800	75	-64.9	-86.6	256	1	
2025-11-28T00:00	17850	75	-65.2	-86.7	253	2	
2025-11-28T00:00	17900	74	-65.5	-86.7	272	2	
2025-11-28T00:00	17950	74	-65.6	-86.8	291	3	
2025-11-28T00:00	18000	73	-65.9	-86.9	305	3	
2025-11-28T00:00	18050	72	-66.1	-87.0	319	3	
2025-11-28T00:00	18100	72	-66.1	-87.0	331	3	
2025-11-28T00:00	18150	71	-66.4	-87.1	338	4	
2025-11-28T00:00	18200	71	-66.6	-87.1	339	5	
2025-11-28T00:00	18250	70	-67.0	-87.4	340	7	
2025-11-28T00:00	18300	70	-66.9	-87.4	342	7	
2025-11-28T00:00	18350	69	-66.7	-87.3	348	7	
2025-11-28T00:00	18400	68	-66.9	-87.4	354	6	
2025-11-28T00:00	18450	68	-67.2	-87.4	358	6	
2025-11-28T00:00	18500	67	-67.5	-87.5	3	6	
2025-11-28T00:00	18550	67	-67.8	-87.6	12	6	
2025-11-28T00:00	18600	66	-68.1	-87.8	19	7	
2025-11-28T00:00	18650	66	-67.8	-87.9	18	7	
2025-11-28T00:00	18700	65	-67.3	-87.7	9	7	
2025-11-28T00:00	18750	64	-67.4	-87.8	355	7	
2025-11-28T00:00	18800	64	-67.7	-88.0	342	7	
2025-11-28T00:00	18850	63	-67.8	-88.1	333	8	
2025-11-28T00:00	18900	63	-67.4	-88.0	332	9	
2025-11-28T00:00	18950	62	-67.1	-88.0	336	10	
2025-11-28T00:00	19000	62	-67.1	-88.1	339	10	
2025-11-28T00:00	19050	61	-66.7	-88.0	338	10	
2025-11-28T00:00	19100	61	-66.4	-87.9	331	9	
2025-11-28T00:00	19150	60	-66.4	-87.9	319	9	
2025-11-28T00:00	19200	60	-66.0	-87.8	310	9	
2025-11-28T00:00	19250	59	-65.5	-87.5	306	10	
2025-11-28T00:00	19300	59	-65.2	-87.5	305	11	
2025-11-28T00:00	19350	58	-64.8	-87.3	305	11	
2025-11-28T00:00	19400	58	-64.6	-87.2	307	10	
2025-11-28T00:00	19450	57	-64.7	-87.1	307	9	
2025-11-28T00:00	19500	57	-64.7	-87.1	302	8	
2025-11-28T00:00	19550	57	-64.8	-87.2	291	7	
2025-11-28T00:00	19600	56	-64.9	-87.2	278	7	
2025-11-28T00:00	19650	56	-65.2	-87.2	268	6	
2025-11-28T00:00	19700	55	-65.5	-87.3	266	6	
2025-11-28T00:00	19750	55	-65.8	-87.4	272	6	
2025-11-28T00:00	19800	54	-66.2	-87.5	272	6	
2025-11-28T00:00	19850	54	-66.5	-87.6	266	6	
2025-11-28T00:00	19900	53	-66.6	-87.6	260	6	
2025-11-28T00:00	19950	53	-67.1	-87.8	257	7	
2025-11-28T00:00	20000	52	-67.5	-88.0	259	7	
2025-11-28T00:00	20050	52	-67.8		265	8	
2025-11-28T00:00	20100	52	-67.6		275	8	
2025-11-28T00:00	20150	51	-67.6		285	9	
2025-11-28T00:00	20200	51	-67.7		295	8	
2025-11-28T00:00	20250	50	-67.3		303	8	
2025-11-28T00:00	20300	50	-67.2		311	8	
2025-11-28T00:00	20350	49	-67.1		316	9	
2025-11-28T00:00	20400	49	-67.3		319	10	
2025-11-28T00:00	20450	49	-67.7		321	10	
2025-11-28T00:00	20500	48	-67.9		323	11	
2025-11-28T00:00	20550	48	-67.8		322	11	
2025-11-28T00:00	20600	47	-67.8		322	11	
2025-11-28T00:00	20650	47	-67.7		324	10	
2025-11-28T00:00	20700	47	-67.7		326	10	
2025-11-28T00:00	20750	46	-67.7		326	9	
2025-11-28T00:00	20800	46	-67.7		325	8	
2025-11-28T00:00	20850	46	-67.9		322	7	
2025-11-28T00:00	20900	45	-67.9		313	5	
2025-11-28T00:00	20950	45	-67.9		295	4	
2025-11-28T00:00	21000	44	-67.5		280	4	
2025-11-28T00:00	21050	44	-67.4		278	4	
2025-11-28T00:00	21100	44	-67.2		283	5	
2025-11-28T00:00	21150	43	-67.1		285	6	
2025-11-28T00:00	21200	43	-67.0		286	7	
2025-11-28T00:00	21250	43	-66.7		289	8	
2025-11-28T00:00	21300	42	-66.7		293	9	
2025-11-28T00:00	21350	42	-66.7		297	9	
2025-11-28T00:00	21400	42	-66.8		299	9	
2025-11-28T00:00	21450	41	-66.7		298	9	
2025-11-28T00:00	21500	41	-66.7		295	9	
2025-11-28T00:00	21550	41	-67.0		293	8	
2025-11-28T00:00	21600	40	-67.3		295	8	
2025-11-28T00:00	21650	40	-67.3		302	9	
2025-11-28T00:00	21700	40	-67.5		307	10	
2025-11-28T00:00	21750	39	-67.3		308	10	
2025-11-28T00:00	21800	39	-67.1		306	9	
2025-11-28T00:00	21850	39	-67.2		306	9	
2025-11-28T00:00	21900	38	-67.3		306	8	
2025-11-28T00:00	21950	38	-67.6		303	8	
2025-11-28T00:00	22000	38	-67.7		298	8	
2025-11-28T00:00	22050	37	-67.9		298	8	
2025-11-28T00:00	22100	37	-67.8		302	8	
2025-11-28T00:00	22150	37	-67.8		301	9	
2025-11-28T00:00	22200	36	-67.5		295	10	
2025-11-28T00:00	22250	36	-66.8		289	11	
2025-11-28T00:00	22300	36	-66.2		285	12	
2025-11-28T00:00	22350	36	-66.3		282	13	
2025-11-28T00:00	22400	35	-66.5		280	14	
2025-11-28T00:00	22450	35	-66.8		278	15	
2025-11-28T00:00	22500	35	-67.0		278	15	
2025-11-28T00:00	22550	34	-66.3		279	14	
2025-11-28T00:00	22600	34	-66.0		283	13	
2025-11-28T00:00	22650	34	-66.0		288	13	
2025-11-28T00:00	22700	34	-66.1		293	12	
2025-11-28T00:00	22750	33	-66.2		296	12	
2025-11-28T00:00	22800	33	-66.2		296	12	
2025-11-28T00:00	22850	33	-65.9		295	12	
2025-11-28T00:00	22900	32	-65.9		293	12	
2025-11-28T00:00	22950	32	-65.9		289	12	
2025-11-28T00:00	23000	32	-66.0		286	11	
2025-11-28T00:00	23050	32	-66.2		280	10	
2025-11-28T00:00	23100	31	-66.4		273	9	
2025-11-28T00:00	23150	31	-66.7		264	9	
2025-11-28T00:00	23200	31	-66.8		257	10	
2025-11-28T00:00	23250	31	-67.0		252	11	
2025-11-28T00:00	23300	30	-67.3		250	11	
2025-11-28T00:00	23350	30	-67.5		252	12	
2025-11-28T00:00	23400	30	-67.1		256	13	
2025-11-28T00:00	23450	30	-66.4		261	12	
2025-11-28T00:00	23500	29	-66.6		267	11	
2025-11-28T00:00	23550	29	-66.8		274	11	
2025-11-28T00:00	23600	29	-66.7		280	10	
2025-11-28T00:00	23650	29	-67.0		283	10	
2025-11-28T00:00	23700	28	-67.1		285	9	
2025-11-28T00:00	23750	28	-67.0		286	9	
2025-11-28T00:00	23800	28	-66.9		289	9	
2025-11-28T00:00	23850	28	-66.7		289	9	
2025-11-28T00:00	23900	27	-66.5		289	10	
2025-11-28T00:00	23950	27	-66.4		287	10	
2025-11-28T00:00	24000	27	-66.4		284	10	
2025-11-28T00:00	24050	27	-66.2		279	10	
2025-11-28T00:00	24100	27	-66.1		273	10	
2025-11-28T00:00	24150	26	-66.1		266	10	
2025-11-28T00:00	24200	26	-66.0		261	11	
2025-11-28T00:00	24250	26	-66.1		260	12	
2025-11-28T00:00	24300	26	-66.4		260	14	
2025-11-28T00:00	24350	26	-66.7		261	16	
2025-11-28T00:00	24400	25	-67.0		263	17	
2025-11-28T00:00	24450	25	-67.1		264	17	
2025-11-28T00:00	24500	25	-66.7		265	16	
2025-11-28T00:00	24550	25	-66.5		266	14	
2025-11-28T00:00	24600	24	-66.6		266	13	
2025-11-28T00:00	24650	24	-66.9		266	12	
2025-11-28T00:00	24700	24	-67.1		264	12	
2025-11-28T00:00	24750	24	-66.9		261	13	
2025-11-28T00:00	24800	24	-67.0		259	14	
2025-11-28T00:00	24850	23	-67.2		258	15	
2025-11-28T00:00	24900	23	-67.4		256	16	
2025-11-28T00:00	24950	23	-67.1		255	16	
2025-11-28T00:00	25000	23	-67.1		255	16	
2025-11-28T00:00	25050	23	-67.1		255	17	
2025-11-28T00:00	25100	23	-66.9		256	17	
2025-11-28T00:00	25150	22	-66.4		258	18	
2025-11-28T00:00	25200	22	-66.3		260	19	
2025-11-28T00:00	25250	22	-66.5		262	20	
2025-11-28T00:00	25300	22	-66.8		264	20	
2025-11-28T00:00	25350	22	-67.0		266	20	
2025-11-28T00:00	25400	21	-67.2		268	19	
2025-11-28T00:00	25450	21	-67.2		269	19	
2025-11-28T00:00	25500	21	-67.1		270	19	
2025-11-28T00:00	25550	21	-67.3		272	19	
2025-11-28T00:00	25600	21	-67.4		273	20	
2025-11-28T00:00	25650	21	-67.5		274	20	
2025-11-28T00:00	25700	20	-67.5		274	20	
2025-11-28T00:00	25750	20	-66.7		273	20	
2025-11-28T00:00	25800	20	-65.8		272	19	
2025-11-28T00:00	25850	20	-65.8		272	19	
2025-11-28T00:00	25900	20	-66.0		270	19	
2025-11-28T00:00	25950	20	-66.0		267	19	
2025-11-28T00:00	26000	19	-65.8		264	19	
2025-11-28T00:00	26050	19	-66.1		262	20	
2025-11-28T00:00	26100	19	-66.3		260	20	
2025-11-28T00:00	26150	19	-66.4		258	20	
2025-11-28T00:00	26200	19	-66.5		257	21	
2025-11-28T00:00	26250	19	-66.3		259	21	
2025-11-28T00:00	26300	18	-65.6		262	21	
2025-11-28T00:00	26350	18	-65.0		266	21	
2025-11-28T00:00	26400	18	-65.3		271	21	
2025-11-28T00:00	26450	18	-65.5		275	20	
2025-11-28T00:00	26500	18	-65.5		276	20	
2025-11-28T00:00	26550	18	-65.3		275	20	
2025-11-28T00:00	26600	18	-65.0		275	20	
2025-11-28T00:00	26650	17	-65.0		276	21	
2025-11-28T00:00	26700	17	-64.6		277	22	
2025-11-28T00:00	26750	17	-64.5		277	22	
2025-11-28T00:00	26800	17	-64.6		276	21	
2025-11-28T00:00	26850	17	-64.6		273	21	
2025-11-28T00:00	26900	17	-64.7		269	20	
2025-11-28T00:00	26950	17	-64.8		264	20	
2025-11-28T00:00	27000	16	-64.7		258	20	
2025-11-28T00:00	27050	16	-64.8		255	21	
2025-11-28T00:00	27100	16	-64.7		252	21	
2025-11-28T00:00	27150	16	-65.0		251	22	
2025-11-28T00:00	27200	16	-65.4		251	23	
2025-11-28T00:00	27250	16	-65.1		250	24	
2025-11-28T00:00	27300	16	-64.8		250	25	
2025-11-28T00:00	27350	16	-64.7		251	25	
2025-11-28T00:00	27400	15	-64.8		250	25	
2025-11-28T00:00	27450	15	-64.8		250	25	
2025-11-28T00:00	27500	15	-64.7		248	25	
2025-11-28T00:00	27550	15	-64.3		247	25	
2025-11-28T00:00	27600	15	-64.6		247	26	
2025-11-28T00:00	27650	15	-64.9		247	26	
2025-11-28T00:00	27700	15	-65.2		248	25	
2025-11-28T00:00	27750	15	-65.2		248	25	
2025-11-28T00:00	27800	14	-65.4		250	24	
2025-11-28T00:00	27850	14	-65.6		252	24	
2025-11-28T00:00	27900	14	-65.2		255	25	
2025-11-28T00:00	27950	14	-64.7		256	26	
2025-11-28T00:00	28000	14	-64.5		258	27	
2025-11-28T00:00	28050	14	-64.3		260	28	
2025-11-28T00:00	28100	14	-64.3		262	29	
2025-11-28T00:00	28150	14	-64.0		262	29	
2025-11-28T00:00	28200	14	-64.0		262	28	
2025-11-28T00:00	28250	13	-63.7		261	28	
2025-11-28T00:00	28300	13	-63.5		259	28	
2025-11-28T00:00	28350	13	-63.5		259	28	
2025-11-28T00:00	28400	13	-63.4		259	28	
2025-11-28T00:00	28450	13	-63.1		259	28	
2025-11-28T00:00	28500	13	-63.2		260	28	
2025-11-28T00:00	28550	13	-63.3		261	28	
2025-11-28T00:00	28600	13	-63.0		260	28	
2025-11-28T00:00	28650	13	-62.6		259	29	
2025-11-28T00:00	28700	12	-62.4		258	29	
2025-11-28T00:00	28750	12	-62.0		257	30	
2025-11-28T00:00	28800	12	-61.7		256	30	
2025-11-28T00:00	28850	12	-62.0		255	30	
2025-11-28T00:00	28900	12	-62.3		254	30	
2025-11-28T00:00	28950	12	-62.6		253	31	
2025-11-28T00:00	29000	12	-62.9		252	32	
2025-11-28T00:00	29050	12	-63.1		251	32	
2025-11-28T00:00	29100	12	-62.9		250	33	
2025-11-28T00:00	29150	12	-62.6		250	33	
2025-11-28T00:00	29200	12	-62.7		251	33	
2025-11-28T00:00	29250	11	-62.4		252	32	
2025-11-28T00:00	29300	11	-62.4		254	31	
2025-11-28T00:00	29350	11	-62.6		256	31	
2025-11-28T00:00	29400	11	-62.6		259	31	
2025-11-28T00:00	29450	11	-62.8		261	32	
2025-11-28T00:00	29500	11	-62.6		263	33	
2025-11-28T00:00	29550	11	-62.3		264	35	
2025-11-28T00:00	29600	11	-61.8		265	36	
2025-11-28T00:00	29650	11	-61.3		265	37	
2025-11-28T00:00	29700	11	-61.2		265	38	
2025-11-28T00:00	29750	11	-61.1		265	38	
2025-11-28T00:00	29800	10	-60.9		265	38	
2025-11-28T00:00	29850	10	-60.5		265	38	
2025-11-28T00:00	29900	10	-60.2		265	38	
2025-11-28T00:00	29950	10	-60.2		265	38	
2025-11-28T00:00	30000	10	-60.0		266	38	
2025-11-28T00:00	30050	10	-60.2		267	38	
2025-11-28T00:00	30100	10	-60.6		267	38	
2025-11-28T00:00	30150	10	-61.0		268	38	
2025-11-28T00:00	30200	10	-61.5		269	37	
2025-11-28T00:00	30250	10	-61.8		269	36	
2025-11-28T00:00	30300	10	-62.0		270	35	
2025-11-28T00:00	30350	10	-62.3		271	35	
2025-11-28T00:00	30400	9	-62.4		272	35	
2025-11-28T00:00	30450	9	-62.1		273	36	
2025-11-28T00:00	30500	9	-61.9		272	36	
2025-11-28T00:00	30550	9	-61.7		271	36	
2025-11-28T00:00	30600	9	-61.5		270	36	
2025-11-28T00:00	30650	9	-61.3		268	36	
2025-11-28T00:00	30700	9	-61.0		266	36	
2025-11-28T00:00	30750	9	-60.9		265	38	
2025-11-28T00:00	30800	9	-60.8		264	40	
2025-11-28T00:00	30850	9	-60.8		264	41	
2025-11-28T00:00	30900	9	-60.7		264	43	
2025-11-28T00:00	30950	9	-60.7		264	44	
2025-11-28T00:00	31000	9	-60.9		264	45	
2025-11-28T00:00	31050	9	-61.1		263	46	
2025-11-28T00:00	31100	8	-61.4		263	47	
2025-11-28T00:00	31150	8	-61.1		263	47	
2025-11-28T00:00	31200	8	-61.3		264	47	
2025-11-28T00:00	31250	8	-61.5		264	47	
2025-11-28T00:00	31300	8	-61.6		265	47	
2025-11-28T00:00	31350	8	-61.3		266	46	
2025-11-28T00:00	31400	8	-61.3		267	45	
2025-11-28T00:00	31450	8	-61.4		267	44	
2025-11-28T00:00	31500	8	-61.5		266	44	
2025-11-28T00:00	31550	8	-61.0		265	43	
2025-11-28T00:00	31600	8	-60.7		264	42	
2025-11-28T00:00	31650	8	-60.6		263	42	
2025-11-28T00:00	31700	8	-60.5		263	42	
2025-11-28T00:00	31750	8	-60.2		263	43	
2025-11-28T00:00	31800	8	-59.3		263	44	
2025-11-28T00:00	31850	8	-58.6		263	45	
2025-11-28T00:00	31900	7	-58.4		263	45	
2025-11-28T00:00	31950	7	-57.9		264	46	
2025-11-28T00:00	32000	7	-57.5		264	46	
2025-11-28T00:00	32050	7	-57.1		264	45	
2025-11-28T00:00	32100	7	-56.9		264	45	
2025-11-28T00:00	32150	7	-57.1		264	44	
2025-11-28T00:00	32200	7	-56.8		264	45	
2025-11-28T00:00	32250	7	-56.8		265	46	
2025-11-28T00:00	32300	7	-56.7		265	46	
2025-11-28T00:00	32350	7	-56.8		265	46	
2025-11-28T00:00	32400	7	-56.5		266	46	
2025-11-28T00:00	32450	7	-56.1		266	47	
2025-11-28T00:00	32500	7	-55.9		267	48	
2025-11-28T00:00	32550	7	-56.2		267	48	
2025-11-28T00:00	32600	7	-56.5		267	49	
2025-11-28T00:00	32650	7	-56.9		268	50	
2025-11-28T00:00	32700	7	-57.2		269	50	
2025-11-28T00:00	32750	7	-57.1		270	51	
2025-11-28T00:00	32800	6	-57.0		271	51	
2025-11-28T00:00	32850	6	-57.0		272	51	
2025-11-28T00:00	32900	6	-57.1		273	50	
2025-11-28T00:00	32950	6	-57.1		274	50	
2025-11-28T00:00	33000	6	-57.0		273	49	
2025-11-28T00:00	33050	6	-57.1		272	48	
2025-11-28T00:00	33100	6	-56.4		270	47	
2025-11-28T00:00	33150	6	-56.1		267	46	
2025-11-28T00:00	33200	6	-55.5		265	46	
2025-11-28T00:00	33250	6	-54.9		262	45	
2025-11-28T00:00	33300	6	-54.1		260	44	
2025-11-28T00:00	33350	6	-53.0		258	45	
2025-11-28T00:00	33400	6	-52.3		258	47	
2025-11-28T00:00	33450	6	-51.9		259	49	
2025-11-28T00:00	33500	6	-51.6		260	50	
2025-11-28T00:00	33550	6	-51.5		260	51	
2025-11-28T00:00	33600	6	-51.2		260	52	
2025-11-28T00:00	33650	6	-51.1		260	51	
2025-11-28T12:00	491	963	2.5	-1.5	279	0	
2025-11-28T12:00	501	963	2.2	-1.7	71	0	
2025-11-28T12:00	520	960	2.2	-1.9	181	0	
2025-11-28T12:00	540	957	2.0	-2.1	180	1	
2025-11-28T12:00	560	955	1.8	-2.1	183	1	
2025-11-28T12:00	580	953	1.6	-2.2	188	1	
2025-11-28T12:00	600	951	1.4	-2.1	195	1	
2025-11-28T12:00	620	948	1.1	-2.1	207	1	
2025-11-28T12:00	640	946	1.0	-2.2	214	1	
2025-11-28T12:00	660	944	0.6	-2.4	224	1	
2025-11-28T12:00	680	941	0.5	-2.4	226	1	
2025-11-28T12:00	700	939	0.4	-2.4	229	1	
2025-11-28T12:00	720	937	0.1	-2.8	229	1	
2025-11-28T12:00	740	934	0.1	-3.0	230	1	
2025-11-28T12:00	760	932	-0.1	-3.3	233	1	
2025-11-28T12:00	780	930	-0.3	-3.7	237	1	
2025-11-28T12:00	800	927	-0.2	-4.5	242	1	
2025-11-28T12:00	820	925	-0.2	-4.8	247	1	
2025-11-28T12:00	840	923	-0.2	-5.1	249	1	
2025-11-28T12:00	860	920	-0.2	-5.0	248	2	
2025-11-28T12:00	880	918	-0.3	-4.8	246	2	
2025-11-28T12:00	900	916	-0.2	-5.8	242	2	
2025-11-28T12:00	920	914	-0.1	-6.8	238	2	
2025-11-28T12:00	940	911	-0.1	-7.5	229	1	
2025-11-28T12:00	960	909	0.2	-8.7	210	1	
2025-11-28T12:00	980	907	0.3	-9.6	180	1	
2025-11-28T12:00	1000	904	1.0	-11.8	145	1	
2025-11-28T12:00	1020	902	1.5	-12.8	122	1	
2025-11-28T12:00	1040	900	1.5	-13.4	108	2	
2025-11-28T12:00	1060	898	1.9	-14.7	106	2	
2025-11-28T12:00	1080	895	2.1	-15.8	102	2	
2025-11-28T12:00	1100	893	2.3	-16.6	97	2	
2025-11-28T12:00	1120	891	2.6	-16.3	96	2	
2025-11-28T12:00	1140	889	2.8	-13.6	89	3	
2025-11-28T12:00	1160	887	3.0	-13.1	88	3	
2025-11-28T12:00	1180	884	2.8	-10.2	75	3	
2025-11-28T12:00	1200	882	2.9	-5.9	72	3	
2025-11-28T12:00	1220	880	2.5	-1.8	63	3	
2025-11-28T12:00	1240	878	2.4	-1.2	60	3	
2025-11-28T12:00	1260	876	2.3	-0.1	53	3	
2025-11-28T12:00	1280	874	2.3	-0.6	50	3	
2025-11-28T12:00	1300	872	2.3	-0.4	43	3	
2025-11-28T12:00	1320	869	2.2	0.1	40	3	
2025-11-28T12:00	1340	867	2.2	0.7	35	4	
2025-11-28T12:00	1360	865	2.2	0.9	32	4	
2025-11-28T12:00	1380	863	2.2	1.3	30	4	
2025-11-28T12:00	1400	861	2.3	1.5	29	4	
2025-11-28T12:00	1420	858	2.3	1.3	28	4	
2025-11-28T12:00	1440	856	2.2	1.2	27	5	
2025-11-28T12:00	1460	854	2.1	1.4	27	5	
2025-11-28T12:00	1480	852	2.1	1.6	27	5	
2025-11-28T12:00	1500	850	2.1	1.5	28	5	
2025-11-28T12:00	1520	848	2.1	1.2	28	5	
2025-11-28T12:00	1540	846	2.0	1.0	29	5	
2025-11-28T12:00	1560	844	1.9	0.4	30	5	
2025-11-28T12:00	1580	842	1.9	0.0	31	5	
2025-11-28T12:00	1600	840	1.8	0.5	32	5	
2025-11-28T12:00	1620	837	1.6	0.7	33	5	
2025-11-28T12:00	1640	835	1.6	0.5	34	5	
2025-11-28T12:00	1660	833	1.4	0.6	35	5	
2025-11-28T12:00	1680	832	1.3	0.5	36	5	
2025-11-28T12:00	1700	829	1.2	0.5	37	5	
2025-11-28T12:00	1720	827	1.1	0.5	37	5	
2025-11-28T12:00	1740	825	1.0	0.2	36	5	
2025-11-28T12:00	1760	823	1.0	0.1	36	5	
2025-11-28T12:00	1780	821	0.9	0.1	35	5	
2025-11-28T12:00	1800	819	0.8	-0.2	34	5	
2025-11-28T12:00	1820	817	0.8	-0.3	33	5	
2025-11-28T12:00	1840	815	0.7	-0.4	32	6	
2025-11-28T12:00	1860	813	0.6	-0.8	32	6	
2025-11-28T12:00	1880	811	0.6	-1.2	32	6	
2025-11-28T12:00	1900	809	0.6	-1.2	33	6	
2025-11-28T12:00	1920	807	0.7	-1.4	35	6	
2025-11-28T12:00	1940	805	0.6	-1.6	37	6	
2025-11-28T12:00	1960	803	0.5	-1.7	39	6	
2025-11-28T12:00	1980	801	0.3	-2.2	41	6	
2025-11-28T12:00	2000	799	0.2	-2.7	43	6	
2025-11-28T12:00	2020	797	0.3	-4.8	45	6	
2025-11-28T12:00	2040	795	0.3	-6.3	47	5	
2025-11-28T12:00	2060	793	0.2	-5.0	49	5	
2025-11-28T12:00	2080	791	0.1	-7.0	51	5	
2025-11-28T12:00	2100	789	0.1	-9.7	52	6	
2025-11-28T12:00	2120	787	0.1	-14.7	54	6	
2025-11-28T12:00	2140	785	0.0	-5.3	55	6	
2025-11-28T12:00	2160	783	-0.3	-3.1	56	6	
2025-11-28T12:00	2180	781	-0.5	-2.4	57	6	
2025-11-28T12:00	2200	779	-0.6	-2.5	58	6	
2025-11-28T12:00	2220	777	-0.7	-2.6	58	6	
2025-11-28T12:00	2240	775	-0.9	-2.5	58	6	
2025-11-28T12:00	2260	773	-1.0	-2.5	59	6	
2025-11-28T12:00	2280	771	-1.1	-2.5	60	6	
2025-11-28T12:00	2300	769	-1.2	-2.6	60	6	
2025-11-28T12:00	2320	768	-1.2	-2.8	61	5	
2025-11-28T12:00	2340	766	-1.2	-3.2	62	5	
2025-11-28T12:00	2360	764	-1.0	-4.6	63	5	
2025-11-28T12:00	2380	762	-1.0	-5.2	64	5	
2025-11-28T12:00	2400	760	-1.1	-5.9	64	5	
2025-11-28T12:00	2420	758	-1.1	-6.9	64	5	
2025-11-28T12:00	2440	756	-1.2	-6.5	65	5	
2025-11-28T12:00	2460	754	-1.2	-6.3	64	5	
2025-11-28T12:00	2480	752	-1.4	-6.3	64	5	
2025-11-28T12:00	2500	750	-1.5	-5.6	64	5	
2025-11-28T12:00	2520	749	-1.6	-5.1	63	5	
2025-11-28T12:00	2540	747	-1.6	-4.7	63	5	
2025-11-28T12:00	2560	745	-1.6	-4.4	62	5	
2025-11-28T12:00	2580	743	-1.6	-4.7	64	5	
2025-11-28T12:00	2600	741	-1.3	-5.5	65	5	
2025-11-28T12:00	2620	739	-1.3	-6.2	66	5	
2025-11-28T12:00	2640	738	-1.4	-6.7	68	5	
2025-11-28T12:00	2660	736	-1.5	-7.3	70	5	
2025-11-28T12:00	2680	734	-1.6	-7.4	72	5	
2025-11-28T12:00	2700	732	-1.7	-7.5	71	5	
2025-11-28T12:00	2720	730	-1.8	-7.6	71	5	
2025-11-28T12:00	2740	728	-1.9	-7.5	66	5	
2025-11-28T12:00	2760	726	-1.9	-7.5	65	5	
2025-11-28T12:00	2780	725	-2.1	-7.3	57	5	
2025-11-28T12:00	2800	723	-2.3	-7.3	55	5	
2025-11-28T12:00	2820	721	-2.5	-7.2	50	6	
2025-11-28T12:00	2840	719	-2.6	-7.0	48	6	
2025-11-28T12:00	2860	717	-2.8	-6.7	44	6	
2025-11-28T12:00	2880	715	-2.9	-6.6	45	6	
2025-11-28T12:00	2900	714	-3.1	-6.3	43	6	
2025-11-28T12:00	2920	712	-3.3	-6.1	41	6	
2025-11-28T12:00	2940	710	-3.4	-6.2	42	6	
2025-11-28T12:00	2960	708	-3.5	-6.1	41	6	
2025-11-28T12:00	2980	707	-3.5	-6.3	41	6	
2025-11-28T12:00	3000	705	-3.6	-6.4	42	6	
2025-11-28T12:00	3020	703	-3.7	-6.5	43	6	
2025-11-28T12:00	3040	701	-3.9	-6.5	45	6	
2025-11-28T12:00	3060	699	-4.0	-6.7	44	7	
2025-11-28T12:00	3080	698	-4.1	-7.0	46	7	
2025-11-28T12:00	3100	696	-4.2	-7.1	45	6	
2025-11-28T12:00	3120	694	-4.4	-7.1	44	6	
2025-11-28T12:00	3140	692	-4.6	-7.2	44	6	
2025-11-28T12:00	3160	690	-4.7	-7.2	44	6	
2025-11-28T12:00	3180	689	-4.9	-7.2	43	6	
2025-11-28T12:00	3200	687	-5.0	-7.4	42	6	
2025-11-28T12:00	3220	685	-5.2	-7.6	40	6	
2025-11-28T12:00	3240	683	-5.3	-7.6	39	7	
2025-11-28T12:00	3260	682	-5.5	-7.7	39	7	
2025-11-28T12:00	3280	680	-5.6	-7.7	38	7	
2025-11-28T12:00	3300	678	-5.7	-7.8	37	7	
2025-11-28T12:00	3320	677	-5.9	-8.0	37	7	
2025-11-28T12:00	3340	675	-6.0	-8.1	36	8	
2025-11-28T12:00	3360	673	-6.2	-8.1	36	8	
2025-11-28T12:00	3380	671	-6.4	-8.1	35	8	
2025-11-28T12:00	3400	670	-6.5	-8.0	34	8	
2025-11-28T12:00	3420	668	-6.7	-8.1	33	8	
2025-11-28T12:00	3440	666	-6.9	-8.2	33	8	
2025-11-28T12:00	3460	664	-7.0	-8.3	33	8	
2025-11-28T12:00	3480	663	-7.1	-8.5	34	8	
2025-11-28T12:00	3500	661	-7.3	-8.4	32	8	
2025-11-28T12:00	3520	660	-7.3	-8.7	33	8	
2025-11-28T12:00	3540	658	-7.4	-8.9	35	8	
2025-11-28T12:00	3560	656	-7.6	-8.9	33	8	
2025-11-28T12:00	3580	655	-7.7	-9.1	36	8	
2025-11-28T12:00	3600	653	-7.9	-9.2	36	8	
2025-11-28T12:00	3620	651	-8.0	-9.3	37	8	
2025-11-28T12:00	3640	649	-8.2	-9.4	38	8	
2025-11-28T12:00	3660	648	-8.3	-9.4	40	8	
2025-11-28T12:00	3680	646	-8.5	-9.5	43	8	
2025-11-28T12:00	3700	644	-8.7	-9.5	45	8	
2025-11-28T12:00	3720	643	-8.9	-9.7	46	8	
2025-11-28T12:00	3740	641	-8.9	-9.8	47	8	
2025-11-28T12:00	3760	640	-9.0	-10.0	47	8	
2025-11-28T12:00	3780	638	-9.2	-10.2	47	8	
2025-11-28T12:00	3800	636	-9.3	-10.4	47	8	
2025-11-28T12:00	3820	635	-9.4	-10.6	48	8	
2025-11-28T12:00	3840	633	-9.6	-10.9	48	8	
2025-11-28T12:00	3860	631	-9.7	-11.1	47	8	
2025-11-28T12:00	3880	630	-9.8	-11.4	46	8	
2025-11-28T12:00	3900	628	-9.8	-11.7	46	8	
2025-11-28T12:00	3920	626	-10.0	-11.7	46	8	
2025-11-28T12:00	3940	625	-10.1	-12.0	44	7	
2025-11-28T12:00	3960	623	-10.3	-12.3	43	7	
2025-11-28T12:00	3980	621	-10.4	-12.5	42	7	
2025-11-28T12:00	4000	620	-10.5	-12.6	40	7	
2025-11-28T12:00	4020	618	-10.6	-12.7	40	7	
2025-11-28T12:00	4040	617	-10.8	-12.9	39	6	
2025-11-28T12:00	4060	615	-10.9	-13.0	38	6	
2025-11-28T12:00	4080	613	-11.1	-13.2	38	7	
2025-11-28T12:00	4100	612	-11.2	-13.3	38	6	
2025-11-28T12:00	4120	610	-11.4	-13.3	40	6	
2025-11-28T12:00	4140	609	-11.5	-13.4	40	6	
2025-11-28T12:00	4160	607	-11.7	-13.5	44	6	
2025-11-28T12:00	4180	606	-11.9	-13.6	44	6	
2025-11-28T12:00	4200	604	-12.0	-13.7	42	5	
2025-11-28T12:00	4220	602	-12.1	-13.8	42	5	
2025-11-28T12:00	4240	601	-12.3	-13.9	39	5	
2025-11-28T12:00	4260	599	-12.4	-14.0	36	5	
2025-11-28T12:00	4280	598	-12.6	-14.1	31	4	
2025-11-28T12:00	4300	596	-12.8	-14.2	26	4	
2025-11-28T12:00	4320	594	-12.9	-14.2	19	4	
2025-11-28T12:00	4340	593	-13.1	-14.2	10	4	
2025-11-28T12:00	4360	592	-13.1	-14.4	9	4	
2025-11-28T12:00	4380	590	-13.2	-14.5	9	5	
2025-11-28T12:00	4400	588	-13.3	-14.5	3	5	
2025-11-28T12:00	4420	587	-13.4	-14.5	5	5	
2025-11-28T12:00	4440	585	-13.5	-14.5	4	5	
2025-11-28T12:00	4460	584	-13.4	-14.6	12	5	
2025-11-28T12:00	4480	582	-13.1	-15.0	11	5	
2025-11-28T12:00	4500	581	-12.8	-15.3	18	5	
2025-11-28T12:00	4520	579	-12.8	-15.5	22	4	
2025-11-28T12:00	4540	578	-12.9	-15.6	26	4	
2025-11-28T12:00	4560	576	-12.9	-15.8	32	5	
2025-11-28T12:00	4580	575	-13.0	-16.0	31	4	
2025-11-28T12:00	4600	573	-13.0	-16.0	35	4	
2025-11-28T12:00	4620	572	-13.1	-16.0	36	4	
2025-11-28T12:00	4640	570	-13.2	-16.0	36	5	
2025-11-28T12:00	4660	569	-13.3	-16.0	36	5	
2025-11-28T12:00	4680	567	-13.5	-16.0	35	5	
2025-11-28T12:00	4700	566	-13.7	-15.9	33	5	
2025-11-28T12:00	4720	564	-13.9	-15.9	30	5	
2025-11-28T12:00	4740	563	-14.1	-15.9	27	5	
2025-11-28T12:00	4760	561	-14.3	-16.0	24	6	
2025-11-28T12:00	4780	560	-14.5	-16.0	22	6	
2025-11-28T12:00	4800	558	-14.7	-16.0	20	6	
2025-11-28T12:00	4820	557	-14.8	-15.9	18	6	
2025-11-28T12:00	4840	555	-15.0	-16.0	16	6	
2025-11-28T12:00	4860	554	-15.2	-16.1	14	7	
2025-11-28T12:00	4880	552	-15.4	-16.1	13	7	
2025-11-28T12:00	4900	551	-15.5	-16.2	11	7	
2025-11-28T12:00	4920	549	-15.5	-16.2	8	7	
2025-11-28T12:00	4940	548	-15.3	-16.6	8	8	
2025-11-28T12:00	4960	546	-15.3	-16.8	8	8	
2025-11-28T12:00	4980	545	-15.3	-16.9	7	7	
2025-11-28T12:00	5000	544	-15.2	-17.3	9	7	
2025-11-28T12:00	5020	542	-15.3	-17.6	9	7	
2025-11-28T12:00	5040	541	-15.4	-17.9	10	6	
2025-11-28T12:00	5060	539	-15.4	-18.2	12	6	
2025-11-28T12:00	5080	538	-15.5	-18.4	14	6	
2025-11-28T12:00	5100	537	-15.3	-19.1	15	6	
2025-11-28T12:00	5120	535	-15.5	-19.6	17	6	
2025-11-28T12:00	5140	534	-15.6	-20.0	18	6	
2025-11-28T12:00	5160	532	-15.8	-20.2	18	6	
2025-11-28T12:00	5180	531	-15.8	-20.6	19	7	
2025-11-28T12:00	5200	530	-15.9	-20.9	19	7	
2025-11-28T12:00	5220	528	-16.1	-21.0	17	7	
2025-11-28T12:00	5240	527	-16.2	-21.1	16	6	
2025-11-28T12:00	5260	525	-16.3	-21.4	17	7	
2025-11-28T12:00	5280	524	-16.4	-21.6	17	7	
2025-11-28T12:00	5300	522	-16.6	-21.5	17	7	
2025-11-28T12:00	5320	521	-16.7	-21.7	17	7	
2025-11-28T12:00	5340	520	-16.8	-21.9	17	7	
2025-11-28T12:00	5360	518	-17.0	-21.9	17	7	
2025-11-28T12:00	5380	517	-17.2	-21.8	17	7	
2025-11-28T12:00	5400	516	-17.3	-22.3	17	8	
2025-11-28T12:00	5420	514	-17.5	-22.4	17	8	
2025-11-28T12:00	5440	513	-17.7	-22.4	17	8	
2025-11-28T12:00	5460	511	-17.9	-22.7	17	8	
2025-11-28T12:00	5480	510	-18.0	-22.8	18	9	
2025-11-28T12:00	5500	509	-18.2	-22.5	18	9	
2025-11-28T12:00	5520	507	-18.4	-22.6	18	9	
2025-11-28T12:00	5540	506	-18.5	-22.8	19	9	
2025-11-28T12:00	5560	504	-18.7	-23.0	18	9	
2025-11-28T12:00	5580	503	-18.8	-23.1	18	9	
2025-11-28T12:00	5600	502	-18.9	-23.3	20	9	
2025-11-28T12:00	5620	500	-19.2	-23.3	18	9	
2025-11-28T12:00	5640	499	-19.3	-23.4	19	9	
2025-11-28T12:00	5660	498	-19.5	-23.5	19	9	
2025-11-28T12:00	5680	497	-19.5	-23.6	21	9	
2025-11-28T12:00	5700	495	-19.9	-23.7	20	9	
2025-11-28T12:00	5720	494	-20.1	-23.8	20	9	
2025-11-28T12:00	5740	493	-20.2	-24.0	20	9	
2025-11-28T12:00	5760	491	-20.3	-24.1	21	9	
2025-11-28T12:00	5780	490	-20.4	-24.5	22	9	
2025-11-28T12:00	5800	489	-20.6	-25.2	22	9	
2025-11-28T12:00	5820	487	-20.7	-25.9	22	10	
2025-11-28T12:00	5840	486	-20.9	-26.5	24	10	
2025-11-28T12:00	5860	485	-21.0	-26.4	25	10	
2025-11-28T12:00	5880	483	-21.2	-25.6	27	10	
2025-11-28T12:00	5900	482	-21.3	-25.2	30	11	
2025-11-28T12:00	5920	481	-21.4	-26.4	31	11	
2025-11-28T12:00	5940	479	-21.5	-26.8	31	11	
2025-11-28T12:00	5960	478	-21.7	-26.9	31	11	
2025-11-28T12:00	5980	477	-21.8	-27.3	32	11	
2025-11-28T12:00	6000	476	-22.0	-27.7	31	11	
2025-11-28T12:00	6020	474	-22.1	-28.2	31	10	
2025-11-28T12:00	6040	473	-22.2	-27.6	31	10	
2025-11-28T12:00	6060	472	-22.1	-26.7	30	10	
2025-11-28T12:00	6080	470	-22.0	-26.7	29	9	
2025-11-28T12:00	6100	469	-21.9	-26.9	28	9	
2025-11-28T12:00	6120	468	-21.8	-27.3	28	9	
2025-11-28T12:00	6140	467	-22.0	-27.0	28	10	
2025-11-28T12:00	6160	465	-22.1	-27.0	27	10	
2025-11-28T12:00	6180	464	-22.2	-27.3	27	9	
2025-11-28T12:00	6200	463	-22.3	-27.6	27	9	
2025-11-28T12:00	6220	462	-22.5	-27.5	26	9	
2025-11-28T12:00	6240	460	-22.5	-27.8	26	9	
2025-11-28T12:00	6260	459	-22.6	-27.8	25	8	
2025-11-28T12:00	6280	458	-22.7	-28.1	25	8	
2025-11-28T12:00	6300	456	-22.9	-28.4	25	7	
2025-11-28T12:00	6320	455	-23.0	-28.5	25	7	
2025-11-28T12:00	6340	454	-23.1	-29.7	24	7	
2025-11-28T12:00	6360	453	-23.2	-29.9	22	6	
2025-11-28T12:00	6380	452	-23.4	-30.3	21	7	
2025-11-28T12:00	6400	450	-23.5	-30.9	19	7	
2025-11-28T12:00	6420	449	-23.7	-31.2	19	7	
2025-11-28T12:00	6440	448	-23.8	-31.9	21	8	
2025-11-28T12:00	6460	447	-23.7	-32.1	23	8	
2025-11-28T12:00	6480	445	-23.8	-32.1	23	8	
2025-11-28T12:00	6500	444	-23.9	-32.2	23	8	
2025-11-28T12:00	6520	443	-23.9	-32.0	22	9	
2025-11-28T12:00	6540	442	-24.0	-32.1	22	9	
2025-11-28T12:00	6560	441	-24.1	-32.1	22	10	
2025-11-28T12:00	6580	439	-24.2	-32.2	22	10	
2025-11-28T12:00	6600	438	-24.3	-32.3	22	10	
2025-11-28T12:00	6620	437	-24.4	-32.2	20	10	
2025-11-28T12:00	6640	436	-24.6	-32.3	19	10	
2025-11-28T12:00	6660	435	-24.7	-32.5	18	10	
2025-11-28T12:00	6680	434	-24.7	-33.0	17	11	
2025-11-28T12:00	6700	432	-24.8	-33.1	16	11	
2025-11-28T12:00	6720	431	-24.9	-33.2	15	11	
2025-11-28T12:00	6740	430	-25.1	-33.5	14	11	
2025-11-28T12:00	6760	429	-25.3	-33.7	14	11	
2025-11-28T12:00	6780	428	-25.5	-33.9	13	11	
2025-11-28T12:00	6800	427	-25.7	-33.9	11	10	
2025-11-28T12:00	6820	425	-25.8	-34.1	3	9	
2025-11-28T12:00	6840	424	-25.9	-34.6	360	9	
2025-11-28T12:00	6860	423	-26.0	-34.6	358	10	
2025-11-28T12:00	6880	421	-26.2	-34.7	356	10	
2025-11-28T12:00	6900	420	-26.4	-34.8	355	11	
2025-11-28T12:00	6920	419	-26.6	-34.6	354	11	
2025-11-28T12:00	6940	418	-26.7	-34.4	353	12	
2025-11-28T12:00	6960	417	-26.8	-33.9	352	12	
2025-11-28T12:00	6980	415	-26.9	-33.2	352	12	
2025-11-28T12:00	7000	414	-27.0	-33.5	351	12	
2025-11-28T12:00	7020	413	-27.1	-33.7	352	12	
2025-11-28T12:00	7040	412	-27.2	-33.9	352	12	
2025-11-28T12:00	7060	411	-27.3	-34.7	353	12	
2025-11-28T12:00	7080	410	-27.4	-35.0	353	12	
2025-11-28T12:00	7100	409	-27.5	-34.9	354	12	
2025-11-28T12:00	7120	407	-27.7	-34.9	354	12	
2025-11-28T12:00	7140	406	-27.9	-34.8	355	12	
2025-11-28T12:00	7160	405	-28.1	-34.8	355	12	
2025-11-28T12:00	7180	404	-28.3	-34.8	356	12	
2025-11-28T12:00	7200	403	-28.5	-35.0	357	12	
2025-11-28T12:00	7220	402	-28.6	-35.4	358	13	
2025-11-28T12:00	7240	401	-28.7	-36.0	359	13	
2025-11-28T12:00	7260	400	-28.8	-36.5	359	13	
2025-11-28T12:00	7280	399	-28.9	-37.1	359	13	
2025-11-28T12:00	7300	397	-29.0	-37.6	359	13	
2025-11-28T12:00	7320	396	-29.1	-38.3	358	14	
2025-11-28T12:00	7340	395	-29.2	-38.8	358	14	
2025-11-28T12:00	7360	394	-29.4	-38.9	357	14	
2025-11-28T12:00	7380	393	-29.6	-39.0	357	14	
2025-11-28T12:00	7400	392	-29.7	-39.2	357	14	
2025-11-28T12:00	7420	391	-29.9	-39.3	356	15	
2025-11-28T12:00	7440	390	-30.1	-39.5	356	15	
2025-11-28T12:00	7460	389	-30.2	-39.3	356	15	
2025-11-28T12:00	7480	387	-30.4	-39.5	356	16	
2025-11-28T12:00	7500	386	-30.5	-40.0	355	16	
2025-11-28T12:00	7520	385	-30.7	-39.9	355	16	
2025-11-28T12:00	7540	384	-30.8	-39.9	355	16	
2025-11-28T12:00	7560	383	-31.0	-39.7	355	16	
2025-11-28T12:00	7580	382	-31.1	-39.8	355	16	
2025-11-28T12:00	7600	381	-31.3	-39.8	355	16	
2025-11-28T12:00	7620	380	-31.5	-39.5	356	15	
2025-11-28T12:00	7640	379	-31.7	-39.3	356	15	
2025-11-28T12:00	7660	378	-31.9	-39.2	357	15	
2025-11-28T12:00	7680	377	-32.1	-38.9	357	15	
2025-11-28T12:00	7700	376	-32.3	-38.4	357	15	
2025-11-28T12:00	7720	375	-32.4	-37.5	358	16	
2025-11-28T12:00	7740	373	-32.5	-38.3	357	16	
2025-11-28T12:00	7760	372	-32.7	-38.3	357	16	
2025-11-28T12:00	7780	371	-32.8	-40.5	357	16	
2025-11-28T12:00	7800	370	-32.8	-43.4	357	17	
2025-11-28T12:00	7820	369	-33.0	-43.4	357	17	
2025-11-28T12:00	7840	368	-33.2	-43.8	357	17	
2025-11-28T12:00	7860	367	-33.3	-43.8	357	17	
2025-11-28T12:00	7880	366	-33.5	-43.7	356	17	
2025-11-28T12:00	7900	365	-33.8	-44.2	356	16	
2025-11-28T12:00	7920	364	-33.9	-44.8	356	16	
2025-11-28T12:00	7940	363	-34.1	-45.0	355	16	
2025-11-28T12:00	7960	362	-34.3	-45.1	355	17	
2025-11-28T12:00	7980	361	-34.4	-45.1	355	17	
2025-11-28T12:00	8000	360	-34.6	-45.6	354	17	
2025-11-28T12:00	8020	359	-34.8	-45.3	354	17	
2025-11-28T12:00	8040	358	-34.9	-45.1	355	18	
2025-11-28T12:00	8060	357	-35.1	-45.1	355	18	
2025-11-28T12:00	8080	356	-35.3	-44.8	355	18	
2025-11-28T12:00	8100	355	-35.5	-44.0	355	18	
2025-11-28T12:00	8120	354	-35.7	-44.0	356	18	
2025-11-28T12:00	8140	353	-35.8	-43.3	356	18	
2025-11-28T12:00	8160	352	-36.0	-43.0	355	18	
2025-11-28T12:00	8180	351	-36.2	-42.9	355	18	
2025-11-28T12:00	8200	350	-36.4	-42.9	355	18	
2025-11-28T12:00	8220	349	-36.6	-42.9	355	18	
2025-11-28T12:00	8240	348	-36.8	-43.1	355	18	
2025-11-28T12:00	8260	347	-37.0	-43.4	355	17	
2025-11-28T12:00	8280	346	-37.2	-43.6	354	17	
2025-11-28T12:00	8300	345	-37.4	-43.6	354	18	
2025-11-28T12:00	8320	344	-37.5	-43.9	354	18	
2025-11-28T12:00	8340	343	-37.7	-45.2	353	18	
2025-11-28T12:00	8360	342	-37.9	-45.7	353	18	
2025-11-28T12:00	8380	341	-38.1	-45.6	353	18	
2025-11-28T12:00	8400	340	-38.3	-45.5	353	18	
2025-11-28T12:00	8420	339	-38.5	-45.6	354	18	
2025-11-28T12:00	8440	338	-38.6	-45.9	354	18	
2025-11-28T12:00	8460	337	-38.8	-45.8	354	18	
2025-11-28T12:00	8480	336	-39.0	-45.9	355	18	
2025-11-28T12:00	8500	335	-39.2	-46.1	356	18	
2025-11-28T12:00	8520	334	-39.4	-46.1	356	18	
2025-11-28T12:00	8540	333	-39.6	-46.1	356	18	
2025-11-28T12:00	8560	332	-39.8	-46.1	356	17	
2025-11-28T12:00	8580	331	-39.9	-46.6	356	17	
2025-11-28T12:00	8600	330	-40.0	-46.4	356	17	
2025-11-28T12:00	8620	329	-40.2	-46.1	356	16	
2025-11-28T12:00	8640	328	-40.4	-46.1	356	16	
2025-11-28T12:00	8660	327	-40.6	-45.8	357	16	
2025-11-28T12:00	8680	326	-40.7	-45.4	357	16	
2025-11-28T12:00	8700	325	-40.8	-45.7	358	16	
2025-11-28T12:00	8720	324	-41.0	-45.7	359	16	
2025-11-28T12:00	8740	323	-41.1	-45.9	0	16	
2025-11-28T12:00	8760	322	-41.3	-46.5	1	16	
2025-11-28T12:00	8780	321	-41.4	-47.5	2	16	
2025-11-28T12:00	8800	320	-41.6	-48.9	2	16	
2025-11-28T12:00	8820	319	-41.7	-49.0	1	16	
2025-11-28T12:00	8840	319	-41.8	-48.3	0	16	
2025-11-28T12:00	8860	318	-42.0	-47.4	359	16	
2025-11-28T12:00	8880	317	-42.2	-47.3	357	16	
2025-11-28T12:00	8900	316	-42.4	-47.2	356	16	
2025-11-28T12:00	8920	315	-42.6	-46.7	354	16	
2025-11-28T12:00	8940	314	-42.7	-47.0	353	16	
2025-11-28T12:00	8960	313	-42.8	-47.3	353	16	
2025-11-28T12:00	8980	312	-43.0	-47.8	353	16	
2025-11-28T12:00	9000	311	-43.2	-47.9	353	16	
2025-11-28T12:00	9020	310	-43.3	-47.7	353	16	
2025-11-28T12:00	9040	309	-43.4	-48.2	353	16	
2025-11-28T12:00	9060	308	-43.5	-49.1	354	16	
2025-11-28T12:00	9080	307	-43.6	-49.3	354	16	
2025-11-28T12:00	9100	306	-43.8	-48.4	354	16	
2025-11-28T12:00	9120	306	-44.0	-47.5	354	16	
2025-11-28T12:00	9140	305	-44.1	-47.4	354	16	
2025-11-28T12:00	9160	304	-44.3	-48.2	354	16	
2025-11-28T12:00	9180	303	-44.4	-49.3	353	16	
2025-11-28T12:00	9200	302	-44.5	-49.6	352	16	
2025-11-28T12:00	9220	301	-44.7	-48.8	351	16	
2025-11-28T12:00	9240	300	-44.9	-48.6	351	16	
2025-11-28T12:00	9260	299	-45.0	-48.6	351	16	
2025-11-28T12:00	9280	298	-45.2	-48.7	351	16	
2025-11-28T12:00	9300	297	-45.4	-49.0	352	17	
2025-11-28T12:00	9320	296	-45.5	-50.1	352	17	
2025-11-28T12:00	9340	296	-45.6	-51.4	352	17	
2025-11-28T12:00	9360	295	-45.8	-50.7	352	17	
2025-11-28T12:00	9380	294	-45.9	-50.3	352	17	
2025-11-28T12:00	9400	293	-46.1	-50.2	352	17	
2025-11-28T12:00	9420	292	-46.3	-50.2	352	17	
2025-11-28T12:00	9440	291	-46.5	-50.3	351	17	
2025-11-28T12:00	9460	290	-46.7	-50.4	351	17	
2025-11-28T12:00	9480	289	-46.9	-50.5	351	17	
2025-11-28T12:00	9500	289	-47.1	-50.7	351	17	
2025-11-28T12:00	9520	288	-47.2	-50.8	351	17	
2025-11-28T12:00	9540	287	-47.4	-51.0	351	17	
2025-11-28T12:00	9560	286	-47.6	-51.0	351	17	
2025-11-28T12:00	9580	285	-47.8	-51.2	351	17	
2025-11-28T12:00	9600	284	-47.9	-51.5	350	18	
2025-11-28T12:00	9620	283	-48.1	-51.6	350	18	
2025-11-28T12:00	9640	282	-48.3	-51.8	350	18	
2025-11-28T12:00	9660	282	-48.5	-51.9	351	18	
2025-11-28T12:00	9680	281	-48.7	-52.2	351	19	
2025-11-28T12:00	9700	280	-48.8	-52.4	351	19	
2025-11-28T12:00	9720	279	-49.0	-52.8	352	19	
2025-11-28T12:00	9740	278	-49.2	-53.1	352	19	
2025-11-28T12:00	9760	277	-49.4	-53.3	353	19	
2025-11-28T12:00	9780	277	-49.6	-53.5	353	18	
2025-11-28T12:00	9800	276	-49.7	-53.7	353	18	
2025-11-28T12:00	9820	275	-49.8	-54.0	353	18	
2025-11-28T12:00	9840	274	-49.9	-54.1	353	17	
2025-11-28T12:00	9860	273	-50.1	-53.9	353	17	
2025-11-28T12:00	9880	272	-50.3	-53.9	353	16	
2025-11-28T12:00	9900	272	-50.4	-54.0	352	16	
2025-11-28T12:00	9920	271	-50.6	-54.1	352	16	
2025-11-28T12:00	9940	270	-50.8	-54.4	352	15	
2025-11-28T12:00	9960	269	-51.0	-54.5	352	15	
2025-11-28T12:00	9980	268	-51.2	-54.5	352	15	
2025-11-28T12:00	10000	267	-51.3	-54.5	353	15	
2025-11-28T12:00	10018	267	-51.5	-54.7	354	15	
2025-11-28T12:00	10050	265	-51.8	-55.1	356	15	
2025-11-28T12:00	10100	263	-52.3	-55.3	359	15	
2025-11-28T12:00	10150	261	-52.7	-55.4	2	15	
2025-11-28T12:00	10200	259	-53.1	-55.7	4	15	
2025-11-28T12:00	10250	257	-53.3	-56.7	5	14	
2025-11-28T12:00	10300	255	-53.6	-57.1	5	14	
2025-11-28T12:00	10350	253	-53.8	-57.6	6	14	
2025-11-28T12:00	10400	251	-54.3	-57.9	6	14	
2025-11-28T12:00	10450	249	-54.6	-58.1	5	15	
2025-11-28T12:00	10500	247	-55.0	-58.4	4	15	
2025-11-28T12:00	10550	246	-55.4	-58.8	3	16	
2025-11-28T12:00	10600	244	-55.9	-59.2	3	16	
2025-11-28T12:00	10650	242	-56.3	-59.6	4	15	
2025-11-28T12:00	10700	240	-56.8	-60.2	6	15	
2025-11-28T12:00	10750	238	-57.2	-60.9	5	15	
2025-11-28T12:00	10800	236	-57.6	-61.4	4	16	
2025-11-28T12:00	10850	234	-57.9	-61.6	1	16	
2025-11-28T12:00	10900	232	-58.2	-61.9	358	16	
2025-11-28T12:00	10950	231	-58.6	-62.6	356	16	
2025-11-28T12:00	11000	229	-58.8	-63.5	354	16	
2025-11-28T12:00	11050	227	-59.0	-64.2	355	16	
2025-11-28T12:00	11100	225	-59.2	-64.9	356	15	
2025-11-28T12:00	11150	223	-59.4	-64.7	358	15	
2025-11-28T12:00	11200	222	-59.8	-64.7	358	15	
2025-11-28T12:00	11250	220	-60.2	-65.5	357	15	
2025-11-28T12:00	11300	218	-60.6	-66.1	358	15	
2025-11-28T12:00	11350	216	-61.0	-66.3	0	15	
2025-11-28T12:00	11400	214	-61.4	-66.9	4	15	
2025-11-28T12:00	11450	213	-61.7	-67.7	6	14	
2025-11-28T12:00	11500	211	-62.0	-68.4	8	14	
2025-11-28T12:00	11550	209	-62.3	-69.1	7	14	
2025-11-28T12:00	11600	208	-62.7	-69.2	5	15	
2025-11-28T12:00	11650	206	-63.2	-68.9	1	15	
2025-11-28T12:00	11700	204	-63.6	-68.8	357	15	
2025-11-28T12:00	11750	203	-64.0	-68.8	354	15	
2025-11-28T12:00	11800	201	-64.5	-69.2	351	16	
2025-11-28T12:00	11850	199	-64.9	-69.4	350	16	
2025-11-28T12:00	11900	198	-65.2	-69.7	348	16	
2025-11-28T12:00	11950	196	-65.4	-70.2	346	17	
2025-11-28T12:00	12000	194	-65.5	-70.4	344	17	
2025-11-28T12:00	12050	193	-65.7	-70.9	343	17	
2025-11-28T12:00	12100	191	-65.8	-71.4	345	17	
2025-11-28T12:00	12150	190	-66.1	-72.1	349	16	
2025-11-28T12:00	12200	188	-65.6	-72.4	354	14	
2025-11-28T12:00	12250	187	-64.6	-72.1	359	13	
2025-11-28T12:00	12300	185	-64.6	-72.5	3	13	
2025-11-28T12:00	12350	184	-65.0	-72.7	4	13	
2025-11-28T12:00	12400	182	-65.4	-72.9	5	13	
2025-11-28T12:00	12450	180	-66.0	-73.3	5	13	
2025-11-28T12:00	12500	179	-66.3	-73.5	3	12	
2025-11-28T12:00	12550	178	-66.4	-73.7	357	12	
2025-11-28T12:00	12600	176	-66.5	-73.5	351	13	
2025-11-28T12:00	12650	175	-66.7	-73.4	345	14	
2025-11-28T12:00	12700	173	-66.8	-73.1	341	16	
2025-11-28T12:00	12750	172	-66.8	-73.4	337	17	
2025-11-28T12:00	12800	170	-66.5	-73.8	335	18	
2025-11-28T12:00	12850	169	-66.4	-74.8	335	18	
2025-11-28T12:00	12900	168	-66.0	-76.5	336	19	
2025-11-28T12:00	12950	166	-64.1	-77.8	337	19	
2025-11-28T12:00	13000	165	-63.3	-79.9	338	19	
2025-11-28T12:00	13050	164	-62.6	-81.7	340	18	
2025-11-28T12:00	13100	162	-61.5	-82.2	343	18	
2025-11-28T12:00	13150	161	-61.4	-82.6	346	17	
2025-11-28T12:00	13200	160	-61.7	-82.1	348	15	
2025-11-28T12:00	13250	158	-62.0	-81.6	350	15	
2025-11-28T12:00	13300	157	-62.4	-81.0	353	14	
2025-11-28T12:00	13350	156	-62.8	-80.8	355	13	
2025-11-28T12:00	13400	155	-63.2	-80.6	357	12	
2025-11-28T12:00	13450	153	-63.6	-80.5	355	12	
2025-11-28T12:00	13500	152	-64.1	-80.6	352	11	
2025-11-28T12:00	13550	151	-64.4	-80.7	347	11	
2025-11-28T12:00	13600	150	-64.7	-81.1	343	11	
2025-11-28T12:00	13650	148	-64.4	-81.2	341	12	
2025-11-28T12:00	13700	147	-64.4	-81.4	344	13	
2025-11-28T12:00	13750	146	-64.6	-81.6	347	14	
2025-11-28T12:00	13800	145	-64.7	-81.9	350	14	
2025-11-28T12:00	13850	144	-64.9	-82.3	355	14	
2025-11-28T12:00	13900	142	-64.8	-82.4	0	13	
2025-11-28T12:00	13950	141	-64.6	-82.6	5	13	
2025-11-28T12:00	14000	140	-64.6	-82.7	6	12	
2025-11-28T12:00	14050	139	-64.6	-82.8	3	12	
2025-11-28T12:00	14100	138	-64.4	-83.0	0	12	
2025-11-28T12:00	14150	137	-64.2	-83.3	3	11	
2025-11-28T12:00	14200	136	-63.3	-83.3	9	11	
2025-11-28T12:00	14250	135	-63.3	-83.5	14	10	
2025-11-28T12:00	14300	133	-63.6	-83.7	18	9	
2025-11-28T12:00	14350	132	-64.0	-83.8	20	9	
2025-11-28T12:00	14400	131	-64.3	-83.7	18	9	
2025-11-28T12:00	14450	130	-64.7	-83.9	14	9	
2025-11-28T12:00	14500	129	-65.0	-83.9	10	8	
2025-11-28T12:00	14550	128	-65.5	-84.0	3	8	
2025-11-28T12:00	14600	127	-65.8	-84.3	349	8	
2025-11-28T12:00	14650	126	-64.6	-83.9	337	10	
2025-11-28T12:00	14700	125	-63.7	-83.8	330	11	
2025-11-28T12:00	14750	124	-63.9	-84.0	325	13	
2025-11-28T12:00	14800	123	-64.2	-84.2	321	15	
2025-11-28T12:00	14850	122	-63.8	-84.0	322	15	
2025-11-28T12:00	14900	121	-63.6	-84.2	329	14	
2025-11-28T12:00	14950	120	-63.2	-84.1	335	13	
2025-11-28T12:00	15000	119	-63.2	-84.3	339	12	
2025-11-28T12:00	15050	118	-62.9	-84.2	341	12	
2025-11-28T12:00	15100	117	-62.9	-84.2	342	12	
2025-11-28T12:00	15150	116	-63.1	-84.3	343	12	
2025-11-28T12:00	15200	115	-63.3	-84.3	345	12	
2025-11-28T12:00	15250	114	-63.4	-84.4	350	12	
2025-11-28T12:00	15300	113	-63.2	-84.4	354	11	
2025-11-28T12:00	15350	112	-63.1	-84.3	356	11	
2025-11-28T12:00	15400	111	-63.4	-84.4	358	10	
2025-11-28T12:00	15450	111	-63.7	-84.4	1	10	
2025-11-28T12:00	15500	110	-64.1	-84.5	5	9	
2025-11-28T12:00	15550	109	-64.5	-84.6	8	9	
2025-11-28T12:00	15600	108	-64.8	-84.7	7	8	
2025-11-28T12:00	15650	107	-65.1	-85.0	358	6	
2025-11-28T12:00	15700	106	-64.8	-85.1	342	6	
2025-11-28T12:00	15750	105	-64.6	-85.3	328	6	
2025-11-28T12:00	15800	104	-64.2	-85.4	319	6	
2025-11-28T12:00	15850	104	-63.7	-85.3	312	5	
2025-11-28T12:00	15900	103	-63.3	-85.2	307	5	
2025-11-28T12:00	15950	102	-63.4	-85.2	305	4	
2025-11-28T12:00	16000	101	-63.6	-85.2	308	4	
2025-11-28T12:00	16050	100	-63.9	-85.2	314	5	
2025-11-28T12:00	16100	99	-64.3	-85.2	320	6	
2025-11-28T12:00	16150	99	-64.4	-85.3	324	8	
2025-11-28T12:00	16200	98	-64.4	-85.2	326	10	
2025-11-28T12:00	16250	97	-64.7	-85.4	328	11	
2025-11-28T12:00	16300	96	-64.7	-85.4	330	11	
2025-11-28T12:00	16350	95	-64.6	-85.3	329	10	
2025-11-28T12:00	16400	95	-64.9	-85.4	326	9	
2025-11-28T12:00	16450	94	-65.4	-85.5	324	9	
2025-11-28T12:00	16500	93	-65.8	-85.5	320	8	
2025-11-28T12:00	16550	92	-66.2	-85.7	315	8	
2025-11-28T12:00	16600	92	-66.2	-85.8	310	8	
2025-11-28T12:00	16650	91	-66.0	-85.7	313	8	
2025-11-28T12:00	16700	90	-66.0	-85.7	322	8	
2025-11-28T12:00	16750	89	-66.2	-85.8	330	8	
2025-11-28T12:00	16800	89	-66.5	-86.0	330	9	
2025-11-28T12:00	16850	88	-66.0	-85.8	325	9	
2025-11-28T12:00	16900	87	-66.2	-86.0	318	9	
2025-11-28T12:00	16950	86	-66.4	-86.0	310	10	
2025-11-28T12:00	17000	86	-66.6	-86.2	306	11	
2025-11-28T12:00	17050	85	-66.3	-86.2	307	11	
2025-11-28T12:00	17100	84	-65.9	-86.4	310	12	
2025-11-28T12:00	17150	84	-65.3	-86.3	312	13	
2025-11-28T12:00	17200	83	-65.1	-86.3	313	13	
2025-11-28T12:00	17250	82	-65.2	-86.6	317	11	
2025-11-28T12:00	17300	82	-64.6	-86.5	326	9	
2025-11-28T12:00	17350	81	-64.2	-86.5	337	7	
2025-11-28T12:00	17400	80	-64.1	-86.6	344	5	
2025-11-28T12:00	17450	80	-64.0	-86.7	338	4	
2025-11-28T12:00	17500	79	-63.4	-86.5	316	4	
2025-11-28T12:00	17550	78	-63.5	-86.6	302	5	
2025-11-28T12:00	17600	78	-63.5	-86.5	298	6	
2025-11-28T12:00	17650	77	-63.3	-86.4	298	6	
2025-11-28T12:00	17700	76	-63.4	-86.5	297	5	
2025-11-28T12:00	17750	76	-63.2	-86.4	290	3	
2025-11-28T12:00	17800	75	-63.2	-86.4	268	2	
2025-11-28T12:00	17850	75	-63.2	-86.4	248	3	
2025-11-28T12:00	17900	74	-63.4	-86.4	248	4	
2025-11-28T12:00	17950	73	-63.6	-86.4	255	5	
2025-11-28T12:00	18000	73	-63.7	-86.4	264	5	
2025-11-28T12:00	18050	72	-64.0	-86.6	273	6	
2025-11-28T12:00	18100	72	-64.2	-86.6	281	6	
2025-11-28T12:00	18150	71	-64.3	-86.7	282	7	
2025-11-28T12:00	18200	70	-64.5	-86.8	276	7	
2025-11-28T12:00	18250	70	-64.5	-86.7	270	8	
2025-11-28T12:00	18300	69	-64.8	-87.0	268	8	
2025-11-28T12:00	18350	69	-65.0	-87.1	274	9	
2025-11-28T12:00	18400	68	-64.8	-87.1	282	9	
2025-11-28T12:00	18450	68	-64.6	-87.1	288	10	
2025-11-28T12:00	18500	67	-64.8	-87.2	291	10	
2025-11-28T12:00	18550	67	-64.9	-87.2	291	10	
2025-11-28T12:00	18600	66	-64.9	-87.2	288	9	
2025-11-28T12:00	18650	65	-65.1	-87.3	286	8	
2025-11-28T12:00	18700	65	-65.3	-87.4	287	8	
2025-11-28T12:00	18750	64	-65.2	-87.3	292	8	
2025-11-28T12:00	18800	64	-65.4	-87.3	297	8	
2025-11-28T12:00	18850	63	-65.7	-87.5	304	8	
2025-11-28T12:00	18900	63	-65.7	-87.5	308	8	
2025-11-28T12:00	18950	62	-65.8	-87.6	310	7	
2025-11-28T12:00	19000	62	-66.0	-87.7	306	6	
2025-11-28T12:00	19050	61	-66.1	-87.6	295	4	
2025-11-28T12:00	19100	61	-66.4	-87.6	279	4	
2025-11-28T12:00	19150	60	-66.8	-87.7	263	4	
2025-11-28T12:00	19200	60	-67.2	-87.8	251	5	
2025-11-28T12:00	19250	59	-67.5	-87.9	249	6	
2025-11-28T12:00	19300	59	-67.8	-88.0	255	6	
2025-11-28T12:00	19350	58	-68.0	-88.1	264	7	
2025-11-28T12:00	19400	58	-68.2	-88.3	270	7	
2025-11-28T12:00	19450	57	-68.2	-88.4	273	7	
2025-11-28T12:00	19500	57	-68.1	-88.4	275	6	
2025-11-28T12:00	19550	56	-68.0	-88.5	271	6	
2025-11-28T12:00	19600	56	-67.7	-88.4	266	7	
2025-11-28T12:00	19650	55	-67.4	-88.2	262	8	
2025-11-28T12:00	19700	55	-67.7	-88.4	263	8	
2025-11-28T12:00	19750	55	-67.6	-88.5	268	9	
2025-11-28T12:00	19800	54	-66.9	-88.2	275	8	
2025-11-28T12:00	19850	54	-66.7	-88.2	281	7	
2025-11-28T12:00	19900	53	-66.6	-88.2	282	6	
2025-11-28T12:00	19950	53	-66.3	-88.0	275	6	
2025-11-28T12:00	20000	52	-66.3	-88.1	269	7	
2025-11-28T12:00	20050	52	-66.1		267	7	
2025-11-28T12:00	20100	51	-66.0		266	6	
2025-11-28T12:00	20150	51	-65.6		266	6	
2025-11-28T12:00	20200	51	-65.4		265	6	
2025-11-28T12:00	20250	50	-65.5		262	7	
2025-11-28T12:00	20300	50	-65.8		263	7	
2025-11-28T12:00	20350	49	-66.0		267	7	
2025-11-28T12:00	20400	49	-66.2		276	7	
2025-11-28T12:00	20450	49	-66.3		284	7	
2025-11-28T12:00	20500	48	-66.0		288	7	
2025-11-28T12:00	20550	48	-65.7		292	7	
2025-11-28T12:00	20600	47	-65.7		297	8	
2025-11-28T12:00	20650	47	-65.4		297	8	
2025-11-28T12:00	20700	47	-65.6		293	8	
2025-11-28T12:00	20750	46	-65.8		288	8	
2025-11-28T12:00	20800	46	-65.8		286	9	
2025-11-28T12:00	20850	46	-65.8		286	8	
2025-11-28T12:00	20900	45	-66.1		289	8	
2025-11-28T12:00	20950	45	-66.5		292	8	
2025-11-28T12:00	21000	44	-66.9		295	8	
2025-11-28T12:00	21050	44	-67.3		298	7	
2025-11-28T12:00	21100	44	-67.7		300	7	
2025-11-28T12:00	21150	43	-67.9		301	7	
2025-11-28T12:00	21200	43	-68.1		300	7	
2025-11-28T12:00	21250	43	-68.3		297	7	
2025-11-28T12:00	21300	42	-68.5		290	7	
2025-11-28T12:00	21350	42	-68.7		285	7	
2025-11-28T12:00	21400	42	-69.0		281	8	
2025-11-28T12:00	21450	41	-69.1		280	9	
2025-11-28T12:00	21500	41	-69.0		280	9	
2025-11-28T12:00	21550	40	-68.8		281	9	
2025-11-28T12:00	21600	40	-68.8		281	10	
2025-11-28T12:00	21650	40	-68.7		280	10	
2025-11-28T12:00	21700	39	-68.5		280	10	
2025-11-28T12:00	21750	39	-68.4		280	9	
2025-11-28T12:00	21800	39	-68.3		278	8	
2025-11-28T12:00	21850	39	-68.5		276	8	
2025-11-28T12:00	21900	38	-68.8		274	8	
2025-11-28T12:00	21950	38	-69.0		275	8	
2025-11-28T12:00	22000	38	-68.8		274	9	
2025-11-28T12:00	22050	37	-68.8		273	9	
2025-11-28T12:00	22100	37	-68.7		272	9	
2025-11-28T12:00	22150	37	-68.6		272	9	
2025-11-28T12:00	22200	36	-68.5		272	8	
2025-11-28T12:00	22250	36	-68.7		270	8	
2025-11-28T12:00	22300	36	-68.7		267	8	
2025-11-28T12:00	22350	35	-68.5		267	9	
2025-11-28T12:00	22400	35	-68.7		266	9	
2025-11-28T12:00	22450	35	-68.4		266	10	
2025-11-28T12:00	22500	35	-67.9		266	10	
2025-11-28T12:00	22550	34	-67.2		264	10	
2025-11-28T12:00	22600	34	-66.8		260	10	
2025-11-28T12:00	22650	34	-66.4		256	10	
2025-11-28T12:00	22700	33	-66.1		255	11	
2025-11-28T12:00	22750	33	-65.8		254	11	
2025-11-28T12:00	22800	33	-65.4		251	12	
2025-11-28T12:00	22850	33	-65.0		249	12	
2025-11-28T12:00	22900	32	-64.9		250	12	
2025-11-28T12:00	22950	32	-65.1		253	12	
2025-11-28T12:00	23000	32	-65.4		257	11	
2025-11-28T12:00	23050	32	-65.6		260	11	
2025-11-28T12:00	23100	31	-65.8		263	12	
2025-11-28T12:00	23150	31	-66.1		263	12	
2025-11-28T12:00	23200	31	-66.2		261	13	
2025-11-28T12:00	23250	31	-66.5		260	14	
2025-11-28T12:00	23300	30	-66.7		258	13	
2025-11-28T12:00	23350	30	-67.0		257	13	
2025-11-28T12:00	23400	30	-67.4		256	12	
2025-11-28T12:00	23450	30	-67.7		256	12	
2025-11-28T12:00	23500	29	-67.8		257	12	
2025-11-28T12:00	23550	29	-67.7		259	14	
2025-11-28T12:00	23600	29	-67.8		263	15	
2025-11-28T12:00	23650	29	-67.6		268	15	
2025-11-28T12:00	23700	28	-67.3		273	16	
2025-11-28T12:00	23750	28	-66.9		275	16	
2025-11-28T12:00	23800	28	-66.8		278	16	
2025-11-28T12:00	23850	28	-66.3		280	15	
2025-11-28T12:00	23900	27	-65.9		282	15	
2025-11-28T12:00	23950	27	-65.5		283	14	
2025-11-28T12:00	24000	27	-65.5		284	13	
2025-11-28T12:00	24050	27	-65.8		286	13	
2025-11-28T12:00	24100	27	-66.1		286	12	
2025-11-28T12:00	24150	26	-66.1		284	11	
2025-11-28T12:00	24200	26	-66.1		280	11	
2025-11-28T12:00	24250	26	-66.2		273	11	
2025-11-28T12:00	24300	26	-66.5		266	12	
2025-11-28T12:00	24350	25	-66.6		260	13	
2025-11-28T12:00	24400	25	-66.5		257	14	
2025-11-28T12:00	24450	25	-66.3		258	14	
2025-11-28T12:00	24500	25	-66.1		260	14	
2025-11-28T12:00	24550	25	-66.0		264	13	
2025-11-28T12:00	24600	24	-65.7		266	13	
2025-11-28T12:00	24650	24	-65.8		265	13	
2025-11-28T12:00	24700	24	-65.8		262	14	
2025-11-28T12:00	24750	24	-65.7		258	15	
2025-11-28T12:00	24800	24	-65.7		254	15	
2025-11-28T12:00	24850	23	-65.5		251	15	
2025-11-28T12:00	24900	23	-65.3		247	15	
2025-11-28T12:00	24950	23	-65.2		244	14	
2025-11-28T12:00	25000	23	-65.0		243	14	
2025-11-28T12:00	25050	23	-64.8		243	15	
2025-11-28T12:00	25100	22	-64.9		245	15	
2025-11-28T12:00	25150	22	-65.0		249	15	
2025-11-28T12:00	25200	22	-65.0		252	15	
2025-11-28T12:00	25250	22	-64.9		253	16	
2025-11-28T12:00	25300	22	-65.0		254	16	
2025-11-28T12:00	25350	22	-65.0		254	16	
2025-11-28T12:00	25400	21	-65.0		254	17	
2025-11-28T12:00	25450	21	-65.3		252	18	
2025-11-28T12:00	25500	21	-65.5		252	18	
2025-11-28T12:00	25550	21	-65.8		252	19	
2025-11-28T12:00	25600	21	-66.2		254	18	
2025-11-28T12:00	25650	21	-66.5		257	18	
2025-11-28T12:00	25700	20	-66.7		258	17	
2025-11-28T12:00	25750	20	-66.7		258	18	
2025-11-28T12:00	25800	20	-66.7		259	18	
2025-11-28T12:00	25850	20	-66.6		260	18	
2025-11-28T12:00	25900	20	-66.4		262	18	
2025-11-28T12:00	25950	20	-66.3		262	18	
2025-11-28T12:00	26000	19	-66.2		262	17	
2025-11-28T12:00	26050	19	-66.1		262	17	
2025-11-28T12:00	26100	19	-66.1		261	16	
2025-11-28T12:00	26150	19	-66.3		258	16	
2025-11-28T12:00	26200	19	-66.5		256	15	
2025-11-28T12:00	26250	19	-66.4		254	14	
2025-11-28T12:00	26300	18	-66.4		254	15	
2025-11-28T12:00	26350	18	-66.0		255	16	
2025-11-28T12:00	26400	18	-65.6		254	17	
2025-11-28T12:00	26450	18	-65.7		254	18	
2025-11-28T12:00	26500	18	-65.6		252	18	
2025-11-28T12:00	26550	18	-65.5		250	19	
2025-11-28T12:00	26600	18	-65.3		249	21	
2025-11-28T12:00	26650	17	-65.1		249	22	
2025-11-28T12:00	26700	17	-64.8		250	24	
2025-11-28T12:00	26750	17	-64.8		250	25	
2025-11-28T12:00	26800	17	-64.6		251	25	
2025-11-28T12:00	26850	17	-64.4		253	25	
2025-11-28T12:00	26900	17	-64.4		255	24	
2025-11-28T12:00	26950	17	-64.5		257	24	
2025-11-28T12:00	27000	16	-64.1		258	24	
2025-11-28T12:00	27050	16	-63.5		259	24	
2025-11-28T12:00	27100	16	-63.1		258	24	
2025-11-28T12:00	27150	16	-63.4		258	25	
2025-11-28T12:00	27200	16	-63.8		258	26	
2025-11-28T12:00	27250	16	-64.2		257	27	
2025-11-28T12:00	27300	16	-64.6		257	28	
2025-11-28T12:00	27350	16	-65.1		257	28	
2025-11-28T12:00	27400	15	-65.5		257	28	
2025-11-28T12:00	27450	15	-65.9		258	27	
2025-11-28T12:00	27500	15	-66.1		259	27	
2025-11-28T12:00	27550	15	-66.1		259	26	
2025-11-28T12:00	27600	15	-66.2		259	26	
2025-11-28T12:00	27650	15	-66.3		259	26	
2025-11-28T12:00	27700	15	-66.3		259	26	
2025-11-28T12:00	27750	15	-66.4		257	26	
2025-11-28T12:00	27800	14	-66.6		255	26	
2025-11-28T12:00	27850	14	-66.6		253	27	
2025-11-28T12:00	27900	14	-66.5		251	27	
2025-11-28T12:00	27950	14	-66.5		251	28	
2025-11-28T12:00	28000	14	-66.4		253	29	
2025-11-28T12:00	28050	14	-66.0		254	29	
2025-11-28T12:00	28100	14	-65.8		255	28	
2025-11-28T12:00	28150	14	-65.4		253	28	
2025-11-28T12:00	28200	14	-64.4		251	28	
2025-11-28T12:00	28250	13	-63.2		249	29	
2025-11-28T12:00	28300	13	-62.3		249	30	
2025-11-28T12:00	28350	13	-62.0		250	30	
2025-11-28T12:00	28400	13	-61.6		249	30	
2025-11-28T12:00	28450	13	-61.0		248	29	
2025-11-28T12:00	28500	13	-60.7		249	28	
2025-11-28T12:00	28550	13	-60.7		249	27	
2025-11-28T12:00	28600	13	-61.0		249	27	
2025-11-28T12:00	28650	13	-61.4		249	27	
2025-11-28T12:00	28700	12	-61.6		249	27	
2025-11-28T12:00	28750	12	-61.4		250	28	
2025-11-28T12:00	28800	12	-61.5		251	29	
2025-11-28T12:00	28850	12	-61.5		254	31	
2025-11-28T12:00	28900	12	-61.2		256	32	
2025-11-28T12:00	28950	12	-61.1		258	33	
2025-11-28T12:00	29000	12	-61.1		259	33	
2025-11-28T12:00	29050	12	-61.2		260	34	
2025-11-28T12:00	29100	12	-61.3		259	34	
2025-11-28T12:00	29150	12	-61.3		259	34	
2025-11-28T12:00	29200	12	-61.3		258	34	
2025-11-28T12:00	29250	11	-61.4		257	34	
2025-11-28T12:00	29300	11	-61.4		255	34	
2025-11-28T12:00	29350	11	-61.3		252	34	
2025-11-28T12:00	29400	11	-61.2		250	34	
2025-11-28T12:00	29450	11	-60.8		249	34	
2025-11-28T12:00	29500	11	-60.5		249	34	
2025-11-28T12:00	29550	11	-60.3		251	34	
2025-11-28T12:00	29600	11	-60.5		253	34	
2025-11-28T12:00	29650	11	-60.7		254	34	
2025-11-28T12:00	29700	11	-60.9		254	34	
2025-11-28T12:00	29750	11	-60.6		254	34	
2025-11-28T12:00	29800	10	-60.2		253	35	
2025-11-28T12:00	29850	10	-60.2		253	36	
2025-11-28T12:00	29900	10	-60.4		253	37	
2025-11-28T12:00	29950	10	-60.7		254	38	
2025-11-28T12:00	30000	10	-61.0		255	39	
2025-11-28T12:00	30050	10	-61.2		256	39	
2025-11-28T12:00	30100	10	-61.0		258	39	
2025-11-28T12:00	30150	10	-60.5		260	39	
2025-11-28T12:00	30200	10	-60.2		261	39	
2025-11-28T12:00	30250	10	-60.4		262	39	
2025-11-28T12:00	30300	10	-60.6		263	38	
2025-11-28T12:00	30350	10	-60.8		264	38	
2025-11-28T12:00	30400	9	-60.8		265	37	
2025-11-28T12:00	30450	9	-60.8		264	37	
2025-11-28T12:00	30500	9	-60.5		262	37	
2025-11-28T12:00	30550	9	-60.4		259	38	
2025-11-28T12:00	30600	9	-60.5		256	39	
2025-11-28T12:00	30650	9	-60.5		254	40	
2025-11-28T12:00	30700	9	-60.6		253	41	
2025-11-28T12:00	30750	9	-60.5		252	42	
2025-11-28T12:00	30800	9	-60.3		252	42	
2025-11-28T12:00	30850	9	-60.0		252	43	
2025-11-28T12:00	30900	9	-59.9		251	44	
2025-11-28T12:00	30950	9	-59.4		251	45	
2025-11-28T12:00	31000	9	-58.9		251	46	
2025-11-28T12:00	31050	9	-58.7		253	47	
2025-11-28T12:00	31100	8	-58.8		254	47	
2025-11-28T12:00	31150	8	-58.9		255	48	
2025-11-28T12:00	31200	8	-59.0		255	48	
2025-11-28T12:00	31250	8	-59.1		256	48	
2025-11-28T12:00	31300	8	-59.0		256	48	
2025-11-28T12:00	31350	8	-58.8		256	48	
2025-11-28T12:00	31400	8	-58.9		256	49	
2025-11-28T12:00	31450	8	-58.7		256	49	
2025-11-28T12:00	31500	8	-58.6		257	50	
2025-11-28T12:00	31550	8	-58.6		258	51	
2025-11-28T12:00	31600	8	-58.3		259	51	
2025-11-28T12:00	31650	8	-58.1		260	51	
2025-11-28T12:00	31700	8	-58.1		260	51	
2025-11-28T12:00	31750	8	-58.1		260	52	
2025-11-28T12:00	31800	8	-58.1		260	53	
2025-11-28T12:00	31850	8	-58.1		261	54	
2025-11-28T12:00	31900	7	-58.0		262	55	
2025-11-28T12:00	31950	7	-57.6		263	56	
2025-11-28T12:00	32000	7	-57.2		264	56	
2025-11-28T12:00	32050	7	-57.2		264	55	
2025-11-28T12:00	32100	7	-57.4		265	55	
2025-11-28T12:00	32150	7	-57.7		265	54	
2025-11-28T12:00	32200	7	-57.9		265	53	
2025-11-28T12:00	32250	7	-58.1		265	53	
2025-11-28T12:00	32300	7	-58.4		264	52	
2025-11-28T12:00	32350	7	-58.2		264	51	
2025-11-28T12:00	32400	7	-57.4		263	50	
2025-11-28T12:00	32450	7	-57.3		261	51	
2025-11-28T12:00	32500	7	-57.4		260	51	
2025-11-28T12:00	32550	7	-57.2		260	52	
2025-11-28T12:00	32600	7	-56.8		261	53	
2025-11-28T12:00	32650	7	-56.7		262	54	
2025-11-28T12:00	32700	7	-56.5		264	55	
2025-11-28T12:00	32750	7	-56.1		265	55	
2025-11-28T12:00	32800	6	-55.8		266	55	
2025-11-28T12:00	32850	6	-55.8		266	55	
2025-11-28T12:00	32900	6	-55.8		266	55	
2025-11-28T12:00	32950	6	-55.8		267	54	
2025-11-28T12:00	33000	6	-55.9		268	53	
2025-11-28T12:00	33050	6	-55.9		270	52	
2025-11-28T12:00	33100	6	-55.7		271	51	
2025-11-28T12:00	33150	6	-54.9		271	49	
2025-11-28T12:00	33200	6	-54.2		271	48	
2025-11-28T12:00	33250	6	-53.8		270	46	
2025-11-28T12:00	33300	6	-53.6		269	46	
2025-11-28T12:00	33350	6	-53.6		268	46	
2025-11-28T12:00	33400	6	-52.9		266	48	
2025-11-28T12:00	33450	6	-51.9		265	49	
2025-11-28T12:00	33500	6	-51.1		264	50	
2025-11-28T12:00	33550	6	-50.8		264	50	
2025-11-28T12:00	33600	6	-51.2		264	50	
2025-11-28T12:00	33650	6	-51.3		264	50	
2025-11-28T12:00	33700	6	-51.4		263	50	
2025-11-28T12:00	33750	6	-51.6		263	51	
2025-11-28T12:00	33800	6	-51.8		263	51	
2025-11-28T12:00	33850	5	-52.0		262	51	
2025-11-28T12:00	33900	5	-52.1		262	51	
2025-11-28T12:00	33950	5	-52.0		261	52	
2025-11-28T12:00	34000	5	-52.1		260	52	
2025-11-28T12:00	34050	5	-52.3		260	53	
2025-11-28T12:00	34100	5	-52.4		260	54	
2025-11-28T12:00	34150	5	-52.5		261	55	
2025-11-28T12:00	34200	5	-52.2		261	56	
2025-11-28T12:00	34250	5	-51.9		262	56	
2025-11-28T12:00	34300	5	-52.0		262	57	
2025-11-28T12:00	34350	5	-52.4		262	58	
2025-11-28T12:00	34400	5	-52.7		262	59	
2025-11-28T12:00	34450	5	-53.0		262	60	
2025-11-28T12:00	34500	5	-53.0		262	60	
2025-11-28T12:00	34550	5	-52.8		263	61	
2025-11-28T12:00	34600	5	-52.5		263	62	
2025-11-28T12:00	34650	5	-52.0		263	62	
2025-11-28T12:00	34700	5	-51.6		263	63	
2025-11-28T12:00	34750	5	-51.4		263	62	
2025-11-28T12:00	34800	5	-51.3		263	62	
2025-11-28T12:00	34850	5	-51.0		262	61	
2025-11-28T12:00	34900	5	-50.6		262	61	
2025-11-28T12:00	34950	5	-50.6		262	60	
2025-11-28T12:00	35000	5	-50.6		264	60	
2025-11-28T12:00	35050	5	-50.6		266	59	
2025-11-28T12:00	35100	5	-50.7		267	59	
2025-11-28T12:00	35150	4	-50.6		269	59	
2025-11-28T12:00	35200	4	-50.3		269	59	
2025-11-28T12:00	35250	4	-50.1		269	60	
2025-11-28T12:00	35300	4	-50.1		270	60	
2025-11-28T12:00	35350	4	-50.3		270	60	
2025-11-28T12:00	35400	4	-50.3		270	60	
2025-11-28T12:00	35450	4	-50.0		271	59	
2025-11-28T12:00	35500	4	-50.0		272	59	
2025-11-28T12:00	35550	4	-50.1		272	59	
2025-11-28T12:00	35600	4	-49.5		272	59	
2025-11-28T12:00	35650	4	-48.8		272	59	
2025-11-28T12:00	35700	4	-48.5		271	59	
2025-11-28T12:00	35750	4	-48.0		270	60	
2025-11-29T00:00	491	961	2.4	-0.5	238	1	
2025-11-29T00:00	501	960	2.3	-0.7	209	1	
2025-11-29T00:00	520	958	2.5	-1.1	205	2	
2025-11-29T00:00	540	955	2.5	-1.6	208	2	
2025-11-29T00:00	560	953	2.7	-2.1	211	2	
2025-11-29T00:00	580	951	2.8	-2.3	213	3	
2025-11-29T00:00	600	948	2.8	-2.5	214	3	
2025-11-29T00:00	620	946	2.7	-2.7	215	3	
2025-11-29T00:00	640	944	2.6	-2.8	216	4	
2025-11-29T00:00	660	941	2.5	-2.8	217	4	
2025-11-29T00:00	680	939	2.4	-2.8	217	4	
2025-11-29T00:00	700	937	2.3	-2.9	218	4	
2025-11-29T00:00	720	934	2.4	-3.1	219	5	
2025-11-29T00:00	740	932	2.2	-3.2	220	5	
2025-11-29T00:00	760	930	2.1	-3.3	221	5	
2025-11-29T00:00	780	928	2.0	-3.6	222	6	
2025-11-29T00:00	800	925	2.0	-3.8	224	6	
2025-11-29T00:00	820	923	2.0	-4.0	225	6	
2025-11-29T00:00	840	921	2.0	-4.2	227	6	
2025-11-29T00:00	860	918	2.0	-4.4	229	6	
2025-11-29T00:00	880	916	2.0	-4.7	231	7	
2025-11-29T00:00	900	914	2.7	-5.8	234	7	
2025-11-29T00:00	920	911	2.9	-6.0	235	7	
2025-11-29T00:00	940	909	2.8	-6.2	237	7	
2025-11-29T00:00	960	907	2.8	-6.4	238	7	
2025-11-29T00:00	980	905	2.6	-6.6	238	7	
2025-11-29T00:00	1000	903	2.5	-6.7	238	7	
2025-11-29T00:00	1020	900	2.4	-6.7	237	7	
2025-11-29T00:00	1040	898	2.3	-6.8	236	7	
2025-11-29T00:00	1060	896	2.2	-6.6	235	7	
2025-11-29T00:00	1080	894	2.2	-6.8	233	7	
2025-11-29T00:00	1100	891	2.2	-7.0	232	6	
2025-11-29T00:00	1120	889	2.5	-7.3	231	6	
2025-11-29T00:00	1140	887	2.7	-6.8	230	5	
2025-11-29T00:00	1160	885	2.6	-5.9	230	5	
2025-11-29T00:00	1180	883	2.7	-2.2	231	4	
2025-11-29T00:00	1200	881	2.8	0.9	233	4	
2025-11-29T00:00	1220	878	3.5	-3.4	236	3	
2025-11-29T00:00	1240	876	3.8	-0.8	241	3	
2025-11-29T00:00	1260	874	3.6	2.0	247	3	
2025-11-29T00:00	1280	872	3.7	2.1	253	3	
2025-11-29T00:00	1300	870	3.7	2.1	258	3	
2025-11-29T00:00	1320	868	3.6	2.0	261	3	
2025-11-29T00:00	1340	866	3.5	1.9	262	3	
2025-11-29T00:00	1360	863	3.4	1.9	260	3	
2025-11-29T00:00	1380	861	3.3	1.7	254	3	
2025-11-29T00:00	1400	859	3.2	1.7	247	2	
2025-11-29T00:00	1420	857	3.1	1.6	236	2	
2025-11-29T00:00	1440	855	3.1	1.5	226	2	
2025-11-29T00:00	1460	853	2.9	1.5	216	2	
2025-11-29T00:00	1480	851	2.9	1.4	208	1	
2025-11-29T00:00	1500	849	3.1	1.1	208	1	
2025-11-29T00:00	1520	846	3.1	0.8	217	1	
2025-11-29T00:00	1540	844	3.2	0.7	241	1	
2025-11-29T00:00	1560	842	3.0	0.7	270	1	
2025-11-29T00:00	1580	840	3.0	0.6	281	1	
2025-11-29T00:00	1600	838	3.1	0.6	283	1	
2025-11-29T00:00	1620	836	3.0	0.5	279	1	
2025-11-29T00:00	1640	834	3.0	0.3	274	1	
2025-11-29T00:00	1660	832	3.0	0.0	269	1	
2025-11-29T00:00	1680	830	2.9	-0.1	264	1	
2025-11-29T00:00	1700	828	2.8	-0.2	262	2	
2025-11-29T00:00	1720	826	2.6	-0.2	263	2	
2025-11-29T00:00	1740	824	2.5	-0.3	267	2	
2025-11-29T00:00	1760	822	2.4	-0.3	276	2	
2025-11-29T00:00	1780	820	2.3	-0.4	285	2	
2025-11-29T00:00	1800	818	2.2	-0.5	295	2	
2025-11-29T00:00	1820	816	2.3	-0.7	303	2	
2025-11-29T00:00	1840	814	2.3	-0.7	310	3	
2025-11-29T00:00	1860	812	2.2	-0.8	313	3	
2025-11-29T00:00	1880	810	2.1	-0.9	315	3	
2025-11-29T00:00	1900	808	2.0	-0.9	315	3	
2025-11-29T00:00	1920	806	1.9	-0.9	316	3	
2025-11-29T00:00	1940	804	1.8	-0.9	319	2	
2025-11-29T00:00	1960	802	1.7	-1.0	324	2	
2025-11-29T00:00	1980	800	1.6	-1.1	332	2	
2025-11-29T00:00	2000	798	1.5	-1.4	344	2	
2025-11-29T00:00	2020	796	1.4	-1.7	356	2	
2025-11-29T00:00	2040	794	1.2	-2.1	359	2	
2025-11-29T00:00	2060	792	1.1	-2.6	357	3	
2025-11-29T00:00	2080	790	0.9	-2.6	353	3	
2025-11-29T00:00	2100	788	0.8	-2.6	351	3	
2025-11-29T00:00	2120	786	0.6	-2.5	349	3	
2025-11-29T00:00	2140	784	0.4	-2.8	349	3	
2025-11-29T00:00	2160	782	0.3	-4.1	349	3	
2025-11-29T00:00	2180	780	0.3	-5.2	351	2	
2025-11-29T00:00	2200	778	0.2	-4.4	353	2	
2025-11-29T00:00	2220	776	0.1	-6.5	355	2	
2025-11-29T00:00	2240	774	0.2	-9.8	356	2	
2025-11-29T00:00	2260	773	0.1	-9.8	355	2	
2025-11-29T00:00	2280	770	0.0	-9.6	353	2	
2025-11-29T00:00	2300	769	-0.1	-9.1	350	2	
2025-11-29T00:00	2320	767	-0.2	-7.5	346	2	
2025-11-29T00:00	2340	765	-0.3	-5.8	344	2	
2025-11-29T00:00	2360	763	-0.5	-6.1	343	3	
2025-11-29T00:00	2380	761	-0.6	-5.4	343	3	
2025-11-29T00:00	2400	759	-0.7	-6.3	344	3	
2025-11-29T00:00	2420	757	-0.8	-6.9	344	3	
2025-11-29T00:00	2440	755	-0.9	-6.6	343	3	
2025-11-29T00:00	2460	753	-1.0	-7.5	341	4	
2025-11-29T00:00	2480	751	-1.1	-8.0	337	4	
2025-11-29T00:00	2500	750	-1.2	-8.0	334	4	
2025-11-29T00:00	2520	748	-1.3	-7.2	331	4	
2025-11-29T00:00	2540	746	-1.5	-6.7	330	4	
2025-11-29T00:00	2560	744	-1.6	-6.2	329	4	
2025-11-29T00:00	2580	742	-1.8	-5.0	329	4	
2025-11-29T00:00	2600	740	-1.9	-5.1	328	4	
2025-11-29T00:00	2620	738	-2.1	-5.1	326	3	
2025-11-29T00:00	2640	736	-2.2	-5.4	323	3	
2025-11-29T00:00	2660	735	-2.3	-5.8	320	3	
2025-11-29T00:00	2680	733	-2.5	-5.8	319	3	
2025-11-29T00:00	2700	731	-2.6	-5.9	322	3	
2025-11-29T00:00	2720	729	-2.8	-5.9	325	4	
2025-11-29T00:00	2740	727	-2.9	-5.9	329	5	
2025-11-29T00:00	2760	725	-3.1	-6.1	331	6	
2025-11-29T00:00	2780	724	-3.2	-6.0	330	7	
2025-11-29T00:00	2800	722	-3.4	-5.7	329	7	
2025-11-29T00:00	2820	720	-3.5	-4.9	326	7	
2025-11-29T00:00	2840	718	-3.6	-4.7	323	7	
2025-11-29T00:00	2860	716	-3.7	-4.3	323	7	
2025-11-29T00:00	2880	714	-3.7	-4.2	325	7	
2025-11-29T00:00	2900	713	-3.8	-4.3	328	7	
2025-11-29T00:00	2920	711	-3.8	-4.8	333	7	
2025-11-29T00:00	2940	709	-4.0	-4.6	338	7	
2025-11-29T00:00	2960	707	-4.2	-4.5	344	7	
2025-11-29T00:00	2980	705	-4.3	-4.4	349	7	
2025-11-29T00:00	3000	704	-4.4	-4.6	353	7	
2025-11-29T00:00	3020	702	-4.5	-4.7	355	7	
2025-11-29T00:00	3040	700	-4.5	-5.3	356	6	
2025-11-29T00:00	3060	698	-4.6	-5.6	356	6	
2025-11-29T00:00	3080	697	-4.7	-5.6	356	6	
2025-11-29T00:00	3100	695	-4.9	-5.7	356	6	
2025-11-29T00:00	3120	693	-5.0	-5.7	357	5	
2025-11-29T00:00	3140	691	-5.1	-5.8	357	5	
2025-11-29T00:00	3160	690	-5.3	-5.7	359	6	
2025-11-29T00:00	3180	688	-5.4	-5.7	360	6	
2025-11-29T00:00	3200	686	-5.5	-6.0	1	7	
2025-11-29T00:00	3220	684	-5.6	-6.3	2	7	
2025-11-29T00:00	3240	682	-5.7	-6.2	4	8	
2025-11-29T00:00	3260	681	-5.8	-6.2	5	8	
2025-11-29T00:00	3280	679	-5.9	-6.2	5	8	
2025-11-29T00:00	3300	677	-6.1	-6.2	5	7	
2025-11-29T00:00	3320	676	-6.2	-6.2	3	7	
2025-11-29T00:00	3340	674	-6.4	-6.4	359	6	
2025-11-29T00:00	3360	672	-6.4	-6.4	352	5	
2025-11-29T00:00	3380	670	-6.6	-6.6	344	5	
2025-11-29T00:00	3400	669	-6.7	-6.7	338	5	
2025-11-29T00:00	3420	667	-6.8	-6.8	335	5	
2025-11-29T00:00	3440	665	-7.0	-7.0	335	5	
2025-11-29T00:00	3460	664	-7.1	-7.1	336	5	
2025-11-29T00:00	3480	662	-7.3	-7.3	337	6	
2025-11-29T00:00	3500	660	-7.4	-7.4	338	6	
2025-11-29T00:00	3520	659	-7.5	-7.5	338	7	
2025-11-29T00:00	3540	657	-7.6	-7.6	336	7	
2025-11-29T00:00	3560	655	-7.7	-7.7	335	8	
2025-11-29T00:00	3580	653	-7.9	-7.9	332	8	
2025-11-29T00:00	3600	652	-8.0	-8.0	331	9	
2025-11-29T00:00	3620	650	-8.1	-8.1	330	9	
2025-11-29T00:00	3640	649	-8.2	-8.2	330	9	
2025-11-29T00:00	3660	647	-8.4	-8.4	330	10	
2025-11-29T00:00	3680	645	-8.5	-8.5	330	10	
2025-11-29T00:00	3700	643	-8.6	-8.6	332	10	
2025-11-29T00:00	3720	642	-8.8	-8.8	332	10	
2025-11-29T00:00	3740	640	-8.9	-8.9	333	10	
2025-11-29T00:00	3760	639	-9.0	-9.1	333	10	
2025-11-29T00:00	3780	637	-9.1	-9.3	334	9	
2025-11-29T00:00	3800	635	-9.3	-9.4	336	9	
2025-11-29T00:00	3820	634	-9.4	-9.4	337	9	
2025-11-29T00:00	3840	632	-9.6	-9.7	339	8	
2025-11-29T00:00	3860	630	-9.7	-10.0	339	8	
2025-11-29T00:00	3880	629	-9.9	-10.2	338	8	
2025-11-29T00:00	3900	627	-10.0	-10.3	336	8	
2025-11-29T00:00	3920	626	-10.2	-10.6	333	7	
2025-11-29T00:00	3940	624	-10.3	-11.2	330	8	
2025-11-29T00:00	3960	622	-10.5	-11.4	329	8	
2025-11-29T00:00	3980	621	-10.6	-11.4	329	8	
2025-11-29T00:00	4000	619	-10.8	-11.5	329	9	
2025-11-29T00:00	4020	617	-10.9	-11.5	330	9	
2025-11-29T00:00	4040	616	-11.1	-11.6	331	9	
2025-11-29T00:00	4060	614	-11.2	-11.8	331	9	
2025-11-29T00:00	4080	612	-11.3	-12.2	331	9	
2025-11-29T00:00	4100	611	-11.4	-12.2	330	9	
2025-11-29T00:00	4120	609	-11.5	-12.4	331	8	
2025-11-29T00:00	4140	608	-11.6	-12.9	332	8	
2025-11-29T00:00	4160	606	-11.7	-12.8	335	7	
2025-11-29T00:00	4180	605	-11.7	-12.8	338	7	
2025-11-29T00:00	4200	603	-11.8	-12.8	340	7	
2025-11-29T00:00	4220	602	-11.9	-12.9	342	7	
2025-11-29T00:00	4240	600	-12.1	-13.1	343	8	
2025-11-29T00:00	4260	598	-12.2	-13.2	344	8	
2025-11-29T00:00	4280	597	-12.4	-13.2	344	8	
2025-11-29T00:00	4300	595	-12.5	-13.4	344	8	
2025-11-29T00:00	4320	594	-12.7	-13.4	345	9	
2025-11-29T00:00	4340	592	-12.9	-13.6	346	9	
2025-11-29T00:00	4360	590	-13.0	-13.8	346	9	
2025-11-29T00:00	4380	589	-13.1	-13.9	346	9	
2025-11-29T00:00	4400	587	-13.3	-14.0	346	9	
2025-11-29T00:00	4420	586	-13.4	-15.0	346	9	
2025-11-29T00:00	4440	584	-13.3	-16.9	346	9	
2025-11-29T00:00	4460	583	-13.4	-18.0	347	9	
2025-11-29T00:00	4480	581	-13.3	-17.0	347	9	
2025-11-29T00:00	4500	580	-13.3	-16.4	348	9	
2025-11-29T00:00	4520	578	-13.4	-16.2	347	10	
2025-11-29T00:00	4540	577	-13.5	-16.3	346	10	
2025-11-29T00:00	4560	575	-13.6	-16.5	345	10	
2025-11-29T00:00	4580	574	-13.7	-16.5	344	10	
2025-11-29T00:00	4600	572	-13.8	-16.5	343	10	
2025-11-29T00:00	4620	571	-14.0	-16.5	344	9	
2025-11-29T00:00	4640	569	-14.1	-16.4	346	9	
2025-11-29T00:00	4660	568	-14.3	-16.5	348	9	
2025-11-29T00:00	4680	566	-14.4	-16.6	351	9	
2025-11-29T00:00	4700	565	-14.6	-16.7	354	9	
2025-11-29T00:00	4720	563	-14.8	-16.8	356	9	
2025-11-29T00:00	4740	562	-14.9	-17.0	358	9	
2025-11-29T00:00	4760	560	-15.1	-17.2	358	9	
2025-11-29T00:00	4780	559	-15.3	-17.3	359	10	
2025-11-29T00:00	4800	557	-15.5	-17.6	359	10	
2025-11-29T00:00	4820	556	-15.6	-18.2	358	11	
2025-11-29T00:00	4840	554	-15.8	-18.5	357	11	
2025-11-29T00:00	4860	553	-15.9	-19.2	357	11	
2025-11-29T00:00	4880	551	-16.1	-19.6	356	11	
2025-11-29T00:00	4900	550	-16.3	-19.5	355	11	
2025-11-29T00:00	4920	548	-16.4	-19.0	354	11	
2025-11-29T00:00	4940	547	-16.5	-18.4	353	11	
2025-11-29T00:00	4960	546	-16.6	-18.0	350	11	
2025-11-29T00:00	4980	544	-16.8	-18.1	348	11	
2025-11-29T00:00	5000	543	-16.9	-18.2	345	11	
2025-11-29T00:00	5020	541	-17.1	-18.4	342	11	
2025-11-29T00:00	5040	540	-17.3	-18.5	339	11	
2025-11-29T00:00	5060	538	-17.5	-18.5	336	11	
2025-11-29T00:00	5080	537	-17.6	-18.3	334	12	
2025-11-29T00:00	5100	536	-17.8	-18.3	333	12	
2025-11-29T00:00	5120	534	-18.0	-18.3	332	12	
2025-11-29T00:00	5140	533	-18.1	-18.5	332	12	
2025-11-29T00:00	5160	531	-18.3	-18.5	333	12	
2025-11-29T00:00	5180	530	-18.5	-18.5	333	12	
2025-11-29T00:00	5200	528	-18.6	-18.7	335	12	
2025-11-29T00:00	5220	527	-18.7	-18.8	337	11	
2025-11-29T00:00	5240	526	-18.8	-19.0	340	11	
2025-11-29T00:00	5260	524	-19.0	-19.1	344	11	
2025-11-29T00:00	5280	523	-19.1	-19.3	346	11	
2025-11-29T00:00	5300	521	-19.2	-19.4	346	12	
2025-11-29T00:00	5320	520	-19.4	-19.6	346	12	
2025-11-29T00:00	5340	519	-19.5	-19.8	345	12	
2025-11-29T00:00	5360	517	-19.7	-19.8	345	12	
2025-11-29T00:00	5380	516	-19.8	-20.0	344	12	
2025-11-29T00:00	5400	514	-19.9	-20.2	343	12	
2025-11-29T00:00	5420	513	-20.1	-20.5	343	11	
2025-11-29T00:00	5440	512	-20.3	-20.6	344	11	
2025-11-29T00:00	5460	510	-20.5	-20.8	344	10	
2025-11-29T00:00	5480	509	-20.7	-21.0	345	10	
2025-11-29T00:00	5500	508	-20.8	-21.5	345	9	
2025-11-29T00:00	5520	506	-20.9	-23.6	344	9	
2025-11-29T00:00	5540	505	-21.0	-23.7	341	9	
2025-11-29T00:00	5560	503	-21.2	-24.3	338	9	
2025-11-29T00:00	5580	502	-21.3	-24.7	335	9	
2025-11-29T00:00	5600	501	-21.5	-25.1	332	10	
2025-11-29T00:00	5620	499	-21.6	-25.2	331	10	
2025-11-29T00:00	5640	498	-21.8	-25.3	330	10	
2025-11-29T00:00	5660	497	-21.9	-25.5	331	10	
2025-11-29T00:00	5680	495	-22.1	-25.4	334	10	
2025-11-29T00:00	5700	494	-22.2	-25.4	338	10	
2025-11-29T00:00	5720	492	-22.4	-25.4	341	10	
2025-11-29T00:00	5740	491	-22.5	-25.6	345	10	
2025-11-29T00:00	5760	490	-22.7	-25.5	348	10	
2025-11-29T00:00	5780	488	-22.8	-25.6	350	10	
2025-11-29T00:00	5800	487	-23.0	-25.6	351	10	
2025-11-29T00:00	5820	486	-23.1	-25.7	352	9	
2025-11-29T00:00	5840	485	-23.3	-25.7	352	9	
2025-11-29T00:00	5860	483	-23.4	-25.7	352	9	
2025-11-29T00:00	5880	482	-23.6	-25.7	351	8	
2025-11-29T00:00	5900	481	-23.8	-25.7	350	8	
2025-11-29T00:00	5920	479	-23.9	-25.7	349	8	
2025-11-29T00:00	5940	478	-24.1	-25.8	348	8	
2025-11-29T00:00	5960	476	-24.3	-25.9	347	7	
2025-11-29T00:00	5980	475	-24.4	-25.9	346	7	
2025-11-29T00:00	6000	474	-24.6	-25.9	346	8	
2025-11-29T00:00	6020	473	-24.8	-25.9	346	8	
2025-11-29T00:00	6040	471	-25.0	-26.1	346	8	
2025-11-29T00:00	6060	470	-25.1	-26.3	347	8	
2025-11-29T00:00	6080	469	-25.3	-26.3	348	8	
2025-11-29T00:00	6100	467	-25.5	-26.3	348	7	
2025-11-29T00:00	6120	466	-25.6	-26.7	348	7	
2025-11-29T00:00	6140	465	-25.7	-27.3	346	7	
2025-11-29T00:00	6160	464	-25.7	-28.0	343	7	
2025-11-29T00:00	6180	462	-25.5	-27.9	339	7	
2025-11-29T00:00	6200	461	-25.6	-28.0	335	7	
2025-11-29T00:00	6220	460	-25.7	-28.0	332	7	
2025-11-29T00:00	6240	459	-25.8	-28.2	329	7	
2025-11-29T00:00	6260	457	-25.9	-28.4	327	8	
2025-11-29T00:00	6280	456	-26.0	-28.7	327	8	
2025-11-29T00:00	6300	455	-26.1	-29.2	327	8	
2025-11-29T00:00	6320	454	-26.3	-29.6	328	8	
2025-11-29T00:00	6340	452	-26.5	-29.4	329	8	
2025-11-29T00:00	6360	451	-26.6	-30.0	330	8	
2025-11-29T00:00	6380	450	-26.8	-30.1	331	7	
2025-11-29T00:00	6400	449	-27.0	-30.1	331	7	
2025-11-29T00:00	6420	447	-27.2	-30.6	331	7	
2025-11-29T00:00	6440	446	-27.3	-30.7	330	8	
2025-11-29T00:00	6460	445	-27.6	-30.7	329	8	
2025-11-29T00:00	6480	444	-27.8	-31.0	329	8	
2025-11-29T00:00	6500	442	-27.9	-31.5	328	9	
2025-11-29T00:00	6520	441	-28.2	-32.8	329	9	
2025-11-29T00:00	6540	440	-28.3	-33.2	330	9	
2025-11-29T00:00	6560	439	-28.5	-32.8	331	10	
2025-11-29T00:00	6580	438	-28.6	-34.4	332	10	
2025-11-29T00:00	6600	436	-28.6	-34.8	333	10	
2025-11-29T00:00	6620	435	-28.7	-33.8	333	10	
2025-11-29T00:00	6640	434	-28.9	-33.5	333	10	
2025-11-29T00:00	6660	433	-29.0	-33.7	333	10	
2025-11-29T00:00	6680	431	-29.2	-33.7	332	10	
2025-11-29T00:00	6700	430	-29.4	-34.2	332	10	
2025-11-29T00:00	6720	429	-29.6	-34.3	331	10	
2025-11-29T00:00	6740	428	-29.8	-34.4	330	10	
2025-11-29T00:00	6760	427	-29.9	-34.4	330	9	
2025-11-29T00:00	6780	425	-30.0	-34.5	329	9	
2025-11-29T00:00	6800	424	-30.2	-34.6	329	9	
2025-11-29T00:00	6820	423	-30.4	-34.5	330	9	
2025-11-29T00:00	6840	422	-30.6	-34.6	330	9	
2025-11-29T00:00	6860	421	-30.7	-35.1	330	9	
2025-11-29T00:00	6880	419	-30.9	-35.8	330	9	
2025-11-29T00:00	6900	418	-31.1	-37.1	330	9	
2025-11-29T00:00	6920	417	-31.3	-37.8	328	9	
2025-11-29T00:00	6940	416	-31.4	-37.5	326	8	
2025-11-29T00:00	6960	415	-31.5	-37.7	325	8	
2025-11-29T00:00	6980	413	-31.5	-37.5	324	8	
2025-11-29T00:00	7000	412	-31.6	-37.4	323	7	
2025-11-29T00:00	7020	411	-31.6	-37.0	323	7	
2025-11-29T00:00	7040	410	-31.7	-36.9	322	7	
2025-11-29T00:00	7060	409	-31.8	-37.2	322	7	
2025-11-29T00:00	7080	408	-31.9	-37.3	321	7	
2025-11-29T00:00	7100	407	-32.1	-37.3	320	7	
2025-11-29T00:00	7120	405	-32.0	-37.6	319	7	
2025-11-29T00:00	7140	404	-32.1	-37.9	317	7	
2025-11-29T00:00	7160	403	-32.2	-37.9	316	8	
2025-11-29T00:00	7180	402	-32.4	-37.9	315	8	
2025-11-29T00:00	7200	401	-32.6	-38.0	313	8	
2025-11-29T00:00	7220	400	-32.7	-37.9	312	8	
2025-11-29T00:00	7240	399	-32.9	-37.8	311	9	
2025-11-29T00:00	7260	398	-33.1	-37.8	310	9	
2025-11-29T00:00	7280	396	-33.3	-37.7	310	9	
2025-11-29T00:00	7300	395	-33.5	-37.9	309	9	
2025-11-29T00:00	7320	394	-33.7	-37.9	309	10	
2025-11-29T00:00	7340	393	-33.9	-37.8	310	10	
2025-11-29T00:00	7360	392	-34.0	-37.8	311	10	
2025-11-29T00:00	7380	391	-34.2	-37.8	311	11	
2025-11-29T00:00	7400	390	-34.3	-37.8	311	11	
2025-11-29T00:00	7420	389	-34.5	-37.9	311	11	
2025-11-29T00:00	7440	387	-34.7	-38.1	310	11	
2025-11-29T00:00	7460	386	-34.9	-38.0	309	11	
2025-11-29T00:00	7480	385	-35.1	-38.0	308	11	
2025-11-29T00:00	7500	384	-35.3	-38.1	308	11	
2025-11-29T00:00	7520	383	-35.4	-38.6	307	11	
2025-11-29T00:00	7540	382	-35.5	-38.8	307	10	
2025-11-29T00:00	7560	381	-35.6	-38.5	307	10	
2025-11-29T00:00	7580	380	-35.8	-38.8	307	10	
2025-11-29T00:00	7600	378	-35.9	-39.4	306	9	
2025-11-29T00:00	7620	378	-36.1	-39.6	306	9	
2025-11-29T00:00	7640	376	-36.2	-39.6	305	9	
2025-11-29T00:00	7660	375	-36.2	-40.5	304	8	
2025-11-29T00:00	7680	374	-36.3	-41.5	303	8	
2025-11-29T00:00	7700	373	-36.5	-42.0	302	9	
2025-11-29T00:00	7720	372	-36.6	-42.5	302	9	
2025-11-29T00:00	7740	371	-36.7	-43.5	302	9	
2025-11-29T00:00	7760	370	-36.8	-43.5	302	9	
2025-11-29T00:00	7780	369	-36.9	-43.3	302	9	
2025-11-29T00:00	7800	368	-37.0	-43.4	302	10	
2025-11-29T00:00	7820	367	-37.2	-43.1	302	10	
2025-11-29T00:00	7840	366	-37.4	-43.0	302	10	
2025-11-29T00:00	7860	365	-37.5	-43.0	301	10	
2025-11-29T00:00	7880	364	-37.7	-42.9	300	10	
2025-11-29T00:00	7900	362	-37.8	-42.2	298	10	
2025-11-29T00:00	7920	362	-37.8	-41.9	298	10	
2025-11-29T00:00	7940	360	-38.0	-42.9	296	10	
2025-11-29T00:00	7960	359	-38.1	-41.7	295	10	
2025-11-29T00:00	7980	358	-38.2	-41.2	294	10	
2025-11-29T00:00	8000	357	-38.3	-40.7	293	11	
2025-11-29T00:00	8020	356	-38.4	-40.9	293	11	
2025-11-29T00:00	8040	355	-38.6	-43.0	294	11	
2025-11-29T00:00	8060	354	-38.7	-43.1	295	11	
2025-11-29T00:00	8080	353	-38.8	-41.2	295	11	
2025-11-29T00:00	8100	352	-38.9	-40.9	296	10	
2025-11-29T00:00	8120	351	-39.0	-40.2	295	10	
2025-11-29T00:00	8140	350	-39.1	-40.9	294	10	
2025-11-29T00:00	8160	349	-39.2	-41.0	292	10	
2025-11-29T00:00	8180	348	-39.4	-41.5	290	9	
2025-11-29T00:00	8200	347	-39.6	-42.8	288	9	
2025-11-29T00:00	8220	346	-39.7	-43.8	287	10	
2025-11-29T00:00	8240	345	-39.8	-42.9	286	10	
2025-11-29T00:00	8260	344	-40.0	-42.8	287	10	
2025-11-29T00:00	8280	343	-40.1	-43.4	288	11	
2025-11-29T00:00	8300	342	-40.3	-43.4	289	11	
2025-11-29T00:00	8320	341	-40.4	-43.4	290	11	
2025-11-29T00:00	8340	340	-40.6	-43.5	291	11	
2025-11-29T00:00	8360	339	-40.8	-44.1	291	11	
2025-11-29T00:00	8380	338	-41.0	-44.3	291	11	
2025-11-29T00:00	8400	337	-41.2	-44.5	290	11	
2025-11-29T00:00	8420	336	-41.4	-44.8	289	11	
2025-11-29T00:00	8440	335	-41.6	-45.0	288	10	
2025-11-29T00:00	8460	334	-41.7	-45.2	287	10	
2025-11-29T00:00	8480	333	-41.9	-45.4	287	10	
2025-11-29T00:00	8500	332	-42.1	-45.7	287	10	
2025-11-29T00:00	8520	331	-42.3	-46.2	288	10	
2025-11-29T00:00	8540	330	-42.5	-46.5	289	10	
2025-11-29T00:00	8560	329	-42.6	-46.6	290	10	
2025-11-29T00:00	8580	328	-42.8	-46.0	291	10	
2025-11-29T00:00	8600	327	-43.0	-45.8	291	10	
2025-11-29T00:00	8620	326	-43.1	-45.1	290	11	
2025-11-29T00:00	8640	325	-43.3	-45.0	290	11	
2025-11-29T00:00	8660	324	-43.5	-45.3	290	11	
2025-11-29T00:00	8680	323	-43.6	-45.4	291	11	
2025-11-29T00:00	8700	322	-43.7	-45.6	293	11	
2025-11-29T00:00	8720	321	-43.9	-46.4	294	11	
2025-11-29T00:00	8740	320	-44.0	-47.3	294	11	
2025-11-29T00:00	8760	320	-44.1	-48.0	295	11	
2025-11-29T00:00	8780	319	-44.3	-48.3	294	11	
2025-11-29T00:00	8800	318	-44.4	-48.7	294	11	
2025-11-29T00:00	8820	317	-44.5	-48.7	293	11	
2025-11-29T00:00	8840	316	-44.7	-48.4	292	11	
2025-11-29T00:00	8860	315	-44.8	-48.7	291	11	
2025-11-29T00:00	8880	314	-45.0	-49.5	290	12	
2025-11-29T00:00	8900	313	-45.1	-49.9	290	12	
2025-11-29T00:00	8920	312	-45.3	-50.3	290	12	
2025-11-29T00:00	8940	311	-45.4	-50.8	290	12	
2025-11-29T00:00	8960	310	-45.6	-51.1	290	12	
2025-11-29T00:00	8980	309	-45.8	-51.4	290	12	
2025-11-29T00:00	9000	308	-45.9	-51.3	290	12	
2025-11-29T00:00	9020	307	-46.1	-51.3	290	13	
2025-11-29T00:00	9040	306	-46.3	-51.3	290	13	
2025-11-29T00:00	9060	305	-46.5	-51.4	290	13	
2025-11-29T00:00	9080	304	-46.6	-51.6	290	13	
2025-11-29T00:00	9100	304	-46.8	-51.7	290	13	
2025-11-29T00:00	9120	303	-47.0	-51.7	290	13	
2025-11-29T00:00	9140	302	-47.2	-51.9	289	13	
2025-11-29T00:00	9160	301	-47.3	-51.9	289	13	
2025-11-29T00:00	9180	300	-47.5	-51.9	290	13	
2025-11-29T00:00	9200	299	-47.7	-52.2	290	13	
2025-11-29T00:00	9220	298	-47.9	-52.5	290	13	
2025-11-29T00:00	9240	297	-48.0	-52.7	290	13	
2025-11-29T00:00	9260	296	-48.1	-52.9	290	13	
2025-11-29T00:00	9280	295	-48.3	-53.1	290	13	
2025-11-29T00:00	9300	295	-48.4	-53.3	290	13	
2025-11-29T00:00	9320	294	-48.6	-53.5	289	13	
2025-11-29T00:00	9340	293	-48.8	-53.6	288	13	
2025-11-29T00:00	9360	292	-48.9	-53.8	288	13	
2025-11-29T00:00	9380	291	-49.0	-53.9	287	13	
2025-11-29T00:00	9400	290	-49.1	-54.1	287	13	
2025-11-29T00:00	9420	289	-49.2	-54.3	287	13	
2025-11-29T00:00	9440	288	-49.3	-54.3	288	12	
2025-11-29T00:00	9460	287	-49.5	-54.2	288	12	
2025-11-29T00:00	9480	287	-49.7	-54.2	289	12	
2025-11-29T00:00	9500	286	-49.9	-54.2	289	12	
2025-11-29T00:00	9520	285	-50.1	-54.1	289	12	
2025-11-29T00:00	9540	284	-50.2	-54.1	289	12	
2025-11-29T00:00	9560	283	-50.4	-54.1	288	12	
2025-11-29T00:00	9580	282	-50.5	-54.2	287	12	
2025-11-29T00:00	9600	281	-50.6	-54.4	286	12	
2025-11-29T00:00	9620	280	-50.8	-54.6	285	12	
2025-11-29T00:00	9640	280	-51.0	-54.8	284	12	
2025-11-29T00:00	9660	279	-51.1	-55.0	283	12	
2025-11-29T00:00	9680	278	-51.2	-55.3	282	12	
2025-11-29T00:00	9700	277	-51.4	-55.6	282	12	
2025-11-29T00:00	9720	276	-51.5	-55.9	281	12	
2025-11-29T00:00	9740	275	-51.6	-56.1	281	12	
2025-11-29T00:00	9760	275	-51.7	-56.2	281	12	
2025-11-29T00:00	9780	274	-51.8	-56.4	281	12	
2025-11-29T00:00	9800	273	-52.0	-56.6	280	12	
2025-11-29T00:00	9820	272	-52.2	-56.7	280	12	
2025-11-29T00:00	9840	271	-52.4	-56.8	280	12	
2025-11-29T00:00	9860	270	-52.5	-56.7	280	12	
2025-11-29T00:00	9880	269	-52.7	-56.7	280	11	
2025-11-29T00:00	9900	269	-52.9	-56.8	279	11	
2025-11-29T00:00	9920	268	-53.0	-56.9	279	11	
2025-11-29T00:00	9940	267	-53.2	-57.0	279	11	
2025-11-29T00:00	9960	266	-53.4	-57.1	279	11	
2025-11-29T00:00	9980	265	-53.6	-57.3	280	11	
2025-11-29T00:00	10000	265	-53.7	-57.4	280	11	
2025-11-29T00:00	10018	264	-53.8	-57.5	280	11	
2025-11-29T00:00	10050	263	-54.1	-57.6	281	12	
2025-11-29T00:00	10100	260	-54.6	-57.8	281	12	
2025-11-29T00:00	10150	258	-55.1	-57.9	281	12	
2025-11-29T00:00	10200	256	-55.5	-58.1	281	12	
2025-11-29T00:00	10250	254	-55.9	-58.4	280	12	
2025-11-29T00:00	10300	252	-56.4	-59.1	278	12	
2025-11-29T00:00	10350	250	-56.6	-60.0	277	12	
2025-11-29T00:00	10400	248	-57.0	-60.6	278	12	
2025-11-29T00:00	10450	246	-57.3	-61.0	280	12	
2025-11-29T00:00	10500	244	-57.7	-61.5	279	11	
2025-11-29T00:00	10550	242	-57.9	-61.7	273	10	
2025-11-29T00:00	10600	241	-58.1	-61.8	267	10	
2025-11-29T00:00	10650	239	-58.4	-62.0	264	10	
2025-11-29T00:00	10700	237	-58.8	-62.2	263	10	
2025-11-29T00:00	10750	235	-59.1	-62.3	263	11	
2025-11-29T00:00	10800	233	-59.6	-62.7	263	11	
2025-11-29T00:00	10850	231	-59.8	-63.8	262	12	
2025-11-29T00:00	10900	229	-60.1	-64.0	262	12	
2025-11-29T00:00	10950	228	-60.5	-64.3	263	12	
2025-11-29T00:00	11000	226	-60.7	-64.8	264	13	
2025-11-29T00:00	11050	224	-61.1	-65.1	266	13	
2025-11-29T00:00	11100	222	-61.5	-65.4	267	14	
2025-11-29T00:00	11150	220	-61.8	-65.8	269	14	
2025-11-29T00:00	11200	219	-61.9	-66.3	270	15	
2025-11-29T00:00	11250	217	-61.8	-66.6	271	16	
2025-11-29T00:00	11300	215	-62.0	-66.5	272	16	
2025-11-29T00:00	11350	213	-62.2	-66.6	273	16	
2025-11-29T00:00	11400	212	-62.1	-67.3	274	16	
2025-11-29T00:00	11450	210	-62.5	-68.2	277	16	
2025-11-29T00:00	11500	208	-62.7	-69.1	279	17	
2025-11-29T00:00	11550	207	-62.5	-69.7	280	17	
2025-11-29T00:00	11600	205	-62.5	-70.6	281	17	
2025-11-29T00:00	11650	203	-62.3	-71.0	282	17	
2025-11-29T00:00	11700	202	-62.2	-71.3	284	17	
2025-11-29T00:00	11750	200	-62.5	-71.7	286	17	
2025-11-29T00:00	11800	198	-62.6	-72.3	289	17	
2025-11-29T00:00	11850	197	-62.3	-73.1	292	18	
2025-11-29T00:00	11900	195	-61.9	-73.9	294	18	
2025-11-29T00:00	11950	194	-61.8	-74.8	294	18	
2025-11-29T00:00	12000	192	-61.8	-75.4	293	19	
2025-11-29T00:00	12050	190	-61.4	-76.0	291	19	
2025-11-29T00:00	12100	189	-61.3	-76.3	288	18	
2025-11-29T00:00	12150	187	-61.6	-76.3	284	17	
2025-11-29T00:00	12200	186	-61.9	-76.1	282	17	
2025-11-29T00:00	12250	184	-61.9	-76.4	282	17	
2025-11-29T00:00	12300	183	-61.3	-76.9	286	17	
2025-11-29T00:00	12350	182	-61.3	-77.6	289	18	
2025-11-29T00:00	12400	180	-61.5	-77.9	292	18	
2025-11-29T00:00	12450	179	-61.8	-78.3	294	17	
2025-11-29T00:00	12500	177	-60.8	-78.8	295	16	
2025-11-29T00:00	12550	176	-59.7	-79.2	296	15	
2025-11-29T00:00	12600	174	-59.4	-79.4	297	15	
2025-11-29T00:00	12650	173	-59.2	-79.6	299	15	
2025-11-29T00:00	12700	172	-59.1	-79.8	301	15	
2025-11-29T00:00	12750	170	-59.0	-80.0	303	15	
2025-11-29T00:00	12800	169	-58.8	-80.0	305	15	
2025-11-29T00:00	12850	167	-58.9	-80.2	308	14	
2025-11-29T00:00	12900	166	-58.9	-80.3	311	14	
2025-11-29T00:00	12950	165	-59.0	-80.3	315	13	
2025-11-29T00:00	13000	164	-59.2	-80.4	320	11	
2025-11-29T00:00	13050	162	-58.7	-80.1	324	10	
2025-11-29T00:00	13100	161	-58.9	-80.3	328	8	
2025-11-29T00:00	13150	160	-59.2	-80.6	326	8	
2025-11-29T00:00	13200	158	-59.6	-80.8	321	8	
2025-11-29T00:00	13250	157	-60.0	-80.9	315	7	
2025-11-29T00:00	13300	156	-60.4	-81.2	307	8	
2025-11-29T00:00	13350	155	-60.5	-81.2	298	8	
2025-11-29T00:00	13400	153	-60.7	-81.3	292	9	
2025-11-29T00:00	13450	152	-60.8	-81.5	289	10	
2025-11-29T00:00	13500	151	-61.1	-81.8	288	11	
2025-11-29T00:00	13550	150	-61.2	-81.9	289	13	
2025-11-29T00:00	13600	149	-60.8	-81.9	291	14	
2025-11-29T00:00	13650	147	-60.5	-82.1	293	14	
2025-11-29T00:00	13700	146	-60.2	-82.4	297	14	
2025-11-29T00:00	13750	145	-59.7	-82.6	301	14	
2025-11-29T00:00	13800	144	-59.2	-82.7	304	15	
2025-11-29T00:00	13850	143	-59.2	-82.8	305	16	
2025-11-29T00:00	13900	142	-59.3	-82.8	304	17	
2025-11-29T00:00	13950	140	-59.5	-82.9	305	17	
2025-11-29T00:00	14000	139	-59.1	-82.8	305	15	
2025-11-29T00:00	14050	138	-59.3	-82.9	303	14	
2025-11-29T00:00	14100	137	-59.7	-82.9	301	13	
2025-11-29T00:00	14150	136	-60.1	-83.1	300	13	
2025-11-29T00:00	14200	135	-60.5	-83.2	299	12	
2025-11-29T00:00	14250	134	-60.5	-83.2	300	12	
2025-11-29T00:00	14300	133	-60.6	-83.3	302	11	
2025-11-29T00:00	14350	132	-61.0	-83.5	305	10	
2025-11-29T00:00	14400	131	-61.2	-83.6	308	9	
2025-11-29T00:00	14450	130	-61.2	-83.8	310	9	
2025-11-29T00:00	14500	129	-60.9	-83.8	308	9	
2025-11-29T00:00	14550	128	-60.8	-83.8	303	10	
2025-11-29T00:00	14600	127	-61.0	-83.8	299	11	
2025-11-29T00:00	14650	126	-61.3	-83.8	297	12	
2025-11-29T00:00	14700	124	-61.6	-83.8	298	12	
2025-11-29T00:00	14750	123	-61.7	-83.9	300	12	
2025-11-29T00:00	14800	122	-61.8	-83.9	303	12	
2025-11-29T00:00	14850	122	-61.8	-83.9	305	11	
2025-11-29T00:00	14900	121	-61.9	-83.9	306	10	
2025-11-29T00:00	14950	120	-62.1	-83.9	306	9	
2025-11-29T00:00	15000	119	-62.4	-83.9	304	8	
2025-11-29T00:00	15050	118	-62.2	-83.8	301	8	
2025-11-29T00:00	15100	117	-62.6	-83.9	299	8	
2025-11-29T00:00	15150	116	-63.0	-84.1	295	9	
2025-11-29T00:00	15200	115	-63.3	-84.3	290	10	
2025-11-29T00:00	15250	114	-63.5	-84.5	286	11	
2025-11-29T00:00	15300	113	-63.6	-84.8	288	11	
2025-11-29T00:00	15350	112	-63.7	-85.0	292	11	
2025-11-29T00:00	15400	111	-63.7	-85.0	296	10	
2025-11-29T00:00	15450	110	-63.7	-84.9	299	10	
2025-11-29T00:00	15500	109	-63.6	-84.7	301	11	
2025-11-29T00:00	15550	108	-63.8	-84.7	300	11	
2025-11-29T00:00	15600	108	-64.0	-84.8	300	12	
2025-11-29T00:00	15650	107	-64.3	-84.9	299	13	
2025-11-29T00:00	15700	106	-64.4	-85.0	298	14	
2025-11-29T00:00	15750	105	-63.6	-84.6	299	15	
2025-11-29T00:00	15800	104	-63.3	-84.6	302	14	
2025-11-29T00:00	15850	103	-63.0	-84.6	306	14	
2025-11-29T00:00	15900	102	-62.7	-84.6	310	13	
2025-11-29T00:00	15950	102	-62.5	-84.6	311	12	
2025-11-29T00:00	16000	101	-62.0	-84.3	310	12	
2025-11-29T00:00	16050	100	-62.1	-84.4	309	11	
2025-11-29T00:00	16100	99	-62.3	-84.4	309	10	
2025-11-29T00:00	16150	98	-62.7	-84.4	309	9	
2025-11-29T00:00	16200	98	-63.1	-84.5	308	9	
2025-11-29T00:00	16250	97	-63.5	-84.6	305	9	
2025-11-29T00:00	16300	96	-63.9	-84.7	300	9	
2025-11-29T00:00	16350	95	-64.3	-84.9	293	9	
2025-11-29T00:00	16400	94	-64.7	-84.9	287	9	
2025-11-29T00:00	16450	94	-65.0	-85.0	284	9	
2025-11-29T00:00	16500	93	-65.4	-85.1	286	10	
2025-11-29T00:00	16550	92	-65.7	-85.2	288	11	
2025-11-29T00:00	16600	91	-66.0	-85.3	290	11	
2025-11-29T00:00	16650	91	-66.1	-85.5	292	11	
2025-11-29T00:00	16700	90	-65.8	-85.6	297	11	
2025-11-29T00:00	16750	89	-65.2	-85.4	301	10	
2025-11-29T00:00	16800	88	-65.3	-85.5	304	9	
2025-11-29T00:00	16850	88	-65.5	-85.6	300	10	
2025-11-29T00:00	16900	87	-65.5	-85.7	293	10	
2025-11-29T00:00	16950	86	-65.4	-85.9	288	11	
2025-11-29T00:00	17000	86	-64.6	-85.7	286	11	
2025-11-29T00:00	17050	85	-64.3	-85.7	287	10	
2025-11-29T00:00	17100	84	-64.1	-85.6	286	9	
2025-11-29T00:00	17150	83	-64.4	-85.7	285	9	
2025-11-29T00:00	17200	83	-64.8	-85.7	285	8	
2025-11-29T00:00	17250	82	-65.0	-85.7	285	7	
2025-11-29T00:00	17300	81	-65.3	-85.8	286	6	
2025-11-29T00:00	17350	81	-65.5	-85.9	284	5	
2025-11-29T00:00	17400	80	-65.7	-86.0	275	5	
2025-11-29T00:00	17450	79	-65.6	-86.1	270	7	
2025-11-29T00:00	17500	79	-65.1	-86.0	271	8	
2025-11-29T00:00	17550	78	-64.9	-86.3	276	9	
2025-11-29T00:00	17600	78	-64.5	-86.4	277	9	
2025-11-29T00:00	17650	77	-63.4	-86.0	274	8	
2025-11-29T00:00	17700	76	-63.5	-86.1	268	7	
2025-11-29T00:00	17750	76	-63.8	-86.2	262	8	
2025-11-29T00:00	17800	75	-64.2	-86.3	262	8	
2025-11-29T00:00	17850	74	-64.3	-86.3	267	9	
2025-11-29T00:00	17900	74	-64.3	-86.4	273	10	
2025-11-29T00:00	17950	73	-64.3	-86.4	280	10	
2025-11-29T00:00	18000	73	-64.4	-86.4	285	9	
2025-11-29T00:00	18050	72	-64.6	-86.5	285	9	
2025-11-29T00:00	18100	71	-64.7	-86.6	284	8	
2025-11-29T00:00	18150	71	-64.7	-86.7	283	7	
2025-11-29T00:00	18200	70	-64.6	-86.7	279	7	
2025-11-29T00:00	18250	70	-64.8	-86.7	271	7	
2025-11-29T00:00	18300	69	-65.2	-86.9	262	8	
2025-11-29T00:00	18350	69	-65.4	-86.9	258	9	
2025-11-29T00:00	18400	68	-65.5	-87.0	257	10	
2025-11-29T00:00	18450	67	-65.4	-87.2	258	10	
2025-11-29T00:00	18500	67	-65.2	-87.3	258	9	
2025-11-29T00:00	18550	66	-64.4	-87.0	256	9	
2025-11-29T00:00	18600	66	-64.3	-87.0	253	9	
2025-11-29T00:00	18650	65	-64.3	-87.0	255	9	
2025-11-29T00:00	18700	65	-64.2	-87.0	261	10	
2025-11-29T00:00	18750	64	-64.0	-86.9	267	11	
2025-11-29T00:00	18800	64	-64.1	-86.9	273	12	
2025-11-29T00:00	18850	63	-64.2	-87.0	277	12	
2025-11-29T00:00	18900	63	-64.3	-87.0	281	12	
2025-11-29T00:00	18950	62	-64.6	-87.2	285	12	
2025-11-29T00:00	19000	62	-64.5	-87.3	289	12	
2025-11-29T00:00	19050	61	-64.4	-87.3	292	12	
2025-11-29T00:00	19100	61	-64.4	-87.3	293	12	
2025-11-29T00:00	19150	60	-64.3	-87.2	292	12	
2025-11-29T00:00	19200	60	-64.4	-87.2	291	11	
2025-11-29T00:00	19250	59	-64.6	-87.3	292	11	
2025-11-29T00:00	19300	59	-64.7	-87.4	292	10	
2025-11-29T00:00	19350	58	-64.8	-87.4	293	9	
2025-11-29T00:00	19400	58	-64.9	-87.4	293	9	
2025-11-29T00:00	19450	57	-65.3	-87.5	294	8	
2025-11-29T00:00	19500	57	-65.6	-87.7	293	8	
2025-11-29T00:00	19550	56	-65.5	-87.7	293	8	
2025-11-29T00:00	19600	56	-65.7	-87.8	293	8	
2025-11-29T00:00	19650	55	-65.8	-88.0	293	8	
2025-11-29T00:00	19700	55	-65.8	-88.1	290	9	
2025-11-29T00:00	19750	55	-65.6	-88.1	288	8	
2025-11-29T00:00	19800	54	-65.4	-88.0	287	8	
2025-11-29T00:00	19850	54	-65.5	-88.1	290	8	
2025-11-29T00:00	19900	53	-65.5	-88.1	292	8	
2025-11-29T00:00	19950	53	-65.3	-88.0	292	7	
2025-11-29T00:00	20000	52	-65.3	-88.0	290	6	
2025-11-29T00:00	20050	52	-65.2		288	5	
2025-11-29T00:00	20100	51	-65.1		289	4	
2025-11-29T00:00	20150	51	-65.3		291	4	
2025-11-29T00:00	20200	51	-65.3		290	4	
2025-11-29T00:00	20250	50	-65.1		283	4	
2025-11-29T00:00	20300	50	-65.3		272	5	
2025-11-29T00:00	20350	49	-65.4		261	6	
2025-11-29T00:00	20400	49	-65.7		253	7	
2025-11-29T00:00	20450	49	-66.1		248	8	
2025-11-29T00:00	20500	48	-66.5		243	9	
2025-11-29T00:00	20550	48	-66.8		240	9	
2025-11-29T00:00	20600	47	-67.1		238	10	
2025-11-29T00:00	20650	47	-67.5		236	10	
2025-11-29T00:00	20700	47	-67.7		237	10	
2025-11-29T00:00	20750	46	-67.4		239	9	
2025-11-29T00:00	20800	46	-67.4		242	9	
2025-11-29T00:00	20850	45	-67.4		244	8	
2025-11-29T00:00	20900	45	-67.4		243	8	
2025-11-29T00:00	20950	45	-67.4		238	8	
2025-11-29T00:00	21000	44	-67.5		234	9	
2025-11-29T00:00	21050	44	-67.5		231	10	
2025-11-29T00:00	21100	44	-67.8		231	11	
2025-11-29T00:00	21150	43	-67.9		230	12	
2025-11-29T00:00	21200	43	-67.6		230	14	
2025-11-29T00:00	21250	43	-67.8		231	15	
2025-11-29T00:00	21300	42	-67.9		235	15	
2025-11-29T00:00	21350	42	-67.5		240	14	
2025-11-29T00:00	21400	41	-67.5		246	14	
2025-11-29T00:00	21450	41	-67.6		251	14	
2025-11-29T00:00	21500	41	-67.8		256	14	
2025-11-29T00:00	21550	40	-68.0		262	14	
2025-11-29T00:00	21600	40	-68.2		268	13	
2025-11-29T00:00	21650	40	-68.3		276	13	
2025-11-29T00:00	21700	39	-68.0		283	12	
2025-11-29T00:00	21750	39	-67.6		286	12	
2025-11-29T00:00	21800	39	-67.6		285	11	
2025-11-29T00:00	21850	39	-67.6		283	10	
2025-11-29T00:00	21900	38	-67.8		282	10	
2025-11-29T00:00	21950	38	-67.7		280	9	
2025-11-29T00:00	22000	38	-67.9		276	10	
2025-11-29T00:00	22050	37	-68.1		273	10	
2025-11-29T00:00	22100	37	-68.2		272	10	
2025-11-29T00:00	22150	37	-68.3		273	10	
2025-11-29T00:00	22200	36	-67.8		272	10	
2025-11-29T00:00	22250	36	-67.6		270	11	
2025-11-29T00:00	22300	36	-67.5		269	11	
2025-11-29T00:00	22350	35	-67.4		266	11	
2025-11-29T00:00	22400	35	-67.3		263	10	
2025-11-29T00:00	22450	35	-67.3		262	10	
2025-11-29T00:00	22500	35	-67.4		260	9	
2025-11-29T00:00	22550	34	-67.2		257	9	
2025-11-29T00:00	22600	34	-66.8		254	9	
2025-11-29T00:00	22650	34	-66.4		251	10	
2025-11-29T00:00	22700	33	-66.1		250	10	
2025-11-29T00:00	22750	33	-65.9		250	10	
2025-11-29T00:00	22800	33	-66.0		250	10	
2025-11-29T00:00	22850	33	-66.3		248	10	
2025-11-29T00:00	22900	32	-66.3		245	9	
2025-11-29T00:00	22950	32	-66.4		243	9	
2025-11-29T00:00	23000	32	-66.6		246	9	
2025-11-29T00:00	23050	32	-66.6		251	9	
2025-11-29T00:00	23100	31	-66.9		256	9	
2025-11-29T00:00	23150	31	-67.2		259	9	
2025-11-29T00:00	23200	31	-67.3		258	9	
2025-11-29T00:00	23250	31	-67.3		253	10	
2025-11-29T00:00	23300	30	-67.6		249	11	
2025-11-29T00:00	23350	30	-67.7		248	12	
2025-11-29T00:00	23400	30	-67.6		247	13	
2025-11-29T00:00	23450	30	-67.3		248	13	
2025-11-29T00:00	23500	29	-67.0		250	14	
2025-11-29T00:00	23550	29	-66.8		254	15	
2025-11-29T00:00	23600	29	-66.3		258	15	
2025-11-29T00:00	23650	29	-65.7		261	15	
2025-11-29T00:00	23700	28	-65.4		263	14	
2025-11-29T00:00	23750	28	-65.5		264	13	
2025-11-29T00:00	23800	28	-65.6		265	12	
2025-11-29T00:00	23850	28	-65.6		266	12	
2025-11-29T00:00	23900	27	-65.8		266	12	
2025-11-29T00:00	23950	27	-65.7		265	12	
2025-11-29T00:00	24000	27	-65.7		264	13	
2025-11-29T00:00	24050	27	-65.6		264	14	
2025-11-29T00:00	24100	27	-65.6		264	15	
2025-11-29T00:00	24150	26	-65.4		264	15	
2025-11-29T00:00	24200	26	-65.5		265	16	
2025-11-29T00:00	24250	26	-65.5		265	16	
2025-11-29T00:00	24300	26	-65.5		266	16	
2025-11-29T00:00	24350	25	-65.3		266	16	
2025-11-29T00:00	24400	25	-65.0		266	16	
2025-11-29T00:00	24450	25	-64.7		267	15	
2025-11-29T00:00	24500	25	-64.1		268	15	
2025-11-29T00:00	24550	25	-63.8		270	15	
2025-11-29T00:00	24600	24	-63.9		272	16	
2025-11-29T00:00	24650	24	-64.1		272	16	
2025-11-29T00:00	24700	24	-64.4		273	16	
2025-11-29T00:00	24750	24	-64.9		274	17	
2025-11-29T00:00	24800	24	-65.3		274	17	
2025-11-29T00:00	24850	23	-65.5		275	17	
2025-11-29T00:00	24900	23	-65.7		276	17	
2025-11-29T00:00	24950	23	-65.9		277	16	
2025-11-29T00:00	25000	23	-66.0		276	15	
2025-11-29T00:00	25050	23	-65.9		274	15	
2025-11-29T00:00	25100	23	-65.8		274	15	
2025-11-29T00:00	25150	22	-65.6		275	14	
2025-11-29T00:00	25200	22	-65.5		276	14	
2025-11-29T00:00	25250	22	-65.6		273	14	
2025-11-29T00:00	25300	22	-65.5		268	14	
2025-11-29T00:00	25350	22	-65.2		263	15	
2025-11-29T00:00	25400	21	-65.2		259	16	
2025-11-29T00:00	25450	21	-65.2		256	17	
2025-11-29T00:00	25500	21	-65.2		254	17	
2025-11-29T00:00	25550	21	-65.4		253	18	
2025-11-29T00:00	25600	21	-65.5		252	19	
2025-11-29T00:00	25650	21	-65.3		251	21	
2025-11-29T00:00	25700	20	-65.0		251	22	
2025-11-29T00:00	25750	20	-65.0		251	22	
2025-11-29T00:00	25800	20	-64.7		251	22	
2025-11-29T00:00	25850	20	-64.3		252	21	
2025-11-29T00:00	25900	20	-64.1		255	21	
2025-11-29T00:00	25950	20	-63.7		259	21	
2025-11-29T00:00	26000	19	-63.8		263	21	
2025-11-29T00:00	26050	19	-63.9		266	21	
2025-11-29T00:00	26100	19	-63.9		268	22	
2025-11-29T00:00	26150	19	-63.9		269	22	
2025-11-29T00:00	26200	19	-63.5		269	23	
2025-11-29T00:00	26250	19	-63.0		270	23	
2025-11-29T00:00	26300	18	-63.0		270	22	
2025-11-29T00:00	26350	18	-63.3		270	21	
2025-11-29T00:00	26400	18	-63.6		268	21	
2025-11-29T00:00	26450	18	-63.6		265	20	
2025-11-29T00:00	26500	18	-63.6		261	20	
2025-11-29T00:00	26550	18	-63.7		258	20	
2025-11-29T00:00	26600	18	-63.8		256	20	
2025-11-29T00:00	26650	17	-63.8		256	20	
2025-11-29T00:00	26700	17	-64.0		257	20	
2025-11-29T00:00	26750	17	-64.2		258	21	
2025-11-29T00:00	26800	17	-64.2		260	22	
2025-11-29T00:00	26850	17	-64.0		263	23	
2025-11-29T00:00	26900	17	-63.9		265	23	
2025-11-29T00:00	26950	17	-64.1		265	24	
2025-11-29T00:00	27000	16	-63.9		264	24	
2025-11-29T00:00	27050	16	-63.5		263	24	
2025-11-29T00:00	27100	16	-63.5		262	24	
2025-11-29T00:00	27150	16	-63.6		261	23	
2025-11-29T00:00	27200	16	-63.8		259	23	
2025-11-29T00:00	27250	16	-64.0		259	23	
2025-11-29T00:00	27300	16	-64.1		258	23	
2025-11-29T00:00	27350	16	-64.2		256	23	
2025-11-29T00:00	27400	15	-64.2		254	24	
2025-11-29T00:00	27450	15	-64.0		254	24	
2025-11-29T00:00	27500	15	-63.9		256	23	
2025-11-29T00:00	27550	15	-63.9		259	23	
2025-11-29T00:00	27600	15	-63.9		261	23	
2025-11-29T00:00	27650	15	-63.3		263	23	
2025-11-29T00:00	27700	15	-63.3		263	23	
2025-11-29T00:00	27750	15	-63.4		263	24	
2025-11-29T00:00	27800	14	-63.3		263	24	
2025-11-29T00:00	27850	14	-63.7		263	25	
2025-11-29T00:00	27900	14	-64.0		263	25	
2025-11-29T00:00	27950	14	-64.4		264	26	
2025-11-29T00:00	28000	14	-64.7		264	26	
2025-11-29T00:00	28050	14	-64.9		264	26	
2025-11-29T00:00	28100	14	-65.0		264	26	
2025-11-29T00:00	28150	14	-65.1		264	25	
2025-11-29T00:00	28200	14	-65.1		264	24	
2025-11-29T00:00	28250	13	-65.3		264	24	
2025-11-29T00:00	28300	13	-65.6		262	24	
2025-11-29T00:00	28350	13	-65.6		261	24	
2025-11-29T00:00	28400	13	-66.0		261	24	
2025-11-29T00:00	28450	13	-66.2		261	24	
2025-11-29T00:00	28500	13	-66.3		261	24	
2025-11-29T00:00	28550	13	-66.5		261	24	
2025-11-29T00:00	28600	13	-66.7		260	23	
2025-11-29T00:00	28650	13	-66.6		259	23	
2025-11-29T00:00	28700	12	-66.8		258	22	
2025-11-29T00:00	28750	12	-66.8		258	22	
2025-11-29T00:00	28800	12	-66.7		259	22	
2025-11-29T00:00	28850	12	-66.7		261	23	
2025-11-29T00:00	28900	12	-66.5		261	24	
2025-11-29T00:00	28950	12	-66.2		260	26	
2025-11-29T00:00	29000	12	-65.7		260	28	
2025-11-29T00:00	29050	12	-65.3		259	30	
2025-11-29T00:00	29100	12	-64.9		257	31	
2025-11-29T00:00	29150	12	-64.6		256	31	
2025-11-29T00:00	29200	11	-64.7		255	31	
2025-11-29T00:00	29250	11	-64.8		255	32	
2025-11-29T00:00	29300	11	-64.5		255	33	
2025-11-29T00:00	29350	11	-64.3		255	33	
2025-11-29T00:00	29400	11	-64.4		254	33	
2025-11-29T00:00	29450	11	-64.6		254	33	
2025-11-29T00:00	29500	11	-64.1		255	33	
2025-11-29T00:00	29550	11	-63.9		256	32	
2025-11-29T00:00	29600	11	-64.2		257	31	
2025-11-29T00:00	29650	11	-64.4		257	30	
2025-11-29T00:00	29700	11	-64.3		257	30	
2025-11-29T00:00	29750	11	-63.9		257	31	
2025-11-29T00:00	29800	10	-63.6		258	31	
2025-11-29T00:00	29850	10	-63.5		259	32	
2025-11-29T00:00	29900	10	-63.3		259	32	
2025-11-29T00:00	29950	10	-63.0		259	33	
2025-11-29T00:00	30000	10	-62.7		258	34	
2025-11-29T00:00	30050	10	-62.4		257	34	
2025-11-29T00:00	30100	10	-62.2		256	34	
2025-11-29T00:00	30150	10	-62.2		255	34	
2025-11-29T00:00	30200	10	-62.2		255	34	
2025-11-29T00:00	30250	10	-62.3		257	34	
2025-11-29T00:00	30300	10	-62.4		258	34	
2025-11-29T00:00	30350	10	-62.3		258	35	
2025-11-29T00:00	30400	9	-62.3		257	35	
2025-11-29T00:00	30450	9	-62.3		256	35	
2025-11-29T00:00	30500	9	-62.5		256	35	
2025-11-29T00:00	30550	9	-62.5		257	36	
2025-11-29T00:00	30600	9	-62.4		258	36	
2025-11-29T00:00	30650	9	-62.2		259	36	
2025-11-29T00:00	30700	9	-61.8		259	37	
2025-11-29T00:00	30750	9	-61.6		260	37	
2025-11-29T00:00	30800	9	-61.5		261	38	
2025-11-29T00:00	30850	9	-61.3		263	38	
2025-11-29T00:00	30900	9	-61.0		264	39	
2025-11-29T00:00	30950	9	-60.8		264	40	
2025-11-29T00:00	31000	9	-60.4		263	40	
2025-11-29T00:00	31050	9	-60.2		262	40	
2025-11-29T12:00	491	958	6.0	1.5	343	1	
2025-11-29T12:00	501	957	5.8	1.4	39	1	
2025-11-29T12:00	520	955	5.2	1.2	57	1	
2025-11-29T12:00	540	952	5.0	1.0	48	1	
2025-11-29T12:00	560	950	4.8	0.9	37	1	
2025-11-29T12:00	580	948	4.6	0.9	18	0	
2025-11-29T12:00	600	946	4.4	0.8	348	0	
2025-11-29T12:00	620	943	4.2	0.7	293	0	
2025-11-29T12:00	640	941	4.0	0.7	237	0	
2025-11-29T12:00	660	939	3.9	0.6	210	0	
2025-11-29T12:00	680	936	3.7	0.6	197	1	
2025-11-29T12:00	700	934	3.6	0.6	192	1	
2025-11-29T12:00	720	932	3.5	0.6	191	1	
2025-11-29T12:00	740	929	3.4	0.3	192	2	
2025-11-29T12:00	760	927	3.3	0.1	194	2	
2025-11-29T12:00	780	925	3.4	-0.4	197	2	
2025-11-29T12:00	800	922	3.3	-0.6	201	3	
2025-11-29T12:00	820	920	3.3	-0.9	205	3	
2025-11-29T12:00	840	918	3.3	-1.3	209	3	
2025-11-29T12:00	860	916	3.3	-1.6	212	3	
2025-11-29T12:00	880	914	3.4	-1.7	215	4	
2025-11-29T12:00	900	911	3.2	-1.6	218	4	
2025-11-29T12:00	920	909	3.1	-1.2	220	4	
2025-11-29T12:00	940	907	3.0	-1.0	221	4	
2025-11-29T12:00	960	904	3.1	-1.5	221	4	
2025-11-29T12:00	980	902	3.3	-2.0	220	4	
2025-11-29T12:00	1000	900	3.6	-2.0	219	4	
2025-11-29T12:00	1020	898	3.8	-0.9	218	4	
2025-11-29T12:00	1040	896	4.1	-0.1	216	5	
2025-11-29T12:00	1060	893	4.4	-0.1	215	5	
2025-11-29T12:00	1080	891	4.4	0.0	214	5	
2025-11-29T12:00	1100	889	4.8	0.4	214	5	
2025-11-29T12:00	1120	887	4.9	0.6	214	5	
2025-11-29T12:00	1140	885	4.9	0.8	215	5	
2025-11-29T12:00	1160	882	4.9	0.8	216	5	
2025-11-29T12:00	1180	881	5.0	0.8	218	5	
2025-11-29T12:00	1200	878	5.2	0.9	220	5	
2025-11-29T12:00	1220	876	5.3	0.9	223	5	
2025-11-29T12:00	1240	874	5.5	0.7	226	5	
2025-11-29T12:00	1260	872	5.4	2.2	229	5	
2025-11-29T12:00	1280	870	5.3	3.3	232	5	
2025-11-29T12:00	1300	867	5.1	3.6	236	5	
2025-11-29T12:00	1320	865	5.0	3.6	240	5	
2025-11-29T12:00	1340	863	4.9	3.5	244	5	
2025-11-29T12:00	1360	861	4.9	3.2	246	4	
2025-11-29T12:00	1380	859	4.8	3.0	249	4	
2025-11-29T12:00	1400	857	4.8	3.0	251	4	
2025-11-29T12:00	1420	855	4.7	3.0	251	4	
2025-11-29T12:00	1440	853	4.6	3.0	250	4	
2025-11-29T12:00	1460	851	4.4	2.9	248	4	
2025-11-29T12:00	1480	849	4.3	2.6	246	4	
2025-11-29T12:00	1500	847	4.2	2.8	241	4	
2025-11-29T12:00	1520	845	4.1	2.7	236	4	
2025-11-29T12:00	1540	843	4.0	2.4	232	4	
2025-11-29T12:00	1560	840	3.9	2.2	227	4	
2025-11-29T12:00	1580	838	3.8	2.1	223	4	
2025-11-29T12:00	1600	836	3.7	2.1	219	5	
2025-11-29T12:00	1620	834	3.6	1.9	215	5	
2025-11-29T12:00	1640	832	3.6	1.7	210	5	
2025-11-29T12:00	1660	830	3.5	1.7	207	5	
2025-11-29T12:00	1680	828	3.4	1.7	202	5	
2025-11-29T12:00	1700	826	3.5	1.5	199	5	
2025-11-29T12:00	1720	824	3.5	1.4	197	5	
2025-11-29T12:00	1740	822	3.3	1.3	195	5	
2025-11-29T12:00	1760	820	3.1	1.2	195	5	
2025-11-29T12:00	1780	818	3.0	1.1	195	5	
2025-11-29T12:00	1800	816	2.9	1.0	196	5	
2025-11-29T12:00	1820	814	2.7	1.0	198	5	
2025-11-29T12:00	1840	812	2.5	1.0	199	5	
2025-11-29T12:00	1860	810	2.4	1.0	201	4	
2025-11-29T12:00	1880	808	2.2	0.9	203	4	
2025-11-29T12:00	1900	806	2.1	0.7	204	4	
2025-11-29T12:00	1920	804	2.1	0.4	206	4	
2025-11-29T12:00	1940	802	2.0	0.3	208	4	
2025-11-29T12:00	1960	800	1.9	0.2	210	4	
2025-11-29T12:00	1980	798	1.8	0.1	212	4	
2025-11-29T12:00	2000	796	1.6	0.0	215	4	
2025-11-29T12:00	2020	794	1.4	-0.2	218	4	
2025-11-29T12:00	2040	792	1.3	-0.5	221	4	
2025-11-29T12:00	2060	790	1.3	-0.9	224	4	
2025-11-29T12:00	2080	788	1.3	-1.1	228	3	
2025-11-29T12:00	2100	786	1.2	-1.1	232	3	
2025-11-29T12:00	2120	784	1.0	-1.1	237	3	
2025-11-29T12:00	2140	782	0.8	-1.1	242	3	
2025-11-29T12:00	2160	780	0.8	-1.7	247	4	
2025-11-29T12:00	2180	778	0.7	-2.0	252	4	
2025-11-29T12:00	2200	776	0.6	-2.0	257	4	
2025-11-29T12:00	2220	774	0.4	-2.0	260	4	
2025-11-29T12:00	2240	773	0.3	-2.2	261	4	
2025-11-29T12:00	2260	771	0.2	-2.2	262	4	
2025-11-29T12:00	2280	769	0.0	-2.4	263	5	
2025-11-29T12:00	2300	767	-0.1	-2.5	263	5	
2025-11-29T12:00	2320	765	-0.3	-2.6	262	5	
2025-11-29T12:00	2340	763	-0.5	-2.6	262	5	
2025-11-29T12:00	2360	761	-0.7	-2.7	261	5	
2025-11-29T12:00	2380	759	-0.8	-2.7	261	5	
2025-11-29T12:00	2400	757	-1.0	-2.8	261	4	
2025-11-29T12:00	2420	756	-1.1	-3.0	260	4	
2025-11-29T12:00	2440	754	-1.3	-3.0	259	4	
2025-11-29T12:00	2460	752	-1.4	-3.2	258	4	
2025-11-29T12:00	2480	750	-1.5	-3.5	256	4	
2025-11-29T12:00	2500	748	-1.7	-3.6	252	4	
2025-11-29T12:00	2520	746	-1.8	-3.6	249	4	
2025-11-29T12:00	2540	744	-1.9	-3.6	246	4	
2025-11-29T12:00	2560	742	-2.0	-3.7	244	4	
2025-11-29T12:00	2580	740	-2.1	-3.9	241	4	
2025-11-29T12:00	2600	738	-2.3	-4.0	239	4	
2025-11-29T12:00	2620	736	-2.4	-4.1	238	4	
2025-11-29T12:00	2640	735	-2.6	-4.2	237	4	
2025-11-29T12:00	2660	733	-2.7	-4.2	237	4	
2025-11-29T12:00	2680	731	-2.9	-4.1	238	4	
2025-11-29T12:00	2700	729	-3.0	-4.1	240	4	
2025-11-29T12:00	2720	727	-3.2	-4.2	243	4	
2025-11-29T12:00	2740	726	-3.3	-4.3	247	3	
2025-11-29T12:00	2760	724	-3.4	-4.4	252	3	
2025-11-29T12:00	2780	722	-3.6	-4.6	256	3	
2025-11-29T12:00	2800	720	-3.7	-4.7	261	3	
2025-11-29T12:00	2820	718	-3.9	-4.8	265	3	
2025-11-29T12:00	2840	717	-4.0	-4.8	268	4	
2025-11-29T12:00	2860	715	-4.3	-4.9	270	4	
2025-11-29T12:00	2880	713	-4.4	-5.1	271	4	
2025-11-29T12:00	2900	711	-4.3	-5.1	272	4	
2025-11-29T12:00	2920	709	-4.4	-5.0	272	4	
2025-11-29T12:00	2940	707	-4.4	-5.2	272	4	
2025-11-29T12:00	2960	706	-4.4	-5.4	271	4	
2025-11-29T12:00	2980	704	-4.5	-5.5	271	4	
2025-11-29T12:00	3000	702	-4.7	-5.7	272	4	
2025-11-29T12:00	3020	700	-4.8	-5.9	272	4	
2025-11-29T12:00	3040	699	-4.9	-6.4	272	4	
2025-11-29T12:00	3060	697	-4.7	-7.4	272	4	
2025-11-29T12:00	3080	695	-4.6	-9.7	272	4	
2025-11-29T12:00	3100	693	-4.6	-11.4	272	4	
2025-11-29T12:00	3120	691	-4.7	-9.0	271	4	
2025-11-29T12:00	3140	689	-4.8	-8.6	270	4	
2025-11-29T12:00	3160	688	-5.0	-9.1	269	4	
2025-11-29T12:00	3180	686	-5.1	-9.6	268	4	
2025-11-29T12:00	3200	685	-5.3	-9.7	267	5	
2025-11-29T12:00	3220	683	-5.5	-9.8	267	5	
2025-11-29T12:00	3240	681	-5.7	-9.8	266	5	
2025-11-29T12:00	3260	679	-5.9	-10.0	266	5	
2025-11-29T12:00	3280	678	-6.0	-10.1	267	5	
2025-11-29T12:00	3300	676	-6.2	-10.2	268	5	
2025-11-29T12:00	3320	674	-6.4	-10.2	269	6	
2025-11-29T12:00	3340	672	-6.6	-10.2	270	6	
2025-11-29T12:00	3360	671	-6.8	-9.9	272	6	
2025-11-29T12:00	3380	669	-6.8	-9.2	274	6	
2025-11-29T12:00	3400	667	-6.8	-9.5	276	6	
2025-11-29T12:00	3420	665	-7.0	-9.7	277	6	
2025-11-29T12:00	3440	663	-7.1	-9.8	278	6	
2025-11-29T12:00	3460	662	-7.3	-9.7	278	7	
2025-11-29T12:00	3480	660	-7.4	-10.0	278	7	
2025-11-29T12:00	3500	659	-7.4	-10.3	278	7	
2025-11-29T12:00	3520	657	-7.5	-10.6	277	7	
2025-11-29T12:00	3540	656	-7.5	-11.0	277	7	
2025-11-29T12:00	3560	654	-7.7	-10.9	276	7	
2025-11-29T12:00	3580	652	-7.7	-11.2	275	7	
2025-11-29T12:00	3600	650	-7.8	-11.3	275	7	
2025-11-29T12:00	3620	649	-7.9	-11.6	275	6	
2025-11-29T12:00	3640	647	-8.0	-12.1	275	6	
2025-11-29T12:00	3660	645	-7.9	-14.3	276	6	
2025-11-29T12:00	3680	644	-7.8	-15.7	277	6	
2025-11-29T12:00	3700	642	-7.9	-16.3	278	6	
2025-11-29T12:00	3720	641	-8.1	-16.9	280	6	
2025-11-29T12:00	3740	639	-8.2	-16.9	281	6	
2025-11-29T12:00	3760	637	-8.4	-16.8	282	6	
2025-11-29T12:00	3780	636	-8.6	-16.9	283	6	
2025-11-29T12:00	3800	634	-8.7	-17.2	284	6	
2025-11-29T12:00	3820	632	-8.9	-17.2	284	6	
2025-11-29T12:00	3840	631	-9.1	-17.2	284	6	
2025-11-29T12:00	3860	629	-9.3	-17.2	284	6	
2025-11-29T12:00	3880	627	-9.5	-17.2	284	6	
2025-11-29T12:00	3900	626	-9.7	-17.1	285	6	
2025-11-29T12:00	3920	624	-9.9	-17.0	285	6	
2025-11-29T12:00	3940	622	-10.1	-17.0	287	6	
2025-11-29T12:00	3960	621	-10.3	-16.6	288	6	
2025-11-29T12:00	3980	619	-10.4	-16.3	290	6	
2025-11-29T12:00	4000	617	-10.6	-16.1	292	6	
2025-11-29T12:00	4020	616	-10.8	-16.1	293	6	
2025-11-29T12:00	4040	614	-10.9	-16.2	294	7	
2025-11-29T12:00	4060	613	-11.1	-16.1	294	7	
2025-11-29T12:00	4080	611	-11.3	-16.0	294	7	
2025-11-29T12:00	4100	610	-11.4	-16.1	293	7	
2025-11-29T12:00	4120	608	-11.6	-16.9	292	7	
2025-11-29T12:00	4140	606	-11.6	-20.9	290	7	
2025-11-29T12:00	4160	605	-11.7	-22.1	289	8	
2025-11-29T12:00	4180	603	-11.9	-21.1	287	8	
2025-11-29T12:00	4200	602	-12.0	-18.5	286	8	
2025-11-29T12:00	4220	600	-12.2	-17.5	285	8	
2025-11-29T12:00	4240	598	-12.3	-18.4	284	8	
2025-11-29T12:00	4260	597	-12.4	-19.8	283	9	
2025-11-29T12:00	4280	595	-12.6	-19.6	283	9	
2025-11-29T12:00	4300	594	-12.7	-19.5	282	9	
2025-11-29T12:00	4320	592	-12.8	-21.1	282	9	
2025-11-29T12:00	4340	591	-12.9	-21.0	281	9	
2025-11-29T12:00	4360	589	-13.1	-19.9	280	9	
2025-11-29T12:00	4380	587	-13.2	-19.2	279	9	
2025-11-29T12:00	4400	586	-13.3	-18.8	278	9	
2025-11-29T12:00	4420	585	-13.4	-18.6	278	9	
2025-11-29T12:00	4440	583	-13.6	-18.5	277	9	
2025-11-29T12:00	4460	582	-13.8	-18.7	276	9	
2025-11-29T12:00	4480	580	-13.9	-18.7	276	9	
2025-11-29T12:00	4500	578	-14.0	-18.7	275	9	
2025-11-29T12:00	4520	577	-14.2	-19.1	275	9	
2025-11-29T12:00	4540	576	-14.3	-19.6	275	9	
2025-11-29T12:00	4560	574	-14.5	-20.2	275	9	
2025-11-29T12:00	4580	572	-14.6	-20.5	275	9	
2025-11-29T12:00	4600	571	-14.8	-21.1	274	8	
2025-11-29T12:00	4620	569	-15.0	-21.6	273	8	
2025-11-29T12:00	4640	568	-15.1	-22.6	271	8	
2025-11-29T12:00	4660	566	-15.2	-23.9	270	8	
2025-11-29T12:00	4680	565	-15.3	-25.0	267	8	
2025-11-29T12:00	4700	563	-15.5	-25.4	265	8	
2025-11-29T12:00	4720	562	-15.6	-24.5	263	8	
2025-11-29T12:00	4740	560	-15.7	-24.1	261	8	
2025-11-29T12:00	4760	559	-15.7	-23.5	259	8	
2025-11-29T12:00	4780	557	-15.8	-23.6	258	8	
2025-11-29T12:00	4800	556	-15.9	-24.1	257	8	
2025-11-29T12:00	4820	555	-16.1	-25.0	256	8	
2025-11-29T12:00	4840	553	-16.1	-26.3	255	8	
2025-11-29T12:00	4860	552	-16.2	-26.1	255	8	
2025-11-29T12:00	4880	550	-16.3	-25.4	254	8	
2025-11-29T12:00	4900	549	-16.5	-25.1	254	7	
2025-11-29T12:00	4920	547	-16.6	-24.4	254	7	
2025-11-29T12:00	4940	546	-16.8	-25.3	253	7	
2025-11-29T12:00	4960	544	-16.9	-27.6	253	7	
2025-11-29T12:00	4980	543	-16.9	-29.5	252	7	
2025-11-29T12:00	5000	541	-17.0	-31.1	252	7	
2025-11-29T12:00	5020	540	-17.1	-31.7	252	7	
2025-11-29T12:00	5040	538	-17.3	-31.9	253	6	
2025-11-29T12:00	5060	537	-17.4	-33.0	254	6	
2025-11-29T12:00	5080	535	-17.5	-34.4	255	6	
2025-11-29T12:00	5100	534	-17.6	-34.1	257	6	
2025-11-29T12:00	5120	533	-17.8	-34.3	259	6	
2025-11-29T12:00	5140	531	-18.0	-34.5	261	6	
2025-11-29T12:00	5160	530	-18.1	-34.6	262	6	
2025-11-29T12:00	5180	528	-18.3	-34.7	264	6	
2025-11-29T12:00	5200	527	-18.5	-34.7	266	6	
2025-11-29T12:00	5220	525	-18.7	-34.8	267	6	
2025-11-29T12:00	5240	524	-18.9	-35.0	269	6	
2025-11-29T12:00	5260	523	-19.0	-35.1	271	6	
2025-11-29T12:00	5280	521	-19.2	-35.1	274	7	
2025-11-29T12:00	5300	520	-19.4	-35.1	277	7	
2025-11-29T12:00	5320	519	-19.5	-35.3	280	7	
2025-11-29T12:00	5340	517	-19.6	-36.0	283	7	
2025-11-29T12:00	5360	516	-19.6	-36.6	286	7	
2025-11-29T12:00	5380	514	-19.7	-36.8	289	7	
2025-11-29T12:00	5400	513	-19.7	-37.5	290	7	
2025-11-29T12:00	5420	511	-19.7	-38.5	292	8	
2025-11-29T12:00	5440	510	-19.7	-39.4	292	8	
2025-11-29T12:00	5460	509	-19.7	-39.8	293	8	
2025-11-29T12:00	5480	508	-19.8	-40.0	293	8	
2025-11-29T12:00	5500	506	-19.8	-39.8	292	8	
2025-11-29T12:00	5520	505	-19.9	-40.2	292	8	
2025-11-29T12:00	5540	503	-19.9	-40.9	291	9	
2025-11-29T12:00	5560	502	-19.9	-41.7	291	9	
2025-11-29T12:00	5580	501	-19.9	-42.2	290	9	
2025-11-29T12:00	5600	500	-20.0	-42.9	289	9	
2025-11-29T12:00	5620	498	-20.0	-43.6	289	9	
2025-11-29T12:00	5640	497	-20.1	-43.9	289	9	
2025-11-29T12:00	5660	496	-20.2	-44.0	288	9	
2025-11-29T12:00	5680	494	-20.4	-44.5	288	9	
2025-11-29T12:00	5700	493	-20.5	-44.7	288	9	
2025-11-29T12:00	5720	491	-20.6	-45.1	288	9	
2025-11-29T12:00	5740	490	-20.7	-45.6	289	9	
2025-11-29T12:00	5760	489	-20.9	-45.7	289	9	
2025-11-29T12:00	5780	487	-21.1	-45.8	288	9	
2025-11-29T12:00	5800	486	-21.2	-45.8	288	9	
2025-11-29T12:00	5820	485	-21.4	-45.9	286	9	
2025-11-29T12:00	5840	484	-21.5	-46.0	285	9	
2025-11-29T12:00	5860	482	-21.7	-45.7	283	9	
2025-11-29T12:00	5880	481	-21.8	-45.8	282	9	
2025-11-29T12:00	5900	480	-22.0	-45.9	280	9	
2025-11-29T12:00	5920	478	-22.1	-46.4	279	10	
2025-11-29T12:00	5940	477	-22.3	-46.5	279	10	
2025-11-29T12:00	5960	475	-22.5	-46.5	280	10	
2025-11-29T12:00	5980	474	-22.7	-46.5	281	10	
2025-11-29T12:00	6000	473	-22.9	-46.6	282	10	
2025-11-29T12:00	6020	472	-23.1	-46.7	283	10	
2025-11-29T12:00	6040	470	-23.3	-46.5	284	10	
2025-11-29T12:00	6060	469	-23.4	-44.8	285	10	
2025-11-29T12:00	6080	468	-23.6	-43.2	286	10	
2025-11-29T12:00	6100	467	-23.8	-42.4	286	10	
2025-11-29T12:00	6120	465	-24.0	-42.5	286	10	
2025-11-29T12:00	6140	464	-24.2	-42.3	285	10	
2025-11-29T12:00	6160	463	-24.3	-42.2	285	10	
2025-11-29T12:00	6180	461	-24.5	-42.2	285	9	
2025-11-29T12:00	6200	460	-24.8	-42.2	285	9	
2025-11-29T12:00	6220	459	-24.9	-42.1	285	9	
2025-11-29T12:00	6240	458	-25.1	-42.1	286	9	
2025-11-29T12:00	6260	456	-25.3	-41.6	287	8	
2025-11-29T12:00	6280	455	-25.5	-41.0	288	8	
2025-11-29T12:00	6300	454	-25.6	-40.0	290	8	
2025-11-29T12:00	6320	453	-25.8	-38.9	291	8	
2025-11-29T12:00	6340	451	-26.0	-39.0	292	8	
2025-11-29T12:00	6360	450	-26.1	-38.0	293	8	
2025-11-29T12:00	6380	449	-26.2	-36.0	294	8	
2025-11-29T12:00	6400	448	-26.2	-36.4	295	8	
2025-11-29T12:00	6420	446	-26.4	-37.1	295	9	
2025-11-29T12:00	6440	445	-26.5	-37.8	296	9	
2025-11-29T12:00	6460	444	-26.7	-38.0	296	9	
2025-11-29T12:00	6480	443	-26.8	-38.5	297	9	
2025-11-29T12:00	6500	442	-26.9	-39.5	297	9	
2025-11-29T12:00	6520	440	-27.1	-39.8	298	9	
2025-11-29T12:00	6540	439	-27.3	-39.8	299	9	
2025-11-29T12:00	6560	438	-27.4	-39.9	299	8	
2025-11-29T12:00	6580	437	-27.6	-40.0	300	8	
2025-11-29T12:00	6600	435	-27.8	-40.1	300	8	
2025-11-29T12:00	6620	434	-28.0	-40.4	300	7	
2025-11-29T12:00	6640	433	-28.1	-40.8	300	7	
2025-11-29T12:00	6660	432	-28.3	-41.3	300	7	
2025-11-29T12:00	6680	431	-28.5	-41.3	299	7	
2025-11-29T12:00	6700	429	-28.7	-41.2	299	7	
2025-11-29T12:00	6720	428	-28.9	-41.3	299	7	
2025-11-29T12:00	6740	427	-29.0	-41.3	299	7	
2025-11-29T12:00	6760	426	-29.2	-41.3	299	7	
2025-11-29T12:00	6780	425	-29.4	-41.4	300	7	
2025-11-29T12:00	6800	423	-29.6	-41.4	300	8	
2025-11-29T12:00	6820	422	-29.8	-41.2	302	8	
2025-11-29T12:00	6840	421	-30.0	-40.9	303	8	
2025-11-29T12:00	6860	420	-30.2	-40.7	305	8	
2025-11-29T12:00	6880	419	-30.3	-40.6	306	9	
2025-11-29T12:00	6900	418	-30.5	-40.6	308	9	
2025-11-29T12:00	6920	416	-30.7	-40.6	309	9	
2025-11-29T12:00	6940	415	-30.9	-40.7	311	9	
2025-11-29T12:00	6960	414	-31.1	-40.7	311	9	
2025-11-29T12:00	6980	413	-31.3	-40.8	312	10	
2025-11-29T12:00	7000	412	-31.5	-40.7	312	10	
2025-11-29T12:00	7020	411	-31.7	-40.8	312	10	
2025-11-29T12:00	7040	409	-31.9	-41.0	312	10	
2025-11-29T12:00	7060	408	-32.1	-41.0	312	10	
2025-11-29T12:00	7080	407	-32.2	-40.9	312	10	
2025-11-29T12:00	7100	406	-32.4	-40.9	312	10	
2025-11-29T12:00	7120	405	-32.6	-41.0	312	9	
2025-11-29T12:00	7140	404	-32.8	-41.0	311	9	
2025-11-29T12:00	7160	402	-33.0	-41.2	311	9	
2025-11-29T12:00	7180	401	-33.2	-41.4	311	9	
2025-11-29T12:00	7200	400	-33.4	-41.7	311	9	
2025-11-29T12:00	7220	399	-33.6	-41.9	310	9	
2025-11-29T12:00	7240	398	-33.7	-42.2	310	9	
2025-11-29T12:00	7260	397	-33.9	-42.4	310	10	
2025-11-29T12:00	7280	396	-34.1	-42.2	310	10	
2025-11-29T12:00	7300	395	-34.3	-42.3	310	10	
2025-11-29T12:00	7320	393	-34.5	-42.4	310	10	
2025-11-29T12:00	7340	392	-34.7	-42.8	310	10	
2025-11-29T12:00	7360	391	-34.9	-42.9	311	10	
2025-11-29T12:00	7380	390	-35.1	-42.9	312	10	
2025-11-29T12:00	7400	389	-35.2	-42.9	312	10	
2025-11-29T12:00	7420	388	-35.4	-43.3	313	10	
2025-11-29T12:00	7440	387	-35.5	-43.6	313	10	
2025-11-29T12:00	7460	386	-35.8	-43.6	314	10	
2025-11-29T12:00	7480	384	-36.0	-43.7	313	10	
2025-11-29T12:00	7500	383	-36.1	-43.7	312	10	
2025-11-29T12:00	7520	382	-36.3	-43.9	310	10	
2025-11-29T12:00	7540	381	-36.5	-44.2	308	10	
2025-11-29T12:00	7560	380	-36.7	-44.4	307	10	
2025-11-29T12:00	7580	379	-36.9	-44.6	305	10	
2025-11-29T12:00	7600	378	-37.0	-44.4	304	10	
2025-11-29T12:00	7620	377	-37.2	-44.6	304	10	
2025-11-29T12:00	7640	376	-37.4	-44.7	303	10	
2025-11-29T12:00	7660	375	-37.6	-44.7	304	10	
2025-11-29T12:00	7680	374	-37.8	-44.5	304	10	
2025-11-29T12:00	7700	372	-38.0	-44.5	305	10	
2025-11-29T12:00	7720	371	-38.2	-44.6	305	10	
2025-11-29T12:00	7740	370	-38.4	-44.8	306	10	
2025-11-29T12:00	7760	369	-38.6	-45.1	306	10	
2025-11-29T12:00	7780	368	-38.7	-45.3	305	10	
2025-11-29T12:00	7800	367	-38.9	-45.4	305	10	
2025-11-29T12:00	7820	366	-39.1	-45.4	304	10	
2025-11-29T12:00	7840	365	-39.3	-45.4	302	10	
2025-11-29T12:00	7860	364	-39.5	-45.7	301	10	
2025-11-29T12:00	7880	363	-39.7	-45.8	299	10	
2025-11-29T12:00	7900	362	-39.9	-46.3	298	11	
2025-11-29T12:00	7920	361	-40.0	-47.2	298	11	
2025-11-29T12:00	7940	360	-40.2	-47.1	298	11	
2025-11-29T12:00	7960	358	-40.4	-47.1	299	11	
2025-11-29T12:00	7980	357	-40.6	-47.0	300	12	
2025-11-29T12:00	8000	356	-40.8	-47.2	301	12	
2025-11-29T12:00	8020	355	-40.9	-47.2	302	12	
2025-11-29T12:00	8040	354	-41.1	-47.0	304	12	
2025-11-29T12:00	8060	353	-41.3	-47.0	305	12	
2025-11-29T12:00	8080	352	-41.5	-47.0	306	12	
2025-11-29T12:00	8100	351	-41.7	-47.1	307	12	
2025-11-29T12:00	8120	350	-41.9	-47.0	307	12	
2025-11-29T12:00	8140	349	-42.0	-47.0	308	12	
2025-11-29T12:00	8160	348	-42.2	-47.1	308	12	
2025-11-29T12:00	8180	347	-42.4	-47.5	308	12	
2025-11-29T12:00	8200	346	-42.5	-48.1	308	12	
2025-11-29T12:00	8220	345	-42.7	-48.8	307	13	
2025-11-29T12:00	8240	344	-42.8	-49.0	306	13	
2025-11-29T12:00	8260	343	-43.0	-49.1	305	13	
2025-11-29T12:00	8280	342	-43.2	-49.5	304	13	
2025-11-29T12:00	8300	341	-43.3	-50.1	303	14	
2025-11-29T12:00	8320	340	-43.5	-50.6	303	14	
2025-11-29T12:00	8340	339	-43.6	-50.7	303	14	
2025-11-29T12:00	8360	338	-43.8	-50.7	303	14	
2025-11-29T12:00	8380	337	-44.0	-50.8	304	14	
2025-11-29T12:00	8400	336	-44.2	-51.0	305	14	
2025-11-29T12:00	8420	335	-44.4	-51.4	305	14	
2025-11-29T12:00	8440	334	-44.5	-51.7	306	14	
2025-11-29T12:00	8460	333	-44.7	-51.8	306	14	
2025-11-29T12:00	8480	332	-44.9	-52.1	306	14	
2025-11-29T12:00	8500	331	-45.1	-52.4	306	14	
2025-11-29T12:00	8520	330	-45.2	-52.8	305	14	
2025-11-29T12:00	8540	329	-45.4	-52.8	305	14	
2025-11-29T12:00	8560	328	-45.5	-52.7	305	13	
2025-11-29T12:00	8580	327	-45.8	-52.8	305	13	
2025-11-29T12:00	8600	326	-45.9	-53.2	305	13	
2025-11-29T12:00	8620	325	-46.1	-54.1	305	13	
2025-11-29T12:00	8640	324	-46.2	-55.9	305	13	
2025-11-29T12:00	8660	323	-46.4	-56.7	306	12	
2025-11-29T12:00	8680	322	-46.6	-55.9	306	13	
2025-11-29T12:00	8700	321	-46.8	-55.1	307	13	
2025-11-29T12:00	8720	320	-47.0	-55.2	307	13	
2025-11-29T12:00	8740	319	-47.1	-56.4	307	14	
2025-11-29T12:00	8760	318	-47.3	-57.1	307	14	
2025-11-29T12:00	8780	317	-47.5	-57.4	307	14	
2025-11-29T12:00	8800	316	-47.6	-57.1	307	14	
2025-11-29T12:00	8820	315	-47.8	-56.7	308	14	
2025-11-29T12:00	8840	314	-48.0	-56.4	308	14	
2025-11-29T12:00	8860	313	-48.2	-56.3	309	14	
2025-11-29T12:00	8880	313	-48.4	-56.0	309	14	
2025-11-29T12:00	8900	312	-48.6	-55.9	311	13	
2025-11-29T12:00	8920	311	-48.7	-56.8	312	13	
2025-11-29T12:00	8940	310	-48.9	-58.0	313	13	
2025-11-29T12:00	8960	309	-49.0	-58.4	314	13	
2025-11-29T12:00	8980	308	-49.1	-58.6	315	13	
2025-11-29T12:00	9000	307	-49.3	-58.8	315	13	
2025-11-29T12:00	9020	306	-49.5	-59.0	316	13	
2025-11-29T12:00	9040	305	-49.7	-59.2	316	13	
2025-11-29T12:00	9060	304	-49.8	-59.3	316	13	
2025-11-29T12:00	9080	303	-50.0	-59.3	316	13	
2025-11-29T12:00	9100	302	-50.2	-59.3	315	13	
2025-11-29T12:00	9120	301	-50.4	-59.3	315	13	
2025-11-29T12:00	9140	300	-50.6	-59.4	314	13	
2025-11-29T12:00	9160	299	-50.8	-59.3	314	13	
2025-11-29T12:00	9180	299	-50.9	-59.4	313	13	
2025-11-29T12:00	9200	298	-51.1	-59.5	312	13	
2025-11-29T12:00	9220	297	-51.3	-59.5	312	13	
2025-11-29T12:00	9240	296	-51.5	-59.6	312	13	
2025-11-29T12:00	9260	295	-51.7	-59.6	313	13	
2025-11-29T12:00	9280	294	-51.9	-59.6	313	13	
2025-11-29T12:00	9300	293	-52.1	-59.6	314	13	
2025-11-29T12:00	9320	292	-52.2	-59.6	314	13	
2025-11-29T12:00	9340	291	-52.4	-59.5	315	13	
2025-11-29T12:00	9360	290	-52.6	-59.5	315	14	
2025-11-29T12:00	9380	289	-52.8	-59.3	315	14	
2025-11-29T12:00	9400	289	-53.0	-59.1	314	14	
2025-11-29T12:00	9420	288	-53.2	-59.0	313	14	
2025-11-29T12:00	9440	287	-53.4	-59.3	312	14	
2025-11-29T12:00	9460	286	-53.5	-59.7	312	14	
2025-11-29T12:00	9480	285	-53.7	-60.0	311	14	
2025-11-29T12:00	9500	284	-53.9	-60.1	310	14	
2025-11-29T12:00	9520	283	-54.1	-60.1	310	14	
2025-11-29T12:00	9540	282	-54.3	-60.0	309	15	
2025-11-29T12:00	9560	281	-54.4	-60.1	309	15	
2025-11-29T12:00	9580	281	-54.6	-60.3	309	15	
2025-11-29T12:00	9600	280	-54.8	-60.5	309	15	
2025-11-29T12:00	9620	279	-55.0	-60.7	310	15	
2025-11-29T12:00	9640	278	-55.2	-61.0	310	15	
2025-11-29T12:00	9660	277	-55.4	-61.5	310	15	
2025-11-29T12:00	9680	276	-55.5	-62.1	310	15	
2025-11-29T12:00	9700	275	-55.7	-62.6	309	15	
2025-11-29T12:00	9720	275	-55.8	-63.0	309	15	
2025-11-29T12:00	9740	274	-56.0	-63.3	309	15	
2025-11-29T12:00	9760	273	-56.2	-63.4	309	15	
2025-11-29T12:00	9780	272	-56.4	-63.5	309	14	
2025-11-29T12:00	9800	271	-56.6	-63.5	309	14	
2025-11-29T12:00	9820	270	-56.8	-63.6	309	14	
2025-11-29T12:00	9840	269	-56.9	-63.5	309	14	
2025-11-29T12:00	9860	268	-57.1	-63.6	308	14	
2025-11-29T12:00	9880	268	-57.3	-63.8	307	14	
2025-11-29T12:00	9900	267	-57.5	-63.7	306	14	
2025-11-29T12:00	9920	266	-57.6	-63.6	305	13	
2025-11-29T12:00	9940	265	-57.8	-63.6	303	13	
2025-11-29T12:00	9960	264	-58.0	-63.5	302	13	
2025-11-29T12:00	9980	263	-58.2	-63.5	301	13	
2025-11-29T12:00	10000	263	-58.4	-63.5	301	13	
2025-11-29T12:00	10018	262	-58.5	-63.5	300	14	
2025-11-29T12:00	10050	260	-58.8	-63.4	301	14	
2025-11-29T12:00	10100	258	-59.3	-63.5	301	14	
2025-11-29T12:00	10150	256	-59.7	-64.4	300	15	
2025-11-29T12:00	10200	254	-60.1	-66.0	298	15	
2025-11-29T12:00	10250	252	-60.5	-67.3	298	14	
2025-11-29T12:00	10300	250	-60.9	-67.5	299	14	
2025-11-29T12:00	10350	248	-61.3	-68.1	299	15	
2025-11-29T12:00	10400	246	-61.7	-68.8	299	15	
2025-11-29T12:00	10450	244	-62.1	-69.4	298	15	
2025-11-29T12:00	10500	242	-62.3	-69.9	299	15	
2025-11-29T12:00	10550	240	-62.6	-70.0	300	15	
2025-11-29T12:00	10600	238	-63.0	-70.1	301	16	
2025-11-29T12:00	10650	236	-63.4	-69.8	301	16	
2025-11-29T12:00	10700	235	-63.8	-69.4	300	16	
2025-11-29T12:00	10750	233	-64.1	-68.8	300	17	
2025-11-29T12:00	10800	231	-64.4	-68.6	300	17	
2025-11-29T12:00	10850	229	-64.8	-68.7	301	18	
2025-11-29T12:00	10900	227	-65.1	-69.0	302	18	
2025-11-29T12:00	10950	225	-65.3	-69.2	304	19	
2025-11-29T12:00	11000	223	-65.4	-69.6	306	18	
2025-11-29T12:00	11050	221	-65.4	-69.7	307	18	
2025-11-29T12:00	11100	220	-65.6	-69.9	305	17	
2025-11-29T12:00	11150	218	-65.6	-70.0	300	16	
2025-11-29T12:00	11200	216	-65.3	-70.5	296	15	
2025-11-29T12:00	11250	214	-64.2	-70.9	292	13	
2025-11-29T12:00	11300	213	-63.9	-72.2	287	12	
2025-11-29T12:00	11350	211	-63.5	-73.5	281	13	
2025-11-29T12:00	11400	209	-62.5	-74.0	278	15	
2025-11-29T12:00	11450	207	-61.7	-74.5	278	18	
2025-11-29T12:00	11500	206	-61.4	-75.0	279	19	
2025-11-29T12:00	11550	204	-61.3	-74.9	278	19	
2025-11-29T12:00	11600	203	-61.1	-75.0	275	18	
2025-11-29T12:00	11650	201	-61.3	-75.0	272	19	
2025-11-29T12:00	11700	199	-61.0	-75.4	270	20	
2025-11-29T12:00	11750	198	-60.7	-75.8	269	21	
2025-11-29T12:00	11800	196	-60.5	-76.0	268	22	
2025-11-29T12:00	11850	194	-59.6	-76.5	267	22	
2025-11-29T12:00	11900	193	-59.2	-76.8	270	22	
2025-11-29T12:00	11950	191	-58.8	-77.2	274	21	
2025-11-29T12:00	12000	190	-58.6	-77.5	279	21	
2025-11-29T12:00	12050	188	-58.7	-77.7	283	20	
2025-11-29T12:00	12100	187	-58.9	-77.8	286	20	
2025-11-29T12:00	12150	185	-59.0	-78.1	288	20	
2025-11-29T12:00	12200	184	-58.6	-78.6	287	19	
2025-11-29T12:00	12250	182	-57.9	-79.0	284	19	
2025-11-29T12:00	12300	181	-58.1	-79.2	281	18	
2025-11-29T12:00	12350	180	-58.3	-79.2	278	18	
2025-11-29T12:00	12400	178	-58.3	-79.5	276	16	
2025-11-29T12:00	12450	177	-58.1	-79.7	275	15	
2025-11-29T12:00	12500	175	-57.9	-79.9	274	14	
2025-11-29T12:00	12550	174	-58.0	-80.1	272	13	
2025-11-29T12:00	12600	173	-58.0	-80.2	269	12	
2025-11-29T12:00	12650	171	-58.3	-80.3	265	12	
2025-11-29T12:00	12700	170	-58.6	-80.5	262	13	
2025-11-29T12:00	12750	169	-58.3	-80.8	261	15	
2025-11-29T12:00	12800	167	-57.9	-81.0	263	16	
2025-11-29T12:00	12850	166	-57.5	-81.2	265	15	
2025-11-29T12:00	12900	165	-57.2	-81.3	266	14	
2025-11-29T12:00	12950	163	-56.6	-81.4	266	15	
2025-11-29T12:00	13000	162	-56.0	-81.3	269	17	
2025-11-29T12:00	13050	161	-55.9	-81.3	271	18	
2025-11-29T12:00	13100	159	-55.9	-81.3	273	19	
2025-11-29T12:00	13150	158	-56.1	-81.3	274	21	
2025-11-29T12:00	13200	157	-56.4	-81.4	275	22	
2025-11-29T12:00	13250	156	-56.5	-81.5	276	22	
2025-11-29T12:00	13300	155	-56.3	-81.7	278	20	
2025-11-29T12:00	13350	153	-55.9	-81.8	279	18	
2025-11-29T12:00	13400	152	-55.9	-81.8	278	17	
2025-11-29T12:00	13450	151	-56.1	-81.8	275	16	
2025-11-29T12:00	13500	150	-56.4	-81.8	271	15	
2025-11-29T12:00	13550	149	-56.7	-82.0	266	14	
2025-11-29T12:00	13600	147	-57.0	-82.1	261	14	
2025-11-29T12:00	13650	146	-57.4	-82.2	257	14	
2025-11-29T12:00	13700	145	-57.8	-82.4	254	14	
2025-11-29T12:00	13750	144	-58.0	-82.7	254	15	
2025-11-29T12:00	13800	143	-58.0	-82.9	257	16	
2025-11-29T12:00	13850	142	-58.0	-83.0	263	16	
2025-11-29T12:00	13900	141	-58.1	-83.1	267	16	
2025-11-29T12:00	13950	139	-58.1	-83.1	269	15	
2025-11-29T12:00	14000	138	-58.2	-83.1	268	14	
2025-11-29T12:00	14050	137	-58.2	-83.1	265	13	
2025-11-29T12:00	14100	136	-58.2	-83.0	260	13	
2025-11-29T12:00	14150	135	-58.4	-83.0	256	13	
2025-11-29T12:00	14200	134	-58.7	-83.1	251	13	
2025-11-29T12:00	14250	133	-59.0	-83.2	246	13	
2025-11-29T12:00	14300	132	-59.3	-83.4	244	14	
2025-11-29T12:00	14350	131	-59.5	-83.7	244	15	
2025-11-29T12:00	14400	130	-59.4	-83.8	244	16	
2025-11-29T12:00	14450	129	-59.3	-83.9	244	17	
2025-11-29T12:00	14500	128	-59.4	-83.9	244	17	
2025-11-29T12:00	14550	127	-59.7	-84.0	246	16	
2025-11-29T12:00	14600	126	-60.0	-84.0	249	16	
2025-11-29T12:00	14650	125	-60.2	-84.0	253	15	
2025-11-29T12:00	14700	124	-60.4	-84.0	257	15	
2025-11-29T12:00	14750	123	-60.7	-84.0	262	16	
2025-11-29T12:00	14800	122	-60.9	-84.0	265	16	
2025-11-29T12:00	14850	121	-60.9	-84.0	269	17	
2025-11-29T12:00	14900	120	-61.1	-84.1	272	17	
2025-11-29T12:00	14950	119	-61.5	-84.2	274	17	
2025-11-29T12:00	15000	118	-61.7	-84.3	276	17	
2025-11-29T12:00	15050	117	-62.0	-84.3	277	16	
2025-11-29T12:00	15100	116	-62.1	-84.3	278	15	
2025-11-29T12:00	15150	115	-62.3	-84.4	276	14	
2025-11-29T12:00	15200	114	-62.2	-84.4	274	13	
2025-11-29T12:00	15250	113	-62.3	-84.5	270	12	
2025-11-29T12:00	15300	112	-62.6	-84.6	269	12	
2025-11-29T12:00	15350	111	-62.8	-84.7	270	11	
2025-11-29T12:00	15400	110	-62.9	-84.8	267	10	
2025-11-29T12:00	15450	110	-62.8	-84.8	259	9	
2025-11-29T12:00	15500	109	-62.7	-84.8	250	9	
2025-11-29T12:00	15550	108	-63.0	-85.0	243	10	
2025-11-29T12:00	15600	107	-63.0	-85.0	241	11	
2025-11-29T12:00	15650	106	-62.9	-85.0	245	13	
2025-11-29T12:00	15700	105	-62.9	-85.0	251	14	
2025-11-29T12:00	15750	104	-62.8	-85.0	256	14	
2025-11-29T12:00	15800	104	-62.6	-85.0	257	14	
2025-11-29T12:00	15850	103	-62.3	-85.0	252	13	
2025-11-29T12:00	15900	102	-62.2	-84.9	245	12	
2025-11-29T12:00	15950	101	-62.3	-84.8	242	12	
2025-11-29T12:00	16000	100	-62.6	-84.9	245	12	
2025-11-29T12:00	16050	99	-62.3	-84.9	250	11	
2025-11-29T12:00	16100	99	-62.1	-84.8	251	10	
2025-11-29T12:00	16150	98	-62.4	-84.9	250	9	
2025-11-29T12:00	16200	97	-62.6	-85.0	247	9	
2025-11-29T12:00	16250	96	-62.4	-85.0	243	9	
2025-11-29T12:00	16300	95	-62.3	-85.0	241	10	
2025-11-29T12:00	16350	95	-62.5	-85.0	243	11	
2025-11-29T12:00	16400	94	-62.8	-85.1	245	11	
2025-11-29T12:00	16450	93	-63.1	-85.2	247	12	
2025-11-29T12:00	16500	92	-63.3	-85.3	250	12	
2025-11-29T12:00	16550	92	-63.4	-85.3	254	13	
2025-11-29T12:00	16600	91	-63.5	-85.3	257	13	
2025-11-29T12:00	16650	90	-63.6	-85.4	260	13	
2025-11-29T12:00	16700	89	-63.8	-85.5	263	12	
2025-11-29T12:00	16750	89	-63.7	-85.5	266	12	
2025-11-29T12:00	16800	88	-63.5	-85.5	266	12	
2025-11-29T12:00	16850	87	-63.5	-85.6	264	11	
2025-11-29T12:00	16900	87	-63.6	-85.6	262	10	
2025-11-29T12:00	16950	86	-63.8	-85.6	259	10	
2025-11-29T12:00	17000	85	-64.1	-85.7	256	10	
2025-11-29T12:00	17050	84	-64.4	-85.7	254	10	
2025-11-29T12:00	17100	84	-64.7	-85.8	255	10	
2025-11-29T12:00	17150	83	-64.8	-85.9	255	10	
2025-11-29T12:00	17200	82	-64.7	-86.1	254	11	
2025-11-29T12:00	17250	82	-64.3	-86.0	253	12	
2025-11-29T12:00	17300	81	-64.2	-86.2	253	12	
2025-11-29T12:00	17350	80	-64.0	-86.2	253	12	
2025-11-29T12:00	17400	80	-63.9	-86.4	257	13	
2025-11-29T12:00	17450	79	-63.3	-86.2	262	15	
2025-11-29T12:00	17500	79	-63.2	-86.3	266	16	
2025-11-29T12:00	17550	78	-63.2	-86.4	269	16	
2025-11-29T12:00	17600	77	-63.0	-86.3	271	15	
2025-11-29T12:00	17650	77	-62.9	-86.3	273	13	
2025-11-29T12:00	17700	76	-63.0	-86.3	273	12	
2025-11-29T12:00	17750	75	-62.9	-86.3	270	10	
2025-11-29T12:00	17800	75	-62.8	-86.2	265	9	
2025-11-29T12:00	17850	74	-62.7	-86.2	258	8	
2025-11-29T12:00	17900	74	-62.8	-86.2	250	8	
2025-11-29T12:00	17950	73	-63.2	-86.3	246	9	
2025-11-29T12:00	18000	72	-63.4	-86.2	242	9	
2025-11-29T12:00	18050	72	-63.8	-86.5	239	10	
2025-11-29T12:00	18100	71	-63.9	-86.4	236	10	
2025-11-29T12:00	18150	71	-64.0	-86.4	234	9	
2025-11-29T12:00	18200	70	-64.3	-86.6	236	9	
2025-11-29T12:00	18250	69	-64.6	-86.7	240	9	
2025-11-29T12:00	18300	69	-64.6	-86.8	246	8	
2025-11-29T12:00	18350	68	-64.5	-86.8	250	9	
2025-11-29T12:00	18400	68	-64.6	-86.9	252	10	
2025-11-29T12:00	18450	67	-64.6	-86.8	253	10	
2025-11-29T12:00	18500	67	-64.8	-86.8	255	10	
2025-11-29T12:00	18550	66	-65.1	-86.9	256	9	
2025-11-29T12:00	18600	66	-65.5	-86.9	255	9	
2025-11-29T12:00	18650	65	-65.9	-87.1	251	9	
2025-11-29T12:00	18700	65	-66.1	-87.2	247	9	
2025-11-29T12:00	18750	64	-66.1	-87.3	246	10	
2025-11-29T12:00	18800	63	-66.0	-87.2	246	11	
2025-11-29T12:00	18850	63	-66.3	-87.3	247	12	
2025-11-29T12:00	18900	62	-66.7	-87.5	250	12	
2025-11-29T12:00	18950	62	-66.8	-87.6	254	13	
2025-11-29T12:00	19000	61	-66.5	-87.6	258	13	
2025-11-29T12:00	19050	61	-66.4	-87.7	260	13	
2025-11-29T12:00	19100	60	-66.2	-87.8	262	13	
2025-11-29T12:00	19150	60	-65.6	-87.6	265	14	
2025-11-29T12:00	19200	59	-65.6	-87.6	268	14	
2025-11-29T12:00	19250	59	-65.6	-87.5	271	15	
2025-11-29T12:00	19300	58	-65.7	-87.5	272	15	
2025-11-29T12:00	19350	58	-65.8	-87.5	273	14	
2025-11-29T12:00	19400	57	-65.9	-87.5	271	13	
2025-11-29T12:00	19450	57	-66.1	-87.7	266	11	
2025-11-29T12:00	19500	57	-66.1	-87.8	260	11	
2025-11-29T12:00	19550	56	-65.7	-87.7	258	10	
2025-11-29T12:00	19600	56	-65.2	-87.5	258	10	
2025-11-29T12:00	19650	55	-65.4	-87.6	254	11	
2025-11-29T12:00	19700	55	-65.7	-87.7	249	12	
2025-11-29T12:00	19750	54	-65.6	-87.6	246	13	
2025-11-29T12:00	19800	54	-65.5	-87.4	246	13	
2025-11-29T12:00	19850	53	-65.6	-87.5	246	13	
2025-11-29T12:00	19900	53	-65.6	-87.5	246	13	
2025-11-29T12:00	19950	53	-65.5	-87.5	248	12	
2025-11-29T12:00	20000	52	-65.3	-87.5	249	11	
2025-11-29T12:00	20050	52	-65.3		250	10	
2025-11-29T12:00	20100	51	-65.2		254	9	
2025-11-29T12:00	20150	51	-65.1		259	9	
2025-11-29T12:00	20200	50	-65.1		259	9	
2025-11-29T12:00	20250	50	-65.0		256	9	
2025-11-29T12:00	20300	50	-65.0		252	9	
2025-11-29T12:00	20350	49	-65.1		249	10	
2025-11-29T12:00	20400	49	-65.1		247	10	
2025-11-29T12:00	20450	48	-65.1		247	10	
2025-11-29T12:00	20500	48	-64.9		250	10	
2025-11-29T12:00	20550	48	-65.0		254	10	
2025-11-29T12:00	20600	47	-65.0		258	10	
2025-11-29T12:00	20650	47	-65.0		259	9	
2025-11-29T12:00	20700	46	-65.3		255	9	
2025-11-29T12:00	20750	46	-65.6		250	9	
2025-11-29T12:00	20800	46	-66.0		245	8	
2025-11-29T12:00	20850	45	-66.0		243	8	
2025-11-29T12:00	20900	45	-66.0		246	8	
2025-11-29T12:00	20950	45	-65.9		250	9	
2025-11-29T12:00	21000	44	-65.7		253	9	
2025-11-29T12:00	21050	44	-65.9		255	9	
2025-11-29T12:00	21100	43	-66.0		257	9	
2025-11-29T12:00	21150	43	-66.3		259	10	
2025-11-29T12:00	21200	43	-66.6		261	10	
2025-11-29T12:00	21250	42	-66.4		263	10	
2025-11-29T12:00	21300	42	-66.6		263	9	
2025-11-29T12:00	21350	42	-66.8		260	9	
2025-11-29T12:00	21400	41	-66.7		256	9	
2025-11-29T12:00	21450	41	-66.7		249	8	
2025-11-29T12:00	21500	41	-66.5		243	8	
2025-11-29T12:00	21550	40	-66.3		240	8	
2025-11-29T12:00	21600	40	-66.4		240	9	
2025-11-29T12:00	21650	40	-66.3		241	9	
2025-11-29T12:00	21700	39	-66.6		242	10	
2025-11-29T12:00	21750	39	-66.7		240	11	
2025-11-29T12:00	21800	39	-66.8		238	13	
2025-11-29T12:00	21850	38	-66.9		235	14	
2025-11-29T12:00	21900	38	-67.0		234	16	
2025-11-29T12:00	21950	38	-66.6		234	18	
2025-11-29T12:00	22000	37	-66.3		235	19	
2025-11-29T12:00	22050	37	-66.0		237	20	
2025-11-29T12:00	22100	37	-65.9		239	20	
2025-11-29T12:00	22150	37	-66.1		242	19	
2025-11-29T12:00	22200	36	-65.9		247	18	
2025-11-29T12:00	22250	36	-65.9		251	18	
2025-11-29T12:00	22300	36	-65.9		256	17	
2025-11-29T12:00	22350	35	-65.9		260	17	
2025-11-29T12:00	22400	35	-65.8		264	17	
2025-11-29T12:00	22450	35	-65.7		267	17	
2025-11-29T12:00	22500	34	-65.7		269	17	
2025-11-29T12:00	22550	34	-65.7		269	17	
2025-11-29T12:00	22600	34	-65.8		266	17	
2025-11-29T12:00	22650	34	-65.8		263	18	
2025-11-29T12:00	22700	33	-65.7		262	18	
2025-11-29T12:00	22750	33	-65.5		265	18	
2025-11-29T12:00	22800	33	-65.5		270	17	
2025-11-29T12:00	22850	33	-65.6		277	16	
2025-11-29T12:00	22900	32	-65.6		282	15	
2025-11-29T12:00	22950	32	-65.9		287	15	
2025-11-29T12:00	23000	32	-66.1		289	14	
2025-11-29T12:00	23050	32	-65.9		286	13	
2025-11-29T12:00	23100	31	-66.0		281	12	
2025-11-29T12:00	23150	31	-65.5		275	11	
2025-11-29T12:00	23200	31	-65.1		273	11	
2025-11-29T12:00	23250	30	-64.9		275	10	
2025-11-29T12:00	23300	30	-65.3		278	9	
2025-11-29T12:00	23350	30	-65.7		279	9	
2025-11-29T12:00	23400	30	-65.7		276	8	
2025-11-29T12:00	23450	30	-65.6		274	7	
2025-11-29T12:00	23500	29	-65.6		271	7	
2025-11-29T12:00	23550	29	-65.7		265	7	
2025-11-29T12:00	23600	29	-65.5		259	7	
2025-11-29T12:00	23650	29	-65.5		256	8	
2025-11-29T12:00	23700	28	-65.6		254	9	
2025-11-29T12:00	23750	28	-65.5		252	10	
2025-11-29T12:00	23800	28	-65.5		248	11	
2025-11-29T12:00	23850	28	-65.7		245	11	
2025-11-29T12:00	23900	27	-65.9		242	10	
2025-11-29T12:00	23950	27	-66.2		239	10	
2025-11-29T12:00	24000	27	-66.4		237	10	
2025-11-29T12:00	24050	27	-66.3		236	10	
2025-11-29T12:00	24100	26	-66.1		240	10	
2025-11-29T12:00	24150	26	-66.1		247	10	
2025-11-29T12:00	24200	26	-66.0		253	11	
2025-11-29T12:00	24250	26	-65.7		256	11	
2025-11-29T12:00	24300	26	-66.0		256	13	
2025-11-29T12:00	24350	25	-66.2		256	14	
2025-11-29T12:00	24400	25	-66.4		257	14	
2025-11-29T12:00	24450	25	-66.6		258	14	
2025-11-29T12:00	24500	25	-66.6		259	14	
2025-11-29T12:00	24550	25	-66.6		259	13	
2025-11-29T12:00	24600	24	-66.7		257	13	
2025-11-29T12:00	24650	24	-67.0		256	13	
2025-11-29T12:00	24700	24	-67.2		255	13	
2025-11-29T12:00	24750	24	-67.2		256	14	
2025-11-29T12:00	24800	24	-66.9		258	15	
2025-11-29T12:00	24850	23	-66.4		259	17	
2025-11-29T12:00	24900	23	-65.9		259	18	
2025-11-29T12:00	24950	23	-65.7		259	20	
2025-11-29T12:00	25000	23	-65.6		258	20	
2025-11-29T12:00	25050	23	-65.4		257	20	
2025-11-29T12:00	25100	22	-65.2		257	20	
2025-11-29T12:00	25150	22	-65.2		258	19	
2025-11-29T12:00	25200	22	-65.0		259	18	
2025-11-29T12:00	25250	22	-64.7		260	17	
2025-11-29T12:00	25300	22	-64.3		260	16	
2025-11-29T12:00	25350	22	-64.1		258	15	
2025-11-29T12:00	25400	21	-64.0		257	15	
2025-11-29T12:00	25450	21	-64.0		256	16	
2025-11-29T12:00	25500	21	-63.8		256	17	
2025-11-29T12:00	25550	21	-63.8		256	18	
2025-11-29T12:00	25600	21	-64.0		254	19	
2025-11-29T12:00	25650	21	-63.9		253	19	
2025-11-29T12:00	25700	20	-64.0		251	18	
2025-11-29T12:00	25750	20	-64.3		252	18	
2025-11-29T12:00	25800	20	-64.3		254	19	
2025-11-29T12:00	25850	20	-64.2		255	20	
2025-11-29T12:00	25900	20	-64.5		257	21	
2025-11-29T12:00	25950	20	-64.6		258	22	
2025-11-29T12:00	26000	19	-64.5		261	23	
2025-11-29T12:00	26050	19	-64.5		263	23	
2025-11-29T12:00	26100	19	-64.5		264	23	
2025-11-29T12:00	26150	19	-64.2		264	22	
2025-11-29T12:00	26200	19	-63.9		264	22	
2025-11-29T12:00	26250	19	-64.2		264	20	
2025-11-29T12:00	26300	18	-64.6		263	19	
2025-11-29T12:00	26350	18	-64.7		260	18	
2025-11-29T12:00	26400	18	-64.6		257	18	
2025-11-29T12:00	26450	18	-64.3		255	18	
2025-11-29T12:00	26500	18	-63.9		257	18	
2025-11-29T12:00	26550	18	-63.9		260	17	
2025-11-29T12:00	26600	18	-64.1		262	17	
2025-11-29T12:00	26650	17	-63.9		263	16	
2025-11-29T12:00	26700	17	-63.8		264	16	
2025-11-29T12:00	26750	17	-63.9		264	16	
2025-11-29T12:00	26800	17	-63.9		261	16	
2025-11-29T12:00	26850	17	-63.9		259	17	
2025-11-29T12:00	26900	17	-64.2		256	18	
2025-11-29T12:00	26950	17	-64.5		254	19	
2025-11-29T12:00	27000	16	-64.6		253	20	
2025-11-29T12:00	27050	16	-64.5		252	20	
2025-11-29T12:00	27100	16	-64.3		251	21	
2025-11-29T12:00	27150	16	-64.3		252	21	
2025-11-29T12:00	27200	16	-64.4		252	21	
2025-11-29T12:00	27250	16	-64.4		253	21	
2025-11-29T12:00	27300	16	-64.5		255	22	
2025-11-29T12:00	27350	16	-64.4		257	23	
2025-11-29T12:00	27400	15	-64.2		259	24	
2025-11-29T12:00	27450	15	-64.1		260	25	
2025-11-29T12:00	27500	15	-64.2		260	26	
2025-11-29T12:00	27550	15	-64.3		260	26	
2025-11-29T12:00	27600	15	-64.3		259	26	
2025-11-29T12:00	27650	15	-64.0		258	26	
2025-11-29T12:00	27700	15	-63.9		256	25	
2025-11-29T12:00	27750	15	-63.7		255	23	
2025-11-29T12:00	27800	14	-63.7		255	22	
2025-11-29T12:00	27850	14	-64.0		255	22	
2025-11-29T12:00	27900	14	-64.1		255	21	
2025-11-29T12:00	27950	14	-64.2		255	21	
2025-11-29T12:00	28000	14	-64.5		255	20	
2025-11-29T12:00	28050	14	-64.7		254	19	
2025-11-29T12:00	28100	14	-64.4		254	19	
2025-11-29T12:00	28150	14	-64.0		255	19	
2025-11-29T12:00	28200	14	-64.1		255	20	
2025-11-29T12:00	28250	13	-64.0		255	22	
2025-11-29T12:00	28300	13	-63.7		253	23	
2025-11-29T12:00	28350	13	-63.4		251	24	
2025-11-29T12:00	28400	13	-63.3		248	25	
2025-11-29T12:00	28450	13	-63.0		245	27	
2025-11-29T12:00	28500	13	-62.7		243	28	
2025-11-29T12:00	28550	13	-62.6		242	28	
2025-11-29T12:00	28600	13	-62.5		243	29	
2025-11-29T12:00	28650	13	-62.5		244	30	
2025-11-29T12:00	28700	12	-62.4		246	30	
2025-11-29T12:00	28750	12	-62.3		246	30	
2025-11-29T12:00	28800	12	-62.4		247	30	
2025-11-29T12:00	28850	12	-62.5		247	29	
2025-11-29T12:00	28900	12	-62.5		248	29	
2025-11-29T12:00	28950	12	-62.4		249	29	
2025-11-29T12:00	29000	12	-62.3		250	29	
2025-11-29T12:00	29050	12	-62.3		250	29	
2025-11-29T12:00	29100	12	-62.2		251	30	
2025-11-29T12:00	29150	12	-62.3		251	30	
2025-11-29T12:00	29200	12	-62.4		252	31	
2025-11-29T12:00	29250	11	-62.6		253	32	
2025-11-29T12:00	29300	11	-62.9		253	32	
2025-11-29T12:00	29350	11	-63.2		253	32	
2025-11-29T12:00	29400	11	-63.3		254	32	
2025-11-29T12:00	29450	11	-63.1		254	32	
2025-11-29T12:00	29500	11	-62.8		254	33	
2025-11-29T12:00	29550	11	-62.7		253	33	
2025-11-29T12:00	29600	11	-62.7		253	32	
2025-11-29T12:00	29650	11	-62.6		252	32	
2025-11-29T12:00	29700	11	-62.7		251	32	
2025-11-29T12:00	29750	11	-62.6		250	32	
2025-11-29T12:00	29800	10	-62.6		249	32	
2025-11-29T12:00	29850	10	-62.5		249	33	
2025-11-29T12:00	29900	10	-62.4		248	33	
2025-11-29T12:00	29950	10	-62.0		247	34	
2025-11-29T12:00	30000	10	-61.6		246	34	
2025-11-29T12:00	30050	10	-61.2		244	35	
2025-11-29T12:00	30100	10	-60.9		243	36	
2025-11-29T12:00	30150	10	-60.6		243	37	
2025-11-29T12:00	30200	10	-60.3		243	38	
2025-11-29T12:00	30250	10	-60.2		244	39	
2025-11-29T12:00	30300	10	-60.3		245	40	
2025-11-29T12:00	30350	10	-60.5		246	41	
2025-11-29T12:00	30400	9	-60.7		247	42	
2025-11-29T12:00	30450	9	-61.0		249	43	
2025-11-29T12:00	30500	9	-61.3		250	44	
2025-11-29T12:00	30550	9	-61.6		250	45	
2025-11-29T12:00	30600	9	-61.7		249	46	
2025-11-29T12:00	30650	9	-61.7		249	47	
2025-11-29T12:00	30700	9	-61.7		250	48	
2025-11-29T12:00	30750	9	-61.6		251	48	
2025-11-29T12:00	30800	9	-61.7		253	48	
2025-11-29T12:00	30850	9	-61.8		254	47	
2025-11-29T12:00	30900	9	-61.7		256	47	
2025-11-29T12:00	30950	9	-61.6		257	47	
2025-11-29T12:00	31000	9	-61.7		258	47	
2025-11-29T12:00	31050	9	-61.7		258	46	
2025-11-29T12:00	31100	8	-61.8		259	46	
2025-11-29T12:00	31150	8	-61.8		260	46	
2025-11-29T12:00	31200	8	-61.7		261	46	
2025-11-29T12:00	31250	8	-61.6		261	46	
2025-11-29T12:00	31300	8	-61.6		261	46	
2025-11-29T12:00	31350	8	-61.7		261	47	
2025-11-29T12:00	31400	8	-61.4		260	48	
2025-11-29T12:00	31450	8	-61.2		260	48	
2025-11-29T12:00	31500	8	-61.3		260	48	
2025-11-29T12:00	31550	8	-61.5		260	49	
2025-11-29T12:00	31600	8	-61.8		261	48	
2025-11-29T12:00	31650	8	-62.2		261	47	
2025-11-29T12:00	31700	8	-62.6		262	47	
2025-11-29T12:00	31750	8	-62.9		263	46	
2025-11-29T12:00	31800	8	-62.9		264	45	
2025-11-29T12:00	31850	7	-62.7		266	45	
2025-11-29T12:00	31900	7	-62.4		266	45	
2025-11-29T12:00	31950	7	-62.1		266	46	
2025-11-29T12:00	32000	7	-61.9		265	47	
2025-11-29T12:00	32050	7	-61.8		264	48	
2025-11-29T12:00	32100	7	-61.6		264	49	
2025-11-29T12:00	32150	7	-61.3		263	49	
2025-11-29T12:00	32200	7	-61.4		262	49	
2025-11-29T12:00	32250	7	-61.5		261	49	
2025-11-29T12:00	32300	7	-61.5		260	49	
2025-11-29T12:00	32350	7	-61.6		260	50	
2025-11-29T12:00	32400	7	-61.4		260	50	
2025-11-29T12:00	32450	7	-61.4		260	51	
2025-11-29T12:00	32500	7	-61.2		261	53	
2025-11-29T12:00	32550	7	-60.3		261	54	
2025-11-29T12:00	32600	7	-59.1		262	55	
2025-11-29T12:00	32650	7	-58.3		263	56	
2025-11-29T12:00	32700	7	-57.5		262	56	
2025-11-29T12:00	32750	6	-56.7		262	55	
2025-11-29T12:00	32800	6	-55.8		261	55	
2025-11-29T12:00	32850	6	-55.4		261	55	
2025-11-29T12:00	32900	6	-55.7		261	54	
2025-11-29T12:00	32950	6	-56.0		262	54	
2025-11-29T12:00	33000	6	-56.3		262	53	
2025-11-29T12:00	33050	6	-56.3		263	53	
2025-11-29T12:00	33100	6	-56.3		263	53	
2025-11-29T12:00	33150	6	-56.5		263	52	
2025-11-29T12:00	33200	6	-56.8		263	52	
2025-11-29T12:00	33250	6	-56.8		262	53	
2025-11-29T12:00	33300	6	-56.4		262	53	
2025-11-29T12:00	33350	6	-56.6		261	54	
2025-11-29T12:00	33400	6	-56.9		260	55	
2025-11-29T12:00	33450	6	-57.3		260	55	
2025-11-29T12:00	33500	6	-57.7		260	56	
2025-11-29T12:00	33550	6	-57.8		261	56	
2025-11-29T12:00	33600	6	-57.5		263	57	
2025-11-29T12:00	33650	6	-56.5		264	58	
2025-11-29T12:00	33700	6	-55.7		265	59	
2025-11-29T12:00	33750	6	-55.6		265	60	
2025-11-29T12:00	33800	5	-55.6		265	60	
2025-11-29T12:00	33850	5	-54.9		265	59	
2025-11-29T12:00	33900	5	-54.0		266	58	
2025-11-29T12:00	33950	5	-53.5		267	57	
2025-11-29T12:00	34000	5	-53.3		267	56	
2025-11-29T12:00	34050	5	-53.0		267	56	
2025-11-29T12:00	34100	5	-52.7		265	56	
2025-11-29T12:00	34150	5	-52.4		264	56	
2025-11-29T12:00	34200	5	-52.5		263	57	
2025-11-29T12:00	34250	5	-52.7		262	58	
2025-11-29T12:00	34300	5	-52.9		262	59	
2025-11-29T12:00	34350	5	-53.1		261	59	
2025-11-29T12:00	34400	5	-52.9		262	58	
2025-11-29T12:00	34450	5	-52.6		262	58	
2025-11-29T12:00	34500	5	-52.4		263	58	
2025-11-29T12:00	34550	5	-52.1		262	59	
2025-11-29T12:00	34600	5	-52.2		262	60	
2025-11-29T12:00	34650	5	-52.2		262	61	
2025-11-29T12:00	34700	5	-52.1		261	62	
2025-11-29T12:00	34750	5	-52.1		260	63	
2025-11-29T12:00	34800	5	-52.3		260	64	
2025-11-29T12:00	34850	5	-52.4		260	64	
2025-11-30T00:00	491	955	0.5	0.1	159	1	
2025-11-30T00:00	501	953	1.2	0.5	194	2	
2025-11-30T00:00	520	952	2.0	0.9	205	2	
2025-11-30T00:00	540	950	3.2	0.7	206	2	
2025-11-30T00:00	560	947	4.0	0.8	208	2	
2025-11-30T00:00	580	945	4.4	1.6	212	2	
2025-11-30T00:00	600	942	4.2	1.9	218	2	
2025-11-30T00:00	620	940	4.1	2.4	227	2	
2025-11-30T00:00	640	938	4.0	2.9	238	1	
2025-11-30T00:00	660	936	3.9	3.4	248	1	
2025-11-30T00:00	680	933	3.8	3.1	255	2	
2025-11-30T00:00	700	931	3.9	2.3	256	2	
2025-11-30T00:00	720	929	3.9	2.1	254	2	
2025-11-30T00:00	740	926	4.0	1.8	251	3	
2025-11-30T00:00	760	924	4.0	1.9	249	3	
2025-11-30T00:00	780	922	4.0	1.7	247	3	
2025-11-30T00:00	800	919	4.0	1.5	245	3	
2025-11-30T00:00	820	917	3.9	1.7	245	4	
2025-11-30T00:00	840	915	3.7	1.7	245	4	
2025-11-30T00:00	860	913	3.6	1.9	245	4	
2025-11-30T00:00	880	911	3.6	1.9	246	4	
2025-11-30T00:00	900	908	3.7	1.4	246	4	
2025-11-30T00:00	920	906	4.1	-0.1	245	4	
2025-11-30T00:00	940	904	4.6	-0.6	244	4	
2025-11-30T00:00	960	902	4.8	0.3	242	4	
2025-11-30T00:00	980	899	4.6	0.7	240	4	
2025-11-30T00:00	1000	898	4.6	1.1	237	5	
2025-11-30T00:00	1020	895	4.5	1.6	233	5	
2025-11-30T00:00	1040	893	4.5	1.7	230	5	
2025-11-30T00:00	1060	891	4.3	1.6	226	5	
2025-11-30T00:00	1080	889	4.4	1.4	224	6	
2025-11-30T00:00	1100	886	4.3	1.0	221	6	
2025-11-30T00:00	1120	884	4.3	0.2	219	6	
2025-11-30T00:00	1140	882	4.3	-0.2	218	6	
2025-11-30T00:00	1160	880	4.4	-0.2	217	6	
2025-11-30T00:00	1180	878	4.6	0.4	216	6	
2025-11-30T00:00	1200	875	5.1	-0.4	214	6	
2025-11-30T00:00	1220	873	5.7	-0.4	213	6	
2025-11-30T00:00	1240	871	5.6	0.4	211	6	
2025-11-30T00:00	1260	869	5.7	1.4	210	6	
2025-11-30T00:00	1280	867	5.6	1.4	209	6	
2025-11-30T00:00	1300	865	5.6	0.3	208	6	
2025-11-30T00:00	1320	863	5.6	0.8	209	6	
2025-11-30T00:00	1340	861	5.5	1.2	210	6	
2025-11-30T00:00	1360	859	5.4	1.2	211	6	
2025-11-30T00:00	1380	857	5.4	1.1	213	6	
2025-11-30T00:00	1400	854	5.3	1.0	215	6	
2025-11-30T00:00	1420	852	5.2	1.0	218	7	
2025-11-30T00:00	1440	850	5.0	0.7	221	7	
2025-11-30T00:00	1460	848	5.0	0.4	224	7	
2025-11-30T00:00	1480	846	5.0	0.4	225	8	
2025-11-30T00:00	1500	844	4.9	0.4	227	8	
2025-11-30T00:00	1520	842	4.9	0.2	228	9	
2025-11-30T00:00	1540	840	4.8	0.1	228	9	
2025-11-30T00:00	1560	838	4.6	0.0	229	9	
2025-11-30T00:00	1580	836	4.4	-0.3	229	10	
2025-11-30T00:00	1600	834	4.3	-0.6	230	10	
2025-11-30T00:00	1620	832	4.2	-0.5	230	10	
2025-11-30T00:00	1640	830	4.3	-0.7	232	10	
2025-11-30T00:00	1660	828	4.3	-0.8	233	9	
2025-11-30T00:00	1680	826	4.2	-1.0	235	9	
2025-11-30T00:00	1700	823	4.2	-1.2	237	9	
2025-11-30T00:00	1720	821	4.1	-1.3	239	9	
2025-11-30T00:00	1740	820	4.0	-1.0	240	8	
2025-11-30T00:00	1760	818	3.9	-0.7	242	8	
2025-11-30T00:00	1780	816	3.7	-0.7	242	8	
2025-11-30T00:00	1800	813	3.5	-0.7	243	8	
2025-11-30T00:00	1820	811	3.3	-0.8	244	8	
2025-11-30T00:00	1840	810	3.2	-0.9	245	9	
2025-11-30T00:00	1860	807	2.9	-1.0	246	9	
2025-11-30T00:00	1880	805	2.8	-1.1	247	9	
2025-11-30T00:00	1900	803	2.6	-1.4	248	9	
2025-11-30T00:00	1920	801	2.6	-1.5	248	9	
2025-11-30T00:00	1940	799	2.4	-1.5	248	9	
2025-11-30T00:00	1960	798	2.3	-1.6	247	9	
2025-11-30T00:00	1980	796	2.2	-1.7	246	9	
2025-11-30T00:00	2000	794	2.0	-1.7	246	9	
2025-11-30T00:00	2020	792	1.9	-1.7	246	9	
2025-11-30T00:00	2040	790	1.8	-1.9	247	9	
2025-11-30T00:00	2060	788	1.7	-2.1	248	9	
2025-11-30T00:00	2080	786	1.7	-2.4	248	9	
2025-11-30T00:00	2100	784	1.6	-2.6	249	9	
2025-11-30T00:00	2120	782	1.4	-2.6	248	9	
2025-11-30T00:00	2140	780	1.2	-2.6	248	9	
2025-11-30T00:00	2160	778	1.0	-2.5	247	9	
2025-11-30T00:00	2180	776	0.9	-2.6	246	9	
2025-11-30T00:00	2200	774	0.7	-2.6	245	9	
2025-11-30T00:00	2220	772	0.5	-2.7	245	10	
2025-11-30T00:00	2240	770	0.3	-2.7	245	10	
2025-11-30T00:00	2260	768	0.1	-2.7	244	10	
2025-11-30T00:00	2280	767	-0.1	-2.8	244	10	
2025-11-30T00:00	2300	765	-0.2	-2.8	243	10	
2025-11-30T00:00	2320	763	-0.4	-3.0	242	10	
2025-11-30T00:00	2340	761	-0.5	-3.2	241	10	
2025-11-30T00:00	2360	759	-0.7	-3.4	240	10	
2025-11-30T00:00	2380	757	-0.9	-3.5	238	10	
2025-11-30T00:00	2400	755	-1.1	-3.5	237	10	
2025-11-30T00:00	2420	753	-1.2	-3.8	235	10	
2025-11-30T00:00	2440	751	-1.4	-4.1	232	10	
2025-11-30T00:00	2460	750	-1.6	-4.1	229	10	
2025-11-30T00:00	2480	748	-1.7	-4.5	227	11	
2025-11-30T00:00	2500	746	-1.7	-5.0	225	11	
2025-11-30T00:00	2520	744	-1.8	-5.0	223	11	
2025-11-30T00:00	2540	742	-1.9	-4.7	222	11	
2025-11-30T00:00	2560	740	-2.0	-4.5	221	11	
2025-11-30T00:00	2580	738	-2.2	-4.4	220	11	
2025-11-30T00:00	2600	736	-2.2	-4.6	219	12	
2025-11-30T00:00	2620	735	-2.1	-4.8	217	12	
2025-11-30T00:00	2640	733	-2.2	-4.9	216	12	
2025-11-30T00:00	2660	731	-2.3	-4.9	216	13	
2025-11-30T00:00	2680	729	-2.3	-5.2	215	13	
2025-11-30T00:00	2700	727	-2.2	-5.9	216	13	
2025-11-30T00:00	2720	725	-2.3	-6.4	217	14	
2025-11-30T00:00	2740	724	-2.4	-6.2	219	13	
2025-11-30T00:00	2760	722	-2.6	-6.3	222	13	
2025-11-30T00:00	2780	720	-2.7	-6.4	225	13	
2025-11-30T00:00	2800	718	-2.9	-6.5	226	12	
2025-11-30T00:00	2820	716	-3.0	-6.9	226	12	
2025-11-30T00:00	2840	714	-3.0	-7.1	224	12	
2025-11-30T00:00	2860	713	-3.2	-7.2	222	13	
2025-11-30T00:00	2880	711	-3.3	-7.4	220	13	
2025-11-30T00:00	2900	709	-3.5	-7.5	220	14	
2025-11-30T00:00	2920	707	-3.7	-7.7	220	14	
2025-11-30T00:00	2940	706	-3.8	-7.7	221	14	
2025-11-30T00:00	2960	704	-4.0	-7.9	221	15	
2025-11-30T00:00	2980	702	-4.1	-7.9	222	14	
2025-11-30T00:00	3000	700	-4.3	-8.1	222	14	
2025-11-30T00:00	3020	699	-4.5	-8.3	222	14	
2025-11-30T00:00	3040	697	-4.6	-8.2	222	14	
2025-11-30T00:00	3060	695	-4.8	-8.5	221	14	
2025-11-30T00:00	3080	693	-5.0	-8.7	221	14	
2025-11-30T00:00	3100	691	-5.1	-8.8	221	14	
2025-11-30T00:00	3120	690	-5.2	-8.7	221	14	
2025-11-30T00:00	3140	688	-5.4	-9.0	221	14	
2025-11-30T00:00	3160	686	-5.3	-9.8	222	15	
2025-11-30T00:00	3180	684	-5.4	-9.7	223	15	
2025-11-30T00:00	3200	683	-5.5	-9.8	223	15	
2025-11-30T00:00	3220	681	-5.6	-10.1	224	14	
2025-11-30T00:00	3240	679	-5.8	-10.4	225	14	
2025-11-30T00:00	3260	677	-5.9	-10.6	225	14	
2025-11-30T00:00	3280	676	-6.1	-11.3	226	13	
2025-11-30T00:00	3300	674	-6.2	-12.0	225	13	
2025-11-30T00:00	3320	672	-6.3	-12.4	224	13	
2025-11-30T00:00	3340	671	-6.4	-12.6	223	12	
2025-11-30T00:00	3360	669	-6.6	-12.6	222	12	
2025-11-30T00:00	3380	667	-6.7	-13.0	222	12	
2025-11-30T00:00	3400	665	-6.8	-13.1	222	11	
2025-11-30T00:00	3420	663	-7.0	-13.1	223	11	
2025-11-30T00:00	3440	662	-7.1	-13.0	223	11	
2025-11-30T00:00	3460	660	-7.3	-13.0	222	11	
2025-11-30T00:00	3480	658	-7.5	-13.2	221	12	
2025-11-30T00:00	3500	657	-7.6	-13.3	220	12	
2025-11-30T00:00	3520	655	-7.8	-13.3	220	12	
2025-11-30T00:00	3540	654	-7.9	-13.4	219	13	
2025-11-30T00:00	3560	652	-8.1	-13.4	219	13	
2025-11-30T00:00	3580	650	-8.2	-13.3	219	14	
2025-11-30T00:00	3600	648	-8.3	-13.3	220	14	
2025-11-30T00:00	3620	647	-8.4	-13.5	220	14	
2025-11-30T00:00	3640	645	-8.5	-13.5	221	14	
2025-11-30T00:00	3660	643	-8.6	-13.6	222	14	
2025-11-30T00:00	3680	642	-8.7	-13.8	223	14	
2025-11-30T00:00	3700	640	-8.9	-13.8	224	14	
2025-11-30T00:00	3720	638	-9.0	-13.9	225	13	
2025-11-30T00:00	3740	637	-9.2	-14.0	225	13	
2025-11-30T00:00	3760	635	-9.4	-14.0	225	13	
2025-11-30T00:00	3780	634	-9.5	-14.0	225	13	
2025-11-30T00:00	3800	632	-9.7	-14.2	223	13	
2025-11-30T00:00	3820	630	-9.9	-14.2	222	13	
2025-11-30T00:00	3840	629	-10.1	-14.1	221	14	
2025-11-30T00:00	3860	627	-10.3	-14.2	220	14	
2025-11-30T00:00	3880	626	-10.4	-14.3	220	14	
2025-11-30T00:00	3900	624	-10.6	-14.2	221	15	
2025-11-30T00:00	3920	622	-10.8	-14.2	221	15	
2025-11-30T00:00	3940	621	-11.0	-14.3	221	15	
2025-11-30T00:00	3960	619	-11.1	-14.2	221	15	
2025-11-30T00:00	3980	617	-11.2	-13.9	221	15	
2025-11-30T00:00	4000	616	-11.3	-14.1	220	16	
2025-11-30T00:00	4020	614	-11.5	-14.0	221	16	
2025-11-30T00:00	4040	613	-11.6	-13.9	222	16	
2025-11-30T00:00	4060	611	-11.7	-14.1	223	16	
2025-11-30T00:00	4080	609	-11.9	-14.3	225	16	
2025-11-30T00:00	4100	608	-12.1	-14.4	226	16	
2025-11-30T00:00	4120	606	-12.2	-14.6	228	15	
2025-11-30T00:00	4140	604	-12.4	-14.7	229	15	
2025-11-30T00:00	4160	603	-12.6	-14.8	229	15	
2025-11-30T00:00	4180	601	-12.6	-15.1	229	16	
2025-11-30T00:00	4200	600	-12.7	-15.4	230	16	
2025-11-30T00:00	4220	598	-12.9	-15.6	230	16	
2025-11-30T00:00	4240	597	-13.1	-15.7	230	16	
2025-11-30T00:00	4260	595	-13.3	-15.8	230	16	
2025-11-30T00:00	4280	594	-13.4	-16.0	230	16	
2025-11-30T00:00	4300	592	-13.6	-16.1	230	16	
2025-11-30T00:00	4320	591	-13.8	-16.2	230	16	
2025-11-30T00:00	4340	589	-14.0	-16.1	229	16	
2025-11-30T00:00	4360	587	-14.1	-16.2	228	16	
2025-11-30T00:00	4380	586	-14.3	-16.2	227	16	
2025-11-30T00:00	4400	584	-14.5	-16.2	226	15	
2025-11-30T00:00	4420	583	-14.6	-16.2	226	15	
2025-11-30T00:00	4440	581	-14.8	-16.4	225	15	
2025-11-30T00:00	4460	580	-14.9	-16.7	225	15	
2025-11-30T00:00	4480	578	-15.1	-17.0	225	14	
2025-11-30T00:00	4500	577	-15.2	-17.1	225	14	
2025-11-30T00:00	4520	575	-15.3	-17.3	224	14	
2025-11-30T00:00	4540	573	-15.5	-17.4	223	15	
2025-11-30T00:00	4560	572	-15.7	-17.5	223	15	
2025-11-30T00:00	4580	570	-15.9	-17.8	222	15	
2025-11-30T00:00	4600	569	-16.0	-17.8	221	15	
2025-11-30T00:00	4620	568	-16.2	-18.1	221	15	
2025-11-30T00:00	4640	566	-16.2	-18.7	221	15	
2025-11-30T00:00	4660	564	-16.2	-19.8	221	15	
2025-11-30T00:00	4680	563	-16.2	-20.6	222	14	
2025-11-30T00:00	4700	561	-16.2	-22.1	222	14	
2025-11-30T00:00	4720	560	-16.2	-23.6	223	14	
2025-11-30T00:00	4740	558	-16.2	-25.1	223	13	
2025-11-30T00:00	4760	557	-16.3	-26.4	224	13	
2025-11-30T00:00	4780	556	-16.3	-27.2	225	12	
2025-11-30T00:00	4800	554	-16.4	-27.6	226	12	
2025-11-30T00:00	4820	553	-16.6	-27.6	228	11	
2025-11-30T00:00	4840	551	-16.7	-27.8	230	10	
2025-11-30T00:00	4860	550	-16.8	-27.8	231	10	
2025-11-30T00:00	4880	548	-17.0	-27.9	233	9	
2025-11-30T00:00	4900	547	-17.1	-28.1	233	9	
2025-11-30T00:00	4920	545	-17.3	-28.1	233	9	
2025-11-30T00:00	4940	544	-17.5	-28.3	232	10	
2025-11-30T00:00	4960	542	-17.6	-28.5	231	10	
2025-11-30T00:00	4980	541	-17.7	-28.9	230	10	
2025-11-30T00:00	5000	539	-17.9	-29.0	229	11	
2025-11-30T00:00	5020	538	-18.1	-29.0	229	11	
2025-11-30T00:00	5040	537	-18.2	-28.8	230	11	
2025-11-30T00:00	5060	535	-18.4	-29.0	230	11	
2025-11-30T00:00	5080	534	-18.6	-29.2	232	12	
2025-11-30T00:00	5100	532	-18.8	-29.6	234	12	
2025-11-30T00:00	5120	531	-18.9	-29.9	236	12	
2025-11-30T00:00	5140	529	-19.1	-30.0	239	12	
2025-11-30T00:00	5160	528	-19.3	-30.1	241	12	
2025-11-30T00:00	5180	527	-19.4	-30.6	242	12	
2025-11-30T00:00	5200	525	-19.6	-31.1	242	12	
2025-11-30T00:00	5220	524	-19.7	-31.4	242	12	
2025-11-30T00:00	5240	522	-19.9	-31.6	241	11	
2025-11-30T00:00	5260	521	-20.1	-31.7	240	11	
2025-11-30T00:00	5280	520	-20.2	-31.9	238	10	
2025-11-30T00:00	5300	518	-20.4	-32.0	237	10	
2025-11-30T00:00	5320	517	-20.6	-32.1	237	10	
2025-11-30T00:00	5340	516	-20.7	-31.9	237	10	
2025-11-30T00:00	5360	514	-20.9	-31.9	237	11	
2025-11-30T00:00	5380	513	-21.1	-31.9	237	11	
2025-11-30T00:00	5400	511	-21.2	-31.9	238	11	
2025-11-30T00:00	5420	510	-21.4	-31.8	238	11	
2025-11-30T00:00	5440	508	-21.6	-31.6	238	11	
2025-11-30T00:00	5460	507	-21.8	-31.6	238	11	
2025-11-30T00:00	5480	506	-22.0	-31.6	237	11	
2025-11-30T00:00	5500	504	-22.1	-31.8	236	11	
2025-11-30T00:00	5520	503	-22.3	-32.0	234	11	
2025-11-30T00:00	5540	502	-22.5	-32.2	233	11	
2025-11-30T00:00	5560	500	-22.6	-32.7	233	11	
2025-11-30T00:00	5580	499	-22.7	-33.5	234	12	
2025-11-30T00:00	5600	498	-22.8	-34.0	234	12	
2025-11-30T00:00	5620	496	-22.9	-34.2	235	12	
2025-11-30T00:00	5640	495	-23.1	-34.3	236	12	
2025-11-30T00:00	5660	493	-23.2	-34.6	237	13	
2025-11-30T00:00	5680	492	-23.3	-34.6	238	13	
2025-11-30T00:00	5700	491	-23.3	-35.4	240	13	
2025-11-30T00:00	5720	489	-23.1	-37.4	242	13	
2025-11-30T00:00	5740	488	-23.1	-37.9	243	13	
2025-11-30T00:00	5760	487	-23.2	-38.1	243	13	
2025-11-30T00:00	5780	485	-23.3	-38.6	243	13	
2025-11-30T00:00	5800	484	-23.3	-39.3	242	14	
2025-11-30T00:00	5820	483	-23.4	-39.7	240	14	
2025-11-30T00:00	5840	481	-23.5	-40.2	239	14	
2025-11-30T00:00	5860	480	-23.5	-40.6	238	14	
2025-11-30T00:00	5880	479	-23.7	-40.7	237	14	
2025-11-30T00:00	5900	477	-23.9	-40.9	237	14	
2025-11-30T00:00	5920	476	-24.0	-41.0	237	13	
2025-11-30T00:00	5940	475	-24.2	-41.2	238	12	
2025-11-30T00:00	5960	474	-24.3	-41.4	239	12	
2025-11-30T00:00	5980	472	-24.4	-41.1	241	11	
2025-11-30T00:00	6000	471	-24.6	-40.6	243	11	
2025-11-30T00:00	6020	470	-24.8	-40.2	245	11	
2025-11-30T00:00	6040	468	-25.0	-40.3	245	11	
2025-11-30T00:00	6060	467	-25.2	-40.4	244	11	
2025-11-30T00:00	6080	466	-25.4	-40.2	242	12	
2025-11-30T00:00	6100	464	-25.6	-40.3	241	12	
2025-11-30T00:00	6120	463	-25.8	-40.3	239	13	
2025-11-30T00:00	6140	462	-25.9	-38.7	238	13	
2025-11-30T00:00	6160	461	-26.1	-36.5	237	12	
2025-11-30T00:00	6180	459	-26.2	-35.4	236	12	
2025-11-30T00:00	6200	458	-26.4	-35.3	235	12	
2025-11-30T00:00	6220	457	-26.5	-35.3	234	11	
2025-11-30T00:00	6240	456	-26.7	-35.6	233	11	
2025-11-30T00:00	6260	454	-26.8	-35.7	233	11	
2025-11-30T00:00	6280	453	-27.0	-35.7	232	11	
2025-11-30T00:00	6300	452	-27.1	-36.0	232	11	
2025-11-30T00:00	6320	451	-27.2	-36.1	232	12	
2025-11-30T00:00	6340	449	-27.4	-36.4	231	12	
2025-11-30T00:00	6360	448	-27.6	-36.6	229	12	
2025-11-30T00:00	6380	447	-27.7	-37.3	228	12	
2025-11-30T00:00	6400	446	-27.8	-38.8	226	12	
2025-11-30T00:00	6420	444	-28.0	-39.0	225	13	
2025-11-30T00:00	6440	443	-28.2	-39.1	223	13	
2025-11-30T00:00	6460	442	-28.4	-39.1	222	13	
2025-11-30T00:00	6480	441	-28.6	-39.3	221	13	
2025-11-30T00:00	6500	439	-28.7	-39.9	220	13	
2025-11-30T00:00	6520	438	-28.9	-40.6	220	14	
2025-11-30T00:00	6540	437	-29.1	-40.7	220	14	
2025-11-30T00:00	6560	436	-29.2	-40.8	220	14	
2025-11-30T00:00	6580	434	-29.4	-41.0	220	14	
2025-11-30T00:00	6600	433	-29.6	-41.1	220	14	
2025-11-30T00:00	6620	432	-29.8	-41.1	220	14	
2025-11-30T00:00	6640	431	-29.9	-41.1	219	14	
2025-11-30T00:00	6660	430	-30.2	-40.9	219	14	
2025-11-30T00:00	6680	428	-30.4	-40.8	218	14	
2025-11-30T00:00	6700	427	-30.5	-41.0	218	14	
2025-11-30T00:00	6720	426	-30.7	-40.7	219	14	
2025-11-30T00:00	6740	425	-30.9	-40.8	220	15	
2025-11-30T00:00	6760	424	-31.0	-40.5	222	16	
2025-11-30T00:00	6780	423	-31.2	-40.2	223	16	
2025-11-30T00:00	6800	421	-31.4	-40.3	225	17	
2025-11-30T00:00	6820	420	-31.5	-40.5	226	18	
2025-11-30T00:00	6840	419	-31.7	-40.7	227	18	
2025-11-30T00:00	6860	418	-31.9	-41.1	227	18	
2025-11-30T00:00	6880	416	-32.0	-41.3	226	18	
2025-11-30T00:00	6900	415	-32.2	-40.8	224	18	
2025-11-30T00:00	6920	414	-32.4	-40.7	223	19	
2025-11-30T00:00	6940	413	-32.5	-41.7	222	19	
2025-11-30T00:00	6960	412	-32.7	-41.4	222	19	
2025-11-30T00:00	6980	411	-32.9	-41.1	221	19	
2025-11-30T00:00	7000	410	-33.2	-40.2	221	19	
2025-11-30T00:00	7020	408	-33.4	-39.9	220	19	
2025-11-30T00:00	7040	407	-33.6	-40.0	220	19	
2025-11-30T00:00	7060	406	-33.8	-40.2	219	19	
2025-11-30T00:00	7080	405	-33.9	-40.2	218	20	
2025-11-30T00:00	7100	404	-34.1	-39.4	218	20	
2025-11-30T00:00	7120	402	-34.2	-36.8	218	20	
2025-11-30T00:00	7140	401	-34.2	-37.4	218	20	
2025-11-30T00:00	7160	400	-34.3	-38.1	219	20	
2025-11-30T00:00	7180	399	-34.4	-38.0	221	21	
2025-11-30T00:00	7200	398	-34.4	-37.9	223	21	
2025-11-30T00:00	7220	397	-34.4	-37.7	224	21	
2025-11-30T00:00	7240	396	-34.6	-37.5	225	21	
2025-11-30T00:00	7260	395	-34.8	-37.6	227	21	
2025-11-30T00:00	7280	394	-34.9	-37.7	228	21	
2025-11-30T00:00	7300	392	-35.1	-37.8	229	21	
2025-11-30T00:00	7320	391	-35.3	-37.7	229	20	
2025-11-30T00:00	7340	390	-35.4	-38.1	230	20	
2025-11-30T00:00	7360	389	-35.6	-38.1	230	20	
2025-11-30T00:00	7380	388	-35.8	-38.0	231	20	
2025-11-30T00:00	7400	387	-35.9	-38.1	232	19	
2025-11-30T00:00	7420	386	-36.1	-38.4	232	19	
2025-11-30T00:00	7440	385	-36.2	-38.3	233	18	
2025-11-30T00:00	7460	383	-36.4	-38.5	233	18	
2025-11-30T00:00	7480	382	-36.6	-38.9	233	18	
2025-11-30T00:00	7500	381	-36.7	-39.4	233	17	
2025-11-30T00:00	7520	380	-36.8	-40.0	233	17	
2025-11-30T00:00	7540	379	-36.9	-40.2	233	17	
2025-11-30T00:00	7560	378	-37.0	-39.5	232	16	
2025-11-30T00:00	7580	377	-37.1	-39.6	231	16	
2025-11-30T00:00	7600	376	-37.2	-40.1	231	15	
2025-11-30T00:00	7620	375	-37.4	-40.6	231	15	
2025-11-30T00:00	7640	374	-37.5	-40.6	231	15	
2025-11-30T00:00	7660	372	-37.7	-40.9	231	15	
2025-11-30T00:00	7680	371	-37.9	-41.0	231	15	
2025-11-30T00:00	7700	370	-38.0	-41.0	231	15	
2025-11-30T00:00	7720	369	-38.2	-41.0	231	15	
2025-11-30T00:00	7740	368	-38.4	-41.0	230	16	
2025-11-30T00:00	7760	367	-38.6	-41.1	230	16	
2025-11-30T00:00	7780	366	-38.8	-41.1	229	16	
2025-11-30T00:00	7800	365	-38.9	-41.1	229	17	
2025-11-30T00:00	7820	364	-39.2	-41.1	228	17	
2025-11-30T00:00	7840	363	-39.3	-41.4	228	17	
2025-11-30T00:00	7860	362	-39.5	-41.6	228	17	
2025-11-30T00:00	7880	361	-39.7	-41.8	228	17	
2025-11-30T00:00	7900	360	-39.9	-42.3	228	17	
2025-11-30T00:00	7920	359	-40.0	-42.9	229	17	
2025-11-30T00:00	7940	358	-40.2	-42.8	229	17	
2025-11-30T00:00	7960	357	-40.4	-43.8	230	16	
2025-11-30T00:00	7980	355	-40.5	-44.3	230	16	
2025-11-30T00:00	8000	354	-40.7	-44.2	230	16	
2025-11-30T00:00	8020	353	-40.9	-44.0	231	16	
2025-11-30T00:00	8040	353	-41.0	-44.2	231	16	
2025-11-30T00:00	8060	351	-41.2	-44.4	231	16	
2025-11-30T00:00	8080	350	-41.4	-44.6	232	16	
2025-11-30T00:00	8100	349	-41.6	-44.5	232	16	
2025-11-30T00:00	8120	348	-41.8	-44.5	232	16	
2025-11-30T00:00	8140	347	-42.0	-44.5	232	16	
2025-11-30T00:00	8160	346	-42.2	-44.9	232	17	
2025-11-30T00:00	8180	345	-42.4	-45.1	231	17	
2025-11-30T00:00	8200	344	-42.5	-45.4	231	17	
2025-11-30T00:00	8220	343	-42.7	-45.8	230	17	
2025-11-30T00:00	8240	342	-42.9	-46.2	230	17	
2025-11-30T00:00	8260	341	-43.1	-46.1	229	17	
2025-11-30T00:00	8280	340	-43.2	-46.3	229	17	
2025-11-30T00:00	8300	339	-43.4	-46.5	229	17	
2025-11-30T00:00	8320	338	-43.6	-46.5	228	17	
2025-11-30T00:00	8340	337	-43.8	-46.5	228	17	
2025-11-30T00:00	8360	336	-44.0	-46.4	228	17	
2025-11-30T00:00	8380	335	-44.2	-46.6	228	17	
2025-11-30T00:00	8400	334	-44.4	-47.4	228	17	
2025-11-30T00:00	8420	333	-44.5	-48.1	228	17	
2025-11-30T00:00	8440	332	-44.6	-48.2	229	17	
2025-11-30T00:00	8460	331	-44.8	-48.2	229	18	
2025-11-30T00:00	8480	330	-45.0	-48.4	230	18	
2025-11-30T00:00	8500	329	-45.2	-48.6	230	18	
2025-11-30T00:00	8520	328	-45.3	-48.8	230	18	
2025-11-30T00:00	8540	327	-45.5	-49.0	231	18	
2025-11-30T00:00	8560	326	-45.7	-49.0	231	17	
2025-11-30T00:00	8580	325	-45.9	-48.8	232	17	
2025-11-30T00:00	8600	324	-46.1	-48.6	232	17	
2025-11-30T00:00	8620	323	-46.3	-48.6	233	17	
2025-11-30T00:00	8640	322	-46.5	-48.7	233	17	
2025-11-30T00:00	8660	321	-46.6	-49.1	234	17	
2025-11-30T00:00	8680	320	-46.7	-49.5	234	17	
2025-11-30T00:00	8700	319	-46.9	-49.6	235	18	
2025-11-30T00:00	8720	318	-47.1	-49.8	235	18	
2025-11-30T00:00	8740	318	-47.3	-49.8	235	18	
2025-11-30T00:00	8760	316	-47.5	-50.0	235	18	
2025-11-30T00:00	8780	315	-47.6	-50.4	235	18	
2025-11-30T00:00	8800	315	-47.8	-51.1	235	18	
2025-11-30T00:00	8820	314	-48.0	-51.7	235	18	
2025-11-30T00:00	8840	313	-48.1	-52.1	234	18	
2025-11-30T00:00	8860	312	-48.2	-52.3	234	18	
2025-11-30T00:00	8880	311	-48.3	-52.4	234	18	
2025-11-30T00:00	8900	310	-48.5	-52.6	234	18	
2025-11-30T00:00	8920	309	-48.6	-52.9	234	19	
2025-11-30T00:00	8940	308	-48.8	-53.1	234	19	
2025-11-30T00:00	8960	307	-48.9	-53.5	235	19	
2025-11-30T00:00	8980	306	-49.1	-53.8	235	19	
2025-11-30T00:00	9000	305	-49.3	-54.1	236	19	
2025-11-30T00:00	9020	304	-49.4	-54.3	236	19	
2025-11-30T00:00	9040	303	-49.6	-54.5	237	19	
2025-11-30T00:00	9060	302	-49.7	-54.7	237	19	
2025-11-30T00:00	9080	301	-49.9	-54.6	237	19	
2025-11-30T00:00	9100	300	-50.1	-54.6	237	19	
2025-11-30T00:00	9120	300	-50.2	-54.6	237	18	
2025-11-30T00:00	9140	299	-50.4	-54.8	237	18	
2025-11-30T00:00	9160	298	-50.5	-55.2	237	18	
2025-11-30T00:00	9180	297	-50.7	-55.6	237	18	
2025-11-30T00:00	9200	296	-50.9	-55.7	238	18	
2025-11-30T00:00	9220	295	-51.0	-55.6	238	18	
2025-11-30T00:00	9240	294	-51.3	-55.7	239	18	
2025-11-30T00:00	9260	293	-51.4	-55.9	240	17	
2025-11-30T00:00	9280	292	-51.6	-56.3	240	17	
2025-11-30T00:00	9300	291	-51.7	-56.7	241	17	
2025-11-30T00:00	9320	290	-51.9	-56.9	241	18	
2025-11-30T00:00	9340	290	-52.1	-56.9	241	18	
2025-11-30T00:00	9360	289	-52.3	-57.1	241	18	
2025-11-30T00:00	9380	288	-52.5	-57.3	241	18	
2025-11-30T00:00	9400	287	-52.6	-57.6	241	18	
2025-11-30T00:00	9420	286	-52.8	-57.9	241	18	
2025-11-30T00:00	9440	285	-53.0	-58.0	240	18	
2025-11-30T00:00	9460	284	-53.1	-58.0	240	18	
2025-11-30T00:00	9480	283	-53.3	-57.9	240	18	
2025-11-30T00:00	9500	283	-53.5	-58.0	240	18	
2025-11-30T00:00	9520	282	-53.7	-58.0	240	18	
2025-11-30T00:00	9540	281	-53.8	-58.1	240	18	
2025-11-30T00:00	9560	280	-54.0	-58.2	240	18	
2025-11-30T00:00	9580	279	-54.2	-58.3	241	18	
2025-11-30T00:00	9600	278	-54.4	-58.5	241	18	
2025-11-30T00:00	9620	277	-54.6	-58.8	242	17	
2025-11-30T00:00	9640	276	-54.8	-59.1	243	17	
2025-11-30T00:00	9660	276	-54.9	-59.3	243	17	
2025-11-30T00:00	9680	275	-55.0	-59.6	243	17	
2025-11-30T00:00	9700	274	-55.2	-59.8	244	17	
2025-11-30T00:00	9720	273	-55.4	-59.9	244	17	
2025-11-30T00:00	9740	272	-55.6	-60.0	244	17	
2025-11-30T00:00	9760	271	-55.8	-60.0	243	17	
2025-11-30T00:00	9780	270	-55.9	-60.0	243	17	
2025-11-30T00:00	9800	270	-56.1	-59.9	242	18	
2025-11-30T00:00	9820	269	-56.3	-60.0	241	18	
2025-11-30T00:00	9840	268	-56.5	-60.3	241	18	
2025-11-30T00:00	9860	267	-56.6	-60.6	241	18	
2025-11-30T00:00	9880	266	-56.8	-60.8	241	19	
2025-11-30T00:00	9900	265	-57.0	-61.0	241	19	
2025-11-30T00:00	9920	264	-57.2	-61.2	241	19	
2025-11-30T00:00	9940	264	-57.4	-61.3	241	18	
2025-11-30T00:00	9960	263	-57.5	-61.4	241	18	
2025-11-30T00:00	9980	262	-57.7	-61.5	240	18	
2025-11-30T00:00	10000	261	-57.9	-61.6	240	18	
2025-11-30T00:00	10018	260	-58.0	-61.6	240	18	
2025-11-30T00:00	10050	259	-58.2	-62.0	239	19	
2025-11-30T00:00	10100	257	-58.7	-62.8	238	19	
2025-11-30T00:00	10150	255	-59.1	-63.3	236	18	
2025-11-30T00:00	10200	253	-59.5	-63.7	236	18	
2025-11-30T00:00	10250	251	-59.9	-64.3	236	18	
2025-11-30T00:00	10300	249	-60.3	-64.9	236	18	
2025-11-30T00:00	10350	247	-60.7	-65.4	234	18	
2025-11-30T00:00	10400	245	-61.1	-65.8	232	18	
2025-11-30T00:00	10450	243	-61.5	-66.2	232	19	
2025-11-30T00:00	10500	241	-62.0	-66.6	232	19	
2025-11-30T00:00	10550	239	-62.4	-67.1	233	19	
2025-11-30T00:00	10600	237	-62.7	-67.4	235	18	
2025-11-30T00:00	10650	235	-63.1	-67.6	238	18	
2025-11-30T00:00	10700	233	-63.5	-67.9	242	18	
2025-11-30T00:00	10750	231	-63.7	-68.1	244	19	
2025-11-30T00:00	10800	230	-64.0	-68.3	246	19	
2025-11-30T00:00	10850	228	-64.2	-68.6	247	19	
2025-11-30T00:00	10900	226	-64.4	-68.9	248	19	
2025-11-30T00:00	10950	224	-64.8	-69.3	250	19	
2025-11-30T00:00	11000	222	-64.9	-69.4	251	18	
2025-11-30T00:00	11050	221	-65.2	-69.6	252	18	
2025-11-30T00:00	11100	219	-65.6	-69.3	250	18	
2025-11-30T00:00	11150	217	-65.6	-68.8	247	18	
2025-11-30T00:00	11200	215	-65.6	-68.7	244	18	
2025-11-30T00:00	11250	213	-65.7	-69.3	243	18	
2025-11-30T00:00	11300	212	-65.6	-70.5	244	19	
2025-11-30T00:00	11350	210	-65.6	-72.3	244	20	
2025-11-30T00:00	11400	208	-65.3	-73.7	243	21	
2025-11-30T00:00	11450	206	-64.8	-74.1	243	22	
2025-11-30T00:00	11500	205	-64.5	-73.9	243	22	
2025-11-30T00:00	11550	203	-64.0	-73.6	244	21	
2025-11-30T00:00	11600	201	-63.1	-74.1	245	19	
2025-11-30T00:00	11650	200	-61.9	-74.6	245	19	
2025-11-30T00:00	11700	198	-61.0	-75.4	245	19	
2025-11-30T00:00	11750	197	-60.8	-77.0	247	19	
2025-11-30T00:00	11800	195	-60.1	-77.9	249	20	
2025-11-30T00:00	11850	193	-60.1	-78.4	250	20	
2025-11-30T00:00	11900	192	-60.1	-78.5	250	21	
2025-11-30T00:00	11950	190	-60.0	-78.6	249	21	
2025-11-30T00:00	12000	189	-60.0	-78.7	249	21	
2025-11-30T00:00	12050	187	-60.1	-78.9	250	20	
2025-11-30T00:00	12100	186	-59.6	-79.2	251	20	
2025-11-30T00:00	12150	184	-59.1	-79.6	253	20	
2025-11-30T00:00	12200	183	-58.7	-79.9	255	19	
2025-11-30T00:00	12250	181	-58.5	-80.1	256	17	
2025-11-30T00:00	12300	180	-58.0	-80.3	255	17	
2025-11-30T00:00	12350	179	-57.2	-80.4	253	16	
2025-11-30T00:00	12400	177	-56.8	-80.8	251	16	
2025-11-30T00:00	12450	176	-55.9	-80.7	250	16	
2025-11-30T00:00	12500	174	-55.6	-80.7	250	17	
2025-11-30T00:00	12550	173	-55.5	-80.6	249	17	
2025-11-30T00:00	12600	172	-55.9	-80.6	248	18	
2025-11-30T00:00	12650	170	-56.3	-80.6	248	18	
2025-11-30T00:00	12700	169	-56.6	-80.5	249	19	
2025-11-30T00:00	12750	168	-56.6	-80.6	250	19	
2025-11-30T00:00	12800	166	-56.5	-80.8	251	19	
2025-11-30T00:00	12850	165	-56.2	-80.9	251	18	
2025-11-30T00:00	12900	164	-56.2	-81.0	252	18	
2025-11-30T00:00	12950	162	-56.5	-81.2	252	17	
2025-11-30T00:00	13000	161	-56.6	-81.2	250	16	
2025-11-30T00:00	13050	160	-56.7	-81.3	250	16	
2025-11-30T00:00	13100	159	-56.9	-81.4	252	15	
2025-11-30T00:00	13150	157	-57.0	-81.4	255	14	
2025-11-30T00:00	13200	156	-56.8	-81.5	256	14	
2025-11-30T00:00	13250	155	-56.8	-81.6	256	13	
2025-11-30T00:00	13300	154	-57.0	-81.7	254	11	
2025-11-30T00:00	13350	152	-57.1	-81.7	252	11	
2025-11-30T00:00	13400	151	-57.3	-81.8	250	10	
2025-11-30T00:00	13450	150	-57.6	-81.8	246	11	
2025-11-30T00:00	13500	149	-57.8	-81.8	243	12	
2025-11-30T00:00	13550	148	-58.2	-81.9	241	13	
2025-11-30T00:00	13600	147	-58.5	-82.1	242	14	
2025-11-30T00:00	13650	145	-58.7	-82.3	244	16	
2025-11-30T00:00	13700	144	-58.6	-82.4	244	17	
2025-11-30T00:00	13750	143	-58.5	-82.4	243	19	
2025-11-30T00:00	13800	142	-58.5	-82.5	243	19	
2025-11-30T00:00	13850	141	-58.5	-82.6	245	20	
2025-11-30T00:00	13900	140	-58.7	-82.7	249	20	
2025-11-30T00:00	13950	139	-58.5	-82.7	253	20	
2025-11-30T00:00	14000	138	-58.3	-82.9	256	19	
2025-11-30T00:00	14050	136	-58.3	-83.0	258	18	
2025-11-30T00:00	14100	135	-58.2	-82.9	259	18	
2025-11-30T00:00	14150	134	-58.3	-83.0	259	18	
2025-11-30T00:00	14200	133	-58.5	-83.0	260	18	
2025-11-30T00:00	14250	132	-58.8	-83.0	259	18	
2025-11-30T00:00	14300	131	-58.8	-83.1	257	17	
2025-11-30T00:00	14350	130	-58.8	-83.1	255	17	
2025-11-30T00:00	14400	129	-59.0	-83.1	252	16	
2025-11-30T00:00	14450	128	-59.1	-83.2	250	17	
2025-11-30T00:00	14500	127	-59.4	-83.3	250	17	
2025-11-30T00:00	14550	126	-59.3	-83.3	251	17	
2025-11-30T00:00	14600	125	-58.7	-83.2	253	17	
2025-11-30T00:00	14650	124	-58.4	-83.2	253	17	
2025-11-30T00:00	14700	123	-58.5	-83.4	253	17	
2025-11-30T00:00	14750	122	-58.5	-83.5	252	18	
2025-11-30T00:00	14800	121	-58.7	-83.8	251	19	
2025-11-30T00:00	14850	120	-58.9	-84.2	251	20	
2025-11-30T00:00	14900	119	-59.0	-84.4	254	20	
2025-11-30T00:00	14950	118	-59.2	-84.4	257	19	
2025-11-30T00:00	15000	117	-59.5	-84.4	260	18	
2025-11-30T00:00	15050	116	-59.8	-84.3	262	17	
2025-11-30T00:00	15100	115	-60.1	-84.3	261	16	
2025-11-30T00:00	15150	114	-60.4	-84.4	259	15	
2025-11-30T00:00	15200	114	-60.7	-84.6	255	14	
2025-11-30T00:00	15250	113	-60.9	-84.7	250	14	
2025-11-30T00:00	15300	112	-61.0	-84.6	247	14	
2025-11-30T00:00	15350	111	-60.7	-84.3	248	14	
2025-11-30T00:00	15400	110	-60.8	-84.2	249	15	
2025-11-30T00:00	15450	109	-61.1	-84.3	251	15	
2025-11-30T00:00	15500	108	-60.8	-84.1	252	16	
2025-11-30T00:00	15550	107	-61.0	-84.2	252	17	
2025-11-30T00:00	15600	106	-61.5	-84.2	254	18	
2025-11-30T00:00	15650	106	-61.9	-84.3	256	18	
2025-11-30T00:00	15700	105	-62.1	-84.5	259	19	
2025-11-30T00:00	15750	104	-61.9	-84.5	263	18	
2025-11-30T00:00	15800	103	-61.9	-84.6	266	17	
2025-11-30T00:00	15850	102	-61.8	-84.7	269	17	
2025-11-30T00:00	15900	101	-61.7	-84.7	270	15	
2025-11-30T00:00	15950	101	-61.6	-84.8	268	14	
2025-11-30T00:00	16000	100	-61.3	-84.7	266	13	
2025-11-30T00:00	16050	99	-61.2	-84.7	268	12	
2025-11-30T00:00	16100	98	-61.1	-84.7	271	12	
2025-11-30T00:00	16150	97	-61.1	-84.7	274	12	
2025-11-30T00:00	16200	97	-61.2	-84.6	273	11	
2025-11-30T00:00	16250	96	-61.6	-84.9	268	10	
2025-11-30T00:00	16300	95	-61.5	-84.8	260	9	
2025-11-30T00:00	16350	94	-61.6	-84.9	252	9	
2025-11-30T00:00	16400	94	-61.8	-85.1	249	10	
2025-11-30T00:00	16450	93	-61.7	-85.0	248	11	
2025-11-30T00:00	16500	92	-61.7	-85.0	247	11	
2025-11-30T00:00	16550	91	-61.8	-85.1	246	12	
2025-11-30T00:00	16600	91	-62.0	-85.2	247	13	
2025-11-30T00:00	16650	90	-62.0	-85.2	249	14	
2025-11-30T00:00	16700	89	-62.0	-85.2	251	15	
2025-11-30T00:00	16750	88	-62.4	-85.3	252	16	
2025-11-30T00:00	16800	88	-62.6	-85.4	254	16	
2025-11-30T00:00	16850	87	-62.8	-85.4	257	16	
2025-11-30T00:00	16900	86	-62.8	-85.4	261	15	
2025-11-30T00:00	16950	86	-63.0	-85.5	263	15	
2025-11-30T00:00	17000	85	-63.3	-85.6	266	14	
2025-11-30T00:00	17050	84	-63.3	-85.6	267	12	
2025-11-30T00:00	17100	84	-63.5	-85.7	267	11	
2025-11-30T00:00	17150	83	-63.6	-85.7	264	10	
2025-11-30T00:00	17200	82	-63.8	-85.8	258	10	
2025-11-30T00:00	17250	82	-63.9	-85.9	250	10	
2025-11-30T00:00	17300	81	-64.1	-86.1	242	10	
2025-11-30T00:00	17350	80	-63.7	-85.9	239	11	
2025-11-30T00:00	17400	80	-63.8	-86.1	240	13	
2025-11-30T00:00	17450	79	-63.6	-86.2	244	13	
2025-11-30T00:00	17500	78	-63.5	-86.5	249	13	
2025-11-30T00:00	17550	78	-62.7	-86.4	254	13	
2025-11-30T00:00	17600	77	-62.2	-86.2	258	13	
2025-11-30T00:00	17650	76	-62.4	-86.2	260	14	
2025-11-30T00:00	17700	76	-62.7	-86.2	263	14	
2025-11-30T00:00	17750	75	-63.0	-86.3	268	14	
2025-11-30T00:00	17800	75	-63.1	-86.3	272	14	
2025-11-30T00:00	17850	74	-63.1	-86.3	276	13	
2025-11-30T00:00	17900	73	-63.1	-86.3	278	12	
2025-11-30T00:00	17950	73	-63.4	-86.4	275	12	
2025-11-30T00:00	18000	72	-63.4	-86.4	270	11	
2025-11-30T00:00	18050	72	-63.6	-86.4	264	12	
2025-11-30T00:00	18100	71	-64.0	-86.5	259	12	
2025-11-30T00:00	18150	70	-64.3	-86.7	257	12	
2025-11-30T00:00	18200	70	-64.4	-86.9	257	11	
2025-11-30T00:00	18250	69	-64.2	-86.9	254	9	
2025-11-30T00:00	18300	69	-63.8	-86.8	249	8	
2025-11-30T00:00	18350	68	-63.9	-86.8	242	8	
2025-11-30T00:00	18400	68	-64.3	-86.9	239	8	
2025-11-30T00:00	18450	67	-64.6	-87.1	238	10	
2025-11-30T00:00	18500	67	-64.2	-86.9	242	11	
2025-11-30T00:00	18550	66	-64.4	-87.1	246	12	
2025-11-30T00:00	18600	65	-64.5	-87.2	251	13	
2025-11-30T00:00	18650	65	-64.2	-87.4	256	14	
2025-11-30T00:00	18700	64	-63.4	-87.3	259	16	
2025-11-30T00:00	18750	64	-62.5	-87.0	262	17	
2025-11-30T00:00	18800	63	-62.3	-87.0	267	18	
2025-11-30T00:00	18850	63	-62.1	-86.9	273	16	
2025-11-30T00:00	18900	62	-61.5	-86.6	277	15	
2025-11-30T00:00	18950	62	-61.4	-86.4	280	13	
2025-11-30T00:00	19000	61	-61.7	-86.5	283	12	
2025-11-30T00:00	19050	61	-61.9	-86.5	287	11	
2025-11-30T00:00	19100	60	-62.1	-86.5	289	11	
2025-11-30T00:00	19150	60	-62.4	-86.6	287	10	
2025-11-30T00:00	19200	59	-62.5	-86.7	283	10	
2025-11-30T00:00	19250	59	-62.6	-86.7	281	9	
2025-11-30T00:00	19300	58	-62.7	-86.7	277	8	
2025-11-30T00:00	19350	58	-63.1	-86.7	272	7	
2025-11-30T00:00	19400	57	-63.4	-86.8	265	6	
2025-11-30T00:00	19450	57	-63.8	-86.9	259	6	
2025-11-30T00:00	19500	57	-64.2	-87.1	252	6	
2025-11-30T00:00	19550	56	-64.5	-87.2	246	7	
2025-11-30T00:00	19600	56	-64.7	-87.3	243	8	
2025-11-30T00:00	19650	55	-64.9	-87.4	241	9	
2025-11-30T00:00	19700	55	-64.7	-87.4	238	10	
2025-11-30T00:00	19750	54	-64.7	-87.5	237	10	
2025-11-30T00:00	19800	54	-64.8	-87.5	242	10	
2025-11-30T00:00	19850	53	-65.0	-87.5	249	10	
2025-11-30T00:00	19900	53	-65.2	-87.6	257	10	
2025-11-30T00:00	19950	53	-65.3	-87.6	262	10	
2025-11-30T00:00	20000	52	-65.3	-87.6	263	10	
2025-11-30T00:00	20050	52	-65.3		260	9	
2025-11-30T00:00	20100	51	-65.6		256	9	
2025-11-30T00:00	20150	51	-65.9		256	9	
2025-11-30T00:00	20200	50	-66.1		259	8	
2025-11-30T00:00	20250	50	-66.3		257	8	
2025-11-30T00:00	20300	50	-66.5		250	9	
2025-11-30T00:00	20350	49	-66.5		245	9	
2025-11-30T00:00	20400	49	-66.6		246	11	
2025-11-30T00:00	20450	48	-66.6		251	12	
2025-11-30T00:00	20500	48	-66.4		258	12	
2025-11-30T00:00	20550	48	-66.0		264	12	
2025-11-30T00:00	20600	47	-65.4		268	12	
2025-11-30T00:00	20650	47	-65.4		271	12	
2025-11-30T00:00	20700	46	-65.6		273	12	
2025-11-30T00:00	20750	46	-65.8		274	12	
2025-11-30T00:00	20800	46	-65.7		275	12	
2025-11-30T00:00	20850	45	-65.9		273	12	
2025-11-30T00:00	20900	45	-65.7		271	12	
2025-11-30T00:00	20950	45	-65.6		270	12	
2025-11-30T00:00	21000	44	-65.4		269	12	
2025-11-30T00:00	21050	44	-65.0		268	12	
2025-11-30T00:00	21100	43	-65.0		264	12	
2025-11-30T00:00	21150	43	-65.2		260	12	
2025-11-30T00:00	21200	43	-65.2		257	13	
2025-11-30T00:00	21250	42	-65.0		256	13	
2025-11-30T00:00	21300	42	-65.0		258	14	
2025-11-30T00:00	21350	42	-65.0		262	13	
2025-11-30T00:00	21400	41	-64.9		266	13	
2025-11-30T00:00	21450	41	-64.8		268	13	
2025-11-30T00:00	21500	41	-64.6		268	13	
2025-11-30T00:00	21550	40	-64.3		270	13	
2025-11-30T00:00	21600	40	-64.4		271	12	
2025-11-30T00:00	21650	40	-64.6		271	12	
2025-11-30T00:00	21700	39	-64.8		270	11	
2025-11-30T00:00	21750	39	-64.9		267	11	
2025-11-30T00:00	21800	39	-65.2		262	11	
2025-11-30T00:00	21850	38	-65.3		259	11	
2025-11-30T00:00	21900	38	-65.2		260	12	
2025-11-30T00:00	21950	38	-65.1		261	12	
2025-11-30T00:00	22000	37	-65.2		261	11	
2025-11-30T00:00	22050	37	-65.2		259	10	
2025-11-30T00:00	22100	37	-65.5		254	9	
2025-11-30T00:00	22150	37	-65.7		249	9	
2025-11-30T00:00	22200	36	-65.7		246	9	
2025-11-30T00:00	22250	36	-65.7		244	9	
2025-11-30T00:00	22300	36	-65.6		243	10	
2025-11-30T00:00	22350	35	-65.5		242	10	
2025-11-30T00:00	22400	35	-65.2		243	11	
2025-11-30T00:00	22450	35	-65.1		246	12	
2025-11-30T00:00	22500	35	-64.8		248	12	
2025-11-30T00:00	22550	34	-64.9		248	13	
2025-11-30T00:00	22600	34	-64.8		248	14	
2025-11-30T00:00	22650	34	-64.9		249	14	
2025-11-30T00:00	22700	33	-64.7		252	15	
2025-11-30T00:00	22750	33	-64.4		257	15	
2025-11-30T00:00	22800	33	-64.5		261	15	
2025-11-30T00:00	22850	33	-64.7		265	15	
2025-11-30T00:00	22900	32	-64.9		270	15	
2025-11-30T00:00	22950	32	-65.2		273	15	
2025-11-30T00:00	23000	32	-64.9		277	15	
2025-11-30T00:00	23050	32	-65.2		281	14	
2025-11-30T00:00	23100	31	-65.4		282	14	
2025-11-30T00:00	23150	31	-65.4		282	13	
2025-11-30T00:00	23200	31	-65.4		282	13	
2025-11-30T00:00	23250	31	-65.2		283	13	
2025-11-30T00:00	23300	30	-65.1		283	13	
2025-11-30T00:00	23350	30	-65.1		281	12	
2025-11-30T00:00	23400	30	-64.9		278	12	
2025-11-30T00:00	23450	30	-64.8		274	12	
2025-11-30T00:00	23500	29	-64.9		270	12	
2025-11-30T00:00	23550	29	-64.9		267	11	
2025-11-30T00:00	23600	29	-64.6		267	11	
2025-11-30T00:00	23650	29	-64.8		268	11	
2025-11-30T00:00	23700	28	-64.8		267	11	
2025-11-30T00:00	23750	28	-64.8		264	10	
2025-11-30T00:00	23800	28	-64.8		262	11	
2025-11-30T00:00	23850	28	-64.7		261	11	
2025-11-30T00:00	23900	27	-64.7		262	12	
2025-11-30T00:00	23950	27	-64.9		264	13	
2025-11-30T00:00	24000	27	-64.6		268	14	
2025-11-30T00:00	24050	27	-64.4		272	15	
2025-11-30T00:00	24100	27	-64.5		274	15	
2025-11-30T00:00	24150	26	-64.4		275	15	
2025-11-30T00:00	24200	26	-64.6		274	14	
2025-11-30T00:00	24250	26	-64.8		272	14	
2025-11-30T00:00	24300	26	-64.8		269	14	
2025-11-30T00:00	24350	25	-64.7		266	14	
2025-11-30T00:00	24400	25	-64.4		262	13	
2025-11-30T00:00	24450	25	-64.4		258	13	
2025-11-30T00:00	24500	25	-64.4		257	12	
2025-11-30T00:00	24550	25	-64.3		258	12	
2025-11-30T00:00	24600	24	-64.5		259	12	
2025-11-30T00:00	24650	24	-64.5		258	12	
2025-11-30T00:00	24700	24	-64.5		256	13	
2025-11-30T00:00	24750	24	-64.4		254	14	
2025-11-30T00:00	24800	24	-64.2		251	14	
2025-11-30T00:00	24850	23	-64.2		247	14	
2025-11-30T00:00	24900	23	-64.4		242	15	
2025-11-30T00:00	24950	23	-64.4		240	16	
2025-11-30T00:00	25000	23	-64.4		239	16	
2025-11-30T00:00	25050	23	-64.7		241	16	
2025-11-30T00:00	25100	23	-64.8		246	16	
2025-11-30T00:00	25150	22	-64.9		252	16	
2025-11-30T00:00	25200	22	-65.1		256	16	
2025-11-30T00:00	25250	22	-65.1		258	17	
2025-11-30T00:00	25300	22	-65.0		258	18	
2025-11-30T00:00	25350	22	-65.2		258	19	
2025-11-30T00:00	25400	21	-65.4		258	19	
2025-11-30T00:00	25450	21	-65.4		258	19	
2025-11-30T00:00	25500	21	-65.7		260	20	
2025-11-30T00:00	25550	21	-65.4		263	21	
2025-11-30T00:00	25600	21	-65.5		266	22	
2025-11-30T00:00	25650	21	-65.6		268	22	
2025-11-30T00:00	25700	20	-65.6		269	22	
2025-11-30T00:00	25750	20	-65.4		270	21	
2025-11-30T00:00	25800	20	-65.3		269	21	
2025-11-30T00:00	25850	20	-65.2		269	21	
2025-11-30T00:00	25900	20	-65.2		268	21	
2025-11-30T00:00	25950	20	-65.2		269	21	
2025-11-30T00:00	26000	19	-65.4		268	21	
2025-11-30T00:00	26050	19	-65.4		267	21	
2025-11-30T00:00	26100	19	-65.6		265	22	
2025-11-30T00:00	26150	19	-65.5		262	22	
2025-11-30T00:00	26200	19	-65.5		260	23	
2025-11-30T00:00	26250	19	-65.5		260	23	
2025-11-30T00:00	26300	19	-65.3		261	24	
2025-11-30T00:00	26350	18	-65.3		261	24	
2025-11-30T00:00	26400	18	-65.2		262	24	
2025-11-30T00:00	26450	18	-65.2		264	24	
2025-11-30T00:00	26500	18	-65.4		266	25	
2025-11-30T00:00	26550	18	-65.4		267	26	
2025-11-30T00:00	26600	18	-65.5		269	26	
2025-11-30T00:00	26650	17	-65.5		271	27	
2025-11-30T00:00	26700	17	-65.3		273	27	
2025-11-30T00:00	26750	17	-65.1		274	27	
2025-11-30T00:00	26800	17	-65.2		273	26	
2025-11-30T00:00	26850	17	-65.3		272	25	
2025-11-30T00:00	26900	17	-65.5		270	24	
2025-11-30T00:00	26950	17	-65.7		268	23	
2025-11-30T00:00	27000	16	-65.3		266	23	
2025-11-30T00:00	27050	16	-65.0		265	23	
2025-11-30T00:00	27100	16	-64.5		264	23	
2025-11-30T00:00	27150	16	-64.5		264	22	
2025-11-30T00:00	27200	16	-64.4		264	22	
2025-11-30T00:00	27250	16	-64.3		263	22	
2025-11-30T00:00	27300	16	-64.1		263	22	
2025-11-30T00:00	27350	16	-63.9		265	22	
2025-11-30T00:00	27400	15	-63.5		268	22	
2025-11-30T00:00	27450	15	-63.3		272	22	
2025-11-30T00:00	27500	15	-63.1		275	22	
2025-11-30T00:00	27550	15	-63.3		277	21	
2025-11-30T00:00	27600	15	-63.3		279	21	
2025-11-30T00:00	27650	15	-63.4		281	21	
2025-11-30T00:00	27700	15	-63.7		281	21	
2025-11-30T00:00	27750	15	-63.9		280	21	
2025-11-30T00:00	27800	14	-64.1		279	21	
2025-11-30T00:00	27850	14	-63.6		278	21	
2025-11-30T00:00	27900	14	-63.8		276	21	
2025-11-30T00:00	27950	14	-63.9		275	21	
2025-11-30T00:00	28000	14	-64.1		275	22	
2025-11-30T00:00	28050	14	-64.2		273	22	
2025-11-30T00:00	28100	14	-64.0		271	23	
2025-11-30T00:00	28150	14	-63.4		268	23	
2025-11-30T00:00	28200	14	-63.4		265	24	
2025-11-30T00:00	28250	13	-63.5		261	24	
2025-11-30T00:00	28300	13	-63.4		258	25	
2025-11-30T00:00	28350	13	-63.4		255	26	
2025-11-30T00:00	28400	13	-63.2		253	28	
2025-11-30T00:00	28450	13	-63.0		252	28	
2025-11-30T00:00	28500	13	-62.4		252	29	
2025-11-30T00:00	28550	13	-62.5		253	29	
2025-11-30T00:00	28600	13	-62.8		254	29	
2025-11-30T00:00	28650	13	-62.5		256	29	
2025-11-30T00:00	28700	13	-62.3		257	30	
2025-11-30T00:00	28750	12	-62.1		259	30	
2025-11-30T00:00	28800	12	-62.2		261	31	
2025-11-30T00:00	28850	12	-62.5		263	31	
2025-11-30T00:00	28900	12	-62.8		265	31	
2025-11-30T00:00	28950	12	-63.0		265	31	
2025-11-30T00:00	29000	12	-63.4		265	31	
2025-11-30T00:00	29050	12	-63.9		265	30	
2025-11-30T00:00	29100	12	-64.3		265	30	
2025-11-30T00:00	29150	12	-64.8		264	30	
2025-11-30T00:00	29200	12	-65.3		263	30	
2025-11-30T00:00	29250	11	-65.4		262	30	
2025-11-30T00:00	29300	11	-65.0		262	31	
2025-11-30T00:00	29350	11	-65.0		261	32	
2025-11-30T00:00	29400	11	-64.9		260	33	
2025-11-30T00:00	29450	11	-64.9		260	34	
2025-11-30T00:00	29500	11	-64.2		259	35	
2025-11-30T00:00	29550	11	-63.7		257	35	
2025-11-30T00:00	29600	11	-63.1		255	36	
2025-11-30T00:00	29650	11	-62.9		254	36	
2025-11-30T00:00	29700	11	-62.8		253	37	
2025-11-30T00:00	29750	11	-62.5		253	38	
2025-11-30T00:00	29800	10	-62.2		252	39	
2025-11-30T00:00	29850	10	-62.1		253	39	
2025-11-30T00:00	29900	10	-62.1		255	40	
2025-11-30T00:00	29950	10	-62.0		256	40	
2025-11-30T00:00	30000	10	-61.5		255	40	
2025-11-30T00:00	30050	10	-61.2		254	41	
2025-11-30T00:00	30100	10	-61.4		255	41	
2025-11-30T00:00	30150	10	-61.4		258	42	
2025-11-30T00:00	30200	10	-61.1		260	42	
2025-11-30T00:00	30250	10	-60.9		261	41	
2025-11-30T00:00	30300	10	-60.8		261	40	
2025-11-30T00:00	30350	10	-60.8		261	39	
2025-11-30T00:00	30400	9	-60.8		260	38	
2025-11-30T00:00	30450	9	-60.9		260	38	
2025-11-30T00:00	30500	9	-61.0		260	39	
2025-11-30T00:00	30550	9	-60.8		260	40	
2025-11-30T00:00	30600	9	-61.0		260	41	
2025-11-30T00:00	30650	9	-61.3		261	41	
2025-11-30T00:00	30700	9	-61.3		262	40	
2025-11-30T00:00	30750	9	-61.3		263	39	
2025-11-30T00:00	30800	9	-61.7		263	38	
2025-11-30T00:00	30850	9	-62.1		264	37	
2025-11-30T00:00	30900	9	-62.3		264	37	
2025-11-30T00:00	30950	9	-61.9		264	36	
2025-11-30T00:00	31000	9	-61.9		264	36	
2025-11-30T00:00	31050	9	-61.7		264	36	
2025-11-30T00:00	31100	8	-61.7		264	37	
2025-11-30T00:00	31150	8	-61.5		265	38	
2025-11-30T00:00	31200	8	-61.8		266	39	
2025-11-30T00:00	31250	8	-62.2		266	40	
2025-11-30T00:00	31300	8	-62.3		266	41	
2025-11-30T00:00	31350	8	-62.5		266	41	
2025-11-30T00:00	31400	8	-62.4		266	40	
2025-11-30T00:00	31450	8	-62.2		265	39	
2025-11-30T00:00	31500	8	-62.4		265	38	
2025-11-30T00:00	31550	8	-62.4		264	38	
2025-11-30T00:00	31600	8	-61.9		264	39	
2025-11-30T00:00	31650	8	-61.4		265	41	
2025-11-30T00:00	31700	8	-61.1		265	42	
2025-11-30T00:00	31750	8	-60.9		266	43	
2025-11-30T00:00	31800	8	-60.8		267	43	
2025-11-30T00:00	31850	8	-60.4		268	43	
2025-11-30T00:00	31900	7	-60.3		268	43	
2025-11-30T00:00	31950	7	-60.0		267	42	
2025-11-30T00:00	32000	7	-59.4		267	41	
2025-11-30T00:00	32050	7	-59.4		266	40	
2025-11-30T00:00	32100	7	-59.2		265	40	
2025-11-30T00:00	32150	7	-59.1		264	40	
2025-11-30T00:00	32200	7	-58.8		264	41	
2025-11-30T00:00	32250	7	-58.5		263	42	
2025-11-30T00:00	32300	7	-58.3		263	42	
2025-11-30T00:00	32350	7	-58.0		264	42	
2025-11-30T00:00	32400	7	-58.2		264	42	
2025-11-30T00:00	32450	7	-58.3		263	43	
2025-11-30T00:00	32500	7	-58.3		262	44	
2025-11-30T00:00	32550	7	-58.2		262	45	
2025-11-30T00:00	32600	7	-58.0		262	46	
2025-11-30T00:00	32650	7	-58.2		262	46	
2025-11-30T00:00	32700	7	-58.4		262	45	
2025-11-30T00:00	32750	6	-58.4		262	45	
2025-11-30T00:00	32800	6	-58.4		261	46	
2025-11-30T00:00	32850	6	-58.7		262	46	
2025-11-30T00:00	32900	6	-58.9		263	47	
2025-11-30T00:00	32950	6	-58.8		265	48	
2025-11-30T00:00	33000	6	-58.2		266	50	
2025-11-30T00:00	33050	6	-57.3		267	50	
2025-11-30T12:00	491	956	6.3	3.5	345	0	
2025-11-30T12:00	501	955	6.1	3.6	75	0	
2025-11-30T12:00	520	953	5.7	3.5	98	1	
2025-11-30T12:00	540	951	5.5	3.2	111	1	
2025-11-30T12:00	560	948	5.3	3.0	132	1	
2025-11-30T12:00	580	946	5.1	3.0	156	1	
2025-11-30T12:00	600	944	5.1	2.8	178	1	
2025-11-30T12:00	620	942	5.1	2.5	192	1	
2025-11-30T12:00	640	939	5.2	2.4	200	2	
2025-11-30T12:00	660	937	5.1	2.4	205	2	
2025-11-30T12:00	680	935	5.1	2.4	208	3	
2025-11-30T12:00	700	932	5.1	2.5	211	3	
2025-11-30T12:00	720	930	5.0	2.5	213	4	
2025-11-30T12:00	740	928	5.0	2.4	217	4	
2025-11-30T12:00	760	925	5.0	2.4	222	4	
2025-11-30T12:00	780	923	4.9	2.3	227	4	
2025-11-30T12:00	800	921	5.0	2.0	232	5	
2025-11-30T12:00	820	919	5.0	1.8	235	5	
2025-11-30T12:00	840	917	4.9	1.8	237	6	
2025-11-30T12:00	860	914	4.7	1.7	237	6	
2025-11-30T12:00	880	912	4.6	1.5	237	7	
2025-11-30T12:00	900	910	4.5	1.3	236	7	
2025-11-30T12:00	920	908	4.4	1.2	235	8	
2025-11-30T12:00	940	905	4.3	1.1	234	8	
2025-11-30T12:00	960	903	4.1	0.9	233	9	
2025-11-30T12:00	980	901	4.3	0.5	233	10	
2025-11-30T12:00	1000	899	4.2	0.4	232	11	
2025-11-30T12:00	1020	896	4.2	0.2	231	12	
2025-11-30T12:00	1040	894	4.1	0.0	230	13	
2025-11-30T12:00	1060	892	4.1	0.0	229	13	
2025-11-30T12:00	1080	890	4.3	0.3	228	14	
2025-11-30T12:00	1100	888	4.4	0.4	228	14	
2025-11-30T12:00	1120	886	4.4	0.3	227	15	
2025-11-30T12:00	1140	884	4.4	0.6	226	15	
2025-11-30T12:00	1160	881	4.3	0.7	226	15	
2025-11-30T12:00	1180	879	4.1	1.4	226	15	
2025-11-30T12:00	1200	877	4.0	2.0	226	15	
2025-11-30T12:00	1220	875	4.1	1.9	226	15	
2025-11-30T12:00	1240	872	4.0	1.8	227	15	
2025-11-30T12:00	1260	870	4.0	1.7	228	14	
2025-11-30T12:00	1280	869	3.9	1.6	228	14	
2025-11-30T12:00	1300	866	3.8	1.3	229	14	
2025-11-30T12:00	1320	864	3.7	1.2	230	13	
2025-11-30T12:00	1340	862	3.5	1.0	230	13	
2025-11-30T12:00	1360	860	3.4	0.6	231	12	
2025-11-30T12:00	1380	858	3.4	0.0	231	12	
2025-11-30T12:00	1400	855	3.2	-0.2	232	12	
2025-11-30T12:00	1420	853	3.1	-0.2	233	12	
2025-11-30T12:00	1440	851	2.9	-0.3	234	12	
2025-11-30T12:00	1460	849	2.7	-0.3	236	12	
2025-11-30T12:00	1480	847	2.5	-0.1	238	12	
2025-11-30T12:00	1500	845	2.3	0.0	239	12	
2025-11-30T12:00	1520	843	2.1	0.1	241	12	
2025-11-30T12:00	1540	841	2.0	0.4	242	12	
2025-11-30T12:00	1560	839	1.9	0.5	242	12	
2025-11-30T12:00	1580	837	1.7	0.4	242	12	
2025-11-30T12:00	1600	835	1.5	0.4	242	12	
2025-11-30T12:00	1620	833	1.4	0.3	241	12	
2025-11-30T12:00	1640	831	1.2	0.3	240	12	
2025-11-30T12:00	1660	829	1.1	0.2	238	12	
2025-11-30T12:00	1680	826	0.9	0.2	236	12	
2025-11-30T12:00	1700	824	0.7	0.1	235	12	
2025-11-30T12:00	1720	822	0.7	-0.4	233	12	
2025-11-30T12:00	1740	820	0.5	-0.5	232	12	
2025-11-30T12:00	1760	818	0.3	-0.8	231	13	
2025-11-30T12:00	1780	816	0.3	-1.4	230	13	
2025-11-30T12:00	1800	814	0.2	-1.6	230	13	
2025-11-30T12:00	1820	812	0.1	-1.5	229	14	
2025-11-30T12:00	1840	810	0.0	-1.2	229	14	
2025-11-30T12:00	1860	808	-0.1	-1.2	229	14	
2025-11-30T12:00	1880	806	-0.2	-1.2	229	15	
2025-11-30T12:00	1900	804	-0.2	-1.3	230	15	
2025-11-30T12:00	1920	802	-0.3	-1.3	230	16	
2025-11-30T12:00	1940	800	-0.5	-1.3	231	16	
2025-11-30T12:00	1960	798	-0.7	-1.2	232	16	
2025-11-30T12:00	1980	796	-0.9	-1.2	232	17	
2025-11-30T12:00	2000	794	-1.0	-1.2	233	17	
2025-11-30T12:00	2020	792	-1.1	-1.3	233	17	
2025-11-30T12:00	2040	790	-1.3	-1.6	233	17	
2025-11-30T12:00	2060	788	-1.4	-1.9	233	17	
2025-11-30T12:00	2080	786	-1.6	-2.6	232	18	
2025-11-30T12:00	2100	784	-1.7	-3.0	232	18	
2025-11-30T12:00	2120	782	-1.8	-3.0	232	18	
2025-11-30T12:00	2140	780	-1.9	-3.4	232	18	
2025-11-30T12:00	2160	778	-2.0	-3.7	231	18	
2025-11-30T12:00	2180	776	-2.2	-3.8	231	18	
2025-11-30T12:00	2200	775	-2.3	-3.9	231	18	
2025-11-30T12:00	2220	773	-2.4	-4.1	230	18	
2025-11-30T12:00	2240	770	-2.5	-4.4	230	18	
2025-11-30T12:00	2260	769	-2.6	-4.5	229	18	
2025-11-30T12:00	2280	767	-2.8	-4.4	229	17	
2025-11-30T12:00	2300	765	-2.9	-4.5	228	17	
2025-11-30T12:00	2320	763	-3.0	-4.9	227	17	
2025-11-30T12:00	2340	761	-3.0	-5.4	227	17	
2025-11-30T12:00	2360	759	-3.0	-5.7	226	17	
2025-11-30T12:00	2380	757	-3.1	-5.2	226	17	
2025-11-30T12:00	2400	755	-3.2	-5.0	225	18	
2025-11-30T12:00	2420	753	-3.3	-4.8	224	18	
2025-11-30T12:00	2440	751	-3.3	-4.5	224	18	
2025-11-30T12:00	2460	749	-3.3	-4.4	223	18	
2025-11-30T12:00	2480	747	-3.4	-4.5	222	19	
2025-11-30T12:00	2500	746	-3.4	-4.4	221	19	
2025-11-30T12:00	2520	744	-3.4	-4.6	221	19	
2025-11-30T12:00	2540	742	-3.3	-5.2	220	19	
2025-11-30T12:00	2560	740	-3.3	-5.6	219	19	
2025-11-30T12:00	2580	738	-3.4	-6.0	218	19	
2025-11-30T12:00	2600	736	-3.5	-6.2	217	18	
2025-11-30T12:00	2620	735	-3.6	-6.4	216	18	
2025-11-30T12:00	2640	733	-3.6	-6.8	215	18	
2025-11-30T12:00	2660	731	-3.7	-7.0	214	18	
2025-11-30T12:00	2680	729	-3.9	-7.2	213	18	
2025-11-30T12:00	2700	727	-4.0	-7.4	213	18	
2025-11-30T12:00	2720	725	-4.1	-7.8	212	18	
2025-11-30T12:00	2740	724	-4.2	-7.7	212	18	
2025-11-30T12:00	2760	722	-4.3	-7.7	211	17	
2025-11-30T12:00	2780	720	-4.5	-8.0	211	18	
2025-11-30T12:00	2800	718	-4.6	-8.5	211	18	
2025-11-30T12:00	2820	716	-4.7	-8.7	210	18	
2025-11-30T12:00	2840	714	-4.9	-9.1	210	17	
2025-11-30T12:00	2860	712	-5.1	-9.3	211	17	
2025-11-30T12:00	2880	711	-5.2	-9.5	211	17	
2025-11-30T12:00	2900	709	-5.4	-9.5	212	17	
2025-11-30T12:00	2920	707	-5.6	-9.5	212	17	
2025-11-30T12:00	2940	705	-5.8	-9.7	212	17	
2025-11-30T12:00	2960	703	-5.9	-10.0	211	18	
2025-11-30T12:00	2980	702	-6.1	-10.3	211	18	
2025-11-30T12:00	3000	700	-6.2	-11.0	210	18	
2025-11-30T12:00	3020	698	-6.2	-11.9	210	18	
2025-11-30T12:00	3040	696	-6.3	-12.2	211	18	
2025-11-30T12:00	3060	694	-6.5	-12.2	212	18	
2025-11-30T12:00	3080	693	-6.7	-12.3	213	18	
2025-11-30T12:00	3100	691	-6.9	-12.5	214	17	
2025-11-30T12:00	3120	689	-6.9	-13.1	216	17	
2025-11-30T12:00	3140	687	-6.9	-14.0	217	17	
2025-11-30T12:00	3160	686	-7.0	-14.4	219	17	
2025-11-30T12:00	3180	684	-7.1	-15.1	220	17	
2025-11-30T12:00	3200	682	-7.3	-14.8	222	16	
2025-11-30T12:00	3220	680	-7.5	-14.7	223	16	
2025-11-30T12:00	3240	679	-7.5	-14.7	225	16	
2025-11-30T12:00	3260	677	-7.7	-14.6	226	16	
2025-11-30T12:00	3280	675	-7.9	-14.0	227	16	
2025-11-30T12:00	3300	673	-8.0	-13.7	227	15	
2025-11-30T12:00	3320	671	-8.2	-13.7	228	15	
2025-11-30T12:00	3340	670	-8.4	-13.6	228	15	
2025-11-30T12:00	3360	668	-8.6	-13.6	228	15	
2025-11-30T12:00	3380	666	-8.7	-13.6	228	15	
2025-11-30T12:00	3400	665	-8.9	-13.6	227	15	
2025-11-30T12:00	3420	663	-9.1	-13.8	226	15	
2025-11-30T12:00	3440	661	-9.3	-14.1	226	15	
2025-11-30T12:00	3460	659	-9.4	-14.6	225	15	
2025-11-30T12:00	3480	658	-9.5	-16.3	224	15	
2025-11-30T12:00	3500	656	-9.5	-17.4	223	14	
2025-11-30T12:00	3520	655	-9.4	-17.8	222	14	
2025-11-30T12:00	3540	653	-9.4	-18.3	222	14	
2025-11-30T12:00	3560	651	-9.5	-18.3	222	13	
2025-11-30T12:00	3580	650	-9.6	-17.0	222	13	
2025-11-30T12:00	3600	648	-9.7	-16.4	223	13	
2025-11-30T12:00	3620	646	-9.9	-16.1	224	12	
2025-11-30T12:00	3640	644	-10.1	-15.8	225	12	
2025-11-30T12:00	3660	643	-10.2	-15.3	226	12	
2025-11-30T12:00	3680	641	-10.4	-14.7	227	12	
2025-11-30T12:00	3700	640	-10.6	-14.6	228	12	
2025-11-30T12:00	3720	638	-10.8	-14.3	228	12	
2025-11-30T12:00	3740	636	-11.0	-14.1	229	12	
2025-11-30T12:00	3760	635	-11.2	-14.0	230	12	
2025-11-30T12:00	3780	633	-11.4	-13.9	231	11	
2025-11-30T12:00	3800	631	-11.6	-13.7	231	11	
2025-11-30T12:00	3820	630	-11.7	-13.6	231	10	
2025-11-30T12:00	3840	628	-11.9	-13.7	231	10	
2025-11-30T12:00	3860	626	-12.1	-13.7	231	10	
2025-11-30T12:00	3880	625	-12.3	-13.7	232	10	
2025-11-30T12:00	3900	623	-12.5	-13.7	233	9	
2025-11-30T12:00	3920	621	-12.7	-13.7	234	9	
2025-11-30T12:00	3940	620	-12.9	-13.7	234	9	
2025-11-30T12:00	3960	618	-13.0	-13.5	235	9	
2025-11-30T12:00	3980	617	-13.1	-13.6	235	9	
2025-11-30T12:00	4000	615	-13.2	-13.7	235	9	
2025-11-30T12:00	4020	613	-13.4	-13.8	235	9	
2025-11-30T12:00	4040	612	-13.6	-13.8	235	9	
2025-11-30T12:00	4060	610	-13.7	-13.9	234	10	
2025-11-30T12:00	4080	608	-13.8	-13.9	235	10	
2025-11-30T12:00	4100	607	-14.0	-14.1	235	10	
2025-11-30T12:00	4120	605	-14.2	-14.2	235	10	
2025-11-30T12:00	4140	604	-14.3	-14.6	235	10	
2025-11-30T12:00	4160	602	-14.3	-15.2	234	10	
2025-11-30T12:00	4180	600	-14.4	-15.6	234	10	
2025-11-30T12:00	4200	599	-14.5	-15.7	233	11	
2025-11-30T12:00	4220	597	-14.7	-15.8	233	11	
2025-11-30T12:00	4240	596	-14.8	-15.9	233	11	
2025-11-30T12:00	4260	594	-15.0	-15.9	233	11	
2025-11-30T12:00	4280	592	-15.2	-16.0	233	11	
2025-11-30T12:00	4300	591	-15.3	-16.2	233	11	
2025-11-30T12:00	4320	590	-15.4	-16.3	233	11	
2025-11-30T12:00	4340	588	-15.5	-16.4	233	11	
2025-11-30T12:00	4360	586	-15.7	-16.6	232	11	
2025-11-30T12:00	4380	585	-15.8	-16.7	231	11	
2025-11-30T12:00	4400	583	-16.0	-16.7	230	11	
2025-11-30T12:00	4420	582	-16.2	-16.5	230	11	
2025-11-30T12:00	4440	580	-16.3	-16.6	230	12	
2025-11-30T12:00	4460	579	-16.4	-16.9	230	12	
2025-11-30T12:00	4480	577	-16.5	-17.6	230	13	
2025-11-30T12:00	4500	575	-16.6	-18.1	231	13	
2025-11-30T12:00	4520	574	-16.7	-18.4	231	13	
2025-11-30T12:00	4540	572	-16.9	-18.4	232	14	
2025-11-30T12:00	4560	571	-17.1	-18.3	233	14	
2025-11-30T12:00	4580	570	-17.3	-18.3	234	14	
2025-11-30T12:00	4600	568	-17.4	-19.2	234	14	
2025-11-30T12:00	4620	566	-17.5	-20.2	236	14	
2025-11-30T12:00	4640	565	-17.7	-21.1	237	14	
2025-11-30T12:00	4660	563	-17.8	-21.4	238	14	
2025-11-30T12:00	4680	562	-17.9	-22.2	239	14	
2025-11-30T12:00	4700	560	-18.1	-22.8	241	14	
2025-11-30T12:00	4720	559	-18.3	-23.1	242	14	
2025-11-30T12:00	4740	557	-18.4	-23.3	242	14	
2025-11-30T12:00	4760	556	-18.6	-23.6	242	14	
2025-11-30T12:00	4780	554	-18.8	-24.0	242	13	
2025-11-30T12:00	4800	553	-18.9	-24.3	242	13	
2025-11-30T12:00	4820	552	-19.1	-24.3	242	14	
2025-11-30T12:00	4840	550	-19.3	-24.1	242	14	
2025-11-30T12:00	4860	549	-19.4	-24.1	242	14	
2025-11-30T12:00	4880	547	-19.6	-24.0	242	14	
2025-11-30T12:00	4900	545	-19.8	-23.8	242	14	
2025-11-30T12:00	4920	544	-19.9	-24.6	243	14	
2025-11-30T12:00	4940	543	-20.1	-24.9	243	14	
2025-11-30T12:00	4960	541	-20.2	-25.1	243	14	
2025-11-30T12:00	4980	540	-20.4	-24.3	242	13	
2025-11-30T12:00	5000	538	-20.6	-23.9	241	13	
2025-11-30T12:00	5020	537	-20.7	-23.3	239	13	
2025-11-30T12:00	5040	535	-20.9	-22.4	237	13	
2025-11-30T12:00	5060	534	-20.9	-21.3	236	13	
2025-11-30T12:00	5080	532	-20.9	-21.2	234	13	
2025-11-30T12:00	5100	531	-21.0	-21.4	233	13	
2025-11-30T12:00	5120	529	-21.1	-21.5	233	13	
2025-11-30T12:00	5140	528	-21.2	-21.9	233	13	
2025-11-30T12:00	5160	527	-21.3	-22.1	234	13	
2025-11-30T12:00	5180	525	-21.5	-22.3	234	13	
2025-11-30T12:00	5200	524	-21.6	-22.4	235	13	
2025-11-30T12:00	5220	522	-21.8	-22.4	235	13	
2025-11-30T12:00	5240	521	-22.0	-22.4	235	13	
2025-11-30T12:00	5260	520	-22.2	-22.5	234	13	
2025-11-30T12:00	5280	518	-22.4	-22.6	235	13	
2025-11-30T12:00	5300	517	-22.6	-23.0	235	13	
2025-11-30T12:00	5320	515	-22.2	-27.8	236	13	
2025-11-30T12:00	5340	514	-21.8	-27.8	237	14	
2025-11-30T12:00	5360	513	-21.9	-24.7	238	14	
2025-11-30T12:00	5380	511	-22.0	-23.0	239	14	
2025-11-30T12:00	5400	510	-22.1	-23.1	239	14	
2025-11-30T12:00	5420	508	-22.3	-23.2	240	15	
2025-11-30T12:00	5440	507	-22.5	-23.2	240	15	
2025-11-30T12:00	5460	506	-22.7	-23.2	240	15	
2025-11-30T12:00	5480	504	-22.9	-23.3	240	15	
2025-11-30T12:00	5500	503	-23.0	-23.5	239	15	
2025-11-30T12:00	5520	501	-23.0	-23.9	238	15	
2025-11-30T12:00	5540	500	-23.2	-24.0	238	15	
2025-11-30T12:00	5560	499	-23.3	-24.1	238	15	
2025-11-30T12:00	5580	497	-23.5	-24.2	237	15	
2025-11-30T12:00	5600	496	-23.7	-24.4	237	15	
2025-11-30T12:00	5620	495	-23.9	-24.6	237	15	
2025-11-30T12:00	5640	493	-24.0	-24.8	237	15	
2025-11-30T12:00	5660	492	-24.2	-24.9	237	15	
2025-11-30T12:00	5680	491	-24.3	-25.1	236	15	
2025-11-30T12:00	5700	489	-24.5	-25.6	236	15	
2025-11-30T12:00	5720	488	-24.6	-25.6	236	15	
2025-11-30T12:00	5740	486	-24.8	-25.6	237	16	
2025-11-30T12:00	5760	485	-25.0	-25.6	237	16	
2025-11-30T12:00	5780	484	-25.1	-26.0	238	16	
2025-11-30T12:00	5800	483	-25.3	-26.6	238	16	
2025-11-30T12:00	5820	481	-25.4	-26.6	239	16	
2025-11-30T12:00	5840	480	-25.6	-26.5	239	17	
2025-11-30T12:00	5860	479	-25.7	-27.0	239	17	
2025-11-30T12:00	5880	477	-25.8	-28.7	238	17	
2025-11-30T12:00	5900	476	-26.0	-28.5	237	17	
2025-11-30T12:00	5920	475	-26.1	-30.1	236	17	
2025-11-30T12:00	5940	473	-26.3	-30.6	235	17	
2025-11-30T12:00	5960	472	-26.5	-30.5	235	17	
2025-11-30T12:00	5980	471	-26.7	-30.8	235	16	
2025-11-30T12:00	6000	469	-26.8	-30.5	236	16	
2025-11-30T12:00	6020	468	-27.0	-31.3	236	15	
2025-11-30T12:00	6040	467	-27.2	-31.4	237	15	
2025-11-30T12:00	6060	466	-27.3	-31.0	237	14	
2025-11-30T12:00	6080	464	-27.4	-30.5	236	14	
2025-11-30T12:00	6100	463	-27.6	-30.6	236	14	
2025-11-30T12:00	6120	462	-27.7	-30.5	235	14	
2025-11-30T12:00	6140	460	-27.8	-30.4	235	14	
2025-11-30T12:00	6160	459	-28.0	-30.6	234	15	
2025-11-30T12:00	6180	458	-28.2	-30.7	234	15	
2025-11-30T12:00	6200	456	-28.3	-31.1	234	15	
2025-11-30T12:00	6220	455	-28.5	-31.0	234	15	
2025-11-30T12:00	6240	454	-28.7	-31.3	234	15	
2025-11-30T12:00	6260	453	-28.8	-31.3	234	16	
2025-11-30T12:00	6280	452	-29.0	-31.5	233	16	
2025-11-30T12:00	6300	450	-29.1	-31.7	232	16	
2025-11-30T12:00	6320	449	-29.3	-31.7	230	16	
2025-11-30T12:00	6340	448	-29.4	-31.6	229	16	
2025-11-30T12:00	6360	446	-29.6	-31.8	228	16	
2025-11-30T12:00	6380	445	-29.7	-31.8	228	16	
2025-11-30T12:00	6400	444	-29.8	-32.0	229	16	
2025-11-30T12:00	6420	443	-29.9	-32.2	231	16	
2025-11-30T12:00	6440	441	-30.1	-32.1	232	16	
2025-11-30T12:00	6460	440	-30.2	-32.1	234	16	
2025-11-30T12:00	6480	439	-30.4	-32.5	234	16	
2025-11-30T12:00	6500	438	-30.6	-32.5	234	16	
2025-11-30T12:00	6520	437	-30.7	-32.6	233	15	
2025-11-30T12:00	6540	435	-30.9	-32.7	232	15	
2025-11-30T12:00	6560	434	-31.0	-33.0	230	16	
2025-11-30T12:00	6580	433	-31.2	-33.2	229	16	
2025-11-30T12:00	6600	432	-31.4	-33.4	228	16	
2025-11-30T12:00	6620	430	-31.5	-33.5	228	17	
2025-11-30T12:00	6640	429	-31.7	-33.9	228	17	
2025-11-30T12:00	6660	428	-31.8	-34.1	228	17	
2025-11-30T12:00	6680	427	-32.0	-34.1	228	18	
2025-11-30T12:00	6700	426	-32.1	-34.3	228	18	
2025-11-30T12:00	6720	424	-32.3	-34.4	228	18	
2025-11-30T12:00	6740	423	-32.5	-34.6	228	18	
2025-11-30T12:00	6760	422	-32.7	-34.9	228	18	
2025-11-30T12:00	6780	421	-32.8	-35.0	228	18	
2025-11-30T12:00	6800	420	-33.0	-35.2	228	18	
2025-11-30T12:00	6820	418	-33.2	-35.4	228	18	
2025-11-30T12:00	6840	417	-33.4	-35.3	228	18	
2025-11-30T12:00	6860	416	-33.5	-35.6	228	18	
2025-11-30T12:00	6880	415	-33.7	-35.8	228	18	
2025-11-30T12:00	6900	414	-33.9	-36.0	228	18	
2025-11-30T12:00	6920	412	-34.0	-36.0	228	18	
2025-11-30T12:00	6940	411	-34.2	-36.3	229	18	
2025-11-30T12:00	6960	410	-34.4	-36.3	229	18	
2025-11-30T12:00	6980	409	-34.5	-36.5	230	18	
2025-11-30T12:00	7000	408	-34.7	-36.5	230	18	
2025-11-30T12:00	7020	407	-34.9	-36.8	230	18	
2025-11-30T12:00	7040	405	-35.1	-37.1	231	18	
2025-11-30T12:00	7060	404	-35.1	-37.2	231	18	
2025-11-30T12:00	7080	403	-35.3	-37.3	231	18	
2025-11-30T12:00	7100	402	-35.5	-37.5	231	18	
2025-11-30T12:00	7120	401	-35.6	-37.8	231	17	
2025-11-30T12:00	7140	400	-35.8	-38.1	231	17	
2025-11-30T12:00	7160	399	-35.9	-38.5	231	17	
2025-11-30T12:00	7180	397	-36.1	-38.6	231	17	
2025-11-30T12:00	7200	396	-36.2	-38.7	230	17	
2025-11-30T12:00	7220	395	-36.4	-39.0	229	17	
2025-11-30T12:00	7240	394	-36.6	-39.2	228	16	
2025-11-30T12:00	7260	393	-36.7	-39.5	228	16	
2025-11-30T12:00	7280	392	-36.9	-39.7	227	17	
2025-11-30T12:00	7300	391	-37.0	-39.9	226	17	
2025-11-30T12:00	7320	389	-37.1	-40.0	226	18	
2025-11-30T12:00	7340	388	-37.3	-40.1	226	18	
2025-11-30T12:00	7360	387	-37.5	-40.4	225	19	
2025-11-30T12:00	7380	386	-37.6	-40.7	225	19	
2025-11-30T12:00	7400	385	-37.8	-41.1	225	19	
2025-11-30T12:00	7420	384	-37.9	-41.3	225	19	
2025-11-30T12:00	7440	383	-38.0	-41.5	225	19	
2025-11-30T12:00	7460	382	-38.2	-41.4	225	19	
2025-11-30T12:00	7480	381	-38.3	-41.4	225	19	
2025-11-30T12:00	7500	379	-38.5	-41.8	225	18	
2025-11-30T12:00	7520	378	-38.6	-42.2	224	18	
2025-11-30T12:00	7540	377	-38.8	-42.3	224	18	
2025-11-30T12:00	7560	376	-39.0	-42.3	223	18	
2025-11-30T12:00	7580	375	-39.2	-42.5	222	18	
2025-11-30T12:00	7600	374	-39.3	-42.9	221	18	
2025-11-30T12:00	7620	373	-39.5	-42.8	220	18	
2025-11-30T12:00	7640	372	-39.6	-43.0	220	19	
2025-11-30T12:00	7660	371	-39.8	-43.0	219	19	
2025-11-30T12:00	7680	369	-39.9	-43.2	219	19	
2025-11-30T12:00	7700	368	-40.1	-43.6	219	19	
2025-11-30T12:00	7720	367	-40.2	-43.8	219	19	
2025-11-30T12:00	7740	366	-40.4	-43.8	219	19	
2025-11-30T12:00	7760	365	-40.6	-44.1	220	19	
2025-11-30T12:00	7780	364	-40.8	-44.4	220	19	
2025-11-30T12:00	7800	363	-41.0	-44.6	221	19	
2025-11-30T12:00	7820	362	-41.1	-44.8	221	19	
2025-11-30T12:00	7840	361	-41.3	-44.9	222	19	
2025-11-30T12:00	7860	360	-41.5	-44.9	223	19	
2025-11-30T12:00	7880	359	-41.7	-45.2	223	19	
2025-11-30T12:00	7900	358	-41.8	-45.6	224	20	
2025-11-30T12:00	7920	357	-42.0	-45.8	224	20	
2025-11-30T12:00	7940	356	-42.2	-45.7	225	20	
2025-11-30T12:00	7960	355	-42.3	-45.9	225	21	
2025-11-30T12:00	7980	354	-42.4	-46.2	225	21	
2025-11-30T12:00	8000	352	-42.6	-46.3	226	21	
2025-11-30T12:00	8020	351	-42.7	-46.5	226	21	
2025-11-30T12:00	8040	350	-42.9	-46.5	226	21	
2025-11-30T12:00	8060	349	-43.1	-46.5	225	21	
2025-11-30T12:00	8080	348	-43.3	-46.8	225	21	
2025-11-30T12:00	8100	347	-43.5	-47.0	225	21	
2025-11-30T12:00	8120	346	-43.7	-47.2	225	21	
2025-11-30T12:00	8140	345	-43.8	-47.2	224	21	
2025-11-30T12:00	8160	344	-44.0	-47.3	224	21	
2025-11-30T12:00	8180	343	-44.2	-47.6	224	21	
2025-11-30T12:00	8200	342	-44.3	-48.2	224	21	
2025-11-30T12:00	8220	341	-44.5	-48.7	225	21	
2025-11-30T12:00	8240	340	-44.7	-48.9	225	21	
2025-11-30T12:00	8260	339	-44.8	-49.0	226	21	
2025-11-30T12:00	8280	338	-45.0	-49.0	226	20	
2025-11-30T12:00	8300	337	-45.2	-49.1	226	20	
2025-11-30T12:00	8320	336	-45.3	-49.3	226	20	
2025-11-30T12:00	8340	335	-45.5	-49.6	226	20	
2025-11-30T12:00	8360	334	-45.6	-49.8	225	20	
2025-11-30T12:00	8380	333	-45.8	-50.0	225	20	
2025-11-30T12:00	8400	332	-46.0	-50.4	224	20	
2025-11-30T12:00	8420	331	-46.2	-50.5	223	20	
2025-11-30T12:00	8440	330	-46.3	-50.6	223	20	
2025-11-30T12:00	8460	329	-46.5	-50.8	223	20	
2025-11-30T12:00	8480	328	-46.7	-51.1	224	20	
2025-11-30T12:00	8500	327	-46.9	-51.4	224	20	
2025-11-30T12:00	8520	326	-47.0	-51.7	225	20	
2025-11-30T12:00	8540	325	-47.2	-51.8	226	20	
2025-11-30T12:00	8560	324	-47.4	-51.8	227	20	
2025-11-30T12:00	8580	323	-47.6	-52.0	228	20	
2025-11-30T12:00	8600	322	-47.8	-52.1	229	20	
2025-11-30T12:00	8620	321	-48.0	-52.4	230	20	
2025-11-30T12:00	8640	320	-48.2	-52.8	230	20	
2025-11-30T12:00	8660	319	-48.3	-53.2	231	20	
2025-11-30T12:00	8680	318	-48.5	-53.4	231	20	
2025-11-30T12:00	8700	317	-48.7	-53.5	231	20	
2025-11-30T12:00	8720	316	-48.9	-53.6	231	21	
2025-11-30T12:00	8740	315	-49.1	-53.6	230	21	
2025-11-30T12:00	8760	314	-49.2	-53.6	230	21	
2025-11-30T12:00	8780	314	-49.4	-53.8	229	21	
2025-11-30T12:00	8800	313	-49.6	-54.0	228	21	
2025-11-30T12:00	8820	312	-49.8	-54.2	227	21	
2025-11-30T12:00	8840	311	-50.0	-54.4	226	21	
2025-11-30T12:00	8860	310	-50.1	-54.5	225	21	
2025-11-30T12:00	8880	309	-50.4	-54.6	225	21	
2025-11-30T12:00	8900	308	-50.5	-54.8	225	21	
2025-11-30T12:00	8920	307	-50.7	-55.1	225	21	
2025-11-30T12:00	8940	306	-50.9	-55.4	225	21	
2025-11-30T12:00	8960	305	-51.1	-55.4	225	21	
2025-11-30T12:00	8980	304	-51.2	-55.5	226	21	
2025-11-30T12:00	9000	303	-51.4	-55.7	227	21	
2025-11-30T12:00	9020	302	-51.6	-56.0	227	21	
2025-11-30T12:00	9040	301	-51.8	-56.2	228	21	
2025-11-30T12:00	9060	300	-52.0	-56.4	228	21	
2025-11-30T12:00	9080	299	-52.2	-56.6	229	21	
2025-11-30T12:00	9100	298	-52.4	-56.9	229	22	
2025-11-30T12:00	9120	298	-52.5	-57.1	229	22	
2025-11-30T12:00	9140	297	-52.7	-57.1	229	22	
2025-11-30T12:00	9160	296	-52.9	-57.1	228	22	
2025-11-30T12:00	9180	295	-53.0	-57.2	228	22	
2025-11-30T12:00	9200	294	-53.2	-57.4	228	22	
2025-11-30T12:00	9220	293	-53.4	-57.7	227	21	
2025-11-30T12:00	9240	292	-53.5	-58.0	227	21	
2025-11-30T12:00	9260	291	-53.7	-58.3	226	21	
2025-11-30T12:00	9280	290	-53.8	-58.5	226	21	
2025-11-30T12:00	9300	289	-54.0	-58.7	226	21	
2025-11-30T12:00	9320	288	-54.2	-58.9	225	21	
2025-11-30T12:00	9340	288	-54.4	-59.1	224	21	
2025-11-30T12:00	9360	287	-54.5	-59.2	224	21	
2025-11-30T12:00	9380	286	-54.7	-59.4	224	21	
2025-11-30T12:00	9400	285	-54.9	-59.4	224	21	
2025-11-30T12:00	9420	284	-55.1	-59.5	224	22	
2025-11-30T12:00	9440	283	-55.3	-59.5	225	22	
2025-11-30T12:00	9460	282	-55.4	-59.5	225	22	
2025-11-30T12:00	9480	281	-55.6	-59.6	226	22	
2025-11-30T12:00	9500	280	-55.7	-59.6	227	22	
2025-11-30T12:00	9520	280	-55.9	-59.8	228	22	
2025-11-30T12:00	9540	279	-56.0	-60.0	228	22	
2025-11-30T12:00	9560	278	-56.2	-60.2	229	22	
2025-11-30T12:00	9580	277	-56.4	-60.5	230	23	
2025-11-30T12:00	9600	276	-56.5	-60.8	230	23	
2025-11-30T12:00	9620	275	-56.7	-61.1	230	23	
2025-11-30T12:00	9640	274	-56.9	-61.4	231	24	
2025-11-30T12:00	9660	273	-57.1	-61.6	231	24	
2025-11-30T12:00	9680	273	-57.3	-61.7	231	24	
2025-11-30T12:00	9700	272	-57.4	-61.8	230	24	
2025-11-30T12:00	9720	271	-57.6	-62.0	230	23	
2025-11-30T12:00	9740	270	-57.7	-62.2	229	23	
2025-11-30T12:00	9760	269	-57.9	-62.2	229	23	
2025-11-30T12:00	9780	268	-58.1	-62.3	229	23	
2025-11-30T12:00	9800	267	-58.2	-62.5	229	23	
2025-11-30T12:00	9820	267	-58.3	-62.7	230	23	
2025-11-30T12:00	9840	266	-58.5	-63.0	230	24	
2025-11-30T12:00	9860	265	-58.6	-63.2	230	24	
2025-11-30T12:00	9880	264	-58.8	-63.3	230	24	
2025-11-30T12:00	9900	263	-58.9	-63.5	231	24	
2025-11-30T12:00	9920	262	-59.0	-63.7	231	24	
2025-11-30T12:00	9940	262	-59.2	-63.8	231	23	
2025-11-30T12:00	9960	261	-59.3	-63.8	232	23	
2025-11-30T12:00	9980	260	-59.3	-63.7	233	23	
2025-11-30T12:00	10000	259	-59.3	-63.6	234	23	
2025-11-30T12:00	10018	258	-59.5	-63.4	236	23	
2025-11-30T12:00	10050	257	-59.8	-62.9	237	23	
2025-11-30T12:00	10100	255	-60.1	-62.4	237	22	
2025-11-30T12:00	10150	253	-60.4	-62.4	235	21	
2025-11-30T12:00	10200	251	-60.5	-63.8	231	20	
2025-11-30T12:00	10250	249	-60.5	-66.7	229	20	
2025-11-30T12:00	10300	247	-60.3	-69.3	228	20	
2025-11-30T12:00	10350	245	-60.4	-70.4	230	21	
2025-11-30T12:00	10400	243	-59.9	-70.3	230	22	
2025-11-30T12:00	10450	241	-59.4	-71.5	230	22	
2025-11-30T12:00	10500	239	-59.5	-72.5	230	22	
2025-11-30T12:00	10550	237	-59.7	-72.1	232	22	
2025-11-30T12:00	10600	235	-59.6	-71.7	236	22	
2025-11-30T12:00	10650	233	-59.5	-71.3	239	22	
2025-11-30T12:00	10700	231	-59.7	-71.2	241	22	
2025-11-30T12:00	10750	230	-59.5	-71.6	239	22	
2025-11-30T12:00	10800	228	-59.5	-71.9	235	22	
2025-11-30T12:00	10850	226	-59.6	-72.2	234	22	
2025-11-30T12:00	10900	224	-59.4	-73.1	236	22	
2025-11-30T12:00	10950	222	-58.8	-74.4	239	22	
2025-11-30T12:00	11000	221	-58.6	-75.6	241	21	
2025-11-30T12:00	11050	219	-58.2	-76.1	243	21	
2025-11-30T12:00	11100	217	-58.0	-76.8	246	20	
2025-11-30T12:00	11150	216	-57.5	-76.7	249	20	
2025-11-30T12:00	11200	214	-57.6	-76.9	252	19	
2025-11-30T12:00	11250	212	-57.7	-76.8	251	19	
2025-11-30T12:00	11300	210	-57.0	-76.9	250	19	
2025-11-30T12:00	11350	209	-56.9	-77.3	251	19	
2025-11-30T12:00	11400	207	-56.9	-77.3	254	19	
2025-11-30T12:00	11450	206	-56.7	-77.2	258	18	
2025-11-30T12:00	11500	204	-56.7	-78.0	261	17	
2025-11-30T12:00	11550	202	-56.6	-79.1	262	17	
2025-11-30T12:00	11600	201	-56.7	-79.8	262	16	
2025-11-30T12:00	11650	199	-56.5	-79.5	260	16	
2025-11-30T12:00	11700	198	-56.6	-79.5	259	15	
2025-11-30T12:00	11750	196	-56.5	-79.9	259	15	
2025-11-30T12:00	11800	194	-56.8	-80.3	259	14	
2025-11-30T12:00	11850	193	-56.9	-80.3	258	14	
2025-11-30T12:00	11900	191	-56.7	-80.4	254	14	
2025-11-30T12:00	11950	190	-56.5	-80.3	250	14	
2025-11-30T12:00	12000	188	-56.6	-80.1	248	15	
2025-11-30T12:00	12050	187	-56.6	-79.9	250	15	
2025-11-30T12:00	12100	185	-56.7	-80.1	253	14	
2025-11-30T12:00	12150	184	-56.9	-80.6	256	14	
2025-11-30T12:00	12200	183	-57.1	-80.8	259	13	
2025-11-30T12:00	12250	181	-57.0	-80.8	260	13	
2025-11-30T12:00	12300	180	-56.8	-80.8	261	12	
2025-11-30T12:00	12350	178	-56.9	-80.8	260	11	
2025-11-30T12:00	12400	177	-57.1	-81.0	258	11	
2025-11-30T12:00	12450	176	-57.3	-81.0	253	11	
2025-11-30T12:00	12500	174	-57.3	-81.1	248	12	
2025-11-30T12:00	12550	173	-57.3	-81.2	246	12	
2025-11-30T12:00	12600	171	-57.4	-81.2	246	12	
2025-11-30T12:00	12650	170	-57.6	-81.3	245	12	
2025-11-30T12:00	12700	169	-57.7	-81.4	245	13	
2025-11-30T12:00	12750	167	-57.7	-81.4	244	15	
2025-11-30T12:00	12800	166	-57.9	-81.3	245	15	
2025-11-30T12:00	12850	165	-57.8	-81.4	247	15	
2025-11-30T12:00	12900	163	-57.7	-81.5	249	15	
2025-11-30T12:00	12950	162	-57.7	-81.6	252	16	
2025-11-30T12:00	13000	161	-57.9	-81.6	255	17	
2025-11-30T12:00	13050	160	-57.9	-81.6	256	17	
2025-11-30T12:00	13100	158	-57.6	-81.7	255	17	
2025-11-30T12:00	13150	157	-57.4	-81.8	256	16	
2025-11-30T12:00	13200	156	-57.4	-81.8	259	16	
2025-11-30T12:00	13250	155	-57.4	-81.8	260	16	
2025-11-30T12:00	13300	153	-57.6	-81.9	261	16	
2025-11-30T12:00	13350	152	-57.7	-81.9	264	16	
2025-11-30T12:00	13400	151	-57.7	-82.1	266	16	
2025-11-30T12:00	13450	150	-57.4	-82.0	266	16	
2025-11-30T12:00	13500	149	-57.4	-82.1	264	15	
2025-11-30T12:00	13550	147	-57.7	-82.2	264	15	
2025-11-30T12:00	13600	146	-57.8	-82.2	263	14	
2025-11-30T12:00	13650	145	-57.9	-82.2	264	13	
2025-11-30T12:00	13700	144	-58.1	-82.4	265	13	
2025-11-30T12:00	13750	143	-58.2	-82.4	263	13	
2025-11-30T12:00	13800	142	-58.1	-82.4	259	13	
2025-11-30T12:00	13850	141	-58.3	-82.6	257	12	
2025-11-30T12:00	13900	139	-57.9	-82.6	260	12	
2025-11-30T12:00	13950	138	-57.8	-82.6	267	11	
2025-11-30T12:00	14000	137	-57.8	-82.5	271	10	
2025-11-30T12:00	14050	136	-58.3	-82.7	272	10	
2025-11-30T12:00	14100	135	-58.5	-82.8	269	11	
2025-11-30T12:00	14150	134	-58.4	-82.7	264	11	
2025-11-30T12:00	14200	133	-58.4	-82.9	260	12	
2025-11-30T12:00	14250	132	-58.3	-82.9	255	12	
2025-11-30T12:00	14300	131	-58.3	-82.9	251	12	
2025-11-30T12:00	14350	130	-58.5	-83.1	250	12	
2025-11-30T12:00	14400	129	-58.2	-83.0	253	13	
2025-11-30T12:00	14450	128	-58.3	-83.0	257	12	
2025-11-30T12:00	14500	127	-58.6	-83.0	260	12	
2025-11-30T12:00	14550	126	-58.9	-83.2	262	11	
2025-11-30T12:00	14600	125	-59.0	-83.2	263	10	
2025-11-30T12:00	14650	124	-58.7	-83.1	263	9	
2025-11-30T12:00	14700	123	-58.9	-83.3	263	9	
2025-11-30T12:00	14750	122	-59.2	-83.3	260	9	
2025-11-30T12:00	14800	121	-59.3	-83.4	256	9	
2025-11-30T12:00	14850	120	-59.2	-83.4	253	9	
2025-11-30T12:00	14900	119	-59.0	-83.4	252	9	
2025-11-30T12:00	14950	118	-59.1	-83.4	250	9	
2025-11-30T12:00	15000	117	-59.4	-83.5	249	10	
2025-11-30T12:00	15050	116	-59.5	-83.6	250	12	
2025-11-30T12:00	15100	115	-59.6	-83.6	252	13	
2025-11-30T12:00	15150	114	-59.6	-83.6	256	13	
2025-11-30T12:00	15200	113	-59.6	-83.7	259	13	
2025-11-30T12:00	15250	112	-59.6	-83.7	262	13	
2025-11-30T12:00	15300	112	-59.7	-83.8	264	13	
2025-11-30T12:00	15350	111	-59.7	-83.9	267	12	
2025-11-30T12:00	15400	110	-59.9	-84.0	271	11	
2025-11-30T12:00	15450	109	-60.2	-84.1	273	10	
2025-11-30T12:00	15500	108	-60.3	-84.2	269	10	
2025-11-30T12:00	15550	107	-60.3	-84.4	260	10	
2025-11-30T12:00	15600	106	-60.0	-84.4	251	11	
2025-11-30T12:00	15650	106	-60.0	-84.4	248	11	
2025-11-30T12:00	15700	105	-60.1	-84.3	250	11	
2025-11-30T12:00	15750	104	-60.4	-84.4	252	11	
2025-11-30T12:00	15800	103	-60.4	-84.4	251	12	
2025-11-30T12:00	15850	102	-60.4	-84.3	252	14	
2025-11-30T12:00	15900	101	-60.5	-84.5	256	15	
2025-11-30T12:00	15950	100	-60.4	-84.5	259	16	
2025-11-30T12:00	16000	100	-60.2	-84.5	262	16	
2025-11-30T12:00	16050	99	-59.9	-84.4	264	15	
2025-11-30T12:00	16100	98	-60.0	-84.4	266	15	
2025-11-30T12:00	16150	97	-60.2	-84.6	266	14	
2025-11-30T12:00	16200	97	-60.2	-84.5	263	13	
2025-11-30T12:00	16250	96	-60.5	-84.6	259	12	
2025-11-30T12:00	16300	95	-60.7	-84.6	253	11	
2025-11-30T12:00	16350	94	-60.8	-84.6	247	11	
2025-11-30T12:00	16400	94	-61.0	-84.8	245	11	
2025-11-30T12:00	16450	93	-61.1	-84.8	246	11	
2025-11-30T12:00	16500	92	-61.0	-84.9	247	12	
2025-11-30T12:00	16550	91	-61.1	-85.0	249	13	
2025-11-30T12:00	16600	91	-61.1	-85.2	253	14	
2025-11-30T12:00	16650	90	-60.9	-85.2	256	15	
2025-11-30T12:00	16700	89	-60.4	-85.0	257	15	
2025-11-30T12:00	16750	88	-60.6	-85.0	258	14	
2025-11-30T12:00	16800	88	-60.9	-85.0	258	13	
2025-11-30T12:00	16850	87	-61.2	-85.1	257	12	
2025-11-30T12:00	16900	86	-61.5	-85.1	255	11	
2025-11-30T12:00	16950	86	-61.7	-85.2	253	11	
2025-11-30T12:00	17000	85	-61.8	-85.4	252	11	
2025-11-30T12:00	17050	84	-61.8	-85.5	253	12	
2025-11-30T12:00	17100	84	-61.3	-85.4	255	13	
2025-11-30T12:00	17150	83	-61.3	-85.5	258	14	
2025-11-30T12:00	17200	82	-61.4	-85.6	261	13	
2025-11-30T12:00	17250	82	-61.3	-85.7	265	12	
2025-11-30T12:00	17300	81	-61.2	-85.7	266	11	
2025-11-30T12:00	17350	80	-61.1	-85.6	266	10	
2025-11-30T12:00	17400	80	-61.3	-85.6	263	9	
2025-11-30T12:00	17450	79	-61.5	-85.7	258	9	
2025-11-30T12:00	17500	78	-61.3	-85.7	252	8	
2025-11-30T12:00	17550	78	-61.6	-85.9	246	8	
2025-11-30T12:00	17600	77	-61.4	-85.7	242	8	
2025-11-30T12:00	17650	76	-61.7	-85.8	241	9	
2025-11-30T12:00	17700	76	-62.1	-85.8	244	9	
2025-11-30T12:00	17750	75	-62.4	-86.0	250	10	
2025-11-30T12:00	17800	75	-62.5	-86.1	256	11	
2025-11-30T12:00	17850	74	-62.7	-86.2	261	13	
2025-11-30T12:00	17900	73	-62.7	-86.1	264	14	
2025-11-30T12:00	17950	73	-62.9	-86.3	268	14	
2025-11-30T12:00	18000	72	-62.8	-86.4	271	13	
2025-11-30T12:00	18050	72	-62.7	-86.3	274	13	
2025-11-30T12:00	18100	71	-62.8	-86.3	275	13	
2025-11-30T12:00	18150	71	-63.0	-86.3	275	13	
2025-11-30T12:00	18200	70	-63.4	-86.4	274	13	
2025-11-30T12:00	18250	69	-63.6	-86.4	273	13	
2025-11-30T12:00	18300	69	-63.8	-86.4	274	13	
2025-11-30T12:00	18350	68	-64.1	-86.5	276	13	
2025-11-30T12:00	18400	68	-64.3	-86.6	279	13	
2025-11-30T12:00	18450	67	-64.2	-86.6	281	12	
2025-11-30T12:00	18500	67	-64.3	-86.7	279	11	
2025-11-30T12:00	18550	66	-64.5	-86.8	275	10	
2025-11-30T12:00	18600	66	-64.5	-86.9	269	10	
2025-11-30T12:00	18650	65	-64.4	-86.8	268	11	
2025-11-30T12:00	18700	64	-64.5	-87.0	268	11	
2025-11-30T12:00	18750	64	-64.0	-86.9	268	11	
2025-11-30T12:00	18800	63	-63.6	-86.9	266	11	
2025-11-30T12:00	18850	63	-63.2	-86.7	262	11	
2025-11-30T12:00	18900	62	-63.2	-86.6	259	12	
2025-11-30T12:00	18950	62	-63.2	-86.6	260	12	
2025-11-30T12:00	19000	61	-63.0	-86.6	264	11	
2025-11-30T12:00	19050	61	-62.7	-86.4	269	11	
2025-11-30T12:00	19100	60	-63.0	-86.4	274	10	
2025-11-30T12:00	19150	60	-63.3	-86.6	278	9	
2025-11-30T12:00	19200	59	-63.4	-86.7	278	8	
2025-11-30T12:00	19250	59	-63.1	-86.5	273	7	
2025-11-30T12:00	19300	58	-63.3	-86.5	265	6	
2025-11-30T12:00	19350	58	-63.7	-86.7	256	6	
2025-11-30T12:00	19400	57	-63.9	-86.8	249	6	
2025-11-30T12:00	19450	57	-63.9	-86.8	248	7	
2025-11-30T12:00	19500	57	-63.9	-86.8	250	8	
2025-11-30T12:00	19550	56	-64.1	-86.9	252	9	
2025-11-30T12:00	19600	56	-64.3	-87.0	251	9	
2025-11-30T12:00	19650	55	-64.3	-87.0	247	9	
2025-11-30T12:00	19700	55	-64.3	-87.1	243	9	
2025-11-30T12:00	19750	54	-64.4	-87.2	246	10	
2025-11-30T12:00	19800	54	-64.3	-87.2	252	12	
2025-11-30T12:00	19850	53	-64.2	-87.1	257	13	
2025-11-30T12:00	19900	53	-64.4	-87.2	260	15	
2025-11-30T12:00	19950	53	-64.3	-87.2	264	16	
2025-11-30T12:00	20000	52	-64.4	-87.3	268	16	
2025-11-30T12:00	20050	52	-64.3		271	16	
2025-11-30T12:00	20100	51	-64.1		273	15	
2025-11-30T12:00	20150	51	-64.3		274	14	
2025-11-30T12:00	20200	50	-64.7		274	13	
2025-11-30T12:00	20250	50	-65.0		275	11	
2025-11-30T12:00	20300	50	-65.3		276	10	
2025-11-30T12:00	20350	49	-65.3		279	10	
2025-11-30T12:00	20400	49	-65.3		280	10	
2025-11-30T12:00	20450	48	-65.3		277	10	
2025-11-30T12:00	20500	48	-65.5		273	10	
2025-11-30T12:00	20550	48	-65.7		266	10	
2025-11-30T12:00	20600	47	-65.6		260	10	
2025-11-30T12:00	20650	47	-65.5		254	11	
2025-11-30T12:00	20700	46	-65.3		252	12	
2025-11-30T12:00	20750	46	-65.4		252	12	
2025-11-30T12:00	20800	46	-65.3		252	12	
2025-11-30T12:00	20850	45	-65.2		253	12	
2025-11-30T12:00	20900	45	-65.2		252	11	
2025-11-30T12:00	20950	45	-65.1		250	11	
2025-11-30T12:00	21000	44	-64.8		248	11	
2025-11-30T12:00	21050	44	-64.6		245	11	
2025-11-30T12:00	21100	44	-64.7		243	11	
2025-11-30T12:00	21150	43	-64.8		245	10	
2025-11-30T12:00	21200	43	-64.9		248	10	
2025-11-30T12:00	21250	42	-65.0		251	10	
2025-11-30T12:00	21300	42	-65.0		254	10	
2025-11-30T12:00	21350	42	-65.0		257	9	
2025-11-30T12:00	21400	41	-65.1		260	8	
2025-11-30T12:00	21450	41	-65.1		262	8	
2025-11-30T12:00	21500	41	-65.2		263	8	
2025-11-30T12:00	21550	40	-65.3		263	7	
2025-11-30T12:00	21600	40	-65.3		263	7	
2025-11-30T12:00	21650	40	-65.0		259	7	
2025-11-30T12:00	21700	39	-65.0		252	7	
2025-11-30T12:00	21750	39	-64.9		246	9	
2025-11-30T12:00	21800	39	-64.7		244	10	
2025-11-30T12:00	21850	38	-64.4		244	10	
2025-11-30T12:00	21900	38	-64.3		246	9	
2025-11-30T12:00	21950	38	-64.4		249	9	
2025-11-30T12:00	22000	38	-64.6		253	9	
2025-11-30T12:00	22050	37	-64.6		258	10	
2025-11-30T12:00	22100	37	-64.6		263	10	
2025-11-30T12:00	22150	37	-64.3		270	10	
2025-11-30T12:00	22200	36	-64.6		277	11	
2025-11-30T12:00	22250	36	-64.9		285	12	
2025-11-30T12:00	22300	36	-65.0		290	13	
2025-11-30T12:00	22350	35	-65.0		293	13	
2025-11-30T12:00	22400	35	-65.1		294	12	
2025-11-30T12:00	22450	35	-65.4		295	11	
2025-11-30T12:00	22500	35	-65.6		296	11	
2025-11-30T12:00	22550	34	-65.8		297	10	
2025-11-30T12:00	22600	34	-65.9		297	10	
2025-11-30T12:00	22650	34	-66.2		296	9	
2025-11-30T12:00	22700	33	-66.6		294	8	
2025-11-30T12:00	22750	33	-66.8		290	8	
2025-11-30T12:00	22800	33	-66.8		285	8	
2025-11-30T12:00	22850	33	-67.0		281	9	
2025-11-30T12:00	22900	32	-67.1		279	10	
2025-11-30T12:00	22950	32	-67.5		279	10	
2025-11-30T12:00	23000	32	-67.6		277	10	
2025-11-30T12:00	23050	32	-67.4		274	9	
2025-11-30T12:00	23100	31	-67.1		270	7	
2025-11-30T12:00	23150	31	-67.1		267	6	
2025-11-30T12:00	23200	31	-67.1		266	7	
2025-11-30T12:00	23250	31	-66.7		268	8	
2025-11-30T12:00	23300	30	-66.2		269	9	
2025-11-30T12:00	23350	30	-65.4		270	9	
2025-11-30T12:00	23400	30	-65.0		268	8	
2025-11-30T12:00	23450	30	-65.2		263	9	
2025-11-30T12:00	23500	29	-65.0		258	9	
2025-11-30T12:00	23550	29	-64.3		254	9	
2025-11-30T12:00	23600	29	-63.9		252	10	
2025-11-30T12:00	23650	29	-64.0		253	10	
2025-11-30T12:00	23700	28	-64.1		256	11	
2025-11-30T12:00	23750	28	-64.1		259	12	
2025-11-30T12:00	23800	28	-63.9		261	13	
2025-11-30T12:00	23850	28	-63.5		265	12	
2025-11-30T12:00	23900	27	-63.2		268	11	
2025-11-30T12:00	23950	27	-63.3		271	11	
2025-11-30T12:00	24000	27	-63.4		271	11	
2025-11-30T12:00	24050	27	-63.8		269	11	
2025-11-30T12:00	24100	27	-63.8		267	12	
2025-11-30T12:00	24150	26	-63.8		266	13	
2025-11-30T12:00	24200	26	-63.8		265	14	
2025-11-30T12:00	24250	26	-63.4		265	15	
2025-11-30T12:00	24300	26	-63.3		266	16	
2025-11-30T12:00	24350	26	-62.9		268	16	
2025-11-30T12:00	24400	25	-62.7		268	16	
2025-11-30T12:00	24450	25	-62.9		268	16	
2025-11-30T12:00	24500	25	-63.2		266	15	
2025-11-30T12:00	24550	25	-63.1		263	14	
2025-11-30T12:00	24600	24	-63.2		261	13	
2025-11-30T12:00	24650	24	-63.4		260	13	
2025-11-30T12:00	24700	24	-63.8		260	13	
2025-11-30T12:00	24750	24	-63.7		261	15	
2025-11-30T12:00	24800	24	-63.6		262	17	
2025-11-30T12:00	24850	24	-63.6		263	18	
2025-11-30T12:00	24900	23	-63.8		265	18	
2025-11-30T12:00	24950	23	-63.6		268	19	
2025-11-30T12:00	25000	23	-63.8		269	19	
2025-11-30T12:00	25050	23	-64.1		269	19	
2025-11-30T12:00	25100	23	-64.4		267	20	
2025-11-30T12:00	25150	22	-64.5		266	21	
2025-11-30T12:00	25200	22	-64.5		264	21	
2025-11-30T12:00	25250	22	-64.5		264	20	
2025-11-30T12:00	25300	22	-64.4		265	19	
2025-11-30T12:00	25350	22	-64.8		266	18	
2025-11-30T12:00	25400	22	-64.9		267	18	
2025-11-30T12:00	25450	21	-64.8		267	17	
2025-11-30T12:00	25500	21	-65.0		267	17	
2025-11-30T12:00	25550	21	-65.2		267	16	
2025-11-30T12:00	25600	21	-65.4		268	17	
2025-11-30T12:00	25650	21	-65.7		267	16	
2025-11-30T12:00	25700	20	-65.7		265	17	
2025-11-30T12:00	25750	20	-65.5		262	17	
2025-11-30T12:00	25800	20	-65.2		259	18	
2025-11-30T12:00	25850	20	-64.9		257	20	
2025-11-30T12:00	25900	20	-64.5		256	21	
2025-11-30T12:00	25950	20	-64.0		256	22	
2025-11-30T12:00	26000	19	-63.5		257	23	
2025-11-30T12:00	26050	19	-63.3		257	23	
2025-11-30T12:00	26100	19	-63.3		257	23	
2025-11-30T12:00	26150	19	-63.4		258	23	
2025-11-30T12:00	26200	19	-63.7		261	23	
2025-11-30T12:00	26250	19	-63.9		264	23	
2025-11-30T12:00	26300	19	-64.2		267	23	
2025-11-30T12:00	26350	18	-64.6		267	22	
2025-11-30T12:00	26400	18	-64.7		265	21	
2025-11-30T12:00	26450	18	-64.7		263	20	
2025-11-30T12:00	26500	18	-64.6		261	20	
2025-11-30T12:00	26550	18	-64.5		260	20	
2025-11-30T12:00	26600	18	-64.7		259	19	
2025-11-30T12:00	26650	18	-64.8		258	19	
2025-11-30T12:00	26700	17	-64.9		258	20	
2025-11-30T12:00	26750	17	-64.9		258	20	
2025-11-30T12:00	26800	17	-65.1		260	20	
2025-11-30T12:00	26850	17	-65.1		262	19	
2025-11-30T12:00	26900	17	-64.6		266	20	
2025-11-30T12:00	26950	17	-64.4		269	20	
2025-11-30T12:00	27000	17	-64.7		273	21	
2025-11-30T12:00	27050	16	-65.0		276	21	
2025-11-30T12:00	27100	16	-65.2		280	22	
2025-11-30T12:00	27150	16	-65.5		283	21	
2025-11-30T12:00	27200	16	-65.5		284	21	
2025-11-30T12:00	27250	16	-65.4		283	20	
2025-11-30T12:00	27300	16	-65.2		279	19	
2025-11-30T12:00	27350	16	-64.8		273	18	
2025-11-30T12:00	27400	15	-64.5		266	18	
2025-11-30T12:00	27450	15	-64.0		260	18	
2025-11-30T12:00	27500	15	-63.4		256	19	
2025-11-30T12:00	27550	15	-63.3		254	20	
2025-11-30T12:00	27600	15	-63.3		252	21	
2025-11-30T12:00	27650	15	-62.9		252	22	
2025-11-30T12:00	27700	15	-62.8		252	22	
2025-11-30T12:00	27750	15	-62.8		252	23	
2025-11-30T12:00	27800	15	-62.9		250	23	
2025-11-30T12:00	27850	14	-63.0		248	23	
2025-11-30T12:00	27900	14	-63.1		245	24	
2025-11-30T12:00	27950	14	-62.9		242	24	
2025-11-30T12:00	28000	14	-63.0		241	24	
2025-11-30T12:00	28050	14	-63.2		242	24	
2025-11-30T12:00	28100	14	-63.3		244	23	
2025-11-30T12:00	28150	14	-63.3		247	23	
2025-11-30T12:00	28200	14	-63.3		250	23	
2025-11-30T12:00	28250	13	-63.2		253	23	
2025-11-30T12:00	28300	13	-63.3		255	23	
2025-11-30T12:00	28350	13	-63.6		256	23	
2025-11-30T12:00	28400	13	-63.9		256	24	
2025-11-30T12:00	28450	13	-64.1		257	24	
2025-11-30T12:00	28500	13	-64.3		258	25	
2025-11-30T12:00	28550	13	-64.3		258	26	
2025-11-30T12:00	28600	13	-64.0		258	28	
2025-11-30T12:00	28650	13	-63.9		257	29	
2025-11-30T12:00	28700	13	-63.7		256	30	
2025-11-30T12:00	28750	12	-63.5		254	31	
2025-11-30T12:00	28800	12	-63.3		253	32	
2025-11-30T12:00	28850	12	-63.2		252	33	
2025-11-30T12:00	28900	12	-63.0		251	34	
2025-11-30T12:00	28950	12	-63.1		250	35	
2025-11-30T12:00	29000	12	-63.3		250	37	
2025-11-30T12:00	29050	12	-63.5		251	37	
2025-11-30T12:00	29100	12	-63.6		253	37	
2025-11-30T12:00	29150	12	-63.7		255	37	
2025-11-30T12:00	29200	12	-64.0		256	36	
2025-11-30T12:00	29250	11	-64.4		257	36	
2025-11-30T12:00	29300	11	-64.5		258	36	
2025-11-30T12:00	29350	11	-64.6		259	36	
2025-11-30T12:00	29400	11	-64.6		260	36	
2025-11-30T12:00	29450	11	-64.7		261	35	
2025-11-30T12:00	29500	11	-64.9		261	35	
2025-11-30T12:00	29550	11	-65.2		261	35	
2025-11-30T12:00	29600	11	-64.9		261	35	
2025-11-30T12:00	29650	11	-65.1		261	35	
2025-11-30T12:00	29700	11	-65.5		261	36	
2025-11-30T12:00	29750	11	-65.3		262	36	
2025-11-30T12:00	29800	10	-65.0		263	36	
2025-11-30T12:00	29850	10	-64.9		264	34	
2025-11-30T12:00	29900	10	-64.6		263	32	
2025-11-30T12:00	29950	10	-64.6		261	31	
2025-11-30T12:00	30000	10	-64.1		257	30	
2025-11-30T12:00	30050	10	-63.4		255	30	
2025-11-30T12:00	30100	10	-62.9		252	30	
2025-11-30T12:00	30150	10	-62.5		250	31	
2025-11-30T12:00	30200	10	-61.9		249	32	
2025-11-30T12:00	30250	10	-61.6		250	34	
2025-11-30T12:00	30300	10	-61.5		251	36	
2025-11-30T12:00	30350	10	-61.4		251	37	
2025-11-30T12:00	30400	9	-61.2		251	38	
2025-11-30T12:00	30450	9	-61.3		251	38	
2025-11-30T12:00	30500	9	-61.5		251	39	
2025-11-30T12:00	30550	9	-61.5		253	40	
2025-11-30T12:00	30600	9	-61.6		255	42	
2025-11-30T12:00	30650	9	-61.6		256	42	
2025-11-30T12:00	30700	9	-61.6		256	42	
2025-11-30T12:00	30750	9	-61.3		255	42	
2025-11-30T12:00	30800	9	-61.3		254	42	
2025-11-30T12:00	30850	9	-61.4		255	43	
2025-11-30T12:00	30900	9	-61.2		256	44	
2025-11-30T12:00	30950	9	-61.1		257	45	
2025-11-30T12:00	31000	9	-61.0		258	46	
2025-11-30T12:00	31050	9	-60.7		258	47	
2025-11-30T12:00	31100	8	-60.6		258	48	
2025-11-30T12:00	31150	8	-60.6		258	48	
2025-11-30T12:00	31200	8	-60.8		258	48	
2025-11-30T12:00	31250	8	-61.0		258	48	
2025-11-30T12:00	31300	8	-61.2		258	48	
2025-11-30T12:00	31350	8	-61.2		259	48	
2025-11-30T12:00	31400	8	-61.3		259	48	
2025-11-30T12:00	31450	8	-61.5		260	49	
2025-11-30T12:00	31500	8	-61.7		260	49	
2025-11-30T12:00	31550	8	-61.6		261	49	
2025-11-30T12:00	31600	8	-61.4		261	50	
2025-11-30T12:00	31650	8	-61.2		261	49	
2025-11-30T12:00	31700	8	-60.9		260	49	
2025-11-30T12:00	31750	8	-60.7		259	48	
2025-11-30T12:00	31800	8	-60.2		258	47	
2025-11-30T12:00	31850	8	-59.9		257	46	
2025-11-30T12:00	31900	7	-59.9		258	44	
2025-11-30T12:00	31950	7	-59.7		258	44	
2025-11-30T12:00	32000	7	-59.4		259	45	
2025-11-30T12:00	32050	7	-59.3		259	46	
2025-11-30T12:00	32100	7	-59.1		260	49	
2025-11-30T12:00	32150	7	-58.8		261	51	
2025-11-30T12:00	32200	7	-58.4		261	52	
2025-11-30T12:00	32250	7	-58.2		262	53	
2025-11-30T12:00	32300	7	-58.3		262	53	
2025-11-30T12:00	32350	7	-58.5		262	53	
2025-11-30T12:00	32400	7	-58.6		262	53	
2025-11-30T12:00	32450	7	-58.6		262	53	
2025-11-30T12:00	32500	7	-58.6		261	53	
2025-11-30T12:00	32550	7	-58.6		261	53	
2025-11-30T12:00	32600	7	-58.8		261	53	
2025-11-30T12:00	32650	7	-59.1		261	53	
2025-11-30T12:00	32700	7	-59.4		261	54	
2025-11-30T12:00	32750	7	-59.5		261	54	
2025-11-30T12:00	32800	6	-59.6		261	55	
2025-11-30T12:00	32850	6	-59.8		261	55	
2025-11-30T12:00	32900	6	-60.1		261	55	
2025-11-30T12:00	32950	6	-60.4		261	56	
2025-11-30T12:00	33000	6	-60.6		262	56	
2025-11-30T12:00	33050	6	-60.7		263	57	
2025-11-30T12:00	33100	6	-60.7		264	57	
2025-11-30T12:00	33150	6	-60.8		265	57	
2025-11-30T12:00	33200	6	-60.9		265	57	
2025-11-30T12:00	33250	6	-60.7		265	57	
2025-11-30T12:00	33300	6	-60.5		266	57	
2025-11-30T12:00	33350	6	-60.7		266	57	
2025-11-30T12:00	33400	6	-60.8		267	57	
2025-11-30T12:00	33450	6	-60.8		267	57	
2025-11-30T12:00	33500	6	-60.9		267	57	
2025-11-30T12:00	33550	6	-60.9		266	58	
2025-11-30T12:00	33600	6	-60.6		266	59	
2025-11-30T12:00	33650	6	-60.0		266	59	
2025-11-30T12:00	33700	6	-59.5		266	59	
2025-11-30T12:00	33750	6	-59.0		266	58	
2025-11-30T12:00	33800	6	-58.5		266	58	
2025-11-30T12:00	33850	5	-58.0		265	58	
2025-11-30T12:00	33900	5	-57.5		265	59	
2025-11-30T12:00	33950	5	-57.3		265	59	
2025-11-30T12:00	34000	5	-57.0		265	60	
2025-11-30T12:00	34050	5	-56.6		265	61	
2025-11-30T12:00	34100	5	-56.3		266	62	
2025-11-30T12:00	34150	5	-56.2		267	64	
2025-11-30T12:00	34200	5	-56.0		268	65	
2025-11-30T12:00	34250	5	-55.5		269	66	
2025-11-30T12:00	34300	5	-55.2		269	66	
2025-11-30T12:00	34350	5	-55.2		270	65	
2025-11-30T12:00	34400	5	-55.5		271	65	
2025-11-30T12:00	34450	5	-55.7		272	66	
2025-11-30T12:00	34500	5	-55.7		272	66	
2025-11-30T12:00	34550	5	-55.8		271	66	
2025-11-30T12:00	34600	5	-56.0		270	65	
2025-11-30T12:00	34650	5	-56.0		270	66	
2025-11-30T12:00	34700	5	-55.5		269	66	
2025-11-30T12:00	34750	5	-55.0		269	67	
2025-11-30T12:00	34800	5	-54.8		269	67	
2025-11-30T12:00	34850	5	-54.9		269	68	
2025-11-30T12:00	34900	5	-54.7		268	69	
